<?xml version="1.0" encoding="UTF-8" standalone="no" ?>
<gpx xmlns="http://www.topografix.com/GPX/1/1" xmlns:xsi="http://www.w3.org/2001/XMLSchema-instance" xsi:schemaLocation="http://www.topografix.com/GPX/1/1 http://www.topografix.com/GPX/1/1/gpx.xsd" version="1.1" creator="VisuGPX - https://www.visugpx.com">
  <metadata>
    <name>suite voyage</name>
  </metadata>
  <trk>
    <name><![CDATA[T17]]></name>
    <trkseg>
      <trkpt lat="49.71076" lon="0.20605">
        <ele>71.5</ele>
        <time>2020-06-18T06:33:01Z</time>
      </trkpt>
      <trkpt lat="49.71076" lon="0.20599">
        <ele>71.4</ele>
        <time>2020-06-18T06:33:02Z</time>
      </trkpt>
      <trkpt lat="49.71075" lon="0.20602">
        <ele>71.4</ele>
        <time>2020-06-18T06:33:03Z</time>
      </trkpt>
      <trkpt lat="49.71075" lon="0.20603">
        <ele>71.3</ele>
        <time>2020-06-18T06:33:04Z</time>
      </trkpt>
      <trkpt lat="49.71076" lon="0.20605">
        <ele>71.3</ele>
        <time>2020-06-18T06:33:05Z</time>
      </trkpt>
      <trkpt lat="49.71076" lon="0.20607">
        <ele>71.3</ele>
        <time>2020-06-18T06:33:06Z</time>
      </trkpt>
      <trkpt lat="49.71075" lon="0.20606">
        <ele>71.2</ele>
        <time>2020-06-18T06:33:07Z</time>
      </trkpt>
      <trkpt lat="49.71075" lon="0.20605">
        <ele>71.2</ele>
        <time>2020-06-18T06:33:08Z</time>
      </trkpt>
      <trkpt lat="49.71075" lon="0.20605">
        <ele>71.2</ele>
        <time>2020-06-18T06:33:09Z</time>
      </trkpt>
      <trkpt lat="49.71075" lon="0.20606">
        <ele>71.2</ele>
        <time>2020-06-18T06:33:10Z</time>
      </trkpt>
      <trkpt lat="49.71075" lon="0.20604">
        <ele>71.2</ele>
        <time>2020-06-18T06:33:11Z</time>
      </trkpt>
      <trkpt lat="49.71075" lon="0.206">
        <ele>71.1</ele>
        <time>2020-06-18T06:33:18Z</time>
      </trkpt>
      <trkpt lat="49.71075" lon="0.20596">
        <ele>70.8</ele>
        <time>2020-06-18T06:33:20Z</time>
      </trkpt>
      <trkpt lat="49.71075" lon="0.20591">
        <ele>70.4</ele>
        <time>2020-06-18T06:33:21Z</time>
      </trkpt>
      <trkpt lat="49.71075" lon="0.20589">
        <ele>70.3</ele>
        <time>2020-06-18T06:33:22Z</time>
      </trkpt>
      <trkpt lat="49.71075" lon="0.20585">
        <ele>69.9</ele>
        <time>2020-06-18T06:33:23Z</time>
      </trkpt>
      <trkpt lat="49.71075" lon="0.20583">
        <ele>69.7</ele>
        <time>2020-06-18T06:33:24Z</time>
      </trkpt>
      <trkpt lat="49.71075" lon="0.20578">
        <ele>69.3</ele>
        <time>2020-06-18T06:33:25Z</time>
      </trkpt>
      <trkpt lat="49.71075" lon="0.20577">
        <ele>69.2</ele>
        <time>2020-06-18T06:33:26Z</time>
      </trkpt>
      <trkpt lat="49.71074" lon="0.20572">
        <ele>68.7</ele>
        <time>2020-06-18T06:33:27Z</time>
      </trkpt>
      <trkpt lat="49.71074" lon="0.2057">
        <ele>68.6</ele>
        <time>2020-06-18T06:33:28Z</time>
      </trkpt>
      <trkpt lat="49.71075" lon="0.20566">
        <ele>68.2</ele>
        <time>2020-06-18T06:33:29Z</time>
      </trkpt>
      <trkpt lat="49.71075" lon="0.20564">
        <ele>68</ele>
        <time>2020-06-18T06:33:30Z</time>
      </trkpt>
      <trkpt lat="49.71076" lon="0.20559">
        <ele>67.5</ele>
        <time>2020-06-18T06:33:31Z</time>
      </trkpt>
      <trkpt lat="49.71076" lon="0.20557">
        <ele>67.3</ele>
        <time>2020-06-18T06:33:32Z</time>
      </trkpt>
      <trkpt lat="49.71076" lon="0.20552">
        <ele>66.9</ele>
        <time>2020-06-18T06:33:33Z</time>
      </trkpt>
      <trkpt lat="49.71076" lon="0.20551">
        <ele>66.7</ele>
        <time>2020-06-18T06:33:34Z</time>
      </trkpt>
      <trkpt lat="49.71076" lon="0.20546">
        <ele>66.3</ele>
        <time>2020-06-18T06:33:35Z</time>
      </trkpt>
      <trkpt lat="49.71077" lon="0.20544">
        <ele>66.1</ele>
        <time>2020-06-18T06:33:36Z</time>
      </trkpt>
      <trkpt lat="49.71078" lon="0.20538">
        <ele>65.5</ele>
        <time>2020-06-18T06:33:37Z</time>
      </trkpt>
      <trkpt lat="49.71078" lon="0.20536">
        <ele>65.3</ele>
        <time>2020-06-18T06:33:38Z</time>
      </trkpt>
      <trkpt lat="49.71079" lon="0.20532">
        <ele>64.9</ele>
        <time>2020-06-18T06:33:39Z</time>
      </trkpt>
      <trkpt lat="49.7108" lon="0.20528">
        <ele>64.4</ele>
        <time>2020-06-18T06:33:40Z</time>
      </trkpt>
      <trkpt lat="49.7108" lon="0.20526">
        <ele>64.3</ele>
        <time>2020-06-18T06:33:41Z</time>
      </trkpt>
      <trkpt lat="49.7108" lon="0.20524">
        <ele>64.1</ele>
        <time>2020-06-18T06:33:42Z</time>
      </trkpt>
      <trkpt lat="49.71078" lon="0.20523">
        <ele>63.8</ele>
        <time>2020-06-18T06:33:43Z</time>
      </trkpt>
      <trkpt lat="49.71075" lon="0.20522">
        <ele>63.8</ele>
        <time>2020-06-18T06:33:44Z</time>
      </trkpt>
      <trkpt lat="49.71071" lon="0.20522">
        <ele>63.5</ele>
        <time>2020-06-18T06:33:45Z</time>
      </trkpt>
      <trkpt lat="49.7107" lon="0.20522">
        <ele>63.3</ele>
        <time>2020-06-18T06:33:46Z</time>
      </trkpt>
      <trkpt lat="49.71068" lon="0.20522">
        <ele>63.2</ele>
        <time>2020-06-18T06:33:47Z</time>
      </trkpt>
      <trkpt lat="49.71067" lon="0.20521">
        <ele>63</ele>
        <time>2020-06-18T06:33:48Z</time>
      </trkpt>
      <trkpt lat="49.71066" lon="0.20522">
        <ele>62.9</ele>
        <time>2020-06-18T06:33:49Z</time>
      </trkpt>
      <trkpt lat="49.71065" lon="0.20523">
        <ele>62.8</ele>
        <time>2020-06-18T06:33:50Z</time>
      </trkpt>
      <trkpt lat="49.71064" lon="0.20525">
        <ele>62.6</ele>
        <time>2020-06-18T06:33:51Z</time>
      </trkpt>
      <trkpt lat="49.71063" lon="0.20526">
        <ele>62.5</ele>
        <time>2020-06-18T06:33:52Z</time>
      </trkpt>
      <trkpt lat="49.71061" lon="0.20528">
        <ele>62.4</ele>
        <time>2020-06-18T06:33:53Z</time>
      </trkpt>
      <trkpt lat="49.7106" lon="0.20529">
        <ele>62.2</ele>
        <time>2020-06-18T06:33:54Z</time>
      </trkpt>
      <trkpt lat="49.71058" lon="0.20532">
        <ele>62</ele>
        <time>2020-06-18T06:33:55Z</time>
      </trkpt>
      <trkpt lat="49.71057" lon="0.20534">
        <ele>61.8</ele>
        <time>2020-06-18T06:33:56Z</time>
      </trkpt>
      <trkpt lat="49.71056" lon="0.20536">
        <ele>61.7</ele>
        <time>2020-06-18T06:33:57Z</time>
      </trkpt>
      <trkpt lat="49.71054" lon="0.20539">
        <ele>61.4</ele>
        <time>2020-06-18T06:33:58Z</time>
      </trkpt>
      <trkpt lat="49.71053" lon="0.2054">
        <ele>61.4</ele>
        <time>2020-06-18T06:33:59Z</time>
      </trkpt>
      <trkpt lat="49.71052" lon="0.20542">
        <ele>61.2</ele>
        <time>2020-06-18T06:34:00Z</time>
      </trkpt>
      <trkpt lat="49.71051" lon="0.20544">
        <ele>61.1</ele>
        <time>2020-06-18T06:34:01Z</time>
      </trkpt>
      <trkpt lat="49.71049" lon="0.20548">
        <ele>60.9</ele>
        <time>2020-06-18T06:34:02Z</time>
      </trkpt>
      <trkpt lat="49.71049" lon="0.20549">
        <ele>60.8</ele>
        <time>2020-06-18T06:34:03Z</time>
      </trkpt>
      <trkpt lat="49.71048" lon="0.20552">
        <ele>60.6</ele>
        <time>2020-06-18T06:34:04Z</time>
      </trkpt>
      <trkpt lat="49.71047" lon="0.20554">
        <ele>60.5</ele>
        <time>2020-06-18T06:34:05Z</time>
      </trkpt>
      <trkpt lat="49.71046" lon="0.20558">
        <ele>60.3</ele>
        <time>2020-06-18T06:34:06Z</time>
      </trkpt>
      <trkpt lat="49.71046" lon="0.20559">
        <ele>60.2</ele>
        <time>2020-06-18T06:34:07Z</time>
      </trkpt>
      <trkpt lat="49.71044" lon="0.20564">
        <ele>59.9</ele>
        <time>2020-06-18T06:34:08Z</time>
      </trkpt>
      <trkpt lat="49.71044" lon="0.20566">
        <ele>59.9</ele>
        <time>2020-06-18T06:34:09Z</time>
      </trkpt>
      <trkpt lat="49.71043" lon="0.20571">
        <ele>59.6</ele>
        <time>2020-06-18T06:34:10Z</time>
      </trkpt>
      <trkpt lat="49.71043" lon="0.20572">
        <ele>59.5</ele>
        <time>2020-06-18T06:34:11Z</time>
      </trkpt>
      <trkpt lat="49.71042" lon="0.20578">
        <ele>59.3</ele>
        <time>2020-06-18T06:34:12Z</time>
      </trkpt>
      <trkpt lat="49.71042" lon="0.20579">
        <ele>59.2</ele>
        <time>2020-06-18T06:34:13Z</time>
      </trkpt>
      <trkpt lat="49.71041" lon="0.20584">
        <ele>59</ele>
        <time>2020-06-18T06:34:14Z</time>
      </trkpt>
      <trkpt lat="49.7104" lon="0.20586">
        <ele>58.9</ele>
        <time>2020-06-18T06:34:15Z</time>
      </trkpt>
      <trkpt lat="49.7104" lon="0.20591">
        <ele>58.6</ele>
        <time>2020-06-18T06:34:16Z</time>
      </trkpt>
      <trkpt lat="49.71039" lon="0.20593">
        <ele>58.5</ele>
        <time>2020-06-18T06:34:17Z</time>
      </trkpt>
      <trkpt lat="49.71038" lon="0.20598">
        <ele>58.3</ele>
        <time>2020-06-18T06:34:18Z</time>
      </trkpt>
      <trkpt lat="49.71038" lon="0.206">
        <ele>58.2</ele>
        <time>2020-06-18T06:34:19Z</time>
      </trkpt>
      <trkpt lat="49.71037" lon="0.20606">
        <ele>57.9</ele>
        <time>2020-06-18T06:34:20Z</time>
      </trkpt>
      <trkpt lat="49.71036" lon="0.20612">
        <ele>57.6</ele>
        <time>2020-06-18T06:34:21Z</time>
      </trkpt>
      <trkpt lat="49.71034" lon="0.2062">
        <ele>57.2</ele>
        <time>2020-06-18T06:34:22Z</time>
      </trkpt>
      <trkpt lat="49.71033" lon="0.20628">
        <ele>56.8</ele>
        <time>2020-06-18T06:34:23Z</time>
      </trkpt>
      <trkpt lat="49.71032" lon="0.20635">
        <ele>56.4</ele>
        <time>2020-06-18T06:34:24Z</time>
      </trkpt>
      <trkpt lat="49.71031" lon="0.20643">
        <ele>56</ele>
        <time>2020-06-18T06:34:25Z</time>
      </trkpt>
      <trkpt lat="49.7103" lon="0.20649">
        <ele>55.6</ele>
        <time>2020-06-18T06:34:26Z</time>
      </trkpt>
      <trkpt lat="49.71029" lon="0.20656">
        <ele>55.2</ele>
        <time>2020-06-18T06:34:27Z</time>
      </trkpt>
      <trkpt lat="49.71028" lon="0.20662">
        <ele>54.9</ele>
        <time>2020-06-18T06:34:28Z</time>
      </trkpt>
      <trkpt lat="49.71027" lon="0.20668">
        <ele>54.5</ele>
        <time>2020-06-18T06:34:29Z</time>
      </trkpt>
      <trkpt lat="49.71026" lon="0.20674">
        <ele>54.1</ele>
        <time>2020-06-18T06:34:30Z</time>
      </trkpt>
      <trkpt lat="49.71025" lon="0.20679">
        <ele>53.8</ele>
        <time>2020-06-18T06:34:31Z</time>
      </trkpt>
      <trkpt lat="49.71023" lon="0.20684">
        <ele>53.5</ele>
        <time>2020-06-18T06:34:32Z</time>
      </trkpt>
      <trkpt lat="49.71023" lon="0.20689">
        <ele>53.2</ele>
        <time>2020-06-18T06:34:33Z</time>
      </trkpt>
      <trkpt lat="49.71022" lon="0.20694">
        <ele>52.9</ele>
        <time>2020-06-18T06:34:34Z</time>
      </trkpt>
      <trkpt lat="49.71021" lon="0.20699">
        <ele>52.6</ele>
        <time>2020-06-18T06:34:35Z</time>
      </trkpt>
      <trkpt lat="49.71019" lon="0.20704">
        <ele>52.3</ele>
        <time>2020-06-18T06:34:36Z</time>
      </trkpt>
      <trkpt lat="49.71019" lon="0.20708">
        <ele>52</ele>
        <time>2020-06-18T06:34:37Z</time>
      </trkpt>
      <trkpt lat="49.71019" lon="0.20713">
        <ele>51.7</ele>
        <time>2020-06-18T06:34:38Z</time>
      </trkpt>
      <trkpt lat="49.71018" lon="0.20715">
        <ele>51.6</ele>
        <time>2020-06-18T06:34:39Z</time>
      </trkpt>
      <trkpt lat="49.71018" lon="0.2072">
        <ele>51.3</ele>
        <time>2020-06-18T06:34:40Z</time>
      </trkpt>
      <trkpt lat="49.71017" lon="0.20725">
        <ele>51.1</ele>
        <time>2020-06-18T06:34:41Z</time>
      </trkpt>
      <trkpt lat="49.71016" lon="0.20731">
        <ele>50.7</ele>
        <time>2020-06-18T06:34:42Z</time>
      </trkpt>
      <trkpt lat="49.71016" lon="0.20733">
        <ele>50.6</ele>
        <time>2020-06-18T06:34:43Z</time>
      </trkpt>
      <trkpt lat="49.71015" lon="0.20737">
        <ele>50.4</ele>
        <time>2020-06-18T06:34:44Z</time>
      </trkpt>
      <trkpt lat="49.71015" lon="0.20738">
        <ele>50.3</ele>
        <time>2020-06-18T06:34:45Z</time>
      </trkpt>
      <trkpt lat="49.71013" lon="0.20741">
        <ele>50.2</ele>
        <time>2020-06-18T06:34:46Z</time>
      </trkpt>
      <trkpt lat="49.71013" lon="0.20743">
        <ele>50.1</ele>
        <time>2020-06-18T06:34:47Z</time>
      </trkpt>
      <trkpt lat="49.7101" lon="0.20747">
        <ele>49.8</ele>
        <time>2020-06-18T06:34:48Z</time>
      </trkpt>
      <trkpt lat="49.71009" lon="0.20748">
        <ele>49.7</ele>
        <time>2020-06-18T06:34:49Z</time>
      </trkpt>
      <trkpt lat="49.71008" lon="0.20752">
        <ele>49.5</ele>
        <time>2020-06-18T06:34:50Z</time>
      </trkpt>
      <trkpt lat="49.71007" lon="0.20756">
        <ele>49.3</ele>
        <time>2020-06-18T06:34:51Z</time>
      </trkpt>
      <trkpt lat="49.71004" lon="0.20761">
        <ele>49.1</ele>
        <time>2020-06-18T06:34:52Z</time>
      </trkpt>
      <trkpt lat="49.71003" lon="0.20765">
        <ele>48.9</ele>
        <time>2020-06-18T06:34:53Z</time>
      </trkpt>
      <trkpt lat="49.71002" lon="0.20769">
        <ele>48.7</ele>
        <time>2020-06-18T06:34:54Z</time>
      </trkpt>
      <trkpt lat="49.71001" lon="0.20774">
        <ele>48.5</ele>
        <time>2020-06-18T06:34:55Z</time>
      </trkpt>
      <trkpt lat="49.70999" lon="0.20778">
        <ele>48.3</ele>
        <time>2020-06-18T06:34:56Z</time>
      </trkpt>
      <trkpt lat="49.70998" lon="0.20782">
        <ele>48.1</ele>
        <time>2020-06-18T06:34:57Z</time>
      </trkpt>
      <trkpt lat="49.70996" lon="0.20787">
        <ele>47.9</ele>
        <time>2020-06-18T06:34:58Z</time>
      </trkpt>
      <trkpt lat="49.70994" lon="0.20789">
        <ele>47.6</ele>
        <time>2020-06-18T06:34:59Z</time>
      </trkpt>
      <trkpt lat="49.70993" lon="0.20794">
        <ele>47.5</ele>
        <time>2020-06-18T06:35:00Z</time>
      </trkpt>
      <trkpt lat="49.70992" lon="0.20796">
        <ele>47.5</ele>
        <time>2020-06-18T06:35:01Z</time>
      </trkpt>
      <trkpt lat="49.70991" lon="0.20801">
        <ele>47.5</ele>
        <time>2020-06-18T06:35:02Z</time>
      </trkpt>
      <trkpt lat="49.7099" lon="0.20803">
        <ele>47.5</ele>
        <time>2020-06-18T06:35:03Z</time>
      </trkpt>
      <trkpt lat="49.70989" lon="0.20807">
        <ele>47.5</ele>
        <time>2020-06-18T06:35:04Z</time>
      </trkpt>
      <trkpt lat="49.70989" lon="0.20813">
        <ele>47.4</ele>
        <time>2020-06-18T06:35:05Z</time>
      </trkpt>
      <trkpt lat="49.70988" lon="0.20815">
        <ele>47.4</ele>
        <time>2020-06-18T06:35:06Z</time>
      </trkpt>
      <trkpt lat="49.70988" lon="0.20819">
        <ele>47.3</ele>
        <time>2020-06-18T06:35:07Z</time>
      </trkpt>
      <trkpt lat="49.70988" lon="0.20821">
        <ele>47.3</ele>
        <time>2020-06-18T06:35:08Z</time>
      </trkpt>
      <trkpt lat="49.70988" lon="0.20825">
        <ele>47.3</ele>
        <time>2020-06-18T06:35:09Z</time>
      </trkpt>
      <trkpt lat="49.70988" lon="0.20832">
        <ele>47.2</ele>
        <time>2020-06-18T06:35:10Z</time>
      </trkpt>
      <trkpt lat="49.70988" lon="0.20834">
        <ele>47.2</ele>
        <time>2020-06-18T06:35:11Z</time>
      </trkpt>
      <trkpt lat="49.70988" lon="0.20839">
        <ele>47.1</ele>
        <time>2020-06-18T06:35:12Z</time>
      </trkpt>
      <trkpt lat="49.70987" lon="0.20844">
        <ele>47.1</ele>
        <time>2020-06-18T06:35:13Z</time>
      </trkpt>
      <trkpt lat="49.70986" lon="0.20849">
        <ele>47</ele>
        <time>2020-06-18T06:35:14Z</time>
      </trkpt>
      <trkpt lat="49.70986" lon="0.20855">
        <ele>47</ele>
        <time>2020-06-18T06:35:15Z</time>
      </trkpt>
      <trkpt lat="49.70985" lon="0.2086">
        <ele>46.9</ele>
        <time>2020-06-18T06:35:16Z</time>
      </trkpt>
      <trkpt lat="49.70984" lon="0.20867">
        <ele>46.9</ele>
        <time>2020-06-18T06:35:17Z</time>
      </trkpt>
      <trkpt lat="49.70984" lon="0.20872">
        <ele>46.9</ele>
        <time>2020-06-18T06:35:18Z</time>
      </trkpt>
      <trkpt lat="49.70982" lon="0.20877">
        <ele>46.8</ele>
        <time>2020-06-18T06:35:19Z</time>
      </trkpt>
      <trkpt lat="49.70982" lon="0.20883">
        <ele>46.8</ele>
        <time>2020-06-18T06:35:20Z</time>
      </trkpt>
      <trkpt lat="49.70981" lon="0.20889">
        <ele>46.8</ele>
        <time>2020-06-18T06:35:21Z</time>
      </trkpt>
      <trkpt lat="49.7098" lon="0.20894">
        <ele>46.8</ele>
        <time>2020-06-18T06:35:22Z</time>
      </trkpt>
      <trkpt lat="49.70979" lon="0.20899">
        <ele>46.8</ele>
        <time>2020-06-18T06:35:23Z</time>
      </trkpt>
      <trkpt lat="49.70977" lon="0.20905">
        <ele>46.8</ele>
        <time>2020-06-18T06:35:24Z</time>
      </trkpt>
      <trkpt lat="49.70976" lon="0.20911">
        <ele>46.7</ele>
        <time>2020-06-18T06:35:25Z</time>
      </trkpt>
      <trkpt lat="49.70975" lon="0.20916">
        <ele>46.7</ele>
        <time>2020-06-18T06:35:26Z</time>
      </trkpt>
      <trkpt lat="49.70974" lon="0.20921">
        <ele>46.7</ele>
        <time>2020-06-18T06:35:27Z</time>
      </trkpt>
      <trkpt lat="49.70973" lon="0.20927">
        <ele>46.7</ele>
        <time>2020-06-18T06:35:28Z</time>
      </trkpt>
      <trkpt lat="49.70972" lon="0.20932">
        <ele>46.7</ele>
        <time>2020-06-18T06:35:29Z</time>
      </trkpt>
      <trkpt lat="49.70971" lon="0.20938">
        <ele>46.7</ele>
        <time>2020-06-18T06:35:30Z</time>
      </trkpt>
      <trkpt lat="49.7097" lon="0.20944">
        <ele>46.6</ele>
        <time>2020-06-18T06:35:31Z</time>
      </trkpt>
      <trkpt lat="49.70969" lon="0.2095">
        <ele>46.6</ele>
        <time>2020-06-18T06:35:32Z</time>
      </trkpt>
      <trkpt lat="49.70967" lon="0.20956">
        <ele>46.6</ele>
        <time>2020-06-18T06:35:33Z</time>
      </trkpt>
      <trkpt lat="49.70966" lon="0.20961">
        <ele>46.6</ele>
        <time>2020-06-18T06:35:34Z</time>
      </trkpt>
      <trkpt lat="49.70966" lon="0.20965">
        <ele>46.6</ele>
        <time>2020-06-18T06:35:35Z</time>
      </trkpt>
      <trkpt lat="49.70965" lon="0.2097">
        <ele>46.5</ele>
        <time>2020-06-18T06:35:36Z</time>
      </trkpt>
      <trkpt lat="49.70964" lon="0.20974">
        <ele>46.5</ele>
        <time>2020-06-18T06:35:37Z</time>
      </trkpt>
      <trkpt lat="49.70964" lon="0.20979">
        <ele>46.5</ele>
        <time>2020-06-18T06:35:38Z</time>
      </trkpt>
      <trkpt lat="49.70964" lon="0.20983">
        <ele>46.5</ele>
        <time>2020-06-18T06:35:39Z</time>
      </trkpt>
      <trkpt lat="49.70963" lon="0.20989">
        <ele>46.5</ele>
        <time>2020-06-18T06:35:40Z</time>
      </trkpt>
      <trkpt lat="49.70962" lon="0.20994">
        <ele>46.4</ele>
        <time>2020-06-18T06:35:41Z</time>
      </trkpt>
      <trkpt lat="49.70962" lon="0.20999">
        <ele>46.4</ele>
        <time>2020-06-18T06:35:42Z</time>
      </trkpt>
      <trkpt lat="49.7096" lon="0.21005">
        <ele>46.4</ele>
        <time>2020-06-18T06:35:43Z</time>
      </trkpt>
      <trkpt lat="49.70959" lon="0.21011">
        <ele>46.3</ele>
        <time>2020-06-18T06:35:44Z</time>
      </trkpt>
      <trkpt lat="49.70958" lon="0.21018">
        <ele>46.3</ele>
        <time>2020-06-18T06:35:45Z</time>
      </trkpt>
      <trkpt lat="49.70957" lon="0.21024">
        <ele>46.3</ele>
        <time>2020-06-18T06:35:46Z</time>
      </trkpt>
      <trkpt lat="49.70956" lon="0.21029">
        <ele>46.2</ele>
        <time>2020-06-18T06:35:47Z</time>
      </trkpt>
      <trkpt lat="49.70955" lon="0.21035">
        <ele>46.2</ele>
        <time>2020-06-18T06:35:48Z</time>
      </trkpt>
      <trkpt lat="49.70955" lon="0.21037">
        <ele>46.2</ele>
        <time>2020-06-18T06:35:49Z</time>
      </trkpt>
      <trkpt lat="49.70954" lon="0.21041">
        <ele>46.2</ele>
        <time>2020-06-18T06:35:50Z</time>
      </trkpt>
      <trkpt lat="49.70953" lon="0.21046">
        <ele>46.2</ele>
        <time>2020-06-18T06:35:51Z</time>
      </trkpt>
      <trkpt lat="49.70953" lon="0.21051">
        <ele>46.2</ele>
        <time>2020-06-18T06:35:52Z</time>
      </trkpt>
      <trkpt lat="49.70953" lon="0.21055">
        <ele>46.2</ele>
        <time>2020-06-18T06:35:53Z</time>
      </trkpt>
      <trkpt lat="49.70953" lon="0.2106">
        <ele>46.2</ele>
        <time>2020-06-18T06:35:54Z</time>
      </trkpt>
      <trkpt lat="49.70953" lon="0.21065">
        <ele>46.2</ele>
        <time>2020-06-18T06:35:55Z</time>
      </trkpt>
      <trkpt lat="49.70953" lon="0.21069">
        <ele>46.1</ele>
        <time>2020-06-18T06:35:56Z</time>
      </trkpt>
      <trkpt lat="49.70952" lon="0.21075">
        <ele>46.1</ele>
        <time>2020-06-18T06:35:57Z</time>
      </trkpt>
      <trkpt lat="49.70952" lon="0.21081">
        <ele>46.1</ele>
        <time>2020-06-18T06:35:58Z</time>
      </trkpt>
      <trkpt lat="49.70952" lon="0.21087">
        <ele>46</ele>
        <time>2020-06-18T06:35:59Z</time>
      </trkpt>
      <trkpt lat="49.7095" lon="0.21093">
        <ele>45.9</ele>
        <time>2020-06-18T06:36:00Z</time>
      </trkpt>
      <trkpt lat="49.7095" lon="0.21098">
        <ele>45.9</ele>
        <time>2020-06-18T06:36:01Z</time>
      </trkpt>
      <trkpt lat="49.70949" lon="0.21103">
        <ele>45.8</ele>
        <time>2020-06-18T06:36:02Z</time>
      </trkpt>
      <trkpt lat="49.70948" lon="0.21109">
        <ele>45.7</ele>
        <time>2020-06-18T06:36:03Z</time>
      </trkpt>
      <trkpt lat="49.70948" lon="0.21114">
        <ele>45.6</ele>
        <time>2020-06-18T06:36:04Z</time>
      </trkpt>
      <trkpt lat="49.70947" lon="0.2112">
        <ele>45.4</ele>
        <time>2020-06-18T06:36:05Z</time>
      </trkpt>
      <trkpt lat="49.70947" lon="0.21122">
        <ele>45.4</ele>
        <time>2020-06-18T06:36:06Z</time>
      </trkpt>
      <trkpt lat="49.70946" lon="0.21128">
        <ele>45.2</ele>
        <time>2020-06-18T06:36:07Z</time>
      </trkpt>
      <trkpt lat="49.70946" lon="0.2113">
        <ele>45.1</ele>
        <time>2020-06-18T06:36:08Z</time>
      </trkpt>
      <trkpt lat="49.70946" lon="0.21137">
        <ele>44.9</ele>
        <time>2020-06-18T06:36:09Z</time>
      </trkpt>
      <trkpt lat="49.70946" lon="0.21139">
        <ele>44.9</ele>
        <time>2020-06-18T06:36:10Z</time>
      </trkpt>
      <trkpt lat="49.70946" lon="0.21143">
        <ele>44.7</ele>
        <time>2020-06-18T06:36:11Z</time>
      </trkpt>
      <trkpt lat="49.70947" lon="0.21145">
        <ele>44.6</ele>
        <time>2020-06-18T06:36:12Z</time>
      </trkpt>
      <trkpt lat="49.70946" lon="0.21151">
        <ele>44.4</ele>
        <time>2020-06-18T06:36:13Z</time>
      </trkpt>
      <trkpt lat="49.70945" lon="0.21154">
        <ele>44.3</ele>
        <time>2020-06-18T06:36:14Z</time>
      </trkpt>
      <trkpt lat="49.70944" lon="0.21159">
        <ele>44.1</ele>
        <time>2020-06-18T06:36:15Z</time>
      </trkpt>
      <trkpt lat="49.70942" lon="0.21165">
        <ele>43.9</ele>
        <time>2020-06-18T06:36:16Z</time>
      </trkpt>
      <trkpt lat="49.70939" lon="0.2117">
        <ele>43.6</ele>
        <time>2020-06-18T06:36:17Z</time>
      </trkpt>
      <trkpt lat="49.70938" lon="0.21174">
        <ele>43.5</ele>
        <time>2020-06-18T06:36:18Z</time>
      </trkpt>
      <trkpt lat="49.70937" lon="0.21179">
        <ele>43.3</ele>
        <time>2020-06-18T06:36:19Z</time>
      </trkpt>
      <trkpt lat="49.70935" lon="0.21183">
        <ele>43.1</ele>
        <time>2020-06-18T06:36:20Z</time>
      </trkpt>
      <trkpt lat="49.70934" lon="0.21187">
        <ele>43</ele>
        <time>2020-06-18T06:36:21Z</time>
      </trkpt>
      <trkpt lat="49.70933" lon="0.21191">
        <ele>42.8</ele>
        <time>2020-06-18T06:36:22Z</time>
      </trkpt>
      <trkpt lat="49.70932" lon="0.21196">
        <ele>42.7</ele>
        <time>2020-06-18T06:36:23Z</time>
      </trkpt>
      <trkpt lat="49.70932" lon="0.212">
        <ele>42.5</ele>
        <time>2020-06-18T06:36:24Z</time>
      </trkpt>
      <trkpt lat="49.70932" lon="0.21207">
        <ele>42.3</ele>
        <time>2020-06-18T06:36:25Z</time>
      </trkpt>
      <trkpt lat="49.7093" lon="0.2121">
        <ele>42.1</ele>
        <time>2020-06-18T06:36:26Z</time>
      </trkpt>
      <trkpt lat="49.7093" lon="0.21215">
        <ele>42</ele>
        <time>2020-06-18T06:36:27Z</time>
      </trkpt>
      <trkpt lat="49.7093" lon="0.21217">
        <ele>41.9</ele>
        <time>2020-06-18T06:36:28Z</time>
      </trkpt>
      <trkpt lat="49.7093" lon="0.2122">
        <ele>41.8</ele>
        <time>2020-06-18T06:36:29Z</time>
      </trkpt>
      <trkpt lat="49.70929" lon="0.21224">
        <ele>41.6</ele>
        <time>2020-06-18T06:36:30Z</time>
      </trkpt>
      <trkpt lat="49.70929" lon="0.21226">
        <ele>41.5</ele>
        <time>2020-06-18T06:36:31Z</time>
      </trkpt>
      <trkpt lat="49.70929" lon="0.21228">
        <ele>41.5</ele>
        <time>2020-06-18T06:36:32Z</time>
      </trkpt>
      <trkpt lat="49.70928" lon="0.21233">
        <ele>41.2</ele>
        <time>2020-06-18T06:36:33Z</time>
      </trkpt>
      <trkpt lat="49.70927" lon="0.21235">
        <ele>41.1</ele>
        <time>2020-06-18T06:36:34Z</time>
      </trkpt>
      <trkpt lat="49.70927" lon="0.21241">
        <ele>40.8</ele>
        <time>2020-06-18T06:36:35Z</time>
      </trkpt>
      <trkpt lat="49.70927" lon="0.21243">
        <ele>40.7</ele>
        <time>2020-06-18T06:36:36Z</time>
      </trkpt>
      <trkpt lat="49.70927" lon="0.21249">
        <ele>40.5</ele>
        <time>2020-06-18T06:36:37Z</time>
      </trkpt>
      <trkpt lat="49.70926" lon="0.21256">
        <ele>40.2</ele>
        <time>2020-06-18T06:36:38Z</time>
      </trkpt>
      <trkpt lat="49.70926" lon="0.21262">
        <ele>40</ele>
        <time>2020-06-18T06:36:39Z</time>
      </trkpt>
      <trkpt lat="49.70925" lon="0.21268">
        <ele>39.7</ele>
        <time>2020-06-18T06:36:40Z</time>
      </trkpt>
      <trkpt lat="49.70925" lon="0.21275">
        <ele>39.4</ele>
        <time>2020-06-18T06:36:41Z</time>
      </trkpt>
      <trkpt lat="49.70924" lon="0.21281">
        <ele>39.2</ele>
        <time>2020-06-18T06:36:42Z</time>
      </trkpt>
      <trkpt lat="49.70924" lon="0.21288">
        <ele>38.9</ele>
        <time>2020-06-18T06:36:43Z</time>
      </trkpt>
      <trkpt lat="49.70924" lon="0.21294">
        <ele>38.6</ele>
        <time>2020-06-18T06:36:44Z</time>
      </trkpt>
      <trkpt lat="49.70925" lon="0.21299">
        <ele>38.4</ele>
        <time>2020-06-18T06:36:45Z</time>
      </trkpt>
      <trkpt lat="49.70925" lon="0.21304">
        <ele>38.1</ele>
        <time>2020-06-18T06:36:46Z</time>
      </trkpt>
      <trkpt lat="49.70926" lon="0.2131">
        <ele>37.9</ele>
        <time>2020-06-18T06:36:47Z</time>
      </trkpt>
      <trkpt lat="49.70928" lon="0.21315">
        <ele>37.6</ele>
        <time>2020-06-18T06:36:48Z</time>
      </trkpt>
      <trkpt lat="49.70927" lon="0.21322">
        <ele>37.3</ele>
        <time>2020-06-18T06:36:49Z</time>
      </trkpt>
      <trkpt lat="49.70927" lon="0.2133">
        <ele>36.9</ele>
        <time>2020-06-18T06:36:50Z</time>
      </trkpt>
      <trkpt lat="49.70928" lon="0.21337">
        <ele>36.6</ele>
        <time>2020-06-18T06:36:51Z</time>
      </trkpt>
      <trkpt lat="49.70928" lon="0.21343">
        <ele>36</ele>
        <time>2020-06-18T06:36:52Z</time>
      </trkpt>
      <trkpt lat="49.70927" lon="0.21351">
        <ele>35.7</ele>
        <time>2020-06-18T06:36:53Z</time>
      </trkpt>
      <trkpt lat="49.70928" lon="0.21356">
        <ele>35.5</ele>
        <time>2020-06-18T06:36:54Z</time>
      </trkpt>
      <trkpt lat="49.70928" lon="0.21362">
        <ele>35.2</ele>
        <time>2020-06-18T06:36:55Z</time>
      </trkpt>
      <trkpt lat="49.70929" lon="0.21367">
        <ele>34.9</ele>
        <time>2020-06-18T06:36:56Z</time>
      </trkpt>
      <trkpt lat="49.70929" lon="0.21374">
        <ele>34.6</ele>
        <time>2020-06-18T06:36:57Z</time>
      </trkpt>
      <trkpt lat="49.70931" lon="0.21379">
        <ele>34.3</ele>
        <time>2020-06-18T06:36:58Z</time>
      </trkpt>
      <trkpt lat="49.70932" lon="0.21385">
        <ele>34</ele>
        <time>2020-06-18T06:36:59Z</time>
      </trkpt>
      <trkpt lat="49.70933" lon="0.21389">
        <ele>33.8</ele>
        <time>2020-06-18T06:37:00Z</time>
      </trkpt>
      <trkpt lat="49.70934" lon="0.21394">
        <ele>33.6</ele>
        <time>2020-06-18T06:37:01Z</time>
      </trkpt>
      <trkpt lat="49.70935" lon="0.214">
        <ele>33.3</ele>
        <time>2020-06-18T06:37:02Z</time>
      </trkpt>
      <trkpt lat="49.70937" lon="0.21405">
        <ele>33.1</ele>
        <time>2020-06-18T06:37:03Z</time>
      </trkpt>
      <trkpt lat="49.70938" lon="0.2141">
        <ele>32.8</ele>
        <time>2020-06-18T06:37:04Z</time>
      </trkpt>
      <trkpt lat="49.70939" lon="0.21415">
        <ele>32.6</ele>
        <time>2020-06-18T06:37:05Z</time>
      </trkpt>
      <trkpt lat="49.70941" lon="0.2142">
        <ele>32.4</ele>
        <time>2020-06-18T06:37:06Z</time>
      </trkpt>
      <trkpt lat="49.70942" lon="0.21424">
        <ele>32.1</ele>
        <time>2020-06-18T06:37:07Z</time>
      </trkpt>
      <trkpt lat="49.70942" lon="0.21429">
        <ele>31.9</ele>
        <time>2020-06-18T06:37:08Z</time>
      </trkpt>
      <trkpt lat="49.70944" lon="0.21434">
        <ele>31.7</ele>
        <time>2020-06-18T06:37:09Z</time>
      </trkpt>
      <trkpt lat="49.70945" lon="0.21441">
        <ele>31.4</ele>
        <time>2020-06-18T06:37:10Z</time>
      </trkpt>
      <trkpt lat="49.70947" lon="0.21447">
        <ele>31.1</ele>
        <time>2020-06-18T06:37:11Z</time>
      </trkpt>
      <trkpt lat="49.70948" lon="0.21454">
        <ele>30.7</ele>
        <time>2020-06-18T06:37:12Z</time>
      </trkpt>
      <trkpt lat="49.7095" lon="0.21461">
        <ele>30.4</ele>
        <time>2020-06-18T06:37:13Z</time>
      </trkpt>
      <trkpt lat="49.7095" lon="0.2147">
        <ele>30</ele>
        <time>2020-06-18T06:37:14Z</time>
      </trkpt>
      <trkpt lat="49.70952" lon="0.21478">
        <ele>29.7</ele>
        <time>2020-06-18T06:37:15Z</time>
      </trkpt>
      <trkpt lat="49.70953" lon="0.21485">
        <ele>29.3</ele>
        <time>2020-06-18T06:37:16Z</time>
      </trkpt>
      <trkpt lat="49.70955" lon="0.2149">
        <ele>29</ele>
        <time>2020-06-18T06:37:17Z</time>
      </trkpt>
      <trkpt lat="49.70956" lon="0.21497">
        <ele>28.8</ele>
        <time>2020-06-18T06:37:18Z</time>
      </trkpt>
      <trkpt lat="49.70957" lon="0.21503">
        <ele>28.5</ele>
        <time>2020-06-18T06:37:19Z</time>
      </trkpt>
      <trkpt lat="49.70959" lon="0.21509">
        <ele>28.2</ele>
        <time>2020-06-18T06:37:20Z</time>
      </trkpt>
      <trkpt lat="49.70959" lon="0.21515">
        <ele>28</ele>
        <time>2020-06-18T06:37:21Z</time>
      </trkpt>
      <trkpt lat="49.7096" lon="0.21521">
        <ele>27.8</ele>
        <time>2020-06-18T06:37:22Z</time>
      </trkpt>
      <trkpt lat="49.7096" lon="0.21526">
        <ele>27.6</ele>
        <time>2020-06-18T06:37:23Z</time>
      </trkpt>
      <trkpt lat="49.70961" lon="0.21532">
        <ele>27.4</ele>
        <time>2020-06-18T06:37:24Z</time>
      </trkpt>
      <trkpt lat="49.70962" lon="0.21537">
        <ele>27.2</ele>
        <time>2020-06-18T06:37:25Z</time>
      </trkpt>
      <trkpt lat="49.70962" lon="0.21541">
        <ele>27</ele>
        <time>2020-06-18T06:37:26Z</time>
      </trkpt>
      <trkpt lat="49.70963" lon="0.21546">
        <ele>26.8</ele>
        <time>2020-06-18T06:37:27Z</time>
      </trkpt>
      <trkpt lat="49.70963" lon="0.21548">
        <ele>26.8</ele>
        <time>2020-06-18T06:37:28Z</time>
      </trkpt>
      <trkpt lat="49.70964" lon="0.21552">
        <ele>26.6</ele>
        <time>2020-06-18T06:37:29Z</time>
      </trkpt>
      <trkpt lat="49.70964" lon="0.21554">
        <ele>26.5</ele>
        <time>2020-06-18T06:37:30Z</time>
      </trkpt>
      <trkpt lat="49.70965" lon="0.21558">
        <ele>26.4</ele>
        <time>2020-06-18T06:37:31Z</time>
      </trkpt>
      <trkpt lat="49.70965" lon="0.2156">
        <ele>26.3</ele>
        <time>2020-06-18T06:37:32Z</time>
      </trkpt>
      <trkpt lat="49.70965" lon="0.21561">
        <ele>26.3</ele>
        <time>2020-06-18T06:37:33Z</time>
      </trkpt>
      <trkpt lat="49.70965" lon="0.21564">
        <ele>26.2</ele>
        <time>2020-06-18T06:37:34Z</time>
      </trkpt>
      <trkpt lat="49.70965" lon="0.21565">
        <ele>26.1</ele>
        <time>2020-06-18T06:37:35Z</time>
      </trkpt>
      <trkpt lat="49.70965" lon="0.21564">
        <ele>26.1</ele>
        <time>2020-06-18T06:37:36Z</time>
      </trkpt>
      <trkpt lat="49.70964" lon="0.21564">
        <ele>26.1</ele>
        <time>2020-06-18T06:37:37Z</time>
      </trkpt>
      <trkpt lat="49.70965" lon="0.21564">
        <ele>26.1</ele>
        <time>2020-06-18T06:37:38Z</time>
      </trkpt>
      <trkpt lat="49.70965" lon="0.21565">
        <ele>26.1</ele>
        <time>2020-06-18T06:37:39Z</time>
      </trkpt>
      <trkpt lat="49.70964" lon="0.21565">
        <ele>26</ele>
        <time>2020-06-18T06:37:40Z</time>
      </trkpt>
      <trkpt lat="49.70964" lon="0.21566">
        <ele>26</ele>
        <time>2020-06-18T06:37:41Z</time>
      </trkpt>
      <trkpt lat="49.70963" lon="0.21567">
        <ele>25.9</ele>
        <time>2020-06-18T06:37:42Z</time>
      </trkpt>
      <trkpt lat="49.70961" lon="0.21569">
        <ele>25.8</ele>
        <time>2020-06-18T06:37:43Z</time>
      </trkpt>
      <trkpt lat="49.70959" lon="0.21571">
        <ele>25.7</ele>
        <time>2020-06-18T06:37:44Z</time>
      </trkpt>
      <trkpt lat="49.70958" lon="0.21573">
        <ele>25.2</ele>
        <time>2020-06-18T06:37:45Z</time>
      </trkpt>
      <trkpt lat="49.70956" lon="0.21576">
        <ele>25.3</ele>
        <time>2020-06-18T06:38:43Z</time>
      </trkpt>
      <trkpt lat="49.70954" lon="0.21578">
        <ele>25.4</ele>
        <time>2020-06-18T06:38:44Z</time>
      </trkpt>
      <trkpt lat="49.70954" lon="0.21583">
        <ele>25.5</ele>
        <time>2020-06-18T06:38:45Z</time>
      </trkpt>
      <trkpt lat="49.70954" lon="0.21585">
        <ele>25.6</ele>
        <time>2020-06-18T06:38:46Z</time>
      </trkpt>
      <trkpt lat="49.70954" lon="0.2159">
        <ele>25.7</ele>
        <time>2020-06-18T06:38:47Z</time>
      </trkpt>
      <trkpt lat="49.70955" lon="0.21594">
        <ele>25.8</ele>
        <time>2020-06-18T06:38:48Z</time>
      </trkpt>
      <trkpt lat="49.70956" lon="0.21599">
        <ele>25.9</ele>
        <time>2020-06-18T06:38:49Z</time>
      </trkpt>
      <trkpt lat="49.70958" lon="0.21605">
        <ele>26.1</ele>
        <time>2020-06-18T06:38:50Z</time>
      </trkpt>
      <trkpt lat="49.70958" lon="0.21607">
        <ele>26.1</ele>
        <time>2020-06-18T06:38:51Z</time>
      </trkpt>
      <trkpt lat="49.7096" lon="0.21612">
        <ele>26.2</ele>
        <time>2020-06-18T06:38:52Z</time>
      </trkpt>
      <trkpt lat="49.7096" lon="0.21614">
        <ele>26.3</ele>
        <time>2020-06-18T06:38:53Z</time>
      </trkpt>
      <trkpt lat="49.70962" lon="0.2162">
        <ele>26.4</ele>
        <time>2020-06-18T06:38:54Z</time>
      </trkpt>
      <trkpt lat="49.70963" lon="0.21623">
        <ele>26.5</ele>
        <time>2020-06-18T06:38:55Z</time>
      </trkpt>
      <trkpt lat="49.70964" lon="0.21629">
        <ele>26.6</ele>
        <time>2020-06-18T06:38:56Z</time>
      </trkpt>
      <trkpt lat="49.70964" lon="0.2163">
        <ele>26.6</ele>
        <time>2020-06-18T06:38:57Z</time>
      </trkpt>
      <trkpt lat="49.70964" lon="0.21636">
        <ele>26.7</ele>
        <time>2020-06-18T06:38:58Z</time>
      </trkpt>
      <trkpt lat="49.70965" lon="0.21637">
        <ele>26.7</ele>
        <time>2020-06-18T06:38:59Z</time>
      </trkpt>
      <trkpt lat="49.70965" lon="0.21642">
        <ele>26.9</ele>
        <time>2020-06-18T06:39:00Z</time>
      </trkpt>
      <trkpt lat="49.70965" lon="0.21644">
        <ele>26.9</ele>
        <time>2020-06-18T06:39:01Z</time>
      </trkpt>
      <trkpt lat="49.70966" lon="0.2165">
        <ele>27</ele>
        <time>2020-06-18T06:39:02Z</time>
      </trkpt>
      <trkpt lat="49.70966" lon="0.21651">
        <ele>27.1</ele>
        <time>2020-06-18T06:39:03Z</time>
      </trkpt>
      <trkpt lat="49.70967" lon="0.21657">
        <ele>27.2</ele>
        <time>2020-06-18T06:39:04Z</time>
      </trkpt>
      <trkpt lat="49.70968" lon="0.21659">
        <ele>27.3</ele>
        <time>2020-06-18T06:39:05Z</time>
      </trkpt>
      <trkpt lat="49.70968" lon="0.21663">
        <ele>27.4</ele>
        <time>2020-06-18T06:39:06Z</time>
      </trkpt>
      <trkpt lat="49.70969" lon="0.21669">
        <ele>27.5</ele>
        <time>2020-06-18T06:39:07Z</time>
      </trkpt>
      <trkpt lat="49.70969" lon="0.21675">
        <ele>27.6</ele>
        <time>2020-06-18T06:39:08Z</time>
      </trkpt>
      <trkpt lat="49.70969" lon="0.2168">
        <ele>27.7</ele>
        <time>2020-06-18T06:39:09Z</time>
      </trkpt>
      <trkpt lat="49.70968" lon="0.21685">
        <ele>27.9</ele>
        <time>2020-06-18T06:39:10Z</time>
      </trkpt>
      <trkpt lat="49.70968" lon="0.21693">
        <ele>28</ele>
        <time>2020-06-18T06:39:11Z</time>
      </trkpt>
      <trkpt lat="49.70968" lon="0.21699">
        <ele>28.2</ele>
        <time>2020-06-18T06:39:12Z</time>
      </trkpt>
      <trkpt lat="49.70969" lon="0.21706">
        <ele>28.3</ele>
        <time>2020-06-18T06:39:13Z</time>
      </trkpt>
      <trkpt lat="49.7097" lon="0.21712">
        <ele>28.4</ele>
        <time>2020-06-18T06:39:14Z</time>
      </trkpt>
      <trkpt lat="49.70971" lon="0.21718">
        <ele>28.6</ele>
        <time>2020-06-18T06:39:15Z</time>
      </trkpt>
      <trkpt lat="49.70971" lon="0.21723">
        <ele>28.7</ele>
        <time>2020-06-18T06:39:16Z</time>
      </trkpt>
      <trkpt lat="49.70971" lon="0.21729">
        <ele>28.8</ele>
        <time>2020-06-18T06:39:17Z</time>
      </trkpt>
      <trkpt lat="49.70971" lon="0.21736">
        <ele>29</ele>
        <time>2020-06-18T06:39:18Z</time>
      </trkpt>
      <trkpt lat="49.70971" lon="0.21742">
        <ele>29.1</ele>
        <time>2020-06-18T06:39:19Z</time>
      </trkpt>
      <trkpt lat="49.70971" lon="0.21748">
        <ele>29.3</ele>
        <time>2020-06-18T06:39:20Z</time>
      </trkpt>
      <trkpt lat="49.7097" lon="0.21754">
        <ele>29.4</ele>
        <time>2020-06-18T06:39:21Z</time>
      </trkpt>
      <trkpt lat="49.7097" lon="0.21759">
        <ele>29.6</ele>
        <time>2020-06-18T06:39:22Z</time>
      </trkpt>
      <trkpt lat="49.70971" lon="0.21765">
        <ele>29.7</ele>
        <time>2020-06-18T06:39:23Z</time>
      </trkpt>
      <trkpt lat="49.70972" lon="0.21772">
        <ele>29.8</ele>
        <time>2020-06-18T06:39:24Z</time>
      </trkpt>
      <trkpt lat="49.70972" lon="0.21778">
        <ele>29.9</ele>
        <time>2020-06-18T06:39:25Z</time>
      </trkpt>
      <trkpt lat="49.70973" lon="0.21785">
        <ele>30.1</ele>
        <time>2020-06-18T06:39:26Z</time>
      </trkpt>
      <trkpt lat="49.70973" lon="0.21792">
        <ele>30.2</ele>
        <time>2020-06-18T06:39:27Z</time>
      </trkpt>
      <trkpt lat="49.70973" lon="0.21798">
        <ele>30.3</ele>
        <time>2020-06-18T06:39:28Z</time>
      </trkpt>
      <trkpt lat="49.70974" lon="0.21804">
        <ele>30.5</ele>
        <time>2020-06-18T06:39:29Z</time>
      </trkpt>
      <trkpt lat="49.70975" lon="0.2181">
        <ele>30.6</ele>
        <time>2020-06-18T06:39:30Z</time>
      </trkpt>
      <trkpt lat="49.70976" lon="0.21816">
        <ele>30.7</ele>
        <time>2020-06-18T06:39:31Z</time>
      </trkpt>
      <trkpt lat="49.70977" lon="0.21823">
        <ele>30.9</ele>
        <time>2020-06-18T06:39:32Z</time>
      </trkpt>
      <trkpt lat="49.70978" lon="0.2183">
        <ele>31</ele>
        <time>2020-06-18T06:39:33Z</time>
      </trkpt>
      <trkpt lat="49.70979" lon="0.21836">
        <ele>31.1</ele>
        <time>2020-06-18T06:39:34Z</time>
      </trkpt>
      <trkpt lat="49.7098" lon="0.21842">
        <ele>31.3</ele>
        <time>2020-06-18T06:39:35Z</time>
      </trkpt>
      <trkpt lat="49.70981" lon="0.21849">
        <ele>31.4</ele>
        <time>2020-06-18T06:39:36Z</time>
      </trkpt>
      <trkpt lat="49.70981" lon="0.21855">
        <ele>31.6</ele>
        <time>2020-06-18T06:39:37Z</time>
      </trkpt>
      <trkpt lat="49.70982" lon="0.2186">
        <ele>31.7</ele>
        <time>2020-06-18T06:39:38Z</time>
      </trkpt>
      <trkpt lat="49.70984" lon="0.21865">
        <ele>31.9</ele>
        <time>2020-06-18T06:39:39Z</time>
      </trkpt>
      <trkpt lat="49.70985" lon="0.2187">
        <ele>32</ele>
        <time>2020-06-18T06:39:40Z</time>
      </trkpt>
      <trkpt lat="49.70986" lon="0.21875">
        <ele>32.2</ele>
        <time>2020-06-18T06:39:41Z</time>
      </trkpt>
      <trkpt lat="49.70987" lon="0.21881">
        <ele>32.3</ele>
        <time>2020-06-18T06:39:42Z</time>
      </trkpt>
      <trkpt lat="49.70988" lon="0.21886">
        <ele>32.5</ele>
        <time>2020-06-18T06:39:43Z</time>
      </trkpt>
      <trkpt lat="49.70989" lon="0.21892">
        <ele>32.7</ele>
        <time>2020-06-18T06:39:44Z</time>
      </trkpt>
      <trkpt lat="49.7099" lon="0.21898">
        <ele>32.8</ele>
        <time>2020-06-18T06:39:45Z</time>
      </trkpt>
      <trkpt lat="49.70991" lon="0.21904">
        <ele>33</ele>
        <time>2020-06-18T06:39:46Z</time>
      </trkpt>
      <trkpt lat="49.70992" lon="0.2191">
        <ele>33.2</ele>
        <time>2020-06-18T06:39:47Z</time>
      </trkpt>
      <trkpt lat="49.70993" lon="0.21915">
        <ele>33.3</ele>
        <time>2020-06-18T06:39:48Z</time>
      </trkpt>
      <trkpt lat="49.70993" lon="0.2192">
        <ele>33.4</ele>
        <time>2020-06-18T06:39:49Z</time>
      </trkpt>
      <trkpt lat="49.70994" lon="0.21926">
        <ele>33.6</ele>
        <time>2020-06-18T06:39:50Z</time>
      </trkpt>
      <trkpt lat="49.70994" lon="0.21932">
        <ele>33.7</ele>
        <time>2020-06-18T06:39:51Z</time>
      </trkpt>
      <trkpt lat="49.70995" lon="0.21937">
        <ele>33.9</ele>
        <time>2020-06-18T06:39:52Z</time>
      </trkpt>
      <trkpt lat="49.70996" lon="0.21942">
        <ele>34</ele>
        <time>2020-06-18T06:39:53Z</time>
      </trkpt>
      <trkpt lat="49.70997" lon="0.21947">
        <ele>34.1</ele>
        <time>2020-06-18T06:39:54Z</time>
      </trkpt>
      <trkpt lat="49.70998" lon="0.21953">
        <ele>34.3</ele>
        <time>2020-06-18T06:39:55Z</time>
      </trkpt>
      <trkpt lat="49.71" lon="0.21958">
        <ele>34.4</ele>
        <time>2020-06-18T06:39:56Z</time>
      </trkpt>
      <trkpt lat="49.71002" lon="0.21964">
        <ele>34.5</ele>
        <time>2020-06-18T06:39:57Z</time>
      </trkpt>
      <trkpt lat="49.71003" lon="0.21969">
        <ele>34.7</ele>
        <time>2020-06-18T06:39:58Z</time>
      </trkpt>
      <trkpt lat="49.71005" lon="0.21974">
        <ele>34.8</ele>
        <time>2020-06-18T06:39:59Z</time>
      </trkpt>
      <trkpt lat="49.71006" lon="0.21981">
        <ele>35</ele>
        <time>2020-06-18T06:40:00Z</time>
      </trkpt>
      <trkpt lat="49.71007" lon="0.21987">
        <ele>35.1</ele>
        <time>2020-06-18T06:40:01Z</time>
      </trkpt>
      <trkpt lat="49.71009" lon="0.21994">
        <ele>35.2</ele>
        <time>2020-06-18T06:40:02Z</time>
      </trkpt>
      <trkpt lat="49.7101" lon="0.21999">
        <ele>35.4</ele>
        <time>2020-06-18T06:40:03Z</time>
      </trkpt>
      <trkpt lat="49.71012" lon="0.22004">
        <ele>35.5</ele>
        <time>2020-06-18T06:40:04Z</time>
      </trkpt>
      <trkpt lat="49.71012" lon="0.22009">
        <ele>35.6</ele>
        <time>2020-06-18T06:40:05Z</time>
      </trkpt>
      <trkpt lat="49.71013" lon="0.22014">
        <ele>35.7</ele>
        <time>2020-06-18T06:40:06Z</time>
      </trkpt>
      <trkpt lat="49.71015" lon="0.22021">
        <ele>35.8</ele>
        <time>2020-06-18T06:40:07Z</time>
      </trkpt>
      <trkpt lat="49.71016" lon="0.22027">
        <ele>35.9</ele>
        <time>2020-06-18T06:40:08Z</time>
      </trkpt>
      <trkpt lat="49.71018" lon="0.22034">
        <ele>36.1</ele>
        <time>2020-06-18T06:40:09Z</time>
      </trkpt>
      <trkpt lat="49.7102" lon="0.2204">
        <ele>36.3</ele>
        <time>2020-06-18T06:40:10Z</time>
      </trkpt>
      <trkpt lat="49.71021" lon="0.22047">
        <ele>36.4</ele>
        <time>2020-06-18T06:40:11Z</time>
      </trkpt>
      <trkpt lat="49.71023" lon="0.22054">
        <ele>36.6</ele>
        <time>2020-06-18T06:40:12Z</time>
      </trkpt>
      <trkpt lat="49.71025" lon="0.22061">
        <ele>36.8</ele>
        <time>2020-06-18T06:40:13Z</time>
      </trkpt>
      <trkpt lat="49.71028" lon="0.22067">
        <ele>36.9</ele>
        <time>2020-06-18T06:40:14Z</time>
      </trkpt>
      <trkpt lat="49.7103" lon="0.22073">
        <ele>37.1</ele>
        <time>2020-06-18T06:40:15Z</time>
      </trkpt>
      <trkpt lat="49.71032" lon="0.2208">
        <ele>37.2</ele>
        <time>2020-06-18T06:40:16Z</time>
      </trkpt>
      <trkpt lat="49.71034" lon="0.22086">
        <ele>37.4</ele>
        <time>2020-06-18T06:40:17Z</time>
      </trkpt>
      <trkpt lat="49.71036" lon="0.22092">
        <ele>37.5</ele>
        <time>2020-06-18T06:40:18Z</time>
      </trkpt>
      <trkpt lat="49.71037" lon="0.22097">
        <ele>37.7</ele>
        <time>2020-06-18T06:40:19Z</time>
      </trkpt>
      <trkpt lat="49.7104" lon="0.22101">
        <ele>37.8</ele>
        <time>2020-06-18T06:40:20Z</time>
      </trkpt>
      <trkpt lat="49.71042" lon="0.22106">
        <ele>37.9</ele>
        <time>2020-06-18T06:40:21Z</time>
      </trkpt>
      <trkpt lat="49.71044" lon="0.22111">
        <ele>38.1</ele>
        <time>2020-06-18T06:40:22Z</time>
      </trkpt>
      <trkpt lat="49.71046" lon="0.22117">
        <ele>38.2</ele>
        <time>2020-06-18T06:40:23Z</time>
      </trkpt>
      <trkpt lat="49.71048" lon="0.22123">
        <ele>38.4</ele>
        <time>2020-06-18T06:40:24Z</time>
      </trkpt>
      <trkpt lat="49.71051" lon="0.22128">
        <ele>38.5</ele>
        <time>2020-06-18T06:40:25Z</time>
      </trkpt>
      <trkpt lat="49.71052" lon="0.22133">
        <ele>38.6</ele>
        <time>2020-06-18T06:40:26Z</time>
      </trkpt>
      <trkpt lat="49.71054" lon="0.22137">
        <ele>38.7</ele>
        <time>2020-06-18T06:40:27Z</time>
      </trkpt>
      <trkpt lat="49.71056" lon="0.22141">
        <ele>38.8</ele>
        <time>2020-06-18T06:40:28Z</time>
      </trkpt>
      <trkpt lat="49.71057" lon="0.22146">
        <ele>38.9</ele>
        <time>2020-06-18T06:40:29Z</time>
      </trkpt>
      <trkpt lat="49.71058" lon="0.22152">
        <ele>39</ele>
        <time>2020-06-18T06:40:30Z</time>
      </trkpt>
      <trkpt lat="49.7106" lon="0.22157">
        <ele>39.2</ele>
        <time>2020-06-18T06:40:31Z</time>
      </trkpt>
      <trkpt lat="49.71063" lon="0.2216">
        <ele>39.3</ele>
        <time>2020-06-18T06:40:32Z</time>
      </trkpt>
      <trkpt lat="49.71065" lon="0.22167">
        <ele>39.5</ele>
        <time>2020-06-18T06:40:33Z</time>
      </trkpt>
      <trkpt lat="49.71068" lon="0.22175">
        <ele>39.7</ele>
        <time>2020-06-18T06:40:34Z</time>
      </trkpt>
      <trkpt lat="49.7107" lon="0.22182">
        <ele>39.9</ele>
        <time>2020-06-18T06:40:35Z</time>
      </trkpt>
      <trkpt lat="49.71072" lon="0.22189">
        <ele>40.1</ele>
        <time>2020-06-18T06:40:36Z</time>
      </trkpt>
      <trkpt lat="49.71073" lon="0.22196">
        <ele>40.2</ele>
        <time>2020-06-18T06:40:37Z</time>
      </trkpt>
      <trkpt lat="49.71076" lon="0.22201">
        <ele>40.4</ele>
        <time>2020-06-18T06:40:38Z</time>
      </trkpt>
      <trkpt lat="49.71078" lon="0.22205">
        <ele>40.5</ele>
        <time>2020-06-18T06:40:39Z</time>
      </trkpt>
      <trkpt lat="49.7108" lon="0.2221">
        <ele>40.7</ele>
        <time>2020-06-18T06:40:40Z</time>
      </trkpt>
      <trkpt lat="49.71083" lon="0.22215">
        <ele>40.8</ele>
        <time>2020-06-18T06:40:41Z</time>
      </trkpt>
      <trkpt lat="49.71085" lon="0.2222">
        <ele>41</ele>
        <time>2020-06-18T06:40:42Z</time>
      </trkpt>
      <trkpt lat="49.71088" lon="0.22225">
        <ele>41.1</ele>
        <time>2020-06-18T06:40:43Z</time>
      </trkpt>
      <trkpt lat="49.7109" lon="0.22231">
        <ele>41.2</ele>
        <time>2020-06-18T06:40:44Z</time>
      </trkpt>
      <trkpt lat="49.71092" lon="0.22238">
        <ele>41.4</ele>
        <time>2020-06-18T06:40:45Z</time>
      </trkpt>
      <trkpt lat="49.71094" lon="0.22244">
        <ele>41.5</ele>
        <time>2020-06-18T06:40:46Z</time>
      </trkpt>
      <trkpt lat="49.71096" lon="0.2225">
        <ele>41.7</ele>
        <time>2020-06-18T06:40:47Z</time>
      </trkpt>
      <trkpt lat="49.71097" lon="0.22256">
        <ele>41.8</ele>
        <time>2020-06-18T06:40:48Z</time>
      </trkpt>
      <trkpt lat="49.71099" lon="0.22262">
        <ele>42</ele>
        <time>2020-06-18T06:40:49Z</time>
      </trkpt>
      <trkpt lat="49.71102" lon="0.22268">
        <ele>42.1</ele>
        <time>2020-06-18T06:40:50Z</time>
      </trkpt>
      <trkpt lat="49.71104" lon="0.22273">
        <ele>42.3</ele>
        <time>2020-06-18T06:40:51Z</time>
      </trkpt>
      <trkpt lat="49.71106" lon="0.22279">
        <ele>42.4</ele>
        <time>2020-06-18T06:40:52Z</time>
      </trkpt>
      <trkpt lat="49.71108" lon="0.22284">
        <ele>42.5</ele>
        <time>2020-06-18T06:40:53Z</time>
      </trkpt>
      <trkpt lat="49.7111" lon="0.2229">
        <ele>42.6</ele>
        <time>2020-06-18T06:40:54Z</time>
      </trkpt>
      <trkpt lat="49.71113" lon="0.22295">
        <ele>42.8</ele>
        <time>2020-06-18T06:40:55Z</time>
      </trkpt>
      <trkpt lat="49.71115" lon="0.22301">
        <ele>43</ele>
        <time>2020-06-18T06:40:56Z</time>
      </trkpt>
      <trkpt lat="49.71118" lon="0.22307">
        <ele>43.2</ele>
        <time>2020-06-18T06:40:57Z</time>
      </trkpt>
      <trkpt lat="49.7112" lon="0.22313">
        <ele>43.3</ele>
        <time>2020-06-18T06:40:58Z</time>
      </trkpt>
      <trkpt lat="49.71122" lon="0.2232">
        <ele>43.4</ele>
        <time>2020-06-18T06:40:59Z</time>
      </trkpt>
      <trkpt lat="49.71124" lon="0.22325">
        <ele>43.5</ele>
        <time>2020-06-18T06:41:00Z</time>
      </trkpt>
      <trkpt lat="49.71127" lon="0.2233">
        <ele>43.7</ele>
        <time>2020-06-18T06:41:01Z</time>
      </trkpt>
      <trkpt lat="49.7113" lon="0.22336">
        <ele>43.8</ele>
        <time>2020-06-18T06:41:02Z</time>
      </trkpt>
      <trkpt lat="49.71132" lon="0.22342">
        <ele>43.9</ele>
        <time>2020-06-18T06:41:03Z</time>
      </trkpt>
      <trkpt lat="49.71135" lon="0.22346">
        <ele>44</ele>
        <time>2020-06-18T06:41:04Z</time>
      </trkpt>
      <trkpt lat="49.71138" lon="0.22351">
        <ele>44</ele>
        <time>2020-06-18T06:41:05Z</time>
      </trkpt>
      <trkpt lat="49.71141" lon="0.22356">
        <ele>44.1</ele>
        <time>2020-06-18T06:41:06Z</time>
      </trkpt>
      <trkpt lat="49.71145" lon="0.22362">
        <ele>44.2</ele>
        <time>2020-06-18T06:41:07Z</time>
      </trkpt>
      <trkpt lat="49.71148" lon="0.22368">
        <ele>44.3</ele>
        <time>2020-06-18T06:41:08Z</time>
      </trkpt>
      <trkpt lat="49.71151" lon="0.22374">
        <ele>44.3</ele>
        <time>2020-06-18T06:41:09Z</time>
      </trkpt>
      <trkpt lat="49.71153" lon="0.2238">
        <ele>44.4</ele>
        <time>2020-06-18T06:41:10Z</time>
      </trkpt>
      <trkpt lat="49.71156" lon="0.22386">
        <ele>44.5</ele>
        <time>2020-06-18T06:41:11Z</time>
      </trkpt>
      <trkpt lat="49.71158" lon="0.22391">
        <ele>44.6</ele>
        <time>2020-06-18T06:41:12Z</time>
      </trkpt>
      <trkpt lat="49.71162" lon="0.22396">
        <ele>44.7</ele>
        <time>2020-06-18T06:41:13Z</time>
      </trkpt>
      <trkpt lat="49.71165" lon="0.22401">
        <ele>44.9</ele>
        <time>2020-06-18T06:41:14Z</time>
      </trkpt>
      <trkpt lat="49.71169" lon="0.22406">
        <ele>45</ele>
        <time>2020-06-18T06:41:15Z</time>
      </trkpt>
      <trkpt lat="49.71173" lon="0.22409">
        <ele>45.2</ele>
        <time>2020-06-18T06:41:16Z</time>
      </trkpt>
      <trkpt lat="49.71177" lon="0.22413">
        <ele>45.3</ele>
        <time>2020-06-18T06:41:17Z</time>
      </trkpt>
      <trkpt lat="49.71181" lon="0.22416">
        <ele>45.5</ele>
        <time>2020-06-18T06:41:18Z</time>
      </trkpt>
      <trkpt lat="49.71184" lon="0.22419">
        <ele>45.6</ele>
        <time>2020-06-18T06:41:19Z</time>
      </trkpt>
      <trkpt lat="49.71188" lon="0.22421">
        <ele>45.7</ele>
        <time>2020-06-18T06:41:20Z</time>
      </trkpt>
      <trkpt lat="49.71192" lon="0.22423">
        <ele>45.8</ele>
        <time>2020-06-18T06:41:21Z</time>
      </trkpt>
      <trkpt lat="49.71197" lon="0.22425">
        <ele>45.9</ele>
        <time>2020-06-18T06:41:22Z</time>
      </trkpt>
      <trkpt lat="49.71202" lon="0.22429">
        <ele>46.1</ele>
        <time>2020-06-18T06:41:23Z</time>
      </trkpt>
      <trkpt lat="49.71206" lon="0.22431">
        <ele>46.2</ele>
        <time>2020-06-18T06:41:24Z</time>
      </trkpt>
      <trkpt lat="49.7121" lon="0.22433">
        <ele>46.3</ele>
        <time>2020-06-18T06:41:25Z</time>
      </trkpt>
      <trkpt lat="49.71214" lon="0.22437">
        <ele>46.5</ele>
        <time>2020-06-18T06:41:26Z</time>
      </trkpt>
      <trkpt lat="49.71218" lon="0.22442">
        <ele>46.6</ele>
        <time>2020-06-18T06:41:27Z</time>
      </trkpt>
      <trkpt lat="49.7122" lon="0.22447">
        <ele>46.8</ele>
        <time>2020-06-18T06:41:28Z</time>
      </trkpt>
      <trkpt lat="49.71222" lon="0.22453">
        <ele>46.9</ele>
        <time>2020-06-18T06:41:29Z</time>
      </trkpt>
      <trkpt lat="49.71223" lon="0.2246">
        <ele>47.1</ele>
        <time>2020-06-18T06:41:30Z</time>
      </trkpt>
      <trkpt lat="49.71222" lon="0.22466">
        <ele>47.2</ele>
        <time>2020-06-18T06:41:31Z</time>
      </trkpt>
      <trkpt lat="49.71219" lon="0.22471">
        <ele>47.4</ele>
        <time>2020-06-18T06:41:32Z</time>
      </trkpt>
      <trkpt lat="49.71218" lon="0.22476">
        <ele>47.6</ele>
        <time>2020-06-18T06:41:33Z</time>
      </trkpt>
      <trkpt lat="49.71216" lon="0.22481">
        <ele>47.7</ele>
        <time>2020-06-18T06:41:34Z</time>
      </trkpt>
      <trkpt lat="49.71214" lon="0.22486">
        <ele>47.9</ele>
        <time>2020-06-18T06:41:35Z</time>
      </trkpt>
      <trkpt lat="49.71211" lon="0.2249">
        <ele>48.1</ele>
        <time>2020-06-18T06:41:36Z</time>
      </trkpt>
      <trkpt lat="49.71207" lon="0.22494">
        <ele>48.3</ele>
        <time>2020-06-18T06:41:37Z</time>
      </trkpt>
      <trkpt lat="49.71204" lon="0.22498">
        <ele>48.5</ele>
        <time>2020-06-18T06:41:38Z</time>
      </trkpt>
      <trkpt lat="49.71201" lon="0.22502">
        <ele>48.7</ele>
        <time>2020-06-18T06:41:39Z</time>
      </trkpt>
      <trkpt lat="49.71198" lon="0.22504">
        <ele>48.9</ele>
        <time>2020-06-18T06:41:40Z</time>
      </trkpt>
      <trkpt lat="49.71195" lon="0.22506">
        <ele>49</ele>
        <time>2020-06-18T06:41:41Z</time>
      </trkpt>
      <trkpt lat="49.71192" lon="0.22509">
        <ele>49.2</ele>
        <time>2020-06-18T06:41:42Z</time>
      </trkpt>
      <trkpt lat="49.7119" lon="0.22514">
        <ele>49.3</ele>
        <time>2020-06-18T06:41:43Z</time>
      </trkpt>
      <trkpt lat="49.71188" lon="0.22519">
        <ele>49.5</ele>
        <time>2020-06-18T06:41:44Z</time>
      </trkpt>
      <trkpt lat="49.71188" lon="0.22524">
        <ele>49.6</ele>
        <time>2020-06-18T06:41:45Z</time>
      </trkpt>
      <trkpt lat="49.71188" lon="0.22529">
        <ele>49.8</ele>
        <time>2020-06-18T06:41:46Z</time>
      </trkpt>
      <trkpt lat="49.71188" lon="0.22534">
        <ele>49.9</ele>
        <time>2020-06-18T06:41:47Z</time>
      </trkpt>
      <trkpt lat="49.71188" lon="0.2254">
        <ele>50.1</ele>
        <time>2020-06-18T06:41:48Z</time>
      </trkpt>
      <trkpt lat="49.71188" lon="0.22546">
        <ele>50.2</ele>
        <time>2020-06-18T06:41:49Z</time>
      </trkpt>
      <trkpt lat="49.71188" lon="0.22552">
        <ele>50.4</ele>
        <time>2020-06-18T06:41:50Z</time>
      </trkpt>
      <trkpt lat="49.71188" lon="0.22559">
        <ele>50.6</ele>
        <time>2020-06-18T06:41:51Z</time>
      </trkpt>
      <trkpt lat="49.71189" lon="0.22565">
        <ele>50.7</ele>
        <time>2020-06-18T06:41:52Z</time>
      </trkpt>
      <trkpt lat="49.7119" lon="0.2257">
        <ele>50.9</ele>
        <time>2020-06-18T06:41:53Z</time>
      </trkpt>
      <trkpt lat="49.71191" lon="0.22575">
        <ele>51</ele>
        <time>2020-06-18T06:41:54Z</time>
      </trkpt>
      <trkpt lat="49.71192" lon="0.2258">
        <ele>51.1</ele>
        <time>2020-06-18T06:41:55Z</time>
      </trkpt>
      <trkpt lat="49.71192" lon="0.22585">
        <ele>51.3</ele>
        <time>2020-06-18T06:41:56Z</time>
      </trkpt>
      <trkpt lat="49.71193" lon="0.22592">
        <ele>51.5</ele>
        <time>2020-06-18T06:41:57Z</time>
      </trkpt>
      <trkpt lat="49.71194" lon="0.22598">
        <ele>51.6</ele>
        <time>2020-06-18T06:41:58Z</time>
      </trkpt>
      <trkpt lat="49.71193" lon="0.22604">
        <ele>51.8</ele>
        <time>2020-06-18T06:41:59Z</time>
      </trkpt>
      <trkpt lat="49.71194" lon="0.2261">
        <ele>51.9</ele>
        <time>2020-06-18T06:42:00Z</time>
      </trkpt>
      <trkpt lat="49.71194" lon="0.22616">
        <ele>52.1</ele>
        <time>2020-06-18T06:42:01Z</time>
      </trkpt>
      <trkpt lat="49.71195" lon="0.22623">
        <ele>52.3</ele>
        <time>2020-06-18T06:42:02Z</time>
      </trkpt>
      <trkpt lat="49.71196" lon="0.2263">
        <ele>52.5</ele>
        <time>2020-06-18T06:42:03Z</time>
      </trkpt>
      <trkpt lat="49.71197" lon="0.22636">
        <ele>52.7</ele>
        <time>2020-06-18T06:42:04Z</time>
      </trkpt>
      <trkpt lat="49.71198" lon="0.22643">
        <ele>52.8</ele>
        <time>2020-06-18T06:42:05Z</time>
      </trkpt>
      <trkpt lat="49.71198" lon="0.22649">
        <ele>53</ele>
        <time>2020-06-18T06:42:06Z</time>
      </trkpt>
      <trkpt lat="49.71198" lon="0.22656">
        <ele>53.2</ele>
        <time>2020-06-18T06:42:07Z</time>
      </trkpt>
      <trkpt lat="49.71198" lon="0.22661">
        <ele>53.3</ele>
        <time>2020-06-18T06:42:08Z</time>
      </trkpt>
      <trkpt lat="49.71197" lon="0.22666">
        <ele>53.4</ele>
        <time>2020-06-18T06:42:09Z</time>
      </trkpt>
      <trkpt lat="49.71197" lon="0.22671">
        <ele>53.5</ele>
        <time>2020-06-18T06:42:10Z</time>
      </trkpt>
      <trkpt lat="49.71196" lon="0.22677">
        <ele>53.7</ele>
        <time>2020-06-18T06:42:11Z</time>
      </trkpt>
      <trkpt lat="49.71196" lon="0.22683">
        <ele>53.8</ele>
        <time>2020-06-18T06:42:12Z</time>
      </trkpt>
      <trkpt lat="49.71196" lon="0.22689">
        <ele>54</ele>
        <time>2020-06-18T06:42:13Z</time>
      </trkpt>
      <trkpt lat="49.71196" lon="0.22696">
        <ele>54.2</ele>
        <time>2020-06-18T06:42:14Z</time>
      </trkpt>
      <trkpt lat="49.71196" lon="0.22703">
        <ele>54.3</ele>
        <time>2020-06-18T06:42:15Z</time>
      </trkpt>
      <trkpt lat="49.71196" lon="0.2271">
        <ele>54.5</ele>
        <time>2020-06-18T06:42:16Z</time>
      </trkpt>
      <trkpt lat="49.71195" lon="0.22716">
        <ele>54.7</ele>
        <time>2020-06-18T06:42:17Z</time>
      </trkpt>
      <trkpt lat="49.71195" lon="0.22723">
        <ele>54.8</ele>
        <time>2020-06-18T06:42:18Z</time>
      </trkpt>
      <trkpt lat="49.71195" lon="0.2273">
        <ele>55</ele>
        <time>2020-06-18T06:42:19Z</time>
      </trkpt>
      <trkpt lat="49.71195" lon="0.22736">
        <ele>55.2</ele>
        <time>2020-06-18T06:42:20Z</time>
      </trkpt>
      <trkpt lat="49.71196" lon="0.22742">
        <ele>55.4</ele>
        <time>2020-06-18T06:42:21Z</time>
      </trkpt>
      <trkpt lat="49.71195" lon="0.22747">
        <ele>55.5</ele>
        <time>2020-06-18T06:42:22Z</time>
      </trkpt>
      <trkpt lat="49.71194" lon="0.22753">
        <ele>55.6</ele>
        <time>2020-06-18T06:42:23Z</time>
      </trkpt>
      <trkpt lat="49.71194" lon="0.22758">
        <ele>55.8</ele>
        <time>2020-06-18T06:42:24Z</time>
      </trkpt>
      <trkpt lat="49.71193" lon="0.22764">
        <ele>55.9</ele>
        <time>2020-06-18T06:42:25Z</time>
      </trkpt>
      <trkpt lat="49.71193" lon="0.2277">
        <ele>56.1</ele>
        <time>2020-06-18T06:42:26Z</time>
      </trkpt>
      <trkpt lat="49.71194" lon="0.22775">
        <ele>56.2</ele>
        <time>2020-06-18T06:42:27Z</time>
      </trkpt>
      <trkpt lat="49.71194" lon="0.22781">
        <ele>56.3</ele>
        <time>2020-06-18T06:42:28Z</time>
      </trkpt>
      <trkpt lat="49.71195" lon="0.22787">
        <ele>56.5</ele>
        <time>2020-06-18T06:42:29Z</time>
      </trkpt>
      <trkpt lat="49.71195" lon="0.22793">
        <ele>56.7</ele>
        <time>2020-06-18T06:42:30Z</time>
      </trkpt>
      <trkpt lat="49.71196" lon="0.228">
        <ele>56.8</ele>
        <time>2020-06-18T06:42:31Z</time>
      </trkpt>
      <trkpt lat="49.71197" lon="0.22807">
        <ele>57</ele>
        <time>2020-06-18T06:42:32Z</time>
      </trkpt>
      <trkpt lat="49.71198" lon="0.22813">
        <ele>57.2</ele>
        <time>2020-06-18T06:42:33Z</time>
      </trkpt>
      <trkpt lat="49.71199" lon="0.22819">
        <ele>57.3</ele>
        <time>2020-06-18T06:42:34Z</time>
      </trkpt>
      <trkpt lat="49.712" lon="0.22827">
        <ele>57.5</ele>
        <time>2020-06-18T06:42:35Z</time>
      </trkpt>
      <trkpt lat="49.712" lon="0.22834">
        <ele>57.7</ele>
        <time>2020-06-18T06:42:36Z</time>
      </trkpt>
      <trkpt lat="49.71202" lon="0.22841">
        <ele>57.9</ele>
        <time>2020-06-18T06:42:37Z</time>
      </trkpt>
      <trkpt lat="49.71203" lon="0.22848">
        <ele>58.1</ele>
        <time>2020-06-18T06:42:38Z</time>
      </trkpt>
      <trkpt lat="49.71206" lon="0.22855">
        <ele>58.3</ele>
        <time>2020-06-18T06:42:39Z</time>
      </trkpt>
      <trkpt lat="49.71208" lon="0.22861">
        <ele>58.4</ele>
        <time>2020-06-18T06:42:40Z</time>
      </trkpt>
      <trkpt lat="49.7121" lon="0.22866">
        <ele>58.6</ele>
        <time>2020-06-18T06:42:41Z</time>
      </trkpt>
      <trkpt lat="49.71213" lon="0.22872">
        <ele>58.7</ele>
        <time>2020-06-18T06:42:42Z</time>
      </trkpt>
      <trkpt lat="49.71215" lon="0.22877">
        <ele>58.8</ele>
        <time>2020-06-18T06:42:43Z</time>
      </trkpt>
      <trkpt lat="49.71219" lon="0.22882">
        <ele>59</ele>
        <time>2020-06-18T06:42:44Z</time>
      </trkpt>
      <trkpt lat="49.71222" lon="0.22887">
        <ele>59.2</ele>
        <time>2020-06-18T06:42:45Z</time>
      </trkpt>
      <trkpt lat="49.71226" lon="0.2289">
        <ele>59.3</ele>
        <time>2020-06-18T06:42:46Z</time>
      </trkpt>
      <trkpt lat="49.7123" lon="0.22894">
        <ele>59.4</ele>
        <time>2020-06-18T06:42:47Z</time>
      </trkpt>
      <trkpt lat="49.71234" lon="0.22899">
        <ele>59.6</ele>
        <time>2020-06-18T06:42:48Z</time>
      </trkpt>
      <trkpt lat="49.71238" lon="0.22902">
        <ele>59.7</ele>
        <time>2020-06-18T06:42:49Z</time>
      </trkpt>
      <trkpt lat="49.71241" lon="0.22906">
        <ele>59.9</ele>
        <time>2020-06-18T06:42:50Z</time>
      </trkpt>
      <trkpt lat="49.71244" lon="0.22909">
        <ele>60</ele>
        <time>2020-06-18T06:42:51Z</time>
      </trkpt>
      <trkpt lat="49.71247" lon="0.22912">
        <ele>60.1</ele>
        <time>2020-06-18T06:42:52Z</time>
      </trkpt>
      <trkpt lat="49.71251" lon="0.22916">
        <ele>60.2</ele>
        <time>2020-06-18T06:42:53Z</time>
      </trkpt>
      <trkpt lat="49.71254" lon="0.22919">
        <ele>60.4</ele>
        <time>2020-06-18T06:42:54Z</time>
      </trkpt>
      <trkpt lat="49.71258" lon="0.22923">
        <ele>60.5</ele>
        <time>2020-06-18T06:42:55Z</time>
      </trkpt>
      <trkpt lat="49.71261" lon="0.22926">
        <ele>60.6</ele>
        <time>2020-06-18T06:42:56Z</time>
      </trkpt>
      <trkpt lat="49.71264" lon="0.2293">
        <ele>60.7</ele>
        <time>2020-06-18T06:42:57Z</time>
      </trkpt>
      <trkpt lat="49.71267" lon="0.22933">
        <ele>60.9</ele>
        <time>2020-06-18T06:42:58Z</time>
      </trkpt>
      <trkpt lat="49.7127" lon="0.22937">
        <ele>61</ele>
        <time>2020-06-18T06:42:59Z</time>
      </trkpt>
      <trkpt lat="49.71273" lon="0.22942">
        <ele>61.2</ele>
        <time>2020-06-18T06:43:00Z</time>
      </trkpt>
      <trkpt lat="49.71276" lon="0.22946">
        <ele>61.3</ele>
        <time>2020-06-18T06:43:01Z</time>
      </trkpt>
      <trkpt lat="49.71279" lon="0.22949">
        <ele>61.5</ele>
        <time>2020-06-18T06:43:02Z</time>
      </trkpt>
      <trkpt lat="49.71282" lon="0.22953">
        <ele>61.6</ele>
        <time>2020-06-18T06:43:03Z</time>
      </trkpt>
      <trkpt lat="49.71286" lon="0.22958">
        <ele>61.8</ele>
        <time>2020-06-18T06:43:04Z</time>
      </trkpt>
      <trkpt lat="49.71289" lon="0.22964">
        <ele>61.9</ele>
        <time>2020-06-18T06:43:05Z</time>
      </trkpt>
      <trkpt lat="49.71292" lon="0.22969">
        <ele>62.1</ele>
        <time>2020-06-18T06:43:06Z</time>
      </trkpt>
      <trkpt lat="49.71295" lon="0.22976">
        <ele>62.3</ele>
        <time>2020-06-18T06:43:07Z</time>
      </trkpt>
      <trkpt lat="49.71296" lon="0.22983">
        <ele>62.4</ele>
        <time>2020-06-18T06:43:08Z</time>
      </trkpt>
      <trkpt lat="49.71298" lon="0.22991">
        <ele>62.5</ele>
        <time>2020-06-18T06:43:09Z</time>
      </trkpt>
      <trkpt lat="49.71298" lon="0.22997">
        <ele>62.7</ele>
        <time>2020-06-18T06:43:10Z</time>
      </trkpt>
      <trkpt lat="49.71298" lon="0.23004">
        <ele>62.8</ele>
        <time>2020-06-18T06:43:11Z</time>
      </trkpt>
      <trkpt lat="49.71297" lon="0.23011">
        <ele>62.9</ele>
        <time>2020-06-18T06:43:12Z</time>
      </trkpt>
      <trkpt lat="49.71295" lon="0.23017">
        <ele>63</ele>
        <time>2020-06-18T06:43:13Z</time>
      </trkpt>
      <trkpt lat="49.71293" lon="0.23023">
        <ele>63.1</ele>
        <time>2020-06-18T06:43:14Z</time>
      </trkpt>
      <trkpt lat="49.7129" lon="0.23028">
        <ele>63.2</ele>
        <time>2020-06-18T06:43:15Z</time>
      </trkpt>
      <trkpt lat="49.71287" lon="0.23032">
        <ele>63.3</ele>
        <time>2020-06-18T06:43:16Z</time>
      </trkpt>
      <trkpt lat="49.71284" lon="0.23037">
        <ele>63.5</ele>
        <time>2020-06-18T06:43:17Z</time>
      </trkpt>
      <trkpt lat="49.7128" lon="0.2304">
        <ele>63.6</ele>
        <time>2020-06-18T06:43:18Z</time>
      </trkpt>
      <trkpt lat="49.71277" lon="0.23042">
        <ele>63.7</ele>
        <time>2020-06-18T06:43:19Z</time>
      </trkpt>
      <trkpt lat="49.71272" lon="0.23043">
        <ele>63.8</ele>
        <time>2020-06-18T06:43:20Z</time>
      </trkpt>
      <trkpt lat="49.71268" lon="0.23043">
        <ele>64</ele>
        <time>2020-06-18T06:43:21Z</time>
      </trkpt>
      <trkpt lat="49.71264" lon="0.23043">
        <ele>64.1</ele>
        <time>2020-06-18T06:43:22Z</time>
      </trkpt>
      <trkpt lat="49.7126" lon="0.23044">
        <ele>64.3</ele>
        <time>2020-06-18T06:43:23Z</time>
      </trkpt>
      <trkpt lat="49.71256" lon="0.23043">
        <ele>64.4</ele>
        <time>2020-06-18T06:43:24Z</time>
      </trkpt>
      <trkpt lat="49.71252" lon="0.23043">
        <ele>64.6</ele>
        <time>2020-06-18T06:43:25Z</time>
      </trkpt>
      <trkpt lat="49.71249" lon="0.23043">
        <ele>64.7</ele>
        <time>2020-06-18T06:43:26Z</time>
      </trkpt>
      <trkpt lat="49.71245" lon="0.23042">
        <ele>64.8</ele>
        <time>2020-06-18T06:43:27Z</time>
      </trkpt>
      <trkpt lat="49.71242" lon="0.2304">
        <ele>64.9</ele>
        <time>2020-06-18T06:43:28Z</time>
      </trkpt>
      <trkpt lat="49.71238" lon="0.2304">
        <ele>65.1</ele>
        <time>2020-06-18T06:43:29Z</time>
      </trkpt>
      <trkpt lat="49.71234" lon="0.23041">
        <ele>65.2</ele>
        <time>2020-06-18T06:43:30Z</time>
      </trkpt>
      <trkpt lat="49.7123" lon="0.23041">
        <ele>65.3</ele>
        <time>2020-06-18T06:43:31Z</time>
      </trkpt>
      <trkpt lat="49.71226" lon="0.23042">
        <ele>65.4</ele>
        <time>2020-06-18T06:43:32Z</time>
      </trkpt>
      <trkpt lat="49.71222" lon="0.23043">
        <ele>65.5</ele>
        <time>2020-06-18T06:43:33Z</time>
      </trkpt>
      <trkpt lat="49.71218" lon="0.23043">
        <ele>65.7</ele>
        <time>2020-06-18T06:43:34Z</time>
      </trkpt>
      <trkpt lat="49.71214" lon="0.23046">
        <ele>65.8</ele>
        <time>2020-06-18T06:43:35Z</time>
      </trkpt>
      <trkpt lat="49.71209" lon="0.23049">
        <ele>65.9</ele>
        <time>2020-06-18T06:43:36Z</time>
      </trkpt>
      <trkpt lat="49.71205" lon="0.23054">
        <ele>66.1</ele>
        <time>2020-06-18T06:43:37Z</time>
      </trkpt>
      <trkpt lat="49.71201" lon="0.23059">
        <ele>66.2</ele>
        <time>2020-06-18T06:43:38Z</time>
      </trkpt>
      <trkpt lat="49.71198" lon="0.23064">
        <ele>66.3</ele>
        <time>2020-06-18T06:43:39Z</time>
      </trkpt>
      <trkpt lat="49.71195" lon="0.23069">
        <ele>66.4</ele>
        <time>2020-06-18T06:43:40Z</time>
      </trkpt>
      <trkpt lat="49.71193" lon="0.23074">
        <ele>66.6</ele>
        <time>2020-06-18T06:43:41Z</time>
      </trkpt>
      <trkpt lat="49.71192" lon="0.2308">
        <ele>66.7</ele>
        <time>2020-06-18T06:43:42Z</time>
      </trkpt>
      <trkpt lat="49.71191" lon="0.23085">
        <ele>66.8</ele>
        <time>2020-06-18T06:43:43Z</time>
      </trkpt>
      <trkpt lat="49.7119" lon="0.23091">
        <ele>66.9</ele>
        <time>2020-06-18T06:43:44Z</time>
      </trkpt>
      <trkpt lat="49.71188" lon="0.23097">
        <ele>67</ele>
        <time>2020-06-18T06:43:45Z</time>
      </trkpt>
      <trkpt lat="49.71187" lon="0.23102">
        <ele>67.1</ele>
        <time>2020-06-18T06:43:46Z</time>
      </trkpt>
      <trkpt lat="49.71186" lon="0.23108">
        <ele>67.3</ele>
        <time>2020-06-18T06:43:47Z</time>
      </trkpt>
      <trkpt lat="49.71186" lon="0.23114">
        <ele>67.4</ele>
        <time>2020-06-18T06:43:48Z</time>
      </trkpt>
      <trkpt lat="49.71185" lon="0.2312">
        <ele>67.5</ele>
        <time>2020-06-18T06:43:49Z</time>
      </trkpt>
      <trkpt lat="49.71184" lon="0.23127">
        <ele>67.7</ele>
        <time>2020-06-18T06:43:50Z</time>
      </trkpt>
      <trkpt lat="49.71183" lon="0.23133">
        <ele>67.8</ele>
        <time>2020-06-18T06:43:51Z</time>
      </trkpt>
      <trkpt lat="49.71183" lon="0.23139">
        <ele>67.9</ele>
        <time>2020-06-18T06:43:52Z</time>
      </trkpt>
      <trkpt lat="49.71183" lon="0.23145">
        <ele>68</ele>
        <time>2020-06-18T06:43:53Z</time>
      </trkpt>
      <trkpt lat="49.71182" lon="0.23151">
        <ele>68.2</ele>
        <time>2020-06-18T06:43:54Z</time>
      </trkpt>
      <trkpt lat="49.71181" lon="0.23158">
        <ele>68.3</ele>
        <time>2020-06-18T06:43:55Z</time>
      </trkpt>
      <trkpt lat="49.7118" lon="0.23164">
        <ele>68.5</ele>
        <time>2020-06-18T06:43:56Z</time>
      </trkpt>
      <trkpt lat="49.7118" lon="0.23171">
        <ele>68.6</ele>
        <time>2020-06-18T06:43:57Z</time>
      </trkpt>
      <trkpt lat="49.7118" lon="0.23177">
        <ele>68.7</ele>
        <time>2020-06-18T06:43:58Z</time>
      </trkpt>
      <trkpt lat="49.71181" lon="0.23184">
        <ele>68.9</ele>
        <time>2020-06-18T06:43:59Z</time>
      </trkpt>
      <trkpt lat="49.71181" lon="0.2319">
        <ele>69</ele>
        <time>2020-06-18T06:44:00Z</time>
      </trkpt>
      <trkpt lat="49.71181" lon="0.23197">
        <ele>69.2</ele>
        <time>2020-06-18T06:44:01Z</time>
      </trkpt>
      <trkpt lat="49.71181" lon="0.23205">
        <ele>69.3</ele>
        <time>2020-06-18T06:44:02Z</time>
      </trkpt>
      <trkpt lat="49.71181" lon="0.23211">
        <ele>69.4</ele>
        <time>2020-06-18T06:44:03Z</time>
      </trkpt>
      <trkpt lat="49.71182" lon="0.23218">
        <ele>69.6</ele>
        <time>2020-06-18T06:44:04Z</time>
      </trkpt>
      <trkpt lat="49.71181" lon="0.23225">
        <ele>69.7</ele>
        <time>2020-06-18T06:44:05Z</time>
      </trkpt>
      <trkpt lat="49.71181" lon="0.23232">
        <ele>69.9</ele>
        <time>2020-06-18T06:44:06Z</time>
      </trkpt>
      <trkpt lat="49.71182" lon="0.23239">
        <ele>70</ele>
        <time>2020-06-18T06:44:07Z</time>
      </trkpt>
      <trkpt lat="49.71183" lon="0.23245">
        <ele>70.2</ele>
        <time>2020-06-18T06:44:08Z</time>
      </trkpt>
      <trkpt lat="49.71184" lon="0.23251">
        <ele>70.3</ele>
        <time>2020-06-18T06:44:09Z</time>
      </trkpt>
      <trkpt lat="49.71185" lon="0.23258">
        <ele>70.5</ele>
        <time>2020-06-18T06:44:10Z</time>
      </trkpt>
      <trkpt lat="49.71185" lon="0.23265">
        <ele>70.6</ele>
        <time>2020-06-18T06:44:11Z</time>
      </trkpt>
      <trkpt lat="49.71186" lon="0.23271">
        <ele>70.8</ele>
        <time>2020-06-18T06:44:12Z</time>
      </trkpt>
      <trkpt lat="49.71187" lon="0.23278">
        <ele>70.9</ele>
        <time>2020-06-18T06:44:13Z</time>
      </trkpt>
      <trkpt lat="49.71188" lon="0.23284">
        <ele>71.1</ele>
        <time>2020-06-18T06:44:14Z</time>
      </trkpt>
      <trkpt lat="49.71188" lon="0.23291">
        <ele>71.2</ele>
        <time>2020-06-18T06:44:15Z</time>
      </trkpt>
      <trkpt lat="49.71188" lon="0.23297">
        <ele>71.4</ele>
        <time>2020-06-18T06:44:16Z</time>
      </trkpt>
      <trkpt lat="49.71189" lon="0.23304">
        <ele>71.6</ele>
        <time>2020-06-18T06:44:17Z</time>
      </trkpt>
      <trkpt lat="49.71191" lon="0.2331">
        <ele>71.7</ele>
        <time>2020-06-18T06:44:18Z</time>
      </trkpt>
      <trkpt lat="49.71192" lon="0.23316">
        <ele>71.9</ele>
        <time>2020-06-18T06:44:19Z</time>
      </trkpt>
      <trkpt lat="49.71194" lon="0.23323">
        <ele>72.1</ele>
        <time>2020-06-18T06:44:20Z</time>
      </trkpt>
      <trkpt lat="49.71195" lon="0.23329">
        <ele>72.3</ele>
        <time>2020-06-18T06:44:21Z</time>
      </trkpt>
      <trkpt lat="49.71197" lon="0.23336">
        <ele>72.4</ele>
        <time>2020-06-18T06:44:22Z</time>
      </trkpt>
      <trkpt lat="49.71199" lon="0.23343">
        <ele>72.5</ele>
        <time>2020-06-18T06:44:23Z</time>
      </trkpt>
      <trkpt lat="49.712" lon="0.23349">
        <ele>72.7</ele>
        <time>2020-06-18T06:44:24Z</time>
      </trkpt>
      <trkpt lat="49.71202" lon="0.23356">
        <ele>72.8</ele>
        <time>2020-06-18T06:44:25Z</time>
      </trkpt>
      <trkpt lat="49.71204" lon="0.23362">
        <ele>73</ele>
        <time>2020-06-18T06:44:26Z</time>
      </trkpt>
      <trkpt lat="49.71206" lon="0.23369">
        <ele>73.1</ele>
        <time>2020-06-18T06:44:27Z</time>
      </trkpt>
      <trkpt lat="49.71207" lon="0.23377">
        <ele>73.3</ele>
        <time>2020-06-18T06:44:28Z</time>
      </trkpt>
      <trkpt lat="49.71209" lon="0.23385">
        <ele>73.5</ele>
        <time>2020-06-18T06:44:29Z</time>
      </trkpt>
      <trkpt lat="49.71211" lon="0.23392">
        <ele>73.7</ele>
        <time>2020-06-18T06:44:30Z</time>
      </trkpt>
      <trkpt lat="49.71212" lon="0.23398">
        <ele>73.9</ele>
        <time>2020-06-18T06:44:31Z</time>
      </trkpt>
      <trkpt lat="49.71213" lon="0.23404">
        <ele>74</ele>
        <time>2020-06-18T06:44:32Z</time>
      </trkpt>
      <trkpt lat="49.71215" lon="0.2341">
        <ele>74.2</ele>
        <time>2020-06-18T06:44:33Z</time>
      </trkpt>
      <trkpt lat="49.71216" lon="0.23416">
        <ele>74.4</ele>
        <time>2020-06-18T06:44:34Z</time>
      </trkpt>
      <trkpt lat="49.71218" lon="0.23422">
        <ele>74.5</ele>
        <time>2020-06-18T06:44:35Z</time>
      </trkpt>
      <trkpt lat="49.7122" lon="0.23427">
        <ele>74.7</ele>
        <time>2020-06-18T06:44:36Z</time>
      </trkpt>
      <trkpt lat="49.71221" lon="0.23432">
        <ele>74.8</ele>
        <time>2020-06-18T06:44:37Z</time>
      </trkpt>
      <trkpt lat="49.71224" lon="0.23438">
        <ele>75</ele>
        <time>2020-06-18T06:44:38Z</time>
      </trkpt>
      <trkpt lat="49.71226" lon="0.23443">
        <ele>75.1</ele>
        <time>2020-06-18T06:44:39Z</time>
      </trkpt>
      <trkpt lat="49.71227" lon="0.23447">
        <ele>75.2</ele>
        <time>2020-06-18T06:44:40Z</time>
      </trkpt>
      <trkpt lat="49.71229" lon="0.23453">
        <ele>75.4</ele>
        <time>2020-06-18T06:44:41Z</time>
      </trkpt>
      <trkpt lat="49.71231" lon="0.23459">
        <ele>75.5</ele>
        <time>2020-06-18T06:44:42Z</time>
      </trkpt>
      <trkpt lat="49.71233" lon="0.23464">
        <ele>75.7</ele>
        <time>2020-06-18T06:44:43Z</time>
      </trkpt>
      <trkpt lat="49.71235" lon="0.23468">
        <ele>75.8</ele>
        <time>2020-06-18T06:44:44Z</time>
      </trkpt>
      <trkpt lat="49.71237" lon="0.23473">
        <ele>75.9</ele>
        <time>2020-06-18T06:44:45Z</time>
      </trkpt>
      <trkpt lat="49.71239" lon="0.23478">
        <ele>76.1</ele>
        <time>2020-06-18T06:44:46Z</time>
      </trkpt>
      <trkpt lat="49.71241" lon="0.23482">
        <ele>76.2</ele>
        <time>2020-06-18T06:44:47Z</time>
      </trkpt>
      <trkpt lat="49.71243" lon="0.23488">
        <ele>76.3</ele>
        <time>2020-06-18T06:44:48Z</time>
      </trkpt>
      <trkpt lat="49.71245" lon="0.23494">
        <ele>76.5</ele>
        <time>2020-06-18T06:44:49Z</time>
      </trkpt>
      <trkpt lat="49.71246" lon="0.23501">
        <ele>76.6</ele>
        <time>2020-06-18T06:44:50Z</time>
      </trkpt>
      <trkpt lat="49.71247" lon="0.23509">
        <ele>76.8</ele>
        <time>2020-06-18T06:44:51Z</time>
      </trkpt>
      <trkpt lat="49.7125" lon="0.23515">
        <ele>77</ele>
        <time>2020-06-18T06:44:52Z</time>
      </trkpt>
      <trkpt lat="49.71251" lon="0.23521">
        <ele>77.1</ele>
        <time>2020-06-18T06:44:53Z</time>
      </trkpt>
      <trkpt lat="49.71253" lon="0.23527">
        <ele>77.3</ele>
        <time>2020-06-18T06:44:54Z</time>
      </trkpt>
      <trkpt lat="49.71254" lon="0.23533">
        <ele>77.5</ele>
        <time>2020-06-18T06:44:55Z</time>
      </trkpt>
      <trkpt lat="49.71256" lon="0.23541">
        <ele>77.8</ele>
        <time>2020-06-18T06:44:56Z</time>
      </trkpt>
      <trkpt lat="49.71257" lon="0.23547">
        <ele>78</ele>
        <time>2020-06-18T06:44:57Z</time>
      </trkpt>
      <trkpt lat="49.71257" lon="0.23554">
        <ele>78.2</ele>
        <time>2020-06-18T06:44:58Z</time>
      </trkpt>
      <trkpt lat="49.71257" lon="0.23561">
        <ele>78.4</ele>
        <time>2020-06-18T06:44:59Z</time>
      </trkpt>
      <trkpt lat="49.71257" lon="0.23567">
        <ele>78.6</ele>
        <time>2020-06-18T06:45:00Z</time>
      </trkpt>
      <trkpt lat="49.71258" lon="0.23574">
        <ele>78.7</ele>
        <time>2020-06-18T06:45:01Z</time>
      </trkpt>
      <trkpt lat="49.71259" lon="0.2358">
        <ele>78.9</ele>
        <time>2020-06-18T06:45:02Z</time>
      </trkpt>
      <trkpt lat="49.7126" lon="0.23586">
        <ele>79.1</ele>
        <time>2020-06-18T06:45:03Z</time>
      </trkpt>
      <trkpt lat="49.71261" lon="0.23591">
        <ele>79.2</ele>
        <time>2020-06-18T06:45:04Z</time>
      </trkpt>
      <trkpt lat="49.71261" lon="0.23598">
        <ele>79.4</ele>
        <time>2020-06-18T06:45:05Z</time>
      </trkpt>
      <trkpt lat="49.71263" lon="0.23606">
        <ele>79.7</ele>
        <time>2020-06-18T06:45:06Z</time>
      </trkpt>
      <trkpt lat="49.71264" lon="0.23612">
        <ele>79.8</ele>
        <time>2020-06-18T06:45:07Z</time>
      </trkpt>
      <trkpt lat="49.71264" lon="0.23617">
        <ele>79.9</ele>
        <time>2020-06-18T06:45:08Z</time>
      </trkpt>
      <trkpt lat="49.71265" lon="0.23622">
        <ele>80.1</ele>
        <time>2020-06-18T06:45:09Z</time>
      </trkpt>
      <trkpt lat="49.71266" lon="0.23627">
        <ele>80.2</ele>
        <time>2020-06-18T06:45:10Z</time>
      </trkpt>
      <trkpt lat="49.71267" lon="0.23634">
        <ele>80.4</ele>
        <time>2020-06-18T06:45:11Z</time>
      </trkpt>
      <trkpt lat="49.71269" lon="0.23641">
        <ele>80.6</ele>
        <time>2020-06-18T06:45:12Z</time>
      </trkpt>
      <trkpt lat="49.71269" lon="0.23648">
        <ele>80.8</ele>
        <time>2020-06-18T06:45:13Z</time>
      </trkpt>
      <trkpt lat="49.7127" lon="0.23654">
        <ele>80.9</ele>
        <time>2020-06-18T06:45:14Z</time>
      </trkpt>
      <trkpt lat="49.7127" lon="0.23659">
        <ele>81</ele>
        <time>2020-06-18T06:45:15Z</time>
      </trkpt>
      <trkpt lat="49.7127" lon="0.23666">
        <ele>81.2</ele>
        <time>2020-06-18T06:45:16Z</time>
      </trkpt>
      <trkpt lat="49.7127" lon="0.23671">
        <ele>81.3</ele>
        <time>2020-06-18T06:45:17Z</time>
      </trkpt>
      <trkpt lat="49.71271" lon="0.23677">
        <ele>81.4</ele>
        <time>2020-06-18T06:45:18Z</time>
      </trkpt>
      <trkpt lat="49.71271" lon="0.23683">
        <ele>81.6</ele>
        <time>2020-06-18T06:45:19Z</time>
      </trkpt>
      <trkpt lat="49.71271" lon="0.2369">
        <ele>81.7</ele>
        <time>2020-06-18T06:45:20Z</time>
      </trkpt>
      <trkpt lat="49.71272" lon="0.23697">
        <ele>81.9</ele>
        <time>2020-06-18T06:45:21Z</time>
      </trkpt>
      <trkpt lat="49.71273" lon="0.23704">
        <ele>82.1</ele>
        <time>2020-06-18T06:45:22Z</time>
      </trkpt>
      <trkpt lat="49.71273" lon="0.2371">
        <ele>82.2</ele>
        <time>2020-06-18T06:45:23Z</time>
      </trkpt>
      <trkpt lat="49.71274" lon="0.23716">
        <ele>82.4</ele>
        <time>2020-06-18T06:45:24Z</time>
      </trkpt>
      <trkpt lat="49.71275" lon="0.23722">
        <ele>82.6</ele>
        <time>2020-06-18T06:45:25Z</time>
      </trkpt>
      <trkpt lat="49.71275" lon="0.23728">
        <ele>82.7</ele>
        <time>2020-06-18T06:45:26Z</time>
      </trkpt>
      <trkpt lat="49.71276" lon="0.23734">
        <ele>82.9</ele>
        <time>2020-06-18T06:45:27Z</time>
      </trkpt>
      <trkpt lat="49.71276" lon="0.2374">
        <ele>83.1</ele>
        <time>2020-06-18T06:45:28Z</time>
      </trkpt>
      <trkpt lat="49.71277" lon="0.23746">
        <ele>83.2</ele>
        <time>2020-06-18T06:45:29Z</time>
      </trkpt>
      <trkpt lat="49.71278" lon="0.23753">
        <ele>83.4</ele>
        <time>2020-06-18T06:45:30Z</time>
      </trkpt>
      <trkpt lat="49.71279" lon="0.2376">
        <ele>83.5</ele>
        <time>2020-06-18T06:45:31Z</time>
      </trkpt>
      <trkpt lat="49.7128" lon="0.23766">
        <ele>83.7</ele>
        <time>2020-06-18T06:45:32Z</time>
      </trkpt>
      <trkpt lat="49.71282" lon="0.23771">
        <ele>83.9</ele>
        <time>2020-06-18T06:45:33Z</time>
      </trkpt>
      <trkpt lat="49.71284" lon="0.23776">
        <ele>84</ele>
        <time>2020-06-18T06:45:34Z</time>
      </trkpt>
      <trkpt lat="49.71286" lon="0.2378">
        <ele>84.1</ele>
        <time>2020-06-18T06:45:35Z</time>
      </trkpt>
      <trkpt lat="49.71288" lon="0.23784">
        <ele>84.3</ele>
        <time>2020-06-18T06:45:36Z</time>
      </trkpt>
      <trkpt lat="49.7129" lon="0.23789">
        <ele>84.4</ele>
        <time>2020-06-18T06:45:37Z</time>
      </trkpt>
      <trkpt lat="49.71292" lon="0.23793">
        <ele>84.6</ele>
        <time>2020-06-18T06:45:38Z</time>
      </trkpt>
      <trkpt lat="49.71295" lon="0.23796">
        <ele>84.7</ele>
        <time>2020-06-18T06:45:39Z</time>
      </trkpt>
      <trkpt lat="49.71298" lon="0.238">
        <ele>84.8</ele>
        <time>2020-06-18T06:45:40Z</time>
      </trkpt>
      <trkpt lat="49.71301" lon="0.23804">
        <ele>85</ele>
        <time>2020-06-18T06:45:41Z</time>
      </trkpt>
      <trkpt lat="49.71304" lon="0.23808">
        <ele>85.1</ele>
        <time>2020-06-18T06:45:42Z</time>
      </trkpt>
      <trkpt lat="49.71307" lon="0.23811">
        <ele>85.3</ele>
        <time>2020-06-18T06:45:43Z</time>
      </trkpt>
      <trkpt lat="49.7131" lon="0.23813">
        <ele>85.4</ele>
        <time>2020-06-18T06:45:44Z</time>
      </trkpt>
      <trkpt lat="49.71314" lon="0.23816">
        <ele>85.6</ele>
        <time>2020-06-18T06:45:45Z</time>
      </trkpt>
      <trkpt lat="49.71317" lon="0.23818">
        <ele>85.7</ele>
        <time>2020-06-18T06:45:46Z</time>
      </trkpt>
      <trkpt lat="49.71322" lon="0.23818">
        <ele>85.9</ele>
        <time>2020-06-18T06:45:47Z</time>
      </trkpt>
      <trkpt lat="49.71325" lon="0.23818">
        <ele>86</ele>
        <time>2020-06-18T06:45:48Z</time>
      </trkpt>
      <trkpt lat="49.71329" lon="0.23819">
        <ele>86.2</ele>
        <time>2020-06-18T06:45:49Z</time>
      </trkpt>
      <trkpt lat="49.71332" lon="0.2382">
        <ele>86.3</ele>
        <time>2020-06-18T06:45:50Z</time>
      </trkpt>
      <trkpt lat="49.71335" lon="0.2382">
        <ele>86.4</ele>
        <time>2020-06-18T06:45:51Z</time>
      </trkpt>
      <trkpt lat="49.71339" lon="0.2382">
        <ele>86.6</ele>
        <time>2020-06-18T06:45:52Z</time>
      </trkpt>
      <trkpt lat="49.71343" lon="0.2382">
        <ele>86.7</ele>
        <time>2020-06-18T06:45:53Z</time>
      </trkpt>
      <trkpt lat="49.71347" lon="0.23819">
        <ele>86.8</ele>
        <time>2020-06-18T06:45:54Z</time>
      </trkpt>
      <trkpt lat="49.7135" lon="0.23819">
        <ele>87</ele>
        <time>2020-06-18T06:45:55Z</time>
      </trkpt>
      <trkpt lat="49.71354" lon="0.23818">
        <ele>87.1</ele>
        <time>2020-06-18T06:45:56Z</time>
      </trkpt>
      <trkpt lat="49.71358" lon="0.23818">
        <ele>87.2</ele>
        <time>2020-06-18T06:45:57Z</time>
      </trkpt>
      <trkpt lat="49.71363" lon="0.23817">
        <ele>87.3</ele>
        <time>2020-06-18T06:45:58Z</time>
      </trkpt>
      <trkpt lat="49.71366" lon="0.23816">
        <ele>87.4</ele>
        <time>2020-06-18T06:45:59Z</time>
      </trkpt>
      <trkpt lat="49.7137" lon="0.23816">
        <ele>87.5</ele>
        <time>2020-06-18T06:46:00Z</time>
      </trkpt>
      <trkpt lat="49.71374" lon="0.23815">
        <ele>87.6</ele>
        <time>2020-06-18T06:46:01Z</time>
      </trkpt>
      <trkpt lat="49.71378" lon="0.23814">
        <ele>87.8</ele>
        <time>2020-06-18T06:46:02Z</time>
      </trkpt>
      <trkpt lat="49.71382" lon="0.23814">
        <ele>87.9</ele>
        <time>2020-06-18T06:46:03Z</time>
      </trkpt>
      <trkpt lat="49.71386" lon="0.23815">
        <ele>88</ele>
        <time>2020-06-18T06:46:04Z</time>
      </trkpt>
      <trkpt lat="49.7139" lon="0.23816">
        <ele>88.1</ele>
        <time>2020-06-18T06:46:05Z</time>
      </trkpt>
      <trkpt lat="49.71396" lon="0.23817">
        <ele>88.3</ele>
        <time>2020-06-18T06:46:06Z</time>
      </trkpt>
      <trkpt lat="49.71401" lon="0.23819">
        <ele>88.5</ele>
        <time>2020-06-18T06:46:07Z</time>
      </trkpt>
      <trkpt lat="49.71405" lon="0.23821">
        <ele>88.6</ele>
        <time>2020-06-18T06:46:08Z</time>
      </trkpt>
      <trkpt lat="49.71409" lon="0.23823">
        <ele>88.7</ele>
        <time>2020-06-18T06:46:09Z</time>
      </trkpt>
      <trkpt lat="49.71413" lon="0.23826">
        <ele>88.8</ele>
        <time>2020-06-18T06:46:10Z</time>
      </trkpt>
      <trkpt lat="49.71416" lon="0.23829">
        <ele>88.9</ele>
        <time>2020-06-18T06:46:11Z</time>
      </trkpt>
      <trkpt lat="49.71419" lon="0.23832">
        <ele>89</ele>
        <time>2020-06-18T06:46:12Z</time>
      </trkpt>
      <trkpt lat="49.71422" lon="0.23835">
        <ele>89.1</ele>
        <time>2020-06-18T06:46:13Z</time>
      </trkpt>
      <trkpt lat="49.71427" lon="0.23839">
        <ele>89.2</ele>
        <time>2020-06-18T06:46:14Z</time>
      </trkpt>
      <trkpt lat="49.7143" lon="0.23842">
        <ele>89.3</ele>
        <time>2020-06-18T06:46:15Z</time>
      </trkpt>
      <trkpt lat="49.71434" lon="0.23846">
        <ele>89.4</ele>
        <time>2020-06-18T06:46:16Z</time>
      </trkpt>
      <trkpt lat="49.71436" lon="0.2385">
        <ele>89.5</ele>
        <time>2020-06-18T06:46:17Z</time>
      </trkpt>
      <trkpt lat="49.71439" lon="0.23855">
        <ele>89.6</ele>
        <time>2020-06-18T06:46:18Z</time>
      </trkpt>
      <trkpt lat="49.71442" lon="0.2386">
        <ele>89.7</ele>
        <time>2020-06-18T06:46:19Z</time>
      </trkpt>
      <trkpt lat="49.71444" lon="0.23865">
        <ele>89.8</ele>
        <time>2020-06-18T06:46:20Z</time>
      </trkpt>
      <trkpt lat="49.71447" lon="0.2387">
        <ele>89.9</ele>
        <time>2020-06-18T06:46:21Z</time>
      </trkpt>
      <trkpt lat="49.71449" lon="0.23875">
        <ele>90</ele>
        <time>2020-06-18T06:46:22Z</time>
      </trkpt>
      <trkpt lat="49.71451" lon="0.23881">
        <ele>90.1</ele>
        <time>2020-06-18T06:46:23Z</time>
      </trkpt>
      <trkpt lat="49.71454" lon="0.23886">
        <ele>90.3</ele>
        <time>2020-06-18T06:46:24Z</time>
      </trkpt>
      <trkpt lat="49.71456" lon="0.23892">
        <ele>90.4</ele>
        <time>2020-06-18T06:46:25Z</time>
      </trkpt>
      <trkpt lat="49.7146" lon="0.23897">
        <ele>90.5</ele>
        <time>2020-06-18T06:46:26Z</time>
      </trkpt>
      <trkpt lat="49.71462" lon="0.23903">
        <ele>90.7</ele>
        <time>2020-06-18T06:46:27Z</time>
      </trkpt>
      <trkpt lat="49.71465" lon="0.23907">
        <ele>90.8</ele>
        <time>2020-06-18T06:46:28Z</time>
      </trkpt>
      <trkpt lat="49.71467" lon="0.23912">
        <ele>90.9</ele>
        <time>2020-06-18T06:46:29Z</time>
      </trkpt>
      <trkpt lat="49.7147" lon="0.23917">
        <ele>91</ele>
        <time>2020-06-18T06:46:30Z</time>
      </trkpt>
      <trkpt lat="49.71473" lon="0.23922">
        <ele>91.1</ele>
        <time>2020-06-18T06:46:31Z</time>
      </trkpt>
      <trkpt lat="49.71474" lon="0.23928">
        <ele>91.2</ele>
        <time>2020-06-18T06:46:32Z</time>
      </trkpt>
      <trkpt lat="49.71477" lon="0.23934">
        <ele>91.3</ele>
        <time>2020-06-18T06:46:33Z</time>
      </trkpt>
      <trkpt lat="49.71479" lon="0.23942">
        <ele>91.4</ele>
        <time>2020-06-18T06:46:34Z</time>
      </trkpt>
      <trkpt lat="49.7148" lon="0.23947">
        <ele>91.5</ele>
        <time>2020-06-18T06:46:35Z</time>
      </trkpt>
      <trkpt lat="49.71482" lon="0.23954">
        <ele>91.6</ele>
        <time>2020-06-18T06:46:36Z</time>
      </trkpt>
      <trkpt lat="49.71484" lon="0.23959">
        <ele>91.7</ele>
        <time>2020-06-18T06:46:37Z</time>
      </trkpt>
      <trkpt lat="49.71485" lon="0.23964">
        <ele>91.8</ele>
        <time>2020-06-18T06:46:38Z</time>
      </trkpt>
      <trkpt lat="49.71486" lon="0.23969">
        <ele>91.9</ele>
        <time>2020-06-18T06:46:39Z</time>
      </trkpt>
      <trkpt lat="49.71489" lon="0.23976">
        <ele>92</ele>
        <time>2020-06-18T06:46:40Z</time>
      </trkpt>
      <trkpt lat="49.7149" lon="0.23981">
        <ele>92.1</ele>
        <time>2020-06-18T06:46:41Z</time>
      </trkpt>
      <trkpt lat="49.71491" lon="0.23986">
        <ele>92.1</ele>
        <time>2020-06-18T06:46:42Z</time>
      </trkpt>
      <trkpt lat="49.71493" lon="0.23991">
        <ele>92.2</ele>
        <time>2020-06-18T06:46:43Z</time>
      </trkpt>
      <trkpt lat="49.71494" lon="0.23996">
        <ele>92.2</ele>
        <time>2020-06-18T06:46:44Z</time>
      </trkpt>
      <trkpt lat="49.71494" lon="0.23997">
        <ele>92.2</ele>
        <time>2020-06-18T06:46:45Z</time>
      </trkpt>
      <trkpt lat="49.71495" lon="0.23997">
        <ele>92.3</ele>
        <time>2020-06-18T06:46:46Z</time>
      </trkpt>
      <trkpt lat="49.71496" lon="0.23996">
        <ele>92.3</ele>
        <time>2020-06-18T06:46:47Z</time>
      </trkpt>
      <trkpt lat="49.71496" lon="0.23994">
        <ele>92.3</ele>
        <time>2020-06-18T06:46:48Z</time>
      </trkpt>
      <trkpt lat="49.71497" lon="0.23992">
        <ele>92.3</ele>
        <time>2020-06-18T06:46:49Z</time>
      </trkpt>
      <trkpt lat="49.71498" lon="0.23991">
        <ele>92.3</ele>
        <time>2020-06-18T06:46:50Z</time>
      </trkpt>
      <trkpt lat="49.71499" lon="0.23991">
        <ele>92.3</ele>
        <time>2020-06-18T06:46:51Z</time>
      </trkpt>
      <trkpt lat="49.71499" lon="0.2399">
        <ele>92.3</ele>
        <time>2020-06-18T06:46:52Z</time>
      </trkpt>
      <trkpt lat="49.715" lon="0.23989">
        <ele>92.3</ele>
        <time>2020-06-18T06:46:53Z</time>
      </trkpt>
      <trkpt lat="49.71498" lon="0.23991">
        <ele>92.4</ele>
        <time>2020-06-18T06:46:54Z</time>
      </trkpt>
      <trkpt lat="49.71497" lon="0.23993">
        <ele>92.4</ele>
        <time>2020-06-18T06:46:55Z</time>
      </trkpt>
      <trkpt lat="49.71498" lon="0.23997">
        <ele>92.4</ele>
        <time>2020-06-18T06:46:56Z</time>
      </trkpt>
      <trkpt lat="49.71499" lon="0.23998">
        <ele>92.4</ele>
        <time>2020-06-18T06:46:57Z</time>
      </trkpt>
      <trkpt lat="49.715" lon="0.24">
        <ele>92.5</ele>
        <time>2020-06-18T06:47:09Z</time>
      </trkpt>
      <trkpt lat="49.715" lon="0.24001">
        <ele>92.5</ele>
        <time>2020-06-18T06:47:10Z</time>
      </trkpt>
      <trkpt lat="49.71501" lon="0.24003">
        <ele>92.5</ele>
        <time>2020-06-18T06:47:11Z</time>
      </trkpt>
      <trkpt lat="49.71503" lon="0.24007">
        <ele>92.6</ele>
        <time>2020-06-18T06:47:12Z</time>
      </trkpt>
      <trkpt lat="49.71504" lon="0.24008">
        <ele>92.6</ele>
        <time>2020-06-18T06:47:13Z</time>
      </trkpt>
      <trkpt lat="49.71506" lon="0.24012">
        <ele>92.6</ele>
        <time>2020-06-18T06:47:14Z</time>
      </trkpt>
      <trkpt lat="49.71507" lon="0.24016">
        <ele>92.7</ele>
        <time>2020-06-18T06:47:15Z</time>
      </trkpt>
      <trkpt lat="49.71508" lon="0.2402">
        <ele>92.7</ele>
        <time>2020-06-18T06:47:16Z</time>
      </trkpt>
      <trkpt lat="49.7151" lon="0.24025">
        <ele>92.8</ele>
        <time>2020-06-18T06:47:17Z</time>
      </trkpt>
      <trkpt lat="49.71511" lon="0.24029">
        <ele>92.8</ele>
        <time>2020-06-18T06:47:18Z</time>
      </trkpt>
      <trkpt lat="49.71512" lon="0.24034">
        <ele>92.9</ele>
        <time>2020-06-18T06:47:19Z</time>
      </trkpt>
      <trkpt lat="49.71513" lon="0.2404">
        <ele>92.9</ele>
        <time>2020-06-18T06:47:20Z</time>
      </trkpt>
      <trkpt lat="49.71514" lon="0.24046">
        <ele>93</ele>
        <time>2020-06-18T06:47:21Z</time>
      </trkpt>
      <trkpt lat="49.71516" lon="0.24052">
        <ele>93</ele>
        <time>2020-06-18T06:47:22Z</time>
      </trkpt>
      <trkpt lat="49.71516" lon="0.24057">
        <ele>93</ele>
        <time>2020-06-18T06:47:23Z</time>
      </trkpt>
      <trkpt lat="49.71518" lon="0.24063">
        <ele>93.1</ele>
        <time>2020-06-18T06:47:24Z</time>
      </trkpt>
      <trkpt lat="49.7152" lon="0.24068">
        <ele>93.1</ele>
        <time>2020-06-18T06:47:25Z</time>
      </trkpt>
      <trkpt lat="49.71522" lon="0.24074">
        <ele>93.1</ele>
        <time>2020-06-18T06:47:26Z</time>
      </trkpt>
      <trkpt lat="49.71523" lon="0.24081">
        <ele>93.2</ele>
        <time>2020-06-18T06:47:27Z</time>
      </trkpt>
      <trkpt lat="49.71524" lon="0.24088">
        <ele>93.2</ele>
        <time>2020-06-18T06:47:28Z</time>
      </trkpt>
      <trkpt lat="49.71526" lon="0.24095">
        <ele>93.3</ele>
        <time>2020-06-18T06:47:29Z</time>
      </trkpt>
      <trkpt lat="49.71527" lon="0.24101">
        <ele>93.3</ele>
        <time>2020-06-18T06:47:30Z</time>
      </trkpt>
      <trkpt lat="49.7153" lon="0.24109">
        <ele>93.3</ele>
        <time>2020-06-18T06:47:31Z</time>
      </trkpt>
      <trkpt lat="49.71531" lon="0.24116">
        <ele>93.4</ele>
        <time>2020-06-18T06:47:32Z</time>
      </trkpt>
      <trkpt lat="49.71533" lon="0.24121">
        <ele>93.4</ele>
        <time>2020-06-18T06:47:33Z</time>
      </trkpt>
      <trkpt lat="49.71534" lon="0.24126">
        <ele>93.5</ele>
        <time>2020-06-18T06:47:34Z</time>
      </trkpt>
      <trkpt lat="49.71536" lon="0.24131">
        <ele>93.5</ele>
        <time>2020-06-18T06:47:35Z</time>
      </trkpt>
      <trkpt lat="49.71538" lon="0.24139">
        <ele>93.6</ele>
        <time>2020-06-18T06:47:36Z</time>
      </trkpt>
      <trkpt lat="49.71539" lon="0.24145">
        <ele>93.7</ele>
        <time>2020-06-18T06:47:37Z</time>
      </trkpt>
      <trkpt lat="49.71541" lon="0.24153">
        <ele>93.7</ele>
        <time>2020-06-18T06:47:38Z</time>
      </trkpt>
      <trkpt lat="49.71542" lon="0.2416">
        <ele>93.7</ele>
        <time>2020-06-18T06:47:39Z</time>
      </trkpt>
      <trkpt lat="49.71544" lon="0.24167">
        <ele>93.7</ele>
        <time>2020-06-18T06:47:40Z</time>
      </trkpt>
      <trkpt lat="49.71546" lon="0.24174">
        <ele>93.8</ele>
        <time>2020-06-18T06:47:41Z</time>
      </trkpt>
      <trkpt lat="49.71547" lon="0.24181">
        <ele>93.8</ele>
        <time>2020-06-18T06:47:42Z</time>
      </trkpt>
      <trkpt lat="49.71549" lon="0.24189">
        <ele>93.8</ele>
        <time>2020-06-18T06:47:43Z</time>
      </trkpt>
      <trkpt lat="49.7155" lon="0.24197">
        <ele>93.9</ele>
        <time>2020-06-18T06:47:44Z</time>
      </trkpt>
      <trkpt lat="49.71552" lon="0.24206">
        <ele>94</ele>
        <time>2020-06-18T06:47:45Z</time>
      </trkpt>
      <trkpt lat="49.71553" lon="0.24212">
        <ele>94.1</ele>
        <time>2020-06-18T06:47:46Z</time>
      </trkpt>
      <trkpt lat="49.71554" lon="0.24218">
        <ele>94.2</ele>
        <time>2020-06-18T06:47:47Z</time>
      </trkpt>
      <trkpt lat="49.71555" lon="0.24224">
        <ele>94.3</ele>
        <time>2020-06-18T06:47:48Z</time>
      </trkpt>
      <trkpt lat="49.71556" lon="0.2423">
        <ele>94.4</ele>
        <time>2020-06-18T06:47:49Z</time>
      </trkpt>
      <trkpt lat="49.71557" lon="0.24239">
        <ele>94.6</ele>
        <time>2020-06-18T06:47:50Z</time>
      </trkpt>
      <trkpt lat="49.71557" lon="0.24244">
        <ele>94.7</ele>
        <time>2020-06-18T06:47:51Z</time>
      </trkpt>
      <trkpt lat="49.71557" lon="0.24251">
        <ele>94.8</ele>
        <time>2020-06-18T06:47:52Z</time>
      </trkpt>
      <trkpt lat="49.71558" lon="0.24258">
        <ele>95</ele>
        <time>2020-06-18T06:47:53Z</time>
      </trkpt>
      <trkpt lat="49.71559" lon="0.24265">
        <ele>95.1</ele>
        <time>2020-06-18T06:47:54Z</time>
      </trkpt>
      <trkpt lat="49.71561" lon="0.24271">
        <ele>95.2</ele>
        <time>2020-06-18T06:47:55Z</time>
      </trkpt>
      <trkpt lat="49.71561" lon="0.24278">
        <ele>95.4</ele>
        <time>2020-06-18T06:47:56Z</time>
      </trkpt>
      <trkpt lat="49.71561" lon="0.24282">
        <ele>95.4</ele>
        <time>2020-06-18T06:47:57Z</time>
      </trkpt>
      <trkpt lat="49.71561" lon="0.24287">
        <ele>95.5</ele>
        <time>2020-06-18T06:47:58Z</time>
      </trkpt>
      <trkpt lat="49.71561" lon="0.24293">
        <ele>95.6</ele>
        <time>2020-06-18T06:47:59Z</time>
      </trkpt>
      <trkpt lat="49.71561" lon="0.243">
        <ele>95.7</ele>
        <time>2020-06-18T06:48:00Z</time>
      </trkpt>
      <trkpt lat="49.71561" lon="0.24306">
        <ele>95.8</ele>
        <time>2020-06-18T06:48:01Z</time>
      </trkpt>
      <trkpt lat="49.71562" lon="0.24311">
        <ele>95.9</ele>
        <time>2020-06-18T06:48:02Z</time>
      </trkpt>
      <trkpt lat="49.71563" lon="0.24317">
        <ele>96</ele>
        <time>2020-06-18T06:48:03Z</time>
      </trkpt>
      <trkpt lat="49.71563" lon="0.24324">
        <ele>96.2</ele>
        <time>2020-06-18T06:48:04Z</time>
      </trkpt>
      <trkpt lat="49.71562" lon="0.24331">
        <ele>96.3</ele>
        <time>2020-06-18T06:48:05Z</time>
      </trkpt>
      <trkpt lat="49.71562" lon="0.24338">
        <ele>96.3</ele>
        <time>2020-06-18T06:48:06Z</time>
      </trkpt>
      <trkpt lat="49.71563" lon="0.24345">
        <ele>96.4</ele>
        <time>2020-06-18T06:48:07Z</time>
      </trkpt>
      <trkpt lat="49.71563" lon="0.24352">
        <ele>96.5</ele>
        <time>2020-06-18T06:48:08Z</time>
      </trkpt>
      <trkpt lat="49.71564" lon="0.24359">
        <ele>96.5</ele>
        <time>2020-06-18T06:48:09Z</time>
      </trkpt>
      <trkpt lat="49.71564" lon="0.24365">
        <ele>96.6</ele>
        <time>2020-06-18T06:48:10Z</time>
      </trkpt>
      <trkpt lat="49.71565" lon="0.24372">
        <ele>96.7</ele>
        <time>2020-06-18T06:48:11Z</time>
      </trkpt>
      <trkpt lat="49.71566" lon="0.24377">
        <ele>96.7</ele>
        <time>2020-06-18T06:48:12Z</time>
      </trkpt>
      <trkpt lat="49.71567" lon="0.24385">
        <ele>96.7</ele>
        <time>2020-06-18T06:48:13Z</time>
      </trkpt>
      <trkpt lat="49.71568" lon="0.24392">
        <ele>96.7</ele>
        <time>2020-06-18T06:48:14Z</time>
      </trkpt>
      <trkpt lat="49.7157" lon="0.24401">
        <ele>96.7</ele>
        <time>2020-06-18T06:48:15Z</time>
      </trkpt>
      <trkpt lat="49.71571" lon="0.24408">
        <ele>96.7</ele>
        <time>2020-06-18T06:48:16Z</time>
      </trkpt>
      <trkpt lat="49.71572" lon="0.24416">
        <ele>96.7</ele>
        <time>2020-06-18T06:48:17Z</time>
      </trkpt>
      <trkpt lat="49.71574" lon="0.24423">
        <ele>96.8</ele>
        <time>2020-06-18T06:48:18Z</time>
      </trkpt>
      <trkpt lat="49.71575" lon="0.2443">
        <ele>96.8</ele>
        <time>2020-06-18T06:48:19Z</time>
      </trkpt>
      <trkpt lat="49.71575" lon="0.24438">
        <ele>96.8</ele>
        <time>2020-06-18T06:48:20Z</time>
      </trkpt>
      <trkpt lat="49.71577" lon="0.24447">
        <ele>96.9</ele>
        <time>2020-06-18T06:48:21Z</time>
      </trkpt>
      <trkpt lat="49.71578" lon="0.24455">
        <ele>96.9</ele>
        <time>2020-06-18T06:48:22Z</time>
      </trkpt>
      <trkpt lat="49.71579" lon="0.24463">
        <ele>96.9</ele>
        <time>2020-06-18T06:48:23Z</time>
      </trkpt>
      <trkpt lat="49.7158" lon="0.2447">
        <ele>96.9</ele>
        <time>2020-06-18T06:48:24Z</time>
      </trkpt>
      <trkpt lat="49.71581" lon="0.24478">
        <ele>96.9</ele>
        <time>2020-06-18T06:48:25Z</time>
      </trkpt>
      <trkpt lat="49.71582" lon="0.24487">
        <ele>96.9</ele>
        <time>2020-06-18T06:48:26Z</time>
      </trkpt>
      <trkpt lat="49.71583" lon="0.24494">
        <ele>96.9</ele>
        <time>2020-06-18T06:48:27Z</time>
      </trkpt>
      <trkpt lat="49.71583" lon="0.24504">
        <ele>96.9</ele>
        <time>2020-06-18T06:48:28Z</time>
      </trkpt>
      <trkpt lat="49.71584" lon="0.24513">
        <ele>96.9</ele>
        <time>2020-06-18T06:48:29Z</time>
      </trkpt>
      <trkpt lat="49.71584" lon="0.24522">
        <ele>97</ele>
        <time>2020-06-18T06:48:30Z</time>
      </trkpt>
      <trkpt lat="49.71585" lon="0.24531">
        <ele>97</ele>
        <time>2020-06-18T06:48:31Z</time>
      </trkpt>
      <trkpt lat="49.71587" lon="0.24539">
        <ele>97.1</ele>
        <time>2020-06-18T06:48:32Z</time>
      </trkpt>
      <trkpt lat="49.71589" lon="0.24547">
        <ele>97.2</ele>
        <time>2020-06-18T06:48:33Z</time>
      </trkpt>
      <trkpt lat="49.71591" lon="0.24554">
        <ele>97.2</ele>
        <time>2020-06-18T06:48:34Z</time>
      </trkpt>
      <trkpt lat="49.71593" lon="0.24563">
        <ele>97.3</ele>
        <time>2020-06-18T06:48:35Z</time>
      </trkpt>
      <trkpt lat="49.71596" lon="0.2457">
        <ele>97.3</ele>
        <time>2020-06-18T06:48:36Z</time>
      </trkpt>
      <trkpt lat="49.716" lon="0.24575">
        <ele>97.3</ele>
        <time>2020-06-18T06:48:37Z</time>
      </trkpt>
      <trkpt lat="49.71603" lon="0.24582">
        <ele>97.3</ele>
        <time>2020-06-18T06:48:38Z</time>
      </trkpt>
      <trkpt lat="49.71606" lon="0.24587">
        <ele>97.3</ele>
        <time>2020-06-18T06:48:39Z</time>
      </trkpt>
      <trkpt lat="49.71608" lon="0.24593">
        <ele>97.4</ele>
        <time>2020-06-18T06:48:40Z</time>
      </trkpt>
      <trkpt lat="49.71611" lon="0.24599">
        <ele>97.4</ele>
        <time>2020-06-18T06:48:41Z</time>
      </trkpt>
      <trkpt lat="49.71615" lon="0.24606">
        <ele>97.5</ele>
        <time>2020-06-18T06:48:42Z</time>
      </trkpt>
      <trkpt lat="49.71618" lon="0.24615">
        <ele>97.5</ele>
        <time>2020-06-18T06:48:43Z</time>
      </trkpt>
      <trkpt lat="49.71621" lon="0.24621">
        <ele>97.5</ele>
        <time>2020-06-18T06:48:44Z</time>
      </trkpt>
      <trkpt lat="49.71624" lon="0.24629">
        <ele>97.6</ele>
        <time>2020-06-18T06:48:45Z</time>
      </trkpt>
      <trkpt lat="49.71627" lon="0.24636">
        <ele>97.6</ele>
        <time>2020-06-18T06:48:46Z</time>
      </trkpt>
      <trkpt lat="49.71629" lon="0.24642">
        <ele>97.6</ele>
        <time>2020-06-18T06:48:47Z</time>
      </trkpt>
      <trkpt lat="49.71632" lon="0.24649">
        <ele>97.6</ele>
        <time>2020-06-18T06:48:48Z</time>
      </trkpt>
      <trkpt lat="49.71635" lon="0.24655">
        <ele>97.6</ele>
        <time>2020-06-18T06:48:49Z</time>
      </trkpt>
      <trkpt lat="49.71638" lon="0.24663">
        <ele>97.6</ele>
        <time>2020-06-18T06:48:50Z</time>
      </trkpt>
      <trkpt lat="49.7164" lon="0.24671">
        <ele>97.6</ele>
        <time>2020-06-18T06:48:51Z</time>
      </trkpt>
      <trkpt lat="49.71642" lon="0.24678">
        <ele>97.6</ele>
        <time>2020-06-18T06:48:52Z</time>
      </trkpt>
      <trkpt lat="49.71645" lon="0.24685">
        <ele>97.6</ele>
        <time>2020-06-18T06:48:53Z</time>
      </trkpt>
      <trkpt lat="49.71648" lon="0.24692">
        <ele>97.7</ele>
        <time>2020-06-18T06:48:54Z</time>
      </trkpt>
      <trkpt lat="49.7165" lon="0.24701">
        <ele>97.7</ele>
        <time>2020-06-18T06:48:55Z</time>
      </trkpt>
      <trkpt lat="49.71653" lon="0.24708">
        <ele>97.7</ele>
        <time>2020-06-18T06:48:56Z</time>
      </trkpt>
      <trkpt lat="49.71655" lon="0.24718">
        <ele>97.7</ele>
        <time>2020-06-18T06:48:57Z</time>
      </trkpt>
      <trkpt lat="49.71657" lon="0.24728">
        <ele>97.7</ele>
        <time>2020-06-18T06:48:58Z</time>
      </trkpt>
      <trkpt lat="49.71658" lon="0.24738">
        <ele>97.7</ele>
        <time>2020-06-18T06:48:59Z</time>
      </trkpt>
      <trkpt lat="49.71659" lon="0.24749">
        <ele>97.7</ele>
        <time>2020-06-18T06:49:00Z</time>
      </trkpt>
      <trkpt lat="49.7166" lon="0.24759">
        <ele>97.6</ele>
        <time>2020-06-18T06:49:01Z</time>
      </trkpt>
      <trkpt lat="49.7166" lon="0.24769">
        <ele>97.6</ele>
        <time>2020-06-18T06:49:02Z</time>
      </trkpt>
      <trkpt lat="49.71661" lon="0.24778">
        <ele>97.5</ele>
        <time>2020-06-18T06:49:03Z</time>
      </trkpt>
      <trkpt lat="49.71662" lon="0.24788">
        <ele>97.5</ele>
        <time>2020-06-18T06:49:04Z</time>
      </trkpt>
      <trkpt lat="49.71663" lon="0.24798">
        <ele>97.4</ele>
        <time>2020-06-18T06:49:05Z</time>
      </trkpt>
      <trkpt lat="49.71663" lon="0.24807">
        <ele>97.4</ele>
        <time>2020-06-18T06:49:06Z</time>
      </trkpt>
      <trkpt lat="49.71665" lon="0.24817">
        <ele>97.4</ele>
        <time>2020-06-18T06:49:07Z</time>
      </trkpt>
      <trkpt lat="49.71666" lon="0.24827">
        <ele>97.4</ele>
        <time>2020-06-18T06:49:08Z</time>
      </trkpt>
      <trkpt lat="49.71667" lon="0.24837">
        <ele>97.4</ele>
        <time>2020-06-18T06:49:09Z</time>
      </trkpt>
      <trkpt lat="49.71668" lon="0.2485">
        <ele>97.4</ele>
        <time>2020-06-18T06:49:10Z</time>
      </trkpt>
      <trkpt lat="49.71668" lon="0.24861">
        <ele>97.5</ele>
        <time>2020-06-18T06:49:11Z</time>
      </trkpt>
      <trkpt lat="49.7167" lon="0.2487">
        <ele>97.5</ele>
        <time>2020-06-18T06:49:12Z</time>
      </trkpt>
      <trkpt lat="49.71672" lon="0.24881">
        <ele>97.6</ele>
        <time>2020-06-18T06:49:13Z</time>
      </trkpt>
      <trkpt lat="49.71673" lon="0.2489">
        <ele>97.6</ele>
        <time>2020-06-18T06:49:14Z</time>
      </trkpt>
      <trkpt lat="49.71673" lon="0.24901">
        <ele>97.6</ele>
        <time>2020-06-18T06:49:15Z</time>
      </trkpt>
      <trkpt lat="49.71675" lon="0.24911">
        <ele>97.6</ele>
        <time>2020-06-18T06:49:16Z</time>
      </trkpt>
      <trkpt lat="49.71677" lon="0.24922">
        <ele>97.7</ele>
        <time>2020-06-18T06:49:17Z</time>
      </trkpt>
      <trkpt lat="49.71679" lon="0.24932">
        <ele>97.8</ele>
        <time>2020-06-18T06:49:18Z</time>
      </trkpt>
      <trkpt lat="49.71679" lon="0.24941">
        <ele>97.8</ele>
        <time>2020-06-18T06:49:19Z</time>
      </trkpt>
      <trkpt lat="49.71681" lon="0.24951">
        <ele>97.8</ele>
        <time>2020-06-18T06:49:20Z</time>
      </trkpt>
      <trkpt lat="49.71683" lon="0.24961">
        <ele>97.9</ele>
        <time>2020-06-18T06:49:21Z</time>
      </trkpt>
      <trkpt lat="49.71684" lon="0.24971">
        <ele>97.9</ele>
        <time>2020-06-18T06:49:22Z</time>
      </trkpt>
      <trkpt lat="49.71685" lon="0.2498">
        <ele>97.9</ele>
        <time>2020-06-18T06:49:23Z</time>
      </trkpt>
      <trkpt lat="49.71687" lon="0.24989">
        <ele>97.9</ele>
        <time>2020-06-18T06:49:24Z</time>
      </trkpt>
      <trkpt lat="49.71688" lon="0.24998">
        <ele>97.9</ele>
        <time>2020-06-18T06:49:25Z</time>
      </trkpt>
      <trkpt lat="49.7169" lon="0.25006">
        <ele>98</ele>
        <time>2020-06-18T06:49:26Z</time>
      </trkpt>
      <trkpt lat="49.71693" lon="0.25013">
        <ele>98</ele>
        <time>2020-06-18T06:49:27Z</time>
      </trkpt>
      <trkpt lat="49.71696" lon="0.25021">
        <ele>98</ele>
        <time>2020-06-18T06:49:28Z</time>
      </trkpt>
      <trkpt lat="49.71699" lon="0.25027">
        <ele>98</ele>
        <time>2020-06-18T06:49:29Z</time>
      </trkpt>
      <trkpt lat="49.71703" lon="0.25035">
        <ele>98</ele>
        <time>2020-06-18T06:49:30Z</time>
      </trkpt>
      <trkpt lat="49.71706" lon="0.25043">
        <ele>98</ele>
        <time>2020-06-18T06:49:31Z</time>
      </trkpt>
      <trkpt lat="49.7171" lon="0.25051">
        <ele>98</ele>
        <time>2020-06-18T06:49:32Z</time>
      </trkpt>
      <trkpt lat="49.71714" lon="0.25059">
        <ele>98.1</ele>
        <time>2020-06-18T06:49:33Z</time>
      </trkpt>
      <trkpt lat="49.71717" lon="0.25067">
        <ele>98.1</ele>
        <time>2020-06-18T06:49:34Z</time>
      </trkpt>
      <trkpt lat="49.7172" lon="0.25076">
        <ele>98.1</ele>
        <time>2020-06-18T06:49:35Z</time>
      </trkpt>
      <trkpt lat="49.71723" lon="0.25083">
        <ele>98</ele>
        <time>2020-06-18T06:49:36Z</time>
      </trkpt>
      <trkpt lat="49.71725" lon="0.25091">
        <ele>98</ele>
        <time>2020-06-18T06:49:37Z</time>
      </trkpt>
      <trkpt lat="49.71727" lon="0.25099">
        <ele>98</ele>
        <time>2020-06-18T06:49:38Z</time>
      </trkpt>
      <trkpt lat="49.7173" lon="0.25106">
        <ele>98</ele>
        <time>2020-06-18T06:49:39Z</time>
      </trkpt>
      <trkpt lat="49.71733" lon="0.25114">
        <ele>97.9</ele>
        <time>2020-06-18T06:49:40Z</time>
      </trkpt>
      <trkpt lat="49.71735" lon="0.25122">
        <ele>97.9</ele>
        <time>2020-06-18T06:49:41Z</time>
      </trkpt>
      <trkpt lat="49.71737" lon="0.2513">
        <ele>97.9</ele>
        <time>2020-06-18T06:49:42Z</time>
      </trkpt>
      <trkpt lat="49.71738" lon="0.25139">
        <ele>97.9</ele>
        <time>2020-06-18T06:49:43Z</time>
      </trkpt>
      <trkpt lat="49.71739" lon="0.25147">
        <ele>97.9</ele>
        <time>2020-06-18T06:49:44Z</time>
      </trkpt>
      <trkpt lat="49.71741" lon="0.25155">
        <ele>97.9</ele>
        <time>2020-06-18T06:49:45Z</time>
      </trkpt>
      <trkpt lat="49.71742" lon="0.25163">
        <ele>97.8</ele>
        <time>2020-06-18T06:49:46Z</time>
      </trkpt>
      <trkpt lat="49.71742" lon="0.25168">
        <ele>97.8</ele>
        <time>2020-06-18T06:49:47Z</time>
      </trkpt>
      <trkpt lat="49.71742" lon="0.25177">
        <ele>97.8</ele>
        <time>2020-06-18T06:49:48Z</time>
      </trkpt>
      <trkpt lat="49.71742" lon="0.25186">
        <ele>97.8</ele>
        <time>2020-06-18T06:49:49Z</time>
      </trkpt>
      <trkpt lat="49.71742" lon="0.25195">
        <ele>97.7</ele>
        <time>2020-06-18T06:49:50Z</time>
      </trkpt>
      <trkpt lat="49.71741" lon="0.25204">
        <ele>97.6</ele>
        <time>2020-06-18T06:49:51Z</time>
      </trkpt>
      <trkpt lat="49.7174" lon="0.25212">
        <ele>97.6</ele>
        <time>2020-06-18T06:49:52Z</time>
      </trkpt>
      <trkpt lat="49.71739" lon="0.25221">
        <ele>97.6</ele>
        <time>2020-06-18T06:49:53Z</time>
      </trkpt>
      <trkpt lat="49.71738" lon="0.2523">
        <ele>97.5</ele>
        <time>2020-06-18T06:49:54Z</time>
      </trkpt>
      <trkpt lat="49.71737" lon="0.2524">
        <ele>97.5</ele>
        <time>2020-06-18T06:49:55Z</time>
      </trkpt>
      <trkpt lat="49.71737" lon="0.2525">
        <ele>97.5</ele>
        <time>2020-06-18T06:49:56Z</time>
      </trkpt>
      <trkpt lat="49.71738" lon="0.25261">
        <ele>97.5</ele>
        <time>2020-06-18T06:49:57Z</time>
      </trkpt>
      <trkpt lat="49.71738" lon="0.25272">
        <ele>97.5</ele>
        <time>2020-06-18T06:49:58Z</time>
      </trkpt>
      <trkpt lat="49.71737" lon="0.25282">
        <ele>97.5</ele>
        <time>2020-06-18T06:49:59Z</time>
      </trkpt>
      <trkpt lat="49.71737" lon="0.25292">
        <ele>97.4</ele>
        <time>2020-06-18T06:50:00Z</time>
      </trkpt>
      <trkpt lat="49.71735" lon="0.25303">
        <ele>97.4</ele>
        <time>2020-06-18T06:50:01Z</time>
      </trkpt>
      <trkpt lat="49.71735" lon="0.25313">
        <ele>97.4</ele>
        <time>2020-06-18T06:50:02Z</time>
      </trkpt>
      <trkpt lat="49.71734" lon="0.25323">
        <ele>97.4</ele>
        <time>2020-06-18T06:50:03Z</time>
      </trkpt>
      <trkpt lat="49.71734" lon="0.25333">
        <ele>97.4</ele>
        <time>2020-06-18T06:50:04Z</time>
      </trkpt>
      <trkpt lat="49.71735" lon="0.25342">
        <ele>97.4</ele>
        <time>2020-06-18T06:50:05Z</time>
      </trkpt>
      <trkpt lat="49.71736" lon="0.25351">
        <ele>97.4</ele>
        <time>2020-06-18T06:50:06Z</time>
      </trkpt>
      <trkpt lat="49.71737" lon="0.25361">
        <ele>97.4</ele>
        <time>2020-06-18T06:50:07Z</time>
      </trkpt>
      <trkpt lat="49.71739" lon="0.25371">
        <ele>97.4</ele>
        <time>2020-06-18T06:50:08Z</time>
      </trkpt>
      <trkpt lat="49.71742" lon="0.2538">
        <ele>97.4</ele>
        <time>2020-06-18T06:50:09Z</time>
      </trkpt>
      <trkpt lat="49.71747" lon="0.25387">
        <ele>97.4</ele>
        <time>2020-06-18T06:50:10Z</time>
      </trkpt>
      <trkpt lat="49.71751" lon="0.25395">
        <ele>97.4</ele>
        <time>2020-06-18T06:50:11Z</time>
      </trkpt>
      <trkpt lat="49.71755" lon="0.25402">
        <ele>97.4</ele>
        <time>2020-06-18T06:50:12Z</time>
      </trkpt>
      <trkpt lat="49.71759" lon="0.25409">
        <ele>97.4</ele>
        <time>2020-06-18T06:50:13Z</time>
      </trkpt>
      <trkpt lat="49.71764" lon="0.25413">
        <ele>97.5</ele>
        <time>2020-06-18T06:50:14Z</time>
      </trkpt>
      <trkpt lat="49.7177" lon="0.2542">
        <ele>97.5</ele>
        <time>2020-06-18T06:50:15Z</time>
      </trkpt>
      <trkpt lat="49.71775" lon="0.25426">
        <ele>97.5</ele>
        <time>2020-06-18T06:50:16Z</time>
      </trkpt>
      <trkpt lat="49.7178" lon="0.25432">
        <ele>97.6</ele>
        <time>2020-06-18T06:50:17Z</time>
      </trkpt>
      <trkpt lat="49.71785" lon="0.25437">
        <ele>97.6</ele>
        <time>2020-06-18T06:50:18Z</time>
      </trkpt>
      <trkpt lat="49.71789" lon="0.25443">
        <ele>97.6</ele>
        <time>2020-06-18T06:50:19Z</time>
      </trkpt>
      <trkpt lat="49.71794" lon="0.25449">
        <ele>97.6</ele>
        <time>2020-06-18T06:50:20Z</time>
      </trkpt>
      <trkpt lat="49.71798" lon="0.25454">
        <ele>97.7</ele>
        <time>2020-06-18T06:50:21Z</time>
      </trkpt>
      <trkpt lat="49.71804" lon="0.2546">
        <ele>97.7</ele>
        <time>2020-06-18T06:50:22Z</time>
      </trkpt>
      <trkpt lat="49.71809" lon="0.25467">
        <ele>97.7</ele>
        <time>2020-06-18T06:50:23Z</time>
      </trkpt>
      <trkpt lat="49.71813" lon="0.25475">
        <ele>97.5</ele>
        <time>2020-06-18T06:50:24Z</time>
      </trkpt>
      <trkpt lat="49.71818" lon="0.25484">
        <ele>97.4</ele>
        <time>2020-06-18T06:50:25Z</time>
      </trkpt>
      <trkpt lat="49.71821" lon="0.25494">
        <ele>97.3</ele>
        <time>2020-06-18T06:50:26Z</time>
      </trkpt>
      <trkpt lat="49.71825" lon="0.25503">
        <ele>97.3</ele>
        <time>2020-06-18T06:50:27Z</time>
      </trkpt>
      <trkpt lat="49.71827" lon="0.25513">
        <ele>97.3</ele>
        <time>2020-06-18T06:50:28Z</time>
      </trkpt>
      <trkpt lat="49.71829" lon="0.25523">
        <ele>97.3</ele>
        <time>2020-06-18T06:50:29Z</time>
      </trkpt>
      <trkpt lat="49.7183" lon="0.25534">
        <ele>97.3</ele>
        <time>2020-06-18T06:50:30Z</time>
      </trkpt>
      <trkpt lat="49.7183" lon="0.25544">
        <ele>97.2</ele>
        <time>2020-06-18T06:50:31Z</time>
      </trkpt>
      <trkpt lat="49.71831" lon="0.25554">
        <ele>97.2</ele>
        <time>2020-06-18T06:50:32Z</time>
      </trkpt>
      <trkpt lat="49.71831" lon="0.25565">
        <ele>97.2</ele>
        <time>2020-06-18T06:50:33Z</time>
      </trkpt>
      <trkpt lat="49.71831" lon="0.25577">
        <ele>97.2</ele>
        <time>2020-06-18T06:50:34Z</time>
      </trkpt>
      <trkpt lat="49.71831" lon="0.25587">
        <ele>97.1</ele>
        <time>2020-06-18T06:50:35Z</time>
      </trkpt>
      <trkpt lat="49.71831" lon="0.25597">
        <ele>97.1</ele>
        <time>2020-06-18T06:50:36Z</time>
      </trkpt>
      <trkpt lat="49.71831" lon="0.25608">
        <ele>97</ele>
        <time>2020-06-18T06:50:37Z</time>
      </trkpt>
      <trkpt lat="49.71832" lon="0.25619">
        <ele>96.9</ele>
        <time>2020-06-18T06:50:38Z</time>
      </trkpt>
      <trkpt lat="49.71832" lon="0.25629">
        <ele>96.8</ele>
        <time>2020-06-18T06:50:39Z</time>
      </trkpt>
      <trkpt lat="49.71833" lon="0.25637">
        <ele>96.8</ele>
        <time>2020-06-18T06:50:40Z</time>
      </trkpt>
      <trkpt lat="49.71833" lon="0.25647">
        <ele>96.7</ele>
        <time>2020-06-18T06:50:41Z</time>
      </trkpt>
      <trkpt lat="49.71834" lon="0.25658">
        <ele>96.7</ele>
        <time>2020-06-18T06:50:42Z</time>
      </trkpt>
      <trkpt lat="49.71834" lon="0.25668">
        <ele>96.6</ele>
        <time>2020-06-18T06:50:43Z</time>
      </trkpt>
      <trkpt lat="49.71835" lon="0.25679">
        <ele>96.6</ele>
        <time>2020-06-18T06:50:44Z</time>
      </trkpt>
      <trkpt lat="49.71835" lon="0.2569">
        <ele>96.6</ele>
        <time>2020-06-18T06:50:45Z</time>
      </trkpt>
      <trkpt lat="49.71835" lon="0.25701">
        <ele>96.5</ele>
        <time>2020-06-18T06:50:46Z</time>
      </trkpt>
      <trkpt lat="49.71834" lon="0.25712">
        <ele>96.5</ele>
        <time>2020-06-18T06:50:47Z</time>
      </trkpt>
      <trkpt lat="49.71834" lon="0.25724">
        <ele>96.4</ele>
        <time>2020-06-18T06:50:48Z</time>
      </trkpt>
      <trkpt lat="49.71834" lon="0.25734">
        <ele>96.3</ele>
        <time>2020-06-18T06:50:49Z</time>
      </trkpt>
      <trkpt lat="49.71834" lon="0.25745">
        <ele>96.3</ele>
        <time>2020-06-18T06:50:50Z</time>
      </trkpt>
      <trkpt lat="49.71835" lon="0.25756">
        <ele>96.3</ele>
        <time>2020-06-18T06:50:51Z</time>
      </trkpt>
      <trkpt lat="49.71835" lon="0.25767">
        <ele>96.3</ele>
        <time>2020-06-18T06:50:52Z</time>
      </trkpt>
      <trkpt lat="49.71836" lon="0.25778">
        <ele>96.3</ele>
        <time>2020-06-18T06:50:53Z</time>
      </trkpt>
      <trkpt lat="49.71836" lon="0.25789">
        <ele>96.2</ele>
        <time>2020-06-18T06:50:54Z</time>
      </trkpt>
      <trkpt lat="49.71836" lon="0.258">
        <ele>96.1</ele>
        <time>2020-06-18T06:50:55Z</time>
      </trkpt>
      <trkpt lat="49.71837" lon="0.25811">
        <ele>96</ele>
        <time>2020-06-18T06:50:56Z</time>
      </trkpt>
      <trkpt lat="49.71837" lon="0.25824">
        <ele>95.9</ele>
        <time>2020-06-18T06:50:57Z</time>
      </trkpt>
      <trkpt lat="49.71837" lon="0.25834">
        <ele>95.9</ele>
        <time>2020-06-18T06:50:58Z</time>
      </trkpt>
      <trkpt lat="49.71838" lon="0.25843">
        <ele>95.8</ele>
        <time>2020-06-18T06:50:59Z</time>
      </trkpt>
      <trkpt lat="49.71838" lon="0.25854">
        <ele>95.8</ele>
        <time>2020-06-18T06:51:00Z</time>
      </trkpt>
      <trkpt lat="49.71839" lon="0.25865">
        <ele>95.7</ele>
        <time>2020-06-18T06:51:01Z</time>
      </trkpt>
      <trkpt lat="49.7184" lon="0.25877">
        <ele>95.7</ele>
        <time>2020-06-18T06:51:02Z</time>
      </trkpt>
      <trkpt lat="49.71839" lon="0.25889">
        <ele>95.6</ele>
        <time>2020-06-18T06:51:03Z</time>
      </trkpt>
      <trkpt lat="49.7184" lon="0.25901">
        <ele>95.5</ele>
        <time>2020-06-18T06:51:04Z</time>
      </trkpt>
      <trkpt lat="49.7184" lon="0.25913">
        <ele>95.4</ele>
        <time>2020-06-18T06:51:05Z</time>
      </trkpt>
      <trkpt lat="49.7184" lon="0.25922">
        <ele>95.4</ele>
        <time>2020-06-18T06:51:06Z</time>
      </trkpt>
      <trkpt lat="49.7184" lon="0.25933">
        <ele>95.3</ele>
        <time>2020-06-18T06:51:07Z</time>
      </trkpt>
      <trkpt lat="49.71841" lon="0.25945">
        <ele>95.3</ele>
        <time>2020-06-18T06:51:08Z</time>
      </trkpt>
      <trkpt lat="49.71841" lon="0.25957">
        <ele>95.2</ele>
        <time>2020-06-18T06:51:09Z</time>
      </trkpt>
      <trkpt lat="49.71841" lon="0.2597">
        <ele>95.2</ele>
        <time>2020-06-18T06:51:10Z</time>
      </trkpt>
      <trkpt lat="49.71841" lon="0.25982">
        <ele>95.3</ele>
        <time>2020-06-18T06:51:11Z</time>
      </trkpt>
      <trkpt lat="49.71842" lon="0.25993">
        <ele>95.3</ele>
        <time>2020-06-18T06:51:12Z</time>
      </trkpt>
      <trkpt lat="49.71842" lon="0.26005">
        <ele>95.4</ele>
        <time>2020-06-18T06:51:13Z</time>
      </trkpt>
      <trkpt lat="49.71842" lon="0.26016">
        <ele>95.2</ele>
        <time>2020-06-18T06:51:14Z</time>
      </trkpt>
      <trkpt lat="49.71843" lon="0.26027">
        <ele>95.1</ele>
        <time>2020-06-18T06:51:15Z</time>
      </trkpt>
      <trkpt lat="49.71843" lon="0.26039">
        <ele>95</ele>
        <time>2020-06-18T06:51:16Z</time>
      </trkpt>
      <trkpt lat="49.71843" lon="0.26052">
        <ele>94.9</ele>
        <time>2020-06-18T06:51:17Z</time>
      </trkpt>
      <trkpt lat="49.71842" lon="0.26064">
        <ele>94.8</ele>
        <time>2020-06-18T06:51:18Z</time>
      </trkpt>
      <trkpt lat="49.71841" lon="0.26077">
        <ele>94.7</ele>
        <time>2020-06-18T06:51:19Z</time>
      </trkpt>
      <trkpt lat="49.7184" lon="0.26088">
        <ele>94.7</ele>
        <time>2020-06-18T06:51:20Z</time>
      </trkpt>
      <trkpt lat="49.7184" lon="0.26098">
        <ele>94.6</ele>
        <time>2020-06-18T06:51:21Z</time>
      </trkpt>
      <trkpt lat="49.7184" lon="0.26109">
        <ele>94.6</ele>
        <time>2020-06-18T06:51:22Z</time>
      </trkpt>
      <trkpt lat="49.71839" lon="0.2612">
        <ele>94.5</ele>
        <time>2020-06-18T06:51:23Z</time>
      </trkpt>
      <trkpt lat="49.71838" lon="0.26132">
        <ele>94.4</ele>
        <time>2020-06-18T06:51:24Z</time>
      </trkpt>
      <trkpt lat="49.71837" lon="0.26144">
        <ele>94.3</ele>
        <time>2020-06-18T06:51:25Z</time>
      </trkpt>
      <trkpt lat="49.71837" lon="0.26155">
        <ele>94.3</ele>
        <time>2020-06-18T06:51:26Z</time>
      </trkpt>
      <trkpt lat="49.71836" lon="0.26166">
        <ele>94.2</ele>
        <time>2020-06-18T06:51:27Z</time>
      </trkpt>
      <trkpt lat="49.71836" lon="0.26178">
        <ele>94.2</ele>
        <time>2020-06-18T06:51:28Z</time>
      </trkpt>
      <trkpt lat="49.71836" lon="0.2619">
        <ele>94.2</ele>
        <time>2020-06-18T06:51:29Z</time>
      </trkpt>
      <trkpt lat="49.71836" lon="0.26201">
        <ele>94.2</ele>
        <time>2020-06-18T06:51:30Z</time>
      </trkpt>
      <trkpt lat="49.71836" lon="0.26212">
        <ele>94.1</ele>
        <time>2020-06-18T06:51:31Z</time>
      </trkpt>
      <trkpt lat="49.71836" lon="0.26223">
        <ele>94.1</ele>
        <time>2020-06-18T06:51:32Z</time>
      </trkpt>
      <trkpt lat="49.71836" lon="0.26234">
        <ele>94.1</ele>
        <time>2020-06-18T06:51:33Z</time>
      </trkpt>
      <trkpt lat="49.71837" lon="0.26246">
        <ele>94.1</ele>
        <time>2020-06-18T06:51:34Z</time>
      </trkpt>
      <trkpt lat="49.71837" lon="0.26256">
        <ele>94</ele>
        <time>2020-06-18T06:51:35Z</time>
      </trkpt>
      <trkpt lat="49.71838" lon="0.26267">
        <ele>94</ele>
        <time>2020-06-18T06:51:36Z</time>
      </trkpt>
      <trkpt lat="49.71839" lon="0.26278">
        <ele>93.9</ele>
        <time>2020-06-18T06:51:37Z</time>
      </trkpt>
      <trkpt lat="49.71842" lon="0.26288">
        <ele>93.9</ele>
        <time>2020-06-18T06:51:38Z</time>
      </trkpt>
      <trkpt lat="49.71844" lon="0.263">
        <ele>93.8</ele>
        <time>2020-06-18T06:51:39Z</time>
      </trkpt>
      <trkpt lat="49.71848" lon="0.2631">
        <ele>93.8</ele>
        <time>2020-06-18T06:51:40Z</time>
      </trkpt>
      <trkpt lat="49.71851" lon="0.26321">
        <ele>93.7</ele>
        <time>2020-06-18T06:51:41Z</time>
      </trkpt>
      <trkpt lat="49.71853" lon="0.26331">
        <ele>93.7</ele>
        <time>2020-06-18T06:51:42Z</time>
      </trkpt>
      <trkpt lat="49.71856" lon="0.26341">
        <ele>93.6</ele>
        <time>2020-06-18T06:51:43Z</time>
      </trkpt>
      <trkpt lat="49.71858" lon="0.26351">
        <ele>93.5</ele>
        <time>2020-06-18T06:51:44Z</time>
      </trkpt>
      <trkpt lat="49.7186" lon="0.26361">
        <ele>93.4</ele>
        <time>2020-06-18T06:51:45Z</time>
      </trkpt>
      <trkpt lat="49.71862" lon="0.26371">
        <ele>93.3</ele>
        <time>2020-06-18T06:51:46Z</time>
      </trkpt>
      <trkpt lat="49.71862" lon="0.26382">
        <ele>93.2</ele>
        <time>2020-06-18T06:51:47Z</time>
      </trkpt>
      <trkpt lat="49.71862" lon="0.26392">
        <ele>93.1</ele>
        <time>2020-06-18T06:51:48Z</time>
      </trkpt>
      <trkpt lat="49.71861" lon="0.26404">
        <ele>92.9</ele>
        <time>2020-06-18T06:51:49Z</time>
      </trkpt>
      <trkpt lat="49.71862" lon="0.26416">
        <ele>92.8</ele>
        <time>2020-06-18T06:51:50Z</time>
      </trkpt>
      <trkpt lat="49.71861" lon="0.26428">
        <ele>92.6</ele>
        <time>2020-06-18T06:51:51Z</time>
      </trkpt>
      <trkpt lat="49.71861" lon="0.26439">
        <ele>92.4</ele>
        <time>2020-06-18T06:51:52Z</time>
      </trkpt>
      <trkpt lat="49.71861" lon="0.26451">
        <ele>92.2</ele>
        <time>2020-06-18T06:51:53Z</time>
      </trkpt>
      <trkpt lat="49.71861" lon="0.26461">
        <ele>92.1</ele>
        <time>2020-06-18T06:51:54Z</time>
      </trkpt>
      <trkpt lat="49.71861" lon="0.26472">
        <ele>91.9</ele>
        <time>2020-06-18T06:51:55Z</time>
      </trkpt>
      <trkpt lat="49.71861" lon="0.26484">
        <ele>91.7</ele>
        <time>2020-06-18T06:51:56Z</time>
      </trkpt>
      <trkpt lat="49.71861" lon="0.26496">
        <ele>91.5</ele>
        <time>2020-06-18T06:51:57Z</time>
      </trkpt>
      <trkpt lat="49.7186" lon="0.26507">
        <ele>91.3</ele>
        <time>2020-06-18T06:51:58Z</time>
      </trkpt>
      <trkpt lat="49.71861" lon="0.2652">
        <ele>91.1</ele>
        <time>2020-06-18T06:51:59Z</time>
      </trkpt>
      <trkpt lat="49.71861" lon="0.26532">
        <ele>90.9</ele>
        <time>2020-06-18T06:52:00Z</time>
      </trkpt>
      <trkpt lat="49.7186" lon="0.26544">
        <ele>90.7</ele>
        <time>2020-06-18T06:52:01Z</time>
      </trkpt>
      <trkpt lat="49.7186" lon="0.26555">
        <ele>90.6</ele>
        <time>2020-06-18T06:52:02Z</time>
      </trkpt>
      <trkpt lat="49.7186" lon="0.26567">
        <ele>90.4</ele>
        <time>2020-06-18T06:52:03Z</time>
      </trkpt>
      <trkpt lat="49.71861" lon="0.2658">
        <ele>90.3</ele>
        <time>2020-06-18T06:52:04Z</time>
      </trkpt>
      <trkpt lat="49.71861" lon="0.26592">
        <ele>90.2</ele>
        <time>2020-06-18T06:52:05Z</time>
      </trkpt>
      <trkpt lat="49.71862" lon="0.26603">
        <ele>90.1</ele>
        <time>2020-06-18T06:52:06Z</time>
      </trkpt>
      <trkpt lat="49.71863" lon="0.26614">
        <ele>90</ele>
        <time>2020-06-18T06:52:07Z</time>
      </trkpt>
      <trkpt lat="49.71864" lon="0.26626">
        <ele>89.9</ele>
        <time>2020-06-18T06:52:08Z</time>
      </trkpt>
      <trkpt lat="49.71865" lon="0.26638">
        <ele>89.8</ele>
        <time>2020-06-18T06:52:09Z</time>
      </trkpt>
      <trkpt lat="49.71866" lon="0.26649">
        <ele>89.7</ele>
        <time>2020-06-18T06:52:10Z</time>
      </trkpt>
      <trkpt lat="49.71869" lon="0.26662">
        <ele>89.6</ele>
        <time>2020-06-18T06:52:11Z</time>
      </trkpt>
      <trkpt lat="49.7187" lon="0.26674">
        <ele>89.6</ele>
        <time>2020-06-18T06:52:12Z</time>
      </trkpt>
      <trkpt lat="49.71871" lon="0.26686">
        <ele>89.6</ele>
        <time>2020-06-18T06:52:13Z</time>
      </trkpt>
      <trkpt lat="49.71873" lon="0.26698">
        <ele>89.6</ele>
        <time>2020-06-18T06:52:14Z</time>
      </trkpt>
      <trkpt lat="49.71874" lon="0.2671">
        <ele>89.7</ele>
        <time>2020-06-18T06:52:15Z</time>
      </trkpt>
      <trkpt lat="49.71875" lon="0.26722">
        <ele>89.7</ele>
        <time>2020-06-18T06:52:16Z</time>
      </trkpt>
      <trkpt lat="49.71876" lon="0.26733">
        <ele>89.8</ele>
        <time>2020-06-18T06:52:17Z</time>
      </trkpt>
      <trkpt lat="49.71875" lon="0.26745">
        <ele>89.9</ele>
        <time>2020-06-18T06:52:18Z</time>
      </trkpt>
      <trkpt lat="49.71876" lon="0.26756">
        <ele>90.1</ele>
        <time>2020-06-18T06:52:19Z</time>
      </trkpt>
      <trkpt lat="49.71875" lon="0.26767">
        <ele>90.2</ele>
        <time>2020-06-18T06:52:20Z</time>
      </trkpt>
      <trkpt lat="49.71875" lon="0.26778">
        <ele>90.4</ele>
        <time>2020-06-18T06:52:21Z</time>
      </trkpt>
      <trkpt lat="49.71874" lon="0.26789">
        <ele>90.5</ele>
        <time>2020-06-18T06:52:22Z</time>
      </trkpt>
      <trkpt lat="49.71873" lon="0.268">
        <ele>90.6</ele>
        <time>2020-06-18T06:52:23Z</time>
      </trkpt>
      <trkpt lat="49.71873" lon="0.2681">
        <ele>90.7</ele>
        <time>2020-06-18T06:52:24Z</time>
      </trkpt>
      <trkpt lat="49.71872" lon="0.2682">
        <ele>90.8</ele>
        <time>2020-06-18T06:52:25Z</time>
      </trkpt>
      <trkpt lat="49.71871" lon="0.2683">
        <ele>91</ele>
        <time>2020-06-18T06:52:26Z</time>
      </trkpt>
      <trkpt lat="49.7187" lon="0.2684">
        <ele>91.1</ele>
        <time>2020-06-18T06:52:27Z</time>
      </trkpt>
      <trkpt lat="49.71869" lon="0.2685">
        <ele>91.2</ele>
        <time>2020-06-18T06:52:28Z</time>
      </trkpt>
      <trkpt lat="49.71867" lon="0.26861">
        <ele>91.4</ele>
        <time>2020-06-18T06:52:29Z</time>
      </trkpt>
      <trkpt lat="49.71865" lon="0.26872">
        <ele>91.5</ele>
        <time>2020-06-18T06:52:30Z</time>
      </trkpt>
      <trkpt lat="49.71864" lon="0.26883">
        <ele>91.6</ele>
        <time>2020-06-18T06:52:31Z</time>
      </trkpt>
      <trkpt lat="49.71862" lon="0.26894">
        <ele>91.7</ele>
        <time>2020-06-18T06:52:32Z</time>
      </trkpt>
      <trkpt lat="49.7186" lon="0.26904">
        <ele>91.7</ele>
        <time>2020-06-18T06:52:33Z</time>
      </trkpt>
      <trkpt lat="49.71858" lon="0.26913">
        <ele>91.8</ele>
        <time>2020-06-18T06:52:34Z</time>
      </trkpt>
      <trkpt lat="49.71857" lon="0.26922">
        <ele>91.8</ele>
        <time>2020-06-18T06:52:35Z</time>
      </trkpt>
      <trkpt lat="49.71856" lon="0.26931">
        <ele>91.8</ele>
        <time>2020-06-18T06:52:36Z</time>
      </trkpt>
      <trkpt lat="49.71855" lon="0.2694">
        <ele>91.8</ele>
        <time>2020-06-18T06:52:37Z</time>
      </trkpt>
      <trkpt lat="49.71853" lon="0.26953">
        <ele>91.7</ele>
        <time>2020-06-18T06:52:38Z</time>
      </trkpt>
      <trkpt lat="49.71853" lon="0.26962">
        <ele>91.7</ele>
        <time>2020-06-18T06:52:39Z</time>
      </trkpt>
      <trkpt lat="49.71853" lon="0.2697">
        <ele>91.6</ele>
        <time>2020-06-18T06:52:40Z</time>
      </trkpt>
      <trkpt lat="49.71853" lon="0.26979">
        <ele>91.6</ele>
        <time>2020-06-18T06:52:41Z</time>
      </trkpt>
      <trkpt lat="49.71852" lon="0.26989">
        <ele>91.5</ele>
        <time>2020-06-18T06:52:42Z</time>
      </trkpt>
      <trkpt lat="49.71852" lon="0.26998">
        <ele>91.4</ele>
        <time>2020-06-18T06:52:43Z</time>
      </trkpt>
      <trkpt lat="49.71852" lon="0.27007">
        <ele>91.4</ele>
        <time>2020-06-18T06:52:44Z</time>
      </trkpt>
      <trkpt lat="49.71852" lon="0.27013">
        <ele>91.3</ele>
        <time>2020-06-18T06:52:45Z</time>
      </trkpt>
      <trkpt lat="49.71852" lon="0.27021">
        <ele>91.2</ele>
        <time>2020-06-18T06:52:46Z</time>
      </trkpt>
      <trkpt lat="49.71852" lon="0.2703">
        <ele>91.1</ele>
        <time>2020-06-18T06:52:47Z</time>
      </trkpt>
      <trkpt lat="49.71851" lon="0.27038">
        <ele>91</ele>
        <time>2020-06-18T06:52:48Z</time>
      </trkpt>
      <trkpt lat="49.71851" lon="0.27046">
        <ele>90.9</ele>
        <time>2020-06-18T06:52:49Z</time>
      </trkpt>
      <trkpt lat="49.71852" lon="0.27054">
        <ele>90.8</ele>
        <time>2020-06-18T06:52:50Z</time>
      </trkpt>
      <trkpt lat="49.71851" lon="0.27064">
        <ele>90.6</ele>
        <time>2020-06-18T06:52:51Z</time>
      </trkpt>
      <trkpt lat="49.71851" lon="0.27074">
        <ele>90.5</ele>
        <time>2020-06-18T06:52:52Z</time>
      </trkpt>
      <trkpt lat="49.7185" lon="0.27084">
        <ele>90.3</ele>
        <time>2020-06-18T06:52:53Z</time>
      </trkpt>
      <trkpt lat="49.71848" lon="0.27095">
        <ele>90.1</ele>
        <time>2020-06-18T06:52:54Z</time>
      </trkpt>
      <trkpt lat="49.71846" lon="0.27103">
        <ele>90</ele>
        <time>2020-06-18T06:52:55Z</time>
      </trkpt>
      <trkpt lat="49.71844" lon="0.27111">
        <ele>89.8</ele>
        <time>2020-06-18T06:52:56Z</time>
      </trkpt>
      <trkpt lat="49.71841" lon="0.2712">
        <ele>89.6</ele>
        <time>2020-06-18T06:52:57Z</time>
      </trkpt>
      <trkpt lat="49.71838" lon="0.27128">
        <ele>89.4</ele>
        <time>2020-06-18T06:52:58Z</time>
      </trkpt>
      <trkpt lat="49.71835" lon="0.27136">
        <ele>89.2</ele>
        <time>2020-06-18T06:52:59Z</time>
      </trkpt>
      <trkpt lat="49.71832" lon="0.27146">
        <ele>89</ele>
        <time>2020-06-18T06:53:00Z</time>
      </trkpt>
      <trkpt lat="49.71828" lon="0.27156">
        <ele>88.7</ele>
        <time>2020-06-18T06:53:01Z</time>
      </trkpt>
      <trkpt lat="49.71825" lon="0.27165">
        <ele>88.4</ele>
        <time>2020-06-18T06:53:02Z</time>
      </trkpt>
      <trkpt lat="49.71822" lon="0.27175">
        <ele>88.1</ele>
        <time>2020-06-18T06:53:03Z</time>
      </trkpt>
      <trkpt lat="49.71819" lon="0.27184">
        <ele>87.8</ele>
        <time>2020-06-18T06:53:04Z</time>
      </trkpt>
      <trkpt lat="49.71818" lon="0.27194">
        <ele>87.5</ele>
        <time>2020-06-18T06:53:05Z</time>
      </trkpt>
      <trkpt lat="49.71817" lon="0.27206">
        <ele>87.1</ele>
        <time>2020-06-18T06:53:06Z</time>
      </trkpt>
      <trkpt lat="49.71817" lon="0.27217">
        <ele>86.6</ele>
        <time>2020-06-18T06:53:07Z</time>
      </trkpt>
      <trkpt lat="49.71819" lon="0.27228">
        <ele>86.2</ele>
        <time>2020-06-18T06:53:08Z</time>
      </trkpt>
      <trkpt lat="49.71822" lon="0.27239">
        <ele>85.7</ele>
        <time>2020-06-18T06:53:09Z</time>
      </trkpt>
      <trkpt lat="49.71825" lon="0.2725">
        <ele>85.3</ele>
        <time>2020-06-18T06:53:10Z</time>
      </trkpt>
      <trkpt lat="49.71828" lon="0.2726">
        <ele>84.9</ele>
        <time>2020-06-18T06:53:11Z</time>
      </trkpt>
      <trkpt lat="49.71831" lon="0.27271">
        <ele>84.4</ele>
        <time>2020-06-18T06:53:12Z</time>
      </trkpt>
      <trkpt lat="49.71835" lon="0.27282">
        <ele>83.9</ele>
        <time>2020-06-18T06:53:13Z</time>
      </trkpt>
      <trkpt lat="49.7184" lon="0.27294">
        <ele>83.3</ele>
        <time>2020-06-18T06:53:14Z</time>
      </trkpt>
      <trkpt lat="49.71844" lon="0.27306">
        <ele>82.9</ele>
        <time>2020-06-18T06:53:15Z</time>
      </trkpt>
      <trkpt lat="49.71848" lon="0.27318">
        <ele>82.4</ele>
        <time>2020-06-18T06:53:16Z</time>
      </trkpt>
      <trkpt lat="49.71852" lon="0.2733">
        <ele>82.1</ele>
        <time>2020-06-18T06:53:17Z</time>
      </trkpt>
      <trkpt lat="49.71856" lon="0.27342">
        <ele>82</ele>
        <time>2020-06-18T06:53:18Z</time>
      </trkpt>
      <trkpt lat="49.7186" lon="0.27354">
        <ele>81.8</ele>
        <time>2020-06-18T06:53:19Z</time>
      </trkpt>
      <trkpt lat="49.71864" lon="0.27365">
        <ele>81.5</ele>
        <time>2020-06-18T06:53:20Z</time>
      </trkpt>
      <trkpt lat="49.71868" lon="0.27377">
        <ele>81.2</ele>
        <time>2020-06-18T06:53:21Z</time>
      </trkpt>
      <trkpt lat="49.71871" lon="0.27389">
        <ele>81</ele>
        <time>2020-06-18T06:53:22Z</time>
      </trkpt>
      <trkpt lat="49.71874" lon="0.274">
        <ele>80.8</ele>
        <time>2020-06-18T06:53:23Z</time>
      </trkpt>
      <trkpt lat="49.71877" lon="0.27412">
        <ele>80.7</ele>
        <time>2020-06-18T06:53:24Z</time>
      </trkpt>
      <trkpt lat="49.7188" lon="0.27423">
        <ele>80.6</ele>
        <time>2020-06-18T06:53:25Z</time>
      </trkpt>
      <trkpt lat="49.71882" lon="0.27434">
        <ele>80.5</ele>
        <time>2020-06-18T06:53:26Z</time>
      </trkpt>
      <trkpt lat="49.71885" lon="0.27445">
        <ele>80.4</ele>
        <time>2020-06-18T06:53:27Z</time>
      </trkpt>
      <trkpt lat="49.71887" lon="0.27456">
        <ele>80.3</ele>
        <time>2020-06-18T06:53:28Z</time>
      </trkpt>
      <trkpt lat="49.71889" lon="0.27468">
        <ele>80.4</ele>
        <time>2020-06-18T06:53:29Z</time>
      </trkpt>
      <trkpt lat="49.7189" lon="0.27479">
        <ele>80.5</ele>
        <time>2020-06-18T06:53:30Z</time>
      </trkpt>
      <trkpt lat="49.71891" lon="0.27489">
        <ele>80.6</ele>
        <time>2020-06-18T06:53:31Z</time>
      </trkpt>
      <trkpt lat="49.71891" lon="0.275">
        <ele>80.8</ele>
        <time>2020-06-18T06:53:32Z</time>
      </trkpt>
      <trkpt lat="49.71892" lon="0.27511">
        <ele>80.9</ele>
        <time>2020-06-18T06:53:33Z</time>
      </trkpt>
      <trkpt lat="49.71892" lon="0.27522">
        <ele>81.1</ele>
        <time>2020-06-18T06:53:34Z</time>
      </trkpt>
      <trkpt lat="49.71892" lon="0.27532">
        <ele>81.2</ele>
        <time>2020-06-18T06:53:35Z</time>
      </trkpt>
      <trkpt lat="49.71892" lon="0.27542">
        <ele>81.4</ele>
        <time>2020-06-18T06:53:36Z</time>
      </trkpt>
      <trkpt lat="49.71892" lon="0.27552">
        <ele>81.5</ele>
        <time>2020-06-18T06:53:37Z</time>
      </trkpt>
      <trkpt lat="49.71891" lon="0.27563">
        <ele>81.7</ele>
        <time>2020-06-18T06:53:38Z</time>
      </trkpt>
      <trkpt lat="49.7189" lon="0.27573">
        <ele>81.9</ele>
        <time>2020-06-18T06:53:39Z</time>
      </trkpt>
      <trkpt lat="49.71889" lon="0.27583">
        <ele>82.2</ele>
        <time>2020-06-18T06:53:40Z</time>
      </trkpt>
      <trkpt lat="49.71888" lon="0.27594">
        <ele>82.4</ele>
        <time>2020-06-18T06:53:41Z</time>
      </trkpt>
      <trkpt lat="49.71886" lon="0.27604">
        <ele>82.6</ele>
        <time>2020-06-18T06:53:42Z</time>
      </trkpt>
      <trkpt lat="49.71885" lon="0.27614">
        <ele>82.8</ele>
        <time>2020-06-18T06:53:43Z</time>
      </trkpt>
      <trkpt lat="49.71884" lon="0.27623">
        <ele>83</ele>
        <time>2020-06-18T06:53:44Z</time>
      </trkpt>
      <trkpt lat="49.71882" lon="0.27632">
        <ele>83.2</ele>
        <time>2020-06-18T06:53:45Z</time>
      </trkpt>
      <trkpt lat="49.71881" lon="0.27641">
        <ele>83.4</ele>
        <time>2020-06-18T06:53:46Z</time>
      </trkpt>
      <trkpt lat="49.7188" lon="0.2765">
        <ele>83.6</ele>
        <time>2020-06-18T06:53:47Z</time>
      </trkpt>
      <trkpt lat="49.7188" lon="0.2766">
        <ele>83.8</ele>
        <time>2020-06-18T06:53:48Z</time>
      </trkpt>
      <trkpt lat="49.71879" lon="0.27671">
        <ele>84</ele>
        <time>2020-06-18T06:53:49Z</time>
      </trkpt>
      <trkpt lat="49.71879" lon="0.2768">
        <ele>84.3</ele>
        <time>2020-06-18T06:53:50Z</time>
      </trkpt>
      <trkpt lat="49.7188" lon="0.2769">
        <ele>84.5</ele>
        <time>2020-06-18T06:53:51Z</time>
      </trkpt>
      <trkpt lat="49.71881" lon="0.27699">
        <ele>84.8</ele>
        <time>2020-06-18T06:53:52Z</time>
      </trkpt>
      <trkpt lat="49.71881" lon="0.27708">
        <ele>85</ele>
        <time>2020-06-18T06:53:53Z</time>
      </trkpt>
      <trkpt lat="49.71882" lon="0.27716">
        <ele>85.2</ele>
        <time>2020-06-18T06:53:54Z</time>
      </trkpt>
      <trkpt lat="49.71883" lon="0.27724">
        <ele>85.4</ele>
        <time>2020-06-18T06:53:55Z</time>
      </trkpt>
      <trkpt lat="49.71885" lon="0.27732">
        <ele>85.5</ele>
        <time>2020-06-18T06:53:56Z</time>
      </trkpt>
      <trkpt lat="49.71886" lon="0.27738">
        <ele>85.7</ele>
        <time>2020-06-18T06:53:57Z</time>
      </trkpt>
      <trkpt lat="49.71888" lon="0.27745">
        <ele>85.9</ele>
        <time>2020-06-18T06:53:58Z</time>
      </trkpt>
      <trkpt lat="49.7189" lon="0.27753">
        <ele>86.1</ele>
        <time>2020-06-18T06:53:59Z</time>
      </trkpt>
      <trkpt lat="49.71892" lon="0.27759">
        <ele>86.2</ele>
        <time>2020-06-18T06:54:00Z</time>
      </trkpt>
      <trkpt lat="49.71895" lon="0.27765">
        <ele>86.4</ele>
        <time>2020-06-18T06:54:01Z</time>
      </trkpt>
      <trkpt lat="49.71897" lon="0.27772">
        <ele>86.6</ele>
        <time>2020-06-18T06:54:02Z</time>
      </trkpt>
      <trkpt lat="49.719" lon="0.27779">
        <ele>86.8</ele>
        <time>2020-06-18T06:54:03Z</time>
      </trkpt>
      <trkpt lat="49.71904" lon="0.27785">
        <ele>87</ele>
        <time>2020-06-18T06:54:04Z</time>
      </trkpt>
      <trkpt lat="49.71908" lon="0.2779">
        <ele>87.2</ele>
        <time>2020-06-18T06:54:05Z</time>
      </trkpt>
      <trkpt lat="49.71911" lon="0.27795">
        <ele>87.4</ele>
        <time>2020-06-18T06:54:06Z</time>
      </trkpt>
      <trkpt lat="49.71915" lon="0.278">
        <ele>87.5</ele>
        <time>2020-06-18T06:54:07Z</time>
      </trkpt>
      <trkpt lat="49.71919" lon="0.27805">
        <ele>87.7</ele>
        <time>2020-06-18T06:54:08Z</time>
      </trkpt>
      <trkpt lat="49.71923" lon="0.2781">
        <ele>87.8</ele>
        <time>2020-06-18T06:54:09Z</time>
      </trkpt>
      <trkpt lat="49.71927" lon="0.27813">
        <ele>88</ele>
        <time>2020-06-18T06:54:10Z</time>
      </trkpt>
      <trkpt lat="49.71932" lon="0.27817">
        <ele>88.1</ele>
        <time>2020-06-18T06:54:11Z</time>
      </trkpt>
      <trkpt lat="49.71936" lon="0.27821">
        <ele>88.2</ele>
        <time>2020-06-18T06:54:12Z</time>
      </trkpt>
      <trkpt lat="49.71941" lon="0.27824">
        <ele>88.4</ele>
        <time>2020-06-18T06:54:13Z</time>
      </trkpt>
      <trkpt lat="49.71945" lon="0.27828">
        <ele>88.5</ele>
        <time>2020-06-18T06:54:14Z</time>
      </trkpt>
      <trkpt lat="49.7195" lon="0.27832">
        <ele>88.7</ele>
        <time>2020-06-18T06:54:15Z</time>
      </trkpt>
      <trkpt lat="49.71954" lon="0.27835">
        <ele>88.8</ele>
        <time>2020-06-18T06:54:16Z</time>
      </trkpt>
      <trkpt lat="49.71959" lon="0.27839">
        <ele>88.9</ele>
        <time>2020-06-18T06:54:17Z</time>
      </trkpt>
      <trkpt lat="49.71964" lon="0.27842">
        <ele>89</ele>
        <time>2020-06-18T06:54:18Z</time>
      </trkpt>
      <trkpt lat="49.71968" lon="0.27846">
        <ele>89.1</ele>
        <time>2020-06-18T06:54:19Z</time>
      </trkpt>
      <trkpt lat="49.71973" lon="0.2785">
        <ele>89.3</ele>
        <time>2020-06-18T06:54:20Z</time>
      </trkpt>
      <trkpt lat="49.71978" lon="0.27854">
        <ele>89.4</ele>
        <time>2020-06-18T06:54:21Z</time>
      </trkpt>
      <trkpt lat="49.71984" lon="0.27858">
        <ele>89.6</ele>
        <time>2020-06-18T06:54:22Z</time>
      </trkpt>
      <trkpt lat="49.71988" lon="0.27862">
        <ele>89.7</ele>
        <time>2020-06-18T06:54:23Z</time>
      </trkpt>
      <trkpt lat="49.71993" lon="0.27866">
        <ele>89.8</ele>
        <time>2020-06-18T06:54:24Z</time>
      </trkpt>
      <trkpt lat="49.71998" lon="0.2787">
        <ele>90</ele>
        <time>2020-06-18T06:54:25Z</time>
      </trkpt>
      <trkpt lat="49.72003" lon="0.27874">
        <ele>90.1</ele>
        <time>2020-06-18T06:54:26Z</time>
      </trkpt>
      <trkpt lat="49.72008" lon="0.27878">
        <ele>90.2</ele>
        <time>2020-06-18T06:54:27Z</time>
      </trkpt>
      <trkpt lat="49.72013" lon="0.27882">
        <ele>90.3</ele>
        <time>2020-06-18T06:54:28Z</time>
      </trkpt>
      <trkpt lat="49.72017" lon="0.27886">
        <ele>90.4</ele>
        <time>2020-06-18T06:54:29Z</time>
      </trkpt>
      <trkpt lat="49.72022" lon="0.27889">
        <ele>90.5</ele>
        <time>2020-06-18T06:54:30Z</time>
      </trkpt>
      <trkpt lat="49.72027" lon="0.27893">
        <ele>90.6</ele>
        <time>2020-06-18T06:54:31Z</time>
      </trkpt>
      <trkpt lat="49.72032" lon="0.27898">
        <ele>90.7</ele>
        <time>2020-06-18T06:54:32Z</time>
      </trkpt>
      <trkpt lat="49.72037" lon="0.27902">
        <ele>90.8</ele>
        <time>2020-06-18T06:54:33Z</time>
      </trkpt>
      <trkpt lat="49.72042" lon="0.27905">
        <ele>90.9</ele>
        <time>2020-06-18T06:54:34Z</time>
      </trkpt>
      <trkpt lat="49.72047" lon="0.27909">
        <ele>91</ele>
        <time>2020-06-18T06:54:35Z</time>
      </trkpt>
      <trkpt lat="49.72052" lon="0.27912">
        <ele>91.1</ele>
        <time>2020-06-18T06:54:36Z</time>
      </trkpt>
      <trkpt lat="49.72056" lon="0.27915">
        <ele>91.1</ele>
        <time>2020-06-18T06:54:37Z</time>
      </trkpt>
      <trkpt lat="49.72061" lon="0.27918">
        <ele>91.2</ele>
        <time>2020-06-18T06:54:38Z</time>
      </trkpt>
      <trkpt lat="49.72067" lon="0.27921">
        <ele>91.3</ele>
        <time>2020-06-18T06:54:39Z</time>
      </trkpt>
      <trkpt lat="49.72072" lon="0.27926">
        <ele>91.3</ele>
        <time>2020-06-18T06:54:40Z</time>
      </trkpt>
      <trkpt lat="49.72077" lon="0.27931">
        <ele>91.4</ele>
        <time>2020-06-18T06:54:41Z</time>
      </trkpt>
      <trkpt lat="49.72082" lon="0.27935">
        <ele>91.4</ele>
        <time>2020-06-18T06:54:42Z</time>
      </trkpt>
      <trkpt lat="49.72087" lon="0.27939">
        <ele>91.4</ele>
        <time>2020-06-18T06:54:43Z</time>
      </trkpt>
      <trkpt lat="49.72092" lon="0.27943">
        <ele>91.4</ele>
        <time>2020-06-18T06:54:44Z</time>
      </trkpt>
      <trkpt lat="49.72097" lon="0.27947">
        <ele>91.4</ele>
        <time>2020-06-18T06:54:45Z</time>
      </trkpt>
      <trkpt lat="49.72101" lon="0.27951">
        <ele>91.4</ele>
        <time>2020-06-18T06:54:46Z</time>
      </trkpt>
      <trkpt lat="49.72106" lon="0.27955">
        <ele>91.4</ele>
        <time>2020-06-18T06:54:47Z</time>
      </trkpt>
      <trkpt lat="49.72111" lon="0.2796">
        <ele>91.3</ele>
        <time>2020-06-18T06:54:48Z</time>
      </trkpt>
      <trkpt lat="49.72116" lon="0.27964">
        <ele>91.3</ele>
        <time>2020-06-18T06:54:49Z</time>
      </trkpt>
      <trkpt lat="49.7212" lon="0.27968">
        <ele>91.3</ele>
        <time>2020-06-18T06:54:50Z</time>
      </trkpt>
      <trkpt lat="49.72125" lon="0.27972">
        <ele>91.2</ele>
        <time>2020-06-18T06:54:51Z</time>
      </trkpt>
      <trkpt lat="49.7213" lon="0.27975">
        <ele>91.2</ele>
        <time>2020-06-18T06:54:52Z</time>
      </trkpt>
      <trkpt lat="49.72136" lon="0.2798">
        <ele>91.1</ele>
        <time>2020-06-18T06:54:53Z</time>
      </trkpt>
      <trkpt lat="49.72142" lon="0.27984">
        <ele>91</ele>
        <time>2020-06-18T06:54:54Z</time>
      </trkpt>
      <trkpt lat="49.72147" lon="0.2799">
        <ele>91</ele>
        <time>2020-06-18T06:54:55Z</time>
      </trkpt>
      <trkpt lat="49.72152" lon="0.27995">
        <ele>91</ele>
        <time>2020-06-18T06:54:56Z</time>
      </trkpt>
      <trkpt lat="49.72158" lon="0.28">
        <ele>91</ele>
        <time>2020-06-18T06:54:57Z</time>
      </trkpt>
      <trkpt lat="49.72162" lon="0.28004">
        <ele>91</ele>
        <time>2020-06-18T06:54:58Z</time>
      </trkpt>
      <trkpt lat="49.72167" lon="0.28007">
        <ele>91</ele>
        <time>2020-06-18T06:54:59Z</time>
      </trkpt>
      <trkpt lat="49.72172" lon="0.2801">
        <ele>91.1</ele>
        <time>2020-06-18T06:55:00Z</time>
      </trkpt>
      <trkpt lat="49.72175" lon="0.28013">
        <ele>91.1</ele>
        <time>2020-06-18T06:55:01Z</time>
      </trkpt>
      <trkpt lat="49.72178" lon="0.28015">
        <ele>91.1</ele>
        <time>2020-06-18T06:55:02Z</time>
      </trkpt>
      <trkpt lat="49.7218" lon="0.28019">
        <ele>91</ele>
        <time>2020-06-18T06:55:03Z</time>
      </trkpt>
      <trkpt lat="49.7218" lon="0.28021">
        <ele>91</ele>
        <time>2020-06-18T06:55:04Z</time>
      </trkpt>
      <trkpt lat="49.7218" lon="0.28026">
        <ele>91</ele>
        <time>2020-06-18T06:55:05Z</time>
      </trkpt>
      <trkpt lat="49.72179" lon="0.28031">
        <ele>91</ele>
        <time>2020-06-18T06:55:06Z</time>
      </trkpt>
      <trkpt lat="49.72176" lon="0.28036">
        <ele>91</ele>
        <time>2020-06-18T06:55:07Z</time>
      </trkpt>
      <trkpt lat="49.72174" lon="0.28043">
        <ele>91.1</ele>
        <time>2020-06-18T06:55:08Z</time>
      </trkpt>
      <trkpt lat="49.72171" lon="0.28048">
        <ele>91.1</ele>
        <time>2020-06-18T06:55:09Z</time>
      </trkpt>
      <trkpt lat="49.72169" lon="0.28053">
        <ele>91.2</ele>
        <time>2020-06-18T06:55:10Z</time>
      </trkpt>
      <trkpt lat="49.72166" lon="0.28059">
        <ele>91.3</ele>
        <time>2020-06-18T06:55:11Z</time>
      </trkpt>
      <trkpt lat="49.72163" lon="0.28064">
        <ele>91.4</ele>
        <time>2020-06-18T06:55:12Z</time>
      </trkpt>
      <trkpt lat="49.7216" lon="0.28069">
        <ele>91.6</ele>
        <time>2020-06-18T06:55:13Z</time>
      </trkpt>
      <trkpt lat="49.72157" lon="0.28074">
        <ele>91.7</ele>
        <time>2020-06-18T06:55:14Z</time>
      </trkpt>
      <trkpt lat="49.72153" lon="0.28078">
        <ele>91.9</ele>
        <time>2020-06-18T06:55:15Z</time>
      </trkpt>
      <trkpt lat="49.7215" lon="0.28083">
        <ele>92</ele>
        <time>2020-06-18T06:55:16Z</time>
      </trkpt>
      <trkpt lat="49.72148" lon="0.28086">
        <ele>92.2</ele>
        <time>2020-06-18T06:55:17Z</time>
      </trkpt>
      <trkpt lat="49.72145" lon="0.28089">
        <ele>92.3</ele>
        <time>2020-06-18T06:55:18Z</time>
      </trkpt>
      <trkpt lat="49.72143" lon="0.28092">
        <ele>92.4</ele>
        <time>2020-06-18T06:55:19Z</time>
      </trkpt>
      <trkpt lat="49.7214" lon="0.28096">
        <ele>92.5</ele>
        <time>2020-06-18T06:55:20Z</time>
      </trkpt>
      <trkpt lat="49.72135" lon="0.28099">
        <ele>92.7</ele>
        <time>2020-06-18T06:55:21Z</time>
      </trkpt>
      <trkpt lat="49.72132" lon="0.28102">
        <ele>92.8</ele>
        <time>2020-06-18T06:55:22Z</time>
      </trkpt>
      <trkpt lat="49.72128" lon="0.28108">
        <ele>93</ele>
        <time>2020-06-18T06:55:23Z</time>
      </trkpt>
      <trkpt lat="49.72125" lon="0.28114">
        <ele>93.2</ele>
        <time>2020-06-18T06:55:24Z</time>
      </trkpt>
      <trkpt lat="49.72122" lon="0.28119">
        <ele>93.4</ele>
        <time>2020-06-18T06:55:25Z</time>
      </trkpt>
      <trkpt lat="49.72119" lon="0.28122">
        <ele>93.5</ele>
        <time>2020-06-18T06:55:26Z</time>
      </trkpt>
      <trkpt lat="49.72116" lon="0.28126">
        <ele>93.7</ele>
        <time>2020-06-18T06:55:27Z</time>
      </trkpt>
      <trkpt lat="49.72113" lon="0.2813">
        <ele>93.8</ele>
        <time>2020-06-18T06:55:28Z</time>
      </trkpt>
      <trkpt lat="49.7211" lon="0.28133">
        <ele>93.9</ele>
        <time>2020-06-18T06:55:29Z</time>
      </trkpt>
      <trkpt lat="49.72107" lon="0.28136">
        <ele>94</ele>
        <time>2020-06-18T06:55:30Z</time>
      </trkpt>
      <trkpt lat="49.72104" lon="0.28139">
        <ele>94.2</ele>
        <time>2020-06-18T06:55:31Z</time>
      </trkpt>
      <trkpt lat="49.721" lon="0.28144">
        <ele>94.3</ele>
        <time>2020-06-18T06:55:32Z</time>
      </trkpt>
      <trkpt lat="49.72097" lon="0.28148">
        <ele>94.4</ele>
        <time>2020-06-18T06:55:33Z</time>
      </trkpt>
      <trkpt lat="49.72094" lon="0.28153">
        <ele>94.5</ele>
        <time>2020-06-18T06:55:34Z</time>
      </trkpt>
      <trkpt lat="49.7209" lon="0.28158">
        <ele>94.6</ele>
        <time>2020-06-18T06:55:35Z</time>
      </trkpt>
      <trkpt lat="49.72086" lon="0.28162">
        <ele>94.6</ele>
        <time>2020-06-18T06:55:36Z</time>
      </trkpt>
      <trkpt lat="49.72082" lon="0.28166">
        <ele>94.6</ele>
        <time>2020-06-18T06:55:37Z</time>
      </trkpt>
      <trkpt lat="49.72078" lon="0.28172">
        <ele>94.7</ele>
        <time>2020-06-18T06:55:38Z</time>
      </trkpt>
      <trkpt lat="49.72073" lon="0.28179">
        <ele>94.7</ele>
        <time>2020-06-18T06:55:39Z</time>
      </trkpt>
      <trkpt lat="49.72069" lon="0.28185">
        <ele>94.8</ele>
        <time>2020-06-18T06:55:40Z</time>
      </trkpt>
      <trkpt lat="49.72064" lon="0.28189">
        <ele>94.9</ele>
        <time>2020-06-18T06:55:41Z</time>
      </trkpt>
      <trkpt lat="49.72059" lon="0.28194">
        <ele>95</ele>
        <time>2020-06-18T06:55:42Z</time>
      </trkpt>
      <trkpt lat="49.72054" lon="0.28199">
        <ele>95.1</ele>
        <time>2020-06-18T06:55:43Z</time>
      </trkpt>
      <trkpt lat="49.7205" lon="0.28203">
        <ele>95.1</ele>
        <time>2020-06-18T06:55:44Z</time>
      </trkpt>
      <trkpt lat="49.72044" lon="0.28207">
        <ele>95.1</ele>
        <time>2020-06-18T06:55:45Z</time>
      </trkpt>
      <trkpt lat="49.72039" lon="0.28211">
        <ele>95.1</ele>
        <time>2020-06-18T06:55:46Z</time>
      </trkpt>
      <trkpt lat="49.72034" lon="0.28215">
        <ele>95.2</ele>
        <time>2020-06-18T06:55:47Z</time>
      </trkpt>
      <trkpt lat="49.72029" lon="0.28221">
        <ele>95.2</ele>
        <time>2020-06-18T06:55:48Z</time>
      </trkpt>
      <trkpt lat="49.72025" lon="0.28225">
        <ele>95.2</ele>
        <time>2020-06-18T06:55:49Z</time>
      </trkpt>
      <trkpt lat="49.7202" lon="0.28229">
        <ele>95.3</ele>
        <time>2020-06-18T06:55:50Z</time>
      </trkpt>
      <trkpt lat="49.72015" lon="0.28234">
        <ele>95.3</ele>
        <time>2020-06-18T06:55:51Z</time>
      </trkpt>
      <trkpt lat="49.72009" lon="0.28238">
        <ele>95.4</ele>
        <time>2020-06-18T06:55:52Z</time>
      </trkpt>
      <trkpt lat="49.72005" lon="0.28242">
        <ele>95.4</ele>
        <time>2020-06-18T06:55:53Z</time>
      </trkpt>
      <trkpt lat="49.72" lon="0.28246">
        <ele>95.5</ele>
        <time>2020-06-18T06:55:54Z</time>
      </trkpt>
      <trkpt lat="49.71995" lon="0.28251">
        <ele>95.6</ele>
        <time>2020-06-18T06:55:55Z</time>
      </trkpt>
      <trkpt lat="49.71989" lon="0.28256">
        <ele>95.6</ele>
        <time>2020-06-18T06:55:56Z</time>
      </trkpt>
      <trkpt lat="49.71984" lon="0.2826">
        <ele>95.7</ele>
        <time>2020-06-18T06:55:57Z</time>
      </trkpt>
      <trkpt lat="49.7198" lon="0.28264">
        <ele>95.8</ele>
        <time>2020-06-18T06:55:58Z</time>
      </trkpt>
      <trkpt lat="49.71975" lon="0.28267">
        <ele>95.9</ele>
        <time>2020-06-18T06:55:59Z</time>
      </trkpt>
      <trkpt lat="49.71971" lon="0.28271">
        <ele>95.9</ele>
        <time>2020-06-18T06:56:00Z</time>
      </trkpt>
      <trkpt lat="49.71966" lon="0.28275">
        <ele>96</ele>
        <time>2020-06-18T06:56:01Z</time>
      </trkpt>
      <trkpt lat="49.71962" lon="0.28279">
        <ele>96.1</ele>
        <time>2020-06-18T06:56:02Z</time>
      </trkpt>
      <trkpt lat="49.71957" lon="0.28282">
        <ele>96.2</ele>
        <time>2020-06-18T06:56:03Z</time>
      </trkpt>
      <trkpt lat="49.71952" lon="0.28287">
        <ele>96.3</ele>
        <time>2020-06-18T06:56:04Z</time>
      </trkpt>
      <trkpt lat="49.71947" lon="0.2829">
        <ele>96.4</ele>
        <time>2020-06-18T06:56:05Z</time>
      </trkpt>
      <trkpt lat="49.71942" lon="0.28293">
        <ele>96.5</ele>
        <time>2020-06-18T06:56:06Z</time>
      </trkpt>
      <trkpt lat="49.71938" lon="0.28296">
        <ele>96.5</ele>
        <time>2020-06-18T06:56:07Z</time>
      </trkpt>
      <trkpt lat="49.71935" lon="0.28299">
        <ele>96.6</ele>
        <time>2020-06-18T06:56:08Z</time>
      </trkpt>
      <trkpt lat="49.71931" lon="0.28302">
        <ele>96.7</ele>
        <time>2020-06-18T06:56:09Z</time>
      </trkpt>
      <trkpt lat="49.71926" lon="0.28304">
        <ele>96.7</ele>
        <time>2020-06-18T06:56:10Z</time>
      </trkpt>
      <trkpt lat="49.71922" lon="0.28308">
        <ele>96.7</ele>
        <time>2020-06-18T06:56:11Z</time>
      </trkpt>
      <trkpt lat="49.71917" lon="0.28312">
        <ele>96.8</ele>
        <time>2020-06-18T06:56:12Z</time>
      </trkpt>
      <trkpt lat="49.71911" lon="0.28315">
        <ele>96.8</ele>
        <time>2020-06-18T06:56:13Z</time>
      </trkpt>
      <trkpt lat="49.71907" lon="0.2832">
        <ele>96.8</ele>
        <time>2020-06-18T06:56:14Z</time>
      </trkpt>
      <trkpt lat="49.71902" lon="0.28325">
        <ele>96.8</ele>
        <time>2020-06-18T06:56:15Z</time>
      </trkpt>
      <trkpt lat="49.71896" lon="0.28329">
        <ele>96.8</ele>
        <time>2020-06-18T06:56:16Z</time>
      </trkpt>
      <trkpt lat="49.7189" lon="0.28334">
        <ele>96.8</ele>
        <time>2020-06-18T06:56:17Z</time>
      </trkpt>
      <trkpt lat="49.71885" lon="0.28339">
        <ele>96.7</ele>
        <time>2020-06-18T06:56:18Z</time>
      </trkpt>
      <trkpt lat="49.7188" lon="0.28344">
        <ele>96.7</ele>
        <time>2020-06-18T06:56:19Z</time>
      </trkpt>
      <trkpt lat="49.71875" lon="0.28348">
        <ele>96.7</ele>
        <time>2020-06-18T06:56:20Z</time>
      </trkpt>
      <trkpt lat="49.7187" lon="0.28353">
        <ele>96.7</ele>
        <time>2020-06-18T06:56:21Z</time>
      </trkpt>
      <trkpt lat="49.71865" lon="0.28358">
        <ele>96.7</ele>
        <time>2020-06-18T06:56:22Z</time>
      </trkpt>
      <trkpt lat="49.7186" lon="0.28363">
        <ele>96.7</ele>
        <time>2020-06-18T06:56:23Z</time>
      </trkpt>
      <trkpt lat="49.71856" lon="0.28367">
        <ele>96.7</ele>
        <time>2020-06-18T06:56:24Z</time>
      </trkpt>
      <trkpt lat="49.71851" lon="0.28371">
        <ele>96.7</ele>
        <time>2020-06-18T06:56:25Z</time>
      </trkpt>
      <trkpt lat="49.71846" lon="0.28377">
        <ele>96.7</ele>
        <time>2020-06-18T06:56:26Z</time>
      </trkpt>
      <trkpt lat="49.71842" lon="0.28381">
        <ele>96.7</ele>
        <time>2020-06-18T06:56:27Z</time>
      </trkpt>
      <trkpt lat="49.71838" lon="0.28387">
        <ele>96.7</ele>
        <time>2020-06-18T06:56:28Z</time>
      </trkpt>
      <trkpt lat="49.71833" lon="0.28392">
        <ele>96.6</ele>
        <time>2020-06-18T06:56:29Z</time>
      </trkpt>
      <trkpt lat="49.71828" lon="0.28398">
        <ele>96.6</ele>
        <time>2020-06-18T06:56:30Z</time>
      </trkpt>
      <trkpt lat="49.71825" lon="0.28404">
        <ele>96.6</ele>
        <time>2020-06-18T06:56:31Z</time>
      </trkpt>
      <trkpt lat="49.71821" lon="0.28409">
        <ele>96.6</ele>
        <time>2020-06-18T06:56:32Z</time>
      </trkpt>
      <trkpt lat="49.71816" lon="0.28415">
        <ele>96.5</ele>
        <time>2020-06-18T06:56:33Z</time>
      </trkpt>
      <trkpt lat="49.71812" lon="0.28421">
        <ele>96.5</ele>
        <time>2020-06-18T06:56:34Z</time>
      </trkpt>
      <trkpt lat="49.71809" lon="0.28428">
        <ele>96.5</ele>
        <time>2020-06-18T06:56:35Z</time>
      </trkpt>
      <trkpt lat="49.71805" lon="0.28434">
        <ele>96.5</ele>
        <time>2020-06-18T06:56:36Z</time>
      </trkpt>
      <trkpt lat="49.71803" lon="0.28439">
        <ele>96.5</ele>
        <time>2020-06-18T06:56:37Z</time>
      </trkpt>
      <trkpt lat="49.718" lon="0.28446">
        <ele>96.5</ele>
        <time>2020-06-18T06:56:38Z</time>
      </trkpt>
      <trkpt lat="49.71796" lon="0.28452">
        <ele>96.5</ele>
        <time>2020-06-18T06:56:39Z</time>
      </trkpt>
      <trkpt lat="49.71793" lon="0.2846">
        <ele>96.5</ele>
        <time>2020-06-18T06:56:40Z</time>
      </trkpt>
      <trkpt lat="49.7179" lon="0.28468">
        <ele>96.5</ele>
        <time>2020-06-18T06:56:41Z</time>
      </trkpt>
      <trkpt lat="49.71787" lon="0.28477">
        <ele>96.6</ele>
        <time>2020-06-18T06:56:42Z</time>
      </trkpt>
      <trkpt lat="49.71785" lon="0.28484">
        <ele>96.5</ele>
        <time>2020-06-18T06:56:43Z</time>
      </trkpt>
      <trkpt lat="49.71782" lon="0.28493">
        <ele>96.5</ele>
        <time>2020-06-18T06:56:44Z</time>
      </trkpt>
      <trkpt lat="49.71779" lon="0.28501">
        <ele>96.5</ele>
        <time>2020-06-18T06:56:45Z</time>
      </trkpt>
      <trkpt lat="49.71776" lon="0.28509">
        <ele>96.4</ele>
        <time>2020-06-18T06:56:46Z</time>
      </trkpt>
      <trkpt lat="49.71773" lon="0.28517">
        <ele>96.3</ele>
        <time>2020-06-18T06:56:47Z</time>
      </trkpt>
      <trkpt lat="49.7177" lon="0.28525">
        <ele>96.2</ele>
        <time>2020-06-18T06:56:48Z</time>
      </trkpt>
      <trkpt lat="49.71767" lon="0.28532">
        <ele>96.1</ele>
        <time>2020-06-18T06:56:49Z</time>
      </trkpt>
      <trkpt lat="49.71764" lon="0.28538">
        <ele>96</ele>
        <time>2020-06-18T06:56:50Z</time>
      </trkpt>
      <trkpt lat="49.71761" lon="0.28545">
        <ele>95.8</ele>
        <time>2020-06-18T06:56:51Z</time>
      </trkpt>
      <trkpt lat="49.7176" lon="0.28552">
        <ele>95.7</ele>
        <time>2020-06-18T06:56:52Z</time>
      </trkpt>
      <trkpt lat="49.71758" lon="0.28559">
        <ele>95.5</ele>
        <time>2020-06-18T06:56:53Z</time>
      </trkpt>
      <trkpt lat="49.71756" lon="0.28566">
        <ele>95.3</ele>
        <time>2020-06-18T06:56:54Z</time>
      </trkpt>
      <trkpt lat="49.71753" lon="0.28571">
        <ele>95.2</ele>
        <time>2020-06-18T06:56:55Z</time>
      </trkpt>
      <trkpt lat="49.7175" lon="0.28578">
        <ele>94.9</ele>
        <time>2020-06-18T06:56:56Z</time>
      </trkpt>
      <trkpt lat="49.71747" lon="0.28585">
        <ele>94.7</ele>
        <time>2020-06-18T06:56:57Z</time>
      </trkpt>
      <trkpt lat="49.71743" lon="0.28593">
        <ele>94.4</ele>
        <time>2020-06-18T06:56:58Z</time>
      </trkpt>
      <trkpt lat="49.7174" lon="0.28599">
        <ele>94.1</ele>
        <time>2020-06-18T06:56:59Z</time>
      </trkpt>
      <trkpt lat="49.71736" lon="0.28606">
        <ele>93.9</ele>
        <time>2020-06-18T06:57:00Z</time>
      </trkpt>
      <trkpt lat="49.71732" lon="0.28613">
        <ele>93.6</ele>
        <time>2020-06-18T06:57:01Z</time>
      </trkpt>
      <trkpt lat="49.71728" lon="0.28621">
        <ele>93.3</ele>
        <time>2020-06-18T06:57:02Z</time>
      </trkpt>
      <trkpt lat="49.71723" lon="0.28631">
        <ele>92.9</ele>
        <time>2020-06-18T06:57:03Z</time>
      </trkpt>
      <trkpt lat="49.71719" lon="0.28643">
        <ele>92.7</ele>
        <time>2020-06-18T06:57:04Z</time>
      </trkpt>
      <trkpt lat="49.71714" lon="0.28655">
        <ele>92.1</ele>
        <time>2020-06-18T06:57:05Z</time>
      </trkpt>
      <trkpt lat="49.71709" lon="0.28665">
        <ele>91.5</ele>
        <time>2020-06-18T06:57:06Z</time>
      </trkpt>
      <trkpt lat="49.71704" lon="0.28676">
        <ele>90.8</ele>
        <time>2020-06-18T06:57:07Z</time>
      </trkpt>
      <trkpt lat="49.71698" lon="0.28687">
        <ele>90.2</ele>
        <time>2020-06-18T06:57:08Z</time>
      </trkpt>
      <trkpt lat="49.71692" lon="0.28698">
        <ele>89.5</ele>
        <time>2020-06-18T06:57:09Z</time>
      </trkpt>
      <trkpt lat="49.71687" lon="0.28708">
        <ele>88.9</ele>
        <time>2020-06-18T06:57:10Z</time>
      </trkpt>
      <trkpt lat="49.71681" lon="0.28718">
        <ele>88.3</ele>
        <time>2020-06-18T06:57:11Z</time>
      </trkpt>
      <trkpt lat="49.71676" lon="0.28728">
        <ele>87.8</ele>
        <time>2020-06-18T06:57:12Z</time>
      </trkpt>
      <trkpt lat="49.7167" lon="0.28737">
        <ele>87.1</ele>
        <time>2020-06-18T06:57:13Z</time>
      </trkpt>
      <trkpt lat="49.71663" lon="0.28747">
        <ele>86.5</ele>
        <time>2020-06-18T06:57:14Z</time>
      </trkpt>
      <trkpt lat="49.71657" lon="0.28757">
        <ele>85.9</ele>
        <time>2020-06-18T06:57:15Z</time>
      </trkpt>
      <trkpt lat="49.71651" lon="0.28767">
        <ele>85.3</ele>
        <time>2020-06-18T06:57:16Z</time>
      </trkpt>
      <trkpt lat="49.71645" lon="0.28776">
        <ele>84.8</ele>
        <time>2020-06-18T06:57:17Z</time>
      </trkpt>
      <trkpt lat="49.71639" lon="0.28786">
        <ele>84.4</ele>
        <time>2020-06-18T06:57:18Z</time>
      </trkpt>
      <trkpt lat="49.71633" lon="0.28796">
        <ele>84.1</ele>
        <time>2020-06-18T06:57:19Z</time>
      </trkpt>
      <trkpt lat="49.71629" lon="0.28807">
        <ele>83.9</ele>
        <time>2020-06-18T06:57:20Z</time>
      </trkpt>
      <trkpt lat="49.71625" lon="0.28817">
        <ele>83.7</ele>
        <time>2020-06-18T06:57:21Z</time>
      </trkpt>
      <trkpt lat="49.71622" lon="0.28828">
        <ele>83.6</ele>
        <time>2020-06-18T06:57:22Z</time>
      </trkpt>
      <trkpt lat="49.7162" lon="0.28839">
        <ele>83.6</ele>
        <time>2020-06-18T06:57:23Z</time>
      </trkpt>
      <trkpt lat="49.71618" lon="0.28849">
        <ele>83.6</ele>
        <time>2020-06-18T06:57:24Z</time>
      </trkpt>
      <trkpt lat="49.71616" lon="0.2886">
        <ele>83.6</ele>
        <time>2020-06-18T06:57:25Z</time>
      </trkpt>
      <trkpt lat="49.71615" lon="0.2887">
        <ele>83.6</ele>
        <time>2020-06-18T06:57:26Z</time>
      </trkpt>
      <trkpt lat="49.71613" lon="0.28881">
        <ele>83.7</ele>
        <time>2020-06-18T06:57:27Z</time>
      </trkpt>
      <trkpt lat="49.71611" lon="0.28891">
        <ele>83.8</ele>
        <time>2020-06-18T06:57:28Z</time>
      </trkpt>
      <trkpt lat="49.71609" lon="0.28901">
        <ele>84</ele>
        <time>2020-06-18T06:57:29Z</time>
      </trkpt>
      <trkpt lat="49.71607" lon="0.28911">
        <ele>84.2</ele>
        <time>2020-06-18T06:57:30Z</time>
      </trkpt>
      <trkpt lat="49.71605" lon="0.2892">
        <ele>84.4</ele>
        <time>2020-06-18T06:57:31Z</time>
      </trkpt>
      <trkpt lat="49.71604" lon="0.28929">
        <ele>84.6</ele>
        <time>2020-06-18T06:57:32Z</time>
      </trkpt>
      <trkpt lat="49.71602" lon="0.28938">
        <ele>84.9</ele>
        <time>2020-06-18T06:57:33Z</time>
      </trkpt>
      <trkpt lat="49.71601" lon="0.28949">
        <ele>85.1</ele>
        <time>2020-06-18T06:57:34Z</time>
      </trkpt>
      <trkpt lat="49.71599" lon="0.28958">
        <ele>85.4</ele>
        <time>2020-06-18T06:57:35Z</time>
      </trkpt>
      <trkpt lat="49.71598" lon="0.28967">
        <ele>85.6</ele>
        <time>2020-06-18T06:57:36Z</time>
      </trkpt>
      <trkpt lat="49.71595" lon="0.28976">
        <ele>85.9</ele>
        <time>2020-06-18T06:57:37Z</time>
      </trkpt>
      <trkpt lat="49.71593" lon="0.28984">
        <ele>86.1</ele>
        <time>2020-06-18T06:57:38Z</time>
      </trkpt>
      <trkpt lat="49.71591" lon="0.28992">
        <ele>86.4</ele>
        <time>2020-06-18T06:57:39Z</time>
      </trkpt>
      <trkpt lat="49.71589" lon="0.28999">
        <ele>86.5</ele>
        <time>2020-06-18T06:57:40Z</time>
      </trkpt>
      <trkpt lat="49.71586" lon="0.29006">
        <ele>86.7</ele>
        <time>2020-06-18T06:57:41Z</time>
      </trkpt>
      <trkpt lat="49.71583" lon="0.29014">
        <ele>86.9</ele>
        <time>2020-06-18T06:57:42Z</time>
      </trkpt>
      <trkpt lat="49.71581" lon="0.29023">
        <ele>87.1</ele>
        <time>2020-06-18T06:57:43Z</time>
      </trkpt>
      <trkpt lat="49.71579" lon="0.29031">
        <ele>87.3</ele>
        <time>2020-06-18T06:57:44Z</time>
      </trkpt>
      <trkpt lat="49.71577" lon="0.29038">
        <ele>87.5</ele>
        <time>2020-06-18T06:57:45Z</time>
      </trkpt>
      <trkpt lat="49.71575" lon="0.29045">
        <ele>87.6</ele>
        <time>2020-06-18T06:57:46Z</time>
      </trkpt>
      <trkpt lat="49.71571" lon="0.29052">
        <ele>87.7</ele>
        <time>2020-06-18T06:57:47Z</time>
      </trkpt>
      <trkpt lat="49.71568" lon="0.29058">
        <ele>87.8</ele>
        <time>2020-06-18T06:57:48Z</time>
      </trkpt>
      <trkpt lat="49.71564" lon="0.29065">
        <ele>87.9</ele>
        <time>2020-06-18T06:57:49Z</time>
      </trkpt>
      <trkpt lat="49.7156" lon="0.29072">
        <ele>88</ele>
        <time>2020-06-18T06:57:50Z</time>
      </trkpt>
      <trkpt lat="49.71558" lon="0.29079">
        <ele>88</ele>
        <time>2020-06-18T06:57:51Z</time>
      </trkpt>
      <trkpt lat="49.71554" lon="0.29085">
        <ele>88</ele>
        <time>2020-06-18T06:57:52Z</time>
      </trkpt>
      <trkpt lat="49.7155" lon="0.29092">
        <ele>88</ele>
        <time>2020-06-18T06:57:53Z</time>
      </trkpt>
      <trkpt lat="49.71547" lon="0.29098">
        <ele>87.9</ele>
        <time>2020-06-18T06:57:54Z</time>
      </trkpt>
      <trkpt lat="49.71544" lon="0.29104">
        <ele>87.9</ele>
        <time>2020-06-18T06:57:55Z</time>
      </trkpt>
      <trkpt lat="49.71541" lon="0.29112">
        <ele>87.8</ele>
        <time>2020-06-18T06:57:56Z</time>
      </trkpt>
      <trkpt lat="49.71537" lon="0.2912">
        <ele>87.2</ele>
        <time>2020-06-18T06:57:57Z</time>
      </trkpt>
      <trkpt lat="49.71535" lon="0.29128">
        <ele>86.9</ele>
        <time>2020-06-18T06:57:58Z</time>
      </trkpt>
      <trkpt lat="49.71532" lon="0.29136">
        <ele>86.7</ele>
        <time>2020-06-18T06:57:59Z</time>
      </trkpt>
      <trkpt lat="49.7153" lon="0.29144">
        <ele>86.5</ele>
        <time>2020-06-18T06:58:00Z</time>
      </trkpt>
      <trkpt lat="49.71528" lon="0.29152">
        <ele>86.3</ele>
        <time>2020-06-18T06:58:01Z</time>
      </trkpt>
      <trkpt lat="49.71525" lon="0.2916">
        <ele>86.1</ele>
        <time>2020-06-18T06:58:02Z</time>
      </trkpt>
      <trkpt lat="49.71523" lon="0.2917">
        <ele>86</ele>
        <time>2020-06-18T06:58:03Z</time>
      </trkpt>
      <trkpt lat="49.71521" lon="0.2918">
        <ele>85.8</ele>
        <time>2020-06-18T06:58:04Z</time>
      </trkpt>
      <trkpt lat="49.71518" lon="0.29191">
        <ele>85.6</ele>
        <time>2020-06-18T06:58:05Z</time>
      </trkpt>
      <trkpt lat="49.71516" lon="0.29201">
        <ele>85.5</ele>
        <time>2020-06-18T06:58:06Z</time>
      </trkpt>
      <trkpt lat="49.71515" lon="0.29213">
        <ele>85.2</ele>
        <time>2020-06-18T06:58:07Z</time>
      </trkpt>
      <trkpt lat="49.71513" lon="0.29223">
        <ele>85</ele>
        <time>2020-06-18T06:58:08Z</time>
      </trkpt>
      <trkpt lat="49.7151" lon="0.29234">
        <ele>84.8</ele>
        <time>2020-06-18T06:58:09Z</time>
      </trkpt>
      <trkpt lat="49.71508" lon="0.29245">
        <ele>84.7</ele>
        <time>2020-06-18T06:58:10Z</time>
      </trkpt>
      <trkpt lat="49.71507" lon="0.29254">
        <ele>84.6</ele>
        <time>2020-06-18T06:58:11Z</time>
      </trkpt>
      <trkpt lat="49.71505" lon="0.29263">
        <ele>84.6</ele>
        <time>2020-06-18T06:58:12Z</time>
      </trkpt>
      <trkpt lat="49.71503" lon="0.29274">
        <ele>84.6</ele>
        <time>2020-06-18T06:58:13Z</time>
      </trkpt>
      <trkpt lat="49.71501" lon="0.29283">
        <ele>84.6</ele>
        <time>2020-06-18T06:58:14Z</time>
      </trkpt>
      <trkpt lat="49.71499" lon="0.29293">
        <ele>84.7</ele>
        <time>2020-06-18T06:58:15Z</time>
      </trkpt>
      <trkpt lat="49.71497" lon="0.29302">
        <ele>84.8</ele>
        <time>2020-06-18T06:58:16Z</time>
      </trkpt>
      <trkpt lat="49.71494" lon="0.29311">
        <ele>84.9</ele>
        <time>2020-06-18T06:58:17Z</time>
      </trkpt>
      <trkpt lat="49.71491" lon="0.29319">
        <ele>85.1</ele>
        <time>2020-06-18T06:58:18Z</time>
      </trkpt>
      <trkpt lat="49.71489" lon="0.29328">
        <ele>85.2</ele>
        <time>2020-06-18T06:58:19Z</time>
      </trkpt>
      <trkpt lat="49.71486" lon="0.29335">
        <ele>85.3</ele>
        <time>2020-06-18T06:58:20Z</time>
      </trkpt>
      <trkpt lat="49.71484" lon="0.29343">
        <ele>85.5</ele>
        <time>2020-06-18T06:58:21Z</time>
      </trkpt>
      <trkpt lat="49.7148" lon="0.29349">
        <ele>85.7</ele>
        <time>2020-06-18T06:58:22Z</time>
      </trkpt>
      <trkpt lat="49.71477" lon="0.29357">
        <ele>86</ele>
        <time>2020-06-18T06:58:23Z</time>
      </trkpt>
      <trkpt lat="49.71475" lon="0.29364">
        <ele>86.3</ele>
        <time>2020-06-18T06:58:24Z</time>
      </trkpt>
      <trkpt lat="49.71472" lon="0.2937">
        <ele>86.5</ele>
        <time>2020-06-18T06:58:25Z</time>
      </trkpt>
      <trkpt lat="49.71469" lon="0.29377">
        <ele>86.8</ele>
        <time>2020-06-18T06:58:26Z</time>
      </trkpt>
      <trkpt lat="49.71467" lon="0.29384">
        <ele>87</ele>
        <time>2020-06-18T06:58:27Z</time>
      </trkpt>
      <trkpt lat="49.71465" lon="0.2939">
        <ele>87.2</ele>
        <time>2020-06-18T06:58:28Z</time>
      </trkpt>
      <trkpt lat="49.71462" lon="0.29396">
        <ele>87.4</ele>
        <time>2020-06-18T06:58:29Z</time>
      </trkpt>
      <trkpt lat="49.7146" lon="0.29402">
        <ele>87.6</ele>
        <time>2020-06-18T06:58:30Z</time>
      </trkpt>
      <trkpt lat="49.71457" lon="0.29408">
        <ele>87.8</ele>
        <time>2020-06-18T06:58:31Z</time>
      </trkpt>
      <trkpt lat="49.71454" lon="0.29413">
        <ele>88</ele>
        <time>2020-06-18T06:58:32Z</time>
      </trkpt>
      <trkpt lat="49.71451" lon="0.29418">
        <ele>88.2</ele>
        <time>2020-06-18T06:58:33Z</time>
      </trkpt>
      <trkpt lat="49.71449" lon="0.29424">
        <ele>88.4</ele>
        <time>2020-06-18T06:58:34Z</time>
      </trkpt>
      <trkpt lat="49.71446" lon="0.29429">
        <ele>88.6</ele>
        <time>2020-06-18T06:58:35Z</time>
      </trkpt>
      <trkpt lat="49.71444" lon="0.29434">
        <ele>88.8</ele>
        <time>2020-06-18T06:58:36Z</time>
      </trkpt>
      <trkpt lat="49.71442" lon="0.2944">
        <ele>89</ele>
        <time>2020-06-18T06:58:37Z</time>
      </trkpt>
      <trkpt lat="49.71439" lon="0.29445">
        <ele>89.3</ele>
        <time>2020-06-18T06:58:38Z</time>
      </trkpt>
      <trkpt lat="49.71437" lon="0.29452">
        <ele>89.5</ele>
        <time>2020-06-18T06:58:39Z</time>
      </trkpt>
      <trkpt lat="49.71434" lon="0.29458">
        <ele>89.8</ele>
        <time>2020-06-18T06:58:40Z</time>
      </trkpt>
      <trkpt lat="49.71432" lon="0.29465">
        <ele>90</ele>
        <time>2020-06-18T06:58:41Z</time>
      </trkpt>
      <trkpt lat="49.7143" lon="0.29472">
        <ele>90.3</ele>
        <time>2020-06-18T06:58:42Z</time>
      </trkpt>
      <trkpt lat="49.71428" lon="0.29478">
        <ele>90.5</ele>
        <time>2020-06-18T06:58:43Z</time>
      </trkpt>
      <trkpt lat="49.71426" lon="0.29484">
        <ele>90.7</ele>
        <time>2020-06-18T06:58:44Z</time>
      </trkpt>
      <trkpt lat="49.71424" lon="0.29489">
        <ele>90.9</ele>
        <time>2020-06-18T06:58:45Z</time>
      </trkpt>
      <trkpt lat="49.71422" lon="0.29496">
        <ele>91.1</ele>
        <time>2020-06-18T06:58:46Z</time>
      </trkpt>
      <trkpt lat="49.7142" lon="0.29502">
        <ele>91.3</ele>
        <time>2020-06-18T06:58:47Z</time>
      </trkpt>
      <trkpt lat="49.71419" lon="0.29508">
        <ele>91.5</ele>
        <time>2020-06-18T06:58:48Z</time>
      </trkpt>
      <trkpt lat="49.71417" lon="0.29515">
        <ele>91.8</ele>
        <time>2020-06-18T06:58:49Z</time>
      </trkpt>
      <trkpt lat="49.71415" lon="0.29522">
        <ele>92</ele>
        <time>2020-06-18T06:58:50Z</time>
      </trkpt>
      <trkpt lat="49.71414" lon="0.29528">
        <ele>92.2</ele>
        <time>2020-06-18T06:58:51Z</time>
      </trkpt>
      <trkpt lat="49.71413" lon="0.29535">
        <ele>92.4</ele>
        <time>2020-06-18T06:58:52Z</time>
      </trkpt>
      <trkpt lat="49.71413" lon="0.29541">
        <ele>92.6</ele>
        <time>2020-06-18T06:58:53Z</time>
      </trkpt>
      <trkpt lat="49.71412" lon="0.29547">
        <ele>92.8</ele>
        <time>2020-06-18T06:58:54Z</time>
      </trkpt>
      <trkpt lat="49.71411" lon="0.29552">
        <ele>93</ele>
        <time>2020-06-18T06:58:55Z</time>
      </trkpt>
      <trkpt lat="49.7141" lon="0.29559">
        <ele>93.2</ele>
        <time>2020-06-18T06:58:56Z</time>
      </trkpt>
      <trkpt lat="49.71409" lon="0.29566">
        <ele>93.4</ele>
        <time>2020-06-18T06:58:57Z</time>
      </trkpt>
      <trkpt lat="49.71407" lon="0.29572">
        <ele>93.6</ele>
        <time>2020-06-18T06:58:58Z</time>
      </trkpt>
      <trkpt lat="49.71406" lon="0.29578">
        <ele>93.8</ele>
        <time>2020-06-18T06:58:59Z</time>
      </trkpt>
      <trkpt lat="49.71404" lon="0.29585">
        <ele>93.9</ele>
        <time>2020-06-18T06:59:00Z</time>
      </trkpt>
      <trkpt lat="49.71404" lon="0.29591">
        <ele>94.1</ele>
        <time>2020-06-18T06:59:01Z</time>
      </trkpt>
      <trkpt lat="49.71402" lon="0.29597">
        <ele>94.3</ele>
        <time>2020-06-18T06:59:02Z</time>
      </trkpt>
      <trkpt lat="49.71401" lon="0.29601">
        <ele>94.4</ele>
        <time>2020-06-18T06:59:03Z</time>
      </trkpt>
      <trkpt lat="49.714" lon="0.29607">
        <ele>94.5</ele>
        <time>2020-06-18T06:59:04Z</time>
      </trkpt>
      <trkpt lat="49.71398" lon="0.29614">
        <ele>94.7</ele>
        <time>2020-06-18T06:59:05Z</time>
      </trkpt>
      <trkpt lat="49.71396" lon="0.2962">
        <ele>94.9</ele>
        <time>2020-06-18T06:59:06Z</time>
      </trkpt>
      <trkpt lat="49.71395" lon="0.29627">
        <ele>95.1</ele>
        <time>2020-06-18T06:59:07Z</time>
      </trkpt>
      <trkpt lat="49.71393" lon="0.29633">
        <ele>95.2</ele>
        <time>2020-06-18T06:59:08Z</time>
      </trkpt>
      <trkpt lat="49.7139" lon="0.29639">
        <ele>95.4</ele>
        <time>2020-06-18T06:59:09Z</time>
      </trkpt>
      <trkpt lat="49.71389" lon="0.29645">
        <ele>95.5</ele>
        <time>2020-06-18T06:59:10Z</time>
      </trkpt>
      <trkpt lat="49.71387" lon="0.2965">
        <ele>95.6</ele>
        <time>2020-06-18T06:59:11Z</time>
      </trkpt>
      <trkpt lat="49.71384" lon="0.29657">
        <ele>95.8</ele>
        <time>2020-06-18T06:59:12Z</time>
      </trkpt>
      <trkpt lat="49.71381" lon="0.29664">
        <ele>96</ele>
        <time>2020-06-18T06:59:13Z</time>
      </trkpt>
      <trkpt lat="49.71378" lon="0.29669">
        <ele>96.1</ele>
        <time>2020-06-18T06:59:14Z</time>
      </trkpt>
      <trkpt lat="49.71376" lon="0.29675">
        <ele>96.3</ele>
        <time>2020-06-18T06:59:15Z</time>
      </trkpt>
      <trkpt lat="49.71374" lon="0.29681">
        <ele>96.4</ele>
        <time>2020-06-18T06:59:16Z</time>
      </trkpt>
      <trkpt lat="49.71371" lon="0.29687">
        <ele>96.5</ele>
        <time>2020-06-18T06:59:17Z</time>
      </trkpt>
      <trkpt lat="49.71369" lon="0.29693">
        <ele>96.7</ele>
        <time>2020-06-18T06:59:18Z</time>
      </trkpt>
      <trkpt lat="49.71367" lon="0.29699">
        <ele>96.8</ele>
        <time>2020-06-18T06:59:19Z</time>
      </trkpt>
      <trkpt lat="49.71364" lon="0.29706">
        <ele>96.9</ele>
        <time>2020-06-18T06:59:20Z</time>
      </trkpt>
      <trkpt lat="49.71362" lon="0.29711">
        <ele>97</ele>
        <time>2020-06-18T06:59:21Z</time>
      </trkpt>
      <trkpt lat="49.7136" lon="0.29718">
        <ele>97</ele>
        <time>2020-06-18T06:59:22Z</time>
      </trkpt>
      <trkpt lat="49.71357" lon="0.29723">
        <ele>97</ele>
        <time>2020-06-18T06:59:23Z</time>
      </trkpt>
      <trkpt lat="49.71355" lon="0.29728">
        <ele>97</ele>
        <time>2020-06-18T06:59:24Z</time>
      </trkpt>
      <trkpt lat="49.71352" lon="0.29733">
        <ele>97</ele>
        <time>2020-06-18T06:59:25Z</time>
      </trkpt>
      <trkpt lat="49.71349" lon="0.2974">
        <ele>97</ele>
        <time>2020-06-18T06:59:26Z</time>
      </trkpt>
      <trkpt lat="49.71346" lon="0.29746">
        <ele>96.9</ele>
        <time>2020-06-18T06:59:27Z</time>
      </trkpt>
      <trkpt lat="49.71344" lon="0.29752">
        <ele>96.9</ele>
        <time>2020-06-18T06:59:28Z</time>
      </trkpt>
      <trkpt lat="49.7134" lon="0.29759">
        <ele>96.8</ele>
        <time>2020-06-18T06:59:29Z</time>
      </trkpt>
      <trkpt lat="49.71337" lon="0.29766">
        <ele>96.8</ele>
        <time>2020-06-18T06:59:30Z</time>
      </trkpt>
      <trkpt lat="49.71334" lon="0.29773">
        <ele>96.8</ele>
        <time>2020-06-18T06:59:31Z</time>
      </trkpt>
      <trkpt lat="49.71331" lon="0.2978">
        <ele>96.8</ele>
        <time>2020-06-18T06:59:32Z</time>
      </trkpt>
      <trkpt lat="49.71327" lon="0.29787">
        <ele>96.7</ele>
        <time>2020-06-18T06:59:33Z</time>
      </trkpt>
      <trkpt lat="49.71323" lon="0.29794">
        <ele>96.7</ele>
        <time>2020-06-18T06:59:34Z</time>
      </trkpt>
      <trkpt lat="49.71319" lon="0.29801">
        <ele>96.6</ele>
        <time>2020-06-18T06:59:35Z</time>
      </trkpt>
      <trkpt lat="49.71316" lon="0.29808">
        <ele>96.5</ele>
        <time>2020-06-18T06:59:36Z</time>
      </trkpt>
      <trkpt lat="49.71312" lon="0.29815">
        <ele>96.5</ele>
        <time>2020-06-18T06:59:37Z</time>
      </trkpt>
      <trkpt lat="49.71309" lon="0.29821">
        <ele>96.4</ele>
        <time>2020-06-18T06:59:38Z</time>
      </trkpt>
      <trkpt lat="49.71304" lon="0.29827">
        <ele>96.4</ele>
        <time>2020-06-18T06:59:39Z</time>
      </trkpt>
      <trkpt lat="49.713" lon="0.29834">
        <ele>96.3</ele>
        <time>2020-06-18T06:59:40Z</time>
      </trkpt>
      <trkpt lat="49.71297" lon="0.29841">
        <ele>96.3</ele>
        <time>2020-06-18T06:59:41Z</time>
      </trkpt>
      <trkpt lat="49.71293" lon="0.29848">
        <ele>96.2</ele>
        <time>2020-06-18T06:59:42Z</time>
      </trkpt>
      <trkpt lat="49.71289" lon="0.29854">
        <ele>96.2</ele>
        <time>2020-06-18T06:59:43Z</time>
      </trkpt>
      <trkpt lat="49.71286" lon="0.2986">
        <ele>96.2</ele>
        <time>2020-06-18T06:59:44Z</time>
      </trkpt>
      <trkpt lat="49.71282" lon="0.29867">
        <ele>96.1</ele>
        <time>2020-06-18T06:59:45Z</time>
      </trkpt>
      <trkpt lat="49.71277" lon="0.29873">
        <ele>96.1</ele>
        <time>2020-06-18T06:59:46Z</time>
      </trkpt>
      <trkpt lat="49.71273" lon="0.29881">
        <ele>96</ele>
        <time>2020-06-18T06:59:47Z</time>
      </trkpt>
      <trkpt lat="49.71269" lon="0.29888">
        <ele>95.9</ele>
        <time>2020-06-18T06:59:48Z</time>
      </trkpt>
      <trkpt lat="49.71264" lon="0.29896">
        <ele>95.9</ele>
        <time>2020-06-18T06:59:49Z</time>
      </trkpt>
      <trkpt lat="49.7126" lon="0.29903">
        <ele>95.8</ele>
        <time>2020-06-18T06:59:50Z</time>
      </trkpt>
      <trkpt lat="49.71256" lon="0.2991">
        <ele>95.7</ele>
        <time>2020-06-18T06:59:51Z</time>
      </trkpt>
      <trkpt lat="49.71252" lon="0.29918">
        <ele>95.7</ele>
        <time>2020-06-18T06:59:52Z</time>
      </trkpt>
      <trkpt lat="49.71248" lon="0.29926">
        <ele>95.6</ele>
        <time>2020-06-18T06:59:53Z</time>
      </trkpt>
      <trkpt lat="49.71243" lon="0.29934">
        <ele>95.5</ele>
        <time>2020-06-18T06:59:54Z</time>
      </trkpt>
      <trkpt lat="49.71238" lon="0.29942">
        <ele>95.4</ele>
        <time>2020-06-18T06:59:55Z</time>
      </trkpt>
      <trkpt lat="49.71234" lon="0.2995">
        <ele>95.4</ele>
        <time>2020-06-18T06:59:56Z</time>
      </trkpt>
      <trkpt lat="49.7123" lon="0.29957">
        <ele>95.3</ele>
        <time>2020-06-18T06:59:57Z</time>
      </trkpt>
      <trkpt lat="49.71226" lon="0.29963">
        <ele>95.2</ele>
        <time>2020-06-18T06:59:58Z</time>
      </trkpt>
      <trkpt lat="49.71222" lon="0.2997">
        <ele>95.2</ele>
        <time>2020-06-18T06:59:59Z</time>
      </trkpt>
      <trkpt lat="49.71218" lon="0.29976">
        <ele>95.2</ele>
        <time>2020-06-18T07:00:00Z</time>
      </trkpt>
      <trkpt lat="49.71214" lon="0.29983">
        <ele>95.2</ele>
        <time>2020-06-18T07:00:01Z</time>
      </trkpt>
      <trkpt lat="49.7121" lon="0.2999">
        <ele>95.1</ele>
        <time>2020-06-18T07:00:02Z</time>
      </trkpt>
      <trkpt lat="49.71207" lon="0.29997">
        <ele>95.1</ele>
        <time>2020-06-18T07:00:03Z</time>
      </trkpt>
      <trkpt lat="49.71203" lon="0.30004">
        <ele>95</ele>
        <time>2020-06-18T07:00:04Z</time>
      </trkpt>
      <trkpt lat="49.71199" lon="0.30011">
        <ele>94.9</ele>
        <time>2020-06-18T07:00:05Z</time>
      </trkpt>
      <trkpt lat="49.71195" lon="0.3002">
        <ele>94.8</ele>
        <time>2020-06-18T07:00:06Z</time>
      </trkpt>
      <trkpt lat="49.71192" lon="0.30027">
        <ele>94.7</ele>
        <time>2020-06-18T07:00:07Z</time>
      </trkpt>
      <trkpt lat="49.71188" lon="0.30035">
        <ele>94.6</ele>
        <time>2020-06-18T07:00:08Z</time>
      </trkpt>
      <trkpt lat="49.71185" lon="0.30043">
        <ele>94.5</ele>
        <time>2020-06-18T07:00:09Z</time>
      </trkpt>
      <trkpt lat="49.7118" lon="0.3005">
        <ele>94.5</ele>
        <time>2020-06-18T07:00:10Z</time>
      </trkpt>
      <trkpt lat="49.71177" lon="0.30059">
        <ele>94.4</ele>
        <time>2020-06-18T07:00:11Z</time>
      </trkpt>
      <trkpt lat="49.71174" lon="0.30068">
        <ele>94.4</ele>
        <time>2020-06-18T07:00:12Z</time>
      </trkpt>
      <trkpt lat="49.71172" lon="0.30077">
        <ele>94.3</ele>
        <time>2020-06-18T07:00:13Z</time>
      </trkpt>
      <trkpt lat="49.7117" lon="0.30086">
        <ele>94.3</ele>
        <time>2020-06-18T07:00:14Z</time>
      </trkpt>
      <trkpt lat="49.71168" lon="0.30097">
        <ele>94.4</ele>
        <time>2020-06-18T07:00:15Z</time>
      </trkpt>
      <trkpt lat="49.71166" lon="0.30106">
        <ele>94.4</ele>
        <time>2020-06-18T07:00:16Z</time>
      </trkpt>
      <trkpt lat="49.71164" lon="0.30114">
        <ele>94.5</ele>
        <time>2020-06-18T07:00:17Z</time>
      </trkpt>
      <trkpt lat="49.71162" lon="0.30123">
        <ele>94.5</ele>
        <time>2020-06-18T07:00:18Z</time>
      </trkpt>
      <trkpt lat="49.71161" lon="0.30133">
        <ele>94.6</ele>
        <time>2020-06-18T07:00:19Z</time>
      </trkpt>
      <trkpt lat="49.7116" lon="0.30143">
        <ele>94.8</ele>
        <time>2020-06-18T07:00:20Z</time>
      </trkpt>
      <trkpt lat="49.71159" lon="0.3015">
        <ele>94.8</ele>
        <time>2020-06-18T07:00:21Z</time>
      </trkpt>
      <trkpt lat="49.71157" lon="0.3016">
        <ele>94.9</ele>
        <time>2020-06-18T07:00:22Z</time>
      </trkpt>
      <trkpt lat="49.71155" lon="0.3017">
        <ele>95.1</ele>
        <time>2020-06-18T07:00:23Z</time>
      </trkpt>
      <trkpt lat="49.71153" lon="0.30181">
        <ele>95.2</ele>
        <time>2020-06-18T07:00:24Z</time>
      </trkpt>
      <trkpt lat="49.71153" lon="0.3019">
        <ele>95.4</ele>
        <time>2020-06-18T07:00:25Z</time>
      </trkpt>
      <trkpt lat="49.71152" lon="0.30199">
        <ele>95.5</ele>
        <time>2020-06-18T07:00:26Z</time>
      </trkpt>
      <trkpt lat="49.71151" lon="0.30205">
        <ele>95.7</ele>
        <time>2020-06-18T07:00:27Z</time>
      </trkpt>
      <trkpt lat="49.71151" lon="0.30213">
        <ele>95.8</ele>
        <time>2020-06-18T07:00:28Z</time>
      </trkpt>
      <trkpt lat="49.71149" lon="0.30222">
        <ele>96</ele>
        <time>2020-06-18T07:00:29Z</time>
      </trkpt>
      <trkpt lat="49.71148" lon="0.30231">
        <ele>96.1</ele>
        <time>2020-06-18T07:00:30Z</time>
      </trkpt>
      <trkpt lat="49.71147" lon="0.30238">
        <ele>96.2</ele>
        <time>2020-06-18T07:00:31Z</time>
      </trkpt>
      <trkpt lat="49.71145" lon="0.30247">
        <ele>96.3</ele>
        <time>2020-06-18T07:00:32Z</time>
      </trkpt>
      <trkpt lat="49.71143" lon="0.30257">
        <ele>96.5</ele>
        <time>2020-06-18T07:00:33Z</time>
      </trkpt>
      <trkpt lat="49.7114" lon="0.30265">
        <ele>96.6</ele>
        <time>2020-06-18T07:00:34Z</time>
      </trkpt>
      <trkpt lat="49.71138" lon="0.30274">
        <ele>96.6</ele>
        <time>2020-06-18T07:00:35Z</time>
      </trkpt>
      <trkpt lat="49.71136" lon="0.30282">
        <ele>96.7</ele>
        <time>2020-06-18T07:00:36Z</time>
      </trkpt>
      <trkpt lat="49.71133" lon="0.30289">
        <ele>96.6</ele>
        <time>2020-06-18T07:00:37Z</time>
      </trkpt>
      <trkpt lat="49.71131" lon="0.30296">
        <ele>96.4</ele>
        <time>2020-06-18T07:00:38Z</time>
      </trkpt>
      <trkpt lat="49.71129" lon="0.30304">
        <ele>96.5</ele>
        <time>2020-06-18T07:00:39Z</time>
      </trkpt>
      <trkpt lat="49.71126" lon="0.30311">
        <ele>96.5</ele>
        <time>2020-06-18T07:00:40Z</time>
      </trkpt>
      <trkpt lat="49.71123" lon="0.30317">
        <ele>96.5</ele>
        <time>2020-06-18T07:00:41Z</time>
      </trkpt>
      <trkpt lat="49.71121" lon="0.30324">
        <ele>96.6</ele>
        <time>2020-06-18T07:00:42Z</time>
      </trkpt>
      <trkpt lat="49.71118" lon="0.30331">
        <ele>96.6</ele>
        <time>2020-06-18T07:00:43Z</time>
      </trkpt>
      <trkpt lat="49.71115" lon="0.30338">
        <ele>96.6</ele>
        <time>2020-06-18T07:00:44Z</time>
      </trkpt>
      <trkpt lat="49.71112" lon="0.30346">
        <ele>96.7</ele>
        <time>2020-06-18T07:00:45Z</time>
      </trkpt>
      <trkpt lat="49.71107" lon="0.30354">
        <ele>96.7</ele>
        <time>2020-06-18T07:00:46Z</time>
      </trkpt>
      <trkpt lat="49.71104" lon="0.3036">
        <ele>96.7</ele>
        <time>2020-06-18T07:00:47Z</time>
      </trkpt>
      <trkpt lat="49.71101" lon="0.30368">
        <ele>96.8</ele>
        <time>2020-06-18T07:00:48Z</time>
      </trkpt>
      <trkpt lat="49.71098" lon="0.30376">
        <ele>96.8</ele>
        <time>2020-06-18T07:00:49Z</time>
      </trkpt>
      <trkpt lat="49.71095" lon="0.30383">
        <ele>96.9</ele>
        <time>2020-06-18T07:00:50Z</time>
      </trkpt>
      <trkpt lat="49.71092" lon="0.3039">
        <ele>96.9</ele>
        <time>2020-06-18T07:00:51Z</time>
      </trkpt>
      <trkpt lat="49.71088" lon="0.30396">
        <ele>96.9</ele>
        <time>2020-06-18T07:00:52Z</time>
      </trkpt>
      <trkpt lat="49.71084" lon="0.30403">
        <ele>96.9</ele>
        <time>2020-06-18T07:00:53Z</time>
      </trkpt>
      <trkpt lat="49.7108" lon="0.3041">
        <ele>96.9</ele>
        <time>2020-06-18T07:00:54Z</time>
      </trkpt>
      <trkpt lat="49.71077" lon="0.30417">
        <ele>96.9</ele>
        <time>2020-06-18T07:00:55Z</time>
      </trkpt>
      <trkpt lat="49.71073" lon="0.30423">
        <ele>96.8</ele>
        <time>2020-06-18T07:00:56Z</time>
      </trkpt>
      <trkpt lat="49.71069" lon="0.30429">
        <ele>96.7</ele>
        <time>2020-06-18T07:00:57Z</time>
      </trkpt>
      <trkpt lat="49.71064" lon="0.30435">
        <ele>96.6</ele>
        <time>2020-06-18T07:00:58Z</time>
      </trkpt>
      <trkpt lat="49.7106" lon="0.3044">
        <ele>96.5</ele>
        <time>2020-06-18T07:00:59Z</time>
      </trkpt>
      <trkpt lat="49.71055" lon="0.30446">
        <ele>96.3</ele>
        <time>2020-06-18T07:01:00Z</time>
      </trkpt>
      <trkpt lat="49.71051" lon="0.30452">
        <ele>96.2</ele>
        <time>2020-06-18T07:01:01Z</time>
      </trkpt>
      <trkpt lat="49.71046" lon="0.30457">
        <ele>96</ele>
        <time>2020-06-18T07:01:02Z</time>
      </trkpt>
      <trkpt lat="49.71041" lon="0.30463">
        <ele>95.9</ele>
        <time>2020-06-18T07:01:03Z</time>
      </trkpt>
      <trkpt lat="49.71036" lon="0.30468">
        <ele>95.7</ele>
        <time>2020-06-18T07:01:04Z</time>
      </trkpt>
      <trkpt lat="49.71031" lon="0.30474">
        <ele>95.5</ele>
        <time>2020-06-18T07:01:05Z</time>
      </trkpt>
      <trkpt lat="49.71026" lon="0.30481">
        <ele>95.3</ele>
        <time>2020-06-18T07:01:06Z</time>
      </trkpt>
      <trkpt lat="49.7102" lon="0.30488">
        <ele>95.1</ele>
        <time>2020-06-18T07:01:07Z</time>
      </trkpt>
      <trkpt lat="49.71015" lon="0.30496">
        <ele>94.8</ele>
        <time>2020-06-18T07:01:08Z</time>
      </trkpt>
      <trkpt lat="49.71009" lon="0.30504">
        <ele>94.5</ele>
        <time>2020-06-18T07:01:09Z</time>
      </trkpt>
      <trkpt lat="49.71004" lon="0.30511">
        <ele>94.3</ele>
        <time>2020-06-18T07:01:10Z</time>
      </trkpt>
      <trkpt lat="49.70999" lon="0.30519">
        <ele>94</ele>
        <time>2020-06-18T07:01:11Z</time>
      </trkpt>
      <trkpt lat="49.70994" lon="0.30527">
        <ele>93.7</ele>
        <time>2020-06-18T07:01:12Z</time>
      </trkpt>
      <trkpt lat="49.70989" lon="0.30535">
        <ele>93.4</ele>
        <time>2020-06-18T07:01:13Z</time>
      </trkpt>
      <trkpt lat="49.70984" lon="0.30543">
        <ele>93.1</ele>
        <time>2020-06-18T07:01:14Z</time>
      </trkpt>
      <trkpt lat="49.7098" lon="0.30551">
        <ele>92.8</ele>
        <time>2020-06-18T07:01:15Z</time>
      </trkpt>
      <trkpt lat="49.70976" lon="0.3056">
        <ele>92.4</ele>
        <time>2020-06-18T07:01:16Z</time>
      </trkpt>
      <trkpt lat="49.70972" lon="0.30569">
        <ele>92.1</ele>
        <time>2020-06-18T07:01:17Z</time>
      </trkpt>
      <trkpt lat="49.70969" lon="0.30578">
        <ele>91.8</ele>
        <time>2020-06-18T07:01:18Z</time>
      </trkpt>
      <trkpt lat="49.70965" lon="0.30588">
        <ele>91.4</ele>
        <time>2020-06-18T07:01:19Z</time>
      </trkpt>
      <trkpt lat="49.70961" lon="0.30597">
        <ele>91</ele>
        <time>2020-06-18T07:01:20Z</time>
      </trkpt>
      <trkpt lat="49.70956" lon="0.30607">
        <ele>90.6</ele>
        <time>2020-06-18T07:01:21Z</time>
      </trkpt>
      <trkpt lat="49.70951" lon="0.30616">
        <ele>90.2</ele>
        <time>2020-06-18T07:01:22Z</time>
      </trkpt>
      <trkpt lat="49.70947" lon="0.30625">
        <ele>89.9</ele>
        <time>2020-06-18T07:01:23Z</time>
      </trkpt>
      <trkpt lat="49.70943" lon="0.30635">
        <ele>89.6</ele>
        <time>2020-06-18T07:01:24Z</time>
      </trkpt>
      <trkpt lat="49.70939" lon="0.30645">
        <ele>89.4</ele>
        <time>2020-06-18T07:01:25Z</time>
      </trkpt>
      <trkpt lat="49.70935" lon="0.30655">
        <ele>89.2</ele>
        <time>2020-06-18T07:01:26Z</time>
      </trkpt>
      <trkpt lat="49.70931" lon="0.30665">
        <ele>89</ele>
        <time>2020-06-18T07:01:27Z</time>
      </trkpt>
      <trkpt lat="49.70926" lon="0.30675">
        <ele>88.8</ele>
        <time>2020-06-18T07:01:28Z</time>
      </trkpt>
      <trkpt lat="49.70923" lon="0.30686">
        <ele>88.6</ele>
        <time>2020-06-18T07:01:29Z</time>
      </trkpt>
      <trkpt lat="49.70919" lon="0.30696">
        <ele>88.5</ele>
        <time>2020-06-18T07:01:30Z</time>
      </trkpt>
      <trkpt lat="49.70917" lon="0.30706">
        <ele>88.3</ele>
        <time>2020-06-18T07:01:31Z</time>
      </trkpt>
      <trkpt lat="49.70914" lon="0.30717">
        <ele>88</ele>
        <time>2020-06-18T07:01:32Z</time>
      </trkpt>
      <trkpt lat="49.7091" lon="0.30726">
        <ele>88.1</ele>
        <time>2020-06-18T07:01:33Z</time>
      </trkpt>
      <trkpt lat="49.70907" lon="0.30735">
        <ele>88.2</ele>
        <time>2020-06-18T07:01:34Z</time>
      </trkpt>
      <trkpt lat="49.70902" lon="0.30743">
        <ele>88.2</ele>
        <time>2020-06-18T07:01:35Z</time>
      </trkpt>
      <trkpt lat="49.70897" lon="0.3075">
        <ele>88.3</ele>
        <time>2020-06-18T07:01:36Z</time>
      </trkpt>
      <trkpt lat="49.70893" lon="0.30756">
        <ele>88.3</ele>
        <time>2020-06-18T07:01:37Z</time>
      </trkpt>
      <trkpt lat="49.70889" lon="0.30763">
        <ele>88.4</ele>
        <time>2020-06-18T07:01:38Z</time>
      </trkpt>
      <trkpt lat="49.70885" lon="0.3077">
        <ele>88.5</ele>
        <time>2020-06-18T07:01:39Z</time>
      </trkpt>
      <trkpt lat="49.70882" lon="0.30776">
        <ele>88.6</ele>
        <time>2020-06-18T07:01:40Z</time>
      </trkpt>
      <trkpt lat="49.70878" lon="0.30782">
        <ele>88.7</ele>
        <time>2020-06-18T07:01:41Z</time>
      </trkpt>
      <trkpt lat="49.70875" lon="0.30787">
        <ele>88.8</ele>
        <time>2020-06-18T07:01:42Z</time>
      </trkpt>
      <trkpt lat="49.70871" lon="0.30792">
        <ele>88.9</ele>
        <time>2020-06-18T07:01:43Z</time>
      </trkpt>
      <trkpt lat="49.70868" lon="0.30797">
        <ele>89.1</ele>
        <time>2020-06-18T07:01:44Z</time>
      </trkpt>
      <trkpt lat="49.70865" lon="0.30801">
        <ele>89.2</ele>
        <time>2020-06-18T07:01:45Z</time>
      </trkpt>
      <trkpt lat="49.70862" lon="0.30806">
        <ele>89.3</ele>
        <time>2020-06-18T07:01:46Z</time>
      </trkpt>
      <trkpt lat="49.70858" lon="0.30811">
        <ele>89.5</ele>
        <time>2020-06-18T07:01:47Z</time>
      </trkpt>
      <trkpt lat="49.70855" lon="0.30816">
        <ele>89.7</ele>
        <time>2020-06-18T07:01:48Z</time>
      </trkpt>
      <trkpt lat="49.70851" lon="0.30821">
        <ele>89.9</ele>
        <time>2020-06-18T07:01:49Z</time>
      </trkpt>
      <trkpt lat="49.70848" lon="0.30824">
        <ele>90.1</ele>
        <time>2020-06-18T07:01:50Z</time>
      </trkpt>
      <trkpt lat="49.70844" lon="0.30827">
        <ele>90.3</ele>
        <time>2020-06-18T07:01:51Z</time>
      </trkpt>
      <trkpt lat="49.7084" lon="0.3083">
        <ele>90.5</ele>
        <time>2020-06-18T07:01:52Z</time>
      </trkpt>
      <trkpt lat="49.70837" lon="0.30835">
        <ele>90.7</ele>
        <time>2020-06-18T07:01:53Z</time>
      </trkpt>
      <trkpt lat="49.70834" lon="0.30841">
        <ele>91</ele>
        <time>2020-06-18T07:01:54Z</time>
      </trkpt>
      <trkpt lat="49.70831" lon="0.30846">
        <ele>91.2</ele>
        <time>2020-06-18T07:01:55Z</time>
      </trkpt>
      <trkpt lat="49.70827" lon="0.30851">
        <ele>91.4</ele>
        <time>2020-06-18T07:01:56Z</time>
      </trkpt>
      <trkpt lat="49.70825" lon="0.30856">
        <ele>91.6</ele>
        <time>2020-06-18T07:01:57Z</time>
      </trkpt>
      <trkpt lat="49.70822" lon="0.30861">
        <ele>91.9</ele>
        <time>2020-06-18T07:01:58Z</time>
      </trkpt>
      <trkpt lat="49.70818" lon="0.30865">
        <ele>92.1</ele>
        <time>2020-06-18T07:01:59Z</time>
      </trkpt>
      <trkpt lat="49.70815" lon="0.3087">
        <ele>92.3</ele>
        <time>2020-06-18T07:02:00Z</time>
      </trkpt>
      <trkpt lat="49.70812" lon="0.30876">
        <ele>92.5</ele>
        <time>2020-06-18T07:02:01Z</time>
      </trkpt>
      <trkpt lat="49.70809" lon="0.3088">
        <ele>92.7</ele>
        <time>2020-06-18T07:02:02Z</time>
      </trkpt>
      <trkpt lat="49.70806" lon="0.30884">
        <ele>92.9</ele>
        <time>2020-06-18T07:02:03Z</time>
      </trkpt>
      <trkpt lat="49.70802" lon="0.3089">
        <ele>93.2</ele>
        <time>2020-06-18T07:02:04Z</time>
      </trkpt>
      <trkpt lat="49.708" lon="0.30894">
        <ele>93.4</ele>
        <time>2020-06-18T07:02:05Z</time>
      </trkpt>
      <trkpt lat="49.70797" lon="0.30898">
        <ele>93.5</ele>
        <time>2020-06-18T07:02:06Z</time>
      </trkpt>
      <trkpt lat="49.70792" lon="0.30904">
        <ele>93.8</ele>
        <time>2020-06-18T07:02:07Z</time>
      </trkpt>
      <trkpt lat="49.70789" lon="0.30909">
        <ele>94.1</ele>
        <time>2020-06-18T07:02:08Z</time>
      </trkpt>
      <trkpt lat="49.70787" lon="0.30913">
        <ele>94.2</ele>
        <time>2020-06-18T07:02:09Z</time>
      </trkpt>
      <trkpt lat="49.70785" lon="0.30918">
        <ele>94.4</ele>
        <time>2020-06-18T07:02:10Z</time>
      </trkpt>
      <trkpt lat="49.70783" lon="0.30922">
        <ele>94.6</ele>
        <time>2020-06-18T07:02:11Z</time>
      </trkpt>
      <trkpt lat="49.70782" lon="0.30923">
        <ele>94.7</ele>
        <time>2020-06-18T07:02:12Z</time>
      </trkpt>
      <trkpt lat="49.7078" lon="0.30927">
        <ele>94.9</ele>
        <time>2020-06-18T07:02:13Z</time>
      </trkpt>
      <trkpt lat="49.70777" lon="0.3093">
        <ele>95.1</ele>
        <time>2020-06-18T07:02:14Z</time>
      </trkpt>
      <trkpt lat="49.70774" lon="0.30932">
        <ele>95.3</ele>
        <time>2020-06-18T07:02:15Z</time>
      </trkpt>
      <trkpt lat="49.70771" lon="0.30935">
        <ele>95.5</ele>
        <time>2020-06-18T07:02:16Z</time>
      </trkpt>
      <trkpt lat="49.7077" lon="0.30936">
        <ele>95.5</ele>
        <time>2020-06-18T07:02:17Z</time>
      </trkpt>
      <trkpt lat="49.7077" lon="0.30938">
        <ele>95.6</ele>
        <time>2020-06-18T07:02:18Z</time>
      </trkpt>
      <trkpt lat="49.7077" lon="0.3094">
        <ele>95.7</ele>
        <time>2020-06-18T07:02:19Z</time>
      </trkpt>
      <trkpt lat="49.7077" lon="0.30942">
        <ele>95.7</ele>
        <time>2020-06-18T07:02:20Z</time>
      </trkpt>
      <trkpt lat="49.7077" lon="0.30948">
        <ele>96</ele>
        <time>2020-06-18T07:02:21Z</time>
      </trkpt>
      <trkpt lat="49.7077" lon="0.30951">
        <ele>96</ele>
        <time>2020-06-18T07:02:22Z</time>
      </trkpt>
      <trkpt lat="49.7077" lon="0.30955">
        <ele>96</ele>
        <time>2020-06-18T07:02:23Z</time>
      </trkpt>
      <trkpt lat="49.70771" lon="0.3096">
        <ele>96</ele>
        <time>2020-06-18T07:02:24Z</time>
      </trkpt>
      <trkpt lat="49.70771" lon="0.30965">
        <ele>96</ele>
        <time>2020-06-18T07:02:25Z</time>
      </trkpt>
      <trkpt lat="49.70772" lon="0.30966">
        <ele>96</ele>
        <time>2020-06-18T07:02:26Z</time>
      </trkpt>
      <trkpt lat="49.70772" lon="0.3097">
        <ele>96.1</ele>
        <time>2020-06-18T07:02:27Z</time>
      </trkpt>
      <trkpt lat="49.70773" lon="0.30973">
        <ele>96.1</ele>
        <time>2020-06-18T07:02:28Z</time>
      </trkpt>
      <trkpt lat="49.70773" lon="0.30975">
        <ele>96.1</ele>
        <time>2020-06-18T07:02:29Z</time>
      </trkpt>
      <trkpt lat="49.70773" lon="0.30975">
        <ele>96.1</ele>
        <time>2020-06-18T07:02:30Z</time>
      </trkpt>
      <trkpt lat="49.70773" lon="0.30976">
        <ele>96.1</ele>
        <time>2020-06-18T07:02:31Z</time>
      </trkpt>
      <trkpt lat="49.70773" lon="0.30976">
        <ele>96.1</ele>
        <time>2020-06-18T07:02:32Z</time>
      </trkpt>
      <trkpt lat="49.70773" lon="0.30975">
        <ele>96.1</ele>
        <time>2020-06-18T07:02:33Z</time>
      </trkpt>
      <trkpt lat="49.70773" lon="0.30975">
        <ele>96.1</ele>
        <time>2020-06-18T07:02:34Z</time>
      </trkpt>
      <trkpt lat="49.70774" lon="0.30975">
        <ele>96.1</ele>
        <time>2020-06-18T07:02:35Z</time>
      </trkpt>
      <trkpt lat="49.70774" lon="0.30975">
        <ele>96.1</ele>
        <time>2020-06-18T07:02:36Z</time>
      </trkpt>
      <trkpt lat="49.70774" lon="0.30976">
        <ele>96.1</ele>
        <time>2020-06-18T07:02:37Z</time>
      </trkpt>
      <trkpt lat="49.70774" lon="0.30976">
        <ele>96.1</ele>
        <time>2020-06-18T07:02:38Z</time>
      </trkpt>
      <trkpt lat="49.70775" lon="0.30976">
        <ele>96.1</ele>
        <time>2020-06-18T07:02:39Z</time>
      </trkpt>
      <trkpt lat="49.70776" lon="0.30979">
        <ele>96.1</ele>
        <time>2020-06-18T07:02:40Z</time>
      </trkpt>
      <trkpt lat="49.70777" lon="0.30982">
        <ele>96.1</ele>
        <time>2020-06-18T07:02:41Z</time>
      </trkpt>
      <trkpt lat="49.70777" lon="0.30985">
        <ele>96.1</ele>
        <time>2020-06-18T07:02:42Z</time>
      </trkpt>
      <trkpt lat="49.70778" lon="0.30988">
        <ele>96.2</ele>
        <time>2020-06-18T07:05:11Z</time>
      </trkpt>
      <trkpt lat="49.70779" lon="0.30991">
        <ele>96.2</ele>
        <time>2020-06-18T07:05:12Z</time>
      </trkpt>
      <trkpt lat="49.70781" lon="0.30995">
        <ele>96.4</ele>
        <time>2020-06-18T07:05:13Z</time>
      </trkpt>
      <trkpt lat="49.70782" lon="0.30996">
        <ele>96.5</ele>
        <time>2020-06-18T07:05:14Z</time>
      </trkpt>
      <trkpt lat="49.70784" lon="0.31002">
        <ele>96.6</ele>
        <time>2020-06-18T07:05:15Z</time>
      </trkpt>
      <trkpt lat="49.70785" lon="0.31004">
        <ele>96.7</ele>
        <time>2020-06-18T07:05:16Z</time>
      </trkpt>
      <trkpt lat="49.70786" lon="0.31008">
        <ele>96.8</ele>
        <time>2020-06-18T07:05:17Z</time>
      </trkpt>
      <trkpt lat="49.70788" lon="0.31013">
        <ele>96.9</ele>
        <time>2020-06-18T07:05:18Z</time>
      </trkpt>
      <trkpt lat="49.70789" lon="0.31017">
        <ele>97</ele>
        <time>2020-06-18T07:05:19Z</time>
      </trkpt>
      <trkpt lat="49.70791" lon="0.31022">
        <ele>97.1</ele>
        <time>2020-06-18T07:05:20Z</time>
      </trkpt>
      <trkpt lat="49.70793" lon="0.31028">
        <ele>97.3</ele>
        <time>2020-06-18T07:05:21Z</time>
      </trkpt>
      <trkpt lat="49.70794" lon="0.31033">
        <ele>97.5</ele>
        <time>2020-06-18T07:05:22Z</time>
      </trkpt>
      <trkpt lat="49.70796" lon="0.31038">
        <ele>97.6</ele>
        <time>2020-06-18T07:05:23Z</time>
      </trkpt>
      <trkpt lat="49.70797" lon="0.31044">
        <ele>97.7</ele>
        <time>2020-06-18T07:05:24Z</time>
      </trkpt>
      <trkpt lat="49.70799" lon="0.31049">
        <ele>97.9</ele>
        <time>2020-06-18T07:05:25Z</time>
      </trkpt>
      <trkpt lat="49.70802" lon="0.31054">
        <ele>98.1</ele>
        <time>2020-06-18T07:05:26Z</time>
      </trkpt>
      <trkpt lat="49.70805" lon="0.31059">
        <ele>98.3</ele>
        <time>2020-06-18T07:05:27Z</time>
      </trkpt>
      <trkpt lat="49.70807" lon="0.31065">
        <ele>98.6</ele>
        <time>2020-06-18T07:05:28Z</time>
      </trkpt>
      <trkpt lat="49.70809" lon="0.3107">
        <ele>98.8</ele>
        <time>2020-06-18T07:05:29Z</time>
      </trkpt>
      <trkpt lat="49.70809" lon="0.31076">
        <ele>99</ele>
        <time>2020-06-18T07:05:30Z</time>
      </trkpt>
      <trkpt lat="49.70811" lon="0.31081">
        <ele>99.2</ele>
        <time>2020-06-18T07:05:31Z</time>
      </trkpt>
      <trkpt lat="49.70812" lon="0.31086">
        <ele>99.4</ele>
        <time>2020-06-18T07:05:32Z</time>
      </trkpt>
      <trkpt lat="49.70814" lon="0.31091">
        <ele>99.6</ele>
        <time>2020-06-18T07:05:33Z</time>
      </trkpt>
      <trkpt lat="49.70816" lon="0.31097">
        <ele>99.8</ele>
        <time>2020-06-18T07:05:34Z</time>
      </trkpt>
      <trkpt lat="49.70819" lon="0.31104">
        <ele>100.1</ele>
        <time>2020-06-18T07:05:35Z</time>
      </trkpt>
      <trkpt lat="49.70821" lon="0.31108">
        <ele>100.2</ele>
        <time>2020-06-18T07:05:36Z</time>
      </trkpt>
      <trkpt lat="49.70823" lon="0.31113">
        <ele>100.3</ele>
        <time>2020-06-18T07:05:37Z</time>
      </trkpt>
      <trkpt lat="49.70825" lon="0.31118">
        <ele>100.5</ele>
        <time>2020-06-18T07:05:38Z</time>
      </trkpt>
      <trkpt lat="49.70827" lon="0.31125">
        <ele>100.6</ele>
        <time>2020-06-18T07:05:39Z</time>
      </trkpt>
      <trkpt lat="49.70829" lon="0.3113">
        <ele>100.8</ele>
        <time>2020-06-18T07:05:40Z</time>
      </trkpt>
      <trkpt lat="49.70831" lon="0.31135">
        <ele>100.9</ele>
        <time>2020-06-18T07:05:41Z</time>
      </trkpt>
      <trkpt lat="49.70833" lon="0.3114">
        <ele>101</ele>
        <time>2020-06-18T07:05:42Z</time>
      </trkpt>
      <trkpt lat="49.70834" lon="0.31145">
        <ele>101.1</ele>
        <time>2020-06-18T07:05:43Z</time>
      </trkpt>
      <trkpt lat="49.70837" lon="0.31151">
        <ele>101.2</ele>
        <time>2020-06-18T07:05:44Z</time>
      </trkpt>
      <trkpt lat="49.70839" lon="0.31158">
        <ele>101.4</ele>
        <time>2020-06-18T07:05:45Z</time>
      </trkpt>
      <trkpt lat="49.70841" lon="0.31164">
        <ele>101.5</ele>
        <time>2020-06-18T07:05:46Z</time>
      </trkpt>
      <trkpt lat="49.70843" lon="0.31171">
        <ele>101.6</ele>
        <time>2020-06-18T07:05:47Z</time>
      </trkpt>
      <trkpt lat="49.70845" lon="0.31178">
        <ele>101.6</ele>
        <time>2020-06-18T07:05:48Z</time>
      </trkpt>
      <trkpt lat="49.70847" lon="0.31184">
        <ele>101.7</ele>
        <time>2020-06-18T07:05:49Z</time>
      </trkpt>
      <trkpt lat="49.70849" lon="0.31191">
        <ele>101.8</ele>
        <time>2020-06-18T07:05:50Z</time>
      </trkpt>
      <trkpt lat="49.70852" lon="0.31197">
        <ele>101.9</ele>
        <time>2020-06-18T07:05:51Z</time>
      </trkpt>
      <trkpt lat="49.70854" lon="0.31204">
        <ele>102</ele>
        <time>2020-06-18T07:05:52Z</time>
      </trkpt>
      <trkpt lat="49.70856" lon="0.31211">
        <ele>102.1</ele>
        <time>2020-06-18T07:05:53Z</time>
      </trkpt>
      <trkpt lat="49.70859" lon="0.31219">
        <ele>102.1</ele>
        <time>2020-06-18T07:05:54Z</time>
      </trkpt>
      <trkpt lat="49.7086" lon="0.31225">
        <ele>102.1</ele>
        <time>2020-06-18T07:05:55Z</time>
      </trkpt>
      <trkpt lat="49.70863" lon="0.31231">
        <ele>102.2</ele>
        <time>2020-06-18T07:05:56Z</time>
      </trkpt>
      <trkpt lat="49.70865" lon="0.31238">
        <ele>102.2</ele>
        <time>2020-06-18T07:05:57Z</time>
      </trkpt>
      <trkpt lat="49.70868" lon="0.31244">
        <ele>102.2</ele>
        <time>2020-06-18T07:05:58Z</time>
      </trkpt>
      <trkpt lat="49.70871" lon="0.31251">
        <ele>102.3</ele>
        <time>2020-06-18T07:05:59Z</time>
      </trkpt>
      <trkpt lat="49.70873" lon="0.31257">
        <ele>102.3</ele>
        <time>2020-06-18T07:06:00Z</time>
      </trkpt>
      <trkpt lat="49.70876" lon="0.31265">
        <ele>102.4</ele>
        <time>2020-06-18T07:06:01Z</time>
      </trkpt>
      <trkpt lat="49.7088" lon="0.31271">
        <ele>102.4</ele>
        <time>2020-06-18T07:06:02Z</time>
      </trkpt>
      <trkpt lat="49.70884" lon="0.31277">
        <ele>102.4</ele>
        <time>2020-06-18T07:06:03Z</time>
      </trkpt>
      <trkpt lat="49.70887" lon="0.31283">
        <ele>102.4</ele>
        <time>2020-06-18T07:06:04Z</time>
      </trkpt>
      <trkpt lat="49.7089" lon="0.31289">
        <ele>102.5</ele>
        <time>2020-06-18T07:06:05Z</time>
      </trkpt>
      <trkpt lat="49.70894" lon="0.31296">
        <ele>102.5</ele>
        <time>2020-06-18T07:06:06Z</time>
      </trkpt>
      <trkpt lat="49.70897" lon="0.31303">
        <ele>102.5</ele>
        <time>2020-06-18T07:06:07Z</time>
      </trkpt>
      <trkpt lat="49.70901" lon="0.31309">
        <ele>102.5</ele>
        <time>2020-06-18T07:06:08Z</time>
      </trkpt>
      <trkpt lat="49.70904" lon="0.31316">
        <ele>102.6</ele>
        <time>2020-06-18T07:06:09Z</time>
      </trkpt>
      <trkpt lat="49.70908" lon="0.31322">
        <ele>102.7</ele>
        <time>2020-06-18T07:06:10Z</time>
      </trkpt>
      <trkpt lat="49.70912" lon="0.31327">
        <ele>102.9</ele>
        <time>2020-06-18T07:06:11Z</time>
      </trkpt>
      <trkpt lat="49.70917" lon="0.31334">
        <ele>102.9</ele>
        <time>2020-06-18T07:06:12Z</time>
      </trkpt>
      <trkpt lat="49.7092" lon="0.31341">
        <ele>103</ele>
        <time>2020-06-18T07:06:13Z</time>
      </trkpt>
      <trkpt lat="49.70925" lon="0.31347">
        <ele>103.1</ele>
        <time>2020-06-18T07:06:14Z</time>
      </trkpt>
      <trkpt lat="49.70929" lon="0.31354">
        <ele>103.1</ele>
        <time>2020-06-18T07:06:15Z</time>
      </trkpt>
      <trkpt lat="49.70932" lon="0.31362">
        <ele>103.1</ele>
        <time>2020-06-18T07:06:16Z</time>
      </trkpt>
      <trkpt lat="49.70935" lon="0.31369">
        <ele>103.1</ele>
        <time>2020-06-18T07:06:17Z</time>
      </trkpt>
      <trkpt lat="49.70939" lon="0.31376">
        <ele>103.1</ele>
        <time>2020-06-18T07:06:18Z</time>
      </trkpt>
      <trkpt lat="49.70943" lon="0.31383">
        <ele>103.1</ele>
        <time>2020-06-18T07:06:19Z</time>
      </trkpt>
      <trkpt lat="49.70947" lon="0.3139">
        <ele>103.1</ele>
        <time>2020-06-18T07:06:20Z</time>
      </trkpt>
      <trkpt lat="49.70951" lon="0.31396">
        <ele>103.1</ele>
        <time>2020-06-18T07:06:21Z</time>
      </trkpt>
      <trkpt lat="49.70955" lon="0.31403">
        <ele>103.1</ele>
        <time>2020-06-18T07:06:22Z</time>
      </trkpt>
      <trkpt lat="49.70958" lon="0.31409">
        <ele>103.1</ele>
        <time>2020-06-18T07:06:23Z</time>
      </trkpt>
      <trkpt lat="49.70962" lon="0.31416">
        <ele>103.1</ele>
        <time>2020-06-18T07:06:24Z</time>
      </trkpt>
      <trkpt lat="49.70966" lon="0.31422">
        <ele>103.1</ele>
        <time>2020-06-18T07:06:25Z</time>
      </trkpt>
      <trkpt lat="49.70969" lon="0.31429">
        <ele>103.1</ele>
        <time>2020-06-18T07:06:26Z</time>
      </trkpt>
      <trkpt lat="49.70973" lon="0.31437">
        <ele>103.1</ele>
        <time>2020-06-18T07:06:27Z</time>
      </trkpt>
      <trkpt lat="49.70977" lon="0.31445">
        <ele>103.1</ele>
        <time>2020-06-18T07:06:28Z</time>
      </trkpt>
      <trkpt lat="49.70981" lon="0.31452">
        <ele>103</ele>
        <time>2020-06-18T07:06:29Z</time>
      </trkpt>
      <trkpt lat="49.70985" lon="0.3146">
        <ele>103</ele>
        <time>2020-06-18T07:06:30Z</time>
      </trkpt>
      <trkpt lat="49.7099" lon="0.31467">
        <ele>103</ele>
        <time>2020-06-18T07:06:31Z</time>
      </trkpt>
      <trkpt lat="49.70995" lon="0.31474">
        <ele>103</ele>
        <time>2020-06-18T07:06:32Z</time>
      </trkpt>
      <trkpt lat="49.70998" lon="0.31481">
        <ele>103</ele>
        <time>2020-06-18T07:06:33Z</time>
      </trkpt>
      <trkpt lat="49.71001" lon="0.31487">
        <ele>103</ele>
        <time>2020-06-18T07:06:34Z</time>
      </trkpt>
      <trkpt lat="49.71005" lon="0.31494">
        <ele>102.9</ele>
        <time>2020-06-18T07:06:35Z</time>
      </trkpt>
      <trkpt lat="49.71009" lon="0.31501">
        <ele>102.9</ele>
        <time>2020-06-18T07:06:36Z</time>
      </trkpt>
      <trkpt lat="49.71013" lon="0.31508">
        <ele>102.9</ele>
        <time>2020-06-18T07:06:37Z</time>
      </trkpt>
      <trkpt lat="49.71017" lon="0.31514">
        <ele>102.9</ele>
        <time>2020-06-18T07:06:38Z</time>
      </trkpt>
      <trkpt lat="49.71021" lon="0.31522">
        <ele>102.9</ele>
        <time>2020-06-18T07:06:39Z</time>
      </trkpt>
      <trkpt lat="49.71026" lon="0.3153">
        <ele>102.9</ele>
        <time>2020-06-18T07:06:40Z</time>
      </trkpt>
      <trkpt lat="49.7103" lon="0.31538">
        <ele>102.9</ele>
        <time>2020-06-18T07:06:41Z</time>
      </trkpt>
      <trkpt lat="49.71035" lon="0.31545">
        <ele>102.9</ele>
        <time>2020-06-18T07:06:42Z</time>
      </trkpt>
      <trkpt lat="49.71038" lon="0.31551">
        <ele>102.9</ele>
        <time>2020-06-18T07:06:43Z</time>
      </trkpt>
      <trkpt lat="49.71042" lon="0.31559">
        <ele>102.9</ele>
        <time>2020-06-18T07:06:44Z</time>
      </trkpt>
      <trkpt lat="49.71046" lon="0.31565">
        <ele>102.8</ele>
        <time>2020-06-18T07:06:45Z</time>
      </trkpt>
      <trkpt lat="49.7105" lon="0.31572">
        <ele>102.8</ele>
        <time>2020-06-18T07:06:46Z</time>
      </trkpt>
      <trkpt lat="49.71054" lon="0.31579">
        <ele>102.8</ele>
        <time>2020-06-18T07:06:47Z</time>
      </trkpt>
      <trkpt lat="49.71058" lon="0.31587">
        <ele>102.7</ele>
        <time>2020-06-18T07:06:48Z</time>
      </trkpt>
      <trkpt lat="49.71061" lon="0.31594">
        <ele>102.7</ele>
        <time>2020-06-18T07:06:49Z</time>
      </trkpt>
      <trkpt lat="49.71065" lon="0.31602">
        <ele>102.6</ele>
        <time>2020-06-18T07:06:50Z</time>
      </trkpt>
      <trkpt lat="49.71069" lon="0.3161">
        <ele>102.6</ele>
        <time>2020-06-18T07:06:51Z</time>
      </trkpt>
      <trkpt lat="49.71073" lon="0.31618">
        <ele>102.5</ele>
        <time>2020-06-18T07:06:52Z</time>
      </trkpt>
      <trkpt lat="49.71077" lon="0.31624">
        <ele>102.5</ele>
        <time>2020-06-18T07:06:53Z</time>
      </trkpt>
      <trkpt lat="49.71081" lon="0.31632">
        <ele>102.5</ele>
        <time>2020-06-18T07:06:54Z</time>
      </trkpt>
      <trkpt lat="49.71085" lon="0.31639">
        <ele>102.4</ele>
        <time>2020-06-18T07:06:55Z</time>
      </trkpt>
      <trkpt lat="49.7109" lon="0.31646">
        <ele>102.4</ele>
        <time>2020-06-18T07:06:56Z</time>
      </trkpt>
      <trkpt lat="49.71093" lon="0.31655">
        <ele>102.4</ele>
        <time>2020-06-18T07:06:57Z</time>
      </trkpt>
      <trkpt lat="49.71097" lon="0.31662">
        <ele>102.3</ele>
        <time>2020-06-18T07:06:58Z</time>
      </trkpt>
      <trkpt lat="49.71101" lon="0.31671">
        <ele>102.3</ele>
        <time>2020-06-18T07:06:59Z</time>
      </trkpt>
      <trkpt lat="49.71105" lon="0.31679">
        <ele>102.2</ele>
        <time>2020-06-18T07:07:00Z</time>
      </trkpt>
      <trkpt lat="49.71109" lon="0.31688">
        <ele>102.1</ele>
        <time>2020-06-18T07:07:01Z</time>
      </trkpt>
      <trkpt lat="49.71112" lon="0.31697">
        <ele>102</ele>
        <time>2020-06-18T07:07:02Z</time>
      </trkpt>
      <trkpt lat="49.71116" lon="0.31706">
        <ele>101.9</ele>
        <time>2020-06-18T07:07:03Z</time>
      </trkpt>
      <trkpt lat="49.71119" lon="0.31714">
        <ele>101.8</ele>
        <time>2020-06-18T07:07:04Z</time>
      </trkpt>
      <trkpt lat="49.71121" lon="0.31722">
        <ele>101.7</ele>
        <time>2020-06-18T07:07:05Z</time>
      </trkpt>
      <trkpt lat="49.71124" lon="0.3173">
        <ele>101.6</ele>
        <time>2020-06-18T07:07:06Z</time>
      </trkpt>
      <trkpt lat="49.71127" lon="0.3174">
        <ele>101.5</ele>
        <time>2020-06-18T07:07:07Z</time>
      </trkpt>
      <trkpt lat="49.71131" lon="0.3175">
        <ele>101.4</ele>
        <time>2020-06-18T07:07:08Z</time>
      </trkpt>
      <trkpt lat="49.71134" lon="0.3176">
        <ele>101.2</ele>
        <time>2020-06-18T07:07:09Z</time>
      </trkpt>
      <trkpt lat="49.71138" lon="0.31769">
        <ele>101.1</ele>
        <time>2020-06-18T07:07:10Z</time>
      </trkpt>
      <trkpt lat="49.71141" lon="0.31779">
        <ele>100.9</ele>
        <time>2020-06-18T07:07:11Z</time>
      </trkpt>
      <trkpt lat="49.71145" lon="0.31789">
        <ele>100.7</ele>
        <time>2020-06-18T07:07:12Z</time>
      </trkpt>
      <trkpt lat="49.71148" lon="0.31799">
        <ele>100.6</ele>
        <time>2020-06-18T07:07:13Z</time>
      </trkpt>
      <trkpt lat="49.71151" lon="0.31808">
        <ele>100.4</ele>
        <time>2020-06-18T07:07:14Z</time>
      </trkpt>
      <trkpt lat="49.71155" lon="0.31818">
        <ele>100.3</ele>
        <time>2020-06-18T07:07:15Z</time>
      </trkpt>
      <trkpt lat="49.71158" lon="0.31828">
        <ele>100.1</ele>
        <time>2020-06-18T07:07:16Z</time>
      </trkpt>
      <trkpt lat="49.71162" lon="0.31837">
        <ele>100</ele>
        <time>2020-06-18T07:07:17Z</time>
      </trkpt>
      <trkpt lat="49.71166" lon="0.31847">
        <ele>99.9</ele>
        <time>2020-06-18T07:07:18Z</time>
      </trkpt>
      <trkpt lat="49.7117" lon="0.31857">
        <ele>99.8</ele>
        <time>2020-06-18T07:07:19Z</time>
      </trkpt>
      <trkpt lat="49.71173" lon="0.31867">
        <ele>99.7</ele>
        <time>2020-06-18T07:07:20Z</time>
      </trkpt>
      <trkpt lat="49.71177" lon="0.31877">
        <ele>99.6</ele>
        <time>2020-06-18T07:07:21Z</time>
      </trkpt>
      <trkpt lat="49.7118" lon="0.31887">
        <ele>99.5</ele>
        <time>2020-06-18T07:07:22Z</time>
      </trkpt>
      <trkpt lat="49.71184" lon="0.31897">
        <ele>99.3</ele>
        <time>2020-06-18T07:07:23Z</time>
      </trkpt>
      <trkpt lat="49.71187" lon="0.31908">
        <ele>99.2</ele>
        <time>2020-06-18T07:07:24Z</time>
      </trkpt>
      <trkpt lat="49.71191" lon="0.31918">
        <ele>99.1</ele>
        <time>2020-06-18T07:07:25Z</time>
      </trkpt>
      <trkpt lat="49.71194" lon="0.31929">
        <ele>99</ele>
        <time>2020-06-18T07:07:26Z</time>
      </trkpt>
      <trkpt lat="49.71197" lon="0.31939">
        <ele>98.9</ele>
        <time>2020-06-18T07:07:27Z</time>
      </trkpt>
      <trkpt lat="49.71201" lon="0.31949">
        <ele>98.7</ele>
        <time>2020-06-18T07:07:28Z</time>
      </trkpt>
      <trkpt lat="49.71204" lon="0.31958">
        <ele>98.6</ele>
        <time>2020-06-18T07:07:29Z</time>
      </trkpt>
      <trkpt lat="49.71208" lon="0.31967">
        <ele>98.5</ele>
        <time>2020-06-18T07:07:30Z</time>
      </trkpt>
      <trkpt lat="49.71211" lon="0.31976">
        <ele>98.3</ele>
        <time>2020-06-18T07:07:31Z</time>
      </trkpt>
      <trkpt lat="49.71214" lon="0.31986">
        <ele>98.2</ele>
        <time>2020-06-18T07:07:32Z</time>
      </trkpt>
      <trkpt lat="49.71218" lon="0.31996">
        <ele>98</ele>
        <time>2020-06-18T07:07:33Z</time>
      </trkpt>
      <trkpt lat="49.71222" lon="0.32005">
        <ele>97.8</ele>
        <time>2020-06-18T07:07:34Z</time>
      </trkpt>
      <trkpt lat="49.71225" lon="0.32014">
        <ele>97.7</ele>
        <time>2020-06-18T07:07:35Z</time>
      </trkpt>
      <trkpt lat="49.71229" lon="0.32024">
        <ele>97.5</ele>
        <time>2020-06-18T07:07:36Z</time>
      </trkpt>
      <trkpt lat="49.71233" lon="0.32033">
        <ele>97.2</ele>
        <time>2020-06-18T07:07:37Z</time>
      </trkpt>
      <trkpt lat="49.71237" lon="0.32043">
        <ele>96.9</ele>
        <time>2020-06-18T07:07:38Z</time>
      </trkpt>
      <trkpt lat="49.71241" lon="0.32054">
        <ele>96.6</ele>
        <time>2020-06-18T07:07:39Z</time>
      </trkpt>
      <trkpt lat="49.71246" lon="0.32064">
        <ele>96.3</ele>
        <time>2020-06-18T07:07:40Z</time>
      </trkpt>
      <trkpt lat="49.71251" lon="0.32073">
        <ele>96.1</ele>
        <time>2020-06-18T07:07:41Z</time>
      </trkpt>
      <trkpt lat="49.71255" lon="0.32083">
        <ele>95.8</ele>
        <time>2020-06-18T07:07:42Z</time>
      </trkpt>
      <trkpt lat="49.71261" lon="0.32094">
        <ele>95.5</ele>
        <time>2020-06-18T07:07:43Z</time>
      </trkpt>
      <trkpt lat="49.71266" lon="0.32104">
        <ele>95.1</ele>
        <time>2020-06-18T07:07:44Z</time>
      </trkpt>
      <trkpt lat="49.71272" lon="0.32113">
        <ele>94.7</ele>
        <time>2020-06-18T07:07:45Z</time>
      </trkpt>
      <trkpt lat="49.71277" lon="0.32123">
        <ele>94.4</ele>
        <time>2020-06-18T07:07:46Z</time>
      </trkpt>
      <trkpt lat="49.71283" lon="0.32132">
        <ele>94</ele>
        <time>2020-06-18T07:07:47Z</time>
      </trkpt>
      <trkpt lat="49.71288" lon="0.32141">
        <ele>93.6</ele>
        <time>2020-06-18T07:07:48Z</time>
      </trkpt>
      <trkpt lat="49.71294" lon="0.32151">
        <ele>93.2</ele>
        <time>2020-06-18T07:07:49Z</time>
      </trkpt>
      <trkpt lat="49.71299" lon="0.32161">
        <ele>92.8</ele>
        <time>2020-06-18T07:07:50Z</time>
      </trkpt>
      <trkpt lat="49.71305" lon="0.3217">
        <ele>92.4</ele>
        <time>2020-06-18T07:07:51Z</time>
      </trkpt>
      <trkpt lat="49.71311" lon="0.3218">
        <ele>92</ele>
        <time>2020-06-18T07:07:52Z</time>
      </trkpt>
      <trkpt lat="49.71317" lon="0.32191">
        <ele>91.6</ele>
        <time>2020-06-18T07:07:53Z</time>
      </trkpt>
      <trkpt lat="49.71322" lon="0.32201">
        <ele>91.3</ele>
        <time>2020-06-18T07:07:54Z</time>
      </trkpt>
      <trkpt lat="49.71328" lon="0.32212">
        <ele>90.9</ele>
        <time>2020-06-18T07:07:55Z</time>
      </trkpt>
      <trkpt lat="49.71334" lon="0.32222">
        <ele>90.6</ele>
        <time>2020-06-18T07:07:56Z</time>
      </trkpt>
      <trkpt lat="49.7134" lon="0.32232">
        <ele>90.4</ele>
        <time>2020-06-18T07:07:57Z</time>
      </trkpt>
      <trkpt lat="49.71346" lon="0.32242">
        <ele>90.2</ele>
        <time>2020-06-18T07:07:58Z</time>
      </trkpt>
      <trkpt lat="49.71353" lon="0.32253">
        <ele>89.9</ele>
        <time>2020-06-18T07:07:59Z</time>
      </trkpt>
      <trkpt lat="49.71359" lon="0.32263">
        <ele>89.6</ele>
        <time>2020-06-18T07:08:00Z</time>
      </trkpt>
      <trkpt lat="49.71365" lon="0.32272">
        <ele>89.2</ele>
        <time>2020-06-18T07:08:01Z</time>
      </trkpt>
      <trkpt lat="49.71371" lon="0.32283">
        <ele>88.9</ele>
        <time>2020-06-18T07:08:02Z</time>
      </trkpt>
      <trkpt lat="49.71377" lon="0.32294">
        <ele>88.6</ele>
        <time>2020-06-18T07:08:03Z</time>
      </trkpt>
      <trkpt lat="49.71383" lon="0.32305">
        <ele>88.5</ele>
        <time>2020-06-18T07:08:04Z</time>
      </trkpt>
      <trkpt lat="49.71389" lon="0.32316">
        <ele>88.4</ele>
        <time>2020-06-18T07:08:05Z</time>
      </trkpt>
      <trkpt lat="49.71395" lon="0.32326">
        <ele>88.5</ele>
        <time>2020-06-18T07:08:06Z</time>
      </trkpt>
      <trkpt lat="49.71401" lon="0.32336">
        <ele>88.6</ele>
        <time>2020-06-18T07:08:07Z</time>
      </trkpt>
      <trkpt lat="49.71406" lon="0.32346">
        <ele>88.8</ele>
        <time>2020-06-18T07:08:08Z</time>
      </trkpt>
      <trkpt lat="49.71412" lon="0.32356">
        <ele>89.1</ele>
        <time>2020-06-18T07:08:09Z</time>
      </trkpt>
      <trkpt lat="49.71417" lon="0.32365">
        <ele>89.3</ele>
        <time>2020-06-18T07:08:10Z</time>
      </trkpt>
      <trkpt lat="49.71422" lon="0.32374">
        <ele>89.6</ele>
        <time>2020-06-18T07:08:11Z</time>
      </trkpt>
      <trkpt lat="49.71426" lon="0.32381">
        <ele>89.8</ele>
        <time>2020-06-18T07:08:12Z</time>
      </trkpt>
      <trkpt lat="49.71431" lon="0.32389">
        <ele>90.1</ele>
        <time>2020-06-18T07:08:13Z</time>
      </trkpt>
      <trkpt lat="49.71435" lon="0.32397">
        <ele>90.4</ele>
        <time>2020-06-18T07:08:14Z</time>
      </trkpt>
      <trkpt lat="49.7144" lon="0.32405">
        <ele>90.7</ele>
        <time>2020-06-18T07:08:15Z</time>
      </trkpt>
      <trkpt lat="49.71444" lon="0.32412">
        <ele>91</ele>
        <time>2020-06-18T07:08:16Z</time>
      </trkpt>
      <trkpt lat="49.71448" lon="0.3242">
        <ele>91.3</ele>
        <time>2020-06-18T07:08:17Z</time>
      </trkpt>
      <trkpt lat="49.71452" lon="0.32427">
        <ele>91.5</ele>
        <time>2020-06-18T07:08:18Z</time>
      </trkpt>
      <trkpt lat="49.71455" lon="0.32434">
        <ele>91.8</ele>
        <time>2020-06-18T07:08:19Z</time>
      </trkpt>
      <trkpt lat="49.71459" lon="0.32441">
        <ele>92</ele>
        <time>2020-06-18T07:08:20Z</time>
      </trkpt>
      <trkpt lat="49.71463" lon="0.32448">
        <ele>92.3</ele>
        <time>2020-06-18T07:08:21Z</time>
      </trkpt>
      <trkpt lat="49.71466" lon="0.32455">
        <ele>92.5</ele>
        <time>2020-06-18T07:08:22Z</time>
      </trkpt>
      <trkpt lat="49.7147" lon="0.32462">
        <ele>92.8</ele>
        <time>2020-06-18T07:08:23Z</time>
      </trkpt>
      <trkpt lat="49.71473" lon="0.32468">
        <ele>93</ele>
        <time>2020-06-18T07:08:24Z</time>
      </trkpt>
      <trkpt lat="49.71476" lon="0.32474">
        <ele>93.2</ele>
        <time>2020-06-18T07:08:25Z</time>
      </trkpt>
      <trkpt lat="49.7148" lon="0.3248">
        <ele>93.4</ele>
        <time>2020-06-18T07:08:26Z</time>
      </trkpt>
      <trkpt lat="49.71483" lon="0.32486">
        <ele>93.6</ele>
        <time>2020-06-18T07:08:27Z</time>
      </trkpt>
      <trkpt lat="49.71486" lon="0.32491">
        <ele>93.7</ele>
        <time>2020-06-18T07:08:28Z</time>
      </trkpt>
      <trkpt lat="49.7149" lon="0.32496">
        <ele>93.9</ele>
        <time>2020-06-18T07:08:29Z</time>
      </trkpt>
      <trkpt lat="49.71493" lon="0.32502">
        <ele>94.1</ele>
        <time>2020-06-18T07:08:30Z</time>
      </trkpt>
      <trkpt lat="49.71497" lon="0.32507">
        <ele>94.3</ele>
        <time>2020-06-18T07:08:31Z</time>
      </trkpt>
      <trkpt lat="49.71501" lon="0.32512">
        <ele>94.4</ele>
        <time>2020-06-18T07:08:32Z</time>
      </trkpt>
      <trkpt lat="49.71504" lon="0.32517">
        <ele>94.6</ele>
        <time>2020-06-18T07:08:33Z</time>
      </trkpt>
      <trkpt lat="49.71508" lon="0.32522">
        <ele>94.8</ele>
        <time>2020-06-18T07:08:34Z</time>
      </trkpt>
      <trkpt lat="49.71511" lon="0.32527">
        <ele>95</ele>
        <time>2020-06-18T07:08:35Z</time>
      </trkpt>
      <trkpt lat="49.71515" lon="0.32533">
        <ele>95.2</ele>
        <time>2020-06-18T07:08:36Z</time>
      </trkpt>
      <trkpt lat="49.71518" lon="0.32538">
        <ele>95.4</ele>
        <time>2020-06-18T07:08:37Z</time>
      </trkpt>
      <trkpt lat="49.71521" lon="0.32542">
        <ele>95.6</ele>
        <time>2020-06-18T07:08:38Z</time>
      </trkpt>
      <trkpt lat="49.71525" lon="0.32547">
        <ele>95.8</ele>
        <time>2020-06-18T07:08:39Z</time>
      </trkpt>
      <trkpt lat="49.71528" lon="0.32552">
        <ele>96</ele>
        <time>2020-06-18T07:08:40Z</time>
      </trkpt>
      <trkpt lat="49.71532" lon="0.32556">
        <ele>96.1</ele>
        <time>2020-06-18T07:08:41Z</time>
      </trkpt>
      <trkpt lat="49.71535" lon="0.3256">
        <ele>96.3</ele>
        <time>2020-06-18T07:08:42Z</time>
      </trkpt>
      <trkpt lat="49.71539" lon="0.32563">
        <ele>96.4</ele>
        <time>2020-06-18T07:08:43Z</time>
      </trkpt>
      <trkpt lat="49.71543" lon="0.32568">
        <ele>96.6</ele>
        <time>2020-06-18T07:08:44Z</time>
      </trkpt>
      <trkpt lat="49.71547" lon="0.32572">
        <ele>96.8</ele>
        <time>2020-06-18T07:08:45Z</time>
      </trkpt>
      <trkpt lat="49.71551" lon="0.32575">
        <ele>96.9</ele>
        <time>2020-06-18T07:08:46Z</time>
      </trkpt>
      <trkpt lat="49.71554" lon="0.32579">
        <ele>97.1</ele>
        <time>2020-06-18T07:08:47Z</time>
      </trkpt>
      <trkpt lat="49.71558" lon="0.32584">
        <ele>97.2</ele>
        <time>2020-06-18T07:08:48Z</time>
      </trkpt>
      <trkpt lat="49.71562" lon="0.32587">
        <ele>97.4</ele>
        <time>2020-06-18T07:08:49Z</time>
      </trkpt>
      <trkpt lat="49.71565" lon="0.32592">
        <ele>97.5</ele>
        <time>2020-06-18T07:08:50Z</time>
      </trkpt>
      <trkpt lat="49.71569" lon="0.32597">
        <ele>97.7</ele>
        <time>2020-06-18T07:08:51Z</time>
      </trkpt>
      <trkpt lat="49.71573" lon="0.32599">
        <ele>97.8</ele>
        <time>2020-06-18T07:08:52Z</time>
      </trkpt>
      <trkpt lat="49.71577" lon="0.32603">
        <ele>97.9</ele>
        <time>2020-06-18T07:08:53Z</time>
      </trkpt>
      <trkpt lat="49.71581" lon="0.32607">
        <ele>98.1</ele>
        <time>2020-06-18T07:08:54Z</time>
      </trkpt>
      <trkpt lat="49.71585" lon="0.32611">
        <ele>98.2</ele>
        <time>2020-06-18T07:08:55Z</time>
      </trkpt>
      <trkpt lat="49.71588" lon="0.32614">
        <ele>98.3</ele>
        <time>2020-06-18T07:08:56Z</time>
      </trkpt>
      <trkpt lat="49.71592" lon="0.32618">
        <ele>98.4</ele>
        <time>2020-06-18T07:08:57Z</time>
      </trkpt>
      <trkpt lat="49.71596" lon="0.32623">
        <ele>98.5</ele>
        <time>2020-06-18T07:08:58Z</time>
      </trkpt>
      <trkpt lat="49.716" lon="0.32627">
        <ele>98.6</ele>
        <time>2020-06-18T07:08:59Z</time>
      </trkpt>
      <trkpt lat="49.71604" lon="0.3263">
        <ele>98.7</ele>
        <time>2020-06-18T07:09:00Z</time>
      </trkpt>
      <trkpt lat="49.71607" lon="0.32634">
        <ele>98.8</ele>
        <time>2020-06-18T07:09:01Z</time>
      </trkpt>
      <trkpt lat="49.71611" lon="0.32639">
        <ele>98.9</ele>
        <time>2020-06-18T07:09:02Z</time>
      </trkpt>
      <trkpt lat="49.71615" lon="0.32643">
        <ele>98.9</ele>
        <time>2020-06-18T07:09:03Z</time>
      </trkpt>
      <trkpt lat="49.7162" lon="0.32647">
        <ele>99</ele>
        <time>2020-06-18T07:09:04Z</time>
      </trkpt>
      <trkpt lat="49.71624" lon="0.32651">
        <ele>99</ele>
        <time>2020-06-18T07:09:05Z</time>
      </trkpt>
      <trkpt lat="49.71628" lon="0.32655">
        <ele>99.1</ele>
        <time>2020-06-18T07:09:06Z</time>
      </trkpt>
      <trkpt lat="49.71633" lon="0.32658">
        <ele>99.1</ele>
        <time>2020-06-18T07:09:07Z</time>
      </trkpt>
      <trkpt lat="49.71637" lon="0.32662">
        <ele>99.1</ele>
        <time>2020-06-18T07:09:08Z</time>
      </trkpt>
      <trkpt lat="49.71642" lon="0.32666">
        <ele>99.1</ele>
        <time>2020-06-18T07:09:09Z</time>
      </trkpt>
      <trkpt lat="49.71646" lon="0.3267">
        <ele>99.1</ele>
        <time>2020-06-18T07:09:10Z</time>
      </trkpt>
      <trkpt lat="49.7165" lon="0.32675">
        <ele>99.2</ele>
        <time>2020-06-18T07:09:11Z</time>
      </trkpt>
      <trkpt lat="49.71655" lon="0.32679">
        <ele>99.2</ele>
        <time>2020-06-18T07:09:12Z</time>
      </trkpt>
      <trkpt lat="49.7166" lon="0.32683">
        <ele>99.3</ele>
        <time>2020-06-18T07:09:13Z</time>
      </trkpt>
      <trkpt lat="49.71664" lon="0.32687">
        <ele>99.2</ele>
        <time>2020-06-18T07:09:14Z</time>
      </trkpt>
      <trkpt lat="49.71668" lon="0.32692">
        <ele>99.2</ele>
        <time>2020-06-18T07:09:15Z</time>
      </trkpt>
      <trkpt lat="49.71672" lon="0.32696">
        <ele>99.1</ele>
        <time>2020-06-18T07:09:16Z</time>
      </trkpt>
      <trkpt lat="49.71676" lon="0.327">
        <ele>99.1</ele>
        <time>2020-06-18T07:09:17Z</time>
      </trkpt>
      <trkpt lat="49.7168" lon="0.32706">
        <ele>99</ele>
        <time>2020-06-18T07:09:18Z</time>
      </trkpt>
      <trkpt lat="49.71682" lon="0.32714">
        <ele>98.8</ele>
        <time>2020-06-18T07:09:19Z</time>
      </trkpt>
      <trkpt lat="49.71681" lon="0.32724">
        <ele>98.6</ele>
        <time>2020-06-18T07:09:20Z</time>
      </trkpt>
      <trkpt lat="49.71679" lon="0.32733">
        <ele>98.5</ele>
        <time>2020-06-18T07:09:21Z</time>
      </trkpt>
      <trkpt lat="49.71675" lon="0.3274">
        <ele>98.4</ele>
        <time>2020-06-18T07:09:22Z</time>
      </trkpt>
      <trkpt lat="49.71672" lon="0.32747">
        <ele>98.3</ele>
        <time>2020-06-18T07:09:23Z</time>
      </trkpt>
      <trkpt lat="49.71668" lon="0.32754">
        <ele>98.2</ele>
        <time>2020-06-18T07:09:24Z</time>
      </trkpt>
      <trkpt lat="49.71664" lon="0.32761">
        <ele>98.1</ele>
        <time>2020-06-18T07:09:25Z</time>
      </trkpt>
      <trkpt lat="49.71661" lon="0.32769">
        <ele>98</ele>
        <time>2020-06-18T07:09:26Z</time>
      </trkpt>
      <trkpt lat="49.7166" lon="0.32778">
        <ele>97.9</ele>
        <time>2020-06-18T07:09:27Z</time>
      </trkpt>
      <trkpt lat="49.71659" lon="0.32788">
        <ele>97.8</ele>
        <time>2020-06-18T07:09:28Z</time>
      </trkpt>
      <trkpt lat="49.71657" lon="0.32798">
        <ele>97.5</ele>
        <time>2020-06-18T07:09:29Z</time>
      </trkpt>
      <trkpt lat="49.71658" lon="0.32808">
        <ele>97.3</ele>
        <time>2020-06-18T07:09:30Z</time>
      </trkpt>
      <trkpt lat="49.71659" lon="0.32818">
        <ele>97.2</ele>
        <time>2020-06-18T07:09:31Z</time>
      </trkpt>
      <trkpt lat="49.71659" lon="0.32827">
        <ele>97</ele>
        <time>2020-06-18T07:09:32Z</time>
      </trkpt>
      <trkpt lat="49.71659" lon="0.32836">
        <ele>96.9</ele>
        <time>2020-06-18T07:09:33Z</time>
      </trkpt>
      <trkpt lat="49.71659" lon="0.32845">
        <ele>96.8</ele>
        <time>2020-06-18T07:09:34Z</time>
      </trkpt>
      <trkpt lat="49.71659" lon="0.32854">
        <ele>96.8</ele>
        <time>2020-06-18T07:09:35Z</time>
      </trkpt>
      <trkpt lat="49.71659" lon="0.32864">
        <ele>96.7</ele>
        <time>2020-06-18T07:09:36Z</time>
      </trkpt>
      <trkpt lat="49.7166" lon="0.32874">
        <ele>96.6</ele>
        <time>2020-06-18T07:09:37Z</time>
      </trkpt>
      <trkpt lat="49.71661" lon="0.32884">
        <ele>96.6</ele>
        <time>2020-06-18T07:09:38Z</time>
      </trkpt>
      <trkpt lat="49.71662" lon="0.32894">
        <ele>96.5</ele>
        <time>2020-06-18T07:09:39Z</time>
      </trkpt>
      <trkpt lat="49.71662" lon="0.32905">
        <ele>96.5</ele>
        <time>2020-06-18T07:09:40Z</time>
      </trkpt>
      <trkpt lat="49.71664" lon="0.32914">
        <ele>96.5</ele>
        <time>2020-06-18T07:09:41Z</time>
      </trkpt>
      <trkpt lat="49.71666" lon="0.32924">
        <ele>96.5</ele>
        <time>2020-06-18T07:09:42Z</time>
      </trkpt>
      <trkpt lat="49.71668" lon="0.32933">
        <ele>96.6</ele>
        <time>2020-06-18T07:09:43Z</time>
      </trkpt>
      <trkpt lat="49.71671" lon="0.32942">
        <ele>96.6</ele>
        <time>2020-06-18T07:09:44Z</time>
      </trkpt>
      <trkpt lat="49.71674" lon="0.3295">
        <ele>96.6</ele>
        <time>2020-06-18T07:09:45Z</time>
      </trkpt>
      <trkpt lat="49.71676" lon="0.32958">
        <ele>96.6</ele>
        <time>2020-06-18T07:09:46Z</time>
      </trkpt>
      <trkpt lat="49.71679" lon="0.32966">
        <ele>96.7</ele>
        <time>2020-06-18T07:09:47Z</time>
      </trkpt>
      <trkpt lat="49.71682" lon="0.32973">
        <ele>96.7</ele>
        <time>2020-06-18T07:09:48Z</time>
      </trkpt>
      <trkpt lat="49.71685" lon="0.32981">
        <ele>96.8</ele>
        <time>2020-06-18T07:09:49Z</time>
      </trkpt>
      <trkpt lat="49.71687" lon="0.32989">
        <ele>96.9</ele>
        <time>2020-06-18T07:09:50Z</time>
      </trkpt>
      <trkpt lat="49.7169" lon="0.32997">
        <ele>97</ele>
        <time>2020-06-18T07:09:51Z</time>
      </trkpt>
      <trkpt lat="49.71693" lon="0.33004">
        <ele>97.1</ele>
        <time>2020-06-18T07:09:52Z</time>
      </trkpt>
      <trkpt lat="49.71696" lon="0.33012">
        <ele>97.2</ele>
        <time>2020-06-18T07:09:53Z</time>
      </trkpt>
      <trkpt lat="49.71698" lon="0.33019">
        <ele>97.3</ele>
        <time>2020-06-18T07:09:54Z</time>
      </trkpt>
      <trkpt lat="49.71701" lon="0.33027">
        <ele>97.4</ele>
        <time>2020-06-18T07:09:55Z</time>
      </trkpt>
      <trkpt lat="49.71703" lon="0.33034">
        <ele>97.4</ele>
        <time>2020-06-18T07:09:56Z</time>
      </trkpt>
      <trkpt lat="49.71705" lon="0.33043">
        <ele>97.5</ele>
        <time>2020-06-18T07:09:57Z</time>
      </trkpt>
      <trkpt lat="49.71708" lon="0.33051">
        <ele>97.6</ele>
        <time>2020-06-18T07:09:58Z</time>
      </trkpt>
      <trkpt lat="49.7171" lon="0.3306">
        <ele>97.7</ele>
        <time>2020-06-18T07:09:59Z</time>
      </trkpt>
      <trkpt lat="49.71713" lon="0.33068">
        <ele>97.9</ele>
        <time>2020-06-18T07:10:00Z</time>
      </trkpt>
      <trkpt lat="49.71715" lon="0.33077">
        <ele>98</ele>
        <time>2020-06-18T07:10:01Z</time>
      </trkpt>
      <trkpt lat="49.71717" lon="0.33085">
        <ele>98.2</ele>
        <time>2020-06-18T07:10:02Z</time>
      </trkpt>
      <trkpt lat="49.71719" lon="0.33093">
        <ele>98.4</ele>
        <time>2020-06-18T07:10:03Z</time>
      </trkpt>
      <trkpt lat="49.7172" lon="0.33101">
        <ele>98.5</ele>
        <time>2020-06-18T07:10:04Z</time>
      </trkpt>
      <trkpt lat="49.71721" lon="0.33109">
        <ele>98.7</ele>
        <time>2020-06-18T07:10:05Z</time>
      </trkpt>
      <trkpt lat="49.71722" lon="0.33117">
        <ele>98.8</ele>
        <time>2020-06-18T07:10:06Z</time>
      </trkpt>
      <trkpt lat="49.71723" lon="0.33125">
        <ele>99</ele>
        <time>2020-06-18T07:10:07Z</time>
      </trkpt>
      <trkpt lat="49.71724" lon="0.33132">
        <ele>99.1</ele>
        <time>2020-06-18T07:10:08Z</time>
      </trkpt>
      <trkpt lat="49.71725" lon="0.3314">
        <ele>99.2</ele>
        <time>2020-06-18T07:10:09Z</time>
      </trkpt>
      <trkpt lat="49.71726" lon="0.33148">
        <ele>99.3</ele>
        <time>2020-06-18T07:10:10Z</time>
      </trkpt>
      <trkpt lat="49.71727" lon="0.33155">
        <ele>99.4</ele>
        <time>2020-06-18T07:10:11Z</time>
      </trkpt>
      <trkpt lat="49.71728" lon="0.33162">
        <ele>99.5</ele>
        <time>2020-06-18T07:10:12Z</time>
      </trkpt>
      <trkpt lat="49.71729" lon="0.33169">
        <ele>99.6</ele>
        <time>2020-06-18T07:10:13Z</time>
      </trkpt>
      <trkpt lat="49.7173" lon="0.33177">
        <ele>99.7</ele>
        <time>2020-06-18T07:10:14Z</time>
      </trkpt>
      <trkpt lat="49.71731" lon="0.33185">
        <ele>99.8</ele>
        <time>2020-06-18T07:10:15Z</time>
      </trkpt>
      <trkpt lat="49.71732" lon="0.33192">
        <ele>99.8</ele>
        <time>2020-06-18T07:10:16Z</time>
      </trkpt>
      <trkpt lat="49.71733" lon="0.33199">
        <ele>99.8</ele>
        <time>2020-06-18T07:10:17Z</time>
      </trkpt>
      <trkpt lat="49.71735" lon="0.33206">
        <ele>99.9</ele>
        <time>2020-06-18T07:10:18Z</time>
      </trkpt>
      <trkpt lat="49.71736" lon="0.33213">
        <ele>99.9</ele>
        <time>2020-06-18T07:10:19Z</time>
      </trkpt>
      <trkpt lat="49.71737" lon="0.33221">
        <ele>100</ele>
        <time>2020-06-18T07:10:20Z</time>
      </trkpt>
      <trkpt lat="49.71738" lon="0.33228">
        <ele>100.1</ele>
        <time>2020-06-18T07:10:21Z</time>
      </trkpt>
      <trkpt lat="49.71738" lon="0.33236">
        <ele>100.2</ele>
        <time>2020-06-18T07:10:22Z</time>
      </trkpt>
      <trkpt lat="49.71739" lon="0.33244">
        <ele>100.3</ele>
        <time>2020-06-18T07:10:23Z</time>
      </trkpt>
      <trkpt lat="49.71739" lon="0.33253">
        <ele>100.4</ele>
        <time>2020-06-18T07:10:24Z</time>
      </trkpt>
      <trkpt lat="49.71739" lon="0.33261">
        <ele>100.5</ele>
        <time>2020-06-18T07:10:25Z</time>
      </trkpt>
      <trkpt lat="49.71738" lon="0.3327">
        <ele>100.5</ele>
        <time>2020-06-18T07:10:26Z</time>
      </trkpt>
      <trkpt lat="49.71737" lon="0.3328">
        <ele>100.6</ele>
        <time>2020-06-18T07:10:27Z</time>
      </trkpt>
      <trkpt lat="49.71735" lon="0.33289">
        <ele>100.7</ele>
        <time>2020-06-18T07:10:28Z</time>
      </trkpt>
      <trkpt lat="49.71732" lon="0.33298">
        <ele>100.7</ele>
        <time>2020-06-18T07:10:29Z</time>
      </trkpt>
      <trkpt lat="49.7173" lon="0.33306">
        <ele>100.8</ele>
        <time>2020-06-18T07:10:30Z</time>
      </trkpt>
      <trkpt lat="49.71726" lon="0.33313">
        <ele>100.8</ele>
        <time>2020-06-18T07:10:31Z</time>
      </trkpt>
      <trkpt lat="49.71723" lon="0.3332">
        <ele>100.8</ele>
        <time>2020-06-18T07:10:32Z</time>
      </trkpt>
      <trkpt lat="49.71719" lon="0.33326">
        <ele>100.8</ele>
        <time>2020-06-18T07:10:33Z</time>
      </trkpt>
      <trkpt lat="49.71715" lon="0.33331">
        <ele>100.9</ele>
        <time>2020-06-18T07:10:34Z</time>
      </trkpt>
      <trkpt lat="49.71711" lon="0.33336">
        <ele>100.9</ele>
        <time>2020-06-18T07:10:35Z</time>
      </trkpt>
      <trkpt lat="49.71708" lon="0.33341">
        <ele>101</ele>
        <time>2020-06-18T07:10:36Z</time>
      </trkpt>
      <trkpt lat="49.71703" lon="0.33344">
        <ele>101</ele>
        <time>2020-06-18T07:10:37Z</time>
      </trkpt>
      <trkpt lat="49.717" lon="0.33348">
        <ele>101</ele>
        <time>2020-06-18T07:10:38Z</time>
      </trkpt>
      <trkpt lat="49.71698" lon="0.33353">
        <ele>101.1</ele>
        <time>2020-06-18T07:10:39Z</time>
      </trkpt>
      <trkpt lat="49.71697" lon="0.3336">
        <ele>101.1</ele>
        <time>2020-06-18T07:10:40Z</time>
      </trkpt>
      <trkpt lat="49.71697" lon="0.33368">
        <ele>101.1</ele>
        <time>2020-06-18T07:10:41Z</time>
      </trkpt>
      <trkpt lat="49.71697" lon="0.33376">
        <ele>101.2</ele>
        <time>2020-06-18T07:10:42Z</time>
      </trkpt>
      <trkpt lat="49.71698" lon="0.33384">
        <ele>101.3</ele>
        <time>2020-06-18T07:10:43Z</time>
      </trkpt>
      <trkpt lat="49.717" lon="0.33392">
        <ele>101.4</ele>
        <time>2020-06-18T07:10:44Z</time>
      </trkpt>
      <trkpt lat="49.71701" lon="0.334">
        <ele>101.5</ele>
        <time>2020-06-18T07:10:45Z</time>
      </trkpt>
      <trkpt lat="49.71703" lon="0.33409">
        <ele>101.6</ele>
        <time>2020-06-18T07:10:46Z</time>
      </trkpt>
      <trkpt lat="49.71705" lon="0.33417">
        <ele>101.7</ele>
        <time>2020-06-18T07:10:47Z</time>
      </trkpt>
      <trkpt lat="49.71708" lon="0.33426">
        <ele>101.8</ele>
        <time>2020-06-18T07:10:48Z</time>
      </trkpt>
      <trkpt lat="49.7171" lon="0.33433">
        <ele>101.9</ele>
        <time>2020-06-18T07:10:49Z</time>
      </trkpt>
      <trkpt lat="49.71713" lon="0.33441">
        <ele>102</ele>
        <time>2020-06-18T07:10:50Z</time>
      </trkpt>
      <trkpt lat="49.71715" lon="0.33448">
        <ele>102.1</ele>
        <time>2020-06-18T07:10:51Z</time>
      </trkpt>
      <trkpt lat="49.71717" lon="0.33456">
        <ele>102.2</ele>
        <time>2020-06-18T07:10:52Z</time>
      </trkpt>
      <trkpt lat="49.71719" lon="0.33463">
        <ele>102.1</ele>
        <time>2020-06-18T07:10:53Z</time>
      </trkpt>
      <trkpt lat="49.71719" lon="0.33471">
        <ele>102.1</ele>
        <time>2020-06-18T07:10:54Z</time>
      </trkpt>
      <trkpt lat="49.7172" lon="0.33478">
        <ele>102.1</ele>
        <time>2020-06-18T07:10:55Z</time>
      </trkpt>
      <trkpt lat="49.71721" lon="0.33485">
        <ele>102.1</ele>
        <time>2020-06-18T07:10:56Z</time>
      </trkpt>
      <trkpt lat="49.71723" lon="0.33492">
        <ele>102.1</ele>
        <time>2020-06-18T07:10:57Z</time>
      </trkpt>
      <trkpt lat="49.71724" lon="0.33499">
        <ele>102</ele>
        <time>2020-06-18T07:10:58Z</time>
      </trkpt>
      <trkpt lat="49.71725" lon="0.33506">
        <ele>102</ele>
        <time>2020-06-18T07:10:59Z</time>
      </trkpt>
      <trkpt lat="49.71727" lon="0.33513">
        <ele>102</ele>
        <time>2020-06-18T07:11:00Z</time>
      </trkpt>
      <trkpt lat="49.71729" lon="0.33521">
        <ele>101.9</ele>
        <time>2020-06-18T07:11:01Z</time>
      </trkpt>
      <trkpt lat="49.71732" lon="0.33528">
        <ele>101.8</ele>
        <time>2020-06-18T07:11:02Z</time>
      </trkpt>
      <trkpt lat="49.71734" lon="0.33536">
        <ele>101.6</ele>
        <time>2020-06-18T07:11:03Z</time>
      </trkpt>
      <trkpt lat="49.71738" lon="0.33544">
        <ele>101.4</ele>
        <time>2020-06-18T07:11:04Z</time>
      </trkpt>
      <trkpt lat="49.7174" lon="0.33552">
        <ele>101.1</ele>
        <time>2020-06-18T07:11:05Z</time>
      </trkpt>
      <trkpt lat="49.71743" lon="0.3356">
        <ele>100.9</ele>
        <time>2020-06-18T07:11:06Z</time>
      </trkpt>
      <trkpt lat="49.71745" lon="0.33568">
        <ele>100.7</ele>
        <time>2020-06-18T07:11:07Z</time>
      </trkpt>
      <trkpt lat="49.71748" lon="0.33576">
        <ele>100.4</ele>
        <time>2020-06-18T07:11:08Z</time>
      </trkpt>
      <trkpt lat="49.7175" lon="0.33584">
        <ele>100.2</ele>
        <time>2020-06-18T07:11:09Z</time>
      </trkpt>
      <trkpt lat="49.71752" lon="0.33593">
        <ele>100</ele>
        <time>2020-06-18T07:11:10Z</time>
      </trkpt>
      <trkpt lat="49.71753" lon="0.33602">
        <ele>99.7</ele>
        <time>2020-06-18T07:11:11Z</time>
      </trkpt>
      <trkpt lat="49.71756" lon="0.3361">
        <ele>99.5</ele>
        <time>2020-06-18T07:11:12Z</time>
      </trkpt>
      <trkpt lat="49.71758" lon="0.33618">
        <ele>99.4</ele>
        <time>2020-06-18T07:11:13Z</time>
      </trkpt>
      <trkpt lat="49.71761" lon="0.33627">
        <ele>99.3</ele>
        <time>2020-06-18T07:11:14Z</time>
      </trkpt>
      <trkpt lat="49.71764" lon="0.33636">
        <ele>99.2</ele>
        <time>2020-06-18T07:11:15Z</time>
      </trkpt>
      <trkpt lat="49.71766" lon="0.33645">
        <ele>99.1</ele>
        <time>2020-06-18T07:11:16Z</time>
      </trkpt>
      <trkpt lat="49.71768" lon="0.33653">
        <ele>99.1</ele>
        <time>2020-06-18T07:11:17Z</time>
      </trkpt>
      <trkpt lat="49.71771" lon="0.33661">
        <ele>99.1</ele>
        <time>2020-06-18T07:11:18Z</time>
      </trkpt>
      <trkpt lat="49.71773" lon="0.33669">
        <ele>99</ele>
        <time>2020-06-18T07:11:19Z</time>
      </trkpt>
      <trkpt lat="49.71776" lon="0.33678">
        <ele>99</ele>
        <time>2020-06-18T07:11:20Z</time>
      </trkpt>
      <trkpt lat="49.71778" lon="0.33686">
        <ele>98.9</ele>
        <time>2020-06-18T07:11:21Z</time>
      </trkpt>
      <trkpt lat="49.71782" lon="0.33694">
        <ele>98.9</ele>
        <time>2020-06-18T07:11:22Z</time>
      </trkpt>
      <trkpt lat="49.71785" lon="0.33702">
        <ele>98.8</ele>
        <time>2020-06-18T07:11:23Z</time>
      </trkpt>
      <trkpt lat="49.71786" lon="0.3371">
        <ele>98.8</ele>
        <time>2020-06-18T07:11:24Z</time>
      </trkpt>
      <trkpt lat="49.71789" lon="0.33718">
        <ele>98.8</ele>
        <time>2020-06-18T07:11:25Z</time>
      </trkpt>
      <trkpt lat="49.71791" lon="0.33726">
        <ele>98.8</ele>
        <time>2020-06-18T07:11:26Z</time>
      </trkpt>
      <trkpt lat="49.71793" lon="0.33734">
        <ele>98.8</ele>
        <time>2020-06-18T07:11:27Z</time>
      </trkpt>
      <trkpt lat="49.71795" lon="0.33742">
        <ele>98.8</ele>
        <time>2020-06-18T07:11:28Z</time>
      </trkpt>
      <trkpt lat="49.71797" lon="0.3375">
        <ele>98.7</ele>
        <time>2020-06-18T07:11:29Z</time>
      </trkpt>
      <trkpt lat="49.71798" lon="0.33758">
        <ele>98.7</ele>
        <time>2020-06-18T07:11:30Z</time>
      </trkpt>
      <trkpt lat="49.718" lon="0.33766">
        <ele>98.6</ele>
        <time>2020-06-18T07:11:31Z</time>
      </trkpt>
      <trkpt lat="49.71802" lon="0.33775">
        <ele>98.5</ele>
        <time>2020-06-18T07:11:32Z</time>
      </trkpt>
      <trkpt lat="49.71805" lon="0.33783">
        <ele>98.5</ele>
        <time>2020-06-18T07:11:33Z</time>
      </trkpt>
      <trkpt lat="49.71809" lon="0.33791">
        <ele>98.4</ele>
        <time>2020-06-18T07:11:34Z</time>
      </trkpt>
      <trkpt lat="49.71813" lon="0.33798">
        <ele>98.4</ele>
        <time>2020-06-18T07:11:35Z</time>
      </trkpt>
      <trkpt lat="49.71816" lon="0.33805">
        <ele>98.3</ele>
        <time>2020-06-18T07:11:36Z</time>
      </trkpt>
      <trkpt lat="49.7182" lon="0.33811">
        <ele>98.2</ele>
        <time>2020-06-18T07:11:37Z</time>
      </trkpt>
      <trkpt lat="49.71824" lon="0.33816">
        <ele>98.2</ele>
        <time>2020-06-18T07:11:38Z</time>
      </trkpt>
      <trkpt lat="49.71828" lon="0.33821">
        <ele>98.2</ele>
        <time>2020-06-18T07:11:39Z</time>
      </trkpt>
      <trkpt lat="49.71832" lon="0.33826">
        <ele>98.2</ele>
        <time>2020-06-18T07:11:40Z</time>
      </trkpt>
      <trkpt lat="49.71837" lon="0.3383">
        <ele>98.2</ele>
        <time>2020-06-18T07:11:41Z</time>
      </trkpt>
      <trkpt lat="49.71839" lon="0.33837">
        <ele>98.3</ele>
        <time>2020-06-18T07:11:42Z</time>
      </trkpt>
      <trkpt lat="49.71841" lon="0.33844">
        <ele>98.4</ele>
        <time>2020-06-18T07:11:43Z</time>
      </trkpt>
      <trkpt lat="49.7184" lon="0.33852">
        <ele>98.4</ele>
        <time>2020-06-18T07:11:44Z</time>
      </trkpt>
      <trkpt lat="49.71838" lon="0.3386">
        <ele>98.3</ele>
        <time>2020-06-18T07:11:45Z</time>
      </trkpt>
      <trkpt lat="49.71835" lon="0.33868">
        <ele>98.2</ele>
        <time>2020-06-18T07:11:46Z</time>
      </trkpt>
      <trkpt lat="49.71833" lon="0.33876">
        <ele>98.1</ele>
        <time>2020-06-18T07:11:47Z</time>
      </trkpt>
      <trkpt lat="49.71829" lon="0.33884">
        <ele>98.1</ele>
        <time>2020-06-18T07:11:48Z</time>
      </trkpt>
      <trkpt lat="49.71826" lon="0.33891">
        <ele>98</ele>
        <time>2020-06-18T07:11:49Z</time>
      </trkpt>
      <trkpt lat="49.71823" lon="0.33899">
        <ele>97.9</ele>
        <time>2020-06-18T07:11:50Z</time>
      </trkpt>
      <trkpt lat="49.7182" lon="0.33908">
        <ele>97.7</ele>
        <time>2020-06-18T07:11:51Z</time>
      </trkpt>
      <trkpt lat="49.71819" lon="0.33916">
        <ele>97.6</ele>
        <time>2020-06-18T07:11:52Z</time>
      </trkpt>
      <trkpt lat="49.71816" lon="0.33925">
        <ele>97.4</ele>
        <time>2020-06-18T07:11:53Z</time>
      </trkpt>
      <trkpt lat="49.71814" lon="0.33934">
        <ele>97.2</ele>
        <time>2020-06-18T07:11:54Z</time>
      </trkpt>
      <trkpt lat="49.71813" lon="0.33944">
        <ele>97</ele>
        <time>2020-06-18T07:11:55Z</time>
      </trkpt>
      <trkpt lat="49.71812" lon="0.33953">
        <ele>96.8</ele>
        <time>2020-06-18T07:11:56Z</time>
      </trkpt>
      <trkpt lat="49.71811" lon="0.33963">
        <ele>96.5</ele>
        <time>2020-06-18T07:11:57Z</time>
      </trkpt>
      <trkpt lat="49.7181" lon="0.33973">
        <ele>96.3</ele>
        <time>2020-06-18T07:11:58Z</time>
      </trkpt>
      <trkpt lat="49.71809" lon="0.33983">
        <ele>96.1</ele>
        <time>2020-06-18T07:11:59Z</time>
      </trkpt>
      <trkpt lat="49.71808" lon="0.33993">
        <ele>95.8</ele>
        <time>2020-06-18T07:12:00Z</time>
      </trkpt>
      <trkpt lat="49.71808" lon="0.34004">
        <ele>95.6</ele>
        <time>2020-06-18T07:12:01Z</time>
      </trkpt>
      <trkpt lat="49.71807" lon="0.34015">
        <ele>95.3</ele>
        <time>2020-06-18T07:12:02Z</time>
      </trkpt>
      <trkpt lat="49.71806" lon="0.34026">
        <ele>94.9</ele>
        <time>2020-06-18T07:12:03Z</time>
      </trkpt>
      <trkpt lat="49.71806" lon="0.34038">
        <ele>94.5</ele>
        <time>2020-06-18T07:12:04Z</time>
      </trkpt>
      <trkpt lat="49.71806" lon="0.34049">
        <ele>94.2</ele>
        <time>2020-06-18T07:12:05Z</time>
      </trkpt>
      <trkpt lat="49.71805" lon="0.34061">
        <ele>93.8</ele>
        <time>2020-06-18T07:12:06Z</time>
      </trkpt>
      <trkpt lat="49.71805" lon="0.34074">
        <ele>93.3</ele>
        <time>2020-06-18T07:12:07Z</time>
      </trkpt>
      <trkpt lat="49.71805" lon="0.34086">
        <ele>92.8</ele>
        <time>2020-06-18T07:12:08Z</time>
      </trkpt>
      <trkpt lat="49.71805" lon="0.34099">
        <ele>92.3</ele>
        <time>2020-06-18T07:12:09Z</time>
      </trkpt>
      <trkpt lat="49.71804" lon="0.34112">
        <ele>91.7</ele>
        <time>2020-06-18T07:12:10Z</time>
      </trkpt>
      <trkpt lat="49.71804" lon="0.34126">
        <ele>91.1</ele>
        <time>2020-06-18T07:12:11Z</time>
      </trkpt>
      <trkpt lat="49.71804" lon="0.3414">
        <ele>90.5</ele>
        <time>2020-06-18T07:12:12Z</time>
      </trkpt>
      <trkpt lat="49.71803" lon="0.34153">
        <ele>89.9</ele>
        <time>2020-06-18T07:12:13Z</time>
      </trkpt>
      <trkpt lat="49.71803" lon="0.34166">
        <ele>89.2</ele>
        <time>2020-06-18T07:12:14Z</time>
      </trkpt>
      <trkpt lat="49.71802" lon="0.3418">
        <ele>88.5</ele>
        <time>2020-06-18T07:12:15Z</time>
      </trkpt>
      <trkpt lat="49.71801" lon="0.34194">
        <ele>87.8</ele>
        <time>2020-06-18T07:12:16Z</time>
      </trkpt>
      <trkpt lat="49.71801" lon="0.34208">
        <ele>87.2</ele>
        <time>2020-06-18T07:12:17Z</time>
      </trkpt>
      <trkpt lat="49.71801" lon="0.34222">
        <ele>86.4</ele>
        <time>2020-06-18T07:12:18Z</time>
      </trkpt>
      <trkpt lat="49.71802" lon="0.34235">
        <ele>85.7</ele>
        <time>2020-06-18T07:12:19Z</time>
      </trkpt>
      <trkpt lat="49.71802" lon="0.34248">
        <ele>85</ele>
        <time>2020-06-18T07:12:20Z</time>
      </trkpt>
      <trkpt lat="49.71802" lon="0.34261">
        <ele>84.3</ele>
        <time>2020-06-18T07:12:21Z</time>
      </trkpt>
      <trkpt lat="49.71801" lon="0.34273">
        <ele>83.8</ele>
        <time>2020-06-18T07:12:22Z</time>
      </trkpt>
      <trkpt lat="49.71801" lon="0.34285">
        <ele>83.3</ele>
        <time>2020-06-18T07:12:23Z</time>
      </trkpt>
      <trkpt lat="49.718" lon="0.34297">
        <ele>82.7</ele>
        <time>2020-06-18T07:12:24Z</time>
      </trkpt>
      <trkpt lat="49.718" lon="0.34309">
        <ele>82.2</ele>
        <time>2020-06-18T07:12:25Z</time>
      </trkpt>
      <trkpt lat="49.718" lon="0.34321">
        <ele>81.9</ele>
        <time>2020-06-18T07:12:26Z</time>
      </trkpt>
      <trkpt lat="49.718" lon="0.34331">
        <ele>81.6</ele>
        <time>2020-06-18T07:12:27Z</time>
      </trkpt>
      <trkpt lat="49.718" lon="0.34341">
        <ele>81.3</ele>
        <time>2020-06-18T07:12:28Z</time>
      </trkpt>
      <trkpt lat="49.718" lon="0.34351">
        <ele>81.1</ele>
        <time>2020-06-18T07:12:29Z</time>
      </trkpt>
      <trkpt lat="49.718" lon="0.3436">
        <ele>80.8</ele>
        <time>2020-06-18T07:12:30Z</time>
      </trkpt>
      <trkpt lat="49.71799" lon="0.34367">
        <ele>80.7</ele>
        <time>2020-06-18T07:12:31Z</time>
      </trkpt>
      <trkpt lat="49.718" lon="0.34373">
        <ele>80.6</ele>
        <time>2020-06-18T07:12:32Z</time>
      </trkpt>
      <trkpt lat="49.718" lon="0.34378">
        <ele>80.5</ele>
        <time>2020-06-18T07:12:33Z</time>
      </trkpt>
      <trkpt lat="49.718" lon="0.34384">
        <ele>80.5</ele>
        <time>2020-06-18T07:12:34Z</time>
      </trkpt>
      <trkpt lat="49.718" lon="0.34386">
        <ele>80.4</ele>
        <time>2020-06-18T07:12:35Z</time>
      </trkpt>
      <trkpt lat="49.71801" lon="0.34391">
        <ele>80.4</ele>
        <time>2020-06-18T07:12:36Z</time>
      </trkpt>
      <trkpt lat="49.71801" lon="0.34393">
        <ele>80.4</ele>
        <time>2020-06-18T07:12:37Z</time>
      </trkpt>
      <trkpt lat="49.71804" lon="0.34398">
        <ele>80.3</ele>
        <time>2020-06-18T07:12:38Z</time>
      </trkpt>
      <trkpt lat="49.71804" lon="0.34399">
        <ele>80.2</ele>
        <time>2020-06-18T07:12:39Z</time>
      </trkpt>
      <trkpt lat="49.71808" lon="0.344">
        <ele>80.2</ele>
        <time>2020-06-18T07:12:40Z</time>
      </trkpt>
      <trkpt lat="49.71812" lon="0.34398">
        <ele>80.1</ele>
        <time>2020-06-18T07:12:41Z</time>
      </trkpt>
      <trkpt lat="49.71815" lon="0.34393">
        <ele>80</ele>
        <time>2020-06-18T07:12:42Z</time>
      </trkpt>
      <trkpt lat="49.71819" lon="0.34391">
        <ele>79.9</ele>
        <time>2020-06-18T07:12:43Z</time>
      </trkpt>
      <trkpt lat="49.71824" lon="0.34391">
        <ele>79.8</ele>
        <time>2020-06-18T07:12:44Z</time>
      </trkpt>
      <trkpt lat="49.71829" lon="0.3439">
        <ele>79.7</ele>
        <time>2020-06-18T07:12:45Z</time>
      </trkpt>
      <trkpt lat="49.71833" lon="0.34388">
        <ele>79.6</ele>
        <time>2020-06-18T07:12:46Z</time>
      </trkpt>
      <trkpt lat="49.71838" lon="0.34385">
        <ele>79.6</ele>
        <time>2020-06-18T07:12:47Z</time>
      </trkpt>
      <trkpt lat="49.71843" lon="0.34385">
        <ele>79.5</ele>
        <time>2020-06-18T07:12:48Z</time>
      </trkpt>
      <trkpt lat="49.71848" lon="0.34387">
        <ele>79.5</ele>
        <time>2020-06-18T07:12:49Z</time>
      </trkpt>
      <trkpt lat="49.71853" lon="0.34388">
        <ele>79.4</ele>
        <time>2020-06-18T07:12:50Z</time>
      </trkpt>
      <trkpt lat="49.71857" lon="0.34388">
        <ele>79.4</ele>
        <time>2020-06-18T07:12:51Z</time>
      </trkpt>
      <trkpt lat="49.71862" lon="0.34388">
        <ele>79.4</ele>
        <time>2020-06-18T07:12:52Z</time>
      </trkpt>
      <trkpt lat="49.71867" lon="0.34388">
        <ele>79.3</ele>
        <time>2020-06-18T07:12:53Z</time>
      </trkpt>
      <trkpt lat="49.71872" lon="0.34388">
        <ele>79.2</ele>
        <time>2020-06-18T07:12:54Z</time>
      </trkpt>
      <trkpt lat="49.71876" lon="0.34387">
        <ele>79.2</ele>
        <time>2020-06-18T07:12:55Z</time>
      </trkpt>
      <trkpt lat="49.7188" lon="0.34386">
        <ele>79.1</ele>
        <time>2020-06-18T07:12:56Z</time>
      </trkpt>
      <trkpt lat="49.71884" lon="0.34385">
        <ele>79.1</ele>
        <time>2020-06-18T07:12:57Z</time>
      </trkpt>
      <trkpt lat="49.71889" lon="0.34385">
        <ele>79.1</ele>
        <time>2020-06-18T07:12:58Z</time>
      </trkpt>
      <trkpt lat="49.71893" lon="0.34387">
        <ele>79</ele>
        <time>2020-06-18T07:12:59Z</time>
      </trkpt>
      <trkpt lat="49.71897" lon="0.34389">
        <ele>79</ele>
        <time>2020-06-18T07:13:00Z</time>
      </trkpt>
      <trkpt lat="49.71901" lon="0.34391">
        <ele>79.1</ele>
        <time>2020-06-18T07:13:01Z</time>
      </trkpt>
      <trkpt lat="49.71904" lon="0.34392">
        <ele>79.2</ele>
        <time>2020-06-18T07:13:02Z</time>
      </trkpt>
      <trkpt lat="49.71908" lon="0.34393">
        <ele>79.3</ele>
        <time>2020-06-18T07:13:03Z</time>
      </trkpt>
      <trkpt lat="49.71912" lon="0.34394">
        <ele>79.5</ele>
        <time>2020-06-18T07:13:04Z</time>
      </trkpt>
      <trkpt lat="49.71915" lon="0.34397">
        <ele>79.6</ele>
        <time>2020-06-18T07:13:05Z</time>
      </trkpt>
      <trkpt lat="49.71918" lon="0.344">
        <ele>79.7</ele>
        <time>2020-06-18T07:13:06Z</time>
      </trkpt>
      <trkpt lat="49.71922" lon="0.34401">
        <ele>79.9</ele>
        <time>2020-06-18T07:13:07Z</time>
      </trkpt>
      <trkpt lat="49.71925" lon="0.34403">
        <ele>80</ele>
        <time>2020-06-18T07:13:08Z</time>
      </trkpt>
      <trkpt lat="49.71928" lon="0.34406">
        <ele>80.2</ele>
        <time>2020-06-18T07:13:09Z</time>
      </trkpt>
      <trkpt lat="49.71929" lon="0.34407">
        <ele>80.3</ele>
        <time>2020-06-18T07:13:10Z</time>
      </trkpt>
      <trkpt lat="49.71932" lon="0.34409">
        <ele>80.5</ele>
        <time>2020-06-18T07:13:11Z</time>
      </trkpt>
      <trkpt lat="49.71933" lon="0.34411">
        <ele>80.5</ele>
        <time>2020-06-18T07:13:12Z</time>
      </trkpt>
      <trkpt lat="49.71935" lon="0.34415">
        <ele>80.8</ele>
        <time>2020-06-18T07:13:13Z</time>
      </trkpt>
      <trkpt lat="49.71938" lon="0.34419">
        <ele>81</ele>
        <time>2020-06-18T07:13:14Z</time>
      </trkpt>
      <trkpt lat="49.71942" lon="0.34423">
        <ele>81.4</ele>
        <time>2020-06-18T07:13:15Z</time>
      </trkpt>
      <trkpt lat="49.71946" lon="0.34428">
        <ele>81.6</ele>
        <time>2020-06-18T07:13:16Z</time>
      </trkpt>
      <trkpt lat="49.71949" lon="0.34431">
        <ele>81.9</ele>
        <time>2020-06-18T07:13:17Z</time>
      </trkpt>
      <trkpt lat="49.71952" lon="0.34435">
        <ele>82.1</ele>
        <time>2020-06-18T07:13:18Z</time>
      </trkpt>
      <trkpt lat="49.71956" lon="0.34439">
        <ele>82.4</ele>
        <time>2020-06-18T07:13:19Z</time>
      </trkpt>
      <trkpt lat="49.7196" lon="0.34444">
        <ele>82.6</ele>
        <time>2020-06-18T07:13:20Z</time>
      </trkpt>
      <trkpt lat="49.71965" lon="0.34447">
        <ele>82.8</ele>
        <time>2020-06-18T07:13:21Z</time>
      </trkpt>
      <trkpt lat="49.71969" lon="0.34451">
        <ele>83</ele>
        <time>2020-06-18T07:13:22Z</time>
      </trkpt>
      <trkpt lat="49.71974" lon="0.34455">
        <ele>83.3</ele>
        <time>2020-06-18T07:13:23Z</time>
      </trkpt>
      <trkpt lat="49.71977" lon="0.3446">
        <ele>83.5</ele>
        <time>2020-06-18T07:13:24Z</time>
      </trkpt>
      <trkpt lat="49.71981" lon="0.34463">
        <ele>83.7</ele>
        <time>2020-06-18T07:13:25Z</time>
      </trkpt>
      <trkpt lat="49.71984" lon="0.34465">
        <ele>84</ele>
        <time>2020-06-18T07:13:26Z</time>
      </trkpt>
      <trkpt lat="49.71988" lon="0.34467">
        <ele>84.4</ele>
        <time>2020-06-18T07:13:27Z</time>
      </trkpt>
      <trkpt lat="49.71993" lon="0.3447">
        <ele>84.8</ele>
        <time>2020-06-18T07:13:28Z</time>
      </trkpt>
      <trkpt lat="49.71997" lon="0.34472">
        <ele>85.1</ele>
        <time>2020-06-18T07:13:29Z</time>
      </trkpt>
      <trkpt lat="49.72001" lon="0.34474">
        <ele>85.4</ele>
        <time>2020-06-18T07:13:30Z</time>
      </trkpt>
      <trkpt lat="49.72005" lon="0.34474">
        <ele>85.6</ele>
        <time>2020-06-18T07:13:31Z</time>
      </trkpt>
      <trkpt lat="49.72008" lon="0.34475">
        <ele>85.9</ele>
        <time>2020-06-18T07:13:32Z</time>
      </trkpt>
      <trkpt lat="49.72011" lon="0.34477">
        <ele>86.1</ele>
        <time>2020-06-18T07:13:33Z</time>
      </trkpt>
      <trkpt lat="49.72015" lon="0.34481">
        <ele>86.4</ele>
        <time>2020-06-18T07:13:34Z</time>
      </trkpt>
      <trkpt lat="49.72019" lon="0.34485">
        <ele>86.6</ele>
        <time>2020-06-18T07:13:35Z</time>
      </trkpt>
      <trkpt lat="49.72023" lon="0.34491">
        <ele>86.8</ele>
        <time>2020-06-18T07:13:36Z</time>
      </trkpt>
      <trkpt lat="49.72028" lon="0.34492">
        <ele>87</ele>
        <time>2020-06-18T07:13:37Z</time>
      </trkpt>
      <trkpt lat="49.72032" lon="0.34496">
        <ele>87.2</ele>
        <time>2020-06-18T07:13:38Z</time>
      </trkpt>
      <trkpt lat="49.72037" lon="0.34497">
        <ele>87.5</ele>
        <time>2020-06-18T07:13:39Z</time>
      </trkpt>
      <trkpt lat="49.72043" lon="0.34498">
        <ele>87.7</ele>
        <time>2020-06-18T07:13:40Z</time>
      </trkpt>
      <trkpt lat="49.72048" lon="0.345">
        <ele>88</ele>
        <time>2020-06-18T07:13:41Z</time>
      </trkpt>
      <trkpt lat="49.72054" lon="0.34504">
        <ele>88.3</ele>
        <time>2020-06-18T07:13:42Z</time>
      </trkpt>
      <trkpt lat="49.72059" lon="0.34506">
        <ele>88.5</ele>
        <time>2020-06-18T07:13:43Z</time>
      </trkpt>
      <trkpt lat="49.72064" lon="0.34508">
        <ele>88.7</ele>
        <time>2020-06-18T07:13:44Z</time>
      </trkpt>
      <trkpt lat="49.72069" lon="0.34511">
        <ele>88.9</ele>
        <time>2020-06-18T07:13:45Z</time>
      </trkpt>
      <trkpt lat="49.72072" lon="0.34513">
        <ele>89.1</ele>
        <time>2020-06-18T07:13:46Z</time>
      </trkpt>
      <trkpt lat="49.72076" lon="0.34516">
        <ele>89.3</ele>
        <time>2020-06-18T07:13:47Z</time>
      </trkpt>
      <trkpt lat="49.7208" lon="0.3452">
        <ele>89.5</ele>
        <time>2020-06-18T07:13:48Z</time>
      </trkpt>
      <trkpt lat="49.72084" lon="0.34524">
        <ele>89.7</ele>
        <time>2020-06-18T07:13:49Z</time>
      </trkpt>
      <trkpt lat="49.72088" lon="0.34527">
        <ele>89.9</ele>
        <time>2020-06-18T07:13:50Z</time>
      </trkpt>
      <trkpt lat="49.72091" lon="0.3453">
        <ele>90</ele>
        <time>2020-06-18T07:13:51Z</time>
      </trkpt>
      <trkpt lat="49.72095" lon="0.34532">
        <ele>90.2</ele>
        <time>2020-06-18T07:13:52Z</time>
      </trkpt>
      <trkpt lat="49.72099" lon="0.34535">
        <ele>90.4</ele>
        <time>2020-06-18T07:13:53Z</time>
      </trkpt>
      <trkpt lat="49.72102" lon="0.34538">
        <ele>90.6</ele>
        <time>2020-06-18T07:13:54Z</time>
      </trkpt>
      <trkpt lat="49.72106" lon="0.34542">
        <ele>90.8</ele>
        <time>2020-06-18T07:13:55Z</time>
      </trkpt>
      <trkpt lat="49.72108" lon="0.34546">
        <ele>91</ele>
        <time>2020-06-18T07:13:56Z</time>
      </trkpt>
      <trkpt lat="49.72111" lon="0.3455">
        <ele>91.2</ele>
        <time>2020-06-18T07:13:57Z</time>
      </trkpt>
      <trkpt lat="49.72114" lon="0.34554">
        <ele>91.4</ele>
        <time>2020-06-18T07:13:58Z</time>
      </trkpt>
      <trkpt lat="49.72117" lon="0.34558">
        <ele>91.6</ele>
        <time>2020-06-18T07:13:59Z</time>
      </trkpt>
      <trkpt lat="49.7212" lon="0.34563">
        <ele>91.8</ele>
        <time>2020-06-18T07:14:00Z</time>
      </trkpt>
      <trkpt lat="49.72124" lon="0.34567">
        <ele>92</ele>
        <time>2020-06-18T07:14:01Z</time>
      </trkpt>
      <trkpt lat="49.72127" lon="0.34571">
        <ele>92.2</ele>
        <time>2020-06-18T07:14:02Z</time>
      </trkpt>
      <trkpt lat="49.72129" lon="0.34575">
        <ele>92.4</ele>
        <time>2020-06-18T07:14:03Z</time>
      </trkpt>
      <trkpt lat="49.72132" lon="0.34578">
        <ele>92.6</ele>
        <time>2020-06-18T07:14:04Z</time>
      </trkpt>
      <trkpt lat="49.72134" lon="0.34581">
        <ele>92.8</ele>
        <time>2020-06-18T07:14:05Z</time>
      </trkpt>
      <trkpt lat="49.72138" lon="0.34585">
        <ele>93</ele>
        <time>2020-06-18T07:14:06Z</time>
      </trkpt>
      <trkpt lat="49.72141" lon="0.34589">
        <ele>93.2</ele>
        <time>2020-06-18T07:14:07Z</time>
      </trkpt>
      <trkpt lat="49.72144" lon="0.34595">
        <ele>93.4</ele>
        <time>2020-06-18T07:14:08Z</time>
      </trkpt>
      <trkpt lat="49.72148" lon="0.34599">
        <ele>93.6</ele>
        <time>2020-06-18T07:14:09Z</time>
      </trkpt>
      <trkpt lat="49.72151" lon="0.34603">
        <ele>93.8</ele>
        <time>2020-06-18T07:14:10Z</time>
      </trkpt>
      <trkpt lat="49.72154" lon="0.34608">
        <ele>94</ele>
        <time>2020-06-18T07:14:11Z</time>
      </trkpt>
      <trkpt lat="49.72158" lon="0.34612">
        <ele>94.2</ele>
        <time>2020-06-18T07:14:12Z</time>
      </trkpt>
      <trkpt lat="49.7216" lon="0.34616">
        <ele>94.4</ele>
        <time>2020-06-18T07:14:13Z</time>
      </trkpt>
      <trkpt lat="49.72163" lon="0.34619">
        <ele>94.5</ele>
        <time>2020-06-18T07:14:14Z</time>
      </trkpt>
      <trkpt lat="49.72167" lon="0.34625">
        <ele>94.7</ele>
        <time>2020-06-18T07:14:15Z</time>
      </trkpt>
      <trkpt lat="49.72168" lon="0.34627">
        <ele>94.8</ele>
        <time>2020-06-18T07:14:16Z</time>
      </trkpt>
      <trkpt lat="49.72172" lon="0.34631">
        <ele>95</ele>
        <time>2020-06-18T07:14:17Z</time>
      </trkpt>
      <trkpt lat="49.72175" lon="0.34636">
        <ele>95.2</ele>
        <time>2020-06-18T07:14:18Z</time>
      </trkpt>
      <trkpt lat="49.7218" lon="0.34641">
        <ele>95.5</ele>
        <time>2020-06-18T07:14:19Z</time>
      </trkpt>
      <trkpt lat="49.72183" lon="0.34646">
        <ele>95.6</ele>
        <time>2020-06-18T07:14:20Z</time>
      </trkpt>
      <trkpt lat="49.72186" lon="0.34649">
        <ele>95.8</ele>
        <time>2020-06-18T07:14:21Z</time>
      </trkpt>
      <trkpt lat="49.72189" lon="0.34654">
        <ele>95.9</ele>
        <time>2020-06-18T07:14:22Z</time>
      </trkpt>
      <trkpt lat="49.72192" lon="0.3466">
        <ele>96.1</ele>
        <time>2020-06-18T07:14:23Z</time>
      </trkpt>
      <trkpt lat="49.72194" lon="0.34665">
        <ele>96.2</ele>
        <time>2020-06-18T07:14:24Z</time>
      </trkpt>
      <trkpt lat="49.72197" lon="0.3467">
        <ele>96.4</ele>
        <time>2020-06-18T07:14:25Z</time>
      </trkpt>
      <trkpt lat="49.722" lon="0.34676">
        <ele>96.5</ele>
        <time>2020-06-18T07:14:26Z</time>
      </trkpt>
      <trkpt lat="49.72202" lon="0.34681">
        <ele>96.7</ele>
        <time>2020-06-18T07:14:27Z</time>
      </trkpt>
      <trkpt lat="49.72204" lon="0.34687">
        <ele>96.8</ele>
        <time>2020-06-18T07:14:28Z</time>
      </trkpt>
      <trkpt lat="49.72206" lon="0.34691">
        <ele>96.9</ele>
        <time>2020-06-18T07:14:29Z</time>
      </trkpt>
      <trkpt lat="49.72208" lon="0.34695">
        <ele>97</ele>
        <time>2020-06-18T07:14:30Z</time>
      </trkpt>
      <trkpt lat="49.72211" lon="0.34701">
        <ele>97.2</ele>
        <time>2020-06-18T07:14:31Z</time>
      </trkpt>
      <trkpt lat="49.72213" lon="0.34707">
        <ele>97.3</ele>
        <time>2020-06-18T07:14:32Z</time>
      </trkpt>
      <trkpt lat="49.72214" lon="0.34713">
        <ele>97.4</ele>
        <time>2020-06-18T07:14:33Z</time>
      </trkpt>
      <trkpt lat="49.72216" lon="0.34718">
        <ele>97.5</ele>
        <time>2020-06-18T07:14:34Z</time>
      </trkpt>
      <trkpt lat="49.72217" lon="0.34724">
        <ele>97.6</ele>
        <time>2020-06-18T07:14:35Z</time>
      </trkpt>
      <trkpt lat="49.72219" lon="0.3473">
        <ele>97.7</ele>
        <time>2020-06-18T07:14:36Z</time>
      </trkpt>
      <trkpt lat="49.72222" lon="0.34737">
        <ele>97.9</ele>
        <time>2020-06-18T07:14:37Z</time>
      </trkpt>
      <trkpt lat="49.72224" lon="0.34743">
        <ele>98</ele>
        <time>2020-06-18T07:14:38Z</time>
      </trkpt>
      <trkpt lat="49.72226" lon="0.34748">
        <ele>98</ele>
        <time>2020-06-18T07:14:39Z</time>
      </trkpt>
      <trkpt lat="49.72228" lon="0.34753">
        <ele>98.1</ele>
        <time>2020-06-18T07:14:40Z</time>
      </trkpt>
      <trkpt lat="49.72229" lon="0.34759">
        <ele>98.2</ele>
        <time>2020-06-18T07:14:41Z</time>
      </trkpt>
      <trkpt lat="49.72232" lon="0.34765">
        <ele>98.3</ele>
        <time>2020-06-18T07:14:42Z</time>
      </trkpt>
      <trkpt lat="49.72234" lon="0.34771">
        <ele>98.3</ele>
        <time>2020-06-18T07:14:43Z</time>
      </trkpt>
      <trkpt lat="49.72237" lon="0.34776">
        <ele>98.3</ele>
        <time>2020-06-18T07:14:44Z</time>
      </trkpt>
      <trkpt lat="49.7224" lon="0.34781">
        <ele>98.3</ele>
        <time>2020-06-18T07:14:45Z</time>
      </trkpt>
      <trkpt lat="49.72243" lon="0.34786">
        <ele>98.3</ele>
        <time>2020-06-18T07:14:46Z</time>
      </trkpt>
      <trkpt lat="49.72247" lon="0.34791">
        <ele>98.3</ele>
        <time>2020-06-18T07:14:47Z</time>
      </trkpt>
      <trkpt lat="49.72251" lon="0.34796">
        <ele>98.3</ele>
        <time>2020-06-18T07:14:48Z</time>
      </trkpt>
      <trkpt lat="49.72254" lon="0.34801">
        <ele>98.3</ele>
        <time>2020-06-18T07:14:49Z</time>
      </trkpt>
      <trkpt lat="49.72257" lon="0.34805">
        <ele>98.3</ele>
        <time>2020-06-18T07:14:50Z</time>
      </trkpt>
      <trkpt lat="49.7226" lon="0.34809">
        <ele>98.2</ele>
        <time>2020-06-18T07:14:51Z</time>
      </trkpt>
      <trkpt lat="49.72264" lon="0.34813">
        <ele>98.2</ele>
        <time>2020-06-18T07:14:52Z</time>
      </trkpt>
      <trkpt lat="49.72268" lon="0.34817">
        <ele>98.2</ele>
        <time>2020-06-18T07:14:53Z</time>
      </trkpt>
      <trkpt lat="49.72272" lon="0.34821">
        <ele>98.1</ele>
        <time>2020-06-18T07:14:54Z</time>
      </trkpt>
      <trkpt lat="49.72275" lon="0.34825">
        <ele>98.1</ele>
        <time>2020-06-18T07:14:55Z</time>
      </trkpt>
      <trkpt lat="49.72278" lon="0.34829">
        <ele>98.1</ele>
        <time>2020-06-18T07:14:56Z</time>
      </trkpt>
      <trkpt lat="49.72282" lon="0.34833">
        <ele>98</ele>
        <time>2020-06-18T07:14:57Z</time>
      </trkpt>
      <trkpt lat="49.72286" lon="0.34837">
        <ele>98</ele>
        <time>2020-06-18T07:14:58Z</time>
      </trkpt>
      <trkpt lat="49.72289" lon="0.34842">
        <ele>97.9</ele>
        <time>2020-06-18T07:14:59Z</time>
      </trkpt>
      <trkpt lat="49.72294" lon="0.34847">
        <ele>97.9</ele>
        <time>2020-06-18T07:15:00Z</time>
      </trkpt>
      <trkpt lat="49.72299" lon="0.34852">
        <ele>97.8</ele>
        <time>2020-06-18T07:15:01Z</time>
      </trkpt>
      <trkpt lat="49.72302" lon="0.34855">
        <ele>97.8</ele>
        <time>2020-06-18T07:15:02Z</time>
      </trkpt>
      <trkpt lat="49.72305" lon="0.34858">
        <ele>97.8</ele>
        <time>2020-06-18T07:15:03Z</time>
      </trkpt>
      <trkpt lat="49.7231" lon="0.34861">
        <ele>97.7</ele>
        <time>2020-06-18T07:15:04Z</time>
      </trkpt>
      <trkpt lat="49.72314" lon="0.34866">
        <ele>97.7</ele>
        <time>2020-06-18T07:15:05Z</time>
      </trkpt>
      <trkpt lat="49.72318" lon="0.34871">
        <ele>97.7</ele>
        <time>2020-06-18T07:15:06Z</time>
      </trkpt>
      <trkpt lat="49.72322" lon="0.34874">
        <ele>97.7</ele>
        <time>2020-06-18T07:15:07Z</time>
      </trkpt>
      <trkpt lat="49.72325" lon="0.34878">
        <ele>97.7</ele>
        <time>2020-06-18T07:15:08Z</time>
      </trkpt>
      <trkpt lat="49.72329" lon="0.34881">
        <ele>97.6</ele>
        <time>2020-06-18T07:15:09Z</time>
      </trkpt>
      <trkpt lat="49.72334" lon="0.34884">
        <ele>97.5</ele>
        <time>2020-06-18T07:15:10Z</time>
      </trkpt>
      <trkpt lat="49.72338" lon="0.34887">
        <ele>97.4</ele>
        <time>2020-06-18T07:15:11Z</time>
      </trkpt>
      <trkpt lat="49.72342" lon="0.34891">
        <ele>97.3</ele>
        <time>2020-06-18T07:15:12Z</time>
      </trkpt>
      <trkpt lat="49.72347" lon="0.34895">
        <ele>97.1</ele>
        <time>2020-06-18T07:15:13Z</time>
      </trkpt>
      <trkpt lat="49.72351" lon="0.34898">
        <ele>96.9</ele>
        <time>2020-06-18T07:15:14Z</time>
      </trkpt>
      <trkpt lat="49.72356" lon="0.34901">
        <ele>96.7</ele>
        <time>2020-06-18T07:15:15Z</time>
      </trkpt>
      <trkpt lat="49.72363" lon="0.34905">
        <ele>96.4</ele>
        <time>2020-06-18T07:15:16Z</time>
      </trkpt>
      <trkpt lat="49.72368" lon="0.34908">
        <ele>96.1</ele>
        <time>2020-06-18T07:15:17Z</time>
      </trkpt>
      <trkpt lat="49.72373" lon="0.34912">
        <ele>95.7</ele>
        <time>2020-06-18T07:15:18Z</time>
      </trkpt>
      <trkpt lat="49.72378" lon="0.34917">
        <ele>95.4</ele>
        <time>2020-06-18T07:15:19Z</time>
      </trkpt>
      <trkpt lat="49.72383" lon="0.34923">
        <ele>95</ele>
        <time>2020-06-18T07:15:20Z</time>
      </trkpt>
      <trkpt lat="49.72387" lon="0.34927">
        <ele>94.7</ele>
        <time>2020-06-18T07:15:21Z</time>
      </trkpt>
      <trkpt lat="49.72392" lon="0.34933">
        <ele>94.3</ele>
        <time>2020-06-18T07:15:22Z</time>
      </trkpt>
      <trkpt lat="49.72395" lon="0.34938">
        <ele>94.1</ele>
        <time>2020-06-18T07:15:23Z</time>
      </trkpt>
      <trkpt lat="49.72399" lon="0.34944">
        <ele>93.8</ele>
        <time>2020-06-18T07:15:24Z</time>
      </trkpt>
      <trkpt lat="49.72402" lon="0.3495">
        <ele>93.6</ele>
        <time>2020-06-18T07:15:25Z</time>
      </trkpt>
      <trkpt lat="49.72406" lon="0.34955">
        <ele>93.5</ele>
        <time>2020-06-18T07:15:26Z</time>
      </trkpt>
      <trkpt lat="49.72411" lon="0.3496">
        <ele>93.3</ele>
        <time>2020-06-18T07:15:27Z</time>
      </trkpt>
      <trkpt lat="49.72414" lon="0.34964">
        <ele>93.3</ele>
        <time>2020-06-18T07:15:28Z</time>
      </trkpt>
      <trkpt lat="49.72418" lon="0.34969">
        <ele>93.3</ele>
        <time>2020-06-18T07:15:29Z</time>
      </trkpt>
      <trkpt lat="49.72421" lon="0.34973">
        <ele>93.3</ele>
        <time>2020-06-18T07:15:30Z</time>
      </trkpt>
      <trkpt lat="49.72424" lon="0.34976">
        <ele>93.3</ele>
        <time>2020-06-18T07:15:31Z</time>
      </trkpt>
      <trkpt lat="49.72426" lon="0.3498">
        <ele>93.3</ele>
        <time>2020-06-18T07:15:32Z</time>
      </trkpt>
      <trkpt lat="49.72429" lon="0.34984">
        <ele>93.3</ele>
        <time>2020-06-18T07:15:33Z</time>
      </trkpt>
      <trkpt lat="49.72432" lon="0.34987">
        <ele>93.3</ele>
        <time>2020-06-18T07:15:34Z</time>
      </trkpt>
      <trkpt lat="49.72434" lon="0.34991">
        <ele>93.4</ele>
        <time>2020-06-18T07:15:35Z</time>
      </trkpt>
      <trkpt lat="49.72437" lon="0.34995">
        <ele>93.5</ele>
        <time>2020-06-18T07:15:36Z</time>
      </trkpt>
      <trkpt lat="49.7244" lon="0.35">
        <ele>93.6</ele>
        <time>2020-06-18T07:15:37Z</time>
      </trkpt>
      <trkpt lat="49.72444" lon="0.35005">
        <ele>93.8</ele>
        <time>2020-06-18T07:15:38Z</time>
      </trkpt>
      <trkpt lat="49.72447" lon="0.35009">
        <ele>93.9</ele>
        <time>2020-06-18T07:15:39Z</time>
      </trkpt>
      <trkpt lat="49.72451" lon="0.35014">
        <ele>94.1</ele>
        <time>2020-06-18T07:15:40Z</time>
      </trkpt>
      <trkpt lat="49.72453" lon="0.35019">
        <ele>94.3</ele>
        <time>2020-06-18T07:15:41Z</time>
      </trkpt>
      <trkpt lat="49.72456" lon="0.35022">
        <ele>94.4</ele>
        <time>2020-06-18T07:15:42Z</time>
      </trkpt>
      <trkpt lat="49.72459" lon="0.35027">
        <ele>94.6</ele>
        <time>2020-06-18T07:15:43Z</time>
      </trkpt>
      <trkpt lat="49.72463" lon="0.35032">
        <ele>94.8</ele>
        <time>2020-06-18T07:15:44Z</time>
      </trkpt>
      <trkpt lat="49.72466" lon="0.35037">
        <ele>95</ele>
        <time>2020-06-18T07:15:45Z</time>
      </trkpt>
      <trkpt lat="49.72469" lon="0.35042">
        <ele>95.2</ele>
        <time>2020-06-18T07:15:46Z</time>
      </trkpt>
      <trkpt lat="49.72472" lon="0.35048">
        <ele>95.4</ele>
        <time>2020-06-18T07:15:47Z</time>
      </trkpt>
      <trkpt lat="49.72475" lon="0.35054">
        <ele>95.6</ele>
        <time>2020-06-18T07:15:48Z</time>
      </trkpt>
      <trkpt lat="49.72479" lon="0.3506">
        <ele>95.8</ele>
        <time>2020-06-18T07:15:49Z</time>
      </trkpt>
      <trkpt lat="49.72482" lon="0.35064">
        <ele>96</ele>
        <time>2020-06-18T07:15:50Z</time>
      </trkpt>
      <trkpt lat="49.72485" lon="0.3507">
        <ele>96.2</ele>
        <time>2020-06-18T07:15:51Z</time>
      </trkpt>
      <trkpt lat="49.72488" lon="0.35076">
        <ele>96.4</ele>
        <time>2020-06-18T07:15:52Z</time>
      </trkpt>
      <trkpt lat="49.72492" lon="0.35081">
        <ele>96.6</ele>
        <time>2020-06-18T07:15:53Z</time>
      </trkpt>
      <trkpt lat="49.72494" lon="0.35086">
        <ele>96.7</ele>
        <time>2020-06-18T07:15:54Z</time>
      </trkpt>
      <trkpt lat="49.72497" lon="0.35092">
        <ele>96.9</ele>
        <time>2020-06-18T07:15:55Z</time>
      </trkpt>
      <trkpt lat="49.725" lon="0.35098">
        <ele>97.1</ele>
        <time>2020-06-18T07:15:56Z</time>
      </trkpt>
      <trkpt lat="49.72503" lon="0.35103">
        <ele>97.3</ele>
        <time>2020-06-18T07:15:57Z</time>
      </trkpt>
      <trkpt lat="49.72505" lon="0.35109">
        <ele>97.5</ele>
        <time>2020-06-18T07:15:58Z</time>
      </trkpt>
      <trkpt lat="49.72508" lon="0.35115">
        <ele>97.7</ele>
        <time>2020-06-18T07:15:59Z</time>
      </trkpt>
      <trkpt lat="49.7251" lon="0.35119">
        <ele>97.8</ele>
        <time>2020-06-18T07:16:00Z</time>
      </trkpt>
      <trkpt lat="49.72512" lon="0.35125">
        <ele>98</ele>
        <time>2020-06-18T07:16:01Z</time>
      </trkpt>
      <trkpt lat="49.72513" lon="0.35131">
        <ele>98.2</ele>
        <time>2020-06-18T07:16:02Z</time>
      </trkpt>
      <trkpt lat="49.72515" lon="0.35136">
        <ele>98.4</ele>
        <time>2020-06-18T07:16:03Z</time>
      </trkpt>
      <trkpt lat="49.72518" lon="0.35142">
        <ele>98.6</ele>
        <time>2020-06-18T07:16:04Z</time>
      </trkpt>
      <trkpt lat="49.7252" lon="0.35147">
        <ele>98.8</ele>
        <time>2020-06-18T07:16:05Z</time>
      </trkpt>
      <trkpt lat="49.72523" lon="0.35152">
        <ele>98.9</ele>
        <time>2020-06-18T07:16:06Z</time>
      </trkpt>
      <trkpt lat="49.72526" lon="0.35157">
        <ele>99.1</ele>
        <time>2020-06-18T07:16:07Z</time>
      </trkpt>
      <trkpt lat="49.72528" lon="0.3516">
        <ele>99.2</ele>
        <time>2020-06-18T07:16:08Z</time>
      </trkpt>
      <trkpt lat="49.72532" lon="0.35164">
        <ele>99.3</ele>
        <time>2020-06-18T07:16:09Z</time>
      </trkpt>
      <trkpt lat="49.72534" lon="0.35166">
        <ele>99.3</ele>
        <time>2020-06-18T07:16:10Z</time>
      </trkpt>
      <trkpt lat="49.72537" lon="0.35168">
        <ele>99.3</ele>
        <time>2020-06-18T07:16:11Z</time>
      </trkpt>
      <trkpt lat="49.72541" lon="0.35172">
        <ele>99.3</ele>
        <time>2020-06-18T07:16:12Z</time>
      </trkpt>
      <trkpt lat="49.72545" lon="0.35174">
        <ele>99.3</ele>
        <time>2020-06-18T07:16:13Z</time>
      </trkpt>
      <trkpt lat="49.72549" lon="0.35175">
        <ele>99.2</ele>
        <time>2020-06-18T07:16:14Z</time>
      </trkpt>
      <trkpt lat="49.72554" lon="0.35176">
        <ele>99.1</ele>
        <time>2020-06-18T07:16:15Z</time>
      </trkpt>
      <trkpt lat="49.72557" lon="0.35178">
        <ele>99</ele>
        <time>2020-06-18T07:16:16Z</time>
      </trkpt>
      <trkpt lat="49.72562" lon="0.35179">
        <ele>98.9</ele>
        <time>2020-06-18T07:16:17Z</time>
      </trkpt>
      <trkpt lat="49.72566" lon="0.35179">
        <ele>98.8</ele>
        <time>2020-06-18T07:16:18Z</time>
      </trkpt>
      <trkpt lat="49.72571" lon="0.3518">
        <ele>98.6</ele>
        <time>2020-06-18T07:16:19Z</time>
      </trkpt>
      <trkpt lat="49.72575" lon="0.35182">
        <ele>98.5</ele>
        <time>2020-06-18T07:16:20Z</time>
      </trkpt>
      <trkpt lat="49.72581" lon="0.35187">
        <ele>98.2</ele>
        <time>2020-06-18T07:16:21Z</time>
      </trkpt>
      <trkpt lat="49.72586" lon="0.35195">
        <ele>97.9</ele>
        <time>2020-06-18T07:16:22Z</time>
      </trkpt>
      <trkpt lat="49.72591" lon="0.35201">
        <ele>97.6</ele>
        <time>2020-06-18T07:16:23Z</time>
      </trkpt>
      <trkpt lat="49.72596" lon="0.35206">
        <ele>97.4</ele>
        <time>2020-06-18T07:16:24Z</time>
      </trkpt>
      <trkpt lat="49.72603" lon="0.35213">
        <ele>97.1</ele>
        <time>2020-06-18T07:16:25Z</time>
      </trkpt>
      <trkpt lat="49.7261" lon="0.35217">
        <ele>96.9</ele>
        <time>2020-06-18T07:16:26Z</time>
      </trkpt>
      <trkpt lat="49.72617" lon="0.35219">
        <ele>96.8</ele>
        <time>2020-06-18T07:16:27Z</time>
      </trkpt>
      <trkpt lat="49.72622" lon="0.35221">
        <ele>96.7</ele>
        <time>2020-06-18T07:16:28Z</time>
      </trkpt>
      <trkpt lat="49.72627" lon="0.35224">
        <ele>96.6</ele>
        <time>2020-06-18T07:16:29Z</time>
      </trkpt>
      <trkpt lat="49.72632" lon="0.35226">
        <ele>96.6</ele>
        <time>2020-06-18T07:16:30Z</time>
      </trkpt>
      <trkpt lat="49.72638" lon="0.35228">
        <ele>96.5</ele>
        <time>2020-06-18T07:16:31Z</time>
      </trkpt>
      <trkpt lat="49.72643" lon="0.35231">
        <ele>96.5</ele>
        <time>2020-06-18T07:16:32Z</time>
      </trkpt>
      <trkpt lat="49.72648" lon="0.35232">
        <ele>96.6</ele>
        <time>2020-06-18T07:16:33Z</time>
      </trkpt>
      <trkpt lat="49.72653" lon="0.35233">
        <ele>96.7</ele>
        <time>2020-06-18T07:16:34Z</time>
      </trkpt>
      <trkpt lat="49.7266" lon="0.35234">
        <ele>96.8</ele>
        <time>2020-06-18T07:16:35Z</time>
      </trkpt>
      <trkpt lat="49.72665" lon="0.35234">
        <ele>96.9</ele>
        <time>2020-06-18T07:16:36Z</time>
      </trkpt>
      <trkpt lat="49.7267" lon="0.35235">
        <ele>97</ele>
        <time>2020-06-18T07:16:37Z</time>
      </trkpt>
      <trkpt lat="49.72673" lon="0.35236">
        <ele>97.1</ele>
        <time>2020-06-18T07:16:38Z</time>
      </trkpt>
      <trkpt lat="49.72678" lon="0.35238">
        <ele>97.2</ele>
        <time>2020-06-18T07:16:39Z</time>
      </trkpt>
      <trkpt lat="49.72682" lon="0.35243">
        <ele>97.4</ele>
        <time>2020-06-18T07:16:40Z</time>
      </trkpt>
      <trkpt lat="49.72687" lon="0.3525">
        <ele>97.5</ele>
        <time>2020-06-18T07:16:41Z</time>
      </trkpt>
      <trkpt lat="49.72689" lon="0.35255">
        <ele>97.6</ele>
        <time>2020-06-18T07:16:42Z</time>
      </trkpt>
      <trkpt lat="49.72691" lon="0.35263">
        <ele>97.7</ele>
        <time>2020-06-18T07:16:43Z</time>
      </trkpt>
      <trkpt lat="49.7269" lon="0.35269">
        <ele>97.8</ele>
        <time>2020-06-18T07:16:44Z</time>
      </trkpt>
      <trkpt lat="49.7269" lon="0.35275">
        <ele>97.9</ele>
        <time>2020-06-18T07:16:45Z</time>
      </trkpt>
      <trkpt lat="49.72689" lon="0.35283">
        <ele>98</ele>
        <time>2020-06-18T07:16:46Z</time>
      </trkpt>
      <trkpt lat="49.72688" lon="0.35289">
        <ele>98.2</ele>
        <time>2020-06-18T07:16:47Z</time>
      </trkpt>
      <trkpt lat="49.72687" lon="0.35296">
        <ele>98.3</ele>
        <time>2020-06-18T07:16:48Z</time>
      </trkpt>
      <trkpt lat="49.72686" lon="0.35301">
        <ele>98.4</ele>
        <time>2020-06-18T07:16:49Z</time>
      </trkpt>
      <trkpt lat="49.72685" lon="0.35309">
        <ele>98.5</ele>
        <time>2020-06-18T07:16:50Z</time>
      </trkpt>
      <trkpt lat="49.72686" lon="0.35314">
        <ele>98.6</ele>
        <time>2020-06-18T07:16:51Z</time>
      </trkpt>
      <trkpt lat="49.72687" lon="0.3532">
        <ele>98.7</ele>
        <time>2020-06-18T07:16:52Z</time>
      </trkpt>
      <trkpt lat="49.7269" lon="0.35324">
        <ele>98.8</ele>
        <time>2020-06-18T07:16:53Z</time>
      </trkpt>
      <trkpt lat="49.72694" lon="0.35328">
        <ele>99.1</ele>
        <time>2020-06-18T07:16:54Z</time>
      </trkpt>
      <trkpt lat="49.72697" lon="0.35331">
        <ele>99.2</ele>
        <time>2020-06-18T07:16:55Z</time>
      </trkpt>
      <trkpt lat="49.727" lon="0.35334">
        <ele>99.3</ele>
        <time>2020-06-18T07:16:56Z</time>
      </trkpt>
      <trkpt lat="49.72705" lon="0.35337">
        <ele>99.4</ele>
        <time>2020-06-18T07:16:57Z</time>
      </trkpt>
      <trkpt lat="49.72709" lon="0.35341">
        <ele>99.5</ele>
        <time>2020-06-18T07:16:58Z</time>
      </trkpt>
      <trkpt lat="49.72713" lon="0.35344">
        <ele>99.7</ele>
        <time>2020-06-18T07:16:59Z</time>
      </trkpt>
      <trkpt lat="49.72718" lon="0.35347">
        <ele>99.8</ele>
        <time>2020-06-18T07:17:00Z</time>
      </trkpt>
      <trkpt lat="49.72723" lon="0.35352">
        <ele>100</ele>
        <time>2020-06-18T07:17:01Z</time>
      </trkpt>
      <trkpt lat="49.72727" lon="0.35356">
        <ele>100.2</ele>
        <time>2020-06-18T07:17:02Z</time>
      </trkpt>
      <trkpt lat="49.72732" lon="0.3536">
        <ele>100.4</ele>
        <time>2020-06-18T07:17:03Z</time>
      </trkpt>
      <trkpt lat="49.72735" lon="0.35362">
        <ele>100.6</ele>
        <time>2020-06-18T07:17:04Z</time>
      </trkpt>
      <trkpt lat="49.72739" lon="0.35365">
        <ele>100.8</ele>
        <time>2020-06-18T07:17:05Z</time>
      </trkpt>
      <trkpt lat="49.72742" lon="0.35368">
        <ele>101</ele>
        <time>2020-06-18T07:17:06Z</time>
      </trkpt>
      <trkpt lat="49.72746" lon="0.35371">
        <ele>101.2</ele>
        <time>2020-06-18T07:17:07Z</time>
      </trkpt>
      <trkpt lat="49.72749" lon="0.35373">
        <ele>101.3</ele>
        <time>2020-06-18T07:17:08Z</time>
      </trkpt>
      <trkpt lat="49.72753" lon="0.35377">
        <ele>101.5</ele>
        <time>2020-06-18T07:17:09Z</time>
      </trkpt>
      <trkpt lat="49.72757" lon="0.3538">
        <ele>101.6</ele>
        <time>2020-06-18T07:17:10Z</time>
      </trkpt>
      <trkpt lat="49.72761" lon="0.35383">
        <ele>101.8</ele>
        <time>2020-06-18T07:17:11Z</time>
      </trkpt>
      <trkpt lat="49.72765" lon="0.35386">
        <ele>101.9</ele>
        <time>2020-06-18T07:17:12Z</time>
      </trkpt>
      <trkpt lat="49.72769" lon="0.35389">
        <ele>102.1</ele>
        <time>2020-06-18T07:17:13Z</time>
      </trkpt>
      <trkpt lat="49.72773" lon="0.35393">
        <ele>102.3</ele>
        <time>2020-06-18T07:17:14Z</time>
      </trkpt>
      <trkpt lat="49.72778" lon="0.35396">
        <ele>102.4</ele>
        <time>2020-06-18T07:17:15Z</time>
      </trkpt>
      <trkpt lat="49.72782" lon="0.35399">
        <ele>102.6</ele>
        <time>2020-06-18T07:17:16Z</time>
      </trkpt>
      <trkpt lat="49.72786" lon="0.35401">
        <ele>102.8</ele>
        <time>2020-06-18T07:17:17Z</time>
      </trkpt>
      <trkpt lat="49.7279" lon="0.35404">
        <ele>102.9</ele>
        <time>2020-06-18T07:17:18Z</time>
      </trkpt>
      <trkpt lat="49.72793" lon="0.35407">
        <ele>103.1</ele>
        <time>2020-06-18T07:17:19Z</time>
      </trkpt>
      <trkpt lat="49.72797" lon="0.3541">
        <ele>103.2</ele>
        <time>2020-06-18T07:17:20Z</time>
      </trkpt>
      <trkpt lat="49.72801" lon="0.35414">
        <ele>103.4</ele>
        <time>2020-06-18T07:17:21Z</time>
      </trkpt>
      <trkpt lat="49.72805" lon="0.35417">
        <ele>103.6</ele>
        <time>2020-06-18T07:17:22Z</time>
      </trkpt>
      <trkpt lat="49.72809" lon="0.3542">
        <ele>103.8</ele>
        <time>2020-06-18T07:17:23Z</time>
      </trkpt>
      <trkpt lat="49.72813" lon="0.35423">
        <ele>104</ele>
        <time>2020-06-18T07:17:24Z</time>
      </trkpt>
      <trkpt lat="49.72817" lon="0.35426">
        <ele>104.1</ele>
        <time>2020-06-18T07:17:25Z</time>
      </trkpt>
      <trkpt lat="49.72821" lon="0.35429">
        <ele>104.3</ele>
        <time>2020-06-18T07:17:26Z</time>
      </trkpt>
      <trkpt lat="49.72824" lon="0.35432">
        <ele>104.5</ele>
        <time>2020-06-18T07:17:27Z</time>
      </trkpt>
      <trkpt lat="49.72829" lon="0.35436">
        <ele>104.6</ele>
        <time>2020-06-18T07:17:28Z</time>
      </trkpt>
      <trkpt lat="49.72833" lon="0.35439">
        <ele>104.8</ele>
        <time>2020-06-18T07:17:29Z</time>
      </trkpt>
      <trkpt lat="49.72839" lon="0.35443">
        <ele>105</ele>
        <time>2020-06-18T07:17:30Z</time>
      </trkpt>
      <trkpt lat="49.72843" lon="0.35447">
        <ele>105.2</ele>
        <time>2020-06-18T07:17:31Z</time>
      </trkpt>
      <trkpt lat="49.72847" lon="0.3545">
        <ele>105.4</ele>
        <time>2020-06-18T07:17:32Z</time>
      </trkpt>
      <trkpt lat="49.72851" lon="0.35453">
        <ele>105.5</ele>
        <time>2020-06-18T07:17:33Z</time>
      </trkpt>
      <trkpt lat="49.72856" lon="0.35457">
        <ele>105.7</ele>
        <time>2020-06-18T07:17:34Z</time>
      </trkpt>
      <trkpt lat="49.7286" lon="0.35461">
        <ele>105.8</ele>
        <time>2020-06-18T07:17:35Z</time>
      </trkpt>
      <trkpt lat="49.72864" lon="0.35464">
        <ele>105.9</ele>
        <time>2020-06-18T07:17:36Z</time>
      </trkpt>
      <trkpt lat="49.72867" lon="0.35466">
        <ele>106</ele>
        <time>2020-06-18T07:17:37Z</time>
      </trkpt>
      <trkpt lat="49.72872" lon="0.3547">
        <ele>106</ele>
        <time>2020-06-18T07:17:38Z</time>
      </trkpt>
      <trkpt lat="49.72877" lon="0.35473">
        <ele>106.1</ele>
        <time>2020-06-18T07:17:39Z</time>
      </trkpt>
      <trkpt lat="49.72881" lon="0.35476">
        <ele>106.1</ele>
        <time>2020-06-18T07:17:40Z</time>
      </trkpt>
      <trkpt lat="49.72885" lon="0.35479">
        <ele>106.1</ele>
        <time>2020-06-18T07:17:41Z</time>
      </trkpt>
      <trkpt lat="49.72888" lon="0.35483">
        <ele>106.1</ele>
        <time>2020-06-18T07:17:42Z</time>
      </trkpt>
      <trkpt lat="49.72893" lon="0.35487">
        <ele>106.2</ele>
        <time>2020-06-18T07:17:43Z</time>
      </trkpt>
      <trkpt lat="49.72897" lon="0.35492">
        <ele>106.2</ele>
        <time>2020-06-18T07:17:44Z</time>
      </trkpt>
      <trkpt lat="49.72901" lon="0.35495">
        <ele>106.2</ele>
        <time>2020-06-18T07:17:45Z</time>
      </trkpt>
      <trkpt lat="49.72905" lon="0.35499">
        <ele>106.3</ele>
        <time>2020-06-18T07:17:46Z</time>
      </trkpt>
      <trkpt lat="49.7291" lon="0.35503">
        <ele>106.3</ele>
        <time>2020-06-18T07:17:47Z</time>
      </trkpt>
      <trkpt lat="49.72914" lon="0.35508">
        <ele>106.3</ele>
        <time>2020-06-18T07:17:48Z</time>
      </trkpt>
      <trkpt lat="49.72918" lon="0.35512">
        <ele>106.3</ele>
        <time>2020-06-18T07:17:49Z</time>
      </trkpt>
      <trkpt lat="49.72923" lon="0.35517">
        <ele>106.3</ele>
        <time>2020-06-18T07:17:50Z</time>
      </trkpt>
      <trkpt lat="49.72927" lon="0.35521">
        <ele>106.2</ele>
        <time>2020-06-18T07:17:51Z</time>
      </trkpt>
      <trkpt lat="49.72931" lon="0.35525">
        <ele>106.2</ele>
        <time>2020-06-18T07:17:52Z</time>
      </trkpt>
      <trkpt lat="49.72936" lon="0.35529">
        <ele>106.2</ele>
        <time>2020-06-18T07:17:53Z</time>
      </trkpt>
      <trkpt lat="49.72939" lon="0.35533">
        <ele>106.1</ele>
        <time>2020-06-18T07:17:54Z</time>
      </trkpt>
      <trkpt lat="49.72945" lon="0.35536">
        <ele>106.1</ele>
        <time>2020-06-18T07:17:55Z</time>
      </trkpt>
      <trkpt lat="49.72949" lon="0.35537">
        <ele>106.1</ele>
        <time>2020-06-18T07:17:56Z</time>
      </trkpt>
      <trkpt lat="49.72954" lon="0.35539">
        <ele>106.1</ele>
        <time>2020-06-18T07:17:57Z</time>
      </trkpt>
      <trkpt lat="49.7296" lon="0.35541">
        <ele>106.1</ele>
        <time>2020-06-18T07:17:58Z</time>
      </trkpt>
      <trkpt lat="49.72966" lon="0.35541">
        <ele>106.1</ele>
        <time>2020-06-18T07:17:59Z</time>
      </trkpt>
      <trkpt lat="49.72971" lon="0.35541">
        <ele>106</ele>
        <time>2020-06-18T07:18:00Z</time>
      </trkpt>
      <trkpt lat="49.72978" lon="0.3554">
        <ele>106</ele>
        <time>2020-06-18T07:18:01Z</time>
      </trkpt>
      <trkpt lat="49.72984" lon="0.35539">
        <ele>106</ele>
        <time>2020-06-18T07:18:02Z</time>
      </trkpt>
      <trkpt lat="49.7299" lon="0.35538">
        <ele>105.9</ele>
        <time>2020-06-18T07:18:03Z</time>
      </trkpt>
      <trkpt lat="49.72996" lon="0.35536">
        <ele>105.9</ele>
        <time>2020-06-18T07:18:04Z</time>
      </trkpt>
      <trkpt lat="49.73002" lon="0.35534">
        <ele>105.8</ele>
        <time>2020-06-18T07:18:05Z</time>
      </trkpt>
      <trkpt lat="49.73008" lon="0.35533">
        <ele>105.8</ele>
        <time>2020-06-18T07:18:06Z</time>
      </trkpt>
      <trkpt lat="49.73014" lon="0.3553">
        <ele>105.8</ele>
        <time>2020-06-18T07:18:07Z</time>
      </trkpt>
      <trkpt lat="49.7302" lon="0.35529">
        <ele>105.7</ele>
        <time>2020-06-18T07:18:08Z</time>
      </trkpt>
      <trkpt lat="49.73024" lon="0.35526">
        <ele>105.7</ele>
        <time>2020-06-18T07:18:09Z</time>
      </trkpt>
      <trkpt lat="49.73031" lon="0.35524">
        <ele>105.7</ele>
        <time>2020-06-18T07:18:10Z</time>
      </trkpt>
      <trkpt lat="49.73037" lon="0.35522">
        <ele>105.8</ele>
        <time>2020-06-18T07:18:11Z</time>
      </trkpt>
      <trkpt lat="49.73044" lon="0.3552">
        <ele>105.8</ele>
        <time>2020-06-18T07:18:12Z</time>
      </trkpt>
      <trkpt lat="49.73051" lon="0.35518">
        <ele>105.8</ele>
        <time>2020-06-18T07:18:13Z</time>
      </trkpt>
      <trkpt lat="49.73057" lon="0.35516">
        <ele>105.9</ele>
        <time>2020-06-18T07:18:14Z</time>
      </trkpt>
      <trkpt lat="49.73064" lon="0.35516">
        <ele>105.9</ele>
        <time>2020-06-18T07:18:15Z</time>
      </trkpt>
      <trkpt lat="49.73069" lon="0.35514">
        <ele>105.9</ele>
        <time>2020-06-18T07:18:16Z</time>
      </trkpt>
      <trkpt lat="49.73075" lon="0.35512">
        <ele>105.9</ele>
        <time>2020-06-18T07:18:17Z</time>
      </trkpt>
      <trkpt lat="49.73081" lon="0.35511">
        <ele>105.9</ele>
        <time>2020-06-18T07:18:18Z</time>
      </trkpt>
      <trkpt lat="49.73087" lon="0.35509">
        <ele>105.9</ele>
        <time>2020-06-18T07:18:19Z</time>
      </trkpt>
      <trkpt lat="49.73093" lon="0.35507">
        <ele>105.9</ele>
        <time>2020-06-18T07:18:20Z</time>
      </trkpt>
      <trkpt lat="49.73099" lon="0.35506">
        <ele>105.8</ele>
        <time>2020-06-18T07:18:21Z</time>
      </trkpt>
      <trkpt lat="49.73106" lon="0.35505">
        <ele>105.7</ele>
        <time>2020-06-18T07:18:22Z</time>
      </trkpt>
      <trkpt lat="49.73112" lon="0.35504">
        <ele>105.6</ele>
        <time>2020-06-18T07:18:23Z</time>
      </trkpt>
      <trkpt lat="49.73118" lon="0.35503">
        <ele>105.5</ele>
        <time>2020-06-18T07:18:24Z</time>
      </trkpt>
      <trkpt lat="49.73123" lon="0.35503">
        <ele>105.5</ele>
        <time>2020-06-18T07:18:25Z</time>
      </trkpt>
      <trkpt lat="49.73129" lon="0.35503">
        <ele>105.4</ele>
        <time>2020-06-18T07:18:26Z</time>
      </trkpt>
      <trkpt lat="49.73135" lon="0.35504">
        <ele>105.4</ele>
        <time>2020-06-18T07:18:27Z</time>
      </trkpt>
      <trkpt lat="49.73142" lon="0.35504">
        <ele>105.3</ele>
        <time>2020-06-18T07:18:28Z</time>
      </trkpt>
      <trkpt lat="49.73148" lon="0.35505">
        <ele>105.2</ele>
        <time>2020-06-18T07:18:29Z</time>
      </trkpt>
      <trkpt lat="49.73154" lon="0.35506">
        <ele>105.1</ele>
        <time>2020-06-18T07:18:30Z</time>
      </trkpt>
      <trkpt lat="49.73159" lon="0.35506">
        <ele>105.1</ele>
        <time>2020-06-18T07:18:31Z</time>
      </trkpt>
      <trkpt lat="49.73166" lon="0.35506">
        <ele>105</ele>
        <time>2020-06-18T07:18:32Z</time>
      </trkpt>
      <trkpt lat="49.73172" lon="0.35506">
        <ele>105</ele>
        <time>2020-06-18T07:18:33Z</time>
      </trkpt>
      <trkpt lat="49.73178" lon="0.35506">
        <ele>104.9</ele>
        <time>2020-06-18T07:18:34Z</time>
      </trkpt>
      <trkpt lat="49.73184" lon="0.35508">
        <ele>104.9</ele>
        <time>2020-06-18T07:18:35Z</time>
      </trkpt>
      <trkpt lat="49.73189" lon="0.35509">
        <ele>104.8</ele>
        <time>2020-06-18T07:18:36Z</time>
      </trkpt>
      <trkpt lat="49.73196" lon="0.3551">
        <ele>104.8</ele>
        <time>2020-06-18T07:18:37Z</time>
      </trkpt>
      <trkpt lat="49.73202" lon="0.35512">
        <ele>104.7</ele>
        <time>2020-06-18T07:18:38Z</time>
      </trkpt>
      <trkpt lat="49.73209" lon="0.35514">
        <ele>104.7</ele>
        <time>2020-06-18T07:18:39Z</time>
      </trkpt>
      <trkpt lat="49.73215" lon="0.35516">
        <ele>104.6</ele>
        <time>2020-06-18T07:18:40Z</time>
      </trkpt>
      <trkpt lat="49.73222" lon="0.35518">
        <ele>104.6</ele>
        <time>2020-06-18T07:18:41Z</time>
      </trkpt>
      <trkpt lat="49.73228" lon="0.3552">
        <ele>104.5</ele>
        <time>2020-06-18T07:18:42Z</time>
      </trkpt>
      <trkpt lat="49.73235" lon="0.35522">
        <ele>104.4</ele>
        <time>2020-06-18T07:18:43Z</time>
      </trkpt>
      <trkpt lat="49.73241" lon="0.35523">
        <ele>104.4</ele>
        <time>2020-06-18T07:18:44Z</time>
      </trkpt>
      <trkpt lat="49.73247" lon="0.35525">
        <ele>104.3</ele>
        <time>2020-06-18T07:18:45Z</time>
      </trkpt>
      <trkpt lat="49.73254" lon="0.35528">
        <ele>104.2</ele>
        <time>2020-06-18T07:18:46Z</time>
      </trkpt>
      <trkpt lat="49.73261" lon="0.35529">
        <ele>104.1</ele>
        <time>2020-06-18T07:18:47Z</time>
      </trkpt>
      <trkpt lat="49.73267" lon="0.35531">
        <ele>104.1</ele>
        <time>2020-06-18T07:18:48Z</time>
      </trkpt>
      <trkpt lat="49.73274" lon="0.35533">
        <ele>104</ele>
        <time>2020-06-18T07:18:49Z</time>
      </trkpt>
      <trkpt lat="49.7328" lon="0.35535">
        <ele>104</ele>
        <time>2020-06-18T07:18:50Z</time>
      </trkpt>
      <trkpt lat="49.73286" lon="0.35538">
        <ele>103.9</ele>
        <time>2020-06-18T07:18:51Z</time>
      </trkpt>
      <trkpt lat="49.73293" lon="0.3554">
        <ele>103.8</ele>
        <time>2020-06-18T07:18:52Z</time>
      </trkpt>
      <trkpt lat="49.73299" lon="0.35543">
        <ele>103.7</ele>
        <time>2020-06-18T07:18:53Z</time>
      </trkpt>
      <trkpt lat="49.73305" lon="0.35546">
        <ele>103.7</ele>
        <time>2020-06-18T07:18:54Z</time>
      </trkpt>
      <trkpt lat="49.73311" lon="0.35549">
        <ele>103.6</ele>
        <time>2020-06-18T07:18:55Z</time>
      </trkpt>
      <trkpt lat="49.73318" lon="0.35552">
        <ele>103.5</ele>
        <time>2020-06-18T07:18:56Z</time>
      </trkpt>
      <trkpt lat="49.73323" lon="0.35555">
        <ele>103.5</ele>
        <time>2020-06-18T07:18:57Z</time>
      </trkpt>
      <trkpt lat="49.7333" lon="0.35558">
        <ele>103.4</ele>
        <time>2020-06-18T07:18:58Z</time>
      </trkpt>
      <trkpt lat="49.73336" lon="0.35562">
        <ele>103.4</ele>
        <time>2020-06-18T07:18:59Z</time>
      </trkpt>
      <trkpt lat="49.73342" lon="0.35565">
        <ele>103.3</ele>
        <time>2020-06-18T07:19:00Z</time>
      </trkpt>
      <trkpt lat="49.73348" lon="0.35568">
        <ele>103.3</ele>
        <time>2020-06-18T07:19:01Z</time>
      </trkpt>
      <trkpt lat="49.73353" lon="0.3557">
        <ele>103.2</ele>
        <time>2020-06-18T07:19:02Z</time>
      </trkpt>
      <trkpt lat="49.73359" lon="0.35573">
        <ele>103.2</ele>
        <time>2020-06-18T07:19:03Z</time>
      </trkpt>
      <trkpt lat="49.73364" lon="0.35574">
        <ele>103.1</ele>
        <time>2020-06-18T07:19:04Z</time>
      </trkpt>
      <trkpt lat="49.7337" lon="0.35576">
        <ele>103.1</ele>
        <time>2020-06-18T07:19:05Z</time>
      </trkpt>
      <trkpt lat="49.73376" lon="0.35577">
        <ele>103.1</ele>
        <time>2020-06-18T07:19:06Z</time>
      </trkpt>
      <trkpt lat="49.73383" lon="0.35577">
        <ele>103</ele>
        <time>2020-06-18T07:19:07Z</time>
      </trkpt>
      <trkpt lat="49.73391" lon="0.35575">
        <ele>102.9</ele>
        <time>2020-06-18T07:19:08Z</time>
      </trkpt>
      <trkpt lat="49.73397" lon="0.35572">
        <ele>102.8</ele>
        <time>2020-06-18T07:19:09Z</time>
      </trkpt>
      <trkpt lat="49.73403" lon="0.3557">
        <ele>102.7</ele>
        <time>2020-06-18T07:19:10Z</time>
      </trkpt>
      <trkpt lat="49.7341" lon="0.35567">
        <ele>102.5</ele>
        <time>2020-06-18T07:19:11Z</time>
      </trkpt>
      <trkpt lat="49.73417" lon="0.35565">
        <ele>102.4</ele>
        <time>2020-06-18T07:19:12Z</time>
      </trkpt>
      <trkpt lat="49.73423" lon="0.35562">
        <ele>102.3</ele>
        <time>2020-06-18T07:19:13Z</time>
      </trkpt>
      <trkpt lat="49.7343" lon="0.3556">
        <ele>102.2</ele>
        <time>2020-06-18T07:19:14Z</time>
      </trkpt>
      <trkpt lat="49.73437" lon="0.35558">
        <ele>102.1</ele>
        <time>2020-06-18T07:19:15Z</time>
      </trkpt>
      <trkpt lat="49.73444" lon="0.35555">
        <ele>102</ele>
        <time>2020-06-18T07:19:16Z</time>
      </trkpt>
      <trkpt lat="49.73451" lon="0.35553">
        <ele>101.9</ele>
        <time>2020-06-18T07:19:17Z</time>
      </trkpt>
      <trkpt lat="49.73457" lon="0.35551">
        <ele>101.8</ele>
        <time>2020-06-18T07:19:18Z</time>
      </trkpt>
      <trkpt lat="49.73464" lon="0.35548">
        <ele>101.6</ele>
        <time>2020-06-18T07:19:19Z</time>
      </trkpt>
      <trkpt lat="49.73472" lon="0.35547">
        <ele>101.5</ele>
        <time>2020-06-18T07:19:20Z</time>
      </trkpt>
      <trkpt lat="49.73478" lon="0.35546">
        <ele>101.4</ele>
        <time>2020-06-18T07:19:21Z</time>
      </trkpt>
      <trkpt lat="49.73486" lon="0.35545">
        <ele>101.2</ele>
        <time>2020-06-18T07:19:22Z</time>
      </trkpt>
      <trkpt lat="49.73493" lon="0.35543">
        <ele>101.1</ele>
        <time>2020-06-18T07:19:23Z</time>
      </trkpt>
      <trkpt lat="49.735" lon="0.35542">
        <ele>100.9</ele>
        <time>2020-06-18T07:19:24Z</time>
      </trkpt>
      <trkpt lat="49.73508" lon="0.35541">
        <ele>100.8</ele>
        <time>2020-06-18T07:19:25Z</time>
      </trkpt>
      <trkpt lat="49.73516" lon="0.3554">
        <ele>100.7</ele>
        <time>2020-06-18T07:19:26Z</time>
      </trkpt>
      <trkpt lat="49.73523" lon="0.3554">
        <ele>100.4</ele>
        <time>2020-06-18T07:19:27Z</time>
      </trkpt>
      <trkpt lat="49.73531" lon="0.35541">
        <ele>100.4</ele>
        <time>2020-06-18T07:19:28Z</time>
      </trkpt>
      <trkpt lat="49.73538" lon="0.35543">
        <ele>100.4</ele>
        <time>2020-06-18T07:19:29Z</time>
      </trkpt>
      <trkpt lat="49.73545" lon="0.35545">
        <ele>100.3</ele>
        <time>2020-06-18T07:19:30Z</time>
      </trkpt>
      <trkpt lat="49.73552" lon="0.35548">
        <ele>100.3</ele>
        <time>2020-06-18T07:19:31Z</time>
      </trkpt>
      <trkpt lat="49.73559" lon="0.35551">
        <ele>100.2</ele>
        <time>2020-06-18T07:19:32Z</time>
      </trkpt>
      <trkpt lat="49.73566" lon="0.35554">
        <ele>100.1</ele>
        <time>2020-06-18T07:19:33Z</time>
      </trkpt>
      <trkpt lat="49.73573" lon="0.35559">
        <ele>100.1</ele>
        <time>2020-06-18T07:19:34Z</time>
      </trkpt>
      <trkpt lat="49.73579" lon="0.35563">
        <ele>100</ele>
        <time>2020-06-18T07:19:35Z</time>
      </trkpt>
      <trkpt lat="49.73586" lon="0.35567">
        <ele>99.9</ele>
        <time>2020-06-18T07:19:36Z</time>
      </trkpt>
      <trkpt lat="49.73593" lon="0.35572">
        <ele>99.9</ele>
        <time>2020-06-18T07:19:37Z</time>
      </trkpt>
      <trkpt lat="49.73599" lon="0.35575">
        <ele>99.8</ele>
        <time>2020-06-18T07:19:38Z</time>
      </trkpt>
      <trkpt lat="49.73606" lon="0.35579">
        <ele>99.7</ele>
        <time>2020-06-18T07:19:39Z</time>
      </trkpt>
      <trkpt lat="49.73612" lon="0.35583">
        <ele>99.7</ele>
        <time>2020-06-18T07:19:40Z</time>
      </trkpt>
      <trkpt lat="49.73619" lon="0.35586">
        <ele>99.6</ele>
        <time>2020-06-18T07:19:41Z</time>
      </trkpt>
      <trkpt lat="49.73626" lon="0.35588">
        <ele>99.5</ele>
        <time>2020-06-18T07:19:42Z</time>
      </trkpt>
      <trkpt lat="49.73633" lon="0.35591">
        <ele>99.4</ele>
        <time>2020-06-18T07:19:43Z</time>
      </trkpt>
      <trkpt lat="49.7364" lon="0.35593">
        <ele>99.3</ele>
        <time>2020-06-18T07:19:44Z</time>
      </trkpt>
      <trkpt lat="49.73647" lon="0.35595">
        <ele>99.1</ele>
        <time>2020-06-18T07:19:45Z</time>
      </trkpt>
      <trkpt lat="49.73654" lon="0.35596">
        <ele>99.1</ele>
        <time>2020-06-18T07:19:46Z</time>
      </trkpt>
      <trkpt lat="49.73661" lon="0.35597">
        <ele>99</ele>
        <time>2020-06-18T07:19:47Z</time>
      </trkpt>
      <trkpt lat="49.73668" lon="0.35597">
        <ele>98.9</ele>
        <time>2020-06-18T07:19:48Z</time>
      </trkpt>
      <trkpt lat="49.73675" lon="0.356">
        <ele>99</ele>
        <time>2020-06-18T07:19:49Z</time>
      </trkpt>
      <trkpt lat="49.73682" lon="0.35602">
        <ele>99</ele>
        <time>2020-06-18T07:19:50Z</time>
      </trkpt>
      <trkpt lat="49.73688" lon="0.35605">
        <ele>99</ele>
        <time>2020-06-18T07:19:51Z</time>
      </trkpt>
      <trkpt lat="49.73694" lon="0.35609">
        <ele>99</ele>
        <time>2020-06-18T07:19:52Z</time>
      </trkpt>
      <trkpt lat="49.737" lon="0.35614">
        <ele>99.1</ele>
        <time>2020-06-18T07:19:53Z</time>
      </trkpt>
      <trkpt lat="49.73705" lon="0.35621">
        <ele>99.1</ele>
        <time>2020-06-18T07:19:54Z</time>
      </trkpt>
      <trkpt lat="49.7371" lon="0.35629">
        <ele>99.1</ele>
        <time>2020-06-18T07:19:55Z</time>
      </trkpt>
      <trkpt lat="49.73714" lon="0.35637">
        <ele>99.1</ele>
        <time>2020-06-18T07:19:56Z</time>
      </trkpt>
      <trkpt lat="49.73718" lon="0.35646">
        <ele>99.1</ele>
        <time>2020-06-18T07:19:57Z</time>
      </trkpt>
      <trkpt lat="49.73722" lon="0.35656">
        <ele>99.1</ele>
        <time>2020-06-18T07:19:58Z</time>
      </trkpt>
      <trkpt lat="49.73726" lon="0.35665">
        <ele>99</ele>
        <time>2020-06-18T07:19:59Z</time>
      </trkpt>
      <trkpt lat="49.73731" lon="0.35674">
        <ele>99</ele>
        <time>2020-06-18T07:20:00Z</time>
      </trkpt>
      <trkpt lat="49.73737" lon="0.35682">
        <ele>99</ele>
        <time>2020-06-18T07:20:01Z</time>
      </trkpt>
      <trkpt lat="49.73742" lon="0.3569">
        <ele>99</ele>
        <time>2020-06-18T07:20:02Z</time>
      </trkpt>
      <trkpt lat="49.73747" lon="0.35697">
        <ele>99</ele>
        <time>2020-06-18T07:20:03Z</time>
      </trkpt>
      <trkpt lat="49.73753" lon="0.35705">
        <ele>99</ele>
        <time>2020-06-18T07:20:04Z</time>
      </trkpt>
      <trkpt lat="49.73759" lon="0.35712">
        <ele>99.1</ele>
        <time>2020-06-18T07:20:05Z</time>
      </trkpt>
      <trkpt lat="49.73765" lon="0.35718">
        <ele>99.1</ele>
        <time>2020-06-18T07:20:06Z</time>
      </trkpt>
      <trkpt lat="49.7377" lon="0.35724">
        <ele>99.2</ele>
        <time>2020-06-18T07:20:07Z</time>
      </trkpt>
      <trkpt lat="49.73776" lon="0.3573">
        <ele>99.2</ele>
        <time>2020-06-18T07:20:08Z</time>
      </trkpt>
      <trkpt lat="49.73781" lon="0.35737">
        <ele>99.3</ele>
        <time>2020-06-18T07:20:09Z</time>
      </trkpt>
      <trkpt lat="49.73787" lon="0.35743">
        <ele>99.4</ele>
        <time>2020-06-18T07:20:10Z</time>
      </trkpt>
      <trkpt lat="49.73792" lon="0.35747">
        <ele>99.4</ele>
        <time>2020-06-18T07:20:11Z</time>
      </trkpt>
      <trkpt lat="49.73798" lon="0.3575">
        <ele>99.5</ele>
        <time>2020-06-18T07:20:12Z</time>
      </trkpt>
      <trkpt lat="49.73804" lon="0.35754">
        <ele>99.6</ele>
        <time>2020-06-18T07:20:13Z</time>
      </trkpt>
      <trkpt lat="49.7381" lon="0.35758">
        <ele>99.7</ele>
        <time>2020-06-18T07:20:14Z</time>
      </trkpt>
      <trkpt lat="49.73816" lon="0.35763">
        <ele>99.7</ele>
        <time>2020-06-18T07:20:15Z</time>
      </trkpt>
      <trkpt lat="49.73822" lon="0.35767">
        <ele>99.8</ele>
        <time>2020-06-18T07:20:16Z</time>
      </trkpt>
      <trkpt lat="49.73827" lon="0.35771">
        <ele>99.9</ele>
        <time>2020-06-18T07:20:17Z</time>
      </trkpt>
      <trkpt lat="49.73832" lon="0.35774">
        <ele>100</ele>
        <time>2020-06-18T07:20:18Z</time>
      </trkpt>
      <trkpt lat="49.73836" lon="0.35779">
        <ele>100.1</ele>
        <time>2020-06-18T07:20:19Z</time>
      </trkpt>
      <trkpt lat="49.73841" lon="0.35783">
        <ele>100.2</ele>
        <time>2020-06-18T07:20:20Z</time>
      </trkpt>
      <trkpt lat="49.73845" lon="0.35787">
        <ele>100.2</ele>
        <time>2020-06-18T07:20:21Z</time>
      </trkpt>
      <trkpt lat="49.73849" lon="0.35791">
        <ele>100.3</ele>
        <time>2020-06-18T07:20:22Z</time>
      </trkpt>
      <trkpt lat="49.73853" lon="0.35793">
        <ele>100.4</ele>
        <time>2020-06-18T07:20:23Z</time>
      </trkpt>
      <trkpt lat="49.73857" lon="0.35794">
        <ele>100.5</ele>
        <time>2020-06-18T07:20:24Z</time>
      </trkpt>
      <trkpt lat="49.73862" lon="0.35793">
        <ele>100.5</ele>
        <time>2020-06-18T07:20:25Z</time>
      </trkpt>
      <trkpt lat="49.73867" lon="0.35793">
        <ele>100.6</ele>
        <time>2020-06-18T07:20:26Z</time>
      </trkpt>
      <trkpt lat="49.73871" lon="0.35795">
        <ele>100.6</ele>
        <time>2020-06-18T07:20:27Z</time>
      </trkpt>
      <trkpt lat="49.73874" lon="0.358">
        <ele>100.6</ele>
        <time>2020-06-18T07:20:28Z</time>
      </trkpt>
      <trkpt lat="49.73879" lon="0.35804">
        <ele>100.7</ele>
        <time>2020-06-18T07:20:29Z</time>
      </trkpt>
      <trkpt lat="49.73884" lon="0.35803">
        <ele>100.7</ele>
        <time>2020-06-18T07:20:30Z</time>
      </trkpt>
      <trkpt lat="49.73887" lon="0.35797">
        <ele>100.7</ele>
        <time>2020-06-18T07:20:31Z</time>
      </trkpt>
      <trkpt lat="49.73891" lon="0.35792">
        <ele>100.6</ele>
        <time>2020-06-18T07:20:32Z</time>
      </trkpt>
      <trkpt lat="49.73893" lon="0.35785">
        <ele>100.6</ele>
        <time>2020-06-18T07:20:33Z</time>
      </trkpt>
      <trkpt lat="49.73896" lon="0.35779">
        <ele>100.4</ele>
        <time>2020-06-18T07:20:34Z</time>
      </trkpt>
      <trkpt lat="49.73901" lon="0.35775">
        <ele>100.1</ele>
        <time>2020-06-18T07:20:35Z</time>
      </trkpt>
      <trkpt lat="49.73905" lon="0.35769">
        <ele>100.1</ele>
        <time>2020-06-18T07:20:36Z</time>
      </trkpt>
      <trkpt lat="49.73909" lon="0.35762">
        <ele>100.1</ele>
        <time>2020-06-18T07:20:37Z</time>
      </trkpt>
      <trkpt lat="49.73913" lon="0.35755">
        <ele>100.1</ele>
        <time>2020-06-18T07:20:38Z</time>
      </trkpt>
      <trkpt lat="49.73916" lon="0.35748">
        <ele>100</ele>
        <time>2020-06-18T07:20:39Z</time>
      </trkpt>
      <trkpt lat="49.7392" lon="0.3574">
        <ele>100</ele>
        <time>2020-06-18T07:20:40Z</time>
      </trkpt>
      <trkpt lat="49.73922" lon="0.35732">
        <ele>99.9</ele>
        <time>2020-06-18T07:20:41Z</time>
      </trkpt>
      <trkpt lat="49.73925" lon="0.35724">
        <ele>99.8</ele>
        <time>2020-06-18T07:20:42Z</time>
      </trkpt>
      <trkpt lat="49.73927" lon="0.35716">
        <ele>99.7</ele>
        <time>2020-06-18T07:20:43Z</time>
      </trkpt>
      <trkpt lat="49.7393" lon="0.35708">
        <ele>99.6</ele>
        <time>2020-06-18T07:20:44Z</time>
      </trkpt>
      <trkpt lat="49.73934" lon="0.357">
        <ele>99.5</ele>
        <time>2020-06-18T07:20:45Z</time>
      </trkpt>
      <trkpt lat="49.73937" lon="0.35691">
        <ele>99.4</ele>
        <time>2020-06-18T07:20:46Z</time>
      </trkpt>
      <trkpt lat="49.73939" lon="0.35683">
        <ele>99.3</ele>
        <time>2020-06-18T07:20:47Z</time>
      </trkpt>
      <trkpt lat="49.73941" lon="0.35674">
        <ele>99.2</ele>
        <time>2020-06-18T07:20:48Z</time>
      </trkpt>
      <trkpt lat="49.73943" lon="0.35666">
        <ele>99.1</ele>
        <time>2020-06-18T07:20:49Z</time>
      </trkpt>
      <trkpt lat="49.73945" lon="0.35658">
        <ele>99.1</ele>
        <time>2020-06-18T07:20:50Z</time>
      </trkpt>
      <trkpt lat="49.73946" lon="0.35651">
        <ele>99</ele>
        <time>2020-06-18T07:20:51Z</time>
      </trkpt>
      <trkpt lat="49.73947" lon="0.35643">
        <ele>98.9</ele>
        <time>2020-06-18T07:20:52Z</time>
      </trkpt>
      <trkpt lat="49.73949" lon="0.35636">
        <ele>98.8</ele>
        <time>2020-06-18T07:20:53Z</time>
      </trkpt>
      <trkpt lat="49.73951" lon="0.35628">
        <ele>98.7</ele>
        <time>2020-06-18T07:20:54Z</time>
      </trkpt>
      <trkpt lat="49.73953" lon="0.35622">
        <ele>98.6</ele>
        <time>2020-06-18T07:20:55Z</time>
      </trkpt>
      <trkpt lat="49.73955" lon="0.35615">
        <ele>98.5</ele>
        <time>2020-06-18T07:20:56Z</time>
      </trkpt>
      <trkpt lat="49.73957" lon="0.35608">
        <ele>98.4</ele>
        <time>2020-06-18T07:20:57Z</time>
      </trkpt>
      <trkpt lat="49.73959" lon="0.35601">
        <ele>98.3</ele>
        <time>2020-06-18T07:20:58Z</time>
      </trkpt>
      <trkpt lat="49.7396" lon="0.35594">
        <ele>98.1</ele>
        <time>2020-06-18T07:20:59Z</time>
      </trkpt>
      <trkpt lat="49.73962" lon="0.35587">
        <ele>98</ele>
        <time>2020-06-18T07:21:00Z</time>
      </trkpt>
      <trkpt lat="49.73964" lon="0.3558">
        <ele>97.9</ele>
        <time>2020-06-18T07:21:01Z</time>
      </trkpt>
      <trkpt lat="49.73967" lon="0.35573">
        <ele>97.8</ele>
        <time>2020-06-18T07:21:02Z</time>
      </trkpt>
      <trkpt lat="49.73968" lon="0.35566">
        <ele>97.8</ele>
        <time>2020-06-18T07:21:03Z</time>
      </trkpt>
      <trkpt lat="49.73969" lon="0.35558">
        <ele>97.8</ele>
        <time>2020-06-18T07:21:04Z</time>
      </trkpt>
      <trkpt lat="49.73969" lon="0.35551">
        <ele>97.7</ele>
        <time>2020-06-18T07:21:05Z</time>
      </trkpt>
      <trkpt lat="49.7397" lon="0.35543">
        <ele>97.4</ele>
        <time>2020-06-18T07:21:06Z</time>
      </trkpt>
      <trkpt lat="49.7397" lon="0.35535">
        <ele>97.3</ele>
        <time>2020-06-18T07:21:07Z</time>
      </trkpt>
      <trkpt lat="49.73971" lon="0.35527">
        <ele>97.1</ele>
        <time>2020-06-18T07:21:08Z</time>
      </trkpt>
      <trkpt lat="49.73972" lon="0.35518">
        <ele>96.9</ele>
        <time>2020-06-18T07:21:09Z</time>
      </trkpt>
      <trkpt lat="49.73972" lon="0.35509">
        <ele>96.7</ele>
        <time>2020-06-18T07:21:10Z</time>
      </trkpt>
      <trkpt lat="49.73973" lon="0.355">
        <ele>96.5</ele>
        <time>2020-06-18T07:21:11Z</time>
      </trkpt>
      <trkpt lat="49.73974" lon="0.35492">
        <ele>96.3</ele>
        <time>2020-06-18T07:21:12Z</time>
      </trkpt>
      <trkpt lat="49.73975" lon="0.35483">
        <ele>96</ele>
        <time>2020-06-18T07:21:13Z</time>
      </trkpt>
      <trkpt lat="49.73976" lon="0.35473">
        <ele>95.8</ele>
        <time>2020-06-18T07:21:14Z</time>
      </trkpt>
      <trkpt lat="49.73977" lon="0.35464">
        <ele>95.5</ele>
        <time>2020-06-18T07:21:15Z</time>
      </trkpt>
      <trkpt lat="49.73978" lon="0.35454">
        <ele>95.3</ele>
        <time>2020-06-18T07:21:16Z</time>
      </trkpt>
      <trkpt lat="49.73979" lon="0.35444">
        <ele>95</ele>
        <time>2020-06-18T07:21:17Z</time>
      </trkpt>
      <trkpt lat="49.7398" lon="0.35434">
        <ele>94.8</ele>
        <time>2020-06-18T07:21:18Z</time>
      </trkpt>
      <trkpt lat="49.73981" lon="0.35424">
        <ele>94.5</ele>
        <time>2020-06-18T07:21:19Z</time>
      </trkpt>
      <trkpt lat="49.7398" lon="0.35414">
        <ele>94.2</ele>
        <time>2020-06-18T07:21:20Z</time>
      </trkpt>
      <trkpt lat="49.7398" lon="0.35404">
        <ele>93.9</ele>
        <time>2020-06-18T07:21:21Z</time>
      </trkpt>
      <trkpt lat="49.7398" lon="0.35394">
        <ele>93.6</ele>
        <time>2020-06-18T07:21:22Z</time>
      </trkpt>
      <trkpt lat="49.7398" lon="0.35383">
        <ele>93.4</ele>
        <time>2020-06-18T07:21:23Z</time>
      </trkpt>
      <trkpt lat="49.73981" lon="0.35373">
        <ele>93.1</ele>
        <time>2020-06-18T07:21:24Z</time>
      </trkpt>
      <trkpt lat="49.73982" lon="0.35363">
        <ele>92.8</ele>
        <time>2020-06-18T07:21:25Z</time>
      </trkpt>
      <trkpt lat="49.73982" lon="0.35353">
        <ele>92.6</ele>
        <time>2020-06-18T07:21:26Z</time>
      </trkpt>
      <trkpt lat="49.73982" lon="0.35342">
        <ele>92.3</ele>
        <time>2020-06-18T07:21:27Z</time>
      </trkpt>
      <trkpt lat="49.73983" lon="0.35332">
        <ele>92.1</ele>
        <time>2020-06-18T07:21:28Z</time>
      </trkpt>
      <trkpt lat="49.73984" lon="0.35322">
        <ele>91.8</ele>
        <time>2020-06-18T07:21:29Z</time>
      </trkpt>
      <trkpt lat="49.73986" lon="0.35312">
        <ele>91.4</ele>
        <time>2020-06-18T07:21:30Z</time>
      </trkpt>
      <trkpt lat="49.73988" lon="0.35302">
        <ele>91.1</ele>
        <time>2020-06-18T07:21:31Z</time>
      </trkpt>
      <trkpt lat="49.73989" lon="0.35292">
        <ele>90.8</ele>
        <time>2020-06-18T07:21:32Z</time>
      </trkpt>
      <trkpt lat="49.73991" lon="0.35282">
        <ele>90.5</ele>
        <time>2020-06-18T07:21:33Z</time>
      </trkpt>
      <trkpt lat="49.73994" lon="0.35272">
        <ele>90.1</ele>
        <time>2020-06-18T07:21:34Z</time>
      </trkpt>
      <trkpt lat="49.73996" lon="0.35262">
        <ele>89.8</ele>
        <time>2020-06-18T07:21:35Z</time>
      </trkpt>
      <trkpt lat="49.74" lon="0.35252">
        <ele>89.4</ele>
        <time>2020-06-18T07:21:36Z</time>
      </trkpt>
      <trkpt lat="49.74003" lon="0.35242">
        <ele>89</ele>
        <time>2020-06-18T07:21:37Z</time>
      </trkpt>
      <trkpt lat="49.74006" lon="0.35232">
        <ele>88.6</ele>
        <time>2020-06-18T07:21:38Z</time>
      </trkpt>
      <trkpt lat="49.74009" lon="0.35222">
        <ele>88.3</ele>
        <time>2020-06-18T07:21:39Z</time>
      </trkpt>
      <trkpt lat="49.74012" lon="0.35211">
        <ele>88</ele>
        <time>2020-06-18T07:21:40Z</time>
      </trkpt>
      <trkpt lat="49.74016" lon="0.35201">
        <ele>87.6</ele>
        <time>2020-06-18T07:21:41Z</time>
      </trkpt>
      <trkpt lat="49.74019" lon="0.35191">
        <ele>87.3</ele>
        <time>2020-06-18T07:21:42Z</time>
      </trkpt>
      <trkpt lat="49.74022" lon="0.3518">
        <ele>86.9</ele>
        <time>2020-06-18T07:21:43Z</time>
      </trkpt>
      <trkpt lat="49.74025" lon="0.3517">
        <ele>86.6</ele>
        <time>2020-06-18T07:21:44Z</time>
      </trkpt>
      <trkpt lat="49.74028" lon="0.35159">
        <ele>86.2</ele>
        <time>2020-06-18T07:21:45Z</time>
      </trkpt>
      <trkpt lat="49.74031" lon="0.35148">
        <ele>85.8</ele>
        <time>2020-06-18T07:21:46Z</time>
      </trkpt>
      <trkpt lat="49.74033" lon="0.35137">
        <ele>85.4</ele>
        <time>2020-06-18T07:21:47Z</time>
      </trkpt>
      <trkpt lat="49.74036" lon="0.35126">
        <ele>85.1</ele>
        <time>2020-06-18T07:21:48Z</time>
      </trkpt>
      <trkpt lat="49.74039" lon="0.35115">
        <ele>84.7</ele>
        <time>2020-06-18T07:21:49Z</time>
      </trkpt>
      <trkpt lat="49.74043" lon="0.35105">
        <ele>84.4</ele>
        <time>2020-06-18T07:21:50Z</time>
      </trkpt>
      <trkpt lat="49.74046" lon="0.35094">
        <ele>84</ele>
        <time>2020-06-18T07:21:51Z</time>
      </trkpt>
      <trkpt lat="49.7405" lon="0.35083">
        <ele>83.6</ele>
        <time>2020-06-18T07:21:52Z</time>
      </trkpt>
      <trkpt lat="49.74053" lon="0.35072">
        <ele>83.3</ele>
        <time>2020-06-18T07:21:53Z</time>
      </trkpt>
      <trkpt lat="49.74056" lon="0.35061">
        <ele>82.9</ele>
        <time>2020-06-18T07:21:54Z</time>
      </trkpt>
      <trkpt lat="49.74059" lon="0.3505">
        <ele>82.5</ele>
        <time>2020-06-18T07:21:55Z</time>
      </trkpt>
      <trkpt lat="49.74062" lon="0.35039">
        <ele>82.2</ele>
        <time>2020-06-18T07:21:56Z</time>
      </trkpt>
      <trkpt lat="49.74066" lon="0.35029">
        <ele>81.8</ele>
        <time>2020-06-18T07:21:57Z</time>
      </trkpt>
      <trkpt lat="49.74069" lon="0.35018">
        <ele>81.5</ele>
        <time>2020-06-18T07:21:58Z</time>
      </trkpt>
      <trkpt lat="49.74072" lon="0.35006">
        <ele>81.2</ele>
        <time>2020-06-18T07:21:59Z</time>
      </trkpt>
      <trkpt lat="49.74076" lon="0.34995">
        <ele>80.8</ele>
        <time>2020-06-18T07:22:00Z</time>
      </trkpt>
      <trkpt lat="49.74079" lon="0.34984">
        <ele>80.4</ele>
        <time>2020-06-18T07:22:01Z</time>
      </trkpt>
      <trkpt lat="49.74083" lon="0.34972">
        <ele>80</ele>
        <time>2020-06-18T07:22:02Z</time>
      </trkpt>
      <trkpt lat="49.74086" lon="0.34961">
        <ele>79.6</ele>
        <time>2020-06-18T07:22:03Z</time>
      </trkpt>
      <trkpt lat="49.7409" lon="0.3495">
        <ele>79.2</ele>
        <time>2020-06-18T07:22:04Z</time>
      </trkpt>
      <trkpt lat="49.74093" lon="0.34938">
        <ele>78.8</ele>
        <time>2020-06-18T07:22:05Z</time>
      </trkpt>
      <trkpt lat="49.74097" lon="0.34926">
        <ele>78.4</ele>
        <time>2020-06-18T07:22:06Z</time>
      </trkpt>
      <trkpt lat="49.741" lon="0.34915">
        <ele>78</ele>
        <time>2020-06-18T07:22:07Z</time>
      </trkpt>
      <trkpt lat="49.74104" lon="0.34903">
        <ele>77.5</ele>
        <time>2020-06-18T07:22:08Z</time>
      </trkpt>
      <trkpt lat="49.74107" lon="0.34891">
        <ele>77.1</ele>
        <time>2020-06-18T07:22:09Z</time>
      </trkpt>
      <trkpt lat="49.74111" lon="0.34879">
        <ele>76.8</ele>
        <time>2020-06-18T07:22:10Z</time>
      </trkpt>
      <trkpt lat="49.74113" lon="0.34867">
        <ele>76.4</ele>
        <time>2020-06-18T07:22:11Z</time>
      </trkpt>
      <trkpt lat="49.74116" lon="0.34856">
        <ele>76</ele>
        <time>2020-06-18T07:22:12Z</time>
      </trkpt>
      <trkpt lat="49.7412" lon="0.34844">
        <ele>75.6</ele>
        <time>2020-06-18T07:22:13Z</time>
      </trkpt>
      <trkpt lat="49.74123" lon="0.34833">
        <ele>75.2</ele>
        <time>2020-06-18T07:22:14Z</time>
      </trkpt>
      <trkpt lat="49.74127" lon="0.34822">
        <ele>74.8</ele>
        <time>2020-06-18T07:22:15Z</time>
      </trkpt>
      <trkpt lat="49.74131" lon="0.34811">
        <ele>74.4</ele>
        <time>2020-06-18T07:22:16Z</time>
      </trkpt>
      <trkpt lat="49.74135" lon="0.348">
        <ele>74</ele>
        <time>2020-06-18T07:22:17Z</time>
      </trkpt>
      <trkpt lat="49.74139" lon="0.3479">
        <ele>73.6</ele>
        <time>2020-06-18T07:22:18Z</time>
      </trkpt>
      <trkpt lat="49.74144" lon="0.34779">
        <ele>73.1</ele>
        <time>2020-06-18T07:22:19Z</time>
      </trkpt>
      <trkpt lat="49.74149" lon="0.34769">
        <ele>72.7</ele>
        <time>2020-06-18T07:22:20Z</time>
      </trkpt>
      <trkpt lat="49.74154" lon="0.34759">
        <ele>72.4</ele>
        <time>2020-06-18T07:22:21Z</time>
      </trkpt>
      <trkpt lat="49.74161" lon="0.3475">
        <ele>72</ele>
        <time>2020-06-18T07:22:22Z</time>
      </trkpt>
      <trkpt lat="49.74167" lon="0.34742">
        <ele>71.5</ele>
        <time>2020-06-18T07:22:23Z</time>
      </trkpt>
      <trkpt lat="49.74174" lon="0.34734">
        <ele>71.1</ele>
        <time>2020-06-18T07:22:24Z</time>
      </trkpt>
      <trkpt lat="49.74181" lon="0.34726">
        <ele>70.7</ele>
        <time>2020-06-18T07:22:25Z</time>
      </trkpt>
      <trkpt lat="49.74188" lon="0.34719">
        <ele>70.4</ele>
        <time>2020-06-18T07:22:26Z</time>
      </trkpt>
      <trkpt lat="49.74195" lon="0.34713">
        <ele>70.1</ele>
        <time>2020-06-18T07:22:27Z</time>
      </trkpt>
      <trkpt lat="49.74203" lon="0.34708">
        <ele>69.9</ele>
        <time>2020-06-18T07:22:28Z</time>
      </trkpt>
      <trkpt lat="49.7421" lon="0.34704">
        <ele>69.7</ele>
        <time>2020-06-18T07:22:29Z</time>
      </trkpt>
      <trkpt lat="49.74217" lon="0.34699">
        <ele>69.5</ele>
        <time>2020-06-18T07:22:30Z</time>
      </trkpt>
      <trkpt lat="49.74224" lon="0.34696">
        <ele>69.3</ele>
        <time>2020-06-18T07:22:31Z</time>
      </trkpt>
      <trkpt lat="49.74231" lon="0.34694">
        <ele>69.1</ele>
        <time>2020-06-18T07:22:32Z</time>
      </trkpt>
      <trkpt lat="49.74238" lon="0.3469">
        <ele>68.7</ele>
        <time>2020-06-18T07:22:33Z</time>
      </trkpt>
      <trkpt lat="49.74244" lon="0.34686">
        <ele>68.5</ele>
        <time>2020-06-18T07:22:34Z</time>
      </trkpt>
      <trkpt lat="49.7425" lon="0.34683">
        <ele>68.3</ele>
        <time>2020-06-18T07:22:35Z</time>
      </trkpt>
      <trkpt lat="49.74256" lon="0.3468">
        <ele>68</ele>
        <time>2020-06-18T07:22:36Z</time>
      </trkpt>
      <trkpt lat="49.74263" lon="0.34678">
        <ele>67.7</ele>
        <time>2020-06-18T07:22:37Z</time>
      </trkpt>
      <trkpt lat="49.7427" lon="0.34675">
        <ele>67.4</ele>
        <time>2020-06-18T07:22:38Z</time>
      </trkpt>
      <trkpt lat="49.74277" lon="0.34673">
        <ele>67</ele>
        <time>2020-06-18T07:22:39Z</time>
      </trkpt>
      <trkpt lat="49.74285" lon="0.3467">
        <ele>66.7</ele>
        <time>2020-06-18T07:22:40Z</time>
      </trkpt>
      <trkpt lat="49.74293" lon="0.34668">
        <ele>66.4</ele>
        <time>2020-06-18T07:22:41Z</time>
      </trkpt>
      <trkpt lat="49.743" lon="0.34668">
        <ele>66</ele>
        <time>2020-06-18T07:22:42Z</time>
      </trkpt>
      <trkpt lat="49.74309" lon="0.34673">
        <ele>65.6</ele>
        <time>2020-06-18T07:22:43Z</time>
      </trkpt>
      <trkpt lat="49.74316" lon="0.34675">
        <ele>65.2</ele>
        <time>2020-06-18T07:22:44Z</time>
      </trkpt>
      <trkpt lat="49.74324" lon="0.34675">
        <ele>64.8</ele>
        <time>2020-06-18T07:22:45Z</time>
      </trkpt>
      <trkpt lat="49.74333" lon="0.34675">
        <ele>64.4</ele>
        <time>2020-06-18T07:22:46Z</time>
      </trkpt>
      <trkpt lat="49.74341" lon="0.34675">
        <ele>64</ele>
        <time>2020-06-18T07:22:47Z</time>
      </trkpt>
      <trkpt lat="49.7435" lon="0.34677">
        <ele>63.6</ele>
        <time>2020-06-18T07:22:48Z</time>
      </trkpt>
      <trkpt lat="49.74358" lon="0.34677">
        <ele>63.3</ele>
        <time>2020-06-18T07:22:49Z</time>
      </trkpt>
      <trkpt lat="49.74367" lon="0.34677">
        <ele>62.9</ele>
        <time>2020-06-18T07:22:50Z</time>
      </trkpt>
      <trkpt lat="49.74375" lon="0.34679">
        <ele>62.5</ele>
        <time>2020-06-18T07:22:51Z</time>
      </trkpt>
      <trkpt lat="49.74384" lon="0.34681">
        <ele>62</ele>
        <time>2020-06-18T07:22:52Z</time>
      </trkpt>
      <trkpt lat="49.74393" lon="0.34684">
        <ele>61.6</ele>
        <time>2020-06-18T07:22:53Z</time>
      </trkpt>
      <trkpt lat="49.74402" lon="0.34686">
        <ele>61.3</ele>
        <time>2020-06-18T07:22:54Z</time>
      </trkpt>
      <trkpt lat="49.74411" lon="0.34689">
        <ele>60.9</ele>
        <time>2020-06-18T07:22:55Z</time>
      </trkpt>
      <trkpt lat="49.7442" lon="0.34692">
        <ele>60.6</ele>
        <time>2020-06-18T07:22:56Z</time>
      </trkpt>
      <trkpt lat="49.74429" lon="0.34695">
        <ele>60.3</ele>
        <time>2020-06-18T07:22:57Z</time>
      </trkpt>
      <trkpt lat="49.74437" lon="0.34698">
        <ele>60</ele>
        <time>2020-06-18T07:22:58Z</time>
      </trkpt>
      <trkpt lat="49.74446" lon="0.347">
        <ele>59.8</ele>
        <time>2020-06-18T07:22:59Z</time>
      </trkpt>
      <trkpt lat="49.74455" lon="0.34701">
        <ele>59.6</ele>
        <time>2020-06-18T07:23:00Z</time>
      </trkpt>
      <trkpt lat="49.74463" lon="0.34703">
        <ele>59.4</ele>
        <time>2020-06-18T07:23:01Z</time>
      </trkpt>
      <trkpt lat="49.74471" lon="0.34703">
        <ele>59.2</ele>
        <time>2020-06-18T07:23:02Z</time>
      </trkpt>
      <trkpt lat="49.7448" lon="0.34702">
        <ele>58.9</ele>
        <time>2020-06-18T07:23:03Z</time>
      </trkpt>
      <trkpt lat="49.74488" lon="0.34703">
        <ele>58.7</ele>
        <time>2020-06-18T07:23:04Z</time>
      </trkpt>
      <trkpt lat="49.74496" lon="0.34704">
        <ele>58.5</ele>
        <time>2020-06-18T07:23:05Z</time>
      </trkpt>
      <trkpt lat="49.74504" lon="0.34706">
        <ele>58.2</ele>
        <time>2020-06-18T07:23:06Z</time>
      </trkpt>
      <trkpt lat="49.74512" lon="0.34707">
        <ele>57.9</ele>
        <time>2020-06-18T07:23:07Z</time>
      </trkpt>
      <trkpt lat="49.7452" lon="0.34709">
        <ele>57.2</ele>
        <time>2020-06-18T07:23:08Z</time>
      </trkpt>
      <trkpt lat="49.74529" lon="0.34711">
        <ele>56.7</ele>
        <time>2020-06-18T07:23:09Z</time>
      </trkpt>
      <trkpt lat="49.74538" lon="0.34712">
        <ele>56.2</ele>
        <time>2020-06-18T07:23:10Z</time>
      </trkpt>
      <trkpt lat="49.74547" lon="0.34713">
        <ele>55.7</ele>
        <time>2020-06-18T07:23:11Z</time>
      </trkpt>
      <trkpt lat="49.74556" lon="0.34714">
        <ele>55.2</ele>
        <time>2020-06-18T07:23:12Z</time>
      </trkpt>
      <trkpt lat="49.74566" lon="0.34715">
        <ele>54.8</ele>
        <time>2020-06-18T07:23:13Z</time>
      </trkpt>
      <trkpt lat="49.74575" lon="0.34716">
        <ele>54.2</ele>
        <time>2020-06-18T07:23:14Z</time>
      </trkpt>
      <trkpt lat="49.74585" lon="0.34716">
        <ele>53.7</ele>
        <time>2020-06-18T07:23:15Z</time>
      </trkpt>
      <trkpt lat="49.74594" lon="0.34717">
        <ele>53.2</ele>
        <time>2020-06-18T07:23:16Z</time>
      </trkpt>
      <trkpt lat="49.74604" lon="0.34717">
        <ele>52.8</ele>
        <time>2020-06-18T07:23:17Z</time>
      </trkpt>
      <trkpt lat="49.74613" lon="0.34718">
        <ele>52.3</ele>
        <time>2020-06-18T07:23:18Z</time>
      </trkpt>
      <trkpt lat="49.74622" lon="0.34719">
        <ele>51.9</ele>
        <time>2020-06-18T07:23:19Z</time>
      </trkpt>
      <trkpt lat="49.7463" lon="0.34721">
        <ele>51.6</ele>
        <time>2020-06-18T07:23:20Z</time>
      </trkpt>
      <trkpt lat="49.74637" lon="0.34724">
        <ele>51.4</ele>
        <time>2020-06-18T07:23:21Z</time>
      </trkpt>
      <trkpt lat="49.74643" lon="0.34724">
        <ele>51.2</ele>
        <time>2020-06-18T07:23:22Z</time>
      </trkpt>
      <trkpt lat="49.74648" lon="0.34723">
        <ele>51</ele>
        <time>2020-06-18T07:23:23Z</time>
      </trkpt>
      <trkpt lat="49.74652" lon="0.34724">
        <ele>50.9</ele>
        <time>2020-06-18T07:23:24Z</time>
      </trkpt>
      <trkpt lat="49.74657" lon="0.34725">
        <ele>50.8</ele>
        <time>2020-06-18T07:23:25Z</time>
      </trkpt>
      <trkpt lat="49.74661" lon="0.34725">
        <ele>50.6</ele>
        <time>2020-06-18T07:23:26Z</time>
      </trkpt>
      <trkpt lat="49.74666" lon="0.34725">
        <ele>50.4</ele>
        <time>2020-06-18T07:23:27Z</time>
      </trkpt>
      <trkpt lat="49.74671" lon="0.34726">
        <ele>50.3</ele>
        <time>2020-06-18T07:23:28Z</time>
      </trkpt>
      <trkpt lat="49.74676" lon="0.34727">
        <ele>50.1</ele>
        <time>2020-06-18T07:23:29Z</time>
      </trkpt>
      <trkpt lat="49.7468" lon="0.3473">
        <ele>50.1</ele>
        <time>2020-06-18T07:23:30Z</time>
      </trkpt>
      <trkpt lat="49.74685" lon="0.34733">
        <ele>50.1</ele>
        <time>2020-06-18T07:23:31Z</time>
      </trkpt>
      <trkpt lat="49.7469" lon="0.34738">
        <ele>50.1</ele>
        <time>2020-06-18T07:23:32Z</time>
      </trkpt>
      <trkpt lat="49.74694" lon="0.34743">
        <ele>50.1</ele>
        <time>2020-06-18T07:23:33Z</time>
      </trkpt>
      <trkpt lat="49.74697" lon="0.34747">
        <ele>50.2</ele>
        <time>2020-06-18T07:23:34Z</time>
      </trkpt>
      <trkpt lat="49.747" lon="0.34751">
        <ele>50.3</ele>
        <time>2020-06-18T07:23:35Z</time>
      </trkpt>
      <trkpt lat="49.74704" lon="0.34755">
        <ele>50.4</ele>
        <time>2020-06-18T07:23:36Z</time>
      </trkpt>
      <trkpt lat="49.74709" lon="0.34758">
        <ele>50.5</ele>
        <time>2020-06-18T07:23:37Z</time>
      </trkpt>
      <trkpt lat="49.74712" lon="0.34763">
        <ele>50.7</ele>
        <time>2020-06-18T07:23:38Z</time>
      </trkpt>
      <trkpt lat="49.74715" lon="0.34766">
        <ele>50.8</ele>
        <time>2020-06-18T07:23:39Z</time>
      </trkpt>
      <trkpt lat="49.74717" lon="0.3477">
        <ele>50.9</ele>
        <time>2020-06-18T07:23:40Z</time>
      </trkpt>
      <trkpt lat="49.74719" lon="0.34774">
        <ele>51</ele>
        <time>2020-06-18T07:23:41Z</time>
      </trkpt>
      <trkpt lat="49.74722" lon="0.34777">
        <ele>51.2</ele>
        <time>2020-06-18T07:23:42Z</time>
      </trkpt>
      <trkpt lat="49.74725" lon="0.34779">
        <ele>51.3</ele>
        <time>2020-06-18T07:23:43Z</time>
      </trkpt>
      <trkpt lat="49.74729" lon="0.3478">
        <ele>51.5</ele>
        <time>2020-06-18T07:23:44Z</time>
      </trkpt>
      <trkpt lat="49.74731" lon="0.34783">
        <ele>51.6</ele>
        <time>2020-06-18T07:23:45Z</time>
      </trkpt>
      <trkpt lat="49.74733" lon="0.34787">
        <ele>51.8</ele>
        <time>2020-06-18T07:23:46Z</time>
      </trkpt>
      <trkpt lat="49.74735" lon="0.34789">
        <ele>52</ele>
        <time>2020-06-18T07:23:47Z</time>
      </trkpt>
      <trkpt lat="49.74738" lon="0.34791">
        <ele>52.1</ele>
        <time>2020-06-18T07:23:48Z</time>
      </trkpt>
      <trkpt lat="49.7474" lon="0.34793">
        <ele>52.3</ele>
        <time>2020-06-18T07:23:49Z</time>
      </trkpt>
      <trkpt lat="49.74743" lon="0.34797">
        <ele>52.5</ele>
        <time>2020-06-18T07:23:50Z</time>
      </trkpt>
      <trkpt lat="49.74744" lon="0.34799">
        <ele>52.6</ele>
        <time>2020-06-18T07:23:51Z</time>
      </trkpt>
      <trkpt lat="49.74746" lon="0.34802">
        <ele>52.7</ele>
        <time>2020-06-18T07:23:52Z</time>
      </trkpt>
      <trkpt lat="49.74748" lon="0.34806">
        <ele>52.8</ele>
        <time>2020-06-18T07:23:53Z</time>
      </trkpt>
      <trkpt lat="49.7475" lon="0.34809">
        <ele>53</ele>
        <time>2020-06-18T07:23:54Z</time>
      </trkpt>
      <trkpt lat="49.74753" lon="0.34811">
        <ele>53.1</ele>
        <time>2020-06-18T07:23:55Z</time>
      </trkpt>
      <trkpt lat="49.74755" lon="0.34813">
        <ele>53.3</ele>
        <time>2020-06-18T07:23:56Z</time>
      </trkpt>
      <trkpt lat="49.74758" lon="0.34815">
        <ele>53.4</ele>
        <time>2020-06-18T07:23:57Z</time>
      </trkpt>
      <trkpt lat="49.7476" lon="0.34817">
        <ele>53.6</ele>
        <time>2020-06-18T07:23:58Z</time>
      </trkpt>
      <trkpt lat="49.74762" lon="0.3482">
        <ele>53.7</ele>
        <time>2020-06-18T07:23:59Z</time>
      </trkpt>
      <trkpt lat="49.74765" lon="0.34822">
        <ele>53.9</ele>
        <time>2020-06-18T07:24:00Z</time>
      </trkpt>
      <trkpt lat="49.74768" lon="0.34824">
        <ele>54.1</ele>
        <time>2020-06-18T07:24:01Z</time>
      </trkpt>
      <trkpt lat="49.74771" lon="0.34826">
        <ele>54.3</ele>
        <time>2020-06-18T07:24:02Z</time>
      </trkpt>
      <trkpt lat="49.74773" lon="0.34829">
        <ele>54.5</ele>
        <time>2020-06-18T07:24:03Z</time>
      </trkpt>
      <trkpt lat="49.74776" lon="0.3483">
        <ele>54.6</ele>
        <time>2020-06-18T07:24:04Z</time>
      </trkpt>
      <trkpt lat="49.74778" lon="0.34832">
        <ele>54.8</ele>
        <time>2020-06-18T07:24:05Z</time>
      </trkpt>
      <trkpt lat="49.74782" lon="0.34834">
        <ele>55.1</ele>
        <time>2020-06-18T07:24:06Z</time>
      </trkpt>
      <trkpt lat="49.74783" lon="0.34835">
        <ele>55.2</ele>
        <time>2020-06-18T07:24:07Z</time>
      </trkpt>
      <trkpt lat="49.74786" lon="0.34837">
        <ele>55.5</ele>
        <time>2020-06-18T07:24:08Z</time>
      </trkpt>
      <trkpt lat="49.74787" lon="0.34838">
        <ele>55.6</ele>
        <time>2020-06-18T07:24:09Z</time>
      </trkpt>
      <trkpt lat="49.7479" lon="0.34841">
        <ele>55.9</ele>
        <time>2020-06-18T07:24:10Z</time>
      </trkpt>
      <trkpt lat="49.74791" lon="0.34842">
        <ele>56</ele>
        <time>2020-06-18T07:24:11Z</time>
      </trkpt>
      <trkpt lat="49.74793" lon="0.34845">
        <ele>56.3</ele>
        <time>2020-06-18T07:24:12Z</time>
      </trkpt>
      <trkpt lat="49.74794" lon="0.34846">
        <ele>56.4</ele>
        <time>2020-06-18T07:24:13Z</time>
      </trkpt>
      <trkpt lat="49.74796" lon="0.34847">
        <ele>56.6</ele>
        <time>2020-06-18T07:24:14Z</time>
      </trkpt>
      <trkpt lat="49.74797" lon="0.34848">
        <ele>56.7</ele>
        <time>2020-06-18T07:24:15Z</time>
      </trkpt>
      <trkpt lat="49.748" lon="0.34849">
        <ele>57</ele>
        <time>2020-06-18T07:24:16Z</time>
      </trkpt>
      <trkpt lat="49.74801" lon="0.34849">
        <ele>57.1</ele>
        <time>2020-06-18T07:24:17Z</time>
      </trkpt>
      <trkpt lat="49.74804" lon="0.3485">
        <ele>57.4</ele>
        <time>2020-06-18T07:24:18Z</time>
      </trkpt>
      <trkpt lat="49.74805" lon="0.34851">
        <ele>57.5</ele>
        <time>2020-06-18T07:24:19Z</time>
      </trkpt>
      <trkpt lat="49.74808" lon="0.34851">
        <ele>57.8</ele>
        <time>2020-06-18T07:24:20Z</time>
      </trkpt>
      <trkpt lat="49.74808" lon="0.34851">
        <ele>57.9</ele>
        <time>2020-06-18T07:24:21Z</time>
      </trkpt>
      <trkpt lat="49.74811" lon="0.34853">
        <ele>58.2</ele>
        <time>2020-06-18T07:24:22Z</time>
      </trkpt>
      <trkpt lat="49.74812" lon="0.34854">
        <ele>58.3</ele>
        <time>2020-06-18T07:24:23Z</time>
      </trkpt>
      <trkpt lat="49.74814" lon="0.34857">
        <ele>58.6</ele>
        <time>2020-06-18T07:24:24Z</time>
      </trkpt>
      <trkpt lat="49.74815" lon="0.34858">
        <ele>58.7</ele>
        <time>2020-06-18T07:24:25Z</time>
      </trkpt>
      <trkpt lat="49.74818" lon="0.34859">
        <ele>59</ele>
        <time>2020-06-18T07:24:26Z</time>
      </trkpt>
      <trkpt lat="49.74819" lon="0.34859">
        <ele>59.2</ele>
        <time>2020-06-18T07:24:27Z</time>
      </trkpt>
      <trkpt lat="49.74821" lon="0.34861">
        <ele>59.5</ele>
        <time>2020-06-18T07:24:28Z</time>
      </trkpt>
      <trkpt lat="49.74822" lon="0.34862">
        <ele>59.6</ele>
        <time>2020-06-18T07:24:29Z</time>
      </trkpt>
      <trkpt lat="49.74825" lon="0.34864">
        <ele>60</ele>
        <time>2020-06-18T07:24:30Z</time>
      </trkpt>
      <trkpt lat="49.74826" lon="0.34865">
        <ele>60.1</ele>
        <time>2020-06-18T07:24:31Z</time>
      </trkpt>
      <trkpt lat="49.74829" lon="0.34868">
        <ele>60.5</ele>
        <time>2020-06-18T07:24:32Z</time>
      </trkpt>
      <trkpt lat="49.7483" lon="0.34869">
        <ele>60.6</ele>
        <time>2020-06-18T07:24:33Z</time>
      </trkpt>
      <trkpt lat="49.74833" lon="0.34872">
        <ele>61</ele>
        <time>2020-06-18T07:24:34Z</time>
      </trkpt>
      <trkpt lat="49.74833" lon="0.34874">
        <ele>61.2</ele>
        <time>2020-06-18T07:24:35Z</time>
      </trkpt>
      <trkpt lat="49.74835" lon="0.34878">
        <ele>61.5</ele>
        <time>2020-06-18T07:24:36Z</time>
      </trkpt>
      <trkpt lat="49.74835" lon="0.34879">
        <ele>61.6</ele>
        <time>2020-06-18T07:24:37Z</time>
      </trkpt>
      <trkpt lat="49.74838" lon="0.34881">
        <ele>62</ele>
        <time>2020-06-18T07:24:38Z</time>
      </trkpt>
      <trkpt lat="49.74839" lon="0.34882">
        <ele>62.2</ele>
        <time>2020-06-18T07:24:39Z</time>
      </trkpt>
      <trkpt lat="49.74843" lon="0.34884">
        <ele>62.7</ele>
        <time>2020-06-18T07:24:40Z</time>
      </trkpt>
      <trkpt lat="49.74844" lon="0.34885">
        <ele>62.8</ele>
        <time>2020-06-18T07:24:41Z</time>
      </trkpt>
      <trkpt lat="49.74845" lon="0.34887">
        <ele>63.1</ele>
        <time>2020-06-18T07:24:42Z</time>
      </trkpt>
      <trkpt lat="49.74846" lon="0.34889">
        <ele>63.3</ele>
        <time>2020-06-18T07:24:43Z</time>
      </trkpt>
      <trkpt lat="49.74849" lon="0.34892">
        <ele>63.6</ele>
        <time>2020-06-18T07:24:44Z</time>
      </trkpt>
      <trkpt lat="49.7485" lon="0.34892">
        <ele>63.7</ele>
        <time>2020-06-18T07:24:45Z</time>
      </trkpt>
      <trkpt lat="49.74853" lon="0.34894">
        <ele>64.2</ele>
        <time>2020-06-18T07:24:46Z</time>
      </trkpt>
      <trkpt lat="49.74854" lon="0.34895">
        <ele>64.4</ele>
        <time>2020-06-18T07:24:47Z</time>
      </trkpt>
      <trkpt lat="49.74856" lon="0.34898">
        <ele>64.7</ele>
        <time>2020-06-18T07:24:48Z</time>
      </trkpt>
      <trkpt lat="49.74859" lon="0.34901">
        <ele>65.2</ele>
        <time>2020-06-18T07:24:49Z</time>
      </trkpt>
      <trkpt lat="49.7486" lon="0.34902">
        <ele>65.3</ele>
        <time>2020-06-18T07:24:50Z</time>
      </trkpt>
      <trkpt lat="49.74861" lon="0.34904">
        <ele>65.6</ele>
        <time>2020-06-18T07:24:51Z</time>
      </trkpt>
      <trkpt lat="49.74863" lon="0.34905">
        <ele>65.8</ele>
        <time>2020-06-18T07:24:52Z</time>
      </trkpt>
      <trkpt lat="49.74865" lon="0.34907">
        <ele>66.2</ele>
        <time>2020-06-18T07:24:53Z</time>
      </trkpt>
      <trkpt lat="49.74866" lon="0.34908">
        <ele>66.4</ele>
        <time>2020-06-18T07:24:54Z</time>
      </trkpt>
      <trkpt lat="49.74869" lon="0.3491">
        <ele>66.7</ele>
        <time>2020-06-18T07:24:55Z</time>
      </trkpt>
      <trkpt lat="49.7487" lon="0.34911">
        <ele>66.9</ele>
        <time>2020-06-18T07:24:56Z</time>
      </trkpt>
      <trkpt lat="49.74871" lon="0.34912">
        <ele>67.1</ele>
        <time>2020-06-18T07:24:57Z</time>
      </trkpt>
      <trkpt lat="49.74872" lon="0.34914">
        <ele>67.4</ele>
        <time>2020-06-18T07:24:58Z</time>
      </trkpt>
      <trkpt lat="49.74874" lon="0.34915">
        <ele>67.7</ele>
        <time>2020-06-18T07:24:59Z</time>
      </trkpt>
      <trkpt lat="49.74875" lon="0.34916">
        <ele>67.8</ele>
        <time>2020-06-18T07:25:00Z</time>
      </trkpt>
      <trkpt lat="49.74876" lon="0.34916">
        <ele>67.9</ele>
        <time>2020-06-18T07:25:01Z</time>
      </trkpt>
      <trkpt lat="49.74877" lon="0.34917">
        <ele>68.1</ele>
        <time>2020-06-18T07:25:02Z</time>
      </trkpt>
      <trkpt lat="49.74879" lon="0.34918">
        <ele>68.3</ele>
        <time>2020-06-18T07:25:03Z</time>
      </trkpt>
      <trkpt lat="49.74881" lon="0.34918">
        <ele>68.5</ele>
        <time>2020-06-18T07:25:04Z</time>
      </trkpt>
      <trkpt lat="49.74882" lon="0.34919">
        <ele>68.7</ele>
        <time>2020-06-18T07:25:05Z</time>
      </trkpt>
      <trkpt lat="49.74883" lon="0.34919">
        <ele>68.8</ele>
        <time>2020-06-18T07:25:06Z</time>
      </trkpt>
      <trkpt lat="49.74885" lon="0.34919">
        <ele>69</ele>
        <time>2020-06-18T07:25:07Z</time>
      </trkpt>
      <trkpt lat="49.74888" lon="0.34916">
        <ele>69.4</ele>
        <time>2020-06-18T07:25:08Z</time>
      </trkpt>
      <trkpt lat="49.74889" lon="0.34915">
        <ele>69.5</ele>
        <time>2020-06-18T07:25:09Z</time>
      </trkpt>
      <trkpt lat="49.74892" lon="0.34913">
        <ele>69.8</ele>
        <time>2020-06-18T07:25:10Z</time>
      </trkpt>
      <trkpt lat="49.74893" lon="0.34913">
        <ele>69.9</ele>
        <time>2020-06-18T07:25:11Z</time>
      </trkpt>
      <trkpt lat="49.74896" lon="0.34912">
        <ele>70.2</ele>
        <time>2020-06-18T07:25:12Z</time>
      </trkpt>
      <trkpt lat="49.74898" lon="0.34912">
        <ele>70.2</ele>
        <time>2020-06-18T07:25:13Z</time>
      </trkpt>
      <trkpt lat="49.74901" lon="0.34911">
        <ele>70.5</ele>
        <time>2020-06-18T07:25:14Z</time>
      </trkpt>
      <trkpt lat="49.74902" lon="0.34911">
        <ele>70.6</ele>
        <time>2020-06-18T07:25:15Z</time>
      </trkpt>
      <trkpt lat="49.74905" lon="0.34911">
        <ele>70.8</ele>
        <time>2020-06-18T07:25:16Z</time>
      </trkpt>
      <trkpt lat="49.74906" lon="0.34911">
        <ele>70.9</ele>
        <time>2020-06-18T07:25:17Z</time>
      </trkpt>
      <trkpt lat="49.74909" lon="0.34911">
        <ele>71.1</ele>
        <time>2020-06-18T07:25:18Z</time>
      </trkpt>
      <trkpt lat="49.74911" lon="0.34912">
        <ele>71.2</ele>
        <time>2020-06-18T07:25:19Z</time>
      </trkpt>
      <trkpt lat="49.74913" lon="0.34913">
        <ele>71.4</ele>
        <time>2020-06-18T07:25:20Z</time>
      </trkpt>
      <trkpt lat="49.74917" lon="0.34913">
        <ele>71.7</ele>
        <time>2020-06-18T07:25:21Z</time>
      </trkpt>
      <trkpt lat="49.74918" lon="0.34914">
        <ele>71.8</ele>
        <time>2020-06-18T07:25:22Z</time>
      </trkpt>
      <trkpt lat="49.74922" lon="0.34913">
        <ele>72.1</ele>
        <time>2020-06-18T07:25:23Z</time>
      </trkpt>
      <trkpt lat="49.74923" lon="0.34913">
        <ele>72.2</ele>
        <time>2020-06-18T07:25:24Z</time>
      </trkpt>
      <trkpt lat="49.74926" lon="0.34914">
        <ele>72.4</ele>
        <time>2020-06-18T07:25:25Z</time>
      </trkpt>
      <trkpt lat="49.74929" lon="0.34915">
        <ele>72.5</ele>
        <time>2020-06-18T07:25:26Z</time>
      </trkpt>
      <trkpt lat="49.7493" lon="0.34916">
        <ele>72.6</ele>
        <time>2020-06-18T07:25:27Z</time>
      </trkpt>
      <trkpt lat="49.74934" lon="0.34918">
        <ele>72.8</ele>
        <time>2020-06-18T07:25:28Z</time>
      </trkpt>
      <trkpt lat="49.74935" lon="0.34919">
        <ele>72.9</ele>
        <time>2020-06-18T07:25:29Z</time>
      </trkpt>
      <trkpt lat="49.74938" lon="0.34921">
        <ele>73.1</ele>
        <time>2020-06-18T07:25:30Z</time>
      </trkpt>
      <trkpt lat="49.74939" lon="0.34921">
        <ele>73.1</ele>
        <time>2020-06-18T07:25:31Z</time>
      </trkpt>
      <trkpt lat="49.74942" lon="0.34923">
        <ele>73.3</ele>
        <time>2020-06-18T07:25:32Z</time>
      </trkpt>
      <trkpt lat="49.74945" lon="0.34926">
        <ele>73.5</ele>
        <time>2020-06-18T07:25:33Z</time>
      </trkpt>
      <trkpt lat="49.74945" lon="0.34927">
        <ele>73.5</ele>
        <time>2020-06-18T07:25:34Z</time>
      </trkpt>
      <trkpt lat="49.74949" lon="0.34931">
        <ele>73.7</ele>
        <time>2020-06-18T07:25:35Z</time>
      </trkpt>
      <trkpt lat="49.7495" lon="0.34932">
        <ele>73.8</ele>
        <time>2020-06-18T07:25:36Z</time>
      </trkpt>
      <trkpt lat="49.74952" lon="0.34933">
        <ele>73.9</ele>
        <time>2020-06-18T07:25:37Z</time>
      </trkpt>
      <trkpt lat="49.74955" lon="0.34937">
        <ele>74.1</ele>
        <time>2020-06-18T07:25:38Z</time>
      </trkpt>
      <trkpt lat="49.74955" lon="0.34938">
        <ele>74.2</ele>
        <time>2020-06-18T07:25:39Z</time>
      </trkpt>
      <trkpt lat="49.74957" lon="0.34942">
        <ele>74.4</ele>
        <time>2020-06-18T07:25:40Z</time>
      </trkpt>
      <trkpt lat="49.74957" lon="0.34944">
        <ele>74.4</ele>
        <time>2020-06-18T07:25:41Z</time>
      </trkpt>
      <trkpt lat="49.74959" lon="0.34948">
        <ele>74.6</ele>
        <time>2020-06-18T07:25:42Z</time>
      </trkpt>
      <trkpt lat="49.7496" lon="0.34949">
        <ele>74.7</ele>
        <time>2020-06-18T07:25:43Z</time>
      </trkpt>
      <trkpt lat="49.74961" lon="0.34953">
        <ele>74.9</ele>
        <time>2020-06-18T07:25:44Z</time>
      </trkpt>
      <trkpt lat="49.74963" lon="0.34958">
        <ele>75.2</ele>
        <time>2020-06-18T07:25:45Z</time>
      </trkpt>
      <trkpt lat="49.74963" lon="0.3496">
        <ele>75.3</ele>
        <time>2020-06-18T07:25:46Z</time>
      </trkpt>
      <trkpt lat="49.74965" lon="0.34964">
        <ele>75.5</ele>
        <time>2020-06-18T07:25:47Z</time>
      </trkpt>
      <trkpt lat="49.74966" lon="0.34969">
        <ele>75.8</ele>
        <time>2020-06-18T07:25:48Z</time>
      </trkpt>
      <trkpt lat="49.74967" lon="0.34974">
        <ele>76.2</ele>
        <time>2020-06-18T07:25:49Z</time>
      </trkpt>
      <trkpt lat="49.74967" lon="0.34975">
        <ele>76.3</ele>
        <time>2020-06-18T07:25:50Z</time>
      </trkpt>
      <trkpt lat="49.7497" lon="0.34979">
        <ele>76.7</ele>
        <time>2020-06-18T07:25:51Z</time>
      </trkpt>
      <trkpt lat="49.7497" lon="0.34981">
        <ele>76.8</ele>
        <time>2020-06-18T07:25:52Z</time>
      </trkpt>
      <trkpt lat="49.74971" lon="0.34985">
        <ele>77.2</ele>
        <time>2020-06-18T07:25:53Z</time>
      </trkpt>
      <trkpt lat="49.74971" lon="0.34987">
        <ele>77.4</ele>
        <time>2020-06-18T07:25:54Z</time>
      </trkpt>
      <trkpt lat="49.74973" lon="0.34993">
        <ele>77.9</ele>
        <time>2020-06-18T07:25:55Z</time>
      </trkpt>
      <trkpt lat="49.74974" lon="0.34995">
        <ele>78.1</ele>
        <time>2020-06-18T07:25:56Z</time>
      </trkpt>
      <trkpt lat="49.74976" lon="0.34999">
        <ele>78.6</ele>
        <time>2020-06-18T07:25:57Z</time>
      </trkpt>
      <trkpt lat="49.74977" lon="0.35">
        <ele>78.7</ele>
        <time>2020-06-18T07:25:58Z</time>
      </trkpt>
      <trkpt lat="49.74979" lon="0.35005">
        <ele>79.2</ele>
        <time>2020-06-18T07:25:59Z</time>
      </trkpt>
      <trkpt lat="49.7498" lon="0.35007">
        <ele>79.3</ele>
        <time>2020-06-18T07:26:00Z</time>
      </trkpt>
      <trkpt lat="49.7498" lon="0.35009">
        <ele>79.5</ele>
        <time>2020-06-18T07:26:01Z</time>
      </trkpt>
      <trkpt lat="49.74982" lon="0.35011">
        <ele>79.7</ele>
        <time>2020-06-18T07:26:02Z</time>
      </trkpt>
      <trkpt lat="49.74983" lon="0.35013">
        <ele>79.9</ele>
        <time>2020-06-18T07:26:03Z</time>
      </trkpt>
      <trkpt lat="49.74984" lon="0.35015">
        <ele>80</ele>
        <time>2020-06-18T07:26:04Z</time>
      </trkpt>
      <trkpt lat="49.74986" lon="0.35018">
        <ele>80.3</ele>
        <time>2020-06-18T07:26:05Z</time>
      </trkpt>
      <trkpt lat="49.74987" lon="0.35019">
        <ele>80.4</ele>
        <time>2020-06-18T07:26:06Z</time>
      </trkpt>
      <trkpt lat="49.74988" lon="0.3502">
        <ele>80.5</ele>
        <time>2020-06-18T07:26:07Z</time>
      </trkpt>
      <trkpt lat="49.74989" lon="0.35022">
        <ele>80.6</ele>
        <time>2020-06-18T07:26:08Z</time>
      </trkpt>
      <trkpt lat="49.74991" lon="0.35025">
        <ele>80.8</ele>
        <time>2020-06-18T07:26:09Z</time>
      </trkpt>
      <trkpt lat="49.74992" lon="0.35026">
        <ele>80.9</ele>
        <time>2020-06-18T07:26:10Z</time>
      </trkpt>
      <trkpt lat="49.74995" lon="0.35028">
        <ele>81.1</ele>
        <time>2020-06-18T07:26:11Z</time>
      </trkpt>
      <trkpt lat="49.74995" lon="0.35029">
        <ele>81.1</ele>
        <time>2020-06-18T07:26:12Z</time>
      </trkpt>
      <trkpt lat="49.74998" lon="0.35032">
        <ele>81.3</ele>
        <time>2020-06-18T07:26:13Z</time>
      </trkpt>
      <trkpt lat="49.74999" lon="0.35033">
        <ele>81.4</ele>
        <time>2020-06-18T07:26:14Z</time>
      </trkpt>
      <trkpt lat="49.75001" lon="0.35037">
        <ele>81.5</ele>
        <time>2020-06-18T07:26:15Z</time>
      </trkpt>
      <trkpt lat="49.75002" lon="0.35038">
        <ele>81.5</ele>
        <time>2020-06-18T07:26:16Z</time>
      </trkpt>
      <trkpt lat="49.75005" lon="0.35041">
        <ele>81.6</ele>
        <time>2020-06-18T07:26:17Z</time>
      </trkpt>
      <trkpt lat="49.75006" lon="0.35042">
        <ele>81.7</ele>
        <time>2020-06-18T07:26:18Z</time>
      </trkpt>
      <trkpt lat="49.75009" lon="0.35044">
        <ele>81.8</ele>
        <time>2020-06-18T07:26:19Z</time>
      </trkpt>
      <trkpt lat="49.7501" lon="0.35045">
        <ele>81.8</ele>
        <time>2020-06-18T07:26:20Z</time>
      </trkpt>
      <trkpt lat="49.75013" lon="0.35049">
        <ele>81.8</ele>
        <time>2020-06-18T07:26:21Z</time>
      </trkpt>
      <trkpt lat="49.75013" lon="0.3505">
        <ele>81.8</ele>
        <time>2020-06-18T07:26:22Z</time>
      </trkpt>
      <trkpt lat="49.75016" lon="0.35054">
        <ele>81.8</ele>
        <time>2020-06-18T07:26:23Z</time>
      </trkpt>
      <trkpt lat="49.75017" lon="0.35055">
        <ele>81.8</ele>
        <time>2020-06-18T07:26:24Z</time>
      </trkpt>
      <trkpt lat="49.75019" lon="0.35058">
        <ele>81.7</ele>
        <time>2020-06-18T07:26:25Z</time>
      </trkpt>
      <trkpt lat="49.7502" lon="0.35059">
        <ele>81.7</ele>
        <time>2020-06-18T07:26:26Z</time>
      </trkpt>
      <trkpt lat="49.75021" lon="0.35063">
        <ele>81.6</ele>
        <time>2020-06-18T07:26:27Z</time>
      </trkpt>
      <trkpt lat="49.75025" lon="0.35066">
        <ele>81.5</ele>
        <time>2020-06-18T07:26:28Z</time>
      </trkpt>
      <trkpt lat="49.75026" lon="0.35068">
        <ele>81.5</ele>
        <time>2020-06-18T07:26:29Z</time>
      </trkpt>
      <trkpt lat="49.75028" lon="0.3507">
        <ele>81.4</ele>
        <time>2020-06-18T07:26:30Z</time>
      </trkpt>
      <trkpt lat="49.7503" lon="0.35074">
        <ele>81.2</ele>
        <time>2020-06-18T07:26:31Z</time>
      </trkpt>
      <trkpt lat="49.75032" lon="0.35077">
        <ele>81.1</ele>
        <time>2020-06-18T07:26:32Z</time>
      </trkpt>
      <trkpt lat="49.75035" lon="0.35081">
        <ele>80.9</ele>
        <time>2020-06-18T07:26:33Z</time>
      </trkpt>
      <trkpt lat="49.75038" lon="0.35084">
        <ele>80.7</ele>
        <time>2020-06-18T07:26:34Z</time>
      </trkpt>
      <trkpt lat="49.75042" lon="0.35088">
        <ele>80.4</ele>
        <time>2020-06-18T07:26:35Z</time>
      </trkpt>
      <trkpt lat="49.75044" lon="0.35093">
        <ele>80.1</ele>
        <time>2020-06-18T07:26:36Z</time>
      </trkpt>
      <trkpt lat="49.75047" lon="0.35098">
        <ele>79.8</ele>
        <time>2020-06-18T07:26:37Z</time>
      </trkpt>
      <trkpt lat="49.75051" lon="0.35104">
        <ele>79.5</ele>
        <time>2020-06-18T07:26:38Z</time>
      </trkpt>
      <trkpt lat="49.75055" lon="0.35111">
        <ele>79.1</ele>
        <time>2020-06-18T07:26:39Z</time>
      </trkpt>
      <trkpt lat="49.75058" lon="0.35118">
        <ele>78.7</ele>
        <time>2020-06-18T07:26:40Z</time>
      </trkpt>
      <trkpt lat="49.75062" lon="0.35128">
        <ele>78.3</ele>
        <time>2020-06-18T07:26:41Z</time>
      </trkpt>
      <trkpt lat="49.75066" lon="0.35136">
        <ele>78.1</ele>
        <time>2020-06-18T07:26:42Z</time>
      </trkpt>
      <trkpt lat="49.7507" lon="0.35146">
        <ele>78</ele>
        <time>2020-06-18T07:26:43Z</time>
      </trkpt>
      <trkpt lat="49.75074" lon="0.35159">
        <ele>78</ele>
        <time>2020-06-18T07:26:44Z</time>
      </trkpt>
      <trkpt lat="49.75078" lon="0.35167">
        <ele>78.1</ele>
        <time>2020-06-18T07:26:45Z</time>
      </trkpt>
      <trkpt lat="49.75083" lon="0.35174">
        <ele>78.2</ele>
        <time>2020-06-18T07:26:46Z</time>
      </trkpt>
      <trkpt lat="49.75088" lon="0.35183">
        <ele>78.4</ele>
        <time>2020-06-18T07:26:47Z</time>
      </trkpt>
      <trkpt lat="49.75092" lon="0.3519">
        <ele>78.6</ele>
        <time>2020-06-18T07:26:48Z</time>
      </trkpt>
      <trkpt lat="49.75095" lon="0.35196">
        <ele>78.9</ele>
        <time>2020-06-18T07:26:49Z</time>
      </trkpt>
      <trkpt lat="49.75099" lon="0.35203">
        <ele>79.2</ele>
        <time>2020-06-18T07:26:50Z</time>
      </trkpt>
      <trkpt lat="49.75103" lon="0.35209">
        <ele>79.6</ele>
        <time>2020-06-18T07:26:51Z</time>
      </trkpt>
      <trkpt lat="49.75105" lon="0.35213">
        <ele>79.8</ele>
        <time>2020-06-18T07:26:52Z</time>
      </trkpt>
      <trkpt lat="49.75108" lon="0.35218">
        <ele>80.1</ele>
        <time>2020-06-18T07:26:53Z</time>
      </trkpt>
      <trkpt lat="49.7511" lon="0.35223">
        <ele>80.4</ele>
        <time>2020-06-18T07:26:54Z</time>
      </trkpt>
      <trkpt lat="49.75114" lon="0.35229">
        <ele>80.8</ele>
        <time>2020-06-18T07:26:55Z</time>
      </trkpt>
      <trkpt lat="49.75116" lon="0.35234">
        <ele>81.1</ele>
        <time>2020-06-18T07:26:56Z</time>
      </trkpt>
      <trkpt lat="49.75118" lon="0.35239">
        <ele>81.3</ele>
        <time>2020-06-18T07:26:57Z</time>
      </trkpt>
      <trkpt lat="49.7512" lon="0.35244">
        <ele>81.6</ele>
        <time>2020-06-18T07:26:58Z</time>
      </trkpt>
      <trkpt lat="49.75122" lon="0.35248">
        <ele>81.8</ele>
        <time>2020-06-18T07:26:59Z</time>
      </trkpt>
      <trkpt lat="49.75125" lon="0.35252">
        <ele>82.1</ele>
        <time>2020-06-18T07:27:00Z</time>
      </trkpt>
      <trkpt lat="49.75127" lon="0.35256">
        <ele>82.3</ele>
        <time>2020-06-18T07:27:01Z</time>
      </trkpt>
      <trkpt lat="49.75129" lon="0.35261">
        <ele>82.5</ele>
        <time>2020-06-18T07:27:02Z</time>
      </trkpt>
      <trkpt lat="49.75131" lon="0.35265">
        <ele>82.7</ele>
        <time>2020-06-18T07:27:03Z</time>
      </trkpt>
      <trkpt lat="49.75133" lon="0.3527">
        <ele>82.9</ele>
        <time>2020-06-18T07:27:04Z</time>
      </trkpt>
      <trkpt lat="49.75136" lon="0.35274">
        <ele>83.1</ele>
        <time>2020-06-18T07:27:05Z</time>
      </trkpt>
      <trkpt lat="49.75138" lon="0.35278">
        <ele>83.3</ele>
        <time>2020-06-18T07:27:06Z</time>
      </trkpt>
      <trkpt lat="49.75141" lon="0.35283">
        <ele>83.5</ele>
        <time>2020-06-18T07:27:07Z</time>
      </trkpt>
      <trkpt lat="49.75143" lon="0.35288">
        <ele>83.7</ele>
        <time>2020-06-18T07:27:08Z</time>
      </trkpt>
      <trkpt lat="49.75145" lon="0.35294">
        <ele>83.9</ele>
        <time>2020-06-18T07:27:09Z</time>
      </trkpt>
      <trkpt lat="49.75149" lon="0.35298">
        <ele>84.1</ele>
        <time>2020-06-18T07:27:10Z</time>
      </trkpt>
      <trkpt lat="49.75152" lon="0.35303">
        <ele>84.3</ele>
        <time>2020-06-18T07:27:11Z</time>
      </trkpt>
      <trkpt lat="49.75154" lon="0.35309">
        <ele>84.4</ele>
        <time>2020-06-18T07:27:12Z</time>
      </trkpt>
      <trkpt lat="49.75157" lon="0.35315">
        <ele>84.6</ele>
        <time>2020-06-18T07:27:13Z</time>
      </trkpt>
      <trkpt lat="49.7516" lon="0.35321">
        <ele>84.7</ele>
        <time>2020-06-18T07:27:14Z</time>
      </trkpt>
      <trkpt lat="49.75163" lon="0.35326">
        <ele>84.9</ele>
        <time>2020-06-18T07:27:15Z</time>
      </trkpt>
      <trkpt lat="49.75166" lon="0.35332">
        <ele>85</ele>
        <time>2020-06-18T07:27:16Z</time>
      </trkpt>
      <trkpt lat="49.75169" lon="0.35338">
        <ele>85.1</ele>
        <time>2020-06-18T07:27:17Z</time>
      </trkpt>
      <trkpt lat="49.75172" lon="0.35343">
        <ele>85.2</ele>
        <time>2020-06-18T07:27:18Z</time>
      </trkpt>
      <trkpt lat="49.75175" lon="0.35349">
        <ele>85.3</ele>
        <time>2020-06-18T07:27:19Z</time>
      </trkpt>
      <trkpt lat="49.75178" lon="0.35355">
        <ele>85.3</ele>
        <time>2020-06-18T07:27:20Z</time>
      </trkpt>
      <trkpt lat="49.75181" lon="0.35361">
        <ele>85.4</ele>
        <time>2020-06-18T07:27:21Z</time>
      </trkpt>
      <trkpt lat="49.75183" lon="0.35367">
        <ele>85.5</ele>
        <time>2020-06-18T07:27:22Z</time>
      </trkpt>
      <trkpt lat="49.75186" lon="0.35372">
        <ele>85.5</ele>
        <time>2020-06-18T07:27:23Z</time>
      </trkpt>
      <trkpt lat="49.75189" lon="0.35377">
        <ele>85.6</ele>
        <time>2020-06-18T07:27:24Z</time>
      </trkpt>
      <trkpt lat="49.75192" lon="0.35383">
        <ele>85.6</ele>
        <time>2020-06-18T07:27:25Z</time>
      </trkpt>
      <trkpt lat="49.75196" lon="0.35389">
        <ele>85.6</ele>
        <time>2020-06-18T07:27:26Z</time>
      </trkpt>
      <trkpt lat="49.75199" lon="0.35394">
        <ele>85.7</ele>
        <time>2020-06-18T07:27:27Z</time>
      </trkpt>
      <trkpt lat="49.75201" lon="0.35401">
        <ele>85.7</ele>
        <time>2020-06-18T07:27:28Z</time>
      </trkpt>
      <trkpt lat="49.75204" lon="0.35408">
        <ele>85.8</ele>
        <time>2020-06-18T07:27:29Z</time>
      </trkpt>
      <trkpt lat="49.75207" lon="0.35414">
        <ele>85.8</ele>
        <time>2020-06-18T07:27:30Z</time>
      </trkpt>
      <trkpt lat="49.7521" lon="0.35422">
        <ele>85.8</ele>
        <time>2020-06-18T07:27:31Z</time>
      </trkpt>
      <trkpt lat="49.75214" lon="0.35428">
        <ele>85.8</ele>
        <time>2020-06-18T07:27:32Z</time>
      </trkpt>
      <trkpt lat="49.75217" lon="0.35435">
        <ele>85.8</ele>
        <time>2020-06-18T07:27:33Z</time>
      </trkpt>
      <trkpt lat="49.7522" lon="0.35442">
        <ele>85.8</ele>
        <time>2020-06-18T07:27:34Z</time>
      </trkpt>
      <trkpt lat="49.75223" lon="0.35449">
        <ele>85.8</ele>
        <time>2020-06-18T07:27:35Z</time>
      </trkpt>
      <trkpt lat="49.75226" lon="0.35456">
        <ele>85.8</ele>
        <time>2020-06-18T07:27:36Z</time>
      </trkpt>
      <trkpt lat="49.75229" lon="0.35463">
        <ele>85.8</ele>
        <time>2020-06-18T07:27:37Z</time>
      </trkpt>
      <trkpt lat="49.75232" lon="0.35471">
        <ele>85.8</ele>
        <time>2020-06-18T07:27:38Z</time>
      </trkpt>
      <trkpt lat="49.75235" lon="0.35477">
        <ele>85.8</ele>
        <time>2020-06-18T07:27:39Z</time>
      </trkpt>
      <trkpt lat="49.75238" lon="0.35483">
        <ele>85.8</ele>
        <time>2020-06-18T07:27:40Z</time>
      </trkpt>
      <trkpt lat="49.75241" lon="0.35489">
        <ele>85.8</ele>
        <time>2020-06-18T07:27:41Z</time>
      </trkpt>
      <trkpt lat="49.75244" lon="0.35494">
        <ele>85.8</ele>
        <time>2020-06-18T07:27:42Z</time>
      </trkpt>
      <trkpt lat="49.75247" lon="0.35501">
        <ele>85.8</ele>
        <time>2020-06-18T07:27:43Z</time>
      </trkpt>
      <trkpt lat="49.75249" lon="0.35507">
        <ele>85.8</ele>
        <time>2020-06-18T07:27:44Z</time>
      </trkpt>
      <trkpt lat="49.75252" lon="0.35513">
        <ele>85.9</ele>
        <time>2020-06-18T07:27:45Z</time>
      </trkpt>
      <trkpt lat="49.75254" lon="0.35519">
        <ele>85.9</ele>
        <time>2020-06-18T07:27:46Z</time>
      </trkpt>
      <trkpt lat="49.75257" lon="0.35524">
        <ele>85.8</ele>
        <time>2020-06-18T07:27:47Z</time>
      </trkpt>
      <trkpt lat="49.75259" lon="0.3553">
        <ele>85.8</ele>
        <time>2020-06-18T07:27:48Z</time>
      </trkpt>
      <trkpt lat="49.75261" lon="0.35535">
        <ele>85.7</ele>
        <time>2020-06-18T07:27:49Z</time>
      </trkpt>
      <trkpt lat="49.75263" lon="0.35541">
        <ele>85.5</ele>
        <time>2020-06-18T07:27:50Z</time>
      </trkpt>
      <trkpt lat="49.75266" lon="0.35545">
        <ele>85.2</ele>
        <time>2020-06-18T07:27:51Z</time>
      </trkpt>
      <trkpt lat="49.75268" lon="0.35551">
        <ele>85.1</ele>
        <time>2020-06-18T07:27:52Z</time>
      </trkpt>
      <trkpt lat="49.75271" lon="0.35557">
        <ele>85.1</ele>
        <time>2020-06-18T07:27:53Z</time>
      </trkpt>
      <trkpt lat="49.75273" lon="0.35564">
        <ele>85</ele>
        <time>2020-06-18T07:27:54Z</time>
      </trkpt>
      <trkpt lat="49.75275" lon="0.3557">
        <ele>84.9</ele>
        <time>2020-06-18T07:27:55Z</time>
      </trkpt>
      <trkpt lat="49.75278" lon="0.35577">
        <ele>84.8</ele>
        <time>2020-06-18T07:27:56Z</time>
      </trkpt>
      <trkpt lat="49.75282" lon="0.35582">
        <ele>84.6</ele>
        <time>2020-06-18T07:27:57Z</time>
      </trkpt>
      <trkpt lat="49.75285" lon="0.35588">
        <ele>84.4</ele>
        <time>2020-06-18T07:27:58Z</time>
      </trkpt>
      <trkpt lat="49.75288" lon="0.35595">
        <ele>84.3</ele>
        <time>2020-06-18T07:27:59Z</time>
      </trkpt>
      <trkpt lat="49.75291" lon="0.35601">
        <ele>84.1</ele>
        <time>2020-06-18T07:28:00Z</time>
      </trkpt>
      <trkpt lat="49.75294" lon="0.35608">
        <ele>84</ele>
        <time>2020-06-18T07:28:01Z</time>
      </trkpt>
      <trkpt lat="49.75296" lon="0.35614">
        <ele>83.8</ele>
        <time>2020-06-18T07:28:02Z</time>
      </trkpt>
      <trkpt lat="49.75299" lon="0.35622">
        <ele>83.7</ele>
        <time>2020-06-18T07:28:03Z</time>
      </trkpt>
      <trkpt lat="49.75302" lon="0.35629">
        <ele>83.5</ele>
        <time>2020-06-18T07:28:04Z</time>
      </trkpt>
      <trkpt lat="49.75305" lon="0.35636">
        <ele>83.3</ele>
        <time>2020-06-18T07:28:05Z</time>
      </trkpt>
      <trkpt lat="49.75308" lon="0.35643">
        <ele>83.1</ele>
        <time>2020-06-18T07:28:06Z</time>
      </trkpt>
      <trkpt lat="49.75311" lon="0.35652">
        <ele>82.9</ele>
        <time>2020-06-18T07:28:07Z</time>
      </trkpt>
      <trkpt lat="49.75314" lon="0.3566">
        <ele>82.7</ele>
        <time>2020-06-18T07:28:08Z</time>
      </trkpt>
      <trkpt lat="49.75318" lon="0.35668">
        <ele>82.4</ele>
        <time>2020-06-18T07:28:09Z</time>
      </trkpt>
      <trkpt lat="49.75323" lon="0.35676">
        <ele>82.1</ele>
        <time>2020-06-18T07:28:10Z</time>
      </trkpt>
      <trkpt lat="49.75327" lon="0.35684">
        <ele>81.8</ele>
        <time>2020-06-18T07:28:11Z</time>
      </trkpt>
      <trkpt lat="49.7533" lon="0.35692">
        <ele>81.6</ele>
        <time>2020-06-18T07:28:12Z</time>
      </trkpt>
      <trkpt lat="49.75334" lon="0.357">
        <ele>81.3</ele>
        <time>2020-06-18T07:28:13Z</time>
      </trkpt>
      <trkpt lat="49.75338" lon="0.35709">
        <ele>81</ele>
        <time>2020-06-18T07:28:14Z</time>
      </trkpt>
      <trkpt lat="49.75341" lon="0.35717">
        <ele>80.8</ele>
        <time>2020-06-18T07:28:15Z</time>
      </trkpt>
      <trkpt lat="49.75345" lon="0.35726">
        <ele>80.5</ele>
        <time>2020-06-18T07:28:16Z</time>
      </trkpt>
      <trkpt lat="49.75349" lon="0.35733">
        <ele>80.2</ele>
        <time>2020-06-18T07:28:17Z</time>
      </trkpt>
      <trkpt lat="49.75353" lon="0.35741">
        <ele>79.9</ele>
        <time>2020-06-18T07:28:18Z</time>
      </trkpt>
      <trkpt lat="49.75357" lon="0.35749">
        <ele>79.6</ele>
        <time>2020-06-18T07:28:19Z</time>
      </trkpt>
      <trkpt lat="49.75361" lon="0.35757">
        <ele>79.2</ele>
        <time>2020-06-18T07:28:20Z</time>
      </trkpt>
      <trkpt lat="49.75365" lon="0.35765">
        <ele>78.9</ele>
        <time>2020-06-18T07:28:21Z</time>
      </trkpt>
      <trkpt lat="49.7537" lon="0.35773">
        <ele>78.7</ele>
        <time>2020-06-18T07:28:22Z</time>
      </trkpt>
      <trkpt lat="49.75375" lon="0.3578">
        <ele>78.4</ele>
        <time>2020-06-18T07:28:23Z</time>
      </trkpt>
      <trkpt lat="49.7538" lon="0.35787">
        <ele>78.1</ele>
        <time>2020-06-18T07:28:24Z</time>
      </trkpt>
      <trkpt lat="49.75385" lon="0.35795">
        <ele>77.9</ele>
        <time>2020-06-18T07:28:25Z</time>
      </trkpt>
      <trkpt lat="49.75389" lon="0.35803">
        <ele>77.6</ele>
        <time>2020-06-18T07:28:26Z</time>
      </trkpt>
      <trkpt lat="49.75393" lon="0.35811">
        <ele>77.4</ele>
        <time>2020-06-18T07:28:27Z</time>
      </trkpt>
      <trkpt lat="49.75398" lon="0.35819">
        <ele>77.2</ele>
        <time>2020-06-18T07:28:28Z</time>
      </trkpt>
      <trkpt lat="49.75402" lon="0.35826">
        <ele>76.9</ele>
        <time>2020-06-18T07:28:29Z</time>
      </trkpt>
      <trkpt lat="49.75406" lon="0.35834">
        <ele>76.7</ele>
        <time>2020-06-18T07:28:30Z</time>
      </trkpt>
      <trkpt lat="49.7541" lon="0.35841">
        <ele>76.5</ele>
        <time>2020-06-18T07:28:31Z</time>
      </trkpt>
      <trkpt lat="49.75415" lon="0.35848">
        <ele>76.3</ele>
        <time>2020-06-18T07:28:32Z</time>
      </trkpt>
      <trkpt lat="49.75419" lon="0.35855">
        <ele>76.1</ele>
        <time>2020-06-18T07:28:33Z</time>
      </trkpt>
      <trkpt lat="49.75423" lon="0.35861">
        <ele>75.9</ele>
        <time>2020-06-18T07:28:34Z</time>
      </trkpt>
      <trkpt lat="49.75427" lon="0.35868">
        <ele>75.7</ele>
        <time>2020-06-18T07:28:35Z</time>
      </trkpt>
      <trkpt lat="49.75432" lon="0.35873">
        <ele>75.4</ele>
        <time>2020-06-18T07:28:36Z</time>
      </trkpt>
      <trkpt lat="49.75436" lon="0.35879">
        <ele>75.2</ele>
        <time>2020-06-18T07:28:37Z</time>
      </trkpt>
      <trkpt lat="49.7544" lon="0.35885">
        <ele>74.9</ele>
        <time>2020-06-18T07:28:38Z</time>
      </trkpt>
      <trkpt lat="49.75443" lon="0.35891">
        <ele>74.7</ele>
        <time>2020-06-18T07:28:39Z</time>
      </trkpt>
      <trkpt lat="49.75447" lon="0.35896">
        <ele>74.4</ele>
        <time>2020-06-18T07:28:40Z</time>
      </trkpt>
      <trkpt lat="49.75451" lon="0.359">
        <ele>74.1</ele>
        <time>2020-06-18T07:28:41Z</time>
      </trkpt>
      <trkpt lat="49.75455" lon="0.35905">
        <ele>73.9</ele>
        <time>2020-06-18T07:28:42Z</time>
      </trkpt>
      <trkpt lat="49.75459" lon="0.3591">
        <ele>73.6</ele>
        <time>2020-06-18T07:28:43Z</time>
      </trkpt>
      <trkpt lat="49.75462" lon="0.35914">
        <ele>73.3</ele>
        <time>2020-06-18T07:28:44Z</time>
      </trkpt>
      <trkpt lat="49.75464" lon="0.35919">
        <ele>73.1</ele>
        <time>2020-06-18T07:28:45Z</time>
      </trkpt>
      <trkpt lat="49.75467" lon="0.35921">
        <ele>72.8</ele>
        <time>2020-06-18T07:28:46Z</time>
      </trkpt>
      <trkpt lat="49.75469" lon="0.35926">
        <ele>72.6</ele>
        <time>2020-06-18T07:28:47Z</time>
      </trkpt>
      <trkpt lat="49.7547" lon="0.35928">
        <ele>72.5</ele>
        <time>2020-06-18T07:28:48Z</time>
      </trkpt>
      <trkpt lat="49.7547" lon="0.35931">
        <ele>72.4</ele>
        <time>2020-06-18T07:28:49Z</time>
      </trkpt>
      <trkpt lat="49.75471" lon="0.3593">
        <ele>72.3</ele>
        <time>2020-06-18T07:28:50Z</time>
      </trkpt>
      <trkpt lat="49.75473" lon="0.35931">
        <ele>72.2</ele>
        <time>2020-06-18T07:28:51Z</time>
      </trkpt>
      <trkpt lat="49.75474" lon="0.35929">
        <ele>71.8</ele>
        <time>2020-06-18T07:28:52Z</time>
      </trkpt>
      <trkpt lat="49.75475" lon="0.35929">
        <ele>71.7</ele>
        <time>2020-06-18T07:28:53Z</time>
      </trkpt>
      <trkpt lat="49.75478" lon="0.35926">
        <ele>71.5</ele>
        <time>2020-06-18T07:28:54Z</time>
      </trkpt>
      <trkpt lat="49.75479" lon="0.35925">
        <ele>71.4</ele>
        <time>2020-06-18T07:28:55Z</time>
      </trkpt>
      <trkpt lat="49.75481" lon="0.3592">
        <ele>71.1</ele>
        <time>2020-06-18T07:28:56Z</time>
      </trkpt>
      <trkpt lat="49.75482" lon="0.35918">
        <ele>71</ele>
        <time>2020-06-18T07:28:57Z</time>
      </trkpt>
      <trkpt lat="49.75482" lon="0.35914">
        <ele>70.7</ele>
        <time>2020-06-18T07:28:58Z</time>
      </trkpt>
      <trkpt lat="49.75485" lon="0.35909">
        <ele>70.4</ele>
        <time>2020-06-18T07:28:59Z</time>
      </trkpt>
      <trkpt lat="49.75485" lon="0.35907">
        <ele>70.2</ele>
        <time>2020-06-18T07:29:00Z</time>
      </trkpt>
      <trkpt lat="49.75487" lon="0.35903">
        <ele>69.9</ele>
        <time>2020-06-18T07:29:01Z</time>
      </trkpt>
      <trkpt lat="49.7549" lon="0.35899">
        <ele>69.5</ele>
        <time>2020-06-18T07:29:02Z</time>
      </trkpt>
      <trkpt lat="49.75493" lon="0.35896">
        <ele>69.1</ele>
        <time>2020-06-18T07:29:03Z</time>
      </trkpt>
      <trkpt lat="49.75496" lon="0.35894">
        <ele>68.7</ele>
        <time>2020-06-18T07:29:04Z</time>
      </trkpt>
      <trkpt lat="49.755" lon="0.35892">
        <ele>68.2</ele>
        <time>2020-06-18T07:29:05Z</time>
      </trkpt>
      <trkpt lat="49.75501" lon="0.35891">
        <ele>68.1</ele>
        <time>2020-06-18T07:29:06Z</time>
      </trkpt>
      <trkpt lat="49.75505" lon="0.35892">
        <ele>67.6</ele>
        <time>2020-06-18T07:29:07Z</time>
      </trkpt>
      <trkpt lat="49.75508" lon="0.35892">
        <ele>67.2</ele>
        <time>2020-06-18T07:29:08Z</time>
      </trkpt>
      <trkpt lat="49.75512" lon="0.35891">
        <ele>66.8</ele>
        <time>2020-06-18T07:29:09Z</time>
      </trkpt>
      <trkpt lat="49.75516" lon="0.35892">
        <ele>66.4</ele>
        <time>2020-06-18T07:29:10Z</time>
      </trkpt>
      <trkpt lat="49.7552" lon="0.35895">
        <ele>65.9</ele>
        <time>2020-06-18T07:29:11Z</time>
      </trkpt>
      <trkpt lat="49.75523" lon="0.35896">
        <ele>65.5</ele>
        <time>2020-06-18T07:29:12Z</time>
      </trkpt>
      <trkpt lat="49.75527" lon="0.35898">
        <ele>65.2</ele>
        <time>2020-06-18T07:29:13Z</time>
      </trkpt>
      <trkpt lat="49.7553" lon="0.359">
        <ele>64.9</ele>
        <time>2020-06-18T07:29:14Z</time>
      </trkpt>
      <trkpt lat="49.75532" lon="0.35902">
        <ele>64.7</ele>
        <time>2020-06-18T07:29:15Z</time>
      </trkpt>
      <trkpt lat="49.75535" lon="0.35905">
        <ele>64.4</ele>
        <time>2020-06-18T07:29:16Z</time>
      </trkpt>
      <trkpt lat="49.75538" lon="0.35907">
        <ele>64.1</ele>
        <time>2020-06-18T07:29:17Z</time>
      </trkpt>
      <trkpt lat="49.75541" lon="0.35909">
        <ele>63.8</ele>
        <time>2020-06-18T07:29:18Z</time>
      </trkpt>
      <trkpt lat="49.75545" lon="0.35911">
        <ele>63.4</ele>
        <time>2020-06-18T07:29:19Z</time>
      </trkpt>
      <trkpt lat="49.75547" lon="0.35913">
        <ele>63</ele>
        <time>2020-06-18T07:29:20Z</time>
      </trkpt>
      <trkpt lat="49.75549" lon="0.35912">
        <ele>63.1</ele>
        <time>2020-06-18T07:29:21Z</time>
      </trkpt>
      <trkpt lat="49.7555" lon="0.35912">
        <ele>63.1</ele>
        <time>2020-06-18T07:29:22Z</time>
      </trkpt>
      <trkpt lat="49.7555" lon="0.35913">
        <ele>63.1</ele>
        <time>2020-06-18T07:29:23Z</time>
      </trkpt>
      <trkpt lat="49.7555" lon="0.35913">
        <ele>63.1</ele>
        <time>2020-06-18T07:29:24Z</time>
      </trkpt>
      <trkpt lat="49.7555" lon="0.35913">
        <ele>63.1</ele>
        <time>2020-06-18T07:29:25Z</time>
      </trkpt>
      <trkpt lat="49.75551" lon="0.35912">
        <ele>63.2</ele>
        <time>2020-06-18T07:29:26Z</time>
      </trkpt>
      <trkpt lat="49.75551" lon="0.35914">
        <ele>63.2</ele>
        <time>2020-06-18T07:29:27Z</time>
      </trkpt>
      <trkpt lat="49.75551" lon="0.35915">
        <ele>63.3</ele>
        <time>2020-06-18T07:29:28Z</time>
      </trkpt>
      <trkpt lat="49.75551" lon="0.35915">
        <ele>63.3</ele>
        <time>2020-06-18T07:29:29Z</time>
      </trkpt>
      <trkpt lat="49.75551" lon="0.35916">
        <ele>63.3</ele>
        <time>2020-06-18T07:29:30Z</time>
      </trkpt>
      <trkpt lat="49.75552" lon="0.35917">
        <ele>63.3</ele>
        <time>2020-06-18T07:29:31Z</time>
      </trkpt>
      <trkpt lat="49.75552" lon="0.35918">
        <ele>63.3</ele>
        <time>2020-06-18T07:29:32Z</time>
      </trkpt>
      <trkpt lat="49.75552" lon="0.35918">
        <ele>63.4</ele>
        <time>2020-06-18T07:29:33Z</time>
      </trkpt>
      <trkpt lat="49.75552" lon="0.35918">
        <ele>63.4</ele>
        <time>2020-06-18T07:29:34Z</time>
      </trkpt>
      <trkpt lat="49.75552" lon="0.35918">
        <ele>63.4</ele>
        <time>2020-06-18T07:29:35Z</time>
      </trkpt>
      <trkpt lat="49.75552" lon="0.3592">
        <ele>63.4</ele>
        <time>2020-06-18T07:29:36Z</time>
      </trkpt>
      <trkpt lat="49.75553" lon="0.35918">
        <ele>63.5</ele>
        <time>2020-06-18T07:29:37Z</time>
      </trkpt>
      <trkpt lat="49.75553" lon="0.35918">
        <ele>63.5</ele>
        <time>2020-06-18T07:29:38Z</time>
      </trkpt>
      <trkpt lat="49.75553" lon="0.35916">
        <ele>63.6</ele>
        <time>2020-06-18T07:29:39Z</time>
      </trkpt>
      <trkpt lat="49.75551" lon="0.35922">
        <ele>63.7</ele>
        <time>2020-06-18T07:30:14Z</time>
      </trkpt>
      <trkpt lat="49.7555" lon="0.35922">
        <ele>63.8</ele>
        <time>2020-06-18T07:30:15Z</time>
      </trkpt>
      <trkpt lat="49.75547" lon="0.35923">
        <ele>63.9</ele>
        <time>2020-06-18T07:30:16Z</time>
      </trkpt>
      <trkpt lat="49.75545" lon="0.35924">
        <ele>63.9</ele>
        <time>2020-06-18T07:30:17Z</time>
      </trkpt>
      <trkpt lat="49.75542" lon="0.35927">
        <ele>64.1</ele>
        <time>2020-06-18T07:30:18Z</time>
      </trkpt>
      <trkpt lat="49.75541" lon="0.35928">
        <ele>64.1</ele>
        <time>2020-06-18T07:30:19Z</time>
      </trkpt>
      <trkpt lat="49.75538" lon="0.35929">
        <ele>64.3</ele>
        <time>2020-06-18T07:30:20Z</time>
      </trkpt>
      <trkpt lat="49.75537" lon="0.3593">
        <ele>64.3</ele>
        <time>2020-06-18T07:30:21Z</time>
      </trkpt>
      <trkpt lat="49.75534" lon="0.35933">
        <ele>64.4</ele>
        <time>2020-06-18T07:30:22Z</time>
      </trkpt>
      <trkpt lat="49.75533" lon="0.35935">
        <ele>64.5</ele>
        <time>2020-06-18T07:30:23Z</time>
      </trkpt>
      <trkpt lat="49.75532" lon="0.35938">
        <ele>64.6</ele>
        <time>2020-06-18T07:30:24Z</time>
      </trkpt>
      <trkpt lat="49.75528" lon="0.35941">
        <ele>64.8</ele>
        <time>2020-06-18T07:30:25Z</time>
      </trkpt>
      <trkpt lat="49.75527" lon="0.35942">
        <ele>64.8</ele>
        <time>2020-06-18T07:30:26Z</time>
      </trkpt>
      <trkpt lat="49.75524" lon="0.35946">
        <ele>65</ele>
        <time>2020-06-18T07:30:27Z</time>
      </trkpt>
      <trkpt lat="49.75524" lon="0.35948">
        <ele>65</ele>
        <time>2020-06-18T07:30:28Z</time>
      </trkpt>
      <trkpt lat="49.75521" lon="0.35953">
        <ele>65.2</ele>
        <time>2020-06-18T07:30:29Z</time>
      </trkpt>
      <trkpt lat="49.75521" lon="0.35954">
        <ele>65.2</ele>
        <time>2020-06-18T07:30:30Z</time>
      </trkpt>
      <trkpt lat="49.75518" lon="0.35957">
        <ele>65.4</ele>
        <time>2020-06-18T07:30:31Z</time>
      </trkpt>
      <trkpt lat="49.75516" lon="0.3596">
        <ele>65.5</ele>
        <time>2020-06-18T07:30:32Z</time>
      </trkpt>
      <trkpt lat="49.75514" lon="0.35962">
        <ele>65.6</ele>
        <time>2020-06-18T07:30:33Z</time>
      </trkpt>
      <trkpt lat="49.75511" lon="0.35966">
        <ele>65.8</ele>
        <time>2020-06-18T07:30:34Z</time>
      </trkpt>
      <trkpt lat="49.7551" lon="0.35967">
        <ele>65.9</ele>
        <time>2020-06-18T07:30:35Z</time>
      </trkpt>
      <trkpt lat="49.75508" lon="0.3597">
        <ele>66.1</ele>
        <time>2020-06-18T07:30:36Z</time>
      </trkpt>
      <trkpt lat="49.75507" lon="0.35971">
        <ele>66.1</ele>
        <time>2020-06-18T07:30:37Z</time>
      </trkpt>
      <trkpt lat="49.75508" lon="0.35977">
        <ele>65.5</ele>
        <time>2020-06-18T07:30:38Z</time>
      </trkpt>
      <trkpt lat="49.75508" lon="0.35979">
        <ele>65.3</ele>
        <time>2020-06-18T07:30:39Z</time>
      </trkpt>
      <trkpt lat="49.75509" lon="0.35985">
        <ele>64.7</ele>
        <time>2020-06-18T07:30:40Z</time>
      </trkpt>
      <trkpt lat="49.75509" lon="0.35991">
        <ele>64.2</ele>
        <time>2020-06-18T07:30:41Z</time>
      </trkpt>
      <trkpt lat="49.7551" lon="0.35997">
        <ele>63.6</ele>
        <time>2020-06-18T07:30:42Z</time>
      </trkpt>
      <trkpt lat="49.75511" lon="0.36004">
        <ele>63</ele>
        <time>2020-06-18T07:30:43Z</time>
      </trkpt>
      <trkpt lat="49.75512" lon="0.36011">
        <ele>62.3</ele>
        <time>2020-06-18T07:30:44Z</time>
      </trkpt>
      <trkpt lat="49.75514" lon="0.36018">
        <ele>61.6</ele>
        <time>2020-06-18T07:30:45Z</time>
      </trkpt>
      <trkpt lat="49.75517" lon="0.36023">
        <ele>61.1</ele>
        <time>2020-06-18T07:30:46Z</time>
      </trkpt>
      <trkpt lat="49.7552" lon="0.36027">
        <ele>60.5</ele>
        <time>2020-06-18T07:30:47Z</time>
      </trkpt>
      <trkpt lat="49.75523" lon="0.36031">
        <ele>60</ele>
        <time>2020-06-18T07:30:48Z</time>
      </trkpt>
      <trkpt lat="49.75526" lon="0.36035">
        <ele>59.5</ele>
        <time>2020-06-18T07:30:49Z</time>
      </trkpt>
      <trkpt lat="49.7553" lon="0.36038">
        <ele>58.9</ele>
        <time>2020-06-18T07:30:50Z</time>
      </trkpt>
      <trkpt lat="49.75534" lon="0.36039">
        <ele>58.3</ele>
        <time>2020-06-18T07:30:51Z</time>
      </trkpt>
      <trkpt lat="49.75538" lon="0.36041">
        <ele>57.8</ele>
        <time>2020-06-18T07:30:52Z</time>
      </trkpt>
      <trkpt lat="49.75541" lon="0.36042">
        <ele>57.2</ele>
        <time>2020-06-18T07:30:53Z</time>
      </trkpt>
      <trkpt lat="49.75544" lon="0.36044">
        <ele>56.7</ele>
        <time>2020-06-18T07:30:54Z</time>
      </trkpt>
      <trkpt lat="49.75547" lon="0.36044">
        <ele>56.2</ele>
        <time>2020-06-18T07:30:55Z</time>
      </trkpt>
      <trkpt lat="49.7555" lon="0.36045">
        <ele>55.6</ele>
        <time>2020-06-18T07:30:56Z</time>
      </trkpt>
      <trkpt lat="49.75553" lon="0.36045">
        <ele>55</ele>
        <time>2020-06-18T07:30:57Z</time>
      </trkpt>
      <trkpt lat="49.75556" lon="0.36047">
        <ele>54.5</ele>
        <time>2020-06-18T07:30:58Z</time>
      </trkpt>
      <trkpt lat="49.75559" lon="0.36047">
        <ele>53.9</ele>
        <time>2020-06-18T07:30:59Z</time>
      </trkpt>
      <trkpt lat="49.75562" lon="0.3605">
        <ele>53.2</ele>
        <time>2020-06-18T07:31:00Z</time>
      </trkpt>
      <trkpt lat="49.75565" lon="0.3605">
        <ele>52.5</ele>
        <time>2020-06-18T07:31:01Z</time>
      </trkpt>
      <trkpt lat="49.75569" lon="0.36051">
        <ele>51.7</ele>
        <time>2020-06-18T07:31:02Z</time>
      </trkpt>
      <trkpt lat="49.75573" lon="0.36052">
        <ele>51</ele>
        <time>2020-06-18T07:31:03Z</time>
      </trkpt>
      <trkpt lat="49.75577" lon="0.36053">
        <ele>50.2</ele>
        <time>2020-06-18T07:31:04Z</time>
      </trkpt>
      <trkpt lat="49.7558" lon="0.36054">
        <ele>49.5</ele>
        <time>2020-06-18T07:31:05Z</time>
      </trkpt>
      <trkpt lat="49.75583" lon="0.36057">
        <ele>48.9</ele>
        <time>2020-06-18T07:31:06Z</time>
      </trkpt>
      <trkpt lat="49.75586" lon="0.36059">
        <ele>48.3</ele>
        <time>2020-06-18T07:31:07Z</time>
      </trkpt>
      <trkpt lat="49.75588" lon="0.36064">
        <ele>47.5</ele>
        <time>2020-06-18T07:31:08Z</time>
      </trkpt>
      <trkpt lat="49.75591" lon="0.36066">
        <ele>47</ele>
        <time>2020-06-18T07:31:09Z</time>
      </trkpt>
      <trkpt lat="49.75593" lon="0.36068">
        <ele>46.5</ele>
        <time>2020-06-18T07:31:10Z</time>
      </trkpt>
      <trkpt lat="49.75596" lon="0.36071">
        <ele>45.8</ele>
        <time>2020-06-18T07:31:11Z</time>
      </trkpt>
      <trkpt lat="49.75597" lon="0.36072">
        <ele>45.6</ele>
        <time>2020-06-18T07:31:12Z</time>
      </trkpt>
      <trkpt lat="49.75601" lon="0.36075">
        <ele>44.9</ele>
        <time>2020-06-18T07:31:13Z</time>
      </trkpt>
      <trkpt lat="49.75602" lon="0.36075">
        <ele>44.6</ele>
        <time>2020-06-18T07:31:14Z</time>
      </trkpt>
      <trkpt lat="49.75606" lon="0.36075">
        <ele>44</ele>
        <time>2020-06-18T07:31:15Z</time>
      </trkpt>
      <trkpt lat="49.75609" lon="0.36076">
        <ele>43.4</ele>
        <time>2020-06-18T07:31:16Z</time>
      </trkpt>
      <trkpt lat="49.75612" lon="0.36075">
        <ele>42.8</ele>
        <time>2020-06-18T07:31:17Z</time>
      </trkpt>
      <trkpt lat="49.75613" lon="0.36074">
        <ele>42.6</ele>
        <time>2020-06-18T07:31:18Z</time>
      </trkpt>
      <trkpt lat="49.75617" lon="0.36073">
        <ele>41.9</ele>
        <time>2020-06-18T07:31:19Z</time>
      </trkpt>
      <trkpt lat="49.75618" lon="0.36073">
        <ele>41.6</ele>
        <time>2020-06-18T07:31:20Z</time>
      </trkpt>
      <trkpt lat="49.75622" lon="0.36074">
        <ele>40.8</ele>
        <time>2020-06-18T07:31:21Z</time>
      </trkpt>
      <trkpt lat="49.75623" lon="0.36073">
        <ele>40.6</ele>
        <time>2020-06-18T07:31:22Z</time>
      </trkpt>
      <trkpt lat="49.75626" lon="0.36072">
        <ele>39.8</ele>
        <time>2020-06-18T07:31:23Z</time>
      </trkpt>
      <trkpt lat="49.75627" lon="0.36071">
        <ele>39.6</ele>
        <time>2020-06-18T07:31:24Z</time>
      </trkpt>
      <trkpt lat="49.7563" lon="0.36069">
        <ele>38.9</ele>
        <time>2020-06-18T07:31:25Z</time>
      </trkpt>
      <trkpt lat="49.75632" lon="0.36068">
        <ele>38.3</ele>
        <time>2020-06-18T07:31:26Z</time>
      </trkpt>
      <trkpt lat="49.75636" lon="0.36066">
        <ele>37.4</ele>
        <time>2020-06-18T07:31:27Z</time>
      </trkpt>
      <trkpt lat="49.75637" lon="0.36065">
        <ele>37.1</ele>
        <time>2020-06-18T07:31:28Z</time>
      </trkpt>
      <trkpt lat="49.75641" lon="0.36066">
        <ele>36.2</ele>
        <time>2020-06-18T07:31:29Z</time>
      </trkpt>
      <trkpt lat="49.75642" lon="0.36066">
        <ele>35.9</ele>
        <time>2020-06-18T07:31:30Z</time>
      </trkpt>
      <trkpt lat="49.75646" lon="0.36067">
        <ele>35.1</ele>
        <time>2020-06-18T07:31:31Z</time>
      </trkpt>
      <trkpt lat="49.75649" lon="0.36067">
        <ele>34.4</ele>
        <time>2020-06-18T07:31:32Z</time>
      </trkpt>
      <trkpt lat="49.75652" lon="0.36064">
        <ele>33.6</ele>
        <time>2020-06-18T07:31:33Z</time>
      </trkpt>
      <trkpt lat="49.75653" lon="0.36064">
        <ele>33.4</ele>
        <time>2020-06-18T07:31:34Z</time>
      </trkpt>
      <trkpt lat="49.75656" lon="0.36062">
        <ele>32.8</ele>
        <time>2020-06-18T07:31:35Z</time>
      </trkpt>
      <trkpt lat="49.75659" lon="0.36061">
        <ele>50.2</ele>
        <time>2020-06-18T07:31:36Z</time>
      </trkpt>
      <trkpt lat="49.75662" lon="0.36061">
        <ele>50.1</ele>
        <time>2020-06-18T07:31:37Z</time>
      </trkpt>
      <trkpt lat="49.75666" lon="0.36058">
        <ele>49.9</ele>
        <time>2020-06-18T07:31:38Z</time>
      </trkpt>
      <trkpt lat="49.75669" lon="0.36057">
        <ele>49.7</ele>
        <time>2020-06-18T07:31:39Z</time>
      </trkpt>
      <trkpt lat="49.75672" lon="0.36058">
        <ele>49.6</ele>
        <time>2020-06-18T07:31:40Z</time>
      </trkpt>
      <trkpt lat="49.75676" lon="0.3606">
        <ele>49.4</ele>
        <time>2020-06-18T07:31:41Z</time>
      </trkpt>
      <trkpt lat="49.75677" lon="0.36062">
        <ele>49.3</ele>
        <time>2020-06-18T07:31:42Z</time>
      </trkpt>
      <trkpt lat="49.7568" lon="0.36061">
        <ele>49.1</ele>
        <time>2020-06-18T07:31:43Z</time>
      </trkpt>
      <trkpt lat="49.75682" lon="0.3606">
        <ele>49.1</ele>
        <time>2020-06-18T07:31:44Z</time>
      </trkpt>
      <trkpt lat="49.75684" lon="0.36062">
        <ele>48.9</ele>
        <time>2020-06-18T07:31:45Z</time>
      </trkpt>
      <trkpt lat="49.75685" lon="0.36063">
        <ele>48.9</ele>
        <time>2020-06-18T07:31:46Z</time>
      </trkpt>
      <trkpt lat="49.75688" lon="0.36065">
        <ele>48.7</ele>
        <time>2020-06-18T07:31:47Z</time>
      </trkpt>
      <trkpt lat="49.75689" lon="0.36066">
        <ele>48.6</ele>
        <time>2020-06-18T07:31:48Z</time>
      </trkpt>
      <trkpt lat="49.75692" lon="0.36066">
        <ele>48.5</ele>
        <time>2020-06-18T07:31:49Z</time>
      </trkpt>
      <trkpt lat="49.75693" lon="0.36067">
        <ele>48.4</ele>
        <time>2020-06-18T07:31:50Z</time>
      </trkpt>
      <trkpt lat="49.75696" lon="0.36068">
        <ele>48.2</ele>
        <time>2020-06-18T07:31:51Z</time>
      </trkpt>
      <trkpt lat="49.75697" lon="0.36068">
        <ele>48.2</ele>
        <time>2020-06-18T07:31:52Z</time>
      </trkpt>
      <trkpt lat="49.757" lon="0.36069">
        <ele>48</ele>
        <time>2020-06-18T07:31:53Z</time>
      </trkpt>
      <trkpt lat="49.757" lon="0.3607">
        <ele>48</ele>
        <time>2020-06-18T07:31:54Z</time>
      </trkpt>
      <trkpt lat="49.75702" lon="0.3607">
        <ele>47.8</ele>
        <time>2020-06-18T07:31:55Z</time>
      </trkpt>
      <trkpt lat="49.75704" lon="0.36071">
        <ele>47.7</ele>
        <time>2020-06-18T07:31:56Z</time>
      </trkpt>
      <trkpt lat="49.75705" lon="0.36073">
        <ele>47.6</ele>
        <time>2020-06-18T07:31:57Z</time>
      </trkpt>
      <trkpt lat="49.75706" lon="0.36074">
        <ele>47.5</ele>
        <time>2020-06-18T07:31:58Z</time>
      </trkpt>
      <trkpt lat="49.75708" lon="0.36074">
        <ele>47.2</ele>
        <time>2020-06-18T07:31:59Z</time>
      </trkpt>
      <trkpt lat="49.75708" lon="0.36074">
        <ele>47.2</ele>
        <time>2020-06-18T07:32:00Z</time>
      </trkpt>
      <trkpt lat="49.75709" lon="0.36074">
        <ele>47.1</ele>
        <time>2020-06-18T07:32:01Z</time>
      </trkpt>
      <trkpt lat="49.75709" lon="0.36074">
        <ele>47.1</ele>
        <time>2020-06-18T07:32:02Z</time>
      </trkpt>
      <trkpt lat="49.7571" lon="0.36074">
        <ele>47</ele>
        <time>2020-06-18T07:32:03Z</time>
      </trkpt>
      <trkpt lat="49.75711" lon="0.36075">
        <ele>47</ele>
        <time>2020-06-18T07:32:04Z</time>
      </trkpt>
      <trkpt lat="49.7571" lon="0.36075">
        <ele>46.9</ele>
        <time>2020-06-18T07:32:05Z</time>
      </trkpt>
      <trkpt lat="49.75711" lon="0.36076">
        <ele>46.9</ele>
        <time>2020-06-18T07:32:06Z</time>
      </trkpt>
      <trkpt lat="49.7571" lon="0.36076">
        <ele>46.8</ele>
        <time>2020-06-18T07:32:07Z</time>
      </trkpt>
      <trkpt lat="49.75712" lon="0.36078">
        <ele>46.7</ele>
        <time>2020-06-18T07:32:08Z</time>
      </trkpt>
      <trkpt lat="49.75715" lon="0.36081">
        <ele>46.4</ele>
        <time>2020-06-18T07:32:09Z</time>
      </trkpt>
      <trkpt lat="49.75716" lon="0.36085">
        <ele>46.2</ele>
        <time>2020-06-18T07:32:10Z</time>
      </trkpt>
      <trkpt lat="49.75718" lon="0.36089">
        <ele>45.9</ele>
        <time>2020-06-18T07:32:11Z</time>
      </trkpt>
      <trkpt lat="49.75721" lon="0.36093">
        <ele>45.6</ele>
        <time>2020-06-18T07:32:12Z</time>
      </trkpt>
      <trkpt lat="49.75724" lon="0.36097">
        <ele>45.4</ele>
        <time>2020-06-18T07:32:13Z</time>
      </trkpt>
      <trkpt lat="49.75727" lon="0.36101">
        <ele>45.1</ele>
        <time>2020-06-18T07:32:14Z</time>
      </trkpt>
      <trkpt lat="49.7573" lon="0.36104">
        <ele>44.9</ele>
        <time>2020-06-18T07:32:15Z</time>
      </trkpt>
      <trkpt lat="49.75733" lon="0.36106">
        <ele>44.7</ele>
        <time>2020-06-18T07:32:16Z</time>
      </trkpt>
      <trkpt lat="49.75735" lon="0.36109">
        <ele>44.5</ele>
        <time>2020-06-18T07:32:17Z</time>
      </trkpt>
      <trkpt lat="49.75737" lon="0.36113">
        <ele>44.3</ele>
        <time>2020-06-18T07:32:18Z</time>
      </trkpt>
      <trkpt lat="49.7574" lon="0.36117">
        <ele>44.1</ele>
        <time>2020-06-18T07:32:19Z</time>
      </trkpt>
      <trkpt lat="49.75743" lon="0.3612">
        <ele>43.9</ele>
        <time>2020-06-18T07:32:20Z</time>
      </trkpt>
      <trkpt lat="49.75746" lon="0.36123">
        <ele>43.7</ele>
        <time>2020-06-18T07:32:21Z</time>
      </trkpt>
      <trkpt lat="49.75749" lon="0.36126">
        <ele>43.7</ele>
        <time>2020-06-18T07:32:22Z</time>
      </trkpt>
      <trkpt lat="49.75752" lon="0.3613">
        <ele>43.7</ele>
        <time>2020-06-18T07:32:23Z</time>
      </trkpt>
      <trkpt lat="49.75755" lon="0.36134">
        <ele>43.7</ele>
        <time>2020-06-18T07:32:24Z</time>
      </trkpt>
      <trkpt lat="49.75758" lon="0.36138">
        <ele>43.5</ele>
        <time>2020-06-18T07:32:25Z</time>
      </trkpt>
      <trkpt lat="49.75761" lon="0.36142">
        <ele>43.4</ele>
        <time>2020-06-18T07:32:26Z</time>
      </trkpt>
      <trkpt lat="49.75765" lon="0.36147">
        <ele>43.3</ele>
        <time>2020-06-18T07:32:27Z</time>
      </trkpt>
      <trkpt lat="49.75768" lon="0.36153">
        <ele>43.2</ele>
        <time>2020-06-18T07:32:28Z</time>
      </trkpt>
      <trkpt lat="49.75771" lon="0.36157">
        <ele>43.1</ele>
        <time>2020-06-18T07:32:29Z</time>
      </trkpt>
      <trkpt lat="49.75773" lon="0.36163">
        <ele>43</ele>
        <time>2020-06-18T07:32:30Z</time>
      </trkpt>
      <trkpt lat="49.75774" lon="0.36169">
        <ele>42.9</ele>
        <time>2020-06-18T07:32:31Z</time>
      </trkpt>
      <trkpt lat="49.75773" lon="0.36176">
        <ele>42.8</ele>
        <time>2020-06-18T07:32:32Z</time>
      </trkpt>
      <trkpt lat="49.75772" lon="0.36184">
        <ele>42.7</ele>
        <time>2020-06-18T07:32:33Z</time>
      </trkpt>
      <trkpt lat="49.75769" lon="0.36191">
        <ele>42.6</ele>
        <time>2020-06-18T07:32:34Z</time>
      </trkpt>
      <trkpt lat="49.75767" lon="0.36197">
        <ele>42.5</ele>
        <time>2020-06-18T07:32:35Z</time>
      </trkpt>
      <trkpt lat="49.75765" lon="0.36204">
        <ele>42.4</ele>
        <time>2020-06-18T07:32:36Z</time>
      </trkpt>
      <trkpt lat="49.75763" lon="0.36211">
        <ele>42.3</ele>
        <time>2020-06-18T07:32:37Z</time>
      </trkpt>
      <trkpt lat="49.7576" lon="0.36216">
        <ele>42.1</ele>
        <time>2020-06-18T07:32:38Z</time>
      </trkpt>
      <trkpt lat="49.75758" lon="0.36221">
        <ele>42</ele>
        <time>2020-06-18T07:32:39Z</time>
      </trkpt>
      <trkpt lat="49.75754" lon="0.36225">
        <ele>41.9</ele>
        <time>2020-06-18T07:32:40Z</time>
      </trkpt>
      <trkpt lat="49.7575" lon="0.36226">
        <ele>41.7</ele>
        <time>2020-06-18T07:32:41Z</time>
      </trkpt>
      <trkpt lat="49.75746" lon="0.36226">
        <ele>41.5</ele>
        <time>2020-06-18T07:32:42Z</time>
      </trkpt>
      <trkpt lat="49.75742" lon="0.36224">
        <ele>41.4</ele>
        <time>2020-06-18T07:32:43Z</time>
      </trkpt>
      <trkpt lat="49.75738" lon="0.36223">
        <ele>41.2</ele>
        <time>2020-06-18T07:32:44Z</time>
      </trkpt>
      <trkpt lat="49.75735" lon="0.36222">
        <ele>41.1</ele>
        <time>2020-06-18T07:32:45Z</time>
      </trkpt>
      <trkpt lat="49.75732" lon="0.36221">
        <ele>41</ele>
        <time>2020-06-18T07:32:46Z</time>
      </trkpt>
      <trkpt lat="49.75729" lon="0.36219">
        <ele>40.8</ele>
        <time>2020-06-18T07:32:47Z</time>
      </trkpt>
      <trkpt lat="49.75726" lon="0.36218">
        <ele>40.7</ele>
        <time>2020-06-18T07:32:48Z</time>
      </trkpt>
      <trkpt lat="49.75722" lon="0.36218">
        <ele>40.6</ele>
        <time>2020-06-18T07:32:49Z</time>
      </trkpt>
      <trkpt lat="49.75721" lon="0.36217">
        <ele>40.6</ele>
        <time>2020-06-18T07:32:50Z</time>
      </trkpt>
      <trkpt lat="49.75716" lon="0.36217">
        <ele>40.5</ele>
        <time>2020-06-18T07:32:51Z</time>
      </trkpt>
      <trkpt lat="49.75714" lon="0.36221">
        <ele>40.3</ele>
        <time>2020-06-18T07:32:52Z</time>
      </trkpt>
      <trkpt lat="49.75714" lon="0.36225">
        <ele>40</ele>
        <time>2020-06-18T07:32:53Z</time>
      </trkpt>
      <trkpt lat="49.75716" lon="0.3623">
        <ele>39.6</ele>
        <time>2020-06-18T07:32:54Z</time>
      </trkpt>
      <trkpt lat="49.75717" lon="0.36232">
        <ele>39.5</ele>
        <time>2020-06-18T07:32:55Z</time>
      </trkpt>
      <trkpt lat="49.75719" lon="0.36234">
        <ele>39.2</ele>
        <time>2020-06-18T07:32:56Z</time>
      </trkpt>
      <trkpt lat="49.75722" lon="0.36239">
        <ele>38.8</ele>
        <time>2020-06-18T07:32:57Z</time>
      </trkpt>
      <trkpt lat="49.75723" lon="0.3624">
        <ele>38.6</ele>
        <time>2020-06-18T07:32:58Z</time>
      </trkpt>
      <trkpt lat="49.75725" lon="0.36241">
        <ele>38.3</ele>
        <time>2020-06-18T07:32:59Z</time>
      </trkpt>
      <trkpt lat="49.75729" lon="0.36242">
        <ele>38</ele>
        <time>2020-06-18T07:33:00Z</time>
      </trkpt>
      <trkpt lat="49.75732" lon="0.36245">
        <ele>37.6</ele>
        <time>2020-06-18T07:33:01Z</time>
      </trkpt>
      <trkpt lat="49.75735" lon="0.36247">
        <ele>37.2</ele>
        <time>2020-06-18T07:33:02Z</time>
      </trkpt>
      <trkpt lat="49.75739" lon="0.36249">
        <ele>36.9</ele>
        <time>2020-06-18T07:33:03Z</time>
      </trkpt>
      <trkpt lat="49.75742" lon="0.36249">
        <ele>36.6</ele>
        <time>2020-06-18T07:33:04Z</time>
      </trkpt>
      <trkpt lat="49.75744" lon="0.36248">
        <ele>36.3</ele>
        <time>2020-06-18T07:33:05Z</time>
      </trkpt>
      <trkpt lat="49.75747" lon="0.3625">
        <ele>36</ele>
        <time>2020-06-18T07:33:06Z</time>
      </trkpt>
      <trkpt lat="49.7575" lon="0.36253">
        <ele>35.7</ele>
        <time>2020-06-18T07:33:07Z</time>
      </trkpt>
      <trkpt lat="49.75752" lon="0.36254">
        <ele>35.4</ele>
        <time>2020-06-18T07:33:08Z</time>
      </trkpt>
      <trkpt lat="49.75755" lon="0.36255">
        <ele>35.2</ele>
        <time>2020-06-18T07:33:09Z</time>
      </trkpt>
      <trkpt lat="49.75758" lon="0.36258">
        <ele>34.8</ele>
        <time>2020-06-18T07:33:10Z</time>
      </trkpt>
      <trkpt lat="49.75761" lon="0.36261">
        <ele>34.4</ele>
        <time>2020-06-18T07:33:11Z</time>
      </trkpt>
      <trkpt lat="49.75764" lon="0.36262">
        <ele>34.1</ele>
        <time>2020-06-18T07:33:12Z</time>
      </trkpt>
      <trkpt lat="49.75767" lon="0.36264">
        <ele>33.7</ele>
        <time>2020-06-18T07:33:13Z</time>
      </trkpt>
      <trkpt lat="49.7577" lon="0.36265">
        <ele>33.3</ele>
        <time>2020-06-18T07:33:14Z</time>
      </trkpt>
      <trkpt lat="49.75773" lon="0.36265">
        <ele>32.9</ele>
        <time>2020-06-18T07:33:15Z</time>
      </trkpt>
      <trkpt lat="49.75776" lon="0.36266">
        <ele>31.9</ele>
        <time>2020-06-18T07:33:16Z</time>
      </trkpt>
      <trkpt lat="49.75777" lon="0.36266">
        <ele>31.8</ele>
        <time>2020-06-18T07:33:17Z</time>
      </trkpt>
      <trkpt lat="49.75779" lon="0.36266">
        <ele>31.5</ele>
        <time>2020-06-18T07:33:18Z</time>
      </trkpt>
      <trkpt lat="49.7578" lon="0.36266">
        <ele>31.3</ele>
        <time>2020-06-18T07:33:19Z</time>
      </trkpt>
      <trkpt lat="49.75783" lon="0.36268">
        <ele>30.8</ele>
        <time>2020-06-18T07:33:20Z</time>
      </trkpt>
      <trkpt lat="49.75784" lon="0.36269">
        <ele>30.7</ele>
        <time>2020-06-18T07:33:21Z</time>
      </trkpt>
      <trkpt lat="49.75787" lon="0.36271">
        <ele>30.1</ele>
        <time>2020-06-18T07:33:22Z</time>
      </trkpt>
      <trkpt lat="49.75788" lon="0.36273">
        <ele>29.9</ele>
        <time>2020-06-18T07:33:23Z</time>
      </trkpt>
      <trkpt lat="49.75792" lon="0.36274">
        <ele>29.2</ele>
        <time>2020-06-18T07:33:24Z</time>
      </trkpt>
      <trkpt lat="49.75794" lon="0.36275">
        <ele>28.5</ele>
        <time>2020-06-18T07:33:25Z</time>
      </trkpt>
      <trkpt lat="49.75798" lon="0.36275">
        <ele>27.9</ele>
        <time>2020-06-18T07:33:26Z</time>
      </trkpt>
      <trkpt lat="49.75803" lon="0.36277">
        <ele>27.1</ele>
        <time>2020-06-18T07:33:27Z</time>
      </trkpt>
      <trkpt lat="49.75809" lon="0.36281">
        <ele>26.1</ele>
        <time>2020-06-18T07:33:28Z</time>
      </trkpt>
      <trkpt lat="49.75816" lon="0.36285">
        <ele>25.1</ele>
        <time>2020-06-18T07:33:29Z</time>
      </trkpt>
      <trkpt lat="49.75821" lon="0.36287">
        <ele>24.3</ele>
        <time>2020-06-18T07:33:30Z</time>
      </trkpt>
      <trkpt lat="49.75826" lon="0.36288">
        <ele>23.6</ele>
        <time>2020-06-18T07:33:31Z</time>
      </trkpt>
      <trkpt lat="49.7583" lon="0.36289">
        <ele>22.9</ele>
        <time>2020-06-18T07:33:32Z</time>
      </trkpt>
      <trkpt lat="49.75835" lon="0.3629">
        <ele>22.2</ele>
        <time>2020-06-18T07:33:33Z</time>
      </trkpt>
      <trkpt lat="49.75839" lon="0.36291">
        <ele>21.6</ele>
        <time>2020-06-18T07:33:34Z</time>
      </trkpt>
      <trkpt lat="49.75844" lon="0.36291">
        <ele>20.9</ele>
        <time>2020-06-18T07:33:35Z</time>
      </trkpt>
      <trkpt lat="49.75848" lon="0.36291">
        <ele>20.3</ele>
        <time>2020-06-18T07:33:36Z</time>
      </trkpt>
      <trkpt lat="49.75852" lon="0.36292">
        <ele>19.8</ele>
        <time>2020-06-18T07:33:37Z</time>
      </trkpt>
      <trkpt lat="49.75855" lon="0.36291">
        <ele>19.3</ele>
        <time>2020-06-18T07:33:38Z</time>
      </trkpt>
      <trkpt lat="49.75859" lon="0.36292">
        <ele>18.7</ele>
        <time>2020-06-18T07:33:39Z</time>
      </trkpt>
      <trkpt lat="49.75863" lon="0.36291">
        <ele>18.2</ele>
        <time>2020-06-18T07:33:40Z</time>
      </trkpt>
      <trkpt lat="49.75866" lon="0.36289">
        <ele>17.8</ele>
        <time>2020-06-18T07:33:41Z</time>
      </trkpt>
      <trkpt lat="49.75869" lon="0.3629">
        <ele>17.4</ele>
        <time>2020-06-18T07:33:42Z</time>
      </trkpt>
      <trkpt lat="49.75872" lon="0.36288">
        <ele>17</ele>
        <time>2020-06-18T07:33:43Z</time>
      </trkpt>
      <trkpt lat="49.75875" lon="0.36287">
        <ele>16.6</ele>
        <time>2020-06-18T07:33:44Z</time>
      </trkpt>
      <trkpt lat="49.75879" lon="0.36287">
        <ele>16.2</ele>
        <time>2020-06-18T07:33:45Z</time>
      </trkpt>
      <trkpt lat="49.7588" lon="0.36287">
        <ele>16</ele>
        <time>2020-06-18T07:33:46Z</time>
      </trkpt>
      <trkpt lat="49.75884" lon="0.36287">
        <ele>15.6</ele>
        <time>2020-06-18T07:33:47Z</time>
      </trkpt>
      <trkpt lat="49.75885" lon="0.36288">
        <ele>15.4</ele>
        <time>2020-06-18T07:33:48Z</time>
      </trkpt>
      <trkpt lat="49.75889" lon="0.36289">
        <ele>15</ele>
        <time>2020-06-18T07:33:49Z</time>
      </trkpt>
      <trkpt lat="49.75889" lon="0.36289">
        <ele>14.9</ele>
        <time>2020-06-18T07:33:50Z</time>
      </trkpt>
      <trkpt lat="49.75891" lon="0.3629">
        <ele>14.7</ele>
        <time>2020-06-18T07:33:51Z</time>
      </trkpt>
      <trkpt lat="49.75892" lon="0.36289">
        <ele>14.5</ele>
        <time>2020-06-18T07:33:52Z</time>
      </trkpt>
      <trkpt lat="49.75894" lon="0.3629">
        <ele>14.2</ele>
        <time>2020-06-18T07:33:53Z</time>
      </trkpt>
      <trkpt lat="49.75895" lon="0.36287">
        <ele>13.9</ele>
        <time>2020-06-18T07:33:54Z</time>
      </trkpt>
      <trkpt lat="49.75896" lon="0.36286">
        <ele>13.8</ele>
        <time>2020-06-18T07:33:55Z</time>
      </trkpt>
      <trkpt lat="49.75897" lon="0.36285">
        <ele>13.6</ele>
        <time>2020-06-18T07:33:56Z</time>
      </trkpt>
      <trkpt lat="49.75898" lon="0.36285">
        <ele>13.5</ele>
        <time>2020-06-18T07:33:57Z</time>
      </trkpt>
      <trkpt lat="49.75899" lon="0.36285">
        <ele>13.4</ele>
        <time>2020-06-18T07:33:58Z</time>
      </trkpt>
      <trkpt lat="49.75899" lon="0.36283">
        <ele>13.2</ele>
        <time>2020-06-18T07:33:59Z</time>
      </trkpt>
      <trkpt lat="49.75901" lon="0.36282">
        <ele>13</ele>
        <time>2020-06-18T07:34:00Z</time>
      </trkpt>
      <trkpt lat="49.75902" lon="0.36281">
        <ele>12.7</ele>
        <time>2020-06-18T07:34:01Z</time>
      </trkpt>
      <trkpt lat="49.75903" lon="0.36279">
        <ele>12.6</ele>
        <time>2020-06-18T07:34:02Z</time>
      </trkpt>
      <trkpt lat="49.75904" lon="0.36277">
        <ele>12.3</ele>
        <time>2020-06-18T07:34:03Z</time>
      </trkpt>
      <trkpt lat="49.75905" lon="0.36276">
        <ele>12.1</ele>
        <time>2020-06-18T07:34:04Z</time>
      </trkpt>
      <trkpt lat="49.75906" lon="0.36275">
        <ele>12</ele>
        <time>2020-06-18T07:34:05Z</time>
      </trkpt>
      <trkpt lat="49.75907" lon="0.36271">
        <ele>11.6</ele>
        <time>2020-06-18T07:34:06Z</time>
      </trkpt>
      <trkpt lat="49.75907" lon="0.3627">
        <ele>11.6</ele>
        <time>2020-06-18T07:34:07Z</time>
      </trkpt>
      <trkpt lat="49.7591" lon="0.36266">
        <ele>11.5</ele>
        <time>2020-06-18T07:34:08Z</time>
      </trkpt>
      <trkpt lat="49.75911" lon="0.36264">
        <ele>11.4</ele>
        <time>2020-06-18T07:34:09Z</time>
      </trkpt>
      <trkpt lat="49.75912" lon="0.36261">
        <ele>11.3</ele>
        <time>2020-06-18T07:34:10Z</time>
      </trkpt>
      <trkpt lat="49.75914" lon="0.36257">
        <ele>11.1</ele>
        <time>2020-06-18T07:34:11Z</time>
      </trkpt>
      <trkpt lat="49.75916" lon="0.36254">
        <ele>11</ele>
        <time>2020-06-18T07:34:12Z</time>
      </trkpt>
      <trkpt lat="49.75917" lon="0.36249">
        <ele>10.9</ele>
        <time>2020-06-18T07:34:13Z</time>
      </trkpt>
      <trkpt lat="49.75919" lon="0.36245">
        <ele>10.7</ele>
        <time>2020-06-18T07:34:14Z</time>
      </trkpt>
      <trkpt lat="49.75921" lon="0.3624">
        <ele>10.6</ele>
        <time>2020-06-18T07:34:15Z</time>
      </trkpt>
      <trkpt lat="49.75923" lon="0.36235">
        <ele>10.5</ele>
        <time>2020-06-18T07:34:16Z</time>
      </trkpt>
      <trkpt lat="49.75924" lon="0.36229">
        <ele>10.2</ele>
        <time>2020-06-18T07:34:17Z</time>
      </trkpt>
      <trkpt lat="49.75926" lon="0.36224">
        <ele>10.1</ele>
        <time>2020-06-18T07:34:18Z</time>
      </trkpt>
      <trkpt lat="49.75929" lon="0.36219">
        <ele>10</ele>
        <time>2020-06-18T07:34:19Z</time>
      </trkpt>
      <trkpt lat="49.7593" lon="0.36214">
        <ele>10</ele>
        <time>2020-06-18T07:34:20Z</time>
      </trkpt>
      <trkpt lat="49.75931" lon="0.36208">
        <ele>9.9</ele>
        <time>2020-06-18T07:34:21Z</time>
      </trkpt>
      <trkpt lat="49.75933" lon="0.36202">
        <ele>9.8</ele>
        <time>2020-06-18T07:34:22Z</time>
      </trkpt>
      <trkpt lat="49.75935" lon="0.36197">
        <ele>9.8</ele>
        <time>2020-06-18T07:34:23Z</time>
      </trkpt>
      <trkpt lat="49.75938" lon="0.36194">
        <ele>9.7</ele>
        <time>2020-06-18T07:34:24Z</time>
      </trkpt>
      <trkpt lat="49.7594" lon="0.36188">
        <ele>9.7</ele>
        <time>2020-06-18T07:34:25Z</time>
      </trkpt>
      <trkpt lat="49.75941" lon="0.36183">
        <ele>9.6</ele>
        <time>2020-06-18T07:34:26Z</time>
      </trkpt>
      <trkpt lat="49.75943" lon="0.36178">
        <ele>9.6</ele>
        <time>2020-06-18T07:34:27Z</time>
      </trkpt>
      <trkpt lat="49.75944" lon="0.36174">
        <ele>9.6</ele>
        <time>2020-06-18T07:34:28Z</time>
      </trkpt>
      <trkpt lat="49.75946" lon="0.3617">
        <ele>9.7</ele>
        <time>2020-06-18T07:34:29Z</time>
      </trkpt>
      <trkpt lat="49.75948" lon="0.36166">
        <ele>9.7</ele>
        <time>2020-06-18T07:34:30Z</time>
      </trkpt>
      <trkpt lat="49.75948" lon="0.36162">
        <ele>9.7</ele>
        <time>2020-06-18T07:34:31Z</time>
      </trkpt>
      <trkpt lat="49.75949" lon="0.36159">
        <ele>9.7</ele>
        <time>2020-06-18T07:34:32Z</time>
      </trkpt>
      <trkpt lat="49.7595" lon="0.36157">
        <ele>9.7</ele>
        <time>2020-06-18T07:34:33Z</time>
      </trkpt>
      <trkpt lat="49.75951" lon="0.36154">
        <ele>9.7</ele>
        <time>2020-06-18T07:34:34Z</time>
      </trkpt>
      <trkpt lat="49.75951" lon="0.36153">
        <ele>9.7</ele>
        <time>2020-06-18T07:34:35Z</time>
      </trkpt>
      <trkpt lat="49.75954" lon="0.36151">
        <ele>9.7</ele>
        <time>2020-06-18T07:34:36Z</time>
      </trkpt>
      <trkpt lat="49.75956" lon="0.36147">
        <ele>9.7</ele>
        <time>2020-06-18T07:34:37Z</time>
      </trkpt>
      <trkpt lat="49.75956" lon="0.36145">
        <ele>9.7</ele>
        <time>2020-06-18T07:34:38Z</time>
      </trkpt>
      <trkpt lat="49.75956" lon="0.36142">
        <ele>9.7</ele>
        <time>2020-06-18T07:34:39Z</time>
      </trkpt>
      <trkpt lat="49.75955" lon="0.3614">
        <ele>9.7</ele>
        <time>2020-06-18T07:34:40Z</time>
      </trkpt>
      <trkpt lat="49.75953" lon="0.36136">
        <ele>9.7</ele>
        <time>2020-06-18T07:34:41Z</time>
      </trkpt>
      <trkpt lat="49.75951" lon="0.36133">
        <ele>9.7</ele>
        <time>2020-06-18T07:34:42Z</time>
      </trkpt>
      <trkpt lat="49.75948" lon="0.3613">
        <ele>9.8</ele>
        <time>2020-06-18T07:34:43Z</time>
      </trkpt>
      <trkpt lat="49.75946" lon="0.36127">
        <ele>9.8</ele>
        <time>2020-06-18T07:34:44Z</time>
      </trkpt>
      <trkpt lat="49.75944" lon="0.36124">
        <ele>9.8</ele>
        <time>2020-06-18T07:34:45Z</time>
      </trkpt>
      <trkpt lat="49.7594" lon="0.36122">
        <ele>9.8</ele>
        <time>2020-06-18T07:34:46Z</time>
      </trkpt>
      <trkpt lat="49.75939" lon="0.36121">
        <ele>9.8</ele>
        <time>2020-06-18T07:34:47Z</time>
      </trkpt>
      <trkpt lat="49.75937" lon="0.36117">
        <ele>9.8</ele>
        <time>2020-06-18T07:34:48Z</time>
      </trkpt>
      <trkpt lat="49.75936" lon="0.36116">
        <ele>9.9</ele>
        <time>2020-06-18T07:34:49Z</time>
      </trkpt>
      <trkpt lat="49.75935" lon="0.36114">
        <ele>9.9</ele>
        <time>2020-06-18T07:34:50Z</time>
      </trkpt>
      <trkpt lat="49.75934" lon="0.36113">
        <ele>9.9</ele>
        <time>2020-06-18T07:34:51Z</time>
      </trkpt>
      <trkpt lat="49.75931" lon="0.36111">
        <ele>9.9</ele>
        <time>2020-06-18T07:34:52Z</time>
      </trkpt>
      <trkpt lat="49.7593" lon="0.3611">
        <ele>9.9</ele>
        <time>2020-06-18T07:34:53Z</time>
      </trkpt>
      <trkpt lat="49.75927" lon="0.36109">
        <ele>9.9</ele>
        <time>2020-06-18T07:34:54Z</time>
      </trkpt>
      <trkpt lat="49.75924" lon="0.36106">
        <ele>10</ele>
        <time>2020-06-18T07:34:55Z</time>
      </trkpt>
      <trkpt lat="49.75923" lon="0.36106">
        <ele>10</ele>
        <time>2020-06-18T07:34:56Z</time>
      </trkpt>
      <trkpt lat="49.75922" lon="0.36106">
        <ele>10</ele>
        <time>2020-06-18T07:34:57Z</time>
      </trkpt>
      <trkpt lat="49.7592" lon="0.36106">
        <ele>10</ele>
        <time>2020-06-18T07:34:58Z</time>
      </trkpt>
      <trkpt lat="49.7592" lon="0.36106">
        <ele>10</ele>
        <time>2020-06-18T07:34:59Z</time>
      </trkpt>
      <trkpt lat="49.75918" lon="0.36106">
        <ele>10</ele>
        <time>2020-06-18T07:35:00Z</time>
      </trkpt>
      <trkpt lat="49.75918" lon="0.36105">
        <ele>10</ele>
        <time>2020-06-18T07:35:01Z</time>
      </trkpt>
      <trkpt lat="49.75918" lon="0.36105">
        <ele>10</ele>
        <time>2020-06-18T07:35:02Z</time>
      </trkpt>
      <trkpt lat="49.75918" lon="0.36105">
        <ele>10</ele>
        <time>2020-06-18T07:35:03Z</time>
      </trkpt>
      <trkpt lat="49.75918" lon="0.36105">
        <ele>10</ele>
        <time>2020-06-18T07:35:04Z</time>
      </trkpt>
      <trkpt lat="49.75917" lon="0.36104">
        <ele>10</ele>
        <time>2020-06-18T07:35:05Z</time>
      </trkpt>
      <trkpt lat="49.75917" lon="0.36104">
        <ele>10</ele>
        <time>2020-06-18T07:35:06Z</time>
      </trkpt>
      <trkpt lat="49.75918" lon="0.36105">
        <ele>10</ele>
        <time>2020-06-18T07:35:07Z</time>
      </trkpt>
      <trkpt lat="49.75918" lon="0.36105">
        <ele>10</ele>
        <time>2020-06-18T07:35:08Z</time>
      </trkpt>
      <trkpt lat="49.75917" lon="0.36104">
        <ele>10.1</ele>
        <time>2020-06-18T07:35:09Z</time>
      </trkpt>
      <trkpt lat="49.75919" lon="0.36103">
        <ele>10.1</ele>
        <time>2020-06-18T07:35:10Z</time>
      </trkpt>
      <trkpt lat="49.75918" lon="0.36103">
        <ele>10.1</ele>
        <time>2020-06-18T07:35:11Z</time>
      </trkpt>
      <trkpt lat="49.75917" lon="0.36102">
        <ele>10.1</ele>
        <time>2020-06-18T07:35:12Z</time>
      </trkpt>
      <trkpt lat="49.75918" lon="0.36104">
        <ele>10.1</ele>
        <time>2020-06-18T07:35:13Z</time>
      </trkpt>
      <trkpt lat="49.75918" lon="0.36103">
        <ele>10.1</ele>
        <time>2020-06-18T07:35:14Z</time>
      </trkpt>
      <trkpt lat="49.75918" lon="0.36103">
        <ele>10.1</ele>
        <time>2020-06-18T07:35:15Z</time>
      </trkpt>
      <trkpt lat="49.75918" lon="0.36103">
        <ele>10.1</ele>
        <time>2020-06-18T07:35:16Z</time>
      </trkpt>
      <trkpt lat="49.75917" lon="0.36103">
        <ele>10.1</ele>
        <time>2020-06-18T07:35:17Z</time>
      </trkpt>
      <trkpt lat="49.75917" lon="0.36102">
        <ele>10.1</ele>
        <time>2020-06-18T07:35:18Z</time>
      </trkpt>
      <trkpt lat="49.75917" lon="0.36102">
        <ele>10.1</ele>
        <time>2020-06-18T07:35:19Z</time>
      </trkpt>
      <trkpt lat="49.75917" lon="0.36101">
        <ele>10.1</ele>
        <time>2020-06-18T07:35:20Z</time>
      </trkpt>
      <trkpt lat="49.75917" lon="0.36102">
        <ele>10.1</ele>
        <time>2020-06-18T07:35:21Z</time>
      </trkpt>
      <trkpt lat="49.75917" lon="0.36102">
        <ele>10.1</ele>
        <time>2020-06-18T07:35:22Z</time>
      </trkpt>
      <trkpt lat="49.75917" lon="0.36102">
        <ele>10.1</ele>
        <time>2020-06-18T07:35:23Z</time>
      </trkpt>
      <trkpt lat="49.75912" lon="0.36097">
        <ele>10.1</ele>
        <time>2020-06-18T07:35:58Z</time>
      </trkpt>
      <trkpt lat="49.75911" lon="0.36096">
        <ele>10.1</ele>
        <time>2020-06-18T07:35:59Z</time>
      </trkpt>
      <trkpt lat="49.7591" lon="0.36096">
        <ele>10.1</ele>
        <time>2020-06-18T07:36:00Z</time>
      </trkpt>
      <trkpt lat="49.75909" lon="0.36095">
        <ele>10.1</ele>
        <time>2020-06-18T07:36:01Z</time>
      </trkpt>
      <trkpt lat="49.75908" lon="0.36094">
        <ele>10.1</ele>
        <time>2020-06-18T07:36:02Z</time>
      </trkpt>
      <trkpt lat="49.75907" lon="0.36094">
        <ele>10.1</ele>
        <time>2020-06-18T07:36:03Z</time>
      </trkpt>
      <trkpt lat="49.75906" lon="0.36094">
        <ele>10.1</ele>
        <time>2020-06-18T07:36:04Z</time>
      </trkpt>
      <trkpt lat="49.75906" lon="0.36092">
        <ele>10.1</ele>
        <time>2020-06-18T07:36:05Z</time>
      </trkpt>
      <trkpt lat="49.75906" lon="0.36092">
        <ele>10.1</ele>
        <time>2020-06-18T07:36:06Z</time>
      </trkpt>
      <trkpt lat="49.75905" lon="0.36091">
        <ele>10.2</ele>
        <time>2020-06-18T07:36:07Z</time>
      </trkpt>
      <trkpt lat="49.75905" lon="0.3609">
        <ele>10.2</ele>
        <time>2020-06-18T07:36:08Z</time>
      </trkpt>
      <trkpt lat="49.75905" lon="0.36089">
        <ele>10.2</ele>
        <time>2020-06-18T07:36:09Z</time>
      </trkpt>
      <trkpt lat="49.75904" lon="0.36088">
        <ele>10.2</ele>
        <time>2020-06-18T07:36:10Z</time>
      </trkpt>
      <trkpt lat="49.75903" lon="0.36087">
        <ele>10.2</ele>
        <time>2020-06-18T07:36:11Z</time>
      </trkpt>
      <trkpt lat="49.75902" lon="0.36087">
        <ele>10.2</ele>
        <time>2020-06-18T07:36:12Z</time>
      </trkpt>
      <trkpt lat="49.75902" lon="0.36086">
        <ele>10.2</ele>
        <time>2020-06-18T07:36:13Z</time>
      </trkpt>
      <trkpt lat="49.75902" lon="0.36087">
        <ele>10.2</ele>
        <time>2020-06-18T07:36:14Z</time>
      </trkpt>
      <trkpt lat="49.75902" lon="0.36087">
        <ele>10.2</ele>
        <time>2020-06-18T07:36:15Z</time>
      </trkpt>
      <trkpt lat="49.75903" lon="0.36089">
        <ele>10.2</ele>
        <time>2020-06-18T07:36:16Z</time>
      </trkpt>
      <trkpt lat="49.75903" lon="0.36089">
        <ele>10.2</ele>
        <time>2020-06-18T07:36:17Z</time>
      </trkpt>
      <trkpt lat="49.75903" lon="0.36089">
        <ele>10.2</ele>
        <time>2020-06-18T07:36:18Z</time>
      </trkpt>
      <trkpt lat="49.75903" lon="0.36089">
        <ele>10.2</ele>
        <time>2020-06-18T07:36:19Z</time>
      </trkpt>
      <trkpt lat="49.75903" lon="0.36089">
        <ele>10.2</ele>
        <time>2020-06-18T07:36:20Z</time>
      </trkpt>
      <trkpt lat="49.75903" lon="0.36089">
        <ele>10.2</ele>
        <time>2020-06-18T07:36:21Z</time>
      </trkpt>
      <trkpt lat="49.75903" lon="0.36089">
        <ele>10.2</ele>
        <time>2020-06-18T07:36:22Z</time>
      </trkpt>
      <trkpt lat="49.75903" lon="0.36089">
        <ele>10.2</ele>
        <time>2020-06-18T07:36:23Z</time>
      </trkpt>
      <trkpt lat="49.75903" lon="0.36093">
        <ele>10.2</ele>
        <time>2020-06-18T07:39:21Z</time>
      </trkpt>
      <trkpt lat="49.75903" lon="0.36093">
        <ele>10.2</ele>
        <time>2020-06-18T07:39:22Z</time>
      </trkpt>
      <trkpt lat="49.75903" lon="0.36094">
        <ele>10.2</ele>
        <time>2020-06-18T07:39:23Z</time>
      </trkpt>
      <trkpt lat="49.75903" lon="0.36094">
        <ele>10.2</ele>
        <time>2020-06-18T07:39:24Z</time>
      </trkpt>
      <trkpt lat="49.75904" lon="0.36093">
        <ele>10.2</ele>
        <time>2020-06-18T07:39:25Z</time>
      </trkpt>
      <trkpt lat="49.75903" lon="0.36094">
        <ele>10.2</ele>
        <time>2020-06-18T07:39:26Z</time>
      </trkpt>
      <trkpt lat="49.75904" lon="0.36094">
        <ele>10.2</ele>
        <time>2020-06-18T07:39:27Z</time>
      </trkpt>
      <trkpt lat="49.75903" lon="0.36093">
        <ele>10.2</ele>
        <time>2020-06-18T07:39:28Z</time>
      </trkpt>
      <trkpt lat="49.75903" lon="0.36093">
        <ele>10.2</ele>
        <time>2020-06-18T07:39:29Z</time>
      </trkpt>
      <trkpt lat="49.75903" lon="0.36093">
        <ele>10.2</ele>
        <time>2020-06-18T07:39:30Z</time>
      </trkpt>
      <trkpt lat="49.75903" lon="0.36092">
        <ele>10.2</ele>
        <time>2020-06-18T07:39:31Z</time>
      </trkpt>
      <trkpt lat="49.75897" lon="0.36099">
        <ele>10.2</ele>
        <time>2020-06-18T07:41:51Z</time>
      </trkpt>
      <trkpt lat="49.75898" lon="0.36098">
        <ele>10.2</ele>
        <time>2020-06-18T07:41:52Z</time>
      </trkpt>
      <trkpt lat="49.75898" lon="0.36098">
        <ele>10.2</ele>
        <time>2020-06-18T07:41:53Z</time>
      </trkpt>
      <trkpt lat="49.75898" lon="0.36098">
        <ele>10.2</ele>
        <time>2020-06-18T07:41:54Z</time>
      </trkpt>
      <trkpt lat="49.75898" lon="0.36098">
        <ele>10.2</ele>
        <time>2020-06-18T07:41:55Z</time>
      </trkpt>
      <trkpt lat="49.75898" lon="0.36098">
        <ele>10.2</ele>
        <time>2020-06-18T07:41:56Z</time>
      </trkpt>
      <trkpt lat="49.75898" lon="0.36098">
        <ele>10.2</ele>
        <time>2020-06-18T07:41:57Z</time>
      </trkpt>
      <trkpt lat="49.75898" lon="0.36098">
        <ele>10.2</ele>
        <time>2020-06-18T07:41:58Z</time>
      </trkpt>
      <trkpt lat="49.75898" lon="0.36098">
        <ele>10.2</ele>
        <time>2020-06-18T07:41:59Z</time>
      </trkpt>
      <trkpt lat="49.75896" lon="0.36097">
        <ele>10.2</ele>
        <time>2020-06-18T07:42:00Z</time>
      </trkpt>
      <trkpt lat="49.75896" lon="0.36097">
        <ele>10.2</ele>
        <time>2020-06-18T07:42:01Z</time>
      </trkpt>
      <trkpt lat="49.75901" lon="0.36089">
        <ele>10.2</ele>
        <time>2020-06-18T07:47:54Z</time>
      </trkpt>
      <trkpt lat="49.75901" lon="0.36088">
        <ele>10.2</ele>
        <time>2020-06-18T07:47:55Z</time>
      </trkpt>
      <trkpt lat="49.75901" lon="0.36088">
        <ele>10.2</ele>
        <time>2020-06-18T07:47:56Z</time>
      </trkpt>
      <trkpt lat="49.75901" lon="0.36088">
        <ele>10.2</ele>
        <time>2020-06-18T07:47:57Z</time>
      </trkpt>
      <trkpt lat="49.75901" lon="0.36088">
        <ele>10.2</ele>
        <time>2020-06-18T07:47:58Z</time>
      </trkpt>
      <trkpt lat="49.75901" lon="0.36088">
        <ele>10.2</ele>
        <time>2020-06-18T07:47:59Z</time>
      </trkpt>
      <trkpt lat="49.75901" lon="0.36088">
        <ele>10.2</ele>
        <time>2020-06-18T07:48:00Z</time>
      </trkpt>
      <trkpt lat="49.759" lon="0.36088">
        <ele>10.2</ele>
        <time>2020-06-18T07:48:01Z</time>
      </trkpt>
      <trkpt lat="49.75899" lon="0.36089">
        <ele>10.2</ele>
        <time>2020-06-18T07:48:02Z</time>
      </trkpt>
      <trkpt lat="49.75899" lon="0.36089">
        <ele>10.2</ele>
        <time>2020-06-18T07:48:03Z</time>
      </trkpt>
      <trkpt lat="49.75899" lon="0.36089">
        <ele>10.2</ele>
        <time>2020-06-18T07:48:04Z</time>
      </trkpt>
      <trkpt lat="49.75899" lon="0.36089">
        <ele>10.2</ele>
        <time>2020-06-18T07:48:05Z</time>
      </trkpt>
      <trkpt lat="49.75897" lon="0.36099">
        <ele>10.3</ele>
        <time>2020-06-18T07:48:37Z</time>
      </trkpt>
      <trkpt lat="49.75897" lon="0.36099">
        <ele>10.3</ele>
        <time>2020-06-18T07:48:38Z</time>
      </trkpt>
      <trkpt lat="49.75897" lon="0.361">
        <ele>10.3</ele>
        <time>2020-06-18T07:48:39Z</time>
      </trkpt>
      <trkpt lat="49.75897" lon="0.36101">
        <ele>10.3</ele>
        <time>2020-06-18T07:48:40Z</time>
      </trkpt>
      <trkpt lat="49.75897" lon="0.361">
        <ele>10.3</ele>
        <time>2020-06-18T07:48:41Z</time>
      </trkpt>
      <trkpt lat="49.75897" lon="0.36101">
        <ele>10.3</ele>
        <time>2020-06-18T07:48:42Z</time>
      </trkpt>
      <trkpt lat="49.75896" lon="0.36102">
        <ele>10.3</ele>
        <time>2020-06-18T07:48:43Z</time>
      </trkpt>
      <trkpt lat="49.75896" lon="0.36103">
        <ele>10.3</ele>
        <time>2020-06-18T07:48:44Z</time>
      </trkpt>
      <trkpt lat="49.75895" lon="0.36102">
        <ele>10.3</ele>
        <time>2020-06-18T07:48:45Z</time>
      </trkpt>
      <trkpt lat="49.75895" lon="0.36102">
        <ele>10.3</ele>
        <time>2020-06-18T07:48:46Z</time>
      </trkpt>
      <trkpt lat="49.75895" lon="0.36102">
        <ele>10.3</ele>
        <time>2020-06-18T07:48:47Z</time>
      </trkpt>
      <trkpt lat="49.75895" lon="0.36103">
        <ele>10.3</ele>
        <time>2020-06-18T07:48:48Z</time>
      </trkpt>
      <trkpt lat="49.75892" lon="0.36106">
        <ele>10.3</ele>
        <time>2020-06-18T07:48:56Z</time>
      </trkpt>
      <trkpt lat="49.75891" lon="0.36108">
        <ele>10.3</ele>
        <time>2020-06-18T07:48:57Z</time>
      </trkpt>
      <trkpt lat="49.75891" lon="0.36109">
        <ele>10.3</ele>
        <time>2020-06-18T07:48:58Z</time>
      </trkpt>
      <trkpt lat="49.75892" lon="0.36111">
        <ele>10.3</ele>
        <time>2020-06-18T07:48:59Z</time>
      </trkpt>
      <trkpt lat="49.75893" lon="0.36113">
        <ele>10.3</ele>
        <time>2020-06-18T07:49:00Z</time>
      </trkpt>
      <trkpt lat="49.75893" lon="0.36114">
        <ele>10.3</ele>
        <time>2020-06-18T07:49:01Z</time>
      </trkpt>
      <trkpt lat="49.75892" lon="0.36114">
        <ele>10.3</ele>
        <time>2020-06-18T07:49:02Z</time>
      </trkpt>
      <trkpt lat="49.75892" lon="0.36115">
        <ele>10.3</ele>
        <time>2020-06-18T07:49:03Z</time>
      </trkpt>
      <trkpt lat="49.75892" lon="0.36115">
        <ele>10.3</ele>
        <time>2020-06-18T07:49:04Z</time>
      </trkpt>
      <trkpt lat="49.75891" lon="0.36114">
        <ele>10.3</ele>
        <time>2020-06-18T07:49:05Z</time>
      </trkpt>
      <trkpt lat="49.75891" lon="0.36114">
        <ele>10.3</ele>
        <time>2020-06-18T07:49:06Z</time>
      </trkpt>
      <trkpt lat="49.75891" lon="0.36114">
        <ele>10.3</ele>
        <time>2020-06-18T07:49:07Z</time>
      </trkpt>
      <trkpt lat="49.75891" lon="0.36114">
        <ele>10.3</ele>
        <time>2020-06-18T07:49:08Z</time>
      </trkpt>
      <trkpt lat="49.75892" lon="0.36114">
        <ele>10.3</ele>
        <time>2020-06-18T07:49:09Z</time>
      </trkpt>
      <trkpt lat="49.75893" lon="0.36114">
        <ele>10.3</ele>
        <time>2020-06-18T07:49:10Z</time>
      </trkpt>
      <trkpt lat="49.75894" lon="0.36113">
        <ele>10.3</ele>
        <time>2020-06-18T07:49:11Z</time>
      </trkpt>
      <trkpt lat="49.75894" lon="0.36114">
        <ele>10.3</ele>
        <time>2020-06-18T07:49:12Z</time>
      </trkpt>
      <trkpt lat="49.75894" lon="0.36114">
        <ele>10.3</ele>
        <time>2020-06-18T07:49:13Z</time>
      </trkpt>
      <trkpt lat="49.75894" lon="0.36114">
        <ele>10.3</ele>
        <time>2020-06-18T07:49:14Z</time>
      </trkpt>
      <trkpt lat="49.75894" lon="0.36113">
        <ele>10.3</ele>
        <time>2020-06-18T07:49:15Z</time>
      </trkpt>
      <trkpt lat="49.75894" lon="0.36113">
        <ele>10.3</ele>
        <time>2020-06-18T07:49:16Z</time>
      </trkpt>
      <trkpt lat="49.75894" lon="0.36113">
        <ele>10.3</ele>
        <time>2020-06-18T07:49:17Z</time>
      </trkpt>
      <trkpt lat="49.75893" lon="0.36111">
        <ele>10.3</ele>
        <time>2020-06-18T07:49:18Z</time>
      </trkpt>
      <trkpt lat="49.75886" lon="0.36117">
        <ele>10.3</ele>
        <time>2020-06-18T08:03:07Z</time>
      </trkpt>
      <trkpt lat="49.75885" lon="0.36117">
        <ele>10.3</ele>
        <time>2020-06-18T08:03:08Z</time>
      </trkpt>
      <trkpt lat="49.75884" lon="0.36118">
        <ele>10.3</ele>
        <time>2020-06-18T08:03:09Z</time>
      </trkpt>
      <trkpt lat="49.75884" lon="0.36118">
        <ele>10.3</ele>
        <time>2020-06-18T08:03:10Z</time>
      </trkpt>
      <trkpt lat="49.75885" lon="0.36117">
        <ele>10.3</ele>
        <time>2020-06-18T08:03:11Z</time>
      </trkpt>
      <trkpt lat="49.75884" lon="0.36119">
        <ele>10.3</ele>
        <time>2020-06-18T08:03:12Z</time>
      </trkpt>
      <trkpt lat="49.75884" lon="0.36121">
        <ele>10.3</ele>
        <time>2020-06-18T08:03:13Z</time>
      </trkpt>
      <trkpt lat="49.75884" lon="0.36122">
        <ele>10.3</ele>
        <time>2020-06-18T08:03:14Z</time>
      </trkpt>
      <trkpt lat="49.75884" lon="0.36123">
        <ele>10.3</ele>
        <time>2020-06-18T08:03:15Z</time>
      </trkpt>
      <trkpt lat="49.75884" lon="0.36123">
        <ele>10.3</ele>
        <time>2020-06-18T08:03:16Z</time>
      </trkpt>
      <trkpt lat="49.75884" lon="0.36123">
        <ele>10.3</ele>
        <time>2020-06-18T08:03:17Z</time>
      </trkpt>
      <trkpt lat="49.75884" lon="0.36123">
        <ele>10.3</ele>
        <time>2020-06-18T08:03:18Z</time>
      </trkpt>
      <trkpt lat="49.75884" lon="0.36123">
        <ele>10.3</ele>
        <time>2020-06-18T08:03:19Z</time>
      </trkpt>
      <trkpt lat="49.75884" lon="0.36123">
        <ele>10.3</ele>
        <time>2020-06-18T08:03:20Z</time>
      </trkpt>
      <trkpt lat="49.75884" lon="0.36123">
        <ele>10.3</ele>
        <time>2020-06-18T08:03:21Z</time>
      </trkpt>
      <trkpt lat="49.75884" lon="0.36123">
        <ele>10.3</ele>
        <time>2020-06-18T08:03:22Z</time>
      </trkpt>
      <trkpt lat="49.75884" lon="0.36123">
        <ele>10.3</ele>
        <time>2020-06-18T08:03:23Z</time>
      </trkpt>
      <trkpt lat="49.75884" lon="0.36123">
        <ele>10.3</ele>
        <time>2020-06-18T08:03:24Z</time>
      </trkpt>
      <trkpt lat="49.75884" lon="0.36123">
        <ele>10.3</ele>
        <time>2020-06-18T08:03:25Z</time>
      </trkpt>
      <trkpt lat="49.75895" lon="0.36108">
        <ele>10.2</ele>
        <time>2020-06-18T08:07:39Z</time>
      </trkpt>
      <trkpt lat="49.75897" lon="0.36112">
        <ele>10.2</ele>
        <time>2020-06-18T08:07:40Z</time>
      </trkpt>
      <trkpt lat="49.759" lon="0.36116">
        <ele>10.2</ele>
        <time>2020-06-18T08:07:41Z</time>
      </trkpt>
      <trkpt lat="49.75901" lon="0.36117">
        <ele>10.2</ele>
        <time>2020-06-18T08:07:42Z</time>
      </trkpt>
      <trkpt lat="49.75905" lon="0.36118">
        <ele>10.2</ele>
        <time>2020-06-18T08:07:43Z</time>
      </trkpt>
      <trkpt lat="49.75905" lon="0.36119">
        <ele>10.2</ele>
        <time>2020-06-18T08:07:44Z</time>
      </trkpt>
      <trkpt lat="49.75907" lon="0.36121">
        <ele>10</ele>
        <time>2020-06-18T08:07:45Z</time>
      </trkpt>
      <trkpt lat="49.75907" lon="0.36123">
        <ele>10</ele>
        <time>2020-06-18T08:07:46Z</time>
      </trkpt>
      <trkpt lat="49.75908" lon="0.36127">
        <ele>10</ele>
        <time>2020-06-18T08:07:47Z</time>
      </trkpt>
      <trkpt lat="49.75908" lon="0.36129">
        <ele>10</ele>
        <time>2020-06-18T08:07:48Z</time>
      </trkpt>
      <trkpt lat="49.75908" lon="0.36131">
        <ele>10</ele>
        <time>2020-06-18T08:07:49Z</time>
      </trkpt>
      <trkpt lat="49.75907" lon="0.36134">
        <ele>9.9</ele>
        <time>2020-06-18T08:07:50Z</time>
      </trkpt>
      <trkpt lat="49.75906" lon="0.36139">
        <ele>9.9</ele>
        <time>2020-06-18T08:07:51Z</time>
      </trkpt>
      <trkpt lat="49.75905" lon="0.36141">
        <ele>9.9</ele>
        <time>2020-06-18T08:07:52Z</time>
      </trkpt>
      <trkpt lat="49.75904" lon="0.36148">
        <ele>9.9</ele>
        <time>2020-06-18T08:07:53Z</time>
      </trkpt>
      <trkpt lat="49.75904" lon="0.3615">
        <ele>9.9</ele>
        <time>2020-06-18T08:07:54Z</time>
      </trkpt>
      <trkpt lat="49.75903" lon="0.36152">
        <ele>9.9</ele>
        <time>2020-06-18T08:07:55Z</time>
      </trkpt>
      <trkpt lat="49.75902" lon="0.36154">
        <ele>9.9</ele>
        <time>2020-06-18T08:07:56Z</time>
      </trkpt>
      <trkpt lat="49.75901" lon="0.36156">
        <ele>9.9</ele>
        <time>2020-06-18T08:07:57Z</time>
      </trkpt>
      <trkpt lat="49.759" lon="0.36157">
        <ele>9.9</ele>
        <time>2020-06-18T08:07:58Z</time>
      </trkpt>
      <trkpt lat="49.75899" lon="0.36158">
        <ele>9.9</ele>
        <time>2020-06-18T08:07:59Z</time>
      </trkpt>
      <trkpt lat="49.75897" lon="0.36162">
        <ele>10</ele>
        <time>2020-06-18T08:08:00Z</time>
      </trkpt>
      <trkpt lat="49.75897" lon="0.36163">
        <ele>10</ele>
        <time>2020-06-18T08:08:01Z</time>
      </trkpt>
      <trkpt lat="49.75897" lon="0.36166">
        <ele>10</ele>
        <time>2020-06-18T08:08:02Z</time>
      </trkpt>
      <trkpt lat="49.75897" lon="0.36168">
        <ele>10</ele>
        <time>2020-06-18T08:08:03Z</time>
      </trkpt>
      <trkpt lat="49.75896" lon="0.36172">
        <ele>10.1</ele>
        <time>2020-06-18T08:08:04Z</time>
      </trkpt>
      <trkpt lat="49.75896" lon="0.36173">
        <ele>10.1</ele>
        <time>2020-06-18T08:08:05Z</time>
      </trkpt>
      <trkpt lat="49.75896" lon="0.36175">
        <ele>10.1</ele>
        <time>2020-06-18T08:08:06Z</time>
      </trkpt>
      <trkpt lat="49.75896" lon="0.36177">
        <ele>10.1</ele>
        <time>2020-06-18T08:08:07Z</time>
      </trkpt>
      <trkpt lat="49.75897" lon="0.36179">
        <ele>10.1</ele>
        <time>2020-06-18T08:08:08Z</time>
      </trkpt>
      <trkpt lat="49.75899" lon="0.36183">
        <ele>10.2</ele>
        <time>2020-06-18T08:08:09Z</time>
      </trkpt>
      <trkpt lat="49.759" lon="0.36185">
        <ele>10.2</ele>
        <time>2020-06-18T08:08:10Z</time>
      </trkpt>
      <trkpt lat="49.75901" lon="0.36189">
        <ele>10.2</ele>
        <time>2020-06-18T08:08:11Z</time>
      </trkpt>
      <trkpt lat="49.75903" lon="0.36192">
        <ele>10.2</ele>
        <time>2020-06-18T08:08:12Z</time>
      </trkpt>
      <trkpt lat="49.75905" lon="0.36197">
        <ele>10.2</ele>
        <time>2020-06-18T08:08:13Z</time>
      </trkpt>
      <trkpt lat="49.75907" lon="0.36201">
        <ele>10.2</ele>
        <time>2020-06-18T08:08:14Z</time>
      </trkpt>
      <trkpt lat="49.75908" lon="0.36204">
        <ele>10.2</ele>
        <time>2020-06-18T08:08:15Z</time>
      </trkpt>
      <trkpt lat="49.75911" lon="0.3621">
        <ele>10.2</ele>
        <time>2020-06-18T08:08:16Z</time>
      </trkpt>
      <trkpt lat="49.75913" lon="0.36211">
        <ele>10.2</ele>
        <time>2020-06-18T08:08:17Z</time>
      </trkpt>
      <trkpt lat="49.75916" lon="0.3622">
        <ele>10.2</ele>
        <time>2020-06-18T08:08:18Z</time>
      </trkpt>
      <trkpt lat="49.75917" lon="0.36224">
        <ele>10.2</ele>
        <time>2020-06-18T08:08:19Z</time>
      </trkpt>
      <trkpt lat="49.75916" lon="0.3623">
        <ele>10.5</ele>
        <time>2020-06-18T08:08:20Z</time>
      </trkpt>
      <trkpt lat="49.75915" lon="0.36232">
        <ele>10.5</ele>
        <time>2020-06-18T08:08:21Z</time>
      </trkpt>
      <trkpt lat="49.75913" lon="0.36237">
        <ele>10.7</ele>
        <time>2020-06-18T08:08:22Z</time>
      </trkpt>
      <trkpt lat="49.75912" lon="0.36242">
        <ele>10.8</ele>
        <time>2020-06-18T08:08:23Z</time>
      </trkpt>
      <trkpt lat="49.75911" lon="0.36248">
        <ele>11</ele>
        <time>2020-06-18T08:08:24Z</time>
      </trkpt>
      <trkpt lat="49.75909" lon="0.36253">
        <ele>11.1</ele>
        <time>2020-06-18T08:08:25Z</time>
      </trkpt>
      <trkpt lat="49.75908" lon="0.36259">
        <ele>11.2</ele>
        <time>2020-06-18T08:08:26Z</time>
      </trkpt>
      <trkpt lat="49.75907" lon="0.36265">
        <ele>11.4</ele>
        <time>2020-06-18T08:08:27Z</time>
      </trkpt>
      <trkpt lat="49.75906" lon="0.36269">
        <ele>11.5</ele>
        <time>2020-06-18T08:08:28Z</time>
      </trkpt>
      <trkpt lat="49.75905" lon="0.36274">
        <ele>11.7</ele>
        <time>2020-06-18T08:08:29Z</time>
      </trkpt>
      <trkpt lat="49.75904" lon="0.36279">
        <ele>12</ele>
        <time>2020-06-18T08:08:30Z</time>
      </trkpt>
      <trkpt lat="49.75902" lon="0.36285">
        <ele>12.1</ele>
        <time>2020-06-18T08:08:31Z</time>
      </trkpt>
      <trkpt lat="49.75902" lon="0.36291">
        <ele>12.2</ele>
        <time>2020-06-18T08:08:32Z</time>
      </trkpt>
      <trkpt lat="49.75902" lon="0.36297">
        <ele>12.3</ele>
        <time>2020-06-18T08:08:33Z</time>
      </trkpt>
      <trkpt lat="49.75901" lon="0.36302">
        <ele>12.4</ele>
        <time>2020-06-18T08:08:34Z</time>
      </trkpt>
      <trkpt lat="49.75899" lon="0.36308">
        <ele>12.5</ele>
        <time>2020-06-18T08:08:35Z</time>
      </trkpt>
      <trkpt lat="49.75897" lon="0.36313">
        <ele>12.6</ele>
        <time>2020-06-18T08:08:36Z</time>
      </trkpt>
      <trkpt lat="49.75894" lon="0.36319">
        <ele>12.7</ele>
        <time>2020-06-18T08:08:37Z</time>
      </trkpt>
      <trkpt lat="49.75892" lon="0.36327">
        <ele>12.8</ele>
        <time>2020-06-18T08:08:38Z</time>
      </trkpt>
      <trkpt lat="49.7589" lon="0.36333">
        <ele>13</ele>
        <time>2020-06-18T08:08:39Z</time>
      </trkpt>
      <trkpt lat="49.75887" lon="0.36339">
        <ele>13.1</ele>
        <time>2020-06-18T08:08:40Z</time>
      </trkpt>
      <trkpt lat="49.75885" lon="0.36345">
        <ele>13.2</ele>
        <time>2020-06-18T08:08:41Z</time>
      </trkpt>
      <trkpt lat="49.75884" lon="0.3635">
        <ele>13.3</ele>
        <time>2020-06-18T08:08:42Z</time>
      </trkpt>
      <trkpt lat="49.75882" lon="0.36356">
        <ele>13.3</ele>
        <time>2020-06-18T08:08:43Z</time>
      </trkpt>
      <trkpt lat="49.75881" lon="0.36362">
        <ele>13.4</ele>
        <time>2020-06-18T08:08:44Z</time>
      </trkpt>
      <trkpt lat="49.75879" lon="0.36367">
        <ele>13.4</ele>
        <time>2020-06-18T08:08:45Z</time>
      </trkpt>
      <trkpt lat="49.75878" lon="0.36373">
        <ele>13.5</ele>
        <time>2020-06-18T08:08:46Z</time>
      </trkpt>
      <trkpt lat="49.75876" lon="0.36377">
        <ele>13.7</ele>
        <time>2020-06-18T08:08:47Z</time>
      </trkpt>
      <trkpt lat="49.75874" lon="0.36382">
        <ele>13.8</ele>
        <time>2020-06-18T08:08:48Z</time>
      </trkpt>
      <trkpt lat="49.75872" lon="0.36388">
        <ele>14</ele>
        <time>2020-06-18T08:08:49Z</time>
      </trkpt>
      <trkpt lat="49.7587" lon="0.36394">
        <ele>14.2</ele>
        <time>2020-06-18T08:08:50Z</time>
      </trkpt>
      <trkpt lat="49.75868" lon="0.36399">
        <ele>14.4</ele>
        <time>2020-06-18T08:08:51Z</time>
      </trkpt>
      <trkpt lat="49.75867" lon="0.36403">
        <ele>14.5</ele>
        <time>2020-06-18T08:08:52Z</time>
      </trkpt>
      <trkpt lat="49.75866" lon="0.36408">
        <ele>14.6</ele>
        <time>2020-06-18T08:08:53Z</time>
      </trkpt>
      <trkpt lat="49.75865" lon="0.36414">
        <ele>14.8</ele>
        <time>2020-06-18T08:08:54Z</time>
      </trkpt>
      <trkpt lat="49.75865" lon="0.36416">
        <ele>14.9</ele>
        <time>2020-06-18T08:08:55Z</time>
      </trkpt>
      <trkpt lat="49.75864" lon="0.36421">
        <ele>15</ele>
        <time>2020-06-18T08:08:56Z</time>
      </trkpt>
      <trkpt lat="49.75864" lon="0.36425">
        <ele>15.2</ele>
        <time>2020-06-18T08:08:57Z</time>
      </trkpt>
      <trkpt lat="49.75864" lon="0.36429">
        <ele>15.3</ele>
        <time>2020-06-18T08:08:58Z</time>
      </trkpt>
      <trkpt lat="49.75864" lon="0.36434">
        <ele>15.5</ele>
        <time>2020-06-18T08:08:59Z</time>
      </trkpt>
      <trkpt lat="49.75864" lon="0.36436">
        <ele>15.5</ele>
        <time>2020-06-18T08:09:00Z</time>
      </trkpt>
      <trkpt lat="49.75864" lon="0.36437">
        <ele>15.5</ele>
        <time>2020-06-18T08:09:01Z</time>
      </trkpt>
      <trkpt lat="49.75865" lon="0.36439">
        <ele>15.6</ele>
        <time>2020-06-18T08:09:02Z</time>
      </trkpt>
      <trkpt lat="49.75865" lon="0.36441">
        <ele>15.7</ele>
        <time>2020-06-18T08:09:03Z</time>
      </trkpt>
      <trkpt lat="49.75866" lon="0.36442">
        <ele>15.7</ele>
        <time>2020-06-18T08:09:04Z</time>
      </trkpt>
      <trkpt lat="49.75866" lon="0.36443">
        <ele>15.8</ele>
        <time>2020-06-18T08:09:05Z</time>
      </trkpt>
      <trkpt lat="49.75865" lon="0.36444">
        <ele>15.8</ele>
        <time>2020-06-18T08:09:06Z</time>
      </trkpt>
      <trkpt lat="49.75866" lon="0.36445">
        <ele>15.8</ele>
        <time>2020-06-18T08:09:07Z</time>
      </trkpt>
      <trkpt lat="49.75866" lon="0.36447">
        <ele>15.9</ele>
        <time>2020-06-18T08:09:08Z</time>
      </trkpt>
      <trkpt lat="49.75865" lon="0.36449">
        <ele>15.9</ele>
        <time>2020-06-18T08:09:09Z</time>
      </trkpt>
      <trkpt lat="49.75865" lon="0.36452">
        <ele>16</ele>
        <time>2020-06-18T08:09:10Z</time>
      </trkpt>
      <trkpt lat="49.75864" lon="0.36456">
        <ele>16.2</ele>
        <time>2020-06-18T08:09:11Z</time>
      </trkpt>
      <trkpt lat="49.75863" lon="0.36461">
        <ele>16.2</ele>
        <time>2020-06-18T08:09:12Z</time>
      </trkpt>
      <trkpt lat="49.75863" lon="0.36462">
        <ele>16.2</ele>
        <time>2020-06-18T08:09:13Z</time>
      </trkpt>
      <trkpt lat="49.75861" lon="0.36466">
        <ele>16.2</ele>
        <time>2020-06-18T08:09:14Z</time>
      </trkpt>
      <trkpt lat="49.7586" lon="0.36472">
        <ele>16.2</ele>
        <time>2020-06-18T08:09:15Z</time>
      </trkpt>
      <trkpt lat="49.75858" lon="0.36476">
        <ele>16.3</ele>
        <time>2020-06-18T08:09:16Z</time>
      </trkpt>
      <trkpt lat="49.75857" lon="0.36481">
        <ele>16.3</ele>
        <time>2020-06-18T08:09:17Z</time>
      </trkpt>
      <trkpt lat="49.75856" lon="0.36488">
        <ele>16.3</ele>
        <time>2020-06-18T08:09:18Z</time>
      </trkpt>
      <trkpt lat="49.75856" lon="0.36494">
        <ele>16.3</ele>
        <time>2020-06-18T08:09:19Z</time>
      </trkpt>
      <trkpt lat="49.75855" lon="0.36496">
        <ele>16.3</ele>
        <time>2020-06-18T08:09:20Z</time>
      </trkpt>
      <trkpt lat="49.75855" lon="0.36501">
        <ele>16.3</ele>
        <time>2020-06-18T08:09:21Z</time>
      </trkpt>
      <trkpt lat="49.75855" lon="0.36507">
        <ele>16.3</ele>
        <time>2020-06-18T08:09:22Z</time>
      </trkpt>
      <trkpt lat="49.75854" lon="0.36514">
        <ele>16.4</ele>
        <time>2020-06-18T08:09:23Z</time>
      </trkpt>
      <trkpt lat="49.75853" lon="0.3652">
        <ele>16.5</ele>
        <time>2020-06-18T08:09:24Z</time>
      </trkpt>
      <trkpt lat="49.75853" lon="0.36527">
        <ele>16.6</ele>
        <time>2020-06-18T08:09:25Z</time>
      </trkpt>
      <trkpt lat="49.75851" lon="0.36532">
        <ele>16.7</ele>
        <time>2020-06-18T08:09:26Z</time>
      </trkpt>
      <trkpt lat="49.75849" lon="0.36538">
        <ele>16.8</ele>
        <time>2020-06-18T08:09:27Z</time>
      </trkpt>
      <trkpt lat="49.75848" lon="0.36543">
        <ele>16.8</ele>
        <time>2020-06-18T08:09:28Z</time>
      </trkpt>
      <trkpt lat="49.75847" lon="0.36547">
        <ele>16.9</ele>
        <time>2020-06-18T08:09:29Z</time>
      </trkpt>
      <trkpt lat="49.75846" lon="0.36553">
        <ele>17</ele>
        <time>2020-06-18T08:09:30Z</time>
      </trkpt>
      <trkpt lat="49.75846" lon="0.36555">
        <ele>17</ele>
        <time>2020-06-18T08:09:31Z</time>
      </trkpt>
      <trkpt lat="49.75845" lon="0.3656">
        <ele>17.1</ele>
        <time>2020-06-18T08:09:32Z</time>
      </trkpt>
      <trkpt lat="49.75844" lon="0.36562">
        <ele>17.1</ele>
        <time>2020-06-18T08:09:33Z</time>
      </trkpt>
      <trkpt lat="49.75843" lon="0.36567">
        <ele>17.2</ele>
        <time>2020-06-18T08:09:34Z</time>
      </trkpt>
      <trkpt lat="49.75843" lon="0.36573">
        <ele>17.3</ele>
        <time>2020-06-18T08:09:35Z</time>
      </trkpt>
      <trkpt lat="49.75842" lon="0.36579">
        <ele>17.4</ele>
        <time>2020-06-18T08:09:36Z</time>
      </trkpt>
      <trkpt lat="49.75842" lon="0.36586">
        <ele>17.5</ele>
        <time>2020-06-18T08:09:37Z</time>
      </trkpt>
      <trkpt lat="49.75841" lon="0.36593">
        <ele>17.5</ele>
        <time>2020-06-18T08:09:38Z</time>
      </trkpt>
      <trkpt lat="49.7584" lon="0.36599">
        <ele>17.6</ele>
        <time>2020-06-18T08:09:39Z</time>
      </trkpt>
      <trkpt lat="49.75839" lon="0.36605">
        <ele>17.7</ele>
        <time>2020-06-18T08:09:40Z</time>
      </trkpt>
      <trkpt lat="49.75839" lon="0.36611">
        <ele>17.7</ele>
        <time>2020-06-18T08:09:41Z</time>
      </trkpt>
      <trkpt lat="49.75838" lon="0.36617">
        <ele>17.8</ele>
        <time>2020-06-18T08:09:42Z</time>
      </trkpt>
      <trkpt lat="49.75836" lon="0.36623">
        <ele>17.9</ele>
        <time>2020-06-18T08:09:43Z</time>
      </trkpt>
      <trkpt lat="49.75835" lon="0.36629">
        <ele>17.9</ele>
        <time>2020-06-18T08:09:44Z</time>
      </trkpt>
      <trkpt lat="49.75834" lon="0.36636">
        <ele>18</ele>
        <time>2020-06-18T08:09:45Z</time>
      </trkpt>
      <trkpt lat="49.75832" lon="0.36642">
        <ele>18</ele>
        <time>2020-06-18T08:09:46Z</time>
      </trkpt>
      <trkpt lat="49.75831" lon="0.36649">
        <ele>18</ele>
        <time>2020-06-18T08:09:47Z</time>
      </trkpt>
      <trkpt lat="49.7583" lon="0.36657">
        <ele>18</ele>
        <time>2020-06-18T08:09:48Z</time>
      </trkpt>
      <trkpt lat="49.7583" lon="0.36665">
        <ele>18.1</ele>
        <time>2020-06-18T08:09:49Z</time>
      </trkpt>
      <trkpt lat="49.75827" lon="0.36671">
        <ele>18.1</ele>
        <time>2020-06-18T08:09:50Z</time>
      </trkpt>
      <trkpt lat="49.75826" lon="0.36677">
        <ele>18.1</ele>
        <time>2020-06-18T08:09:51Z</time>
      </trkpt>
      <trkpt lat="49.75824" lon="0.36683">
        <ele>18.2</ele>
        <time>2020-06-18T08:09:52Z</time>
      </trkpt>
      <trkpt lat="49.75823" lon="0.36689">
        <ele>18.2</ele>
        <time>2020-06-18T08:09:53Z</time>
      </trkpt>
      <trkpt lat="49.75822" lon="0.36694">
        <ele>18.2</ele>
        <time>2020-06-18T08:09:54Z</time>
      </trkpt>
      <trkpt lat="49.75822" lon="0.36701">
        <ele>18.2</ele>
        <time>2020-06-18T08:09:55Z</time>
      </trkpt>
      <trkpt lat="49.75823" lon="0.36707">
        <ele>18.2</ele>
        <time>2020-06-18T08:09:56Z</time>
      </trkpt>
      <trkpt lat="49.75823" lon="0.36712">
        <ele>18.2</ele>
        <time>2020-06-18T08:09:57Z</time>
      </trkpt>
      <trkpt lat="49.75823" lon="0.36717">
        <ele>18.2</ele>
        <time>2020-06-18T08:09:58Z</time>
      </trkpt>
      <trkpt lat="49.75823" lon="0.36724">
        <ele>18.2</ele>
        <time>2020-06-18T08:09:59Z</time>
      </trkpt>
      <trkpt lat="49.75822" lon="0.36731">
        <ele>18.2</ele>
        <time>2020-06-18T08:10:00Z</time>
      </trkpt>
      <trkpt lat="49.75822" lon="0.36738">
        <ele>18.2</ele>
        <time>2020-06-18T08:10:01Z</time>
      </trkpt>
      <trkpt lat="49.75822" lon="0.36744">
        <ele>18.2</ele>
        <time>2020-06-18T08:10:02Z</time>
      </trkpt>
      <trkpt lat="49.75822" lon="0.36751">
        <ele>18.2</ele>
        <time>2020-06-18T08:10:03Z</time>
      </trkpt>
      <trkpt lat="49.75821" lon="0.36758">
        <ele>18.2</ele>
        <time>2020-06-18T08:10:04Z</time>
      </trkpt>
      <trkpt lat="49.7582" lon="0.36764">
        <ele>18.2</ele>
        <time>2020-06-18T08:10:05Z</time>
      </trkpt>
      <trkpt lat="49.7582" lon="0.36771">
        <ele>18.2</ele>
        <time>2020-06-18T08:10:06Z</time>
      </trkpt>
      <trkpt lat="49.7582" lon="0.36777">
        <ele>18.2</ele>
        <time>2020-06-18T08:10:07Z</time>
      </trkpt>
      <trkpt lat="49.7582" lon="0.36784">
        <ele>18.1</ele>
        <time>2020-06-18T08:10:08Z</time>
      </trkpt>
      <trkpt lat="49.75819" lon="0.3679">
        <ele>18.2</ele>
        <time>2020-06-18T08:10:09Z</time>
      </trkpt>
      <trkpt lat="49.7582" lon="0.36795">
        <ele>18.2</ele>
        <time>2020-06-18T08:10:10Z</time>
      </trkpt>
      <trkpt lat="49.7582" lon="0.36801">
        <ele>18.2</ele>
        <time>2020-06-18T08:10:11Z</time>
      </trkpt>
      <trkpt lat="49.7582" lon="0.36806">
        <ele>18.2</ele>
        <time>2020-06-18T08:10:12Z</time>
      </trkpt>
      <trkpt lat="49.7582" lon="0.36811">
        <ele>18.2</ele>
        <time>2020-06-18T08:10:13Z</time>
      </trkpt>
      <trkpt lat="49.75819" lon="0.36815">
        <ele>18.2</ele>
        <time>2020-06-18T08:10:14Z</time>
      </trkpt>
      <trkpt lat="49.75817" lon="0.36819">
        <ele>18.2</ele>
        <time>2020-06-18T08:10:15Z</time>
      </trkpt>
      <trkpt lat="49.75817" lon="0.36823">
        <ele>18.3</ele>
        <time>2020-06-18T08:10:16Z</time>
      </trkpt>
      <trkpt lat="49.75816" lon="0.36828">
        <ele>18.3</ele>
        <time>2020-06-18T08:10:17Z</time>
      </trkpt>
      <trkpt lat="49.75815" lon="0.36833">
        <ele>18.3</ele>
        <time>2020-06-18T08:10:18Z</time>
      </trkpt>
      <trkpt lat="49.75813" lon="0.36839">
        <ele>18.3</ele>
        <time>2020-06-18T08:10:19Z</time>
      </trkpt>
      <trkpt lat="49.75811" lon="0.36845">
        <ele>18.3</ele>
        <time>2020-06-18T08:10:20Z</time>
      </trkpt>
      <trkpt lat="49.75809" lon="0.36852">
        <ele>18.3</ele>
        <time>2020-06-18T08:10:21Z</time>
      </trkpt>
      <trkpt lat="49.75807" lon="0.36857">
        <ele>18.3</ele>
        <time>2020-06-18T08:10:22Z</time>
      </trkpt>
      <trkpt lat="49.75805" lon="0.36864">
        <ele>18.3</ele>
        <time>2020-06-18T08:10:23Z</time>
      </trkpt>
      <trkpt lat="49.75803" lon="0.3687">
        <ele>18.4</ele>
        <time>2020-06-18T08:10:24Z</time>
      </trkpt>
      <trkpt lat="49.75801" lon="0.36877">
        <ele>18.4</ele>
        <time>2020-06-18T08:10:25Z</time>
      </trkpt>
      <trkpt lat="49.758" lon="0.36882">
        <ele>18.5</ele>
        <time>2020-06-18T08:10:26Z</time>
      </trkpt>
      <trkpt lat="49.75798" lon="0.36888">
        <ele>18.5</ele>
        <time>2020-06-18T08:10:27Z</time>
      </trkpt>
      <trkpt lat="49.75796" lon="0.36894">
        <ele>18.6</ele>
        <time>2020-06-18T08:10:28Z</time>
      </trkpt>
      <trkpt lat="49.75795" lon="0.36902">
        <ele>18.6</ele>
        <time>2020-06-18T08:10:29Z</time>
      </trkpt>
      <trkpt lat="49.75794" lon="0.36908">
        <ele>18.7</ele>
        <time>2020-06-18T08:10:30Z</time>
      </trkpt>
      <trkpt lat="49.75793" lon="0.36913">
        <ele>18.7</ele>
        <time>2020-06-18T08:10:31Z</time>
      </trkpt>
      <trkpt lat="49.75792" lon="0.36919">
        <ele>18.8</ele>
        <time>2020-06-18T08:10:32Z</time>
      </trkpt>
      <trkpt lat="49.75792" lon="0.36926">
        <ele>18.8</ele>
        <time>2020-06-18T08:10:33Z</time>
      </trkpt>
      <trkpt lat="49.75792" lon="0.36932">
        <ele>18.9</ele>
        <time>2020-06-18T08:10:34Z</time>
      </trkpt>
      <trkpt lat="49.75791" lon="0.36938">
        <ele>18.9</ele>
        <time>2020-06-18T08:10:35Z</time>
      </trkpt>
      <trkpt lat="49.7579" lon="0.36946">
        <ele>19</ele>
        <time>2020-06-18T08:10:36Z</time>
      </trkpt>
      <trkpt lat="49.7579" lon="0.36953">
        <ele>19.1</ele>
        <time>2020-06-18T08:10:37Z</time>
      </trkpt>
      <trkpt lat="49.75788" lon="0.36959">
        <ele>19.1</ele>
        <time>2020-06-18T08:10:38Z</time>
      </trkpt>
      <trkpt lat="49.75786" lon="0.36966">
        <ele>19.2</ele>
        <time>2020-06-18T08:10:39Z</time>
      </trkpt>
      <trkpt lat="49.75785" lon="0.36973">
        <ele>19.3</ele>
        <time>2020-06-18T08:10:40Z</time>
      </trkpt>
      <trkpt lat="49.75783" lon="0.36979">
        <ele>19.3</ele>
        <time>2020-06-18T08:10:41Z</time>
      </trkpt>
      <trkpt lat="49.75781" lon="0.36984">
        <ele>19.4</ele>
        <time>2020-06-18T08:10:42Z</time>
      </trkpt>
      <trkpt lat="49.7578" lon="0.36991">
        <ele>19.5</ele>
        <time>2020-06-18T08:10:43Z</time>
      </trkpt>
      <trkpt lat="49.75779" lon="0.36998">
        <ele>19.6</ele>
        <time>2020-06-18T08:10:44Z</time>
      </trkpt>
      <trkpt lat="49.75777" lon="0.37005">
        <ele>19.6</ele>
        <time>2020-06-18T08:10:45Z</time>
      </trkpt>
      <trkpt lat="49.75776" lon="0.37012">
        <ele>19.7</ele>
        <time>2020-06-18T08:10:46Z</time>
      </trkpt>
      <trkpt lat="49.75775" lon="0.37018">
        <ele>19.8</ele>
        <time>2020-06-18T08:10:47Z</time>
      </trkpt>
      <trkpt lat="49.75774" lon="0.37026">
        <ele>19.8</ele>
        <time>2020-06-18T08:10:48Z</time>
      </trkpt>
      <trkpt lat="49.75772" lon="0.37034">
        <ele>19.9</ele>
        <time>2020-06-18T08:10:49Z</time>
      </trkpt>
      <trkpt lat="49.75771" lon="0.3704">
        <ele>19.9</ele>
        <time>2020-06-18T08:10:50Z</time>
      </trkpt>
      <trkpt lat="49.75769" lon="0.37045">
        <ele>19.9</ele>
        <time>2020-06-18T08:10:51Z</time>
      </trkpt>
      <trkpt lat="49.75767" lon="0.37051">
        <ele>19.9</ele>
        <time>2020-06-18T08:10:52Z</time>
      </trkpt>
      <trkpt lat="49.75767" lon="0.37053">
        <ele>19.9</ele>
        <time>2020-06-18T08:10:53Z</time>
      </trkpt>
      <trkpt lat="49.75766" lon="0.37058">
        <ele>20</ele>
        <time>2020-06-18T08:10:54Z</time>
      </trkpt>
      <trkpt lat="49.75765" lon="0.37064">
        <ele>20</ele>
        <time>2020-06-18T08:10:55Z</time>
      </trkpt>
      <trkpt lat="49.75764" lon="0.37071">
        <ele>20.1</ele>
        <time>2020-06-18T08:10:56Z</time>
      </trkpt>
      <trkpt lat="49.75762" lon="0.37078">
        <ele>20.1</ele>
        <time>2020-06-18T08:10:57Z</time>
      </trkpt>
      <trkpt lat="49.75761" lon="0.37086">
        <ele>20.2</ele>
        <time>2020-06-18T08:10:58Z</time>
      </trkpt>
      <trkpt lat="49.75761" lon="0.37092">
        <ele>20.2</ele>
        <time>2020-06-18T08:10:59Z</time>
      </trkpt>
      <trkpt lat="49.75758" lon="0.37098">
        <ele>20.2</ele>
        <time>2020-06-18T08:11:00Z</time>
      </trkpt>
      <trkpt lat="49.75757" lon="0.37105">
        <ele>20.3</ele>
        <time>2020-06-18T08:11:01Z</time>
      </trkpt>
      <trkpt lat="49.75755" lon="0.37112">
        <ele>20.3</ele>
        <time>2020-06-18T08:11:02Z</time>
      </trkpt>
      <trkpt lat="49.75753" lon="0.37118">
        <ele>20.4</ele>
        <time>2020-06-18T08:11:03Z</time>
      </trkpt>
      <trkpt lat="49.75751" lon="0.37126">
        <ele>20.4</ele>
        <time>2020-06-18T08:11:04Z</time>
      </trkpt>
      <trkpt lat="49.75748" lon="0.37132">
        <ele>20.4</ele>
        <time>2020-06-18T08:11:05Z</time>
      </trkpt>
      <trkpt lat="49.75745" lon="0.37139">
        <ele>20.5</ele>
        <time>2020-06-18T08:11:06Z</time>
      </trkpt>
      <trkpt lat="49.75743" lon="0.37146">
        <ele>20.6</ele>
        <time>2020-06-18T08:11:07Z</time>
      </trkpt>
      <trkpt lat="49.75742" lon="0.37154">
        <ele>20.6</ele>
        <time>2020-06-18T08:11:08Z</time>
      </trkpt>
      <trkpt lat="49.7574" lon="0.37163">
        <ele>20.7</ele>
        <time>2020-06-18T08:11:09Z</time>
      </trkpt>
      <trkpt lat="49.75739" lon="0.3717">
        <ele>20.7</ele>
        <time>2020-06-18T08:11:10Z</time>
      </trkpt>
      <trkpt lat="49.75738" lon="0.37176">
        <ele>20.8</ele>
        <time>2020-06-18T08:11:11Z</time>
      </trkpt>
      <trkpt lat="49.75736" lon="0.37182">
        <ele>20.8</ele>
        <time>2020-06-18T08:11:12Z</time>
      </trkpt>
      <trkpt lat="49.75735" lon="0.37188">
        <ele>20.8</ele>
        <time>2020-06-18T08:11:13Z</time>
      </trkpt>
      <trkpt lat="49.75734" lon="0.37195">
        <ele>20.9</ele>
        <time>2020-06-18T08:11:14Z</time>
      </trkpt>
      <trkpt lat="49.75732" lon="0.37201">
        <ele>20.9</ele>
        <time>2020-06-18T08:11:15Z</time>
      </trkpt>
      <trkpt lat="49.75732" lon="0.37207">
        <ele>20.9</ele>
        <time>2020-06-18T08:11:16Z</time>
      </trkpt>
      <trkpt lat="49.75733" lon="0.37215">
        <ele>21</ele>
        <time>2020-06-18T08:11:17Z</time>
      </trkpt>
      <trkpt lat="49.75732" lon="0.37223">
        <ele>21</ele>
        <time>2020-06-18T08:11:18Z</time>
      </trkpt>
      <trkpt lat="49.75731" lon="0.37231">
        <ele>21.1</ele>
        <time>2020-06-18T08:11:19Z</time>
      </trkpt>
      <trkpt lat="49.75728" lon="0.37237">
        <ele>21.1</ele>
        <time>2020-06-18T08:11:20Z</time>
      </trkpt>
      <trkpt lat="49.75727" lon="0.37245">
        <ele>21.2</ele>
        <time>2020-06-18T08:11:21Z</time>
      </trkpt>
      <trkpt lat="49.75723" lon="0.37252">
        <ele>21.2</ele>
        <time>2020-06-18T08:11:22Z</time>
      </trkpt>
      <trkpt lat="49.75722" lon="0.3726">
        <ele>21.3</ele>
        <time>2020-06-18T08:11:23Z</time>
      </trkpt>
      <trkpt lat="49.75721" lon="0.37268">
        <ele>21.3</ele>
        <time>2020-06-18T08:11:24Z</time>
      </trkpt>
      <trkpt lat="49.75719" lon="0.37275">
        <ele>21.4</ele>
        <time>2020-06-18T08:11:25Z</time>
      </trkpt>
      <trkpt lat="49.75716" lon="0.37281">
        <ele>21.4</ele>
        <time>2020-06-18T08:11:26Z</time>
      </trkpt>
      <trkpt lat="49.75713" lon="0.37288">
        <ele>21.4</ele>
        <time>2020-06-18T08:11:27Z</time>
      </trkpt>
      <trkpt lat="49.7571" lon="0.37295">
        <ele>21.4</ele>
        <time>2020-06-18T08:11:28Z</time>
      </trkpt>
      <trkpt lat="49.75708" lon="0.373">
        <ele>21.4</ele>
        <time>2020-06-18T08:11:29Z</time>
      </trkpt>
      <trkpt lat="49.75705" lon="0.37305">
        <ele>21.4</ele>
        <time>2020-06-18T08:11:30Z</time>
      </trkpt>
      <trkpt lat="49.75703" lon="0.3731">
        <ele>21.4</ele>
        <time>2020-06-18T08:11:31Z</time>
      </trkpt>
      <trkpt lat="49.75702" lon="0.37317">
        <ele>21.4</ele>
        <time>2020-06-18T08:11:32Z</time>
      </trkpt>
      <trkpt lat="49.75702" lon="0.37323">
        <ele>21.4</ele>
        <time>2020-06-18T08:11:33Z</time>
      </trkpt>
      <trkpt lat="49.757" lon="0.37329">
        <ele>21.4</ele>
        <time>2020-06-18T08:11:34Z</time>
      </trkpt>
      <trkpt lat="49.757" lon="0.37335">
        <ele>21.4</ele>
        <time>2020-06-18T08:11:35Z</time>
      </trkpt>
      <trkpt lat="49.75699" lon="0.37342">
        <ele>21.4</ele>
        <time>2020-06-18T08:11:36Z</time>
      </trkpt>
      <trkpt lat="49.75698" lon="0.37349">
        <ele>21.5</ele>
        <time>2020-06-18T08:11:37Z</time>
      </trkpt>
      <trkpt lat="49.75698" lon="0.37357">
        <ele>21.5</ele>
        <time>2020-06-18T08:11:38Z</time>
      </trkpt>
      <trkpt lat="49.75698" lon="0.37364">
        <ele>21.5</ele>
        <time>2020-06-18T08:11:39Z</time>
      </trkpt>
      <trkpt lat="49.75696" lon="0.3737">
        <ele>21.5</ele>
        <time>2020-06-18T08:11:40Z</time>
      </trkpt>
      <trkpt lat="49.75695" lon="0.37375">
        <ele>21.5</ele>
        <time>2020-06-18T08:11:41Z</time>
      </trkpt>
      <trkpt lat="49.75694" lon="0.37379">
        <ele>21.5</ele>
        <time>2020-06-18T08:11:42Z</time>
      </trkpt>
      <trkpt lat="49.75693" lon="0.37385">
        <ele>21.5</ele>
        <time>2020-06-18T08:11:43Z</time>
      </trkpt>
      <trkpt lat="49.75692" lon="0.37391">
        <ele>21.5</ele>
        <time>2020-06-18T08:11:44Z</time>
      </trkpt>
      <trkpt lat="49.75691" lon="0.37397">
        <ele>21.4</ele>
        <time>2020-06-18T08:11:45Z</time>
      </trkpt>
      <trkpt lat="49.7569" lon="0.37405">
        <ele>21.4</ele>
        <time>2020-06-18T08:11:46Z</time>
      </trkpt>
      <trkpt lat="49.75689" lon="0.37411">
        <ele>21.3</ele>
        <time>2020-06-18T08:11:47Z</time>
      </trkpt>
      <trkpt lat="49.75686" lon="0.37416">
        <ele>21.3</ele>
        <time>2020-06-18T08:11:48Z</time>
      </trkpt>
      <trkpt lat="49.75684" lon="0.37424">
        <ele>21.3</ele>
        <time>2020-06-18T08:11:49Z</time>
      </trkpt>
      <trkpt lat="49.75681" lon="0.37431">
        <ele>21.2</ele>
        <time>2020-06-18T08:11:50Z</time>
      </trkpt>
      <trkpt lat="49.75678" lon="0.37437">
        <ele>21.1</ele>
        <time>2020-06-18T08:11:51Z</time>
      </trkpt>
      <trkpt lat="49.75675" lon="0.37444">
        <ele>21.1</ele>
        <time>2020-06-18T08:11:52Z</time>
      </trkpt>
      <trkpt lat="49.75674" lon="0.37451">
        <ele>21.1</ele>
        <time>2020-06-18T08:11:53Z</time>
      </trkpt>
      <trkpt lat="49.75673" lon="0.37457">
        <ele>21</ele>
        <time>2020-06-18T08:11:54Z</time>
      </trkpt>
      <trkpt lat="49.75671" lon="0.37464">
        <ele>21.1</ele>
        <time>2020-06-18T08:11:55Z</time>
      </trkpt>
      <trkpt lat="49.7567" lon="0.37471">
        <ele>21.1</ele>
        <time>2020-06-18T08:11:56Z</time>
      </trkpt>
      <trkpt lat="49.75668" lon="0.37477">
        <ele>21.1</ele>
        <time>2020-06-18T08:11:57Z</time>
      </trkpt>
      <trkpt lat="49.75666" lon="0.37483">
        <ele>21.2</ele>
        <time>2020-06-18T08:11:58Z</time>
      </trkpt>
      <trkpt lat="49.75663" lon="0.37487">
        <ele>21.2</ele>
        <time>2020-06-18T08:11:59Z</time>
      </trkpt>
      <trkpt lat="49.75661" lon="0.37492">
        <ele>21.2</ele>
        <time>2020-06-18T08:12:00Z</time>
      </trkpt>
      <trkpt lat="49.7566" lon="0.37499">
        <ele>21.3</ele>
        <time>2020-06-18T08:12:01Z</time>
      </trkpt>
      <trkpt lat="49.75657" lon="0.37504">
        <ele>21.3</ele>
        <time>2020-06-18T08:12:02Z</time>
      </trkpt>
      <trkpt lat="49.75657" lon="0.37509">
        <ele>21.3</ele>
        <time>2020-06-18T08:12:03Z</time>
      </trkpt>
      <trkpt lat="49.75657" lon="0.37512">
        <ele>21.4</ele>
        <time>2020-06-18T08:12:04Z</time>
      </trkpt>
      <trkpt lat="49.75657" lon="0.37516">
        <ele>21.4</ele>
        <time>2020-06-18T08:12:05Z</time>
      </trkpt>
      <trkpt lat="49.75658" lon="0.37521">
        <ele>21.4</ele>
        <time>2020-06-18T08:12:06Z</time>
      </trkpt>
      <trkpt lat="49.75657" lon="0.37526">
        <ele>21.4</ele>
        <time>2020-06-18T08:12:07Z</time>
      </trkpt>
      <trkpt lat="49.75656" lon="0.37528">
        <ele>21.4</ele>
        <time>2020-06-18T08:12:08Z</time>
      </trkpt>
      <trkpt lat="49.75654" lon="0.37532">
        <ele>21.5</ele>
        <time>2020-06-18T08:12:09Z</time>
      </trkpt>
      <trkpt lat="49.75652" lon="0.37534">
        <ele>21.5</ele>
        <time>2020-06-18T08:12:10Z</time>
      </trkpt>
      <trkpt lat="49.75651" lon="0.37538">
        <ele>21.5</ele>
        <time>2020-06-18T08:12:11Z</time>
      </trkpt>
      <trkpt lat="49.7565" lon="0.3754">
        <ele>21.5</ele>
        <time>2020-06-18T08:12:12Z</time>
      </trkpt>
      <trkpt lat="49.7565" lon="0.37542">
        <ele>21.5</ele>
        <time>2020-06-18T08:12:13Z</time>
      </trkpt>
      <trkpt lat="49.75648" lon="0.37542">
        <ele>21.5</ele>
        <time>2020-06-18T08:12:14Z</time>
      </trkpt>
      <trkpt lat="49.75646" lon="0.3754">
        <ele>21.5</ele>
        <time>2020-06-18T08:12:15Z</time>
      </trkpt>
      <trkpt lat="49.75643" lon="0.3754">
        <ele>21.9</ele>
        <time>2020-06-18T08:12:16Z</time>
      </trkpt>
      <trkpt lat="49.75642" lon="0.37539">
        <ele>22</ele>
        <time>2020-06-18T08:12:17Z</time>
      </trkpt>
      <trkpt lat="49.7564" lon="0.37538">
        <ele>22</ele>
        <time>2020-06-18T08:12:18Z</time>
      </trkpt>
      <trkpt lat="49.75638" lon="0.37538">
        <ele>22.1</ele>
        <time>2020-06-18T08:12:19Z</time>
      </trkpt>
      <trkpt lat="49.75635" lon="0.37535">
        <ele>22.3</ele>
        <time>2020-06-18T08:12:20Z</time>
      </trkpt>
      <trkpt lat="49.75634" lon="0.37534">
        <ele>22.4</ele>
        <time>2020-06-18T08:12:21Z</time>
      </trkpt>
      <trkpt lat="49.75631" lon="0.37531">
        <ele>22.5</ele>
        <time>2020-06-18T08:12:22Z</time>
      </trkpt>
      <trkpt lat="49.75628" lon="0.37529">
        <ele>22.7</ele>
        <time>2020-06-18T08:12:23Z</time>
      </trkpt>
      <trkpt lat="49.75625" lon="0.37526">
        <ele>22.8</ele>
        <time>2020-06-18T08:12:24Z</time>
      </trkpt>
      <trkpt lat="49.75623" lon="0.37525">
        <ele>22.9</ele>
        <time>2020-06-18T08:12:25Z</time>
      </trkpt>
      <trkpt lat="49.7562" lon="0.37521">
        <ele>23.1</ele>
        <time>2020-06-18T08:12:26Z</time>
      </trkpt>
      <trkpt lat="49.75619" lon="0.3752">
        <ele>23.1</ele>
        <time>2020-06-18T08:12:27Z</time>
      </trkpt>
      <trkpt lat="49.75616" lon="0.37516">
        <ele>23.2</ele>
        <time>2020-06-18T08:12:28Z</time>
      </trkpt>
      <trkpt lat="49.75613" lon="0.37513">
        <ele>23.4</ele>
        <time>2020-06-18T08:12:29Z</time>
      </trkpt>
      <trkpt lat="49.7561" lon="0.37509">
        <ele>23.5</ele>
        <time>2020-06-18T08:12:30Z</time>
      </trkpt>
      <trkpt lat="49.75608" lon="0.37508">
        <ele>23.6</ele>
        <time>2020-06-18T08:12:31Z</time>
      </trkpt>
      <trkpt lat="49.75604" lon="0.37505">
        <ele>23.8</ele>
        <time>2020-06-18T08:12:32Z</time>
      </trkpt>
      <trkpt lat="49.75603" lon="0.37504">
        <ele>23.8</ele>
        <time>2020-06-18T08:12:33Z</time>
      </trkpt>
      <trkpt lat="49.75599" lon="0.375">
        <ele>24</ele>
        <time>2020-06-18T08:12:34Z</time>
      </trkpt>
      <trkpt lat="49.75595" lon="0.37496">
        <ele>24.2</ele>
        <time>2020-06-18T08:12:35Z</time>
      </trkpt>
      <trkpt lat="49.7559" lon="0.37493">
        <ele>24.4</ele>
        <time>2020-06-18T08:12:36Z</time>
      </trkpt>
      <trkpt lat="49.75587" lon="0.37489">
        <ele>24.6</ele>
        <time>2020-06-18T08:12:37Z</time>
      </trkpt>
      <trkpt lat="49.75583" lon="0.37485">
        <ele>24.8</ele>
        <time>2020-06-18T08:12:38Z</time>
      </trkpt>
      <trkpt lat="49.75581" lon="0.37482">
        <ele>24.9</ele>
        <time>2020-06-18T08:12:39Z</time>
      </trkpt>
      <trkpt lat="49.75579" lon="0.37479">
        <ele>25</ele>
        <time>2020-06-18T08:12:40Z</time>
      </trkpt>
      <trkpt lat="49.75575" lon="0.37476">
        <ele>25.2</ele>
        <time>2020-06-18T08:12:41Z</time>
      </trkpt>
      <trkpt lat="49.75573" lon="0.37472">
        <ele>25.4</ele>
        <time>2020-06-18T08:12:42Z</time>
      </trkpt>
      <trkpt lat="49.75571" lon="0.37469">
        <ele>25.5</ele>
        <time>2020-06-18T08:12:43Z</time>
      </trkpt>
      <trkpt lat="49.75569" lon="0.37466">
        <ele>25.6</ele>
        <time>2020-06-18T08:12:44Z</time>
      </trkpt>
      <trkpt lat="49.75567" lon="0.37463">
        <ele>25.8</ele>
        <time>2020-06-18T08:12:45Z</time>
      </trkpt>
      <trkpt lat="49.75564" lon="0.37459">
        <ele>25.9</ele>
        <time>2020-06-18T08:12:46Z</time>
      </trkpt>
      <trkpt lat="49.75562" lon="0.37455">
        <ele>26.1</ele>
        <time>2020-06-18T08:12:47Z</time>
      </trkpt>
      <trkpt lat="49.75559" lon="0.3745">
        <ele>26.3</ele>
        <time>2020-06-18T08:12:48Z</time>
      </trkpt>
      <trkpt lat="49.75555" lon="0.37445">
        <ele>26.6</ele>
        <time>2020-06-18T08:12:49Z</time>
      </trkpt>
      <trkpt lat="49.75551" lon="0.37441">
        <ele>26.8</ele>
        <time>2020-06-18T08:12:50Z</time>
      </trkpt>
      <trkpt lat="49.75547" lon="0.37437">
        <ele>27</ele>
        <time>2020-06-18T08:12:51Z</time>
      </trkpt>
      <trkpt lat="49.75545" lon="0.37431">
        <ele>27.2</ele>
        <time>2020-06-18T08:12:52Z</time>
      </trkpt>
      <trkpt lat="49.75543" lon="0.37427">
        <ele>27.3</ele>
        <time>2020-06-18T08:12:53Z</time>
      </trkpt>
      <trkpt lat="49.7554" lon="0.37424">
        <ele>27.4</ele>
        <time>2020-06-18T08:12:54Z</time>
      </trkpt>
      <trkpt lat="49.75537" lon="0.37421">
        <ele>27.6</ele>
        <time>2020-06-18T08:12:55Z</time>
      </trkpt>
      <trkpt lat="49.75533" lon="0.37418">
        <ele>27.8</ele>
        <time>2020-06-18T08:12:56Z</time>
      </trkpt>
      <trkpt lat="49.75529" lon="0.37416">
        <ele>27.9</ele>
        <time>2020-06-18T08:12:57Z</time>
      </trkpt>
      <trkpt lat="49.75525" lon="0.37412">
        <ele>28.1</ele>
        <time>2020-06-18T08:12:58Z</time>
      </trkpt>
      <trkpt lat="49.75521" lon="0.37407">
        <ele>28.3</ele>
        <time>2020-06-18T08:12:59Z</time>
      </trkpt>
      <trkpt lat="49.75516" lon="0.37402">
        <ele>28.6</ele>
        <time>2020-06-18T08:13:00Z</time>
      </trkpt>
      <trkpt lat="49.75512" lon="0.37397">
        <ele>28.8</ele>
        <time>2020-06-18T08:13:01Z</time>
      </trkpt>
      <trkpt lat="49.75507" lon="0.37394">
        <ele>29.1</ele>
        <time>2020-06-18T08:13:02Z</time>
      </trkpt>
      <trkpt lat="49.75505" lon="0.37392">
        <ele>29.2</ele>
        <time>2020-06-18T08:13:03Z</time>
      </trkpt>
      <trkpt lat="49.75503" lon="0.37388">
        <ele>29.4</ele>
        <time>2020-06-18T08:13:04Z</time>
      </trkpt>
      <trkpt lat="49.75501" lon="0.37386">
        <ele>29.4</ele>
        <time>2020-06-18T08:13:05Z</time>
      </trkpt>
      <trkpt lat="49.75497" lon="0.37382">
        <ele>29.7</ele>
        <time>2020-06-18T08:13:06Z</time>
      </trkpt>
      <trkpt lat="49.75494" lon="0.37378">
        <ele>29.9</ele>
        <time>2020-06-18T08:13:07Z</time>
      </trkpt>
      <trkpt lat="49.7549" lon="0.37375">
        <ele>30.1</ele>
        <time>2020-06-18T08:13:08Z</time>
      </trkpt>
      <trkpt lat="49.75487" lon="0.37372">
        <ele>30.2</ele>
        <time>2020-06-18T08:13:09Z</time>
      </trkpt>
      <trkpt lat="49.75484" lon="0.37369">
        <ele>30.4</ele>
        <time>2020-06-18T08:13:10Z</time>
      </trkpt>
      <trkpt lat="49.75481" lon="0.37367">
        <ele>30.6</ele>
        <time>2020-06-18T08:13:11Z</time>
      </trkpt>
      <trkpt lat="49.75478" lon="0.37363">
        <ele>30.7</ele>
        <time>2020-06-18T08:13:12Z</time>
      </trkpt>
      <trkpt lat="49.75477" lon="0.37362">
        <ele>30.8</ele>
        <time>2020-06-18T08:13:13Z</time>
      </trkpt>
      <trkpt lat="49.75474" lon="0.3736">
        <ele>30.9</ele>
        <time>2020-06-18T08:13:14Z</time>
      </trkpt>
      <trkpt lat="49.75473" lon="0.37359">
        <ele>31</ele>
        <time>2020-06-18T08:13:15Z</time>
      </trkpt>
      <trkpt lat="49.7547" lon="0.37356">
        <ele>31.1</ele>
        <time>2020-06-18T08:13:16Z</time>
      </trkpt>
      <trkpt lat="49.75469" lon="0.37355">
        <ele>31.2</ele>
        <time>2020-06-18T08:13:17Z</time>
      </trkpt>
      <trkpt lat="49.75466" lon="0.37353">
        <ele>31.4</ele>
        <time>2020-06-18T08:13:18Z</time>
      </trkpt>
      <trkpt lat="49.75463" lon="0.3735">
        <ele>31.6</ele>
        <time>2020-06-18T08:13:19Z</time>
      </trkpt>
      <trkpt lat="49.7546" lon="0.37348">
        <ele>31.7</ele>
        <time>2020-06-18T08:13:20Z</time>
      </trkpt>
      <trkpt lat="49.75457" lon="0.37344">
        <ele>31.9</ele>
        <time>2020-06-18T08:13:21Z</time>
      </trkpt>
      <trkpt lat="49.75454" lon="0.3734">
        <ele>32.1</ele>
        <time>2020-06-18T08:13:22Z</time>
      </trkpt>
      <trkpt lat="49.75452" lon="0.37335">
        <ele>32.2</ele>
        <time>2020-06-18T08:13:23Z</time>
      </trkpt>
      <trkpt lat="49.7545" lon="0.37331">
        <ele>32.4</ele>
        <time>2020-06-18T08:13:24Z</time>
      </trkpt>
      <trkpt lat="49.75447" lon="0.37326">
        <ele>32.5</ele>
        <time>2020-06-18T08:13:25Z</time>
      </trkpt>
      <trkpt lat="49.75445" lon="0.37323">
        <ele>32.6</ele>
        <time>2020-06-18T08:13:26Z</time>
      </trkpt>
      <trkpt lat="49.75442" lon="0.3732">
        <ele>32.8</ele>
        <time>2020-06-18T08:13:27Z</time>
      </trkpt>
      <trkpt lat="49.75441" lon="0.37319">
        <ele>32.8</ele>
        <time>2020-06-18T08:13:28Z</time>
      </trkpt>
      <trkpt lat="49.75438" lon="0.37316">
        <ele>32.9</ele>
        <time>2020-06-18T08:13:29Z</time>
      </trkpt>
      <trkpt lat="49.75436" lon="0.37312">
        <ele>33</ele>
        <time>2020-06-18T08:13:30Z</time>
      </trkpt>
      <trkpt lat="49.75436" lon="0.37311">
        <ele>33.1</ele>
        <time>2020-06-18T08:13:31Z</time>
      </trkpt>
      <trkpt lat="49.75434" lon="0.3731">
        <ele>33.2</ele>
        <time>2020-06-18T08:13:32Z</time>
      </trkpt>
      <trkpt lat="49.75433" lon="0.37309">
        <ele>33.2</ele>
        <time>2020-06-18T08:13:33Z</time>
      </trkpt>
      <trkpt lat="49.75432" lon="0.37307">
        <ele>33.3</ele>
        <time>2020-06-18T08:13:34Z</time>
      </trkpt>
      <trkpt lat="49.75433" lon="0.37307">
        <ele>33.3</ele>
        <time>2020-06-18T08:13:35Z</time>
      </trkpt>
      <trkpt lat="49.75432" lon="0.37307">
        <ele>33.3</ele>
        <time>2020-06-18T08:13:36Z</time>
      </trkpt>
      <trkpt lat="49.75433" lon="0.37307">
        <ele>33.3</ele>
        <time>2020-06-18T08:13:37Z</time>
      </trkpt>
      <trkpt lat="49.75433" lon="0.37307">
        <ele>33.3</ele>
        <time>2020-06-18T08:13:38Z</time>
      </trkpt>
      <trkpt lat="49.75433" lon="0.37307">
        <ele>33.3</ele>
        <time>2020-06-18T08:13:39Z</time>
      </trkpt>
      <trkpt lat="49.75433" lon="0.37306">
        <ele>33.4</ele>
        <time>2020-06-18T08:13:40Z</time>
      </trkpt>
      <trkpt lat="49.75433" lon="0.37306">
        <ele>33.4</ele>
        <time>2020-06-18T08:13:41Z</time>
      </trkpt>
      <trkpt lat="49.75434" lon="0.37306">
        <ele>33.4</ele>
        <time>2020-06-18T08:13:42Z</time>
      </trkpt>
      <trkpt lat="49.75433" lon="0.37306">
        <ele>33.4</ele>
        <time>2020-06-18T08:13:43Z</time>
      </trkpt>
      <trkpt lat="49.75433" lon="0.37305">
        <ele>33.4</ele>
        <time>2020-06-18T08:13:44Z</time>
      </trkpt>
      <trkpt lat="49.75428" lon="0.373">
        <ele>33.6</ele>
        <time>2020-06-18T08:13:56Z</time>
      </trkpt>
      <trkpt lat="49.75427" lon="0.37299">
        <ele>33.6</ele>
        <time>2020-06-18T08:13:57Z</time>
      </trkpt>
      <trkpt lat="49.75426" lon="0.37299">
        <ele>33.6</ele>
        <time>2020-06-18T08:13:58Z</time>
      </trkpt>
      <trkpt lat="49.75425" lon="0.37297">
        <ele>33.7</ele>
        <time>2020-06-18T08:13:59Z</time>
      </trkpt>
      <trkpt lat="49.75424" lon="0.37296">
        <ele>33.7</ele>
        <time>2020-06-18T08:14:00Z</time>
      </trkpt>
      <trkpt lat="49.75423" lon="0.37295">
        <ele>33.8</ele>
        <time>2020-06-18T08:14:01Z</time>
      </trkpt>
      <trkpt lat="49.75421" lon="0.37295">
        <ele>33.8</ele>
        <time>2020-06-18T08:14:02Z</time>
      </trkpt>
      <trkpt lat="49.7542" lon="0.37294">
        <ele>33.8</ele>
        <time>2020-06-18T08:14:03Z</time>
      </trkpt>
      <trkpt lat="49.7542" lon="0.37294">
        <ele>33.8</ele>
        <time>2020-06-18T08:14:04Z</time>
      </trkpt>
      <trkpt lat="49.7542" lon="0.37293">
        <ele>33.8</ele>
        <time>2020-06-18T08:14:05Z</time>
      </trkpt>
      <trkpt lat="49.7542" lon="0.37292">
        <ele>33.8</ele>
        <time>2020-06-18T08:14:06Z</time>
      </trkpt>
      <trkpt lat="49.75419" lon="0.37292">
        <ele>33.8</ele>
        <time>2020-06-18T08:14:07Z</time>
      </trkpt>
      <trkpt lat="49.75419" lon="0.37292">
        <ele>33.8</ele>
        <time>2020-06-18T08:14:08Z</time>
      </trkpt>
      <trkpt lat="49.75418" lon="0.37292">
        <ele>33.8</ele>
        <time>2020-06-18T08:14:09Z</time>
      </trkpt>
      <trkpt lat="49.75417" lon="0.37292">
        <ele>33.8</ele>
        <time>2020-06-18T08:14:10Z</time>
      </trkpt>
      <trkpt lat="49.75416" lon="0.37292">
        <ele>33.8</ele>
        <time>2020-06-18T08:14:11Z</time>
      </trkpt>
      <trkpt lat="49.75416" lon="0.37294">
        <ele>33.8</ele>
        <time>2020-06-18T08:14:12Z</time>
      </trkpt>
      <trkpt lat="49.75415" lon="0.37295">
        <ele>33.8</ele>
        <time>2020-06-18T08:14:13Z</time>
      </trkpt>
      <trkpt lat="49.75414" lon="0.373">
        <ele>33.9</ele>
        <time>2020-06-18T08:14:14Z</time>
      </trkpt>
      <trkpt lat="49.75414" lon="0.37301">
        <ele>33.9</ele>
        <time>2020-06-18T08:14:15Z</time>
      </trkpt>
      <trkpt lat="49.75411" lon="0.37304">
        <ele>33.9</ele>
        <time>2020-06-18T08:14:16Z</time>
      </trkpt>
      <trkpt lat="49.7541" lon="0.37304">
        <ele>33.9</ele>
        <time>2020-06-18T08:14:17Z</time>
      </trkpt>
      <trkpt lat="49.75407" lon="0.37304">
        <ele>33.8</ele>
        <time>2020-06-18T08:14:18Z</time>
      </trkpt>
      <trkpt lat="49.75403" lon="0.37304">
        <ele>33.8</ele>
        <time>2020-06-18T08:14:19Z</time>
      </trkpt>
      <trkpt lat="49.75398" lon="0.37303">
        <ele>33.7</ele>
        <time>2020-06-18T08:14:20Z</time>
      </trkpt>
      <trkpt lat="49.75393" lon="0.37301">
        <ele>33.6</ele>
        <time>2020-06-18T08:14:21Z</time>
      </trkpt>
      <trkpt lat="49.75389" lon="0.37298">
        <ele>33.5</ele>
        <time>2020-06-18T08:14:22Z</time>
      </trkpt>
      <trkpt lat="49.75385" lon="0.37297">
        <ele>33.4</ele>
        <time>2020-06-18T08:14:23Z</time>
      </trkpt>
      <trkpt lat="49.75381" lon="0.37297">
        <ele>33.3</ele>
        <time>2020-06-18T08:14:24Z</time>
      </trkpt>
      <trkpt lat="49.75378" lon="0.37297">
        <ele>33.2</ele>
        <time>2020-06-18T08:14:25Z</time>
      </trkpt>
      <trkpt lat="49.75375" lon="0.37296">
        <ele>33.1</ele>
        <time>2020-06-18T08:14:26Z</time>
      </trkpt>
      <trkpt lat="49.75374" lon="0.37296">
        <ele>33.1</ele>
        <time>2020-06-18T08:14:27Z</time>
      </trkpt>
      <trkpt lat="49.75373" lon="0.37293">
        <ele>33</ele>
        <time>2020-06-18T08:14:28Z</time>
      </trkpt>
      <trkpt lat="49.75373" lon="0.37294">
        <ele>33</ele>
        <time>2020-06-18T08:14:29Z</time>
      </trkpt>
      <trkpt lat="49.75373" lon="0.37295">
        <ele>33</ele>
        <time>2020-06-18T08:14:30Z</time>
      </trkpt>
      <trkpt lat="49.75373" lon="0.37295">
        <ele>33</ele>
        <time>2020-06-18T08:14:31Z</time>
      </trkpt>
      <trkpt lat="49.75373" lon="0.37295">
        <ele>33</ele>
        <time>2020-06-18T08:14:32Z</time>
      </trkpt>
      <trkpt lat="49.75373" lon="0.37295">
        <ele>33</ele>
        <time>2020-06-18T08:14:33Z</time>
      </trkpt>
      <trkpt lat="49.75373" lon="0.37296">
        <ele>33</ele>
        <time>2020-06-18T08:14:34Z</time>
      </trkpt>
      <trkpt lat="49.75373" lon="0.37296">
        <ele>33</ele>
        <time>2020-06-18T08:14:35Z</time>
      </trkpt>
      <trkpt lat="49.75372" lon="0.37297">
        <ele>32.9</ele>
        <time>2020-06-18T08:14:36Z</time>
      </trkpt>
      <trkpt lat="49.75372" lon="0.37297">
        <ele>32.9</ele>
        <time>2020-06-18T08:14:37Z</time>
      </trkpt>
      <trkpt lat="49.75372" lon="0.37298">
        <ele>32.9</ele>
        <time>2020-06-18T08:14:38Z</time>
      </trkpt>
      <trkpt lat="49.75372" lon="0.37301">
        <ele>32.8</ele>
        <time>2020-06-18T08:14:39Z</time>
      </trkpt>
      <trkpt lat="49.75373" lon="0.37306">
        <ele>32.7</ele>
        <time>2020-06-18T08:14:40Z</time>
      </trkpt>
      <trkpt lat="49.75374" lon="0.37308">
        <ele>31.8</ele>
        <time>2020-06-18T08:14:41Z</time>
      </trkpt>
      <trkpt lat="49.75376" lon="0.37312">
        <ele>31.6</ele>
        <time>2020-06-18T08:14:42Z</time>
      </trkpt>
      <trkpt lat="49.75378" lon="0.37318">
        <ele>31.2</ele>
        <time>2020-06-18T08:14:43Z</time>
      </trkpt>
      <trkpt lat="49.75382" lon="0.37326">
        <ele>30.8</ele>
        <time>2020-06-18T08:14:44Z</time>
      </trkpt>
      <trkpt lat="49.75384" lon="0.37334">
        <ele>30.3</ele>
        <time>2020-06-18T08:14:45Z</time>
      </trkpt>
      <trkpt lat="49.75387" lon="0.37343">
        <ele>29.8</ele>
        <time>2020-06-18T08:14:46Z</time>
      </trkpt>
      <trkpt lat="49.7539" lon="0.37351">
        <ele>29.3</ele>
        <time>2020-06-18T08:14:47Z</time>
      </trkpt>
      <trkpt lat="49.75393" lon="0.37359">
        <ele>28.8</ele>
        <time>2020-06-18T08:14:48Z</time>
      </trkpt>
      <trkpt lat="49.75396" lon="0.37366">
        <ele>28.4</ele>
        <time>2020-06-18T08:14:49Z</time>
      </trkpt>
      <trkpt lat="49.75401" lon="0.37376">
        <ele>27.8</ele>
        <time>2020-06-18T08:14:50Z</time>
      </trkpt>
      <trkpt lat="49.75405" lon="0.37385">
        <ele>26.6</ele>
        <time>2020-06-18T08:14:51Z</time>
      </trkpt>
      <trkpt lat="49.75409" lon="0.37395">
        <ele>26.1</ele>
        <time>2020-06-18T08:14:52Z</time>
      </trkpt>
      <trkpt lat="49.75412" lon="0.37402">
        <ele>25.7</ele>
        <time>2020-06-18T08:14:53Z</time>
      </trkpt>
      <trkpt lat="49.75415" lon="0.3741">
        <ele>25.4</ele>
        <time>2020-06-18T08:14:54Z</time>
      </trkpt>
      <trkpt lat="49.75418" lon="0.37416">
        <ele>25.1</ele>
        <time>2020-06-18T08:14:55Z</time>
      </trkpt>
      <trkpt lat="49.75419" lon="0.37422">
        <ele>24.8</ele>
        <time>2020-06-18T08:14:56Z</time>
      </trkpt>
      <trkpt lat="49.75421" lon="0.37429">
        <ele>24.5</ele>
        <time>2020-06-18T08:14:57Z</time>
      </trkpt>
      <trkpt lat="49.75423" lon="0.37435">
        <ele>24.3</ele>
        <time>2020-06-18T08:14:58Z</time>
      </trkpt>
      <trkpt lat="49.75424" lon="0.37442">
        <ele>24</ele>
        <time>2020-06-18T08:14:59Z</time>
      </trkpt>
      <trkpt lat="49.75426" lon="0.37448">
        <ele>23.7</ele>
        <time>2020-06-18T08:15:00Z</time>
      </trkpt>
      <trkpt lat="49.75429" lon="0.37454">
        <ele>23.4</ele>
        <time>2020-06-18T08:15:01Z</time>
      </trkpt>
      <trkpt lat="49.75432" lon="0.37462">
        <ele>23.1</ele>
        <time>2020-06-18T08:15:02Z</time>
      </trkpt>
      <trkpt lat="49.75435" lon="0.37471">
        <ele>22.7</ele>
        <time>2020-06-18T08:15:03Z</time>
      </trkpt>
      <trkpt lat="49.75437" lon="0.37478">
        <ele>22.5</ele>
        <time>2020-06-18T08:15:04Z</time>
      </trkpt>
      <trkpt lat="49.7544" lon="0.37486">
        <ele>22.3</ele>
        <time>2020-06-18T08:15:05Z</time>
      </trkpt>
      <trkpt lat="49.75442" lon="0.37492">
        <ele>22.1</ele>
        <time>2020-06-18T08:15:06Z</time>
      </trkpt>
      <trkpt lat="49.75443" lon="0.37497">
        <ele>21.9</ele>
        <time>2020-06-18T08:15:07Z</time>
      </trkpt>
      <trkpt lat="49.75443" lon="0.37502">
        <ele>21.5</ele>
        <time>2020-06-18T08:15:08Z</time>
      </trkpt>
      <trkpt lat="49.75443" lon="0.37503">
        <ele>21.5</ele>
        <time>2020-06-18T08:15:09Z</time>
      </trkpt>
      <trkpt lat="49.75442" lon="0.37507">
        <ele>21.3</ele>
        <time>2020-06-18T08:15:10Z</time>
      </trkpt>
      <trkpt lat="49.75441" lon="0.37509">
        <ele>21.2</ele>
        <time>2020-06-18T08:15:11Z</time>
      </trkpt>
      <trkpt lat="49.75439" lon="0.37514">
        <ele>21</ele>
        <time>2020-06-18T08:15:12Z</time>
      </trkpt>
      <trkpt lat="49.75437" lon="0.37519">
        <ele>20.8</ele>
        <time>2020-06-18T08:15:13Z</time>
      </trkpt>
      <trkpt lat="49.75434" lon="0.37524">
        <ele>20.6</ele>
        <time>2020-06-18T08:15:14Z</time>
      </trkpt>
      <trkpt lat="49.75431" lon="0.3753">
        <ele>20.4</ele>
        <time>2020-06-18T08:15:15Z</time>
      </trkpt>
      <trkpt lat="49.75428" lon="0.37536">
        <ele>20.3</ele>
        <time>2020-06-18T08:15:16Z</time>
      </trkpt>
      <trkpt lat="49.75426" lon="0.3754">
        <ele>20.2</ele>
        <time>2020-06-18T08:15:17Z</time>
      </trkpt>
      <trkpt lat="49.75423" lon="0.37546">
        <ele>20.2</ele>
        <time>2020-06-18T08:15:18Z</time>
      </trkpt>
      <trkpt lat="49.75421" lon="0.37552">
        <ele>20.1</ele>
        <time>2020-06-18T08:15:19Z</time>
      </trkpt>
      <trkpt lat="49.75419" lon="0.37557">
        <ele>20.2</ele>
        <time>2020-06-18T08:15:20Z</time>
      </trkpt>
      <trkpt lat="49.75418" lon="0.37563">
        <ele>20.2</ele>
        <time>2020-06-18T08:15:21Z</time>
      </trkpt>
      <trkpt lat="49.75417" lon="0.37569">
        <ele>20.2</ele>
        <time>2020-06-18T08:15:22Z</time>
      </trkpt>
      <trkpt lat="49.75415" lon="0.37574">
        <ele>20.2</ele>
        <time>2020-06-18T08:15:23Z</time>
      </trkpt>
      <trkpt lat="49.75412" lon="0.37583">
        <ele>20.3</ele>
        <time>2020-06-18T08:15:24Z</time>
      </trkpt>
      <trkpt lat="49.75411" lon="0.37589">
        <ele>20.4</ele>
        <time>2020-06-18T08:15:25Z</time>
      </trkpt>
      <trkpt lat="49.75411" lon="0.37597">
        <ele>20.5</ele>
        <time>2020-06-18T08:15:26Z</time>
      </trkpt>
      <trkpt lat="49.75411" lon="0.37602">
        <ele>20.6</ele>
        <time>2020-06-18T08:15:27Z</time>
      </trkpt>
      <trkpt lat="49.75411" lon="0.37608">
        <ele>20.6</ele>
        <time>2020-06-18T08:15:28Z</time>
      </trkpt>
      <trkpt lat="49.7541" lon="0.37616">
        <ele>20.8</ele>
        <time>2020-06-18T08:15:29Z</time>
      </trkpt>
      <trkpt lat="49.75409" lon="0.37623">
        <ele>20.9</ele>
        <time>2020-06-18T08:15:30Z</time>
      </trkpt>
      <trkpt lat="49.75407" lon="0.37629">
        <ele>21.1</ele>
        <time>2020-06-18T08:15:31Z</time>
      </trkpt>
      <trkpt lat="49.75407" lon="0.37636">
        <ele>21.3</ele>
        <time>2020-06-18T08:15:32Z</time>
      </trkpt>
      <trkpt lat="49.75407" lon="0.37642">
        <ele>21.4</ele>
        <time>2020-06-18T08:15:33Z</time>
      </trkpt>
      <trkpt lat="49.75408" lon="0.37648">
        <ele>21.6</ele>
        <time>2020-06-18T08:15:34Z</time>
      </trkpt>
      <trkpt lat="49.75408" lon="0.37654">
        <ele>21.7</ele>
        <time>2020-06-18T08:15:35Z</time>
      </trkpt>
      <trkpt lat="49.75408" lon="0.37659">
        <ele>21.8</ele>
        <time>2020-06-18T08:15:36Z</time>
      </trkpt>
      <trkpt lat="49.75408" lon="0.37664">
        <ele>22</ele>
        <time>2020-06-18T08:15:37Z</time>
      </trkpt>
      <trkpt lat="49.75408" lon="0.37669">
        <ele>22.3</ele>
        <time>2020-06-18T08:15:38Z</time>
      </trkpt>
      <trkpt lat="49.75408" lon="0.37674">
        <ele>22.5</ele>
        <time>2020-06-18T08:15:39Z</time>
      </trkpt>
      <trkpt lat="49.75408" lon="0.3768">
        <ele>22.8</ele>
        <time>2020-06-18T08:15:40Z</time>
      </trkpt>
      <trkpt lat="49.75408" lon="0.37686">
        <ele>23.1</ele>
        <time>2020-06-18T08:15:41Z</time>
      </trkpt>
      <trkpt lat="49.75408" lon="0.37691">
        <ele>23.3</ele>
        <time>2020-06-18T08:15:42Z</time>
      </trkpt>
      <trkpt lat="49.75408" lon="0.37696">
        <ele>23.6</ele>
        <time>2020-06-18T08:15:43Z</time>
      </trkpt>
      <trkpt lat="49.75408" lon="0.37702">
        <ele>23.8</ele>
        <time>2020-06-18T08:15:44Z</time>
      </trkpt>
      <trkpt lat="49.75408" lon="0.37707">
        <ele>24.1</ele>
        <time>2020-06-18T08:15:45Z</time>
      </trkpt>
      <trkpt lat="49.75409" lon="0.37712">
        <ele>24.4</ele>
        <time>2020-06-18T08:15:46Z</time>
      </trkpt>
      <trkpt lat="49.75409" lon="0.37718">
        <ele>24.7</ele>
        <time>2020-06-18T08:15:47Z</time>
      </trkpt>
      <trkpt lat="49.7541" lon="0.37722">
        <ele>25</ele>
        <time>2020-06-18T08:15:48Z</time>
      </trkpt>
      <trkpt lat="49.75411" lon="0.37728">
        <ele>25.3</ele>
        <time>2020-06-18T08:15:49Z</time>
      </trkpt>
      <trkpt lat="49.75412" lon="0.37734">
        <ele>25.7</ele>
        <time>2020-06-18T08:15:50Z</time>
      </trkpt>
      <trkpt lat="49.75413" lon="0.3774">
        <ele>26</ele>
        <time>2020-06-18T08:15:51Z</time>
      </trkpt>
      <trkpt lat="49.75413" lon="0.37745">
        <ele>26.3</ele>
        <time>2020-06-18T08:15:52Z</time>
      </trkpt>
      <trkpt lat="49.75415" lon="0.37752">
        <ele>26.7</ele>
        <time>2020-06-18T08:15:53Z</time>
      </trkpt>
      <trkpt lat="49.75416" lon="0.37757">
        <ele>27</ele>
        <time>2020-06-18T08:15:54Z</time>
      </trkpt>
      <trkpt lat="49.75417" lon="0.37762">
        <ele>27.3</ele>
        <time>2020-06-18T08:15:55Z</time>
      </trkpt>
      <trkpt lat="49.75418" lon="0.37766">
        <ele>27.5</ele>
        <time>2020-06-18T08:15:56Z</time>
      </trkpt>
      <trkpt lat="49.75419" lon="0.3777">
        <ele>27.8</ele>
        <time>2020-06-18T08:15:57Z</time>
      </trkpt>
      <trkpt lat="49.7542" lon="0.37774">
        <ele>28</ele>
        <time>2020-06-18T08:15:58Z</time>
      </trkpt>
      <trkpt lat="49.75421" lon="0.3778">
        <ele>28.4</ele>
        <time>2020-06-18T08:15:59Z</time>
      </trkpt>
      <trkpt lat="49.75421" lon="0.37781">
        <ele>28.5</ele>
        <time>2020-06-18T08:16:00Z</time>
      </trkpt>
      <trkpt lat="49.75422" lon="0.37786">
        <ele>28.7</ele>
        <time>2020-06-18T08:16:01Z</time>
      </trkpt>
      <trkpt lat="49.75422" lon="0.37787">
        <ele>28.8</ele>
        <time>2020-06-18T08:16:02Z</time>
      </trkpt>
      <trkpt lat="49.75423" lon="0.37792">
        <ele>29</ele>
        <time>2020-06-18T08:16:03Z</time>
      </trkpt>
      <trkpt lat="49.75423" lon="0.37793">
        <ele>29</ele>
        <time>2020-06-18T08:16:04Z</time>
      </trkpt>
      <trkpt lat="49.75422" lon="0.37798">
        <ele>29.3</ele>
        <time>2020-06-18T08:16:05Z</time>
      </trkpt>
      <trkpt lat="49.75422" lon="0.378">
        <ele>29.4</ele>
        <time>2020-06-18T08:16:06Z</time>
      </trkpt>
      <trkpt lat="49.75422" lon="0.37804">
        <ele>29.5</ele>
        <time>2020-06-18T08:16:07Z</time>
      </trkpt>
      <trkpt lat="49.75422" lon="0.37809">
        <ele>29.8</ele>
        <time>2020-06-18T08:16:08Z</time>
      </trkpt>
      <trkpt lat="49.75423" lon="0.37814">
        <ele>29.6</ele>
        <time>2020-06-18T08:16:09Z</time>
      </trkpt>
      <trkpt lat="49.75425" lon="0.37821">
        <ele>29.3</ele>
        <time>2020-06-18T08:16:10Z</time>
      </trkpt>
      <trkpt lat="49.75426" lon="0.37828">
        <ele>29</ele>
        <time>2020-06-18T08:16:11Z</time>
      </trkpt>
      <trkpt lat="49.75427" lon="0.37835">
        <ele>28.7</ele>
        <time>2020-06-18T08:16:12Z</time>
      </trkpt>
      <trkpt lat="49.75428" lon="0.37841">
        <ele>28.4</ele>
        <time>2020-06-18T08:16:13Z</time>
      </trkpt>
      <trkpt lat="49.7543" lon="0.37849">
        <ele>28</ele>
        <time>2020-06-18T08:16:14Z</time>
      </trkpt>
      <trkpt lat="49.75432" lon="0.37855">
        <ele>27.7</ele>
        <time>2020-06-18T08:16:15Z</time>
      </trkpt>
      <trkpt lat="49.75433" lon="0.37862">
        <ele>27.4</ele>
        <time>2020-06-18T08:16:16Z</time>
      </trkpt>
      <trkpt lat="49.75433" lon="0.37868">
        <ele>27.2</ele>
        <time>2020-06-18T08:16:17Z</time>
      </trkpt>
      <trkpt lat="49.75434" lon="0.37873">
        <ele>27.1</ele>
        <time>2020-06-18T08:16:18Z</time>
      </trkpt>
      <trkpt lat="49.75432" lon="0.37876">
        <ele>27</ele>
        <time>2020-06-18T08:16:19Z</time>
      </trkpt>
      <trkpt lat="49.75431" lon="0.3788">
        <ele>26.9</ele>
        <time>2020-06-18T08:16:20Z</time>
      </trkpt>
      <trkpt lat="49.75429" lon="0.37884">
        <ele>26.7</ele>
        <time>2020-06-18T08:16:21Z</time>
      </trkpt>
      <trkpt lat="49.75431" lon="0.37888">
        <ele>26.6</ele>
        <time>2020-06-18T08:16:22Z</time>
      </trkpt>
      <trkpt lat="49.7543" lon="0.37893">
        <ele>26.6</ele>
        <time>2020-06-18T08:16:23Z</time>
      </trkpt>
      <trkpt lat="49.75429" lon="0.37895">
        <ele>26.6</ele>
        <time>2020-06-18T08:16:24Z</time>
      </trkpt>
      <trkpt lat="49.75427" lon="0.379">
        <ele>26.5</ele>
        <time>2020-06-18T08:16:25Z</time>
      </trkpt>
      <trkpt lat="49.75426" lon="0.37901">
        <ele>26.5</ele>
        <time>2020-06-18T08:16:26Z</time>
      </trkpt>
      <trkpt lat="49.75424" lon="0.37907">
        <ele>26.5</ele>
        <time>2020-06-18T08:16:27Z</time>
      </trkpt>
      <trkpt lat="49.75424" lon="0.37908">
        <ele>26.5</ele>
        <time>2020-06-18T08:16:28Z</time>
      </trkpt>
      <trkpt lat="49.75423" lon="0.37914">
        <ele>26.5</ele>
        <time>2020-06-18T08:16:29Z</time>
      </trkpt>
      <trkpt lat="49.75423" lon="0.37917">
        <ele>26.5</ele>
        <time>2020-06-18T08:16:30Z</time>
      </trkpt>
      <trkpt lat="49.75421" lon="0.37921">
        <ele>26.5</ele>
        <time>2020-06-18T08:16:31Z</time>
      </trkpt>
      <trkpt lat="49.75419" lon="0.37927">
        <ele>26.5</ele>
        <time>2020-06-18T08:16:32Z</time>
      </trkpt>
      <trkpt lat="49.75417" lon="0.37934">
        <ele>26.7</ele>
        <time>2020-06-18T08:16:33Z</time>
      </trkpt>
      <trkpt lat="49.75417" lon="0.3794">
        <ele>26.8</ele>
        <time>2020-06-18T08:16:34Z</time>
      </trkpt>
      <trkpt lat="49.75416" lon="0.37947">
        <ele>27</ele>
        <time>2020-06-18T08:16:35Z</time>
      </trkpt>
      <trkpt lat="49.75415" lon="0.37953">
        <ele>27.2</ele>
        <time>2020-06-18T08:16:36Z</time>
      </trkpt>
      <trkpt lat="49.75414" lon="0.37959">
        <ele>27.4</ele>
        <time>2020-06-18T08:16:37Z</time>
      </trkpt>
      <trkpt lat="49.75412" lon="0.37966">
        <ele>27.5</ele>
        <time>2020-06-18T08:16:38Z</time>
      </trkpt>
      <trkpt lat="49.7541" lon="0.37973">
        <ele>27.6</ele>
        <time>2020-06-18T08:16:39Z</time>
      </trkpt>
      <trkpt lat="49.75407" lon="0.37979">
        <ele>27.7</ele>
        <time>2020-06-18T08:16:40Z</time>
      </trkpt>
      <trkpt lat="49.75405" lon="0.37985">
        <ele>27.8</ele>
        <time>2020-06-18T08:16:41Z</time>
      </trkpt>
      <trkpt lat="49.75404" lon="0.37991">
        <ele>27.9</ele>
        <time>2020-06-18T08:16:42Z</time>
      </trkpt>
      <trkpt lat="49.75402" lon="0.37997">
        <ele>28</ele>
        <time>2020-06-18T08:16:43Z</time>
      </trkpt>
      <trkpt lat="49.754" lon="0.38002">
        <ele>28.1</ele>
        <time>2020-06-18T08:16:44Z</time>
      </trkpt>
      <trkpt lat="49.75398" lon="0.38006">
        <ele>28.2</ele>
        <time>2020-06-18T08:16:45Z</time>
      </trkpt>
      <trkpt lat="49.75397" lon="0.38011">
        <ele>28.3</ele>
        <time>2020-06-18T08:16:46Z</time>
      </trkpt>
      <trkpt lat="49.75397" lon="0.38013">
        <ele>28.3</ele>
        <time>2020-06-18T08:16:47Z</time>
      </trkpt>
      <trkpt lat="49.75397" lon="0.38019">
        <ele>28.4</ele>
        <time>2020-06-18T08:16:48Z</time>
      </trkpt>
      <trkpt lat="49.75396" lon="0.38024">
        <ele>28.5</ele>
        <time>2020-06-18T08:16:49Z</time>
      </trkpt>
      <trkpt lat="49.75395" lon="0.38029">
        <ele>28.5</ele>
        <time>2020-06-18T08:16:50Z</time>
      </trkpt>
      <trkpt lat="49.75393" lon="0.38035">
        <ele>28.5</ele>
        <time>2020-06-18T08:16:51Z</time>
      </trkpt>
      <trkpt lat="49.75392" lon="0.38041">
        <ele>28.5</ele>
        <time>2020-06-18T08:16:52Z</time>
      </trkpt>
      <trkpt lat="49.75391" lon="0.38045">
        <ele>28.5</ele>
        <time>2020-06-18T08:16:53Z</time>
      </trkpt>
      <trkpt lat="49.75391" lon="0.38052">
        <ele>28.5</ele>
        <time>2020-06-18T08:16:54Z</time>
      </trkpt>
      <trkpt lat="49.75391" lon="0.38054">
        <ele>28.5</ele>
        <time>2020-06-18T08:16:55Z</time>
      </trkpt>
      <trkpt lat="49.75389" lon="0.38058">
        <ele>28.4</ele>
        <time>2020-06-18T08:16:56Z</time>
      </trkpt>
      <trkpt lat="49.75388" lon="0.38064">
        <ele>28.4</ele>
        <time>2020-06-18T08:16:57Z</time>
      </trkpt>
      <trkpt lat="49.75387" lon="0.38068">
        <ele>28.4</ele>
        <time>2020-06-18T08:16:58Z</time>
      </trkpt>
      <trkpt lat="49.75385" lon="0.38072">
        <ele>28.3</ele>
        <time>2020-06-18T08:16:59Z</time>
      </trkpt>
      <trkpt lat="49.75383" lon="0.38077">
        <ele>28.3</ele>
        <time>2020-06-18T08:17:00Z</time>
      </trkpt>
      <trkpt lat="49.75381" lon="0.38082">
        <ele>28.2</ele>
        <time>2020-06-18T08:17:01Z</time>
      </trkpt>
      <trkpt lat="49.75379" lon="0.38087">
        <ele>28.2</ele>
        <time>2020-06-18T08:17:02Z</time>
      </trkpt>
      <trkpt lat="49.75376" lon="0.38092">
        <ele>28.2</ele>
        <time>2020-06-18T08:17:03Z</time>
      </trkpt>
      <trkpt lat="49.75374" lon="0.38099">
        <ele>28.3</ele>
        <time>2020-06-18T08:17:04Z</time>
      </trkpt>
      <trkpt lat="49.75373" lon="0.38104">
        <ele>28.3</ele>
        <time>2020-06-18T08:17:05Z</time>
      </trkpt>
      <trkpt lat="49.75371" lon="0.38107">
        <ele>28.3</ele>
        <time>2020-06-18T08:17:06Z</time>
      </trkpt>
      <trkpt lat="49.75369" lon="0.3811">
        <ele>28.4</ele>
        <time>2020-06-18T08:17:07Z</time>
      </trkpt>
      <trkpt lat="49.75369" lon="0.38116">
        <ele>28.4</ele>
        <time>2020-06-18T08:17:08Z</time>
      </trkpt>
      <trkpt lat="49.75368" lon="0.3812">
        <ele>28.4</ele>
        <time>2020-06-18T08:17:09Z</time>
      </trkpt>
      <trkpt lat="49.75367" lon="0.38125">
        <ele>28.4</ele>
        <time>2020-06-18T08:17:10Z</time>
      </trkpt>
      <trkpt lat="49.75367" lon="0.38128">
        <ele>27.7</ele>
        <time>2020-06-18T08:17:11Z</time>
      </trkpt>
      <trkpt lat="49.75368" lon="0.38133">
        <ele>27.4</ele>
        <time>2020-06-18T08:17:12Z</time>
      </trkpt>
      <trkpt lat="49.7537" lon="0.38139">
        <ele>27</ele>
        <time>2020-06-18T08:17:13Z</time>
      </trkpt>
      <trkpt lat="49.75372" lon="0.38145">
        <ele>26.7</ele>
        <time>2020-06-18T08:17:14Z</time>
      </trkpt>
      <trkpt lat="49.75374" lon="0.38148">
        <ele>26.4</ele>
        <time>2020-06-18T08:17:15Z</time>
      </trkpt>
      <trkpt lat="49.75375" lon="0.38151">
        <ele>26.2</ele>
        <time>2020-06-18T08:17:16Z</time>
      </trkpt>
      <trkpt lat="49.75375" lon="0.38153">
        <ele>26.1</ele>
        <time>2020-06-18T08:17:17Z</time>
      </trkpt>
      <trkpt lat="49.75375" lon="0.38155">
        <ele>25.9</ele>
        <time>2020-06-18T08:17:18Z</time>
      </trkpt>
      <trkpt lat="49.75375" lon="0.38155">
        <ele>25.9</ele>
        <time>2020-06-18T08:17:19Z</time>
      </trkpt>
      <trkpt lat="49.75375" lon="0.38156">
        <ele>25.9</ele>
        <time>2020-06-18T08:17:20Z</time>
      </trkpt>
      <trkpt lat="49.75375" lon="0.38158">
        <ele>25.7</ele>
        <time>2020-06-18T08:17:21Z</time>
      </trkpt>
      <trkpt lat="49.75376" lon="0.38164">
        <ele>25.4</ele>
        <time>2020-06-18T08:17:22Z</time>
      </trkpt>
      <trkpt lat="49.75376" lon="0.38167">
        <ele>25.2</ele>
        <time>2020-06-18T08:17:23Z</time>
      </trkpt>
      <trkpt lat="49.75377" lon="0.38173">
        <ele>24.8</ele>
        <time>2020-06-18T08:17:24Z</time>
      </trkpt>
      <trkpt lat="49.75379" lon="0.38179">
        <ele>24.4</ele>
        <time>2020-06-18T08:17:25Z</time>
      </trkpt>
      <trkpt lat="49.75381" lon="0.38186">
        <ele>24</ele>
        <time>2020-06-18T08:17:26Z</time>
      </trkpt>
      <trkpt lat="49.75382" lon="0.38191">
        <ele>23.6</ele>
        <time>2020-06-18T08:17:27Z</time>
      </trkpt>
      <trkpt lat="49.75384" lon="0.38196">
        <ele>23.3</ele>
        <time>2020-06-18T08:17:28Z</time>
      </trkpt>
      <trkpt lat="49.75386" lon="0.38202">
        <ele>23</ele>
        <time>2020-06-18T08:17:29Z</time>
      </trkpt>
      <trkpt lat="49.75387" lon="0.38208">
        <ele>22.6</ele>
        <time>2020-06-18T08:17:30Z</time>
      </trkpt>
      <trkpt lat="49.75388" lon="0.38215">
        <ele>22.2</ele>
        <time>2020-06-18T08:17:31Z</time>
      </trkpt>
      <trkpt lat="49.75389" lon="0.38218">
        <ele>22.1</ele>
        <time>2020-06-18T08:17:32Z</time>
      </trkpt>
      <trkpt lat="49.75388" lon="0.38222">
        <ele>22.1</ele>
        <time>2020-06-18T08:17:33Z</time>
      </trkpt>
      <trkpt lat="49.75388" lon="0.38229">
        <ele>22.1</ele>
        <time>2020-06-18T08:17:34Z</time>
      </trkpt>
      <trkpt lat="49.75387" lon="0.38231">
        <ele>22.1</ele>
        <time>2020-06-18T08:17:35Z</time>
      </trkpt>
      <trkpt lat="49.75385" lon="0.38236">
        <ele>22.2</ele>
        <time>2020-06-18T08:17:36Z</time>
      </trkpt>
      <trkpt lat="49.75382" lon="0.38241">
        <ele>22.2</ele>
        <time>2020-06-18T08:17:37Z</time>
      </trkpt>
      <trkpt lat="49.75378" lon="0.38246">
        <ele>22.4</ele>
        <time>2020-06-18T08:17:38Z</time>
      </trkpt>
      <trkpt lat="49.75375" lon="0.3825">
        <ele>22.5</ele>
        <time>2020-06-18T08:17:39Z</time>
      </trkpt>
      <trkpt lat="49.75372" lon="0.38253">
        <ele>22.6</ele>
        <time>2020-06-18T08:17:40Z</time>
      </trkpt>
      <trkpt lat="49.75369" lon="0.38257">
        <ele>22.7</ele>
        <time>2020-06-18T08:17:41Z</time>
      </trkpt>
      <trkpt lat="49.75366" lon="0.3826">
        <ele>22.8</ele>
        <time>2020-06-18T08:17:42Z</time>
      </trkpt>
      <trkpt lat="49.75364" lon="0.38264">
        <ele>22.9</ele>
        <time>2020-06-18T08:17:43Z</time>
      </trkpt>
      <trkpt lat="49.75361" lon="0.38269">
        <ele>23</ele>
        <time>2020-06-18T08:17:44Z</time>
      </trkpt>
      <trkpt lat="49.75358" lon="0.38274">
        <ele>23.2</ele>
        <time>2020-06-18T08:17:45Z</time>
      </trkpt>
      <trkpt lat="49.75356" lon="0.38278">
        <ele>23.3</ele>
        <time>2020-06-18T08:17:46Z</time>
      </trkpt>
      <trkpt lat="49.75355" lon="0.38283">
        <ele>23.4</ele>
        <time>2020-06-18T08:17:47Z</time>
      </trkpt>
      <trkpt lat="49.75352" lon="0.38288">
        <ele>23.5</ele>
        <time>2020-06-18T08:17:48Z</time>
      </trkpt>
      <trkpt lat="49.75348" lon="0.38293">
        <ele>23.7</ele>
        <time>2020-06-18T08:17:49Z</time>
      </trkpt>
      <trkpt lat="49.75346" lon="0.38298">
        <ele>23.8</ele>
        <time>2020-06-18T08:17:50Z</time>
      </trkpt>
      <trkpt lat="49.75343" lon="0.38302">
        <ele>23.9</ele>
        <time>2020-06-18T08:17:51Z</time>
      </trkpt>
      <trkpt lat="49.75341" lon="0.38305">
        <ele>24</ele>
        <time>2020-06-18T08:17:52Z</time>
      </trkpt>
      <trkpt lat="49.75338" lon="0.38309">
        <ele>24.1</ele>
        <time>2020-06-18T08:17:53Z</time>
      </trkpt>
      <trkpt lat="49.75334" lon="0.38311">
        <ele>24.2</ele>
        <time>2020-06-18T08:17:54Z</time>
      </trkpt>
      <trkpt lat="49.75331" lon="0.38314">
        <ele>24.3</ele>
        <time>2020-06-18T08:17:55Z</time>
      </trkpt>
      <trkpt lat="49.75328" lon="0.38318">
        <ele>24.4</ele>
        <time>2020-06-18T08:17:56Z</time>
      </trkpt>
      <trkpt lat="49.75326" lon="0.38323">
        <ele>24.5</ele>
        <time>2020-06-18T08:17:57Z</time>
      </trkpt>
      <trkpt lat="49.75323" lon="0.38326">
        <ele>24.6</ele>
        <time>2020-06-18T08:17:58Z</time>
      </trkpt>
      <trkpt lat="49.75321" lon="0.38329">
        <ele>24.6</ele>
        <time>2020-06-18T08:17:59Z</time>
      </trkpt>
      <trkpt lat="49.75319" lon="0.38332">
        <ele>24.7</ele>
        <time>2020-06-18T08:18:00Z</time>
      </trkpt>
      <trkpt lat="49.75317" lon="0.38337">
        <ele>24.7</ele>
        <time>2020-06-18T08:18:01Z</time>
      </trkpt>
      <trkpt lat="49.75316" lon="0.38339">
        <ele>24.7</ele>
        <time>2020-06-18T08:18:02Z</time>
      </trkpt>
      <trkpt lat="49.75314" lon="0.38343">
        <ele>24.8</ele>
        <time>2020-06-18T08:18:03Z</time>
      </trkpt>
      <trkpt lat="49.75312" lon="0.38348">
        <ele>24.8</ele>
        <time>2020-06-18T08:18:04Z</time>
      </trkpt>
      <trkpt lat="49.75311" lon="0.38351">
        <ele>24.8</ele>
        <time>2020-06-18T08:18:05Z</time>
      </trkpt>
      <trkpt lat="49.75309" lon="0.38356">
        <ele>24.8</ele>
        <time>2020-06-18T08:18:06Z</time>
      </trkpt>
      <trkpt lat="49.75307" lon="0.38363">
        <ele>24.8</ele>
        <time>2020-06-18T08:18:07Z</time>
      </trkpt>
      <trkpt lat="49.75305" lon="0.3837">
        <ele>24.7</ele>
        <time>2020-06-18T08:18:08Z</time>
      </trkpt>
      <trkpt lat="49.75303" lon="0.38377">
        <ele>24.7</ele>
        <time>2020-06-18T08:18:09Z</time>
      </trkpt>
      <trkpt lat="49.75301" lon="0.38383">
        <ele>24.7</ele>
        <time>2020-06-18T08:18:10Z</time>
      </trkpt>
      <trkpt lat="49.75299" lon="0.38391">
        <ele>24.6</ele>
        <time>2020-06-18T08:18:11Z</time>
      </trkpt>
      <trkpt lat="49.75298" lon="0.38397">
        <ele>24.6</ele>
        <time>2020-06-18T08:18:12Z</time>
      </trkpt>
      <trkpt lat="49.75296" lon="0.38403">
        <ele>24.6</ele>
        <time>2020-06-18T08:18:13Z</time>
      </trkpt>
      <trkpt lat="49.75296" lon="0.38412">
        <ele>24.6</ele>
        <time>2020-06-18T08:18:14Z</time>
      </trkpt>
      <trkpt lat="49.75292" lon="0.38418">
        <ele>24.6</ele>
        <time>2020-06-18T08:18:15Z</time>
      </trkpt>
      <trkpt lat="49.7529" lon="0.38423">
        <ele>24.6</ele>
        <time>2020-06-18T08:18:16Z</time>
      </trkpt>
      <trkpt lat="49.75288" lon="0.38429">
        <ele>24.6</ele>
        <time>2020-06-18T08:18:17Z</time>
      </trkpt>
      <trkpt lat="49.75287" lon="0.38436">
        <ele>24.7</ele>
        <time>2020-06-18T08:18:18Z</time>
      </trkpt>
      <trkpt lat="49.75285" lon="0.38442">
        <ele>24.8</ele>
        <time>2020-06-18T08:18:19Z</time>
      </trkpt>
      <trkpt lat="49.75284" lon="0.38449">
        <ele>24.8</ele>
        <time>2020-06-18T08:18:20Z</time>
      </trkpt>
      <trkpt lat="49.75284" lon="0.38456">
        <ele>24.9</ele>
        <time>2020-06-18T08:18:21Z</time>
      </trkpt>
      <trkpt lat="49.75281" lon="0.38463">
        <ele>25.1</ele>
        <time>2020-06-18T08:18:22Z</time>
      </trkpt>
      <trkpt lat="49.7528" lon="0.3847">
        <ele>25.2</ele>
        <time>2020-06-18T08:18:23Z</time>
      </trkpt>
      <trkpt lat="49.75279" lon="0.38477">
        <ele>25.2</ele>
        <time>2020-06-18T08:18:24Z</time>
      </trkpt>
      <trkpt lat="49.75277" lon="0.38483">
        <ele>25.3</ele>
        <time>2020-06-18T08:18:25Z</time>
      </trkpt>
      <trkpt lat="49.75276" lon="0.3849">
        <ele>25.3</ele>
        <time>2020-06-18T08:18:26Z</time>
      </trkpt>
      <trkpt lat="49.75275" lon="0.38496">
        <ele>25.3</ele>
        <time>2020-06-18T08:18:27Z</time>
      </trkpt>
      <trkpt lat="49.75275" lon="0.38503">
        <ele>25.4</ele>
        <time>2020-06-18T08:18:28Z</time>
      </trkpt>
      <trkpt lat="49.75273" lon="0.38509">
        <ele>25.4</ele>
        <time>2020-06-18T08:18:29Z</time>
      </trkpt>
      <trkpt lat="49.75271" lon="0.38517">
        <ele>25.4</ele>
        <time>2020-06-18T08:18:30Z</time>
      </trkpt>
      <trkpt lat="49.7527" lon="0.38524">
        <ele>25.4</ele>
        <time>2020-06-18T08:18:31Z</time>
      </trkpt>
      <trkpt lat="49.75269" lon="0.38528">
        <ele>25.4</ele>
        <time>2020-06-18T08:18:32Z</time>
      </trkpt>
      <trkpt lat="49.75268" lon="0.38533">
        <ele>25.4</ele>
        <time>2020-06-18T08:18:33Z</time>
      </trkpt>
      <trkpt lat="49.75266" lon="0.38538">
        <ele>25.4</ele>
        <time>2020-06-18T08:18:34Z</time>
      </trkpt>
      <trkpt lat="49.75266" lon="0.38544">
        <ele>25.4</ele>
        <time>2020-06-18T08:18:35Z</time>
      </trkpt>
      <trkpt lat="49.75265" lon="0.38549">
        <ele>25.5</ele>
        <time>2020-06-18T08:18:36Z</time>
      </trkpt>
      <trkpt lat="49.75264" lon="0.38553">
        <ele>25.5</ele>
        <time>2020-06-18T08:18:37Z</time>
      </trkpt>
      <trkpt lat="49.75263" lon="0.38554">
        <ele>25.5</ele>
        <time>2020-06-18T08:18:38Z</time>
      </trkpt>
      <trkpt lat="49.75262" lon="0.38557">
        <ele>25.5</ele>
        <time>2020-06-18T08:18:39Z</time>
      </trkpt>
      <trkpt lat="49.75262" lon="0.38559">
        <ele>25.5</ele>
        <time>2020-06-18T08:18:40Z</time>
      </trkpt>
      <trkpt lat="49.75262" lon="0.3856">
        <ele>25.5</ele>
        <time>2020-06-18T08:18:41Z</time>
      </trkpt>
      <trkpt lat="49.75266" lon="0.38559">
        <ele>25.3</ele>
        <time>2020-06-18T08:18:42Z</time>
      </trkpt>
      <trkpt lat="49.75268" lon="0.38562">
        <ele>25.2</ele>
        <time>2020-06-18T08:18:43Z</time>
      </trkpt>
      <trkpt lat="49.75269" lon="0.38564">
        <ele>25.1</ele>
        <time>2020-06-18T08:18:44Z</time>
      </trkpt>
      <trkpt lat="49.75272" lon="0.38566">
        <ele>25</ele>
        <time>2020-06-18T08:18:45Z</time>
      </trkpt>
      <trkpt lat="49.75276" lon="0.38568">
        <ele>24.7</ele>
        <time>2020-06-18T08:18:46Z</time>
      </trkpt>
      <trkpt lat="49.75279" lon="0.3857">
        <ele>24.4</ele>
        <time>2020-06-18T08:18:47Z</time>
      </trkpt>
      <trkpt lat="49.75283" lon="0.38574">
        <ele>24</ele>
        <time>2020-06-18T08:18:48Z</time>
      </trkpt>
      <trkpt lat="49.75286" lon="0.38575">
        <ele>23.7</ele>
        <time>2020-06-18T08:18:49Z</time>
      </trkpt>
      <trkpt lat="49.75291" lon="0.38576">
        <ele>23.3</ele>
        <time>2020-06-18T08:18:50Z</time>
      </trkpt>
      <trkpt lat="49.75296" lon="0.38577">
        <ele>23</ele>
        <time>2020-06-18T08:18:51Z</time>
      </trkpt>
      <trkpt lat="49.753" lon="0.38577">
        <ele>22.6</ele>
        <time>2020-06-18T08:18:52Z</time>
      </trkpt>
      <trkpt lat="49.75304" lon="0.38578">
        <ele>22.3</ele>
        <time>2020-06-18T08:18:53Z</time>
      </trkpt>
      <trkpt lat="49.75308" lon="0.38578">
        <ele>21.9</ele>
        <time>2020-06-18T08:18:54Z</time>
      </trkpt>
      <trkpt lat="49.75313" lon="0.38581">
        <ele>21.5</ele>
        <time>2020-06-18T08:18:55Z</time>
      </trkpt>
      <trkpt lat="49.75317" lon="0.38588">
        <ele>21</ele>
        <time>2020-06-18T08:18:56Z</time>
      </trkpt>
      <trkpt lat="49.75321" lon="0.3859">
        <ele>20.6</ele>
        <time>2020-06-18T08:18:57Z</time>
      </trkpt>
      <trkpt lat="49.75325" lon="0.38591">
        <ele>20.4</ele>
        <time>2020-06-18T08:18:58Z</time>
      </trkpt>
      <trkpt lat="49.7533" lon="0.38594">
        <ele>20.1</ele>
        <time>2020-06-18T08:18:59Z</time>
      </trkpt>
      <trkpt lat="49.75332" lon="0.38597">
        <ele>19.2</ele>
        <time>2020-06-18T08:19:00Z</time>
      </trkpt>
      <trkpt lat="49.75334" lon="0.38604">
        <ele>19.2</ele>
        <time>2020-06-18T08:19:01Z</time>
      </trkpt>
      <trkpt lat="49.75334" lon="0.38611">
        <ele>19.2</ele>
        <time>2020-06-18T08:19:02Z</time>
      </trkpt>
      <trkpt lat="49.75336" lon="0.38614">
        <ele>18.7</ele>
        <time>2020-06-18T08:19:03Z</time>
      </trkpt>
      <trkpt lat="49.75339" lon="0.38617">
        <ele>18.7</ele>
        <time>2020-06-18T08:19:04Z</time>
      </trkpt>
      <trkpt lat="49.75342" lon="0.38619">
        <ele>18.7</ele>
        <time>2020-06-18T08:19:05Z</time>
      </trkpt>
      <trkpt lat="49.75345" lon="0.38621">
        <ele>18.6</ele>
        <time>2020-06-18T08:19:06Z</time>
      </trkpt>
      <trkpt lat="49.75348" lon="0.38624">
        <ele>18.7</ele>
        <time>2020-06-18T08:19:07Z</time>
      </trkpt>
      <trkpt lat="49.75349" lon="0.38626">
        <ele>18.7</ele>
        <time>2020-06-18T08:19:08Z</time>
      </trkpt>
      <trkpt lat="49.75351" lon="0.38629">
        <ele>18.8</ele>
        <time>2020-06-18T08:19:09Z</time>
      </trkpt>
      <trkpt lat="49.75354" lon="0.38637">
        <ele>18.9</ele>
        <time>2020-06-18T08:19:10Z</time>
      </trkpt>
      <trkpt lat="49.75353" lon="0.38644">
        <ele>19</ele>
        <time>2020-06-18T08:19:11Z</time>
      </trkpt>
      <trkpt lat="49.75352" lon="0.3865">
        <ele>19.1</ele>
        <time>2020-06-18T08:19:12Z</time>
      </trkpt>
      <trkpt lat="49.7535" lon="0.38657">
        <ele>19.2</ele>
        <time>2020-06-18T08:19:13Z</time>
      </trkpt>
      <trkpt lat="49.75349" lon="0.38665">
        <ele>19.3</ele>
        <time>2020-06-18T08:19:14Z</time>
      </trkpt>
      <trkpt lat="49.75347" lon="0.38672">
        <ele>19.3</ele>
        <time>2020-06-18T08:19:15Z</time>
      </trkpt>
      <trkpt lat="49.75344" lon="0.38679">
        <ele>19.4</ele>
        <time>2020-06-18T08:19:16Z</time>
      </trkpt>
      <trkpt lat="49.75343" lon="0.38689">
        <ele>19.4</ele>
        <time>2020-06-18T08:19:17Z</time>
      </trkpt>
      <trkpt lat="49.75341" lon="0.38698">
        <ele>19.5</ele>
        <time>2020-06-18T08:19:18Z</time>
      </trkpt>
      <trkpt lat="49.7534" lon="0.38706">
        <ele>19.5</ele>
        <time>2020-06-18T08:19:19Z</time>
      </trkpt>
      <trkpt lat="49.75338" lon="0.38715">
        <ele>19.6</ele>
        <time>2020-06-18T08:19:20Z</time>
      </trkpt>
      <trkpt lat="49.75336" lon="0.38722">
        <ele>19.6</ele>
        <time>2020-06-18T08:19:21Z</time>
      </trkpt>
      <trkpt lat="49.75334" lon="0.3873">
        <ele>19.6</ele>
        <time>2020-06-18T08:19:22Z</time>
      </trkpt>
      <trkpt lat="49.75333" lon="0.38737">
        <ele>19.7</ele>
        <time>2020-06-18T08:19:23Z</time>
      </trkpt>
      <trkpt lat="49.75332" lon="0.38745">
        <ele>19.7</ele>
        <time>2020-06-18T08:19:24Z</time>
      </trkpt>
      <trkpt lat="49.75331" lon="0.38752">
        <ele>19.8</ele>
        <time>2020-06-18T08:19:25Z</time>
      </trkpt>
      <trkpt lat="49.7533" lon="0.3876">
        <ele>19.8</ele>
        <time>2020-06-18T08:19:26Z</time>
      </trkpt>
      <trkpt lat="49.75329" lon="0.38767">
        <ele>19.9</ele>
        <time>2020-06-18T08:19:27Z</time>
      </trkpt>
      <trkpt lat="49.75328" lon="0.38773">
        <ele>19.9</ele>
        <time>2020-06-18T08:19:28Z</time>
      </trkpt>
      <trkpt lat="49.75327" lon="0.3878">
        <ele>19.9</ele>
        <time>2020-06-18T08:19:29Z</time>
      </trkpt>
      <trkpt lat="49.75327" lon="0.38787">
        <ele>19.9</ele>
        <time>2020-06-18T08:19:30Z</time>
      </trkpt>
      <trkpt lat="49.75326" lon="0.38795">
        <ele>19.9</ele>
        <time>2020-06-18T08:19:31Z</time>
      </trkpt>
      <trkpt lat="49.75325" lon="0.38802">
        <ele>19.9</ele>
        <time>2020-06-18T08:19:32Z</time>
      </trkpt>
      <trkpt lat="49.75325" lon="0.38809">
        <ele>20</ele>
        <time>2020-06-18T08:19:33Z</time>
      </trkpt>
      <trkpt lat="49.75324" lon="0.38816">
        <ele>20</ele>
        <time>2020-06-18T08:19:34Z</time>
      </trkpt>
      <trkpt lat="49.75323" lon="0.38823">
        <ele>20</ele>
        <time>2020-06-18T08:19:35Z</time>
      </trkpt>
      <trkpt lat="49.75322" lon="0.38831">
        <ele>20.1</ele>
        <time>2020-06-18T08:19:36Z</time>
      </trkpt>
      <trkpt lat="49.75321" lon="0.3884">
        <ele>20.1</ele>
        <time>2020-06-18T08:19:37Z</time>
      </trkpt>
      <trkpt lat="49.7532" lon="0.38847">
        <ele>20.2</ele>
        <time>2020-06-18T08:19:38Z</time>
      </trkpt>
      <trkpt lat="49.7532" lon="0.38854">
        <ele>20.2</ele>
        <time>2020-06-18T08:19:39Z</time>
      </trkpt>
      <trkpt lat="49.75319" lon="0.38861">
        <ele>20.3</ele>
        <time>2020-06-18T08:19:40Z</time>
      </trkpt>
      <trkpt lat="49.75318" lon="0.38869">
        <ele>20.3</ele>
        <time>2020-06-18T08:19:41Z</time>
      </trkpt>
      <trkpt lat="49.75318" lon="0.38876">
        <ele>20.4</ele>
        <time>2020-06-18T08:19:42Z</time>
      </trkpt>
      <trkpt lat="49.75317" lon="0.38883">
        <ele>20.5</ele>
        <time>2020-06-18T08:19:43Z</time>
      </trkpt>
      <trkpt lat="49.75316" lon="0.38889">
        <ele>20.6</ele>
        <time>2020-06-18T08:19:44Z</time>
      </trkpt>
      <trkpt lat="49.75314" lon="0.38898">
        <ele>20.7</ele>
        <time>2020-06-18T08:19:45Z</time>
      </trkpt>
      <trkpt lat="49.75312" lon="0.38905">
        <ele>20.8</ele>
        <time>2020-06-18T08:19:46Z</time>
      </trkpt>
      <trkpt lat="49.75312" lon="0.38914">
        <ele>20.8</ele>
        <time>2020-06-18T08:19:47Z</time>
      </trkpt>
      <trkpt lat="49.75311" lon="0.38921">
        <ele>20.9</ele>
        <time>2020-06-18T08:19:48Z</time>
      </trkpt>
      <trkpt lat="49.7531" lon="0.38929">
        <ele>20.9</ele>
        <time>2020-06-18T08:19:49Z</time>
      </trkpt>
      <trkpt lat="49.75309" lon="0.38938">
        <ele>20.9</ele>
        <time>2020-06-18T08:19:50Z</time>
      </trkpt>
      <trkpt lat="49.75308" lon="0.38946">
        <ele>20.9</ele>
        <time>2020-06-18T08:19:51Z</time>
      </trkpt>
      <trkpt lat="49.75307" lon="0.38954">
        <ele>20.9</ele>
        <time>2020-06-18T08:19:52Z</time>
      </trkpt>
      <trkpt lat="49.75306" lon="0.38962">
        <ele>20.9</ele>
        <time>2020-06-18T08:19:53Z</time>
      </trkpt>
      <trkpt lat="49.75304" lon="0.38969">
        <ele>20.9</ele>
        <time>2020-06-18T08:19:54Z</time>
      </trkpt>
      <trkpt lat="49.75303" lon="0.38977">
        <ele>21</ele>
        <time>2020-06-18T08:19:55Z</time>
      </trkpt>
      <trkpt lat="49.75302" lon="0.38985">
        <ele>21</ele>
        <time>2020-06-18T08:19:56Z</time>
      </trkpt>
      <trkpt lat="49.753" lon="0.38993">
        <ele>21.1</ele>
        <time>2020-06-18T08:19:57Z</time>
      </trkpt>
      <trkpt lat="49.75299" lon="0.39001">
        <ele>21.1</ele>
        <time>2020-06-18T08:19:58Z</time>
      </trkpt>
      <trkpt lat="49.75298" lon="0.39009">
        <ele>21.1</ele>
        <time>2020-06-18T08:19:59Z</time>
      </trkpt>
      <trkpt lat="49.75297" lon="0.39016">
        <ele>21.1</ele>
        <time>2020-06-18T08:20:00Z</time>
      </trkpt>
      <trkpt lat="49.75297" lon="0.39024">
        <ele>21.2</ele>
        <time>2020-06-18T08:20:01Z</time>
      </trkpt>
      <trkpt lat="49.75295" lon="0.39032">
        <ele>21.2</ele>
        <time>2020-06-18T08:20:02Z</time>
      </trkpt>
      <trkpt lat="49.75294" lon="0.39041">
        <ele>21.2</ele>
        <time>2020-06-18T08:20:03Z</time>
      </trkpt>
      <trkpt lat="49.75293" lon="0.39049">
        <ele>21.2</ele>
        <time>2020-06-18T08:20:04Z</time>
      </trkpt>
      <trkpt lat="49.75292" lon="0.39057">
        <ele>21.2</ele>
        <time>2020-06-18T08:20:05Z</time>
      </trkpt>
      <trkpt lat="49.7529" lon="0.39066">
        <ele>21.1</ele>
        <time>2020-06-18T08:20:06Z</time>
      </trkpt>
      <trkpt lat="49.75288" lon="0.39074">
        <ele>21.1</ele>
        <time>2020-06-18T08:20:07Z</time>
      </trkpt>
      <trkpt lat="49.75287" lon="0.39083">
        <ele>21.1</ele>
        <time>2020-06-18T08:20:08Z</time>
      </trkpt>
      <trkpt lat="49.75286" lon="0.39092">
        <ele>21</ele>
        <time>2020-06-18T08:20:09Z</time>
      </trkpt>
      <trkpt lat="49.75285" lon="0.391">
        <ele>21</ele>
        <time>2020-06-18T08:20:10Z</time>
      </trkpt>
      <trkpt lat="49.75285" lon="0.39109">
        <ele>20.9</ele>
        <time>2020-06-18T08:20:11Z</time>
      </trkpt>
      <trkpt lat="49.75284" lon="0.39118">
        <ele>20.9</ele>
        <time>2020-06-18T08:20:12Z</time>
      </trkpt>
      <trkpt lat="49.75282" lon="0.39126">
        <ele>20.9</ele>
        <time>2020-06-18T08:20:13Z</time>
      </trkpt>
      <trkpt lat="49.7528" lon="0.39135">
        <ele>20.8</ele>
        <time>2020-06-18T08:20:14Z</time>
      </trkpt>
      <trkpt lat="49.75279" lon="0.39144">
        <ele>20.8</ele>
        <time>2020-06-18T08:20:15Z</time>
      </trkpt>
      <trkpt lat="49.75278" lon="0.39152">
        <ele>20.9</ele>
        <time>2020-06-18T08:20:16Z</time>
      </trkpt>
      <trkpt lat="49.75277" lon="0.39162">
        <ele>20.9</ele>
        <time>2020-06-18T08:20:17Z</time>
      </trkpt>
      <trkpt lat="49.75275" lon="0.3917">
        <ele>20.8</ele>
        <time>2020-06-18T08:20:18Z</time>
      </trkpt>
      <trkpt lat="49.75274" lon="0.3918">
        <ele>20.8</ele>
        <time>2020-06-18T08:20:19Z</time>
      </trkpt>
      <trkpt lat="49.75272" lon="0.3919">
        <ele>20.8</ele>
        <time>2020-06-18T08:20:20Z</time>
      </trkpt>
      <trkpt lat="49.75271" lon="0.39199">
        <ele>20.8</ele>
        <time>2020-06-18T08:20:21Z</time>
      </trkpt>
      <trkpt lat="49.75267" lon="0.39208">
        <ele>20.8</ele>
        <time>2020-06-18T08:20:22Z</time>
      </trkpt>
      <trkpt lat="49.75265" lon="0.39216">
        <ele>20.7</ele>
        <time>2020-06-18T08:20:23Z</time>
      </trkpt>
      <trkpt lat="49.75263" lon="0.39226">
        <ele>20.7</ele>
        <time>2020-06-18T08:20:24Z</time>
      </trkpt>
      <trkpt lat="49.75261" lon="0.39235">
        <ele>20.7</ele>
        <time>2020-06-18T08:20:25Z</time>
      </trkpt>
      <trkpt lat="49.7526" lon="0.39243">
        <ele>20.6</ele>
        <time>2020-06-18T08:20:26Z</time>
      </trkpt>
      <trkpt lat="49.75258" lon="0.39253">
        <ele>20.6</ele>
        <time>2020-06-18T08:20:27Z</time>
      </trkpt>
      <trkpt lat="49.75256" lon="0.39262">
        <ele>20.6</ele>
        <time>2020-06-18T08:20:28Z</time>
      </trkpt>
      <trkpt lat="49.75256" lon="0.39271">
        <ele>20.6</ele>
        <time>2020-06-18T08:20:29Z</time>
      </trkpt>
      <trkpt lat="49.75254" lon="0.39278">
        <ele>20.6</ele>
        <time>2020-06-18T08:20:30Z</time>
      </trkpt>
      <trkpt lat="49.75253" lon="0.39286">
        <ele>20.5</ele>
        <time>2020-06-18T08:20:31Z</time>
      </trkpt>
      <trkpt lat="49.75252" lon="0.39295">
        <ele>20.5</ele>
        <time>2020-06-18T08:20:32Z</time>
      </trkpt>
      <trkpt lat="49.75251" lon="0.39303">
        <ele>20.4</ele>
        <time>2020-06-18T08:20:33Z</time>
      </trkpt>
      <trkpt lat="49.7525" lon="0.39314">
        <ele>20.4</ele>
        <time>2020-06-18T08:20:34Z</time>
      </trkpt>
      <trkpt lat="49.75248" lon="0.39323">
        <ele>20.4</ele>
        <time>2020-06-18T08:20:35Z</time>
      </trkpt>
      <trkpt lat="49.75247" lon="0.39332">
        <ele>20.4</ele>
        <time>2020-06-18T08:20:36Z</time>
      </trkpt>
      <trkpt lat="49.75246" lon="0.39342">
        <ele>20.3</ele>
        <time>2020-06-18T08:20:37Z</time>
      </trkpt>
      <trkpt lat="49.75244" lon="0.39351">
        <ele>20.3</ele>
        <time>2020-06-18T08:20:38Z</time>
      </trkpt>
      <trkpt lat="49.75243" lon="0.39361">
        <ele>20.3</ele>
        <time>2020-06-18T08:20:39Z</time>
      </trkpt>
      <trkpt lat="49.75241" lon="0.39369">
        <ele>20.3</ele>
        <time>2020-06-18T08:20:40Z</time>
      </trkpt>
      <trkpt lat="49.7524" lon="0.39377">
        <ele>20.3</ele>
        <time>2020-06-18T08:20:41Z</time>
      </trkpt>
      <trkpt lat="49.75239" lon="0.39386">
        <ele>20.3</ele>
        <time>2020-06-18T08:20:42Z</time>
      </trkpt>
      <trkpt lat="49.75238" lon="0.39393">
        <ele>20.2</ele>
        <time>2020-06-18T08:20:43Z</time>
      </trkpt>
      <trkpt lat="49.75238" lon="0.39399">
        <ele>20.2</ele>
        <time>2020-06-18T08:20:44Z</time>
      </trkpt>
      <trkpt lat="49.75237" lon="0.39407">
        <ele>20.2</ele>
        <time>2020-06-18T08:20:45Z</time>
      </trkpt>
      <trkpt lat="49.75237" lon="0.39414">
        <ele>20.1</ele>
        <time>2020-06-18T08:20:46Z</time>
      </trkpt>
      <trkpt lat="49.75235" lon="0.39423">
        <ele>20.1</ele>
        <time>2020-06-18T08:20:47Z</time>
      </trkpt>
      <trkpt lat="49.75234" lon="0.39431">
        <ele>20.1</ele>
        <time>2020-06-18T08:20:48Z</time>
      </trkpt>
      <trkpt lat="49.75233" lon="0.39439">
        <ele>20.1</ele>
        <time>2020-06-18T08:20:49Z</time>
      </trkpt>
      <trkpt lat="49.75232" lon="0.39447">
        <ele>20.2</ele>
        <time>2020-06-18T08:20:50Z</time>
      </trkpt>
      <trkpt lat="49.7523" lon="0.39456">
        <ele>20.2</ele>
        <time>2020-06-18T08:20:51Z</time>
      </trkpt>
      <trkpt lat="49.75229" lon="0.39463">
        <ele>20.2</ele>
        <time>2020-06-18T08:20:52Z</time>
      </trkpt>
      <trkpt lat="49.75228" lon="0.39471">
        <ele>20.3</ele>
        <time>2020-06-18T08:20:53Z</time>
      </trkpt>
      <trkpt lat="49.75227" lon="0.3948">
        <ele>20.3</ele>
        <time>2020-06-18T08:20:54Z</time>
      </trkpt>
      <trkpt lat="49.75225" lon="0.39489">
        <ele>20.3</ele>
        <time>2020-06-18T08:20:55Z</time>
      </trkpt>
      <trkpt lat="49.75224" lon="0.39497">
        <ele>20.3</ele>
        <time>2020-06-18T08:20:56Z</time>
      </trkpt>
      <trkpt lat="49.75222" lon="0.39506">
        <ele>20.3</ele>
        <time>2020-06-18T08:20:57Z</time>
      </trkpt>
      <trkpt lat="49.75221" lon="0.39515">
        <ele>20.3</ele>
        <time>2020-06-18T08:20:58Z</time>
      </trkpt>
      <trkpt lat="49.7522" lon="0.39525">
        <ele>20.2</ele>
        <time>2020-06-18T08:20:59Z</time>
      </trkpt>
      <trkpt lat="49.75218" lon="0.39535">
        <ele>20.2</ele>
        <time>2020-06-18T08:21:00Z</time>
      </trkpt>
      <trkpt lat="49.75216" lon="0.39543">
        <ele>20.2</ele>
        <time>2020-06-18T08:21:01Z</time>
      </trkpt>
      <trkpt lat="49.75214" lon="0.39551">
        <ele>20.1</ele>
        <time>2020-06-18T08:21:02Z</time>
      </trkpt>
      <trkpt lat="49.75213" lon="0.3956">
        <ele>20.1</ele>
        <time>2020-06-18T08:21:03Z</time>
      </trkpt>
      <trkpt lat="49.75211" lon="0.3957">
        <ele>20</ele>
        <time>2020-06-18T08:21:04Z</time>
      </trkpt>
      <trkpt lat="49.7521" lon="0.39579">
        <ele>20</ele>
        <time>2020-06-18T08:21:05Z</time>
      </trkpt>
      <trkpt lat="49.75208" lon="0.39587">
        <ele>19.9</ele>
        <time>2020-06-18T08:21:06Z</time>
      </trkpt>
      <trkpt lat="49.75207" lon="0.39595">
        <ele>19.9</ele>
        <time>2020-06-18T08:21:07Z</time>
      </trkpt>
      <trkpt lat="49.75205" lon="0.39604">
        <ele>19.8</ele>
        <time>2020-06-18T08:21:08Z</time>
      </trkpt>
      <trkpt lat="49.75203" lon="0.39613">
        <ele>19.8</ele>
        <time>2020-06-18T08:21:09Z</time>
      </trkpt>
      <trkpt lat="49.75201" lon="0.39622">
        <ele>19.8</ele>
        <time>2020-06-18T08:21:10Z</time>
      </trkpt>
      <trkpt lat="49.752" lon="0.39631">
        <ele>19.8</ele>
        <time>2020-06-18T08:21:11Z</time>
      </trkpt>
      <trkpt lat="49.75199" lon="0.39639">
        <ele>19.8</ele>
        <time>2020-06-18T08:21:12Z</time>
      </trkpt>
      <trkpt lat="49.75198" lon="0.39648">
        <ele>19.7</ele>
        <time>2020-06-18T08:21:13Z</time>
      </trkpt>
      <trkpt lat="49.75197" lon="0.39656">
        <ele>19.7</ele>
        <time>2020-06-18T08:21:14Z</time>
      </trkpt>
      <trkpt lat="49.75196" lon="0.39664">
        <ele>19.7</ele>
        <time>2020-06-18T08:21:15Z</time>
      </trkpt>
      <trkpt lat="49.75196" lon="0.39673">
        <ele>19.7</ele>
        <time>2020-06-18T08:21:16Z</time>
      </trkpt>
      <trkpt lat="49.75195" lon="0.39681">
        <ele>19.7</ele>
        <time>2020-06-18T08:21:17Z</time>
      </trkpt>
      <trkpt lat="49.75194" lon="0.39692">
        <ele>19.6</ele>
        <time>2020-06-18T08:21:18Z</time>
      </trkpt>
      <trkpt lat="49.75193" lon="0.39701">
        <ele>19.6</ele>
        <time>2020-06-18T08:21:19Z</time>
      </trkpt>
      <trkpt lat="49.75191" lon="0.39711">
        <ele>19.5</ele>
        <time>2020-06-18T08:21:20Z</time>
      </trkpt>
      <trkpt lat="49.7519" lon="0.3972">
        <ele>19.5</ele>
        <time>2020-06-18T08:21:21Z</time>
      </trkpt>
      <trkpt lat="49.75188" lon="0.39728">
        <ele>19.5</ele>
        <time>2020-06-18T08:21:22Z</time>
      </trkpt>
      <trkpt lat="49.75186" lon="0.39736">
        <ele>19.5</ele>
        <time>2020-06-18T08:21:23Z</time>
      </trkpt>
      <trkpt lat="49.75185" lon="0.39744">
        <ele>19.5</ele>
        <time>2020-06-18T08:21:24Z</time>
      </trkpt>
      <trkpt lat="49.75184" lon="0.39753">
        <ele>19.5</ele>
        <time>2020-06-18T08:21:25Z</time>
      </trkpt>
      <trkpt lat="49.75183" lon="0.39761">
        <ele>19.5</ele>
        <time>2020-06-18T08:21:26Z</time>
      </trkpt>
      <trkpt lat="49.75183" lon="0.3977">
        <ele>19.5</ele>
        <time>2020-06-18T08:21:27Z</time>
      </trkpt>
      <trkpt lat="49.75182" lon="0.39778">
        <ele>19.5</ele>
        <time>2020-06-18T08:21:28Z</time>
      </trkpt>
      <trkpt lat="49.75181" lon="0.39787">
        <ele>19.4</ele>
        <time>2020-06-18T08:21:29Z</time>
      </trkpt>
      <trkpt lat="49.75179" lon="0.39796">
        <ele>19.4</ele>
        <time>2020-06-18T08:21:30Z</time>
      </trkpt>
      <trkpt lat="49.75178" lon="0.39804">
        <ele>19.4</ele>
        <time>2020-06-18T08:21:31Z</time>
      </trkpt>
      <trkpt lat="49.75177" lon="0.39813">
        <ele>19.3</ele>
        <time>2020-06-18T08:21:32Z</time>
      </trkpt>
      <trkpt lat="49.75175" lon="0.39822">
        <ele>19.3</ele>
        <time>2020-06-18T08:21:33Z</time>
      </trkpt>
      <trkpt lat="49.75174" lon="0.39831">
        <ele>19.3</ele>
        <time>2020-06-18T08:21:34Z</time>
      </trkpt>
      <trkpt lat="49.75173" lon="0.3984">
        <ele>19.2</ele>
        <time>2020-06-18T08:21:35Z</time>
      </trkpt>
      <trkpt lat="49.75171" lon="0.39849">
        <ele>19.2</ele>
        <time>2020-06-18T08:21:36Z</time>
      </trkpt>
      <trkpt lat="49.7517" lon="0.39857">
        <ele>19.1</ele>
        <time>2020-06-18T08:21:37Z</time>
      </trkpt>
      <trkpt lat="49.75169" lon="0.39866">
        <ele>19.1</ele>
        <time>2020-06-18T08:21:38Z</time>
      </trkpt>
      <trkpt lat="49.75167" lon="0.39875">
        <ele>19.1</ele>
        <time>2020-06-18T08:21:39Z</time>
      </trkpt>
      <trkpt lat="49.75163" lon="0.39882">
        <ele>19.1</ele>
        <time>2020-06-18T08:21:40Z</time>
      </trkpt>
      <trkpt lat="49.7516" lon="0.39891">
        <ele>19</ele>
        <time>2020-06-18T08:21:41Z</time>
      </trkpt>
      <trkpt lat="49.75159" lon="0.39902">
        <ele>19</ele>
        <time>2020-06-18T08:21:42Z</time>
      </trkpt>
      <trkpt lat="49.75158" lon="0.39912">
        <ele>19</ele>
        <time>2020-06-18T08:21:43Z</time>
      </trkpt>
      <trkpt lat="49.75156" lon="0.39921">
        <ele>18.9</ele>
        <time>2020-06-18T08:21:44Z</time>
      </trkpt>
      <trkpt lat="49.75154" lon="0.39931">
        <ele>18.9</ele>
        <time>2020-06-18T08:21:45Z</time>
      </trkpt>
      <trkpt lat="49.75152" lon="0.39941">
        <ele>18.8</ele>
        <time>2020-06-18T08:21:46Z</time>
      </trkpt>
      <trkpt lat="49.75152" lon="0.39951">
        <ele>18.7</ele>
        <time>2020-06-18T08:21:47Z</time>
      </trkpt>
      <trkpt lat="49.7515" lon="0.3996">
        <ele>18.7</ele>
        <time>2020-06-18T08:21:48Z</time>
      </trkpt>
      <trkpt lat="49.75149" lon="0.39968">
        <ele>18.6</ele>
        <time>2020-06-18T08:21:49Z</time>
      </trkpt>
      <trkpt lat="49.75149" lon="0.39978">
        <ele>18.5</ele>
        <time>2020-06-18T08:21:50Z</time>
      </trkpt>
      <trkpt lat="49.75148" lon="0.39988">
        <ele>18.5</ele>
        <time>2020-06-18T08:21:51Z</time>
      </trkpt>
      <trkpt lat="49.75147" lon="0.39998">
        <ele>18.4</ele>
        <time>2020-06-18T08:21:52Z</time>
      </trkpt>
      <trkpt lat="49.75145" lon="0.40007">
        <ele>18.4</ele>
        <time>2020-06-18T08:21:53Z</time>
      </trkpt>
      <trkpt lat="49.75143" lon="0.40015">
        <ele>18.3</ele>
        <time>2020-06-18T08:21:54Z</time>
      </trkpt>
      <trkpt lat="49.75141" lon="0.40024">
        <ele>18.2</ele>
        <time>2020-06-18T08:21:55Z</time>
      </trkpt>
      <trkpt lat="49.7514" lon="0.40035">
        <ele>18.1</ele>
        <time>2020-06-18T08:21:56Z</time>
      </trkpt>
      <trkpt lat="49.75138" lon="0.40045">
        <ele>18</ele>
        <time>2020-06-18T08:21:57Z</time>
      </trkpt>
      <trkpt lat="49.75136" lon="0.40055">
        <ele>17.9</ele>
        <time>2020-06-18T08:21:58Z</time>
      </trkpt>
      <trkpt lat="49.75134" lon="0.40064">
        <ele>17.9</ele>
        <time>2020-06-18T08:21:59Z</time>
      </trkpt>
      <trkpt lat="49.75132" lon="0.40073">
        <ele>17.9</ele>
        <time>2020-06-18T08:22:00Z</time>
      </trkpt>
      <trkpt lat="49.75131" lon="0.40081">
        <ele>17.9</ele>
        <time>2020-06-18T08:22:01Z</time>
      </trkpt>
      <trkpt lat="49.75129" lon="0.40091">
        <ele>17.9</ele>
        <time>2020-06-18T08:22:02Z</time>
      </trkpt>
      <trkpt lat="49.75128" lon="0.401">
        <ele>17.9</ele>
        <time>2020-06-18T08:22:03Z</time>
      </trkpt>
      <trkpt lat="49.75126" lon="0.4011">
        <ele>17.9</ele>
        <time>2020-06-18T08:22:04Z</time>
      </trkpt>
      <trkpt lat="49.75125" lon="0.40121">
        <ele>17.8</ele>
        <time>2020-06-18T08:22:05Z</time>
      </trkpt>
      <trkpt lat="49.75123" lon="0.40131">
        <ele>17.7</ele>
        <time>2020-06-18T08:22:06Z</time>
      </trkpt>
      <trkpt lat="49.75121" lon="0.40141">
        <ele>17.7</ele>
        <time>2020-06-18T08:22:07Z</time>
      </trkpt>
      <trkpt lat="49.7512" lon="0.40153">
        <ele>17.6</ele>
        <time>2020-06-18T08:22:08Z</time>
      </trkpt>
      <trkpt lat="49.75118" lon="0.40162">
        <ele>17.5</ele>
        <time>2020-06-18T08:22:09Z</time>
      </trkpt>
      <trkpt lat="49.75117" lon="0.40172">
        <ele>17.4</ele>
        <time>2020-06-18T08:22:10Z</time>
      </trkpt>
      <trkpt lat="49.75115" lon="0.40182">
        <ele>17.4</ele>
        <time>2020-06-18T08:22:11Z</time>
      </trkpt>
      <trkpt lat="49.75114" lon="0.4019">
        <ele>17.3</ele>
        <time>2020-06-18T08:22:12Z</time>
      </trkpt>
      <trkpt lat="49.75112" lon="0.402">
        <ele>17.3</ele>
        <time>2020-06-18T08:22:13Z</time>
      </trkpt>
      <trkpt lat="49.7511" lon="0.4021">
        <ele>17.2</ele>
        <time>2020-06-18T08:22:14Z</time>
      </trkpt>
      <trkpt lat="49.75109" lon="0.40219">
        <ele>17.2</ele>
        <time>2020-06-18T08:22:15Z</time>
      </trkpt>
      <trkpt lat="49.75108" lon="0.40228">
        <ele>17.2</ele>
        <time>2020-06-18T08:22:16Z</time>
      </trkpt>
      <trkpt lat="49.75106" lon="0.40238">
        <ele>17.1</ele>
        <time>2020-06-18T08:22:17Z</time>
      </trkpt>
      <trkpt lat="49.75104" lon="0.40248">
        <ele>17</ele>
        <time>2020-06-18T08:22:18Z</time>
      </trkpt>
      <trkpt lat="49.75103" lon="0.40256">
        <ele>17</ele>
        <time>2020-06-18T08:22:19Z</time>
      </trkpt>
      <trkpt lat="49.75101" lon="0.40265">
        <ele>16.9</ele>
        <time>2020-06-18T08:22:20Z</time>
      </trkpt>
      <trkpt lat="49.75099" lon="0.40273">
        <ele>16.9</ele>
        <time>2020-06-18T08:22:21Z</time>
      </trkpt>
      <trkpt lat="49.75098" lon="0.40281">
        <ele>16.9</ele>
        <time>2020-06-18T08:22:22Z</time>
      </trkpt>
      <trkpt lat="49.75096" lon="0.40288">
        <ele>16.9</ele>
        <time>2020-06-18T08:22:23Z</time>
      </trkpt>
      <trkpt lat="49.75094" lon="0.40295">
        <ele>16.9</ele>
        <time>2020-06-18T08:22:24Z</time>
      </trkpt>
      <trkpt lat="49.75092" lon="0.40301">
        <ele>17</ele>
        <time>2020-06-18T08:22:25Z</time>
      </trkpt>
      <trkpt lat="49.75091" lon="0.40306">
        <ele>17</ele>
        <time>2020-06-18T08:22:26Z</time>
      </trkpt>
      <trkpt lat="49.75089" lon="0.4031">
        <ele>17</ele>
        <time>2020-06-18T08:22:27Z</time>
      </trkpt>
      <trkpt lat="49.75086" lon="0.40311">
        <ele>17</ele>
        <time>2020-06-18T08:22:28Z</time>
      </trkpt>
      <trkpt lat="49.75083" lon="0.40314">
        <ele>17</ele>
        <time>2020-06-18T08:22:29Z</time>
      </trkpt>
      <trkpt lat="49.75081" lon="0.40316">
        <ele>17</ele>
        <time>2020-06-18T08:22:30Z</time>
      </trkpt>
      <trkpt lat="49.75077" lon="0.40319">
        <ele>17</ele>
        <time>2020-06-18T08:22:31Z</time>
      </trkpt>
      <trkpt lat="49.75073" lon="0.40322">
        <ele>17</ele>
        <time>2020-06-18T08:22:32Z</time>
      </trkpt>
      <trkpt lat="49.7507" lon="0.40327">
        <ele>17.3</ele>
        <time>2020-06-18T08:22:33Z</time>
      </trkpt>
      <trkpt lat="49.75069" lon="0.40334">
        <ele>17.4</ele>
        <time>2020-06-18T08:22:34Z</time>
      </trkpt>
      <trkpt lat="49.7507" lon="0.40341">
        <ele>17.5</ele>
        <time>2020-06-18T08:22:35Z</time>
      </trkpt>
      <trkpt lat="49.75072" lon="0.40347">
        <ele>17.9</ele>
        <time>2020-06-18T08:22:36Z</time>
      </trkpt>
      <trkpt lat="49.75076" lon="0.40351">
        <ele>17.9</ele>
        <time>2020-06-18T08:22:37Z</time>
      </trkpt>
      <trkpt lat="49.7508" lon="0.40353">
        <ele>17.8</ele>
        <time>2020-06-18T08:22:38Z</time>
      </trkpt>
      <trkpt lat="49.75084" lon="0.40358">
        <ele>17.8</ele>
        <time>2020-06-18T08:22:39Z</time>
      </trkpt>
      <trkpt lat="49.75089" lon="0.40362">
        <ele>17.6</ele>
        <time>2020-06-18T08:22:40Z</time>
      </trkpt>
      <trkpt lat="49.75093" lon="0.40366">
        <ele>17.3</ele>
        <time>2020-06-18T08:22:41Z</time>
      </trkpt>
      <trkpt lat="49.75096" lon="0.4037">
        <ele>17</ele>
        <time>2020-06-18T08:22:42Z</time>
      </trkpt>
      <trkpt lat="49.75099" lon="0.40376">
        <ele>16.7</ele>
        <time>2020-06-18T08:22:43Z</time>
      </trkpt>
      <trkpt lat="49.75101" lon="0.40385">
        <ele>16.5</ele>
        <time>2020-06-18T08:22:44Z</time>
      </trkpt>
      <trkpt lat="49.75104" lon="0.40395">
        <ele>16.3</ele>
        <time>2020-06-18T08:22:45Z</time>
      </trkpt>
      <trkpt lat="49.75106" lon="0.40404">
        <ele>16.2</ele>
        <time>2020-06-18T08:22:46Z</time>
      </trkpt>
      <trkpt lat="49.75108" lon="0.40414">
        <ele>16.1</ele>
        <time>2020-06-18T08:22:47Z</time>
      </trkpt>
      <trkpt lat="49.75109" lon="0.40422">
        <ele>16</ele>
        <time>2020-06-18T08:22:48Z</time>
      </trkpt>
      <trkpt lat="49.7511" lon="0.40429">
        <ele>16</ele>
        <time>2020-06-18T08:22:49Z</time>
      </trkpt>
      <trkpt lat="49.7511" lon="0.40436">
        <ele>15.9</ele>
        <time>2020-06-18T08:22:50Z</time>
      </trkpt>
      <trkpt lat="49.75111" lon="0.40445">
        <ele>15.9</ele>
        <time>2020-06-18T08:22:51Z</time>
      </trkpt>
      <trkpt lat="49.75113" lon="0.40454">
        <ele>15.9</ele>
        <time>2020-06-18T08:22:52Z</time>
      </trkpt>
      <trkpt lat="49.75114" lon="0.40459">
        <ele>15.9</ele>
        <time>2020-06-18T08:22:53Z</time>
      </trkpt>
      <trkpt lat="49.75116" lon="0.40467">
        <ele>15.9</ele>
        <time>2020-06-18T08:22:54Z</time>
      </trkpt>
      <trkpt lat="49.75117" lon="0.40475">
        <ele>15.9</ele>
        <time>2020-06-18T08:22:55Z</time>
      </trkpt>
      <trkpt lat="49.75119" lon="0.40482">
        <ele>15.9</ele>
        <time>2020-06-18T08:22:56Z</time>
      </trkpt>
      <trkpt lat="49.7512" lon="0.40491">
        <ele>15.9</ele>
        <time>2020-06-18T08:22:57Z</time>
      </trkpt>
      <trkpt lat="49.7512" lon="0.40498">
        <ele>15.9</ele>
        <time>2020-06-18T08:22:58Z</time>
      </trkpt>
      <trkpt lat="49.75119" lon="0.40502">
        <ele>15.9</ele>
        <time>2020-06-18T08:22:59Z</time>
      </trkpt>
      <trkpt lat="49.75118" lon="0.40509">
        <ele>15.8</ele>
        <time>2020-06-18T08:23:00Z</time>
      </trkpt>
      <trkpt lat="49.75118" lon="0.40511">
        <ele>15.8</ele>
        <time>2020-06-18T08:23:01Z</time>
      </trkpt>
      <trkpt lat="49.75118" lon="0.40516">
        <ele>15.8</ele>
        <time>2020-06-18T08:23:02Z</time>
      </trkpt>
      <trkpt lat="49.75117" lon="0.40517">
        <ele>15.8</ele>
        <time>2020-06-18T08:23:03Z</time>
      </trkpt>
      <trkpt lat="49.75117" lon="0.40517">
        <ele>15.8</ele>
        <time>2020-06-18T08:23:04Z</time>
      </trkpt>
      <trkpt lat="49.75117" lon="0.40514">
        <ele>15.8</ele>
        <time>2020-06-18T08:23:05Z</time>
      </trkpt>
      <trkpt lat="49.75117" lon="0.40513">
        <ele>15.8</ele>
        <time>2020-06-18T08:23:06Z</time>
      </trkpt>
      <trkpt lat="49.75117" lon="0.40513">
        <ele>15.8</ele>
        <time>2020-06-18T08:23:07Z</time>
      </trkpt>
      <trkpt lat="49.75117" lon="0.40514">
        <ele>15.8</ele>
        <time>2020-06-18T08:23:08Z</time>
      </trkpt>
      <trkpt lat="49.75116" lon="0.40517">
        <ele>15.7</ele>
        <time>2020-06-18T08:23:09Z</time>
      </trkpt>
      <trkpt lat="49.75115" lon="0.40522">
        <ele>15.7</ele>
        <time>2020-06-18T08:23:10Z</time>
      </trkpt>
      <trkpt lat="49.75115" lon="0.40524">
        <ele>15.7</ele>
        <time>2020-06-18T08:23:11Z</time>
      </trkpt>
      <trkpt lat="49.75113" lon="0.40528">
        <ele>15.7</ele>
        <time>2020-06-18T08:23:12Z</time>
      </trkpt>
      <trkpt lat="49.75112" lon="0.40529">
        <ele>15.7</ele>
        <time>2020-06-18T08:23:13Z</time>
      </trkpt>
      <trkpt lat="49.7511" lon="0.40533">
        <ele>15.7</ele>
        <time>2020-06-18T08:23:14Z</time>
      </trkpt>
      <trkpt lat="49.75108" lon="0.40537">
        <ele>15.6</ele>
        <time>2020-06-18T08:23:15Z</time>
      </trkpt>
      <trkpt lat="49.75106" lon="0.40542">
        <ele>15.6</ele>
        <time>2020-06-18T08:23:16Z</time>
      </trkpt>
      <trkpt lat="49.75106" lon="0.40547">
        <ele>15.6</ele>
        <time>2020-06-18T08:23:17Z</time>
      </trkpt>
      <trkpt lat="49.75104" lon="0.40551">
        <ele>15.6</ele>
        <time>2020-06-18T08:23:18Z</time>
      </trkpt>
      <trkpt lat="49.75102" lon="0.40554">
        <ele>15.6</ele>
        <time>2020-06-18T08:23:19Z</time>
      </trkpt>
      <trkpt lat="49.751" lon="0.40558">
        <ele>15.7</ele>
        <time>2020-06-18T08:23:20Z</time>
      </trkpt>
      <trkpt lat="49.75099" lon="0.40563">
        <ele>15.7</ele>
        <time>2020-06-18T08:23:21Z</time>
      </trkpt>
      <trkpt lat="49.75096" lon="0.40568">
        <ele>15.7</ele>
        <time>2020-06-18T08:23:22Z</time>
      </trkpt>
      <trkpt lat="49.75094" lon="0.40573">
        <ele>15.7</ele>
        <time>2020-06-18T08:23:23Z</time>
      </trkpt>
      <trkpt lat="49.75091" lon="0.40579">
        <ele>15.7</ele>
        <time>2020-06-18T08:23:24Z</time>
      </trkpt>
      <trkpt lat="49.75088" lon="0.40584">
        <ele>15.7</ele>
        <time>2020-06-18T08:23:25Z</time>
      </trkpt>
      <trkpt lat="49.75084" lon="0.4059">
        <ele>15.7</ele>
        <time>2020-06-18T08:23:26Z</time>
      </trkpt>
      <trkpt lat="49.75081" lon="0.40599">
        <ele>15.7</ele>
        <time>2020-06-18T08:23:27Z</time>
      </trkpt>
      <trkpt lat="49.75078" lon="0.40607">
        <ele>15.6</ele>
        <time>2020-06-18T08:23:28Z</time>
      </trkpt>
      <trkpt lat="49.75074" lon="0.40615">
        <ele>15.6</ele>
        <time>2020-06-18T08:23:29Z</time>
      </trkpt>
      <trkpt lat="49.7507" lon="0.40623">
        <ele>15.6</ele>
        <time>2020-06-18T08:23:30Z</time>
      </trkpt>
      <trkpt lat="49.75067" lon="0.40631">
        <ele>15.6</ele>
        <time>2020-06-18T08:23:31Z</time>
      </trkpt>
      <trkpt lat="49.75064" lon="0.4064">
        <ele>15.6</ele>
        <time>2020-06-18T08:23:32Z</time>
      </trkpt>
      <trkpt lat="49.7506" lon="0.40647">
        <ele>15.6</ele>
        <time>2020-06-18T08:23:33Z</time>
      </trkpt>
      <trkpt lat="49.75057" lon="0.40656">
        <ele>15.7</ele>
        <time>2020-06-18T08:23:34Z</time>
      </trkpt>
      <trkpt lat="49.75053" lon="0.40665">
        <ele>15.7</ele>
        <time>2020-06-18T08:23:35Z</time>
      </trkpt>
      <trkpt lat="49.75049" lon="0.40674">
        <ele>15.7</ele>
        <time>2020-06-18T08:23:36Z</time>
      </trkpt>
      <trkpt lat="49.75045" lon="0.40682">
        <ele>15.7</ele>
        <time>2020-06-18T08:23:37Z</time>
      </trkpt>
      <trkpt lat="49.75041" lon="0.4069">
        <ele>15.7</ele>
        <time>2020-06-18T08:23:38Z</time>
      </trkpt>
      <trkpt lat="49.75038" lon="0.40697">
        <ele>15.7</ele>
        <time>2020-06-18T08:23:39Z</time>
      </trkpt>
      <trkpt lat="49.75033" lon="0.40706">
        <ele>15.7</ele>
        <time>2020-06-18T08:23:40Z</time>
      </trkpt>
      <trkpt lat="49.75029" lon="0.40714">
        <ele>15.7</ele>
        <time>2020-06-18T08:23:41Z</time>
      </trkpt>
      <trkpt lat="49.75026" lon="0.40721">
        <ele>15.6</ele>
        <time>2020-06-18T08:23:42Z</time>
      </trkpt>
      <trkpt lat="49.75022" lon="0.4073">
        <ele>15.6</ele>
        <time>2020-06-18T08:23:43Z</time>
      </trkpt>
      <trkpt lat="49.75019" lon="0.40736">
        <ele>15.6</ele>
        <time>2020-06-18T08:23:44Z</time>
      </trkpt>
      <trkpt lat="49.75015" lon="0.40744">
        <ele>15.6</ele>
        <time>2020-06-18T08:23:45Z</time>
      </trkpt>
      <trkpt lat="49.75011" lon="0.40753">
        <ele>15.6</ele>
        <time>2020-06-18T08:23:46Z</time>
      </trkpt>
      <trkpt lat="49.75006" lon="0.40763">
        <ele>15.5</ele>
        <time>2020-06-18T08:23:47Z</time>
      </trkpt>
      <trkpt lat="49.74999" lon="0.40774">
        <ele>15.5</ele>
        <time>2020-06-18T08:23:48Z</time>
      </trkpt>
      <trkpt lat="49.74994" lon="0.40786">
        <ele>15.5</ele>
        <time>2020-06-18T08:23:49Z</time>
      </trkpt>
      <trkpt lat="49.74989" lon="0.40795">
        <ele>15.5</ele>
        <time>2020-06-18T08:23:50Z</time>
      </trkpt>
      <trkpt lat="49.74984" lon="0.40804">
        <ele>15.5</ele>
        <time>2020-06-18T08:23:51Z</time>
      </trkpt>
      <trkpt lat="49.74981" lon="0.40813">
        <ele>15.5</ele>
        <time>2020-06-18T08:23:52Z</time>
      </trkpt>
      <trkpt lat="49.74976" lon="0.40821">
        <ele>15.5</ele>
        <time>2020-06-18T08:23:53Z</time>
      </trkpt>
      <trkpt lat="49.74973" lon="0.4083">
        <ele>15.6</ele>
        <time>2020-06-18T08:23:54Z</time>
      </trkpt>
      <trkpt lat="49.74969" lon="0.4084">
        <ele>15.6</ele>
        <time>2020-06-18T08:23:55Z</time>
      </trkpt>
      <trkpt lat="49.74966" lon="0.40848">
        <ele>15.6</ele>
        <time>2020-06-18T08:23:56Z</time>
      </trkpt>
      <trkpt lat="49.74963" lon="0.40856">
        <ele>15.6</ele>
        <time>2020-06-18T08:23:57Z</time>
      </trkpt>
      <trkpt lat="49.7496" lon="0.40866">
        <ele>15.6</ele>
        <time>2020-06-18T08:23:58Z</time>
      </trkpt>
      <trkpt lat="49.74957" lon="0.40876">
        <ele>15.6</ele>
        <time>2020-06-18T08:23:59Z</time>
      </trkpt>
      <trkpt lat="49.74953" lon="0.40886">
        <ele>15.5</ele>
        <time>2020-06-18T08:24:00Z</time>
      </trkpt>
      <trkpt lat="49.74949" lon="0.40894">
        <ele>15.5</ele>
        <time>2020-06-18T08:24:01Z</time>
      </trkpt>
      <trkpt lat="49.74944" lon="0.40903">
        <ele>15.5</ele>
        <time>2020-06-18T08:24:02Z</time>
      </trkpt>
      <trkpt lat="49.74941" lon="0.40911">
        <ele>15.4</ele>
        <time>2020-06-18T08:24:03Z</time>
      </trkpt>
      <trkpt lat="49.74937" lon="0.40921">
        <ele>15.4</ele>
        <time>2020-06-18T08:24:04Z</time>
      </trkpt>
      <trkpt lat="49.74933" lon="0.40929">
        <ele>15.4</ele>
        <time>2020-06-18T08:24:05Z</time>
      </trkpt>
      <trkpt lat="49.7493" lon="0.40936">
        <ele>15.4</ele>
        <time>2020-06-18T08:24:06Z</time>
      </trkpt>
      <trkpt lat="49.74927" lon="0.40944">
        <ele>15.4</ele>
        <time>2020-06-18T08:24:07Z</time>
      </trkpt>
      <trkpt lat="49.74923" lon="0.40953">
        <ele>15.4</ele>
        <time>2020-06-18T08:24:08Z</time>
      </trkpt>
      <trkpt lat="49.74919" lon="0.40963">
        <ele>15.4</ele>
        <time>2020-06-18T08:24:09Z</time>
      </trkpt>
      <trkpt lat="49.74915" lon="0.40971">
        <ele>15.5</ele>
        <time>2020-06-18T08:24:10Z</time>
      </trkpt>
      <trkpt lat="49.74911" lon="0.4098">
        <ele>15.5</ele>
        <time>2020-06-18T08:24:11Z</time>
      </trkpt>
      <trkpt lat="49.74907" lon="0.40989">
        <ele>15.6</ele>
        <time>2020-06-18T08:24:12Z</time>
      </trkpt>
      <trkpt lat="49.74904" lon="0.40997">
        <ele>15.6</ele>
        <time>2020-06-18T08:24:13Z</time>
      </trkpt>
      <trkpt lat="49.74901" lon="0.41005">
        <ele>15.7</ele>
        <time>2020-06-18T08:24:14Z</time>
      </trkpt>
      <trkpt lat="49.74898" lon="0.41014">
        <ele>15.7</ele>
        <time>2020-06-18T08:24:15Z</time>
      </trkpt>
      <trkpt lat="49.74895" lon="0.41021">
        <ele>15.7</ele>
        <time>2020-06-18T08:24:16Z</time>
      </trkpt>
      <trkpt lat="49.74893" lon="0.41027">
        <ele>15.7</ele>
        <time>2020-06-18T08:24:17Z</time>
      </trkpt>
      <trkpt lat="49.7489" lon="0.41034">
        <ele>15.7</ele>
        <time>2020-06-18T08:24:18Z</time>
      </trkpt>
      <trkpt lat="49.74887" lon="0.41041">
        <ele>15.7</ele>
        <time>2020-06-18T08:24:19Z</time>
      </trkpt>
      <trkpt lat="49.74885" lon="0.41048">
        <ele>15.8</ele>
        <time>2020-06-18T08:24:20Z</time>
      </trkpt>
      <trkpt lat="49.74882" lon="0.41054">
        <ele>15.8</ele>
        <time>2020-06-18T08:24:21Z</time>
      </trkpt>
      <trkpt lat="49.74881" lon="0.41061">
        <ele>15.8</ele>
        <time>2020-06-18T08:24:22Z</time>
      </trkpt>
      <trkpt lat="49.74878" lon="0.41066">
        <ele>15.8</ele>
        <time>2020-06-18T08:24:23Z</time>
      </trkpt>
      <trkpt lat="49.74875" lon="0.41071">
        <ele>15.8</ele>
        <time>2020-06-18T08:24:24Z</time>
      </trkpt>
      <trkpt lat="49.74874" lon="0.41076">
        <ele>15.8</ele>
        <time>2020-06-18T08:24:25Z</time>
      </trkpt>
      <trkpt lat="49.74873" lon="0.41082">
        <ele>15.8</ele>
        <time>2020-06-18T08:24:26Z</time>
      </trkpt>
      <trkpt lat="49.74871" lon="0.41088">
        <ele>15.8</ele>
        <time>2020-06-18T08:24:27Z</time>
      </trkpt>
      <trkpt lat="49.74869" lon="0.41095">
        <ele>15.8</ele>
        <time>2020-06-18T08:24:28Z</time>
      </trkpt>
      <trkpt lat="49.74867" lon="0.41101">
        <ele>15.8</ele>
        <time>2020-06-18T08:24:29Z</time>
      </trkpt>
      <trkpt lat="49.74866" lon="0.41106">
        <ele>15.8</ele>
        <time>2020-06-18T08:24:30Z</time>
      </trkpt>
      <trkpt lat="49.74864" lon="0.41113">
        <ele>15.8</ele>
        <time>2020-06-18T08:24:31Z</time>
      </trkpt>
      <trkpt lat="49.74861" lon="0.41122">
        <ele>15.8</ele>
        <time>2020-06-18T08:24:32Z</time>
      </trkpt>
      <trkpt lat="49.74858" lon="0.4113">
        <ele>15.7</ele>
        <time>2020-06-18T08:24:33Z</time>
      </trkpt>
      <trkpt lat="49.74855" lon="0.4114">
        <ele>15.8</ele>
        <time>2020-06-18T08:24:34Z</time>
      </trkpt>
      <trkpt lat="49.74853" lon="0.41149">
        <ele>15.8</ele>
        <time>2020-06-18T08:24:35Z</time>
      </trkpt>
      <trkpt lat="49.7485" lon="0.41159">
        <ele>15.9</ele>
        <time>2020-06-18T08:24:36Z</time>
      </trkpt>
      <trkpt lat="49.74847" lon="0.41168">
        <ele>15.9</ele>
        <time>2020-06-18T08:24:37Z</time>
      </trkpt>
      <trkpt lat="49.74845" lon="0.41178">
        <ele>16</ele>
        <time>2020-06-18T08:24:38Z</time>
      </trkpt>
      <trkpt lat="49.74843" lon="0.41189">
        <ele>16</ele>
        <time>2020-06-18T08:24:39Z</time>
      </trkpt>
      <trkpt lat="49.7484" lon="0.41199">
        <ele>16.1</ele>
        <time>2020-06-18T08:24:40Z</time>
      </trkpt>
      <trkpt lat="49.74838" lon="0.41209">
        <ele>16.1</ele>
        <time>2020-06-18T08:24:41Z</time>
      </trkpt>
      <trkpt lat="49.74835" lon="0.41218">
        <ele>16.2</ele>
        <time>2020-06-18T08:24:42Z</time>
      </trkpt>
      <trkpt lat="49.74833" lon="0.41228">
        <ele>16.2</ele>
        <time>2020-06-18T08:24:43Z</time>
      </trkpt>
      <trkpt lat="49.74832" lon="0.41238">
        <ele>16.3</ele>
        <time>2020-06-18T08:24:44Z</time>
      </trkpt>
      <trkpt lat="49.74829" lon="0.41247">
        <ele>16.3</ele>
        <time>2020-06-18T08:24:45Z</time>
      </trkpt>
      <trkpt lat="49.74826" lon="0.41257">
        <ele>16.4</ele>
        <time>2020-06-18T08:24:46Z</time>
      </trkpt>
      <trkpt lat="49.74824" lon="0.41267">
        <ele>16.4</ele>
        <time>2020-06-18T08:24:47Z</time>
      </trkpt>
      <trkpt lat="49.74821" lon="0.41277">
        <ele>16.4</ele>
        <time>2020-06-18T08:24:48Z</time>
      </trkpt>
      <trkpt lat="49.74819" lon="0.41287">
        <ele>16.4</ele>
        <time>2020-06-18T08:24:49Z</time>
      </trkpt>
      <trkpt lat="49.74817" lon="0.41297">
        <ele>16.4</ele>
        <time>2020-06-18T08:24:50Z</time>
      </trkpt>
      <trkpt lat="49.74815" lon="0.41307">
        <ele>16.4</ele>
        <time>2020-06-18T08:24:51Z</time>
      </trkpt>
      <trkpt lat="49.74814" lon="0.41317">
        <ele>16.4</ele>
        <time>2020-06-18T08:24:52Z</time>
      </trkpt>
      <trkpt lat="49.74812" lon="0.41327">
        <ele>16.5</ele>
        <time>2020-06-18T08:24:53Z</time>
      </trkpt>
      <trkpt lat="49.7481" lon="0.41337">
        <ele>16.5</ele>
        <time>2020-06-18T08:24:54Z</time>
      </trkpt>
      <trkpt lat="49.74809" lon="0.41349">
        <ele>16.6</ele>
        <time>2020-06-18T08:24:55Z</time>
      </trkpt>
      <trkpt lat="49.74807" lon="0.4136">
        <ele>16.6</ele>
        <time>2020-06-18T08:24:56Z</time>
      </trkpt>
      <trkpt lat="49.74806" lon="0.41371">
        <ele>16.6</ele>
        <time>2020-06-18T08:24:57Z</time>
      </trkpt>
      <trkpt lat="49.74804" lon="0.41382">
        <ele>16.7</ele>
        <time>2020-06-18T08:24:58Z</time>
      </trkpt>
      <trkpt lat="49.74802" lon="0.41392">
        <ele>16.7</ele>
        <time>2020-06-18T08:24:59Z</time>
      </trkpt>
      <trkpt lat="49.74801" lon="0.41403">
        <ele>16.8</ele>
        <time>2020-06-18T08:25:00Z</time>
      </trkpt>
      <trkpt lat="49.748" lon="0.41414">
        <ele>16.9</ele>
        <time>2020-06-18T08:25:01Z</time>
      </trkpt>
      <trkpt lat="49.74799" lon="0.41424">
        <ele>16.9</ele>
        <time>2020-06-18T08:25:02Z</time>
      </trkpt>
      <trkpt lat="49.74798" lon="0.41434">
        <ele>17</ele>
        <time>2020-06-18T08:25:03Z</time>
      </trkpt>
      <trkpt lat="49.74797" lon="0.41444">
        <ele>17</ele>
        <time>2020-06-18T08:25:04Z</time>
      </trkpt>
      <trkpt lat="49.74796" lon="0.41453">
        <ele>17.1</ele>
        <time>2020-06-18T08:25:05Z</time>
      </trkpt>
      <trkpt lat="49.74795" lon="0.41463">
        <ele>17.1</ele>
        <time>2020-06-18T08:25:06Z</time>
      </trkpt>
      <trkpt lat="49.74795" lon="0.41473">
        <ele>17.1</ele>
        <time>2020-06-18T08:25:07Z</time>
      </trkpt>
      <trkpt lat="49.74794" lon="0.41482">
        <ele>17.1</ele>
        <time>2020-06-18T08:25:08Z</time>
      </trkpt>
      <trkpt lat="49.74793" lon="0.41492">
        <ele>17.2</ele>
        <time>2020-06-18T08:25:09Z</time>
      </trkpt>
      <trkpt lat="49.74792" lon="0.41503">
        <ele>17.3</ele>
        <time>2020-06-18T08:25:10Z</time>
      </trkpt>
      <trkpt lat="49.74791" lon="0.41512">
        <ele>17.3</ele>
        <time>2020-06-18T08:25:11Z</time>
      </trkpt>
      <trkpt lat="49.7479" lon="0.41522">
        <ele>17.4</ele>
        <time>2020-06-18T08:25:12Z</time>
      </trkpt>
      <trkpt lat="49.74789" lon="0.41531">
        <ele>17.5</ele>
        <time>2020-06-18T08:25:13Z</time>
      </trkpt>
      <trkpt lat="49.74787" lon="0.41539">
        <ele>17.5</ele>
        <time>2020-06-18T08:25:14Z</time>
      </trkpt>
      <trkpt lat="49.74787" lon="0.41549">
        <ele>17.6</ele>
        <time>2020-06-18T08:25:15Z</time>
      </trkpt>
      <trkpt lat="49.74785" lon="0.4156">
        <ele>17.6</ele>
        <time>2020-06-18T08:25:16Z</time>
      </trkpt>
      <trkpt lat="49.74783" lon="0.41571">
        <ele>17.6</ele>
        <time>2020-06-18T08:25:17Z</time>
      </trkpt>
      <trkpt lat="49.74782" lon="0.41584">
        <ele>17.7</ele>
        <time>2020-06-18T08:25:18Z</time>
      </trkpt>
      <trkpt lat="49.74781" lon="0.41596">
        <ele>17.7</ele>
        <time>2020-06-18T08:25:19Z</time>
      </trkpt>
      <trkpt lat="49.7478" lon="0.41607">
        <ele>17.7</ele>
        <time>2020-06-18T08:25:20Z</time>
      </trkpt>
      <trkpt lat="49.74778" lon="0.41619">
        <ele>17.8</ele>
        <time>2020-06-18T08:25:21Z</time>
      </trkpt>
      <trkpt lat="49.74777" lon="0.41629">
        <ele>17.8</ele>
        <time>2020-06-18T08:25:22Z</time>
      </trkpt>
      <trkpt lat="49.74777" lon="0.41641">
        <ele>17.8</ele>
        <time>2020-06-18T08:25:23Z</time>
      </trkpt>
      <trkpt lat="49.74777" lon="0.41652">
        <ele>17.9</ele>
        <time>2020-06-18T08:25:24Z</time>
      </trkpt>
      <trkpt lat="49.74777" lon="0.41665">
        <ele>17.9</ele>
        <time>2020-06-18T08:25:25Z</time>
      </trkpt>
      <trkpt lat="49.74777" lon="0.41676">
        <ele>18</ele>
        <time>2020-06-18T08:25:26Z</time>
      </trkpt>
      <trkpt lat="49.74777" lon="0.41686">
        <ele>18</ele>
        <time>2020-06-18T08:25:27Z</time>
      </trkpt>
      <trkpt lat="49.74776" lon="0.41697">
        <ele>18.1</ele>
        <time>2020-06-18T08:25:28Z</time>
      </trkpt>
      <trkpt lat="49.74775" lon="0.41709">
        <ele>18.1</ele>
        <time>2020-06-18T08:25:29Z</time>
      </trkpt>
      <trkpt lat="49.74775" lon="0.41719">
        <ele>18.2</ele>
        <time>2020-06-18T08:25:30Z</time>
      </trkpt>
      <trkpt lat="49.74775" lon="0.41731">
        <ele>18.2</ele>
        <time>2020-06-18T08:25:31Z</time>
      </trkpt>
      <trkpt lat="49.74775" lon="0.4174">
        <ele>18.3</ele>
        <time>2020-06-18T08:25:32Z</time>
      </trkpt>
      <trkpt lat="49.74775" lon="0.4175">
        <ele>18.3</ele>
        <time>2020-06-18T08:25:33Z</time>
      </trkpt>
      <trkpt lat="49.74775" lon="0.4176">
        <ele>18.4</ele>
        <time>2020-06-18T08:25:34Z</time>
      </trkpt>
      <trkpt lat="49.74775" lon="0.41771">
        <ele>18.4</ele>
        <time>2020-06-18T08:25:35Z</time>
      </trkpt>
      <trkpt lat="49.74774" lon="0.41781">
        <ele>18.5</ele>
        <time>2020-06-18T08:25:36Z</time>
      </trkpt>
      <trkpt lat="49.74774" lon="0.41792">
        <ele>18.5</ele>
        <time>2020-06-18T08:25:37Z</time>
      </trkpt>
      <trkpt lat="49.74772" lon="0.41802">
        <ele>18.6</ele>
        <time>2020-06-18T08:25:38Z</time>
      </trkpt>
      <trkpt lat="49.74772" lon="0.41813">
        <ele>18.6</ele>
        <time>2020-06-18T08:25:39Z</time>
      </trkpt>
      <trkpt lat="49.74771" lon="0.41823">
        <ele>18.7</ele>
        <time>2020-06-18T08:25:40Z</time>
      </trkpt>
      <trkpt lat="49.74769" lon="0.41834">
        <ele>18.8</ele>
        <time>2020-06-18T08:25:41Z</time>
      </trkpt>
      <trkpt lat="49.74769" lon="0.41845">
        <ele>18.9</ele>
        <time>2020-06-18T08:25:42Z</time>
      </trkpt>
      <trkpt lat="49.74768" lon="0.41856">
        <ele>18.9</ele>
        <time>2020-06-18T08:25:43Z</time>
      </trkpt>
      <trkpt lat="49.74767" lon="0.41866">
        <ele>19</ele>
        <time>2020-06-18T08:25:44Z</time>
      </trkpt>
      <trkpt lat="49.74766" lon="0.41877">
        <ele>19</ele>
        <time>2020-06-18T08:25:45Z</time>
      </trkpt>
      <trkpt lat="49.74765" lon="0.41887">
        <ele>19.1</ele>
        <time>2020-06-18T08:25:46Z</time>
      </trkpt>
      <trkpt lat="49.74764" lon="0.41897">
        <ele>19.1</ele>
        <time>2020-06-18T08:25:47Z</time>
      </trkpt>
      <trkpt lat="49.74763" lon="0.41906">
        <ele>19.2</ele>
        <time>2020-06-18T08:25:48Z</time>
      </trkpt>
      <trkpt lat="49.74762" lon="0.41916">
        <ele>19.3</ele>
        <time>2020-06-18T08:25:49Z</time>
      </trkpt>
      <trkpt lat="49.74761" lon="0.41926">
        <ele>19.4</ele>
        <time>2020-06-18T08:25:50Z</time>
      </trkpt>
      <trkpt lat="49.7476" lon="0.41935">
        <ele>19.5</ele>
        <time>2020-06-18T08:25:51Z</time>
      </trkpt>
      <trkpt lat="49.74759" lon="0.41945">
        <ele>19.5</ele>
        <time>2020-06-18T08:25:52Z</time>
      </trkpt>
      <trkpt lat="49.74758" lon="0.41954">
        <ele>19.5</ele>
        <time>2020-06-18T08:25:53Z</time>
      </trkpt>
      <trkpt lat="49.74757" lon="0.41964">
        <ele>19.6</ele>
        <time>2020-06-18T08:25:54Z</time>
      </trkpt>
      <trkpt lat="49.74757" lon="0.41974">
        <ele>19.6</ele>
        <time>2020-06-18T08:25:55Z</time>
      </trkpt>
      <trkpt lat="49.74756" lon="0.41983">
        <ele>19.7</ele>
        <time>2020-06-18T08:25:56Z</time>
      </trkpt>
      <trkpt lat="49.74755" lon="0.41992">
        <ele>19.7</ele>
        <time>2020-06-18T08:25:57Z</time>
      </trkpt>
      <trkpt lat="49.74754" lon="0.42002">
        <ele>19.8</ele>
        <time>2020-06-18T08:25:58Z</time>
      </trkpt>
      <trkpt lat="49.74753" lon="0.42013">
        <ele>19.8</ele>
        <time>2020-06-18T08:25:59Z</time>
      </trkpt>
      <trkpt lat="49.74752" lon="0.42023">
        <ele>19.8</ele>
        <time>2020-06-18T08:26:00Z</time>
      </trkpt>
      <trkpt lat="49.7475" lon="0.42032">
        <ele>19.8</ele>
        <time>2020-06-18T08:26:01Z</time>
      </trkpt>
      <trkpt lat="49.74748" lon="0.42041">
        <ele>19.8</ele>
        <time>2020-06-18T08:26:02Z</time>
      </trkpt>
      <trkpt lat="49.74746" lon="0.42049">
        <ele>19.8</ele>
        <time>2020-06-18T08:26:03Z</time>
      </trkpt>
      <trkpt lat="49.74743" lon="0.42059">
        <ele>19.8</ele>
        <time>2020-06-18T08:26:04Z</time>
      </trkpt>
      <trkpt lat="49.74741" lon="0.42069">
        <ele>19.8</ele>
        <time>2020-06-18T08:26:05Z</time>
      </trkpt>
      <trkpt lat="49.74739" lon="0.42078">
        <ele>19.9</ele>
        <time>2020-06-18T08:26:06Z</time>
      </trkpt>
      <trkpt lat="49.74736" lon="0.42088">
        <ele>19.9</ele>
        <time>2020-06-18T08:26:07Z</time>
      </trkpt>
      <trkpt lat="49.74734" lon="0.42098">
        <ele>19.9</ele>
        <time>2020-06-18T08:26:08Z</time>
      </trkpt>
      <trkpt lat="49.74733" lon="0.42107">
        <ele>19.9</ele>
        <time>2020-06-18T08:26:09Z</time>
      </trkpt>
      <trkpt lat="49.74731" lon="0.42115">
        <ele>19.9</ele>
        <time>2020-06-18T08:26:10Z</time>
      </trkpt>
      <trkpt lat="49.74729" lon="0.42122">
        <ele>19.9</ele>
        <time>2020-06-18T08:26:11Z</time>
      </trkpt>
      <trkpt lat="49.74727" lon="0.42129">
        <ele>19.9</ele>
        <time>2020-06-18T08:26:12Z</time>
      </trkpt>
      <trkpt lat="49.74725" lon="0.42136">
        <ele>19.9</ele>
        <time>2020-06-18T08:26:13Z</time>
      </trkpt>
      <trkpt lat="49.74725" lon="0.42143">
        <ele>19.9</ele>
        <time>2020-06-18T08:26:14Z</time>
      </trkpt>
      <trkpt lat="49.74723" lon="0.4215">
        <ele>19.9</ele>
        <time>2020-06-18T08:26:15Z</time>
      </trkpt>
      <trkpt lat="49.74722" lon="0.42157">
        <ele>19.9</ele>
        <time>2020-06-18T08:26:16Z</time>
      </trkpt>
      <trkpt lat="49.7472" lon="0.42165">
        <ele>19.9</ele>
        <time>2020-06-18T08:26:17Z</time>
      </trkpt>
      <trkpt lat="49.74718" lon="0.42173">
        <ele>19.9</ele>
        <time>2020-06-18T08:26:18Z</time>
      </trkpt>
      <trkpt lat="49.74716" lon="0.42181">
        <ele>20</ele>
        <time>2020-06-18T08:26:19Z</time>
      </trkpt>
      <trkpt lat="49.74715" lon="0.4219">
        <ele>19.9</ele>
        <time>2020-06-18T08:26:20Z</time>
      </trkpt>
      <trkpt lat="49.74713" lon="0.422">
        <ele>19.9</ele>
        <time>2020-06-18T08:26:21Z</time>
      </trkpt>
      <trkpt lat="49.74711" lon="0.42209">
        <ele>19.9</ele>
        <time>2020-06-18T08:26:22Z</time>
      </trkpt>
      <trkpt lat="49.74709" lon="0.42218">
        <ele>19.9</ele>
        <time>2020-06-18T08:26:23Z</time>
      </trkpt>
      <trkpt lat="49.74708" lon="0.42227">
        <ele>19.9</ele>
        <time>2020-06-18T08:26:24Z</time>
      </trkpt>
      <trkpt lat="49.74705" lon="0.42236">
        <ele>19.9</ele>
        <time>2020-06-18T08:26:25Z</time>
      </trkpt>
      <trkpt lat="49.74703" lon="0.42245">
        <ele>19.9</ele>
        <time>2020-06-18T08:26:26Z</time>
      </trkpt>
      <trkpt lat="49.74701" lon="0.42254">
        <ele>20</ele>
        <time>2020-06-18T08:26:27Z</time>
      </trkpt>
      <trkpt lat="49.747" lon="0.42263">
        <ele>20</ele>
        <time>2020-06-18T08:26:28Z</time>
      </trkpt>
      <trkpt lat="49.74698" lon="0.42273">
        <ele>20</ele>
        <time>2020-06-18T08:26:29Z</time>
      </trkpt>
      <trkpt lat="49.74697" lon="0.42283">
        <ele>20.1</ele>
        <time>2020-06-18T08:26:30Z</time>
      </trkpt>
      <trkpt lat="49.74694" lon="0.42295">
        <ele>20.1</ele>
        <time>2020-06-18T08:26:31Z</time>
      </trkpt>
      <trkpt lat="49.74692" lon="0.42308">
        <ele>20.1</ele>
        <time>2020-06-18T08:26:32Z</time>
      </trkpt>
      <trkpt lat="49.7469" lon="0.42321">
        <ele>20.1</ele>
        <time>2020-06-18T08:26:33Z</time>
      </trkpt>
      <trkpt lat="49.74688" lon="0.42334">
        <ele>20.2</ele>
        <time>2020-06-18T08:26:34Z</time>
      </trkpt>
      <trkpt lat="49.74687" lon="0.42347">
        <ele>20.2</ele>
        <time>2020-06-18T08:26:35Z</time>
      </trkpt>
      <trkpt lat="49.74685" lon="0.42359">
        <ele>20.2</ele>
        <time>2020-06-18T08:26:36Z</time>
      </trkpt>
      <trkpt lat="49.74684" lon="0.42372">
        <ele>20.2</ele>
        <time>2020-06-18T08:26:37Z</time>
      </trkpt>
      <trkpt lat="49.74683" lon="0.42385">
        <ele>20.2</ele>
        <time>2020-06-18T08:26:38Z</time>
      </trkpt>
      <trkpt lat="49.74683" lon="0.42398">
        <ele>20.2</ele>
        <time>2020-06-18T08:26:39Z</time>
      </trkpt>
      <trkpt lat="49.74681" lon="0.42411">
        <ele>20.3</ele>
        <time>2020-06-18T08:26:40Z</time>
      </trkpt>
      <trkpt lat="49.74679" lon="0.42422">
        <ele>20.3</ele>
        <time>2020-06-18T08:26:41Z</time>
      </trkpt>
      <trkpt lat="49.74677" lon="0.42434">
        <ele>20.3</ele>
        <time>2020-06-18T08:26:42Z</time>
      </trkpt>
      <trkpt lat="49.74675" lon="0.42445">
        <ele>20.4</ele>
        <time>2020-06-18T08:26:43Z</time>
      </trkpt>
      <trkpt lat="49.74673" lon="0.42456">
        <ele>20.4</ele>
        <time>2020-06-18T08:26:44Z</time>
      </trkpt>
      <trkpt lat="49.74671" lon="0.42467">
        <ele>20.4</ele>
        <time>2020-06-18T08:26:45Z</time>
      </trkpt>
      <trkpt lat="49.74669" lon="0.42478">
        <ele>20.5</ele>
        <time>2020-06-18T08:26:46Z</time>
      </trkpt>
      <trkpt lat="49.74667" lon="0.4249">
        <ele>20.5</ele>
        <time>2020-06-18T08:26:47Z</time>
      </trkpt>
      <trkpt lat="49.74665" lon="0.42501">
        <ele>20.6</ele>
        <time>2020-06-18T08:26:48Z</time>
      </trkpt>
      <trkpt lat="49.74664" lon="0.42513">
        <ele>20.6</ele>
        <time>2020-06-18T08:26:49Z</time>
      </trkpt>
      <trkpt lat="49.74662" lon="0.42523">
        <ele>20.6</ele>
        <time>2020-06-18T08:26:50Z</time>
      </trkpt>
      <trkpt lat="49.7466" lon="0.42533">
        <ele>20.6</ele>
        <time>2020-06-18T08:26:51Z</time>
      </trkpt>
      <trkpt lat="49.74658" lon="0.42544">
        <ele>20.7</ele>
        <time>2020-06-18T08:26:52Z</time>
      </trkpt>
      <trkpt lat="49.74656" lon="0.42556">
        <ele>20.7</ele>
        <time>2020-06-18T08:26:53Z</time>
      </trkpt>
      <trkpt lat="49.74654" lon="0.42567">
        <ele>20.7</ele>
        <time>2020-06-18T08:26:54Z</time>
      </trkpt>
      <trkpt lat="49.74652" lon="0.42578">
        <ele>20.7</ele>
        <time>2020-06-18T08:26:55Z</time>
      </trkpt>
      <trkpt lat="49.7465" lon="0.4259">
        <ele>20.7</ele>
        <time>2020-06-18T08:26:56Z</time>
      </trkpt>
      <trkpt lat="49.74648" lon="0.42601">
        <ele>20.7</ele>
        <time>2020-06-18T08:26:57Z</time>
      </trkpt>
      <trkpt lat="49.74646" lon="0.42612">
        <ele>20.7</ele>
        <time>2020-06-18T08:26:58Z</time>
      </trkpt>
      <trkpt lat="49.74645" lon="0.42624">
        <ele>20.7</ele>
        <time>2020-06-18T08:26:59Z</time>
      </trkpt>
      <trkpt lat="49.74643" lon="0.42637">
        <ele>20.7</ele>
        <time>2020-06-18T08:27:00Z</time>
      </trkpt>
      <trkpt lat="49.74641" lon="0.42647">
        <ele>20.8</ele>
        <time>2020-06-18T08:27:01Z</time>
      </trkpt>
      <trkpt lat="49.74639" lon="0.42657">
        <ele>20.8</ele>
        <time>2020-06-18T08:27:02Z</time>
      </trkpt>
      <trkpt lat="49.74638" lon="0.42666">
        <ele>20.9</ele>
        <time>2020-06-18T08:27:03Z</time>
      </trkpt>
      <trkpt lat="49.74636" lon="0.42675">
        <ele>20.9</ele>
        <time>2020-06-18T08:27:04Z</time>
      </trkpt>
      <trkpt lat="49.74635" lon="0.42684">
        <ele>21</ele>
        <time>2020-06-18T08:27:05Z</time>
      </trkpt>
      <trkpt lat="49.74634" lon="0.42693">
        <ele>21</ele>
        <time>2020-06-18T08:27:06Z</time>
      </trkpt>
      <trkpt lat="49.74633" lon="0.42703">
        <ele>21</ele>
        <time>2020-06-18T08:27:07Z</time>
      </trkpt>
      <trkpt lat="49.74632" lon="0.42712">
        <ele>21</ele>
        <time>2020-06-18T08:27:08Z</time>
      </trkpt>
      <trkpt lat="49.74631" lon="0.42722">
        <ele>21.1</ele>
        <time>2020-06-18T08:27:09Z</time>
      </trkpt>
      <trkpt lat="49.74629" lon="0.4273">
        <ele>21.1</ele>
        <time>2020-06-18T08:27:10Z</time>
      </trkpt>
      <trkpt lat="49.74628" lon="0.42738">
        <ele>21.1</ele>
        <time>2020-06-18T08:27:11Z</time>
      </trkpt>
      <trkpt lat="49.74628" lon="0.42747">
        <ele>21.2</ele>
        <time>2020-06-18T08:27:12Z</time>
      </trkpt>
      <trkpt lat="49.74629" lon="0.42757">
        <ele>21.2</ele>
        <time>2020-06-18T08:27:13Z</time>
      </trkpt>
      <trkpt lat="49.74628" lon="0.42765">
        <ele>21.1</ele>
        <time>2020-06-18T08:27:14Z</time>
      </trkpt>
      <trkpt lat="49.74626" lon="0.42774">
        <ele>21.2</ele>
        <time>2020-06-18T08:27:15Z</time>
      </trkpt>
      <trkpt lat="49.74625" lon="0.42785">
        <ele>21.2</ele>
        <time>2020-06-18T08:27:16Z</time>
      </trkpt>
      <trkpt lat="49.74623" lon="0.42796">
        <ele>21.2</ele>
        <time>2020-06-18T08:27:17Z</time>
      </trkpt>
      <trkpt lat="49.74621" lon="0.42807">
        <ele>21.2</ele>
        <time>2020-06-18T08:27:18Z</time>
      </trkpt>
      <trkpt lat="49.7462" lon="0.42816">
        <ele>21.2</ele>
        <time>2020-06-18T08:27:19Z</time>
      </trkpt>
      <trkpt lat="49.74619" lon="0.42826">
        <ele>21.3</ele>
        <time>2020-06-18T08:27:20Z</time>
      </trkpt>
      <trkpt lat="49.74618" lon="0.42836">
        <ele>21.3</ele>
        <time>2020-06-18T08:27:21Z</time>
      </trkpt>
      <trkpt lat="49.74616" lon="0.42847">
        <ele>21.4</ele>
        <time>2020-06-18T08:27:22Z</time>
      </trkpt>
      <trkpt lat="49.74615" lon="0.42858">
        <ele>21.5</ele>
        <time>2020-06-18T08:27:23Z</time>
      </trkpt>
      <trkpt lat="49.74614" lon="0.42869">
        <ele>21.5</ele>
        <time>2020-06-18T08:27:24Z</time>
      </trkpt>
      <trkpt lat="49.74613" lon="0.42879">
        <ele>21.6</ele>
        <time>2020-06-18T08:27:25Z</time>
      </trkpt>
      <trkpt lat="49.74611" lon="0.42891">
        <ele>21.6</ele>
        <time>2020-06-18T08:27:26Z</time>
      </trkpt>
      <trkpt lat="49.7461" lon="0.42901">
        <ele>21.5</ele>
        <time>2020-06-18T08:27:27Z</time>
      </trkpt>
      <trkpt lat="49.74609" lon="0.42913">
        <ele>21.5</ele>
        <time>2020-06-18T08:27:28Z</time>
      </trkpt>
      <trkpt lat="49.74608" lon="0.42923">
        <ele>21.5</ele>
        <time>2020-06-18T08:27:29Z</time>
      </trkpt>
      <trkpt lat="49.74607" lon="0.42933">
        <ele>21.5</ele>
        <time>2020-06-18T08:27:30Z</time>
      </trkpt>
      <trkpt lat="49.74606" lon="0.42944">
        <ele>21.4</ele>
        <time>2020-06-18T08:27:31Z</time>
      </trkpt>
      <trkpt lat="49.74606" lon="0.42956">
        <ele>21.5</ele>
        <time>2020-06-18T08:27:32Z</time>
      </trkpt>
      <trkpt lat="49.74605" lon="0.42969">
        <ele>21.5</ele>
        <time>2020-06-18T08:27:33Z</time>
      </trkpt>
      <trkpt lat="49.74604" lon="0.42982">
        <ele>21.6</ele>
        <time>2020-06-18T08:27:34Z</time>
      </trkpt>
      <trkpt lat="49.74604" lon="0.42994">
        <ele>21.6</ele>
        <time>2020-06-18T08:27:35Z</time>
      </trkpt>
      <trkpt lat="49.74604" lon="0.43005">
        <ele>21.6</ele>
        <time>2020-06-18T08:27:36Z</time>
      </trkpt>
      <trkpt lat="49.74604" lon="0.43016">
        <ele>21.6</ele>
        <time>2020-06-18T08:27:37Z</time>
      </trkpt>
      <trkpt lat="49.74604" lon="0.43027">
        <ele>21.6</ele>
        <time>2020-06-18T08:27:38Z</time>
      </trkpt>
      <trkpt lat="49.74605" lon="0.43039">
        <ele>21.6</ele>
        <time>2020-06-18T08:27:39Z</time>
      </trkpt>
      <trkpt lat="49.74606" lon="0.4305">
        <ele>21.7</ele>
        <time>2020-06-18T08:27:40Z</time>
      </trkpt>
      <trkpt lat="49.74606" lon="0.43061">
        <ele>21.7</ele>
        <time>2020-06-18T08:27:41Z</time>
      </trkpt>
      <trkpt lat="49.74607" lon="0.43072">
        <ele>21.7</ele>
        <time>2020-06-18T08:27:42Z</time>
      </trkpt>
      <trkpt lat="49.74608" lon="0.43083">
        <ele>21.8</ele>
        <time>2020-06-18T08:27:43Z</time>
      </trkpt>
      <trkpt lat="49.74608" lon="0.43092">
        <ele>21.8</ele>
        <time>2020-06-18T08:27:44Z</time>
      </trkpt>
      <trkpt lat="49.74608" lon="0.431">
        <ele>21.8</ele>
        <time>2020-06-18T08:27:45Z</time>
      </trkpt>
      <trkpt lat="49.74608" lon="0.43111">
        <ele>21.8</ele>
        <time>2020-06-18T08:27:46Z</time>
      </trkpt>
      <trkpt lat="49.74607" lon="0.43122">
        <ele>21.8</ele>
        <time>2020-06-18T08:27:47Z</time>
      </trkpt>
      <trkpt lat="49.74607" lon="0.43133">
        <ele>21.9</ele>
        <time>2020-06-18T08:27:48Z</time>
      </trkpt>
      <trkpt lat="49.74605" lon="0.43145">
        <ele>21.9</ele>
        <time>2020-06-18T08:27:49Z</time>
      </trkpt>
      <trkpt lat="49.74604" lon="0.43156">
        <ele>21.9</ele>
        <time>2020-06-18T08:27:50Z</time>
      </trkpt>
      <trkpt lat="49.74603" lon="0.43166">
        <ele>21.9</ele>
        <time>2020-06-18T08:27:51Z</time>
      </trkpt>
      <trkpt lat="49.74602" lon="0.43176">
        <ele>22</ele>
        <time>2020-06-18T08:27:52Z</time>
      </trkpt>
      <trkpt lat="49.74601" lon="0.43186">
        <ele>22</ele>
        <time>2020-06-18T08:27:53Z</time>
      </trkpt>
      <trkpt lat="49.74602" lon="0.43194">
        <ele>22</ele>
        <time>2020-06-18T08:27:54Z</time>
      </trkpt>
      <trkpt lat="49.74602" lon="0.43203">
        <ele>22</ele>
        <time>2020-06-18T08:27:55Z</time>
      </trkpt>
      <trkpt lat="49.74602" lon="0.43215">
        <ele>22.1</ele>
        <time>2020-06-18T08:27:56Z</time>
      </trkpt>
      <trkpt lat="49.74602" lon="0.43227">
        <ele>22.1</ele>
        <time>2020-06-18T08:27:57Z</time>
      </trkpt>
      <trkpt lat="49.74603" lon="0.43238">
        <ele>22.2</ele>
        <time>2020-06-18T08:27:58Z</time>
      </trkpt>
      <trkpt lat="49.74603" lon="0.43249">
        <ele>22.3</ele>
        <time>2020-06-18T08:27:59Z</time>
      </trkpt>
      <trkpt lat="49.74604" lon="0.43262">
        <ele>22.3</ele>
        <time>2020-06-18T08:28:00Z</time>
      </trkpt>
      <trkpt lat="49.74605" lon="0.43274">
        <ele>22.3</ele>
        <time>2020-06-18T08:28:01Z</time>
      </trkpt>
      <trkpt lat="49.74605" lon="0.43286">
        <ele>22.3</ele>
        <time>2020-06-18T08:28:02Z</time>
      </trkpt>
      <trkpt lat="49.74606" lon="0.43299">
        <ele>22.3</ele>
        <time>2020-06-18T08:28:03Z</time>
      </trkpt>
      <trkpt lat="49.74606" lon="0.43312">
        <ele>22.4</ele>
        <time>2020-06-18T08:28:04Z</time>
      </trkpt>
      <trkpt lat="49.74607" lon="0.43323">
        <ele>22.4</ele>
        <time>2020-06-18T08:28:05Z</time>
      </trkpt>
      <trkpt lat="49.74607" lon="0.43335">
        <ele>22.5</ele>
        <time>2020-06-18T08:28:06Z</time>
      </trkpt>
      <trkpt lat="49.74608" lon="0.43346">
        <ele>22.5</ele>
        <time>2020-06-18T08:28:07Z</time>
      </trkpt>
      <trkpt lat="49.74608" lon="0.43356">
        <ele>22.5</ele>
        <time>2020-06-18T08:28:08Z</time>
      </trkpt>
      <trkpt lat="49.74608" lon="0.43367">
        <ele>22.6</ele>
        <time>2020-06-18T08:28:09Z</time>
      </trkpt>
      <trkpt lat="49.74608" lon="0.43379">
        <ele>22.6</ele>
        <time>2020-06-18T08:28:10Z</time>
      </trkpt>
      <trkpt lat="49.74608" lon="0.43388">
        <ele>22.7</ele>
        <time>2020-06-18T08:28:11Z</time>
      </trkpt>
      <trkpt lat="49.74609" lon="0.43399">
        <ele>22.7</ele>
        <time>2020-06-18T08:28:12Z</time>
      </trkpt>
      <trkpt lat="49.7461" lon="0.4341">
        <ele>22.7</ele>
        <time>2020-06-18T08:28:13Z</time>
      </trkpt>
      <trkpt lat="49.74611" lon="0.4342">
        <ele>22.8</ele>
        <time>2020-06-18T08:28:14Z</time>
      </trkpt>
      <trkpt lat="49.74613" lon="0.43431">
        <ele>22.9</ele>
        <time>2020-06-18T08:28:15Z</time>
      </trkpt>
      <trkpt lat="49.74614" lon="0.43441">
        <ele>22.9</ele>
        <time>2020-06-18T08:28:16Z</time>
      </trkpt>
      <trkpt lat="49.74616" lon="0.43451">
        <ele>23</ele>
        <time>2020-06-18T08:28:17Z</time>
      </trkpt>
      <trkpt lat="49.74617" lon="0.43463">
        <ele>23.1</ele>
        <time>2020-06-18T08:28:18Z</time>
      </trkpt>
      <trkpt lat="49.7462" lon="0.43474">
        <ele>23.1</ele>
        <time>2020-06-18T08:28:19Z</time>
      </trkpt>
      <trkpt lat="49.74622" lon="0.43485">
        <ele>23.2</ele>
        <time>2020-06-18T08:28:20Z</time>
      </trkpt>
      <trkpt lat="49.74623" lon="0.43497">
        <ele>23.2</ele>
        <time>2020-06-18T08:28:21Z</time>
      </trkpt>
      <trkpt lat="49.74625" lon="0.43509">
        <ele>23.3</ele>
        <time>2020-06-18T08:28:22Z</time>
      </trkpt>
      <trkpt lat="49.74625" lon="0.43519">
        <ele>23.3</ele>
        <time>2020-06-18T08:28:23Z</time>
      </trkpt>
      <trkpt lat="49.74626" lon="0.43529">
        <ele>23.4</ele>
        <time>2020-06-18T08:28:24Z</time>
      </trkpt>
      <trkpt lat="49.74628" lon="0.43541">
        <ele>23.5</ele>
        <time>2020-06-18T08:28:25Z</time>
      </trkpt>
      <trkpt lat="49.7463" lon="0.43553">
        <ele>23.5</ele>
        <time>2020-06-18T08:28:26Z</time>
      </trkpt>
      <trkpt lat="49.74631" lon="0.43563">
        <ele>23.6</ele>
        <time>2020-06-18T08:28:27Z</time>
      </trkpt>
      <trkpt lat="49.74633" lon="0.43572">
        <ele>23.6</ele>
        <time>2020-06-18T08:28:28Z</time>
      </trkpt>
      <trkpt lat="49.74636" lon="0.43582">
        <ele>23.6</ele>
        <time>2020-06-18T08:28:29Z</time>
      </trkpt>
      <trkpt lat="49.74638" lon="0.43592">
        <ele>23.6</ele>
        <time>2020-06-18T08:28:30Z</time>
      </trkpt>
      <trkpt lat="49.7464" lon="0.43603">
        <ele>23.7</ele>
        <time>2020-06-18T08:28:31Z</time>
      </trkpt>
      <trkpt lat="49.74642" lon="0.43615">
        <ele>23.7</ele>
        <time>2020-06-18T08:28:32Z</time>
      </trkpt>
      <trkpt lat="49.74643" lon="0.43627">
        <ele>23.8</ele>
        <time>2020-06-18T08:28:33Z</time>
      </trkpt>
      <trkpt lat="49.74645" lon="0.43638">
        <ele>23.8</ele>
        <time>2020-06-18T08:28:34Z</time>
      </trkpt>
      <trkpt lat="49.74647" lon="0.43649">
        <ele>23.8</ele>
        <time>2020-06-18T08:28:35Z</time>
      </trkpt>
      <trkpt lat="49.7465" lon="0.43659">
        <ele>23.8</ele>
        <time>2020-06-18T08:28:36Z</time>
      </trkpt>
      <trkpt lat="49.74652" lon="0.4367">
        <ele>23.8</ele>
        <time>2020-06-18T08:28:37Z</time>
      </trkpt>
      <trkpt lat="49.74655" lon="0.4368">
        <ele>23.8</ele>
        <time>2020-06-18T08:28:38Z</time>
      </trkpt>
      <trkpt lat="49.74657" lon="0.4369">
        <ele>23.8</ele>
        <time>2020-06-18T08:28:39Z</time>
      </trkpt>
      <trkpt lat="49.7466" lon="0.437">
        <ele>23.8</ele>
        <time>2020-06-18T08:28:40Z</time>
      </trkpt>
      <trkpt lat="49.74664" lon="0.43712">
        <ele>23.8</ele>
        <time>2020-06-18T08:28:41Z</time>
      </trkpt>
      <trkpt lat="49.74667" lon="0.43722">
        <ele>23.9</ele>
        <time>2020-06-18T08:28:42Z</time>
      </trkpt>
      <trkpt lat="49.7467" lon="0.43733">
        <ele>23.9</ele>
        <time>2020-06-18T08:28:43Z</time>
      </trkpt>
      <trkpt lat="49.74674" lon="0.43744">
        <ele>23.9</ele>
        <time>2020-06-18T08:28:44Z</time>
      </trkpt>
      <trkpt lat="49.74678" lon="0.43755">
        <ele>24</ele>
        <time>2020-06-18T08:28:45Z</time>
      </trkpt>
      <trkpt lat="49.74681" lon="0.43765">
        <ele>24.1</ele>
        <time>2020-06-18T08:28:46Z</time>
      </trkpt>
      <trkpt lat="49.74683" lon="0.43776">
        <ele>24.1</ele>
        <time>2020-06-18T08:28:47Z</time>
      </trkpt>
      <trkpt lat="49.74685" lon="0.43786">
        <ele>24.2</ele>
        <time>2020-06-18T08:28:48Z</time>
      </trkpt>
      <trkpt lat="49.74687" lon="0.43797">
        <ele>24.3</ele>
        <time>2020-06-18T08:28:49Z</time>
      </trkpt>
      <trkpt lat="49.7469" lon="0.43808">
        <ele>24.3</ele>
        <time>2020-06-18T08:28:50Z</time>
      </trkpt>
      <trkpt lat="49.74693" lon="0.43818">
        <ele>24.4</ele>
        <time>2020-06-18T08:28:51Z</time>
      </trkpt>
      <trkpt lat="49.74695" lon="0.43829">
        <ele>24.4</ele>
        <time>2020-06-18T08:28:52Z</time>
      </trkpt>
      <trkpt lat="49.74698" lon="0.43839">
        <ele>24.5</ele>
        <time>2020-06-18T08:28:53Z</time>
      </trkpt>
      <trkpt lat="49.747" lon="0.43849">
        <ele>24.5</ele>
        <time>2020-06-18T08:28:54Z</time>
      </trkpt>
      <trkpt lat="49.74702" lon="0.43859">
        <ele>24.6</ele>
        <time>2020-06-18T08:28:55Z</time>
      </trkpt>
      <trkpt lat="49.74705" lon="0.4387">
        <ele>24.6</ele>
        <time>2020-06-18T08:28:56Z</time>
      </trkpt>
      <trkpt lat="49.74707" lon="0.4388">
        <ele>24.7</ele>
        <time>2020-06-18T08:28:57Z</time>
      </trkpt>
      <trkpt lat="49.7471" lon="0.4389">
        <ele>24.8</ele>
        <time>2020-06-18T08:28:58Z</time>
      </trkpt>
      <trkpt lat="49.74713" lon="0.439">
        <ele>24.8</ele>
        <time>2020-06-18T08:28:59Z</time>
      </trkpt>
      <trkpt lat="49.74715" lon="0.43911">
        <ele>24.9</ele>
        <time>2020-06-18T08:29:00Z</time>
      </trkpt>
      <trkpt lat="49.74717" lon="0.4392">
        <ele>24.9</ele>
        <time>2020-06-18T08:29:01Z</time>
      </trkpt>
      <trkpt lat="49.74719" lon="0.4393">
        <ele>25</ele>
        <time>2020-06-18T08:29:02Z</time>
      </trkpt>
      <trkpt lat="49.74722" lon="0.4394">
        <ele>25</ele>
        <time>2020-06-18T08:29:03Z</time>
      </trkpt>
      <trkpt lat="49.74724" lon="0.4395">
        <ele>25.1</ele>
        <time>2020-06-18T08:29:04Z</time>
      </trkpt>
      <trkpt lat="49.74726" lon="0.43959">
        <ele>25.1</ele>
        <time>2020-06-18T08:29:05Z</time>
      </trkpt>
      <trkpt lat="49.74728" lon="0.4397">
        <ele>25.1</ele>
        <time>2020-06-18T08:29:06Z</time>
      </trkpt>
      <trkpt lat="49.7473" lon="0.43981">
        <ele>25.2</ele>
        <time>2020-06-18T08:29:07Z</time>
      </trkpt>
      <trkpt lat="49.74732" lon="0.43992">
        <ele>25.2</ele>
        <time>2020-06-18T08:29:08Z</time>
      </trkpt>
      <trkpt lat="49.74734" lon="0.44002">
        <ele>25.3</ele>
        <time>2020-06-18T08:29:09Z</time>
      </trkpt>
      <trkpt lat="49.74736" lon="0.44013">
        <ele>25.3</ele>
        <time>2020-06-18T08:29:10Z</time>
      </trkpt>
      <trkpt lat="49.74737" lon="0.44024">
        <ele>25.4</ele>
        <time>2020-06-18T08:29:11Z</time>
      </trkpt>
      <trkpt lat="49.74739" lon="0.44034">
        <ele>25.4</ele>
        <time>2020-06-18T08:29:12Z</time>
      </trkpt>
      <trkpt lat="49.74741" lon="0.44045">
        <ele>25.5</ele>
        <time>2020-06-18T08:29:13Z</time>
      </trkpt>
      <trkpt lat="49.74742" lon="0.44055">
        <ele>25.6</ele>
        <time>2020-06-18T08:29:14Z</time>
      </trkpt>
      <trkpt lat="49.74743" lon="0.44065">
        <ele>25.6</ele>
        <time>2020-06-18T08:29:15Z</time>
      </trkpt>
      <trkpt lat="49.74745" lon="0.44076">
        <ele>25.7</ele>
        <time>2020-06-18T08:29:16Z</time>
      </trkpt>
      <trkpt lat="49.74747" lon="0.44086">
        <ele>25.7</ele>
        <time>2020-06-18T08:29:17Z</time>
      </trkpt>
      <trkpt lat="49.74749" lon="0.44097">
        <ele>25.8</ele>
        <time>2020-06-18T08:29:18Z</time>
      </trkpt>
      <trkpt lat="49.7475" lon="0.44106">
        <ele>25.8</ele>
        <time>2020-06-18T08:29:19Z</time>
      </trkpt>
      <trkpt lat="49.74751" lon="0.44116">
        <ele>25.9</ele>
        <time>2020-06-18T08:29:20Z</time>
      </trkpt>
      <trkpt lat="49.74753" lon="0.44127">
        <ele>25.9</ele>
        <time>2020-06-18T08:29:21Z</time>
      </trkpt>
      <trkpt lat="49.74753" lon="0.44137">
        <ele>25.9</ele>
        <time>2020-06-18T08:29:22Z</time>
      </trkpt>
      <trkpt lat="49.74754" lon="0.44147">
        <ele>26</ele>
        <time>2020-06-18T08:29:23Z</time>
      </trkpt>
      <trkpt lat="49.74754" lon="0.44157">
        <ele>26.1</ele>
        <time>2020-06-18T08:29:24Z</time>
      </trkpt>
      <trkpt lat="49.74755" lon="0.44166">
        <ele>26.1</ele>
        <time>2020-06-18T08:29:25Z</time>
      </trkpt>
      <trkpt lat="49.74755" lon="0.44173">
        <ele>26.2</ele>
        <time>2020-06-18T08:29:26Z</time>
      </trkpt>
      <trkpt lat="49.74756" lon="0.44181">
        <ele>26.3</ele>
        <time>2020-06-18T08:29:27Z</time>
      </trkpt>
      <trkpt lat="49.74756" lon="0.44188">
        <ele>26.4</ele>
        <time>2020-06-18T08:29:28Z</time>
      </trkpt>
      <trkpt lat="49.74756" lon="0.44196">
        <ele>26.4</ele>
        <time>2020-06-18T08:29:29Z</time>
      </trkpt>
      <trkpt lat="49.74756" lon="0.44203">
        <ele>26.5</ele>
        <time>2020-06-18T08:29:30Z</time>
      </trkpt>
      <trkpt lat="49.74756" lon="0.4421">
        <ele>26.6</ele>
        <time>2020-06-18T08:29:31Z</time>
      </trkpt>
      <trkpt lat="49.74756" lon="0.44216">
        <ele>26.6</ele>
        <time>2020-06-18T08:29:32Z</time>
      </trkpt>
      <trkpt lat="49.74757" lon="0.44223">
        <ele>26.7</ele>
        <time>2020-06-18T08:29:33Z</time>
      </trkpt>
      <trkpt lat="49.74758" lon="0.44231">
        <ele>26.8</ele>
        <time>2020-06-18T08:29:34Z</time>
      </trkpt>
      <trkpt lat="49.74758" lon="0.44238">
        <ele>26.8</ele>
        <time>2020-06-18T08:29:35Z</time>
      </trkpt>
      <trkpt lat="49.74758" lon="0.44247">
        <ele>26.8</ele>
        <time>2020-06-18T08:29:36Z</time>
      </trkpt>
      <trkpt lat="49.74759" lon="0.44256">
        <ele>26.8</ele>
        <time>2020-06-18T08:29:37Z</time>
      </trkpt>
      <trkpt lat="49.74759" lon="0.44266">
        <ele>26.7</ele>
        <time>2020-06-18T08:29:38Z</time>
      </trkpt>
      <trkpt lat="49.7476" lon="0.44277">
        <ele>26.7</ele>
        <time>2020-06-18T08:29:39Z</time>
      </trkpt>
      <trkpt lat="49.7476" lon="0.44288">
        <ele>26.7</ele>
        <time>2020-06-18T08:29:40Z</time>
      </trkpt>
      <trkpt lat="49.7476" lon="0.44298">
        <ele>26.7</ele>
        <time>2020-06-18T08:29:41Z</time>
      </trkpt>
      <trkpt lat="49.74761" lon="0.44309">
        <ele>26.7</ele>
        <time>2020-06-18T08:29:42Z</time>
      </trkpt>
      <trkpt lat="49.74761" lon="0.44321">
        <ele>26.7</ele>
        <time>2020-06-18T08:29:43Z</time>
      </trkpt>
      <trkpt lat="49.74762" lon="0.44331">
        <ele>26.7</ele>
        <time>2020-06-18T08:29:44Z</time>
      </trkpt>
      <trkpt lat="49.74762" lon="0.44341">
        <ele>26.7</ele>
        <time>2020-06-18T08:29:45Z</time>
      </trkpt>
      <trkpt lat="49.74763" lon="0.4435">
        <ele>26.8</ele>
        <time>2020-06-18T08:29:46Z</time>
      </trkpt>
      <trkpt lat="49.74763" lon="0.44358">
        <ele>26.8</ele>
        <time>2020-06-18T08:29:47Z</time>
      </trkpt>
      <trkpt lat="49.74763" lon="0.44368">
        <ele>26.8</ele>
        <time>2020-06-18T08:29:48Z</time>
      </trkpt>
      <trkpt lat="49.74762" lon="0.44377">
        <ele>26.9</ele>
        <time>2020-06-18T08:29:49Z</time>
      </trkpt>
      <trkpt lat="49.74762" lon="0.44389">
        <ele>26.9</ele>
        <time>2020-06-18T08:29:50Z</time>
      </trkpt>
      <trkpt lat="49.74761" lon="0.44399">
        <ele>26.9</ele>
        <time>2020-06-18T08:29:51Z</time>
      </trkpt>
      <trkpt lat="49.74761" lon="0.4441">
        <ele>26.9</ele>
        <time>2020-06-18T08:29:52Z</time>
      </trkpt>
      <trkpt lat="49.74761" lon="0.44421">
        <ele>26.9</ele>
        <time>2020-06-18T08:29:53Z</time>
      </trkpt>
      <trkpt lat="49.74761" lon="0.44431">
        <ele>27</ele>
        <time>2020-06-18T08:29:54Z</time>
      </trkpt>
      <trkpt lat="49.7476" lon="0.44443">
        <ele>27</ele>
        <time>2020-06-18T08:29:55Z</time>
      </trkpt>
      <trkpt lat="49.7476" lon="0.44453">
        <ele>27</ele>
        <time>2020-06-18T08:29:56Z</time>
      </trkpt>
      <trkpt lat="49.7476" lon="0.44463">
        <ele>27</ele>
        <time>2020-06-18T08:29:57Z</time>
      </trkpt>
      <trkpt lat="49.7476" lon="0.44474">
        <ele>27.1</ele>
        <time>2020-06-18T08:29:58Z</time>
      </trkpt>
      <trkpt lat="49.74759" lon="0.44484">
        <ele>27.1</ele>
        <time>2020-06-18T08:29:59Z</time>
      </trkpt>
      <trkpt lat="49.74759" lon="0.44494">
        <ele>27.2</ele>
        <time>2020-06-18T08:30:00Z</time>
      </trkpt>
      <trkpt lat="49.74758" lon="0.44504">
        <ele>27.3</ele>
        <time>2020-06-18T08:30:01Z</time>
      </trkpt>
      <trkpt lat="49.74758" lon="0.44514">
        <ele>27.3</ele>
        <time>2020-06-18T08:30:02Z</time>
      </trkpt>
      <trkpt lat="49.74758" lon="0.44523">
        <ele>27.4</ele>
        <time>2020-06-18T08:30:03Z</time>
      </trkpt>
      <trkpt lat="49.74758" lon="0.44533">
        <ele>27.4</ele>
        <time>2020-06-18T08:30:04Z</time>
      </trkpt>
      <trkpt lat="49.74758" lon="0.44543">
        <ele>27.5</ele>
        <time>2020-06-18T08:30:05Z</time>
      </trkpt>
      <trkpt lat="49.74758" lon="0.44553">
        <ele>27.5</ele>
        <time>2020-06-18T08:30:06Z</time>
      </trkpt>
      <trkpt lat="49.74757" lon="0.44563">
        <ele>27.5</ele>
        <time>2020-06-18T08:30:07Z</time>
      </trkpt>
      <trkpt lat="49.74757" lon="0.44572">
        <ele>27.6</ele>
        <time>2020-06-18T08:30:08Z</time>
      </trkpt>
      <trkpt lat="49.74756" lon="0.44581">
        <ele>27.6</ele>
        <time>2020-06-18T08:30:09Z</time>
      </trkpt>
      <trkpt lat="49.74756" lon="0.4459">
        <ele>27.6</ele>
        <time>2020-06-18T08:30:10Z</time>
      </trkpt>
      <trkpt lat="49.74756" lon="0.446">
        <ele>27.6</ele>
        <time>2020-06-18T08:30:11Z</time>
      </trkpt>
      <trkpt lat="49.74756" lon="0.4461">
        <ele>27.7</ele>
        <time>2020-06-18T08:30:12Z</time>
      </trkpt>
      <trkpt lat="49.74756" lon="0.44622">
        <ele>27.8</ele>
        <time>2020-06-18T08:30:13Z</time>
      </trkpt>
      <trkpt lat="49.74756" lon="0.44631">
        <ele>27.8</ele>
        <time>2020-06-18T08:30:14Z</time>
      </trkpt>
      <trkpt lat="49.74756" lon="0.4464">
        <ele>27.8</ele>
        <time>2020-06-18T08:30:15Z</time>
      </trkpt>
      <trkpt lat="49.74756" lon="0.44651">
        <ele>27.9</ele>
        <time>2020-06-18T08:30:16Z</time>
      </trkpt>
      <trkpt lat="49.74755" lon="0.44661">
        <ele>28</ele>
        <time>2020-06-18T08:30:17Z</time>
      </trkpt>
      <trkpt lat="49.74754" lon="0.44674">
        <ele>28</ele>
        <time>2020-06-18T08:30:18Z</time>
      </trkpt>
      <trkpt lat="49.74754" lon="0.44685">
        <ele>28.1</ele>
        <time>2020-06-18T08:30:19Z</time>
      </trkpt>
      <trkpt lat="49.74753" lon="0.44698">
        <ele>28.2</ele>
        <time>2020-06-18T08:30:20Z</time>
      </trkpt>
      <trkpt lat="49.74752" lon="0.44708">
        <ele>28.3</ele>
        <time>2020-06-18T08:30:21Z</time>
      </trkpt>
      <trkpt lat="49.74752" lon="0.44718">
        <ele>28.3</ele>
        <time>2020-06-18T08:30:22Z</time>
      </trkpt>
      <trkpt lat="49.74752" lon="0.44729">
        <ele>28.4</ele>
        <time>2020-06-18T08:30:23Z</time>
      </trkpt>
      <trkpt lat="49.74753" lon="0.4474">
        <ele>28.5</ele>
        <time>2020-06-18T08:30:24Z</time>
      </trkpt>
      <trkpt lat="49.74753" lon="0.44749">
        <ele>28.5</ele>
        <time>2020-06-18T08:30:25Z</time>
      </trkpt>
      <trkpt lat="49.74753" lon="0.44762">
        <ele>28.6</ele>
        <time>2020-06-18T08:30:26Z</time>
      </trkpt>
      <trkpt lat="49.74753" lon="0.44771">
        <ele>28.6</ele>
        <time>2020-06-18T08:30:27Z</time>
      </trkpt>
      <trkpt lat="49.74752" lon="0.44779">
        <ele>28.6</ele>
        <time>2020-06-18T08:30:28Z</time>
      </trkpt>
      <trkpt lat="49.74752" lon="0.44787">
        <ele>28.7</ele>
        <time>2020-06-18T08:30:29Z</time>
      </trkpt>
      <trkpt lat="49.74751" lon="0.44796">
        <ele>28.7</ele>
        <time>2020-06-18T08:30:30Z</time>
      </trkpt>
      <trkpt lat="49.74751" lon="0.44803">
        <ele>28.8</ele>
        <time>2020-06-18T08:30:31Z</time>
      </trkpt>
      <trkpt lat="49.74752" lon="0.44813">
        <ele>28.8</ele>
        <time>2020-06-18T08:30:32Z</time>
      </trkpt>
      <trkpt lat="49.74751" lon="0.4482">
        <ele>28.8</ele>
        <time>2020-06-18T08:30:33Z</time>
      </trkpt>
      <trkpt lat="49.74752" lon="0.44827">
        <ele>28.9</ele>
        <time>2020-06-18T08:30:34Z</time>
      </trkpt>
      <trkpt lat="49.74751" lon="0.44832">
        <ele>28.9</ele>
        <time>2020-06-18T08:30:35Z</time>
      </trkpt>
      <trkpt lat="49.74751" lon="0.44838">
        <ele>28.9</ele>
        <time>2020-06-18T08:30:36Z</time>
      </trkpt>
      <trkpt lat="49.7475" lon="0.44845">
        <ele>29</ele>
        <time>2020-06-18T08:30:37Z</time>
      </trkpt>
      <trkpt lat="49.74751" lon="0.44851">
        <ele>29</ele>
        <time>2020-06-18T08:30:38Z</time>
      </trkpt>
      <trkpt lat="49.74751" lon="0.44855">
        <ele>29</ele>
        <time>2020-06-18T08:30:39Z</time>
      </trkpt>
      <trkpt lat="49.74752" lon="0.44862">
        <ele>29.1</ele>
        <time>2020-06-18T08:30:40Z</time>
      </trkpt>
      <trkpt lat="49.74752" lon="0.44868">
        <ele>29.1</ele>
        <time>2020-06-18T08:30:41Z</time>
      </trkpt>
      <trkpt lat="49.74752" lon="0.44872">
        <ele>29.1</ele>
        <time>2020-06-18T08:30:42Z</time>
      </trkpt>
      <trkpt lat="49.74751" lon="0.44876">
        <ele>29.2</ele>
        <time>2020-06-18T08:30:43Z</time>
      </trkpt>
      <trkpt lat="49.74748" lon="0.4488">
        <ele>29.1</ele>
        <time>2020-06-18T08:30:44Z</time>
      </trkpt>
      <trkpt lat="49.74745" lon="0.44882">
        <ele>29</ele>
        <time>2020-06-18T08:30:45Z</time>
      </trkpt>
      <trkpt lat="49.7474" lon="0.44886">
        <ele>29</ele>
        <time>2020-06-18T08:30:46Z</time>
      </trkpt>
      <trkpt lat="49.74736" lon="0.44889">
        <ele>28.9</ele>
        <time>2020-06-18T08:30:47Z</time>
      </trkpt>
      <trkpt lat="49.74732" lon="0.44897">
        <ele>28.8</ele>
        <time>2020-06-18T08:30:48Z</time>
      </trkpt>
      <trkpt lat="49.74728" lon="0.44903">
        <ele>28.7</ele>
        <time>2020-06-18T08:30:49Z</time>
      </trkpt>
      <trkpt lat="49.74723" lon="0.4491">
        <ele>28.6</ele>
        <time>2020-06-18T08:30:50Z</time>
      </trkpt>
      <trkpt lat="49.74719" lon="0.44916">
        <ele>28.5</ele>
        <time>2020-06-18T08:30:51Z</time>
      </trkpt>
      <trkpt lat="49.74714" lon="0.44925">
        <ele>28.4</ele>
        <time>2020-06-18T08:30:52Z</time>
      </trkpt>
      <trkpt lat="49.7471" lon="0.44934">
        <ele>28.4</ele>
        <time>2020-06-18T08:30:53Z</time>
      </trkpt>
      <trkpt lat="49.74708" lon="0.4494">
        <ele>28.3</ele>
        <time>2020-06-18T08:30:54Z</time>
      </trkpt>
      <trkpt lat="49.74705" lon="0.44946">
        <ele>28.3</ele>
        <time>2020-06-18T08:30:55Z</time>
      </trkpt>
      <trkpt lat="49.74702" lon="0.44953">
        <ele>28.2</ele>
        <time>2020-06-18T08:30:56Z</time>
      </trkpt>
      <trkpt lat="49.747" lon="0.44961">
        <ele>28.2</ele>
        <time>2020-06-18T08:30:57Z</time>
      </trkpt>
      <trkpt lat="49.74698" lon="0.4497">
        <ele>28.2</ele>
        <time>2020-06-18T08:30:58Z</time>
      </trkpt>
      <trkpt lat="49.74697" lon="0.44979">
        <ele>28.2</ele>
        <time>2020-06-18T08:30:59Z</time>
      </trkpt>
      <trkpt lat="49.74697" lon="0.44988">
        <ele>28.2</ele>
        <time>2020-06-18T08:31:00Z</time>
      </trkpt>
      <trkpt lat="49.74697" lon="0.44998">
        <ele>28.3</ele>
        <time>2020-06-18T08:31:01Z</time>
      </trkpt>
      <trkpt lat="49.74696" lon="0.45006">
        <ele>28.3</ele>
        <time>2020-06-18T08:31:02Z</time>
      </trkpt>
      <trkpt lat="49.74696" lon="0.45015">
        <ele>28.4</ele>
        <time>2020-06-18T08:31:03Z</time>
      </trkpt>
      <trkpt lat="49.74695" lon="0.45023">
        <ele>28.4</ele>
        <time>2020-06-18T08:31:04Z</time>
      </trkpt>
      <trkpt lat="49.74694" lon="0.45031">
        <ele>28.5</ele>
        <time>2020-06-18T08:31:05Z</time>
      </trkpt>
      <trkpt lat="49.74693" lon="0.45037">
        <ele>28.5</ele>
        <time>2020-06-18T08:31:06Z</time>
      </trkpt>
      <trkpt lat="49.74692" lon="0.45046">
        <ele>28.6</ele>
        <time>2020-06-18T08:31:07Z</time>
      </trkpt>
      <trkpt lat="49.74691" lon="0.45057">
        <ele>28.7</ele>
        <time>2020-06-18T08:31:08Z</time>
      </trkpt>
      <trkpt lat="49.74692" lon="0.45067">
        <ele>28.8</ele>
        <time>2020-06-18T08:31:09Z</time>
      </trkpt>
      <trkpt lat="49.74691" lon="0.45075">
        <ele>28.8</ele>
        <time>2020-06-18T08:31:10Z</time>
      </trkpt>
      <trkpt lat="49.74689" lon="0.45084">
        <ele>28.9</ele>
        <time>2020-06-18T08:31:11Z</time>
      </trkpt>
      <trkpt lat="49.74687" lon="0.45093">
        <ele>29</ele>
        <time>2020-06-18T08:31:12Z</time>
      </trkpt>
      <trkpt lat="49.74686" lon="0.45101">
        <ele>29.1</ele>
        <time>2020-06-18T08:31:13Z</time>
      </trkpt>
      <trkpt lat="49.74684" lon="0.45108">
        <ele>29.1</ele>
        <time>2020-06-18T08:31:14Z</time>
      </trkpt>
      <trkpt lat="49.74683" lon="0.45115">
        <ele>29.2</ele>
        <time>2020-06-18T08:31:15Z</time>
      </trkpt>
      <trkpt lat="49.74682" lon="0.45121">
        <ele>29.2</ele>
        <time>2020-06-18T08:31:16Z</time>
      </trkpt>
      <trkpt lat="49.74681" lon="0.4513">
        <ele>29.3</ele>
        <time>2020-06-18T08:31:17Z</time>
      </trkpt>
      <trkpt lat="49.7468" lon="0.45138">
        <ele>29.4</ele>
        <time>2020-06-18T08:31:18Z</time>
      </trkpt>
      <trkpt lat="49.74678" lon="0.45145">
        <ele>29.4</ele>
        <time>2020-06-18T08:31:19Z</time>
      </trkpt>
      <trkpt lat="49.74676" lon="0.45151">
        <ele>29.5</ele>
        <time>2020-06-18T08:31:20Z</time>
      </trkpt>
      <trkpt lat="49.74674" lon="0.45157">
        <ele>29.6</ele>
        <time>2020-06-18T08:31:21Z</time>
      </trkpt>
      <trkpt lat="49.74671" lon="0.45163">
        <ele>29.7</ele>
        <time>2020-06-18T08:31:22Z</time>
      </trkpt>
      <trkpt lat="49.74666" lon="0.45166">
        <ele>29.8</ele>
        <time>2020-06-18T08:31:23Z</time>
      </trkpt>
      <trkpt lat="49.74661" lon="0.45167">
        <ele>29.9</ele>
        <time>2020-06-18T08:31:24Z</time>
      </trkpt>
      <trkpt lat="49.74656" lon="0.45166">
        <ele>30</ele>
        <time>2020-06-18T08:31:25Z</time>
      </trkpt>
      <trkpt lat="49.74651" lon="0.45166">
        <ele>30</ele>
        <time>2020-06-18T08:31:26Z</time>
      </trkpt>
      <trkpt lat="49.74646" lon="0.45166">
        <ele>29.9</ele>
        <time>2020-06-18T08:31:27Z</time>
      </trkpt>
      <trkpt lat="49.74642" lon="0.45168">
        <ele>29.9</ele>
        <time>2020-06-18T08:31:28Z</time>
      </trkpt>
      <trkpt lat="49.74639" lon="0.45175">
        <ele>29.8</ele>
        <time>2020-06-18T08:31:29Z</time>
      </trkpt>
      <trkpt lat="49.74638" lon="0.45187">
        <ele>29.8</ele>
        <time>2020-06-18T08:31:30Z</time>
      </trkpt>
      <trkpt lat="49.74639" lon="0.45196">
        <ele>29.8</ele>
        <time>2020-06-18T08:31:31Z</time>
      </trkpt>
      <trkpt lat="49.74639" lon="0.45205">
        <ele>29.8</ele>
        <time>2020-06-18T08:31:32Z</time>
      </trkpt>
      <trkpt lat="49.74639" lon="0.45215">
        <ele>29.8</ele>
        <time>2020-06-18T08:31:33Z</time>
      </trkpt>
      <trkpt lat="49.74639" lon="0.45224">
        <ele>29.8</ele>
        <time>2020-06-18T08:31:34Z</time>
      </trkpt>
      <trkpt lat="49.7464" lon="0.45235">
        <ele>29.7</ele>
        <time>2020-06-18T08:31:35Z</time>
      </trkpt>
      <trkpt lat="49.7464" lon="0.45245">
        <ele>29.7</ele>
        <time>2020-06-18T08:31:36Z</time>
      </trkpt>
      <trkpt lat="49.7464" lon="0.45254">
        <ele>29.7</ele>
        <time>2020-06-18T08:31:37Z</time>
      </trkpt>
      <trkpt lat="49.74641" lon="0.4526">
        <ele>29.7</ele>
        <time>2020-06-18T08:31:38Z</time>
      </trkpt>
      <trkpt lat="49.74642" lon="0.45267">
        <ele>29.7</ele>
        <time>2020-06-18T08:31:39Z</time>
      </trkpt>
      <trkpt lat="49.74642" lon="0.45277">
        <ele>29.7</ele>
        <time>2020-06-18T08:31:40Z</time>
      </trkpt>
      <trkpt lat="49.74643" lon="0.45286">
        <ele>29.7</ele>
        <time>2020-06-18T08:31:41Z</time>
      </trkpt>
      <trkpt lat="49.74644" lon="0.45295">
        <ele>29.7</ele>
        <time>2020-06-18T08:31:42Z</time>
      </trkpt>
      <trkpt lat="49.74644" lon="0.45304">
        <ele>29.7</ele>
        <time>2020-06-18T08:31:43Z</time>
      </trkpt>
      <trkpt lat="49.74646" lon="0.45315">
        <ele>29.7</ele>
        <time>2020-06-18T08:31:44Z</time>
      </trkpt>
      <trkpt lat="49.74648" lon="0.45326">
        <ele>29.7</ele>
        <time>2020-06-18T08:31:45Z</time>
      </trkpt>
      <trkpt lat="49.74652" lon="0.45333">
        <ele>29.7</ele>
        <time>2020-06-18T08:31:46Z</time>
      </trkpt>
      <trkpt lat="49.74655" lon="0.4534">
        <ele>29.7</ele>
        <time>2020-06-18T08:31:47Z</time>
      </trkpt>
      <trkpt lat="49.74659" lon="0.45349">
        <ele>29.7</ele>
        <time>2020-06-18T08:31:48Z</time>
      </trkpt>
      <trkpt lat="49.74662" lon="0.45358">
        <ele>29.7</ele>
        <time>2020-06-18T08:31:49Z</time>
      </trkpt>
      <trkpt lat="49.74665" lon="0.45364">
        <ele>29.8</ele>
        <time>2020-06-18T08:31:50Z</time>
      </trkpt>
      <trkpt lat="49.74668" lon="0.45372">
        <ele>29.8</ele>
        <time>2020-06-18T08:31:51Z</time>
      </trkpt>
      <trkpt lat="49.74671" lon="0.4538">
        <ele>29.8</ele>
        <time>2020-06-18T08:31:52Z</time>
      </trkpt>
      <trkpt lat="49.74675" lon="0.4539">
        <ele>29.8</ele>
        <time>2020-06-18T08:31:53Z</time>
      </trkpt>
      <trkpt lat="49.74677" lon="0.45397">
        <ele>29.9</ele>
        <time>2020-06-18T08:31:54Z</time>
      </trkpt>
      <trkpt lat="49.7468" lon="0.45405">
        <ele>29.9</ele>
        <time>2020-06-18T08:31:55Z</time>
      </trkpt>
      <trkpt lat="49.74682" lon="0.45412">
        <ele>29.9</ele>
        <time>2020-06-18T08:31:56Z</time>
      </trkpt>
      <trkpt lat="49.74684" lon="0.45422">
        <ele>30</ele>
        <time>2020-06-18T08:31:57Z</time>
      </trkpt>
      <trkpt lat="49.74686" lon="0.45432">
        <ele>30</ele>
        <time>2020-06-18T08:31:58Z</time>
      </trkpt>
      <trkpt lat="49.74689" lon="0.45441">
        <ele>30</ele>
        <time>2020-06-18T08:31:59Z</time>
      </trkpt>
      <trkpt lat="49.74692" lon="0.45452">
        <ele>30</ele>
        <time>2020-06-18T08:32:00Z</time>
      </trkpt>
      <trkpt lat="49.74694" lon="0.45462">
        <ele>30</ele>
        <time>2020-06-18T08:32:01Z</time>
      </trkpt>
      <trkpt lat="49.74696" lon="0.45471">
        <ele>30.1</ele>
        <time>2020-06-18T08:32:02Z</time>
      </trkpt>
      <trkpt lat="49.74697" lon="0.4548">
        <ele>30.1</ele>
        <time>2020-06-18T08:32:03Z</time>
      </trkpt>
      <trkpt lat="49.74699" lon="0.4549">
        <ele>30.2</ele>
        <time>2020-06-18T08:32:04Z</time>
      </trkpt>
      <trkpt lat="49.747" lon="0.455">
        <ele>30.2</ele>
        <time>2020-06-18T08:32:05Z</time>
      </trkpt>
      <trkpt lat="49.74702" lon="0.4551">
        <ele>30.3</ele>
        <time>2020-06-18T08:32:06Z</time>
      </trkpt>
      <trkpt lat="49.74704" lon="0.4552">
        <ele>30.3</ele>
        <time>2020-06-18T08:32:07Z</time>
      </trkpt>
      <trkpt lat="49.74706" lon="0.4553">
        <ele>30.4</ele>
        <time>2020-06-18T08:32:08Z</time>
      </trkpt>
      <trkpt lat="49.74708" lon="0.45539">
        <ele>30.4</ele>
        <time>2020-06-18T08:32:09Z</time>
      </trkpt>
      <trkpt lat="49.7471" lon="0.45549">
        <ele>30.4</ele>
        <time>2020-06-18T08:32:10Z</time>
      </trkpt>
      <trkpt lat="49.74713" lon="0.45559">
        <ele>30.5</ele>
        <time>2020-06-18T08:32:11Z</time>
      </trkpt>
      <trkpt lat="49.74715" lon="0.45569">
        <ele>30.5</ele>
        <time>2020-06-18T08:32:12Z</time>
      </trkpt>
      <trkpt lat="49.74718" lon="0.4558">
        <ele>30.5</ele>
        <time>2020-06-18T08:32:13Z</time>
      </trkpt>
      <trkpt lat="49.7472" lon="0.45589">
        <ele>30.6</ele>
        <time>2020-06-18T08:32:14Z</time>
      </trkpt>
      <trkpt lat="49.74722" lon="0.45599">
        <ele>30.6</ele>
        <time>2020-06-18T08:32:15Z</time>
      </trkpt>
      <trkpt lat="49.74724" lon="0.45608">
        <ele>30.6</ele>
        <time>2020-06-18T08:32:16Z</time>
      </trkpt>
      <trkpt lat="49.74726" lon="0.45617">
        <ele>30.7</ele>
        <time>2020-06-18T08:32:17Z</time>
      </trkpt>
      <trkpt lat="49.74728" lon="0.45627">
        <ele>30.7</ele>
        <time>2020-06-18T08:32:18Z</time>
      </trkpt>
      <trkpt lat="49.74731" lon="0.45634">
        <ele>30.7</ele>
        <time>2020-06-18T08:32:19Z</time>
      </trkpt>
      <trkpt lat="49.74733" lon="0.45643">
        <ele>30.7</ele>
        <time>2020-06-18T08:32:20Z</time>
      </trkpt>
      <trkpt lat="49.74736" lon="0.45653">
        <ele>30.7</ele>
        <time>2020-06-18T08:32:21Z</time>
      </trkpt>
      <trkpt lat="49.74738" lon="0.45661">
        <ele>30.6</ele>
        <time>2020-06-18T08:32:22Z</time>
      </trkpt>
      <trkpt lat="49.7474" lon="0.45668">
        <ele>30.6</ele>
        <time>2020-06-18T08:32:23Z</time>
      </trkpt>
      <trkpt lat="49.74743" lon="0.45674">
        <ele>30.6</ele>
        <time>2020-06-18T08:32:24Z</time>
      </trkpt>
      <trkpt lat="49.74745" lon="0.45679">
        <ele>30.7</ele>
        <time>2020-06-18T08:32:25Z</time>
      </trkpt>
      <trkpt lat="49.74748" lon="0.45683">
        <ele>30.7</ele>
        <time>2020-06-18T08:32:26Z</time>
      </trkpt>
      <trkpt lat="49.74752" lon="0.45689">
        <ele>30.7</ele>
        <time>2020-06-18T08:32:27Z</time>
      </trkpt>
      <trkpt lat="49.74757" lon="0.45695">
        <ele>30.8</ele>
        <time>2020-06-18T08:32:28Z</time>
      </trkpt>
      <trkpt lat="49.74761" lon="0.457">
        <ele>30.9</ele>
        <time>2020-06-18T08:32:29Z</time>
      </trkpt>
      <trkpt lat="49.74765" lon="0.45706">
        <ele>30.9</ele>
        <time>2020-06-18T08:32:30Z</time>
      </trkpt>
      <trkpt lat="49.74768" lon="0.45713">
        <ele>31</ele>
        <time>2020-06-18T08:32:31Z</time>
      </trkpt>
      <trkpt lat="49.74772" lon="0.45721">
        <ele>31</ele>
        <time>2020-06-18T08:32:32Z</time>
      </trkpt>
      <trkpt lat="49.74775" lon="0.45728">
        <ele>31</ele>
        <time>2020-06-18T08:32:33Z</time>
      </trkpt>
      <trkpt lat="49.74778" lon="0.45735">
        <ele>31.1</ele>
        <time>2020-06-18T08:32:34Z</time>
      </trkpt>
      <trkpt lat="49.74781" lon="0.45742">
        <ele>31.1</ele>
        <time>2020-06-18T08:32:35Z</time>
      </trkpt>
      <trkpt lat="49.74783" lon="0.45751">
        <ele>31.2</ele>
        <time>2020-06-18T08:32:36Z</time>
      </trkpt>
      <trkpt lat="49.74786" lon="0.4576">
        <ele>31.2</ele>
        <time>2020-06-18T08:32:37Z</time>
      </trkpt>
      <trkpt lat="49.74788" lon="0.45768">
        <ele>31.3</ele>
        <time>2020-06-18T08:32:38Z</time>
      </trkpt>
      <trkpt lat="49.74789" lon="0.45774">
        <ele>31.3</ele>
        <time>2020-06-18T08:32:39Z</time>
      </trkpt>
      <trkpt lat="49.74791" lon="0.45783">
        <ele>31.3</ele>
        <time>2020-06-18T08:32:40Z</time>
      </trkpt>
      <trkpt lat="49.74793" lon="0.45791">
        <ele>31.4</ele>
        <time>2020-06-18T08:32:41Z</time>
      </trkpt>
      <trkpt lat="49.74794" lon="0.458">
        <ele>31.4</ele>
        <time>2020-06-18T08:32:42Z</time>
      </trkpt>
      <trkpt lat="49.74795" lon="0.45808">
        <ele>31.5</ele>
        <time>2020-06-18T08:32:43Z</time>
      </trkpt>
      <trkpt lat="49.74797" lon="0.45818">
        <ele>31.5</ele>
        <time>2020-06-18T08:32:44Z</time>
      </trkpt>
      <trkpt lat="49.74798" lon="0.45827">
        <ele>31.6</ele>
        <time>2020-06-18T08:32:45Z</time>
      </trkpt>
      <trkpt lat="49.748" lon="0.45836">
        <ele>31.7</ele>
        <time>2020-06-18T08:32:46Z</time>
      </trkpt>
      <trkpt lat="49.74802" lon="0.45846">
        <ele>31.8</ele>
        <time>2020-06-18T08:32:47Z</time>
      </trkpt>
      <trkpt lat="49.74803" lon="0.45853">
        <ele>31.8</ele>
        <time>2020-06-18T08:32:48Z</time>
      </trkpt>
      <trkpt lat="49.74804" lon="0.45861">
        <ele>31.9</ele>
        <time>2020-06-18T08:32:49Z</time>
      </trkpt>
      <trkpt lat="49.74805" lon="0.45872">
        <ele>32</ele>
        <time>2020-06-18T08:32:50Z</time>
      </trkpt>
      <trkpt lat="49.74806" lon="0.45877">
        <ele>32</ele>
        <time>2020-06-18T08:32:51Z</time>
      </trkpt>
      <trkpt lat="49.74806" lon="0.45884">
        <ele>32</ele>
        <time>2020-06-18T08:32:52Z</time>
      </trkpt>
      <trkpt lat="49.74807" lon="0.45889">
        <ele>32</ele>
        <time>2020-06-18T08:32:53Z</time>
      </trkpt>
      <trkpt lat="49.74808" lon="0.45894">
        <ele>32.1</ele>
        <time>2020-06-18T08:32:54Z</time>
      </trkpt>
      <trkpt lat="49.74808" lon="0.459">
        <ele>32.1</ele>
        <time>2020-06-18T08:32:55Z</time>
      </trkpt>
      <trkpt lat="49.74809" lon="0.45907">
        <ele>32.1</ele>
        <time>2020-06-18T08:32:56Z</time>
      </trkpt>
      <trkpt lat="49.7481" lon="0.45912">
        <ele>32.2</ele>
        <time>2020-06-18T08:32:57Z</time>
      </trkpt>
      <trkpt lat="49.74814" lon="0.45916">
        <ele>32.2</ele>
        <time>2020-06-18T08:32:58Z</time>
      </trkpt>
      <trkpt lat="49.74815" lon="0.45917">
        <ele>32.2</ele>
        <time>2020-06-18T08:32:59Z</time>
      </trkpt>
      <trkpt lat="49.74819" lon="0.45916">
        <ele>32.3</ele>
        <time>2020-06-18T08:33:00Z</time>
      </trkpt>
      <trkpt lat="49.74821" lon="0.45914">
        <ele>32.3</ele>
        <time>2020-06-18T08:33:01Z</time>
      </trkpt>
      <trkpt lat="49.74825" lon="0.45911">
        <ele>32.3</ele>
        <time>2020-06-18T08:33:02Z</time>
      </trkpt>
      <trkpt lat="49.7483" lon="0.45908">
        <ele>32.3</ele>
        <time>2020-06-18T08:33:03Z</time>
      </trkpt>
      <trkpt lat="49.74834" lon="0.45904">
        <ele>32.3</ele>
        <time>2020-06-18T08:33:04Z</time>
      </trkpt>
      <trkpt lat="49.74841" lon="0.45901">
        <ele>32.4</ele>
        <time>2020-06-18T08:33:05Z</time>
      </trkpt>
      <trkpt lat="49.74846" lon="0.45898">
        <ele>32.4</ele>
        <time>2020-06-18T08:33:06Z</time>
      </trkpt>
      <trkpt lat="49.74851" lon="0.45895">
        <ele>32.4</ele>
        <time>2020-06-18T08:33:07Z</time>
      </trkpt>
      <trkpt lat="49.74855" lon="0.45893">
        <ele>32.4</ele>
        <time>2020-06-18T08:33:08Z</time>
      </trkpt>
      <trkpt lat="49.74859" lon="0.45891">
        <ele>32.4</ele>
        <time>2020-06-18T08:33:09Z</time>
      </trkpt>
      <trkpt lat="49.74864" lon="0.45893">
        <ele>32.5</ele>
        <time>2020-06-18T08:33:10Z</time>
      </trkpt>
      <trkpt lat="49.7487" lon="0.45895">
        <ele>32.5</ele>
        <time>2020-06-18T08:33:11Z</time>
      </trkpt>
      <trkpt lat="49.74875" lon="0.45896">
        <ele>32.5</ele>
        <time>2020-06-18T08:33:12Z</time>
      </trkpt>
      <trkpt lat="49.7488" lon="0.45899">
        <ele>32.5</ele>
        <time>2020-06-18T08:33:13Z</time>
      </trkpt>
      <trkpt lat="49.74884" lon="0.45902">
        <ele>32.6</ele>
        <time>2020-06-18T08:33:14Z</time>
      </trkpt>
      <trkpt lat="49.74887" lon="0.45906">
        <ele>32.6</ele>
        <time>2020-06-18T08:33:15Z</time>
      </trkpt>
      <trkpt lat="49.7489" lon="0.4591">
        <ele>32.7</ele>
        <time>2020-06-18T08:33:16Z</time>
      </trkpt>
      <trkpt lat="49.74891" lon="0.45917">
        <ele>32.7</ele>
        <time>2020-06-18T08:33:17Z</time>
      </trkpt>
      <trkpt lat="49.74892" lon="0.45923">
        <ele>32.7</ele>
        <time>2020-06-18T08:33:18Z</time>
      </trkpt>
      <trkpt lat="49.74894" lon="0.45931">
        <ele>32.7</ele>
        <time>2020-06-18T08:33:19Z</time>
      </trkpt>
      <trkpt lat="49.74894" lon="0.45938">
        <ele>32.7</ele>
        <time>2020-06-18T08:33:20Z</time>
      </trkpt>
      <trkpt lat="49.74895" lon="0.45946">
        <ele>32.7</ele>
        <time>2020-06-18T08:33:21Z</time>
      </trkpt>
      <trkpt lat="49.74896" lon="0.45954">
        <ele>32.7</ele>
        <time>2020-06-18T08:33:22Z</time>
      </trkpt>
      <trkpt lat="49.74897" lon="0.45961">
        <ele>32.7</ele>
        <time>2020-06-18T08:33:23Z</time>
      </trkpt>
      <trkpt lat="49.74897" lon="0.4597">
        <ele>32.7</ele>
        <time>2020-06-18T08:33:24Z</time>
      </trkpt>
      <trkpt lat="49.74897" lon="0.45978">
        <ele>32.7</ele>
        <time>2020-06-18T08:33:25Z</time>
      </trkpt>
      <trkpt lat="49.74897" lon="0.45987">
        <ele>32.8</ele>
        <time>2020-06-18T08:33:26Z</time>
      </trkpt>
      <trkpt lat="49.74897" lon="0.45995">
        <ele>32.8</ele>
        <time>2020-06-18T08:33:27Z</time>
      </trkpt>
      <trkpt lat="49.74898" lon="0.46004">
        <ele>32.8</ele>
        <time>2020-06-18T08:33:28Z</time>
      </trkpt>
      <trkpt lat="49.74898" lon="0.46012">
        <ele>32.8</ele>
        <time>2020-06-18T08:33:29Z</time>
      </trkpt>
      <trkpt lat="49.74899" lon="0.46021">
        <ele>32.9</ele>
        <time>2020-06-18T08:33:30Z</time>
      </trkpt>
      <trkpt lat="49.74899" lon="0.46029">
        <ele>32.9</ele>
        <time>2020-06-18T08:33:31Z</time>
      </trkpt>
      <trkpt lat="49.74899" lon="0.46037">
        <ele>32.9</ele>
        <time>2020-06-18T08:33:32Z</time>
      </trkpt>
      <trkpt lat="49.74899" lon="0.46046">
        <ele>32.9</ele>
        <time>2020-06-18T08:33:33Z</time>
      </trkpt>
      <trkpt lat="49.74899" lon="0.46054">
        <ele>33</ele>
        <time>2020-06-18T08:33:34Z</time>
      </trkpt>
      <trkpt lat="49.74897" lon="0.46062">
        <ele>33</ele>
        <time>2020-06-18T08:33:35Z</time>
      </trkpt>
      <trkpt lat="49.74895" lon="0.4607">
        <ele>33</ele>
        <time>2020-06-18T08:33:36Z</time>
      </trkpt>
      <trkpt lat="49.74894" lon="0.4608">
        <ele>33</ele>
        <time>2020-06-18T08:33:37Z</time>
      </trkpt>
      <trkpt lat="49.74895" lon="0.46091">
        <ele>33</ele>
        <time>2020-06-18T08:33:38Z</time>
      </trkpt>
      <trkpt lat="49.74894" lon="0.46101">
        <ele>33.1</ele>
        <time>2020-06-18T08:33:39Z</time>
      </trkpt>
      <trkpt lat="49.74894" lon="0.4611">
        <ele>33.1</ele>
        <time>2020-06-18T08:33:40Z</time>
      </trkpt>
      <trkpt lat="49.74894" lon="0.46119">
        <ele>33.1</ele>
        <time>2020-06-18T08:33:41Z</time>
      </trkpt>
      <trkpt lat="49.74893" lon="0.46128">
        <ele>33.1</ele>
        <time>2020-06-18T08:33:42Z</time>
      </trkpt>
      <trkpt lat="49.74893" lon="0.46138">
        <ele>33.2</ele>
        <time>2020-06-18T08:33:43Z</time>
      </trkpt>
      <trkpt lat="49.74892" lon="0.46147">
        <ele>33.2</ele>
        <time>2020-06-18T08:33:44Z</time>
      </trkpt>
      <trkpt lat="49.74891" lon="0.46158">
        <ele>33.2</ele>
        <time>2020-06-18T08:33:45Z</time>
      </trkpt>
      <trkpt lat="49.74889" lon="0.46167">
        <ele>33.2</ele>
        <time>2020-06-18T08:33:46Z</time>
      </trkpt>
      <trkpt lat="49.74887" lon="0.46176">
        <ele>33.3</ele>
        <time>2020-06-18T08:33:47Z</time>
      </trkpt>
      <trkpt lat="49.74885" lon="0.46185">
        <ele>33.3</ele>
        <time>2020-06-18T08:33:48Z</time>
      </trkpt>
      <trkpt lat="49.74883" lon="0.46194">
        <ele>33.3</ele>
        <time>2020-06-18T08:33:49Z</time>
      </trkpt>
      <trkpt lat="49.7488" lon="0.46204">
        <ele>33.4</ele>
        <time>2020-06-18T08:33:50Z</time>
      </trkpt>
      <trkpt lat="49.74878" lon="0.46214">
        <ele>33.4</ele>
        <time>2020-06-18T08:33:51Z</time>
      </trkpt>
      <trkpt lat="49.74876" lon="0.46224">
        <ele>33.4</ele>
        <time>2020-06-18T08:33:52Z</time>
      </trkpt>
      <trkpt lat="49.74874" lon="0.46233">
        <ele>33.5</ele>
        <time>2020-06-18T08:33:53Z</time>
      </trkpt>
      <trkpt lat="49.74872" lon="0.46242">
        <ele>33.5</ele>
        <time>2020-06-18T08:33:54Z</time>
      </trkpt>
      <trkpt lat="49.74869" lon="0.46251">
        <ele>33.5</ele>
        <time>2020-06-18T08:33:55Z</time>
      </trkpt>
      <trkpt lat="49.74866" lon="0.4626">
        <ele>33.6</ele>
        <time>2020-06-18T08:33:56Z</time>
      </trkpt>
      <trkpt lat="49.74863" lon="0.46269">
        <ele>33.7</ele>
        <time>2020-06-18T08:33:57Z</time>
      </trkpt>
      <trkpt lat="49.7486" lon="0.46279">
        <ele>33.7</ele>
        <time>2020-06-18T08:33:58Z</time>
      </trkpt>
      <trkpt lat="49.74857" lon="0.46288">
        <ele>33.8</ele>
        <time>2020-06-18T08:33:59Z</time>
      </trkpt>
      <trkpt lat="49.74854" lon="0.46296">
        <ele>33.8</ele>
        <time>2020-06-18T08:34:00Z</time>
      </trkpt>
      <trkpt lat="49.74852" lon="0.46306">
        <ele>33.8</ele>
        <time>2020-06-18T08:34:01Z</time>
      </trkpt>
      <trkpt lat="49.74848" lon="0.46314">
        <ele>33.9</ele>
        <time>2020-06-18T08:34:02Z</time>
      </trkpt>
      <trkpt lat="49.74845" lon="0.46323">
        <ele>33.9</ele>
        <time>2020-06-18T08:34:03Z</time>
      </trkpt>
      <trkpt lat="49.74841" lon="0.46331">
        <ele>33.9</ele>
        <time>2020-06-18T08:34:04Z</time>
      </trkpt>
      <trkpt lat="49.74837" lon="0.46338">
        <ele>33.9</ele>
        <time>2020-06-18T08:34:05Z</time>
      </trkpt>
      <trkpt lat="49.74834" lon="0.46344">
        <ele>34</ele>
        <time>2020-06-18T08:34:06Z</time>
      </trkpt>
      <trkpt lat="49.7483" lon="0.46352">
        <ele>34</ele>
        <time>2020-06-18T08:34:07Z</time>
      </trkpt>
      <trkpt lat="49.74826" lon="0.4636">
        <ele>34.1</ele>
        <time>2020-06-18T08:34:08Z</time>
      </trkpt>
      <trkpt lat="49.74821" lon="0.46368">
        <ele>34.1</ele>
        <time>2020-06-18T08:34:09Z</time>
      </trkpt>
      <trkpt lat="49.74816" lon="0.46377">
        <ele>34.2</ele>
        <time>2020-06-18T08:34:10Z</time>
      </trkpt>
      <trkpt lat="49.7481" lon="0.46386">
        <ele>34.2</ele>
        <time>2020-06-18T08:34:11Z</time>
      </trkpt>
      <trkpt lat="49.74805" lon="0.46396">
        <ele>34.2</ele>
        <time>2020-06-18T08:34:12Z</time>
      </trkpt>
      <trkpt lat="49.748" lon="0.46405">
        <ele>34.2</ele>
        <time>2020-06-18T08:34:13Z</time>
      </trkpt>
      <trkpt lat="49.74795" lon="0.46413">
        <ele>34.3</ele>
        <time>2020-06-18T08:34:14Z</time>
      </trkpt>
      <trkpt lat="49.7479" lon="0.46422">
        <ele>34.3</ele>
        <time>2020-06-18T08:34:15Z</time>
      </trkpt>
      <trkpt lat="49.74786" lon="0.46431">
        <ele>34.4</ele>
        <time>2020-06-18T08:34:16Z</time>
      </trkpt>
      <trkpt lat="49.74781" lon="0.46438">
        <ele>34.4</ele>
        <time>2020-06-18T08:34:17Z</time>
      </trkpt>
      <trkpt lat="49.74776" lon="0.46446">
        <ele>34.4</ele>
        <time>2020-06-18T08:34:18Z</time>
      </trkpt>
      <trkpt lat="49.74772" lon="0.46455">
        <ele>34.5</ele>
        <time>2020-06-18T08:34:19Z</time>
      </trkpt>
      <trkpt lat="49.74767" lon="0.46463">
        <ele>34.5</ele>
        <time>2020-06-18T08:34:20Z</time>
      </trkpt>
      <trkpt lat="49.74762" lon="0.4647">
        <ele>34.5</ele>
        <time>2020-06-18T08:34:21Z</time>
      </trkpt>
      <trkpt lat="49.74758" lon="0.46477">
        <ele>34.6</ele>
        <time>2020-06-18T08:34:22Z</time>
      </trkpt>
      <trkpt lat="49.74754" lon="0.46484">
        <ele>34.6</ele>
        <time>2020-06-18T08:34:23Z</time>
      </trkpt>
      <trkpt lat="49.74749" lon="0.46492">
        <ele>34.7</ele>
        <time>2020-06-18T08:34:24Z</time>
      </trkpt>
      <trkpt lat="49.74744" lon="0.465">
        <ele>34.7</ele>
        <time>2020-06-18T08:34:25Z</time>
      </trkpt>
      <trkpt lat="49.7474" lon="0.46508">
        <ele>34.7</ele>
        <time>2020-06-18T08:34:26Z</time>
      </trkpt>
      <trkpt lat="49.74735" lon="0.46516">
        <ele>34.7</ele>
        <time>2020-06-18T08:34:27Z</time>
      </trkpt>
      <trkpt lat="49.74731" lon="0.46525">
        <ele>34.8</ele>
        <time>2020-06-18T08:34:28Z</time>
      </trkpt>
      <trkpt lat="49.74726" lon="0.46533">
        <ele>34.8</ele>
        <time>2020-06-18T08:34:29Z</time>
      </trkpt>
      <trkpt lat="49.74722" lon="0.46541">
        <ele>34.9</ele>
        <time>2020-06-18T08:34:30Z</time>
      </trkpt>
      <trkpt lat="49.74717" lon="0.4655">
        <ele>34.9</ele>
        <time>2020-06-18T08:34:31Z</time>
      </trkpt>
      <trkpt lat="49.74713" lon="0.46558">
        <ele>35</ele>
        <time>2020-06-18T08:34:32Z</time>
      </trkpt>
      <trkpt lat="49.74708" lon="0.46566">
        <ele>35</ele>
        <time>2020-06-18T08:34:33Z</time>
      </trkpt>
      <trkpt lat="49.74704" lon="0.46574">
        <ele>35.1</ele>
        <time>2020-06-18T08:34:34Z</time>
      </trkpt>
      <trkpt lat="49.747" lon="0.46582">
        <ele>35.1</ele>
        <time>2020-06-18T08:34:35Z</time>
      </trkpt>
      <trkpt lat="49.74695" lon="0.4659">
        <ele>35.2</ele>
        <time>2020-06-18T08:34:36Z</time>
      </trkpt>
      <trkpt lat="49.74691" lon="0.46598">
        <ele>35.2</ele>
        <time>2020-06-18T08:34:37Z</time>
      </trkpt>
      <trkpt lat="49.74687" lon="0.46605">
        <ele>35.3</ele>
        <time>2020-06-18T08:34:38Z</time>
      </trkpt>
      <trkpt lat="49.74682" lon="0.46614">
        <ele>35.3</ele>
        <time>2020-06-18T08:34:39Z</time>
      </trkpt>
      <trkpt lat="49.74678" lon="0.46621">
        <ele>35.3</ele>
        <time>2020-06-18T08:34:40Z</time>
      </trkpt>
      <trkpt lat="49.74673" lon="0.46629">
        <ele>35.4</ele>
        <time>2020-06-18T08:34:41Z</time>
      </trkpt>
      <trkpt lat="49.74668" lon="0.46636">
        <ele>35.5</ele>
        <time>2020-06-18T08:34:42Z</time>
      </trkpt>
      <trkpt lat="49.74663" lon="0.46643">
        <ele>35.5</ele>
        <time>2020-06-18T08:34:43Z</time>
      </trkpt>
      <trkpt lat="49.74659" lon="0.46651">
        <ele>35.5</ele>
        <time>2020-06-18T08:34:44Z</time>
      </trkpt>
      <trkpt lat="49.74655" lon="0.4666">
        <ele>35.5</ele>
        <time>2020-06-18T08:34:45Z</time>
      </trkpt>
      <trkpt lat="49.7465" lon="0.46667">
        <ele>35.5</ele>
        <time>2020-06-18T08:34:46Z</time>
      </trkpt>
      <trkpt lat="49.74646" lon="0.46675">
        <ele>35.5</ele>
        <time>2020-06-18T08:34:47Z</time>
      </trkpt>
      <trkpt lat="49.74641" lon="0.46682">
        <ele>35.6</ele>
        <time>2020-06-18T08:34:48Z</time>
      </trkpt>
      <trkpt lat="49.74637" lon="0.46689">
        <ele>35.6</ele>
        <time>2020-06-18T08:34:49Z</time>
      </trkpt>
      <trkpt lat="49.74633" lon="0.46696">
        <ele>35.6</ele>
        <time>2020-06-18T08:34:50Z</time>
      </trkpt>
      <trkpt lat="49.74629" lon="0.46704">
        <ele>35.6</ele>
        <time>2020-06-18T08:34:51Z</time>
      </trkpt>
      <trkpt lat="49.74625" lon="0.46711">
        <ele>35.6</ele>
        <time>2020-06-18T08:34:52Z</time>
      </trkpt>
      <trkpt lat="49.74621" lon="0.46718">
        <ele>35.6</ele>
        <time>2020-06-18T08:34:53Z</time>
      </trkpt>
      <trkpt lat="49.74617" lon="0.46726">
        <ele>35.7</ele>
        <time>2020-06-18T08:34:54Z</time>
      </trkpt>
      <trkpt lat="49.74613" lon="0.46734">
        <ele>35.7</ele>
        <time>2020-06-18T08:34:55Z</time>
      </trkpt>
      <trkpt lat="49.7461" lon="0.46744">
        <ele>35.7</ele>
        <time>2020-06-18T08:34:56Z</time>
      </trkpt>
      <trkpt lat="49.74606" lon="0.46752">
        <ele>35.8</ele>
        <time>2020-06-18T08:34:57Z</time>
      </trkpt>
      <trkpt lat="49.74603" lon="0.46761">
        <ele>35.8</ele>
        <time>2020-06-18T08:34:58Z</time>
      </trkpt>
      <trkpt lat="49.74599" lon="0.4677">
        <ele>35.8</ele>
        <time>2020-06-18T08:34:59Z</time>
      </trkpt>
      <trkpt lat="49.74595" lon="0.46778">
        <ele>35.9</ele>
        <time>2020-06-18T08:35:00Z</time>
      </trkpt>
      <trkpt lat="49.74592" lon="0.46787">
        <ele>35.9</ele>
        <time>2020-06-18T08:35:01Z</time>
      </trkpt>
      <trkpt lat="49.74589" lon="0.46796">
        <ele>35.9</ele>
        <time>2020-06-18T08:35:02Z</time>
      </trkpt>
      <trkpt lat="49.74585" lon="0.46805">
        <ele>35.9</ele>
        <time>2020-06-18T08:35:03Z</time>
      </trkpt>
      <trkpt lat="49.74582" lon="0.46815">
        <ele>35.9</ele>
        <time>2020-06-18T08:35:04Z</time>
      </trkpt>
      <trkpt lat="49.74578" lon="0.46825">
        <ele>35.9</ele>
        <time>2020-06-18T08:35:05Z</time>
      </trkpt>
      <trkpt lat="49.74574" lon="0.46834">
        <ele>36</ele>
        <time>2020-06-18T08:35:06Z</time>
      </trkpt>
      <trkpt lat="49.74571" lon="0.46842">
        <ele>36</ele>
        <time>2020-06-18T08:35:07Z</time>
      </trkpt>
      <trkpt lat="49.74567" lon="0.46852">
        <ele>36</ele>
        <time>2020-06-18T08:35:08Z</time>
      </trkpt>
      <trkpt lat="49.74563" lon="0.4686">
        <ele>36</ele>
        <time>2020-06-18T08:35:09Z</time>
      </trkpt>
      <trkpt lat="49.7456" lon="0.4687">
        <ele>36.1</ele>
        <time>2020-06-18T08:35:10Z</time>
      </trkpt>
      <trkpt lat="49.74556" lon="0.4688">
        <ele>36.1</ele>
        <time>2020-06-18T08:35:11Z</time>
      </trkpt>
      <trkpt lat="49.74552" lon="0.46891">
        <ele>36.2</ele>
        <time>2020-06-18T08:35:12Z</time>
      </trkpt>
      <trkpt lat="49.74548" lon="0.469">
        <ele>36.2</ele>
        <time>2020-06-18T08:35:13Z</time>
      </trkpt>
      <trkpt lat="49.74545" lon="0.4691">
        <ele>36.2</ele>
        <time>2020-06-18T08:35:14Z</time>
      </trkpt>
      <trkpt lat="49.74541" lon="0.46918">
        <ele>36.2</ele>
        <time>2020-06-18T08:35:15Z</time>
      </trkpt>
      <trkpt lat="49.74538" lon="0.46928">
        <ele>36.3</ele>
        <time>2020-06-18T08:35:16Z</time>
      </trkpt>
      <trkpt lat="49.74535" lon="0.46938">
        <ele>36.3</ele>
        <time>2020-06-18T08:35:17Z</time>
      </trkpt>
      <trkpt lat="49.74532" lon="0.46947">
        <ele>36.3</ele>
        <time>2020-06-18T08:35:18Z</time>
      </trkpt>
      <trkpt lat="49.74529" lon="0.46957">
        <ele>36.4</ele>
        <time>2020-06-18T08:35:19Z</time>
      </trkpt>
      <trkpt lat="49.74526" lon="0.46966">
        <ele>36.5</ele>
        <time>2020-06-18T08:35:20Z</time>
      </trkpt>
      <trkpt lat="49.74523" lon="0.46975">
        <ele>36.6</ele>
        <time>2020-06-18T08:35:21Z</time>
      </trkpt>
      <trkpt lat="49.74521" lon="0.46985">
        <ele>36.6</ele>
        <time>2020-06-18T08:35:22Z</time>
      </trkpt>
      <trkpt lat="49.74518" lon="0.46995">
        <ele>36.7</ele>
        <time>2020-06-18T08:35:23Z</time>
      </trkpt>
      <trkpt lat="49.74515" lon="0.47004">
        <ele>36.7</ele>
        <time>2020-06-18T08:35:24Z</time>
      </trkpt>
      <trkpt lat="49.74511" lon="0.47013">
        <ele>36.7</ele>
        <time>2020-06-18T08:35:25Z</time>
      </trkpt>
      <trkpt lat="49.74508" lon="0.47021">
        <ele>36.7</ele>
        <time>2020-06-18T08:35:26Z</time>
      </trkpt>
      <trkpt lat="49.74505" lon="0.4703">
        <ele>36.8</ele>
        <time>2020-06-18T08:35:27Z</time>
      </trkpt>
      <trkpt lat="49.74503" lon="0.47039">
        <ele>36.8</ele>
        <time>2020-06-18T08:35:28Z</time>
      </trkpt>
      <trkpt lat="49.745" lon="0.47049">
        <ele>36.8</ele>
        <time>2020-06-18T08:35:29Z</time>
      </trkpt>
      <trkpt lat="49.74497" lon="0.47058">
        <ele>36.8</ele>
        <time>2020-06-18T08:35:30Z</time>
      </trkpt>
      <trkpt lat="49.74495" lon="0.47068">
        <ele>36.9</ele>
        <time>2020-06-18T08:35:31Z</time>
      </trkpt>
      <trkpt lat="49.74491" lon="0.47078">
        <ele>36.9</ele>
        <time>2020-06-18T08:35:32Z</time>
      </trkpt>
      <trkpt lat="49.74489" lon="0.47087">
        <ele>37</ele>
        <time>2020-06-18T08:35:33Z</time>
      </trkpt>
      <trkpt lat="49.74486" lon="0.47097">
        <ele>37</ele>
        <time>2020-06-18T08:35:34Z</time>
      </trkpt>
      <trkpt lat="49.74482" lon="0.47107">
        <ele>37.1</ele>
        <time>2020-06-18T08:35:35Z</time>
      </trkpt>
      <trkpt lat="49.74478" lon="0.47115">
        <ele>37.2</ele>
        <time>2020-06-18T08:35:36Z</time>
      </trkpt>
      <trkpt lat="49.74475" lon="0.47124">
        <ele>37.2</ele>
        <time>2020-06-18T08:35:37Z</time>
      </trkpt>
      <trkpt lat="49.74472" lon="0.47136">
        <ele>37.3</ele>
        <time>2020-06-18T08:35:38Z</time>
      </trkpt>
      <trkpt lat="49.74469" lon="0.47146">
        <ele>37.4</ele>
        <time>2020-06-18T08:35:39Z</time>
      </trkpt>
      <trkpt lat="49.74465" lon="0.47156">
        <ele>37.5</ele>
        <time>2020-06-18T08:35:40Z</time>
      </trkpt>
      <trkpt lat="49.74462" lon="0.47165">
        <ele>37.5</ele>
        <time>2020-06-18T08:35:41Z</time>
      </trkpt>
      <trkpt lat="49.7446" lon="0.47174">
        <ele>37.6</ele>
        <time>2020-06-18T08:35:42Z</time>
      </trkpt>
      <trkpt lat="49.74457" lon="0.47183">
        <ele>37.7</ele>
        <time>2020-06-18T08:35:43Z</time>
      </trkpt>
      <trkpt lat="49.74454" lon="0.47193">
        <ele>37.7</ele>
        <time>2020-06-18T08:35:44Z</time>
      </trkpt>
      <trkpt lat="49.74451" lon="0.47202">
        <ele>37.8</ele>
        <time>2020-06-18T08:35:45Z</time>
      </trkpt>
      <trkpt lat="49.74449" lon="0.47212">
        <ele>37.9</ele>
        <time>2020-06-18T08:35:46Z</time>
      </trkpt>
      <trkpt lat="49.74446" lon="0.47221">
        <ele>38</ele>
        <time>2020-06-18T08:35:47Z</time>
      </trkpt>
      <trkpt lat="49.74443" lon="0.47231">
        <ele>38</ele>
        <time>2020-06-18T08:35:48Z</time>
      </trkpt>
      <trkpt lat="49.7444" lon="0.47241">
        <ele>38.1</ele>
        <time>2020-06-18T08:35:49Z</time>
      </trkpt>
      <trkpt lat="49.74437" lon="0.4725">
        <ele>38.2</ele>
        <time>2020-06-18T08:35:50Z</time>
      </trkpt>
      <trkpt lat="49.74435" lon="0.4726">
        <ele>38.3</ele>
        <time>2020-06-18T08:35:51Z</time>
      </trkpt>
      <trkpt lat="49.74432" lon="0.47271">
        <ele>38.4</ele>
        <time>2020-06-18T08:35:52Z</time>
      </trkpt>
      <trkpt lat="49.74429" lon="0.47281">
        <ele>38.4</ele>
        <time>2020-06-18T08:35:53Z</time>
      </trkpt>
      <trkpt lat="49.74427" lon="0.47291">
        <ele>38.4</ele>
        <time>2020-06-18T08:35:54Z</time>
      </trkpt>
      <trkpt lat="49.74425" lon="0.473">
        <ele>38.5</ele>
        <time>2020-06-18T08:35:55Z</time>
      </trkpt>
      <trkpt lat="49.74423" lon="0.4731">
        <ele>38.5</ele>
        <time>2020-06-18T08:35:56Z</time>
      </trkpt>
      <trkpt lat="49.7442" lon="0.4732">
        <ele>38.5</ele>
        <time>2020-06-18T08:35:57Z</time>
      </trkpt>
      <trkpt lat="49.74418" lon="0.4733">
        <ele>38.6</ele>
        <time>2020-06-18T08:35:58Z</time>
      </trkpt>
      <trkpt lat="49.74417" lon="0.47341">
        <ele>38.6</ele>
        <time>2020-06-18T08:35:59Z</time>
      </trkpt>
      <trkpt lat="49.74415" lon="0.47351">
        <ele>38.6</ele>
        <time>2020-06-18T08:36:00Z</time>
      </trkpt>
      <trkpt lat="49.74414" lon="0.47362">
        <ele>38.7</ele>
        <time>2020-06-18T08:36:01Z</time>
      </trkpt>
      <trkpt lat="49.74413" lon="0.47372">
        <ele>38.7</ele>
        <time>2020-06-18T08:36:02Z</time>
      </trkpt>
      <trkpt lat="49.74412" lon="0.47382">
        <ele>38.7</ele>
        <time>2020-06-18T08:36:03Z</time>
      </trkpt>
      <trkpt lat="49.74411" lon="0.47393">
        <ele>38.7</ele>
        <time>2020-06-18T08:36:04Z</time>
      </trkpt>
      <trkpt lat="49.7441" lon="0.47403">
        <ele>38.7</ele>
        <time>2020-06-18T08:36:05Z</time>
      </trkpt>
      <trkpt lat="49.7441" lon="0.47413">
        <ele>38.7</ele>
        <time>2020-06-18T08:36:06Z</time>
      </trkpt>
      <trkpt lat="49.74409" lon="0.47423">
        <ele>38.8</ele>
        <time>2020-06-18T08:36:07Z</time>
      </trkpt>
      <trkpt lat="49.7441" lon="0.47433">
        <ele>38.8</ele>
        <time>2020-06-18T08:36:08Z</time>
      </trkpt>
      <trkpt lat="49.7441" lon="0.47444">
        <ele>38.9</ele>
        <time>2020-06-18T08:36:09Z</time>
      </trkpt>
      <trkpt lat="49.7441" lon="0.47454">
        <ele>38.9</ele>
        <time>2020-06-18T08:36:10Z</time>
      </trkpt>
      <trkpt lat="49.74409" lon="0.47465">
        <ele>39</ele>
        <time>2020-06-18T08:36:11Z</time>
      </trkpt>
      <trkpt lat="49.74409" lon="0.47475">
        <ele>39</ele>
        <time>2020-06-18T08:36:12Z</time>
      </trkpt>
      <trkpt lat="49.74409" lon="0.47485">
        <ele>39.1</ele>
        <time>2020-06-18T08:36:13Z</time>
      </trkpt>
      <trkpt lat="49.74408" lon="0.47494">
        <ele>39.1</ele>
        <time>2020-06-18T08:36:14Z</time>
      </trkpt>
      <trkpt lat="49.74408" lon="0.47505">
        <ele>39.2</ele>
        <time>2020-06-18T08:36:15Z</time>
      </trkpt>
      <trkpt lat="49.74408" lon="0.47516">
        <ele>39.2</ele>
        <time>2020-06-18T08:36:16Z</time>
      </trkpt>
      <trkpt lat="49.74408" lon="0.47527">
        <ele>39.2</ele>
        <time>2020-06-18T08:36:17Z</time>
      </trkpt>
      <trkpt lat="49.74409" lon="0.47537">
        <ele>39.2</ele>
        <time>2020-06-18T08:36:18Z</time>
      </trkpt>
      <trkpt lat="49.74409" lon="0.47548">
        <ele>39.3</ele>
        <time>2020-06-18T08:36:19Z</time>
      </trkpt>
      <trkpt lat="49.7441" lon="0.47559">
        <ele>39.3</ele>
        <time>2020-06-18T08:36:20Z</time>
      </trkpt>
      <trkpt lat="49.74411" lon="0.4757">
        <ele>39.3</ele>
        <time>2020-06-18T08:36:21Z</time>
      </trkpt>
      <trkpt lat="49.74412" lon="0.4758">
        <ele>39.3</ele>
        <time>2020-06-18T08:36:22Z</time>
      </trkpt>
      <trkpt lat="49.74413" lon="0.47591">
        <ele>39.4</ele>
        <time>2020-06-18T08:36:23Z</time>
      </trkpt>
      <trkpt lat="49.74414" lon="0.47602">
        <ele>39.4</ele>
        <time>2020-06-18T08:36:24Z</time>
      </trkpt>
      <trkpt lat="49.74415" lon="0.47612">
        <ele>39.5</ele>
        <time>2020-06-18T08:36:25Z</time>
      </trkpt>
      <trkpt lat="49.74416" lon="0.47622">
        <ele>39.6</ele>
        <time>2020-06-18T08:36:26Z</time>
      </trkpt>
      <trkpt lat="49.74417" lon="0.47632">
        <ele>39.6</ele>
        <time>2020-06-18T08:36:27Z</time>
      </trkpt>
      <trkpt lat="49.74419" lon="0.47643">
        <ele>39.5</ele>
        <time>2020-06-18T08:36:28Z</time>
      </trkpt>
      <trkpt lat="49.7442" lon="0.47653">
        <ele>39.5</ele>
        <time>2020-06-18T08:36:29Z</time>
      </trkpt>
      <trkpt lat="49.74422" lon="0.47664">
        <ele>39.5</ele>
        <time>2020-06-18T08:36:30Z</time>
      </trkpt>
      <trkpt lat="49.74423" lon="0.47674">
        <ele>39.5</ele>
        <time>2020-06-18T08:36:31Z</time>
      </trkpt>
      <trkpt lat="49.74424" lon="0.47685">
        <ele>39.6</ele>
        <time>2020-06-18T08:36:32Z</time>
      </trkpt>
      <trkpt lat="49.74426" lon="0.47696">
        <ele>39.6</ele>
        <time>2020-06-18T08:36:33Z</time>
      </trkpt>
      <trkpt lat="49.74427" lon="0.47706">
        <ele>39.7</ele>
        <time>2020-06-18T08:36:34Z</time>
      </trkpt>
      <trkpt lat="49.7443" lon="0.47716">
        <ele>39.7</ele>
        <time>2020-06-18T08:36:35Z</time>
      </trkpt>
      <trkpt lat="49.74433" lon="0.47726">
        <ele>39.7</ele>
        <time>2020-06-18T08:36:36Z</time>
      </trkpt>
      <trkpt lat="49.74436" lon="0.47736">
        <ele>39.8</ele>
        <time>2020-06-18T08:36:37Z</time>
      </trkpt>
      <trkpt lat="49.74438" lon="0.47746">
        <ele>39.8</ele>
        <time>2020-06-18T08:36:38Z</time>
      </trkpt>
      <trkpt lat="49.7444" lon="0.47757">
        <ele>39.8</ele>
        <time>2020-06-18T08:36:39Z</time>
      </trkpt>
      <trkpt lat="49.74442" lon="0.47767">
        <ele>39.8</ele>
        <time>2020-06-18T08:36:40Z</time>
      </trkpt>
      <trkpt lat="49.74445" lon="0.47777">
        <ele>39.8</ele>
        <time>2020-06-18T08:36:41Z</time>
      </trkpt>
      <trkpt lat="49.74447" lon="0.47787">
        <ele>39.8</ele>
        <time>2020-06-18T08:36:42Z</time>
      </trkpt>
      <trkpt lat="49.7445" lon="0.47798">
        <ele>39.9</ele>
        <time>2020-06-18T08:36:43Z</time>
      </trkpt>
      <trkpt lat="49.74453" lon="0.47807">
        <ele>39.9</ele>
        <time>2020-06-18T08:36:44Z</time>
      </trkpt>
      <trkpt lat="49.74455" lon="0.47816">
        <ele>39.9</ele>
        <time>2020-06-18T08:36:45Z</time>
      </trkpt>
      <trkpt lat="49.74458" lon="0.47826">
        <ele>40</ele>
        <time>2020-06-18T08:36:46Z</time>
      </trkpt>
      <trkpt lat="49.7446" lon="0.47835">
        <ele>40.1</ele>
        <time>2020-06-18T08:36:47Z</time>
      </trkpt>
      <trkpt lat="49.74462" lon="0.47844">
        <ele>40.2</ele>
        <time>2020-06-18T08:36:48Z</time>
      </trkpt>
      <trkpt lat="49.74465" lon="0.47852">
        <ele>40.3</ele>
        <time>2020-06-18T08:36:49Z</time>
      </trkpt>
      <trkpt lat="49.74467" lon="0.4786">
        <ele>40.4</ele>
        <time>2020-06-18T08:36:50Z</time>
      </trkpt>
      <trkpt lat="49.7447" lon="0.47868">
        <ele>40.4</ele>
        <time>2020-06-18T08:36:51Z</time>
      </trkpt>
      <trkpt lat="49.74473" lon="0.47875">
        <ele>40.5</ele>
        <time>2020-06-18T08:36:52Z</time>
      </trkpt>
      <trkpt lat="49.74475" lon="0.47882">
        <ele>40.5</ele>
        <time>2020-06-18T08:36:53Z</time>
      </trkpt>
      <trkpt lat="49.74477" lon="0.47888">
        <ele>40.6</ele>
        <time>2020-06-18T08:36:54Z</time>
      </trkpt>
      <trkpt lat="49.7448" lon="0.47893">
        <ele>40.6</ele>
        <time>2020-06-18T08:36:55Z</time>
      </trkpt>
      <trkpt lat="49.74482" lon="0.47897">
        <ele>40.6</ele>
        <time>2020-06-18T08:36:56Z</time>
      </trkpt>
      <trkpt lat="49.74484" lon="0.47902">
        <ele>40.7</ele>
        <time>2020-06-18T08:36:57Z</time>
      </trkpt>
      <trkpt lat="49.74487" lon="0.47905">
        <ele>40.7</ele>
        <time>2020-06-18T08:36:58Z</time>
      </trkpt>
      <trkpt lat="49.7449" lon="0.4791">
        <ele>40.7</ele>
        <time>2020-06-18T08:36:59Z</time>
      </trkpt>
      <trkpt lat="49.74492" lon="0.47915">
        <ele>40.6</ele>
        <time>2020-06-18T08:37:00Z</time>
      </trkpt>
      <trkpt lat="49.74496" lon="0.47919">
        <ele>40.6</ele>
        <time>2020-06-18T08:37:01Z</time>
      </trkpt>
      <trkpt lat="49.74499" lon="0.47924">
        <ele>40.5</ele>
        <time>2020-06-18T08:37:02Z</time>
      </trkpt>
      <trkpt lat="49.74501" lon="0.47931">
        <ele>40.5</ele>
        <time>2020-06-18T08:37:03Z</time>
      </trkpt>
      <trkpt lat="49.74505" lon="0.47937">
        <ele>40.4</ele>
        <time>2020-06-18T08:37:04Z</time>
      </trkpt>
      <trkpt lat="49.74508" lon="0.47944">
        <ele>40.4</ele>
        <time>2020-06-18T08:37:05Z</time>
      </trkpt>
      <trkpt lat="49.74511" lon="0.4795">
        <ele>40.4</ele>
        <time>2020-06-18T08:37:06Z</time>
      </trkpt>
      <trkpt lat="49.74514" lon="0.47957">
        <ele>40.4</ele>
        <time>2020-06-18T08:37:07Z</time>
      </trkpt>
      <trkpt lat="49.74518" lon="0.47964">
        <ele>40.3</ele>
        <time>2020-06-18T08:37:08Z</time>
      </trkpt>
      <trkpt lat="49.74522" lon="0.47971">
        <ele>40.3</ele>
        <time>2020-06-18T08:37:09Z</time>
      </trkpt>
      <trkpt lat="49.74525" lon="0.47978">
        <ele>40.3</ele>
        <time>2020-06-18T08:37:10Z</time>
      </trkpt>
      <trkpt lat="49.7453" lon="0.47986">
        <ele>40.3</ele>
        <time>2020-06-18T08:37:11Z</time>
      </trkpt>
      <trkpt lat="49.74533" lon="0.47994">
        <ele>40.3</ele>
        <time>2020-06-18T08:37:12Z</time>
      </trkpt>
      <trkpt lat="49.74537" lon="0.48">
        <ele>40.3</ele>
        <time>2020-06-18T08:37:13Z</time>
      </trkpt>
      <trkpt lat="49.74542" lon="0.48007">
        <ele>40.3</ele>
        <time>2020-06-18T08:37:14Z</time>
      </trkpt>
      <trkpt lat="49.74546" lon="0.48013">
        <ele>40.4</ele>
        <time>2020-06-18T08:37:15Z</time>
      </trkpt>
      <trkpt lat="49.7455" lon="0.48021">
        <ele>40.5</ele>
        <time>2020-06-18T08:37:16Z</time>
      </trkpt>
      <trkpt lat="49.74554" lon="0.48029">
        <ele>40.6</ele>
        <time>2020-06-18T08:37:17Z</time>
      </trkpt>
      <trkpt lat="49.74559" lon="0.48036">
        <ele>40.6</ele>
        <time>2020-06-18T08:37:18Z</time>
      </trkpt>
      <trkpt lat="49.74563" lon="0.48042">
        <ele>40.7</ele>
        <time>2020-06-18T08:37:19Z</time>
      </trkpt>
      <trkpt lat="49.74568" lon="0.48049">
        <ele>40.7</ele>
        <time>2020-06-18T08:37:20Z</time>
      </trkpt>
      <trkpt lat="49.74572" lon="0.48057">
        <ele>40.7</ele>
        <time>2020-06-18T08:37:21Z</time>
      </trkpt>
      <trkpt lat="49.74577" lon="0.48064">
        <ele>40.7</ele>
        <time>2020-06-18T08:37:22Z</time>
      </trkpt>
      <trkpt lat="49.74581" lon="0.48072">
        <ele>40.8</ele>
        <time>2020-06-18T08:37:23Z</time>
      </trkpt>
      <trkpt lat="49.74585" lon="0.48079">
        <ele>40.8</ele>
        <time>2020-06-18T08:37:24Z</time>
      </trkpt>
      <trkpt lat="49.74589" lon="0.48086">
        <ele>40.9</ele>
        <time>2020-06-18T08:37:25Z</time>
      </trkpt>
      <trkpt lat="49.74594" lon="0.48093">
        <ele>41</ele>
        <time>2020-06-18T08:37:26Z</time>
      </trkpt>
      <trkpt lat="49.74598" lon="0.48101">
        <ele>41.1</ele>
        <time>2020-06-18T08:37:27Z</time>
      </trkpt>
      <trkpt lat="49.74602" lon="0.48108">
        <ele>41.2</ele>
        <time>2020-06-18T08:37:28Z</time>
      </trkpt>
      <trkpt lat="49.74607" lon="0.48114">
        <ele>41.3</ele>
        <time>2020-06-18T08:37:29Z</time>
      </trkpt>
      <trkpt lat="49.74612" lon="0.4812">
        <ele>41.4</ele>
        <time>2020-06-18T08:37:30Z</time>
      </trkpt>
      <trkpt lat="49.74616" lon="0.48127">
        <ele>41.4</ele>
        <time>2020-06-18T08:37:31Z</time>
      </trkpt>
      <trkpt lat="49.7462" lon="0.48134">
        <ele>41.5</ele>
        <time>2020-06-18T08:37:32Z</time>
      </trkpt>
      <trkpt lat="49.74624" lon="0.48141">
        <ele>41.6</ele>
        <time>2020-06-18T08:37:33Z</time>
      </trkpt>
      <trkpt lat="49.74629" lon="0.48147">
        <ele>41.7</ele>
        <time>2020-06-18T08:37:34Z</time>
      </trkpt>
      <trkpt lat="49.74633" lon="0.48154">
        <ele>41.8</ele>
        <time>2020-06-18T08:37:35Z</time>
      </trkpt>
      <trkpt lat="49.74637" lon="0.48161">
        <ele>41.9</ele>
        <time>2020-06-18T08:37:36Z</time>
      </trkpt>
      <trkpt lat="49.74641" lon="0.48168">
        <ele>41.9</ele>
        <time>2020-06-18T08:37:37Z</time>
      </trkpt>
      <trkpt lat="49.74645" lon="0.48174">
        <ele>42</ele>
        <time>2020-06-18T08:37:38Z</time>
      </trkpt>
      <trkpt lat="49.74648" lon="0.48182">
        <ele>42.1</ele>
        <time>2020-06-18T08:37:39Z</time>
      </trkpt>
      <trkpt lat="49.74652" lon="0.48189">
        <ele>42.2</ele>
        <time>2020-06-18T08:37:40Z</time>
      </trkpt>
      <trkpt lat="49.74656" lon="0.48196">
        <ele>42.3</ele>
        <time>2020-06-18T08:37:41Z</time>
      </trkpt>
      <trkpt lat="49.74659" lon="0.48204">
        <ele>42.3</ele>
        <time>2020-06-18T08:37:42Z</time>
      </trkpt>
      <trkpt lat="49.74663" lon="0.48212">
        <ele>42.3</ele>
        <time>2020-06-18T08:37:43Z</time>
      </trkpt>
      <trkpt lat="49.74667" lon="0.4822">
        <ele>42.3</ele>
        <time>2020-06-18T08:37:44Z</time>
      </trkpt>
      <trkpt lat="49.7467" lon="0.48228">
        <ele>42.3</ele>
        <time>2020-06-18T08:37:45Z</time>
      </trkpt>
      <trkpt lat="49.74675" lon="0.48236">
        <ele>42.4</ele>
        <time>2020-06-18T08:37:46Z</time>
      </trkpt>
      <trkpt lat="49.74679" lon="0.48244">
        <ele>42.4</ele>
        <time>2020-06-18T08:37:47Z</time>
      </trkpt>
      <trkpt lat="49.74682" lon="0.48252">
        <ele>42.4</ele>
        <time>2020-06-18T08:37:48Z</time>
      </trkpt>
      <trkpt lat="49.74685" lon="0.48261">
        <ele>42.5</ele>
        <time>2020-06-18T08:37:49Z</time>
      </trkpt>
      <trkpt lat="49.74688" lon="0.48269">
        <ele>42.5</ele>
        <time>2020-06-18T08:37:50Z</time>
      </trkpt>
      <trkpt lat="49.74692" lon="0.48278">
        <ele>42.6</ele>
        <time>2020-06-18T08:37:51Z</time>
      </trkpt>
      <trkpt lat="49.74695" lon="0.48286">
        <ele>42.7</ele>
        <time>2020-06-18T08:37:52Z</time>
      </trkpt>
      <trkpt lat="49.74699" lon="0.48295">
        <ele>42.8</ele>
        <time>2020-06-18T08:37:53Z</time>
      </trkpt>
      <trkpt lat="49.74703" lon="0.48304">
        <ele>42.9</ele>
        <time>2020-06-18T08:37:54Z</time>
      </trkpt>
      <trkpt lat="49.74707" lon="0.48313">
        <ele>42.9</ele>
        <time>2020-06-18T08:37:55Z</time>
      </trkpt>
      <trkpt lat="49.7471" lon="0.48323">
        <ele>43</ele>
        <time>2020-06-18T08:37:56Z</time>
      </trkpt>
      <trkpt lat="49.74714" lon="0.48332">
        <ele>43.1</ele>
        <time>2020-06-18T08:37:57Z</time>
      </trkpt>
      <trkpt lat="49.74718" lon="0.48341">
        <ele>43.2</ele>
        <time>2020-06-18T08:37:58Z</time>
      </trkpt>
      <trkpt lat="49.74721" lon="0.4835">
        <ele>43.3</ele>
        <time>2020-06-18T08:37:59Z</time>
      </trkpt>
      <trkpt lat="49.74724" lon="0.48358">
        <ele>43.4</ele>
        <time>2020-06-18T08:38:00Z</time>
      </trkpt>
      <trkpt lat="49.74727" lon="0.48367">
        <ele>43.5</ele>
        <time>2020-06-18T08:38:01Z</time>
      </trkpt>
      <trkpt lat="49.7473" lon="0.48376">
        <ele>43.6</ele>
        <time>2020-06-18T08:38:02Z</time>
      </trkpt>
      <trkpt lat="49.74733" lon="0.48385">
        <ele>43.6</ele>
        <time>2020-06-18T08:38:03Z</time>
      </trkpt>
      <trkpt lat="49.74736" lon="0.48394">
        <ele>43.7</ele>
        <time>2020-06-18T08:38:04Z</time>
      </trkpt>
      <trkpt lat="49.74739" lon="0.48404">
        <ele>43.8</ele>
        <time>2020-06-18T08:38:05Z</time>
      </trkpt>
      <trkpt lat="49.74741" lon="0.48414">
        <ele>43.9</ele>
        <time>2020-06-18T08:38:06Z</time>
      </trkpt>
      <trkpt lat="49.74744" lon="0.48423">
        <ele>44</ele>
        <time>2020-06-18T08:38:07Z</time>
      </trkpt>
      <trkpt lat="49.74748" lon="0.48432">
        <ele>44.1</ele>
        <time>2020-06-18T08:38:08Z</time>
      </trkpt>
      <trkpt lat="49.7475" lon="0.48442">
        <ele>44.1</ele>
        <time>2020-06-18T08:38:09Z</time>
      </trkpt>
      <trkpt lat="49.74753" lon="0.48452">
        <ele>44.2</ele>
        <time>2020-06-18T08:38:10Z</time>
      </trkpt>
      <trkpt lat="49.74756" lon="0.48461">
        <ele>44.3</ele>
        <time>2020-06-18T08:38:11Z</time>
      </trkpt>
      <trkpt lat="49.74759" lon="0.48471">
        <ele>44.3</ele>
        <time>2020-06-18T08:38:12Z</time>
      </trkpt>
      <trkpt lat="49.74762" lon="0.4848">
        <ele>44.4</ele>
        <time>2020-06-18T08:38:13Z</time>
      </trkpt>
      <trkpt lat="49.74765" lon="0.48489">
        <ele>44.4</ele>
        <time>2020-06-18T08:38:14Z</time>
      </trkpt>
      <trkpt lat="49.74768" lon="0.48498">
        <ele>44.5</ele>
        <time>2020-06-18T08:38:15Z</time>
      </trkpt>
      <trkpt lat="49.74771" lon="0.48508">
        <ele>44.6</ele>
        <time>2020-06-18T08:38:16Z</time>
      </trkpt>
      <trkpt lat="49.74773" lon="0.48517">
        <ele>44.6</ele>
        <time>2020-06-18T08:38:17Z</time>
      </trkpt>
      <trkpt lat="49.74775" lon="0.48527">
        <ele>44.7</ele>
        <time>2020-06-18T08:38:18Z</time>
      </trkpt>
      <trkpt lat="49.74777" lon="0.48536">
        <ele>44.7</ele>
        <time>2020-06-18T08:38:19Z</time>
      </trkpt>
      <trkpt lat="49.74778" lon="0.48547">
        <ele>44.8</ele>
        <time>2020-06-18T08:38:20Z</time>
      </trkpt>
      <trkpt lat="49.74779" lon="0.48557">
        <ele>44.8</ele>
        <time>2020-06-18T08:38:21Z</time>
      </trkpt>
      <trkpt lat="49.74781" lon="0.48566">
        <ele>44.8</ele>
        <time>2020-06-18T08:38:22Z</time>
      </trkpt>
      <trkpt lat="49.74783" lon="0.48576">
        <ele>44.9</ele>
        <time>2020-06-18T08:38:23Z</time>
      </trkpt>
      <trkpt lat="49.74785" lon="0.48585">
        <ele>44.9</ele>
        <time>2020-06-18T08:38:24Z</time>
      </trkpt>
      <trkpt lat="49.74787" lon="0.48594">
        <ele>45</ele>
        <time>2020-06-18T08:38:25Z</time>
      </trkpt>
      <trkpt lat="49.74789" lon="0.48603">
        <ele>45</ele>
        <time>2020-06-18T08:38:26Z</time>
      </trkpt>
      <trkpt lat="49.7479" lon="0.48612">
        <ele>45.1</ele>
        <time>2020-06-18T08:38:27Z</time>
      </trkpt>
      <trkpt lat="49.74791" lon="0.4862">
        <ele>45.1</ele>
        <time>2020-06-18T08:38:28Z</time>
      </trkpt>
      <trkpt lat="49.74792" lon="0.48629">
        <ele>45.2</ele>
        <time>2020-06-18T08:38:29Z</time>
      </trkpt>
      <trkpt lat="49.74794" lon="0.48639">
        <ele>45.3</ele>
        <time>2020-06-18T08:38:30Z</time>
      </trkpt>
      <trkpt lat="49.74795" lon="0.48649">
        <ele>45.3</ele>
        <time>2020-06-18T08:38:31Z</time>
      </trkpt>
      <trkpt lat="49.74796" lon="0.48659">
        <ele>45.4</ele>
        <time>2020-06-18T08:38:32Z</time>
      </trkpt>
      <trkpt lat="49.74797" lon="0.48668">
        <ele>45.4</ele>
        <time>2020-06-18T08:38:33Z</time>
      </trkpt>
      <trkpt lat="49.74798" lon="0.48679">
        <ele>45.5</ele>
        <time>2020-06-18T08:38:34Z</time>
      </trkpt>
      <trkpt lat="49.74799" lon="0.48688">
        <ele>45.5</ele>
        <time>2020-06-18T08:38:35Z</time>
      </trkpt>
      <trkpt lat="49.748" lon="0.48698">
        <ele>45.6</ele>
        <time>2020-06-18T08:38:36Z</time>
      </trkpt>
      <trkpt lat="49.74801" lon="0.48707">
        <ele>45.6</ele>
        <time>2020-06-18T08:38:37Z</time>
      </trkpt>
      <trkpt lat="49.74802" lon="0.48716">
        <ele>45.7</ele>
        <time>2020-06-18T08:38:38Z</time>
      </trkpt>
      <trkpt lat="49.74802" lon="0.48726">
        <ele>45.7</ele>
        <time>2020-06-18T08:38:39Z</time>
      </trkpt>
      <trkpt lat="49.74802" lon="0.48736">
        <ele>45.8</ele>
        <time>2020-06-18T08:38:40Z</time>
      </trkpt>
      <trkpt lat="49.74802" lon="0.48746">
        <ele>45.8</ele>
        <time>2020-06-18T08:38:41Z</time>
      </trkpt>
      <trkpt lat="49.74802" lon="0.48756">
        <ele>45.9</ele>
        <time>2020-06-18T08:38:42Z</time>
      </trkpt>
      <trkpt lat="49.74803" lon="0.48765">
        <ele>45.9</ele>
        <time>2020-06-18T08:38:43Z</time>
      </trkpt>
      <trkpt lat="49.74804" lon="0.48775">
        <ele>46</ele>
        <time>2020-06-18T08:38:44Z</time>
      </trkpt>
      <trkpt lat="49.74804" lon="0.48785">
        <ele>46.1</ele>
        <time>2020-06-18T08:38:45Z</time>
      </trkpt>
      <trkpt lat="49.74805" lon="0.48795">
        <ele>46.1</ele>
        <time>2020-06-18T08:38:46Z</time>
      </trkpt>
      <trkpt lat="49.74804" lon="0.48805">
        <ele>46.2</ele>
        <time>2020-06-18T08:38:47Z</time>
      </trkpt>
      <trkpt lat="49.74804" lon="0.48814">
        <ele>46.2</ele>
        <time>2020-06-18T08:38:48Z</time>
      </trkpt>
      <trkpt lat="49.74804" lon="0.48824">
        <ele>46.2</ele>
        <time>2020-06-18T08:38:49Z</time>
      </trkpt>
      <trkpt lat="49.74804" lon="0.48833">
        <ele>46.3</ele>
        <time>2020-06-18T08:38:50Z</time>
      </trkpt>
      <trkpt lat="49.74804" lon="0.48844">
        <ele>46.3</ele>
        <time>2020-06-18T08:38:51Z</time>
      </trkpt>
      <trkpt lat="49.74804" lon="0.48854">
        <ele>46.4</ele>
        <time>2020-06-18T08:38:52Z</time>
      </trkpt>
      <trkpt lat="49.74805" lon="0.48865">
        <ele>46.4</ele>
        <time>2020-06-18T08:38:53Z</time>
      </trkpt>
      <trkpt lat="49.74805" lon="0.48876">
        <ele>46.5</ele>
        <time>2020-06-18T08:38:54Z</time>
      </trkpt>
      <trkpt lat="49.74805" lon="0.48887">
        <ele>46.5</ele>
        <time>2020-06-18T08:38:55Z</time>
      </trkpt>
      <trkpt lat="49.74804" lon="0.48897">
        <ele>46.5</ele>
        <time>2020-06-18T08:38:56Z</time>
      </trkpt>
      <trkpt lat="49.74803" lon="0.48907">
        <ele>46.5</ele>
        <time>2020-06-18T08:38:57Z</time>
      </trkpt>
      <trkpt lat="49.74802" lon="0.48918">
        <ele>46.5</ele>
        <time>2020-06-18T08:38:58Z</time>
      </trkpt>
      <trkpt lat="49.74801" lon="0.4893">
        <ele>46.5</ele>
        <time>2020-06-18T08:38:59Z</time>
      </trkpt>
      <trkpt lat="49.74798" lon="0.4894">
        <ele>46.5</ele>
        <time>2020-06-18T08:39:00Z</time>
      </trkpt>
      <trkpt lat="49.74797" lon="0.48951">
        <ele>46.5</ele>
        <time>2020-06-18T08:39:01Z</time>
      </trkpt>
      <trkpt lat="49.74795" lon="0.48962">
        <ele>46.5</ele>
        <time>2020-06-18T08:39:02Z</time>
      </trkpt>
      <trkpt lat="49.74793" lon="0.48973">
        <ele>46.5</ele>
        <time>2020-06-18T08:39:03Z</time>
      </trkpt>
      <trkpt lat="49.74792" lon="0.48983">
        <ele>46.5</ele>
        <time>2020-06-18T08:39:04Z</time>
      </trkpt>
      <trkpt lat="49.7479" lon="0.48993">
        <ele>46.6</ele>
        <time>2020-06-18T08:39:05Z</time>
      </trkpt>
      <trkpt lat="49.74788" lon="0.49004">
        <ele>46.6</ele>
        <time>2020-06-18T08:39:06Z</time>
      </trkpt>
      <trkpt lat="49.74787" lon="0.49015">
        <ele>46.6</ele>
        <time>2020-06-18T08:39:07Z</time>
      </trkpt>
      <trkpt lat="49.74785" lon="0.49025">
        <ele>46.6</ele>
        <time>2020-06-18T08:39:08Z</time>
      </trkpt>
      <trkpt lat="49.74784" lon="0.49036">
        <ele>46.6</ele>
        <time>2020-06-18T08:39:09Z</time>
      </trkpt>
      <trkpt lat="49.74782" lon="0.49047">
        <ele>46.7</ele>
        <time>2020-06-18T08:39:10Z</time>
      </trkpt>
      <trkpt lat="49.7478" lon="0.49057">
        <ele>46.7</ele>
        <time>2020-06-18T08:39:11Z</time>
      </trkpt>
      <trkpt lat="49.74778" lon="0.49068">
        <ele>46.7</ele>
        <time>2020-06-18T08:39:12Z</time>
      </trkpt>
      <trkpt lat="49.74776" lon="0.4908">
        <ele>46.7</ele>
        <time>2020-06-18T08:39:13Z</time>
      </trkpt>
      <trkpt lat="49.74774" lon="0.49091">
        <ele>46.7</ele>
        <time>2020-06-18T08:39:14Z</time>
      </trkpt>
      <trkpt lat="49.74772" lon="0.49103">
        <ele>46.7</ele>
        <time>2020-06-18T08:39:15Z</time>
      </trkpt>
      <trkpt lat="49.7477" lon="0.49114">
        <ele>46.6</ele>
        <time>2020-06-18T08:39:16Z</time>
      </trkpt>
      <trkpt lat="49.74767" lon="0.49125">
        <ele>46.6</ele>
        <time>2020-06-18T08:39:17Z</time>
      </trkpt>
      <trkpt lat="49.74765" lon="0.49136">
        <ele>46.6</ele>
        <time>2020-06-18T08:39:18Z</time>
      </trkpt>
      <trkpt lat="49.74763" lon="0.49148">
        <ele>46.6</ele>
        <time>2020-06-18T08:39:19Z</time>
      </trkpt>
      <trkpt lat="49.7476" lon="0.49159">
        <ele>46.6</ele>
        <time>2020-06-18T08:39:20Z</time>
      </trkpt>
      <trkpt lat="49.74758" lon="0.4917">
        <ele>46.6</ele>
        <time>2020-06-18T08:39:21Z</time>
      </trkpt>
      <trkpt lat="49.74756" lon="0.49183">
        <ele>46.6</ele>
        <time>2020-06-18T08:39:22Z</time>
      </trkpt>
      <trkpt lat="49.74755" lon="0.49194">
        <ele>46.6</ele>
        <time>2020-06-18T08:39:23Z</time>
      </trkpt>
      <trkpt lat="49.74752" lon="0.49205">
        <ele>46.6</ele>
        <time>2020-06-18T08:39:24Z</time>
      </trkpt>
      <trkpt lat="49.7475" lon="0.49216">
        <ele>46.6</ele>
        <time>2020-06-18T08:39:25Z</time>
      </trkpt>
      <trkpt lat="49.74748" lon="0.49228">
        <ele>46.7</ele>
        <time>2020-06-18T08:39:26Z</time>
      </trkpt>
      <trkpt lat="49.74747" lon="0.49239">
        <ele>46.7</ele>
        <time>2020-06-18T08:39:27Z</time>
      </trkpt>
      <trkpt lat="49.74744" lon="0.4925">
        <ele>46.7</ele>
        <time>2020-06-18T08:39:28Z</time>
      </trkpt>
      <trkpt lat="49.74742" lon="0.49261">
        <ele>46.7</ele>
        <time>2020-06-18T08:39:29Z</time>
      </trkpt>
      <trkpt lat="49.74739" lon="0.49273">
        <ele>46.7</ele>
        <time>2020-06-18T08:39:30Z</time>
      </trkpt>
      <trkpt lat="49.74737" lon="0.49284">
        <ele>46.7</ele>
        <time>2020-06-18T08:39:31Z</time>
      </trkpt>
      <trkpt lat="49.74734" lon="0.49295">
        <ele>46.7</ele>
        <time>2020-06-18T08:39:32Z</time>
      </trkpt>
      <trkpt lat="49.74732" lon="0.49306">
        <ele>46.8</ele>
        <time>2020-06-18T08:39:33Z</time>
      </trkpt>
      <trkpt lat="49.7473" lon="0.49317">
        <ele>46.8</ele>
        <time>2020-06-18T08:39:34Z</time>
      </trkpt>
      <trkpt lat="49.74727" lon="0.49328">
        <ele>46.8</ele>
        <time>2020-06-18T08:39:35Z</time>
      </trkpt>
      <trkpt lat="49.74724" lon="0.49339">
        <ele>46.8</ele>
        <time>2020-06-18T08:39:36Z</time>
      </trkpt>
      <trkpt lat="49.74722" lon="0.4935">
        <ele>46.9</ele>
        <time>2020-06-18T08:39:37Z</time>
      </trkpt>
      <trkpt lat="49.7472" lon="0.49361">
        <ele>46.9</ele>
        <time>2020-06-18T08:39:38Z</time>
      </trkpt>
      <trkpt lat="49.74718" lon="0.49372">
        <ele>47</ele>
        <time>2020-06-18T08:39:39Z</time>
      </trkpt>
      <trkpt lat="49.74716" lon="0.49383">
        <ele>47</ele>
        <time>2020-06-18T08:39:40Z</time>
      </trkpt>
      <trkpt lat="49.74715" lon="0.49393">
        <ele>47.1</ele>
        <time>2020-06-18T08:39:41Z</time>
      </trkpt>
      <trkpt lat="49.74713" lon="0.49403">
        <ele>47.1</ele>
        <time>2020-06-18T08:39:42Z</time>
      </trkpt>
      <trkpt lat="49.74711" lon="0.49412">
        <ele>47.2</ele>
        <time>2020-06-18T08:39:43Z</time>
      </trkpt>
      <trkpt lat="49.74709" lon="0.49421">
        <ele>47.2</ele>
        <time>2020-06-18T08:39:44Z</time>
      </trkpt>
      <trkpt lat="49.74707" lon="0.4943">
        <ele>47.3</ele>
        <time>2020-06-18T08:39:45Z</time>
      </trkpt>
      <trkpt lat="49.74705" lon="0.49439">
        <ele>47.4</ele>
        <time>2020-06-18T08:39:46Z</time>
      </trkpt>
      <trkpt lat="49.74704" lon="0.49447">
        <ele>47.4</ele>
        <time>2020-06-18T08:39:47Z</time>
      </trkpt>
      <trkpt lat="49.74703" lon="0.49456">
        <ele>47.5</ele>
        <time>2020-06-18T08:39:48Z</time>
      </trkpt>
      <trkpt lat="49.74701" lon="0.49463">
        <ele>47.6</ele>
        <time>2020-06-18T08:39:49Z</time>
      </trkpt>
      <trkpt lat="49.747" lon="0.49469">
        <ele>47.7</ele>
        <time>2020-06-18T08:39:50Z</time>
      </trkpt>
      <trkpt lat="49.74698" lon="0.49473">
        <ele>47.7</ele>
        <time>2020-06-18T08:39:51Z</time>
      </trkpt>
      <trkpt lat="49.74698" lon="0.49478">
        <ele>47.8</ele>
        <time>2020-06-18T08:39:52Z</time>
      </trkpt>
      <trkpt lat="49.74698" lon="0.49483">
        <ele>47.8</ele>
        <time>2020-06-18T08:39:53Z</time>
      </trkpt>
      <trkpt lat="49.74697" lon="0.49489">
        <ele>47.9</ele>
        <time>2020-06-18T08:39:54Z</time>
      </trkpt>
      <trkpt lat="49.74697" lon="0.49496">
        <ele>48.1</ele>
        <time>2020-06-18T08:39:55Z</time>
      </trkpt>
      <trkpt lat="49.74696" lon="0.49502">
        <ele>48</ele>
        <time>2020-06-18T08:39:56Z</time>
      </trkpt>
      <trkpt lat="49.74696" lon="0.49509">
        <ele>48</ele>
        <time>2020-06-18T08:39:57Z</time>
      </trkpt>
      <trkpt lat="49.74694" lon="0.49517">
        <ele>47.9</ele>
        <time>2020-06-18T08:39:58Z</time>
      </trkpt>
      <trkpt lat="49.74694" lon="0.49526">
        <ele>47.9</ele>
        <time>2020-06-18T08:39:59Z</time>
      </trkpt>
      <trkpt lat="49.74694" lon="0.49534">
        <ele>47.8</ele>
        <time>2020-06-18T08:40:00Z</time>
      </trkpt>
      <trkpt lat="49.74694" lon="0.49543">
        <ele>47.8</ele>
        <time>2020-06-18T08:40:01Z</time>
      </trkpt>
      <trkpt lat="49.74694" lon="0.49552">
        <ele>47.8</ele>
        <time>2020-06-18T08:40:02Z</time>
      </trkpt>
      <trkpt lat="49.74692" lon="0.49561">
        <ele>47.8</ele>
        <time>2020-06-18T08:40:03Z</time>
      </trkpt>
      <trkpt lat="49.74692" lon="0.4957">
        <ele>47.8</ele>
        <time>2020-06-18T08:40:04Z</time>
      </trkpt>
      <trkpt lat="49.74691" lon="0.4958">
        <ele>47.8</ele>
        <time>2020-06-18T08:40:05Z</time>
      </trkpt>
      <trkpt lat="49.7469" lon="0.49589">
        <ele>47.8</ele>
        <time>2020-06-18T08:40:06Z</time>
      </trkpt>
      <trkpt lat="49.7469" lon="0.49599">
        <ele>47.8</ele>
        <time>2020-06-18T08:40:07Z</time>
      </trkpt>
      <trkpt lat="49.7469" lon="0.49609">
        <ele>47.7</ele>
        <time>2020-06-18T08:40:08Z</time>
      </trkpt>
      <trkpt lat="49.74691" lon="0.49619">
        <ele>47.7</ele>
        <time>2020-06-18T08:40:09Z</time>
      </trkpt>
      <trkpt lat="49.74691" lon="0.49629">
        <ele>47.7</ele>
        <time>2020-06-18T08:40:10Z</time>
      </trkpt>
      <trkpt lat="49.74691" lon="0.49639">
        <ele>47.7</ele>
        <time>2020-06-18T08:40:11Z</time>
      </trkpt>
      <trkpt lat="49.74691" lon="0.4965">
        <ele>47.7</ele>
        <time>2020-06-18T08:40:12Z</time>
      </trkpt>
      <trkpt lat="49.74691" lon="0.4966">
        <ele>47.7</ele>
        <time>2020-06-18T08:40:13Z</time>
      </trkpt>
      <trkpt lat="49.74693" lon="0.4967">
        <ele>47.7</ele>
        <time>2020-06-18T08:40:14Z</time>
      </trkpt>
      <trkpt lat="49.74694" lon="0.4968">
        <ele>47.6</ele>
        <time>2020-06-18T08:40:15Z</time>
      </trkpt>
      <trkpt lat="49.74694" lon="0.4969">
        <ele>47.6</ele>
        <time>2020-06-18T08:40:16Z</time>
      </trkpt>
      <trkpt lat="49.74695" lon="0.49699">
        <ele>47.5</ele>
        <time>2020-06-18T08:40:17Z</time>
      </trkpt>
      <trkpt lat="49.74696" lon="0.4971">
        <ele>47.4</ele>
        <time>2020-06-18T08:40:18Z</time>
      </trkpt>
      <trkpt lat="49.74697" lon="0.49721">
        <ele>47.4</ele>
        <time>2020-06-18T08:40:19Z</time>
      </trkpt>
      <trkpt lat="49.74697" lon="0.49732">
        <ele>47.4</ele>
        <time>2020-06-18T08:40:20Z</time>
      </trkpt>
      <trkpt lat="49.74698" lon="0.49743">
        <ele>47.4</ele>
        <time>2020-06-18T08:40:21Z</time>
      </trkpt>
      <trkpt lat="49.74699" lon="0.49753">
        <ele>47.4</ele>
        <time>2020-06-18T08:40:22Z</time>
      </trkpt>
      <trkpt lat="49.74701" lon="0.49765">
        <ele>47.5</ele>
        <time>2020-06-18T08:40:23Z</time>
      </trkpt>
      <trkpt lat="49.74702" lon="0.49774">
        <ele>47.5</ele>
        <time>2020-06-18T08:40:24Z</time>
      </trkpt>
      <trkpt lat="49.74704" lon="0.49785">
        <ele>47.5</ele>
        <time>2020-06-18T08:40:25Z</time>
      </trkpt>
      <trkpt lat="49.74706" lon="0.49796">
        <ele>47.5</ele>
        <time>2020-06-18T08:40:26Z</time>
      </trkpt>
      <trkpt lat="49.74708" lon="0.49809">
        <ele>47.5</ele>
        <time>2020-06-18T08:40:27Z</time>
      </trkpt>
      <trkpt lat="49.74709" lon="0.49818">
        <ele>47.5</ele>
        <time>2020-06-18T08:40:28Z</time>
      </trkpt>
      <trkpt lat="49.74711" lon="0.49829">
        <ele>47.5</ele>
        <time>2020-06-18T08:40:29Z</time>
      </trkpt>
      <trkpt lat="49.74713" lon="0.4984">
        <ele>47.5</ele>
        <time>2020-06-18T08:40:30Z</time>
      </trkpt>
      <trkpt lat="49.74715" lon="0.49852">
        <ele>47.5</ele>
        <time>2020-06-18T08:40:31Z</time>
      </trkpt>
      <trkpt lat="49.74717" lon="0.49861">
        <ele>47.5</ele>
        <time>2020-06-18T08:40:32Z</time>
      </trkpt>
      <trkpt lat="49.74719" lon="0.49871">
        <ele>47.5</ele>
        <time>2020-06-18T08:40:33Z</time>
      </trkpt>
      <trkpt lat="49.74723" lon="0.4988">
        <ele>47.6</ele>
        <time>2020-06-18T08:40:34Z</time>
      </trkpt>
      <trkpt lat="49.74727" lon="0.49891">
        <ele>47.6</ele>
        <time>2020-06-18T08:40:35Z</time>
      </trkpt>
      <trkpt lat="49.7473" lon="0.49902">
        <ele>47.7</ele>
        <time>2020-06-18T08:40:36Z</time>
      </trkpt>
      <trkpt lat="49.74733" lon="0.49913">
        <ele>47.8</ele>
        <time>2020-06-18T08:40:37Z</time>
      </trkpt>
      <trkpt lat="49.74737" lon="0.49924">
        <ele>47.8</ele>
        <time>2020-06-18T08:40:38Z</time>
      </trkpt>
      <trkpt lat="49.7474" lon="0.49933">
        <ele>47.8</ele>
        <time>2020-06-18T08:40:39Z</time>
      </trkpt>
      <trkpt lat="49.74743" lon="0.49942">
        <ele>47.9</ele>
        <time>2020-06-18T08:40:40Z</time>
      </trkpt>
      <trkpt lat="49.74746" lon="0.49951">
        <ele>47.9</ele>
        <time>2020-06-18T08:40:41Z</time>
      </trkpt>
      <trkpt lat="49.74749" lon="0.4996">
        <ele>47.9</ele>
        <time>2020-06-18T08:40:42Z</time>
      </trkpt>
      <trkpt lat="49.74751" lon="0.49968">
        <ele>48</ele>
        <time>2020-06-18T08:40:43Z</time>
      </trkpt>
      <trkpt lat="49.74754" lon="0.49976">
        <ele>48</ele>
        <time>2020-06-18T08:40:44Z</time>
      </trkpt>
      <trkpt lat="49.74757" lon="0.49984">
        <ele>48.1</ele>
        <time>2020-06-18T08:40:45Z</time>
      </trkpt>
      <trkpt lat="49.7476" lon="0.49992">
        <ele>48.1</ele>
        <time>2020-06-18T08:40:46Z</time>
      </trkpt>
      <trkpt lat="49.74763" lon="0.49999">
        <ele>48.2</ele>
        <time>2020-06-18T08:40:47Z</time>
      </trkpt>
      <trkpt lat="49.74766" lon="0.50006">
        <ele>48.3</ele>
        <time>2020-06-18T08:40:48Z</time>
      </trkpt>
      <trkpt lat="49.74768" lon="0.50012">
        <ele>48.4</ele>
        <time>2020-06-18T08:40:49Z</time>
      </trkpt>
      <trkpt lat="49.7477" lon="0.50017">
        <ele>48.4</ele>
        <time>2020-06-18T08:40:50Z</time>
      </trkpt>
      <trkpt lat="49.74771" lon="0.50022">
        <ele>48.5</ele>
        <time>2020-06-18T08:40:51Z</time>
      </trkpt>
      <trkpt lat="49.74772" lon="0.50027">
        <ele>48.6</ele>
        <time>2020-06-18T08:40:52Z</time>
      </trkpt>
      <trkpt lat="49.74774" lon="0.50034">
        <ele>48.6</ele>
        <time>2020-06-18T08:40:53Z</time>
      </trkpt>
      <trkpt lat="49.74776" lon="0.50041">
        <ele>48.7</ele>
        <time>2020-06-18T08:40:54Z</time>
      </trkpt>
      <trkpt lat="49.74779" lon="0.50048">
        <ele>48.7</ele>
        <time>2020-06-18T08:40:55Z</time>
      </trkpt>
      <trkpt lat="49.74781" lon="0.50057">
        <ele>48.6</ele>
        <time>2020-06-18T08:40:56Z</time>
      </trkpt>
      <trkpt lat="49.74784" lon="0.50065">
        <ele>48.6</ele>
        <time>2020-06-18T08:40:57Z</time>
      </trkpt>
      <trkpt lat="49.74787" lon="0.50074">
        <ele>48.6</ele>
        <time>2020-06-18T08:40:58Z</time>
      </trkpt>
      <trkpt lat="49.7479" lon="0.50083">
        <ele>48.5</ele>
        <time>2020-06-18T08:40:59Z</time>
      </trkpt>
      <trkpt lat="49.74793" lon="0.50091">
        <ele>48.5</ele>
        <time>2020-06-18T08:41:00Z</time>
      </trkpt>
      <trkpt lat="49.74796" lon="0.501">
        <ele>48.4</ele>
        <time>2020-06-18T08:41:01Z</time>
      </trkpt>
      <trkpt lat="49.74799" lon="0.50108">
        <ele>48.4</ele>
        <time>2020-06-18T08:41:02Z</time>
      </trkpt>
      <trkpt lat="49.74803" lon="0.50117">
        <ele>48.4</ele>
        <time>2020-06-18T08:41:03Z</time>
      </trkpt>
      <trkpt lat="49.74806" lon="0.50125">
        <ele>48.4</ele>
        <time>2020-06-18T08:41:04Z</time>
      </trkpt>
      <trkpt lat="49.74809" lon="0.50135">
        <ele>48.5</ele>
        <time>2020-06-18T08:41:05Z</time>
      </trkpt>
      <trkpt lat="49.74811" lon="0.50143">
        <ele>48.5</ele>
        <time>2020-06-18T08:41:06Z</time>
      </trkpt>
      <trkpt lat="49.74814" lon="0.50152">
        <ele>48.5</ele>
        <time>2020-06-18T08:41:07Z</time>
      </trkpt>
      <trkpt lat="49.74817" lon="0.5016">
        <ele>48.5</ele>
        <time>2020-06-18T08:41:08Z</time>
      </trkpt>
      <trkpt lat="49.74821" lon="0.50167">
        <ele>48.5</ele>
        <time>2020-06-18T08:41:09Z</time>
      </trkpt>
      <trkpt lat="49.74824" lon="0.50175">
        <ele>48.5</ele>
        <time>2020-06-18T08:41:10Z</time>
      </trkpt>
      <trkpt lat="49.74826" lon="0.50183">
        <ele>48.5</ele>
        <time>2020-06-18T08:41:11Z</time>
      </trkpt>
      <trkpt lat="49.74829" lon="0.50192">
        <ele>48.5</ele>
        <time>2020-06-18T08:41:12Z</time>
      </trkpt>
      <trkpt lat="49.74832" lon="0.50201">
        <ele>48.4</ele>
        <time>2020-06-18T08:41:13Z</time>
      </trkpt>
      <trkpt lat="49.74835" lon="0.50209">
        <ele>48.4</ele>
        <time>2020-06-18T08:41:14Z</time>
      </trkpt>
      <trkpt lat="49.74836" lon="0.50219">
        <ele>48.4</ele>
        <time>2020-06-18T08:41:15Z</time>
      </trkpt>
      <trkpt lat="49.74839" lon="0.50229">
        <ele>48.4</ele>
        <time>2020-06-18T08:41:16Z</time>
      </trkpt>
      <trkpt lat="49.74841" lon="0.50238">
        <ele>48.5</ele>
        <time>2020-06-18T08:41:17Z</time>
      </trkpt>
      <trkpt lat="49.74844" lon="0.50248">
        <ele>48.5</ele>
        <time>2020-06-18T08:41:18Z</time>
      </trkpt>
      <trkpt lat="49.74846" lon="0.50257">
        <ele>48.5</ele>
        <time>2020-06-18T08:41:19Z</time>
      </trkpt>
      <trkpt lat="49.74849" lon="0.50267">
        <ele>48.6</ele>
        <time>2020-06-18T08:41:20Z</time>
      </trkpt>
      <trkpt lat="49.7485" lon="0.50277">
        <ele>48.6</ele>
        <time>2020-06-18T08:41:21Z</time>
      </trkpt>
      <trkpt lat="49.74852" lon="0.50287">
        <ele>48.7</ele>
        <time>2020-06-18T08:41:22Z</time>
      </trkpt>
      <trkpt lat="49.74854" lon="0.50298">
        <ele>48.7</ele>
        <time>2020-06-18T08:41:23Z</time>
      </trkpt>
      <trkpt lat="49.74855" lon="0.50308">
        <ele>48.7</ele>
        <time>2020-06-18T08:41:24Z</time>
      </trkpt>
      <trkpt lat="49.74856" lon="0.50319">
        <ele>48.8</ele>
        <time>2020-06-18T08:41:25Z</time>
      </trkpt>
      <trkpt lat="49.74857" lon="0.50329">
        <ele>48.8</ele>
        <time>2020-06-18T08:41:26Z</time>
      </trkpt>
      <trkpt lat="49.74858" lon="0.50339">
        <ele>48.9</ele>
        <time>2020-06-18T08:41:27Z</time>
      </trkpt>
      <trkpt lat="49.74859" lon="0.5035">
        <ele>48.9</ele>
        <time>2020-06-18T08:41:28Z</time>
      </trkpt>
      <trkpt lat="49.74861" lon="0.5036">
        <ele>49</ele>
        <time>2020-06-18T08:41:29Z</time>
      </trkpt>
      <trkpt lat="49.74862" lon="0.5037">
        <ele>49</ele>
        <time>2020-06-18T08:41:30Z</time>
      </trkpt>
      <trkpt lat="49.74863" lon="0.5038">
        <ele>49.1</ele>
        <time>2020-06-18T08:41:31Z</time>
      </trkpt>
      <trkpt lat="49.74864" lon="0.5039">
        <ele>49.2</ele>
        <time>2020-06-18T08:41:32Z</time>
      </trkpt>
      <trkpt lat="49.74864" lon="0.504">
        <ele>49.2</ele>
        <time>2020-06-18T08:41:33Z</time>
      </trkpt>
      <trkpt lat="49.74863" lon="0.50411">
        <ele>49.3</ele>
        <time>2020-06-18T08:41:34Z</time>
      </trkpt>
      <trkpt lat="49.74863" lon="0.50421">
        <ele>49.3</ele>
        <time>2020-06-18T08:41:35Z</time>
      </trkpt>
      <trkpt lat="49.74864" lon="0.50432">
        <ele>49.4</ele>
        <time>2020-06-18T08:41:36Z</time>
      </trkpt>
      <trkpt lat="49.74865" lon="0.50443">
        <ele>49.5</ele>
        <time>2020-06-18T08:41:37Z</time>
      </trkpt>
      <trkpt lat="49.74864" lon="0.50455">
        <ele>49.6</ele>
        <time>2020-06-18T08:41:38Z</time>
      </trkpt>
      <trkpt lat="49.74863" lon="0.50466">
        <ele>49.6</ele>
        <time>2020-06-18T08:41:39Z</time>
      </trkpt>
      <trkpt lat="49.74863" lon="0.50477">
        <ele>49.7</ele>
        <time>2020-06-18T08:41:40Z</time>
      </trkpt>
      <trkpt lat="49.74862" lon="0.50488">
        <ele>49.8</ele>
        <time>2020-06-18T08:41:41Z</time>
      </trkpt>
      <trkpt lat="49.74861" lon="0.50498">
        <ele>49.9</ele>
        <time>2020-06-18T08:41:42Z</time>
      </trkpt>
      <trkpt lat="49.74861" lon="0.50508">
        <ele>49.9</ele>
        <time>2020-06-18T08:41:43Z</time>
      </trkpt>
      <trkpt lat="49.7486" lon="0.50518">
        <ele>50</ele>
        <time>2020-06-18T08:41:44Z</time>
      </trkpt>
      <trkpt lat="49.74859" lon="0.50527">
        <ele>50</ele>
        <time>2020-06-18T08:41:45Z</time>
      </trkpt>
      <trkpt lat="49.74859" lon="0.50536">
        <ele>50.1</ele>
        <time>2020-06-18T08:41:46Z</time>
      </trkpt>
      <trkpt lat="49.74858" lon="0.50545">
        <ele>50.2</ele>
        <time>2020-06-18T08:41:47Z</time>
      </trkpt>
      <trkpt lat="49.74856" lon="0.50553">
        <ele>50.3</ele>
        <time>2020-06-18T08:41:48Z</time>
      </trkpt>
      <trkpt lat="49.74855" lon="0.50561">
        <ele>50.4</ele>
        <time>2020-06-18T08:41:49Z</time>
      </trkpt>
      <trkpt lat="49.74853" lon="0.50568">
        <ele>50.5</ele>
        <time>2020-06-18T08:41:50Z</time>
      </trkpt>
      <trkpt lat="49.74852" lon="0.50576">
        <ele>50.6</ele>
        <time>2020-06-18T08:41:51Z</time>
      </trkpt>
      <trkpt lat="49.74849" lon="0.50583">
        <ele>50.7</ele>
        <time>2020-06-18T08:41:52Z</time>
      </trkpt>
      <trkpt lat="49.74846" lon="0.5059">
        <ele>50.7</ele>
        <time>2020-06-18T08:41:53Z</time>
      </trkpt>
      <trkpt lat="49.74844" lon="0.50597">
        <ele>50.8</ele>
        <time>2020-06-18T08:41:54Z</time>
      </trkpt>
      <trkpt lat="49.74842" lon="0.50605">
        <ele>50.8</ele>
        <time>2020-06-18T08:41:55Z</time>
      </trkpt>
      <trkpt lat="49.7484" lon="0.50611">
        <ele>50.9</ele>
        <time>2020-06-18T08:41:56Z</time>
      </trkpt>
      <trkpt lat="49.74839" lon="0.50617">
        <ele>50.9</ele>
        <time>2020-06-18T08:41:57Z</time>
      </trkpt>
      <trkpt lat="49.74839" lon="0.50624">
        <ele>51</ele>
        <time>2020-06-18T08:41:58Z</time>
      </trkpt>
      <trkpt lat="49.74836" lon="0.5063">
        <ele>51.1</ele>
        <time>2020-06-18T08:41:59Z</time>
      </trkpt>
      <trkpt lat="49.74833" lon="0.50635">
        <ele>51.1</ele>
        <time>2020-06-18T08:42:00Z</time>
      </trkpt>
      <trkpt lat="49.74832" lon="0.5064">
        <ele>51.2</ele>
        <time>2020-06-18T08:42:01Z</time>
      </trkpt>
      <trkpt lat="49.74832" lon="0.50646">
        <ele>51.2</ele>
        <time>2020-06-18T08:42:02Z</time>
      </trkpt>
      <trkpt lat="49.74831" lon="0.50652">
        <ele>51.3</ele>
        <time>2020-06-18T08:42:03Z</time>
      </trkpt>
      <trkpt lat="49.7483" lon="0.50657">
        <ele>51.4</ele>
        <time>2020-06-18T08:42:04Z</time>
      </trkpt>
      <trkpt lat="49.74829" lon="0.50663">
        <ele>51.4</ele>
        <time>2020-06-18T08:42:05Z</time>
      </trkpt>
      <trkpt lat="49.74828" lon="0.50667">
        <ele>51.5</ele>
        <time>2020-06-18T08:42:06Z</time>
      </trkpt>
      <trkpt lat="49.74827" lon="0.50672">
        <ele>51.5</ele>
        <time>2020-06-18T08:42:07Z</time>
      </trkpt>
      <trkpt lat="49.74825" lon="0.50676">
        <ele>51.6</ele>
        <time>2020-06-18T08:42:08Z</time>
      </trkpt>
      <trkpt lat="49.74825" lon="0.50677">
        <ele>51.6</ele>
        <time>2020-06-18T08:42:09Z</time>
      </trkpt>
      <trkpt lat="49.74824" lon="0.5068">
        <ele>51.6</ele>
        <time>2020-06-18T08:42:10Z</time>
      </trkpt>
      <trkpt lat="49.74824" lon="0.50682">
        <ele>51.6</ele>
        <time>2020-06-18T08:42:11Z</time>
      </trkpt>
      <trkpt lat="49.74823" lon="0.50684">
        <ele>51.6</ele>
        <time>2020-06-18T08:42:12Z</time>
      </trkpt>
      <trkpt lat="49.74823" lon="0.50687">
        <ele>51.7</ele>
        <time>2020-06-18T08:42:13Z</time>
      </trkpt>
      <trkpt lat="49.74824" lon="0.50688">
        <ele>51.7</ele>
        <time>2020-06-18T08:42:14Z</time>
      </trkpt>
      <trkpt lat="49.74825" lon="0.5069">
        <ele>51.7</ele>
        <time>2020-06-18T08:42:15Z</time>
      </trkpt>
      <trkpt lat="49.74826" lon="0.50693">
        <ele>51.7</ele>
        <time>2020-06-18T08:42:16Z</time>
      </trkpt>
      <trkpt lat="49.74826" lon="0.50694">
        <ele>51.4</ele>
        <time>2020-06-18T08:42:17Z</time>
      </trkpt>
      <trkpt lat="49.74828" lon="0.50696">
        <ele>51.3</ele>
        <time>2020-06-18T08:42:18Z</time>
      </trkpt>
      <trkpt lat="49.74829" lon="0.50697">
        <ele>51.3</ele>
        <time>2020-06-18T08:42:19Z</time>
      </trkpt>
      <trkpt lat="49.7483" lon="0.50698">
        <ele>51.2</ele>
        <time>2020-06-18T08:42:20Z</time>
      </trkpt>
      <trkpt lat="49.74831" lon="0.50704">
        <ele>51</ele>
        <time>2020-06-18T08:42:21Z</time>
      </trkpt>
      <trkpt lat="49.74831" lon="0.50706">
        <ele>50.9</ele>
        <time>2020-06-18T08:42:22Z</time>
      </trkpt>
      <trkpt lat="49.7483" lon="0.50711">
        <ele>50.2</ele>
        <time>2020-06-18T08:42:23Z</time>
      </trkpt>
      <trkpt lat="49.7483" lon="0.50716">
        <ele>50.1</ele>
        <time>2020-06-18T08:42:24Z</time>
      </trkpt>
      <trkpt lat="49.74829" lon="0.5072">
        <ele>50.1</ele>
        <time>2020-06-18T08:42:25Z</time>
      </trkpt>
      <trkpt lat="49.74827" lon="0.50725">
        <ele>50.1</ele>
        <time>2020-06-18T08:42:26Z</time>
      </trkpt>
      <trkpt lat="49.74826" lon="0.50727">
        <ele>50</ele>
        <time>2020-06-18T08:42:27Z</time>
      </trkpt>
      <trkpt lat="49.74824" lon="0.50729">
        <ele>50</ele>
        <time>2020-06-18T08:42:28Z</time>
      </trkpt>
      <trkpt lat="49.74822" lon="0.50732">
        <ele>50</ele>
        <time>2020-06-18T08:42:29Z</time>
      </trkpt>
      <trkpt lat="49.74819" lon="0.50734">
        <ele>49.9</ele>
        <time>2020-06-18T08:42:30Z</time>
      </trkpt>
      <trkpt lat="49.74817" lon="0.50737">
        <ele>49.8</ele>
        <time>2020-06-18T08:42:31Z</time>
      </trkpt>
      <trkpt lat="49.74815" lon="0.50741">
        <ele>49.8</ele>
        <time>2020-06-18T08:42:32Z</time>
      </trkpt>
      <trkpt lat="49.74813" lon="0.50745">
        <ele>49.7</ele>
        <time>2020-06-18T08:42:33Z</time>
      </trkpt>
      <trkpt lat="49.74811" lon="0.50749">
        <ele>49.6</ele>
        <time>2020-06-18T08:42:34Z</time>
      </trkpt>
      <trkpt lat="49.74808" lon="0.50753">
        <ele>49.6</ele>
        <time>2020-06-18T08:42:35Z</time>
      </trkpt>
      <trkpt lat="49.74807" lon="0.50757">
        <ele>49.5</ele>
        <time>2020-06-18T08:42:36Z</time>
      </trkpt>
      <trkpt lat="49.74805" lon="0.50761">
        <ele>49.5</ele>
        <time>2020-06-18T08:42:37Z</time>
      </trkpt>
      <trkpt lat="49.74804" lon="0.50765">
        <ele>49.5</ele>
        <time>2020-06-18T08:42:38Z</time>
      </trkpt>
      <trkpt lat="49.74803" lon="0.5077">
        <ele>49.5</ele>
        <time>2020-06-18T08:42:39Z</time>
      </trkpt>
      <trkpt lat="49.74801" lon="0.50774">
        <ele>49.5</ele>
        <time>2020-06-18T08:42:40Z</time>
      </trkpt>
      <trkpt lat="49.74798" lon="0.50778">
        <ele>49.5</ele>
        <time>2020-06-18T08:42:41Z</time>
      </trkpt>
      <trkpt lat="49.74796" lon="0.50781">
        <ele>49.5</ele>
        <time>2020-06-18T08:42:42Z</time>
      </trkpt>
      <trkpt lat="49.74795" lon="0.50785">
        <ele>49.5</ele>
        <time>2020-06-18T08:42:43Z</time>
      </trkpt>
      <trkpt lat="49.74793" lon="0.5079">
        <ele>49.5</ele>
        <time>2020-06-18T08:42:44Z</time>
      </trkpt>
      <trkpt lat="49.74792" lon="0.50794">
        <ele>49.5</ele>
        <time>2020-06-18T08:42:45Z</time>
      </trkpt>
      <trkpt lat="49.74789" lon="0.50797">
        <ele>49.5</ele>
        <time>2020-06-18T08:42:46Z</time>
      </trkpt>
      <trkpt lat="49.74786" lon="0.50802">
        <ele>49.4</ele>
        <time>2020-06-18T08:42:47Z</time>
      </trkpt>
      <trkpt lat="49.74785" lon="0.50804">
        <ele>49.4</ele>
        <time>2020-06-18T08:42:48Z</time>
      </trkpt>
      <trkpt lat="49.74782" lon="0.50807">
        <ele>49.4</ele>
        <time>2020-06-18T08:42:49Z</time>
      </trkpt>
      <trkpt lat="49.7478" lon="0.50812">
        <ele>49.4</ele>
        <time>2020-06-18T08:42:50Z</time>
      </trkpt>
      <trkpt lat="49.74778" lon="0.50818">
        <ele>49.4</ele>
        <time>2020-06-18T08:42:51Z</time>
      </trkpt>
      <trkpt lat="49.74775" lon="0.50824">
        <ele>49.4</ele>
        <time>2020-06-18T08:42:52Z</time>
      </trkpt>
      <trkpt lat="49.74773" lon="0.5083">
        <ele>49.4</ele>
        <time>2020-06-18T08:42:53Z</time>
      </trkpt>
      <trkpt lat="49.7477" lon="0.50837">
        <ele>49.5</ele>
        <time>2020-06-18T08:42:54Z</time>
      </trkpt>
      <trkpt lat="49.74767" lon="0.50844">
        <ele>49.5</ele>
        <time>2020-06-18T08:42:55Z</time>
      </trkpt>
      <trkpt lat="49.74764" lon="0.5085">
        <ele>49.6</ele>
        <time>2020-06-18T08:42:56Z</time>
      </trkpt>
      <trkpt lat="49.74761" lon="0.50856">
        <ele>49.6</ele>
        <time>2020-06-18T08:42:57Z</time>
      </trkpt>
      <trkpt lat="49.74758" lon="0.5086">
        <ele>49.7</ele>
        <time>2020-06-18T08:42:58Z</time>
      </trkpt>
      <trkpt lat="49.74755" lon="0.50865">
        <ele>49.7</ele>
        <time>2020-06-18T08:42:59Z</time>
      </trkpt>
      <trkpt lat="49.74752" lon="0.50871">
        <ele>49.8</ele>
        <time>2020-06-18T08:43:00Z</time>
      </trkpt>
      <trkpt lat="49.74749" lon="0.50877">
        <ele>49.8</ele>
        <time>2020-06-18T08:43:01Z</time>
      </trkpt>
      <trkpt lat="49.74744" lon="0.50882">
        <ele>49.9</ele>
        <time>2020-06-18T08:43:02Z</time>
      </trkpt>
      <trkpt lat="49.74741" lon="0.50888">
        <ele>49.9</ele>
        <time>2020-06-18T08:43:03Z</time>
      </trkpt>
      <trkpt lat="49.74737" lon="0.50893">
        <ele>50.1</ele>
        <time>2020-06-18T08:43:04Z</time>
      </trkpt>
      <trkpt lat="49.74733" lon="0.50898">
        <ele>50.2</ele>
        <time>2020-06-18T08:43:05Z</time>
      </trkpt>
      <trkpt lat="49.74729" lon="0.50904">
        <ele>50.3</ele>
        <time>2020-06-18T08:43:06Z</time>
      </trkpt>
      <trkpt lat="49.74725" lon="0.50908">
        <ele>50.4</ele>
        <time>2020-06-18T08:43:07Z</time>
      </trkpt>
      <trkpt lat="49.74721" lon="0.50914">
        <ele>50.4</ele>
        <time>2020-06-18T08:43:08Z</time>
      </trkpt>
      <trkpt lat="49.74717" lon="0.50919">
        <ele>50.4</ele>
        <time>2020-06-18T08:43:09Z</time>
      </trkpt>
      <trkpt lat="49.74713" lon="0.50924">
        <ele>50.3</ele>
        <time>2020-06-18T08:43:10Z</time>
      </trkpt>
      <trkpt lat="49.74709" lon="0.5093">
        <ele>51</ele>
        <time>2020-06-18T08:43:11Z</time>
      </trkpt>
      <trkpt lat="49.74705" lon="0.50936">
        <ele>51.6</ele>
        <time>2020-06-18T08:43:12Z</time>
      </trkpt>
      <trkpt lat="49.74702" lon="0.50942">
        <ele>52.2</ele>
        <time>2020-06-18T08:43:13Z</time>
      </trkpt>
      <trkpt lat="49.74698" lon="0.50949">
        <ele>52.9</ele>
        <time>2020-06-18T08:43:14Z</time>
      </trkpt>
      <trkpt lat="49.74695" lon="0.50956">
        <ele>53.6</ele>
        <time>2020-06-18T08:43:15Z</time>
      </trkpt>
      <trkpt lat="49.74691" lon="0.50963">
        <ele>54.3</ele>
        <time>2020-06-18T08:43:16Z</time>
      </trkpt>
      <trkpt lat="49.74687" lon="0.50969">
        <ele>55</ele>
        <time>2020-06-18T08:43:17Z</time>
      </trkpt>
      <trkpt lat="49.74684" lon="0.50976">
        <ele>55.6</ele>
        <time>2020-06-18T08:43:18Z</time>
      </trkpt>
      <trkpt lat="49.74682" lon="0.50984">
        <ele>56.2</ele>
        <time>2020-06-18T08:43:19Z</time>
      </trkpt>
      <trkpt lat="49.7468" lon="0.50992">
        <ele>56.8</ele>
        <time>2020-06-18T08:43:20Z</time>
      </trkpt>
      <trkpt lat="49.74678" lon="0.51001">
        <ele>57.1</ele>
        <time>2020-06-18T08:43:21Z</time>
      </trkpt>
      <trkpt lat="49.74676" lon="0.5101">
        <ele>57.3</ele>
        <time>2020-06-18T08:43:22Z</time>
      </trkpt>
      <trkpt lat="49.74674" lon="0.51018">
        <ele>57.5</ele>
        <time>2020-06-18T08:43:23Z</time>
      </trkpt>
      <trkpt lat="49.74672" lon="0.51026">
        <ele>57.6</ele>
        <time>2020-06-18T08:43:24Z</time>
      </trkpt>
      <trkpt lat="49.74669" lon="0.51033">
        <ele>57.7</ele>
        <time>2020-06-18T08:43:25Z</time>
      </trkpt>
      <trkpt lat="49.74667" lon="0.51041">
        <ele>57.8</ele>
        <time>2020-06-18T08:43:26Z</time>
      </trkpt>
      <trkpt lat="49.74665" lon="0.51049">
        <ele>57.9</ele>
        <time>2020-06-18T08:43:27Z</time>
      </trkpt>
      <trkpt lat="49.74663" lon="0.51057">
        <ele>58.1</ele>
        <time>2020-06-18T08:43:28Z</time>
      </trkpt>
      <trkpt lat="49.7466" lon="0.51064">
        <ele>58.3</ele>
        <time>2020-06-18T08:43:29Z</time>
      </trkpt>
      <trkpt lat="49.74657" lon="0.51072">
        <ele>58.4</ele>
        <time>2020-06-18T08:43:30Z</time>
      </trkpt>
      <trkpt lat="49.74655" lon="0.51079">
        <ele>58.6</ele>
        <time>2020-06-18T08:43:31Z</time>
      </trkpt>
      <trkpt lat="49.74653" lon="0.51087">
        <ele>58.8</ele>
        <time>2020-06-18T08:43:32Z</time>
      </trkpt>
      <trkpt lat="49.74652" lon="0.51096">
        <ele>59</ele>
        <time>2020-06-18T08:43:33Z</time>
      </trkpt>
      <trkpt lat="49.7465" lon="0.51104">
        <ele>59.2</ele>
        <time>2020-06-18T08:43:34Z</time>
      </trkpt>
      <trkpt lat="49.7465" lon="0.51112">
        <ele>59.4</ele>
        <time>2020-06-18T08:43:35Z</time>
      </trkpt>
      <trkpt lat="49.74651" lon="0.5112">
        <ele>59.5</ele>
        <time>2020-06-18T08:43:36Z</time>
      </trkpt>
      <trkpt lat="49.74651" lon="0.51128">
        <ele>59.6</ele>
        <time>2020-06-18T08:43:37Z</time>
      </trkpt>
      <trkpt lat="49.74653" lon="0.51136">
        <ele>59.8</ele>
        <time>2020-06-18T08:43:38Z</time>
      </trkpt>
      <trkpt lat="49.74652" lon="0.51143">
        <ele>59.9</ele>
        <time>2020-06-18T08:43:39Z</time>
      </trkpt>
      <trkpt lat="49.74653" lon="0.51151">
        <ele>60</ele>
        <time>2020-06-18T08:43:40Z</time>
      </trkpt>
      <trkpt lat="49.74653" lon="0.51159">
        <ele>60.1</ele>
        <time>2020-06-18T08:43:41Z</time>
      </trkpt>
      <trkpt lat="49.74654" lon="0.51167">
        <ele>60.2</ele>
        <time>2020-06-18T08:43:42Z</time>
      </trkpt>
      <trkpt lat="49.74654" lon="0.51175">
        <ele>60.3</ele>
        <time>2020-06-18T08:43:43Z</time>
      </trkpt>
      <trkpt lat="49.74654" lon="0.51182">
        <ele>60.3</ele>
        <time>2020-06-18T08:43:44Z</time>
      </trkpt>
      <trkpt lat="49.74654" lon="0.51189">
        <ele>59.9</ele>
        <time>2020-06-18T08:43:45Z</time>
      </trkpt>
      <trkpt lat="49.74653" lon="0.51196">
        <ele>59.5</ele>
        <time>2020-06-18T08:43:46Z</time>
      </trkpt>
      <trkpt lat="49.74652" lon="0.51204">
        <ele>59.1</ele>
        <time>2020-06-18T08:43:47Z</time>
      </trkpt>
      <trkpt lat="49.74652" lon="0.5121">
        <ele>58.8</ele>
        <time>2020-06-18T08:43:48Z</time>
      </trkpt>
      <trkpt lat="49.74651" lon="0.51216">
        <ele>58.5</ele>
        <time>2020-06-18T08:43:49Z</time>
      </trkpt>
      <trkpt lat="49.74651" lon="0.51222">
        <ele>58.2</ele>
        <time>2020-06-18T08:43:50Z</time>
      </trkpt>
      <trkpt lat="49.7465" lon="0.51226">
        <ele>57.9</ele>
        <time>2020-06-18T08:43:51Z</time>
      </trkpt>
      <trkpt lat="49.74649" lon="0.51231">
        <ele>57.6</ele>
        <time>2020-06-18T08:43:52Z</time>
      </trkpt>
      <trkpt lat="49.74649" lon="0.51233">
        <ele>57.5</ele>
        <time>2020-06-18T08:43:53Z</time>
      </trkpt>
      <trkpt lat="49.74648" lon="0.51235">
        <ele>57.3</ele>
        <time>2020-06-18T08:43:54Z</time>
      </trkpt>
      <trkpt lat="49.74647" lon="0.51237">
        <ele>57.2</ele>
        <time>2020-06-18T08:43:55Z</time>
      </trkpt>
      <trkpt lat="49.74647" lon="0.51239">
        <ele>57.1</ele>
        <time>2020-06-18T08:43:56Z</time>
      </trkpt>
      <trkpt lat="49.74647" lon="0.51239">
        <ele>57.1</ele>
        <time>2020-06-18T08:43:57Z</time>
      </trkpt>
      <trkpt lat="49.74646" lon="0.51239">
        <ele>57.1</ele>
        <time>2020-06-18T08:43:58Z</time>
      </trkpt>
      <trkpt lat="49.74646" lon="0.5124">
        <ele>57</ele>
        <time>2020-06-18T08:43:59Z</time>
      </trkpt>
      <trkpt lat="49.74646" lon="0.51241">
        <ele>57</ele>
        <time>2020-06-18T08:44:00Z</time>
      </trkpt>
      <trkpt lat="49.74646" lon="0.51242">
        <ele>56.9</ele>
        <time>2020-06-18T08:44:01Z</time>
      </trkpt>
      <trkpt lat="49.74645" lon="0.51244">
        <ele>56.7</ele>
        <time>2020-06-18T08:44:02Z</time>
      </trkpt>
      <trkpt lat="49.74644" lon="0.51245">
        <ele>56.5</ele>
        <time>2020-06-18T08:44:03Z</time>
      </trkpt>
      <trkpt lat="49.74641" lon="0.51247">
        <ele>56.1</ele>
        <time>2020-06-18T08:44:04Z</time>
      </trkpt>
      <trkpt lat="49.7464" lon="0.51248">
        <ele>56</ele>
        <time>2020-06-18T08:44:05Z</time>
      </trkpt>
      <trkpt lat="49.74637" lon="0.51248">
        <ele>55.8</ele>
        <time>2020-06-18T08:44:06Z</time>
      </trkpt>
      <trkpt lat="49.74633" lon="0.51246">
        <ele>55.5</ele>
        <time>2020-06-18T08:44:07Z</time>
      </trkpt>
      <trkpt lat="49.74629" lon="0.51247">
        <ele>55.2</ele>
        <time>2020-06-18T08:44:08Z</time>
      </trkpt>
      <trkpt lat="49.74624" lon="0.51248">
        <ele>54.9</ele>
        <time>2020-06-18T08:44:09Z</time>
      </trkpt>
      <trkpt lat="49.74619" lon="0.51249">
        <ele>54.6</ele>
        <time>2020-06-18T08:44:10Z</time>
      </trkpt>
      <trkpt lat="49.74614" lon="0.5125">
        <ele>54.3</ele>
        <time>2020-06-18T08:44:11Z</time>
      </trkpt>
      <trkpt lat="49.7461" lon="0.51252">
        <ele>54.1</ele>
        <time>2020-06-18T08:44:12Z</time>
      </trkpt>
      <trkpt lat="49.74605" lon="0.51255">
        <ele>53.8</ele>
        <time>2020-06-18T08:44:13Z</time>
      </trkpt>
      <trkpt lat="49.746" lon="0.51256">
        <ele>53.7</ele>
        <time>2020-06-18T08:44:14Z</time>
      </trkpt>
      <trkpt lat="49.74596" lon="0.51256">
        <ele>53.5</ele>
        <time>2020-06-18T08:44:15Z</time>
      </trkpt>
      <trkpt lat="49.74591" lon="0.51256">
        <ele>53.3</ele>
        <time>2020-06-18T08:44:16Z</time>
      </trkpt>
      <trkpt lat="49.74587" lon="0.51257">
        <ele>53.2</ele>
        <time>2020-06-18T08:44:17Z</time>
      </trkpt>
      <trkpt lat="49.74581" lon="0.51258">
        <ele>53</ele>
        <time>2020-06-18T08:44:18Z</time>
      </trkpt>
      <trkpt lat="49.74576" lon="0.51259">
        <ele>52.8</ele>
        <time>2020-06-18T08:44:19Z</time>
      </trkpt>
      <trkpt lat="49.74571" lon="0.5126">
        <ele>52.6</ele>
        <time>2020-06-18T08:44:20Z</time>
      </trkpt>
      <trkpt lat="49.74567" lon="0.51261">
        <ele>52.5</ele>
        <time>2020-06-18T08:44:21Z</time>
      </trkpt>
      <trkpt lat="49.74562" lon="0.51262">
        <ele>52.4</ele>
        <time>2020-06-18T08:44:22Z</time>
      </trkpt>
      <trkpt lat="49.74558" lon="0.51262">
        <ele>52.3</ele>
        <time>2020-06-18T08:44:23Z</time>
      </trkpt>
      <trkpt lat="49.74554" lon="0.51264">
        <ele>52.2</ele>
        <time>2020-06-18T08:44:24Z</time>
      </trkpt>
      <trkpt lat="49.7455" lon="0.51268">
        <ele>52.1</ele>
        <time>2020-06-18T08:44:25Z</time>
      </trkpt>
      <trkpt lat="49.74546" lon="0.5127">
        <ele>52</ele>
        <time>2020-06-18T08:44:26Z</time>
      </trkpt>
      <trkpt lat="49.74541" lon="0.5127">
        <ele>51.9</ele>
        <time>2020-06-18T08:44:27Z</time>
      </trkpt>
      <trkpt lat="49.74536" lon="0.51271">
        <ele>51.9</ele>
        <time>2020-06-18T08:44:28Z</time>
      </trkpt>
      <trkpt lat="49.74531" lon="0.51273">
        <ele>51.9</ele>
        <time>2020-06-18T08:44:29Z</time>
      </trkpt>
      <trkpt lat="49.74526" lon="0.51275">
        <ele>51.8</ele>
        <time>2020-06-18T08:44:30Z</time>
      </trkpt>
      <trkpt lat="49.74521" lon="0.51276">
        <ele>51.8</ele>
        <time>2020-06-18T08:44:31Z</time>
      </trkpt>
      <trkpt lat="49.74516" lon="0.51277">
        <ele>51.8</ele>
        <time>2020-06-18T08:44:32Z</time>
      </trkpt>
      <trkpt lat="49.74511" lon="0.51278">
        <ele>51.8</ele>
        <time>2020-06-18T08:44:33Z</time>
      </trkpt>
      <trkpt lat="49.74506" lon="0.51278">
        <ele>51.8</ele>
        <time>2020-06-18T08:44:34Z</time>
      </trkpt>
      <trkpt lat="49.74502" lon="0.51281">
        <ele>51.8</ele>
        <time>2020-06-18T08:44:35Z</time>
      </trkpt>
      <trkpt lat="49.74498" lon="0.51283">
        <ele>51.8</ele>
        <time>2020-06-18T08:44:36Z</time>
      </trkpt>
      <trkpt lat="49.74494" lon="0.51284">
        <ele>51.8</ele>
        <time>2020-06-18T08:44:37Z</time>
      </trkpt>
      <trkpt lat="49.74489" lon="0.51284">
        <ele>51.8</ele>
        <time>2020-06-18T08:44:38Z</time>
      </trkpt>
      <trkpt lat="49.74485" lon="0.51286">
        <ele>51.8</ele>
        <time>2020-06-18T08:44:39Z</time>
      </trkpt>
      <trkpt lat="49.7448" lon="0.51287">
        <ele>51.9</ele>
        <time>2020-06-18T08:44:40Z</time>
      </trkpt>
      <trkpt lat="49.74475" lon="0.51289">
        <ele>51.9</ele>
        <time>2020-06-18T08:44:41Z</time>
      </trkpt>
      <trkpt lat="49.74471" lon="0.51291">
        <ele>52</ele>
        <time>2020-06-18T08:44:42Z</time>
      </trkpt>
      <trkpt lat="49.74467" lon="0.51293">
        <ele>52</ele>
        <time>2020-06-18T08:44:43Z</time>
      </trkpt>
      <trkpt lat="49.74463" lon="0.51293">
        <ele>52.3</ele>
        <time>2020-06-18T08:44:44Z</time>
      </trkpt>
      <trkpt lat="49.7446" lon="0.5129">
        <ele>52.4</ele>
        <time>2020-06-18T08:44:45Z</time>
      </trkpt>
      <trkpt lat="49.74457" lon="0.51288">
        <ele>52.4</ele>
        <time>2020-06-18T08:44:46Z</time>
      </trkpt>
      <trkpt lat="49.74456" lon="0.51284">
        <ele>52.5</ele>
        <time>2020-06-18T08:44:47Z</time>
      </trkpt>
      <trkpt lat="49.74454" lon="0.51281">
        <ele>52.5</ele>
        <time>2020-06-18T08:44:48Z</time>
      </trkpt>
      <trkpt lat="49.74452" lon="0.51277">
        <ele>52.5</ele>
        <time>2020-06-18T08:44:49Z</time>
      </trkpt>
      <trkpt lat="49.74451" lon="0.51273">
        <ele>52.6</ele>
        <time>2020-06-18T08:44:50Z</time>
      </trkpt>
      <trkpt lat="49.74449" lon="0.5127">
        <ele>52.7</ele>
        <time>2020-06-18T08:44:51Z</time>
      </trkpt>
      <trkpt lat="49.74448" lon="0.5127">
        <ele>52.7</ele>
        <time>2020-06-18T08:44:52Z</time>
      </trkpt>
      <trkpt lat="49.74446" lon="0.51269">
        <ele>52.7</ele>
        <time>2020-06-18T08:44:53Z</time>
      </trkpt>
      <trkpt lat="49.74445" lon="0.5127">
        <ele>52.7</ele>
        <time>2020-06-18T08:44:54Z</time>
      </trkpt>
      <trkpt lat="49.74445" lon="0.51273">
        <ele>52.8</ele>
        <time>2020-06-18T08:44:55Z</time>
      </trkpt>
      <trkpt lat="49.74446" lon="0.51273">
        <ele>52.8</ele>
        <time>2020-06-18T08:44:56Z</time>
      </trkpt>
      <trkpt lat="49.74447" lon="0.51274">
        <ele>52.8</ele>
        <time>2020-06-18T08:44:57Z</time>
      </trkpt>
      <trkpt lat="49.74448" lon="0.51277">
        <ele>52.8</ele>
        <time>2020-06-18T08:44:58Z</time>
      </trkpt>
      <trkpt lat="49.74449" lon="0.51279">
        <ele>52.8</ele>
        <time>2020-06-18T08:44:59Z</time>
      </trkpt>
      <trkpt lat="49.74451" lon="0.51281">
        <ele>52.7</ele>
        <time>2020-06-18T08:45:00Z</time>
      </trkpt>
      <trkpt lat="49.74452" lon="0.51282">
        <ele>52.7</ele>
        <time>2020-06-18T08:45:01Z</time>
      </trkpt>
      <trkpt lat="49.74453" lon="0.51284">
        <ele>52.7</ele>
        <time>2020-06-18T08:45:02Z</time>
      </trkpt>
      <trkpt lat="49.74454" lon="0.51284">
        <ele>52.7</ele>
        <time>2020-06-18T08:45:03Z</time>
      </trkpt>
      <trkpt lat="49.74455" lon="0.51284">
        <ele>52.7</ele>
        <time>2020-06-18T08:45:04Z</time>
      </trkpt>
      <trkpt lat="49.74455" lon="0.51283">
        <ele>52.7</ele>
        <time>2020-06-18T08:45:05Z</time>
      </trkpt>
      <trkpt lat="49.74454" lon="0.51281">
        <ele>52.7</ele>
        <time>2020-06-18T08:45:06Z</time>
      </trkpt>
      <trkpt lat="49.74453" lon="0.5128">
        <ele>52.6</ele>
        <time>2020-06-18T08:45:07Z</time>
      </trkpt>
      <trkpt lat="49.74453" lon="0.51279">
        <ele>52.6</ele>
        <time>2020-06-18T08:45:08Z</time>
      </trkpt>
      <trkpt lat="49.74452" lon="0.51278">
        <ele>52.6</ele>
        <time>2020-06-18T08:45:09Z</time>
      </trkpt>
      <trkpt lat="49.74452" lon="0.51277">
        <ele>52.6</ele>
        <time>2020-06-18T08:45:10Z</time>
      </trkpt>
      <trkpt lat="49.74452" lon="0.51276">
        <ele>52.6</ele>
        <time>2020-06-18T08:45:11Z</time>
      </trkpt>
      <trkpt lat="49.74451" lon="0.51276">
        <ele>52.6</ele>
        <time>2020-06-18T08:45:12Z</time>
      </trkpt>
      <trkpt lat="49.7445" lon="0.51276">
        <ele>52.6</ele>
        <time>2020-06-18T08:45:13Z</time>
      </trkpt>
      <trkpt lat="49.7445" lon="0.51275">
        <ele>52.6</ele>
        <time>2020-06-18T08:45:14Z</time>
      </trkpt>
      <trkpt lat="49.7445" lon="0.51274">
        <ele>52.6</ele>
        <time>2020-06-18T08:45:15Z</time>
      </trkpt>
      <trkpt lat="49.7445" lon="0.51274">
        <ele>52.6</ele>
        <time>2020-06-18T08:45:16Z</time>
      </trkpt>
      <trkpt lat="49.74449" lon="0.51275">
        <ele>52.6</ele>
        <time>2020-06-18T08:45:17Z</time>
      </trkpt>
      <trkpt lat="49.74449" lon="0.51275">
        <ele>52.6</ele>
        <time>2020-06-18T08:45:18Z</time>
      </trkpt>
      <trkpt lat="49.74449" lon="0.51275">
        <ele>52.6</ele>
        <time>2020-06-18T08:45:19Z</time>
      </trkpt>
      <trkpt lat="49.74449" lon="0.51275">
        <ele>52.6</ele>
        <time>2020-06-18T08:45:20Z</time>
      </trkpt>
      <trkpt lat="49.74449" lon="0.51276">
        <ele>52.6</ele>
        <time>2020-06-18T08:45:21Z</time>
      </trkpt>
      <trkpt lat="49.74449" lon="0.51278">
        <ele>52.5</ele>
        <time>2020-06-18T08:45:22Z</time>
      </trkpt>
      <trkpt lat="49.74449" lon="0.5128">
        <ele>52.5</ele>
        <time>2020-06-18T08:45:23Z</time>
      </trkpt>
      <trkpt lat="49.7445" lon="0.51282">
        <ele>52.5</ele>
        <time>2020-06-18T08:45:25Z</time>
      </trkpt>
      <trkpt lat="49.7445" lon="0.51284">
        <ele>52.5</ele>
        <time>2020-06-18T08:45:26Z</time>
      </trkpt>
      <trkpt lat="49.7445" lon="0.51285">
        <ele>52.5</ele>
        <time>2020-06-18T08:45:27Z</time>
      </trkpt>
      <trkpt lat="49.7445" lon="0.5129">
        <ele>52.5</ele>
        <time>2020-06-18T08:45:28Z</time>
      </trkpt>
      <trkpt lat="49.74452" lon="0.51292">
        <ele>52.4</ele>
        <time>2020-06-18T08:45:29Z</time>
      </trkpt>
      <trkpt lat="49.74452" lon="0.51293">
        <ele>52.4</ele>
        <time>2020-06-18T08:45:30Z</time>
      </trkpt>
      <trkpt lat="49.74453" lon="0.51295">
        <ele>52.4</ele>
        <time>2020-06-18T08:45:31Z</time>
      </trkpt>
      <trkpt lat="49.74453" lon="0.51295">
        <ele>52.4</ele>
        <time>2020-06-18T08:45:32Z</time>
      </trkpt>
      <trkpt lat="49.74453" lon="0.51296">
        <ele>52.4</ele>
        <time>2020-06-18T08:45:33Z</time>
      </trkpt>
      <trkpt lat="49.74452" lon="0.51298">
        <ele>52.4</ele>
        <time>2020-06-18T08:45:34Z</time>
      </trkpt>
      <trkpt lat="49.74453" lon="0.51298">
        <ele>52.4</ele>
        <time>2020-06-18T08:45:35Z</time>
      </trkpt>
      <trkpt lat="49.74453" lon="0.51299">
        <ele>52.4</ele>
        <time>2020-06-18T08:45:36Z</time>
      </trkpt>
      <trkpt lat="49.74453" lon="0.513">
        <ele>52.4</ele>
        <time>2020-06-18T08:45:37Z</time>
      </trkpt>
      <trkpt lat="49.74454" lon="0.51299">
        <ele>52.4</ele>
        <time>2020-06-18T08:45:38Z</time>
      </trkpt>
      <trkpt lat="49.74454" lon="0.51299">
        <ele>52.4</ele>
        <time>2020-06-18T08:45:39Z</time>
      </trkpt>
      <trkpt lat="49.74454" lon="0.51299">
        <ele>52.4</ele>
        <time>2020-06-18T08:45:40Z</time>
      </trkpt>
      <trkpt lat="49.74455" lon="0.51299">
        <ele>52.4</ele>
        <time>2020-06-18T08:45:41Z</time>
      </trkpt>
      <trkpt lat="49.74454" lon="0.513">
        <ele>52.4</ele>
        <time>2020-06-18T08:45:42Z</time>
      </trkpt>
      <trkpt lat="49.74454" lon="0.513">
        <ele>52.4</ele>
        <time>2020-06-18T08:45:43Z</time>
      </trkpt>
      <trkpt lat="49.74454" lon="0.513">
        <ele>52.4</ele>
        <time>2020-06-18T08:45:44Z</time>
      </trkpt>
      <trkpt lat="49.74453" lon="0.51301">
        <ele>52.3</ele>
        <time>2020-06-18T08:45:45Z</time>
      </trkpt>
      <trkpt lat="49.74454" lon="0.513">
        <ele>52.3</ele>
        <time>2020-06-18T08:45:46Z</time>
      </trkpt>
      <trkpt lat="49.74453" lon="0.51301">
        <ele>52.3</ele>
        <time>2020-06-18T08:45:47Z</time>
      </trkpt>
      <trkpt lat="49.74454" lon="0.51301">
        <ele>52.3</ele>
        <time>2020-06-18T08:45:48Z</time>
      </trkpt>
      <trkpt lat="49.74454" lon="0.513">
        <ele>52.3</ele>
        <time>2020-06-18T08:45:49Z</time>
      </trkpt>
      <trkpt lat="49.74454" lon="0.51301">
        <ele>52.3</ele>
        <time>2020-06-18T08:45:50Z</time>
      </trkpt>
      <trkpt lat="49.74454" lon="0.51301">
        <ele>52.3</ele>
        <time>2020-06-18T08:45:51Z</time>
      </trkpt>
      <trkpt lat="49.74454" lon="0.51301">
        <ele>52.3</ele>
        <time>2020-06-18T08:45:52Z</time>
      </trkpt>
      <trkpt lat="49.74454" lon="0.51301">
        <ele>52.3</ele>
        <time>2020-06-18T08:45:53Z</time>
      </trkpt>
      <trkpt lat="49.74454" lon="0.51301">
        <ele>52.3</ele>
        <time>2020-06-18T08:45:54Z</time>
      </trkpt>
      <trkpt lat="49.74456" lon="0.513">
        <ele>52.3</ele>
        <time>2020-06-18T08:45:55Z</time>
      </trkpt>
      <trkpt lat="49.74456" lon="0.513">
        <ele>52.3</ele>
        <time>2020-06-18T08:45:56Z</time>
      </trkpt>
      <trkpt lat="49.74457" lon="0.51299">
        <ele>52.2</ele>
        <time>2020-06-18T08:45:57Z</time>
      </trkpt>
      <trkpt lat="49.74459" lon="0.513">
        <ele>52.2</ele>
        <time>2020-06-18T08:45:58Z</time>
      </trkpt>
      <trkpt lat="49.74461" lon="0.51302">
        <ele>52.2</ele>
        <time>2020-06-18T08:45:59Z</time>
      </trkpt>
      <trkpt lat="49.74463" lon="0.51303">
        <ele>52.1</ele>
        <time>2020-06-18T08:46:00Z</time>
      </trkpt>
      <trkpt lat="49.74464" lon="0.51304">
        <ele>52.1</ele>
        <time>2020-06-18T08:46:01Z</time>
      </trkpt>
      <trkpt lat="49.74466" lon="0.51306">
        <ele>52.1</ele>
        <time>2020-06-18T08:47:55Z</time>
      </trkpt>
      <trkpt lat="49.74468" lon="0.51307">
        <ele>52</ele>
        <time>2020-06-18T08:47:56Z</time>
      </trkpt>
      <trkpt lat="49.74471" lon="0.51305">
        <ele>52</ele>
        <time>2020-06-18T08:47:57Z</time>
      </trkpt>
      <trkpt lat="49.74474" lon="0.51303">
        <ele>52</ele>
        <time>2020-06-18T08:47:58Z</time>
      </trkpt>
      <trkpt lat="49.74477" lon="0.513">
        <ele>51.9</ele>
        <time>2020-06-18T08:47:59Z</time>
      </trkpt>
      <trkpt lat="49.74481" lon="0.51296">
        <ele>51.9</ele>
        <time>2020-06-18T08:48:00Z</time>
      </trkpt>
      <trkpt lat="49.74486" lon="0.51291">
        <ele>51.8</ele>
        <time>2020-06-18T08:48:01Z</time>
      </trkpt>
      <trkpt lat="49.74491" lon="0.51291">
        <ele>51.8</ele>
        <time>2020-06-18T08:48:02Z</time>
      </trkpt>
      <trkpt lat="49.74496" lon="0.5129">
        <ele>51.8</ele>
        <time>2020-06-18T08:48:03Z</time>
      </trkpt>
      <trkpt lat="49.74502" lon="0.51289">
        <ele>51.8</ele>
        <time>2020-06-18T08:48:04Z</time>
      </trkpt>
      <trkpt lat="49.74507" lon="0.51288">
        <ele>51.8</ele>
        <time>2020-06-18T08:48:05Z</time>
      </trkpt>
      <trkpt lat="49.74512" lon="0.51286">
        <ele>51.8</ele>
        <time>2020-06-18T08:48:06Z</time>
      </trkpt>
      <trkpt lat="49.74517" lon="0.51284">
        <ele>51.8</ele>
        <time>2020-06-18T08:48:07Z</time>
      </trkpt>
      <trkpt lat="49.74522" lon="0.51281">
        <ele>51.8</ele>
        <time>2020-06-18T08:48:08Z</time>
      </trkpt>
      <trkpt lat="49.74527" lon="0.5128">
        <ele>51.8</ele>
        <time>2020-06-18T08:48:09Z</time>
      </trkpt>
      <trkpt lat="49.74533" lon="0.51278">
        <ele>51.9</ele>
        <time>2020-06-18T08:48:10Z</time>
      </trkpt>
      <trkpt lat="49.74539" lon="0.51277">
        <ele>51.9</ele>
        <time>2020-06-18T08:48:11Z</time>
      </trkpt>
      <trkpt lat="49.74545" lon="0.51274">
        <ele>52</ele>
        <time>2020-06-18T08:48:12Z</time>
      </trkpt>
      <trkpt lat="49.74551" lon="0.51273">
        <ele>52.1</ele>
        <time>2020-06-18T08:48:13Z</time>
      </trkpt>
      <trkpt lat="49.74557" lon="0.51271">
        <ele>52.3</ele>
        <time>2020-06-18T08:48:14Z</time>
      </trkpt>
      <trkpt lat="49.74563" lon="0.51268">
        <ele>52.4</ele>
        <time>2020-06-18T08:48:15Z</time>
      </trkpt>
      <trkpt lat="49.7457" lon="0.51266">
        <ele>52.6</ele>
        <time>2020-06-18T08:48:16Z</time>
      </trkpt>
      <trkpt lat="49.74576" lon="0.51264">
        <ele>52.8</ele>
        <time>2020-06-18T08:48:17Z</time>
      </trkpt>
      <trkpt lat="49.74582" lon="0.51262">
        <ele>53</ele>
        <time>2020-06-18T08:48:18Z</time>
      </trkpt>
      <trkpt lat="49.74588" lon="0.51259">
        <ele>53.2</ele>
        <time>2020-06-18T08:48:19Z</time>
      </trkpt>
      <trkpt lat="49.74594" lon="0.51258">
        <ele>53.5</ele>
        <time>2020-06-18T08:48:20Z</time>
      </trkpt>
      <trkpt lat="49.74601" lon="0.51257">
        <ele>53.7</ele>
        <time>2020-06-18T08:48:21Z</time>
      </trkpt>
      <trkpt lat="49.74607" lon="0.51256">
        <ele>54</ele>
        <time>2020-06-18T08:48:22Z</time>
      </trkpt>
      <trkpt lat="49.74614" lon="0.51256">
        <ele>54.3</ele>
        <time>2020-06-18T08:48:23Z</time>
      </trkpt>
      <trkpt lat="49.7462" lon="0.51255">
        <ele>54.7</ele>
        <time>2020-06-18T08:48:24Z</time>
      </trkpt>
      <trkpt lat="49.74626" lon="0.51255">
        <ele>55</ele>
        <time>2020-06-18T08:48:25Z</time>
      </trkpt>
      <trkpt lat="49.74632" lon="0.51256">
        <ele>55.5</ele>
        <time>2020-06-18T08:48:26Z</time>
      </trkpt>
      <trkpt lat="49.74638" lon="0.51256">
        <ele>55.9</ele>
        <time>2020-06-18T08:48:27Z</time>
      </trkpt>
      <trkpt lat="49.74643" lon="0.51259">
        <ele>56.1</ele>
        <time>2020-06-18T08:48:28Z</time>
      </trkpt>
      <trkpt lat="49.74648" lon="0.51261">
        <ele>56.1</ele>
        <time>2020-06-18T08:48:29Z</time>
      </trkpt>
      <trkpt lat="49.74653" lon="0.51264">
        <ele>56.1</ele>
        <time>2020-06-18T08:48:30Z</time>
      </trkpt>
      <trkpt lat="49.74656" lon="0.51269">
        <ele>56.2</ele>
        <time>2020-06-18T08:48:31Z</time>
      </trkpt>
      <trkpt lat="49.74661" lon="0.51272">
        <ele>56.3</ele>
        <time>2020-06-18T08:48:32Z</time>
      </trkpt>
      <trkpt lat="49.74665" lon="0.51276">
        <ele>56.4</ele>
        <time>2020-06-18T08:48:33Z</time>
      </trkpt>
      <trkpt lat="49.74669" lon="0.51281">
        <ele>56.7</ele>
        <time>2020-06-18T08:48:34Z</time>
      </trkpt>
      <trkpt lat="49.74672" lon="0.51286">
        <ele>57.1</ele>
        <time>2020-06-18T08:48:35Z</time>
      </trkpt>
      <trkpt lat="49.74676" lon="0.5129">
        <ele>57.6</ele>
        <time>2020-06-18T08:48:36Z</time>
      </trkpt>
      <trkpt lat="49.74678" lon="0.51295">
        <ele>57.9</ele>
        <time>2020-06-18T08:48:37Z</time>
      </trkpt>
      <trkpt lat="49.74681" lon="0.513">
        <ele>58.3</ele>
        <time>2020-06-18T08:48:38Z</time>
      </trkpt>
      <trkpt lat="49.74684" lon="0.51305">
        <ele>58.6</ele>
        <time>2020-06-18T08:48:39Z</time>
      </trkpt>
      <trkpt lat="49.74686" lon="0.51309">
        <ele>58.9</ele>
        <time>2020-06-18T08:48:40Z</time>
      </trkpt>
      <trkpt lat="49.74689" lon="0.51314">
        <ele>59.3</ele>
        <time>2020-06-18T08:48:41Z</time>
      </trkpt>
      <trkpt lat="49.7469" lon="0.51317">
        <ele>59.5</ele>
        <time>2020-06-18T08:48:42Z</time>
      </trkpt>
      <trkpt lat="49.74691" lon="0.51321">
        <ele>59.8</ele>
        <time>2020-06-18T08:48:43Z</time>
      </trkpt>
      <trkpt lat="49.74692" lon="0.51325">
        <ele>60</ele>
        <time>2020-06-18T08:48:44Z</time>
      </trkpt>
      <trkpt lat="49.74694" lon="0.5133">
        <ele>60.3</ele>
        <time>2020-06-18T08:48:45Z</time>
      </trkpt>
      <trkpt lat="49.74695" lon="0.51332">
        <ele>60.4</ele>
        <time>2020-06-18T08:48:46Z</time>
      </trkpt>
      <trkpt lat="49.74695" lon="0.51336">
        <ele>60.7</ele>
        <time>2020-06-18T08:48:47Z</time>
      </trkpt>
      <trkpt lat="49.74697" lon="0.5134">
        <ele>60.9</ele>
        <time>2020-06-18T08:48:48Z</time>
      </trkpt>
      <trkpt lat="49.747" lon="0.51345">
        <ele>61.3</ele>
        <time>2020-06-18T08:48:49Z</time>
      </trkpt>
      <trkpt lat="49.747" lon="0.51347">
        <ele>61.4</ele>
        <time>2020-06-18T08:48:50Z</time>
      </trkpt>
      <trkpt lat="49.74702" lon="0.51352">
        <ele>61.7</ele>
        <time>2020-06-18T08:48:51Z</time>
      </trkpt>
      <trkpt lat="49.74703" lon="0.51354">
        <ele>61.8</ele>
        <time>2020-06-18T08:48:52Z</time>
      </trkpt>
      <trkpt lat="49.74705" lon="0.51357">
        <ele>62</ele>
        <time>2020-06-18T08:48:53Z</time>
      </trkpt>
      <trkpt lat="49.74708" lon="0.51361">
        <ele>62.3</ele>
        <time>2020-06-18T08:48:54Z</time>
      </trkpt>
      <trkpt lat="49.7471" lon="0.51366">
        <ele>62.6</ele>
        <time>2020-06-18T08:48:55Z</time>
      </trkpt>
      <trkpt lat="49.74711" lon="0.51368">
        <ele>62.7</ele>
        <time>2020-06-18T08:48:56Z</time>
      </trkpt>
      <trkpt lat="49.74712" lon="0.51371">
        <ele>62.9</ele>
        <time>2020-06-18T08:48:57Z</time>
      </trkpt>
      <trkpt lat="49.74712" lon="0.51372">
        <ele>63</ele>
        <time>2020-06-18T08:48:58Z</time>
      </trkpt>
      <trkpt lat="49.74712" lon="0.51373">
        <ele>63</ele>
        <time>2020-06-18T08:48:59Z</time>
      </trkpt>
      <trkpt lat="49.74714" lon="0.51377">
        <ele>63.3</ele>
        <time>2020-06-18T08:49:00Z</time>
      </trkpt>
      <trkpt lat="49.74716" lon="0.51382">
        <ele>63.6</ele>
        <time>2020-06-18T08:49:01Z</time>
      </trkpt>
      <trkpt lat="49.74716" lon="0.51383">
        <ele>63.7</ele>
        <time>2020-06-18T08:49:02Z</time>
      </trkpt>
      <trkpt lat="49.74718" lon="0.51387">
        <ele>63.9</ele>
        <time>2020-06-18T08:49:03Z</time>
      </trkpt>
      <trkpt lat="49.74721" lon="0.51391">
        <ele>64.2</ele>
        <time>2020-06-18T08:49:04Z</time>
      </trkpt>
      <trkpt lat="49.74723" lon="0.51395">
        <ele>64.5</ele>
        <time>2020-06-18T08:49:05Z</time>
      </trkpt>
      <trkpt lat="49.74726" lon="0.51399">
        <ele>64.8</ele>
        <time>2020-06-18T08:49:06Z</time>
      </trkpt>
      <trkpt lat="49.74728" lon="0.51402">
        <ele>65.1</ele>
        <time>2020-06-18T08:49:07Z</time>
      </trkpt>
      <trkpt lat="49.74729" lon="0.51406">
        <ele>65.3</ele>
        <time>2020-06-18T08:49:08Z</time>
      </trkpt>
      <trkpt lat="49.74731" lon="0.51411">
        <ele>65.6</ele>
        <time>2020-06-18T08:49:09Z</time>
      </trkpt>
      <trkpt lat="49.74732" lon="0.51412">
        <ele>65.7</ele>
        <time>2020-06-18T08:49:10Z</time>
      </trkpt>
      <trkpt lat="49.74734" lon="0.51416">
        <ele>65.9</ele>
        <time>2020-06-18T08:49:11Z</time>
      </trkpt>
      <trkpt lat="49.74737" lon="0.51419">
        <ele>66.2</ele>
        <time>2020-06-18T08:49:12Z</time>
      </trkpt>
      <trkpt lat="49.74739" lon="0.51423">
        <ele>66.4</ele>
        <time>2020-06-18T08:49:13Z</time>
      </trkpt>
      <trkpt lat="49.74741" lon="0.51426">
        <ele>66.6</ele>
        <time>2020-06-18T08:49:14Z</time>
      </trkpt>
      <trkpt lat="49.74744" lon="0.5143">
        <ele>66.9</ele>
        <time>2020-06-18T08:49:15Z</time>
      </trkpt>
      <trkpt lat="49.74746" lon="0.51431">
        <ele>67</ele>
        <time>2020-06-18T08:49:16Z</time>
      </trkpt>
      <trkpt lat="49.74749" lon="0.51434">
        <ele>67.2</ele>
        <time>2020-06-18T08:49:17Z</time>
      </trkpt>
      <trkpt lat="49.7475" lon="0.51434">
        <ele>67.3</ele>
        <time>2020-06-18T08:49:18Z</time>
      </trkpt>
      <trkpt lat="49.74753" lon="0.51436">
        <ele>67.5</ele>
        <time>2020-06-18T08:49:19Z</time>
      </trkpt>
      <trkpt lat="49.74754" lon="0.51437">
        <ele>67.6</ele>
        <time>2020-06-18T08:49:20Z</time>
      </trkpt>
      <trkpt lat="49.74757" lon="0.51439">
        <ele>67.8</ele>
        <time>2020-06-18T08:49:21Z</time>
      </trkpt>
      <trkpt lat="49.7476" lon="0.51441">
        <ele>68</ele>
        <time>2020-06-18T08:49:22Z</time>
      </trkpt>
      <trkpt lat="49.74761" lon="0.51443">
        <ele>68</ele>
        <time>2020-06-18T08:49:23Z</time>
      </trkpt>
      <trkpt lat="49.74763" lon="0.51445">
        <ele>68.2</ele>
        <time>2020-06-18T08:49:24Z</time>
      </trkpt>
      <trkpt lat="49.74764" lon="0.51446">
        <ele>68.3</ele>
        <time>2020-06-18T08:49:25Z</time>
      </trkpt>
      <trkpt lat="49.74766" lon="0.51448">
        <ele>68.4</ele>
        <time>2020-06-18T08:49:26Z</time>
      </trkpt>
      <trkpt lat="49.74767" lon="0.51449">
        <ele>68.4</ele>
        <time>2020-06-18T08:49:27Z</time>
      </trkpt>
      <trkpt lat="49.7477" lon="0.51452">
        <ele>68.6</ele>
        <time>2020-06-18T08:49:28Z</time>
      </trkpt>
      <trkpt lat="49.74771" lon="0.51453">
        <ele>68.7</ele>
        <time>2020-06-18T08:49:29Z</time>
      </trkpt>
      <trkpt lat="49.74774" lon="0.51455">
        <ele>68.8</ele>
        <time>2020-06-18T08:49:30Z</time>
      </trkpt>
      <trkpt lat="49.74777" lon="0.51458">
        <ele>69</ele>
        <time>2020-06-18T08:49:31Z</time>
      </trkpt>
      <trkpt lat="49.74781" lon="0.51461">
        <ele>69.2</ele>
        <time>2020-06-18T08:49:32Z</time>
      </trkpt>
      <trkpt lat="49.74783" lon="0.51463">
        <ele>69.4</ele>
        <time>2020-06-18T08:49:33Z</time>
      </trkpt>
      <trkpt lat="49.74786" lon="0.51467">
        <ele>69.5</ele>
        <time>2020-06-18T08:49:34Z</time>
      </trkpt>
      <trkpt lat="49.7479" lon="0.51471">
        <ele>69.8</ele>
        <time>2020-06-18T08:49:35Z</time>
      </trkpt>
      <trkpt lat="49.74794" lon="0.51474">
        <ele>70</ele>
        <time>2020-06-18T08:49:36Z</time>
      </trkpt>
      <trkpt lat="49.74798" lon="0.51478">
        <ele>70.2</ele>
        <time>2020-06-18T08:49:37Z</time>
      </trkpt>
      <trkpt lat="49.748" lon="0.5148">
        <ele>70.3</ele>
        <time>2020-06-18T08:49:38Z</time>
      </trkpt>
      <trkpt lat="49.74804" lon="0.51482">
        <ele>70.5</ele>
        <time>2020-06-18T08:49:39Z</time>
      </trkpt>
      <trkpt lat="49.74805" lon="0.51483">
        <ele>70.5</ele>
        <time>2020-06-18T08:49:40Z</time>
      </trkpt>
      <trkpt lat="49.74808" lon="0.51485">
        <ele>70.7</ele>
        <time>2020-06-18T08:49:41Z</time>
      </trkpt>
      <trkpt lat="49.74809" lon="0.51485">
        <ele>70.7</ele>
        <time>2020-06-18T08:49:42Z</time>
      </trkpt>
      <trkpt lat="49.74812" lon="0.51489">
        <ele>70.9</ele>
        <time>2020-06-18T08:49:43Z</time>
      </trkpt>
      <trkpt lat="49.74813" lon="0.51491">
        <ele>71</ele>
        <time>2020-06-18T08:49:44Z</time>
      </trkpt>
      <trkpt lat="49.74816" lon="0.51494">
        <ele>71.1</ele>
        <time>2020-06-18T08:49:45Z</time>
      </trkpt>
      <trkpt lat="49.74819" lon="0.51497">
        <ele>71.3</ele>
        <time>2020-06-18T08:49:46Z</time>
      </trkpt>
      <trkpt lat="49.74823" lon="0.51501">
        <ele>71.5</ele>
        <time>2020-06-18T08:49:47Z</time>
      </trkpt>
      <trkpt lat="49.74826" lon="0.51504">
        <ele>71.6</ele>
        <time>2020-06-18T08:49:48Z</time>
      </trkpt>
      <trkpt lat="49.74826" lon="0.51505">
        <ele>71.7</ele>
        <time>2020-06-18T08:49:49Z</time>
      </trkpt>
      <trkpt lat="49.74829" lon="0.51507">
        <ele>71.8</ele>
        <time>2020-06-18T08:49:50Z</time>
      </trkpt>
      <trkpt lat="49.74832" lon="0.5151">
        <ele>71.9</ele>
        <time>2020-06-18T08:49:51Z</time>
      </trkpt>
      <trkpt lat="49.74834" lon="0.51512">
        <ele>72.1</ele>
        <time>2020-06-18T08:49:52Z</time>
      </trkpt>
      <trkpt lat="49.74838" lon="0.51516">
        <ele>72.2</ele>
        <time>2020-06-18T08:49:53Z</time>
      </trkpt>
      <trkpt lat="49.74839" lon="0.51517">
        <ele>72.3</ele>
        <time>2020-06-18T08:49:54Z</time>
      </trkpt>
      <trkpt lat="49.74843" lon="0.5152">
        <ele>72.5</ele>
        <time>2020-06-18T08:49:55Z</time>
      </trkpt>
      <trkpt lat="49.74843" lon="0.5152">
        <ele>72.5</ele>
        <time>2020-06-18T08:49:56Z</time>
      </trkpt>
      <trkpt lat="49.74847" lon="0.51522">
        <ele>72.7</ele>
        <time>2020-06-18T08:49:57Z</time>
      </trkpt>
      <trkpt lat="49.74851" lon="0.51526">
        <ele>72.9</ele>
        <time>2020-06-18T08:49:58Z</time>
      </trkpt>
      <trkpt lat="49.74852" lon="0.51527">
        <ele>73</ele>
        <time>2020-06-18T08:49:59Z</time>
      </trkpt>
      <trkpt lat="49.74855" lon="0.51529">
        <ele>73.1</ele>
        <time>2020-06-18T08:50:00Z</time>
      </trkpt>
      <trkpt lat="49.74858" lon="0.51532">
        <ele>73.3</ele>
        <time>2020-06-18T08:50:01Z</time>
      </trkpt>
      <trkpt lat="49.74861" lon="0.51536">
        <ele>73.5</ele>
        <time>2020-06-18T08:50:02Z</time>
      </trkpt>
      <trkpt lat="49.74865" lon="0.51538">
        <ele>73.6</ele>
        <time>2020-06-18T08:50:03Z</time>
      </trkpt>
      <trkpt lat="49.74868" lon="0.51541">
        <ele>73.8</ele>
        <time>2020-06-18T08:50:04Z</time>
      </trkpt>
      <trkpt lat="49.74871" lon="0.51543">
        <ele>74</ele>
        <time>2020-06-18T08:50:05Z</time>
      </trkpt>
      <trkpt lat="49.74873" lon="0.51544">
        <ele>74</ele>
        <time>2020-06-18T08:50:06Z</time>
      </trkpt>
      <trkpt lat="49.74876" lon="0.51547">
        <ele>74.2</ele>
        <time>2020-06-18T08:50:07Z</time>
      </trkpt>
      <trkpt lat="49.74879" lon="0.51549">
        <ele>74.4</ele>
        <time>2020-06-18T08:50:08Z</time>
      </trkpt>
      <trkpt lat="49.74882" lon="0.51551">
        <ele>74.5</ele>
        <time>2020-06-18T08:50:09Z</time>
      </trkpt>
      <trkpt lat="49.74886" lon="0.51553">
        <ele>74.7</ele>
        <time>2020-06-18T08:50:10Z</time>
      </trkpt>
      <trkpt lat="49.7489" lon="0.51555">
        <ele>74.9</ele>
        <time>2020-06-18T08:50:11Z</time>
      </trkpt>
      <trkpt lat="49.74893" lon="0.51558">
        <ele>75.1</ele>
        <time>2020-06-18T08:50:12Z</time>
      </trkpt>
      <trkpt lat="49.74895" lon="0.51561">
        <ele>75.2</ele>
        <time>2020-06-18T08:50:13Z</time>
      </trkpt>
      <trkpt lat="49.74898" lon="0.51563">
        <ele>75.4</ele>
        <time>2020-06-18T08:50:14Z</time>
      </trkpt>
      <trkpt lat="49.74902" lon="0.51566">
        <ele>75.6</ele>
        <time>2020-06-18T08:50:15Z</time>
      </trkpt>
      <trkpt lat="49.74905" lon="0.5157">
        <ele>75.8</ele>
        <time>2020-06-18T08:50:16Z</time>
      </trkpt>
      <trkpt lat="49.74909" lon="0.51572">
        <ele>76</ele>
        <time>2020-06-18T08:50:17Z</time>
      </trkpt>
      <trkpt lat="49.74913" lon="0.51575">
        <ele>76.3</ele>
        <time>2020-06-18T08:50:18Z</time>
      </trkpt>
      <trkpt lat="49.74919" lon="0.5158">
        <ele>76.6</ele>
        <time>2020-06-18T08:50:19Z</time>
      </trkpt>
      <trkpt lat="49.74924" lon="0.51583">
        <ele>76.9</ele>
        <time>2020-06-18T08:50:20Z</time>
      </trkpt>
      <trkpt lat="49.74928" lon="0.51585">
        <ele>77.1</ele>
        <time>2020-06-18T08:50:21Z</time>
      </trkpt>
      <trkpt lat="49.74932" lon="0.51588">
        <ele>77.3</ele>
        <time>2020-06-18T08:50:22Z</time>
      </trkpt>
      <trkpt lat="49.74936" lon="0.51591">
        <ele>77.5</ele>
        <time>2020-06-18T08:50:23Z</time>
      </trkpt>
      <trkpt lat="49.74939" lon="0.51593">
        <ele>77.6</ele>
        <time>2020-06-18T08:50:24Z</time>
      </trkpt>
      <trkpt lat="49.74941" lon="0.51595">
        <ele>77.8</ele>
        <time>2020-06-18T08:50:25Z</time>
      </trkpt>
      <trkpt lat="49.74942" lon="0.51596">
        <ele>77.8</ele>
        <time>2020-06-18T08:50:26Z</time>
      </trkpt>
      <trkpt lat="49.74943" lon="0.51598">
        <ele>77.9</ele>
        <time>2020-06-18T08:50:27Z</time>
      </trkpt>
      <trkpt lat="49.74945" lon="0.51599">
        <ele>78</ele>
        <time>2020-06-18T08:50:28Z</time>
      </trkpt>
      <trkpt lat="49.74947" lon="0.51601">
        <ele>78.1</ele>
        <time>2020-06-18T08:50:29Z</time>
      </trkpt>
      <trkpt lat="49.74948" lon="0.51602">
        <ele>78.2</ele>
        <time>2020-06-18T08:50:30Z</time>
      </trkpt>
      <trkpt lat="49.7495" lon="0.51605">
        <ele>78.3</ele>
        <time>2020-06-18T08:50:31Z</time>
      </trkpt>
      <trkpt lat="49.74953" lon="0.51608">
        <ele>78.5</ele>
        <time>2020-06-18T08:50:32Z</time>
      </trkpt>
      <trkpt lat="49.74955" lon="0.5161">
        <ele>78.7</ele>
        <time>2020-06-18T08:50:33Z</time>
      </trkpt>
      <trkpt lat="49.74958" lon="0.51611">
        <ele>78.8</ele>
        <time>2020-06-18T08:50:34Z</time>
      </trkpt>
      <trkpt lat="49.7496" lon="0.51612">
        <ele>78.9</ele>
        <time>2020-06-18T08:50:35Z</time>
      </trkpt>
      <trkpt lat="49.74963" lon="0.51614">
        <ele>79</ele>
        <time>2020-06-18T08:50:36Z</time>
      </trkpt>
      <trkpt lat="49.74966" lon="0.51615">
        <ele>79.2</ele>
        <time>2020-06-18T08:50:37Z</time>
      </trkpt>
      <trkpt lat="49.74971" lon="0.51616">
        <ele>79.4</ele>
        <time>2020-06-18T08:50:38Z</time>
      </trkpt>
      <trkpt lat="49.74973" lon="0.51616">
        <ele>79.5</ele>
        <time>2020-06-18T08:50:39Z</time>
      </trkpt>
      <trkpt lat="49.74977" lon="0.51615">
        <ele>79.7</ele>
        <time>2020-06-18T08:50:40Z</time>
      </trkpt>
      <trkpt lat="49.74982" lon="0.51615">
        <ele>79.9</ele>
        <time>2020-06-18T08:50:41Z</time>
      </trkpt>
      <trkpt lat="49.74987" lon="0.51616">
        <ele>80.1</ele>
        <time>2020-06-18T08:50:42Z</time>
      </trkpt>
      <trkpt lat="49.74989" lon="0.51615">
        <ele>80.2</ele>
        <time>2020-06-18T08:50:43Z</time>
      </trkpt>
      <trkpt lat="49.74994" lon="0.51613">
        <ele>80.4</ele>
        <time>2020-06-18T08:50:44Z</time>
      </trkpt>
      <trkpt lat="49.74997" lon="0.51612">
        <ele>80.5</ele>
        <time>2020-06-18T08:50:45Z</time>
      </trkpt>
      <trkpt lat="49.75" lon="0.51611">
        <ele>80.7</ele>
        <time>2020-06-18T08:50:46Z</time>
      </trkpt>
      <trkpt lat="49.75003" lon="0.51612">
        <ele>80.8</ele>
        <time>2020-06-18T08:50:47Z</time>
      </trkpt>
      <trkpt lat="49.75006" lon="0.51612">
        <ele>80.9</ele>
        <time>2020-06-18T08:50:48Z</time>
      </trkpt>
      <trkpt lat="49.75006" lon="0.51612">
        <ele>81</ele>
        <time>2020-06-18T08:50:49Z</time>
      </trkpt>
      <trkpt lat="49.75007" lon="0.51612">
        <ele>81</ele>
        <time>2020-06-18T08:50:50Z</time>
      </trkpt>
      <trkpt lat="49.75009" lon="0.51611">
        <ele>81.1</ele>
        <time>2020-06-18T08:50:51Z</time>
      </trkpt>
      <trkpt lat="49.75013" lon="0.51608">
        <ele>81.4</ele>
        <time>2020-06-18T08:50:52Z</time>
      </trkpt>
      <trkpt lat="49.75014" lon="0.51607">
        <ele>81.4</ele>
        <time>2020-06-18T08:50:53Z</time>
      </trkpt>
      <trkpt lat="49.75017" lon="0.51607">
        <ele>81.6</ele>
        <time>2020-06-18T08:50:54Z</time>
      </trkpt>
      <trkpt lat="49.75022" lon="0.51606">
        <ele>81.9</ele>
        <time>2020-06-18T08:50:55Z</time>
      </trkpt>
      <trkpt lat="49.75028" lon="0.51605">
        <ele>82.2</ele>
        <time>2020-06-18T08:50:56Z</time>
      </trkpt>
      <trkpt lat="49.75031" lon="0.51605">
        <ele>82.4</ele>
        <time>2020-06-18T08:50:57Z</time>
      </trkpt>
      <trkpt lat="49.75034" lon="0.51606">
        <ele>82.5</ele>
        <time>2020-06-18T08:50:58Z</time>
      </trkpt>
      <trkpt lat="49.75039" lon="0.51606">
        <ele>82.8</ele>
        <time>2020-06-18T08:50:59Z</time>
      </trkpt>
      <trkpt lat="49.75041" lon="0.51607">
        <ele>83</ele>
        <time>2020-06-18T08:51:00Z</time>
      </trkpt>
      <trkpt lat="49.75045" lon="0.51606">
        <ele>83.2</ele>
        <time>2020-06-18T08:51:01Z</time>
      </trkpt>
      <trkpt lat="49.75046" lon="0.51605">
        <ele>83.3</ele>
        <time>2020-06-18T08:51:02Z</time>
      </trkpt>
      <trkpt lat="49.75049" lon="0.51604">
        <ele>83.5</ele>
        <time>2020-06-18T08:51:03Z</time>
      </trkpt>
      <trkpt lat="49.75051" lon="0.51603">
        <ele>83.6</ele>
        <time>2020-06-18T08:51:04Z</time>
      </trkpt>
      <trkpt lat="49.75054" lon="0.51602">
        <ele>83.8</ele>
        <time>2020-06-18T08:51:05Z</time>
      </trkpt>
      <trkpt lat="49.75057" lon="0.51601">
        <ele>84</ele>
        <time>2020-06-18T08:51:06Z</time>
      </trkpt>
      <trkpt lat="49.75061" lon="0.516">
        <ele>84.3</ele>
        <time>2020-06-18T08:51:07Z</time>
      </trkpt>
      <trkpt lat="49.75064" lon="0.51598">
        <ele>84.5</ele>
        <time>2020-06-18T08:51:08Z</time>
      </trkpt>
      <trkpt lat="49.75066" lon="0.51598">
        <ele>84.6</ele>
        <time>2020-06-18T08:51:09Z</time>
      </trkpt>
      <trkpt lat="49.7507" lon="0.51596">
        <ele>84.8</ele>
        <time>2020-06-18T08:51:10Z</time>
      </trkpt>
      <trkpt lat="49.75072" lon="0.51596">
        <ele>84.9</ele>
        <time>2020-06-18T08:51:11Z</time>
      </trkpt>
      <trkpt lat="49.75078" lon="0.51598">
        <ele>85.3</ele>
        <time>2020-06-18T08:51:12Z</time>
      </trkpt>
      <trkpt lat="49.75083" lon="0.516">
        <ele>85.6</ele>
        <time>2020-06-18T08:51:13Z</time>
      </trkpt>
      <trkpt lat="49.75088" lon="0.51603">
        <ele>87</ele>
        <time>2020-06-18T08:51:14Z</time>
      </trkpt>
      <trkpt lat="49.75091" lon="0.51607">
        <ele>87.5</ele>
        <time>2020-06-18T08:51:15Z</time>
      </trkpt>
      <trkpt lat="49.75094" lon="0.51611">
        <ele>88</ele>
        <time>2020-06-18T08:51:16Z</time>
      </trkpt>
      <trkpt lat="49.75097" lon="0.51616">
        <ele>88.4</ele>
        <time>2020-06-18T08:51:17Z</time>
      </trkpt>
      <trkpt lat="49.751" lon="0.5162">
        <ele>88.8</ele>
        <time>2020-06-18T08:51:18Z</time>
      </trkpt>
      <trkpt lat="49.75103" lon="0.51624">
        <ele>89.2</ele>
        <time>2020-06-18T08:51:19Z</time>
      </trkpt>
      <trkpt lat="49.75105" lon="0.51628">
        <ele>89.6</ele>
        <time>2020-06-18T08:51:20Z</time>
      </trkpt>
      <trkpt lat="49.75106" lon="0.5163">
        <ele>89.7</ele>
        <time>2020-06-18T08:51:21Z</time>
      </trkpt>
      <trkpt lat="49.75108" lon="0.51634">
        <ele>90</ele>
        <time>2020-06-18T08:51:22Z</time>
      </trkpt>
      <trkpt lat="49.7511" lon="0.51636">
        <ele>90.3</ele>
        <time>2020-06-18T08:51:23Z</time>
      </trkpt>
      <trkpt lat="49.75111" lon="0.51638">
        <ele>90.4</ele>
        <time>2020-06-18T08:51:24Z</time>
      </trkpt>
      <trkpt lat="49.75113" lon="0.51641">
        <ele>90.7</ele>
        <time>2020-06-18T08:51:25Z</time>
      </trkpt>
      <trkpt lat="49.75114" lon="0.51642">
        <ele>90.8</ele>
        <time>2020-06-18T08:51:26Z</time>
      </trkpt>
      <trkpt lat="49.75115" lon="0.51645">
        <ele>91</ele>
        <time>2020-06-18T08:51:27Z</time>
      </trkpt>
      <trkpt lat="49.75115" lon="0.51647">
        <ele>91.2</ele>
        <time>2020-06-18T08:51:28Z</time>
      </trkpt>
      <trkpt lat="49.75116" lon="0.5165">
        <ele>91.3</ele>
        <time>2020-06-18T08:51:29Z</time>
      </trkpt>
      <trkpt lat="49.75116" lon="0.51652">
        <ele>91.5</ele>
        <time>2020-06-18T08:51:30Z</time>
      </trkpt>
      <trkpt lat="49.75117" lon="0.51654">
        <ele>91.6</ele>
        <time>2020-06-18T08:51:31Z</time>
      </trkpt>
      <trkpt lat="49.75118" lon="0.51657">
        <ele>91.8</ele>
        <time>2020-06-18T08:51:32Z</time>
      </trkpt>
      <trkpt lat="49.75119" lon="0.51662">
        <ele>92.2</ele>
        <time>2020-06-18T08:51:33Z</time>
      </trkpt>
      <trkpt lat="49.75119" lon="0.51664">
        <ele>92.4</ele>
        <time>2020-06-18T08:51:34Z</time>
      </trkpt>
      <trkpt lat="49.7512" lon="0.51669">
        <ele>92.8</ele>
        <time>2020-06-18T08:51:35Z</time>
      </trkpt>
      <trkpt lat="49.7512" lon="0.51674">
        <ele>93.2</ele>
        <time>2020-06-18T08:51:36Z</time>
      </trkpt>
      <trkpt lat="49.75122" lon="0.51679">
        <ele>93.6</ele>
        <time>2020-06-18T08:51:37Z</time>
      </trkpt>
      <trkpt lat="49.75122" lon="0.51681">
        <ele>93.8</ele>
        <time>2020-06-18T08:51:38Z</time>
      </trkpt>
      <trkpt lat="49.75124" lon="0.51684">
        <ele>94.1</ele>
        <time>2020-06-18T08:51:39Z</time>
      </trkpt>
      <trkpt lat="49.75124" lon="0.51686">
        <ele>94.2</ele>
        <time>2020-06-18T08:51:40Z</time>
      </trkpt>
      <trkpt lat="49.75124" lon="0.5169">
        <ele>94.6</ele>
        <time>2020-06-18T08:51:41Z</time>
      </trkpt>
      <trkpt lat="49.75124" lon="0.51692">
        <ele>94.7</ele>
        <time>2020-06-18T08:51:42Z</time>
      </trkpt>
      <trkpt lat="49.75124" lon="0.51697">
        <ele>95.1</ele>
        <time>2020-06-18T08:51:43Z</time>
      </trkpt>
      <trkpt lat="49.75124" lon="0.51699">
        <ele>95.3</ele>
        <time>2020-06-18T08:51:44Z</time>
      </trkpt>
      <trkpt lat="49.75124" lon="0.51704">
        <ele>95.7</ele>
        <time>2020-06-18T08:51:45Z</time>
      </trkpt>
      <trkpt lat="49.75123" lon="0.51706">
        <ele>95.8</ele>
        <time>2020-06-18T08:51:46Z</time>
      </trkpt>
      <trkpt lat="49.75123" lon="0.5171">
        <ele>96.2</ele>
        <time>2020-06-18T08:51:47Z</time>
      </trkpt>
      <trkpt lat="49.75122" lon="0.51716">
        <ele>96.7</ele>
        <time>2020-06-18T08:51:48Z</time>
      </trkpt>
      <trkpt lat="49.75122" lon="0.51717">
        <ele>96.9</ele>
        <time>2020-06-18T08:51:49Z</time>
      </trkpt>
      <trkpt lat="49.75121" lon="0.51722">
        <ele>97.3</ele>
        <time>2020-06-18T08:51:50Z</time>
      </trkpt>
      <trkpt lat="49.75121" lon="0.51724">
        <ele>97.4</ele>
        <time>2020-06-18T08:51:51Z</time>
      </trkpt>
      <trkpt lat="49.7512" lon="0.5173">
        <ele>97.9</ele>
        <time>2020-06-18T08:51:52Z</time>
      </trkpt>
      <trkpt lat="49.7512" lon="0.51732">
        <ele>98.1</ele>
        <time>2020-06-18T08:51:53Z</time>
      </trkpt>
      <trkpt lat="49.7512" lon="0.51737">
        <ele>98.6</ele>
        <time>2020-06-18T08:51:54Z</time>
      </trkpt>
      <trkpt lat="49.75121" lon="0.51739">
        <ele>98.7</ele>
        <time>2020-06-18T08:51:55Z</time>
      </trkpt>
      <trkpt lat="49.75121" lon="0.51744">
        <ele>99.1</ele>
        <time>2020-06-18T08:51:56Z</time>
      </trkpt>
      <trkpt lat="49.7512" lon="0.51745">
        <ele>99.2</ele>
        <time>2020-06-18T08:51:57Z</time>
      </trkpt>
      <trkpt lat="49.75121" lon="0.51751">
        <ele>99.6</ele>
        <time>2020-06-18T08:51:58Z</time>
      </trkpt>
      <trkpt lat="49.75121" lon="0.51753">
        <ele>99.7</ele>
        <time>2020-06-18T08:51:59Z</time>
      </trkpt>
      <trkpt lat="49.75122" lon="0.51756">
        <ele>99.9</ele>
        <time>2020-06-18T08:52:00Z</time>
      </trkpt>
      <trkpt lat="49.75123" lon="0.51758">
        <ele>100</ele>
        <time>2020-06-18T08:52:01Z</time>
      </trkpt>
      <trkpt lat="49.75123" lon="0.51762">
        <ele>100.3</ele>
        <time>2020-06-18T08:52:02Z</time>
      </trkpt>
      <trkpt lat="49.75124" lon="0.51763">
        <ele>100.4</ele>
        <time>2020-06-18T08:52:03Z</time>
      </trkpt>
      <trkpt lat="49.75124" lon="0.51769">
        <ele>100.8</ele>
        <time>2020-06-18T08:52:04Z</time>
      </trkpt>
      <trkpt lat="49.75124" lon="0.5177">
        <ele>100.9</ele>
        <time>2020-06-18T08:52:05Z</time>
      </trkpt>
      <trkpt lat="49.75124" lon="0.51775">
        <ele>101.2</ele>
        <time>2020-06-18T08:52:06Z</time>
      </trkpt>
      <trkpt lat="49.75124" lon="0.51777">
        <ele>101.3</ele>
        <time>2020-06-18T08:52:07Z</time>
      </trkpt>
      <trkpt lat="49.75124" lon="0.51782">
        <ele>101.6</ele>
        <time>2020-06-18T08:52:08Z</time>
      </trkpt>
      <trkpt lat="49.75124" lon="0.51783">
        <ele>101.8</ele>
        <time>2020-06-18T08:52:09Z</time>
      </trkpt>
      <trkpt lat="49.75123" lon="0.51789">
        <ele>102.2</ele>
        <time>2020-06-18T08:52:10Z</time>
      </trkpt>
      <trkpt lat="49.75123" lon="0.51791">
        <ele>102.3</ele>
        <time>2020-06-18T08:52:11Z</time>
      </trkpt>
      <trkpt lat="49.75123" lon="0.51796">
        <ele>102.6</ele>
        <time>2020-06-18T08:52:12Z</time>
      </trkpt>
      <trkpt lat="49.75123" lon="0.51797">
        <ele>102.7</ele>
        <time>2020-06-18T08:52:13Z</time>
      </trkpt>
      <trkpt lat="49.75123" lon="0.51801">
        <ele>103.1</ele>
        <time>2020-06-18T08:52:14Z</time>
      </trkpt>
      <trkpt lat="49.75123" lon="0.51803">
        <ele>103.2</ele>
        <time>2020-06-18T08:52:15Z</time>
      </trkpt>
      <trkpt lat="49.75124" lon="0.51805">
        <ele>103.4</ele>
        <time>2020-06-18T08:52:16Z</time>
      </trkpt>
      <trkpt lat="49.75124" lon="0.51808">
        <ele>103.6</ele>
        <time>2020-06-18T08:52:17Z</time>
      </trkpt>
      <trkpt lat="49.75124" lon="0.51812">
        <ele>103.9</ele>
        <time>2020-06-18T08:52:18Z</time>
      </trkpt>
      <trkpt lat="49.75124" lon="0.51814">
        <ele>104.1</ele>
        <time>2020-06-18T08:52:19Z</time>
      </trkpt>
      <trkpt lat="49.75125" lon="0.51819">
        <ele>104.5</ele>
        <time>2020-06-18T08:52:20Z</time>
      </trkpt>
      <trkpt lat="49.75125" lon="0.5182">
        <ele>104.6</ele>
        <time>2020-06-18T08:52:21Z</time>
      </trkpt>
      <trkpt lat="49.75125" lon="0.51826">
        <ele>105.1</ele>
        <time>2020-06-18T08:52:22Z</time>
      </trkpt>
      <trkpt lat="49.75125" lon="0.51828">
        <ele>105.3</ele>
        <time>2020-06-18T08:52:23Z</time>
      </trkpt>
      <trkpt lat="49.75125" lon="0.51832">
        <ele>105.7</ele>
        <time>2020-06-18T08:52:24Z</time>
      </trkpt>
      <trkpt lat="49.75125" lon="0.51834">
        <ele>105.8</ele>
        <time>2020-06-18T08:52:25Z</time>
      </trkpt>
      <trkpt lat="49.75125" lon="0.51838">
        <ele>106.2</ele>
        <time>2020-06-18T08:52:26Z</time>
      </trkpt>
      <trkpt lat="49.75124" lon="0.51843">
        <ele>106.5</ele>
        <time>2020-06-18T08:52:27Z</time>
      </trkpt>
      <trkpt lat="49.75124" lon="0.51844">
        <ele>106.7</ele>
        <time>2020-06-18T08:52:28Z</time>
      </trkpt>
      <trkpt lat="49.75122" lon="0.5185">
        <ele>107.1</ele>
        <time>2020-06-18T08:52:29Z</time>
      </trkpt>
      <trkpt lat="49.75122" lon="0.51852">
        <ele>107.2</ele>
        <time>2020-06-18T08:52:30Z</time>
      </trkpt>
      <trkpt lat="49.75121" lon="0.51856">
        <ele>107.6</ele>
        <time>2020-06-18T08:52:31Z</time>
      </trkpt>
      <trkpt lat="49.75121" lon="0.51858">
        <ele>107.8</ele>
        <time>2020-06-18T08:52:32Z</time>
      </trkpt>
      <trkpt lat="49.7512" lon="0.51862">
        <ele>108.1</ele>
        <time>2020-06-18T08:52:33Z</time>
      </trkpt>
      <trkpt lat="49.7512" lon="0.51864">
        <ele>108.2</ele>
        <time>2020-06-18T08:52:34Z</time>
      </trkpt>
      <trkpt lat="49.75119" lon="0.51868">
        <ele>108.6</ele>
        <time>2020-06-18T08:52:35Z</time>
      </trkpt>
      <trkpt lat="49.75118" lon="0.5187">
        <ele>108.8</ele>
        <time>2020-06-18T08:52:36Z</time>
      </trkpt>
      <trkpt lat="49.75117" lon="0.51873">
        <ele>109</ele>
        <time>2020-06-18T08:52:37Z</time>
      </trkpt>
      <trkpt lat="49.75117" lon="0.51875">
        <ele>109.2</ele>
        <time>2020-06-18T08:52:38Z</time>
      </trkpt>
      <trkpt lat="49.75116" lon="0.51878">
        <ele>109.5</ele>
        <time>2020-06-18T08:52:39Z</time>
      </trkpt>
      <trkpt lat="49.75116" lon="0.5188">
        <ele>109.6</ele>
        <time>2020-06-18T08:52:40Z</time>
      </trkpt>
      <trkpt lat="49.75116" lon="0.51883">
        <ele>109.8</ele>
        <time>2020-06-18T08:52:41Z</time>
      </trkpt>
      <trkpt lat="49.75116" lon="0.51886">
        <ele>110.1</ele>
        <time>2020-06-18T08:52:42Z</time>
      </trkpt>
      <trkpt lat="49.75115" lon="0.51889">
        <ele>110.3</ele>
        <time>2020-06-18T08:52:43Z</time>
      </trkpt>
      <trkpt lat="49.75115" lon="0.51891">
        <ele>110.5</ele>
        <time>2020-06-18T08:52:44Z</time>
      </trkpt>
      <trkpt lat="49.75115" lon="0.51897">
        <ele>111</ele>
        <time>2020-06-18T08:52:45Z</time>
      </trkpt>
      <trkpt lat="49.75115" lon="0.51898">
        <ele>111.1</ele>
        <time>2020-06-18T08:52:46Z</time>
      </trkpt>
      <trkpt lat="49.75114" lon="0.51902">
        <ele>111.4</ele>
        <time>2020-06-18T08:52:47Z</time>
      </trkpt>
      <trkpt lat="49.75114" lon="0.51904">
        <ele>111.6</ele>
        <time>2020-06-18T08:52:48Z</time>
      </trkpt>
      <trkpt lat="49.75113" lon="0.51909">
        <ele>112</ele>
        <time>2020-06-18T08:52:49Z</time>
      </trkpt>
      <trkpt lat="49.75113" lon="0.5191">
        <ele>112.1</ele>
        <time>2020-06-18T08:52:50Z</time>
      </trkpt>
      <trkpt lat="49.75113" lon="0.51915">
        <ele>112.4</ele>
        <time>2020-06-18T08:52:51Z</time>
      </trkpt>
      <trkpt lat="49.75114" lon="0.51917">
        <ele>112.6</ele>
        <time>2020-06-18T08:52:52Z</time>
      </trkpt>
      <trkpt lat="49.75114" lon="0.51921">
        <ele>112.9</ele>
        <time>2020-06-18T08:52:53Z</time>
      </trkpt>
      <trkpt lat="49.75114" lon="0.51927">
        <ele>113.3</ele>
        <time>2020-06-18T08:52:54Z</time>
      </trkpt>
      <trkpt lat="49.75113" lon="0.51929">
        <ele>113.5</ele>
        <time>2020-06-18T08:52:55Z</time>
      </trkpt>
      <trkpt lat="49.75112" lon="0.51935">
        <ele>113.9</ele>
        <time>2020-06-18T08:52:56Z</time>
      </trkpt>
      <trkpt lat="49.75112" lon="0.51936">
        <ele>114</ele>
        <time>2020-06-18T08:52:57Z</time>
      </trkpt>
      <trkpt lat="49.75113" lon="0.51941">
        <ele>114.3</ele>
        <time>2020-06-18T08:52:58Z</time>
      </trkpt>
      <trkpt lat="49.75114" lon="0.51945">
        <ele>114.6</ele>
        <time>2020-06-18T08:52:59Z</time>
      </trkpt>
      <trkpt lat="49.75114" lon="0.51946">
        <ele>114.7</ele>
        <time>2020-06-18T08:53:00Z</time>
      </trkpt>
      <trkpt lat="49.75115" lon="0.51951">
        <ele>115</ele>
        <time>2020-06-18T08:53:01Z</time>
      </trkpt>
      <trkpt lat="49.75115" lon="0.51953">
        <ele>115.1</ele>
        <time>2020-06-18T08:53:02Z</time>
      </trkpt>
      <trkpt lat="49.75117" lon="0.51957">
        <ele>115.5</ele>
        <time>2020-06-18T08:53:03Z</time>
      </trkpt>
      <trkpt lat="49.75118" lon="0.51962">
        <ele>115.6</ele>
        <time>2020-06-18T08:53:04Z</time>
      </trkpt>
      <trkpt lat="49.75119" lon="0.51964">
        <ele>115.7</ele>
        <time>2020-06-18T08:53:05Z</time>
      </trkpt>
      <trkpt lat="49.75121" lon="0.51968">
        <ele>115.8</ele>
        <time>2020-06-18T08:53:06Z</time>
      </trkpt>
      <trkpt lat="49.75122" lon="0.51969">
        <ele>115.9</ele>
        <time>2020-06-18T08:53:07Z</time>
      </trkpt>
      <trkpt lat="49.75125" lon="0.51971">
        <ele>116</ele>
        <time>2020-06-18T08:53:08Z</time>
      </trkpt>
      <trkpt lat="49.75126" lon="0.51975">
        <ele>116</ele>
        <time>2020-06-18T08:53:09Z</time>
      </trkpt>
      <trkpt lat="49.75129" lon="0.51979">
        <ele>116.1</ele>
        <time>2020-06-18T08:53:10Z</time>
      </trkpt>
      <trkpt lat="49.7513" lon="0.51981">
        <ele>116.1</ele>
        <time>2020-06-18T08:53:11Z</time>
      </trkpt>
      <trkpt lat="49.7513" lon="0.51986">
        <ele>116.2</ele>
        <time>2020-06-18T08:53:12Z</time>
      </trkpt>
      <trkpt lat="49.75133" lon="0.5199">
        <ele>116.2</ele>
        <time>2020-06-18T08:53:13Z</time>
      </trkpt>
      <trkpt lat="49.75135" lon="0.51995">
        <ele>116.2</ele>
        <time>2020-06-18T08:53:14Z</time>
      </trkpt>
      <trkpt lat="49.75138" lon="0.51999">
        <ele>116.3</ele>
        <time>2020-06-18T08:53:15Z</time>
      </trkpt>
      <trkpt lat="49.7514" lon="0.52003">
        <ele>116.3</ele>
        <time>2020-06-18T08:53:16Z</time>
      </trkpt>
      <trkpt lat="49.75141" lon="0.52008">
        <ele>116.4</ele>
        <time>2020-06-18T08:53:17Z</time>
      </trkpt>
      <trkpt lat="49.75144" lon="0.52012">
        <ele>116.5</ele>
        <time>2020-06-18T08:53:18Z</time>
      </trkpt>
      <trkpt lat="49.75146" lon="0.52016">
        <ele>116.6</ele>
        <time>2020-06-18T08:53:19Z</time>
      </trkpt>
      <trkpt lat="49.75148" lon="0.52021">
        <ele>116.7</ele>
        <time>2020-06-18T08:53:20Z</time>
      </trkpt>
      <trkpt lat="49.7515" lon="0.52025">
        <ele>116.9</ele>
        <time>2020-06-18T08:53:21Z</time>
      </trkpt>
      <trkpt lat="49.75152" lon="0.52029">
        <ele>117.1</ele>
        <time>2020-06-18T08:53:22Z</time>
      </trkpt>
      <trkpt lat="49.75153" lon="0.52034">
        <ele>117.3</ele>
        <time>2020-06-18T08:53:23Z</time>
      </trkpt>
      <trkpt lat="49.75156" lon="0.52039">
        <ele>117.5</ele>
        <time>2020-06-18T08:53:24Z</time>
      </trkpt>
      <trkpt lat="49.75157" lon="0.52041">
        <ele>117.6</ele>
        <time>2020-06-18T08:53:25Z</time>
      </trkpt>
      <trkpt lat="49.75159" lon="0.52045">
        <ele>117.7</ele>
        <time>2020-06-18T08:53:26Z</time>
      </trkpt>
      <trkpt lat="49.75161" lon="0.52048">
        <ele>117.9</ele>
        <time>2020-06-18T08:53:27Z</time>
      </trkpt>
      <trkpt lat="49.75163" lon="0.52052">
        <ele>118.1</ele>
        <time>2020-06-18T08:53:28Z</time>
      </trkpt>
      <trkpt lat="49.75165" lon="0.52056">
        <ele>118.2</ele>
        <time>2020-06-18T08:53:29Z</time>
      </trkpt>
      <trkpt lat="49.75167" lon="0.52059">
        <ele>118.4</ele>
        <time>2020-06-18T08:53:30Z</time>
      </trkpt>
      <trkpt lat="49.75169" lon="0.52064">
        <ele>118.6</ele>
        <time>2020-06-18T08:53:31Z</time>
      </trkpt>
      <trkpt lat="49.75171" lon="0.52067">
        <ele>118.7</ele>
        <time>2020-06-18T08:53:32Z</time>
      </trkpt>
      <trkpt lat="49.75174" lon="0.52071">
        <ele>118.9</ele>
        <time>2020-06-18T08:53:33Z</time>
      </trkpt>
      <trkpt lat="49.75176" lon="0.52075">
        <ele>119</ele>
        <time>2020-06-18T08:53:34Z</time>
      </trkpt>
      <trkpt lat="49.75178" lon="0.52078">
        <ele>119.2</ele>
        <time>2020-06-18T08:53:35Z</time>
      </trkpt>
      <trkpt lat="49.7518" lon="0.52081">
        <ele>119.3</ele>
        <time>2020-06-18T08:53:36Z</time>
      </trkpt>
      <trkpt lat="49.75183" lon="0.52084">
        <ele>119.5</ele>
        <time>2020-06-18T08:53:37Z</time>
      </trkpt>
      <trkpt lat="49.75185" lon="0.52087">
        <ele>119.6</ele>
        <time>2020-06-18T08:53:38Z</time>
      </trkpt>
      <trkpt lat="49.75187" lon="0.52092">
        <ele>119.7</ele>
        <time>2020-06-18T08:53:39Z</time>
      </trkpt>
      <trkpt lat="49.75189" lon="0.52095">
        <ele>119.8</ele>
        <time>2020-06-18T08:53:40Z</time>
      </trkpt>
      <trkpt lat="49.75192" lon="0.52099">
        <ele>119.9</ele>
        <time>2020-06-18T08:53:41Z</time>
      </trkpt>
      <trkpt lat="49.75193" lon="0.52103">
        <ele>120</ele>
        <time>2020-06-18T08:53:42Z</time>
      </trkpt>
      <trkpt lat="49.75196" lon="0.52108">
        <ele>120</ele>
        <time>2020-06-18T08:53:43Z</time>
      </trkpt>
      <trkpt lat="49.75199" lon="0.52112">
        <ele>120.1</ele>
        <time>2020-06-18T08:53:44Z</time>
      </trkpt>
      <trkpt lat="49.75201" lon="0.52116">
        <ele>120.2</ele>
        <time>2020-06-18T08:53:45Z</time>
      </trkpt>
      <trkpt lat="49.75203" lon="0.5212">
        <ele>120.2</ele>
        <time>2020-06-18T08:53:46Z</time>
      </trkpt>
      <trkpt lat="49.75206" lon="0.52124">
        <ele>120.3</ele>
        <time>2020-06-18T08:53:47Z</time>
      </trkpt>
      <trkpt lat="49.75208" lon="0.52129">
        <ele>120.4</ele>
        <time>2020-06-18T08:53:48Z</time>
      </trkpt>
      <trkpt lat="49.75212" lon="0.52133">
        <ele>120.4</ele>
        <time>2020-06-18T08:53:49Z</time>
      </trkpt>
      <trkpt lat="49.75213" lon="0.52137">
        <ele>120.5</ele>
        <time>2020-06-18T08:53:50Z</time>
      </trkpt>
      <trkpt lat="49.75215" lon="0.52142">
        <ele>120.6</ele>
        <time>2020-06-18T08:53:51Z</time>
      </trkpt>
      <trkpt lat="49.75217" lon="0.52147">
        <ele>120.6</ele>
        <time>2020-06-18T08:53:52Z</time>
      </trkpt>
      <trkpt lat="49.75219" lon="0.52151">
        <ele>120.7</ele>
        <time>2020-06-18T08:53:53Z</time>
      </trkpt>
      <trkpt lat="49.75222" lon="0.52158">
        <ele>120.8</ele>
        <time>2020-06-18T08:53:54Z</time>
      </trkpt>
      <trkpt lat="49.75223" lon="0.52164">
        <ele>120.8</ele>
        <time>2020-06-18T08:53:55Z</time>
      </trkpt>
      <trkpt lat="49.75225" lon="0.5217">
        <ele>120.8</ele>
        <time>2020-06-18T08:53:56Z</time>
      </trkpt>
      <trkpt lat="49.75227" lon="0.52176">
        <ele>120.9</ele>
        <time>2020-06-18T08:53:57Z</time>
      </trkpt>
      <trkpt lat="49.75229" lon="0.52181">
        <ele>120.9</ele>
        <time>2020-06-18T08:53:58Z</time>
      </trkpt>
      <trkpt lat="49.75231" lon="0.52188">
        <ele>121</ele>
        <time>2020-06-18T08:53:59Z</time>
      </trkpt>
      <trkpt lat="49.75233" lon="0.52193">
        <ele>121.1</ele>
        <time>2020-06-18T08:54:00Z</time>
      </trkpt>
      <trkpt lat="49.75234" lon="0.52199">
        <ele>121.3</ele>
        <time>2020-06-18T08:54:01Z</time>
      </trkpt>
      <trkpt lat="49.75236" lon="0.52204">
        <ele>121.4</ele>
        <time>2020-06-18T08:54:02Z</time>
      </trkpt>
      <trkpt lat="49.75238" lon="0.5221">
        <ele>121.6</ele>
        <time>2020-06-18T08:54:03Z</time>
      </trkpt>
      <trkpt lat="49.7524" lon="0.52215">
        <ele>121.7</ele>
        <time>2020-06-18T08:54:04Z</time>
      </trkpt>
      <trkpt lat="49.75241" lon="0.52221">
        <ele>121.8</ele>
        <time>2020-06-18T08:54:05Z</time>
      </trkpt>
      <trkpt lat="49.75242" lon="0.52227">
        <ele>121.9</ele>
        <time>2020-06-18T08:54:06Z</time>
      </trkpt>
      <trkpt lat="49.75244" lon="0.52233">
        <ele>122</ele>
        <time>2020-06-18T08:54:07Z</time>
      </trkpt>
      <trkpt lat="49.75245" lon="0.52239">
        <ele>122</ele>
        <time>2020-06-18T08:54:08Z</time>
      </trkpt>
      <trkpt lat="49.75246" lon="0.52245">
        <ele>122</ele>
        <time>2020-06-18T08:54:09Z</time>
      </trkpt>
      <trkpt lat="49.75248" lon="0.5225">
        <ele>122.1</ele>
        <time>2020-06-18T08:54:10Z</time>
      </trkpt>
      <trkpt lat="49.75249" lon="0.52255">
        <ele>122.1</ele>
        <time>2020-06-18T08:54:11Z</time>
      </trkpt>
      <trkpt lat="49.75251" lon="0.5226">
        <ele>122.1</ele>
        <time>2020-06-18T08:54:12Z</time>
      </trkpt>
      <trkpt lat="49.75252" lon="0.52266">
        <ele>122.1</ele>
        <time>2020-06-18T08:54:13Z</time>
      </trkpt>
      <trkpt lat="49.75253" lon="0.52272">
        <ele>122.1</ele>
        <time>2020-06-18T08:54:14Z</time>
      </trkpt>
      <trkpt lat="49.75254" lon="0.52278">
        <ele>122.1</ele>
        <time>2020-06-18T08:54:15Z</time>
      </trkpt>
      <trkpt lat="49.75255" lon="0.52283">
        <ele>122.1</ele>
        <time>2020-06-18T08:54:16Z</time>
      </trkpt>
      <trkpt lat="49.75257" lon="0.5229">
        <ele>122.1</ele>
        <time>2020-06-18T08:54:17Z</time>
      </trkpt>
      <trkpt lat="49.75258" lon="0.52296">
        <ele>122.1</ele>
        <time>2020-06-18T08:54:18Z</time>
      </trkpt>
      <trkpt lat="49.75261" lon="0.523">
        <ele>122</ele>
        <time>2020-06-18T08:54:19Z</time>
      </trkpt>
      <trkpt lat="49.75264" lon="0.52305">
        <ele>122</ele>
        <time>2020-06-18T08:54:20Z</time>
      </trkpt>
      <trkpt lat="49.75266" lon="0.5231">
        <ele>122</ele>
        <time>2020-06-18T08:54:21Z</time>
      </trkpt>
      <trkpt lat="49.75271" lon="0.52314">
        <ele>122</ele>
        <time>2020-06-18T08:54:22Z</time>
      </trkpt>
      <trkpt lat="49.75276" lon="0.52319">
        <ele>121.9</ele>
        <time>2020-06-18T08:54:23Z</time>
      </trkpt>
      <trkpt lat="49.75282" lon="0.52323">
        <ele>121.8</ele>
        <time>2020-06-18T08:54:24Z</time>
      </trkpt>
      <trkpt lat="49.75286" lon="0.52327">
        <ele>121.7</ele>
        <time>2020-06-18T08:54:25Z</time>
      </trkpt>
      <trkpt lat="49.75292" lon="0.52331">
        <ele>121.7</ele>
        <time>2020-06-18T08:54:26Z</time>
      </trkpt>
      <trkpt lat="49.75297" lon="0.52336">
        <ele>121.6</ele>
        <time>2020-06-18T08:54:27Z</time>
      </trkpt>
      <trkpt lat="49.75302" lon="0.52342">
        <ele>121.5</ele>
        <time>2020-06-18T08:54:28Z</time>
      </trkpt>
      <trkpt lat="49.75307" lon="0.52347">
        <ele>121.4</ele>
        <time>2020-06-18T08:54:29Z</time>
      </trkpt>
      <trkpt lat="49.75312" lon="0.52351">
        <ele>121.3</ele>
        <time>2020-06-18T08:54:30Z</time>
      </trkpt>
      <trkpt lat="49.75315" lon="0.52354">
        <ele>121.2</ele>
        <time>2020-06-18T08:54:31Z</time>
      </trkpt>
      <trkpt lat="49.75318" lon="0.52356">
        <ele>121.1</ele>
        <time>2020-06-18T08:54:32Z</time>
      </trkpt>
      <trkpt lat="49.75319" lon="0.52357">
        <ele>121.1</ele>
        <time>2020-06-18T08:54:33Z</time>
      </trkpt>
      <trkpt lat="49.75322" lon="0.52359">
        <ele>119.6</ele>
        <time>2020-06-18T08:54:34Z</time>
      </trkpt>
      <trkpt lat="49.75326" lon="0.52361">
        <ele>119.5</ele>
        <time>2020-06-18T08:54:35Z</time>
      </trkpt>
      <trkpt lat="49.75329" lon="0.52363">
        <ele>119.4</ele>
        <time>2020-06-18T08:54:36Z</time>
      </trkpt>
      <trkpt lat="49.75333" lon="0.52366">
        <ele>119.3</ele>
        <time>2020-06-18T08:54:37Z</time>
      </trkpt>
      <trkpt lat="49.75338" lon="0.5237">
        <ele>119.1</ele>
        <time>2020-06-18T08:54:38Z</time>
      </trkpt>
      <trkpt lat="49.75343" lon="0.52374">
        <ele>119</ele>
        <time>2020-06-18T08:54:39Z</time>
      </trkpt>
      <trkpt lat="49.75347" lon="0.52379">
        <ele>118.8</ele>
        <time>2020-06-18T08:54:40Z</time>
      </trkpt>
      <trkpt lat="49.75352" lon="0.52385">
        <ele>118.7</ele>
        <time>2020-06-18T08:54:41Z</time>
      </trkpt>
      <trkpt lat="49.75357" lon="0.5239">
        <ele>118.5</ele>
        <time>2020-06-18T08:54:42Z</time>
      </trkpt>
      <trkpt lat="49.75362" lon="0.52395">
        <ele>118.4</ele>
        <time>2020-06-18T08:54:43Z</time>
      </trkpt>
      <trkpt lat="49.75365" lon="0.52402">
        <ele>118.2</ele>
        <time>2020-06-18T08:54:44Z</time>
      </trkpt>
      <trkpt lat="49.7537" lon="0.52407">
        <ele>118.1</ele>
        <time>2020-06-18T08:54:45Z</time>
      </trkpt>
      <trkpt lat="49.75374" lon="0.52413">
        <ele>118.1</ele>
        <time>2020-06-18T08:54:46Z</time>
      </trkpt>
      <trkpt lat="49.75378" lon="0.5242">
        <ele>118</ele>
        <time>2020-06-18T08:54:47Z</time>
      </trkpt>
      <trkpt lat="49.75382" lon="0.52427">
        <ele>118</ele>
        <time>2020-06-18T08:54:48Z</time>
      </trkpt>
      <trkpt lat="49.75386" lon="0.52433">
        <ele>118.1</ele>
        <time>2020-06-18T08:54:49Z</time>
      </trkpt>
      <trkpt lat="49.7539" lon="0.5244">
        <ele>118.1</ele>
        <time>2020-06-18T08:54:50Z</time>
      </trkpt>
      <trkpt lat="49.75393" lon="0.52447">
        <ele>118.1</ele>
        <time>2020-06-18T08:54:51Z</time>
      </trkpt>
      <trkpt lat="49.75397" lon="0.52455">
        <ele>118.2</ele>
        <time>2020-06-18T08:54:52Z</time>
      </trkpt>
      <trkpt lat="49.75401" lon="0.52462">
        <ele>118.2</ele>
        <time>2020-06-18T08:54:53Z</time>
      </trkpt>
      <trkpt lat="49.75405" lon="0.52469">
        <ele>118.2</ele>
        <time>2020-06-18T08:54:54Z</time>
      </trkpt>
      <trkpt lat="49.75408" lon="0.52476">
        <ele>118.3</ele>
        <time>2020-06-18T08:54:55Z</time>
      </trkpt>
      <trkpt lat="49.75412" lon="0.52483">
        <ele>118.3</ele>
        <time>2020-06-18T08:54:56Z</time>
      </trkpt>
      <trkpt lat="49.75415" lon="0.52489">
        <ele>118.4</ele>
        <time>2020-06-18T08:54:57Z</time>
      </trkpt>
      <trkpt lat="49.75418" lon="0.52495">
        <ele>118.4</ele>
        <time>2020-06-18T08:54:58Z</time>
      </trkpt>
      <trkpt lat="49.7542" lon="0.52501">
        <ele>118.4</ele>
        <time>2020-06-18T08:54:59Z</time>
      </trkpt>
      <trkpt lat="49.75423" lon="0.52507">
        <ele>118.5</ele>
        <time>2020-06-18T08:55:00Z</time>
      </trkpt>
      <trkpt lat="49.75426" lon="0.52514">
        <ele>118.5</ele>
        <time>2020-06-18T08:55:01Z</time>
      </trkpt>
      <trkpt lat="49.75428" lon="0.5252">
        <ele>118.6</ele>
        <time>2020-06-18T08:55:02Z</time>
      </trkpt>
      <trkpt lat="49.75432" lon="0.52526">
        <ele>118.6</ele>
        <time>2020-06-18T08:55:03Z</time>
      </trkpt>
      <trkpt lat="49.75434" lon="0.52533">
        <ele>118.6</ele>
        <time>2020-06-18T08:55:04Z</time>
      </trkpt>
      <trkpt lat="49.75437" lon="0.52539">
        <ele>118.6</ele>
        <time>2020-06-18T08:55:05Z</time>
      </trkpt>
      <trkpt lat="49.7544" lon="0.52545">
        <ele>118.6</ele>
        <time>2020-06-18T08:55:06Z</time>
      </trkpt>
      <trkpt lat="49.75442" lon="0.52552">
        <ele>118.6</ele>
        <time>2020-06-18T08:55:07Z</time>
      </trkpt>
      <trkpt lat="49.75445" lon="0.5256">
        <ele>118.6</ele>
        <time>2020-06-18T08:55:08Z</time>
      </trkpt>
      <trkpt lat="49.75447" lon="0.52567">
        <ele>118.6</ele>
        <time>2020-06-18T08:55:09Z</time>
      </trkpt>
      <trkpt lat="49.7545" lon="0.52573">
        <ele>118.6</ele>
        <time>2020-06-18T08:55:10Z</time>
      </trkpt>
      <trkpt lat="49.75453" lon="0.52581">
        <ele>118.7</ele>
        <time>2020-06-18T08:55:11Z</time>
      </trkpt>
      <trkpt lat="49.75454" lon="0.52589">
        <ele>118.8</ele>
        <time>2020-06-18T08:55:12Z</time>
      </trkpt>
      <trkpt lat="49.75455" lon="0.52596">
        <ele>118.9</ele>
        <time>2020-06-18T08:55:13Z</time>
      </trkpt>
      <trkpt lat="49.75458" lon="0.52603">
        <ele>119</ele>
        <time>2020-06-18T08:55:14Z</time>
      </trkpt>
      <trkpt lat="49.7546" lon="0.5261">
        <ele>119</ele>
        <time>2020-06-18T08:55:15Z</time>
      </trkpt>
      <trkpt lat="49.75462" lon="0.52617">
        <ele>119.1</ele>
        <time>2020-06-18T08:55:16Z</time>
      </trkpt>
      <trkpt lat="49.75464" lon="0.52624">
        <ele>119.1</ele>
        <time>2020-06-18T08:55:17Z</time>
      </trkpt>
      <trkpt lat="49.75466" lon="0.52632">
        <ele>119.2</ele>
        <time>2020-06-18T08:55:18Z</time>
      </trkpt>
      <trkpt lat="49.75468" lon="0.5264">
        <ele>119.2</ele>
        <time>2020-06-18T08:55:19Z</time>
      </trkpt>
      <trkpt lat="49.7547" lon="0.52647">
        <ele>119.3</ele>
        <time>2020-06-18T08:55:20Z</time>
      </trkpt>
      <trkpt lat="49.75472" lon="0.52654">
        <ele>119.4</ele>
        <time>2020-06-18T08:55:21Z</time>
      </trkpt>
      <trkpt lat="49.75474" lon="0.52663">
        <ele>119.4</ele>
        <time>2020-06-18T08:55:22Z</time>
      </trkpt>
      <trkpt lat="49.75475" lon="0.5267">
        <ele>119.4</ele>
        <time>2020-06-18T08:55:23Z</time>
      </trkpt>
      <trkpt lat="49.75477" lon="0.52677">
        <ele>119.5</ele>
        <time>2020-06-18T08:55:24Z</time>
      </trkpt>
      <trkpt lat="49.7548" lon="0.52684">
        <ele>119.5</ele>
        <time>2020-06-18T08:55:25Z</time>
      </trkpt>
      <trkpt lat="49.75482" lon="0.52691">
        <ele>119.5</ele>
        <time>2020-06-18T08:55:26Z</time>
      </trkpt>
      <trkpt lat="49.75486" lon="0.52697">
        <ele>119.5</ele>
        <time>2020-06-18T08:55:27Z</time>
      </trkpt>
      <trkpt lat="49.75488" lon="0.52704">
        <ele>119.6</ele>
        <time>2020-06-18T08:55:28Z</time>
      </trkpt>
      <trkpt lat="49.75491" lon="0.5271">
        <ele>119.6</ele>
        <time>2020-06-18T08:55:29Z</time>
      </trkpt>
      <trkpt lat="49.75494" lon="0.52716">
        <ele>119.7</ele>
        <time>2020-06-18T08:55:30Z</time>
      </trkpt>
      <trkpt lat="49.75497" lon="0.52722">
        <ele>119.7</ele>
        <time>2020-06-18T08:55:31Z</time>
      </trkpt>
      <trkpt lat="49.755" lon="0.5273">
        <ele>119.8</ele>
        <time>2020-06-18T08:55:32Z</time>
      </trkpt>
      <trkpt lat="49.75502" lon="0.52736">
        <ele>119.8</ele>
        <time>2020-06-18T08:55:33Z</time>
      </trkpt>
      <trkpt lat="49.75504" lon="0.52744">
        <ele>119.9</ele>
        <time>2020-06-18T08:55:34Z</time>
      </trkpt>
      <trkpt lat="49.75505" lon="0.52751">
        <ele>119.9</ele>
        <time>2020-06-18T08:55:35Z</time>
      </trkpt>
      <trkpt lat="49.75507" lon="0.52758">
        <ele>120</ele>
        <time>2020-06-18T08:55:36Z</time>
      </trkpt>
      <trkpt lat="49.75508" lon="0.52767">
        <ele>120</ele>
        <time>2020-06-18T08:55:37Z</time>
      </trkpt>
      <trkpt lat="49.75508" lon="0.52776">
        <ele>120</ele>
        <time>2020-06-18T08:55:38Z</time>
      </trkpt>
      <trkpt lat="49.75509" lon="0.52784">
        <ele>120</ele>
        <time>2020-06-18T08:55:39Z</time>
      </trkpt>
      <trkpt lat="49.7551" lon="0.52792">
        <ele>120.1</ele>
        <time>2020-06-18T08:55:40Z</time>
      </trkpt>
      <trkpt lat="49.7551" lon="0.52799">
        <ele>120.1</ele>
        <time>2020-06-18T08:55:41Z</time>
      </trkpt>
      <trkpt lat="49.75511" lon="0.52806">
        <ele>120.1</ele>
        <time>2020-06-18T08:55:42Z</time>
      </trkpt>
      <trkpt lat="49.75512" lon="0.52813">
        <ele>120.2</ele>
        <time>2020-06-18T08:55:43Z</time>
      </trkpt>
      <trkpt lat="49.75513" lon="0.52818">
        <ele>120.2</ele>
        <time>2020-06-18T08:55:44Z</time>
      </trkpt>
      <trkpt lat="49.75513" lon="0.52824">
        <ele>120.2</ele>
        <time>2020-06-18T08:55:45Z</time>
      </trkpt>
      <trkpt lat="49.75514" lon="0.5283">
        <ele>120.2</ele>
        <time>2020-06-18T08:55:46Z</time>
      </trkpt>
      <trkpt lat="49.75513" lon="0.52835">
        <ele>120.3</ele>
        <time>2020-06-18T08:55:47Z</time>
      </trkpt>
      <trkpt lat="49.75511" lon="0.5284">
        <ele>120.3</ele>
        <time>2020-06-18T08:55:48Z</time>
      </trkpt>
      <trkpt lat="49.75511" lon="0.52843">
        <ele>120.3</ele>
        <time>2020-06-18T08:55:49Z</time>
      </trkpt>
      <trkpt lat="49.7551" lon="0.52845">
        <ele>120.3</ele>
        <time>2020-06-18T08:55:50Z</time>
      </trkpt>
      <trkpt lat="49.7551" lon="0.52847">
        <ele>120.3</ele>
        <time>2020-06-18T08:55:51Z</time>
      </trkpt>
      <trkpt lat="49.75511" lon="0.52846">
        <ele>120.3</ele>
        <time>2020-06-18T08:55:52Z</time>
      </trkpt>
      <trkpt lat="49.75511" lon="0.52845">
        <ele>120.3</ele>
        <time>2020-06-18T08:55:53Z</time>
      </trkpt>
      <trkpt lat="49.7551" lon="0.52843">
        <ele>120.3</ele>
        <time>2020-06-18T08:55:54Z</time>
      </trkpt>
      <trkpt lat="49.75509" lon="0.52841">
        <ele>120.4</ele>
        <time>2020-06-18T08:55:55Z</time>
      </trkpt>
      <trkpt lat="49.75509" lon="0.5284">
        <ele>120.4</ele>
        <time>2020-06-18T08:55:56Z</time>
      </trkpt>
      <trkpt lat="49.75509" lon="0.52839">
        <ele>120.4</ele>
        <time>2020-06-18T08:55:57Z</time>
      </trkpt>
      <trkpt lat="49.75509" lon="0.52839">
        <ele>120.4</ele>
        <time>2020-06-18T08:55:58Z</time>
      </trkpt>
      <trkpt lat="49.75509" lon="0.52838">
        <ele>120.4</ele>
        <time>2020-06-18T08:55:59Z</time>
      </trkpt>
      <trkpt lat="49.75509" lon="0.52838">
        <ele>120.4</ele>
        <time>2020-06-18T08:56:00Z</time>
      </trkpt>
      <trkpt lat="49.75509" lon="0.52837">
        <ele>120.4</ele>
        <time>2020-06-18T08:56:01Z</time>
      </trkpt>
      <trkpt lat="49.75509" lon="0.52837">
        <ele>120.4</ele>
        <time>2020-06-18T08:56:02Z</time>
      </trkpt>
      <trkpt lat="49.75509" lon="0.52836">
        <ele>120.4</ele>
        <time>2020-06-18T08:56:03Z</time>
      </trkpt>
      <trkpt lat="49.75509" lon="0.52836">
        <ele>120.4</ele>
        <time>2020-06-18T08:56:04Z</time>
      </trkpt>
      <trkpt lat="49.75509" lon="0.52835">
        <ele>120.4</ele>
        <time>2020-06-18T08:56:05Z</time>
      </trkpt>
      <trkpt lat="49.75508" lon="0.52831">
        <ele>120.4</ele>
        <time>2020-06-18T08:56:06Z</time>
      </trkpt>
      <trkpt lat="49.75508" lon="0.52829">
        <ele>120.4</ele>
        <time>2020-06-18T08:56:07Z</time>
      </trkpt>
      <trkpt lat="49.75509" lon="0.52825">
        <ele>120.4</ele>
        <time>2020-06-18T08:56:08Z</time>
      </trkpt>
      <trkpt lat="49.75511" lon="0.5282">
        <ele>120.5</ele>
        <time>2020-06-18T08:56:09Z</time>
      </trkpt>
      <trkpt lat="49.75515" lon="0.52819">
        <ele>120.5</ele>
        <time>2020-06-18T08:56:10Z</time>
      </trkpt>
      <trkpt lat="49.75518" lon="0.5282">
        <ele>120.4</ele>
        <time>2020-06-18T08:56:11Z</time>
      </trkpt>
      <trkpt lat="49.75522" lon="0.52822">
        <ele>120.4</ele>
        <time>2020-06-18T08:56:12Z</time>
      </trkpt>
      <trkpt lat="49.75526" lon="0.52825">
        <ele>120.4</ele>
        <time>2020-06-18T08:56:13Z</time>
      </trkpt>
      <trkpt lat="49.7553" lon="0.52828">
        <ele>120.4</ele>
        <time>2020-06-18T08:56:14Z</time>
      </trkpt>
      <trkpt lat="49.75533" lon="0.52832">
        <ele>120.4</ele>
        <time>2020-06-18T08:56:15Z</time>
      </trkpt>
      <trkpt lat="49.75537" lon="0.52834">
        <ele>120.4</ele>
        <time>2020-06-18T08:56:16Z</time>
      </trkpt>
      <trkpt lat="49.7554" lon="0.52836">
        <ele>120.4</ele>
        <time>2020-06-18T08:56:17Z</time>
      </trkpt>
      <trkpt lat="49.75544" lon="0.52836">
        <ele>120.4</ele>
        <time>2020-06-18T08:56:18Z</time>
      </trkpt>
      <trkpt lat="49.75548" lon="0.52838">
        <ele>120.4</ele>
        <time>2020-06-18T08:56:19Z</time>
      </trkpt>
      <trkpt lat="49.75552" lon="0.52841">
        <ele>120.4</ele>
        <time>2020-06-18T08:56:20Z</time>
      </trkpt>
      <trkpt lat="49.75557" lon="0.52842">
        <ele>120.4</ele>
        <time>2020-06-18T08:56:21Z</time>
      </trkpt>
      <trkpt lat="49.75561" lon="0.52845">
        <ele>120.4</ele>
        <time>2020-06-18T08:56:22Z</time>
      </trkpt>
      <trkpt lat="49.75566" lon="0.52847">
        <ele>120.4</ele>
        <time>2020-06-18T08:56:23Z</time>
      </trkpt>
      <trkpt lat="49.7557" lon="0.52851">
        <ele>120.4</ele>
        <time>2020-06-18T08:56:24Z</time>
      </trkpt>
      <trkpt lat="49.75575" lon="0.52855">
        <ele>120.4</ele>
        <time>2020-06-18T08:56:25Z</time>
      </trkpt>
      <trkpt lat="49.7558" lon="0.52858">
        <ele>120.5</ele>
        <time>2020-06-18T08:56:26Z</time>
      </trkpt>
      <trkpt lat="49.75584" lon="0.52863">
        <ele>120.5</ele>
        <time>2020-06-18T08:56:27Z</time>
      </trkpt>
      <trkpt lat="49.75588" lon="0.52867">
        <ele>120.5</ele>
        <time>2020-06-18T08:56:28Z</time>
      </trkpt>
      <trkpt lat="49.75593" lon="0.52872">
        <ele>120.5</ele>
        <time>2020-06-18T08:56:29Z</time>
      </trkpt>
      <trkpt lat="49.75596" lon="0.52878">
        <ele>120.5</ele>
        <time>2020-06-18T08:56:30Z</time>
      </trkpt>
      <trkpt lat="49.756" lon="0.52886">
        <ele>120.6</ele>
        <time>2020-06-18T08:56:31Z</time>
      </trkpt>
      <trkpt lat="49.75604" lon="0.52892">
        <ele>120.6</ele>
        <time>2020-06-18T08:56:32Z</time>
      </trkpt>
      <trkpt lat="49.75609" lon="0.52897">
        <ele>120.6</ele>
        <time>2020-06-18T08:56:33Z</time>
      </trkpt>
      <trkpt lat="49.75614" lon="0.52902">
        <ele>120.6</ele>
        <time>2020-06-18T08:56:34Z</time>
      </trkpt>
      <trkpt lat="49.75617" lon="0.52906">
        <ele>120.6</ele>
        <time>2020-06-18T08:56:35Z</time>
      </trkpt>
      <trkpt lat="49.75622" lon="0.52912">
        <ele>120.7</ele>
        <time>2020-06-18T08:56:36Z</time>
      </trkpt>
      <trkpt lat="49.75626" lon="0.52919">
        <ele>120.7</ele>
        <time>2020-06-18T08:56:37Z</time>
      </trkpt>
      <trkpt lat="49.7563" lon="0.52925">
        <ele>120.8</ele>
        <time>2020-06-18T08:56:38Z</time>
      </trkpt>
      <trkpt lat="49.75634" lon="0.52934">
        <ele>120.8</ele>
        <time>2020-06-18T08:56:39Z</time>
      </trkpt>
      <trkpt lat="49.75638" lon="0.5294">
        <ele>120.9</ele>
        <time>2020-06-18T08:56:40Z</time>
      </trkpt>
      <trkpt lat="49.75642" lon="0.52947">
        <ele>120.9</ele>
        <time>2020-06-18T08:56:41Z</time>
      </trkpt>
      <trkpt lat="49.75647" lon="0.52953">
        <ele>120.9</ele>
        <time>2020-06-18T08:56:42Z</time>
      </trkpt>
      <trkpt lat="49.75651" lon="0.52959">
        <ele>121</ele>
        <time>2020-06-18T08:56:43Z</time>
      </trkpt>
      <trkpt lat="49.75654" lon="0.52964">
        <ele>121</ele>
        <time>2020-06-18T08:56:44Z</time>
      </trkpt>
      <trkpt lat="49.75659" lon="0.5297">
        <ele>121</ele>
        <time>2020-06-18T08:56:45Z</time>
      </trkpt>
      <trkpt lat="49.75664" lon="0.52975">
        <ele>121</ele>
        <time>2020-06-18T08:56:46Z</time>
      </trkpt>
      <trkpt lat="49.75669" lon="0.52981">
        <ele>121</ele>
        <time>2020-06-18T08:56:47Z</time>
      </trkpt>
      <trkpt lat="49.75673" lon="0.52987">
        <ele>121</ele>
        <time>2020-06-18T08:56:48Z</time>
      </trkpt>
      <trkpt lat="49.75678" lon="0.52994">
        <ele>121</ele>
        <time>2020-06-18T08:56:49Z</time>
      </trkpt>
      <trkpt lat="49.75682" lon="0.53">
        <ele>121</ele>
        <time>2020-06-18T08:56:50Z</time>
      </trkpt>
      <trkpt lat="49.75687" lon="0.53007">
        <ele>121</ele>
        <time>2020-06-18T08:56:51Z</time>
      </trkpt>
      <trkpt lat="49.75691" lon="0.53014">
        <ele>121</ele>
        <time>2020-06-18T08:56:52Z</time>
      </trkpt>
      <trkpt lat="49.75696" lon="0.53019">
        <ele>121</ele>
        <time>2020-06-18T08:56:53Z</time>
      </trkpt>
      <trkpt lat="49.75702" lon="0.53026">
        <ele>121.1</ele>
        <time>2020-06-18T08:56:54Z</time>
      </trkpt>
      <trkpt lat="49.75706" lon="0.53032">
        <ele>121.1</ele>
        <time>2020-06-18T08:56:55Z</time>
      </trkpt>
      <trkpt lat="49.75709" lon="0.53038">
        <ele>121.1</ele>
        <time>2020-06-18T08:56:56Z</time>
      </trkpt>
      <trkpt lat="49.75714" lon="0.53046">
        <ele>121.1</ele>
        <time>2020-06-18T08:56:57Z</time>
      </trkpt>
      <trkpt lat="49.7572" lon="0.53052">
        <ele>121.1</ele>
        <time>2020-06-18T08:56:58Z</time>
      </trkpt>
      <trkpt lat="49.75725" lon="0.53059">
        <ele>121.1</ele>
        <time>2020-06-18T08:56:59Z</time>
      </trkpt>
      <trkpt lat="49.75731" lon="0.53067">
        <ele>121.2</ele>
        <time>2020-06-18T08:57:00Z</time>
      </trkpt>
      <trkpt lat="49.75735" lon="0.53073">
        <ele>121.3</ele>
        <time>2020-06-18T08:57:01Z</time>
      </trkpt>
      <trkpt lat="49.7574" lon="0.5308">
        <ele>121.3</ele>
        <time>2020-06-18T08:57:02Z</time>
      </trkpt>
      <trkpt lat="49.75744" lon="0.53086">
        <ele>121.4</ele>
        <time>2020-06-18T08:57:03Z</time>
      </trkpt>
      <trkpt lat="49.75749" lon="0.53092">
        <ele>121.5</ele>
        <time>2020-06-18T08:57:04Z</time>
      </trkpt>
      <trkpt lat="49.75753" lon="0.53098">
        <ele>121.5</ele>
        <time>2020-06-18T08:57:05Z</time>
      </trkpt>
      <trkpt lat="49.75757" lon="0.53105">
        <ele>121.6</ele>
        <time>2020-06-18T08:57:06Z</time>
      </trkpt>
      <trkpt lat="49.75762" lon="0.53112">
        <ele>121.6</ele>
        <time>2020-06-18T08:57:07Z</time>
      </trkpt>
      <trkpt lat="49.75767" lon="0.53118">
        <ele>121.6</ele>
        <time>2020-06-18T08:57:08Z</time>
      </trkpt>
      <trkpt lat="49.75771" lon="0.53125">
        <ele>121.6</ele>
        <time>2020-06-18T08:57:09Z</time>
      </trkpt>
      <trkpt lat="49.75775" lon="0.53131">
        <ele>121.7</ele>
        <time>2020-06-18T08:57:10Z</time>
      </trkpt>
      <trkpt lat="49.7578" lon="0.53139">
        <ele>121.7</ele>
        <time>2020-06-18T08:57:11Z</time>
      </trkpt>
      <trkpt lat="49.75785" lon="0.53146">
        <ele>121.7</ele>
        <time>2020-06-18T08:57:12Z</time>
      </trkpt>
      <trkpt lat="49.75789" lon="0.53152">
        <ele>121.8</ele>
        <time>2020-06-18T08:57:13Z</time>
      </trkpt>
      <trkpt lat="49.75794" lon="0.53159">
        <ele>121.8</ele>
        <time>2020-06-18T08:57:14Z</time>
      </trkpt>
      <trkpt lat="49.75798" lon="0.53166">
        <ele>121.9</ele>
        <time>2020-06-18T08:57:15Z</time>
      </trkpt>
      <trkpt lat="49.75802" lon="0.53174">
        <ele>121.9</ele>
        <time>2020-06-18T08:57:16Z</time>
      </trkpt>
      <trkpt lat="49.75807" lon="0.53181">
        <ele>121.9</ele>
        <time>2020-06-18T08:57:17Z</time>
      </trkpt>
      <trkpt lat="49.75811" lon="0.53188">
        <ele>121.9</ele>
        <time>2020-06-18T08:57:18Z</time>
      </trkpt>
      <trkpt lat="49.75815" lon="0.53195">
        <ele>121.9</ele>
        <time>2020-06-18T08:57:19Z</time>
      </trkpt>
      <trkpt lat="49.75819" lon="0.53203">
        <ele>121.9</ele>
        <time>2020-06-18T08:57:20Z</time>
      </trkpt>
      <trkpt lat="49.75824" lon="0.53211">
        <ele>121.9</ele>
        <time>2020-06-18T08:57:21Z</time>
      </trkpt>
      <trkpt lat="49.75828" lon="0.53219">
        <ele>121.8</ele>
        <time>2020-06-18T08:57:22Z</time>
      </trkpt>
      <trkpt lat="49.75832" lon="0.53226">
        <ele>121.8</ele>
        <time>2020-06-18T08:57:23Z</time>
      </trkpt>
      <trkpt lat="49.75836" lon="0.53234">
        <ele>121.8</ele>
        <time>2020-06-18T08:57:24Z</time>
      </trkpt>
      <trkpt lat="49.7584" lon="0.53241">
        <ele>121.7</ele>
        <time>2020-06-18T08:57:25Z</time>
      </trkpt>
      <trkpt lat="49.75844" lon="0.5325">
        <ele>121.7</ele>
        <time>2020-06-18T08:57:26Z</time>
      </trkpt>
      <trkpt lat="49.75849" lon="0.53258">
        <ele>121.7</ele>
        <time>2020-06-18T08:57:27Z</time>
      </trkpt>
      <trkpt lat="49.75853" lon="0.53266">
        <ele>121.7</ele>
        <time>2020-06-18T08:57:28Z</time>
      </trkpt>
      <trkpt lat="49.75857" lon="0.53274">
        <ele>121.7</ele>
        <time>2020-06-18T08:57:29Z</time>
      </trkpt>
      <trkpt lat="49.75861" lon="0.53283">
        <ele>121.7</ele>
        <time>2020-06-18T08:57:30Z</time>
      </trkpt>
      <trkpt lat="49.75866" lon="0.5329">
        <ele>121.7</ele>
        <time>2020-06-18T08:57:31Z</time>
      </trkpt>
      <trkpt lat="49.7587" lon="0.53299">
        <ele>121.7</ele>
        <time>2020-06-18T08:57:32Z</time>
      </trkpt>
      <trkpt lat="49.75875" lon="0.53307">
        <ele>121.7</ele>
        <time>2020-06-18T08:57:33Z</time>
      </trkpt>
      <trkpt lat="49.7588" lon="0.53315">
        <ele>121.7</ele>
        <time>2020-06-18T08:57:34Z</time>
      </trkpt>
      <trkpt lat="49.75886" lon="0.53323">
        <ele>121.7</ele>
        <time>2020-06-18T08:57:35Z</time>
      </trkpt>
      <trkpt lat="49.7589" lon="0.53331">
        <ele>121.7</ele>
        <time>2020-06-18T08:57:36Z</time>
      </trkpt>
      <trkpt lat="49.75895" lon="0.5334">
        <ele>121.7</ele>
        <time>2020-06-18T08:57:37Z</time>
      </trkpt>
      <trkpt lat="49.759" lon="0.53349">
        <ele>121.6</ele>
        <time>2020-06-18T08:57:38Z</time>
      </trkpt>
      <trkpt lat="49.75905" lon="0.53358">
        <ele>121.7</ele>
        <time>2020-06-18T08:57:39Z</time>
      </trkpt>
      <trkpt lat="49.7591" lon="0.53367">
        <ele>121.7</ele>
        <time>2020-06-18T08:57:40Z</time>
      </trkpt>
      <trkpt lat="49.75914" lon="0.53376">
        <ele>121.7</ele>
        <time>2020-06-18T08:57:41Z</time>
      </trkpt>
      <trkpt lat="49.75919" lon="0.53385">
        <ele>121.7</ele>
        <time>2020-06-18T08:57:42Z</time>
      </trkpt>
      <trkpt lat="49.75924" lon="0.53394">
        <ele>121.8</ele>
        <time>2020-06-18T08:57:43Z</time>
      </trkpt>
      <trkpt lat="49.75929" lon="0.53403">
        <ele>121.7</ele>
        <time>2020-06-18T08:57:44Z</time>
      </trkpt>
      <trkpt lat="49.75934" lon="0.53412">
        <ele>121.7</ele>
        <time>2020-06-18T08:57:45Z</time>
      </trkpt>
      <trkpt lat="49.75939" lon="0.53421">
        <ele>121.6</ele>
        <time>2020-06-18T08:57:46Z</time>
      </trkpt>
      <trkpt lat="49.75945" lon="0.53429">
        <ele>121.6</ele>
        <time>2020-06-18T08:57:47Z</time>
      </trkpt>
      <trkpt lat="49.7595" lon="0.53438">
        <ele>121.6</ele>
        <time>2020-06-18T08:57:48Z</time>
      </trkpt>
      <trkpt lat="49.75956" lon="0.53446">
        <ele>121.5</ele>
        <time>2020-06-18T08:57:49Z</time>
      </trkpt>
      <trkpt lat="49.75962" lon="0.53454">
        <ele>121.5</ele>
        <time>2020-06-18T08:57:50Z</time>
      </trkpt>
      <trkpt lat="49.75968" lon="0.53461">
        <ele>121.5</ele>
        <time>2020-06-18T08:57:51Z</time>
      </trkpt>
      <trkpt lat="49.75974" lon="0.53468">
        <ele>121.5</ele>
        <time>2020-06-18T08:57:52Z</time>
      </trkpt>
      <trkpt lat="49.75981" lon="0.53475">
        <ele>121.5</ele>
        <time>2020-06-18T08:57:53Z</time>
      </trkpt>
      <trkpt lat="49.75988" lon="0.53479">
        <ele>121.5</ele>
        <time>2020-06-18T08:57:54Z</time>
      </trkpt>
      <trkpt lat="49.75996" lon="0.53485">
        <ele>121.5</ele>
        <time>2020-06-18T08:57:55Z</time>
      </trkpt>
      <trkpt lat="49.76002" lon="0.5349">
        <ele>121.5</ele>
        <time>2020-06-18T08:57:56Z</time>
      </trkpt>
      <trkpt lat="49.76009" lon="0.53496">
        <ele>121.4</ele>
        <time>2020-06-18T08:57:57Z</time>
      </trkpt>
      <trkpt lat="49.76016" lon="0.53501">
        <ele>121.4</ele>
        <time>2020-06-18T08:57:58Z</time>
      </trkpt>
      <trkpt lat="49.76023" lon="0.53506">
        <ele>121.4</ele>
        <time>2020-06-18T08:57:59Z</time>
      </trkpt>
      <trkpt lat="49.7603" lon="0.5351">
        <ele>121.5</ele>
        <time>2020-06-18T08:58:00Z</time>
      </trkpt>
      <trkpt lat="49.76037" lon="0.53514">
        <ele>121.6</ele>
        <time>2020-06-18T08:58:01Z</time>
      </trkpt>
      <trkpt lat="49.76044" lon="0.53519">
        <ele>121.6</ele>
        <time>2020-06-18T08:58:02Z</time>
      </trkpt>
      <trkpt lat="49.76051" lon="0.53524">
        <ele>121.6</ele>
        <time>2020-06-18T08:58:03Z</time>
      </trkpt>
      <trkpt lat="49.76058" lon="0.53529">
        <ele>121.6</ele>
        <time>2020-06-18T08:58:04Z</time>
      </trkpt>
      <trkpt lat="49.76066" lon="0.53533">
        <ele>121.3</ele>
        <time>2020-06-18T08:58:05Z</time>
      </trkpt>
      <trkpt lat="49.76073" lon="0.53536">
        <ele>121.2</ele>
        <time>2020-06-18T08:58:06Z</time>
      </trkpt>
      <trkpt lat="49.7608" lon="0.5354">
        <ele>121.1</ele>
        <time>2020-06-18T08:58:07Z</time>
      </trkpt>
      <trkpt lat="49.76088" lon="0.53543">
        <ele>121</ele>
        <time>2020-06-18T08:58:08Z</time>
      </trkpt>
      <trkpt lat="49.76096" lon="0.53545">
        <ele>120.9</ele>
        <time>2020-06-18T08:58:09Z</time>
      </trkpt>
      <trkpt lat="49.76104" lon="0.53549">
        <ele>120.8</ele>
        <time>2020-06-18T08:58:10Z</time>
      </trkpt>
      <trkpt lat="49.76111" lon="0.53553">
        <ele>120.8</ele>
        <time>2020-06-18T08:58:11Z</time>
      </trkpt>
      <trkpt lat="49.76119" lon="0.53556">
        <ele>120.7</ele>
        <time>2020-06-18T08:58:12Z</time>
      </trkpt>
      <trkpt lat="49.76127" lon="0.53559">
        <ele>120.6</ele>
        <time>2020-06-18T08:58:13Z</time>
      </trkpt>
      <trkpt lat="49.76135" lon="0.53562">
        <ele>120.5</ele>
        <time>2020-06-18T08:58:14Z</time>
      </trkpt>
      <trkpt lat="49.76143" lon="0.53565">
        <ele>120.4</ele>
        <time>2020-06-18T08:58:15Z</time>
      </trkpt>
      <trkpt lat="49.7615" lon="0.53569">
        <ele>120.4</ele>
        <time>2020-06-18T08:58:16Z</time>
      </trkpt>
      <trkpt lat="49.76158" lon="0.53571">
        <ele>120.3</ele>
        <time>2020-06-18T08:58:17Z</time>
      </trkpt>
      <trkpt lat="49.76165" lon="0.53574">
        <ele>120.3</ele>
        <time>2020-06-18T08:58:18Z</time>
      </trkpt>
      <trkpt lat="49.76172" lon="0.53576">
        <ele>120.2</ele>
        <time>2020-06-18T08:58:19Z</time>
      </trkpt>
      <trkpt lat="49.76179" lon="0.53579">
        <ele>120.2</ele>
        <time>2020-06-18T08:58:20Z</time>
      </trkpt>
      <trkpt lat="49.76187" lon="0.53582">
        <ele>120.2</ele>
        <time>2020-06-18T08:58:21Z</time>
      </trkpt>
      <trkpt lat="49.76194" lon="0.53586">
        <ele>120.1</ele>
        <time>2020-06-18T08:58:22Z</time>
      </trkpt>
      <trkpt lat="49.76201" lon="0.53589">
        <ele>120</ele>
        <time>2020-06-18T08:58:23Z</time>
      </trkpt>
      <trkpt lat="49.76209" lon="0.53592">
        <ele>119.8</ele>
        <time>2020-06-18T08:58:24Z</time>
      </trkpt>
      <trkpt lat="49.76216" lon="0.53595">
        <ele>119.7</ele>
        <time>2020-06-18T08:58:25Z</time>
      </trkpt>
      <trkpt lat="49.76224" lon="0.53599">
        <ele>119.6</ele>
        <time>2020-06-18T08:58:26Z</time>
      </trkpt>
      <trkpt lat="49.7623" lon="0.53602">
        <ele>119.5</ele>
        <time>2020-06-18T08:58:27Z</time>
      </trkpt>
      <trkpt lat="49.76237" lon="0.53606">
        <ele>119.4</ele>
        <time>2020-06-18T08:58:28Z</time>
      </trkpt>
      <trkpt lat="49.76244" lon="0.53609">
        <ele>119.3</ele>
        <time>2020-06-18T08:58:29Z</time>
      </trkpt>
      <trkpt lat="49.76251" lon="0.53613">
        <ele>119.1</ele>
        <time>2020-06-18T08:58:30Z</time>
      </trkpt>
      <trkpt lat="49.76257" lon="0.53618">
        <ele>118.9</ele>
        <time>2020-06-18T08:58:31Z</time>
      </trkpt>
      <trkpt lat="49.76262" lon="0.53625">
        <ele>118.6</ele>
        <time>2020-06-18T08:58:32Z</time>
      </trkpt>
      <trkpt lat="49.76267" lon="0.53633">
        <ele>118.6</ele>
        <time>2020-06-18T08:58:33Z</time>
      </trkpt>
      <trkpt lat="49.76273" lon="0.5364">
        <ele>118.6</ele>
        <time>2020-06-18T08:58:34Z</time>
      </trkpt>
      <trkpt lat="49.76279" lon="0.53647">
        <ele>118.6</ele>
        <time>2020-06-18T08:58:35Z</time>
      </trkpt>
      <trkpt lat="49.76284" lon="0.53654">
        <ele>118.5</ele>
        <time>2020-06-18T08:58:36Z</time>
      </trkpt>
      <trkpt lat="49.7629" lon="0.53662">
        <ele>118.4</ele>
        <time>2020-06-18T08:58:37Z</time>
      </trkpt>
      <trkpt lat="49.76294" lon="0.53671">
        <ele>118.3</ele>
        <time>2020-06-18T08:58:38Z</time>
      </trkpt>
      <trkpt lat="49.763" lon="0.53679">
        <ele>118.1</ele>
        <time>2020-06-18T08:58:39Z</time>
      </trkpt>
      <trkpt lat="49.76306" lon="0.53688">
        <ele>117.9</ele>
        <time>2020-06-18T08:58:40Z</time>
      </trkpt>
      <trkpt lat="49.76312" lon="0.53696">
        <ele>117.8</ele>
        <time>2020-06-18T08:58:41Z</time>
      </trkpt>
      <trkpt lat="49.76318" lon="0.53704">
        <ele>117.7</ele>
        <time>2020-06-18T08:58:42Z</time>
      </trkpt>
      <trkpt lat="49.76324" lon="0.53711">
        <ele>117.6</ele>
        <time>2020-06-18T08:58:43Z</time>
      </trkpt>
      <trkpt lat="49.76329" lon="0.5372">
        <ele>117.6</ele>
        <time>2020-06-18T08:58:44Z</time>
      </trkpt>
      <trkpt lat="49.76335" lon="0.53728">
        <ele>117.5</ele>
        <time>2020-06-18T08:58:45Z</time>
      </trkpt>
      <trkpt lat="49.7634" lon="0.53737">
        <ele>117.3</ele>
        <time>2020-06-18T08:58:46Z</time>
      </trkpt>
      <trkpt lat="49.76345" lon="0.53745">
        <ele>117.1</ele>
        <time>2020-06-18T08:58:47Z</time>
      </trkpt>
      <trkpt lat="49.76351" lon="0.53754">
        <ele>116.9</ele>
        <time>2020-06-18T08:58:48Z</time>
      </trkpt>
      <trkpt lat="49.76356" lon="0.53763">
        <ele>116.8</ele>
        <time>2020-06-18T08:58:49Z</time>
      </trkpt>
      <trkpt lat="49.76361" lon="0.53772">
        <ele>116.6</ele>
        <time>2020-06-18T08:58:50Z</time>
      </trkpt>
      <trkpt lat="49.76367" lon="0.53781">
        <ele>116.6</ele>
        <time>2020-06-18T08:58:51Z</time>
      </trkpt>
      <trkpt lat="49.76371" lon="0.53789">
        <ele>116.5</ele>
        <time>2020-06-18T08:58:52Z</time>
      </trkpt>
      <trkpt lat="49.76376" lon="0.53798">
        <ele>116.5</ele>
        <time>2020-06-18T08:58:53Z</time>
      </trkpt>
      <trkpt lat="49.7638" lon="0.53806">
        <ele>116.4</ele>
        <time>2020-06-18T08:58:54Z</time>
      </trkpt>
      <trkpt lat="49.76384" lon="0.53816">
        <ele>116.4</ele>
        <time>2020-06-18T08:58:55Z</time>
      </trkpt>
      <trkpt lat="49.7639" lon="0.53824">
        <ele>116.4</ele>
        <time>2020-06-18T08:58:56Z</time>
      </trkpt>
      <trkpt lat="49.76395" lon="0.53831">
        <ele>116.3</ele>
        <time>2020-06-18T08:58:57Z</time>
      </trkpt>
      <trkpt lat="49.764" lon="0.53839">
        <ele>116.3</ele>
        <time>2020-06-18T08:58:58Z</time>
      </trkpt>
      <trkpt lat="49.76404" lon="0.53849">
        <ele>116.2</ele>
        <time>2020-06-18T08:58:59Z</time>
      </trkpt>
      <trkpt lat="49.76409" lon="0.53858">
        <ele>116.1</ele>
        <time>2020-06-18T08:59:00Z</time>
      </trkpt>
      <trkpt lat="49.76413" lon="0.53866">
        <ele>116</ele>
        <time>2020-06-18T08:59:01Z</time>
      </trkpt>
      <trkpt lat="49.76418" lon="0.53874">
        <ele>115.9</ele>
        <time>2020-06-18T08:59:02Z</time>
      </trkpt>
      <trkpt lat="49.76423" lon="0.53882">
        <ele>115.8</ele>
        <time>2020-06-18T08:59:03Z</time>
      </trkpt>
      <trkpt lat="49.76428" lon="0.5389">
        <ele>115.7</ele>
        <time>2020-06-18T08:59:04Z</time>
      </trkpt>
      <trkpt lat="49.76433" lon="0.53898">
        <ele>115.6</ele>
        <time>2020-06-18T08:59:05Z</time>
      </trkpt>
      <trkpt lat="49.76439" lon="0.53905">
        <ele>115.6</ele>
        <time>2020-06-18T08:59:06Z</time>
      </trkpt>
      <trkpt lat="49.76445" lon="0.53912">
        <ele>115.6</ele>
        <time>2020-06-18T08:59:07Z</time>
      </trkpt>
      <trkpt lat="49.7645" lon="0.53919">
        <ele>115.6</ele>
        <time>2020-06-18T08:59:08Z</time>
      </trkpt>
      <trkpt lat="49.76456" lon="0.53926">
        <ele>115.6</ele>
        <time>2020-06-18T08:59:09Z</time>
      </trkpt>
      <trkpt lat="49.76462" lon="0.53933">
        <ele>115.5</ele>
        <time>2020-06-18T08:59:10Z</time>
      </trkpt>
      <trkpt lat="49.76467" lon="0.5394">
        <ele>115.5</ele>
        <time>2020-06-18T08:59:11Z</time>
      </trkpt>
      <trkpt lat="49.76473" lon="0.53947">
        <ele>115.4</ele>
        <time>2020-06-18T08:59:12Z</time>
      </trkpt>
      <trkpt lat="49.76478" lon="0.53955">
        <ele>115.3</ele>
        <time>2020-06-18T08:59:13Z</time>
      </trkpt>
      <trkpt lat="49.76483" lon="0.53963">
        <ele>115.3</ele>
        <time>2020-06-18T08:59:14Z</time>
      </trkpt>
      <trkpt lat="49.76488" lon="0.5397">
        <ele>115.2</ele>
        <time>2020-06-18T08:59:15Z</time>
      </trkpt>
      <trkpt lat="49.76493" lon="0.53978">
        <ele>115.1</ele>
        <time>2020-06-18T08:59:16Z</time>
      </trkpt>
      <trkpt lat="49.76499" lon="0.53985">
        <ele>115</ele>
        <time>2020-06-18T08:59:17Z</time>
      </trkpt>
      <trkpt lat="49.76505" lon="0.53993">
        <ele>114.9</ele>
        <time>2020-06-18T08:59:18Z</time>
      </trkpt>
      <trkpt lat="49.7651" lon="0.54">
        <ele>114.9</ele>
        <time>2020-06-18T08:59:19Z</time>
      </trkpt>
      <trkpt lat="49.76516" lon="0.54008">
        <ele>114.8</ele>
        <time>2020-06-18T08:59:20Z</time>
      </trkpt>
      <trkpt lat="49.76521" lon="0.54016">
        <ele>114.7</ele>
        <time>2020-06-18T08:59:21Z</time>
      </trkpt>
      <trkpt lat="49.76526" lon="0.54024">
        <ele>114.6</ele>
        <time>2020-06-18T08:59:22Z</time>
      </trkpt>
      <trkpt lat="49.76531" lon="0.54032">
        <ele>114.6</ele>
        <time>2020-06-18T08:59:23Z</time>
      </trkpt>
      <trkpt lat="49.76536" lon="0.54039">
        <ele>114.5</ele>
        <time>2020-06-18T08:59:24Z</time>
      </trkpt>
      <trkpt lat="49.76541" lon="0.54047">
        <ele>114.4</ele>
        <time>2020-06-18T08:59:25Z</time>
      </trkpt>
      <trkpt lat="49.76546" lon="0.54054">
        <ele>114.4</ele>
        <time>2020-06-18T08:59:26Z</time>
      </trkpt>
      <trkpt lat="49.7655" lon="0.54061">
        <ele>114.3</ele>
        <time>2020-06-18T08:59:27Z</time>
      </trkpt>
      <trkpt lat="49.76555" lon="0.54068">
        <ele>114.2</ele>
        <time>2020-06-18T08:59:28Z</time>
      </trkpt>
      <trkpt lat="49.7656" lon="0.54076">
        <ele>114.1</ele>
        <time>2020-06-18T08:59:29Z</time>
      </trkpt>
      <trkpt lat="49.76566" lon="0.54082">
        <ele>114.1</ele>
        <time>2020-06-18T08:59:30Z</time>
      </trkpt>
      <trkpt lat="49.7657" lon="0.54089">
        <ele>114</ele>
        <time>2020-06-18T08:59:31Z</time>
      </trkpt>
      <trkpt lat="49.76575" lon="0.54096">
        <ele>114</ele>
        <time>2020-06-18T08:59:32Z</time>
      </trkpt>
      <trkpt lat="49.76579" lon="0.54103">
        <ele>113.9</ele>
        <time>2020-06-18T08:59:33Z</time>
      </trkpt>
      <trkpt lat="49.76584" lon="0.54109">
        <ele>113.8</ele>
        <time>2020-06-18T08:59:34Z</time>
      </trkpt>
      <trkpt lat="49.76589" lon="0.54117">
        <ele>113.7</ele>
        <time>2020-06-18T08:59:35Z</time>
      </trkpt>
      <trkpt lat="49.76593" lon="0.54124">
        <ele>113.6</ele>
        <time>2020-06-18T08:59:36Z</time>
      </trkpt>
      <trkpt lat="49.76598" lon="0.5413">
        <ele>113.4</ele>
        <time>2020-06-18T08:59:37Z</time>
      </trkpt>
      <trkpt lat="49.76602" lon="0.54136">
        <ele>113.4</ele>
        <time>2020-06-18T08:59:38Z</time>
      </trkpt>
      <trkpt lat="49.76607" lon="0.54142">
        <ele>113.3</ele>
        <time>2020-06-18T08:59:39Z</time>
      </trkpt>
      <trkpt lat="49.76611" lon="0.54148">
        <ele>113.3</ele>
        <time>2020-06-18T08:59:40Z</time>
      </trkpt>
      <trkpt lat="49.76615" lon="0.54155">
        <ele>113.2</ele>
        <time>2020-06-18T08:59:41Z</time>
      </trkpt>
      <trkpt lat="49.7662" lon="0.54161">
        <ele>113.2</ele>
        <time>2020-06-18T08:59:42Z</time>
      </trkpt>
      <trkpt lat="49.76625" lon="0.54168">
        <ele>113.2</ele>
        <time>2020-06-18T08:59:43Z</time>
      </trkpt>
      <trkpt lat="49.76629" lon="0.54174">
        <ele>113.2</ele>
        <time>2020-06-18T08:59:44Z</time>
      </trkpt>
      <trkpt lat="49.76634" lon="0.5418">
        <ele>113.2</ele>
        <time>2020-06-18T08:59:45Z</time>
      </trkpt>
      <trkpt lat="49.76639" lon="0.54186">
        <ele>113.1</ele>
        <time>2020-06-18T08:59:46Z</time>
      </trkpt>
      <trkpt lat="49.76643" lon="0.54193">
        <ele>113.1</ele>
        <time>2020-06-18T08:59:47Z</time>
      </trkpt>
      <trkpt lat="49.76647" lon="0.54199">
        <ele>113.1</ele>
        <time>2020-06-18T08:59:48Z</time>
      </trkpt>
      <trkpt lat="49.7665" lon="0.54204">
        <ele>113.1</ele>
        <time>2020-06-18T08:59:49Z</time>
      </trkpt>
      <trkpt lat="49.76653" lon="0.54208">
        <ele>113.1</ele>
        <time>2020-06-18T08:59:50Z</time>
      </trkpt>
      <trkpt lat="49.76657" lon="0.54211">
        <ele>113</ele>
        <time>2020-06-18T08:59:51Z</time>
      </trkpt>
      <trkpt lat="49.76661" lon="0.54212">
        <ele>113</ele>
        <time>2020-06-18T08:59:52Z</time>
      </trkpt>
      <trkpt lat="49.76665" lon="0.54214">
        <ele>112.9</ele>
        <time>2020-06-18T08:59:53Z</time>
      </trkpt>
      <trkpt lat="49.7667" lon="0.54214">
        <ele>112.9</ele>
        <time>2020-06-18T08:59:54Z</time>
      </trkpt>
      <trkpt lat="49.76674" lon="0.54212">
        <ele>112.8</ele>
        <time>2020-06-18T08:59:55Z</time>
      </trkpt>
      <trkpt lat="49.76679" lon="0.54211">
        <ele>112.8</ele>
        <time>2020-06-18T08:59:56Z</time>
      </trkpt>
      <trkpt lat="49.76684" lon="0.5421">
        <ele>112.7</ele>
        <time>2020-06-18T08:59:57Z</time>
      </trkpt>
      <trkpt lat="49.76689" lon="0.54211">
        <ele>112.7</ele>
        <time>2020-06-18T08:59:58Z</time>
      </trkpt>
      <trkpt lat="49.76695" lon="0.54212">
        <ele>112.6</ele>
        <time>2020-06-18T08:59:59Z</time>
      </trkpt>
      <trkpt lat="49.767" lon="0.54214">
        <ele>112.6</ele>
        <time>2020-06-18T09:00:00Z</time>
      </trkpt>
      <trkpt lat="49.76706" lon="0.54216">
        <ele>112.5</ele>
        <time>2020-06-18T09:00:01Z</time>
      </trkpt>
      <trkpt lat="49.76711" lon="0.54221">
        <ele>112.5</ele>
        <time>2020-06-18T09:00:02Z</time>
      </trkpt>
      <trkpt lat="49.76716" lon="0.54227">
        <ele>112.4</ele>
        <time>2020-06-18T09:00:03Z</time>
      </trkpt>
      <trkpt lat="49.76722" lon="0.54231">
        <ele>112.4</ele>
        <time>2020-06-18T09:00:04Z</time>
      </trkpt>
      <trkpt lat="49.76727" lon="0.54237">
        <ele>112.4</ele>
        <time>2020-06-18T09:00:05Z</time>
      </trkpt>
      <trkpt lat="49.76733" lon="0.54243">
        <ele>112.3</ele>
        <time>2020-06-18T09:00:06Z</time>
      </trkpt>
      <trkpt lat="49.76739" lon="0.54249">
        <ele>112.3</ele>
        <time>2020-06-18T09:00:07Z</time>
      </trkpt>
      <trkpt lat="49.76745" lon="0.54254">
        <ele>112.1</ele>
        <time>2020-06-18T09:00:08Z</time>
      </trkpt>
      <trkpt lat="49.76751" lon="0.54259">
        <ele>112</ele>
        <time>2020-06-18T09:00:09Z</time>
      </trkpt>
      <trkpt lat="49.76757" lon="0.54265">
        <ele>111.9</ele>
        <time>2020-06-18T09:00:10Z</time>
      </trkpt>
      <trkpt lat="49.76764" lon="0.54269">
        <ele>111.8</ele>
        <time>2020-06-18T09:00:11Z</time>
      </trkpt>
      <trkpt lat="49.7677" lon="0.54273">
        <ele>111.7</ele>
        <time>2020-06-18T09:00:12Z</time>
      </trkpt>
      <trkpt lat="49.76777" lon="0.54278">
        <ele>111.7</ele>
        <time>2020-06-18T09:00:13Z</time>
      </trkpt>
      <trkpt lat="49.76783" lon="0.54283">
        <ele>111.6</ele>
        <time>2020-06-18T09:00:14Z</time>
      </trkpt>
      <trkpt lat="49.76788" lon="0.54287">
        <ele>111.5</ele>
        <time>2020-06-18T09:00:15Z</time>
      </trkpt>
      <trkpt lat="49.76794" lon="0.54292">
        <ele>111.5</ele>
        <time>2020-06-18T09:00:16Z</time>
      </trkpt>
      <trkpt lat="49.768" lon="0.54296">
        <ele>111.3</ele>
        <time>2020-06-18T09:00:17Z</time>
      </trkpt>
      <trkpt lat="49.76806" lon="0.54301">
        <ele>111.1</ele>
        <time>2020-06-18T09:00:18Z</time>
      </trkpt>
      <trkpt lat="49.76812" lon="0.54305">
        <ele>110.9</ele>
        <time>2020-06-18T09:00:19Z</time>
      </trkpt>
      <trkpt lat="49.76819" lon="0.5431">
        <ele>110.6</ele>
        <time>2020-06-18T09:00:20Z</time>
      </trkpt>
      <trkpt lat="49.76825" lon="0.54315">
        <ele>110.4</ele>
        <time>2020-06-18T09:00:21Z</time>
      </trkpt>
      <trkpt lat="49.76832" lon="0.54321">
        <ele>110.2</ele>
        <time>2020-06-18T09:00:22Z</time>
      </trkpt>
      <trkpt lat="49.76839" lon="0.54328">
        <ele>110</ele>
        <time>2020-06-18T09:00:23Z</time>
      </trkpt>
      <trkpt lat="49.76845" lon="0.54335">
        <ele>109.8</ele>
        <time>2020-06-18T09:00:24Z</time>
      </trkpt>
      <trkpt lat="49.76853" lon="0.54341">
        <ele>109.6</ele>
        <time>2020-06-18T09:00:25Z</time>
      </trkpt>
      <trkpt lat="49.7686" lon="0.54348">
        <ele>109.5</ele>
        <time>2020-06-18T09:00:26Z</time>
      </trkpt>
      <trkpt lat="49.76868" lon="0.54354">
        <ele>109.4</ele>
        <time>2020-06-18T09:00:27Z</time>
      </trkpt>
      <trkpt lat="49.76875" lon="0.54361">
        <ele>109.3</ele>
        <time>2020-06-18T09:00:28Z</time>
      </trkpt>
      <trkpt lat="49.76882" lon="0.54368">
        <ele>109.3</ele>
        <time>2020-06-18T09:00:29Z</time>
      </trkpt>
      <trkpt lat="49.7689" lon="0.54375">
        <ele>109.2</ele>
        <time>2020-06-18T09:00:30Z</time>
      </trkpt>
      <trkpt lat="49.76897" lon="0.54382">
        <ele>109</ele>
        <time>2020-06-18T09:00:31Z</time>
      </trkpt>
      <trkpt lat="49.76905" lon="0.54388">
        <ele>108.9</ele>
        <time>2020-06-18T09:00:32Z</time>
      </trkpt>
      <trkpt lat="49.76912" lon="0.54395">
        <ele>108.8</ele>
        <time>2020-06-18T09:00:33Z</time>
      </trkpt>
      <trkpt lat="49.7692" lon="0.54402">
        <ele>108.7</ele>
        <time>2020-06-18T09:00:34Z</time>
      </trkpt>
      <trkpt lat="49.76927" lon="0.54409">
        <ele>108.7</ele>
        <time>2020-06-18T09:00:35Z</time>
      </trkpt>
      <trkpt lat="49.76935" lon="0.54416">
        <ele>108.6</ele>
        <time>2020-06-18T09:00:36Z</time>
      </trkpt>
      <trkpt lat="49.76942" lon="0.54423">
        <ele>108.5</ele>
        <time>2020-06-18T09:00:37Z</time>
      </trkpt>
      <trkpt lat="49.76949" lon="0.54431">
        <ele>108.5</ele>
        <time>2020-06-18T09:00:38Z</time>
      </trkpt>
      <trkpt lat="49.76956" lon="0.54439">
        <ele>108.5</ele>
        <time>2020-06-18T09:00:39Z</time>
      </trkpt>
      <trkpt lat="49.76964" lon="0.54446">
        <ele>108.5</ele>
        <time>2020-06-18T09:00:40Z</time>
      </trkpt>
      <trkpt lat="49.7697" lon="0.54454">
        <ele>108.5</ele>
        <time>2020-06-18T09:00:41Z</time>
      </trkpt>
      <trkpt lat="49.76976" lon="0.54463">
        <ele>108.5</ele>
        <time>2020-06-18T09:00:42Z</time>
      </trkpt>
      <trkpt lat="49.76982" lon="0.54473">
        <ele>108.6</ele>
        <time>2020-06-18T09:00:43Z</time>
      </trkpt>
      <trkpt lat="49.76988" lon="0.54483">
        <ele>108.6</ele>
        <time>2020-06-18T09:00:44Z</time>
      </trkpt>
      <trkpt lat="49.76993" lon="0.54493">
        <ele>108.6</ele>
        <time>2020-06-18T09:00:45Z</time>
      </trkpt>
      <trkpt lat="49.76998" lon="0.54503">
        <ele>108.6</ele>
        <time>2020-06-18T09:00:46Z</time>
      </trkpt>
      <trkpt lat="49.77003" lon="0.54514">
        <ele>108.7</ele>
        <time>2020-06-18T09:00:47Z</time>
      </trkpt>
      <trkpt lat="49.77008" lon="0.54524">
        <ele>108.7</ele>
        <time>2020-06-18T09:00:48Z</time>
      </trkpt>
      <trkpt lat="49.77012" lon="0.54534">
        <ele>108.7</ele>
        <time>2020-06-18T09:00:49Z</time>
      </trkpt>
      <trkpt lat="49.77017" lon="0.54543">
        <ele>108.7</ele>
        <time>2020-06-18T09:00:50Z</time>
      </trkpt>
      <trkpt lat="49.77022" lon="0.54553">
        <ele>108.7</ele>
        <time>2020-06-18T09:00:51Z</time>
      </trkpt>
      <trkpt lat="49.77027" lon="0.54561">
        <ele>108.6</ele>
        <time>2020-06-18T09:00:52Z</time>
      </trkpt>
      <trkpt lat="49.77032" lon="0.5457">
        <ele>108.5</ele>
        <time>2020-06-18T09:00:53Z</time>
      </trkpt>
      <trkpt lat="49.77036" lon="0.54579">
        <ele>108.5</ele>
        <time>2020-06-18T09:00:54Z</time>
      </trkpt>
      <trkpt lat="49.77041" lon="0.54587">
        <ele>108.5</ele>
        <time>2020-06-18T09:00:55Z</time>
      </trkpt>
      <trkpt lat="49.77045" lon="0.54595">
        <ele>108.4</ele>
        <time>2020-06-18T09:00:56Z</time>
      </trkpt>
      <trkpt lat="49.77049" lon="0.54603">
        <ele>108.4</ele>
        <time>2020-06-18T09:00:57Z</time>
      </trkpt>
      <trkpt lat="49.77054" lon="0.54611">
        <ele>108.3</ele>
        <time>2020-06-18T09:00:58Z</time>
      </trkpt>
      <trkpt lat="49.77058" lon="0.54619">
        <ele>108.2</ele>
        <time>2020-06-18T09:00:59Z</time>
      </trkpt>
      <trkpt lat="49.77062" lon="0.54627">
        <ele>108.1</ele>
        <time>2020-06-18T09:01:00Z</time>
      </trkpt>
      <trkpt lat="49.77066" lon="0.54634">
        <ele>107.9</ele>
        <time>2020-06-18T09:01:01Z</time>
      </trkpt>
      <trkpt lat="49.7707" lon="0.54642">
        <ele>107.8</ele>
        <time>2020-06-18T09:01:02Z</time>
      </trkpt>
      <trkpt lat="49.77075" lon="0.5465">
        <ele>107.5</ele>
        <time>2020-06-18T09:01:03Z</time>
      </trkpt>
      <trkpt lat="49.77079" lon="0.54659">
        <ele>107.3</ele>
        <time>2020-06-18T09:01:04Z</time>
      </trkpt>
      <trkpt lat="49.77082" lon="0.54668">
        <ele>107</ele>
        <time>2020-06-18T09:01:05Z</time>
      </trkpt>
      <trkpt lat="49.77086" lon="0.54677">
        <ele>106.7</ele>
        <time>2020-06-18T09:01:06Z</time>
      </trkpt>
      <trkpt lat="49.77088" lon="0.54687">
        <ele>106.5</ele>
        <time>2020-06-18T09:01:07Z</time>
      </trkpt>
      <trkpt lat="49.77087" lon="0.54697">
        <ele>106.3</ele>
        <time>2020-06-18T09:01:08Z</time>
      </trkpt>
      <trkpt lat="49.77085" lon="0.54708">
        <ele>106</ele>
        <time>2020-06-18T09:01:09Z</time>
      </trkpt>
      <trkpt lat="49.77082" lon="0.54719">
        <ele>105.8</ele>
        <time>2020-06-18T09:01:10Z</time>
      </trkpt>
      <trkpt lat="49.77079" lon="0.5473">
        <ele>105.5</ele>
        <time>2020-06-18T09:01:11Z</time>
      </trkpt>
      <trkpt lat="49.77075" lon="0.54741">
        <ele>105.4</ele>
        <time>2020-06-18T09:01:12Z</time>
      </trkpt>
      <trkpt lat="49.77071" lon="0.54751">
        <ele>105.2</ele>
        <time>2020-06-18T09:01:13Z</time>
      </trkpt>
      <trkpt lat="49.77067" lon="0.54762">
        <ele>105</ele>
        <time>2020-06-18T09:01:14Z</time>
      </trkpt>
      <trkpt lat="49.77063" lon="0.54774">
        <ele>104.8</ele>
        <time>2020-06-18T09:01:15Z</time>
      </trkpt>
      <trkpt lat="49.77059" lon="0.54785">
        <ele>104.6</ele>
        <time>2020-06-18T09:01:16Z</time>
      </trkpt>
      <trkpt lat="49.77056" lon="0.54797">
        <ele>104.5</ele>
        <time>2020-06-18T09:01:17Z</time>
      </trkpt>
      <trkpt lat="49.77053" lon="0.54809">
        <ele>104.4</ele>
        <time>2020-06-18T09:01:18Z</time>
      </trkpt>
      <trkpt lat="49.77051" lon="0.54821">
        <ele>104.2</ele>
        <time>2020-06-18T09:01:19Z</time>
      </trkpt>
      <trkpt lat="49.7705" lon="0.54834">
        <ele>104.1</ele>
        <time>2020-06-18T09:01:20Z</time>
      </trkpt>
      <trkpt lat="49.77049" lon="0.54847">
        <ele>103.9</ele>
        <time>2020-06-18T09:01:21Z</time>
      </trkpt>
      <trkpt lat="49.7705" lon="0.54861">
        <ele>103.7</ele>
        <time>2020-06-18T09:01:22Z</time>
      </trkpt>
      <trkpt lat="49.7705" lon="0.54874">
        <ele>103.5</ele>
        <time>2020-06-18T09:01:23Z</time>
      </trkpt>
      <trkpt lat="49.7705" lon="0.54888">
        <ele>103.4</ele>
        <time>2020-06-18T09:01:24Z</time>
      </trkpt>
      <trkpt lat="49.7705" lon="0.54901">
        <ele>103.2</ele>
        <time>2020-06-18T09:01:25Z</time>
      </trkpt>
      <trkpt lat="49.77053" lon="0.54914">
        <ele>103.3</ele>
        <time>2020-06-18T09:01:26Z</time>
      </trkpt>
      <trkpt lat="49.77057" lon="0.54926">
        <ele>103.2</ele>
        <time>2020-06-18T09:01:27Z</time>
      </trkpt>
      <trkpt lat="49.77061" lon="0.54939">
        <ele>103.1</ele>
        <time>2020-06-18T09:01:28Z</time>
      </trkpt>
      <trkpt lat="49.77066" lon="0.5495">
        <ele>102.8</ele>
        <time>2020-06-18T09:01:29Z</time>
      </trkpt>
      <trkpt lat="49.77071" lon="0.54962">
        <ele>102.6</ele>
        <time>2020-06-18T09:01:30Z</time>
      </trkpt>
      <trkpt lat="49.77076" lon="0.54974">
        <ele>102.4</ele>
        <time>2020-06-18T09:01:31Z</time>
      </trkpt>
      <trkpt lat="49.77081" lon="0.54985">
        <ele>102.1</ele>
        <time>2020-06-18T09:01:32Z</time>
      </trkpt>
      <trkpt lat="49.77086" lon="0.54996">
        <ele>101.7</ele>
        <time>2020-06-18T09:01:33Z</time>
      </trkpt>
      <trkpt lat="49.7709" lon="0.55008">
        <ele>101.4</ele>
        <time>2020-06-18T09:01:34Z</time>
      </trkpt>
      <trkpt lat="49.77095" lon="0.55021">
        <ele>101</ele>
        <time>2020-06-18T09:01:35Z</time>
      </trkpt>
      <trkpt lat="49.77099" lon="0.55034">
        <ele>100.7</ele>
        <time>2020-06-18T09:01:36Z</time>
      </trkpt>
      <trkpt lat="49.77102" lon="0.55048">
        <ele>100.4</ele>
        <time>2020-06-18T09:01:37Z</time>
      </trkpt>
      <trkpt lat="49.77106" lon="0.55061">
        <ele>100.1</ele>
        <time>2020-06-18T09:01:38Z</time>
      </trkpt>
      <trkpt lat="49.77109" lon="0.55075">
        <ele>99.8</ele>
        <time>2020-06-18T09:01:39Z</time>
      </trkpt>
      <trkpt lat="49.77112" lon="0.55089">
        <ele>99.6</ele>
        <time>2020-06-18T09:01:40Z</time>
      </trkpt>
      <trkpt lat="49.77115" lon="0.55102">
        <ele>99.4</ele>
        <time>2020-06-18T09:01:41Z</time>
      </trkpt>
      <trkpt lat="49.77118" lon="0.55116">
        <ele>99.2</ele>
        <time>2020-06-18T09:01:42Z</time>
      </trkpt>
      <trkpt lat="49.77121" lon="0.55129">
        <ele>98.9</ele>
        <time>2020-06-18T09:01:43Z</time>
      </trkpt>
      <trkpt lat="49.77125" lon="0.55142">
        <ele>98.6</ele>
        <time>2020-06-18T09:01:44Z</time>
      </trkpt>
      <trkpt lat="49.77128" lon="0.55156">
        <ele>98.4</ele>
        <time>2020-06-18T09:01:45Z</time>
      </trkpt>
      <trkpt lat="49.77131" lon="0.55169">
        <ele>98.3</ele>
        <time>2020-06-18T09:01:46Z</time>
      </trkpt>
      <trkpt lat="49.77134" lon="0.55183">
        <ele>98.2</ele>
        <time>2020-06-18T09:01:47Z</time>
      </trkpt>
      <trkpt lat="49.77138" lon="0.55196">
        <ele>98.1</ele>
        <time>2020-06-18T09:01:48Z</time>
      </trkpt>
      <trkpt lat="49.77141" lon="0.55209">
        <ele>98</ele>
        <time>2020-06-18T09:01:49Z</time>
      </trkpt>
      <trkpt lat="49.77144" lon="0.55222">
        <ele>97.9</ele>
        <time>2020-06-18T09:01:50Z</time>
      </trkpt>
      <trkpt lat="49.77147" lon="0.55235">
        <ele>97.8</ele>
        <time>2020-06-18T09:01:51Z</time>
      </trkpt>
      <trkpt lat="49.7715" lon="0.55248">
        <ele>97.7</ele>
        <time>2020-06-18T09:01:52Z</time>
      </trkpt>
      <trkpt lat="49.77154" lon="0.55261">
        <ele>97.6</ele>
        <time>2020-06-18T09:01:53Z</time>
      </trkpt>
      <trkpt lat="49.77157" lon="0.55274">
        <ele>97.5</ele>
        <time>2020-06-18T09:01:54Z</time>
      </trkpt>
      <trkpt lat="49.77159" lon="0.55287">
        <ele>97.5</ele>
        <time>2020-06-18T09:01:55Z</time>
      </trkpt>
      <trkpt lat="49.77162" lon="0.55301">
        <ele>97.5</ele>
        <time>2020-06-18T09:01:56Z</time>
      </trkpt>
      <trkpt lat="49.77165" lon="0.55314">
        <ele>97.4</ele>
        <time>2020-06-18T09:01:57Z</time>
      </trkpt>
      <trkpt lat="49.77168" lon="0.55327">
        <ele>97.3</ele>
        <time>2020-06-18T09:01:58Z</time>
      </trkpt>
      <trkpt lat="49.77172" lon="0.5534">
        <ele>97.2</ele>
        <time>2020-06-18T09:01:59Z</time>
      </trkpt>
      <trkpt lat="49.77174" lon="0.55353">
        <ele>97.1</ele>
        <time>2020-06-18T09:02:00Z</time>
      </trkpt>
      <trkpt lat="49.77178" lon="0.55366">
        <ele>97</ele>
        <time>2020-06-18T09:02:01Z</time>
      </trkpt>
      <trkpt lat="49.77181" lon="0.55379">
        <ele>96.9</ele>
        <time>2020-06-18T09:02:02Z</time>
      </trkpt>
      <trkpt lat="49.77184" lon="0.55392">
        <ele>96.9</ele>
        <time>2020-06-18T09:02:03Z</time>
      </trkpt>
      <trkpt lat="49.77187" lon="0.55405">
        <ele>96.8</ele>
        <time>2020-06-18T09:02:04Z</time>
      </trkpt>
      <trkpt lat="49.77191" lon="0.55419">
        <ele>96.7</ele>
        <time>2020-06-18T09:02:05Z</time>
      </trkpt>
      <trkpt lat="49.77193" lon="0.55432">
        <ele>96.7</ele>
        <time>2020-06-18T09:02:06Z</time>
      </trkpt>
      <trkpt lat="49.77196" lon="0.55446">
        <ele>96.6</ele>
        <time>2020-06-18T09:02:07Z</time>
      </trkpt>
      <trkpt lat="49.77199" lon="0.55459">
        <ele>96.5</ele>
        <time>2020-06-18T09:02:08Z</time>
      </trkpt>
      <trkpt lat="49.77202" lon="0.55472">
        <ele>96.5</ele>
        <time>2020-06-18T09:02:09Z</time>
      </trkpt>
      <trkpt lat="49.77207" lon="0.55484">
        <ele>96.5</ele>
        <time>2020-06-18T09:02:10Z</time>
      </trkpt>
      <trkpt lat="49.77211" lon="0.55497">
        <ele>96.5</ele>
        <time>2020-06-18T09:02:11Z</time>
      </trkpt>
      <trkpt lat="49.77214" lon="0.5551">
        <ele>96.4</ele>
        <time>2020-06-18T09:02:12Z</time>
      </trkpt>
      <trkpt lat="49.77218" lon="0.55523">
        <ele>96.4</ele>
        <time>2020-06-18T09:02:13Z</time>
      </trkpt>
      <trkpt lat="49.77221" lon="0.55536">
        <ele>96.4</ele>
        <time>2020-06-18T09:02:14Z</time>
      </trkpt>
      <trkpt lat="49.77224" lon="0.55549">
        <ele>96.3</ele>
        <time>2020-06-18T09:02:15Z</time>
      </trkpt>
      <trkpt lat="49.77227" lon="0.55562">
        <ele>96.2</ele>
        <time>2020-06-18T09:02:16Z</time>
      </trkpt>
      <trkpt lat="49.7723" lon="0.55575">
        <ele>96.2</ele>
        <time>2020-06-18T09:02:17Z</time>
      </trkpt>
      <trkpt lat="49.77232" lon="0.55588">
        <ele>96.2</ele>
        <time>2020-06-18T09:02:18Z</time>
      </trkpt>
      <trkpt lat="49.77235" lon="0.55601">
        <ele>96.2</ele>
        <time>2020-06-18T09:02:19Z</time>
      </trkpt>
      <trkpt lat="49.77238" lon="0.55614">
        <ele>96.1</ele>
        <time>2020-06-18T09:02:20Z</time>
      </trkpt>
      <trkpt lat="49.77241" lon="0.55627">
        <ele>96.1</ele>
        <time>2020-06-18T09:02:21Z</time>
      </trkpt>
      <trkpt lat="49.77244" lon="0.55639">
        <ele>96.1</ele>
        <time>2020-06-18T09:02:22Z</time>
      </trkpt>
      <trkpt lat="49.77247" lon="0.55652">
        <ele>96.1</ele>
        <time>2020-06-18T09:02:23Z</time>
      </trkpt>
      <trkpt lat="49.7725" lon="0.55664">
        <ele>96.2</ele>
        <time>2020-06-18T09:02:24Z</time>
      </trkpt>
      <trkpt lat="49.77252" lon="0.55677">
        <ele>96.2</ele>
        <time>2020-06-18T09:02:25Z</time>
      </trkpt>
      <trkpt lat="49.77255" lon="0.55689">
        <ele>96.2</ele>
        <time>2020-06-18T09:02:26Z</time>
      </trkpt>
      <trkpt lat="49.77256" lon="0.55702">
        <ele>96.2</ele>
        <time>2020-06-18T09:02:27Z</time>
      </trkpt>
      <trkpt lat="49.77258" lon="0.55715">
        <ele>96.1</ele>
        <time>2020-06-18T09:02:28Z</time>
      </trkpt>
      <trkpt lat="49.77259" lon="0.55728">
        <ele>95.9</ele>
        <time>2020-06-18T09:02:29Z</time>
      </trkpt>
      <trkpt lat="49.7726" lon="0.55741">
        <ele>95.8</ele>
        <time>2020-06-18T09:02:30Z</time>
      </trkpt>
      <trkpt lat="49.77261" lon="0.55754">
        <ele>95.7</ele>
        <time>2020-06-18T09:02:31Z</time>
      </trkpt>
      <trkpt lat="49.77261" lon="0.55767">
        <ele>95.6</ele>
        <time>2020-06-18T09:02:32Z</time>
      </trkpt>
      <trkpt lat="49.77261" lon="0.5578">
        <ele>95.5</ele>
        <time>2020-06-18T09:02:33Z</time>
      </trkpt>
      <trkpt lat="49.77261" lon="0.55793">
        <ele>95.5</ele>
        <time>2020-06-18T09:02:34Z</time>
      </trkpt>
      <trkpt lat="49.7726" lon="0.55807">
        <ele>95.6</ele>
        <time>2020-06-18T09:02:35Z</time>
      </trkpt>
      <trkpt lat="49.77261" lon="0.5582">
        <ele>95.6</ele>
        <time>2020-06-18T09:02:36Z</time>
      </trkpt>
      <trkpt lat="49.77261" lon="0.55833">
        <ele>95.6</ele>
        <time>2020-06-18T09:02:37Z</time>
      </trkpt>
      <trkpt lat="49.77262" lon="0.55847">
        <ele>95.6</ele>
        <time>2020-06-18T09:02:38Z</time>
      </trkpt>
      <trkpt lat="49.77263" lon="0.5586">
        <ele>95.6</ele>
        <time>2020-06-18T09:02:39Z</time>
      </trkpt>
      <trkpt lat="49.77264" lon="0.55873">
        <ele>95.6</ele>
        <time>2020-06-18T09:02:40Z</time>
      </trkpt>
      <trkpt lat="49.77264" lon="0.55886">
        <ele>95.7</ele>
        <time>2020-06-18T09:02:41Z</time>
      </trkpt>
      <trkpt lat="49.77265" lon="0.55899">
        <ele>95.7</ele>
        <time>2020-06-18T09:02:42Z</time>
      </trkpt>
      <trkpt lat="49.77267" lon="0.55912">
        <ele>95.7</ele>
        <time>2020-06-18T09:02:43Z</time>
      </trkpt>
      <trkpt lat="49.77268" lon="0.55925">
        <ele>95.7</ele>
        <time>2020-06-18T09:02:44Z</time>
      </trkpt>
      <trkpt lat="49.7727" lon="0.55938">
        <ele>95.8</ele>
        <time>2020-06-18T09:02:45Z</time>
      </trkpt>
      <trkpt lat="49.77272" lon="0.55951">
        <ele>95.9</ele>
        <time>2020-06-18T09:02:46Z</time>
      </trkpt>
      <trkpt lat="49.77274" lon="0.55964">
        <ele>96.1</ele>
        <time>2020-06-18T09:02:47Z</time>
      </trkpt>
      <trkpt lat="49.77275" lon="0.55977">
        <ele>96.2</ele>
        <time>2020-06-18T09:02:48Z</time>
      </trkpt>
      <trkpt lat="49.77278" lon="0.55989">
        <ele>96.4</ele>
        <time>2020-06-18T09:02:49Z</time>
      </trkpt>
      <trkpt lat="49.7728" lon="0.56001">
        <ele>96.7</ele>
        <time>2020-06-18T09:02:50Z</time>
      </trkpt>
      <trkpt lat="49.77282" lon="0.56013">
        <ele>97.1</ele>
        <time>2020-06-18T09:02:51Z</time>
      </trkpt>
      <trkpt lat="49.77284" lon="0.56025">
        <ele>97.4</ele>
        <time>2020-06-18T09:02:52Z</time>
      </trkpt>
      <trkpt lat="49.77287" lon="0.56036">
        <ele>97.8</ele>
        <time>2020-06-18T09:02:53Z</time>
      </trkpt>
      <trkpt lat="49.7729" lon="0.56046">
        <ele>98.2</ele>
        <time>2020-06-18T09:02:54Z</time>
      </trkpt>
      <trkpt lat="49.77292" lon="0.56056">
        <ele>98.6</ele>
        <time>2020-06-18T09:02:55Z</time>
      </trkpt>
      <trkpt lat="49.77295" lon="0.56066">
        <ele>99</ele>
        <time>2020-06-18T09:02:56Z</time>
      </trkpt>
      <trkpt lat="49.77298" lon="0.56075">
        <ele>99.2</ele>
        <time>2020-06-18T09:02:57Z</time>
      </trkpt>
      <trkpt lat="49.77301" lon="0.56084">
        <ele>99.5</ele>
        <time>2020-06-18T09:02:58Z</time>
      </trkpt>
      <trkpt lat="49.77303" lon="0.56093">
        <ele>99.7</ele>
        <time>2020-06-18T09:02:59Z</time>
      </trkpt>
      <trkpt lat="49.77305" lon="0.56101">
        <ele>99.9</ele>
        <time>2020-06-18T09:03:00Z</time>
      </trkpt>
      <trkpt lat="49.77308" lon="0.5611">
        <ele>100.2</ele>
        <time>2020-06-18T09:03:01Z</time>
      </trkpt>
      <trkpt lat="49.77311" lon="0.56118">
        <ele>100.4</ele>
        <time>2020-06-18T09:03:02Z</time>
      </trkpt>
      <trkpt lat="49.77313" lon="0.56126">
        <ele>100.7</ele>
        <time>2020-06-18T09:03:03Z</time>
      </trkpt>
      <trkpt lat="49.77316" lon="0.56133">
        <ele>100.9</ele>
        <time>2020-06-18T09:03:04Z</time>
      </trkpt>
      <trkpt lat="49.77318" lon="0.56141">
        <ele>101</ele>
        <time>2020-06-18T09:03:05Z</time>
      </trkpt>
      <trkpt lat="49.7732" lon="0.56149">
        <ele>101.2</ele>
        <time>2020-06-18T09:03:06Z</time>
      </trkpt>
      <trkpt lat="49.77323" lon="0.56156">
        <ele>101.3</ele>
        <time>2020-06-18T09:03:07Z</time>
      </trkpt>
      <trkpt lat="49.77325" lon="0.56164">
        <ele>101.4</ele>
        <time>2020-06-18T09:03:08Z</time>
      </trkpt>
      <trkpt lat="49.77328" lon="0.56171">
        <ele>101.5</ele>
        <time>2020-06-18T09:03:09Z</time>
      </trkpt>
      <trkpt lat="49.77329" lon="0.56179">
        <ele>101.7</ele>
        <time>2020-06-18T09:03:10Z</time>
      </trkpt>
      <trkpt lat="49.77331" lon="0.56187">
        <ele>101.8</ele>
        <time>2020-06-18T09:03:11Z</time>
      </trkpt>
      <trkpt lat="49.77333" lon="0.56195">
        <ele>101.9</ele>
        <time>2020-06-18T09:03:12Z</time>
      </trkpt>
      <trkpt lat="49.77335" lon="0.56204">
        <ele>102.1</ele>
        <time>2020-06-18T09:03:13Z</time>
      </trkpt>
      <trkpt lat="49.77338" lon="0.56212">
        <ele>102.1</ele>
        <time>2020-06-18T09:03:14Z</time>
      </trkpt>
      <trkpt lat="49.77341" lon="0.56221">
        <ele>102.2</ele>
        <time>2020-06-18T09:03:15Z</time>
      </trkpt>
      <trkpt lat="49.77344" lon="0.56229">
        <ele>102.3</ele>
        <time>2020-06-18T09:03:16Z</time>
      </trkpt>
      <trkpt lat="49.77346" lon="0.56238">
        <ele>102.4</ele>
        <time>2020-06-18T09:03:17Z</time>
      </trkpt>
      <trkpt lat="49.77349" lon="0.56247">
        <ele>102.5</ele>
        <time>2020-06-18T09:03:18Z</time>
      </trkpt>
      <trkpt lat="49.77352" lon="0.56255">
        <ele>102.6</ele>
        <time>2020-06-18T09:03:19Z</time>
      </trkpt>
      <trkpt lat="49.77355" lon="0.56264">
        <ele>102.7</ele>
        <time>2020-06-18T09:03:20Z</time>
      </trkpt>
      <trkpt lat="49.77359" lon="0.56273">
        <ele>102.9</ele>
        <time>2020-06-18T09:03:21Z</time>
      </trkpt>
      <trkpt lat="49.77362" lon="0.56281">
        <ele>103</ele>
        <time>2020-06-18T09:03:22Z</time>
      </trkpt>
      <trkpt lat="49.77365" lon="0.5629">
        <ele>103.1</ele>
        <time>2020-06-18T09:03:23Z</time>
      </trkpt>
      <trkpt lat="49.77367" lon="0.56299">
        <ele>103.2</ele>
        <time>2020-06-18T09:03:24Z</time>
      </trkpt>
      <trkpt lat="49.7737" lon="0.56307">
        <ele>103.3</ele>
        <time>2020-06-18T09:03:25Z</time>
      </trkpt>
      <trkpt lat="49.77372" lon="0.56316">
        <ele>103.3</ele>
        <time>2020-06-18T09:03:26Z</time>
      </trkpt>
      <trkpt lat="49.77375" lon="0.56325">
        <ele>103.4</ele>
        <time>2020-06-18T09:03:27Z</time>
      </trkpt>
      <trkpt lat="49.77377" lon="0.56334">
        <ele>103.5</ele>
        <time>2020-06-18T09:03:28Z</time>
      </trkpt>
      <trkpt lat="49.7738" lon="0.56343">
        <ele>103.6</ele>
        <time>2020-06-18T09:03:29Z</time>
      </trkpt>
      <trkpt lat="49.77382" lon="0.56352">
        <ele>103.7</ele>
        <time>2020-06-18T09:03:30Z</time>
      </trkpt>
      <trkpt lat="49.77384" lon="0.56361">
        <ele>103.8</ele>
        <time>2020-06-18T09:03:31Z</time>
      </trkpt>
      <trkpt lat="49.77387" lon="0.5637">
        <ele>103.9</ele>
        <time>2020-06-18T09:03:32Z</time>
      </trkpt>
      <trkpt lat="49.7739" lon="0.56378">
        <ele>104</ele>
        <time>2020-06-18T09:03:33Z</time>
      </trkpt>
      <trkpt lat="49.77392" lon="0.56387">
        <ele>104.1</ele>
        <time>2020-06-18T09:03:34Z</time>
      </trkpt>
      <trkpt lat="49.77396" lon="0.56394">
        <ele>104.2</ele>
        <time>2020-06-18T09:03:35Z</time>
      </trkpt>
      <trkpt lat="49.774" lon="0.56401">
        <ele>104.3</ele>
        <time>2020-06-18T09:03:36Z</time>
      </trkpt>
      <trkpt lat="49.77403" lon="0.56408">
        <ele>104.3</ele>
        <time>2020-06-18T09:03:37Z</time>
      </trkpt>
      <trkpt lat="49.77407" lon="0.56415">
        <ele>104.4</ele>
        <time>2020-06-18T09:03:38Z</time>
      </trkpt>
      <trkpt lat="49.7741" lon="0.56422">
        <ele>104.6</ele>
        <time>2020-06-18T09:03:39Z</time>
      </trkpt>
      <trkpt lat="49.77414" lon="0.56429">
        <ele>104.7</ele>
        <time>2020-06-18T09:03:40Z</time>
      </trkpt>
      <trkpt lat="49.77418" lon="0.56436">
        <ele>104.8</ele>
        <time>2020-06-18T09:03:41Z</time>
      </trkpt>
      <trkpt lat="49.77422" lon="0.56445">
        <ele>105</ele>
        <time>2020-06-18T09:03:42Z</time>
      </trkpt>
      <trkpt lat="49.77426" lon="0.56453">
        <ele>105.2</ele>
        <time>2020-06-18T09:03:43Z</time>
      </trkpt>
      <trkpt lat="49.77429" lon="0.56461">
        <ele>105.4</ele>
        <time>2020-06-18T09:03:44Z</time>
      </trkpt>
      <trkpt lat="49.77431" lon="0.56469">
        <ele>105.8</ele>
        <time>2020-06-18T09:03:45Z</time>
      </trkpt>
      <trkpt lat="49.77433" lon="0.56478">
        <ele>106.2</ele>
        <time>2020-06-18T09:03:46Z</time>
      </trkpt>
      <trkpt lat="49.77434" lon="0.56487">
        <ele>106.5</ele>
        <time>2020-06-18T09:03:47Z</time>
      </trkpt>
      <trkpt lat="49.77436" lon="0.56496">
        <ele>106.7</ele>
        <time>2020-06-18T09:03:48Z</time>
      </trkpt>
      <trkpt lat="49.77437" lon="0.56505">
        <ele>106.8</ele>
        <time>2020-06-18T09:03:49Z</time>
      </trkpt>
      <trkpt lat="49.77439" lon="0.56512">
        <ele>107</ele>
        <time>2020-06-18T09:03:50Z</time>
      </trkpt>
      <trkpt lat="49.77441" lon="0.56519">
        <ele>107.1</ele>
        <time>2020-06-18T09:03:51Z</time>
      </trkpt>
      <trkpt lat="49.77443" lon="0.56528">
        <ele>107.3</ele>
        <time>2020-06-18T09:03:52Z</time>
      </trkpt>
      <trkpt lat="49.77445" lon="0.56535">
        <ele>107.5</ele>
        <time>2020-06-18T09:03:53Z</time>
      </trkpt>
      <trkpt lat="49.77447" lon="0.56543">
        <ele>107.7</ele>
        <time>2020-06-18T09:03:54Z</time>
      </trkpt>
      <trkpt lat="49.77449" lon="0.56551">
        <ele>107.8</ele>
        <time>2020-06-18T09:03:55Z</time>
      </trkpt>
      <trkpt lat="49.77451" lon="0.5656">
        <ele>107.9</ele>
        <time>2020-06-18T09:03:56Z</time>
      </trkpt>
      <trkpt lat="49.77453" lon="0.56567">
        <ele>108.1</ele>
        <time>2020-06-18T09:03:57Z</time>
      </trkpt>
      <trkpt lat="49.77455" lon="0.56575">
        <ele>108.2</ele>
        <time>2020-06-18T09:03:58Z</time>
      </trkpt>
      <trkpt lat="49.77457" lon="0.56582">
        <ele>108.2</ele>
        <time>2020-06-18T09:03:59Z</time>
      </trkpt>
      <trkpt lat="49.77459" lon="0.5659">
        <ele>108.3</ele>
        <time>2020-06-18T09:04:00Z</time>
      </trkpt>
      <trkpt lat="49.77461" lon="0.56599">
        <ele>108.4</ele>
        <time>2020-06-18T09:04:01Z</time>
      </trkpt>
      <trkpt lat="49.77464" lon="0.56608">
        <ele>108.4</ele>
        <time>2020-06-18T09:04:02Z</time>
      </trkpt>
      <trkpt lat="49.77466" lon="0.56618">
        <ele>108.5</ele>
        <time>2020-06-18T09:04:03Z</time>
      </trkpt>
      <trkpt lat="49.77468" lon="0.56627">
        <ele>108.5</ele>
        <time>2020-06-18T09:04:04Z</time>
      </trkpt>
      <trkpt lat="49.7747" lon="0.56636">
        <ele>108.6</ele>
        <time>2020-06-18T09:04:05Z</time>
      </trkpt>
      <trkpt lat="49.77472" lon="0.56644">
        <ele>108.6</ele>
        <time>2020-06-18T09:04:06Z</time>
      </trkpt>
      <trkpt lat="49.77474" lon="0.56653">
        <ele>108.7</ele>
        <time>2020-06-18T09:04:07Z</time>
      </trkpt>
      <trkpt lat="49.77477" lon="0.56663">
        <ele>108.8</ele>
        <time>2020-06-18T09:04:08Z</time>
      </trkpt>
      <trkpt lat="49.77481" lon="0.56672">
        <ele>108.8</ele>
        <time>2020-06-18T09:04:09Z</time>
      </trkpt>
      <trkpt lat="49.77483" lon="0.5668">
        <ele>108.8</ele>
        <time>2020-06-18T09:04:10Z</time>
      </trkpt>
      <trkpt lat="49.77486" lon="0.56688">
        <ele>108.8</ele>
        <time>2020-06-18T09:04:11Z</time>
      </trkpt>
      <trkpt lat="49.77489" lon="0.56697">
        <ele>108.8</ele>
        <time>2020-06-18T09:04:12Z</time>
      </trkpt>
      <trkpt lat="49.77492" lon="0.56707">
        <ele>108.8</ele>
        <time>2020-06-18T09:04:13Z</time>
      </trkpt>
      <trkpt lat="49.77495" lon="0.56716">
        <ele>108.8</ele>
        <time>2020-06-18T09:04:14Z</time>
      </trkpt>
      <trkpt lat="49.77498" lon="0.56724">
        <ele>108.8</ele>
        <time>2020-06-18T09:04:15Z</time>
      </trkpt>
      <trkpt lat="49.77501" lon="0.56732">
        <ele>108.9</ele>
        <time>2020-06-18T09:04:16Z</time>
      </trkpt>
      <trkpt lat="49.77503" lon="0.56741">
        <ele>108.9</ele>
        <time>2020-06-18T09:04:17Z</time>
      </trkpt>
      <trkpt lat="49.77507" lon="0.5675">
        <ele>109</ele>
        <time>2020-06-18T09:04:18Z</time>
      </trkpt>
      <trkpt lat="49.7751" lon="0.56758">
        <ele>109</ele>
        <time>2020-06-18T09:04:19Z</time>
      </trkpt>
      <trkpt lat="49.77513" lon="0.56767">
        <ele>109.1</ele>
        <time>2020-06-18T09:04:20Z</time>
      </trkpt>
      <trkpt lat="49.77517" lon="0.56776">
        <ele>109.2</ele>
        <time>2020-06-18T09:04:21Z</time>
      </trkpt>
      <trkpt lat="49.77521" lon="0.56784">
        <ele>109.3</ele>
        <time>2020-06-18T09:04:22Z</time>
      </trkpt>
      <trkpt lat="49.77524" lon="0.56792">
        <ele>109.4</ele>
        <time>2020-06-18T09:04:23Z</time>
      </trkpt>
      <trkpt lat="49.77528" lon="0.56801">
        <ele>109.4</ele>
        <time>2020-06-18T09:04:24Z</time>
      </trkpt>
      <trkpt lat="49.77531" lon="0.56809">
        <ele>109.5</ele>
        <time>2020-06-18T09:04:25Z</time>
      </trkpt>
      <trkpt lat="49.77535" lon="0.56817">
        <ele>109.6</ele>
        <time>2020-06-18T09:04:26Z</time>
      </trkpt>
      <trkpt lat="49.77539" lon="0.56825">
        <ele>109.6</ele>
        <time>2020-06-18T09:04:27Z</time>
      </trkpt>
      <trkpt lat="49.77542" lon="0.56833">
        <ele>109.7</ele>
        <time>2020-06-18T09:04:28Z</time>
      </trkpt>
      <trkpt lat="49.77546" lon="0.56841">
        <ele>109.7</ele>
        <time>2020-06-18T09:04:29Z</time>
      </trkpt>
      <trkpt lat="49.7755" lon="0.5685">
        <ele>109.8</ele>
        <time>2020-06-18T09:04:30Z</time>
      </trkpt>
      <trkpt lat="49.77553" lon="0.56859">
        <ele>109.8</ele>
        <time>2020-06-18T09:04:31Z</time>
      </trkpt>
      <trkpt lat="49.77557" lon="0.56869">
        <ele>109.9</ele>
        <time>2020-06-18T09:04:32Z</time>
      </trkpt>
      <trkpt lat="49.77561" lon="0.56878">
        <ele>109.9</ele>
        <time>2020-06-18T09:04:33Z</time>
      </trkpt>
      <trkpt lat="49.77565" lon="0.56887">
        <ele>109.9</ele>
        <time>2020-06-18T09:04:34Z</time>
      </trkpt>
      <trkpt lat="49.77568" lon="0.56896">
        <ele>110</ele>
        <time>2020-06-18T09:04:35Z</time>
      </trkpt>
      <trkpt lat="49.77572" lon="0.56905">
        <ele>109.9</ele>
        <time>2020-06-18T09:04:36Z</time>
      </trkpt>
      <trkpt lat="49.77575" lon="0.56914">
        <ele>109.9</ele>
        <time>2020-06-18T09:04:37Z</time>
      </trkpt>
      <trkpt lat="49.77578" lon="0.56923">
        <ele>109.9</ele>
        <time>2020-06-18T09:04:38Z</time>
      </trkpt>
      <trkpt lat="49.77581" lon="0.56933">
        <ele>109.9</ele>
        <time>2020-06-18T09:04:39Z</time>
      </trkpt>
      <trkpt lat="49.77583" lon="0.56943">
        <ele>109.9</ele>
        <time>2020-06-18T09:04:40Z</time>
      </trkpt>
      <trkpt lat="49.77585" lon="0.56953">
        <ele>110</ele>
        <time>2020-06-18T09:04:41Z</time>
      </trkpt>
      <trkpt lat="49.77587" lon="0.56963">
        <ele>110</ele>
        <time>2020-06-18T09:04:42Z</time>
      </trkpt>
      <trkpt lat="49.77589" lon="0.56974">
        <ele>110</ele>
        <time>2020-06-18T09:04:43Z</time>
      </trkpt>
      <trkpt lat="49.77591" lon="0.56984">
        <ele>110.1</ele>
        <time>2020-06-18T09:04:44Z</time>
      </trkpt>
      <trkpt lat="49.77594" lon="0.56995">
        <ele>110.1</ele>
        <time>2020-06-18T09:04:45Z</time>
      </trkpt>
      <trkpt lat="49.77596" lon="0.57005">
        <ele>110.1</ele>
        <time>2020-06-18T09:04:46Z</time>
      </trkpt>
      <trkpt lat="49.77598" lon="0.57016">
        <ele>110</ele>
        <time>2020-06-18T09:04:47Z</time>
      </trkpt>
      <trkpt lat="49.776" lon="0.57026">
        <ele>110</ele>
        <time>2020-06-18T09:04:48Z</time>
      </trkpt>
      <trkpt lat="49.77603" lon="0.57036">
        <ele>110</ele>
        <time>2020-06-18T09:04:49Z</time>
      </trkpt>
      <trkpt lat="49.77605" lon="0.57046">
        <ele>110</ele>
        <time>2020-06-18T09:04:50Z</time>
      </trkpt>
      <trkpt lat="49.77608" lon="0.57056">
        <ele>110</ele>
        <time>2020-06-18T09:04:51Z</time>
      </trkpt>
      <trkpt lat="49.7761" lon="0.57066">
        <ele>110</ele>
        <time>2020-06-18T09:04:52Z</time>
      </trkpt>
      <trkpt lat="49.77613" lon="0.57075">
        <ele>110</ele>
        <time>2020-06-18T09:04:53Z</time>
      </trkpt>
      <trkpt lat="49.77615" lon="0.57086">
        <ele>110</ele>
        <time>2020-06-18T09:04:54Z</time>
      </trkpt>
      <trkpt lat="49.77618" lon="0.57095">
        <ele>110</ele>
        <time>2020-06-18T09:04:55Z</time>
      </trkpt>
      <trkpt lat="49.77621" lon="0.57105">
        <ele>109.9</ele>
        <time>2020-06-18T09:04:56Z</time>
      </trkpt>
      <trkpt lat="49.77623" lon="0.57116">
        <ele>109.9</ele>
        <time>2020-06-18T09:04:57Z</time>
      </trkpt>
      <trkpt lat="49.77626" lon="0.57126">
        <ele>109.9</ele>
        <time>2020-06-18T09:04:58Z</time>
      </trkpt>
      <trkpt lat="49.77629" lon="0.57135">
        <ele>109.9</ele>
        <time>2020-06-18T09:04:59Z</time>
      </trkpt>
      <trkpt lat="49.77633" lon="0.57145">
        <ele>109.9</ele>
        <time>2020-06-18T09:05:00Z</time>
      </trkpt>
      <trkpt lat="49.77635" lon="0.57155">
        <ele>109.9</ele>
        <time>2020-06-18T09:05:01Z</time>
      </trkpt>
      <trkpt lat="49.77638" lon="0.57165">
        <ele>109.9</ele>
        <time>2020-06-18T09:05:02Z</time>
      </trkpt>
      <trkpt lat="49.77642" lon="0.57175">
        <ele>109.9</ele>
        <time>2020-06-18T09:05:03Z</time>
      </trkpt>
      <trkpt lat="49.77646" lon="0.57183">
        <ele>109.8</ele>
        <time>2020-06-18T09:05:04Z</time>
      </trkpt>
      <trkpt lat="49.77649" lon="0.57192">
        <ele>109.8</ele>
        <time>2020-06-18T09:05:05Z</time>
      </trkpt>
      <trkpt lat="49.77652" lon="0.57202">
        <ele>109.8</ele>
        <time>2020-06-18T09:05:06Z</time>
      </trkpt>
      <trkpt lat="49.77654" lon="0.57212">
        <ele>109.7</ele>
        <time>2020-06-18T09:05:07Z</time>
      </trkpt>
      <trkpt lat="49.77657" lon="0.57222">
        <ele>109.7</ele>
        <time>2020-06-18T09:05:08Z</time>
      </trkpt>
      <trkpt lat="49.7766" lon="0.57232">
        <ele>109.7</ele>
        <time>2020-06-18T09:05:09Z</time>
      </trkpt>
      <trkpt lat="49.77663" lon="0.57241">
        <ele>109.6</ele>
        <time>2020-06-18T09:05:10Z</time>
      </trkpt>
      <trkpt lat="49.77667" lon="0.5725">
        <ele>109.6</ele>
        <time>2020-06-18T09:05:11Z</time>
      </trkpt>
      <trkpt lat="49.7767" lon="0.57259">
        <ele>109.5</ele>
        <time>2020-06-18T09:05:12Z</time>
      </trkpt>
      <trkpt lat="49.77673" lon="0.57269">
        <ele>109.5</ele>
        <time>2020-06-18T09:05:13Z</time>
      </trkpt>
      <trkpt lat="49.77676" lon="0.57278">
        <ele>109.4</ele>
        <time>2020-06-18T09:05:14Z</time>
      </trkpt>
      <trkpt lat="49.77679" lon="0.57288">
        <ele>109.3</ele>
        <time>2020-06-18T09:05:15Z</time>
      </trkpt>
      <trkpt lat="49.77683" lon="0.57296">
        <ele>109.2</ele>
        <time>2020-06-18T09:05:16Z</time>
      </trkpt>
      <trkpt lat="49.77687" lon="0.57305">
        <ele>109.3</ele>
        <time>2020-06-18T09:05:17Z</time>
      </trkpt>
      <trkpt lat="49.7769" lon="0.57314">
        <ele>109.2</ele>
        <time>2020-06-18T09:05:18Z</time>
      </trkpt>
      <trkpt lat="49.77693" lon="0.57324">
        <ele>109.2</ele>
        <time>2020-06-18T09:05:19Z</time>
      </trkpt>
      <trkpt lat="49.77697" lon="0.57333">
        <ele>109.2</ele>
        <time>2020-06-18T09:05:20Z</time>
      </trkpt>
      <trkpt lat="49.77701" lon="0.57342">
        <ele>109.2</ele>
        <time>2020-06-18T09:05:21Z</time>
      </trkpt>
      <trkpt lat="49.77705" lon="0.5735">
        <ele>109.2</ele>
        <time>2020-06-18T09:05:22Z</time>
      </trkpt>
      <trkpt lat="49.77709" lon="0.57359">
        <ele>109.1</ele>
        <time>2020-06-18T09:05:23Z</time>
      </trkpt>
      <trkpt lat="49.77712" lon="0.57368">
        <ele>109.1</ele>
        <time>2020-06-18T09:05:24Z</time>
      </trkpt>
      <trkpt lat="49.77716" lon="0.57377">
        <ele>109</ele>
        <time>2020-06-18T09:05:25Z</time>
      </trkpt>
      <trkpt lat="49.7772" lon="0.57386">
        <ele>108.9</ele>
        <time>2020-06-18T09:05:26Z</time>
      </trkpt>
      <trkpt lat="49.77724" lon="0.57396">
        <ele>108.9</ele>
        <time>2020-06-18T09:05:27Z</time>
      </trkpt>
      <trkpt lat="49.77728" lon="0.57406">
        <ele>108.8</ele>
        <time>2020-06-18T09:05:28Z</time>
      </trkpt>
      <trkpt lat="49.77732" lon="0.57415">
        <ele>108.8</ele>
        <time>2020-06-18T09:05:29Z</time>
      </trkpt>
      <trkpt lat="49.77736" lon="0.57424">
        <ele>108.7</ele>
        <time>2020-06-18T09:05:30Z</time>
      </trkpt>
      <trkpt lat="49.7774" lon="0.57434">
        <ele>108.7</ele>
        <time>2020-06-18T09:05:31Z</time>
      </trkpt>
      <trkpt lat="49.77744" lon="0.57443">
        <ele>108.6</ele>
        <time>2020-06-18T09:05:32Z</time>
      </trkpt>
      <trkpt lat="49.77748" lon="0.57452">
        <ele>108.5</ele>
        <time>2020-06-18T09:05:33Z</time>
      </trkpt>
      <trkpt lat="49.77752" lon="0.57462">
        <ele>108.4</ele>
        <time>2020-06-18T09:05:34Z</time>
      </trkpt>
      <trkpt lat="49.77756" lon="0.57472">
        <ele>108.4</ele>
        <time>2020-06-18T09:05:35Z</time>
      </trkpt>
      <trkpt lat="49.7776" lon="0.57481">
        <ele>108.3</ele>
        <time>2020-06-18T09:05:36Z</time>
      </trkpt>
      <trkpt lat="49.77764" lon="0.57491">
        <ele>108.3</ele>
        <time>2020-06-18T09:05:37Z</time>
      </trkpt>
      <trkpt lat="49.77768" lon="0.575">
        <ele>108.2</ele>
        <time>2020-06-18T09:05:38Z</time>
      </trkpt>
      <trkpt lat="49.77772" lon="0.5751">
        <ele>108.1</ele>
        <time>2020-06-18T09:05:39Z</time>
      </trkpt>
      <trkpt lat="49.77776" lon="0.5752">
        <ele>108</ele>
        <time>2020-06-18T09:05:40Z</time>
      </trkpt>
      <trkpt lat="49.7778" lon="0.5753">
        <ele>108</ele>
        <time>2020-06-18T09:05:41Z</time>
      </trkpt>
      <trkpt lat="49.77784" lon="0.5754">
        <ele>107.9</ele>
        <time>2020-06-18T09:05:42Z</time>
      </trkpt>
      <trkpt lat="49.77788" lon="0.57549">
        <ele>107.9</ele>
        <time>2020-06-18T09:05:43Z</time>
      </trkpt>
      <trkpt lat="49.77792" lon="0.57559">
        <ele>107.9</ele>
        <time>2020-06-18T09:05:44Z</time>
      </trkpt>
      <trkpt lat="49.77796" lon="0.57569">
        <ele>107.9</ele>
        <time>2020-06-18T09:05:45Z</time>
      </trkpt>
      <trkpt lat="49.778" lon="0.57579">
        <ele>107.9</ele>
        <time>2020-06-18T09:05:46Z</time>
      </trkpt>
      <trkpt lat="49.77804" lon="0.57589">
        <ele>107.9</ele>
        <time>2020-06-18T09:05:47Z</time>
      </trkpt>
      <trkpt lat="49.77808" lon="0.576">
        <ele>107.9</ele>
        <time>2020-06-18T09:05:48Z</time>
      </trkpt>
      <trkpt lat="49.77812" lon="0.5761">
        <ele>107.8</ele>
        <time>2020-06-18T09:05:49Z</time>
      </trkpt>
      <trkpt lat="49.77815" lon="0.5762">
        <ele>107.8</ele>
        <time>2020-06-18T09:05:50Z</time>
      </trkpt>
      <trkpt lat="49.77819" lon="0.5763">
        <ele>107.8</ele>
        <time>2020-06-18T09:05:51Z</time>
      </trkpt>
      <trkpt lat="49.77823" lon="0.57641">
        <ele>107.8</ele>
        <time>2020-06-18T09:05:52Z</time>
      </trkpt>
      <trkpt lat="49.77826" lon="0.57652">
        <ele>107.8</ele>
        <time>2020-06-18T09:05:53Z</time>
      </trkpt>
      <trkpt lat="49.77829" lon="0.57662">
        <ele>107.9</ele>
        <time>2020-06-18T09:05:54Z</time>
      </trkpt>
      <trkpt lat="49.77832" lon="0.57673">
        <ele>107.9</ele>
        <time>2020-06-18T09:05:55Z</time>
      </trkpt>
      <trkpt lat="49.77836" lon="0.57682">
        <ele>107.9</ele>
        <time>2020-06-18T09:05:56Z</time>
      </trkpt>
      <trkpt lat="49.77839" lon="0.57693">
        <ele>107.9</ele>
        <time>2020-06-18T09:05:57Z</time>
      </trkpt>
      <trkpt lat="49.77841" lon="0.57703">
        <ele>107.9</ele>
        <time>2020-06-18T09:05:58Z</time>
      </trkpt>
      <trkpt lat="49.77844" lon="0.57714">
        <ele>108</ele>
        <time>2020-06-18T09:05:59Z</time>
      </trkpt>
      <trkpt lat="49.77847" lon="0.57725">
        <ele>108.1</ele>
        <time>2020-06-18T09:06:00Z</time>
      </trkpt>
      <trkpt lat="49.77849" lon="0.57736">
        <ele>108.2</ele>
        <time>2020-06-18T09:06:01Z</time>
      </trkpt>
      <trkpt lat="49.77852" lon="0.57747">
        <ele>108.3</ele>
        <time>2020-06-18T09:06:02Z</time>
      </trkpt>
      <trkpt lat="49.77855" lon="0.57757">
        <ele>108.4</ele>
        <time>2020-06-18T09:06:03Z</time>
      </trkpt>
      <trkpt lat="49.77858" lon="0.57768">
        <ele>108.5</ele>
        <time>2020-06-18T09:06:04Z</time>
      </trkpt>
      <trkpt lat="49.77862" lon="0.57779">
        <ele>108.5</ele>
        <time>2020-06-18T09:06:05Z</time>
      </trkpt>
      <trkpt lat="49.77865" lon="0.5779">
        <ele>108.6</ele>
        <time>2020-06-18T09:06:06Z</time>
      </trkpt>
      <trkpt lat="49.77868" lon="0.57801">
        <ele>108.7</ele>
        <time>2020-06-18T09:06:07Z</time>
      </trkpt>
      <trkpt lat="49.77871" lon="0.57812">
        <ele>108.7</ele>
        <time>2020-06-18T09:06:08Z</time>
      </trkpt>
      <trkpt lat="49.77874" lon="0.57823">
        <ele>108.8</ele>
        <time>2020-06-18T09:06:09Z</time>
      </trkpt>
      <trkpt lat="49.77877" lon="0.57834">
        <ele>108.9</ele>
        <time>2020-06-18T09:06:10Z</time>
      </trkpt>
      <trkpt lat="49.7788" lon="0.57845">
        <ele>109</ele>
        <time>2020-06-18T09:06:11Z</time>
      </trkpt>
      <trkpt lat="49.77883" lon="0.57856">
        <ele>109.2</ele>
        <time>2020-06-18T09:06:12Z</time>
      </trkpt>
      <trkpt lat="49.77886" lon="0.57867">
        <ele>109.3</ele>
        <time>2020-06-18T09:06:13Z</time>
      </trkpt>
      <trkpt lat="49.77889" lon="0.57878">
        <ele>109.4</ele>
        <time>2020-06-18T09:06:14Z</time>
      </trkpt>
      <trkpt lat="49.77892" lon="0.57889">
        <ele>109.5</ele>
        <time>2020-06-18T09:06:15Z</time>
      </trkpt>
      <trkpt lat="49.77895" lon="0.579">
        <ele>109.6</ele>
        <time>2020-06-18T09:06:16Z</time>
      </trkpt>
      <trkpt lat="49.77898" lon="0.57911">
        <ele>109.8</ele>
        <time>2020-06-18T09:06:17Z</time>
      </trkpt>
      <trkpt lat="49.77901" lon="0.57921">
        <ele>109.8</ele>
        <time>2020-06-18T09:06:18Z</time>
      </trkpt>
      <trkpt lat="49.77905" lon="0.57932">
        <ele>109.9</ele>
        <time>2020-06-18T09:06:19Z</time>
      </trkpt>
      <trkpt lat="49.77908" lon="0.57943">
        <ele>110</ele>
        <time>2020-06-18T09:06:20Z</time>
      </trkpt>
      <trkpt lat="49.77911" lon="0.57953">
        <ele>110.1</ele>
        <time>2020-06-18T09:06:21Z</time>
      </trkpt>
      <trkpt lat="49.77915" lon="0.57964">
        <ele>110.2</ele>
        <time>2020-06-18T09:06:22Z</time>
      </trkpt>
      <trkpt lat="49.77919" lon="0.57973">
        <ele>110.3</ele>
        <time>2020-06-18T09:06:23Z</time>
      </trkpt>
      <trkpt lat="49.77922" lon="0.57983">
        <ele>110.4</ele>
        <time>2020-06-18T09:06:24Z</time>
      </trkpt>
      <trkpt lat="49.77927" lon="0.57993">
        <ele>110.5</ele>
        <time>2020-06-18T09:06:25Z</time>
      </trkpt>
      <trkpt lat="49.77931" lon="0.58003">
        <ele>110.5</ele>
        <time>2020-06-18T09:06:26Z</time>
      </trkpt>
      <trkpt lat="49.77935" lon="0.58012">
        <ele>110.5</ele>
        <time>2020-06-18T09:06:27Z</time>
      </trkpt>
      <trkpt lat="49.77939" lon="0.58022">
        <ele>110.5</ele>
        <time>2020-06-18T09:06:28Z</time>
      </trkpt>
      <trkpt lat="49.77943" lon="0.58032">
        <ele>110.5</ele>
        <time>2020-06-18T09:06:29Z</time>
      </trkpt>
      <trkpt lat="49.77948" lon="0.58041">
        <ele>110.5</ele>
        <time>2020-06-18T09:06:30Z</time>
      </trkpt>
      <trkpt lat="49.77952" lon="0.5805">
        <ele>110.5</ele>
        <time>2020-06-18T09:06:31Z</time>
      </trkpt>
      <trkpt lat="49.77957" lon="0.58059">
        <ele>110.6</ele>
        <time>2020-06-18T09:06:32Z</time>
      </trkpt>
      <trkpt lat="49.77962" lon="0.58068">
        <ele>110.6</ele>
        <time>2020-06-18T09:06:33Z</time>
      </trkpt>
      <trkpt lat="49.77967" lon="0.58076">
        <ele>110.6</ele>
        <time>2020-06-18T09:06:34Z</time>
      </trkpt>
      <trkpt lat="49.77972" lon="0.58084">
        <ele>110.6</ele>
        <time>2020-06-18T09:06:35Z</time>
      </trkpt>
      <trkpt lat="49.77977" lon="0.58092">
        <ele>110.5</ele>
        <time>2020-06-18T09:06:36Z</time>
      </trkpt>
      <trkpt lat="49.77983" lon="0.581">
        <ele>110.5</ele>
        <time>2020-06-18T09:06:37Z</time>
      </trkpt>
      <trkpt lat="49.77988" lon="0.58108">
        <ele>110.4</ele>
        <time>2020-06-18T09:06:38Z</time>
      </trkpt>
      <trkpt lat="49.77994" lon="0.58115">
        <ele>110.3</ele>
        <time>2020-06-18T09:06:39Z</time>
      </trkpt>
      <trkpt lat="49.77999" lon="0.58123">
        <ele>110.2</ele>
        <time>2020-06-18T09:06:40Z</time>
      </trkpt>
      <trkpt lat="49.78004" lon="0.5813">
        <ele>110.1</ele>
        <time>2020-06-18T09:06:41Z</time>
      </trkpt>
      <trkpt lat="49.7801" lon="0.58138">
        <ele>110</ele>
        <time>2020-06-18T09:06:42Z</time>
      </trkpt>
      <trkpt lat="49.78015" lon="0.58145">
        <ele>109.9</ele>
        <time>2020-06-18T09:06:43Z</time>
      </trkpt>
      <trkpt lat="49.78021" lon="0.58152">
        <ele>109.8</ele>
        <time>2020-06-18T09:06:44Z</time>
      </trkpt>
      <trkpt lat="49.78026" lon="0.58159">
        <ele>109.8</ele>
        <time>2020-06-18T09:06:45Z</time>
      </trkpt>
      <trkpt lat="49.78031" lon="0.58166">
        <ele>109.7</ele>
        <time>2020-06-18T09:06:46Z</time>
      </trkpt>
      <trkpt lat="49.78036" lon="0.58174">
        <ele>109.6</ele>
        <time>2020-06-18T09:06:47Z</time>
      </trkpt>
      <trkpt lat="49.78041" lon="0.58181">
        <ele>109.5</ele>
        <time>2020-06-18T09:06:48Z</time>
      </trkpt>
      <trkpt lat="49.78046" lon="0.58188">
        <ele>109.4</ele>
        <time>2020-06-18T09:06:49Z</time>
      </trkpt>
      <trkpt lat="49.78052" lon="0.58195">
        <ele>109.4</ele>
        <time>2020-06-18T09:06:50Z</time>
      </trkpt>
      <trkpt lat="49.78057" lon="0.58202">
        <ele>109.3</ele>
        <time>2020-06-18T09:06:51Z</time>
      </trkpt>
      <trkpt lat="49.78062" lon="0.58209">
        <ele>109.2</ele>
        <time>2020-06-18T09:06:52Z</time>
      </trkpt>
      <trkpt lat="49.78066" lon="0.58216">
        <ele>109.2</ele>
        <time>2020-06-18T09:06:53Z</time>
      </trkpt>
      <trkpt lat="49.78071" lon="0.58223">
        <ele>109.2</ele>
        <time>2020-06-18T09:06:54Z</time>
      </trkpt>
      <trkpt lat="49.78076" lon="0.5823">
        <ele>109.2</ele>
        <time>2020-06-18T09:06:55Z</time>
      </trkpt>
      <trkpt lat="49.7808" lon="0.58236">
        <ele>109.2</ele>
        <time>2020-06-18T09:06:56Z</time>
      </trkpt>
      <trkpt lat="49.78085" lon="0.58242">
        <ele>109.2</ele>
        <time>2020-06-18T09:06:57Z</time>
      </trkpt>
      <trkpt lat="49.7809" lon="0.58249">
        <ele>109.2</ele>
        <time>2020-06-18T09:06:58Z</time>
      </trkpt>
      <trkpt lat="49.78094" lon="0.58255">
        <ele>109.2</ele>
        <time>2020-06-18T09:06:59Z</time>
      </trkpt>
      <trkpt lat="49.78099" lon="0.58261">
        <ele>109.2</ele>
        <time>2020-06-18T09:07:00Z</time>
      </trkpt>
      <trkpt lat="49.78104" lon="0.58268">
        <ele>109.2</ele>
        <time>2020-06-18T09:07:01Z</time>
      </trkpt>
      <trkpt lat="49.78109" lon="0.58274">
        <ele>109.2</ele>
        <time>2020-06-18T09:07:02Z</time>
      </trkpt>
      <trkpt lat="49.78114" lon="0.58281">
        <ele>109.2</ele>
        <time>2020-06-18T09:07:03Z</time>
      </trkpt>
      <trkpt lat="49.78119" lon="0.58287">
        <ele>109.2</ele>
        <time>2020-06-18T09:07:04Z</time>
      </trkpt>
      <trkpt lat="49.78124" lon="0.58294">
        <ele>109.2</ele>
        <time>2020-06-18T09:07:05Z</time>
      </trkpt>
      <trkpt lat="49.78129" lon="0.58301">
        <ele>109.2</ele>
        <time>2020-06-18T09:07:06Z</time>
      </trkpt>
      <trkpt lat="49.78134" lon="0.58307">
        <ele>109.1</ele>
        <time>2020-06-18T09:07:07Z</time>
      </trkpt>
      <trkpt lat="49.78138" lon="0.58314">
        <ele>109.1</ele>
        <time>2020-06-18T09:07:08Z</time>
      </trkpt>
      <trkpt lat="49.78142" lon="0.58321">
        <ele>109.1</ele>
        <time>2020-06-18T09:07:09Z</time>
      </trkpt>
      <trkpt lat="49.78147" lon="0.58328">
        <ele>109.1</ele>
        <time>2020-06-18T09:07:10Z</time>
      </trkpt>
      <trkpt lat="49.78151" lon="0.58334">
        <ele>109.2</ele>
        <time>2020-06-18T09:07:11Z</time>
      </trkpt>
      <trkpt lat="49.78155" lon="0.5834">
        <ele>109.2</ele>
        <time>2020-06-18T09:07:12Z</time>
      </trkpt>
      <trkpt lat="49.7816" lon="0.58346">
        <ele>109.1</ele>
        <time>2020-06-18T09:07:13Z</time>
      </trkpt>
      <trkpt lat="49.78164" lon="0.58352">
        <ele>109.1</ele>
        <time>2020-06-18T09:07:14Z</time>
      </trkpt>
      <trkpt lat="49.78169" lon="0.58358">
        <ele>109.1</ele>
        <time>2020-06-18T09:07:15Z</time>
      </trkpt>
      <trkpt lat="49.78173" lon="0.58363">
        <ele>109.1</ele>
        <time>2020-06-18T09:07:16Z</time>
      </trkpt>
      <trkpt lat="49.78177" lon="0.5837">
        <ele>109.2</ele>
        <time>2020-06-18T09:07:17Z</time>
      </trkpt>
      <trkpt lat="49.78181" lon="0.58375">
        <ele>109.2</ele>
        <time>2020-06-18T09:07:18Z</time>
      </trkpt>
      <trkpt lat="49.78185" lon="0.5838">
        <ele>109.3</ele>
        <time>2020-06-18T09:07:19Z</time>
      </trkpt>
      <trkpt lat="49.78189" lon="0.58385">
        <ele>109.3</ele>
        <time>2020-06-18T09:07:20Z</time>
      </trkpt>
      <trkpt lat="49.78193" lon="0.58389">
        <ele>109.4</ele>
        <time>2020-06-18T09:07:21Z</time>
      </trkpt>
      <trkpt lat="49.78195" lon="0.58395">
        <ele>109.4</ele>
        <time>2020-06-18T09:07:22Z</time>
      </trkpt>
      <trkpt lat="49.78197" lon="0.58401">
        <ele>109.4</ele>
        <time>2020-06-18T09:07:23Z</time>
      </trkpt>
      <trkpt lat="49.78198" lon="0.58408">
        <ele>109.5</ele>
        <time>2020-06-18T09:07:24Z</time>
      </trkpt>
      <trkpt lat="49.78198" lon="0.58415">
        <ele>109.5</ele>
        <time>2020-06-18T09:07:25Z</time>
      </trkpt>
      <trkpt lat="49.78198" lon="0.58421">
        <ele>109.8</ele>
        <time>2020-06-18T09:07:26Z</time>
      </trkpt>
      <trkpt lat="49.78199" lon="0.58426">
        <ele>109.8</ele>
        <time>2020-06-18T09:07:27Z</time>
      </trkpt>
      <trkpt lat="49.78201" lon="0.5843">
        <ele>109.9</ele>
        <time>2020-06-18T09:07:28Z</time>
      </trkpt>
      <trkpt lat="49.78202" lon="0.58433">
        <ele>109.9</ele>
        <time>2020-06-18T09:07:29Z</time>
      </trkpt>
      <trkpt lat="49.78206" lon="0.58433">
        <ele>110</ele>
        <time>2020-06-18T09:07:30Z</time>
      </trkpt>
      <trkpt lat="49.78208" lon="0.58432">
        <ele>110</ele>
        <time>2020-06-18T09:07:31Z</time>
      </trkpt>
      <trkpt lat="49.78211" lon="0.58431">
        <ele>110</ele>
        <time>2020-06-18T09:07:32Z</time>
      </trkpt>
      <trkpt lat="49.78214" lon="0.58431">
        <ele>110</ele>
        <time>2020-06-18T09:07:33Z</time>
      </trkpt>
      <trkpt lat="49.78217" lon="0.58431">
        <ele>110</ele>
        <time>2020-06-18T09:07:34Z</time>
      </trkpt>
      <trkpt lat="49.78218" lon="0.58431">
        <ele>110</ele>
        <time>2020-06-18T09:07:35Z</time>
      </trkpt>
      <trkpt lat="49.7822" lon="0.5843">
        <ele>110</ele>
        <time>2020-06-18T09:07:36Z</time>
      </trkpt>
      <trkpt lat="49.78221" lon="0.58429">
        <ele>110</ele>
        <time>2020-06-18T09:07:37Z</time>
      </trkpt>
      <trkpt lat="49.78221" lon="0.58426">
        <ele>110</ele>
        <time>2020-06-18T09:07:38Z</time>
      </trkpt>
      <trkpt lat="49.7822" lon="0.58424">
        <ele>110</ele>
        <time>2020-06-18T09:07:39Z</time>
      </trkpt>
      <trkpt lat="49.7822" lon="0.58423">
        <ele>110</ele>
        <time>2020-06-18T09:07:40Z</time>
      </trkpt>
      <trkpt lat="49.78217" lon="0.58422">
        <ele>110</ele>
        <time>2020-06-18T09:07:41Z</time>
      </trkpt>
      <trkpt lat="49.78216" lon="0.58422">
        <ele>110</ele>
        <time>2020-06-18T09:07:42Z</time>
      </trkpt>
      <trkpt lat="49.78212" lon="0.58423">
        <ele>110</ele>
        <time>2020-06-18T09:07:43Z</time>
      </trkpt>
      <trkpt lat="49.78211" lon="0.58424">
        <ele>110</ele>
        <time>2020-06-18T09:07:44Z</time>
      </trkpt>
      <trkpt lat="49.78209" lon="0.58424">
        <ele>110</ele>
        <time>2020-06-18T09:07:45Z</time>
      </trkpt>
      <trkpt lat="49.78208" lon="0.58425">
        <ele>110</ele>
        <time>2020-06-18T09:07:46Z</time>
      </trkpt>
      <trkpt lat="49.78207" lon="0.58425">
        <ele>110</ele>
        <time>2020-06-18T09:07:47Z</time>
      </trkpt>
      <trkpt lat="49.78206" lon="0.58426">
        <ele>110</ele>
        <time>2020-06-18T09:07:48Z</time>
      </trkpt>
      <trkpt lat="49.78205" lon="0.58426">
        <ele>110</ele>
        <time>2020-06-18T09:07:49Z</time>
      </trkpt>
      <trkpt lat="49.78204" lon="0.58427">
        <ele>110</ele>
        <time>2020-06-18T09:07:50Z</time>
      </trkpt>
      <trkpt lat="49.78203" lon="0.58428">
        <ele>110</ele>
        <time>2020-06-18T09:07:51Z</time>
      </trkpt>
      <trkpt lat="49.78201" lon="0.58428">
        <ele>110</ele>
        <time>2020-06-18T09:07:52Z</time>
      </trkpt>
      <trkpt lat="49.78199" lon="0.58433">
        <ele>110</ele>
        <time>2020-06-18T09:07:53Z</time>
      </trkpt>
      <trkpt lat="49.78199" lon="0.58435">
        <ele>110</ele>
        <time>2020-06-18T09:07:54Z</time>
      </trkpt>
      <trkpt lat="49.782" lon="0.58439">
        <ele>110</ele>
        <time>2020-06-18T09:07:55Z</time>
      </trkpt>
      <trkpt lat="49.782" lon="0.58444">
        <ele>110</ele>
        <time>2020-06-18T09:07:56Z</time>
      </trkpt>
      <trkpt lat="49.782" lon="0.5845">
        <ele>110</ele>
        <time>2020-06-18T09:07:57Z</time>
      </trkpt>
      <trkpt lat="49.78199" lon="0.58456">
        <ele>110</ele>
        <time>2020-06-18T09:07:58Z</time>
      </trkpt>
      <trkpt lat="49.78199" lon="0.58463">
        <ele>110</ele>
        <time>2020-06-18T09:07:59Z</time>
      </trkpt>
      <trkpt lat="49.78199" lon="0.5847">
        <ele>110</ele>
        <time>2020-06-18T09:08:00Z</time>
      </trkpt>
      <trkpt lat="49.78199" lon="0.58479">
        <ele>110</ele>
        <time>2020-06-18T09:08:01Z</time>
      </trkpt>
      <trkpt lat="49.782" lon="0.58487">
        <ele>110</ele>
        <time>2020-06-18T09:08:02Z</time>
      </trkpt>
      <trkpt lat="49.782" lon="0.58497">
        <ele>110</ele>
        <time>2020-06-18T09:08:03Z</time>
      </trkpt>
      <trkpt lat="49.782" lon="0.58506">
        <ele>110.1</ele>
        <time>2020-06-18T09:08:04Z</time>
      </trkpt>
      <trkpt lat="49.78201" lon="0.58515">
        <ele>110.1</ele>
        <time>2020-06-18T09:08:05Z</time>
      </trkpt>
      <trkpt lat="49.78201" lon="0.58525">
        <ele>110.1</ele>
        <time>2020-06-18T09:08:06Z</time>
      </trkpt>
      <trkpt lat="49.78201" lon="0.58535">
        <ele>110.2</ele>
        <time>2020-06-18T09:08:07Z</time>
      </trkpt>
      <trkpt lat="49.78202" lon="0.58545">
        <ele>110.3</ele>
        <time>2020-06-18T09:08:08Z</time>
      </trkpt>
      <trkpt lat="49.78203" lon="0.58554">
        <ele>110.3</ele>
        <time>2020-06-18T09:08:09Z</time>
      </trkpt>
      <trkpt lat="49.78204" lon="0.58564">
        <ele>110.4</ele>
        <time>2020-06-18T09:08:10Z</time>
      </trkpt>
      <trkpt lat="49.78205" lon="0.58574">
        <ele>110.5</ele>
        <time>2020-06-18T09:08:11Z</time>
      </trkpt>
      <trkpt lat="49.78206" lon="0.58585">
        <ele>110.5</ele>
        <time>2020-06-18T09:08:12Z</time>
      </trkpt>
      <trkpt lat="49.78207" lon="0.58595">
        <ele>110.6</ele>
        <time>2020-06-18T09:08:13Z</time>
      </trkpt>
      <trkpt lat="49.78207" lon="0.58606">
        <ele>110.6</ele>
        <time>2020-06-18T09:08:14Z</time>
      </trkpt>
      <trkpt lat="49.78208" lon="0.58618">
        <ele>110.7</ele>
        <time>2020-06-18T09:08:15Z</time>
      </trkpt>
      <trkpt lat="49.78208" lon="0.5863">
        <ele>110.7</ele>
        <time>2020-06-18T09:08:16Z</time>
      </trkpt>
      <trkpt lat="49.78209" lon="0.58645">
        <ele>110.8</ele>
        <time>2020-06-18T09:08:17Z</time>
      </trkpt>
      <trkpt lat="49.7821" lon="0.58656">
        <ele>110.8</ele>
        <time>2020-06-18T09:08:18Z</time>
      </trkpt>
      <trkpt lat="49.78211" lon="0.5867">
        <ele>110.8</ele>
        <time>2020-06-18T09:08:19Z</time>
      </trkpt>
      <trkpt lat="49.78211" lon="0.58682">
        <ele>110.9</ele>
        <time>2020-06-18T09:08:20Z</time>
      </trkpt>
      <trkpt lat="49.78211" lon="0.58693">
        <ele>110.9</ele>
        <time>2020-06-18T09:08:21Z</time>
      </trkpt>
      <trkpt lat="49.78212" lon="0.58705">
        <ele>110.9</ele>
        <time>2020-06-18T09:08:22Z</time>
      </trkpt>
      <trkpt lat="49.78212" lon="0.58717">
        <ele>110.9</ele>
        <time>2020-06-18T09:08:23Z</time>
      </trkpt>
      <trkpt lat="49.78213" lon="0.58728">
        <ele>111</ele>
        <time>2020-06-18T09:08:24Z</time>
      </trkpt>
      <trkpt lat="49.78213" lon="0.58739">
        <ele>111</ele>
        <time>2020-06-18T09:08:25Z</time>
      </trkpt>
      <trkpt lat="49.78213" lon="0.58751">
        <ele>111.1</ele>
        <time>2020-06-18T09:08:26Z</time>
      </trkpt>
      <trkpt lat="49.78214" lon="0.58762">
        <ele>111.1</ele>
        <time>2020-06-18T09:08:27Z</time>
      </trkpt>
      <trkpt lat="49.78214" lon="0.58773">
        <ele>111.1</ele>
        <time>2020-06-18T09:08:28Z</time>
      </trkpt>
      <trkpt lat="49.78215" lon="0.58784">
        <ele>111.2</ele>
        <time>2020-06-18T09:08:29Z</time>
      </trkpt>
      <trkpt lat="49.78215" lon="0.58796">
        <ele>111.2</ele>
        <time>2020-06-18T09:08:30Z</time>
      </trkpt>
      <trkpt lat="49.78216" lon="0.58807">
        <ele>111.2</ele>
        <time>2020-06-18T09:08:31Z</time>
      </trkpt>
      <trkpt lat="49.78216" lon="0.58819">
        <ele>111.2</ele>
        <time>2020-06-18T09:08:32Z</time>
      </trkpt>
      <trkpt lat="49.78217" lon="0.58831">
        <ele>111.2</ele>
        <time>2020-06-18T09:08:33Z</time>
      </trkpt>
      <trkpt lat="49.78219" lon="0.58842">
        <ele>111.2</ele>
        <time>2020-06-18T09:08:34Z</time>
      </trkpt>
      <trkpt lat="49.78219" lon="0.58854">
        <ele>111.2</ele>
        <time>2020-06-18T09:08:35Z</time>
      </trkpt>
      <trkpt lat="49.7822" lon="0.58866">
        <ele>111.2</ele>
        <time>2020-06-18T09:08:36Z</time>
      </trkpt>
      <trkpt lat="49.7822" lon="0.58878">
        <ele>111.2</ele>
        <time>2020-06-18T09:08:37Z</time>
      </trkpt>
      <trkpt lat="49.78221" lon="0.5889">
        <ele>111.3</ele>
        <time>2020-06-18T09:08:38Z</time>
      </trkpt>
      <trkpt lat="49.78221" lon="0.58902">
        <ele>111.3</ele>
        <time>2020-06-18T09:08:39Z</time>
      </trkpt>
      <trkpt lat="49.78222" lon="0.58914">
        <ele>111.3</ele>
        <time>2020-06-18T09:08:40Z</time>
      </trkpt>
      <trkpt lat="49.78222" lon="0.58926">
        <ele>111.4</ele>
        <time>2020-06-18T09:08:41Z</time>
      </trkpt>
      <trkpt lat="49.78221" lon="0.58938">
        <ele>111.4</ele>
        <time>2020-06-18T09:08:42Z</time>
      </trkpt>
      <trkpt lat="49.78222" lon="0.5895">
        <ele>111.4</ele>
        <time>2020-06-18T09:08:43Z</time>
      </trkpt>
      <trkpt lat="49.78223" lon="0.58962">
        <ele>111.5</ele>
        <time>2020-06-18T09:08:44Z</time>
      </trkpt>
      <trkpt lat="49.78224" lon="0.58974">
        <ele>111.5</ele>
        <time>2020-06-18T09:08:45Z</time>
      </trkpt>
      <trkpt lat="49.78225" lon="0.58985">
        <ele>111.5</ele>
        <time>2020-06-18T09:08:46Z</time>
      </trkpt>
      <trkpt lat="49.78226" lon="0.58997">
        <ele>111.6</ele>
        <time>2020-06-18T09:08:47Z</time>
      </trkpt>
      <trkpt lat="49.78227" lon="0.59009">
        <ele>111.6</ele>
        <time>2020-06-18T09:08:48Z</time>
      </trkpt>
      <trkpt lat="49.78228" lon="0.59021">
        <ele>111.7</ele>
        <time>2020-06-18T09:08:49Z</time>
      </trkpt>
      <trkpt lat="49.78228" lon="0.59033">
        <ele>111.7</ele>
        <time>2020-06-18T09:08:50Z</time>
      </trkpt>
      <trkpt lat="49.78228" lon="0.59045">
        <ele>111.8</ele>
        <time>2020-06-18T09:08:51Z</time>
      </trkpt>
      <trkpt lat="49.78229" lon="0.59056">
        <ele>111.8</ele>
        <time>2020-06-18T09:08:52Z</time>
      </trkpt>
      <trkpt lat="49.7823" lon="0.59068">
        <ele>111.9</ele>
        <time>2020-06-18T09:08:53Z</time>
      </trkpt>
      <trkpt lat="49.78232" lon="0.5908">
        <ele>111.9</ele>
        <time>2020-06-18T09:08:54Z</time>
      </trkpt>
      <trkpt lat="49.78233" lon="0.59092">
        <ele>111.9</ele>
        <time>2020-06-18T09:08:55Z</time>
      </trkpt>
      <trkpt lat="49.78235" lon="0.59103">
        <ele>111.8</ele>
        <time>2020-06-18T09:08:56Z</time>
      </trkpt>
      <trkpt lat="49.78236" lon="0.59115">
        <ele>111.7</ele>
        <time>2020-06-18T09:08:57Z</time>
      </trkpt>
      <trkpt lat="49.78238" lon="0.59126">
        <ele>111.6</ele>
        <time>2020-06-18T09:08:58Z</time>
      </trkpt>
      <trkpt lat="49.7824" lon="0.59138">
        <ele>111.4</ele>
        <time>2020-06-18T09:08:59Z</time>
      </trkpt>
      <trkpt lat="49.78243" lon="0.59149">
        <ele>111.3</ele>
        <time>2020-06-18T09:09:00Z</time>
      </trkpt>
      <trkpt lat="49.78245" lon="0.59161">
        <ele>111.1</ele>
        <time>2020-06-18T09:09:01Z</time>
      </trkpt>
      <trkpt lat="49.78247" lon="0.59172">
        <ele>111</ele>
        <time>2020-06-18T09:09:02Z</time>
      </trkpt>
      <trkpt lat="49.7825" lon="0.59183">
        <ele>110.9</ele>
        <time>2020-06-18T09:09:03Z</time>
      </trkpt>
      <trkpt lat="49.78252" lon="0.59194">
        <ele>110.7</ele>
        <time>2020-06-18T09:09:04Z</time>
      </trkpt>
      <trkpt lat="49.78254" lon="0.59205">
        <ele>110.6</ele>
        <time>2020-06-18T09:09:05Z</time>
      </trkpt>
      <trkpt lat="49.78257" lon="0.59215">
        <ele>110.4</ele>
        <time>2020-06-18T09:09:06Z</time>
      </trkpt>
      <trkpt lat="49.78259" lon="0.59226">
        <ele>110.3</ele>
        <time>2020-06-18T09:09:07Z</time>
      </trkpt>
      <trkpt lat="49.78261" lon="0.59237">
        <ele>110.1</ele>
        <time>2020-06-18T09:09:08Z</time>
      </trkpt>
      <trkpt lat="49.78263" lon="0.59247">
        <ele>110</ele>
        <time>2020-06-18T09:09:09Z</time>
      </trkpt>
      <trkpt lat="49.78266" lon="0.59257">
        <ele>109.8</ele>
        <time>2020-06-18T09:09:10Z</time>
      </trkpt>
      <trkpt lat="49.78268" lon="0.59268">
        <ele>109.7</ele>
        <time>2020-06-18T09:09:11Z</time>
      </trkpt>
      <trkpt lat="49.78271" lon="0.59278">
        <ele>109.7</ele>
        <time>2020-06-18T09:09:12Z</time>
      </trkpt>
      <trkpt lat="49.78273" lon="0.59288">
        <ele>109.6</ele>
        <time>2020-06-18T09:09:13Z</time>
      </trkpt>
      <trkpt lat="49.78276" lon="0.59298">
        <ele>109.6</ele>
        <time>2020-06-18T09:09:14Z</time>
      </trkpt>
      <trkpt lat="49.78279" lon="0.59309">
        <ele>109.6</ele>
        <time>2020-06-18T09:09:15Z</time>
      </trkpt>
      <trkpt lat="49.78281" lon="0.59319">
        <ele>109.5</ele>
        <time>2020-06-18T09:09:16Z</time>
      </trkpt>
      <trkpt lat="49.78282" lon="0.59329">
        <ele>109.5</ele>
        <time>2020-06-18T09:09:17Z</time>
      </trkpt>
      <trkpt lat="49.78282" lon="0.59339">
        <ele>109.5</ele>
        <time>2020-06-18T09:09:18Z</time>
      </trkpt>
      <trkpt lat="49.78281" lon="0.59349">
        <ele>109.5</ele>
        <time>2020-06-18T09:09:19Z</time>
      </trkpt>
      <trkpt lat="49.7828" lon="0.59358">
        <ele>109.4</ele>
        <time>2020-06-18T09:09:20Z</time>
      </trkpt>
      <trkpt lat="49.7828" lon="0.59366">
        <ele>109.4</ele>
        <time>2020-06-18T09:09:21Z</time>
      </trkpt>
      <trkpt lat="49.78281" lon="0.59373">
        <ele>109.4</ele>
        <time>2020-06-18T09:09:22Z</time>
      </trkpt>
      <trkpt lat="49.78282" lon="0.59378">
        <ele>109.6</ele>
        <time>2020-06-18T09:09:23Z</time>
      </trkpt>
      <trkpt lat="49.78282" lon="0.59383">
        <ele>109.5</ele>
        <time>2020-06-18T09:09:24Z</time>
      </trkpt>
      <trkpt lat="49.78282" lon="0.59385">
        <ele>109.4</ele>
        <time>2020-06-18T09:09:25Z</time>
      </trkpt>
      <trkpt lat="49.78284" lon="0.5939">
        <ele>109.2</ele>
        <time>2020-06-18T09:09:26Z</time>
      </trkpt>
      <trkpt lat="49.78288" lon="0.59398">
        <ele>109</ele>
        <time>2020-06-18T09:09:27Z</time>
      </trkpt>
      <trkpt lat="49.7829" lon="0.59408">
        <ele>108.7</ele>
        <time>2020-06-18T09:09:28Z</time>
      </trkpt>
      <trkpt lat="49.78292" lon="0.59417">
        <ele>108.4</ele>
        <time>2020-06-18T09:09:29Z</time>
      </trkpt>
      <trkpt lat="49.78295" lon="0.59427">
        <ele>108.2</ele>
        <time>2020-06-18T09:09:30Z</time>
      </trkpt>
      <trkpt lat="49.78297" lon="0.59436">
        <ele>108.1</ele>
        <time>2020-06-18T09:09:31Z</time>
      </trkpt>
      <trkpt lat="49.783" lon="0.59446">
        <ele>108</ele>
        <time>2020-06-18T09:09:32Z</time>
      </trkpt>
      <trkpt lat="49.78303" lon="0.59456">
        <ele>108.7</ele>
        <time>2020-06-18T09:09:33Z</time>
      </trkpt>
      <trkpt lat="49.78307" lon="0.59466">
        <ele>109.1</ele>
        <time>2020-06-18T09:09:34Z</time>
      </trkpt>
      <trkpt lat="49.78311" lon="0.59476">
        <ele>109.2</ele>
        <time>2020-06-18T09:09:35Z</time>
      </trkpt>
      <trkpt lat="49.78315" lon="0.59486">
        <ele>109.1</ele>
        <time>2020-06-18T09:09:36Z</time>
      </trkpt>
      <trkpt lat="49.78319" lon="0.59496">
        <ele>109.1</ele>
        <time>2020-06-18T09:09:37Z</time>
      </trkpt>
      <trkpt lat="49.78323" lon="0.59506">
        <ele>109</ele>
        <time>2020-06-18T09:09:38Z</time>
      </trkpt>
      <trkpt lat="49.78326" lon="0.59517">
        <ele>109</ele>
        <time>2020-06-18T09:09:39Z</time>
      </trkpt>
      <trkpt lat="49.78329" lon="0.59528">
        <ele>108.8</ele>
        <time>2020-06-18T09:09:40Z</time>
      </trkpt>
      <trkpt lat="49.78333" lon="0.59538">
        <ele>108.7</ele>
        <time>2020-06-18T09:09:41Z</time>
      </trkpt>
      <trkpt lat="49.78336" lon="0.5955">
        <ele>108.5</ele>
        <time>2020-06-18T09:09:42Z</time>
      </trkpt>
      <trkpt lat="49.78338" lon="0.59561">
        <ele>108.3</ele>
        <time>2020-06-18T09:09:43Z</time>
      </trkpt>
      <trkpt lat="49.78341" lon="0.59573">
        <ele>108.2</ele>
        <time>2020-06-18T09:09:44Z</time>
      </trkpt>
      <trkpt lat="49.78343" lon="0.59584">
        <ele>108.1</ele>
        <time>2020-06-18T09:09:45Z</time>
      </trkpt>
      <trkpt lat="49.78345" lon="0.59596">
        <ele>108</ele>
        <time>2020-06-18T09:09:46Z</time>
      </trkpt>
      <trkpt lat="49.78348" lon="0.59606">
        <ele>108</ele>
        <time>2020-06-18T09:09:47Z</time>
      </trkpt>
      <trkpt lat="49.78351" lon="0.59617">
        <ele>107.9</ele>
        <time>2020-06-18T09:09:48Z</time>
      </trkpt>
      <trkpt lat="49.78353" lon="0.59628">
        <ele>107.9</ele>
        <time>2020-06-18T09:09:49Z</time>
      </trkpt>
      <trkpt lat="49.78356" lon="0.59638">
        <ele>108</ele>
        <time>2020-06-18T09:09:50Z</time>
      </trkpt>
      <trkpt lat="49.78358" lon="0.59649">
        <ele>108.1</ele>
        <time>2020-06-18T09:09:51Z</time>
      </trkpt>
      <trkpt lat="49.78362" lon="0.59659">
        <ele>108.3</ele>
        <time>2020-06-18T09:09:52Z</time>
      </trkpt>
      <trkpt lat="49.78365" lon="0.59669">
        <ele>108.4</ele>
        <time>2020-06-18T09:09:53Z</time>
      </trkpt>
      <trkpt lat="49.78369" lon="0.5968">
        <ele>108.5</ele>
        <time>2020-06-18T09:09:54Z</time>
      </trkpt>
      <trkpt lat="49.78372" lon="0.5969">
        <ele>108.7</ele>
        <time>2020-06-18T09:09:55Z</time>
      </trkpt>
      <trkpt lat="49.78375" lon="0.597">
        <ele>108.8</ele>
        <time>2020-06-18T09:09:56Z</time>
      </trkpt>
      <trkpt lat="49.78378" lon="0.5971">
        <ele>108.9</ele>
        <time>2020-06-18T09:09:57Z</time>
      </trkpt>
      <trkpt lat="49.78381" lon="0.59721">
        <ele>109</ele>
        <time>2020-06-18T09:09:58Z</time>
      </trkpt>
      <trkpt lat="49.78383" lon="0.59731">
        <ele>109.1</ele>
        <time>2020-06-18T09:09:59Z</time>
      </trkpt>
      <trkpt lat="49.78386" lon="0.59742">
        <ele>109.3</ele>
        <time>2020-06-18T09:10:00Z</time>
      </trkpt>
      <trkpt lat="49.78388" lon="0.59753">
        <ele>109.3</ele>
        <time>2020-06-18T09:10:01Z</time>
      </trkpt>
      <trkpt lat="49.78391" lon="0.59763">
        <ele>109.4</ele>
        <time>2020-06-18T09:10:02Z</time>
      </trkpt>
      <trkpt lat="49.78394" lon="0.59773">
        <ele>109.5</ele>
        <time>2020-06-18T09:10:03Z</time>
      </trkpt>
      <trkpt lat="49.78396" lon="0.59784">
        <ele>109.6</ele>
        <time>2020-06-18T09:10:04Z</time>
      </trkpt>
      <trkpt lat="49.78398" lon="0.59795">
        <ele>109.7</ele>
        <time>2020-06-18T09:10:05Z</time>
      </trkpt>
      <trkpt lat="49.784" lon="0.59805">
        <ele>109.9</ele>
        <time>2020-06-18T09:10:06Z</time>
      </trkpt>
      <trkpt lat="49.78402" lon="0.59816">
        <ele>110</ele>
        <time>2020-06-18T09:10:07Z</time>
      </trkpt>
      <trkpt lat="49.78405" lon="0.59827">
        <ele>110.1</ele>
        <time>2020-06-18T09:10:08Z</time>
      </trkpt>
      <trkpt lat="49.78408" lon="0.59838">
        <ele>110.2</ele>
        <time>2020-06-18T09:10:09Z</time>
      </trkpt>
      <trkpt lat="49.7841" lon="0.59849">
        <ele>110.3</ele>
        <time>2020-06-18T09:10:10Z</time>
      </trkpt>
      <trkpt lat="49.78411" lon="0.5986">
        <ele>110.4</ele>
        <time>2020-06-18T09:10:11Z</time>
      </trkpt>
      <trkpt lat="49.78413" lon="0.59872">
        <ele>110.4</ele>
        <time>2020-06-18T09:10:12Z</time>
      </trkpt>
      <trkpt lat="49.78415" lon="0.59883">
        <ele>110.5</ele>
        <time>2020-06-18T09:10:13Z</time>
      </trkpt>
      <trkpt lat="49.78417" lon="0.59894">
        <ele>110.6</ele>
        <time>2020-06-18T09:10:14Z</time>
      </trkpt>
      <trkpt lat="49.78419" lon="0.59905">
        <ele>110.6</ele>
        <time>2020-06-18T09:10:15Z</time>
      </trkpt>
      <trkpt lat="49.78421" lon="0.59916">
        <ele>110.7</ele>
        <time>2020-06-18T09:10:16Z</time>
      </trkpt>
      <trkpt lat="49.78422" lon="0.59928">
        <ele>110.7</ele>
        <time>2020-06-18T09:10:17Z</time>
      </trkpt>
      <trkpt lat="49.78423" lon="0.59939">
        <ele>110.7</ele>
        <time>2020-06-18T09:10:18Z</time>
      </trkpt>
      <trkpt lat="49.78424" lon="0.5995">
        <ele>110.8</ele>
        <time>2020-06-18T09:10:19Z</time>
      </trkpt>
      <trkpt lat="49.78425" lon="0.59962">
        <ele>110.8</ele>
        <time>2020-06-18T09:10:20Z</time>
      </trkpt>
      <trkpt lat="49.78427" lon="0.59973">
        <ele>110.9</ele>
        <time>2020-06-18T09:10:21Z</time>
      </trkpt>
      <trkpt lat="49.78427" lon="0.59985">
        <ele>110.9</ele>
        <time>2020-06-18T09:10:22Z</time>
      </trkpt>
      <trkpt lat="49.78428" lon="0.59996">
        <ele>111</ele>
        <time>2020-06-18T09:10:23Z</time>
      </trkpt>
      <trkpt lat="49.7843" lon="0.60008">
        <ele>111</ele>
        <time>2020-06-18T09:10:24Z</time>
      </trkpt>
      <trkpt lat="49.78431" lon="0.60019">
        <ele>111.1</ele>
        <time>2020-06-18T09:10:25Z</time>
      </trkpt>
      <trkpt lat="49.78431" lon="0.6003">
        <ele>111.2</ele>
        <time>2020-06-18T09:10:26Z</time>
      </trkpt>
      <trkpt lat="49.78431" lon="0.60042">
        <ele>111.2</ele>
        <time>2020-06-18T09:10:27Z</time>
      </trkpt>
      <trkpt lat="49.78431" lon="0.60053">
        <ele>111.2</ele>
        <time>2020-06-18T09:10:28Z</time>
      </trkpt>
      <trkpt lat="49.78431" lon="0.60064">
        <ele>111.2</ele>
        <time>2020-06-18T09:10:29Z</time>
      </trkpt>
      <trkpt lat="49.78431" lon="0.60076">
        <ele>111.2</ele>
        <time>2020-06-18T09:10:30Z</time>
      </trkpt>
      <trkpt lat="49.78432" lon="0.60087">
        <ele>111.2</ele>
        <time>2020-06-18T09:10:31Z</time>
      </trkpt>
      <trkpt lat="49.78432" lon="0.60098">
        <ele>111.2</ele>
        <time>2020-06-18T09:10:32Z</time>
      </trkpt>
      <trkpt lat="49.78432" lon="0.6011">
        <ele>111.1</ele>
        <time>2020-06-18T09:10:33Z</time>
      </trkpt>
      <trkpt lat="49.78432" lon="0.60121">
        <ele>111.1</ele>
        <time>2020-06-18T09:10:34Z</time>
      </trkpt>
      <trkpt lat="49.78432" lon="0.60133">
        <ele>111.1</ele>
        <time>2020-06-18T09:10:35Z</time>
      </trkpt>
      <trkpt lat="49.78432" lon="0.60144">
        <ele>111.1</ele>
        <time>2020-06-18T09:10:36Z</time>
      </trkpt>
      <trkpt lat="49.78432" lon="0.60155">
        <ele>111.2</ele>
        <time>2020-06-18T09:10:37Z</time>
      </trkpt>
      <trkpt lat="49.78432" lon="0.60167">
        <ele>111.2</ele>
        <time>2020-06-18T09:10:38Z</time>
      </trkpt>
      <trkpt lat="49.78432" lon="0.60179">
        <ele>111.3</ele>
        <time>2020-06-18T09:10:39Z</time>
      </trkpt>
      <trkpt lat="49.78432" lon="0.60191">
        <ele>111.3</ele>
        <time>2020-06-18T09:10:40Z</time>
      </trkpt>
      <trkpt lat="49.78432" lon="0.60203">
        <ele>111.3</ele>
        <time>2020-06-18T09:10:41Z</time>
      </trkpt>
      <trkpt lat="49.78431" lon="0.60215">
        <ele>111.3</ele>
        <time>2020-06-18T09:10:42Z</time>
      </trkpt>
      <trkpt lat="49.78432" lon="0.60227">
        <ele>111.4</ele>
        <time>2020-06-18T09:10:43Z</time>
      </trkpt>
      <trkpt lat="49.78432" lon="0.60239">
        <ele>111.4</ele>
        <time>2020-06-18T09:10:44Z</time>
      </trkpt>
      <trkpt lat="49.78432" lon="0.60251">
        <ele>111.4</ele>
        <time>2020-06-18T09:10:45Z</time>
      </trkpt>
      <trkpt lat="49.78431" lon="0.60262">
        <ele>111.5</ele>
        <time>2020-06-18T09:10:46Z</time>
      </trkpt>
      <trkpt lat="49.78431" lon="0.60274">
        <ele>111.5</ele>
        <time>2020-06-18T09:10:47Z</time>
      </trkpt>
      <trkpt lat="49.78431" lon="0.60285">
        <ele>111.5</ele>
        <time>2020-06-18T09:10:48Z</time>
      </trkpt>
      <trkpt lat="49.78431" lon="0.60296">
        <ele>111.5</ele>
        <time>2020-06-18T09:10:49Z</time>
      </trkpt>
      <trkpt lat="49.78431" lon="0.60307">
        <ele>111.5</ele>
        <time>2020-06-18T09:10:50Z</time>
      </trkpt>
      <trkpt lat="49.78431" lon="0.60319">
        <ele>111.5</ele>
        <time>2020-06-18T09:10:51Z</time>
      </trkpt>
      <trkpt lat="49.7843" lon="0.6033">
        <ele>111.6</ele>
        <time>2020-06-18T09:10:52Z</time>
      </trkpt>
      <trkpt lat="49.78431" lon="0.60341">
        <ele>111.6</ele>
        <time>2020-06-18T09:10:53Z</time>
      </trkpt>
      <trkpt lat="49.78431" lon="0.60352">
        <ele>111.7</ele>
        <time>2020-06-18T09:10:54Z</time>
      </trkpt>
      <trkpt lat="49.78431" lon="0.60364">
        <ele>111.7</ele>
        <time>2020-06-18T09:10:55Z</time>
      </trkpt>
      <trkpt lat="49.7843" lon="0.60376">
        <ele>111.7</ele>
        <time>2020-06-18T09:10:56Z</time>
      </trkpt>
      <trkpt lat="49.7843" lon="0.60388">
        <ele>111.8</ele>
        <time>2020-06-18T09:10:57Z</time>
      </trkpt>
      <trkpt lat="49.78431" lon="0.604">
        <ele>111.9</ele>
        <time>2020-06-18T09:10:58Z</time>
      </trkpt>
      <trkpt lat="49.78431" lon="0.60412">
        <ele>111.8</ele>
        <time>2020-06-18T09:10:59Z</time>
      </trkpt>
      <trkpt lat="49.78431" lon="0.60424">
        <ele>111.6</ele>
        <time>2020-06-18T09:11:00Z</time>
      </trkpt>
      <trkpt lat="49.78431" lon="0.60436">
        <ele>111.5</ele>
        <time>2020-06-18T09:11:01Z</time>
      </trkpt>
      <trkpt lat="49.78431" lon="0.60448">
        <ele>111.5</ele>
        <time>2020-06-18T09:11:02Z</time>
      </trkpt>
      <trkpt lat="49.78431" lon="0.6046">
        <ele>111.4</ele>
        <time>2020-06-18T09:11:03Z</time>
      </trkpt>
      <trkpt lat="49.78431" lon="0.60473">
        <ele>111.4</ele>
        <time>2020-06-18T09:11:04Z</time>
      </trkpt>
      <trkpt lat="49.78432" lon="0.60485">
        <ele>111.4</ele>
        <time>2020-06-18T09:11:05Z</time>
      </trkpt>
      <trkpt lat="49.78432" lon="0.60498">
        <ele>111.3</ele>
        <time>2020-06-18T09:11:06Z</time>
      </trkpt>
      <trkpt lat="49.78432" lon="0.60511">
        <ele>111.2</ele>
        <time>2020-06-18T09:11:07Z</time>
      </trkpt>
      <trkpt lat="49.78431" lon="0.60523">
        <ele>111.1</ele>
        <time>2020-06-18T09:11:08Z</time>
      </trkpt>
      <trkpt lat="49.78431" lon="0.60536">
        <ele>111</ele>
        <time>2020-06-18T09:11:09Z</time>
      </trkpt>
      <trkpt lat="49.78431" lon="0.60549">
        <ele>110.8</ele>
        <time>2020-06-18T09:11:10Z</time>
      </trkpt>
      <trkpt lat="49.78431" lon="0.60562">
        <ele>110.7</ele>
        <time>2020-06-18T09:11:11Z</time>
      </trkpt>
      <trkpt lat="49.78431" lon="0.60575">
        <ele>110.6</ele>
        <time>2020-06-18T09:11:12Z</time>
      </trkpt>
      <trkpt lat="49.78431" lon="0.60588">
        <ele>110.5</ele>
        <time>2020-06-18T09:11:13Z</time>
      </trkpt>
      <trkpt lat="49.78431" lon="0.606">
        <ele>110.4</ele>
        <time>2020-06-18T09:11:14Z</time>
      </trkpt>
      <trkpt lat="49.78431" lon="0.60613">
        <ele>110.4</ele>
        <time>2020-06-18T09:11:15Z</time>
      </trkpt>
      <trkpt lat="49.78431" lon="0.60626">
        <ele>110.3</ele>
        <time>2020-06-18T09:11:16Z</time>
      </trkpt>
      <trkpt lat="49.78431" lon="0.60639">
        <ele>110.2</ele>
        <time>2020-06-18T09:11:17Z</time>
      </trkpt>
      <trkpt lat="49.78431" lon="0.60652">
        <ele>110.1</ele>
        <time>2020-06-18T09:11:18Z</time>
      </trkpt>
      <trkpt lat="49.78431" lon="0.60664">
        <ele>110</ele>
        <time>2020-06-18T09:11:19Z</time>
      </trkpt>
      <trkpt lat="49.78432" lon="0.60677">
        <ele>110</ele>
        <time>2020-06-18T09:11:20Z</time>
      </trkpt>
      <trkpt lat="49.78432" lon="0.6069">
        <ele>109.9</ele>
        <time>2020-06-18T09:11:21Z</time>
      </trkpt>
      <trkpt lat="49.78432" lon="0.60703">
        <ele>109.9</ele>
        <time>2020-06-18T09:11:22Z</time>
      </trkpt>
      <trkpt lat="49.78432" lon="0.60716">
        <ele>109.8</ele>
        <time>2020-06-18T09:11:23Z</time>
      </trkpt>
      <trkpt lat="49.78432" lon="0.60729">
        <ele>109.7</ele>
        <time>2020-06-18T09:11:24Z</time>
      </trkpt>
      <trkpt lat="49.78432" lon="0.60742">
        <ele>109.7</ele>
        <time>2020-06-18T09:11:25Z</time>
      </trkpt>
      <trkpt lat="49.78432" lon="0.60755">
        <ele>109.6</ele>
        <time>2020-06-18T09:11:26Z</time>
      </trkpt>
      <trkpt lat="49.78432" lon="0.60769">
        <ele>109.5</ele>
        <time>2020-06-18T09:11:27Z</time>
      </trkpt>
      <trkpt lat="49.78432" lon="0.60782">
        <ele>109.4</ele>
        <time>2020-06-18T09:11:28Z</time>
      </trkpt>
      <trkpt lat="49.78432" lon="0.60795">
        <ele>109.2</ele>
        <time>2020-06-18T09:11:29Z</time>
      </trkpt>
      <trkpt lat="49.78432" lon="0.60809">
        <ele>109.1</ele>
        <time>2020-06-18T09:11:30Z</time>
      </trkpt>
      <trkpt lat="49.78431" lon="0.60823">
        <ele>109</ele>
        <time>2020-06-18T09:11:31Z</time>
      </trkpt>
      <trkpt lat="49.78431" lon="0.60836">
        <ele>108.9</ele>
        <time>2020-06-18T09:11:32Z</time>
      </trkpt>
      <trkpt lat="49.78431" lon="0.6085">
        <ele>108.8</ele>
        <time>2020-06-18T09:11:33Z</time>
      </trkpt>
      <trkpt lat="49.78431" lon="0.60863">
        <ele>108.7</ele>
        <time>2020-06-18T09:11:34Z</time>
      </trkpt>
      <trkpt lat="49.78431" lon="0.60877">
        <ele>108.7</ele>
        <time>2020-06-18T09:11:35Z</time>
      </trkpt>
      <trkpt lat="49.78431" lon="0.6089">
        <ele>108.7</ele>
        <time>2020-06-18T09:11:36Z</time>
      </trkpt>
      <trkpt lat="49.78431" lon="0.60904">
        <ele>108.6</ele>
        <time>2020-06-18T09:11:37Z</time>
      </trkpt>
      <trkpt lat="49.78431" lon="0.60918">
        <ele>108.6</ele>
        <time>2020-06-18T09:11:38Z</time>
      </trkpt>
      <trkpt lat="49.7843" lon="0.60931">
        <ele>108.5</ele>
        <time>2020-06-18T09:11:39Z</time>
      </trkpt>
      <trkpt lat="49.7843" lon="0.60945">
        <ele>108.4</ele>
        <time>2020-06-18T09:11:40Z</time>
      </trkpt>
      <trkpt lat="49.7843" lon="0.60959">
        <ele>108.3</ele>
        <time>2020-06-18T09:11:41Z</time>
      </trkpt>
      <trkpt lat="49.78429" lon="0.60972">
        <ele>108.2</ele>
        <time>2020-06-18T09:11:42Z</time>
      </trkpt>
      <trkpt lat="49.78428" lon="0.60986">
        <ele>108.2</ele>
        <time>2020-06-18T09:11:43Z</time>
      </trkpt>
      <trkpt lat="49.78428" lon="0.61">
        <ele>107.9</ele>
        <time>2020-06-18T09:11:44Z</time>
      </trkpt>
      <trkpt lat="49.78428" lon="0.61014">
        <ele>107.5</ele>
        <time>2020-06-18T09:11:45Z</time>
      </trkpt>
      <trkpt lat="49.78428" lon="0.61029">
        <ele>107</ele>
        <time>2020-06-18T09:11:46Z</time>
      </trkpt>
      <trkpt lat="49.78428" lon="0.61043">
        <ele>106.5</ele>
        <time>2020-06-18T09:11:47Z</time>
      </trkpt>
      <trkpt lat="49.78427" lon="0.61058">
        <ele>106</ele>
        <time>2020-06-18T09:11:48Z</time>
      </trkpt>
      <trkpt lat="49.78427" lon="0.61074">
        <ele>105.5</ele>
        <time>2020-06-18T09:11:49Z</time>
      </trkpt>
      <trkpt lat="49.78427" lon="0.6109">
        <ele>104.9</ele>
        <time>2020-06-18T09:11:50Z</time>
      </trkpt>
      <trkpt lat="49.78428" lon="0.61106">
        <ele>104.3</ele>
        <time>2020-06-18T09:11:51Z</time>
      </trkpt>
      <trkpt lat="49.78428" lon="0.61123">
        <ele>103.7</ele>
        <time>2020-06-18T09:11:52Z</time>
      </trkpt>
      <trkpt lat="49.78428" lon="0.61139">
        <ele>103</ele>
        <time>2020-06-18T09:11:53Z</time>
      </trkpt>
      <trkpt lat="49.78429" lon="0.61156">
        <ele>102.3</ele>
        <time>2020-06-18T09:11:54Z</time>
      </trkpt>
      <trkpt lat="49.7843" lon="0.61174">
        <ele>101.7</ele>
        <time>2020-06-18T09:11:55Z</time>
      </trkpt>
      <trkpt lat="49.78431" lon="0.61191">
        <ele>101</ele>
        <time>2020-06-18T09:11:56Z</time>
      </trkpt>
      <trkpt lat="49.78433" lon="0.61209">
        <ele>100.3</ele>
        <time>2020-06-18T09:11:57Z</time>
      </trkpt>
      <trkpt lat="49.78434" lon="0.61228">
        <ele>99.6</ele>
        <time>2020-06-18T09:11:58Z</time>
      </trkpt>
      <trkpt lat="49.78435" lon="0.61246">
        <ele>99</ele>
        <time>2020-06-18T09:11:59Z</time>
      </trkpt>
      <trkpt lat="49.78436" lon="0.61265">
        <ele>98.2</ele>
        <time>2020-06-18T09:12:00Z</time>
      </trkpt>
      <trkpt lat="49.78438" lon="0.61283">
        <ele>97.5</ele>
        <time>2020-06-18T09:12:01Z</time>
      </trkpt>
      <trkpt lat="49.78439" lon="0.61302">
        <ele>96.8</ele>
        <time>2020-06-18T09:12:02Z</time>
      </trkpt>
      <trkpt lat="49.7844" lon="0.61321">
        <ele>96.1</ele>
        <time>2020-06-18T09:12:03Z</time>
      </trkpt>
      <trkpt lat="49.78441" lon="0.6134">
        <ele>95.4</ele>
        <time>2020-06-18T09:12:04Z</time>
      </trkpt>
      <trkpt lat="49.78443" lon="0.61358">
        <ele>94.9</ele>
        <time>2020-06-18T09:12:05Z</time>
      </trkpt>
      <trkpt lat="49.78444" lon="0.61378">
        <ele>94.5</ele>
        <time>2020-06-18T09:12:06Z</time>
      </trkpt>
      <trkpt lat="49.78446" lon="0.61397">
        <ele>94.1</ele>
        <time>2020-06-18T09:12:07Z</time>
      </trkpt>
      <trkpt lat="49.78447" lon="0.61416">
        <ele>93.6</ele>
        <time>2020-06-18T09:12:08Z</time>
      </trkpt>
      <trkpt lat="49.78449" lon="0.61435">
        <ele>93.1</ele>
        <time>2020-06-18T09:12:09Z</time>
      </trkpt>
      <trkpt lat="49.78451" lon="0.61454">
        <ele>92.7</ele>
        <time>2020-06-18T09:12:10Z</time>
      </trkpt>
      <trkpt lat="49.78454" lon="0.61473">
        <ele>92.2</ele>
        <time>2020-06-18T09:12:11Z</time>
      </trkpt>
      <trkpt lat="49.78456" lon="0.61493">
        <ele>91.8</ele>
        <time>2020-06-18T09:12:12Z</time>
      </trkpt>
      <trkpt lat="49.78459" lon="0.61512">
        <ele>91.4</ele>
        <time>2020-06-18T09:12:13Z</time>
      </trkpt>
      <trkpt lat="49.78462" lon="0.6153">
        <ele>91.1</ele>
        <time>2020-06-18T09:12:14Z</time>
      </trkpt>
      <trkpt lat="49.78464" lon="0.61549">
        <ele>90.8</ele>
        <time>2020-06-18T09:12:15Z</time>
      </trkpt>
      <trkpt lat="49.78467" lon="0.61566">
        <ele>90.6</ele>
        <time>2020-06-18T09:12:16Z</time>
      </trkpt>
      <trkpt lat="49.7847" lon="0.61584">
        <ele>90.2</ele>
        <time>2020-06-18T09:12:17Z</time>
      </trkpt>
      <trkpt lat="49.78473" lon="0.61601">
        <ele>89.9</ele>
        <time>2020-06-18T09:12:18Z</time>
      </trkpt>
      <trkpt lat="49.78477" lon="0.61619">
        <ele>89.6</ele>
        <time>2020-06-18T09:12:19Z</time>
      </trkpt>
      <trkpt lat="49.7848" lon="0.61637">
        <ele>89.2</ele>
        <time>2020-06-18T09:12:20Z</time>
      </trkpt>
      <trkpt lat="49.78482" lon="0.61657">
        <ele>88.8</ele>
        <time>2020-06-18T09:12:21Z</time>
      </trkpt>
      <trkpt lat="49.78485" lon="0.61675">
        <ele>88.5</ele>
        <time>2020-06-18T09:12:22Z</time>
      </trkpt>
      <trkpt lat="49.78487" lon="0.61693">
        <ele>88.1</ele>
        <time>2020-06-18T09:12:23Z</time>
      </trkpt>
      <trkpt lat="49.78489" lon="0.61711">
        <ele>87.8</ele>
        <time>2020-06-18T09:12:24Z</time>
      </trkpt>
      <trkpt lat="49.78492" lon="0.61728">
        <ele>87.4</ele>
        <time>2020-06-18T09:12:25Z</time>
      </trkpt>
      <trkpt lat="49.78495" lon="0.61745">
        <ele>87.1</ele>
        <time>2020-06-18T09:12:26Z</time>
      </trkpt>
      <trkpt lat="49.78498" lon="0.61762">
        <ele>86.8</ele>
        <time>2020-06-18T09:12:27Z</time>
      </trkpt>
      <trkpt lat="49.78502" lon="0.61778">
        <ele>86.5</ele>
        <time>2020-06-18T09:12:28Z</time>
      </trkpt>
      <trkpt lat="49.78505" lon="0.61796">
        <ele>86.2</ele>
        <time>2020-06-18T09:12:29Z</time>
      </trkpt>
      <trkpt lat="49.78508" lon="0.61813">
        <ele>85.8</ele>
        <time>2020-06-18T09:12:30Z</time>
      </trkpt>
      <trkpt lat="49.78512" lon="0.61831">
        <ele>85.3</ele>
        <time>2020-06-18T09:12:31Z</time>
      </trkpt>
      <trkpt lat="49.78515" lon="0.61849">
        <ele>84.7</ele>
        <time>2020-06-18T09:12:32Z</time>
      </trkpt>
      <trkpt lat="49.78518" lon="0.61866">
        <ele>84</ele>
        <time>2020-06-18T09:12:33Z</time>
      </trkpt>
      <trkpt lat="49.78522" lon="0.61882">
        <ele>83.3</ele>
        <time>2020-06-18T09:12:34Z</time>
      </trkpt>
      <trkpt lat="49.78525" lon="0.61899">
        <ele>82.7</ele>
        <time>2020-06-18T09:12:35Z</time>
      </trkpt>
      <trkpt lat="49.78529" lon="0.61916">
        <ele>82.1</ele>
        <time>2020-06-18T09:12:36Z</time>
      </trkpt>
      <trkpt lat="49.78531" lon="0.61933">
        <ele>81.6</ele>
        <time>2020-06-18T09:12:37Z</time>
      </trkpt>
      <trkpt lat="49.78533" lon="0.6195">
        <ele>81</ele>
        <time>2020-06-18T09:12:38Z</time>
      </trkpt>
      <trkpt lat="49.78535" lon="0.61967">
        <ele>80.4</ele>
        <time>2020-06-18T09:12:39Z</time>
      </trkpt>
      <trkpt lat="49.78537" lon="0.61983">
        <ele>79.9</ele>
        <time>2020-06-18T09:12:40Z</time>
      </trkpt>
      <trkpt lat="49.7854" lon="0.61999">
        <ele>79.3</ele>
        <time>2020-06-18T09:12:41Z</time>
      </trkpt>
      <trkpt lat="49.78543" lon="0.62014">
        <ele>78.7</ele>
        <time>2020-06-18T09:12:42Z</time>
      </trkpt>
      <trkpt lat="49.78546" lon="0.62029">
        <ele>78.1</ele>
        <time>2020-06-18T09:12:43Z</time>
      </trkpt>
      <trkpt lat="49.78549" lon="0.62045">
        <ele>77.6</ele>
        <time>2020-06-18T09:12:44Z</time>
      </trkpt>
      <trkpt lat="49.78552" lon="0.62061">
        <ele>77.1</ele>
        <time>2020-06-18T09:12:45Z</time>
      </trkpt>
      <trkpt lat="49.78555" lon="0.62078">
        <ele>76.4</ele>
        <time>2020-06-18T09:12:46Z</time>
      </trkpt>
      <trkpt lat="49.78558" lon="0.62094">
        <ele>75.7</ele>
        <time>2020-06-18T09:12:47Z</time>
      </trkpt>
      <trkpt lat="49.78561" lon="0.6211">
        <ele>75.1</ele>
        <time>2020-06-18T09:12:48Z</time>
      </trkpt>
      <trkpt lat="49.78564" lon="0.62127">
        <ele>74.6</ele>
        <time>2020-06-18T09:12:49Z</time>
      </trkpt>
      <trkpt lat="49.78568" lon="0.62144">
        <ele>74</ele>
        <time>2020-06-18T09:12:50Z</time>
      </trkpt>
      <trkpt lat="49.78571" lon="0.62161">
        <ele>73.4</ele>
        <time>2020-06-18T09:12:51Z</time>
      </trkpt>
      <trkpt lat="49.78574" lon="0.62177">
        <ele>72.8</ele>
        <time>2020-06-18T09:12:52Z</time>
      </trkpt>
      <trkpt lat="49.78577" lon="0.62195">
        <ele>72.2</ele>
        <time>2020-06-18T09:12:53Z</time>
      </trkpt>
      <trkpt lat="49.7858" lon="0.62212">
        <ele>71.6</ele>
        <time>2020-06-18T09:12:54Z</time>
      </trkpt>
      <trkpt lat="49.78583" lon="0.6223">
        <ele>70.9</ele>
        <time>2020-06-18T09:12:55Z</time>
      </trkpt>
      <trkpt lat="49.78584" lon="0.62247">
        <ele>70.4</ele>
        <time>2020-06-18T09:12:56Z</time>
      </trkpt>
      <trkpt lat="49.78585" lon="0.62264">
        <ele>69.9</ele>
        <time>2020-06-18T09:12:57Z</time>
      </trkpt>
      <trkpt lat="49.78587" lon="0.62281">
        <ele>69.3</ele>
        <time>2020-06-18T09:12:58Z</time>
      </trkpt>
      <trkpt lat="49.78588" lon="0.623">
        <ele>68.7</ele>
        <time>2020-06-18T09:12:59Z</time>
      </trkpt>
      <trkpt lat="49.7859" lon="0.62317">
        <ele>68.1</ele>
        <time>2020-06-18T09:13:00Z</time>
      </trkpt>
      <trkpt lat="49.78589" lon="0.62335">
        <ele>67.5</ele>
        <time>2020-06-18T09:13:01Z</time>
      </trkpt>
      <trkpt lat="49.78588" lon="0.62352">
        <ele>66.9</ele>
        <time>2020-06-18T09:13:02Z</time>
      </trkpt>
      <trkpt lat="49.78587" lon="0.6237">
        <ele>66.2</ele>
        <time>2020-06-18T09:13:03Z</time>
      </trkpt>
      <trkpt lat="49.78586" lon="0.62388">
        <ele>65.6</ele>
        <time>2020-06-18T09:13:04Z</time>
      </trkpt>
      <trkpt lat="49.78585" lon="0.62404">
        <ele>64.9</ele>
        <time>2020-06-18T09:13:05Z</time>
      </trkpt>
      <trkpt lat="49.78582" lon="0.6242">
        <ele>64.1</ele>
        <time>2020-06-18T09:13:06Z</time>
      </trkpt>
      <trkpt lat="49.7858" lon="0.62437">
        <ele>63.3</ele>
        <time>2020-06-18T09:13:07Z</time>
      </trkpt>
      <trkpt lat="49.78576" lon="0.62455">
        <ele>62.5</ele>
        <time>2020-06-18T09:13:08Z</time>
      </trkpt>
      <trkpt lat="49.78574" lon="0.62472">
        <ele>61.7</ele>
        <time>2020-06-18T09:13:09Z</time>
      </trkpt>
      <trkpt lat="49.78572" lon="0.6249">
        <ele>61</ele>
        <time>2020-06-18T09:13:10Z</time>
      </trkpt>
      <trkpt lat="49.7857" lon="0.62508">
        <ele>60.2</ele>
        <time>2020-06-18T09:13:11Z</time>
      </trkpt>
      <trkpt lat="49.78567" lon="0.62525">
        <ele>59.5</ele>
        <time>2020-06-18T09:13:12Z</time>
      </trkpt>
      <trkpt lat="49.78564" lon="0.62543">
        <ele>58.8</ele>
        <time>2020-06-18T09:13:13Z</time>
      </trkpt>
      <trkpt lat="49.78561" lon="0.62561">
        <ele>58.1</ele>
        <time>2020-06-18T09:13:14Z</time>
      </trkpt>
      <trkpt lat="49.78558" lon="0.62579">
        <ele>57.4</ele>
        <time>2020-06-18T09:13:15Z</time>
      </trkpt>
      <trkpt lat="49.78555" lon="0.62598">
        <ele>56.7</ele>
        <time>2020-06-18T09:13:16Z</time>
      </trkpt>
      <trkpt lat="49.78552" lon="0.62616">
        <ele>55.9</ele>
        <time>2020-06-18T09:13:17Z</time>
      </trkpt>
      <trkpt lat="49.7855" lon="0.62635">
        <ele>55</ele>
        <time>2020-06-18T09:13:18Z</time>
      </trkpt>
      <trkpt lat="49.78548" lon="0.62654">
        <ele>54.3</ele>
        <time>2020-06-18T09:13:19Z</time>
      </trkpt>
      <trkpt lat="49.78547" lon="0.62673">
        <ele>53.6</ele>
        <time>2020-06-18T09:13:20Z</time>
      </trkpt>
      <trkpt lat="49.78546" lon="0.62691">
        <ele>52.9</ele>
        <time>2020-06-18T09:13:21Z</time>
      </trkpt>
      <trkpt lat="49.78545" lon="0.62709">
        <ele>52.1</ele>
        <time>2020-06-18T09:13:22Z</time>
      </trkpt>
      <trkpt lat="49.78542" lon="0.62727">
        <ele>51.4</ele>
        <time>2020-06-18T09:13:23Z</time>
      </trkpt>
      <trkpt lat="49.78542" lon="0.62745">
        <ele>50.6</ele>
        <time>2020-06-18T09:13:24Z</time>
      </trkpt>
      <trkpt lat="49.78541" lon="0.62763">
        <ele>49.9</ele>
        <time>2020-06-18T09:13:25Z</time>
      </trkpt>
      <trkpt lat="49.7854" lon="0.62781">
        <ele>49.1</ele>
        <time>2020-06-18T09:13:26Z</time>
      </trkpt>
      <trkpt lat="49.7854" lon="0.628">
        <ele>48.2</ele>
        <time>2020-06-18T09:13:27Z</time>
      </trkpt>
      <trkpt lat="49.78539" lon="0.62819">
        <ele>47.4</ele>
        <time>2020-06-18T09:13:28Z</time>
      </trkpt>
      <trkpt lat="49.78539" lon="0.62837">
        <ele>46.6</ele>
        <time>2020-06-18T09:13:29Z</time>
      </trkpt>
      <trkpt lat="49.78539" lon="0.62856">
        <ele>45.7</ele>
        <time>2020-06-18T09:13:30Z</time>
      </trkpt>
      <trkpt lat="49.78539" lon="0.62875">
        <ele>44.8</ele>
        <time>2020-06-18T09:13:31Z</time>
      </trkpt>
      <trkpt lat="49.78541" lon="0.62895">
        <ele>43.9</ele>
        <time>2020-06-18T09:13:32Z</time>
      </trkpt>
      <trkpt lat="49.78542" lon="0.62914">
        <ele>43</ele>
        <time>2020-06-18T09:13:33Z</time>
      </trkpt>
      <trkpt lat="49.78543" lon="0.62933">
        <ele>42.1</ele>
        <time>2020-06-18T09:13:34Z</time>
      </trkpt>
      <trkpt lat="49.78544" lon="0.6295">
        <ele>41.3</ele>
        <time>2020-06-18T09:13:35Z</time>
      </trkpt>
      <trkpt lat="49.78545" lon="0.62967">
        <ele>40.5</ele>
        <time>2020-06-18T09:13:36Z</time>
      </trkpt>
      <trkpt lat="49.78546" lon="0.62982">
        <ele>39.8</ele>
        <time>2020-06-18T09:13:37Z</time>
      </trkpt>
      <trkpt lat="49.78548" lon="0.62996">
        <ele>39</ele>
        <time>2020-06-18T09:13:38Z</time>
      </trkpt>
      <trkpt lat="49.78549" lon="0.6301">
        <ele>38.3</ele>
        <time>2020-06-18T09:13:39Z</time>
      </trkpt>
      <trkpt lat="49.78551" lon="0.63024">
        <ele>37.5</ele>
        <time>2020-06-18T09:13:40Z</time>
      </trkpt>
      <trkpt lat="49.78552" lon="0.63037">
        <ele>36.9</ele>
        <time>2020-06-18T09:13:41Z</time>
      </trkpt>
      <trkpt lat="49.78553" lon="0.63049">
        <ele>36.2</ele>
        <time>2020-06-18T09:13:42Z</time>
      </trkpt>
      <trkpt lat="49.78555" lon="0.6306">
        <ele>35.6</ele>
        <time>2020-06-18T09:13:43Z</time>
      </trkpt>
      <trkpt lat="49.78556" lon="0.63072">
        <ele>35</ele>
        <time>2020-06-18T09:13:44Z</time>
      </trkpt>
      <trkpt lat="49.78558" lon="0.63083">
        <ele>34.4</ele>
        <time>2020-06-18T09:13:45Z</time>
      </trkpt>
      <trkpt lat="49.7856" lon="0.63094">
        <ele>33.9</ele>
        <time>2020-06-18T09:13:46Z</time>
      </trkpt>
      <trkpt lat="49.78562" lon="0.63105">
        <ele>33.3</ele>
        <time>2020-06-18T09:13:47Z</time>
      </trkpt>
      <trkpt lat="49.78565" lon="0.63116">
        <ele>32.7</ele>
        <time>2020-06-18T09:13:48Z</time>
      </trkpt>
      <trkpt lat="49.78567" lon="0.63127">
        <ele>32.1</ele>
        <time>2020-06-18T09:13:49Z</time>
      </trkpt>
      <trkpt lat="49.7857" lon="0.63138">
        <ele>31.5</ele>
        <time>2020-06-18T09:13:50Z</time>
      </trkpt>
      <trkpt lat="49.78574" lon="0.63149">
        <ele>30.8</ele>
        <time>2020-06-18T09:13:51Z</time>
      </trkpt>
      <trkpt lat="49.78577" lon="0.6316">
        <ele>30.2</ele>
        <time>2020-06-18T09:13:52Z</time>
      </trkpt>
      <trkpt lat="49.7858" lon="0.6317">
        <ele>29.6</ele>
        <time>2020-06-18T09:13:53Z</time>
      </trkpt>
      <trkpt lat="49.78583" lon="0.63179">
        <ele>29.1</ele>
        <time>2020-06-18T09:13:54Z</time>
      </trkpt>
      <trkpt lat="49.78585" lon="0.63188">
        <ele>28.5</ele>
        <time>2020-06-18T09:13:55Z</time>
      </trkpt>
      <trkpt lat="49.78589" lon="0.63195">
        <ele>28</ele>
        <time>2020-06-18T09:13:56Z</time>
      </trkpt>
      <trkpt lat="49.78593" lon="0.63203">
        <ele>27.5</ele>
        <time>2020-06-18T09:13:57Z</time>
      </trkpt>
      <trkpt lat="49.78596" lon="0.6321">
        <ele>27.1</ele>
        <time>2020-06-18T09:13:58Z</time>
      </trkpt>
      <trkpt lat="49.78599" lon="0.63216">
        <ele>26.6</ele>
        <time>2020-06-18T09:13:59Z</time>
      </trkpt>
      <trkpt lat="49.786" lon="0.63225">
        <ele>26.2</ele>
        <time>2020-06-18T09:14:00Z</time>
      </trkpt>
      <trkpt lat="49.78604" lon="0.6323">
        <ele>26</ele>
        <time>2020-06-18T09:14:01Z</time>
      </trkpt>
      <trkpt lat="49.78609" lon="0.63236">
        <ele>25.8</ele>
        <time>2020-06-18T09:14:02Z</time>
      </trkpt>
      <trkpt lat="49.78614" lon="0.63241">
        <ele>25.6</ele>
        <time>2020-06-18T09:14:03Z</time>
      </trkpt>
      <trkpt lat="49.7862" lon="0.63248">
        <ele>25.1</ele>
        <time>2020-06-18T09:14:04Z</time>
      </trkpt>
      <trkpt lat="49.78625" lon="0.63254">
        <ele>24.6</ele>
        <time>2020-06-18T09:14:05Z</time>
      </trkpt>
      <trkpt lat="49.78631" lon="0.63259">
        <ele>24.1</ele>
        <time>2020-06-18T09:14:06Z</time>
      </trkpt>
      <trkpt lat="49.78636" lon="0.63264">
        <ele>23.7</ele>
        <time>2020-06-18T09:14:07Z</time>
      </trkpt>
      <trkpt lat="49.7864" lon="0.6327">
        <ele>23.3</ele>
        <time>2020-06-18T09:14:08Z</time>
      </trkpt>
      <trkpt lat="49.78644" lon="0.63275">
        <ele>23</ele>
        <time>2020-06-18T09:14:09Z</time>
      </trkpt>
      <trkpt lat="49.78647" lon="0.63278">
        <ele>22.7</ele>
        <time>2020-06-18T09:14:10Z</time>
      </trkpt>
      <trkpt lat="49.78649" lon="0.63281">
        <ele>22.5</ele>
        <time>2020-06-18T09:14:11Z</time>
      </trkpt>
      <trkpt lat="49.7865" lon="0.63283">
        <ele>22.4</ele>
        <time>2020-06-18T09:14:12Z</time>
      </trkpt>
      <trkpt lat="49.78651" lon="0.63285">
        <ele>22.3</ele>
        <time>2020-06-18T09:14:13Z</time>
      </trkpt>
      <trkpt lat="49.78652" lon="0.63285">
        <ele>22.3</ele>
        <time>2020-06-18T09:14:14Z</time>
      </trkpt>
      <trkpt lat="49.78652" lon="0.63285">
        <ele>22.2</ele>
        <time>2020-06-18T09:14:15Z</time>
      </trkpt>
      <trkpt lat="49.78652" lon="0.63286">
        <ele>22.2</ele>
        <time>2020-06-18T09:14:16Z</time>
      </trkpt>
      <trkpt lat="49.78652" lon="0.63287">
        <ele>22.1</ele>
        <time>2020-06-18T09:14:17Z</time>
      </trkpt>
      <trkpt lat="49.78652" lon="0.63286">
        <ele>22.1</ele>
        <time>2020-06-18T09:14:18Z</time>
      </trkpt>
      <trkpt lat="49.78652" lon="0.63286">
        <ele>22.1</ele>
        <time>2020-06-18T09:14:19Z</time>
      </trkpt>
      <trkpt lat="49.78653" lon="0.63285">
        <ele>22</ele>
        <time>2020-06-18T09:14:20Z</time>
      </trkpt>
      <trkpt lat="49.78653" lon="0.63284">
        <ele>22</ele>
        <time>2020-06-18T09:14:21Z</time>
      </trkpt>
      <trkpt lat="49.78653" lon="0.63283">
        <ele>21.9</ele>
        <time>2020-06-18T09:14:22Z</time>
      </trkpt>
      <trkpt lat="49.78655" lon="0.63285">
        <ele>21.8</ele>
        <time>2020-06-18T09:14:23Z</time>
      </trkpt>
      <trkpt lat="49.78656" lon="0.63288">
        <ele>21.7</ele>
        <time>2020-06-18T09:14:24Z</time>
      </trkpt>
      <trkpt lat="49.78657" lon="0.63291">
        <ele>21.4</ele>
        <time>2020-06-18T09:14:25Z</time>
      </trkpt>
      <trkpt lat="49.78658" lon="0.63293">
        <ele>21.3</ele>
        <time>2020-06-18T09:14:26Z</time>
      </trkpt>
      <trkpt lat="49.78659" lon="0.63296">
        <ele>21.2</ele>
        <time>2020-06-18T09:15:54Z</time>
      </trkpt>
      <trkpt lat="49.7866" lon="0.63299">
        <ele>21.2</ele>
        <time>2020-06-18T09:15:55Z</time>
      </trkpt>
      <trkpt lat="49.78662" lon="0.63303">
        <ele>21</ele>
        <time>2020-06-18T09:15:56Z</time>
      </trkpt>
      <trkpt lat="49.78663" lon="0.63304">
        <ele>20.9</ele>
        <time>2020-06-18T09:15:57Z</time>
      </trkpt>
      <trkpt lat="49.78666" lon="0.63307">
        <ele>20.7</ele>
        <time>2020-06-18T09:15:58Z</time>
      </trkpt>
      <trkpt lat="49.78669" lon="0.6331">
        <ele>20.6</ele>
        <time>2020-06-18T09:15:59Z</time>
      </trkpt>
      <trkpt lat="49.78673" lon="0.63313">
        <ele>20.4</ele>
        <time>2020-06-18T09:16:00Z</time>
      </trkpt>
      <trkpt lat="49.78676" lon="0.63316">
        <ele>20.2</ele>
        <time>2020-06-18T09:16:01Z</time>
      </trkpt>
      <trkpt lat="49.7868" lon="0.63319">
        <ele>20</ele>
        <time>2020-06-18T09:16:02Z</time>
      </trkpt>
      <trkpt lat="49.78683" lon="0.63323">
        <ele>19.8</ele>
        <time>2020-06-18T09:16:03Z</time>
      </trkpt>
      <trkpt lat="49.78685" lon="0.63326">
        <ele>19.8</ele>
        <time>2020-06-18T09:16:04Z</time>
      </trkpt>
      <trkpt lat="49.78688" lon="0.63329">
        <ele>19.8</ele>
        <time>2020-06-18T09:16:05Z</time>
      </trkpt>
      <trkpt lat="49.78691" lon="0.63333">
        <ele>19.6</ele>
        <time>2020-06-18T09:16:06Z</time>
      </trkpt>
      <trkpt lat="49.78693" lon="0.63335">
        <ele>19.5</ele>
        <time>2020-06-18T09:16:07Z</time>
      </trkpt>
      <trkpt lat="49.78696" lon="0.63339">
        <ele>19.5</ele>
        <time>2020-06-18T09:16:08Z</time>
      </trkpt>
      <trkpt lat="49.78699" lon="0.63343">
        <ele>19.3</ele>
        <time>2020-06-18T09:16:09Z</time>
      </trkpt>
      <trkpt lat="49.78701" lon="0.63348">
        <ele>19.2</ele>
        <time>2020-06-18T09:16:10Z</time>
      </trkpt>
      <trkpt lat="49.78704" lon="0.63354">
        <ele>19.1</ele>
        <time>2020-06-18T09:16:11Z</time>
      </trkpt>
      <trkpt lat="49.78706" lon="0.6336">
        <ele>19.1</ele>
        <time>2020-06-18T09:16:12Z</time>
      </trkpt>
      <trkpt lat="49.78707" lon="0.63369">
        <ele>18.9</ele>
        <time>2020-06-18T09:16:13Z</time>
      </trkpt>
      <trkpt lat="49.78708" lon="0.63378">
        <ele>18.8</ele>
        <time>2020-06-18T09:16:14Z</time>
      </trkpt>
      <trkpt lat="49.78709" lon="0.63388">
        <ele>18.6</ele>
        <time>2020-06-18T09:16:15Z</time>
      </trkpt>
      <trkpt lat="49.78709" lon="0.63397">
        <ele>18.5</ele>
        <time>2020-06-18T09:16:16Z</time>
      </trkpt>
      <trkpt lat="49.78709" lon="0.63405">
        <ele>18.4</ele>
        <time>2020-06-18T09:16:17Z</time>
      </trkpt>
      <trkpt lat="49.7871" lon="0.63414">
        <ele>18.3</ele>
        <time>2020-06-18T09:16:18Z</time>
      </trkpt>
      <trkpt lat="49.7871" lon="0.63422">
        <ele>18.2</ele>
        <time>2020-06-18T09:16:19Z</time>
      </trkpt>
      <trkpt lat="49.7871" lon="0.63431">
        <ele>18.2</ele>
        <time>2020-06-18T09:16:20Z</time>
      </trkpt>
      <trkpt lat="49.78711" lon="0.63439">
        <ele>18.2</ele>
        <time>2020-06-18T09:16:21Z</time>
      </trkpt>
      <trkpt lat="49.78711" lon="0.63446">
        <ele>18.2</ele>
        <time>2020-06-18T09:16:22Z</time>
      </trkpt>
      <trkpt lat="49.78712" lon="0.63454">
        <ele>18.2</ele>
        <time>2020-06-18T09:16:23Z</time>
      </trkpt>
      <trkpt lat="49.78712" lon="0.63461">
        <ele>18.2</ele>
        <time>2020-06-18T09:16:24Z</time>
      </trkpt>
      <trkpt lat="49.78712" lon="0.63469">
        <ele>18.2</ele>
        <time>2020-06-18T09:16:25Z</time>
      </trkpt>
      <trkpt lat="49.78712" lon="0.63477">
        <ele>18.3</ele>
        <time>2020-06-18T09:16:26Z</time>
      </trkpt>
      <trkpt lat="49.78713" lon="0.63484">
        <ele>18.3</ele>
        <time>2020-06-18T09:16:27Z</time>
      </trkpt>
      <trkpt lat="49.78713" lon="0.63492">
        <ele>18.3</ele>
        <time>2020-06-18T09:16:28Z</time>
      </trkpt>
      <trkpt lat="49.78713" lon="0.63499">
        <ele>18.3</ele>
        <time>2020-06-18T09:16:29Z</time>
      </trkpt>
      <trkpt lat="49.78714" lon="0.63507">
        <ele>18.4</ele>
        <time>2020-06-18T09:16:30Z</time>
      </trkpt>
      <trkpt lat="49.78716" lon="0.63516">
        <ele>18.4</ele>
        <time>2020-06-18T09:16:31Z</time>
      </trkpt>
      <trkpt lat="49.78717" lon="0.63524">
        <ele>18.4</ele>
        <time>2020-06-18T09:16:32Z</time>
      </trkpt>
      <trkpt lat="49.78719" lon="0.63532">
        <ele>18.4</ele>
        <time>2020-06-18T09:16:33Z</time>
      </trkpt>
      <trkpt lat="49.78721" lon="0.63539">
        <ele>18.5</ele>
        <time>2020-06-18T09:16:34Z</time>
      </trkpt>
      <trkpt lat="49.78722" lon="0.63546">
        <ele>18.5</ele>
        <time>2020-06-18T09:16:35Z</time>
      </trkpt>
      <trkpt lat="49.78723" lon="0.63553">
        <ele>18.5</ele>
        <time>2020-06-18T09:16:36Z</time>
      </trkpt>
      <trkpt lat="49.78725" lon="0.6356">
        <ele>18.5</ele>
        <time>2020-06-18T09:16:37Z</time>
      </trkpt>
      <trkpt lat="49.78726" lon="0.63567">
        <ele>18.6</ele>
        <time>2020-06-18T09:16:38Z</time>
      </trkpt>
      <trkpt lat="49.78728" lon="0.63573">
        <ele>18.6</ele>
        <time>2020-06-18T09:16:39Z</time>
      </trkpt>
      <trkpt lat="49.7873" lon="0.6358">
        <ele>18.7</ele>
        <time>2020-06-18T09:16:40Z</time>
      </trkpt>
      <trkpt lat="49.78732" lon="0.63587">
        <ele>18.7</ele>
        <time>2020-06-18T09:16:41Z</time>
      </trkpt>
      <trkpt lat="49.78735" lon="0.63594">
        <ele>18.8</ele>
        <time>2020-06-18T09:16:42Z</time>
      </trkpt>
      <trkpt lat="49.78737" lon="0.63601">
        <ele>18.8</ele>
        <time>2020-06-18T09:16:43Z</time>
      </trkpt>
      <trkpt lat="49.78739" lon="0.63608">
        <ele>18.9</ele>
        <time>2020-06-18T09:16:44Z</time>
      </trkpt>
      <trkpt lat="49.7874" lon="0.63616">
        <ele>19</ele>
        <time>2020-06-18T09:16:45Z</time>
      </trkpt>
      <trkpt lat="49.78742" lon="0.63624">
        <ele>19.1</ele>
        <time>2020-06-18T09:16:46Z</time>
      </trkpt>
      <trkpt lat="49.78744" lon="0.63631">
        <ele>19.2</ele>
        <time>2020-06-18T09:16:47Z</time>
      </trkpt>
      <trkpt lat="49.78745" lon="0.63638">
        <ele>19.2</ele>
        <time>2020-06-18T09:16:48Z</time>
      </trkpt>
      <trkpt lat="49.78747" lon="0.63644">
        <ele>19.3</ele>
        <time>2020-06-18T09:16:49Z</time>
      </trkpt>
      <trkpt lat="49.78748" lon="0.63651">
        <ele>19.3</ele>
        <time>2020-06-18T09:16:50Z</time>
      </trkpt>
      <trkpt lat="49.7875" lon="0.63657">
        <ele>19.3</ele>
        <time>2020-06-18T09:16:51Z</time>
      </trkpt>
      <trkpt lat="49.78751" lon="0.63663">
        <ele>19.3</ele>
        <time>2020-06-18T09:16:52Z</time>
      </trkpt>
      <trkpt lat="49.78753" lon="0.6367">
        <ele>19.3</ele>
        <time>2020-06-18T09:16:53Z</time>
      </trkpt>
      <trkpt lat="49.78754" lon="0.63677">
        <ele>19.4</ele>
        <time>2020-06-18T09:16:54Z</time>
      </trkpt>
      <trkpt lat="49.78756" lon="0.63684">
        <ele>19.4</ele>
        <time>2020-06-18T09:16:55Z</time>
      </trkpt>
      <trkpt lat="49.78758" lon="0.63691">
        <ele>19.4</ele>
        <time>2020-06-18T09:16:56Z</time>
      </trkpt>
      <trkpt lat="49.78759" lon="0.63698">
        <ele>19.4</ele>
        <time>2020-06-18T09:16:57Z</time>
      </trkpt>
      <trkpt lat="49.78761" lon="0.63704">
        <ele>19.4</ele>
        <time>2020-06-18T09:16:58Z</time>
      </trkpt>
      <trkpt lat="49.78762" lon="0.63711">
        <ele>19.4</ele>
        <time>2020-06-18T09:16:59Z</time>
      </trkpt>
      <trkpt lat="49.78763" lon="0.63719">
        <ele>19.5</ele>
        <time>2020-06-18T09:17:00Z</time>
      </trkpt>
      <trkpt lat="49.78764" lon="0.63727">
        <ele>19.5</ele>
        <time>2020-06-18T09:17:01Z</time>
      </trkpt>
      <trkpt lat="49.78764" lon="0.63735">
        <ele>19.5</ele>
        <time>2020-06-18T09:17:02Z</time>
      </trkpt>
      <trkpt lat="49.78765" lon="0.63742">
        <ele>19.6</ele>
        <time>2020-06-18T09:17:03Z</time>
      </trkpt>
      <trkpt lat="49.78766" lon="0.63749">
        <ele>19.7</ele>
        <time>2020-06-18T09:17:04Z</time>
      </trkpt>
      <trkpt lat="49.78767" lon="0.63756">
        <ele>19.9</ele>
        <time>2020-06-18T09:17:05Z</time>
      </trkpt>
      <trkpt lat="49.78767" lon="0.63763">
        <ele>20</ele>
        <time>2020-06-18T09:17:06Z</time>
      </trkpt>
      <trkpt lat="49.78768" lon="0.63769">
        <ele>20.1</ele>
        <time>2020-06-18T09:17:07Z</time>
      </trkpt>
      <trkpt lat="49.78768" lon="0.63776">
        <ele>20.4</ele>
        <time>2020-06-18T09:17:08Z</time>
      </trkpt>
      <trkpt lat="49.78768" lon="0.63782">
        <ele>20.6</ele>
        <time>2020-06-18T09:17:09Z</time>
      </trkpt>
      <trkpt lat="49.78769" lon="0.63789">
        <ele>20.8</ele>
        <time>2020-06-18T09:17:10Z</time>
      </trkpt>
      <trkpt lat="49.78769" lon="0.63795">
        <ele>21</ele>
        <time>2020-06-18T09:17:11Z</time>
      </trkpt>
      <trkpt lat="49.78769" lon="0.63801">
        <ele>21.2</ele>
        <time>2020-06-18T09:17:12Z</time>
      </trkpt>
      <trkpt lat="49.7877" lon="0.63806">
        <ele>21.4</ele>
        <time>2020-06-18T09:17:13Z</time>
      </trkpt>
      <trkpt lat="49.7877" lon="0.63812">
        <ele>21.7</ele>
        <time>2020-06-18T09:17:14Z</time>
      </trkpt>
      <trkpt lat="49.7877" lon="0.63818">
        <ele>21.9</ele>
        <time>2020-06-18T09:17:15Z</time>
      </trkpt>
      <trkpt lat="49.7877" lon="0.63825">
        <ele>22.3</ele>
        <time>2020-06-18T09:17:16Z</time>
      </trkpt>
      <trkpt lat="49.7877" lon="0.63831">
        <ele>22.6</ele>
        <time>2020-06-18T09:17:17Z</time>
      </trkpt>
      <trkpt lat="49.7877" lon="0.63837">
        <ele>22.9</ele>
        <time>2020-06-18T09:17:18Z</time>
      </trkpt>
      <trkpt lat="49.7877" lon="0.63843">
        <ele>23.1</ele>
        <time>2020-06-18T09:17:19Z</time>
      </trkpt>
      <trkpt lat="49.7877" lon="0.63849">
        <ele>23.4</ele>
        <time>2020-06-18T09:17:20Z</time>
      </trkpt>
      <trkpt lat="49.7877" lon="0.63855">
        <ele>23.7</ele>
        <time>2020-06-18T09:17:21Z</time>
      </trkpt>
      <trkpt lat="49.7877" lon="0.63861">
        <ele>23.9</ele>
        <time>2020-06-18T09:17:22Z</time>
      </trkpt>
      <trkpt lat="49.7877" lon="0.63867">
        <ele>24.2</ele>
        <time>2020-06-18T09:17:23Z</time>
      </trkpt>
      <trkpt lat="49.7877" lon="0.63872">
        <ele>24.4</ele>
        <time>2020-06-18T09:17:24Z</time>
      </trkpt>
      <trkpt lat="49.7877" lon="0.63876">
        <ele>24.6</ele>
        <time>2020-06-18T09:17:25Z</time>
      </trkpt>
      <trkpt lat="49.78769" lon="0.6388">
        <ele>24.7</ele>
        <time>2020-06-18T09:17:26Z</time>
      </trkpt>
      <trkpt lat="49.78767" lon="0.63884">
        <ele>24.9</ele>
        <time>2020-06-18T09:17:27Z</time>
      </trkpt>
      <trkpt lat="49.78765" lon="0.63888">
        <ele>25</ele>
        <time>2020-06-18T09:17:28Z</time>
      </trkpt>
      <trkpt lat="49.78765" lon="0.63889">
        <ele>25</ele>
        <time>2020-06-18T09:17:29Z</time>
      </trkpt>
      <trkpt lat="49.78764" lon="0.63895">
        <ele>25</ele>
        <time>2020-06-18T09:17:30Z</time>
      </trkpt>
      <trkpt lat="49.78763" lon="0.63897">
        <ele>24.9</ele>
        <time>2020-06-18T09:17:31Z</time>
      </trkpt>
      <trkpt lat="49.78762" lon="0.63902">
        <ele>24.9</ele>
        <time>2020-06-18T09:17:32Z</time>
      </trkpt>
      <trkpt lat="49.78762" lon="0.63903">
        <ele>24.9</ele>
        <time>2020-06-18T09:17:33Z</time>
      </trkpt>
      <trkpt lat="49.78761" lon="0.63906">
        <ele>24.8</ele>
        <time>2020-06-18T09:17:34Z</time>
      </trkpt>
      <trkpt lat="49.78761" lon="0.63907">
        <ele>24.8</ele>
        <time>2020-06-18T09:17:35Z</time>
      </trkpt>
      <trkpt lat="49.78761" lon="0.63909">
        <ele>24.8</ele>
        <time>2020-06-18T09:17:36Z</time>
      </trkpt>
      <trkpt lat="49.78761" lon="0.63909">
        <ele>24.8</ele>
        <time>2020-06-18T09:17:37Z</time>
      </trkpt>
      <trkpt lat="49.7876" lon="0.6391">
        <ele>24.8</ele>
        <time>2020-06-18T09:17:38Z</time>
      </trkpt>
      <trkpt lat="49.7876" lon="0.6391">
        <ele>24.8</ele>
        <time>2020-06-18T09:17:39Z</time>
      </trkpt>
      <trkpt lat="49.7876" lon="0.63911">
        <ele>24.8</ele>
        <time>2020-06-18T09:17:40Z</time>
      </trkpt>
      <trkpt lat="49.78759" lon="0.6391">
        <ele>24.7</ele>
        <time>2020-06-18T09:17:41Z</time>
      </trkpt>
      <trkpt lat="49.7876" lon="0.6391">
        <ele>24.7</ele>
        <time>2020-06-18T09:17:42Z</time>
      </trkpt>
      <trkpt lat="49.7876" lon="0.6391">
        <ele>24.7</ele>
        <time>2020-06-18T09:17:43Z</time>
      </trkpt>
      <trkpt lat="49.7876" lon="0.6391">
        <ele>24.7</ele>
        <time>2020-06-18T09:17:44Z</time>
      </trkpt>
      <trkpt lat="49.7876" lon="0.6391">
        <ele>24.7</ele>
        <time>2020-06-18T09:17:45Z</time>
      </trkpt>
      <trkpt lat="49.78761" lon="0.6391">
        <ele>24.7</ele>
        <time>2020-06-18T09:17:46Z</time>
      </trkpt>
      <trkpt lat="49.78761" lon="0.6391">
        <ele>24.7</ele>
        <time>2020-06-18T09:17:47Z</time>
      </trkpt>
      <trkpt lat="49.78761" lon="0.6391">
        <ele>24.7</ele>
        <time>2020-06-18T09:17:48Z</time>
      </trkpt>
      <trkpt lat="49.78762" lon="0.6391">
        <ele>24.7</ele>
        <time>2020-06-18T09:17:49Z</time>
      </trkpt>
      <trkpt lat="49.78762" lon="0.6391">
        <ele>24.7</ele>
        <time>2020-06-18T09:17:50Z</time>
      </trkpt>
      <trkpt lat="49.78762" lon="0.6391">
        <ele>24.7</ele>
        <time>2020-06-18T09:17:51Z</time>
      </trkpt>
      <trkpt lat="49.78762" lon="0.6391">
        <ele>24.7</ele>
        <time>2020-06-18T09:17:52Z</time>
      </trkpt>
      <trkpt lat="49.78763" lon="0.6391">
        <ele>24.7</ele>
        <time>2020-06-18T09:17:53Z</time>
      </trkpt>
      <trkpt lat="49.78763" lon="0.6391">
        <ele>24.7</ele>
        <time>2020-06-18T09:17:54Z</time>
      </trkpt>
      <trkpt lat="49.78763" lon="0.6391">
        <ele>24.7</ele>
        <time>2020-06-18T09:17:55Z</time>
      </trkpt>
      <trkpt lat="49.78763" lon="0.6391">
        <ele>24.7</ele>
        <time>2020-06-18T09:17:56Z</time>
      </trkpt>
      <trkpt lat="49.78765" lon="0.63909">
        <ele>24.6</ele>
        <time>2020-06-18T09:17:57Z</time>
      </trkpt>
      <trkpt lat="49.78766" lon="0.63906">
        <ele>24.6</ele>
        <time>2020-06-18T09:17:58Z</time>
      </trkpt>
      <trkpt lat="49.78768" lon="0.63902">
        <ele>24.5</ele>
        <time>2020-06-18T09:17:59Z</time>
      </trkpt>
      <trkpt lat="49.78769" lon="0.63901">
        <ele>24.5</ele>
        <time>2020-06-18T09:18:00Z</time>
      </trkpt>
      <trkpt lat="49.78771" lon="0.63899">
        <ele>24.4</ele>
        <time>2020-06-18T09:18:01Z</time>
      </trkpt>
      <trkpt lat="49.78772" lon="0.63898">
        <ele>24.3</ele>
        <time>2020-06-18T09:18:02Z</time>
      </trkpt>
      <trkpt lat="49.78776" lon="0.63898">
        <ele>24.2</ele>
        <time>2020-06-18T09:18:03Z</time>
      </trkpt>
      <trkpt lat="49.78777" lon="0.63898">
        <ele>24.2</ele>
        <time>2020-06-18T09:18:04Z</time>
      </trkpt>
      <trkpt lat="49.7878" lon="0.63897">
        <ele>24</ele>
        <time>2020-06-18T09:18:05Z</time>
      </trkpt>
      <trkpt lat="49.78784" lon="0.63896">
        <ele>23.9</ele>
        <time>2020-06-18T09:18:06Z</time>
      </trkpt>
      <trkpt lat="49.78787" lon="0.63895">
        <ele>23.8</ele>
        <time>2020-06-18T09:18:07Z</time>
      </trkpt>
      <trkpt lat="49.7879" lon="0.63894">
        <ele>23.7</ele>
        <time>2020-06-18T09:18:08Z</time>
      </trkpt>
      <trkpt lat="49.78794" lon="0.63893">
        <ele>23.5</ele>
        <time>2020-06-18T09:18:09Z</time>
      </trkpt>
      <trkpt lat="49.78798" lon="0.63892">
        <ele>23.4</ele>
        <time>2020-06-18T09:18:10Z</time>
      </trkpt>
      <trkpt lat="49.78803" lon="0.63891">
        <ele>23.2</ele>
        <time>2020-06-18T09:18:11Z</time>
      </trkpt>
      <trkpt lat="49.78808" lon="0.63889">
        <ele>23.1</ele>
        <time>2020-06-18T09:18:12Z</time>
      </trkpt>
      <trkpt lat="49.78813" lon="0.63887">
        <ele>22.9</ele>
        <time>2020-06-18T09:18:13Z</time>
      </trkpt>
      <trkpt lat="49.78818" lon="0.63887">
        <ele>22.8</ele>
        <time>2020-06-18T09:18:14Z</time>
      </trkpt>
      <trkpt lat="49.78823" lon="0.63885">
        <ele>22.6</ele>
        <time>2020-06-18T09:18:15Z</time>
      </trkpt>
      <trkpt lat="49.78829" lon="0.63884">
        <ele>22.4</ele>
        <time>2020-06-18T09:18:16Z</time>
      </trkpt>
      <trkpt lat="49.78834" lon="0.63884">
        <ele>22.2</ele>
        <time>2020-06-18T09:18:17Z</time>
      </trkpt>
      <trkpt lat="49.78839" lon="0.63884">
        <ele>22.1</ele>
        <time>2020-06-18T09:18:18Z</time>
      </trkpt>
      <trkpt lat="49.78844" lon="0.63885">
        <ele>22</ele>
        <time>2020-06-18T09:18:19Z</time>
      </trkpt>
      <trkpt lat="49.7885" lon="0.63885">
        <ele>21.9</ele>
        <time>2020-06-18T09:18:20Z</time>
      </trkpt>
      <trkpt lat="49.78855" lon="0.63886">
        <ele>21.8</ele>
        <time>2020-06-18T09:18:21Z</time>
      </trkpt>
      <trkpt lat="49.7886" lon="0.63887">
        <ele>21.7</ele>
        <time>2020-06-18T09:18:22Z</time>
      </trkpt>
      <trkpt lat="49.78865" lon="0.63887">
        <ele>21.6</ele>
        <time>2020-06-18T09:18:23Z</time>
      </trkpt>
      <trkpt lat="49.7887" lon="0.63889">
        <ele>21.5</ele>
        <time>2020-06-18T09:18:24Z</time>
      </trkpt>
      <trkpt lat="49.78875" lon="0.63891">
        <ele>21.4</ele>
        <time>2020-06-18T09:18:25Z</time>
      </trkpt>
      <trkpt lat="49.7888" lon="0.63892">
        <ele>21.3</ele>
        <time>2020-06-18T09:18:26Z</time>
      </trkpt>
      <trkpt lat="49.78885" lon="0.63894">
        <ele>21.3</ele>
        <time>2020-06-18T09:18:27Z</time>
      </trkpt>
      <trkpt lat="49.7889" lon="0.63897">
        <ele>21.2</ele>
        <time>2020-06-18T09:18:28Z</time>
      </trkpt>
      <trkpt lat="49.78894" lon="0.63901">
        <ele>21.1</ele>
        <time>2020-06-18T09:18:29Z</time>
      </trkpt>
      <trkpt lat="49.78899" lon="0.63904">
        <ele>21</ele>
        <time>2020-06-18T09:18:30Z</time>
      </trkpt>
      <trkpt lat="49.78903" lon="0.63908">
        <ele>20.8</ele>
        <time>2020-06-18T09:18:31Z</time>
      </trkpt>
      <trkpt lat="49.78908" lon="0.63913">
        <ele>20.7</ele>
        <time>2020-06-18T09:18:32Z</time>
      </trkpt>
      <trkpt lat="49.78913" lon="0.63917">
        <ele>20.6</ele>
        <time>2020-06-18T09:18:33Z</time>
      </trkpt>
      <trkpt lat="49.78918" lon="0.6392">
        <ele>20.4</ele>
        <time>2020-06-18T09:18:34Z</time>
      </trkpt>
      <trkpt lat="49.78923" lon="0.63923">
        <ele>20.3</ele>
        <time>2020-06-18T09:18:35Z</time>
      </trkpt>
      <trkpt lat="49.78928" lon="0.63925">
        <ele>20.2</ele>
        <time>2020-06-18T09:18:36Z</time>
      </trkpt>
      <trkpt lat="49.78933" lon="0.63928">
        <ele>20</ele>
        <time>2020-06-18T09:18:37Z</time>
      </trkpt>
      <trkpt lat="49.78939" lon="0.6393">
        <ele>19.9</ele>
        <time>2020-06-18T09:18:38Z</time>
      </trkpt>
      <trkpt lat="49.78945" lon="0.63932">
        <ele>19.7</ele>
        <time>2020-06-18T09:18:39Z</time>
      </trkpt>
      <trkpt lat="49.78952" lon="0.63932">
        <ele>19.5</ele>
        <time>2020-06-18T09:18:40Z</time>
      </trkpt>
      <trkpt lat="49.78958" lon="0.63933">
        <ele>19.3</ele>
        <time>2020-06-18T09:18:41Z</time>
      </trkpt>
      <trkpt lat="49.78965" lon="0.63934">
        <ele>19.2</ele>
        <time>2020-06-18T09:18:42Z</time>
      </trkpt>
      <trkpt lat="49.78972" lon="0.63934">
        <ele>19</ele>
        <time>2020-06-18T09:18:43Z</time>
      </trkpt>
      <trkpt lat="49.78978" lon="0.63934">
        <ele>18.9</ele>
        <time>2020-06-18T09:18:44Z</time>
      </trkpt>
      <trkpt lat="49.78984" lon="0.63934">
        <ele>18.8</ele>
        <time>2020-06-18T09:18:45Z</time>
      </trkpt>
      <trkpt lat="49.78991" lon="0.63935">
        <ele>18.7</ele>
        <time>2020-06-18T09:18:46Z</time>
      </trkpt>
      <trkpt lat="49.78997" lon="0.63935">
        <ele>18.7</ele>
        <time>2020-06-18T09:18:47Z</time>
      </trkpt>
      <trkpt lat="49.79003" lon="0.63935">
        <ele>18.6</ele>
        <time>2020-06-18T09:18:48Z</time>
      </trkpt>
      <trkpt lat="49.7901" lon="0.63936">
        <ele>18.5</ele>
        <time>2020-06-18T09:18:49Z</time>
      </trkpt>
      <trkpt lat="49.79016" lon="0.63936">
        <ele>18.5</ele>
        <time>2020-06-18T09:18:50Z</time>
      </trkpt>
      <trkpt lat="49.79022" lon="0.63937">
        <ele>18.4</ele>
        <time>2020-06-18T09:18:51Z</time>
      </trkpt>
      <trkpt lat="49.79027" lon="0.63937">
        <ele>18.4</ele>
        <time>2020-06-18T09:18:52Z</time>
      </trkpt>
      <trkpt lat="49.79032" lon="0.63937">
        <ele>18.3</ele>
        <time>2020-06-18T09:18:53Z</time>
      </trkpt>
      <trkpt lat="49.79036" lon="0.63936">
        <ele>18.3</ele>
        <time>2020-06-18T09:18:54Z</time>
      </trkpt>
      <trkpt lat="49.7904" lon="0.63936">
        <ele>18.3</ele>
        <time>2020-06-18T09:18:55Z</time>
      </trkpt>
      <trkpt lat="49.79044" lon="0.63936">
        <ele>18.3</ele>
        <time>2020-06-18T09:18:56Z</time>
      </trkpt>
      <trkpt lat="49.79047" lon="0.63936">
        <ele>18.3</ele>
        <time>2020-06-18T09:18:57Z</time>
      </trkpt>
      <trkpt lat="49.79051" lon="0.63935">
        <ele>18.3</ele>
        <time>2020-06-18T09:18:58Z</time>
      </trkpt>
      <trkpt lat="49.79052" lon="0.63936">
        <ele>18.3</ele>
        <time>2020-06-18T09:18:59Z</time>
      </trkpt>
      <trkpt lat="49.79053" lon="0.63936">
        <ele>18.3</ele>
        <time>2020-06-18T09:19:00Z</time>
      </trkpt>
      <trkpt lat="49.79055" lon="0.63937">
        <ele>18.3</ele>
        <time>2020-06-18T09:19:01Z</time>
      </trkpt>
      <trkpt lat="49.79057" lon="0.63936">
        <ele>18.3</ele>
        <time>2020-06-18T09:19:02Z</time>
      </trkpt>
      <trkpt lat="49.79058" lon="0.63936">
        <ele>18.3</ele>
        <time>2020-06-18T09:19:03Z</time>
      </trkpt>
      <trkpt lat="49.79059" lon="0.63936">
        <ele>18.3</ele>
        <time>2020-06-18T09:19:04Z</time>
      </trkpt>
      <trkpt lat="49.7906" lon="0.63936">
        <ele>18.3</ele>
        <time>2020-06-18T09:19:05Z</time>
      </trkpt>
      <trkpt lat="49.7906" lon="0.63936">
        <ele>18.3</ele>
        <time>2020-06-18T09:19:06Z</time>
      </trkpt>
      <trkpt lat="49.79061" lon="0.63935">
        <ele>18.3</ele>
        <time>2020-06-18T09:19:07Z</time>
      </trkpt>
      <trkpt lat="49.79062" lon="0.63932">
        <ele>18.3</ele>
        <time>2020-06-18T09:19:08Z</time>
      </trkpt>
      <trkpt lat="49.79062" lon="0.6393">
        <ele>18.3</ele>
        <time>2020-06-18T09:19:09Z</time>
      </trkpt>
      <trkpt lat="49.79062" lon="0.63928">
        <ele>18.3</ele>
        <time>2020-06-18T09:19:10Z</time>
      </trkpt>
      <trkpt lat="49.79062" lon="0.63927">
        <ele>18.3</ele>
        <time>2020-06-18T09:19:11Z</time>
      </trkpt>
      <trkpt lat="49.7906" lon="0.63925">
        <ele>18.3</ele>
        <time>2020-06-18T09:19:12Z</time>
      </trkpt>
      <trkpt lat="49.79057" lon="0.63926">
        <ele>18.3</ele>
        <time>2020-06-18T09:19:13Z</time>
      </trkpt>
      <trkpt lat="49.79055" lon="0.63926">
        <ele>18.3</ele>
        <time>2020-06-18T09:19:14Z</time>
      </trkpt>
      <trkpt lat="49.79052" lon="0.63928">
        <ele>18.3</ele>
        <time>2020-06-18T09:19:15Z</time>
      </trkpt>
      <trkpt lat="49.79051" lon="0.63928">
        <ele>18.3</ele>
        <time>2020-06-18T09:19:16Z</time>
      </trkpt>
      <trkpt lat="49.79047" lon="0.6393">
        <ele>18.3</ele>
        <time>2020-06-18T09:19:17Z</time>
      </trkpt>
      <trkpt lat="49.79046" lon="0.6393">
        <ele>18.3</ele>
        <time>2020-06-18T09:19:18Z</time>
      </trkpt>
      <trkpt lat="49.79043" lon="0.63931">
        <ele>18.4</ele>
        <time>2020-06-18T09:19:19Z</time>
      </trkpt>
      <trkpt lat="49.7904" lon="0.63931">
        <ele>18.4</ele>
        <time>2020-06-18T09:19:20Z</time>
      </trkpt>
      <trkpt lat="49.79037" lon="0.63932">
        <ele>18.4</ele>
        <time>2020-06-18T09:19:21Z</time>
      </trkpt>
      <trkpt lat="49.79033" lon="0.63933">
        <ele>18.4</ele>
        <time>2020-06-18T09:19:22Z</time>
      </trkpt>
      <trkpt lat="49.79029" lon="0.63934">
        <ele>18.4</ele>
        <time>2020-06-18T09:19:23Z</time>
      </trkpt>
      <trkpt lat="49.79024" lon="0.63934">
        <ele>18.5</ele>
        <time>2020-06-18T09:19:24Z</time>
      </trkpt>
      <trkpt lat="49.79019" lon="0.63934">
        <ele>18.5</ele>
        <time>2020-06-18T09:19:25Z</time>
      </trkpt>
      <trkpt lat="49.79015" lon="0.63934">
        <ele>18.5</ele>
        <time>2020-06-18T09:19:26Z</time>
      </trkpt>
      <trkpt lat="49.7901" lon="0.63934">
        <ele>18.5</ele>
        <time>2020-06-18T09:19:27Z</time>
      </trkpt>
      <trkpt lat="49.79006" lon="0.63934">
        <ele>18.6</ele>
        <time>2020-06-18T09:19:28Z</time>
      </trkpt>
      <trkpt lat="49.79001" lon="0.63934">
        <ele>18.6</ele>
        <time>2020-06-18T09:19:29Z</time>
      </trkpt>
      <trkpt lat="49.78996" lon="0.63933">
        <ele>18.7</ele>
        <time>2020-06-18T09:19:30Z</time>
      </trkpt>
      <trkpt lat="49.78992" lon="0.63934">
        <ele>18.7</ele>
        <time>2020-06-18T09:19:31Z</time>
      </trkpt>
      <trkpt lat="49.78988" lon="0.63934">
        <ele>18.8</ele>
        <time>2020-06-18T09:19:32Z</time>
      </trkpt>
      <trkpt lat="49.78984" lon="0.63933">
        <ele>18.8</ele>
        <time>2020-06-18T09:19:33Z</time>
      </trkpt>
      <trkpt lat="49.78979" lon="0.63933">
        <ele>18.9</ele>
        <time>2020-06-18T09:19:34Z</time>
      </trkpt>
      <trkpt lat="49.78974" lon="0.63933">
        <ele>19</ele>
        <time>2020-06-18T09:19:35Z</time>
      </trkpt>
      <trkpt lat="49.7897" lon="0.63932">
        <ele>19.1</ele>
        <time>2020-06-18T09:19:36Z</time>
      </trkpt>
      <trkpt lat="49.78965" lon="0.63933">
        <ele>19.2</ele>
        <time>2020-06-18T09:19:37Z</time>
      </trkpt>
      <trkpt lat="49.78961" lon="0.63932">
        <ele>19.3</ele>
        <time>2020-06-18T09:19:38Z</time>
      </trkpt>
      <trkpt lat="49.78956" lon="0.63932">
        <ele>19.4</ele>
        <time>2020-06-18T09:19:39Z</time>
      </trkpt>
      <trkpt lat="49.78953" lon="0.63932">
        <ele>19.5</ele>
        <time>2020-06-18T09:19:40Z</time>
      </trkpt>
      <trkpt lat="49.7895" lon="0.63931">
        <ele>19.6</ele>
        <time>2020-06-18T09:19:41Z</time>
      </trkpt>
      <trkpt lat="49.78946" lon="0.6393">
        <ele>19.7</ele>
        <time>2020-06-18T09:19:42Z</time>
      </trkpt>
      <trkpt lat="49.78943" lon="0.63929">
        <ele>19.8</ele>
        <time>2020-06-18T09:19:43Z</time>
      </trkpt>
      <trkpt lat="49.78939" lon="0.63928">
        <ele>19.9</ele>
        <time>2020-06-18T09:19:44Z</time>
      </trkpt>
      <trkpt lat="49.78936" lon="0.63928">
        <ele>20</ele>
        <time>2020-06-18T09:19:45Z</time>
      </trkpt>
      <trkpt lat="49.78934" lon="0.63926">
        <ele>20.1</ele>
        <time>2020-06-18T09:19:46Z</time>
      </trkpt>
      <trkpt lat="49.7893" lon="0.63925">
        <ele>20.2</ele>
        <time>2020-06-18T09:19:47Z</time>
      </trkpt>
      <trkpt lat="49.78929" lon="0.63924">
        <ele>20.2</ele>
        <time>2020-06-18T09:19:48Z</time>
      </trkpt>
      <trkpt lat="49.78925" lon="0.63923">
        <ele>20.3</ele>
        <time>2020-06-18T09:19:49Z</time>
      </trkpt>
      <trkpt lat="49.78924" lon="0.63922">
        <ele>20.3</ele>
        <time>2020-06-18T09:19:50Z</time>
      </trkpt>
      <trkpt lat="49.78921" lon="0.63921">
        <ele>20.4</ele>
        <time>2020-06-18T09:19:51Z</time>
      </trkpt>
      <trkpt lat="49.78918" lon="0.63919">
        <ele>20.5</ele>
        <time>2020-06-18T09:19:52Z</time>
      </trkpt>
      <trkpt lat="49.78915" lon="0.63917">
        <ele>20.6</ele>
        <time>2020-06-18T09:19:53Z</time>
      </trkpt>
      <trkpt lat="49.78911" lon="0.63915">
        <ele>20.7</ele>
        <time>2020-06-18T09:19:54Z</time>
      </trkpt>
      <trkpt lat="49.7891" lon="0.63914">
        <ele>20.7</ele>
        <time>2020-06-18T09:19:55Z</time>
      </trkpt>
      <trkpt lat="49.78906" lon="0.63912">
        <ele>20.8</ele>
        <time>2020-06-18T09:19:56Z</time>
      </trkpt>
      <trkpt lat="49.78903" lon="0.63911">
        <ele>20.9</ele>
        <time>2020-06-18T09:19:57Z</time>
      </trkpt>
      <trkpt lat="49.789" lon="0.63909">
        <ele>21.2</ele>
        <time>2020-06-18T09:19:58Z</time>
      </trkpt>
      <trkpt lat="49.789" lon="0.63908">
        <ele>21.3</ele>
        <time>2020-06-18T09:19:59Z</time>
      </trkpt>
      <trkpt lat="49.78897" lon="0.63909">
        <ele>21.6</ele>
        <time>2020-06-18T09:20:00Z</time>
      </trkpt>
      <trkpt lat="49.78896" lon="0.63911">
        <ele>21.7</ele>
        <time>2020-06-18T09:20:01Z</time>
      </trkpt>
      <trkpt lat="49.78896" lon="0.63912">
        <ele>21.8</ele>
        <time>2020-06-18T09:20:02Z</time>
      </trkpt>
      <trkpt lat="49.78895" lon="0.63917">
        <ele>22.2</ele>
        <time>2020-06-18T09:20:03Z</time>
      </trkpt>
      <trkpt lat="49.78895" lon="0.63918">
        <ele>22.3</ele>
        <time>2020-06-18T09:20:04Z</time>
      </trkpt>
      <trkpt lat="49.78894" lon="0.63924">
        <ele>22.7</ele>
        <time>2020-06-18T09:20:05Z</time>
      </trkpt>
      <trkpt lat="49.78894" lon="0.63925">
        <ele>22.8</ele>
        <time>2020-06-18T09:20:06Z</time>
      </trkpt>
      <trkpt lat="49.78893" lon="0.6393">
        <ele>23.1</ele>
        <time>2020-06-18T09:20:07Z</time>
      </trkpt>
      <trkpt lat="49.78892" lon="0.63931">
        <ele>23.2</ele>
        <time>2020-06-18T09:20:08Z</time>
      </trkpt>
      <trkpt lat="49.78892" lon="0.63933">
        <ele>23.4</ele>
        <time>2020-06-18T09:20:09Z</time>
      </trkpt>
      <trkpt lat="49.78891" lon="0.63935">
        <ele>23.5</ele>
        <time>2020-06-18T09:20:10Z</time>
      </trkpt>
      <trkpt lat="49.7889" lon="0.63938">
        <ele>23.8</ele>
        <time>2020-06-18T09:20:11Z</time>
      </trkpt>
      <trkpt lat="49.7889" lon="0.6394">
        <ele>24</ele>
        <time>2020-06-18T09:20:12Z</time>
      </trkpt>
      <trkpt lat="49.78889" lon="0.63942">
        <ele>24.1</ele>
        <time>2020-06-18T09:20:13Z</time>
      </trkpt>
      <trkpt lat="49.78888" lon="0.63947">
        <ele>24.5</ele>
        <time>2020-06-18T09:20:14Z</time>
      </trkpt>
      <trkpt lat="49.78888" lon="0.63949">
        <ele>24.7</ele>
        <time>2020-06-18T09:20:15Z</time>
      </trkpt>
      <trkpt lat="49.78887" lon="0.63953">
        <ele>25</ele>
        <time>2020-06-18T09:20:16Z</time>
      </trkpt>
      <trkpt lat="49.78887" lon="0.63954">
        <ele>25.1</ele>
        <time>2020-06-18T09:20:17Z</time>
      </trkpt>
      <trkpt lat="49.78885" lon="0.63959">
        <ele>25.5</ele>
        <time>2020-06-18T09:20:18Z</time>
      </trkpt>
      <trkpt lat="49.78885" lon="0.6396">
        <ele>25.6</ele>
        <time>2020-06-18T09:20:19Z</time>
      </trkpt>
      <trkpt lat="49.78883" lon="0.63965">
        <ele>26</ele>
        <time>2020-06-18T09:20:20Z</time>
      </trkpt>
      <trkpt lat="49.78883" lon="0.63966">
        <ele>26.1</ele>
        <time>2020-06-18T09:20:21Z</time>
      </trkpt>
      <trkpt lat="49.78881" lon="0.6397">
        <ele>26.4</ele>
        <time>2020-06-18T09:20:22Z</time>
      </trkpt>
      <trkpt lat="49.78881" lon="0.63972">
        <ele>26.6</ele>
        <time>2020-06-18T09:20:23Z</time>
      </trkpt>
      <trkpt lat="49.7888" lon="0.63976">
        <ele>26.9</ele>
        <time>2020-06-18T09:20:24Z</time>
      </trkpt>
      <trkpt lat="49.78879" lon="0.63978">
        <ele>27.1</ele>
        <time>2020-06-18T09:20:25Z</time>
      </trkpt>
      <trkpt lat="49.78878" lon="0.63981">
        <ele>27.4</ele>
        <time>2020-06-18T09:20:26Z</time>
      </trkpt>
      <trkpt lat="49.78877" lon="0.63984">
        <ele>27.6</ele>
        <time>2020-06-18T09:20:27Z</time>
      </trkpt>
      <trkpt lat="49.78877" lon="0.63986">
        <ele>27.8</ele>
        <time>2020-06-18T09:20:28Z</time>
      </trkpt>
      <trkpt lat="49.78875" lon="0.6399">
        <ele>28.2</ele>
        <time>2020-06-18T09:20:29Z</time>
      </trkpt>
      <trkpt lat="49.78875" lon="0.63991">
        <ele>28.3</ele>
        <time>2020-06-18T09:20:30Z</time>
      </trkpt>
      <trkpt lat="49.78874" lon="0.63994">
        <ele>28.5</ele>
        <time>2020-06-18T09:20:31Z</time>
      </trkpt>
      <trkpt lat="49.78873" lon="0.63996">
        <ele>28.7</ele>
        <time>2020-06-18T09:20:32Z</time>
      </trkpt>
      <trkpt lat="49.78873" lon="0.63998">
        <ele>28.8</ele>
        <time>2020-06-18T09:20:33Z</time>
      </trkpt>
      <trkpt lat="49.78872" lon="0.64001">
        <ele>29.1</ele>
        <time>2020-06-18T09:20:34Z</time>
      </trkpt>
      <trkpt lat="49.78871" lon="0.64004">
        <ele>29.3</ele>
        <time>2020-06-18T09:20:35Z</time>
      </trkpt>
      <trkpt lat="49.78871" lon="0.64006">
        <ele>29.6</ele>
        <time>2020-06-18T09:20:36Z</time>
      </trkpt>
      <trkpt lat="49.7887" lon="0.64011">
        <ele>29.9</ele>
        <time>2020-06-18T09:20:37Z</time>
      </trkpt>
      <trkpt lat="49.7887" lon="0.64012">
        <ele>30.1</ele>
        <time>2020-06-18T09:20:38Z</time>
      </trkpt>
      <trkpt lat="49.7887" lon="0.64015">
        <ele>30.3</ele>
        <time>2020-06-18T09:20:39Z</time>
      </trkpt>
      <trkpt lat="49.78869" lon="0.64017">
        <ele>30.4</ele>
        <time>2020-06-18T09:20:40Z</time>
      </trkpt>
      <trkpt lat="49.78869" lon="0.64018">
        <ele>30.5</ele>
        <time>2020-06-18T09:20:41Z</time>
      </trkpt>
      <trkpt lat="49.78868" lon="0.6402">
        <ele>30.7</ele>
        <time>2020-06-18T09:20:42Z</time>
      </trkpt>
      <trkpt lat="49.78868" lon="0.64023">
        <ele>31</ele>
        <time>2020-06-18T09:20:43Z</time>
      </trkpt>
      <trkpt lat="49.78867" lon="0.64025">
        <ele>31.2</ele>
        <time>2020-06-18T09:20:44Z</time>
      </trkpt>
      <trkpt lat="49.78867" lon="0.64028">
        <ele>31.4</ele>
        <time>2020-06-18T09:20:45Z</time>
      </trkpt>
      <trkpt lat="49.78867" lon="0.64031">
        <ele>31.7</ele>
        <time>2020-06-18T09:20:46Z</time>
      </trkpt>
      <trkpt lat="49.78867" lon="0.64033">
        <ele>31.9</ele>
        <time>2020-06-18T09:20:47Z</time>
      </trkpt>
      <trkpt lat="49.78866" lon="0.64038">
        <ele>32.2</ele>
        <time>2020-06-18T09:20:48Z</time>
      </trkpt>
      <trkpt lat="49.78865" lon="0.6404">
        <ele>32.4</ele>
        <time>2020-06-18T09:20:49Z</time>
      </trkpt>
      <trkpt lat="49.78865" lon="0.64044">
        <ele>32.8</ele>
        <time>2020-06-18T09:20:50Z</time>
      </trkpt>
      <trkpt lat="49.78865" lon="0.64045">
        <ele>32.9</ele>
        <time>2020-06-18T09:20:51Z</time>
      </trkpt>
      <trkpt lat="49.78865" lon="0.64049">
        <ele>33.1</ele>
        <time>2020-06-18T09:20:52Z</time>
      </trkpt>
      <trkpt lat="49.78865" lon="0.6405">
        <ele>33.3</ele>
        <time>2020-06-18T09:20:53Z</time>
      </trkpt>
      <trkpt lat="49.78865" lon="0.64053">
        <ele>33.5</ele>
        <time>2020-06-18T09:20:54Z</time>
      </trkpt>
      <trkpt lat="49.78865" lon="0.64055">
        <ele>33.7</ele>
        <time>2020-06-18T09:20:55Z</time>
      </trkpt>
      <trkpt lat="49.78865" lon="0.64058">
        <ele>33.9</ele>
        <time>2020-06-18T09:20:56Z</time>
      </trkpt>
      <trkpt lat="49.78866" lon="0.64061">
        <ele>34.2</ele>
        <time>2020-06-18T09:20:57Z</time>
      </trkpt>
      <trkpt lat="49.78866" lon="0.64063">
        <ele>34.4</ele>
        <time>2020-06-18T09:20:58Z</time>
      </trkpt>
      <trkpt lat="49.78866" lon="0.64065">
        <ele>34.6</ele>
        <time>2020-06-18T09:20:59Z</time>
      </trkpt>
      <trkpt lat="49.78865" lon="0.64069">
        <ele>35</ele>
        <time>2020-06-18T09:21:00Z</time>
      </trkpt>
      <trkpt lat="49.78865" lon="0.64071">
        <ele>35.1</ele>
        <time>2020-06-18T09:21:01Z</time>
      </trkpt>
      <trkpt lat="49.78865" lon="0.64073">
        <ele>35.3</ele>
        <time>2020-06-18T09:21:02Z</time>
      </trkpt>
      <trkpt lat="49.78864" lon="0.64076">
        <ele>35.5</ele>
        <time>2020-06-18T09:21:03Z</time>
      </trkpt>
      <trkpt lat="49.78864" lon="0.64078">
        <ele>35.7</ele>
        <time>2020-06-18T09:21:04Z</time>
      </trkpt>
      <trkpt lat="49.78863" lon="0.64081">
        <ele>36</ele>
        <time>2020-06-18T09:21:05Z</time>
      </trkpt>
      <trkpt lat="49.78863" lon="0.64083">
        <ele>36.2</ele>
        <time>2020-06-18T09:21:06Z</time>
      </trkpt>
      <trkpt lat="49.78863" lon="0.64085">
        <ele>36.3</ele>
        <time>2020-06-18T09:21:07Z</time>
      </trkpt>
      <trkpt lat="49.78863" lon="0.64088">
        <ele>36.5</ele>
        <time>2020-06-18T09:21:08Z</time>
      </trkpt>
      <trkpt lat="49.78863" lon="0.6409">
        <ele>36.7</ele>
        <time>2020-06-18T09:21:09Z</time>
      </trkpt>
      <trkpt lat="49.78863" lon="0.64092">
        <ele>36.9</ele>
        <time>2020-06-18T09:21:10Z</time>
      </trkpt>
      <trkpt lat="49.78864" lon="0.64095">
        <ele>37.2</ele>
        <time>2020-06-18T09:21:11Z</time>
      </trkpt>
      <trkpt lat="49.78864" lon="0.64098">
        <ele>37.5</ele>
        <time>2020-06-18T09:21:12Z</time>
      </trkpt>
      <trkpt lat="49.78864" lon="0.641">
        <ele>37.6</ele>
        <time>2020-06-18T09:21:13Z</time>
      </trkpt>
      <trkpt lat="49.78864" lon="0.64101">
        <ele>37.7</ele>
        <time>2020-06-18T09:21:14Z</time>
      </trkpt>
      <trkpt lat="49.78865" lon="0.64106">
        <ele>38.1</ele>
        <time>2020-06-18T09:21:15Z</time>
      </trkpt>
      <trkpt lat="49.78865" lon="0.64107">
        <ele>38.2</ele>
        <time>2020-06-18T09:21:16Z</time>
      </trkpt>
      <trkpt lat="49.78866" lon="0.6411">
        <ele>38.5</ele>
        <time>2020-06-18T09:21:17Z</time>
      </trkpt>
      <trkpt lat="49.78866" lon="0.64112">
        <ele>38.6</ele>
        <time>2020-06-18T09:21:18Z</time>
      </trkpt>
      <trkpt lat="49.78866" lon="0.64115">
        <ele>38.9</ele>
        <time>2020-06-18T09:21:19Z</time>
      </trkpt>
      <trkpt lat="49.78867" lon="0.64116">
        <ele>39</ele>
        <time>2020-06-18T09:21:20Z</time>
      </trkpt>
      <trkpt lat="49.78867" lon="0.64118">
        <ele>39.1</ele>
        <time>2020-06-18T09:21:21Z</time>
      </trkpt>
      <trkpt lat="49.78867" lon="0.6412">
        <ele>39.3</ele>
        <time>2020-06-18T09:21:22Z</time>
      </trkpt>
      <trkpt lat="49.78867" lon="0.64123">
        <ele>39.5</ele>
        <time>2020-06-18T09:21:23Z</time>
      </trkpt>
      <trkpt lat="49.78866" lon="0.64125">
        <ele>39.7</ele>
        <time>2020-06-18T09:21:24Z</time>
      </trkpt>
      <trkpt lat="49.78866" lon="0.64127">
        <ele>39.9</ele>
        <time>2020-06-18T09:21:25Z</time>
      </trkpt>
      <trkpt lat="49.78866" lon="0.64128">
        <ele>40</ele>
        <time>2020-06-18T09:21:26Z</time>
      </trkpt>
      <trkpt lat="49.78867" lon="0.64131">
        <ele>40.2</ele>
        <time>2020-06-18T09:21:27Z</time>
      </trkpt>
      <trkpt lat="49.78867" lon="0.64134">
        <ele>40.4</ele>
        <time>2020-06-18T09:21:28Z</time>
      </trkpt>
      <trkpt lat="49.78867" lon="0.64137">
        <ele>41.1</ele>
        <time>2020-06-18T09:21:29Z</time>
      </trkpt>
      <trkpt lat="49.78867" lon="0.64139">
        <ele>41.3</ele>
        <time>2020-06-18T09:21:30Z</time>
      </trkpt>
      <trkpt lat="49.78867" lon="0.64141">
        <ele>41.4</ele>
        <time>2020-06-18T09:21:31Z</time>
      </trkpt>
      <trkpt lat="49.78868" lon="0.64143">
        <ele>41.6</ele>
        <time>2020-06-18T09:21:32Z</time>
      </trkpt>
      <trkpt lat="49.78868" lon="0.64148">
        <ele>41.9</ele>
        <time>2020-06-18T09:21:33Z</time>
      </trkpt>
      <trkpt lat="49.78868" lon="0.64149">
        <ele>42</ele>
        <time>2020-06-18T09:21:34Z</time>
      </trkpt>
      <trkpt lat="49.78868" lon="0.64151">
        <ele>42.1</ele>
        <time>2020-06-18T09:21:35Z</time>
      </trkpt>
      <trkpt lat="49.78868" lon="0.64153">
        <ele>42.2</ele>
        <time>2020-06-18T09:21:36Z</time>
      </trkpt>
      <trkpt lat="49.78868" lon="0.64155">
        <ele>42.4</ele>
        <time>2020-06-18T09:21:37Z</time>
      </trkpt>
      <trkpt lat="49.78868" lon="0.64158">
        <ele>42.5</ele>
        <time>2020-06-18T09:21:38Z</time>
      </trkpt>
      <trkpt lat="49.78869" lon="0.64161">
        <ele>42.8</ele>
        <time>2020-06-18T09:21:39Z</time>
      </trkpt>
      <trkpt lat="49.78869" lon="0.64163">
        <ele>42.9</ele>
        <time>2020-06-18T09:21:40Z</time>
      </trkpt>
      <trkpt lat="49.78869" lon="0.64165">
        <ele>43</ele>
        <time>2020-06-18T09:21:41Z</time>
      </trkpt>
      <trkpt lat="49.78869" lon="0.6417">
        <ele>43.4</ele>
        <time>2020-06-18T09:21:42Z</time>
      </trkpt>
      <trkpt lat="49.78869" lon="0.64172">
        <ele>43.5</ele>
        <time>2020-06-18T09:21:43Z</time>
      </trkpt>
      <trkpt lat="49.7887" lon="0.64178">
        <ele>43.9</ele>
        <time>2020-06-18T09:21:44Z</time>
      </trkpt>
      <trkpt lat="49.7887" lon="0.64179">
        <ele>44</ele>
        <time>2020-06-18T09:21:45Z</time>
      </trkpt>
      <trkpt lat="49.7887" lon="0.64182">
        <ele>44.5</ele>
        <time>2020-06-18T09:21:46Z</time>
      </trkpt>
      <trkpt lat="49.78871" lon="0.64184">
        <ele>44.7</ele>
        <time>2020-06-18T09:21:47Z</time>
      </trkpt>
      <trkpt lat="49.78871" lon="0.64188">
        <ele>45.1</ele>
        <time>2020-06-18T09:21:48Z</time>
      </trkpt>
      <trkpt lat="49.78871" lon="0.6419">
        <ele>45.2</ele>
        <time>2020-06-18T09:21:49Z</time>
      </trkpt>
      <trkpt lat="49.78871" lon="0.64192">
        <ele>45.4</ele>
        <time>2020-06-18T09:21:50Z</time>
      </trkpt>
      <trkpt lat="49.78872" lon="0.64195">
        <ele>45.6</ele>
        <time>2020-06-18T09:21:51Z</time>
      </trkpt>
      <trkpt lat="49.78872" lon="0.64198">
        <ele>45.8</ele>
        <time>2020-06-18T09:21:52Z</time>
      </trkpt>
      <trkpt lat="49.78872" lon="0.642">
        <ele>46.1</ele>
        <time>2020-06-18T09:21:53Z</time>
      </trkpt>
      <trkpt lat="49.78873" lon="0.64203">
        <ele>46.3</ele>
        <time>2020-06-18T09:21:54Z</time>
      </trkpt>
      <trkpt lat="49.78873" lon="0.64206">
        <ele>46.5</ele>
        <time>2020-06-18T09:21:55Z</time>
      </trkpt>
      <trkpt lat="49.78873" lon="0.6421">
        <ele>46.9</ele>
        <time>2020-06-18T09:21:56Z</time>
      </trkpt>
      <trkpt lat="49.78874" lon="0.64215">
        <ele>47.3</ele>
        <time>2020-06-18T09:21:57Z</time>
      </trkpt>
      <trkpt lat="49.78874" lon="0.64216">
        <ele>47.4</ele>
        <time>2020-06-18T09:21:58Z</time>
      </trkpt>
      <trkpt lat="49.78874" lon="0.64221">
        <ele>47.7</ele>
        <time>2020-06-18T09:21:59Z</time>
      </trkpt>
      <trkpt lat="49.78874" lon="0.64222">
        <ele>47.9</ele>
        <time>2020-06-18T09:22:00Z</time>
      </trkpt>
      <trkpt lat="49.78875" lon="0.64227">
        <ele>48.3</ele>
        <time>2020-06-18T09:22:01Z</time>
      </trkpt>
      <trkpt lat="49.78875" lon="0.64228">
        <ele>48.4</ele>
        <time>2020-06-18T09:22:02Z</time>
      </trkpt>
      <trkpt lat="49.78876" lon="0.64233">
        <ele>48.8</ele>
        <time>2020-06-18T09:22:03Z</time>
      </trkpt>
      <trkpt lat="49.78877" lon="0.64234">
        <ele>48.9</ele>
        <time>2020-06-18T09:22:04Z</time>
      </trkpt>
      <trkpt lat="49.78878" lon="0.64238">
        <ele>49.3</ele>
        <time>2020-06-18T09:22:05Z</time>
      </trkpt>
      <trkpt lat="49.78878" lon="0.6424">
        <ele>49.5</ele>
        <time>2020-06-18T09:22:06Z</time>
      </trkpt>
      <trkpt lat="49.78878" lon="0.64245">
        <ele>49.9</ele>
        <time>2020-06-18T09:22:07Z</time>
      </trkpt>
      <trkpt lat="49.78878" lon="0.64246">
        <ele>50.4</ele>
        <time>2020-06-18T09:22:08Z</time>
      </trkpt>
      <trkpt lat="49.78878" lon="0.64251">
        <ele>50.4</ele>
        <time>2020-06-18T09:22:09Z</time>
      </trkpt>
      <trkpt lat="49.78878" lon="0.64252">
        <ele>50.4</ele>
        <time>2020-06-18T09:22:10Z</time>
      </trkpt>
      <trkpt lat="49.78879" lon="0.64255">
        <ele>50.5</ele>
        <time>2020-06-18T09:22:11Z</time>
      </trkpt>
      <trkpt lat="49.78879" lon="0.64258">
        <ele>50.5</ele>
        <time>2020-06-18T09:22:12Z</time>
      </trkpt>
      <trkpt lat="49.78878" lon="0.64262">
        <ele>50.5</ele>
        <time>2020-06-18T09:22:13Z</time>
      </trkpt>
      <trkpt lat="49.78878" lon="0.64264">
        <ele>50.7</ele>
        <time>2020-06-18T09:22:14Z</time>
      </trkpt>
      <trkpt lat="49.78879" lon="0.64268">
        <ele>51.2</ele>
        <time>2020-06-18T09:22:15Z</time>
      </trkpt>
      <trkpt lat="49.78879" lon="0.64269">
        <ele>51.4</ele>
        <time>2020-06-18T09:22:16Z</time>
      </trkpt>
      <trkpt lat="49.78879" lon="0.64273">
        <ele>51.8</ele>
        <time>2020-06-18T09:22:17Z</time>
      </trkpt>
      <trkpt lat="49.78879" lon="0.64274">
        <ele>52</ele>
        <time>2020-06-18T09:22:18Z</time>
      </trkpt>
      <trkpt lat="49.78878" lon="0.64276">
        <ele>52.2</ele>
        <time>2020-06-18T09:22:19Z</time>
      </trkpt>
      <trkpt lat="49.78878" lon="0.64278">
        <ele>52.5</ele>
        <time>2020-06-18T09:22:20Z</time>
      </trkpt>
      <trkpt lat="49.78878" lon="0.64281">
        <ele>52.8</ele>
        <time>2020-06-18T09:22:21Z</time>
      </trkpt>
      <trkpt lat="49.78878" lon="0.64286">
        <ele>53.4</ele>
        <time>2020-06-18T09:22:22Z</time>
      </trkpt>
      <trkpt lat="49.78878" lon="0.64287">
        <ele>53.6</ele>
        <time>2020-06-18T09:22:23Z</time>
      </trkpt>
      <trkpt lat="49.78878" lon="0.64292">
        <ele>54.1</ele>
        <time>2020-06-18T09:22:24Z</time>
      </trkpt>
      <trkpt lat="49.78878" lon="0.64293">
        <ele>54.3</ele>
        <time>2020-06-18T09:22:25Z</time>
      </trkpt>
      <trkpt lat="49.78878" lon="0.64297">
        <ele>54.8</ele>
        <time>2020-06-18T09:22:26Z</time>
      </trkpt>
      <trkpt lat="49.78877" lon="0.64299">
        <ele>55</ele>
        <time>2020-06-18T09:22:27Z</time>
      </trkpt>
      <trkpt lat="49.78877" lon="0.64301">
        <ele>55.3</ele>
        <time>2020-06-18T09:22:28Z</time>
      </trkpt>
      <trkpt lat="49.78877" lon="0.64304">
        <ele>55.6</ele>
        <time>2020-06-18T09:22:29Z</time>
      </trkpt>
      <trkpt lat="49.78877" lon="0.64307">
        <ele>56.1</ele>
        <time>2020-06-18T09:22:30Z</time>
      </trkpt>
      <trkpt lat="49.78877" lon="0.64309">
        <ele>56.1</ele>
        <time>2020-06-18T09:22:31Z</time>
      </trkpt>
      <trkpt lat="49.78876" lon="0.6431">
        <ele>56.1</ele>
        <time>2020-06-18T09:22:32Z</time>
      </trkpt>
      <trkpt lat="49.78876" lon="0.64312">
        <ele>56.1</ele>
        <time>2020-06-18T09:22:33Z</time>
      </trkpt>
      <trkpt lat="49.78876" lon="0.64315">
        <ele>56.1</ele>
        <time>2020-06-18T09:22:34Z</time>
      </trkpt>
      <trkpt lat="49.78876" lon="0.64318">
        <ele>56.2</ele>
        <time>2020-06-18T09:22:35Z</time>
      </trkpt>
      <trkpt lat="49.78876" lon="0.6432">
        <ele>56.2</ele>
        <time>2020-06-18T09:22:36Z</time>
      </trkpt>
      <trkpt lat="49.78876" lon="0.64322">
        <ele>56.2</ele>
        <time>2020-06-18T09:22:37Z</time>
      </trkpt>
      <trkpt lat="49.78876" lon="0.64323">
        <ele>56.3</ele>
        <time>2020-06-18T09:22:38Z</time>
      </trkpt>
      <trkpt lat="49.78876" lon="0.64325">
        <ele>56.5</ele>
        <time>2020-06-18T09:22:39Z</time>
      </trkpt>
      <trkpt lat="49.78876" lon="0.64327">
        <ele>56.6</ele>
        <time>2020-06-18T09:22:40Z</time>
      </trkpt>
      <trkpt lat="49.78876" lon="0.64328">
        <ele>56.7</ele>
        <time>2020-06-18T09:22:41Z</time>
      </trkpt>
      <trkpt lat="49.78877" lon="0.64329">
        <ele>56.8</ele>
        <time>2020-06-18T09:22:42Z</time>
      </trkpt>
      <trkpt lat="49.78879" lon="0.64334">
        <ele>57.2</ele>
        <time>2020-06-18T09:22:43Z</time>
      </trkpt>
      <trkpt lat="49.78879" lon="0.64335">
        <ele>57.3</ele>
        <time>2020-06-18T09:22:44Z</time>
      </trkpt>
      <trkpt lat="49.78881" lon="0.6434">
        <ele>57.7</ele>
        <time>2020-06-18T09:22:45Z</time>
      </trkpt>
      <trkpt lat="49.78881" lon="0.64341">
        <ele>57.8</ele>
        <time>2020-06-18T09:22:46Z</time>
      </trkpt>
      <trkpt lat="49.78881" lon="0.64343">
        <ele>57.9</ele>
        <time>2020-06-18T09:22:47Z</time>
      </trkpt>
      <trkpt lat="49.78881" lon="0.64345">
        <ele>58.1</ele>
        <time>2020-06-18T09:22:48Z</time>
      </trkpt>
      <trkpt lat="49.78881" lon="0.64346">
        <ele>58.2</ele>
        <time>2020-06-18T09:22:49Z</time>
      </trkpt>
      <trkpt lat="49.78881" lon="0.6435">
        <ele>58.5</ele>
        <time>2020-06-18T09:22:50Z</time>
      </trkpt>
      <trkpt lat="49.78881" lon="0.64351">
        <ele>58.6</ele>
        <time>2020-06-18T09:22:51Z</time>
      </trkpt>
      <trkpt lat="49.78881" lon="0.64353">
        <ele>58.7</ele>
        <time>2020-06-18T09:22:52Z</time>
      </trkpt>
      <trkpt lat="49.78881" lon="0.64356">
        <ele>58.9</ele>
        <time>2020-06-18T09:22:53Z</time>
      </trkpt>
      <trkpt lat="49.78881" lon="0.64358">
        <ele>59.1</ele>
        <time>2020-06-18T09:22:54Z</time>
      </trkpt>
      <trkpt lat="49.78881" lon="0.64361">
        <ele>59.3</ele>
        <time>2020-06-18T09:22:55Z</time>
      </trkpt>
      <trkpt lat="49.78881" lon="0.64363">
        <ele>59.5</ele>
        <time>2020-06-18T09:22:56Z</time>
      </trkpt>
      <trkpt lat="49.78881" lon="0.64367">
        <ele>59.8</ele>
        <time>2020-06-18T09:22:57Z</time>
      </trkpt>
      <trkpt lat="49.7888" lon="0.64368">
        <ele>59.9</ele>
        <time>2020-06-18T09:22:58Z</time>
      </trkpt>
      <trkpt lat="49.7888" lon="0.6437">
        <ele>60</ele>
        <time>2020-06-18T09:22:59Z</time>
      </trkpt>
      <trkpt lat="49.78881" lon="0.64372">
        <ele>60.2</ele>
        <time>2020-06-18T09:23:00Z</time>
      </trkpt>
      <trkpt lat="49.78881" lon="0.64375">
        <ele>60.4</ele>
        <time>2020-06-18T09:23:01Z</time>
      </trkpt>
      <trkpt lat="49.78881" lon="0.64379">
        <ele>60.7</ele>
        <time>2020-06-18T09:23:02Z</time>
      </trkpt>
      <trkpt lat="49.78881" lon="0.6438">
        <ele>60.9</ele>
        <time>2020-06-18T09:23:03Z</time>
      </trkpt>
      <trkpt lat="49.78882" lon="0.64383">
        <ele>61.1</ele>
        <time>2020-06-18T09:23:04Z</time>
      </trkpt>
      <trkpt lat="49.78882" lon="0.64386">
        <ele>61.3</ele>
        <time>2020-06-18T09:23:05Z</time>
      </trkpt>
      <trkpt lat="49.78882" lon="0.6439">
        <ele>61.7</ele>
        <time>2020-06-18T09:23:06Z</time>
      </trkpt>
      <trkpt lat="49.78882" lon="0.64391">
        <ele>61.8</ele>
        <time>2020-06-18T09:23:07Z</time>
      </trkpt>
      <trkpt lat="49.78882" lon="0.64394">
        <ele>62.1</ele>
        <time>2020-06-18T09:23:08Z</time>
      </trkpt>
      <trkpt lat="49.78882" lon="0.64397">
        <ele>62.3</ele>
        <time>2020-06-18T09:23:09Z</time>
      </trkpt>
      <trkpt lat="49.78882" lon="0.64399">
        <ele>62.5</ele>
        <time>2020-06-18T09:23:10Z</time>
      </trkpt>
      <trkpt lat="49.78882" lon="0.64402">
        <ele>62.7</ele>
        <time>2020-06-18T09:23:11Z</time>
      </trkpt>
      <trkpt lat="49.78882" lon="0.64405">
        <ele>63</ele>
        <time>2020-06-18T09:23:12Z</time>
      </trkpt>
      <trkpt lat="49.78882" lon="0.64406">
        <ele>63.1</ele>
        <time>2020-06-18T09:23:13Z</time>
      </trkpt>
      <trkpt lat="49.78882" lon="0.64408">
        <ele>63.3</ele>
        <time>2020-06-18T09:23:14Z</time>
      </trkpt>
      <trkpt lat="49.78882" lon="0.64412">
        <ele>63.7</ele>
        <time>2020-06-18T09:23:15Z</time>
      </trkpt>
      <trkpt lat="49.78882" lon="0.64414">
        <ele>63.8</ele>
        <time>2020-06-18T09:23:16Z</time>
      </trkpt>
      <trkpt lat="49.78883" lon="0.64416">
        <ele>64</ele>
        <time>2020-06-18T09:23:17Z</time>
      </trkpt>
      <trkpt lat="49.78883" lon="0.64418">
        <ele>64.2</ele>
        <time>2020-06-18T09:23:18Z</time>
      </trkpt>
      <trkpt lat="49.78883" lon="0.6442">
        <ele>64.4</ele>
        <time>2020-06-18T09:23:19Z</time>
      </trkpt>
      <trkpt lat="49.78883" lon="0.64423">
        <ele>64.6</ele>
        <time>2020-06-18T09:23:20Z</time>
      </trkpt>
      <trkpt lat="49.78883" lon="0.64426">
        <ele>64.8</ele>
        <time>2020-06-18T09:23:21Z</time>
      </trkpt>
      <trkpt lat="49.78883" lon="0.64427">
        <ele>65</ele>
        <time>2020-06-18T09:23:22Z</time>
      </trkpt>
      <trkpt lat="49.78883" lon="0.64429">
        <ele>65.5</ele>
        <time>2020-06-18T09:23:23Z</time>
      </trkpt>
      <trkpt lat="49.78882" lon="0.64432">
        <ele>65.7</ele>
        <time>2020-06-18T09:23:24Z</time>
      </trkpt>
      <trkpt lat="49.78883" lon="0.64436">
        <ele>66</ele>
        <time>2020-06-18T09:23:25Z</time>
      </trkpt>
      <trkpt lat="49.78882" lon="0.64438">
        <ele>66.2</ele>
        <time>2020-06-18T09:23:26Z</time>
      </trkpt>
      <trkpt lat="49.78882" lon="0.6444">
        <ele>66.3</ele>
        <time>2020-06-18T09:23:27Z</time>
      </trkpt>
      <trkpt lat="49.78882" lon="0.64442">
        <ele>66.5</ele>
        <time>2020-06-18T09:23:28Z</time>
      </trkpt>
      <trkpt lat="49.78883" lon="0.64444">
        <ele>66.7</ele>
        <time>2020-06-18T09:23:29Z</time>
      </trkpt>
      <trkpt lat="49.78882" lon="0.64446">
        <ele>66.8</ele>
        <time>2020-06-18T09:23:30Z</time>
      </trkpt>
      <trkpt lat="49.78883" lon="0.6445">
        <ele>67.1</ele>
        <time>2020-06-18T09:23:31Z</time>
      </trkpt>
      <trkpt lat="49.78883" lon="0.64452">
        <ele>67.3</ele>
        <time>2020-06-18T09:23:32Z</time>
      </trkpt>
      <trkpt lat="49.78883" lon="0.64455">
        <ele>67.5</ele>
        <time>2020-06-18T09:23:33Z</time>
      </trkpt>
      <trkpt lat="49.78883" lon="0.6446">
        <ele>67.9</ele>
        <time>2020-06-18T09:23:34Z</time>
      </trkpt>
      <trkpt lat="49.78883" lon="0.64461">
        <ele>68</ele>
        <time>2020-06-18T09:23:35Z</time>
      </trkpt>
      <trkpt lat="49.78882" lon="0.64464">
        <ele>68.2</ele>
        <time>2020-06-18T09:23:36Z</time>
      </trkpt>
      <trkpt lat="49.78882" lon="0.64466">
        <ele>68.5</ele>
        <time>2020-06-18T09:23:37Z</time>
      </trkpt>
      <trkpt lat="49.78881" lon="0.64469">
        <ele>68.6</ele>
        <time>2020-06-18T09:23:38Z</time>
      </trkpt>
      <trkpt lat="49.78881" lon="0.64471">
        <ele>68.8</ele>
        <time>2020-06-18T09:23:39Z</time>
      </trkpt>
      <trkpt lat="49.78881" lon="0.64476">
        <ele>69.2</ele>
        <time>2020-06-18T09:23:40Z</time>
      </trkpt>
      <trkpt lat="49.78881" lon="0.64481">
        <ele>69.5</ele>
        <time>2020-06-18T09:23:41Z</time>
      </trkpt>
      <trkpt lat="49.78881" lon="0.64482">
        <ele>69.6</ele>
        <time>2020-06-18T09:23:42Z</time>
      </trkpt>
      <trkpt lat="49.78881" lon="0.64487">
        <ele>70</ele>
        <time>2020-06-18T09:23:43Z</time>
      </trkpt>
      <trkpt lat="49.7888" lon="0.64488">
        <ele>70.1</ele>
        <time>2020-06-18T09:23:44Z</time>
      </trkpt>
      <trkpt lat="49.7888" lon="0.64491">
        <ele>70.3</ele>
        <time>2020-06-18T09:23:45Z</time>
      </trkpt>
      <trkpt lat="49.7888" lon="0.64493">
        <ele>70.4</ele>
        <time>2020-06-18T09:23:46Z</time>
      </trkpt>
      <trkpt lat="49.7888" lon="0.64494">
        <ele>70.5</ele>
        <time>2020-06-18T09:23:47Z</time>
      </trkpt>
      <trkpt lat="49.78881" lon="0.64499">
        <ele>70.9</ele>
        <time>2020-06-18T09:23:48Z</time>
      </trkpt>
      <trkpt lat="49.78881" lon="0.645">
        <ele>71</ele>
        <time>2020-06-18T09:23:49Z</time>
      </trkpt>
      <trkpt lat="49.78881" lon="0.64502">
        <ele>71.1</ele>
        <time>2020-06-18T09:23:50Z</time>
      </trkpt>
      <trkpt lat="49.78882" lon="0.64505">
        <ele>71.3</ele>
        <time>2020-06-18T09:23:51Z</time>
      </trkpt>
      <trkpt lat="49.78882" lon="0.6451">
        <ele>72.1</ele>
        <time>2020-06-18T09:23:52Z</time>
      </trkpt>
      <trkpt lat="49.78883" lon="0.64512">
        <ele>72.2</ele>
        <time>2020-06-18T09:23:53Z</time>
      </trkpt>
      <trkpt lat="49.78882" lon="0.64516">
        <ele>72.6</ele>
        <time>2020-06-18T09:23:54Z</time>
      </trkpt>
      <trkpt lat="49.78882" lon="0.64518">
        <ele>72.7</ele>
        <time>2020-06-18T09:23:55Z</time>
      </trkpt>
      <trkpt lat="49.78883" lon="0.64522">
        <ele>73</ele>
        <time>2020-06-18T09:23:56Z</time>
      </trkpt>
      <trkpt lat="49.78883" lon="0.64524">
        <ele>73.1</ele>
        <time>2020-06-18T09:23:57Z</time>
      </trkpt>
      <trkpt lat="49.78883" lon="0.64528">
        <ele>73.4</ele>
        <time>2020-06-18T09:23:58Z</time>
      </trkpt>
      <trkpt lat="49.78883" lon="0.6453">
        <ele>73.5</ele>
        <time>2020-06-18T09:23:59Z</time>
      </trkpt>
      <trkpt lat="49.78882" lon="0.64532">
        <ele>73.7</ele>
        <time>2020-06-18T09:24:00Z</time>
      </trkpt>
      <trkpt lat="49.78882" lon="0.64535">
        <ele>73.9</ele>
        <time>2020-06-18T09:24:01Z</time>
      </trkpt>
      <trkpt lat="49.78882" lon="0.64537">
        <ele>74</ele>
        <time>2020-06-18T09:24:02Z</time>
      </trkpt>
      <trkpt lat="49.78882" lon="0.6454">
        <ele>74.2</ele>
        <time>2020-06-18T09:24:03Z</time>
      </trkpt>
      <trkpt lat="49.78881" lon="0.64544">
        <ele>74.4</ele>
        <time>2020-06-18T09:24:04Z</time>
      </trkpt>
      <trkpt lat="49.78881" lon="0.64545">
        <ele>74.5</ele>
        <time>2020-06-18T09:24:05Z</time>
      </trkpt>
      <trkpt lat="49.78882" lon="0.64548">
        <ele>74.7</ele>
        <time>2020-06-18T09:24:06Z</time>
      </trkpt>
      <trkpt lat="49.78881" lon="0.6455">
        <ele>74.8</ele>
        <time>2020-06-18T09:24:07Z</time>
      </trkpt>
      <trkpt lat="49.78882" lon="0.64552">
        <ele>75</ele>
        <time>2020-06-18T09:24:08Z</time>
      </trkpt>
      <trkpt lat="49.78882" lon="0.64554">
        <ele>75.1</ele>
        <time>2020-06-18T09:24:09Z</time>
      </trkpt>
      <trkpt lat="49.78883" lon="0.64556">
        <ele>75.2</ele>
        <time>2020-06-18T09:24:10Z</time>
      </trkpt>
      <trkpt lat="49.78883" lon="0.64559">
        <ele>75.3</ele>
        <time>2020-06-18T09:24:11Z</time>
      </trkpt>
      <trkpt lat="49.78883" lon="0.64562">
        <ele>75.5</ele>
        <time>2020-06-18T09:24:12Z</time>
      </trkpt>
      <trkpt lat="49.78883" lon="0.64564">
        <ele>75.7</ele>
        <time>2020-06-18T09:24:13Z</time>
      </trkpt>
      <trkpt lat="49.78884" lon="0.64568">
        <ele>75.9</ele>
        <time>2020-06-18T09:24:14Z</time>
      </trkpt>
      <trkpt lat="49.78884" lon="0.6457">
        <ele>76</ele>
        <time>2020-06-18T09:24:15Z</time>
      </trkpt>
      <trkpt lat="49.78884" lon="0.64575">
        <ele>76.3</ele>
        <time>2020-06-18T09:24:16Z</time>
      </trkpt>
      <trkpt lat="49.78884" lon="0.64576">
        <ele>76.3</ele>
        <time>2020-06-18T09:24:17Z</time>
      </trkpt>
      <trkpt lat="49.78884" lon="0.64581">
        <ele>76.6</ele>
        <time>2020-06-18T09:24:18Z</time>
      </trkpt>
      <trkpt lat="49.78885" lon="0.64583">
        <ele>76.7</ele>
        <time>2020-06-18T09:24:19Z</time>
      </trkpt>
      <trkpt lat="49.78886" lon="0.64588">
        <ele>77</ele>
        <time>2020-06-18T09:24:20Z</time>
      </trkpt>
      <trkpt lat="49.78886" lon="0.6459">
        <ele>77.1</ele>
        <time>2020-06-18T09:24:21Z</time>
      </trkpt>
      <trkpt lat="49.78887" lon="0.64595">
        <ele>77.4</ele>
        <time>2020-06-18T09:24:22Z</time>
      </trkpt>
      <trkpt lat="49.78887" lon="0.64597">
        <ele>77.5</ele>
        <time>2020-06-18T09:24:23Z</time>
      </trkpt>
      <trkpt lat="49.78887" lon="0.64599">
        <ele>77.6</ele>
        <time>2020-06-18T09:24:24Z</time>
      </trkpt>
      <trkpt lat="49.78888" lon="0.64602">
        <ele>77.8</ele>
        <time>2020-06-18T09:24:25Z</time>
      </trkpt>
      <trkpt lat="49.78888" lon="0.64608">
        <ele>78.1</ele>
        <time>2020-06-18T09:24:26Z</time>
      </trkpt>
      <trkpt lat="49.78888" lon="0.64609">
        <ele>78.2</ele>
        <time>2020-06-18T09:24:27Z</time>
      </trkpt>
      <trkpt lat="49.78889" lon="0.64614">
        <ele>78.4</ele>
        <time>2020-06-18T09:24:28Z</time>
      </trkpt>
      <trkpt lat="49.78889" lon="0.64616">
        <ele>78.5</ele>
        <time>2020-06-18T09:24:29Z</time>
      </trkpt>
      <trkpt lat="49.7889" lon="0.64621">
        <ele>78.8</ele>
        <time>2020-06-18T09:24:30Z</time>
      </trkpt>
      <trkpt lat="49.7889" lon="0.64623">
        <ele>78.9</ele>
        <time>2020-06-18T09:24:31Z</time>
      </trkpt>
      <trkpt lat="49.78891" lon="0.64628">
        <ele>79.1</ele>
        <time>2020-06-18T09:24:32Z</time>
      </trkpt>
      <trkpt lat="49.78891" lon="0.6463">
        <ele>79.2</ele>
        <time>2020-06-18T09:24:33Z</time>
      </trkpt>
      <trkpt lat="49.78892" lon="0.64635">
        <ele>79.5</ele>
        <time>2020-06-18T09:24:34Z</time>
      </trkpt>
      <trkpt lat="49.78892" lon="0.64637">
        <ele>79.6</ele>
        <time>2020-06-18T09:24:35Z</time>
      </trkpt>
      <trkpt lat="49.78893" lon="0.64641">
        <ele>79.7</ele>
        <time>2020-06-18T09:24:36Z</time>
      </trkpt>
      <trkpt lat="49.78893" lon="0.64645">
        <ele>79.9</ele>
        <time>2020-06-18T09:24:37Z</time>
      </trkpt>
      <trkpt lat="49.78894" lon="0.64651">
        <ele>80.2</ele>
        <time>2020-06-18T09:24:38Z</time>
      </trkpt>
      <trkpt lat="49.78895" lon="0.64653">
        <ele>80.3</ele>
        <time>2020-06-18T09:24:39Z</time>
      </trkpt>
      <trkpt lat="49.78895" lon="0.64657">
        <ele>80.5</ele>
        <time>2020-06-18T09:24:40Z</time>
      </trkpt>
      <trkpt lat="49.78896" lon="0.64663">
        <ele>80.7</ele>
        <time>2020-06-18T09:24:41Z</time>
      </trkpt>
      <trkpt lat="49.78896" lon="0.64665">
        <ele>80.8</ele>
        <time>2020-06-18T09:24:42Z</time>
      </trkpt>
      <trkpt lat="49.78897" lon="0.64671">
        <ele>81.1</ele>
        <time>2020-06-18T09:24:43Z</time>
      </trkpt>
      <trkpt lat="49.78897" lon="0.64673">
        <ele>81.2</ele>
        <time>2020-06-18T09:24:44Z</time>
      </trkpt>
      <trkpt lat="49.78897" lon="0.64677">
        <ele>81.4</ele>
        <time>2020-06-18T09:24:45Z</time>
      </trkpt>
      <trkpt lat="49.78898" lon="0.64681">
        <ele>81.6</ele>
        <time>2020-06-18T09:24:46Z</time>
      </trkpt>
      <trkpt lat="49.78899" lon="0.64685">
        <ele>81.8</ele>
        <time>2020-06-18T09:24:47Z</time>
      </trkpt>
      <trkpt lat="49.789" lon="0.6469">
        <ele>82.1</ele>
        <time>2020-06-18T09:24:48Z</time>
      </trkpt>
      <trkpt lat="49.78901" lon="0.64692">
        <ele>82.2</ele>
        <time>2020-06-18T09:24:49Z</time>
      </trkpt>
      <trkpt lat="49.78901" lon="0.64698">
        <ele>82.4</ele>
        <time>2020-06-18T09:24:50Z</time>
      </trkpt>
      <trkpt lat="49.78902" lon="0.64699">
        <ele>82.5</ele>
        <time>2020-06-18T09:24:51Z</time>
      </trkpt>
      <trkpt lat="49.78903" lon="0.64704">
        <ele>82.7</ele>
        <time>2020-06-18T09:24:52Z</time>
      </trkpt>
      <trkpt lat="49.78903" lon="0.64709">
        <ele>83</ele>
        <time>2020-06-18T09:24:53Z</time>
      </trkpt>
      <trkpt lat="49.78903" lon="0.64711">
        <ele>83.1</ele>
        <time>2020-06-18T09:24:54Z</time>
      </trkpt>
      <trkpt lat="49.78904" lon="0.64717">
        <ele>83.4</ele>
        <time>2020-06-18T09:24:55Z</time>
      </trkpt>
      <trkpt lat="49.78904" lon="0.64718">
        <ele>83.4</ele>
        <time>2020-06-18T09:24:56Z</time>
      </trkpt>
      <trkpt lat="49.78905" lon="0.64724">
        <ele>83.7</ele>
        <time>2020-06-18T09:24:57Z</time>
      </trkpt>
      <trkpt lat="49.78905" lon="0.64726">
        <ele>83.8</ele>
        <time>2020-06-18T09:24:58Z</time>
      </trkpt>
      <trkpt lat="49.78906" lon="0.64731">
        <ele>84.1</ele>
        <time>2020-06-18T09:24:59Z</time>
      </trkpt>
      <trkpt lat="49.78906" lon="0.64733">
        <ele>84.1</ele>
        <time>2020-06-18T09:25:00Z</time>
      </trkpt>
      <trkpt lat="49.78907" lon="0.64737">
        <ele>84.4</ele>
        <time>2020-06-18T09:25:01Z</time>
      </trkpt>
      <trkpt lat="49.78907" lon="0.64743">
        <ele>84.6</ele>
        <time>2020-06-18T09:25:02Z</time>
      </trkpt>
      <trkpt lat="49.78908" lon="0.64745">
        <ele>84.7</ele>
        <time>2020-06-18T09:25:03Z</time>
      </trkpt>
      <trkpt lat="49.78909" lon="0.6475">
        <ele>85</ele>
        <time>2020-06-18T09:25:04Z</time>
      </trkpt>
      <trkpt lat="49.78909" lon="0.64751">
        <ele>85</ele>
        <time>2020-06-18T09:25:05Z</time>
      </trkpt>
      <trkpt lat="49.7891" lon="0.64756">
        <ele>85.3</ele>
        <time>2020-06-18T09:25:06Z</time>
      </trkpt>
      <trkpt lat="49.7891" lon="0.64757">
        <ele>85.3</ele>
        <time>2020-06-18T09:25:07Z</time>
      </trkpt>
      <trkpt lat="49.7891" lon="0.64763">
        <ele>85.5</ele>
        <time>2020-06-18T09:25:08Z</time>
      </trkpt>
      <trkpt lat="49.7891" lon="0.64764">
        <ele>85.6</ele>
        <time>2020-06-18T09:25:09Z</time>
      </trkpt>
      <trkpt lat="49.78911" lon="0.6477">
        <ele>85.8</ele>
        <time>2020-06-18T09:25:10Z</time>
      </trkpt>
      <trkpt lat="49.78911" lon="0.64771">
        <ele>85.8</ele>
        <time>2020-06-18T09:25:11Z</time>
      </trkpt>
      <trkpt lat="49.78913" lon="0.64777">
        <ele>86.1</ele>
        <time>2020-06-18T09:25:12Z</time>
      </trkpt>
      <trkpt lat="49.78913" lon="0.6478">
        <ele>86.1</ele>
        <time>2020-06-18T09:25:13Z</time>
      </trkpt>
      <trkpt lat="49.78914" lon="0.64784">
        <ele>86.3</ele>
        <time>2020-06-18T09:25:14Z</time>
      </trkpt>
      <trkpt lat="49.78916" lon="0.64789">
        <ele>86.5</ele>
        <time>2020-06-18T09:25:15Z</time>
      </trkpt>
      <trkpt lat="49.78917" lon="0.64791">
        <ele>86.6</ele>
        <time>2020-06-18T09:25:16Z</time>
      </trkpt>
      <trkpt lat="49.78918" lon="0.64796">
        <ele>86.7</ele>
        <time>2020-06-18T09:25:17Z</time>
      </trkpt>
      <trkpt lat="49.78918" lon="0.64797">
        <ele>86.8</ele>
        <time>2020-06-18T09:25:18Z</time>
      </trkpt>
      <trkpt lat="49.7892" lon="0.64802">
        <ele>87</ele>
        <time>2020-06-18T09:25:19Z</time>
      </trkpt>
      <trkpt lat="49.7892" lon="0.64803">
        <ele>87</ele>
        <time>2020-06-18T09:25:20Z</time>
      </trkpt>
      <trkpt lat="49.78921" lon="0.64806">
        <ele>87.1</ele>
        <time>2020-06-18T09:25:21Z</time>
      </trkpt>
      <trkpt lat="49.7892" lon="0.64808">
        <ele>87.2</ele>
        <time>2020-06-18T09:25:22Z</time>
      </trkpt>
      <trkpt lat="49.78922" lon="0.64813">
        <ele>87.4</ele>
        <time>2020-06-18T09:25:23Z</time>
      </trkpt>
      <trkpt lat="49.78922" lon="0.64814">
        <ele>87.4</ele>
        <time>2020-06-18T09:25:24Z</time>
      </trkpt>
      <trkpt lat="49.78923" lon="0.64819">
        <ele>87.6</ele>
        <time>2020-06-18T09:25:25Z</time>
      </trkpt>
      <trkpt lat="49.78924" lon="0.64821">
        <ele>87.7</ele>
        <time>2020-06-18T09:25:26Z</time>
      </trkpt>
      <trkpt lat="49.78925" lon="0.64827">
        <ele>87.9</ele>
        <time>2020-06-18T09:25:27Z</time>
      </trkpt>
      <trkpt lat="49.78925" lon="0.64829">
        <ele>88</ele>
        <time>2020-06-18T09:25:28Z</time>
      </trkpt>
      <trkpt lat="49.78926" lon="0.64835">
        <ele>88.1</ele>
        <time>2020-06-18T09:25:29Z</time>
      </trkpt>
      <trkpt lat="49.78926" lon="0.64837">
        <ele>88.2</ele>
        <time>2020-06-18T09:25:30Z</time>
      </trkpt>
      <trkpt lat="49.78927" lon="0.64841">
        <ele>88.4</ele>
        <time>2020-06-18T09:25:31Z</time>
      </trkpt>
      <trkpt lat="49.78927" lon="0.64843">
        <ele>88.4</ele>
        <time>2020-06-18T09:25:32Z</time>
      </trkpt>
      <trkpt lat="49.78928" lon="0.64847">
        <ele>88.5</ele>
        <time>2020-06-18T09:25:33Z</time>
      </trkpt>
      <trkpt lat="49.78929" lon="0.64851">
        <ele>88.6</ele>
        <time>2020-06-18T09:25:34Z</time>
      </trkpt>
      <trkpt lat="49.7893" lon="0.64855">
        <ele>88.8</ele>
        <time>2020-06-18T09:25:35Z</time>
      </trkpt>
      <trkpt lat="49.78931" lon="0.64862">
        <ele>88.9</ele>
        <time>2020-06-18T09:25:36Z</time>
      </trkpt>
      <trkpt lat="49.78932" lon="0.64864">
        <ele>89</ele>
        <time>2020-06-18T09:25:37Z</time>
      </trkpt>
      <trkpt lat="49.78933" lon="0.64869">
        <ele>89.1</ele>
        <time>2020-06-18T09:25:38Z</time>
      </trkpt>
      <trkpt lat="49.78934" lon="0.64874">
        <ele>89.2</ele>
        <time>2020-06-18T09:25:39Z</time>
      </trkpt>
      <trkpt lat="49.78935" lon="0.64878">
        <ele>89.3</ele>
        <time>2020-06-18T09:25:40Z</time>
      </trkpt>
      <trkpt lat="49.78936" lon="0.64882">
        <ele>89.5</ele>
        <time>2020-06-18T09:25:41Z</time>
      </trkpt>
      <trkpt lat="49.78939" lon="0.64886">
        <ele>89.6</ele>
        <time>2020-06-18T09:25:42Z</time>
      </trkpt>
      <trkpt lat="49.7894" lon="0.64888">
        <ele>89.7</ele>
        <time>2020-06-18T09:25:43Z</time>
      </trkpt>
      <trkpt lat="49.78941" lon="0.64892">
        <ele>89.8</ele>
        <time>2020-06-18T09:25:44Z</time>
      </trkpt>
      <trkpt lat="49.78942" lon="0.64896">
        <ele>89.9</ele>
        <time>2020-06-18T09:25:45Z</time>
      </trkpt>
      <trkpt lat="49.78943" lon="0.64901">
        <ele>90.1</ele>
        <time>2020-06-18T09:25:46Z</time>
      </trkpt>
      <trkpt lat="49.78944" lon="0.64906">
        <ele>90.2</ele>
        <time>2020-06-18T09:25:47Z</time>
      </trkpt>
      <trkpt lat="49.78944" lon="0.64911">
        <ele>90.3</ele>
        <time>2020-06-18T09:25:48Z</time>
      </trkpt>
      <trkpt lat="49.78945" lon="0.64915">
        <ele>90.4</ele>
        <time>2020-06-18T09:25:49Z</time>
      </trkpt>
      <trkpt lat="49.78946" lon="0.64919">
        <ele>90.5</ele>
        <time>2020-06-18T09:25:50Z</time>
      </trkpt>
      <trkpt lat="49.78947" lon="0.64924">
        <ele>90.7</ele>
        <time>2020-06-18T09:25:51Z</time>
      </trkpt>
      <trkpt lat="49.78949" lon="0.64929">
        <ele>90.8</ele>
        <time>2020-06-18T09:25:52Z</time>
      </trkpt>
      <trkpt lat="49.78949" lon="0.64931">
        <ele>90.9</ele>
        <time>2020-06-18T09:25:53Z</time>
      </trkpt>
      <trkpt lat="49.78951" lon="0.64937">
        <ele>91</ele>
        <time>2020-06-18T09:25:54Z</time>
      </trkpt>
      <trkpt lat="49.78952" lon="0.64943">
        <ele>91.2</ele>
        <time>2020-06-18T09:25:55Z</time>
      </trkpt>
      <trkpt lat="49.78953" lon="0.64945">
        <ele>91.3</ele>
        <time>2020-06-18T09:25:56Z</time>
      </trkpt>
      <trkpt lat="49.78954" lon="0.64951">
        <ele>91.4</ele>
        <time>2020-06-18T09:25:57Z</time>
      </trkpt>
      <trkpt lat="49.78955" lon="0.64957">
        <ele>91.6</ele>
        <time>2020-06-18T09:25:58Z</time>
      </trkpt>
      <trkpt lat="49.78957" lon="0.64962">
        <ele>91.7</ele>
        <time>2020-06-18T09:25:59Z</time>
      </trkpt>
      <trkpt lat="49.78958" lon="0.64967">
        <ele>91.9</ele>
        <time>2020-06-18T09:26:00Z</time>
      </trkpt>
      <trkpt lat="49.78959" lon="0.64972">
        <ele>92</ele>
        <time>2020-06-18T09:26:01Z</time>
      </trkpt>
      <trkpt lat="49.7896" lon="0.64977">
        <ele>92.1</ele>
        <time>2020-06-18T09:26:02Z</time>
      </trkpt>
      <trkpt lat="49.78961" lon="0.64982">
        <ele>92.3</ele>
        <time>2020-06-18T09:26:03Z</time>
      </trkpt>
      <trkpt lat="49.78962" lon="0.64987">
        <ele>92.4</ele>
        <time>2020-06-18T09:26:04Z</time>
      </trkpt>
      <trkpt lat="49.78963" lon="0.64993">
        <ele>92.5</ele>
        <time>2020-06-18T09:26:05Z</time>
      </trkpt>
      <trkpt lat="49.78964" lon="0.64998">
        <ele>92.6</ele>
        <time>2020-06-18T09:26:06Z</time>
      </trkpt>
      <trkpt lat="49.78966" lon="0.65004">
        <ele>92.7</ele>
        <time>2020-06-18T09:26:07Z</time>
      </trkpt>
      <trkpt lat="49.78967" lon="0.65009">
        <ele>92.8</ele>
        <time>2020-06-18T09:26:08Z</time>
      </trkpt>
      <trkpt lat="49.78968" lon="0.65013">
        <ele>92.9</ele>
        <time>2020-06-18T09:26:09Z</time>
      </trkpt>
      <trkpt lat="49.78969" lon="0.65019">
        <ele>93</ele>
        <time>2020-06-18T09:26:10Z</time>
      </trkpt>
      <trkpt lat="49.7897" lon="0.65024">
        <ele>93.2</ele>
        <time>2020-06-18T09:26:11Z</time>
      </trkpt>
      <trkpt lat="49.78971" lon="0.6503">
        <ele>93.3</ele>
        <time>2020-06-18T09:26:12Z</time>
      </trkpt>
      <trkpt lat="49.78973" lon="0.65036">
        <ele>93.5</ele>
        <time>2020-06-18T09:26:13Z</time>
      </trkpt>
      <trkpt lat="49.78974" lon="0.65041">
        <ele>93.6</ele>
        <time>2020-06-18T09:26:14Z</time>
      </trkpt>
      <trkpt lat="49.78975" lon="0.65047">
        <ele>93.7</ele>
        <time>2020-06-18T09:26:15Z</time>
      </trkpt>
      <trkpt lat="49.78976" lon="0.65053">
        <ele>93.9</ele>
        <time>2020-06-18T09:26:16Z</time>
      </trkpt>
      <trkpt lat="49.78977" lon="0.65059">
        <ele>94</ele>
        <time>2020-06-18T09:26:17Z</time>
      </trkpt>
      <trkpt lat="49.78978" lon="0.65065">
        <ele>94.1</ele>
        <time>2020-06-18T09:26:18Z</time>
      </trkpt>
      <trkpt lat="49.78979" lon="0.6507">
        <ele>94.2</ele>
        <time>2020-06-18T09:26:19Z</time>
      </trkpt>
      <trkpt lat="49.7898" lon="0.65077">
        <ele>94.3</ele>
        <time>2020-06-18T09:26:20Z</time>
      </trkpt>
      <trkpt lat="49.78981" lon="0.65083">
        <ele>94.4</ele>
        <time>2020-06-18T09:26:21Z</time>
      </trkpt>
      <trkpt lat="49.78982" lon="0.65089">
        <ele>94.5</ele>
        <time>2020-06-18T09:26:22Z</time>
      </trkpt>
      <trkpt lat="49.78983" lon="0.65095">
        <ele>94.6</ele>
        <time>2020-06-18T09:26:23Z</time>
      </trkpt>
      <trkpt lat="49.78984" lon="0.65101">
        <ele>94.7</ele>
        <time>2020-06-18T09:26:24Z</time>
      </trkpt>
      <trkpt lat="49.78985" lon="0.65105">
        <ele>94.8</ele>
        <time>2020-06-18T09:26:25Z</time>
      </trkpt>
      <trkpt lat="49.78986" lon="0.65111">
        <ele>94.9</ele>
        <time>2020-06-18T09:26:26Z</time>
      </trkpt>
      <trkpt lat="49.78987" lon="0.65117">
        <ele>95</ele>
        <time>2020-06-18T09:26:27Z</time>
      </trkpt>
      <trkpt lat="49.78987" lon="0.65123">
        <ele>95.1</ele>
        <time>2020-06-18T09:26:28Z</time>
      </trkpt>
      <trkpt lat="49.78988" lon="0.65129">
        <ele>95.2</ele>
        <time>2020-06-18T09:26:29Z</time>
      </trkpt>
      <trkpt lat="49.7899" lon="0.65136">
        <ele>95.3</ele>
        <time>2020-06-18T09:26:30Z</time>
      </trkpt>
      <trkpt lat="49.78991" lon="0.65142">
        <ele>95.4</ele>
        <time>2020-06-18T09:26:31Z</time>
      </trkpt>
      <trkpt lat="49.78993" lon="0.65149">
        <ele>95.5</ele>
        <time>2020-06-18T09:26:32Z</time>
      </trkpt>
      <trkpt lat="49.78994" lon="0.65156">
        <ele>95.6</ele>
        <time>2020-06-18T09:26:33Z</time>
      </trkpt>
      <trkpt lat="49.78995" lon="0.65164">
        <ele>95.7</ele>
        <time>2020-06-18T09:26:34Z</time>
      </trkpt>
      <trkpt lat="49.78997" lon="0.65172">
        <ele>95.8</ele>
        <time>2020-06-18T09:26:35Z</time>
      </trkpt>
      <trkpt lat="49.78998" lon="0.65178">
        <ele>95.9</ele>
        <time>2020-06-18T09:26:36Z</time>
      </trkpt>
      <trkpt lat="49.78999" lon="0.65185">
        <ele>96</ele>
        <time>2020-06-18T09:26:37Z</time>
      </trkpt>
      <trkpt lat="49.79" lon="0.65191">
        <ele>96.1</ele>
        <time>2020-06-18T09:26:38Z</time>
      </trkpt>
      <trkpt lat="49.79001" lon="0.65197">
        <ele>96.2</ele>
        <time>2020-06-18T09:26:39Z</time>
      </trkpt>
      <trkpt lat="49.79003" lon="0.65204">
        <ele>96.3</ele>
        <time>2020-06-18T09:26:40Z</time>
      </trkpt>
      <trkpt lat="49.79004" lon="0.6521">
        <ele>96.4</ele>
        <time>2020-06-18T09:26:41Z</time>
      </trkpt>
      <trkpt lat="49.79005" lon="0.65216">
        <ele>96.4</ele>
        <time>2020-06-18T09:26:42Z</time>
      </trkpt>
      <trkpt lat="49.79005" lon="0.65223">
        <ele>96.4</ele>
        <time>2020-06-18T09:26:43Z</time>
      </trkpt>
      <trkpt lat="49.79006" lon="0.65229">
        <ele>96.5</ele>
        <time>2020-06-18T09:26:44Z</time>
      </trkpt>
      <trkpt lat="49.79007" lon="0.65236">
        <ele>96.6</ele>
        <time>2020-06-18T09:26:45Z</time>
      </trkpt>
      <trkpt lat="49.79007" lon="0.65243">
        <ele>96.6</ele>
        <time>2020-06-18T09:26:46Z</time>
      </trkpt>
      <trkpt lat="49.79008" lon="0.6525">
        <ele>96.7</ele>
        <time>2020-06-18T09:26:47Z</time>
      </trkpt>
      <trkpt lat="49.79008" lon="0.65258">
        <ele>96.8</ele>
        <time>2020-06-18T09:26:48Z</time>
      </trkpt>
      <trkpt lat="49.7901" lon="0.65265">
        <ele>96.9</ele>
        <time>2020-06-18T09:26:49Z</time>
      </trkpt>
      <trkpt lat="49.79011" lon="0.65272">
        <ele>97</ele>
        <time>2020-06-18T09:26:50Z</time>
      </trkpt>
      <trkpt lat="49.79012" lon="0.65279">
        <ele>97.1</ele>
        <time>2020-06-18T09:26:51Z</time>
      </trkpt>
      <trkpt lat="49.79013" lon="0.65287">
        <ele>97.2</ele>
        <time>2020-06-18T09:26:52Z</time>
      </trkpt>
      <trkpt lat="49.79014" lon="0.65295">
        <ele>97.4</ele>
        <time>2020-06-18T09:26:53Z</time>
      </trkpt>
      <trkpt lat="49.79016" lon="0.65302">
        <ele>97.5</ele>
        <time>2020-06-18T09:26:54Z</time>
      </trkpt>
      <trkpt lat="49.79018" lon="0.6531">
        <ele>97.7</ele>
        <time>2020-06-18T09:26:55Z</time>
      </trkpt>
      <trkpt lat="49.79019" lon="0.65318">
        <ele>98</ele>
        <time>2020-06-18T09:26:56Z</time>
      </trkpt>
      <trkpt lat="49.79021" lon="0.65326">
        <ele>98.2</ele>
        <time>2020-06-18T09:26:57Z</time>
      </trkpt>
      <trkpt lat="49.79022" lon="0.65333">
        <ele>98.4</ele>
        <time>2020-06-18T09:26:58Z</time>
      </trkpt>
      <trkpt lat="49.79023" lon="0.6534">
        <ele>98.5</ele>
        <time>2020-06-18T09:26:59Z</time>
      </trkpt>
      <trkpt lat="49.79024" lon="0.65348">
        <ele>98.6</ele>
        <time>2020-06-18T09:27:00Z</time>
      </trkpt>
      <trkpt lat="49.79025" lon="0.65355">
        <ele>98.7</ele>
        <time>2020-06-18T09:27:01Z</time>
      </trkpt>
      <trkpt lat="49.79026" lon="0.65362">
        <ele>98.8</ele>
        <time>2020-06-18T09:27:02Z</time>
      </trkpt>
      <trkpt lat="49.79027" lon="0.6537">
        <ele>98.9</ele>
        <time>2020-06-18T09:27:03Z</time>
      </trkpt>
      <trkpt lat="49.79028" lon="0.65377">
        <ele>99</ele>
        <time>2020-06-18T09:27:04Z</time>
      </trkpt>
      <trkpt lat="49.79028" lon="0.65385">
        <ele>99.1</ele>
        <time>2020-06-18T09:27:05Z</time>
      </trkpt>
      <trkpt lat="49.79028" lon="0.65392">
        <ele>99.2</ele>
        <time>2020-06-18T09:27:06Z</time>
      </trkpt>
      <trkpt lat="49.79028" lon="0.654">
        <ele>99.3</ele>
        <time>2020-06-18T09:27:07Z</time>
      </trkpt>
      <trkpt lat="49.79029" lon="0.65408">
        <ele>99.4</ele>
        <time>2020-06-18T09:27:08Z</time>
      </trkpt>
      <trkpt lat="49.7903" lon="0.65415">
        <ele>99.5</ele>
        <time>2020-06-18T09:27:09Z</time>
      </trkpt>
      <trkpt lat="49.7903" lon="0.65423">
        <ele>99.5</ele>
        <time>2020-06-18T09:27:10Z</time>
      </trkpt>
      <trkpt lat="49.79031" lon="0.6543">
        <ele>99.6</ele>
        <time>2020-06-18T09:27:11Z</time>
      </trkpt>
      <trkpt lat="49.79031" lon="0.65437">
        <ele>99.7</ele>
        <time>2020-06-18T09:27:12Z</time>
      </trkpt>
      <trkpt lat="49.79031" lon="0.65443">
        <ele>99.7</ele>
        <time>2020-06-18T09:27:13Z</time>
      </trkpt>
      <trkpt lat="49.79031" lon="0.6545">
        <ele>99.7</ele>
        <time>2020-06-18T09:27:14Z</time>
      </trkpt>
      <trkpt lat="49.79032" lon="0.65457">
        <ele>99.8</ele>
        <time>2020-06-18T09:27:15Z</time>
      </trkpt>
      <trkpt lat="49.79033" lon="0.65463">
        <ele>99.8</ele>
        <time>2020-06-18T09:27:16Z</time>
      </trkpt>
      <trkpt lat="49.79033" lon="0.65471">
        <ele>99.9</ele>
        <time>2020-06-18T09:27:17Z</time>
      </trkpt>
      <trkpt lat="49.79034" lon="0.65477">
        <ele>99.9</ele>
        <time>2020-06-18T09:27:18Z</time>
      </trkpt>
      <trkpt lat="49.79034" lon="0.65482">
        <ele>100</ele>
        <time>2020-06-18T09:27:19Z</time>
      </trkpt>
      <trkpt lat="49.79034" lon="0.65488">
        <ele>100.1</ele>
        <time>2020-06-18T09:27:20Z</time>
      </trkpt>
      <trkpt lat="49.79035" lon="0.65493">
        <ele>100.1</ele>
        <time>2020-06-18T09:27:21Z</time>
      </trkpt>
      <trkpt lat="49.79036" lon="0.65498">
        <ele>100.2</ele>
        <time>2020-06-18T09:27:22Z</time>
      </trkpt>
      <trkpt lat="49.79036" lon="0.65504">
        <ele>100.2</ele>
        <time>2020-06-18T09:27:23Z</time>
      </trkpt>
      <trkpt lat="49.79036" lon="0.65509">
        <ele>100.3</ele>
        <time>2020-06-18T09:27:24Z</time>
      </trkpt>
      <trkpt lat="49.79035" lon="0.65514">
        <ele>100.3</ele>
        <time>2020-06-18T09:27:25Z</time>
      </trkpt>
      <trkpt lat="49.79036" lon="0.65519">
        <ele>100.4</ele>
        <time>2020-06-18T09:27:26Z</time>
      </trkpt>
      <trkpt lat="49.79036" lon="0.65523">
        <ele>100.4</ele>
        <time>2020-06-18T09:27:27Z</time>
      </trkpt>
      <trkpt lat="49.79036" lon="0.65529">
        <ele>100.5</ele>
        <time>2020-06-18T09:27:28Z</time>
      </trkpt>
      <trkpt lat="49.79037" lon="0.65534">
        <ele>100.6</ele>
        <time>2020-06-18T09:27:29Z</time>
      </trkpt>
      <trkpt lat="49.79037" lon="0.65541">
        <ele>100.6</ele>
        <time>2020-06-18T09:27:30Z</time>
      </trkpt>
      <trkpt lat="49.79038" lon="0.65548">
        <ele>100.7</ele>
        <time>2020-06-18T09:27:31Z</time>
      </trkpt>
      <trkpt lat="49.79039" lon="0.65553">
        <ele>100.7</ele>
        <time>2020-06-18T09:27:32Z</time>
      </trkpt>
      <trkpt lat="49.79039" lon="0.6556">
        <ele>100.8</ele>
        <time>2020-06-18T09:27:33Z</time>
      </trkpt>
      <trkpt lat="49.79039" lon="0.65567">
        <ele>100.8</ele>
        <time>2020-06-18T09:27:34Z</time>
      </trkpt>
      <trkpt lat="49.7904" lon="0.65574">
        <ele>100.9</ele>
        <time>2020-06-18T09:27:35Z</time>
      </trkpt>
      <trkpt lat="49.79041" lon="0.6558">
        <ele>100.9</ele>
        <time>2020-06-18T09:27:36Z</time>
      </trkpt>
      <trkpt lat="49.79041" lon="0.65586">
        <ele>100.9</ele>
        <time>2020-06-18T09:27:37Z</time>
      </trkpt>
      <trkpt lat="49.79042" lon="0.65594">
        <ele>101</ele>
        <time>2020-06-18T09:27:38Z</time>
      </trkpt>
      <trkpt lat="49.79042" lon="0.656">
        <ele>101</ele>
        <time>2020-06-18T09:27:39Z</time>
      </trkpt>
      <trkpt lat="49.79043" lon="0.65606">
        <ele>101</ele>
        <time>2020-06-18T09:27:40Z</time>
      </trkpt>
      <trkpt lat="49.79044" lon="0.65612">
        <ele>101</ele>
        <time>2020-06-18T09:27:41Z</time>
      </trkpt>
      <trkpt lat="49.79045" lon="0.65617">
        <ele>101</ele>
        <time>2020-06-18T09:27:42Z</time>
      </trkpt>
      <trkpt lat="49.79046" lon="0.65624">
        <ele>101.1</ele>
        <time>2020-06-18T09:27:43Z</time>
      </trkpt>
      <trkpt lat="49.79047" lon="0.6563">
        <ele>101.1</ele>
        <time>2020-06-18T09:27:44Z</time>
      </trkpt>
      <trkpt lat="49.79047" lon="0.65637">
        <ele>101.1</ele>
        <time>2020-06-18T09:27:45Z</time>
      </trkpt>
      <trkpt lat="49.79048" lon="0.65643">
        <ele>101.1</ele>
        <time>2020-06-18T09:27:46Z</time>
      </trkpt>
      <trkpt lat="49.79049" lon="0.6565">
        <ele>101.2</ele>
        <time>2020-06-18T09:27:47Z</time>
      </trkpt>
      <trkpt lat="49.79051" lon="0.65657">
        <ele>101.2</ele>
        <time>2020-06-18T09:27:48Z</time>
      </trkpt>
      <trkpt lat="49.79051" lon="0.65664">
        <ele>101.3</ele>
        <time>2020-06-18T09:27:49Z</time>
      </trkpt>
      <trkpt lat="49.79051" lon="0.6567">
        <ele>101.4</ele>
        <time>2020-06-18T09:27:50Z</time>
      </trkpt>
      <trkpt lat="49.79052" lon="0.65676">
        <ele>101.4</ele>
        <time>2020-06-18T09:27:51Z</time>
      </trkpt>
      <trkpt lat="49.79053" lon="0.65681">
        <ele>101.5</ele>
        <time>2020-06-18T09:27:52Z</time>
      </trkpt>
      <trkpt lat="49.79054" lon="0.65686">
        <ele>101.5</ele>
        <time>2020-06-18T09:27:53Z</time>
      </trkpt>
      <trkpt lat="49.79055" lon="0.65691">
        <ele>101.6</ele>
        <time>2020-06-18T09:27:54Z</time>
      </trkpt>
      <trkpt lat="49.79056" lon="0.65696">
        <ele>101.6</ele>
        <time>2020-06-18T09:27:55Z</time>
      </trkpt>
      <trkpt lat="49.79056" lon="0.657">
        <ele>101.7</ele>
        <time>2020-06-18T09:27:56Z</time>
      </trkpt>
      <trkpt lat="49.79057" lon="0.65704">
        <ele>101.7</ele>
        <time>2020-06-18T09:27:57Z</time>
      </trkpt>
      <trkpt lat="49.79057" lon="0.65709">
        <ele>101.8</ele>
        <time>2020-06-18T09:27:58Z</time>
      </trkpt>
      <trkpt lat="49.79057" lon="0.65714">
        <ele>101.9</ele>
        <time>2020-06-18T09:27:59Z</time>
      </trkpt>
      <trkpt lat="49.79058" lon="0.65716">
        <ele>101.9</ele>
        <time>2020-06-18T09:28:00Z</time>
      </trkpt>
      <trkpt lat="49.79057" lon="0.65722">
        <ele>102</ele>
        <time>2020-06-18T09:28:01Z</time>
      </trkpt>
      <trkpt lat="49.79055" lon="0.65724">
        <ele>102</ele>
        <time>2020-06-18T09:28:02Z</time>
      </trkpt>
      <trkpt lat="49.79055" lon="0.65727">
        <ele>102.1</ele>
        <time>2020-06-18T09:28:03Z</time>
      </trkpt>
      <trkpt lat="49.79054" lon="0.65729">
        <ele>102.1</ele>
        <time>2020-06-18T09:28:04Z</time>
      </trkpt>
      <trkpt lat="49.79054" lon="0.65731">
        <ele>102.1</ele>
        <time>2020-06-18T09:28:05Z</time>
      </trkpt>
      <trkpt lat="49.79054" lon="0.65733">
        <ele>102.2</ele>
        <time>2020-06-18T09:28:06Z</time>
      </trkpt>
      <trkpt lat="49.79054" lon="0.65735">
        <ele>102.2</ele>
        <time>2020-06-18T09:28:07Z</time>
      </trkpt>
      <trkpt lat="49.79054" lon="0.65737">
        <ele>102.2</ele>
        <time>2020-06-18T09:28:08Z</time>
      </trkpt>
      <trkpt lat="49.79054" lon="0.65737">
        <ele>102.2</ele>
        <time>2020-06-18T09:28:09Z</time>
      </trkpt>
      <trkpt lat="49.79055" lon="0.65738">
        <ele>102.2</ele>
        <time>2020-06-18T09:28:10Z</time>
      </trkpt>
      <trkpt lat="49.79055" lon="0.65739">
        <ele>102.2</ele>
        <time>2020-06-18T09:28:11Z</time>
      </trkpt>
      <trkpt lat="49.79055" lon="0.6574">
        <ele>102.2</ele>
        <time>2020-06-18T09:28:12Z</time>
      </trkpt>
      <trkpt lat="49.79055" lon="0.65741">
        <ele>102.2</ele>
        <time>2020-06-18T09:28:13Z</time>
      </trkpt>
      <trkpt lat="49.79055" lon="0.65742">
        <ele>102.2</ele>
        <time>2020-06-18T09:28:14Z</time>
      </trkpt>
      <trkpt lat="49.79056" lon="0.65743">
        <ele>102.2</ele>
        <time>2020-06-18T09:28:15Z</time>
      </trkpt>
      <trkpt lat="49.79056" lon="0.65744">
        <ele>102.2</ele>
        <time>2020-06-18T09:28:16Z</time>
      </trkpt>
      <trkpt lat="49.79058" lon="0.6575">
        <ele>102.3</ele>
        <time>2020-06-18T09:28:17Z</time>
      </trkpt>
      <trkpt lat="49.79059" lon="0.65752">
        <ele>102.3</ele>
        <time>2020-06-18T09:28:18Z</time>
      </trkpt>
      <trkpt lat="49.79062" lon="0.65757">
        <ele>102.3</ele>
        <time>2020-06-18T09:28:19Z</time>
      </trkpt>
      <trkpt lat="49.79066" lon="0.65762">
        <ele>102.2</ele>
        <time>2020-06-18T09:28:20Z</time>
      </trkpt>
      <trkpt lat="49.79069" lon="0.65766">
        <ele>102.1</ele>
        <time>2020-06-18T09:28:21Z</time>
      </trkpt>
      <trkpt lat="49.79073" lon="0.6577">
        <ele>102.1</ele>
        <time>2020-06-18T09:28:22Z</time>
      </trkpt>
      <trkpt lat="49.79076" lon="0.65775">
        <ele>102</ele>
        <time>2020-06-18T09:28:23Z</time>
      </trkpt>
      <trkpt lat="49.79078" lon="0.6578">
        <ele>101.9</ele>
        <time>2020-06-18T09:28:24Z</time>
      </trkpt>
      <trkpt lat="49.79083" lon="0.65784">
        <ele>101.8</ele>
        <time>2020-06-18T09:28:25Z</time>
      </trkpt>
      <trkpt lat="49.79085" lon="0.6579">
        <ele>101.8</ele>
        <time>2020-06-18T09:28:26Z</time>
      </trkpt>
      <trkpt lat="49.79089" lon="0.65794">
        <ele>101.8</ele>
        <time>2020-06-18T09:28:27Z</time>
      </trkpt>
      <trkpt lat="49.79093" lon="0.65799">
        <ele>101.7</ele>
        <time>2020-06-18T09:28:28Z</time>
      </trkpt>
      <trkpt lat="49.79095" lon="0.65803">
        <ele>101.7</ele>
        <time>2020-06-18T09:28:29Z</time>
      </trkpt>
      <trkpt lat="49.79098" lon="0.65807">
        <ele>101.6</ele>
        <time>2020-06-18T09:28:30Z</time>
      </trkpt>
      <trkpt lat="49.791" lon="0.6581">
        <ele>101.6</ele>
        <time>2020-06-18T09:28:31Z</time>
      </trkpt>
      <trkpt lat="49.79102" lon="0.65814">
        <ele>101.6</ele>
        <time>2020-06-18T09:28:32Z</time>
      </trkpt>
      <trkpt lat="49.79102" lon="0.65815">
        <ele>101.6</ele>
        <time>2020-06-18T09:28:33Z</time>
      </trkpt>
      <trkpt lat="49.79103" lon="0.65816">
        <ele>101.6</ele>
        <time>2020-06-18T09:28:34Z</time>
      </trkpt>
      <trkpt lat="49.79103" lon="0.65816">
        <ele>101.6</ele>
        <time>2020-06-18T09:28:35Z</time>
      </trkpt>
      <trkpt lat="49.79104" lon="0.65817">
        <ele>101.6</ele>
        <time>2020-06-18T09:28:36Z</time>
      </trkpt>
      <trkpt lat="49.79105" lon="0.65817">
        <ele>101.6</ele>
        <time>2020-06-18T09:28:37Z</time>
      </trkpt>
      <trkpt lat="49.79105" lon="0.65818">
        <ele>101.5</ele>
        <time>2020-06-18T09:28:38Z</time>
      </trkpt>
      <trkpt lat="49.79108" lon="0.65818">
        <ele>101.5</ele>
        <time>2020-06-18T09:28:39Z</time>
      </trkpt>
      <trkpt lat="49.79109" lon="0.65819">
        <ele>101.5</ele>
        <time>2020-06-18T09:28:40Z</time>
      </trkpt>
      <trkpt lat="49.79108" lon="0.65819">
        <ele>101.5</ele>
        <time>2020-06-18T09:28:41Z</time>
      </trkpt>
      <trkpt lat="49.7911" lon="0.65818">
        <ele>101.5</ele>
        <time>2020-06-18T09:28:42Z</time>
      </trkpt>
      <trkpt lat="49.7911" lon="0.65818">
        <ele>101.5</ele>
        <time>2020-06-18T09:28:43Z</time>
      </trkpt>
      <trkpt lat="49.79111" lon="0.65816">
        <ele>101.5</ele>
        <time>2020-06-18T09:28:44Z</time>
      </trkpt>
      <trkpt lat="49.7911" lon="0.65814">
        <ele>101.5</ele>
        <time>2020-06-18T09:28:45Z</time>
      </trkpt>
      <trkpt lat="49.79109" lon="0.65811">
        <ele>101.4</ele>
        <time>2020-06-18T09:28:46Z</time>
      </trkpt>
      <trkpt lat="49.79106" lon="0.65809">
        <ele>101.5</ele>
        <time>2020-06-18T09:28:47Z</time>
      </trkpt>
      <trkpt lat="49.79103" lon="0.65804">
        <ele>101.5</ele>
        <time>2020-06-18T09:28:48Z</time>
      </trkpt>
      <trkpt lat="49.79101" lon="0.65799">
        <ele>101.6</ele>
        <time>2020-06-18T09:28:49Z</time>
      </trkpt>
      <trkpt lat="49.79098" lon="0.65795">
        <ele>101.6</ele>
        <time>2020-06-18T09:28:50Z</time>
      </trkpt>
      <trkpt lat="49.79095" lon="0.65792">
        <ele>101.6</ele>
        <time>2020-06-18T09:28:51Z</time>
      </trkpt>
      <trkpt lat="49.79092" lon="0.65788">
        <ele>101.7</ele>
        <time>2020-06-18T09:28:52Z</time>
      </trkpt>
      <trkpt lat="49.79089" lon="0.65784">
        <ele>101.7</ele>
        <time>2020-06-18T09:28:53Z</time>
      </trkpt>
      <trkpt lat="49.79086" lon="0.65781">
        <ele>101.8</ele>
        <time>2020-06-18T09:28:54Z</time>
      </trkpt>
      <trkpt lat="49.79084" lon="0.65778">
        <ele>101.8</ele>
        <time>2020-06-18T09:28:55Z</time>
      </trkpt>
      <trkpt lat="49.79081" lon="0.65775">
        <ele>101.9</ele>
        <time>2020-06-18T09:28:56Z</time>
      </trkpt>
      <trkpt lat="49.79079" lon="0.65772">
        <ele>101.9</ele>
        <time>2020-06-18T09:28:57Z</time>
      </trkpt>
      <trkpt lat="49.79076" lon="0.65768">
        <ele>102</ele>
        <time>2020-06-18T09:28:58Z</time>
      </trkpt>
      <trkpt lat="49.79075" lon="0.65766">
        <ele>102</ele>
        <time>2020-06-18T09:28:59Z</time>
      </trkpt>
      <trkpt lat="49.79072" lon="0.65763">
        <ele>102.1</ele>
        <time>2020-06-18T09:29:00Z</time>
      </trkpt>
      <trkpt lat="49.79071" lon="0.65762">
        <ele>102.3</ele>
        <time>2020-06-18T09:29:01Z</time>
      </trkpt>
      <trkpt lat="49.79067" lon="0.65763">
        <ele>102.3</ele>
        <time>2020-06-18T09:29:02Z</time>
      </trkpt>
      <trkpt lat="49.79063" lon="0.65767">
        <ele>102.2</ele>
        <time>2020-06-18T09:29:03Z</time>
      </trkpt>
      <trkpt lat="49.79062" lon="0.65772">
        <ele>102.2</ele>
        <time>2020-06-18T09:29:04Z</time>
      </trkpt>
      <trkpt lat="49.79061" lon="0.65779">
        <ele>102.1</ele>
        <time>2020-06-18T09:29:05Z</time>
      </trkpt>
      <trkpt lat="49.79062" lon="0.65785">
        <ele>102.1</ele>
        <time>2020-06-18T09:29:06Z</time>
      </trkpt>
      <trkpt lat="49.79062" lon="0.65791">
        <ele>102.1</ele>
        <time>2020-06-18T09:29:07Z</time>
      </trkpt>
      <trkpt lat="49.79063" lon="0.65797">
        <ele>102.1</ele>
        <time>2020-06-18T09:29:08Z</time>
      </trkpt>
      <trkpt lat="49.79063" lon="0.65804">
        <ele>102.1</ele>
        <time>2020-06-18T09:29:09Z</time>
      </trkpt>
      <trkpt lat="49.79063" lon="0.6581">
        <ele>102.1</ele>
        <time>2020-06-18T09:29:10Z</time>
      </trkpt>
      <trkpt lat="49.79064" lon="0.65816">
        <ele>102.1</ele>
        <time>2020-06-18T09:29:11Z</time>
      </trkpt>
      <trkpt lat="49.79064" lon="0.65821">
        <ele>102.1</ele>
        <time>2020-06-18T09:29:12Z</time>
      </trkpt>
      <trkpt lat="49.79063" lon="0.65828">
        <ele>102.1</ele>
        <time>2020-06-18T09:29:13Z</time>
      </trkpt>
      <trkpt lat="49.79064" lon="0.65833">
        <ele>102.2</ele>
        <time>2020-06-18T09:29:14Z</time>
      </trkpt>
      <trkpt lat="49.79063" lon="0.6584">
        <ele>102.2</ele>
        <time>2020-06-18T09:29:15Z</time>
      </trkpt>
      <trkpt lat="49.79064" lon="0.65845">
        <ele>102.2</ele>
        <time>2020-06-18T09:29:16Z</time>
      </trkpt>
      <trkpt lat="49.79065" lon="0.65853">
        <ele>102.2</ele>
        <time>2020-06-18T09:29:17Z</time>
      </trkpt>
      <trkpt lat="49.79065" lon="0.6586">
        <ele>102.2</ele>
        <time>2020-06-18T09:29:18Z</time>
      </trkpt>
      <trkpt lat="49.79065" lon="0.65867">
        <ele>102.2</ele>
        <time>2020-06-18T09:29:19Z</time>
      </trkpt>
      <trkpt lat="49.79066" lon="0.65875">
        <ele>102.2</ele>
        <time>2020-06-18T09:29:20Z</time>
      </trkpt>
      <trkpt lat="49.79066" lon="0.65882">
        <ele>102.2</ele>
        <time>2020-06-18T09:29:21Z</time>
      </trkpt>
      <trkpt lat="49.79066" lon="0.6589">
        <ele>102.2</ele>
        <time>2020-06-18T09:29:22Z</time>
      </trkpt>
      <trkpt lat="49.79066" lon="0.65896">
        <ele>102.2</ele>
        <time>2020-06-18T09:29:23Z</time>
      </trkpt>
      <trkpt lat="49.79067" lon="0.65902">
        <ele>102.3</ele>
        <time>2020-06-18T09:29:24Z</time>
      </trkpt>
      <trkpt lat="49.79067" lon="0.65908">
        <ele>102.3</ele>
        <time>2020-06-18T09:29:25Z</time>
      </trkpt>
      <trkpt lat="49.79066" lon="0.65916">
        <ele>102.3</ele>
        <time>2020-06-18T09:29:26Z</time>
      </trkpt>
      <trkpt lat="49.79066" lon="0.65923">
        <ele>102.3</ele>
        <time>2020-06-18T09:29:27Z</time>
      </trkpt>
      <trkpt lat="49.79065" lon="0.6593">
        <ele>102.3</ele>
        <time>2020-06-18T09:29:28Z</time>
      </trkpt>
      <trkpt lat="49.79065" lon="0.65937">
        <ele>102.3</ele>
        <time>2020-06-18T09:29:29Z</time>
      </trkpt>
      <trkpt lat="49.79065" lon="0.65944">
        <ele>102.3</ele>
        <time>2020-06-18T09:29:30Z</time>
      </trkpt>
      <trkpt lat="49.79065" lon="0.65951">
        <ele>102.3</ele>
        <time>2020-06-18T09:29:31Z</time>
      </trkpt>
      <trkpt lat="49.79065" lon="0.65959">
        <ele>102.3</ele>
        <time>2020-06-18T09:29:32Z</time>
      </trkpt>
      <trkpt lat="49.79065" lon="0.65966">
        <ele>102.3</ele>
        <time>2020-06-18T09:29:33Z</time>
      </trkpt>
      <trkpt lat="49.79065" lon="0.65973">
        <ele>102.3</ele>
        <time>2020-06-18T09:29:34Z</time>
      </trkpt>
      <trkpt lat="49.79065" lon="0.65981">
        <ele>102.3</ele>
        <time>2020-06-18T09:29:35Z</time>
      </trkpt>
      <trkpt lat="49.79065" lon="0.6599">
        <ele>102.4</ele>
        <time>2020-06-18T09:29:36Z</time>
      </trkpt>
      <trkpt lat="49.79066" lon="0.65997">
        <ele>102.4</ele>
        <time>2020-06-18T09:29:37Z</time>
      </trkpt>
      <trkpt lat="49.79067" lon="0.66005">
        <ele>102.4</ele>
        <time>2020-06-18T09:29:38Z</time>
      </trkpt>
      <trkpt lat="49.79068" lon="0.66013">
        <ele>102.4</ele>
        <time>2020-06-18T09:29:39Z</time>
      </trkpt>
      <trkpt lat="49.7907" lon="0.6602">
        <ele>102.4</ele>
        <time>2020-06-18T09:29:40Z</time>
      </trkpt>
      <trkpt lat="49.7907" lon="0.66026">
        <ele>102.4</ele>
        <time>2020-06-18T09:29:41Z</time>
      </trkpt>
      <trkpt lat="49.7907" lon="0.66033">
        <ele>102.4</ele>
        <time>2020-06-18T09:29:42Z</time>
      </trkpt>
      <trkpt lat="49.79071" lon="0.66039">
        <ele>102.4</ele>
        <time>2020-06-18T09:29:43Z</time>
      </trkpt>
      <trkpt lat="49.79072" lon="0.66046">
        <ele>102.4</ele>
        <time>2020-06-18T09:29:44Z</time>
      </trkpt>
      <trkpt lat="49.79074" lon="0.66053">
        <ele>102.4</ele>
        <time>2020-06-18T09:29:45Z</time>
      </trkpt>
      <trkpt lat="49.79076" lon="0.66061">
        <ele>102.4</ele>
        <time>2020-06-18T09:29:46Z</time>
      </trkpt>
      <trkpt lat="49.79077" lon="0.66068">
        <ele>102.4</ele>
        <time>2020-06-18T09:29:47Z</time>
      </trkpt>
      <trkpt lat="49.79078" lon="0.66076">
        <ele>102.4</ele>
        <time>2020-06-18T09:29:48Z</time>
      </trkpt>
      <trkpt lat="49.79079" lon="0.66083">
        <ele>102.4</ele>
        <time>2020-06-18T09:29:49Z</time>
      </trkpt>
      <trkpt lat="49.79081" lon="0.66091">
        <ele>102.4</ele>
        <time>2020-06-18T09:29:50Z</time>
      </trkpt>
      <trkpt lat="49.79081" lon="0.66098">
        <ele>102.3</ele>
        <time>2020-06-18T09:29:51Z</time>
      </trkpt>
      <trkpt lat="49.79084" lon="0.66105">
        <ele>102.3</ele>
        <time>2020-06-18T09:29:52Z</time>
      </trkpt>
      <trkpt lat="49.79085" lon="0.66112">
        <ele>102.3</ele>
        <time>2020-06-18T09:29:53Z</time>
      </trkpt>
      <trkpt lat="49.79087" lon="0.66119">
        <ele>102.3</ele>
        <time>2020-06-18T09:29:54Z</time>
      </trkpt>
      <trkpt lat="49.79088" lon="0.66126">
        <ele>102.3</ele>
        <time>2020-06-18T09:29:55Z</time>
      </trkpt>
      <trkpt lat="49.7909" lon="0.66134">
        <ele>102.3</ele>
        <time>2020-06-18T09:29:56Z</time>
      </trkpt>
      <trkpt lat="49.79092" lon="0.66141">
        <ele>102.3</ele>
        <time>2020-06-18T09:29:57Z</time>
      </trkpt>
      <trkpt lat="49.79093" lon="0.66148">
        <ele>102.3</ele>
        <time>2020-06-18T09:29:58Z</time>
      </trkpt>
      <trkpt lat="49.79095" lon="0.66155">
        <ele>102.3</ele>
        <time>2020-06-18T09:29:59Z</time>
      </trkpt>
      <trkpt lat="49.79097" lon="0.66162">
        <ele>102.3</ele>
        <time>2020-06-18T09:30:00Z</time>
      </trkpt>
      <trkpt lat="49.79099" lon="0.6617">
        <ele>102.2</ele>
        <time>2020-06-18T09:30:01Z</time>
      </trkpt>
      <trkpt lat="49.79101" lon="0.66178">
        <ele>102.2</ele>
        <time>2020-06-18T09:30:02Z</time>
      </trkpt>
      <trkpt lat="49.79103" lon="0.66186">
        <ele>102.1</ele>
        <time>2020-06-18T09:30:03Z</time>
      </trkpt>
      <trkpt lat="49.79106" lon="0.66193">
        <ele>102.1</ele>
        <time>2020-06-18T09:30:04Z</time>
      </trkpt>
      <trkpt lat="49.79109" lon="0.662">
        <ele>102.1</ele>
        <time>2020-06-18T09:30:05Z</time>
      </trkpt>
      <trkpt lat="49.79112" lon="0.66208">
        <ele>102.1</ele>
        <time>2020-06-18T09:30:06Z</time>
      </trkpt>
      <trkpt lat="49.79114" lon="0.66216">
        <ele>102.1</ele>
        <time>2020-06-18T09:30:07Z</time>
      </trkpt>
      <trkpt lat="49.79117" lon="0.66224">
        <ele>102.1</ele>
        <time>2020-06-18T09:30:08Z</time>
      </trkpt>
      <trkpt lat="49.79119" lon="0.66231">
        <ele>102.1</ele>
        <time>2020-06-18T09:30:09Z</time>
      </trkpt>
      <trkpt lat="49.79121" lon="0.66239">
        <ele>102.1</ele>
        <time>2020-06-18T09:30:10Z</time>
      </trkpt>
      <trkpt lat="49.79124" lon="0.66247">
        <ele>102.1</ele>
        <time>2020-06-18T09:30:11Z</time>
      </trkpt>
      <trkpt lat="49.79127" lon="0.66255">
        <ele>102.1</ele>
        <time>2020-06-18T09:30:12Z</time>
      </trkpt>
      <trkpt lat="49.79129" lon="0.66262">
        <ele>102.1</ele>
        <time>2020-06-18T09:30:13Z</time>
      </trkpt>
      <trkpt lat="49.79132" lon="0.6627">
        <ele>102.1</ele>
        <time>2020-06-18T09:30:14Z</time>
      </trkpt>
      <trkpt lat="49.79134" lon="0.66278">
        <ele>102.1</ele>
        <time>2020-06-18T09:30:15Z</time>
      </trkpt>
      <trkpt lat="49.79137" lon="0.66286">
        <ele>102.1</ele>
        <time>2020-06-18T09:30:16Z</time>
      </trkpt>
      <trkpt lat="49.7914" lon="0.66293">
        <ele>102.1</ele>
        <time>2020-06-18T09:30:17Z</time>
      </trkpt>
      <trkpt lat="49.79143" lon="0.663">
        <ele>102.1</ele>
        <time>2020-06-18T09:30:18Z</time>
      </trkpt>
      <trkpt lat="49.79146" lon="0.66307">
        <ele>102.1</ele>
        <time>2020-06-18T09:30:19Z</time>
      </trkpt>
      <trkpt lat="49.7915" lon="0.66314">
        <ele>102.1</ele>
        <time>2020-06-18T09:30:20Z</time>
      </trkpt>
      <trkpt lat="49.79151" lon="0.66322">
        <ele>102.1</ele>
        <time>2020-06-18T09:30:21Z</time>
      </trkpt>
      <trkpt lat="49.79154" lon="0.6633">
        <ele>102.1</ele>
        <time>2020-06-18T09:30:22Z</time>
      </trkpt>
      <trkpt lat="49.79156" lon="0.66338">
        <ele>102.1</ele>
        <time>2020-06-18T09:30:23Z</time>
      </trkpt>
      <trkpt lat="49.7916" lon="0.66347">
        <ele>102.2</ele>
        <time>2020-06-18T09:30:24Z</time>
      </trkpt>
      <trkpt lat="49.79163" lon="0.66357">
        <ele>102.2</ele>
        <time>2020-06-18T09:30:25Z</time>
      </trkpt>
      <trkpt lat="49.79165" lon="0.66365">
        <ele>102.2</ele>
        <time>2020-06-18T09:30:26Z</time>
      </trkpt>
      <trkpt lat="49.79167" lon="0.66373">
        <ele>102.2</ele>
        <time>2020-06-18T09:30:27Z</time>
      </trkpt>
      <trkpt lat="49.79169" lon="0.66381">
        <ele>102.2</ele>
        <time>2020-06-18T09:30:28Z</time>
      </trkpt>
      <trkpt lat="49.79171" lon="0.66389">
        <ele>102.2</ele>
        <time>2020-06-18T09:30:29Z</time>
      </trkpt>
      <trkpt lat="49.79174" lon="0.66397">
        <ele>102.3</ele>
        <time>2020-06-18T09:30:30Z</time>
      </trkpt>
      <trkpt lat="49.79174" lon="0.66403">
        <ele>102.3</ele>
        <time>2020-06-18T09:30:31Z</time>
      </trkpt>
      <trkpt lat="49.79177" lon="0.66411">
        <ele>102.3</ele>
        <time>2020-06-18T09:30:32Z</time>
      </trkpt>
      <trkpt lat="49.7918" lon="0.66419">
        <ele>102.4</ele>
        <time>2020-06-18T09:30:33Z</time>
      </trkpt>
      <trkpt lat="49.79182" lon="0.66426">
        <ele>102.4</ele>
        <time>2020-06-18T09:30:34Z</time>
      </trkpt>
      <trkpt lat="49.79183" lon="0.66433">
        <ele>102.5</ele>
        <time>2020-06-18T09:30:35Z</time>
      </trkpt>
      <trkpt lat="49.79185" lon="0.66441">
        <ele>102.5</ele>
        <time>2020-06-18T09:30:36Z</time>
      </trkpt>
      <trkpt lat="49.79188" lon="0.66449">
        <ele>102.6</ele>
        <time>2020-06-18T09:30:37Z</time>
      </trkpt>
      <trkpt lat="49.7919" lon="0.66457">
        <ele>102.6</ele>
        <time>2020-06-18T09:30:38Z</time>
      </trkpt>
      <trkpt lat="49.79191" lon="0.66465">
        <ele>102.7</ele>
        <time>2020-06-18T09:30:39Z</time>
      </trkpt>
      <trkpt lat="49.79193" lon="0.66472">
        <ele>102.7</ele>
        <time>2020-06-18T09:30:40Z</time>
      </trkpt>
      <trkpt lat="49.79195" lon="0.66481">
        <ele>102.7</ele>
        <time>2020-06-18T09:30:41Z</time>
      </trkpt>
      <trkpt lat="49.79197" lon="0.66489">
        <ele>102.7</ele>
        <time>2020-06-18T09:30:42Z</time>
      </trkpt>
      <trkpt lat="49.79198" lon="0.66497">
        <ele>102.8</ele>
        <time>2020-06-18T09:30:43Z</time>
      </trkpt>
      <trkpt lat="49.79199" lon="0.66506">
        <ele>102.8</ele>
        <time>2020-06-18T09:30:44Z</time>
      </trkpt>
      <trkpt lat="49.79201" lon="0.66514">
        <ele>102.7</ele>
        <time>2020-06-18T09:30:45Z</time>
      </trkpt>
      <trkpt lat="49.79203" lon="0.66524">
        <ele>102.7</ele>
        <time>2020-06-18T09:30:46Z</time>
      </trkpt>
      <trkpt lat="49.79205" lon="0.66533">
        <ele>102.7</ele>
        <time>2020-06-18T09:30:47Z</time>
      </trkpt>
      <trkpt lat="49.79207" lon="0.66542">
        <ele>102.8</ele>
        <time>2020-06-18T09:30:48Z</time>
      </trkpt>
      <trkpt lat="49.79208" lon="0.6655">
        <ele>102.8</ele>
        <time>2020-06-18T09:30:49Z</time>
      </trkpt>
      <trkpt lat="49.7921" lon="0.66559">
        <ele>102.9</ele>
        <time>2020-06-18T09:30:50Z</time>
      </trkpt>
      <trkpt lat="49.79212" lon="0.66567">
        <ele>103</ele>
        <time>2020-06-18T09:30:51Z</time>
      </trkpt>
      <trkpt lat="49.79212" lon="0.66575">
        <ele>103</ele>
        <time>2020-06-18T09:30:52Z</time>
      </trkpt>
      <trkpt lat="49.79213" lon="0.66584">
        <ele>103.1</ele>
        <time>2020-06-18T09:30:53Z</time>
      </trkpt>
      <trkpt lat="49.79215" lon="0.66593">
        <ele>103.2</ele>
        <time>2020-06-18T09:30:54Z</time>
      </trkpt>
      <trkpt lat="49.79217" lon="0.66602">
        <ele>103.3</ele>
        <time>2020-06-18T09:30:55Z</time>
      </trkpt>
      <trkpt lat="49.79219" lon="0.6661">
        <ele>103.3</ele>
        <time>2020-06-18T09:30:56Z</time>
      </trkpt>
      <trkpt lat="49.79221" lon="0.66619">
        <ele>103.4</ele>
        <time>2020-06-18T09:30:57Z</time>
      </trkpt>
      <trkpt lat="49.79222" lon="0.66627">
        <ele>103.4</ele>
        <time>2020-06-18T09:30:58Z</time>
      </trkpt>
      <trkpt lat="49.79225" lon="0.66636">
        <ele>103.4</ele>
        <time>2020-06-18T09:30:59Z</time>
      </trkpt>
      <trkpt lat="49.79226" lon="0.66645">
        <ele>103.4</ele>
        <time>2020-06-18T09:31:00Z</time>
      </trkpt>
      <trkpt lat="49.79227" lon="0.66655">
        <ele>103.5</ele>
        <time>2020-06-18T09:31:01Z</time>
      </trkpt>
      <trkpt lat="49.79228" lon="0.66664">
        <ele>103.5</ele>
        <time>2020-06-18T09:31:02Z</time>
      </trkpt>
      <trkpt lat="49.79228" lon="0.66674">
        <ele>103.6</ele>
        <time>2020-06-18T09:31:03Z</time>
      </trkpt>
      <trkpt lat="49.79229" lon="0.66683">
        <ele>103.7</ele>
        <time>2020-06-18T09:31:04Z</time>
      </trkpt>
      <trkpt lat="49.7923" lon="0.66692">
        <ele>103.8</ele>
        <time>2020-06-18T09:31:05Z</time>
      </trkpt>
      <trkpt lat="49.79232" lon="0.66701">
        <ele>103.8</ele>
        <time>2020-06-18T09:31:06Z</time>
      </trkpt>
      <trkpt lat="49.79233" lon="0.66709">
        <ele>103.9</ele>
        <time>2020-06-18T09:31:07Z</time>
      </trkpt>
      <trkpt lat="49.79234" lon="0.66718">
        <ele>103.9</ele>
        <time>2020-06-18T09:31:08Z</time>
      </trkpt>
      <trkpt lat="49.79234" lon="0.66728">
        <ele>103.9</ele>
        <time>2020-06-18T09:31:09Z</time>
      </trkpt>
      <trkpt lat="49.79235" lon="0.66739">
        <ele>104</ele>
        <time>2020-06-18T09:31:10Z</time>
      </trkpt>
      <trkpt lat="49.79235" lon="0.66748">
        <ele>104</ele>
        <time>2020-06-18T09:31:11Z</time>
      </trkpt>
      <trkpt lat="49.79236" lon="0.66757">
        <ele>104</ele>
        <time>2020-06-18T09:31:12Z</time>
      </trkpt>
      <trkpt lat="49.79237" lon="0.66767">
        <ele>104.1</ele>
        <time>2020-06-18T09:31:13Z</time>
      </trkpt>
      <trkpt lat="49.79238" lon="0.66776">
        <ele>104.2</ele>
        <time>2020-06-18T09:31:14Z</time>
      </trkpt>
      <trkpt lat="49.7924" lon="0.66784">
        <ele>104.2</ele>
        <time>2020-06-18T09:31:15Z</time>
      </trkpt>
      <trkpt lat="49.7924" lon="0.66791">
        <ele>104.3</ele>
        <time>2020-06-18T09:31:16Z</time>
      </trkpt>
      <trkpt lat="49.79241" lon="0.668">
        <ele>104.3</ele>
        <time>2020-06-18T09:31:17Z</time>
      </trkpt>
      <trkpt lat="49.79242" lon="0.6681">
        <ele>104.4</ele>
        <time>2020-06-18T09:31:18Z</time>
      </trkpt>
      <trkpt lat="49.79244" lon="0.6682">
        <ele>104.5</ele>
        <time>2020-06-18T09:31:19Z</time>
      </trkpt>
      <trkpt lat="49.79245" lon="0.6683">
        <ele>104.6</ele>
        <time>2020-06-18T09:31:20Z</time>
      </trkpt>
      <trkpt lat="49.79247" lon="0.66838">
        <ele>104.7</ele>
        <time>2020-06-18T09:31:21Z</time>
      </trkpt>
      <trkpt lat="49.79248" lon="0.66848">
        <ele>104.8</ele>
        <time>2020-06-18T09:31:22Z</time>
      </trkpt>
      <trkpt lat="49.79249" lon="0.66857">
        <ele>104.8</ele>
        <time>2020-06-18T09:31:23Z</time>
      </trkpt>
      <trkpt lat="49.79251" lon="0.66865">
        <ele>104.8</ele>
        <time>2020-06-18T09:31:24Z</time>
      </trkpt>
      <trkpt lat="49.79252" lon="0.66875">
        <ele>104.9</ele>
        <time>2020-06-18T09:31:25Z</time>
      </trkpt>
      <trkpt lat="49.79253" lon="0.66884">
        <ele>104.9</ele>
        <time>2020-06-18T09:31:26Z</time>
      </trkpt>
      <trkpt lat="49.79255" lon="0.66892">
        <ele>104.9</ele>
        <time>2020-06-18T09:31:27Z</time>
      </trkpt>
      <trkpt lat="49.79256" lon="0.66902">
        <ele>105</ele>
        <time>2020-06-18T09:31:28Z</time>
      </trkpt>
      <trkpt lat="49.79258" lon="0.66911">
        <ele>105</ele>
        <time>2020-06-18T09:31:29Z</time>
      </trkpt>
      <trkpt lat="49.79259" lon="0.6692">
        <ele>105</ele>
        <time>2020-06-18T09:31:30Z</time>
      </trkpt>
      <trkpt lat="49.79261" lon="0.66929">
        <ele>105.1</ele>
        <time>2020-06-18T09:31:31Z</time>
      </trkpt>
      <trkpt lat="49.79263" lon="0.66938">
        <ele>105.1</ele>
        <time>2020-06-18T09:31:32Z</time>
      </trkpt>
      <trkpt lat="49.79264" lon="0.66949">
        <ele>105.2</ele>
        <time>2020-06-18T09:31:33Z</time>
      </trkpt>
      <trkpt lat="49.79265" lon="0.66958">
        <ele>105.2</ele>
        <time>2020-06-18T09:31:34Z</time>
      </trkpt>
      <trkpt lat="49.79267" lon="0.66966">
        <ele>105.3</ele>
        <time>2020-06-18T09:31:35Z</time>
      </trkpt>
      <trkpt lat="49.79268" lon="0.66975">
        <ele>105.3</ele>
        <time>2020-06-18T09:31:36Z</time>
      </trkpt>
      <trkpt lat="49.7927" lon="0.66983">
        <ele>105.3</ele>
        <time>2020-06-18T09:31:37Z</time>
      </trkpt>
      <trkpt lat="49.79271" lon="0.66992">
        <ele>105.3</ele>
        <time>2020-06-18T09:31:38Z</time>
      </trkpt>
      <trkpt lat="49.79274" lon="0.67003">
        <ele>105.4</ele>
        <time>2020-06-18T09:31:39Z</time>
      </trkpt>
      <trkpt lat="49.79276" lon="0.67013">
        <ele>105.4</ele>
        <time>2020-06-18T09:31:40Z</time>
      </trkpt>
      <trkpt lat="49.79277" lon="0.67022">
        <ele>105.4</ele>
        <time>2020-06-18T09:31:41Z</time>
      </trkpt>
      <trkpt lat="49.79279" lon="0.67032">
        <ele>105.2</ele>
        <time>2020-06-18T09:31:42Z</time>
      </trkpt>
      <trkpt lat="49.7928" lon="0.6704">
        <ele>105</ele>
        <time>2020-06-18T09:31:43Z</time>
      </trkpt>
      <trkpt lat="49.79281" lon="0.6705">
        <ele>104.9</ele>
        <time>2020-06-18T09:31:44Z</time>
      </trkpt>
      <trkpt lat="49.79283" lon="0.6706">
        <ele>104.9</ele>
        <time>2020-06-18T09:31:45Z</time>
      </trkpt>
      <trkpt lat="49.79284" lon="0.6707">
        <ele>104.9</ele>
        <time>2020-06-18T09:31:46Z</time>
      </trkpt>
      <trkpt lat="49.79285" lon="0.67078">
        <ele>104.9</ele>
        <time>2020-06-18T09:31:47Z</time>
      </trkpt>
      <trkpt lat="49.79287" lon="0.67088">
        <ele>104.9</ele>
        <time>2020-06-18T09:31:48Z</time>
      </trkpt>
      <trkpt lat="49.79288" lon="0.67098">
        <ele>104.9</ele>
        <time>2020-06-18T09:31:49Z</time>
      </trkpt>
      <trkpt lat="49.7929" lon="0.67107">
        <ele>104.9</ele>
        <time>2020-06-18T09:31:50Z</time>
      </trkpt>
      <trkpt lat="49.79291" lon="0.67117">
        <ele>105</ele>
        <time>2020-06-18T09:31:51Z</time>
      </trkpt>
      <trkpt lat="49.79292" lon="0.67127">
        <ele>105</ele>
        <time>2020-06-18T09:31:52Z</time>
      </trkpt>
      <trkpt lat="49.79293" lon="0.67136">
        <ele>105</ele>
        <time>2020-06-18T09:31:53Z</time>
      </trkpt>
      <trkpt lat="49.79295" lon="0.67147">
        <ele>105.1</ele>
        <time>2020-06-18T09:31:54Z</time>
      </trkpt>
      <trkpt lat="49.79296" lon="0.67157">
        <ele>105.1</ele>
        <time>2020-06-18T09:31:55Z</time>
      </trkpt>
      <trkpt lat="49.79298" lon="0.67167">
        <ele>105.2</ele>
        <time>2020-06-18T09:31:56Z</time>
      </trkpt>
      <trkpt lat="49.793" lon="0.67176">
        <ele>105.3</ele>
        <time>2020-06-18T09:31:57Z</time>
      </trkpt>
      <trkpt lat="49.79301" lon="0.67186">
        <ele>105.3</ele>
        <time>2020-06-18T09:31:58Z</time>
      </trkpt>
      <trkpt lat="49.79302" lon="0.67195">
        <ele>105.3</ele>
        <time>2020-06-18T09:31:59Z</time>
      </trkpt>
      <trkpt lat="49.79304" lon="0.67204">
        <ele>105.4</ele>
        <time>2020-06-18T09:32:00Z</time>
      </trkpt>
      <trkpt lat="49.79306" lon="0.67213">
        <ele>105.4</ele>
        <time>2020-06-18T09:32:01Z</time>
      </trkpt>
      <trkpt lat="49.79308" lon="0.67224">
        <ele>105.5</ele>
        <time>2020-06-18T09:32:02Z</time>
      </trkpt>
      <trkpt lat="49.79309" lon="0.67233">
        <ele>105.5</ele>
        <time>2020-06-18T09:32:03Z</time>
      </trkpt>
      <trkpt lat="49.79311" lon="0.67244">
        <ele>105.6</ele>
        <time>2020-06-18T09:32:04Z</time>
      </trkpt>
      <trkpt lat="49.79313" lon="0.67253">
        <ele>105.6</ele>
        <time>2020-06-18T09:32:05Z</time>
      </trkpt>
      <trkpt lat="49.79315" lon="0.67263">
        <ele>105.6</ele>
        <time>2020-06-18T09:32:06Z</time>
      </trkpt>
      <trkpt lat="49.79317" lon="0.67273">
        <ele>105.7</ele>
        <time>2020-06-18T09:32:07Z</time>
      </trkpt>
      <trkpt lat="49.79319" lon="0.67283">
        <ele>105.7</ele>
        <time>2020-06-18T09:32:08Z</time>
      </trkpt>
      <trkpt lat="49.79321" lon="0.67293">
        <ele>105.8</ele>
        <time>2020-06-18T09:32:09Z</time>
      </trkpt>
      <trkpt lat="49.79323" lon="0.67303">
        <ele>105.8</ele>
        <time>2020-06-18T09:32:10Z</time>
      </trkpt>
      <trkpt lat="49.79325" lon="0.67313">
        <ele>105.9</ele>
        <time>2020-06-18T09:32:11Z</time>
      </trkpt>
      <trkpt lat="49.79327" lon="0.67322">
        <ele>105.9</ele>
        <time>2020-06-18T09:32:12Z</time>
      </trkpt>
      <trkpt lat="49.79329" lon="0.67332">
        <ele>106</ele>
        <time>2020-06-18T09:32:13Z</time>
      </trkpt>
      <trkpt lat="49.79331" lon="0.67342">
        <ele>106</ele>
        <time>2020-06-18T09:32:14Z</time>
      </trkpt>
      <trkpt lat="49.79333" lon="0.67352">
        <ele>106.1</ele>
        <time>2020-06-18T09:32:15Z</time>
      </trkpt>
      <trkpt lat="49.79335" lon="0.67361">
        <ele>106.1</ele>
        <time>2020-06-18T09:32:16Z</time>
      </trkpt>
      <trkpt lat="49.79337" lon="0.6737">
        <ele>106.1</ele>
        <time>2020-06-18T09:32:17Z</time>
      </trkpt>
      <trkpt lat="49.79339" lon="0.6738">
        <ele>106.1</ele>
        <time>2020-06-18T09:32:18Z</time>
      </trkpt>
      <trkpt lat="49.79341" lon="0.67389">
        <ele>106.1</ele>
        <time>2020-06-18T09:32:19Z</time>
      </trkpt>
      <trkpt lat="49.79343" lon="0.67399">
        <ele>106.1</ele>
        <time>2020-06-18T09:32:20Z</time>
      </trkpt>
      <trkpt lat="49.79345" lon="0.67409">
        <ele>106.1</ele>
        <time>2020-06-18T09:32:21Z</time>
      </trkpt>
      <trkpt lat="49.79347" lon="0.67419">
        <ele>106.1</ele>
        <time>2020-06-18T09:32:22Z</time>
      </trkpt>
      <trkpt lat="49.79348" lon="0.6743">
        <ele>106.1</ele>
        <time>2020-06-18T09:32:23Z</time>
      </trkpt>
      <trkpt lat="49.79351" lon="0.6744">
        <ele>106.1</ele>
        <time>2020-06-18T09:32:24Z</time>
      </trkpt>
      <trkpt lat="49.79353" lon="0.6745">
        <ele>106.1</ele>
        <time>2020-06-18T09:32:25Z</time>
      </trkpt>
      <trkpt lat="49.79354" lon="0.6746">
        <ele>106.1</ele>
        <time>2020-06-18T09:32:26Z</time>
      </trkpt>
      <trkpt lat="49.79357" lon="0.6747">
        <ele>106.1</ele>
        <time>2020-06-18T09:32:27Z</time>
      </trkpt>
      <trkpt lat="49.79359" lon="0.6748">
        <ele>106.2</ele>
        <time>2020-06-18T09:32:28Z</time>
      </trkpt>
      <trkpt lat="49.79361" lon="0.6749">
        <ele>106.2</ele>
        <time>2020-06-18T09:32:29Z</time>
      </trkpt>
      <trkpt lat="49.79362" lon="0.675">
        <ele>106.2</ele>
        <time>2020-06-18T09:32:30Z</time>
      </trkpt>
      <trkpt lat="49.79364" lon="0.67511">
        <ele>106.2</ele>
        <time>2020-06-18T09:32:31Z</time>
      </trkpt>
      <trkpt lat="49.79366" lon="0.67521">
        <ele>106.2</ele>
        <time>2020-06-18T09:32:32Z</time>
      </trkpt>
      <trkpt lat="49.79368" lon="0.67531">
        <ele>106.2</ele>
        <time>2020-06-18T09:32:33Z</time>
      </trkpt>
      <trkpt lat="49.7937" lon="0.67542">
        <ele>106.2</ele>
        <time>2020-06-18T09:32:34Z</time>
      </trkpt>
      <trkpt lat="49.79371" lon="0.67553">
        <ele>106.3</ele>
        <time>2020-06-18T09:32:35Z</time>
      </trkpt>
      <trkpt lat="49.79374" lon="0.67563">
        <ele>106.3</ele>
        <time>2020-06-18T09:32:36Z</time>
      </trkpt>
      <trkpt lat="49.79376" lon="0.67574">
        <ele>106.4</ele>
        <time>2020-06-18T09:32:37Z</time>
      </trkpt>
      <trkpt lat="49.79378" lon="0.67584">
        <ele>106.5</ele>
        <time>2020-06-18T09:32:38Z</time>
      </trkpt>
      <trkpt lat="49.7938" lon="0.67595">
        <ele>106.5</ele>
        <time>2020-06-18T09:32:39Z</time>
      </trkpt>
      <trkpt lat="49.79382" lon="0.67605">
        <ele>106.6</ele>
        <time>2020-06-18T09:32:40Z</time>
      </trkpt>
      <trkpt lat="49.79383" lon="0.67616">
        <ele>106.7</ele>
        <time>2020-06-18T09:32:41Z</time>
      </trkpt>
      <trkpt lat="49.79385" lon="0.67626">
        <ele>106.7</ele>
        <time>2020-06-18T09:32:42Z</time>
      </trkpt>
      <trkpt lat="49.79387" lon="0.67637">
        <ele>106.8</ele>
        <time>2020-06-18T09:32:43Z</time>
      </trkpt>
      <trkpt lat="49.79389" lon="0.67647">
        <ele>106.8</ele>
        <time>2020-06-18T09:32:44Z</time>
      </trkpt>
      <trkpt lat="49.7939" lon="0.67657">
        <ele>106.8</ele>
        <time>2020-06-18T09:32:45Z</time>
      </trkpt>
      <trkpt lat="49.79392" lon="0.67668">
        <ele>106.9</ele>
        <time>2020-06-18T09:32:46Z</time>
      </trkpt>
      <trkpt lat="49.79393" lon="0.67678">
        <ele>106.9</ele>
        <time>2020-06-18T09:32:47Z</time>
      </trkpt>
      <trkpt lat="49.79394" lon="0.67689">
        <ele>107</ele>
        <time>2020-06-18T09:32:48Z</time>
      </trkpt>
      <trkpt lat="49.79395" lon="0.67699">
        <ele>107</ele>
        <time>2020-06-18T09:32:49Z</time>
      </trkpt>
      <trkpt lat="49.79396" lon="0.6771">
        <ele>107.1</ele>
        <time>2020-06-18T09:32:50Z</time>
      </trkpt>
      <trkpt lat="49.79397" lon="0.6772">
        <ele>107.1</ele>
        <time>2020-06-18T09:32:51Z</time>
      </trkpt>
      <trkpt lat="49.79398" lon="0.6773">
        <ele>107.2</ele>
        <time>2020-06-18T09:32:52Z</time>
      </trkpt>
      <trkpt lat="49.79399" lon="0.6774">
        <ele>107.2</ele>
        <time>2020-06-18T09:32:53Z</time>
      </trkpt>
      <trkpt lat="49.794" lon="0.6775">
        <ele>107.2</ele>
        <time>2020-06-18T09:32:54Z</time>
      </trkpt>
      <trkpt lat="49.79402" lon="0.67761">
        <ele>107.2</ele>
        <time>2020-06-18T09:32:55Z</time>
      </trkpt>
      <trkpt lat="49.79404" lon="0.67771">
        <ele>107.2</ele>
        <time>2020-06-18T09:32:56Z</time>
      </trkpt>
      <trkpt lat="49.79404" lon="0.67782">
        <ele>107.2</ele>
        <time>2020-06-18T09:32:57Z</time>
      </trkpt>
      <trkpt lat="49.79405" lon="0.67792">
        <ele>107.2</ele>
        <time>2020-06-18T09:32:58Z</time>
      </trkpt>
      <trkpt lat="49.79407" lon="0.67802">
        <ele>107.2</ele>
        <time>2020-06-18T09:32:59Z</time>
      </trkpt>
      <trkpt lat="49.79409" lon="0.67812">
        <ele>107.2</ele>
        <time>2020-06-18T09:33:00Z</time>
      </trkpt>
      <trkpt lat="49.7941" lon="0.67822">
        <ele>107.2</ele>
        <time>2020-06-18T09:33:01Z</time>
      </trkpt>
      <trkpt lat="49.79412" lon="0.67831">
        <ele>107.1</ele>
        <time>2020-06-18T09:33:02Z</time>
      </trkpt>
      <trkpt lat="49.79413" lon="0.67841">
        <ele>107.1</ele>
        <time>2020-06-18T09:33:03Z</time>
      </trkpt>
      <trkpt lat="49.79415" lon="0.6785">
        <ele>107.1</ele>
        <time>2020-06-18T09:33:04Z</time>
      </trkpt>
      <trkpt lat="49.79417" lon="0.67859">
        <ele>107.1</ele>
        <time>2020-06-18T09:33:05Z</time>
      </trkpt>
      <trkpt lat="49.79419" lon="0.67868">
        <ele>107.1</ele>
        <time>2020-06-18T09:33:06Z</time>
      </trkpt>
      <trkpt lat="49.79421" lon="0.67877">
        <ele>107</ele>
        <time>2020-06-18T09:33:07Z</time>
      </trkpt>
      <trkpt lat="49.79423" lon="0.67886">
        <ele>107</ele>
        <time>2020-06-18T09:33:08Z</time>
      </trkpt>
      <trkpt lat="49.79425" lon="0.67895">
        <ele>107</ele>
        <time>2020-06-18T09:33:09Z</time>
      </trkpt>
      <trkpt lat="49.79426" lon="0.67904">
        <ele>107</ele>
        <time>2020-06-18T09:33:10Z</time>
      </trkpt>
      <trkpt lat="49.79428" lon="0.67913">
        <ele>106.9</ele>
        <time>2020-06-18T09:33:11Z</time>
      </trkpt>
      <trkpt lat="49.7943" lon="0.67922">
        <ele>106.9</ele>
        <time>2020-06-18T09:33:12Z</time>
      </trkpt>
      <trkpt lat="49.79432" lon="0.6793">
        <ele>106.9</ele>
        <time>2020-06-18T09:33:13Z</time>
      </trkpt>
      <trkpt lat="49.79433" lon="0.67939">
        <ele>106.9</ele>
        <time>2020-06-18T09:33:14Z</time>
      </trkpt>
      <trkpt lat="49.79435" lon="0.67947">
        <ele>107</ele>
        <time>2020-06-18T09:33:15Z</time>
      </trkpt>
      <trkpt lat="49.79437" lon="0.67955">
        <ele>107</ele>
        <time>2020-06-18T09:33:16Z</time>
      </trkpt>
      <trkpt lat="49.79439" lon="0.67963">
        <ele>107</ele>
        <time>2020-06-18T09:33:17Z</time>
      </trkpt>
      <trkpt lat="49.79441" lon="0.67971">
        <ele>107</ele>
        <time>2020-06-18T09:33:18Z</time>
      </trkpt>
      <trkpt lat="49.79442" lon="0.67979">
        <ele>107.1</ele>
        <time>2020-06-18T09:33:19Z</time>
      </trkpt>
      <trkpt lat="49.79444" lon="0.67987">
        <ele>107.1</ele>
        <time>2020-06-18T09:33:20Z</time>
      </trkpt>
      <trkpt lat="49.79448" lon="0.67994">
        <ele>107.3</ele>
        <time>2020-06-18T09:33:21Z</time>
      </trkpt>
      <trkpt lat="49.79451" lon="0.68001">
        <ele>107.4</ele>
        <time>2020-06-18T09:33:22Z</time>
      </trkpt>
      <trkpt lat="49.79455" lon="0.68007">
        <ele>107.5</ele>
        <time>2020-06-18T09:33:23Z</time>
      </trkpt>
      <trkpt lat="49.7946" lon="0.68013">
        <ele>107.4</ele>
        <time>2020-06-18T09:33:24Z</time>
      </trkpt>
      <trkpt lat="49.79463" lon="0.6802">
        <ele>107.4</ele>
        <time>2020-06-18T09:33:25Z</time>
      </trkpt>
      <trkpt lat="49.79467" lon="0.68027">
        <ele>107.3</ele>
        <time>2020-06-18T09:33:26Z</time>
      </trkpt>
      <trkpt lat="49.79471" lon="0.68034">
        <ele>107.3</ele>
        <time>2020-06-18T09:33:27Z</time>
      </trkpt>
      <trkpt lat="49.79474" lon="0.68041">
        <ele>107.2</ele>
        <time>2020-06-18T09:33:28Z</time>
      </trkpt>
      <trkpt lat="49.79478" lon="0.68048">
        <ele>107.2</ele>
        <time>2020-06-18T09:33:29Z</time>
      </trkpt>
      <trkpt lat="49.79482" lon="0.68056">
        <ele>107.1</ele>
        <time>2020-06-18T09:33:30Z</time>
      </trkpt>
      <trkpt lat="49.79486" lon="0.68062">
        <ele>107.1</ele>
        <time>2020-06-18T09:33:31Z</time>
      </trkpt>
      <trkpt lat="49.7949" lon="0.6807">
        <ele>107</ele>
        <time>2020-06-18T09:33:32Z</time>
      </trkpt>
      <trkpt lat="49.79494" lon="0.68077">
        <ele>107</ele>
        <time>2020-06-18T09:33:33Z</time>
      </trkpt>
      <trkpt lat="49.79498" lon="0.68084">
        <ele>106.9</ele>
        <time>2020-06-18T09:33:34Z</time>
      </trkpt>
      <trkpt lat="49.79502" lon="0.68092">
        <ele>106.8</ele>
        <time>2020-06-18T09:33:35Z</time>
      </trkpt>
      <trkpt lat="49.79506" lon="0.681">
        <ele>106.7</ele>
        <time>2020-06-18T09:33:36Z</time>
      </trkpt>
      <trkpt lat="49.7951" lon="0.68109">
        <ele>106.6</ele>
        <time>2020-06-18T09:33:37Z</time>
      </trkpt>
      <trkpt lat="49.79514" lon="0.68117">
        <ele>106.5</ele>
        <time>2020-06-18T09:33:38Z</time>
      </trkpt>
      <trkpt lat="49.79518" lon="0.68126">
        <ele>106.4</ele>
        <time>2020-06-18T09:33:39Z</time>
      </trkpt>
      <trkpt lat="49.79522" lon="0.68134">
        <ele>106.3</ele>
        <time>2020-06-18T09:33:40Z</time>
      </trkpt>
      <trkpt lat="49.79526" lon="0.68143">
        <ele>106.2</ele>
        <time>2020-06-18T09:33:41Z</time>
      </trkpt>
      <trkpt lat="49.7953" lon="0.68152">
        <ele>106.2</ele>
        <time>2020-06-18T09:33:42Z</time>
      </trkpt>
      <trkpt lat="49.79534" lon="0.68161">
        <ele>106.1</ele>
        <time>2020-06-18T09:33:43Z</time>
      </trkpt>
      <trkpt lat="49.79537" lon="0.6817">
        <ele>106</ele>
        <time>2020-06-18T09:33:44Z</time>
      </trkpt>
      <trkpt lat="49.79541" lon="0.68178">
        <ele>106</ele>
        <time>2020-06-18T09:33:45Z</time>
      </trkpt>
      <trkpt lat="49.79544" lon="0.68187">
        <ele>105.9</ele>
        <time>2020-06-18T09:33:46Z</time>
      </trkpt>
      <trkpt lat="49.79548" lon="0.68195">
        <ele>105.9</ele>
        <time>2020-06-18T09:33:47Z</time>
      </trkpt>
      <trkpt lat="49.79551" lon="0.68204">
        <ele>105.8</ele>
        <time>2020-06-18T09:33:48Z</time>
      </trkpt>
      <trkpt lat="49.79554" lon="0.68213">
        <ele>105.8</ele>
        <time>2020-06-18T09:33:49Z</time>
      </trkpt>
      <trkpt lat="49.79558" lon="0.68221">
        <ele>105.8</ele>
        <time>2020-06-18T09:33:50Z</time>
      </trkpt>
      <trkpt lat="49.79561" lon="0.68229">
        <ele>105.8</ele>
        <time>2020-06-18T09:33:51Z</time>
      </trkpt>
      <trkpt lat="49.79565" lon="0.68238">
        <ele>105.7</ele>
        <time>2020-06-18T09:33:52Z</time>
      </trkpt>
      <trkpt lat="49.79568" lon="0.68246">
        <ele>105.6</ele>
        <time>2020-06-18T09:33:53Z</time>
      </trkpt>
      <trkpt lat="49.79572" lon="0.68254">
        <ele>105.5</ele>
        <time>2020-06-18T09:33:54Z</time>
      </trkpt>
      <trkpt lat="49.79576" lon="0.68263">
        <ele>105.3</ele>
        <time>2020-06-18T09:33:55Z</time>
      </trkpt>
      <trkpt lat="49.7958" lon="0.68271">
        <ele>105.1</ele>
        <time>2020-06-18T09:33:56Z</time>
      </trkpt>
      <trkpt lat="49.79584" lon="0.6828">
        <ele>105</ele>
        <time>2020-06-18T09:33:57Z</time>
      </trkpt>
      <trkpt lat="49.79588" lon="0.68288">
        <ele>104.9</ele>
        <time>2020-06-18T09:33:58Z</time>
      </trkpt>
      <trkpt lat="49.79592" lon="0.68297">
        <ele>104.8</ele>
        <time>2020-06-18T09:33:59Z</time>
      </trkpt>
      <trkpt lat="49.79596" lon="0.68306">
        <ele>104.7</ele>
        <time>2020-06-18T09:34:00Z</time>
      </trkpt>
      <trkpt lat="49.796" lon="0.68315">
        <ele>104.6</ele>
        <time>2020-06-18T09:34:01Z</time>
      </trkpt>
      <trkpt lat="49.79604" lon="0.68323">
        <ele>104.5</ele>
        <time>2020-06-18T09:34:02Z</time>
      </trkpt>
      <trkpt lat="49.79609" lon="0.68331">
        <ele>104.4</ele>
        <time>2020-06-18T09:34:03Z</time>
      </trkpt>
      <trkpt lat="49.79612" lon="0.6834">
        <ele>104.2</ele>
        <time>2020-06-18T09:34:04Z</time>
      </trkpt>
      <trkpt lat="49.79616" lon="0.68349">
        <ele>104.2</ele>
        <time>2020-06-18T09:34:05Z</time>
      </trkpt>
      <trkpt lat="49.7962" lon="0.68357">
        <ele>104.1</ele>
        <time>2020-06-18T09:34:06Z</time>
      </trkpt>
      <trkpt lat="49.79624" lon="0.68365">
        <ele>103.9</ele>
        <time>2020-06-18T09:34:07Z</time>
      </trkpt>
      <trkpt lat="49.79628" lon="0.68373">
        <ele>103.8</ele>
        <time>2020-06-18T09:34:08Z</time>
      </trkpt>
      <trkpt lat="49.79632" lon="0.68381">
        <ele>103.6</ele>
        <time>2020-06-18T09:34:09Z</time>
      </trkpt>
      <trkpt lat="49.79635" lon="0.6839">
        <ele>103.5</ele>
        <time>2020-06-18T09:34:10Z</time>
      </trkpt>
      <trkpt lat="49.79638" lon="0.68399">
        <ele>103.4</ele>
        <time>2020-06-18T09:34:11Z</time>
      </trkpt>
      <trkpt lat="49.79641" lon="0.68408">
        <ele>103.3</ele>
        <time>2020-06-18T09:34:12Z</time>
      </trkpt>
      <trkpt lat="49.79644" lon="0.68416">
        <ele>103.3</ele>
        <time>2020-06-18T09:34:13Z</time>
      </trkpt>
      <trkpt lat="49.79647" lon="0.68425">
        <ele>103.2</ele>
        <time>2020-06-18T09:34:14Z</time>
      </trkpt>
      <trkpt lat="49.79649" lon="0.68434">
        <ele>103.1</ele>
        <time>2020-06-18T09:34:15Z</time>
      </trkpt>
      <trkpt lat="49.79651" lon="0.68444">
        <ele>103.1</ele>
        <time>2020-06-18T09:34:16Z</time>
      </trkpt>
      <trkpt lat="49.79654" lon="0.68453">
        <ele>103</ele>
        <time>2020-06-18T09:34:17Z</time>
      </trkpt>
      <trkpt lat="49.79656" lon="0.68462">
        <ele>103</ele>
        <time>2020-06-18T09:34:18Z</time>
      </trkpt>
      <trkpt lat="49.79658" lon="0.68472">
        <ele>102.9</ele>
        <time>2020-06-18T09:34:19Z</time>
      </trkpt>
      <trkpt lat="49.79659" lon="0.68481">
        <ele>102.9</ele>
        <time>2020-06-18T09:34:20Z</time>
      </trkpt>
      <trkpt lat="49.79661" lon="0.6849">
        <ele>102.8</ele>
        <time>2020-06-18T09:34:21Z</time>
      </trkpt>
      <trkpt lat="49.79663" lon="0.68499">
        <ele>102.7</ele>
        <time>2020-06-18T09:34:22Z</time>
      </trkpt>
      <trkpt lat="49.79665" lon="0.68508">
        <ele>102.7</ele>
        <time>2020-06-18T09:34:23Z</time>
      </trkpt>
      <trkpt lat="49.79667" lon="0.68517">
        <ele>102.6</ele>
        <time>2020-06-18T09:34:24Z</time>
      </trkpt>
      <trkpt lat="49.79669" lon="0.68525">
        <ele>102.6</ele>
        <time>2020-06-18T09:34:25Z</time>
      </trkpt>
      <trkpt lat="49.79671" lon="0.68533">
        <ele>102.7</ele>
        <time>2020-06-18T09:34:26Z</time>
      </trkpt>
      <trkpt lat="49.79674" lon="0.68541">
        <ele>102.8</ele>
        <time>2020-06-18T09:34:27Z</time>
      </trkpt>
      <trkpt lat="49.79676" lon="0.68548">
        <ele>102.9</ele>
        <time>2020-06-18T09:34:28Z</time>
      </trkpt>
      <trkpt lat="49.79678" lon="0.68555">
        <ele>103</ele>
        <time>2020-06-18T09:34:29Z</time>
      </trkpt>
      <trkpt lat="49.79681" lon="0.68563">
        <ele>103.1</ele>
        <time>2020-06-18T09:34:30Z</time>
      </trkpt>
      <trkpt lat="49.79682" lon="0.68571">
        <ele>103.2</ele>
        <time>2020-06-18T09:34:31Z</time>
      </trkpt>
      <trkpt lat="49.79684" lon="0.68579">
        <ele>103.3</ele>
        <time>2020-06-18T09:34:32Z</time>
      </trkpt>
      <trkpt lat="49.79685" lon="0.68586">
        <ele>103.2</ele>
        <time>2020-06-18T09:34:33Z</time>
      </trkpt>
      <trkpt lat="49.79686" lon="0.68593">
        <ele>103.2</ele>
        <time>2020-06-18T09:34:34Z</time>
      </trkpt>
      <trkpt lat="49.79688" lon="0.68599">
        <ele>103.2</ele>
        <time>2020-06-18T09:34:35Z</time>
      </trkpt>
      <trkpt lat="49.79691" lon="0.68604">
        <ele>103.2</ele>
        <time>2020-06-18T09:34:36Z</time>
      </trkpt>
      <trkpt lat="49.79696" lon="0.68608">
        <ele>103.2</ele>
        <time>2020-06-18T09:34:37Z</time>
      </trkpt>
      <trkpt lat="49.79701" lon="0.68613">
        <ele>103.2</ele>
        <time>2020-06-18T09:34:38Z</time>
      </trkpt>
      <trkpt lat="49.79705" lon="0.68619">
        <ele>103.2</ele>
        <time>2020-06-18T09:34:39Z</time>
      </trkpt>
      <trkpt lat="49.7971" lon="0.68625">
        <ele>103.2</ele>
        <time>2020-06-18T09:34:40Z</time>
      </trkpt>
      <trkpt lat="49.79713" lon="0.68633">
        <ele>103.2</ele>
        <time>2020-06-18T09:34:41Z</time>
      </trkpt>
      <trkpt lat="49.79717" lon="0.6864">
        <ele>103.2</ele>
        <time>2020-06-18T09:34:42Z</time>
      </trkpt>
      <trkpt lat="49.79721" lon="0.68646">
        <ele>103.2</ele>
        <time>2020-06-18T09:34:43Z</time>
      </trkpt>
      <trkpt lat="49.79725" lon="0.68654">
        <ele>103.3</ele>
        <time>2020-06-18T09:34:44Z</time>
      </trkpt>
      <trkpt lat="49.79729" lon="0.68661">
        <ele>103.3</ele>
        <time>2020-06-18T09:34:45Z</time>
      </trkpt>
      <trkpt lat="49.79733" lon="0.68668">
        <ele>103.4</ele>
        <time>2020-06-18T09:34:46Z</time>
      </trkpt>
      <trkpt lat="49.79738" lon="0.68674">
        <ele>103.4</ele>
        <time>2020-06-18T09:34:47Z</time>
      </trkpt>
      <trkpt lat="49.79742" lon="0.68681">
        <ele>103.5</ele>
        <time>2020-06-18T09:34:48Z</time>
      </trkpt>
      <trkpt lat="49.79746" lon="0.68687">
        <ele>103.5</ele>
        <time>2020-06-18T09:34:49Z</time>
      </trkpt>
      <trkpt lat="49.79751" lon="0.68693">
        <ele>103.6</ele>
        <time>2020-06-18T09:34:50Z</time>
      </trkpt>
      <trkpt lat="49.79755" lon="0.687">
        <ele>103.6</ele>
        <time>2020-06-18T09:34:51Z</time>
      </trkpt>
      <trkpt lat="49.7976" lon="0.68707">
        <ele>103.6</ele>
        <time>2020-06-18T09:34:52Z</time>
      </trkpt>
      <trkpt lat="49.79765" lon="0.68713">
        <ele>103.7</ele>
        <time>2020-06-18T09:34:53Z</time>
      </trkpt>
      <trkpt lat="49.7977" lon="0.6872">
        <ele>103.7</ele>
        <time>2020-06-18T09:34:54Z</time>
      </trkpt>
      <trkpt lat="49.79774" lon="0.68726">
        <ele>103.7</ele>
        <time>2020-06-18T09:34:55Z</time>
      </trkpt>
      <trkpt lat="49.79779" lon="0.68733">
        <ele>103.8</ele>
        <time>2020-06-18T09:34:56Z</time>
      </trkpt>
      <trkpt lat="49.79783" lon="0.6874">
        <ele>103.8</ele>
        <time>2020-06-18T09:34:57Z</time>
      </trkpt>
      <trkpt lat="49.79788" lon="0.68747">
        <ele>103.9</ele>
        <time>2020-06-18T09:34:58Z</time>
      </trkpt>
      <trkpt lat="49.79793" lon="0.68753">
        <ele>103.9</ele>
        <time>2020-06-18T09:34:59Z</time>
      </trkpt>
      <trkpt lat="49.79798" lon="0.6876">
        <ele>104</ele>
        <time>2020-06-18T09:35:00Z</time>
      </trkpt>
      <trkpt lat="49.79802" lon="0.68766">
        <ele>104</ele>
        <time>2020-06-18T09:35:01Z</time>
      </trkpt>
      <trkpt lat="49.79806" lon="0.68774">
        <ele>104.1</ele>
        <time>2020-06-18T09:35:02Z</time>
      </trkpt>
      <trkpt lat="49.79811" lon="0.68781">
        <ele>104.1</ele>
        <time>2020-06-18T09:35:03Z</time>
      </trkpt>
      <trkpt lat="49.79816" lon="0.68789">
        <ele>104.1</ele>
        <time>2020-06-18T09:35:04Z</time>
      </trkpt>
      <trkpt lat="49.7982" lon="0.68797">
        <ele>104</ele>
        <time>2020-06-18T09:35:05Z</time>
      </trkpt>
      <trkpt lat="49.79825" lon="0.68804">
        <ele>103.9</ele>
        <time>2020-06-18T09:35:06Z</time>
      </trkpt>
      <trkpt lat="49.7983" lon="0.68811">
        <ele>103.9</ele>
        <time>2020-06-18T09:35:07Z</time>
      </trkpt>
      <trkpt lat="49.79835" lon="0.68818">
        <ele>103.8</ele>
        <time>2020-06-18T09:35:08Z</time>
      </trkpt>
      <trkpt lat="49.7984" lon="0.68825">
        <ele>103.8</ele>
        <time>2020-06-18T09:35:09Z</time>
      </trkpt>
      <trkpt lat="49.79844" lon="0.68832">
        <ele>103.9</ele>
        <time>2020-06-18T09:35:10Z</time>
      </trkpt>
      <trkpt lat="49.79848" lon="0.68838">
        <ele>103.9</ele>
        <time>2020-06-18T09:35:11Z</time>
      </trkpt>
      <trkpt lat="49.79852" lon="0.68845">
        <ele>103.9</ele>
        <time>2020-06-18T09:35:12Z</time>
      </trkpt>
      <trkpt lat="49.79856" lon="0.68852">
        <ele>103.9</ele>
        <time>2020-06-18T09:35:13Z</time>
      </trkpt>
      <trkpt lat="49.7986" lon="0.68858">
        <ele>103.9</ele>
        <time>2020-06-18T09:35:14Z</time>
      </trkpt>
      <trkpt lat="49.79864" lon="0.68864">
        <ele>103.9</ele>
        <time>2020-06-18T09:35:15Z</time>
      </trkpt>
      <trkpt lat="49.79868" lon="0.68871">
        <ele>103.9</ele>
        <time>2020-06-18T09:35:16Z</time>
      </trkpt>
      <trkpt lat="49.79871" lon="0.68878">
        <ele>103.9</ele>
        <time>2020-06-18T09:35:17Z</time>
      </trkpt>
      <trkpt lat="49.79875" lon="0.68885">
        <ele>103.9</ele>
        <time>2020-06-18T09:35:18Z</time>
      </trkpt>
      <trkpt lat="49.79878" lon="0.68892">
        <ele>103.9</ele>
        <time>2020-06-18T09:35:19Z</time>
      </trkpt>
      <trkpt lat="49.79882" lon="0.68899">
        <ele>103.9</ele>
        <time>2020-06-18T09:35:20Z</time>
      </trkpt>
      <trkpt lat="49.79886" lon="0.68905">
        <ele>103.9</ele>
        <time>2020-06-18T09:35:21Z</time>
      </trkpt>
      <trkpt lat="49.79889" lon="0.68913">
        <ele>103.9</ele>
        <time>2020-06-18T09:35:22Z</time>
      </trkpt>
      <trkpt lat="49.79893" lon="0.68919">
        <ele>104</ele>
        <time>2020-06-18T09:35:23Z</time>
      </trkpt>
      <trkpt lat="49.79896" lon="0.68927">
        <ele>104</ele>
        <time>2020-06-18T09:35:24Z</time>
      </trkpt>
      <trkpt lat="49.79898" lon="0.68934">
        <ele>104.1</ele>
        <time>2020-06-18T09:35:25Z</time>
      </trkpt>
      <trkpt lat="49.79901" lon="0.6894">
        <ele>104.1</ele>
        <time>2020-06-18T09:35:26Z</time>
      </trkpt>
      <trkpt lat="49.79905" lon="0.68946">
        <ele>104.1</ele>
        <time>2020-06-18T09:35:27Z</time>
      </trkpt>
      <trkpt lat="49.79908" lon="0.68951">
        <ele>104</ele>
        <time>2020-06-18T09:35:28Z</time>
      </trkpt>
      <trkpt lat="49.79911" lon="0.68957">
        <ele>103.9</ele>
        <time>2020-06-18T09:35:29Z</time>
      </trkpt>
      <trkpt lat="49.79914" lon="0.68963">
        <ele>103.9</ele>
        <time>2020-06-18T09:35:30Z</time>
      </trkpt>
      <trkpt lat="49.79917" lon="0.68968">
        <ele>103.9</ele>
        <time>2020-06-18T09:35:31Z</time>
      </trkpt>
      <trkpt lat="49.7992" lon="0.68974">
        <ele>103.8</ele>
        <time>2020-06-18T09:35:32Z</time>
      </trkpt>
      <trkpt lat="49.79923" lon="0.68981">
        <ele>103.8</ele>
        <time>2020-06-18T09:35:33Z</time>
      </trkpt>
      <trkpt lat="49.79927" lon="0.68988">
        <ele>103.8</ele>
        <time>2020-06-18T09:35:34Z</time>
      </trkpt>
      <trkpt lat="49.7993" lon="0.68995">
        <ele>103.8</ele>
        <time>2020-06-18T09:35:35Z</time>
      </trkpt>
      <trkpt lat="49.79933" lon="0.69002">
        <ele>103.8</ele>
        <time>2020-06-18T09:35:36Z</time>
      </trkpt>
      <trkpt lat="49.79936" lon="0.69009">
        <ele>103.8</ele>
        <time>2020-06-18T09:35:37Z</time>
      </trkpt>
      <trkpt lat="49.79939" lon="0.69016">
        <ele>103.8</ele>
        <time>2020-06-18T09:35:38Z</time>
      </trkpt>
      <trkpt lat="49.79942" lon="0.69024">
        <ele>103.8</ele>
        <time>2020-06-18T09:35:39Z</time>
      </trkpt>
      <trkpt lat="49.79946" lon="0.69031">
        <ele>103.8</ele>
        <time>2020-06-18T09:35:40Z</time>
      </trkpt>
      <trkpt lat="49.7995" lon="0.69038">
        <ele>103.8</ele>
        <time>2020-06-18T09:35:41Z</time>
      </trkpt>
      <trkpt lat="49.79953" lon="0.69046">
        <ele>103.8</ele>
        <time>2020-06-18T09:35:42Z</time>
      </trkpt>
      <trkpt lat="49.79954" lon="0.69056">
        <ele>103.8</ele>
        <time>2020-06-18T09:35:43Z</time>
      </trkpt>
      <trkpt lat="49.79957" lon="0.69064">
        <ele>103.8</ele>
        <time>2020-06-18T09:35:44Z</time>
      </trkpt>
      <trkpt lat="49.7996" lon="0.69073">
        <ele>103.8</ele>
        <time>2020-06-18T09:35:45Z</time>
      </trkpt>
      <trkpt lat="49.79962" lon="0.69083">
        <ele>103.8</ele>
        <time>2020-06-18T09:35:46Z</time>
      </trkpt>
      <trkpt lat="49.79965" lon="0.69092">
        <ele>103.8</ele>
        <time>2020-06-18T09:35:47Z</time>
      </trkpt>
      <trkpt lat="49.79969" lon="0.691">
        <ele>103.8</ele>
        <time>2020-06-18T09:35:48Z</time>
      </trkpt>
      <trkpt lat="49.79972" lon="0.69108">
        <ele>103.9</ele>
        <time>2020-06-18T09:35:49Z</time>
      </trkpt>
      <trkpt lat="49.79975" lon="0.69116">
        <ele>103.9</ele>
        <time>2020-06-18T09:35:50Z</time>
      </trkpt>
      <trkpt lat="49.79978" lon="0.69125">
        <ele>104</ele>
        <time>2020-06-18T09:35:51Z</time>
      </trkpt>
      <trkpt lat="49.7998" lon="0.69132">
        <ele>104.1</ele>
        <time>2020-06-18T09:35:52Z</time>
      </trkpt>
      <trkpt lat="49.79983" lon="0.69141">
        <ele>104.1</ele>
        <time>2020-06-18T09:35:53Z</time>
      </trkpt>
      <trkpt lat="49.79986" lon="0.6915">
        <ele>104.2</ele>
        <time>2020-06-18T09:35:54Z</time>
      </trkpt>
      <trkpt lat="49.7999" lon="0.69159">
        <ele>104.2</ele>
        <time>2020-06-18T09:35:55Z</time>
      </trkpt>
      <trkpt lat="49.79994" lon="0.6917">
        <ele>104.3</ele>
        <time>2020-06-18T09:35:56Z</time>
      </trkpt>
      <trkpt lat="49.79998" lon="0.6918">
        <ele>104.3</ele>
        <time>2020-06-18T09:35:57Z</time>
      </trkpt>
      <trkpt lat="49.80001" lon="0.69188">
        <ele>104.3</ele>
        <time>2020-06-18T09:35:58Z</time>
      </trkpt>
      <trkpt lat="49.80004" lon="0.69196">
        <ele>104.3</ele>
        <time>2020-06-18T09:35:59Z</time>
      </trkpt>
      <trkpt lat="49.80007" lon="0.69205">
        <ele>104.3</ele>
        <time>2020-06-18T09:36:00Z</time>
      </trkpt>
      <trkpt lat="49.80011" lon="0.69214">
        <ele>104.2</ele>
        <time>2020-06-18T09:36:01Z</time>
      </trkpt>
      <trkpt lat="49.80012" lon="0.69223">
        <ele>104.2</ele>
        <time>2020-06-18T09:36:02Z</time>
      </trkpt>
      <trkpt lat="49.80016" lon="0.69233">
        <ele>104.1</ele>
        <time>2020-06-18T09:36:03Z</time>
      </trkpt>
      <trkpt lat="49.80018" lon="0.69241">
        <ele>104</ele>
        <time>2020-06-18T09:36:04Z</time>
      </trkpt>
      <trkpt lat="49.80018" lon="0.69246">
        <ele>103.9</ele>
        <time>2020-06-18T09:36:05Z</time>
      </trkpt>
      <trkpt lat="49.8002" lon="0.69254">
        <ele>103.8</ele>
        <time>2020-06-18T09:36:06Z</time>
      </trkpt>
      <trkpt lat="49.80023" lon="0.69263">
        <ele>103.7</ele>
        <time>2020-06-18T09:36:07Z</time>
      </trkpt>
      <trkpt lat="49.80026" lon="0.69271">
        <ele>103.6</ele>
        <time>2020-06-18T09:36:08Z</time>
      </trkpt>
      <trkpt lat="49.80029" lon="0.69281">
        <ele>103.6</ele>
        <time>2020-06-18T09:36:09Z</time>
      </trkpt>
      <trkpt lat="49.80032" lon="0.69289">
        <ele>103.5</ele>
        <time>2020-06-18T09:36:10Z</time>
      </trkpt>
      <trkpt lat="49.80035" lon="0.69297">
        <ele>103.5</ele>
        <time>2020-06-18T09:36:11Z</time>
      </trkpt>
      <trkpt lat="49.80038" lon="0.69305">
        <ele>103.4</ele>
        <time>2020-06-18T09:36:12Z</time>
      </trkpt>
      <trkpt lat="49.8004" lon="0.69315">
        <ele>103.3</ele>
        <time>2020-06-18T09:36:13Z</time>
      </trkpt>
      <trkpt lat="49.80042" lon="0.69324">
        <ele>103.2</ele>
        <time>2020-06-18T09:36:14Z</time>
      </trkpt>
      <trkpt lat="49.80045" lon="0.69333">
        <ele>103.1</ele>
        <time>2020-06-18T09:36:15Z</time>
      </trkpt>
      <trkpt lat="49.80048" lon="0.69342">
        <ele>102.9</ele>
        <time>2020-06-18T09:36:16Z</time>
      </trkpt>
      <trkpt lat="49.80051" lon="0.69351">
        <ele>102.8</ele>
        <time>2020-06-18T09:36:17Z</time>
      </trkpt>
      <trkpt lat="49.80054" lon="0.6936">
        <ele>102.6</ele>
        <time>2020-06-18T09:36:18Z</time>
      </trkpt>
      <trkpt lat="49.80056" lon="0.6937">
        <ele>102.5</ele>
        <time>2020-06-18T09:36:19Z</time>
      </trkpt>
      <trkpt lat="49.80059" lon="0.69381">
        <ele>102.3</ele>
        <time>2020-06-18T09:36:20Z</time>
      </trkpt>
      <trkpt lat="49.80062" lon="0.69392">
        <ele>102.1</ele>
        <time>2020-06-18T09:36:21Z</time>
      </trkpt>
      <trkpt lat="49.80065" lon="0.69403">
        <ele>101.9</ele>
        <time>2020-06-18T09:36:22Z</time>
      </trkpt>
      <trkpt lat="49.80069" lon="0.69413">
        <ele>101.8</ele>
        <time>2020-06-18T09:36:23Z</time>
      </trkpt>
      <trkpt lat="49.80074" lon="0.69422">
        <ele>101.6</ele>
        <time>2020-06-18T09:36:24Z</time>
      </trkpt>
      <trkpt lat="49.80078" lon="0.69431">
        <ele>101.4</ele>
        <time>2020-06-18T09:36:25Z</time>
      </trkpt>
      <trkpt lat="49.80081" lon="0.69441">
        <ele>101.3</ele>
        <time>2020-06-18T09:36:26Z</time>
      </trkpt>
      <trkpt lat="49.80085" lon="0.69451">
        <ele>101.1</ele>
        <time>2020-06-18T09:36:27Z</time>
      </trkpt>
      <trkpt lat="49.80088" lon="0.6946">
        <ele>101</ele>
        <time>2020-06-18T09:36:28Z</time>
      </trkpt>
      <trkpt lat="49.80092" lon="0.6947">
        <ele>100.9</ele>
        <time>2020-06-18T09:36:29Z</time>
      </trkpt>
      <trkpt lat="49.80096" lon="0.69479">
        <ele>100.7</ele>
        <time>2020-06-18T09:36:30Z</time>
      </trkpt>
      <trkpt lat="49.80099" lon="0.69489">
        <ele>100.6</ele>
        <time>2020-06-18T09:36:31Z</time>
      </trkpt>
      <trkpt lat="49.80102" lon="0.69499">
        <ele>100.6</ele>
        <time>2020-06-18T09:36:32Z</time>
      </trkpt>
      <trkpt lat="49.80105" lon="0.6951">
        <ele>100.5</ele>
        <time>2020-06-18T09:36:33Z</time>
      </trkpt>
      <trkpt lat="49.80108" lon="0.6952">
        <ele>100.4</ele>
        <time>2020-06-18T09:36:34Z</time>
      </trkpt>
      <trkpt lat="49.8011" lon="0.6953">
        <ele>100.3</ele>
        <time>2020-06-18T09:36:35Z</time>
      </trkpt>
      <trkpt lat="49.80113" lon="0.69541">
        <ele>100.2</ele>
        <time>2020-06-18T09:36:36Z</time>
      </trkpt>
      <trkpt lat="49.80115" lon="0.69551">
        <ele>100.1</ele>
        <time>2020-06-18T09:36:37Z</time>
      </trkpt>
      <trkpt lat="49.80117" lon="0.69562">
        <ele>100</ele>
        <time>2020-06-18T09:36:38Z</time>
      </trkpt>
      <trkpt lat="49.80119" lon="0.69572">
        <ele>100</ele>
        <time>2020-06-18T09:36:39Z</time>
      </trkpt>
      <trkpt lat="49.80121" lon="0.69583">
        <ele>99.9</ele>
        <time>2020-06-18T09:36:40Z</time>
      </trkpt>
      <trkpt lat="49.80122" lon="0.69593">
        <ele>99.8</ele>
        <time>2020-06-18T09:36:41Z</time>
      </trkpt>
      <trkpt lat="49.80124" lon="0.69604">
        <ele>99.8</ele>
        <time>2020-06-18T09:36:42Z</time>
      </trkpt>
      <trkpt lat="49.80126" lon="0.69614">
        <ele>99.7</ele>
        <time>2020-06-18T09:36:43Z</time>
      </trkpt>
      <trkpt lat="49.80127" lon="0.69625">
        <ele>99.6</ele>
        <time>2020-06-18T09:36:44Z</time>
      </trkpt>
      <trkpt lat="49.80129" lon="0.69635">
        <ele>99.6</ele>
        <time>2020-06-18T09:36:45Z</time>
      </trkpt>
      <trkpt lat="49.8013" lon="0.69645">
        <ele>99.5</ele>
        <time>2020-06-18T09:36:46Z</time>
      </trkpt>
      <trkpt lat="49.80132" lon="0.69656">
        <ele>99.5</ele>
        <time>2020-06-18T09:36:47Z</time>
      </trkpt>
      <trkpt lat="49.80133" lon="0.69665">
        <ele>99.5</ele>
        <time>2020-06-18T09:36:48Z</time>
      </trkpt>
      <trkpt lat="49.80135" lon="0.69675">
        <ele>99.4</ele>
        <time>2020-06-18T09:36:49Z</time>
      </trkpt>
      <trkpt lat="49.80136" lon="0.69685">
        <ele>99.4</ele>
        <time>2020-06-18T09:36:50Z</time>
      </trkpt>
      <trkpt lat="49.80138" lon="0.69694">
        <ele>99.4</ele>
        <time>2020-06-18T09:36:51Z</time>
      </trkpt>
      <trkpt lat="49.80139" lon="0.69702">
        <ele>99.3</ele>
        <time>2020-06-18T09:36:52Z</time>
      </trkpt>
      <trkpt lat="49.80141" lon="0.69709">
        <ele>99.2</ele>
        <time>2020-06-18T09:36:53Z</time>
      </trkpt>
      <trkpt lat="49.80143" lon="0.69716">
        <ele>99.2</ele>
        <time>2020-06-18T09:36:54Z</time>
      </trkpt>
      <trkpt lat="49.80144" lon="0.69724">
        <ele>99.1</ele>
        <time>2020-06-18T09:36:55Z</time>
      </trkpt>
      <trkpt lat="49.80145" lon="0.69732">
        <ele>99.1</ele>
        <time>2020-06-18T09:36:56Z</time>
      </trkpt>
      <trkpt lat="49.80145" lon="0.6974">
        <ele>99</ele>
        <time>2020-06-18T09:36:57Z</time>
      </trkpt>
      <trkpt lat="49.80147" lon="0.69749">
        <ele>99</ele>
        <time>2020-06-18T09:36:58Z</time>
      </trkpt>
      <trkpt lat="49.80149" lon="0.69758">
        <ele>98.6</ele>
        <time>2020-06-18T09:36:59Z</time>
      </trkpt>
      <trkpt lat="49.80152" lon="0.69767">
        <ele>98.3</ele>
        <time>2020-06-18T09:37:00Z</time>
      </trkpt>
      <trkpt lat="49.80154" lon="0.69776">
        <ele>98.1</ele>
        <time>2020-06-18T09:37:01Z</time>
      </trkpt>
      <trkpt lat="49.80157" lon="0.69786">
        <ele>97.9</ele>
        <time>2020-06-18T09:37:02Z</time>
      </trkpt>
      <trkpt lat="49.80158" lon="0.69797">
        <ele>97.7</ele>
        <time>2020-06-18T09:37:03Z</time>
      </trkpt>
      <trkpt lat="49.8016" lon="0.69808">
        <ele>97.6</ele>
        <time>2020-06-18T09:37:04Z</time>
      </trkpt>
      <trkpt lat="49.80161" lon="0.6982">
        <ele>97.5</ele>
        <time>2020-06-18T09:37:05Z</time>
      </trkpt>
      <trkpt lat="49.80163" lon="0.69831">
        <ele>97.4</ele>
        <time>2020-06-18T09:37:06Z</time>
      </trkpt>
      <trkpt lat="49.80164" lon="0.69841">
        <ele>97.3</ele>
        <time>2020-06-18T09:37:07Z</time>
      </trkpt>
      <trkpt lat="49.80166" lon="0.69853">
        <ele>97.2</ele>
        <time>2020-06-18T09:37:08Z</time>
      </trkpt>
      <trkpt lat="49.80167" lon="0.69863">
        <ele>97.1</ele>
        <time>2020-06-18T09:37:09Z</time>
      </trkpt>
      <trkpt lat="49.80168" lon="0.69874">
        <ele>97</ele>
        <time>2020-06-18T09:37:10Z</time>
      </trkpt>
      <trkpt lat="49.80169" lon="0.69884">
        <ele>96.9</ele>
        <time>2020-06-18T09:37:11Z</time>
      </trkpt>
      <trkpt lat="49.8017" lon="0.69895">
        <ele>96.8</ele>
        <time>2020-06-18T09:37:12Z</time>
      </trkpt>
      <trkpt lat="49.80171" lon="0.69905">
        <ele>96.7</ele>
        <time>2020-06-18T09:37:13Z</time>
      </trkpt>
      <trkpt lat="49.80171" lon="0.69916">
        <ele>96.7</ele>
        <time>2020-06-18T09:37:14Z</time>
      </trkpt>
      <trkpt lat="49.80171" lon="0.69927">
        <ele>96.6</ele>
        <time>2020-06-18T09:37:15Z</time>
      </trkpt>
      <trkpt lat="49.80171" lon="0.69937">
        <ele>96.5</ele>
        <time>2020-06-18T09:37:16Z</time>
      </trkpt>
      <trkpt lat="49.80172" lon="0.69948">
        <ele>96.5</ele>
        <time>2020-06-18T09:37:17Z</time>
      </trkpt>
      <trkpt lat="49.80172" lon="0.69959">
        <ele>96.4</ele>
        <time>2020-06-18T09:37:18Z</time>
      </trkpt>
      <trkpt lat="49.80173" lon="0.6997">
        <ele>96.3</ele>
        <time>2020-06-18T09:37:19Z</time>
      </trkpt>
      <trkpt lat="49.80173" lon="0.69981">
        <ele>96.2</ele>
        <time>2020-06-18T09:37:20Z</time>
      </trkpt>
      <trkpt lat="49.80174" lon="0.69992">
        <ele>96.2</ele>
        <time>2020-06-18T09:37:21Z</time>
      </trkpt>
      <trkpt lat="49.80175" lon="0.70003">
        <ele>96.2</ele>
        <time>2020-06-18T09:37:22Z</time>
      </trkpt>
      <trkpt lat="49.80176" lon="0.70014">
        <ele>96.1</ele>
        <time>2020-06-18T09:37:23Z</time>
      </trkpt>
      <trkpt lat="49.80176" lon="0.70025">
        <ele>96</ele>
        <time>2020-06-18T09:37:24Z</time>
      </trkpt>
      <trkpt lat="49.80177" lon="0.70036">
        <ele>96</ele>
        <time>2020-06-18T09:37:25Z</time>
      </trkpt>
      <trkpt lat="49.80178" lon="0.70048">
        <ele>96</ele>
        <time>2020-06-18T09:37:26Z</time>
      </trkpt>
      <trkpt lat="49.80179" lon="0.70059">
        <ele>96</ele>
        <time>2020-06-18T09:37:27Z</time>
      </trkpt>
      <trkpt lat="49.80179" lon="0.7007">
        <ele>96</ele>
        <time>2020-06-18T09:37:28Z</time>
      </trkpt>
      <trkpt lat="49.8018" lon="0.70081">
        <ele>95.9</ele>
        <time>2020-06-18T09:37:29Z</time>
      </trkpt>
      <trkpt lat="49.80181" lon="0.70092">
        <ele>95.8</ele>
        <time>2020-06-18T09:37:30Z</time>
      </trkpt>
      <trkpt lat="49.80182" lon="0.70104">
        <ele>95.8</ele>
        <time>2020-06-18T09:37:31Z</time>
      </trkpt>
      <trkpt lat="49.80182" lon="0.70115">
        <ele>95.7</ele>
        <time>2020-06-18T09:37:32Z</time>
      </trkpt>
      <trkpt lat="49.80182" lon="0.70126">
        <ele>95.7</ele>
        <time>2020-06-18T09:37:33Z</time>
      </trkpt>
      <trkpt lat="49.80182" lon="0.70138">
        <ele>95.7</ele>
        <time>2020-06-18T09:37:34Z</time>
      </trkpt>
      <trkpt lat="49.80183" lon="0.70149">
        <ele>95.7</ele>
        <time>2020-06-18T09:37:35Z</time>
      </trkpt>
      <trkpt lat="49.80184" lon="0.7016">
        <ele>95.8</ele>
        <time>2020-06-18T09:37:36Z</time>
      </trkpt>
      <trkpt lat="49.80184" lon="0.70171">
        <ele>95.9</ele>
        <time>2020-06-18T09:37:37Z</time>
      </trkpt>
      <trkpt lat="49.80185" lon="0.70182">
        <ele>96</ele>
        <time>2020-06-18T09:37:38Z</time>
      </trkpt>
      <trkpt lat="49.80185" lon="0.70193">
        <ele>96</ele>
        <time>2020-06-18T09:37:39Z</time>
      </trkpt>
      <trkpt lat="49.80186" lon="0.70204">
        <ele>96.1</ele>
        <time>2020-06-18T09:37:40Z</time>
      </trkpt>
      <trkpt lat="49.80186" lon="0.70215">
        <ele>96.2</ele>
        <time>2020-06-18T09:37:41Z</time>
      </trkpt>
      <trkpt lat="49.80186" lon="0.70225">
        <ele>96.2</ele>
        <time>2020-06-18T09:37:42Z</time>
      </trkpt>
      <trkpt lat="49.80187" lon="0.70236">
        <ele>96.3</ele>
        <time>2020-06-18T09:37:43Z</time>
      </trkpt>
      <trkpt lat="49.80187" lon="0.70246">
        <ele>96.3</ele>
        <time>2020-06-18T09:37:44Z</time>
      </trkpt>
      <trkpt lat="49.80188" lon="0.70256">
        <ele>96.4</ele>
        <time>2020-06-18T09:37:45Z</time>
      </trkpt>
      <trkpt lat="49.80189" lon="0.70267">
        <ele>96.5</ele>
        <time>2020-06-18T09:37:46Z</time>
      </trkpt>
      <trkpt lat="49.80189" lon="0.70277">
        <ele>96.5</ele>
        <time>2020-06-18T09:37:47Z</time>
      </trkpt>
      <trkpt lat="49.8019" lon="0.70287">
        <ele>96.5</ele>
        <time>2020-06-18T09:37:48Z</time>
      </trkpt>
      <trkpt lat="49.80189" lon="0.70298">
        <ele>96.6</ele>
        <time>2020-06-18T09:37:49Z</time>
      </trkpt>
      <trkpt lat="49.80189" lon="0.70308">
        <ele>96.6</ele>
        <time>2020-06-18T09:37:50Z</time>
      </trkpt>
      <trkpt lat="49.8019" lon="0.70318">
        <ele>96.7</ele>
        <time>2020-06-18T09:37:51Z</time>
      </trkpt>
      <trkpt lat="49.8019" lon="0.70328">
        <ele>96.8</ele>
        <time>2020-06-18T09:37:52Z</time>
      </trkpt>
      <trkpt lat="49.80191" lon="0.70338">
        <ele>96.8</ele>
        <time>2020-06-18T09:37:53Z</time>
      </trkpt>
      <trkpt lat="49.8019" lon="0.70348">
        <ele>96.9</ele>
        <time>2020-06-18T09:37:54Z</time>
      </trkpt>
      <trkpt lat="49.8019" lon="0.70358">
        <ele>97</ele>
        <time>2020-06-18T09:37:55Z</time>
      </trkpt>
      <trkpt lat="49.80191" lon="0.70368">
        <ele>97</ele>
        <time>2020-06-18T09:37:56Z</time>
      </trkpt>
      <trkpt lat="49.80191" lon="0.70378">
        <ele>97.1</ele>
        <time>2020-06-18T09:37:57Z</time>
      </trkpt>
      <trkpt lat="49.8019" lon="0.70387">
        <ele>97.1</ele>
        <time>2020-06-18T09:37:58Z</time>
      </trkpt>
      <trkpt lat="49.8019" lon="0.70397">
        <ele>97.2</ele>
        <time>2020-06-18T09:37:59Z</time>
      </trkpt>
      <trkpt lat="49.8019" lon="0.70406">
        <ele>97.2</ele>
        <time>2020-06-18T09:38:00Z</time>
      </trkpt>
      <trkpt lat="49.80189" lon="0.70416">
        <ele>97.3</ele>
        <time>2020-06-18T09:38:01Z</time>
      </trkpt>
      <trkpt lat="49.80189" lon="0.70425">
        <ele>97.3</ele>
        <time>2020-06-18T09:38:02Z</time>
      </trkpt>
      <trkpt lat="49.80189" lon="0.70435">
        <ele>97.4</ele>
        <time>2020-06-18T09:38:03Z</time>
      </trkpt>
      <trkpt lat="49.8019" lon="0.70445">
        <ele>97.4</ele>
        <time>2020-06-18T09:38:04Z</time>
      </trkpt>
      <trkpt lat="49.8019" lon="0.70454">
        <ele>97.5</ele>
        <time>2020-06-18T09:38:05Z</time>
      </trkpt>
      <trkpt lat="49.8019" lon="0.70463">
        <ele>97.6</ele>
        <time>2020-06-18T09:38:06Z</time>
      </trkpt>
      <trkpt lat="49.8019" lon="0.70473">
        <ele>97.6</ele>
        <time>2020-06-18T09:38:07Z</time>
      </trkpt>
      <trkpt lat="49.80191" lon="0.70483">
        <ele>97.7</ele>
        <time>2020-06-18T09:38:08Z</time>
      </trkpt>
      <trkpt lat="49.80191" lon="0.70492">
        <ele>97.7</ele>
        <time>2020-06-18T09:38:09Z</time>
      </trkpt>
      <trkpt lat="49.80191" lon="0.70503">
        <ele>97.7</ele>
        <time>2020-06-18T09:38:10Z</time>
      </trkpt>
      <trkpt lat="49.80191" lon="0.70512">
        <ele>97.8</ele>
        <time>2020-06-18T09:38:11Z</time>
      </trkpt>
      <trkpt lat="49.80191" lon="0.70522">
        <ele>97.8</ele>
        <time>2020-06-18T09:38:12Z</time>
      </trkpt>
      <trkpt lat="49.80192" lon="0.70531">
        <ele>97.8</ele>
        <time>2020-06-18T09:38:13Z</time>
      </trkpt>
      <trkpt lat="49.80192" lon="0.7054">
        <ele>97.9</ele>
        <time>2020-06-18T09:38:14Z</time>
      </trkpt>
      <trkpt lat="49.80192" lon="0.7055">
        <ele>97.9</ele>
        <time>2020-06-18T09:38:15Z</time>
      </trkpt>
      <trkpt lat="49.80192" lon="0.70559">
        <ele>98</ele>
        <time>2020-06-18T09:38:16Z</time>
      </trkpt>
      <trkpt lat="49.80192" lon="0.70569">
        <ele>98</ele>
        <time>2020-06-18T09:38:17Z</time>
      </trkpt>
      <trkpt lat="49.80192" lon="0.70579">
        <ele>98</ele>
        <time>2020-06-18T09:38:18Z</time>
      </trkpt>
      <trkpt lat="49.80192" lon="0.70588">
        <ele>98</ele>
        <time>2020-06-18T09:38:19Z</time>
      </trkpt>
      <trkpt lat="49.80193" lon="0.70598">
        <ele>98</ele>
        <time>2020-06-18T09:38:20Z</time>
      </trkpt>
      <trkpt lat="49.80193" lon="0.70608">
        <ele>97.8</ele>
        <time>2020-06-18T09:38:21Z</time>
      </trkpt>
      <trkpt lat="49.80193" lon="0.70617">
        <ele>97.8</ele>
        <time>2020-06-18T09:38:22Z</time>
      </trkpt>
      <trkpt lat="49.80192" lon="0.70627">
        <ele>97.7</ele>
        <time>2020-06-18T09:38:23Z</time>
      </trkpt>
      <trkpt lat="49.80191" lon="0.70637">
        <ele>97.7</ele>
        <time>2020-06-18T09:38:24Z</time>
      </trkpt>
      <trkpt lat="49.8019" lon="0.70648">
        <ele>97.7</ele>
        <time>2020-06-18T09:38:25Z</time>
      </trkpt>
      <trkpt lat="49.80189" lon="0.70658">
        <ele>97.7</ele>
        <time>2020-06-18T09:38:26Z</time>
      </trkpt>
      <trkpt lat="49.80187" lon="0.70668">
        <ele>97.7</ele>
        <time>2020-06-18T09:38:27Z</time>
      </trkpt>
      <trkpt lat="49.80186" lon="0.70677">
        <ele>97.6</ele>
        <time>2020-06-18T09:38:28Z</time>
      </trkpt>
      <trkpt lat="49.80184" lon="0.70687">
        <ele>97.6</ele>
        <time>2020-06-18T09:38:29Z</time>
      </trkpt>
      <trkpt lat="49.80182" lon="0.70697">
        <ele>97.6</ele>
        <time>2020-06-18T09:38:30Z</time>
      </trkpt>
      <trkpt lat="49.80181" lon="0.70706">
        <ele>97.6</ele>
        <time>2020-06-18T09:38:31Z</time>
      </trkpt>
      <trkpt lat="49.8018" lon="0.70716">
        <ele>97.5</ele>
        <time>2020-06-18T09:38:32Z</time>
      </trkpt>
      <trkpt lat="49.80178" lon="0.70726">
        <ele>97.5</ele>
        <time>2020-06-18T09:38:33Z</time>
      </trkpt>
      <trkpt lat="49.80177" lon="0.70736">
        <ele>97.5</ele>
        <time>2020-06-18T09:38:34Z</time>
      </trkpt>
      <trkpt lat="49.80175" lon="0.70746">
        <ele>97.5</ele>
        <time>2020-06-18T09:38:35Z</time>
      </trkpt>
      <trkpt lat="49.80173" lon="0.70756">
        <ele>97.5</ele>
        <time>2020-06-18T09:38:36Z</time>
      </trkpt>
      <trkpt lat="49.80172" lon="0.70766">
        <ele>97.4</ele>
        <time>2020-06-18T09:38:37Z</time>
      </trkpt>
      <trkpt lat="49.8017" lon="0.70776">
        <ele>97.4</ele>
        <time>2020-06-18T09:38:38Z</time>
      </trkpt>
      <trkpt lat="49.80169" lon="0.70786">
        <ele>97.3</ele>
        <time>2020-06-18T09:38:39Z</time>
      </trkpt>
      <trkpt lat="49.80167" lon="0.70796">
        <ele>97.2</ele>
        <time>2020-06-18T09:38:40Z</time>
      </trkpt>
      <trkpt lat="49.80165" lon="0.70805">
        <ele>97.2</ele>
        <time>2020-06-18T09:38:41Z</time>
      </trkpt>
      <trkpt lat="49.80163" lon="0.70815">
        <ele>97.2</ele>
        <time>2020-06-18T09:38:42Z</time>
      </trkpt>
      <trkpt lat="49.80161" lon="0.70825">
        <ele>97.2</ele>
        <time>2020-06-18T09:38:43Z</time>
      </trkpt>
      <trkpt lat="49.8016" lon="0.70834">
        <ele>97.1</ele>
        <time>2020-06-18T09:38:44Z</time>
      </trkpt>
      <trkpt lat="49.80159" lon="0.70844">
        <ele>97.1</ele>
        <time>2020-06-18T09:38:45Z</time>
      </trkpt>
      <trkpt lat="49.80157" lon="0.70853">
        <ele>97.1</ele>
        <time>2020-06-18T09:38:46Z</time>
      </trkpt>
      <trkpt lat="49.80156" lon="0.70863">
        <ele>97</ele>
        <time>2020-06-18T09:38:47Z</time>
      </trkpt>
      <trkpt lat="49.80154" lon="0.70872">
        <ele>97.1</ele>
        <time>2020-06-18T09:38:48Z</time>
      </trkpt>
      <trkpt lat="49.80152" lon="0.7088">
        <ele>97.1</ele>
        <time>2020-06-18T09:38:49Z</time>
      </trkpt>
      <trkpt lat="49.8015" lon="0.70888">
        <ele>97.1</ele>
        <time>2020-06-18T09:38:50Z</time>
      </trkpt>
      <trkpt lat="49.80147" lon="0.70896">
        <ele>96.9</ele>
        <time>2020-06-18T09:38:51Z</time>
      </trkpt>
      <trkpt lat="49.80146" lon="0.70904">
        <ele>96.8</ele>
        <time>2020-06-18T09:38:52Z</time>
      </trkpt>
      <trkpt lat="49.80145" lon="0.70914">
        <ele>96.7</ele>
        <time>2020-06-18T09:38:53Z</time>
      </trkpt>
      <trkpt lat="49.80144" lon="0.70923">
        <ele>96.5</ele>
        <time>2020-06-18T09:38:54Z</time>
      </trkpt>
      <trkpt lat="49.80142" lon="0.70932">
        <ele>96.4</ele>
        <time>2020-06-18T09:38:55Z</time>
      </trkpt>
      <trkpt lat="49.80141" lon="0.70941">
        <ele>96.3</ele>
        <time>2020-06-18T09:38:56Z</time>
      </trkpt>
      <trkpt lat="49.8014" lon="0.70949">
        <ele>96.2</ele>
        <time>2020-06-18T09:38:57Z</time>
      </trkpt>
      <trkpt lat="49.80138" lon="0.70959">
        <ele>96.1</ele>
        <time>2020-06-18T09:38:58Z</time>
      </trkpt>
      <trkpt lat="49.80137" lon="0.70968">
        <ele>96</ele>
        <time>2020-06-18T09:38:59Z</time>
      </trkpt>
      <trkpt lat="49.80136" lon="0.70978">
        <ele>95.9</ele>
        <time>2020-06-18T09:39:00Z</time>
      </trkpt>
      <trkpt lat="49.80135" lon="0.70988">
        <ele>95.8</ele>
        <time>2020-06-18T09:39:01Z</time>
      </trkpt>
      <trkpt lat="49.80133" lon="0.70998">
        <ele>95.8</ele>
        <time>2020-06-18T09:39:02Z</time>
      </trkpt>
      <trkpt lat="49.80131" lon="0.71008">
        <ele>95.7</ele>
        <time>2020-06-18T09:39:03Z</time>
      </trkpt>
      <trkpt lat="49.80128" lon="0.71018">
        <ele>95.7</ele>
        <time>2020-06-18T09:39:04Z</time>
      </trkpt>
      <trkpt lat="49.80126" lon="0.71028">
        <ele>95.7</ele>
        <time>2020-06-18T09:39:05Z</time>
      </trkpt>
      <trkpt lat="49.80125" lon="0.71038">
        <ele>95.7</ele>
        <time>2020-06-18T09:39:06Z</time>
      </trkpt>
      <trkpt lat="49.80124" lon="0.71049">
        <ele>95.7</ele>
        <time>2020-06-18T09:39:07Z</time>
      </trkpt>
      <trkpt lat="49.80122" lon="0.71058">
        <ele>95.8</ele>
        <time>2020-06-18T09:39:08Z</time>
      </trkpt>
      <trkpt lat="49.8012" lon="0.71069">
        <ele>95.8</ele>
        <time>2020-06-18T09:39:09Z</time>
      </trkpt>
      <trkpt lat="49.80118" lon="0.7108">
        <ele>95.9</ele>
        <time>2020-06-18T09:39:10Z</time>
      </trkpt>
      <trkpt lat="49.80117" lon="0.7109">
        <ele>95.9</ele>
        <time>2020-06-18T09:39:11Z</time>
      </trkpt>
      <trkpt lat="49.80115" lon="0.71101">
        <ele>95.9</ele>
        <time>2020-06-18T09:39:12Z</time>
      </trkpt>
      <trkpt lat="49.80114" lon="0.71111">
        <ele>95.9</ele>
        <time>2020-06-18T09:39:13Z</time>
      </trkpt>
      <trkpt lat="49.80112" lon="0.71122">
        <ele>96</ele>
        <time>2020-06-18T09:39:14Z</time>
      </trkpt>
      <trkpt lat="49.80111" lon="0.71133">
        <ele>96</ele>
        <time>2020-06-18T09:39:15Z</time>
      </trkpt>
      <trkpt lat="49.80109" lon="0.71144">
        <ele>96.1</ele>
        <time>2020-06-18T09:39:16Z</time>
      </trkpt>
      <trkpt lat="49.80106" lon="0.71155">
        <ele>96.2</ele>
        <time>2020-06-18T09:39:17Z</time>
      </trkpt>
      <trkpt lat="49.80104" lon="0.71167">
        <ele>96.3</ele>
        <time>2020-06-18T09:39:18Z</time>
      </trkpt>
      <trkpt lat="49.80102" lon="0.71178">
        <ele>96.4</ele>
        <time>2020-06-18T09:39:19Z</time>
      </trkpt>
      <trkpt lat="49.80101" lon="0.71189">
        <ele>96.5</ele>
        <time>2020-06-18T09:39:20Z</time>
      </trkpt>
      <trkpt lat="49.801" lon="0.712">
        <ele>96.5</ele>
        <time>2020-06-18T09:39:21Z</time>
      </trkpt>
      <trkpt lat="49.80098" lon="0.71211">
        <ele>96.6</ele>
        <time>2020-06-18T09:39:22Z</time>
      </trkpt>
      <trkpt lat="49.80097" lon="0.71222">
        <ele>96.6</ele>
        <time>2020-06-18T09:39:23Z</time>
      </trkpt>
      <trkpt lat="49.80095" lon="0.71233">
        <ele>96.6</ele>
        <time>2020-06-18T09:39:24Z</time>
      </trkpt>
      <trkpt lat="49.80093" lon="0.71244">
        <ele>96.6</ele>
        <time>2020-06-18T09:39:25Z</time>
      </trkpt>
      <trkpt lat="49.80091" lon="0.71254">
        <ele>96.7</ele>
        <time>2020-06-18T09:39:26Z</time>
      </trkpt>
      <trkpt lat="49.80089" lon="0.71265">
        <ele>96.7</ele>
        <time>2020-06-18T09:39:27Z</time>
      </trkpt>
      <trkpt lat="49.80087" lon="0.71276">
        <ele>96.8</ele>
        <time>2020-06-18T09:39:28Z</time>
      </trkpt>
      <trkpt lat="49.80085" lon="0.71287">
        <ele>96.9</ele>
        <time>2020-06-18T09:39:29Z</time>
      </trkpt>
      <trkpt lat="49.80084" lon="0.71297">
        <ele>96.9</ele>
        <time>2020-06-18T09:39:30Z</time>
      </trkpt>
      <trkpt lat="49.80082" lon="0.71308">
        <ele>97</ele>
        <time>2020-06-18T09:39:31Z</time>
      </trkpt>
      <trkpt lat="49.80081" lon="0.71318">
        <ele>97</ele>
        <time>2020-06-18T09:39:32Z</time>
      </trkpt>
      <trkpt lat="49.80079" lon="0.71328">
        <ele>97</ele>
        <time>2020-06-18T09:39:33Z</time>
      </trkpt>
      <trkpt lat="49.80078" lon="0.71338">
        <ele>97</ele>
        <time>2020-06-18T09:39:34Z</time>
      </trkpt>
      <trkpt lat="49.80077" lon="0.71348">
        <ele>97</ele>
        <time>2020-06-18T09:39:35Z</time>
      </trkpt>
      <trkpt lat="49.80076" lon="0.71359">
        <ele>97</ele>
        <time>2020-06-18T09:39:36Z</time>
      </trkpt>
      <trkpt lat="49.80076" lon="0.71369">
        <ele>97</ele>
        <time>2020-06-18T09:39:37Z</time>
      </trkpt>
      <trkpt lat="49.80075" lon="0.71379">
        <ele>97</ele>
        <time>2020-06-18T09:39:38Z</time>
      </trkpt>
      <trkpt lat="49.80075" lon="0.71388">
        <ele>97</ele>
        <time>2020-06-18T09:39:39Z</time>
      </trkpt>
      <trkpt lat="49.80076" lon="0.71399">
        <ele>96.9</ele>
        <time>2020-06-18T09:39:40Z</time>
      </trkpt>
      <trkpt lat="49.80076" lon="0.71409">
        <ele>96.9</ele>
        <time>2020-06-18T09:39:41Z</time>
      </trkpt>
      <trkpt lat="49.80076" lon="0.71419">
        <ele>96.8</ele>
        <time>2020-06-18T09:39:42Z</time>
      </trkpt>
      <trkpt lat="49.80076" lon="0.7143">
        <ele>96.7</ele>
        <time>2020-06-18T09:39:43Z</time>
      </trkpt>
      <trkpt lat="49.80077" lon="0.7144">
        <ele>96.6</ele>
        <time>2020-06-18T09:39:44Z</time>
      </trkpt>
      <trkpt lat="49.80077" lon="0.7145">
        <ele>96.5</ele>
        <time>2020-06-18T09:39:45Z</time>
      </trkpt>
      <trkpt lat="49.80078" lon="0.71461">
        <ele>96.5</ele>
        <time>2020-06-18T09:39:46Z</time>
      </trkpt>
      <trkpt lat="49.80079" lon="0.71471">
        <ele>96.4</ele>
        <time>2020-06-18T09:39:47Z</time>
      </trkpt>
      <trkpt lat="49.80079" lon="0.71481">
        <ele>96.3</ele>
        <time>2020-06-18T09:39:48Z</time>
      </trkpt>
      <trkpt lat="49.8008" lon="0.71491">
        <ele>96.2</ele>
        <time>2020-06-18T09:39:49Z</time>
      </trkpt>
      <trkpt lat="49.8008" lon="0.71501">
        <ele>96.1</ele>
        <time>2020-06-18T09:39:50Z</time>
      </trkpt>
      <trkpt lat="49.80081" lon="0.71511">
        <ele>96</ele>
        <time>2020-06-18T09:39:51Z</time>
      </trkpt>
      <trkpt lat="49.80082" lon="0.71521">
        <ele>95.9</ele>
        <time>2020-06-18T09:39:52Z</time>
      </trkpt>
      <trkpt lat="49.80083" lon="0.71531">
        <ele>95.7</ele>
        <time>2020-06-18T09:39:53Z</time>
      </trkpt>
      <trkpt lat="49.80083" lon="0.71542">
        <ele>95.4</ele>
        <time>2020-06-18T09:39:54Z</time>
      </trkpt>
      <trkpt lat="49.80083" lon="0.71552">
        <ele>94.9</ele>
        <time>2020-06-18T09:39:55Z</time>
      </trkpt>
      <trkpt lat="49.80084" lon="0.71561">
        <ele>94.8</ele>
        <time>2020-06-18T09:39:56Z</time>
      </trkpt>
      <trkpt lat="49.80084" lon="0.71571">
        <ele>94.7</ele>
        <time>2020-06-18T09:39:57Z</time>
      </trkpt>
      <trkpt lat="49.80085" lon="0.71581">
        <ele>94.5</ele>
        <time>2020-06-18T09:39:58Z</time>
      </trkpt>
      <trkpt lat="49.80085" lon="0.71591">
        <ele>94.4</ele>
        <time>2020-06-18T09:39:59Z</time>
      </trkpt>
      <trkpt lat="49.80086" lon="0.716">
        <ele>94.2</ele>
        <time>2020-06-18T09:40:00Z</time>
      </trkpt>
      <trkpt lat="49.80086" lon="0.71609">
        <ele>94.1</ele>
        <time>2020-06-18T09:40:01Z</time>
      </trkpt>
      <trkpt lat="49.80086" lon="0.71619">
        <ele>93.9</ele>
        <time>2020-06-18T09:40:02Z</time>
      </trkpt>
      <trkpt lat="49.80085" lon="0.71627">
        <ele>93.7</ele>
        <time>2020-06-18T09:40:03Z</time>
      </trkpt>
      <trkpt lat="49.80085" lon="0.71636">
        <ele>93.5</ele>
        <time>2020-06-18T09:40:04Z</time>
      </trkpt>
      <trkpt lat="49.80084" lon="0.71646">
        <ele>93.3</ele>
        <time>2020-06-18T09:40:05Z</time>
      </trkpt>
      <trkpt lat="49.80084" lon="0.71655">
        <ele>93.1</ele>
        <time>2020-06-18T09:40:06Z</time>
      </trkpt>
      <trkpt lat="49.80084" lon="0.71664">
        <ele>92.9</ele>
        <time>2020-06-18T09:40:07Z</time>
      </trkpt>
      <trkpt lat="49.80085" lon="0.71673">
        <ele>92.8</ele>
        <time>2020-06-18T09:40:08Z</time>
      </trkpt>
      <trkpt lat="49.80084" lon="0.71682">
        <ele>92.5</ele>
        <time>2020-06-18T09:40:09Z</time>
      </trkpt>
      <trkpt lat="49.80085" lon="0.71692">
        <ele>92.3</ele>
        <time>2020-06-18T09:40:10Z</time>
      </trkpt>
      <trkpt lat="49.80087" lon="0.71703">
        <ele>92</ele>
        <time>2020-06-18T09:40:11Z</time>
      </trkpt>
      <trkpt lat="49.80088" lon="0.71714">
        <ele>91.6</ele>
        <time>2020-06-18T09:40:12Z</time>
      </trkpt>
      <trkpt lat="49.80089" lon="0.71724">
        <ele>91.3</ele>
        <time>2020-06-18T09:40:13Z</time>
      </trkpt>
      <trkpt lat="49.8009" lon="0.71735">
        <ele>90.9</ele>
        <time>2020-06-18T09:40:14Z</time>
      </trkpt>
      <trkpt lat="49.8009" lon="0.71745">
        <ele>90.6</ele>
        <time>2020-06-18T09:40:15Z</time>
      </trkpt>
      <trkpt lat="49.8009" lon="0.71756">
        <ele>90.3</ele>
        <time>2020-06-18T09:40:16Z</time>
      </trkpt>
      <trkpt lat="49.8009" lon="0.71767">
        <ele>89.9</ele>
        <time>2020-06-18T09:40:17Z</time>
      </trkpt>
      <trkpt lat="49.80091" lon="0.71779">
        <ele>89.5</ele>
        <time>2020-06-18T09:40:18Z</time>
      </trkpt>
      <trkpt lat="49.8009" lon="0.71791">
        <ele>89.1</ele>
        <time>2020-06-18T09:40:19Z</time>
      </trkpt>
      <trkpt lat="49.80091" lon="0.71802">
        <ele>88.7</ele>
        <time>2020-06-18T09:40:20Z</time>
      </trkpt>
      <trkpt lat="49.80092" lon="0.71814">
        <ele>88.2</ele>
        <time>2020-06-18T09:40:21Z</time>
      </trkpt>
      <trkpt lat="49.80092" lon="0.71825">
        <ele>87.8</ele>
        <time>2020-06-18T09:40:22Z</time>
      </trkpt>
      <trkpt lat="49.80092" lon="0.71837">
        <ele>87.4</ele>
        <time>2020-06-18T09:40:23Z</time>
      </trkpt>
      <trkpt lat="49.80093" lon="0.7185">
        <ele>87</ele>
        <time>2020-06-18T09:40:24Z</time>
      </trkpt>
      <trkpt lat="49.80093" lon="0.71863">
        <ele>86.6</ele>
        <time>2020-06-18T09:40:25Z</time>
      </trkpt>
      <trkpt lat="49.80094" lon="0.71876">
        <ele>86.2</ele>
        <time>2020-06-18T09:40:26Z</time>
      </trkpt>
      <trkpt lat="49.80097" lon="0.71889">
        <ele>85.7</ele>
        <time>2020-06-18T09:40:27Z</time>
      </trkpt>
      <trkpt lat="49.801" lon="0.71902">
        <ele>85.3</ele>
        <time>2020-06-18T09:40:28Z</time>
      </trkpt>
      <trkpt lat="49.80103" lon="0.71915">
        <ele>84.9</ele>
        <time>2020-06-18T09:40:29Z</time>
      </trkpt>
      <trkpt lat="49.80107" lon="0.71928">
        <ele>84.7</ele>
        <time>2020-06-18T09:40:30Z</time>
      </trkpt>
      <trkpt lat="49.80111" lon="0.7194">
        <ele>84.6</ele>
        <time>2020-06-18T09:40:31Z</time>
      </trkpt>
      <trkpt lat="49.80115" lon="0.71952">
        <ele>84.5</ele>
        <time>2020-06-18T09:40:32Z</time>
      </trkpt>
      <trkpt lat="49.80118" lon="0.71964">
        <ele>84.5</ele>
        <time>2020-06-18T09:40:33Z</time>
      </trkpt>
      <trkpt lat="49.80122" lon="0.71975">
        <ele>84.8</ele>
        <time>2020-06-18T09:40:34Z</time>
      </trkpt>
      <trkpt lat="49.80126" lon="0.71986">
        <ele>84.7</ele>
        <time>2020-06-18T09:40:35Z</time>
      </trkpt>
      <trkpt lat="49.8013" lon="0.71997">
        <ele>84.7</ele>
        <time>2020-06-18T09:40:36Z</time>
      </trkpt>
      <trkpt lat="49.80133" lon="0.72007">
        <ele>84.8</ele>
        <time>2020-06-18T09:40:37Z</time>
      </trkpt>
      <trkpt lat="49.80137" lon="0.72016">
        <ele>84.8</ele>
        <time>2020-06-18T09:40:38Z</time>
      </trkpt>
      <trkpt lat="49.80141" lon="0.72026">
        <ele>84.9</ele>
        <time>2020-06-18T09:40:39Z</time>
      </trkpt>
      <trkpt lat="49.80144" lon="0.72036">
        <ele>85</ele>
        <time>2020-06-18T09:40:40Z</time>
      </trkpt>
      <trkpt lat="49.80148" lon="0.72046">
        <ele>85.1</ele>
        <time>2020-06-18T09:40:41Z</time>
      </trkpt>
      <trkpt lat="49.80151" lon="0.72057">
        <ele>85.1</ele>
        <time>2020-06-18T09:40:42Z</time>
      </trkpt>
      <trkpt lat="49.80154" lon="0.72067">
        <ele>85.1</ele>
        <time>2020-06-18T09:40:43Z</time>
      </trkpt>
      <trkpt lat="49.80157" lon="0.72077">
        <ele>85.2</ele>
        <time>2020-06-18T09:40:44Z</time>
      </trkpt>
      <trkpt lat="49.80161" lon="0.72086">
        <ele>85.2</ele>
        <time>2020-06-18T09:40:45Z</time>
      </trkpt>
      <trkpt lat="49.80164" lon="0.72096">
        <ele>85.3</ele>
        <time>2020-06-18T09:40:46Z</time>
      </trkpt>
      <trkpt lat="49.80167" lon="0.72106">
        <ele>85.4</ele>
        <time>2020-06-18T09:40:47Z</time>
      </trkpt>
      <trkpt lat="49.8017" lon="0.72115">
        <ele>85.5</ele>
        <time>2020-06-18T09:40:48Z</time>
      </trkpt>
      <trkpt lat="49.80173" lon="0.72123">
        <ele>85.5</ele>
        <time>2020-06-18T09:40:49Z</time>
      </trkpt>
      <trkpt lat="49.80176" lon="0.72132">
        <ele>85.5</ele>
        <time>2020-06-18T09:40:50Z</time>
      </trkpt>
      <trkpt lat="49.80179" lon="0.72141">
        <ele>85.6</ele>
        <time>2020-06-18T09:40:51Z</time>
      </trkpt>
      <trkpt lat="49.80181" lon="0.7215">
        <ele>85.5</ele>
        <time>2020-06-18T09:40:52Z</time>
      </trkpt>
      <trkpt lat="49.80185" lon="0.72158">
        <ele>85.5</ele>
        <time>2020-06-18T09:40:53Z</time>
      </trkpt>
      <trkpt lat="49.80188" lon="0.72167">
        <ele>85.4</ele>
        <time>2020-06-18T09:40:54Z</time>
      </trkpt>
      <trkpt lat="49.80191" lon="0.72176">
        <ele>85.3</ele>
        <time>2020-06-18T09:40:55Z</time>
      </trkpt>
      <trkpt lat="49.80194" lon="0.72185">
        <ele>85.2</ele>
        <time>2020-06-18T09:40:56Z</time>
      </trkpt>
      <trkpt lat="49.80197" lon="0.72194">
        <ele>85.1</ele>
        <time>2020-06-18T09:40:57Z</time>
      </trkpt>
      <trkpt lat="49.802" lon="0.72203">
        <ele>85</ele>
        <time>2020-06-18T09:40:58Z</time>
      </trkpt>
      <trkpt lat="49.80203" lon="0.72213">
        <ele>84.8</ele>
        <time>2020-06-18T09:40:59Z</time>
      </trkpt>
      <trkpt lat="49.80206" lon="0.72222">
        <ele>84.6</ele>
        <time>2020-06-18T09:41:00Z</time>
      </trkpt>
      <trkpt lat="49.80208" lon="0.72233">
        <ele>84.4</ele>
        <time>2020-06-18T09:41:01Z</time>
      </trkpt>
      <trkpt lat="49.80211" lon="0.72243">
        <ele>84.2</ele>
        <time>2020-06-18T09:41:02Z</time>
      </trkpt>
      <trkpt lat="49.80213" lon="0.72254">
        <ele>83.9</ele>
        <time>2020-06-18T09:41:03Z</time>
      </trkpt>
      <trkpt lat="49.80216" lon="0.72264">
        <ele>83.7</ele>
        <time>2020-06-18T09:41:04Z</time>
      </trkpt>
      <trkpt lat="49.80219" lon="0.72275">
        <ele>83.4</ele>
        <time>2020-06-18T09:41:05Z</time>
      </trkpt>
      <trkpt lat="49.80221" lon="0.72286">
        <ele>83.1</ele>
        <time>2020-06-18T09:41:06Z</time>
      </trkpt>
      <trkpt lat="49.80224" lon="0.72297">
        <ele>82.9</ele>
        <time>2020-06-18T09:41:07Z</time>
      </trkpt>
      <trkpt lat="49.80226" lon="0.72309">
        <ele>82.7</ele>
        <time>2020-06-18T09:41:08Z</time>
      </trkpt>
      <trkpt lat="49.80228" lon="0.7232">
        <ele>82.4</ele>
        <time>2020-06-18T09:41:09Z</time>
      </trkpt>
      <trkpt lat="49.80229" lon="0.72332">
        <ele>82.1</ele>
        <time>2020-06-18T09:41:10Z</time>
      </trkpt>
      <trkpt lat="49.80231" lon="0.72344">
        <ele>81.8</ele>
        <time>2020-06-18T09:41:11Z</time>
      </trkpt>
      <trkpt lat="49.80232" lon="0.72356">
        <ele>81.5</ele>
        <time>2020-06-18T09:41:12Z</time>
      </trkpt>
      <trkpt lat="49.80234" lon="0.72368">
        <ele>81.3</ele>
        <time>2020-06-18T09:41:13Z</time>
      </trkpt>
      <trkpt lat="49.80235" lon="0.7238">
        <ele>81</ele>
        <time>2020-06-18T09:41:14Z</time>
      </trkpt>
      <trkpt lat="49.80236" lon="0.72393">
        <ele>80.7</ele>
        <time>2020-06-18T09:41:15Z</time>
      </trkpt>
      <trkpt lat="49.80238" lon="0.72405">
        <ele>80.5</ele>
        <time>2020-06-18T09:41:16Z</time>
      </trkpt>
      <trkpt lat="49.80239" lon="0.72418">
        <ele>80.3</ele>
        <time>2020-06-18T09:41:17Z</time>
      </trkpt>
      <trkpt lat="49.8024" lon="0.7243">
        <ele>80</ele>
        <time>2020-06-18T09:41:18Z</time>
      </trkpt>
      <trkpt lat="49.80242" lon="0.72443">
        <ele>79.8</ele>
        <time>2020-06-18T09:41:19Z</time>
      </trkpt>
      <trkpt lat="49.80243" lon="0.72455">
        <ele>79.6</ele>
        <time>2020-06-18T09:41:20Z</time>
      </trkpt>
      <trkpt lat="49.80245" lon="0.72468">
        <ele>79.5</ele>
        <time>2020-06-18T09:41:21Z</time>
      </trkpt>
      <trkpt lat="49.80246" lon="0.7248">
        <ele>79.5</ele>
        <time>2020-06-18T09:41:22Z</time>
      </trkpt>
      <trkpt lat="49.80248" lon="0.72492">
        <ele>79.4</ele>
        <time>2020-06-18T09:41:23Z</time>
      </trkpt>
      <trkpt lat="49.80249" lon="0.72505">
        <ele>79.4</ele>
        <time>2020-06-18T09:41:24Z</time>
      </trkpt>
      <trkpt lat="49.8025" lon="0.72517">
        <ele>79.4</ele>
        <time>2020-06-18T09:41:25Z</time>
      </trkpt>
      <trkpt lat="49.80251" lon="0.72528">
        <ele>79.4</ele>
        <time>2020-06-18T09:41:26Z</time>
      </trkpt>
      <trkpt lat="49.80253" lon="0.7254">
        <ele>79.4</ele>
        <time>2020-06-18T09:41:27Z</time>
      </trkpt>
      <trkpt lat="49.80253" lon="0.72551">
        <ele>79.4</ele>
        <time>2020-06-18T09:41:28Z</time>
      </trkpt>
      <trkpt lat="49.80254" lon="0.72563">
        <ele>79.5</ele>
        <time>2020-06-18T09:41:29Z</time>
      </trkpt>
      <trkpt lat="49.80255" lon="0.72574">
        <ele>79.5</ele>
        <time>2020-06-18T09:41:30Z</time>
      </trkpt>
      <trkpt lat="49.80256" lon="0.72584">
        <ele>79.6</ele>
        <time>2020-06-18T09:41:31Z</time>
      </trkpt>
      <trkpt lat="49.80256" lon="0.72594">
        <ele>79.6</ele>
        <time>2020-06-18T09:41:32Z</time>
      </trkpt>
      <trkpt lat="49.80257" lon="0.72605">
        <ele>79.7</ele>
        <time>2020-06-18T09:41:33Z</time>
      </trkpt>
      <trkpt lat="49.80258" lon="0.72615">
        <ele>79.8</ele>
        <time>2020-06-18T09:41:34Z</time>
      </trkpt>
      <trkpt lat="49.80259" lon="0.72625">
        <ele>79.9</ele>
        <time>2020-06-18T09:41:35Z</time>
      </trkpt>
      <trkpt lat="49.80259" lon="0.72636">
        <ele>80</ele>
        <time>2020-06-18T09:41:36Z</time>
      </trkpt>
      <trkpt lat="49.80259" lon="0.72647">
        <ele>80.3</ele>
        <time>2020-06-18T09:41:37Z</time>
      </trkpt>
      <trkpt lat="49.8026" lon="0.72657">
        <ele>80.6</ele>
        <time>2020-06-18T09:41:38Z</time>
      </trkpt>
      <trkpt lat="49.8026" lon="0.72667">
        <ele>80.8</ele>
        <time>2020-06-18T09:41:39Z</time>
      </trkpt>
      <trkpt lat="49.80261" lon="0.72677">
        <ele>81.1</ele>
        <time>2020-06-18T09:41:40Z</time>
      </trkpt>
      <trkpt lat="49.80261" lon="0.72687">
        <ele>81.4</ele>
        <time>2020-06-18T09:41:41Z</time>
      </trkpt>
      <trkpt lat="49.80261" lon="0.72697">
        <ele>81.8</ele>
        <time>2020-06-18T09:41:42Z</time>
      </trkpt>
      <trkpt lat="49.80262" lon="0.72706">
        <ele>82.1</ele>
        <time>2020-06-18T09:41:43Z</time>
      </trkpt>
      <trkpt lat="49.80263" lon="0.72715">
        <ele>82.4</ele>
        <time>2020-06-18T09:41:44Z</time>
      </trkpt>
      <trkpt lat="49.80263" lon="0.72724">
        <ele>82.7</ele>
        <time>2020-06-18T09:41:45Z</time>
      </trkpt>
      <trkpt lat="49.80264" lon="0.72732">
        <ele>83</ele>
        <time>2020-06-18T09:41:46Z</time>
      </trkpt>
      <trkpt lat="49.80264" lon="0.72741">
        <ele>83.3</ele>
        <time>2020-06-18T09:41:47Z</time>
      </trkpt>
      <trkpt lat="49.80265" lon="0.72748">
        <ele>83.5</ele>
        <time>2020-06-18T09:41:48Z</time>
      </trkpt>
      <trkpt lat="49.80265" lon="0.72756">
        <ele>83.8</ele>
        <time>2020-06-18T09:41:49Z</time>
      </trkpt>
      <trkpt lat="49.80265" lon="0.72763">
        <ele>84.1</ele>
        <time>2020-06-18T09:41:50Z</time>
      </trkpt>
      <trkpt lat="49.80265" lon="0.7277">
        <ele>84.3</ele>
        <time>2020-06-18T09:41:51Z</time>
      </trkpt>
      <trkpt lat="49.80266" lon="0.72778">
        <ele>84.6</ele>
        <time>2020-06-18T09:41:52Z</time>
      </trkpt>
      <trkpt lat="49.80266" lon="0.72785">
        <ele>84.9</ele>
        <time>2020-06-18T09:41:53Z</time>
      </trkpt>
      <trkpt lat="49.80267" lon="0.72793">
        <ele>85.2</ele>
        <time>2020-06-18T09:41:54Z</time>
      </trkpt>
      <trkpt lat="49.80267" lon="0.728">
        <ele>85.5</ele>
        <time>2020-06-18T09:41:55Z</time>
      </trkpt>
      <trkpt lat="49.80267" lon="0.72807">
        <ele>85.8</ele>
        <time>2020-06-18T09:41:56Z</time>
      </trkpt>
      <trkpt lat="49.80267" lon="0.72813">
        <ele>86.1</ele>
        <time>2020-06-18T09:41:57Z</time>
      </trkpt>
      <trkpt lat="49.80268" lon="0.7282">
        <ele>86.4</ele>
        <time>2020-06-18T09:41:58Z</time>
      </trkpt>
      <trkpt lat="49.80268" lon="0.72827">
        <ele>86.7</ele>
        <time>2020-06-18T09:41:59Z</time>
      </trkpt>
      <trkpt lat="49.80268" lon="0.72835">
        <ele>87</ele>
        <time>2020-06-18T09:42:00Z</time>
      </trkpt>
      <trkpt lat="49.80267" lon="0.72843">
        <ele>87.3</ele>
        <time>2020-06-18T09:42:01Z</time>
      </trkpt>
      <trkpt lat="49.80267" lon="0.72851">
        <ele>87.6</ele>
        <time>2020-06-18T09:42:02Z</time>
      </trkpt>
      <trkpt lat="49.80266" lon="0.72859">
        <ele>87.9</ele>
        <time>2020-06-18T09:42:03Z</time>
      </trkpt>
      <trkpt lat="49.80267" lon="0.72868">
        <ele>88.3</ele>
        <time>2020-06-18T09:42:04Z</time>
      </trkpt>
      <trkpt lat="49.80267" lon="0.72876">
        <ele>88.6</ele>
        <time>2020-06-18T09:42:05Z</time>
      </trkpt>
      <trkpt lat="49.80268" lon="0.72884">
        <ele>88.9</ele>
        <time>2020-06-18T09:42:06Z</time>
      </trkpt>
      <trkpt lat="49.80268" lon="0.72892">
        <ele>89.2</ele>
        <time>2020-06-18T09:42:07Z</time>
      </trkpt>
      <trkpt lat="49.80268" lon="0.729">
        <ele>89.5</ele>
        <time>2020-06-18T09:42:08Z</time>
      </trkpt>
      <trkpt lat="49.80269" lon="0.72907">
        <ele>89.8</ele>
        <time>2020-06-18T09:42:09Z</time>
      </trkpt>
      <trkpt lat="49.8027" lon="0.72915">
        <ele>90</ele>
        <time>2020-06-18T09:42:10Z</time>
      </trkpt>
      <trkpt lat="49.80271" lon="0.72921">
        <ele>90.3</ele>
        <time>2020-06-18T09:42:11Z</time>
      </trkpt>
      <trkpt lat="49.80272" lon="0.72927">
        <ele>90.5</ele>
        <time>2020-06-18T09:42:12Z</time>
      </trkpt>
      <trkpt lat="49.80273" lon="0.72933">
        <ele>90.7</ele>
        <time>2020-06-18T09:42:13Z</time>
      </trkpt>
      <trkpt lat="49.80273" lon="0.72941">
        <ele>91</ele>
        <time>2020-06-18T09:42:14Z</time>
      </trkpt>
      <trkpt lat="49.80274" lon="0.72948">
        <ele>91.2</ele>
        <time>2020-06-18T09:42:15Z</time>
      </trkpt>
      <trkpt lat="49.80275" lon="0.72954">
        <ele>91.4</ele>
        <time>2020-06-18T09:42:16Z</time>
      </trkpt>
      <trkpt lat="49.80274" lon="0.72961">
        <ele>91.6</ele>
        <time>2020-06-18T09:42:17Z</time>
      </trkpt>
      <trkpt lat="49.80275" lon="0.72967">
        <ele>91.8</ele>
        <time>2020-06-18T09:42:18Z</time>
      </trkpt>
      <trkpt lat="49.80275" lon="0.72972">
        <ele>91.9</ele>
        <time>2020-06-18T09:42:19Z</time>
      </trkpt>
      <trkpt lat="49.80276" lon="0.72979">
        <ele>92.1</ele>
        <time>2020-06-18T09:42:20Z</time>
      </trkpt>
      <trkpt lat="49.80276" lon="0.72985">
        <ele>92.3</ele>
        <time>2020-06-18T09:42:21Z</time>
      </trkpt>
      <trkpt lat="49.80277" lon="0.72991">
        <ele>92.5</ele>
        <time>2020-06-18T09:42:22Z</time>
      </trkpt>
      <trkpt lat="49.80277" lon="0.72998">
        <ele>92.7</ele>
        <time>2020-06-18T09:42:23Z</time>
      </trkpt>
      <trkpt lat="49.80278" lon="0.73004">
        <ele>92.9</ele>
        <time>2020-06-18T09:42:24Z</time>
      </trkpt>
      <trkpt lat="49.80279" lon="0.73012">
        <ele>93</ele>
        <time>2020-06-18T09:42:25Z</time>
      </trkpt>
      <trkpt lat="49.80279" lon="0.73021">
        <ele>93.2</ele>
        <time>2020-06-18T09:42:26Z</time>
      </trkpt>
      <trkpt lat="49.80279" lon="0.73029">
        <ele>93.4</ele>
        <time>2020-06-18T09:42:27Z</time>
      </trkpt>
      <trkpt lat="49.8028" lon="0.73038">
        <ele>93.6</ele>
        <time>2020-06-18T09:42:28Z</time>
      </trkpt>
      <trkpt lat="49.80281" lon="0.73045">
        <ele>93.7</ele>
        <time>2020-06-18T09:42:29Z</time>
      </trkpt>
      <trkpt lat="49.80282" lon="0.73052">
        <ele>93.8</ele>
        <time>2020-06-18T09:42:30Z</time>
      </trkpt>
      <trkpt lat="49.80283" lon="0.73058">
        <ele>94</ele>
        <time>2020-06-18T09:42:31Z</time>
      </trkpt>
      <trkpt lat="49.80283" lon="0.73065">
        <ele>94.1</ele>
        <time>2020-06-18T09:42:32Z</time>
      </trkpt>
      <trkpt lat="49.80284" lon="0.73072">
        <ele>94.3</ele>
        <time>2020-06-18T09:42:33Z</time>
      </trkpt>
      <trkpt lat="49.80284" lon="0.73079">
        <ele>94.4</ele>
        <time>2020-06-18T09:42:34Z</time>
      </trkpt>
      <trkpt lat="49.80284" lon="0.73086">
        <ele>94.5</ele>
        <time>2020-06-18T09:42:35Z</time>
      </trkpt>
      <trkpt lat="49.80284" lon="0.73093">
        <ele>94.7</ele>
        <time>2020-06-18T09:42:36Z</time>
      </trkpt>
      <trkpt lat="49.80285" lon="0.73099">
        <ele>94.8</ele>
        <time>2020-06-18T09:42:37Z</time>
      </trkpt>
      <trkpt lat="49.80285" lon="0.73107">
        <ele>94.9</ele>
        <time>2020-06-18T09:42:38Z</time>
      </trkpt>
      <trkpt lat="49.80286" lon="0.73115">
        <ele>95</ele>
        <time>2020-06-18T09:42:39Z</time>
      </trkpt>
      <trkpt lat="49.80285" lon="0.73122">
        <ele>95.1</ele>
        <time>2020-06-18T09:42:40Z</time>
      </trkpt>
      <trkpt lat="49.80286" lon="0.73128">
        <ele>95.2</ele>
        <time>2020-06-18T09:42:41Z</time>
      </trkpt>
      <trkpt lat="49.80286" lon="0.73134">
        <ele>95.3</ele>
        <time>2020-06-18T09:42:42Z</time>
      </trkpt>
      <trkpt lat="49.80285" lon="0.73142">
        <ele>95.4</ele>
        <time>2020-06-18T09:42:43Z</time>
      </trkpt>
      <trkpt lat="49.80286" lon="0.7315">
        <ele>95.6</ele>
        <time>2020-06-18T09:42:44Z</time>
      </trkpt>
      <trkpt lat="49.80287" lon="0.73159">
        <ele>95.7</ele>
        <time>2020-06-18T09:42:45Z</time>
      </trkpt>
      <trkpt lat="49.80287" lon="0.73165">
        <ele>95.8</ele>
        <time>2020-06-18T09:42:46Z</time>
      </trkpt>
      <trkpt lat="49.80288" lon="0.73174">
        <ele>95.9</ele>
        <time>2020-06-18T09:42:47Z</time>
      </trkpt>
      <trkpt lat="49.80288" lon="0.73181">
        <ele>96</ele>
        <time>2020-06-18T09:42:48Z</time>
      </trkpt>
      <trkpt lat="49.80289" lon="0.73186">
        <ele>96.1</ele>
        <time>2020-06-18T09:42:49Z</time>
      </trkpt>
      <trkpt lat="49.8029" lon="0.73194">
        <ele>96.2</ele>
        <time>2020-06-18T09:42:50Z</time>
      </trkpt>
      <trkpt lat="49.80291" lon="0.73201">
        <ele>96.3</ele>
        <time>2020-06-18T09:42:51Z</time>
      </trkpt>
      <trkpt lat="49.80292" lon="0.73209">
        <ele>96.5</ele>
        <time>2020-06-18T09:42:52Z</time>
      </trkpt>
      <trkpt lat="49.80292" lon="0.73217">
        <ele>96.6</ele>
        <time>2020-06-18T09:42:53Z</time>
      </trkpt>
      <trkpt lat="49.80292" lon="0.73225">
        <ele>96.7</ele>
        <time>2020-06-18T09:42:54Z</time>
      </trkpt>
      <trkpt lat="49.80293" lon="0.73235">
        <ele>96.8</ele>
        <time>2020-06-18T09:42:55Z</time>
      </trkpt>
      <trkpt lat="49.80293" lon="0.73242">
        <ele>96.9</ele>
        <time>2020-06-18T09:42:56Z</time>
      </trkpt>
      <trkpt lat="49.80292" lon="0.73251">
        <ele>97</ele>
        <time>2020-06-18T09:42:57Z</time>
      </trkpt>
      <trkpt lat="49.80293" lon="0.73259">
        <ele>97</ele>
        <time>2020-06-18T09:42:58Z</time>
      </trkpt>
      <trkpt lat="49.80294" lon="0.73267">
        <ele>97.1</ele>
        <time>2020-06-18T09:42:59Z</time>
      </trkpt>
      <trkpt lat="49.80294" lon="0.73276">
        <ele>97.2</ele>
        <time>2020-06-18T09:43:00Z</time>
      </trkpt>
      <trkpt lat="49.80294" lon="0.73285">
        <ele>97.3</ele>
        <time>2020-06-18T09:43:01Z</time>
      </trkpt>
      <trkpt lat="49.80295" lon="0.73293">
        <ele>97.4</ele>
        <time>2020-06-18T09:43:02Z</time>
      </trkpt>
      <trkpt lat="49.80295" lon="0.73301">
        <ele>97.5</ele>
        <time>2020-06-18T09:43:03Z</time>
      </trkpt>
      <trkpt lat="49.80296" lon="0.7331">
        <ele>97.5</ele>
        <time>2020-06-18T09:43:04Z</time>
      </trkpt>
      <trkpt lat="49.80296" lon="0.73319">
        <ele>97.6</ele>
        <time>2020-06-18T09:43:05Z</time>
      </trkpt>
      <trkpt lat="49.80297" lon="0.73329">
        <ele>97.5</ele>
        <time>2020-06-18T09:43:06Z</time>
      </trkpt>
      <trkpt lat="49.80298" lon="0.73337">
        <ele>97.4</ele>
        <time>2020-06-18T09:43:07Z</time>
      </trkpt>
      <trkpt lat="49.80299" lon="0.73346">
        <ele>97.2</ele>
        <time>2020-06-18T09:43:08Z</time>
      </trkpt>
      <trkpt lat="49.803" lon="0.73353">
        <ele>97.2</ele>
        <time>2020-06-18T09:43:09Z</time>
      </trkpt>
      <trkpt lat="49.80301" lon="0.73365">
        <ele>97.1</ele>
        <time>2020-06-18T09:43:10Z</time>
      </trkpt>
      <trkpt lat="49.80302" lon="0.73376">
        <ele>97.1</ele>
        <time>2020-06-18T09:43:11Z</time>
      </trkpt>
      <trkpt lat="49.80303" lon="0.73386">
        <ele>97.1</ele>
        <time>2020-06-18T09:43:12Z</time>
      </trkpt>
      <trkpt lat="49.80304" lon="0.73397">
        <ele>97.1</ele>
        <time>2020-06-18T09:43:13Z</time>
      </trkpt>
      <trkpt lat="49.80305" lon="0.73407">
        <ele>97.1</ele>
        <time>2020-06-18T09:43:14Z</time>
      </trkpt>
      <trkpt lat="49.80305" lon="0.73417">
        <ele>97.1</ele>
        <time>2020-06-18T09:43:15Z</time>
      </trkpt>
      <trkpt lat="49.80305" lon="0.73425">
        <ele>97.2</ele>
        <time>2020-06-18T09:43:16Z</time>
      </trkpt>
      <trkpt lat="49.80306" lon="0.73434">
        <ele>97.2</ele>
        <time>2020-06-18T09:43:17Z</time>
      </trkpt>
      <trkpt lat="49.80307" lon="0.73442">
        <ele>97.2</ele>
        <time>2020-06-18T09:43:18Z</time>
      </trkpt>
      <trkpt lat="49.80307" lon="0.7345">
        <ele>97.2</ele>
        <time>2020-06-18T09:43:19Z</time>
      </trkpt>
      <trkpt lat="49.80308" lon="0.73457">
        <ele>97.2</ele>
        <time>2020-06-18T09:43:20Z</time>
      </trkpt>
      <trkpt lat="49.80309" lon="0.73464">
        <ele>97.3</ele>
        <time>2020-06-18T09:43:21Z</time>
      </trkpt>
      <trkpt lat="49.8031" lon="0.73473">
        <ele>97.3</ele>
        <time>2020-06-18T09:43:22Z</time>
      </trkpt>
      <trkpt lat="49.80311" lon="0.73481">
        <ele>97.3</ele>
        <time>2020-06-18T09:43:23Z</time>
      </trkpt>
      <trkpt lat="49.80311" lon="0.73488">
        <ele>97.4</ele>
        <time>2020-06-18T09:43:24Z</time>
      </trkpt>
      <trkpt lat="49.80313" lon="0.73497">
        <ele>97.4</ele>
        <time>2020-06-18T09:43:25Z</time>
      </trkpt>
      <trkpt lat="49.80313" lon="0.73506">
        <ele>97.5</ele>
        <time>2020-06-18T09:43:26Z</time>
      </trkpt>
      <trkpt lat="49.80314" lon="0.73515">
        <ele>97.5</ele>
        <time>2020-06-18T09:43:27Z</time>
      </trkpt>
      <trkpt lat="49.80315" lon="0.73522">
        <ele>97.6</ele>
        <time>2020-06-18T09:43:28Z</time>
      </trkpt>
      <trkpt lat="49.80315" lon="0.73531">
        <ele>97.6</ele>
        <time>2020-06-18T09:43:29Z</time>
      </trkpt>
      <trkpt lat="49.80315" lon="0.73539">
        <ele>97.5</ele>
        <time>2020-06-18T09:43:30Z</time>
      </trkpt>
      <trkpt lat="49.80315" lon="0.73547">
        <ele>97.5</ele>
        <time>2020-06-18T09:43:31Z</time>
      </trkpt>
      <trkpt lat="49.80315" lon="0.73555">
        <ele>97.5</ele>
        <time>2020-06-18T09:43:32Z</time>
      </trkpt>
      <trkpt lat="49.80316" lon="0.73565">
        <ele>97.5</ele>
        <time>2020-06-18T09:43:33Z</time>
      </trkpt>
      <trkpt lat="49.80316" lon="0.73575">
        <ele>97.6</ele>
        <time>2020-06-18T09:43:34Z</time>
      </trkpt>
      <trkpt lat="49.80317" lon="0.73584">
        <ele>97.6</ele>
        <time>2020-06-18T09:43:35Z</time>
      </trkpt>
      <trkpt lat="49.80319" lon="0.73594">
        <ele>97.6</ele>
        <time>2020-06-18T09:43:36Z</time>
      </trkpt>
      <trkpt lat="49.8032" lon="0.73602">
        <ele>97.6</ele>
        <time>2020-06-18T09:43:37Z</time>
      </trkpt>
      <trkpt lat="49.80321" lon="0.7361">
        <ele>97.6</ele>
        <time>2020-06-18T09:43:38Z</time>
      </trkpt>
      <trkpt lat="49.80322" lon="0.7362">
        <ele>97.7</ele>
        <time>2020-06-18T09:43:39Z</time>
      </trkpt>
      <trkpt lat="49.80323" lon="0.73628">
        <ele>97.7</ele>
        <time>2020-06-18T09:43:40Z</time>
      </trkpt>
      <trkpt lat="49.80324" lon="0.73637">
        <ele>97.7</ele>
        <time>2020-06-18T09:43:41Z</time>
      </trkpt>
      <trkpt lat="49.80325" lon="0.73646">
        <ele>97.6</ele>
        <time>2020-06-18T09:43:42Z</time>
      </trkpt>
      <trkpt lat="49.80326" lon="0.73657">
        <ele>97.5</ele>
        <time>2020-06-18T09:43:43Z</time>
      </trkpt>
      <trkpt lat="49.80328" lon="0.73668">
        <ele>97.3</ele>
        <time>2020-06-18T09:43:44Z</time>
      </trkpt>
      <trkpt lat="49.80331" lon="0.73677">
        <ele>97.1</ele>
        <time>2020-06-18T09:43:45Z</time>
      </trkpt>
      <trkpt lat="49.80334" lon="0.73687">
        <ele>97</ele>
        <time>2020-06-18T09:43:46Z</time>
      </trkpt>
      <trkpt lat="49.80336" lon="0.73696">
        <ele>96.9</ele>
        <time>2020-06-18T09:43:47Z</time>
      </trkpt>
      <trkpt lat="49.80338" lon="0.73707">
        <ele>96.9</ele>
        <time>2020-06-18T09:43:48Z</time>
      </trkpt>
      <trkpt lat="49.80341" lon="0.73717">
        <ele>96.8</ele>
        <time>2020-06-18T09:43:49Z</time>
      </trkpt>
      <trkpt lat="49.80344" lon="0.73728">
        <ele>96.8</ele>
        <time>2020-06-18T09:43:50Z</time>
      </trkpt>
      <trkpt lat="49.80346" lon="0.73737">
        <ele>96.7</ele>
        <time>2020-06-18T09:43:51Z</time>
      </trkpt>
      <trkpt lat="49.80349" lon="0.73747">
        <ele>96.7</ele>
        <time>2020-06-18T09:43:52Z</time>
      </trkpt>
      <trkpt lat="49.80351" lon="0.73756">
        <ele>96.6</ele>
        <time>2020-06-18T09:43:53Z</time>
      </trkpt>
      <trkpt lat="49.80353" lon="0.73765">
        <ele>96.5</ele>
        <time>2020-06-18T09:43:54Z</time>
      </trkpt>
      <trkpt lat="49.80356" lon="0.73774">
        <ele>96.5</ele>
        <time>2020-06-18T09:43:55Z</time>
      </trkpt>
      <trkpt lat="49.80358" lon="0.73782">
        <ele>96.4</ele>
        <time>2020-06-18T09:43:56Z</time>
      </trkpt>
      <trkpt lat="49.8036" lon="0.7379">
        <ele>96.3</ele>
        <time>2020-06-18T09:43:57Z</time>
      </trkpt>
      <trkpt lat="49.80363" lon="0.73799">
        <ele>96.2</ele>
        <time>2020-06-18T09:43:58Z</time>
      </trkpt>
      <trkpt lat="49.80365" lon="0.73806">
        <ele>96.2</ele>
        <time>2020-06-18T09:43:59Z</time>
      </trkpt>
      <trkpt lat="49.80368" lon="0.73814">
        <ele>96.1</ele>
        <time>2020-06-18T09:44:00Z</time>
      </trkpt>
      <trkpt lat="49.8037" lon="0.73822">
        <ele>96</ele>
        <time>2020-06-18T09:44:01Z</time>
      </trkpt>
      <trkpt lat="49.80372" lon="0.7383">
        <ele>95.9</ele>
        <time>2020-06-18T09:44:02Z</time>
      </trkpt>
      <trkpt lat="49.80374" lon="0.73839">
        <ele>95.8</ele>
        <time>2020-06-18T09:44:03Z</time>
      </trkpt>
      <trkpt lat="49.80377" lon="0.73847">
        <ele>95.8</ele>
        <time>2020-06-18T09:44:04Z</time>
      </trkpt>
      <trkpt lat="49.80379" lon="0.73856">
        <ele>95.7</ele>
        <time>2020-06-18T09:44:05Z</time>
      </trkpt>
      <trkpt lat="49.80381" lon="0.73864">
        <ele>95.5</ele>
        <time>2020-06-18T09:44:06Z</time>
      </trkpt>
      <trkpt lat="49.80383" lon="0.73873">
        <ele>95.4</ele>
        <time>2020-06-18T09:44:07Z</time>
      </trkpt>
      <trkpt lat="49.80385" lon="0.73882">
        <ele>95.2</ele>
        <time>2020-06-18T09:44:08Z</time>
      </trkpt>
      <trkpt lat="49.80387" lon="0.7389">
        <ele>95</ele>
        <time>2020-06-18T09:44:09Z</time>
      </trkpt>
      <trkpt lat="49.8039" lon="0.73899">
        <ele>94.8</ele>
        <time>2020-06-18T09:44:10Z</time>
      </trkpt>
      <trkpt lat="49.80392" lon="0.73908">
        <ele>94.6</ele>
        <time>2020-06-18T09:44:11Z</time>
      </trkpt>
      <trkpt lat="49.80394" lon="0.73916">
        <ele>94.4</ele>
        <time>2020-06-18T09:44:12Z</time>
      </trkpt>
      <trkpt lat="49.80397" lon="0.73925">
        <ele>94.2</ele>
        <time>2020-06-18T09:44:13Z</time>
      </trkpt>
      <trkpt lat="49.80399" lon="0.73934">
        <ele>94</ele>
        <time>2020-06-18T09:44:14Z</time>
      </trkpt>
      <trkpt lat="49.804" lon="0.73943">
        <ele>93.8</ele>
        <time>2020-06-18T09:44:15Z</time>
      </trkpt>
      <trkpt lat="49.80403" lon="0.73953">
        <ele>93.6</ele>
        <time>2020-06-18T09:44:16Z</time>
      </trkpt>
      <trkpt lat="49.80406" lon="0.73962">
        <ele>93.3</ele>
        <time>2020-06-18T09:44:17Z</time>
      </trkpt>
      <trkpt lat="49.80409" lon="0.73971">
        <ele>93.1</ele>
        <time>2020-06-18T09:44:18Z</time>
      </trkpt>
      <trkpt lat="49.80413" lon="0.73981">
        <ele>92.8</ele>
        <time>2020-06-18T09:44:19Z</time>
      </trkpt>
      <trkpt lat="49.80416" lon="0.73991">
        <ele>92.6</ele>
        <time>2020-06-18T09:44:20Z</time>
      </trkpt>
      <trkpt lat="49.80418" lon="0.74002">
        <ele>92.3</ele>
        <time>2020-06-18T09:44:21Z</time>
      </trkpt>
      <trkpt lat="49.80421" lon="0.74012">
        <ele>92</ele>
        <time>2020-06-18T09:44:22Z</time>
      </trkpt>
      <trkpt lat="49.80423" lon="0.74024">
        <ele>91.6</ele>
        <time>2020-06-18T09:44:23Z</time>
      </trkpt>
      <trkpt lat="49.80426" lon="0.74035">
        <ele>91.3</ele>
        <time>2020-06-18T09:44:24Z</time>
      </trkpt>
      <trkpt lat="49.80428" lon="0.74047">
        <ele>90.9</ele>
        <time>2020-06-18T09:44:25Z</time>
      </trkpt>
      <trkpt lat="49.80431" lon="0.74058">
        <ele>90.6</ele>
        <time>2020-06-18T09:44:26Z</time>
      </trkpt>
      <trkpt lat="49.80435" lon="0.7407">
        <ele>90.3</ele>
        <time>2020-06-18T09:44:27Z</time>
      </trkpt>
      <trkpt lat="49.80438" lon="0.74082">
        <ele>90</ele>
        <time>2020-06-18T09:44:28Z</time>
      </trkpt>
      <trkpt lat="49.80441" lon="0.74094">
        <ele>89.7</ele>
        <time>2020-06-18T09:44:29Z</time>
      </trkpt>
      <trkpt lat="49.80444" lon="0.74106">
        <ele>89.3</ele>
        <time>2020-06-18T09:44:30Z</time>
      </trkpt>
      <trkpt lat="49.80447" lon="0.74119">
        <ele>88.8</ele>
        <time>2020-06-18T09:44:31Z</time>
      </trkpt>
      <trkpt lat="49.80451" lon="0.74132">
        <ele>88</ele>
        <time>2020-06-18T09:44:32Z</time>
      </trkpt>
      <trkpt lat="49.80454" lon="0.74144">
        <ele>87.6</ele>
        <time>2020-06-18T09:44:33Z</time>
      </trkpt>
      <trkpt lat="49.80457" lon="0.74157">
        <ele>87.1</ele>
        <time>2020-06-18T09:44:34Z</time>
      </trkpt>
      <trkpt lat="49.8046" lon="0.7417">
        <ele>86.6</ele>
        <time>2020-06-18T09:44:35Z</time>
      </trkpt>
      <trkpt lat="49.80464" lon="0.74184">
        <ele>86.2</ele>
        <time>2020-06-18T09:44:36Z</time>
      </trkpt>
      <trkpt lat="49.80467" lon="0.74197">
        <ele>85.7</ele>
        <time>2020-06-18T09:44:37Z</time>
      </trkpt>
      <trkpt lat="49.80471" lon="0.7421">
        <ele>85.2</ele>
        <time>2020-06-18T09:44:38Z</time>
      </trkpt>
      <trkpt lat="49.80475" lon="0.74223">
        <ele>84.8</ele>
        <time>2020-06-18T09:44:39Z</time>
      </trkpt>
      <trkpt lat="49.80479" lon="0.74236">
        <ele>84.4</ele>
        <time>2020-06-18T09:44:40Z</time>
      </trkpt>
      <trkpt lat="49.80483" lon="0.74249">
        <ele>84</ele>
        <time>2020-06-18T09:44:41Z</time>
      </trkpt>
      <trkpt lat="49.80488" lon="0.74261">
        <ele>83.5</ele>
        <time>2020-06-18T09:44:42Z</time>
      </trkpt>
      <trkpt lat="49.80493" lon="0.74274">
        <ele>83</ele>
        <time>2020-06-18T09:44:43Z</time>
      </trkpt>
      <trkpt lat="49.80498" lon="0.74286">
        <ele>82.5</ele>
        <time>2020-06-18T09:44:44Z</time>
      </trkpt>
      <trkpt lat="49.80503" lon="0.74299">
        <ele>81.9</ele>
        <time>2020-06-18T09:44:45Z</time>
      </trkpt>
      <trkpt lat="49.80508" lon="0.74311">
        <ele>81.4</ele>
        <time>2020-06-18T09:44:46Z</time>
      </trkpt>
      <trkpt lat="49.80514" lon="0.74322">
        <ele>80.9</ele>
        <time>2020-06-18T09:44:47Z</time>
      </trkpt>
      <trkpt lat="49.8052" lon="0.74334">
        <ele>80.5</ele>
        <time>2020-06-18T09:44:48Z</time>
      </trkpt>
      <trkpt lat="49.80526" lon="0.74345">
        <ele>80.1</ele>
        <time>2020-06-18T09:44:49Z</time>
      </trkpt>
      <trkpt lat="49.80533" lon="0.74357">
        <ele>79.6</ele>
        <time>2020-06-18T09:44:50Z</time>
      </trkpt>
      <trkpt lat="49.80539" lon="0.74368">
        <ele>79.1</ele>
        <time>2020-06-18T09:44:51Z</time>
      </trkpt>
      <trkpt lat="49.80546" lon="0.7438">
        <ele>78.8</ele>
        <time>2020-06-18T09:44:52Z</time>
      </trkpt>
      <trkpt lat="49.80552" lon="0.74391">
        <ele>78.5</ele>
        <time>2020-06-18T09:44:53Z</time>
      </trkpt>
      <trkpt lat="49.80558" lon="0.74402">
        <ele>78.2</ele>
        <time>2020-06-18T09:44:54Z</time>
      </trkpt>
      <trkpt lat="49.80564" lon="0.74414">
        <ele>77.9</ele>
        <time>2020-06-18T09:44:55Z</time>
      </trkpt>
      <trkpt lat="49.8057" lon="0.74425">
        <ele>77.8</ele>
        <time>2020-06-18T09:44:56Z</time>
      </trkpt>
      <trkpt lat="49.80576" lon="0.74436">
        <ele>77.6</ele>
        <time>2020-06-18T09:44:57Z</time>
      </trkpt>
      <trkpt lat="49.80582" lon="0.74448">
        <ele>77.5</ele>
        <time>2020-06-18T09:44:58Z</time>
      </trkpt>
      <trkpt lat="49.80587" lon="0.74459">
        <ele>77.5</ele>
        <time>2020-06-18T09:44:59Z</time>
      </trkpt>
      <trkpt lat="49.80591" lon="0.74471">
        <ele>77.4</ele>
        <time>2020-06-18T09:45:00Z</time>
      </trkpt>
      <trkpt lat="49.80594" lon="0.74483">
        <ele>77.5</ele>
        <time>2020-06-18T09:45:01Z</time>
      </trkpt>
      <trkpt lat="49.80596" lon="0.74495">
        <ele>77.7</ele>
        <time>2020-06-18T09:45:02Z</time>
      </trkpt>
      <trkpt lat="49.80597" lon="0.74506">
        <ele>77.9</ele>
        <time>2020-06-18T09:45:03Z</time>
      </trkpt>
      <trkpt lat="49.80598" lon="0.74518">
        <ele>78.2</ele>
        <time>2020-06-18T09:45:04Z</time>
      </trkpt>
      <trkpt lat="49.80599" lon="0.74528">
        <ele>78.5</ele>
        <time>2020-06-18T09:45:05Z</time>
      </trkpt>
      <trkpt lat="49.806" lon="0.74538">
        <ele>78.8</ele>
        <time>2020-06-18T09:45:06Z</time>
      </trkpt>
      <trkpt lat="49.806" lon="0.74547">
        <ele>79.1</ele>
        <time>2020-06-18T09:45:07Z</time>
      </trkpt>
      <trkpt lat="49.80598" lon="0.74556">
        <ele>79.4</ele>
        <time>2020-06-18T09:45:08Z</time>
      </trkpt>
      <trkpt lat="49.80597" lon="0.74565">
        <ele>79.7</ele>
        <time>2020-06-18T09:45:09Z</time>
      </trkpt>
      <trkpt lat="49.80596" lon="0.74575">
        <ele>79.9</ele>
        <time>2020-06-18T09:45:10Z</time>
      </trkpt>
      <trkpt lat="49.80594" lon="0.74584">
        <ele>80.2</ele>
        <time>2020-06-18T09:45:11Z</time>
      </trkpt>
      <trkpt lat="49.80593" lon="0.74593">
        <ele>80.5</ele>
        <time>2020-06-18T09:45:12Z</time>
      </trkpt>
      <trkpt lat="49.80593" lon="0.74601">
        <ele>80.8</ele>
        <time>2020-06-18T09:45:13Z</time>
      </trkpt>
      <trkpt lat="49.80592" lon="0.74609">
        <ele>81</ele>
        <time>2020-06-18T09:45:14Z</time>
      </trkpt>
      <trkpt lat="49.80591" lon="0.74616">
        <ele>81.3</ele>
        <time>2020-06-18T09:45:15Z</time>
      </trkpt>
      <trkpt lat="49.8059" lon="0.74624">
        <ele>81.5</ele>
        <time>2020-06-18T09:45:16Z</time>
      </trkpt>
      <trkpt lat="49.8059" lon="0.74632">
        <ele>81.7</ele>
        <time>2020-06-18T09:45:17Z</time>
      </trkpt>
      <trkpt lat="49.8059" lon="0.74639">
        <ele>82</ele>
        <time>2020-06-18T09:45:18Z</time>
      </trkpt>
      <trkpt lat="49.80589" lon="0.74647">
        <ele>82.2</ele>
        <time>2020-06-18T09:45:19Z</time>
      </trkpt>
      <trkpt lat="49.80588" lon="0.74653">
        <ele>82.4</ele>
        <time>2020-06-18T09:45:20Z</time>
      </trkpt>
      <trkpt lat="49.80587" lon="0.7466">
        <ele>82.6</ele>
        <time>2020-06-18T09:45:21Z</time>
      </trkpt>
      <trkpt lat="49.80588" lon="0.74667">
        <ele>82.9</ele>
        <time>2020-06-18T09:45:22Z</time>
      </trkpt>
      <trkpt lat="49.80588" lon="0.74673">
        <ele>83.1</ele>
        <time>2020-06-18T09:45:23Z</time>
      </trkpt>
      <trkpt lat="49.80588" lon="0.74679">
        <ele>83.3</ele>
        <time>2020-06-18T09:45:24Z</time>
      </trkpt>
      <trkpt lat="49.80587" lon="0.74685">
        <ele>83.5</ele>
        <time>2020-06-18T09:45:25Z</time>
      </trkpt>
      <trkpt lat="49.80587" lon="0.74691">
        <ele>83.7</ele>
        <time>2020-06-18T09:45:26Z</time>
      </trkpt>
      <trkpt lat="49.80588" lon="0.74697">
        <ele>83.9</ele>
        <time>2020-06-18T09:45:27Z</time>
      </trkpt>
      <trkpt lat="49.80588" lon="0.74703">
        <ele>84.1</ele>
        <time>2020-06-18T09:45:28Z</time>
      </trkpt>
      <trkpt lat="49.8059" lon="0.74709">
        <ele>84.3</ele>
        <time>2020-06-18T09:45:29Z</time>
      </trkpt>
      <trkpt lat="49.80591" lon="0.74714">
        <ele>84.5</ele>
        <time>2020-06-18T09:45:30Z</time>
      </trkpt>
      <trkpt lat="49.80592" lon="0.7472">
        <ele>84.7</ele>
        <time>2020-06-18T09:45:31Z</time>
      </trkpt>
      <trkpt lat="49.80594" lon="0.74726">
        <ele>84.9</ele>
        <time>2020-06-18T09:45:32Z</time>
      </trkpt>
      <trkpt lat="49.80595" lon="0.74731">
        <ele>85.1</ele>
        <time>2020-06-18T09:45:33Z</time>
      </trkpt>
      <trkpt lat="49.80596" lon="0.74736">
        <ele>85.3</ele>
        <time>2020-06-18T09:45:34Z</time>
      </trkpt>
      <trkpt lat="49.80598" lon="0.74742">
        <ele>85.5</ele>
        <time>2020-06-18T09:45:35Z</time>
      </trkpt>
      <trkpt lat="49.80599" lon="0.74747">
        <ele>85.7</ele>
        <time>2020-06-18T09:45:36Z</time>
      </trkpt>
      <trkpt lat="49.806" lon="0.74753">
        <ele>85.9</ele>
        <time>2020-06-18T09:45:37Z</time>
      </trkpt>
      <trkpt lat="49.80601" lon="0.74759">
        <ele>86.1</ele>
        <time>2020-06-18T09:45:38Z</time>
      </trkpt>
      <trkpt lat="49.80602" lon="0.74765">
        <ele>86.3</ele>
        <time>2020-06-18T09:45:39Z</time>
      </trkpt>
      <trkpt lat="49.80604" lon="0.7477">
        <ele>86.5</ele>
        <time>2020-06-18T09:45:40Z</time>
      </trkpt>
      <trkpt lat="49.80605" lon="0.74776">
        <ele>86.7</ele>
        <time>2020-06-18T09:45:41Z</time>
      </trkpt>
      <trkpt lat="49.80608" lon="0.74783">
        <ele>87</ele>
        <time>2020-06-18T09:45:42Z</time>
      </trkpt>
      <trkpt lat="49.80609" lon="0.74788">
        <ele>87.2</ele>
        <time>2020-06-18T09:45:43Z</time>
      </trkpt>
      <trkpt lat="49.80611" lon="0.74795">
        <ele>87.4</ele>
        <time>2020-06-18T09:45:44Z</time>
      </trkpt>
      <trkpt lat="49.80613" lon="0.74802">
        <ele>87.6</ele>
        <time>2020-06-18T09:45:45Z</time>
      </trkpt>
      <trkpt lat="49.80615" lon="0.74809">
        <ele>87.8</ele>
        <time>2020-06-18T09:45:46Z</time>
      </trkpt>
      <trkpt lat="49.80617" lon="0.74814">
        <ele>88</ele>
        <time>2020-06-18T09:45:47Z</time>
      </trkpt>
      <trkpt lat="49.80618" lon="0.7482">
        <ele>88.2</ele>
        <time>2020-06-18T09:45:48Z</time>
      </trkpt>
      <trkpt lat="49.80621" lon="0.74825">
        <ele>88.4</ele>
        <time>2020-06-18T09:45:49Z</time>
      </trkpt>
      <trkpt lat="49.80623" lon="0.74831">
        <ele>88.6</ele>
        <time>2020-06-18T09:45:50Z</time>
      </trkpt>
      <trkpt lat="49.80625" lon="0.74837">
        <ele>88.9</ele>
        <time>2020-06-18T09:45:51Z</time>
      </trkpt>
      <trkpt lat="49.80627" lon="0.74842">
        <ele>89.1</ele>
        <time>2020-06-18T09:45:52Z</time>
      </trkpt>
      <trkpt lat="49.80629" lon="0.7485">
        <ele>89.4</ele>
        <time>2020-06-18T09:45:53Z</time>
      </trkpt>
      <trkpt lat="49.80631" lon="0.74856">
        <ele>89.6</ele>
        <time>2020-06-18T09:45:54Z</time>
      </trkpt>
      <trkpt lat="49.80634" lon="0.74862">
        <ele>89.8</ele>
        <time>2020-06-18T09:45:55Z</time>
      </trkpt>
      <trkpt lat="49.80635" lon="0.74868">
        <ele>90.1</ele>
        <time>2020-06-18T09:45:56Z</time>
      </trkpt>
      <trkpt lat="49.80637" lon="0.74873">
        <ele>90.3</ele>
        <time>2020-06-18T09:45:57Z</time>
      </trkpt>
      <trkpt lat="49.80639" lon="0.74879">
        <ele>90.5</ele>
        <time>2020-06-18T09:45:58Z</time>
      </trkpt>
      <trkpt lat="49.80641" lon="0.74884">
        <ele>90.7</ele>
        <time>2020-06-18T09:45:59Z</time>
      </trkpt>
      <trkpt lat="49.80643" lon="0.7489">
        <ele>90.9</ele>
        <time>2020-06-18T09:46:00Z</time>
      </trkpt>
      <trkpt lat="49.80645" lon="0.74897">
        <ele>91.1</ele>
        <time>2020-06-18T09:46:01Z</time>
      </trkpt>
      <trkpt lat="49.80648" lon="0.74902">
        <ele>91.3</ele>
        <time>2020-06-18T09:46:02Z</time>
      </trkpt>
      <trkpt lat="49.8065" lon="0.74909">
        <ele>91.5</ele>
        <time>2020-06-18T09:46:03Z</time>
      </trkpt>
      <trkpt lat="49.80653" lon="0.74915">
        <ele>91.7</ele>
        <time>2020-06-18T09:46:04Z</time>
      </trkpt>
      <trkpt lat="49.80654" lon="0.74921">
        <ele>91.9</ele>
        <time>2020-06-18T09:46:05Z</time>
      </trkpt>
      <trkpt lat="49.80657" lon="0.74927">
        <ele>92.1</ele>
        <time>2020-06-18T09:46:06Z</time>
      </trkpt>
      <trkpt lat="49.80659" lon="0.74934">
        <ele>92.3</ele>
        <time>2020-06-18T09:46:07Z</time>
      </trkpt>
      <trkpt lat="49.80661" lon="0.7494">
        <ele>92.5</ele>
        <time>2020-06-18T09:46:08Z</time>
      </trkpt>
      <trkpt lat="49.80663" lon="0.74945">
        <ele>92.7</ele>
        <time>2020-06-18T09:46:09Z</time>
      </trkpt>
      <trkpt lat="49.80665" lon="0.74951">
        <ele>92.8</ele>
        <time>2020-06-18T09:46:10Z</time>
      </trkpt>
      <trkpt lat="49.80668" lon="0.74958">
        <ele>93</ele>
        <time>2020-06-18T09:46:11Z</time>
      </trkpt>
      <trkpt lat="49.8067" lon="0.74964">
        <ele>93.2</ele>
        <time>2020-06-18T09:46:12Z</time>
      </trkpt>
      <trkpt lat="49.80671" lon="0.74968">
        <ele>93.3</ele>
        <time>2020-06-18T09:46:13Z</time>
      </trkpt>
      <trkpt lat="49.80674" lon="0.74975">
        <ele>93.5</ele>
        <time>2020-06-18T09:46:14Z</time>
      </trkpt>
      <trkpt lat="49.80675" lon="0.7498">
        <ele>93.6</ele>
        <time>2020-06-18T09:46:15Z</time>
      </trkpt>
      <trkpt lat="49.80677" lon="0.74986">
        <ele>93.8</ele>
        <time>2020-06-18T09:46:16Z</time>
      </trkpt>
      <trkpt lat="49.8068" lon="0.74992">
        <ele>94</ele>
        <time>2020-06-18T09:46:17Z</time>
      </trkpt>
      <trkpt lat="49.80682" lon="0.74996">
        <ele>94.1</ele>
        <time>2020-06-18T09:46:18Z</time>
      </trkpt>
      <trkpt lat="49.80684" lon="0.75002">
        <ele>94.2</ele>
        <time>2020-06-18T09:46:19Z</time>
      </trkpt>
      <trkpt lat="49.80686" lon="0.75008">
        <ele>94.3</ele>
        <time>2020-06-18T09:46:20Z</time>
      </trkpt>
      <trkpt lat="49.80689" lon="0.75015">
        <ele>94.5</ele>
        <time>2020-06-18T09:46:21Z</time>
      </trkpt>
      <trkpt lat="49.80691" lon="0.75022">
        <ele>94.6</ele>
        <time>2020-06-18T09:46:22Z</time>
      </trkpt>
      <trkpt lat="49.80692" lon="0.75028">
        <ele>94.7</ele>
        <time>2020-06-18T09:46:23Z</time>
      </trkpt>
      <trkpt lat="49.80694" lon="0.75034">
        <ele>94.8</ele>
        <time>2020-06-18T09:46:24Z</time>
      </trkpt>
      <trkpt lat="49.80696" lon="0.7504">
        <ele>94.9</ele>
        <time>2020-06-18T09:46:25Z</time>
      </trkpt>
      <trkpt lat="49.80698" lon="0.75047">
        <ele>95</ele>
        <time>2020-06-18T09:46:26Z</time>
      </trkpt>
      <trkpt lat="49.807" lon="0.75053">
        <ele>95.1</ele>
        <time>2020-06-18T09:46:27Z</time>
      </trkpt>
      <trkpt lat="49.80703" lon="0.75059">
        <ele>95.2</ele>
        <time>2020-06-18T09:46:28Z</time>
      </trkpt>
      <trkpt lat="49.80706" lon="0.75066">
        <ele>95.3</ele>
        <time>2020-06-18T09:46:29Z</time>
      </trkpt>
      <trkpt lat="49.80708" lon="0.7507">
        <ele>95.3</ele>
        <time>2020-06-18T09:46:30Z</time>
      </trkpt>
      <trkpt lat="49.8071" lon="0.75077">
        <ele>95.4</ele>
        <time>2020-06-18T09:46:31Z</time>
      </trkpt>
      <trkpt lat="49.80713" lon="0.75081">
        <ele>95.4</ele>
        <time>2020-06-18T09:46:32Z</time>
      </trkpt>
      <trkpt lat="49.80715" lon="0.75087">
        <ele>95.5</ele>
        <time>2020-06-18T09:46:33Z</time>
      </trkpt>
      <trkpt lat="49.80718" lon="0.75093">
        <ele>95.5</ele>
        <time>2020-06-18T09:46:34Z</time>
      </trkpt>
      <trkpt lat="49.8072" lon="0.75099">
        <ele>95.6</ele>
        <time>2020-06-18T09:46:35Z</time>
      </trkpt>
      <trkpt lat="49.80723" lon="0.75106">
        <ele>95.7</ele>
        <time>2020-06-18T09:46:36Z</time>
      </trkpt>
      <trkpt lat="49.80725" lon="0.75113">
        <ele>95.7</ele>
        <time>2020-06-18T09:46:37Z</time>
      </trkpt>
      <trkpt lat="49.80727" lon="0.7512">
        <ele>95.8</ele>
        <time>2020-06-18T09:46:38Z</time>
      </trkpt>
      <trkpt lat="49.8073" lon="0.75126">
        <ele>95.8</ele>
        <time>2020-06-18T09:46:39Z</time>
      </trkpt>
      <trkpt lat="49.80733" lon="0.75132">
        <ele>95.9</ele>
        <time>2020-06-18T09:46:40Z</time>
      </trkpt>
      <trkpt lat="49.80735" lon="0.75138">
        <ele>95.9</ele>
        <time>2020-06-18T09:46:41Z</time>
      </trkpt>
      <trkpt lat="49.80738" lon="0.75145">
        <ele>96</ele>
        <time>2020-06-18T09:46:42Z</time>
      </trkpt>
      <trkpt lat="49.8074" lon="0.7515">
        <ele>96</ele>
        <time>2020-06-18T09:46:43Z</time>
      </trkpt>
      <trkpt lat="49.80742" lon="0.75156">
        <ele>96</ele>
        <time>2020-06-18T09:46:44Z</time>
      </trkpt>
      <trkpt lat="49.80745" lon="0.75163">
        <ele>96.1</ele>
        <time>2020-06-18T09:46:45Z</time>
      </trkpt>
      <trkpt lat="49.80748" lon="0.75168">
        <ele>96.1</ele>
        <time>2020-06-18T09:46:46Z</time>
      </trkpt>
      <trkpt lat="49.8075" lon="0.75174">
        <ele>96.2</ele>
        <time>2020-06-18T09:46:47Z</time>
      </trkpt>
      <trkpt lat="49.80752" lon="0.7518">
        <ele>96.2</ele>
        <time>2020-06-18T09:46:48Z</time>
      </trkpt>
      <trkpt lat="49.80754" lon="0.75187">
        <ele>96.3</ele>
        <time>2020-06-18T09:46:49Z</time>
      </trkpt>
      <trkpt lat="49.80757" lon="0.75193">
        <ele>96.3</ele>
        <time>2020-06-18T09:46:50Z</time>
      </trkpt>
      <trkpt lat="49.80759" lon="0.75199">
        <ele>96.4</ele>
        <time>2020-06-18T09:46:51Z</time>
      </trkpt>
      <trkpt lat="49.80761" lon="0.75205">
        <ele>96.4</ele>
        <time>2020-06-18T09:46:52Z</time>
      </trkpt>
      <trkpt lat="49.80762" lon="0.75211">
        <ele>96.4</ele>
        <time>2020-06-18T09:46:53Z</time>
      </trkpt>
      <trkpt lat="49.80764" lon="0.75217">
        <ele>96.5</ele>
        <time>2020-06-18T09:46:54Z</time>
      </trkpt>
      <trkpt lat="49.80767" lon="0.75224">
        <ele>96.5</ele>
        <time>2020-06-18T09:46:55Z</time>
      </trkpt>
      <trkpt lat="49.8077" lon="0.75231">
        <ele>96.6</ele>
        <time>2020-06-18T09:46:56Z</time>
      </trkpt>
      <trkpt lat="49.80772" lon="0.75238">
        <ele>96.7</ele>
        <time>2020-06-18T09:46:57Z</time>
      </trkpt>
      <trkpt lat="49.80775" lon="0.75244">
        <ele>96.7</ele>
        <time>2020-06-18T09:46:58Z</time>
      </trkpt>
      <trkpt lat="49.80777" lon="0.7525">
        <ele>96.8</ele>
        <time>2020-06-18T09:46:59Z</time>
      </trkpt>
      <trkpt lat="49.8078" lon="0.75257">
        <ele>96.9</ele>
        <time>2020-06-18T09:47:00Z</time>
      </trkpt>
      <trkpt lat="49.80782" lon="0.75263">
        <ele>97</ele>
        <time>2020-06-18T09:47:01Z</time>
      </trkpt>
      <trkpt lat="49.80785" lon="0.75269">
        <ele>97.1</ele>
        <time>2020-06-18T09:47:02Z</time>
      </trkpt>
      <trkpt lat="49.80787" lon="0.75276">
        <ele>97.2</ele>
        <time>2020-06-18T09:47:03Z</time>
      </trkpt>
      <trkpt lat="49.80788" lon="0.75284">
        <ele>97.3</ele>
        <time>2020-06-18T09:47:04Z</time>
      </trkpt>
      <trkpt lat="49.8079" lon="0.75291">
        <ele>97.4</ele>
        <time>2020-06-18T09:47:05Z</time>
      </trkpt>
      <trkpt lat="49.80791" lon="0.75298">
        <ele>97.5</ele>
        <time>2020-06-18T09:47:06Z</time>
      </trkpt>
      <trkpt lat="49.80792" lon="0.75306">
        <ele>97.6</ele>
        <time>2020-06-18T09:47:07Z</time>
      </trkpt>
      <trkpt lat="49.80794" lon="0.75314">
        <ele>97.7</ele>
        <time>2020-06-18T09:47:08Z</time>
      </trkpt>
      <trkpt lat="49.80796" lon="0.7532">
        <ele>97.6</ele>
        <time>2020-06-18T09:47:09Z</time>
      </trkpt>
      <trkpt lat="49.80797" lon="0.75325">
        <ele>97.6</ele>
        <time>2020-06-18T09:47:10Z</time>
      </trkpt>
      <trkpt lat="49.80798" lon="0.75332">
        <ele>97.7</ele>
        <time>2020-06-18T09:47:11Z</time>
      </trkpt>
      <trkpt lat="49.808" lon="0.75338">
        <ele>97.7</ele>
        <time>2020-06-18T09:47:12Z</time>
      </trkpt>
      <trkpt lat="49.80802" lon="0.75344">
        <ele>97.7</ele>
        <time>2020-06-18T09:47:13Z</time>
      </trkpt>
      <trkpt lat="49.80803" lon="0.7535">
        <ele>97.7</ele>
        <time>2020-06-18T09:47:14Z</time>
      </trkpt>
      <trkpt lat="49.80805" lon="0.75356">
        <ele>97.7</ele>
        <time>2020-06-18T09:47:15Z</time>
      </trkpt>
      <trkpt lat="49.80808" lon="0.75364">
        <ele>97.6</ele>
        <time>2020-06-18T09:47:16Z</time>
      </trkpt>
      <trkpt lat="49.8081" lon="0.7537">
        <ele>97.6</ele>
        <time>2020-06-18T09:47:17Z</time>
      </trkpt>
      <trkpt lat="49.80814" lon="0.75376">
        <ele>97.6</ele>
        <time>2020-06-18T09:47:18Z</time>
      </trkpt>
      <trkpt lat="49.80818" lon="0.75381">
        <ele>97.7</ele>
        <time>2020-06-18T09:47:19Z</time>
      </trkpt>
      <trkpt lat="49.80821" lon="0.75388">
        <ele>97.7</ele>
        <time>2020-06-18T09:47:20Z</time>
      </trkpt>
      <trkpt lat="49.80824" lon="0.75393">
        <ele>97.8</ele>
        <time>2020-06-18T09:47:21Z</time>
      </trkpt>
      <trkpt lat="49.80827" lon="0.75399">
        <ele>97.8</ele>
        <time>2020-06-18T09:47:22Z</time>
      </trkpt>
      <trkpt lat="49.80829" lon="0.75406">
        <ele>97.9</ele>
        <time>2020-06-18T09:47:23Z</time>
      </trkpt>
      <trkpt lat="49.80831" lon="0.75413">
        <ele>98</ele>
        <time>2020-06-18T09:47:24Z</time>
      </trkpt>
      <trkpt lat="49.80833" lon="0.7542">
        <ele>98.1</ele>
        <time>2020-06-18T09:47:25Z</time>
      </trkpt>
      <trkpt lat="49.80835" lon="0.75428">
        <ele>98.2</ele>
        <time>2020-06-18T09:47:26Z</time>
      </trkpt>
      <trkpt lat="49.80836" lon="0.75435">
        <ele>98.4</ele>
        <time>2020-06-18T09:47:27Z</time>
      </trkpt>
      <trkpt lat="49.80839" lon="0.75443">
        <ele>98.5</ele>
        <time>2020-06-18T09:47:28Z</time>
      </trkpt>
      <trkpt lat="49.80841" lon="0.75449">
        <ele>98.7</ele>
        <time>2020-06-18T09:47:29Z</time>
      </trkpt>
      <trkpt lat="49.80843" lon="0.75456">
        <ele>98.8</ele>
        <time>2020-06-18T09:47:30Z</time>
      </trkpt>
      <trkpt lat="49.80845" lon="0.75464">
        <ele>98.9</ele>
        <time>2020-06-18T09:47:31Z</time>
      </trkpt>
      <trkpt lat="49.80847" lon="0.75472">
        <ele>99.1</ele>
        <time>2020-06-18T09:47:32Z</time>
      </trkpt>
      <trkpt lat="49.8085" lon="0.7548">
        <ele>99.2</ele>
        <time>2020-06-18T09:47:33Z</time>
      </trkpt>
      <trkpt lat="49.80852" lon="0.75488">
        <ele>99.3</ele>
        <time>2020-06-18T09:47:34Z</time>
      </trkpt>
      <trkpt lat="49.80855" lon="0.75495">
        <ele>99.5</ele>
        <time>2020-06-18T09:47:35Z</time>
      </trkpt>
      <trkpt lat="49.80858" lon="0.75503">
        <ele>99.6</ele>
        <time>2020-06-18T09:47:36Z</time>
      </trkpt>
      <trkpt lat="49.80861" lon="0.75511">
        <ele>99.8</ele>
        <time>2020-06-18T09:47:37Z</time>
      </trkpt>
      <trkpt lat="49.80864" lon="0.7552">
        <ele>100</ele>
        <time>2020-06-18T09:47:38Z</time>
      </trkpt>
      <trkpt lat="49.80866" lon="0.75527">
        <ele>100.1</ele>
        <time>2020-06-18T09:47:39Z</time>
      </trkpt>
      <trkpt lat="49.80867" lon="0.75535">
        <ele>100.2</ele>
        <time>2020-06-18T09:47:40Z</time>
      </trkpt>
      <trkpt lat="49.80868" lon="0.75542">
        <ele>100.3</ele>
        <time>2020-06-18T09:47:41Z</time>
      </trkpt>
      <trkpt lat="49.8087" lon="0.7555">
        <ele>100.4</ele>
        <time>2020-06-18T09:47:42Z</time>
      </trkpt>
      <trkpt lat="49.80872" lon="0.75557">
        <ele>100.5</ele>
        <time>2020-06-18T09:47:43Z</time>
      </trkpt>
      <trkpt lat="49.80875" lon="0.75564">
        <ele>100.6</ele>
        <time>2020-06-18T09:47:44Z</time>
      </trkpt>
      <trkpt lat="49.80878" lon="0.75572">
        <ele>100.7</ele>
        <time>2020-06-18T09:47:45Z</time>
      </trkpt>
      <trkpt lat="49.8088" lon="0.75579">
        <ele>100.7</ele>
        <time>2020-06-18T09:47:46Z</time>
      </trkpt>
      <trkpt lat="49.80882" lon="0.75586">
        <ele>100.8</ele>
        <time>2020-06-18T09:47:47Z</time>
      </trkpt>
      <trkpt lat="49.80885" lon="0.75594">
        <ele>100.8</ele>
        <time>2020-06-18T09:47:48Z</time>
      </trkpt>
      <trkpt lat="49.80888" lon="0.75602">
        <ele>100.8</ele>
        <time>2020-06-18T09:47:49Z</time>
      </trkpt>
      <trkpt lat="49.8089" lon="0.75611">
        <ele>100.8</ele>
        <time>2020-06-18T09:47:50Z</time>
      </trkpt>
      <trkpt lat="49.80892" lon="0.7562">
        <ele>100.8</ele>
        <time>2020-06-18T09:47:51Z</time>
      </trkpt>
      <trkpt lat="49.80895" lon="0.75629">
        <ele>100.7</ele>
        <time>2020-06-18T09:47:52Z</time>
      </trkpt>
      <trkpt lat="49.80898" lon="0.75638">
        <ele>100.7</ele>
        <time>2020-06-18T09:47:53Z</time>
      </trkpt>
      <trkpt lat="49.80901" lon="0.75646">
        <ele>100.7</ele>
        <time>2020-06-18T09:47:54Z</time>
      </trkpt>
      <trkpt lat="49.80903" lon="0.75655">
        <ele>100.6</ele>
        <time>2020-06-18T09:47:55Z</time>
      </trkpt>
      <trkpt lat="49.80905" lon="0.75663">
        <ele>100.6</ele>
        <time>2020-06-18T09:47:56Z</time>
      </trkpt>
      <trkpt lat="49.80907" lon="0.75671">
        <ele>100.5</ele>
        <time>2020-06-18T09:47:57Z</time>
      </trkpt>
      <trkpt lat="49.8091" lon="0.7568">
        <ele>100.4</ele>
        <time>2020-06-18T09:47:58Z</time>
      </trkpt>
      <trkpt lat="49.80913" lon="0.75688">
        <ele>100.3</ele>
        <time>2020-06-18T09:47:59Z</time>
      </trkpt>
      <trkpt lat="49.80916" lon="0.75695">
        <ele>100.2</ele>
        <time>2020-06-18T09:48:00Z</time>
      </trkpt>
      <trkpt lat="49.80918" lon="0.75703">
        <ele>100.1</ele>
        <time>2020-06-18T09:48:01Z</time>
      </trkpt>
      <trkpt lat="49.80921" lon="0.75712">
        <ele>100</ele>
        <time>2020-06-18T09:48:02Z</time>
      </trkpt>
      <trkpt lat="49.80924" lon="0.7572">
        <ele>99.9</ele>
        <time>2020-06-18T09:48:03Z</time>
      </trkpt>
      <trkpt lat="49.80926" lon="0.75729">
        <ele>99.8</ele>
        <time>2020-06-18T09:48:04Z</time>
      </trkpt>
      <trkpt lat="49.8093" lon="0.75739">
        <ele>99.7</ele>
        <time>2020-06-18T09:48:05Z</time>
      </trkpt>
      <trkpt lat="49.80932" lon="0.75747">
        <ele>99.6</ele>
        <time>2020-06-18T09:48:06Z</time>
      </trkpt>
      <trkpt lat="49.80935" lon="0.75757">
        <ele>99.5</ele>
        <time>2020-06-18T09:48:07Z</time>
      </trkpt>
      <trkpt lat="49.80938" lon="0.75767">
        <ele>99.3</ele>
        <time>2020-06-18T09:48:08Z</time>
      </trkpt>
      <trkpt lat="49.8094" lon="0.75777">
        <ele>99</ele>
        <time>2020-06-18T09:48:09Z</time>
      </trkpt>
      <trkpt lat="49.80943" lon="0.75786">
        <ele>98.7</ele>
        <time>2020-06-18T09:48:10Z</time>
      </trkpt>
      <trkpt lat="49.80947" lon="0.75796">
        <ele>98.4</ele>
        <time>2020-06-18T09:48:11Z</time>
      </trkpt>
      <trkpt lat="49.8095" lon="0.75806">
        <ele>98.2</ele>
        <time>2020-06-18T09:48:12Z</time>
      </trkpt>
      <trkpt lat="49.80952" lon="0.75816">
        <ele>97.9</ele>
        <time>2020-06-18T09:48:13Z</time>
      </trkpt>
      <trkpt lat="49.80955" lon="0.75827">
        <ele>97.7</ele>
        <time>2020-06-18T09:48:14Z</time>
      </trkpt>
      <trkpt lat="49.80957" lon="0.75837">
        <ele>97.4</ele>
        <time>2020-06-18T09:48:15Z</time>
      </trkpt>
      <trkpt lat="49.8096" lon="0.75847">
        <ele>97.1</ele>
        <time>2020-06-18T09:48:16Z</time>
      </trkpt>
      <trkpt lat="49.80962" lon="0.75858">
        <ele>96.8</ele>
        <time>2020-06-18T09:48:17Z</time>
      </trkpt>
      <trkpt lat="49.80964" lon="0.75869">
        <ele>96.5</ele>
        <time>2020-06-18T09:48:18Z</time>
      </trkpt>
      <trkpt lat="49.80966" lon="0.7588">
        <ele>96.2</ele>
        <time>2020-06-18T09:48:19Z</time>
      </trkpt>
      <trkpt lat="49.80968" lon="0.75892">
        <ele>95.9</ele>
        <time>2020-06-18T09:48:20Z</time>
      </trkpt>
      <trkpt lat="49.8097" lon="0.75903">
        <ele>95.5</ele>
        <time>2020-06-18T09:48:21Z</time>
      </trkpt>
      <trkpt lat="49.80971" lon="0.75915">
        <ele>95.2</ele>
        <time>2020-06-18T09:48:22Z</time>
      </trkpt>
      <trkpt lat="49.80973" lon="0.75926">
        <ele>94.9</ele>
        <time>2020-06-18T09:48:23Z</time>
      </trkpt>
      <trkpt lat="49.80974" lon="0.75939">
        <ele>94.6</ele>
        <time>2020-06-18T09:48:24Z</time>
      </trkpt>
      <trkpt lat="49.80976" lon="0.75951">
        <ele>94.2</ele>
        <time>2020-06-18T09:48:25Z</time>
      </trkpt>
      <trkpt lat="49.80978" lon="0.75963">
        <ele>93.9</ele>
        <time>2020-06-18T09:48:26Z</time>
      </trkpt>
      <trkpt lat="49.80979" lon="0.75977">
        <ele>93.5</ele>
        <time>2020-06-18T09:48:27Z</time>
      </trkpt>
      <trkpt lat="49.80981" lon="0.7599">
        <ele>93.2</ele>
        <time>2020-06-18T09:48:28Z</time>
      </trkpt>
      <trkpt lat="49.80982" lon="0.76002">
        <ele>92.8</ele>
        <time>2020-06-18T09:48:29Z</time>
      </trkpt>
      <trkpt lat="49.80984" lon="0.76015">
        <ele>92.5</ele>
        <time>2020-06-18T09:48:30Z</time>
      </trkpt>
      <trkpt lat="49.80986" lon="0.76028">
        <ele>92.1</ele>
        <time>2020-06-18T09:48:31Z</time>
      </trkpt>
      <trkpt lat="49.80988" lon="0.76041">
        <ele>91.8</ele>
        <time>2020-06-18T09:48:32Z</time>
      </trkpt>
      <trkpt lat="49.80989" lon="0.76055">
        <ele>91.4</ele>
        <time>2020-06-18T09:48:33Z</time>
      </trkpt>
      <trkpt lat="49.80991" lon="0.76068">
        <ele>91</ele>
        <time>2020-06-18T09:48:34Z</time>
      </trkpt>
      <trkpt lat="49.80992" lon="0.76081">
        <ele>90.7</ele>
        <time>2020-06-18T09:48:35Z</time>
      </trkpt>
      <trkpt lat="49.80993" lon="0.76095">
        <ele>90.3</ele>
        <time>2020-06-18T09:48:36Z</time>
      </trkpt>
      <trkpt lat="49.80995" lon="0.76108">
        <ele>89.9</ele>
        <time>2020-06-18T09:48:37Z</time>
      </trkpt>
      <trkpt lat="49.80997" lon="0.76122">
        <ele>89.5</ele>
        <time>2020-06-18T09:48:38Z</time>
      </trkpt>
      <trkpt lat="49.80998" lon="0.76135">
        <ele>89.2</ele>
        <time>2020-06-18T09:48:39Z</time>
      </trkpt>
      <trkpt lat="49.81" lon="0.76149">
        <ele>88.8</ele>
        <time>2020-06-18T09:48:40Z</time>
      </trkpt>
      <trkpt lat="49.81002" lon="0.76163">
        <ele>88.4</ele>
        <time>2020-06-18T09:48:41Z</time>
      </trkpt>
      <trkpt lat="49.81003" lon="0.76177">
        <ele>88</ele>
        <time>2020-06-18T09:48:42Z</time>
      </trkpt>
      <trkpt lat="49.81004" lon="0.76191">
        <ele>87.6</ele>
        <time>2020-06-18T09:48:43Z</time>
      </trkpt>
      <trkpt lat="49.81005" lon="0.76205">
        <ele>87.2</ele>
        <time>2020-06-18T09:48:44Z</time>
      </trkpt>
      <trkpt lat="49.81007" lon="0.76219">
        <ele>86.9</ele>
        <time>2020-06-18T09:48:45Z</time>
      </trkpt>
      <trkpt lat="49.81009" lon="0.76233">
        <ele>86.5</ele>
        <time>2020-06-18T09:48:46Z</time>
      </trkpt>
      <trkpt lat="49.8101" lon="0.76247">
        <ele>86</ele>
        <time>2020-06-18T09:48:47Z</time>
      </trkpt>
      <trkpt lat="49.81011" lon="0.76261">
        <ele>85.6</ele>
        <time>2020-06-18T09:48:48Z</time>
      </trkpt>
      <trkpt lat="49.81011" lon="0.76275">
        <ele>85.2</ele>
        <time>2020-06-18T09:48:49Z</time>
      </trkpt>
      <trkpt lat="49.81012" lon="0.76289">
        <ele>84.8</ele>
        <time>2020-06-18T09:48:50Z</time>
      </trkpt>
      <trkpt lat="49.81012" lon="0.76303">
        <ele>84.5</ele>
        <time>2020-06-18T09:48:51Z</time>
      </trkpt>
      <trkpt lat="49.81013" lon="0.76317">
        <ele>84.1</ele>
        <time>2020-06-18T09:48:52Z</time>
      </trkpt>
      <trkpt lat="49.81013" lon="0.76331">
        <ele>83.9</ele>
        <time>2020-06-18T09:48:53Z</time>
      </trkpt>
      <trkpt lat="49.81014" lon="0.76346">
        <ele>83.6</ele>
        <time>2020-06-18T09:48:54Z</time>
      </trkpt>
      <trkpt lat="49.81014" lon="0.7636">
        <ele>83.3</ele>
        <time>2020-06-18T09:48:55Z</time>
      </trkpt>
      <trkpt lat="49.81013" lon="0.76374">
        <ele>83</ele>
        <time>2020-06-18T09:48:56Z</time>
      </trkpt>
      <trkpt lat="49.81013" lon="0.76388">
        <ele>82.8</ele>
        <time>2020-06-18T09:48:57Z</time>
      </trkpt>
      <trkpt lat="49.81013" lon="0.76402">
        <ele>82.7</ele>
        <time>2020-06-18T09:48:58Z</time>
      </trkpt>
      <trkpt lat="49.81013" lon="0.76416">
        <ele>82.5</ele>
        <time>2020-06-18T09:48:59Z</time>
      </trkpt>
      <trkpt lat="49.81012" lon="0.7643">
        <ele>82.4</ele>
        <time>2020-06-18T09:49:00Z</time>
      </trkpt>
      <trkpt lat="49.81011" lon="0.76444">
        <ele>82.2</ele>
        <time>2020-06-18T09:49:01Z</time>
      </trkpt>
      <trkpt lat="49.8101" lon="0.76458">
        <ele>82.1</ele>
        <time>2020-06-18T09:49:02Z</time>
      </trkpt>
      <trkpt lat="49.81009" lon="0.76472">
        <ele>82.1</ele>
        <time>2020-06-18T09:49:03Z</time>
      </trkpt>
      <trkpt lat="49.81008" lon="0.76486">
        <ele>82.1</ele>
        <time>2020-06-18T09:49:04Z</time>
      </trkpt>
      <trkpt lat="49.81007" lon="0.765">
        <ele>82.1</ele>
        <time>2020-06-18T09:49:05Z</time>
      </trkpt>
      <trkpt lat="49.81005" lon="0.76514">
        <ele>82.1</ele>
        <time>2020-06-18T09:49:06Z</time>
      </trkpt>
      <trkpt lat="49.81003" lon="0.76528">
        <ele>82.1</ele>
        <time>2020-06-18T09:49:07Z</time>
      </trkpt>
      <trkpt lat="49.81001" lon="0.76542">
        <ele>82.2</ele>
        <time>2020-06-18T09:49:08Z</time>
      </trkpt>
      <trkpt lat="49.80999" lon="0.76556">
        <ele>82.2</ele>
        <time>2020-06-18T09:49:09Z</time>
      </trkpt>
      <trkpt lat="49.80998" lon="0.76571">
        <ele>82.3</ele>
        <time>2020-06-18T09:49:10Z</time>
      </trkpt>
      <trkpt lat="49.80997" lon="0.76586">
        <ele>82.4</ele>
        <time>2020-06-18T09:49:11Z</time>
      </trkpt>
      <trkpt lat="49.80996" lon="0.76601">
        <ele>82.4</ele>
        <time>2020-06-18T09:49:12Z</time>
      </trkpt>
      <trkpt lat="49.80995" lon="0.76615">
        <ele>82.5</ele>
        <time>2020-06-18T09:49:13Z</time>
      </trkpt>
      <trkpt lat="49.80993" lon="0.76629">
        <ele>82.5</ele>
        <time>2020-06-18T09:49:14Z</time>
      </trkpt>
      <trkpt lat="49.80992" lon="0.76643">
        <ele>82.6</ele>
        <time>2020-06-18T09:49:15Z</time>
      </trkpt>
      <trkpt lat="49.80991" lon="0.76657">
        <ele>82.7</ele>
        <time>2020-06-18T09:49:16Z</time>
      </trkpt>
      <trkpt lat="49.8099" lon="0.7667">
        <ele>82.8</ele>
        <time>2020-06-18T09:49:17Z</time>
      </trkpt>
      <trkpt lat="49.80989" lon="0.76684">
        <ele>82.8</ele>
        <time>2020-06-18T09:49:18Z</time>
      </trkpt>
      <trkpt lat="49.80988" lon="0.76697">
        <ele>82.8</ele>
        <time>2020-06-18T09:49:19Z</time>
      </trkpt>
      <trkpt lat="49.80987" lon="0.7671">
        <ele>82.8</ele>
        <time>2020-06-18T09:49:20Z</time>
      </trkpt>
      <trkpt lat="49.80986" lon="0.76723">
        <ele>82.8</ele>
        <time>2020-06-18T09:49:21Z</time>
      </trkpt>
      <trkpt lat="49.80985" lon="0.76736">
        <ele>82.8</ele>
        <time>2020-06-18T09:49:22Z</time>
      </trkpt>
      <trkpt lat="49.80984" lon="0.76748">
        <ele>82.8</ele>
        <time>2020-06-18T09:49:23Z</time>
      </trkpt>
      <trkpt lat="49.80984" lon="0.76761">
        <ele>82.7</ele>
        <time>2020-06-18T09:49:24Z</time>
      </trkpt>
      <trkpt lat="49.80983" lon="0.76774">
        <ele>82.6</ele>
        <time>2020-06-18T09:49:25Z</time>
      </trkpt>
      <trkpt lat="49.80983" lon="0.76787">
        <ele>82.5</ele>
        <time>2020-06-18T09:49:26Z</time>
      </trkpt>
      <trkpt lat="49.80984" lon="0.768">
        <ele>82.4</ele>
        <time>2020-06-18T09:49:27Z</time>
      </trkpt>
      <trkpt lat="49.80984" lon="0.76812">
        <ele>82.3</ele>
        <time>2020-06-18T09:49:28Z</time>
      </trkpt>
      <trkpt lat="49.80985" lon="0.76825">
        <ele>82</ele>
        <time>2020-06-18T09:49:29Z</time>
      </trkpt>
      <trkpt lat="49.80985" lon="0.76837">
        <ele>81.8</ele>
        <time>2020-06-18T09:49:30Z</time>
      </trkpt>
      <trkpt lat="49.80987" lon="0.7685">
        <ele>81.6</ele>
        <time>2020-06-18T09:49:31Z</time>
      </trkpt>
      <trkpt lat="49.80989" lon="0.76862">
        <ele>81.3</ele>
        <time>2020-06-18T09:49:32Z</time>
      </trkpt>
      <trkpt lat="49.80991" lon="0.76874">
        <ele>81</ele>
        <time>2020-06-18T09:49:33Z</time>
      </trkpt>
      <trkpt lat="49.80993" lon="0.76887">
        <ele>80.7</ele>
        <time>2020-06-18T09:49:34Z</time>
      </trkpt>
      <trkpt lat="49.80996" lon="0.76899">
        <ele>80.4</ele>
        <time>2020-06-18T09:49:35Z</time>
      </trkpt>
      <trkpt lat="49.80998" lon="0.76911">
        <ele>80.1</ele>
        <time>2020-06-18T09:49:36Z</time>
      </trkpt>
      <trkpt lat="49.81001" lon="0.76924">
        <ele>79.7</ele>
        <time>2020-06-18T09:49:37Z</time>
      </trkpt>
      <trkpt lat="49.81004" lon="0.76936">
        <ele>79.4</ele>
        <time>2020-06-18T09:49:38Z</time>
      </trkpt>
      <trkpt lat="49.81008" lon="0.76948">
        <ele>79</ele>
        <time>2020-06-18T09:49:39Z</time>
      </trkpt>
      <trkpt lat="49.81012" lon="0.7696">
        <ele>78.6</ele>
        <time>2020-06-18T09:49:40Z</time>
      </trkpt>
      <trkpt lat="49.81017" lon="0.76971">
        <ele>78.3</ele>
        <time>2020-06-18T09:49:41Z</time>
      </trkpt>
      <trkpt lat="49.81021" lon="0.76983">
        <ele>77.9</ele>
        <time>2020-06-18T09:49:42Z</time>
      </trkpt>
      <trkpt lat="49.81026" lon="0.76995">
        <ele>77.5</ele>
        <time>2020-06-18T09:49:43Z</time>
      </trkpt>
      <trkpt lat="49.8103" lon="0.77007">
        <ele>77.2</ele>
        <time>2020-06-18T09:49:44Z</time>
      </trkpt>
      <trkpt lat="49.81034" lon="0.77019">
        <ele>76.9</ele>
        <time>2020-06-18T09:49:45Z</time>
      </trkpt>
      <trkpt lat="49.81038" lon="0.77031">
        <ele>76.7</ele>
        <time>2020-06-18T09:49:46Z</time>
      </trkpt>
      <trkpt lat="49.81042" lon="0.77043">
        <ele>76.5</ele>
        <time>2020-06-18T09:49:47Z</time>
      </trkpt>
      <trkpt lat="49.81046" lon="0.77055">
        <ele>76.4</ele>
        <time>2020-06-18T09:49:48Z</time>
      </trkpt>
      <trkpt lat="49.8105" lon="0.77067">
        <ele>76.4</ele>
        <time>2020-06-18T09:49:49Z</time>
      </trkpt>
      <trkpt lat="49.81053" lon="0.7708">
        <ele>76.4</ele>
        <time>2020-06-18T09:49:50Z</time>
      </trkpt>
      <trkpt lat="49.81057" lon="0.77092">
        <ele>76.3</ele>
        <time>2020-06-18T09:49:51Z</time>
      </trkpt>
      <trkpt lat="49.81059" lon="0.77105">
        <ele>76.3</ele>
        <time>2020-06-18T09:49:52Z</time>
      </trkpt>
      <trkpt lat="49.81062" lon="0.77117">
        <ele>76.4</ele>
        <time>2020-06-18T09:49:53Z</time>
      </trkpt>
      <trkpt lat="49.81064" lon="0.7713">
        <ele>76.5</ele>
        <time>2020-06-18T09:49:54Z</time>
      </trkpt>
      <trkpt lat="49.81065" lon="0.77142">
        <ele>76.6</ele>
        <time>2020-06-18T09:49:55Z</time>
      </trkpt>
      <trkpt lat="49.81066" lon="0.77154">
        <ele>76.8</ele>
        <time>2020-06-18T09:49:56Z</time>
      </trkpt>
      <trkpt lat="49.81067" lon="0.77166">
        <ele>77</ele>
        <time>2020-06-18T09:49:57Z</time>
      </trkpt>
      <trkpt lat="49.81067" lon="0.77178">
        <ele>77.2</ele>
        <time>2020-06-18T09:49:58Z</time>
      </trkpt>
      <trkpt lat="49.81068" lon="0.77189">
        <ele>77.4</ele>
        <time>2020-06-18T09:49:59Z</time>
      </trkpt>
      <trkpt lat="49.81069" lon="0.77199">
        <ele>77.5</ele>
        <time>2020-06-18T09:50:00Z</time>
      </trkpt>
      <trkpt lat="49.81072" lon="0.77208">
        <ele>77.6</ele>
        <time>2020-06-18T09:50:01Z</time>
      </trkpt>
      <trkpt lat="49.81075" lon="0.77215">
        <ele>77.8</ele>
        <time>2020-06-18T09:50:02Z</time>
      </trkpt>
      <trkpt lat="49.81079" lon="0.77221">
        <ele>77.9</ele>
        <time>2020-06-18T09:50:03Z</time>
      </trkpt>
      <trkpt lat="49.81084" lon="0.77227">
        <ele>78.2</ele>
        <time>2020-06-18T09:50:04Z</time>
      </trkpt>
      <trkpt lat="49.81089" lon="0.77233">
        <ele>78.5</ele>
        <time>2020-06-18T09:50:05Z</time>
      </trkpt>
      <trkpt lat="49.81093" lon="0.77239">
        <ele>78.9</ele>
        <time>2020-06-18T09:50:06Z</time>
      </trkpt>
      <trkpt lat="49.81097" lon="0.77245">
        <ele>79.3</ele>
        <time>2020-06-18T09:50:07Z</time>
      </trkpt>
      <trkpt lat="49.81101" lon="0.77252">
        <ele>79.7</ele>
        <time>2020-06-18T09:50:08Z</time>
      </trkpt>
      <trkpt lat="49.81105" lon="0.77257">
        <ele>80.1</ele>
        <time>2020-06-18T09:50:09Z</time>
      </trkpt>
      <trkpt lat="49.81109" lon="0.77262">
        <ele>80.4</ele>
        <time>2020-06-18T09:50:10Z</time>
      </trkpt>
      <trkpt lat="49.81112" lon="0.77267">
        <ele>80.7</ele>
        <time>2020-06-18T09:50:11Z</time>
      </trkpt>
      <trkpt lat="49.81116" lon="0.77272">
        <ele>81.1</ele>
        <time>2020-06-18T09:50:12Z</time>
      </trkpt>
      <trkpt lat="49.8112" lon="0.77276">
        <ele>81.4</ele>
        <time>2020-06-18T09:50:13Z</time>
      </trkpt>
      <trkpt lat="49.81124" lon="0.77281">
        <ele>81.7</ele>
        <time>2020-06-18T09:50:14Z</time>
      </trkpt>
      <trkpt lat="49.81127" lon="0.77285">
        <ele>82</ele>
        <time>2020-06-18T09:50:15Z</time>
      </trkpt>
      <trkpt lat="49.81131" lon="0.77289">
        <ele>82.3</ele>
        <time>2020-06-18T09:50:16Z</time>
      </trkpt>
      <trkpt lat="49.81135" lon="0.77292">
        <ele>82.5</ele>
        <time>2020-06-18T09:50:17Z</time>
      </trkpt>
      <trkpt lat="49.8114" lon="0.77295">
        <ele>82.8</ele>
        <time>2020-06-18T09:50:18Z</time>
      </trkpt>
      <trkpt lat="49.81144" lon="0.77299">
        <ele>83.1</ele>
        <time>2020-06-18T09:50:19Z</time>
      </trkpt>
      <trkpt lat="49.81148" lon="0.77304">
        <ele>83.4</ele>
        <time>2020-06-18T09:50:20Z</time>
      </trkpt>
      <trkpt lat="49.81153" lon="0.77308">
        <ele>83.7</ele>
        <time>2020-06-18T09:50:21Z</time>
      </trkpt>
      <trkpt lat="49.81157" lon="0.77311">
        <ele>83.9</ele>
        <time>2020-06-18T09:50:22Z</time>
      </trkpt>
      <trkpt lat="49.81162" lon="0.77314">
        <ele>84.2</ele>
        <time>2020-06-18T09:50:23Z</time>
      </trkpt>
      <trkpt lat="49.81167" lon="0.77318">
        <ele>84.5</ele>
        <time>2020-06-18T09:50:24Z</time>
      </trkpt>
      <trkpt lat="49.81171" lon="0.77323">
        <ele>84.8</ele>
        <time>2020-06-18T09:50:25Z</time>
      </trkpt>
      <trkpt lat="49.81175" lon="0.77327">
        <ele>85</ele>
        <time>2020-06-18T09:50:26Z</time>
      </trkpt>
      <trkpt lat="49.8118" lon="0.77332">
        <ele>85.2</ele>
        <time>2020-06-18T09:50:27Z</time>
      </trkpt>
      <trkpt lat="49.81183" lon="0.77338">
        <ele>85.4</ele>
        <time>2020-06-18T09:50:28Z</time>
      </trkpt>
      <trkpt lat="49.81187" lon="0.77342">
        <ele>85.6</ele>
        <time>2020-06-18T09:50:29Z</time>
      </trkpt>
      <trkpt lat="49.81191" lon="0.77347">
        <ele>85.7</ele>
        <time>2020-06-18T09:50:30Z</time>
      </trkpt>
      <trkpt lat="49.81193" lon="0.77353">
        <ele>85.9</ele>
        <time>2020-06-18T09:50:31Z</time>
      </trkpt>
      <trkpt lat="49.81197" lon="0.77358">
        <ele>86</ele>
        <time>2020-06-18T09:50:32Z</time>
      </trkpt>
      <trkpt lat="49.81199" lon="0.77365">
        <ele>86.2</ele>
        <time>2020-06-18T09:50:33Z</time>
      </trkpt>
      <trkpt lat="49.81202" lon="0.77371">
        <ele>86.4</ele>
        <time>2020-06-18T09:50:34Z</time>
      </trkpt>
      <trkpt lat="49.81207" lon="0.77376">
        <ele>86.6</ele>
        <time>2020-06-18T09:50:35Z</time>
      </trkpt>
      <trkpt lat="49.81209" lon="0.77381">
        <ele>86.7</ele>
        <time>2020-06-18T09:50:36Z</time>
      </trkpt>
      <trkpt lat="49.81213" lon="0.77387">
        <ele>86.8</ele>
        <time>2020-06-18T09:50:37Z</time>
      </trkpt>
      <trkpt lat="49.81217" lon="0.77391">
        <ele>86.9</ele>
        <time>2020-06-18T09:50:38Z</time>
      </trkpt>
      <trkpt lat="49.81221" lon="0.77397">
        <ele>87.1</ele>
        <time>2020-06-18T09:50:39Z</time>
      </trkpt>
      <trkpt lat="49.81224" lon="0.77401">
        <ele>87.3</ele>
        <time>2020-06-18T09:50:40Z</time>
      </trkpt>
      <trkpt lat="49.81228" lon="0.77406">
        <ele>87.4</ele>
        <time>2020-06-18T09:50:41Z</time>
      </trkpt>
      <trkpt lat="49.81231" lon="0.7741">
        <ele>87.5</ele>
        <time>2020-06-18T09:50:42Z</time>
      </trkpt>
      <trkpt lat="49.81234" lon="0.77414">
        <ele>87.6</ele>
        <time>2020-06-18T09:50:43Z</time>
      </trkpt>
      <trkpt lat="49.81236" lon="0.77419">
        <ele>87.8</ele>
        <time>2020-06-18T09:50:44Z</time>
      </trkpt>
      <trkpt lat="49.8124" lon="0.77423">
        <ele>87.9</ele>
        <time>2020-06-18T09:50:45Z</time>
      </trkpt>
      <trkpt lat="49.81244" lon="0.77428">
        <ele>88.1</ele>
        <time>2020-06-18T09:50:46Z</time>
      </trkpt>
      <trkpt lat="49.81248" lon="0.77432">
        <ele>88.2</ele>
        <time>2020-06-18T09:50:47Z</time>
      </trkpt>
      <trkpt lat="49.81251" lon="0.77435">
        <ele>88.3</ele>
        <time>2020-06-18T09:50:48Z</time>
      </trkpt>
      <trkpt lat="49.81255" lon="0.77439">
        <ele>88.5</ele>
        <time>2020-06-18T09:50:49Z</time>
      </trkpt>
      <trkpt lat="49.81259" lon="0.77443">
        <ele>88.7</ele>
        <time>2020-06-18T09:50:50Z</time>
      </trkpt>
      <trkpt lat="49.81263" lon="0.77448">
        <ele>88.8</ele>
        <time>2020-06-18T09:50:51Z</time>
      </trkpt>
      <trkpt lat="49.81267" lon="0.77452">
        <ele>89</ele>
        <time>2020-06-18T09:50:52Z</time>
      </trkpt>
      <trkpt lat="49.8127" lon="0.77457">
        <ele>89.2</ele>
        <time>2020-06-18T09:50:53Z</time>
      </trkpt>
      <trkpt lat="49.81273" lon="0.7746">
        <ele>89.3</ele>
        <time>2020-06-18T09:50:54Z</time>
      </trkpt>
      <trkpt lat="49.81277" lon="0.77466">
        <ele>89.5</ele>
        <time>2020-06-18T09:50:55Z</time>
      </trkpt>
      <trkpt lat="49.81281" lon="0.77471">
        <ele>89.7</ele>
        <time>2020-06-18T09:50:56Z</time>
      </trkpt>
      <trkpt lat="49.81284" lon="0.77475">
        <ele>89.8</ele>
        <time>2020-06-18T09:50:57Z</time>
      </trkpt>
      <trkpt lat="49.81289" lon="0.77479">
        <ele>90</ele>
        <time>2020-06-18T09:50:58Z</time>
      </trkpt>
      <trkpt lat="49.81292" lon="0.77483">
        <ele>90</ele>
        <time>2020-06-18T09:50:59Z</time>
      </trkpt>
      <trkpt lat="49.81296" lon="0.77487">
        <ele>90.1</ele>
        <time>2020-06-18T09:51:00Z</time>
      </trkpt>
      <trkpt lat="49.81299" lon="0.77491">
        <ele>90.2</ele>
        <time>2020-06-18T09:51:01Z</time>
      </trkpt>
      <trkpt lat="49.81302" lon="0.77496">
        <ele>90.3</ele>
        <time>2020-06-18T09:51:02Z</time>
      </trkpt>
      <trkpt lat="49.81306" lon="0.77501">
        <ele>90.5</ele>
        <time>2020-06-18T09:51:03Z</time>
      </trkpt>
      <trkpt lat="49.81309" lon="0.77506">
        <ele>90.6</ele>
        <time>2020-06-18T09:51:04Z</time>
      </trkpt>
      <trkpt lat="49.81313" lon="0.7751">
        <ele>90.7</ele>
        <time>2020-06-18T09:51:05Z</time>
      </trkpt>
      <trkpt lat="49.81316" lon="0.77511">
        <ele>90.8</ele>
        <time>2020-06-18T09:51:06Z</time>
      </trkpt>
      <trkpt lat="49.81319" lon="0.77514">
        <ele>90.9</ele>
        <time>2020-06-18T09:51:07Z</time>
      </trkpt>
      <trkpt lat="49.81323" lon="0.77518">
        <ele>91</ele>
        <time>2020-06-18T09:51:08Z</time>
      </trkpt>
      <trkpt lat="49.81328" lon="0.77524">
        <ele>91.1</ele>
        <time>2020-06-18T09:51:09Z</time>
      </trkpt>
      <trkpt lat="49.81331" lon="0.77528">
        <ele>91.2</ele>
        <time>2020-06-18T09:51:10Z</time>
      </trkpt>
      <trkpt lat="49.81335" lon="0.77532">
        <ele>91.3</ele>
        <time>2020-06-18T09:51:11Z</time>
      </trkpt>
      <trkpt lat="49.81338" lon="0.77536">
        <ele>91.3</ele>
        <time>2020-06-18T09:51:12Z</time>
      </trkpt>
      <trkpt lat="49.81341" lon="0.7754">
        <ele>91.4</ele>
        <time>2020-06-18T09:51:13Z</time>
      </trkpt>
      <trkpt lat="49.81345" lon="0.77545">
        <ele>91.4</ele>
        <time>2020-06-18T09:51:14Z</time>
      </trkpt>
      <trkpt lat="49.81349" lon="0.7755">
        <ele>91.5</ele>
        <time>2020-06-18T09:51:15Z</time>
      </trkpt>
      <trkpt lat="49.81352" lon="0.77553">
        <ele>91.5</ele>
        <time>2020-06-18T09:51:16Z</time>
      </trkpt>
      <trkpt lat="49.81356" lon="0.77557">
        <ele>91.5</ele>
        <time>2020-06-18T09:51:17Z</time>
      </trkpt>
      <trkpt lat="49.81357" lon="0.77558">
        <ele>91.5</ele>
        <time>2020-06-18T09:51:18Z</time>
      </trkpt>
      <trkpt lat="49.8136" lon="0.77561">
        <ele>91.5</ele>
        <time>2020-06-18T09:51:19Z</time>
      </trkpt>
      <trkpt lat="49.81362" lon="0.77565">
        <ele>91.5</ele>
        <time>2020-06-18T09:51:20Z</time>
      </trkpt>
      <trkpt lat="49.81366" lon="0.77569">
        <ele>91.5</ele>
        <time>2020-06-18T09:51:21Z</time>
      </trkpt>
      <trkpt lat="49.81369" lon="0.77574">
        <ele>91.5</ele>
        <time>2020-06-18T09:51:22Z</time>
      </trkpt>
      <trkpt lat="49.81372" lon="0.77577">
        <ele>91.5</ele>
        <time>2020-06-18T09:51:23Z</time>
      </trkpt>
      <trkpt lat="49.81373" lon="0.77578">
        <ele>91.5</ele>
        <time>2020-06-18T09:51:24Z</time>
      </trkpt>
      <trkpt lat="49.81377" lon="0.77581">
        <ele>91.5</ele>
        <time>2020-06-18T09:51:25Z</time>
      </trkpt>
      <trkpt lat="49.81379" lon="0.77586">
        <ele>91.4</ele>
        <time>2020-06-18T09:51:26Z</time>
      </trkpt>
      <trkpt lat="49.81383" lon="0.7759">
        <ele>91.4</ele>
        <time>2020-06-18T09:51:27Z</time>
      </trkpt>
      <trkpt lat="49.81385" lon="0.77593">
        <ele>91.4</ele>
        <time>2020-06-18T09:51:28Z</time>
      </trkpt>
      <trkpt lat="49.81389" lon="0.77597">
        <ele>91.4</ele>
        <time>2020-06-18T09:51:29Z</time>
      </trkpt>
      <trkpt lat="49.81391" lon="0.77599">
        <ele>91.4</ele>
        <time>2020-06-18T09:51:30Z</time>
      </trkpt>
      <trkpt lat="49.81394" lon="0.77602">
        <ele>91.4</ele>
        <time>2020-06-18T09:51:31Z</time>
      </trkpt>
      <trkpt lat="49.81398" lon="0.77606">
        <ele>91.4</ele>
        <time>2020-06-18T09:51:32Z</time>
      </trkpt>
      <trkpt lat="49.81401" lon="0.77608">
        <ele>91.4</ele>
        <time>2020-06-18T09:51:33Z</time>
      </trkpt>
      <trkpt lat="49.81404" lon="0.77611">
        <ele>91.4</ele>
        <time>2020-06-18T09:51:34Z</time>
      </trkpt>
      <trkpt lat="49.81406" lon="0.77616">
        <ele>91.4</ele>
        <time>2020-06-18T09:51:35Z</time>
      </trkpt>
      <trkpt lat="49.81409" lon="0.77618">
        <ele>91.4</ele>
        <time>2020-06-18T09:51:36Z</time>
      </trkpt>
      <trkpt lat="49.81412" lon="0.77621">
        <ele>91.4</ele>
        <time>2020-06-18T09:51:37Z</time>
      </trkpt>
      <trkpt lat="49.81415" lon="0.77624">
        <ele>91.4</ele>
        <time>2020-06-18T09:51:38Z</time>
      </trkpt>
      <trkpt lat="49.81418" lon="0.77627">
        <ele>91.4</ele>
        <time>2020-06-18T09:51:39Z</time>
      </trkpt>
      <trkpt lat="49.81421" lon="0.77631">
        <ele>91.4</ele>
        <time>2020-06-18T09:51:40Z</time>
      </trkpt>
      <trkpt lat="49.81425" lon="0.77633">
        <ele>91.3</ele>
        <time>2020-06-18T09:51:41Z</time>
      </trkpt>
      <trkpt lat="49.81429" lon="0.77635">
        <ele>91.3</ele>
        <time>2020-06-18T09:51:42Z</time>
      </trkpt>
      <trkpt lat="49.81434" lon="0.77637">
        <ele>91.3</ele>
        <time>2020-06-18T09:51:43Z</time>
      </trkpt>
      <trkpt lat="49.81438" lon="0.77639">
        <ele>91.3</ele>
        <time>2020-06-18T09:51:44Z</time>
      </trkpt>
      <trkpt lat="49.81443" lon="0.77642">
        <ele>91.3</ele>
        <time>2020-06-18T09:51:45Z</time>
      </trkpt>
      <trkpt lat="49.81447" lon="0.77644">
        <ele>91.2</ele>
        <time>2020-06-18T09:51:46Z</time>
      </trkpt>
      <trkpt lat="49.81452" lon="0.77647">
        <ele>91.2</ele>
        <time>2020-06-18T09:51:47Z</time>
      </trkpt>
      <trkpt lat="49.81457" lon="0.77651">
        <ele>91.1</ele>
        <time>2020-06-18T09:51:48Z</time>
      </trkpt>
      <trkpt lat="49.81461" lon="0.77654">
        <ele>91</ele>
        <time>2020-06-18T09:51:49Z</time>
      </trkpt>
      <trkpt lat="49.81467" lon="0.77656">
        <ele>90.9</ele>
        <time>2020-06-18T09:51:50Z</time>
      </trkpt>
      <trkpt lat="49.81472" lon="0.77658">
        <ele>90.8</ele>
        <time>2020-06-18T09:51:51Z</time>
      </trkpt>
      <trkpt lat="49.81477" lon="0.77661">
        <ele>90.7</ele>
        <time>2020-06-18T09:51:52Z</time>
      </trkpt>
      <trkpt lat="49.81481" lon="0.77663">
        <ele>90.6</ele>
        <time>2020-06-18T09:51:53Z</time>
      </trkpt>
      <trkpt lat="49.81486" lon="0.77666">
        <ele>90.5</ele>
        <time>2020-06-18T09:51:54Z</time>
      </trkpt>
      <trkpt lat="49.81491" lon="0.7767">
        <ele>90.4</ele>
        <time>2020-06-18T09:51:55Z</time>
      </trkpt>
      <trkpt lat="49.81498" lon="0.77676">
        <ele>90.3</ele>
        <time>2020-06-18T09:51:56Z</time>
      </trkpt>
      <trkpt lat="49.81503" lon="0.77681">
        <ele>90.3</ele>
        <time>2020-06-18T09:51:57Z</time>
      </trkpt>
      <trkpt lat="49.81508" lon="0.77686">
        <ele>90.2</ele>
        <time>2020-06-18T09:51:58Z</time>
      </trkpt>
      <trkpt lat="49.81513" lon="0.77689">
        <ele>90.2</ele>
        <time>2020-06-18T09:51:59Z</time>
      </trkpt>
      <trkpt lat="49.81517" lon="0.77692">
        <ele>90.2</ele>
        <time>2020-06-18T09:52:00Z</time>
      </trkpt>
      <trkpt lat="49.81521" lon="0.77695">
        <ele>90.1</ele>
        <time>2020-06-18T09:52:01Z</time>
      </trkpt>
      <trkpt lat="49.81525" lon="0.77698">
        <ele>90.1</ele>
        <time>2020-06-18T09:52:02Z</time>
      </trkpt>
      <trkpt lat="49.8153" lon="0.77701">
        <ele>90</ele>
        <time>2020-06-18T09:52:03Z</time>
      </trkpt>
      <trkpt lat="49.81536" lon="0.77705">
        <ele>90</ele>
        <time>2020-06-18T09:52:04Z</time>
      </trkpt>
      <trkpt lat="49.81542" lon="0.77709">
        <ele>89.9</ele>
        <time>2020-06-18T09:52:05Z</time>
      </trkpt>
      <trkpt lat="49.81545" lon="0.77713">
        <ele>89.9</ele>
        <time>2020-06-18T09:52:06Z</time>
      </trkpt>
      <trkpt lat="49.81552" lon="0.77717">
        <ele>89.8</ele>
        <time>2020-06-18T09:52:07Z</time>
      </trkpt>
      <trkpt lat="49.81556" lon="0.77721">
        <ele>89.8</ele>
        <time>2020-06-18T09:52:08Z</time>
      </trkpt>
      <trkpt lat="49.81559" lon="0.77725">
        <ele>89.7</ele>
        <time>2020-06-18T09:52:09Z</time>
      </trkpt>
      <trkpt lat="49.81564" lon="0.77729">
        <ele>89.7</ele>
        <time>2020-06-18T09:52:10Z</time>
      </trkpt>
      <trkpt lat="49.8157" lon="0.77733">
        <ele>89.6</ele>
        <time>2020-06-18T09:52:11Z</time>
      </trkpt>
      <trkpt lat="49.81575" lon="0.77737">
        <ele>89.6</ele>
        <time>2020-06-18T09:52:12Z</time>
      </trkpt>
      <trkpt lat="49.81579" lon="0.77742">
        <ele>89.5</ele>
        <time>2020-06-18T09:52:13Z</time>
      </trkpt>
      <trkpt lat="49.81584" lon="0.77748">
        <ele>89.4</ele>
        <time>2020-06-18T09:52:14Z</time>
      </trkpt>
      <trkpt lat="49.81589" lon="0.77753">
        <ele>89.4</ele>
        <time>2020-06-18T09:52:15Z</time>
      </trkpt>
      <trkpt lat="49.81595" lon="0.77758">
        <ele>89.2</ele>
        <time>2020-06-18T09:52:16Z</time>
      </trkpt>
      <trkpt lat="49.81599" lon="0.7776">
        <ele>89.2</ele>
        <time>2020-06-18T09:52:17Z</time>
      </trkpt>
      <trkpt lat="49.81602" lon="0.77763">
        <ele>89.2</ele>
        <time>2020-06-18T09:52:18Z</time>
      </trkpt>
      <trkpt lat="49.81606" lon="0.77766">
        <ele>89.2</ele>
        <time>2020-06-18T09:52:19Z</time>
      </trkpt>
      <trkpt lat="49.8161" lon="0.77769">
        <ele>89.2</ele>
        <time>2020-06-18T09:52:20Z</time>
      </trkpt>
      <trkpt lat="49.81615" lon="0.77773">
        <ele>89.2</ele>
        <time>2020-06-18T09:52:21Z</time>
      </trkpt>
      <trkpt lat="49.8162" lon="0.77777">
        <ele>89.1</ele>
        <time>2020-06-18T09:52:22Z</time>
      </trkpt>
      <trkpt lat="49.81624" lon="0.77781">
        <ele>89</ele>
        <time>2020-06-18T09:52:23Z</time>
      </trkpt>
      <trkpt lat="49.8163" lon="0.77786">
        <ele>88.9</ele>
        <time>2020-06-18T09:52:24Z</time>
      </trkpt>
      <trkpt lat="49.81633" lon="0.7779">
        <ele>88.8</ele>
        <time>2020-06-18T09:52:25Z</time>
      </trkpt>
      <trkpt lat="49.81638" lon="0.77794">
        <ele>88.7</ele>
        <time>2020-06-18T09:52:26Z</time>
      </trkpt>
      <trkpt lat="49.81642" lon="0.77797">
        <ele>88.6</ele>
        <time>2020-06-18T09:52:27Z</time>
      </trkpt>
      <trkpt lat="49.81647" lon="0.77802">
        <ele>88.4</ele>
        <time>2020-06-18T09:52:28Z</time>
      </trkpt>
      <trkpt lat="49.81652" lon="0.77806">
        <ele>88.2</ele>
        <time>2020-06-18T09:52:29Z</time>
      </trkpt>
      <trkpt lat="49.81657" lon="0.7781">
        <ele>88</ele>
        <time>2020-06-18T09:52:30Z</time>
      </trkpt>
      <trkpt lat="49.81662" lon="0.77814">
        <ele>87.8</ele>
        <time>2020-06-18T09:52:31Z</time>
      </trkpt>
      <trkpt lat="49.81666" lon="0.77818">
        <ele>87.7</ele>
        <time>2020-06-18T09:52:32Z</time>
      </trkpt>
      <trkpt lat="49.81671" lon="0.77823">
        <ele>87.5</ele>
        <time>2020-06-18T09:52:33Z</time>
      </trkpt>
      <trkpt lat="49.81676" lon="0.77827">
        <ele>87.4</ele>
        <time>2020-06-18T09:52:34Z</time>
      </trkpt>
      <trkpt lat="49.81681" lon="0.77833">
        <ele>87.2</ele>
        <time>2020-06-18T09:52:35Z</time>
      </trkpt>
      <trkpt lat="49.81686" lon="0.77838">
        <ele>87</ele>
        <time>2020-06-18T09:52:36Z</time>
      </trkpt>
      <trkpt lat="49.81691" lon="0.77843">
        <ele>86.8</ele>
        <time>2020-06-18T09:52:37Z</time>
      </trkpt>
      <trkpt lat="49.81696" lon="0.77847">
        <ele>86.6</ele>
        <time>2020-06-18T09:52:38Z</time>
      </trkpt>
      <trkpt lat="49.81702" lon="0.77853">
        <ele>86.5</ele>
        <time>2020-06-18T09:52:39Z</time>
      </trkpt>
      <trkpt lat="49.81707" lon="0.77858">
        <ele>86.4</ele>
        <time>2020-06-18T09:52:40Z</time>
      </trkpt>
      <trkpt lat="49.81714" lon="0.77864">
        <ele>86.2</ele>
        <time>2020-06-18T09:52:41Z</time>
      </trkpt>
      <trkpt lat="49.81719" lon="0.77869">
        <ele>86.1</ele>
        <time>2020-06-18T09:52:42Z</time>
      </trkpt>
      <trkpt lat="49.81725" lon="0.77875">
        <ele>85.9</ele>
        <time>2020-06-18T09:52:43Z</time>
      </trkpt>
      <trkpt lat="49.8173" lon="0.7788">
        <ele>85.8</ele>
        <time>2020-06-18T09:52:44Z</time>
      </trkpt>
      <trkpt lat="49.81736" lon="0.77885">
        <ele>85.6</ele>
        <time>2020-06-18T09:52:45Z</time>
      </trkpt>
      <trkpt lat="49.81741" lon="0.7789">
        <ele>85.4</ele>
        <time>2020-06-18T09:52:46Z</time>
      </trkpt>
      <trkpt lat="49.81746" lon="0.77895">
        <ele>85.3</ele>
        <time>2020-06-18T09:52:47Z</time>
      </trkpt>
      <trkpt lat="49.81752" lon="0.779">
        <ele>85.2</ele>
        <time>2020-06-18T09:52:48Z</time>
      </trkpt>
      <trkpt lat="49.81757" lon="0.77904">
        <ele>85.1</ele>
        <time>2020-06-18T09:52:49Z</time>
      </trkpt>
      <trkpt lat="49.81762" lon="0.77909">
        <ele>85.1</ele>
        <time>2020-06-18T09:52:50Z</time>
      </trkpt>
      <trkpt lat="49.81767" lon="0.77913">
        <ele>85</ele>
        <time>2020-06-18T09:52:51Z</time>
      </trkpt>
      <trkpt lat="49.81772" lon="0.77919">
        <ele>84.9</ele>
        <time>2020-06-18T09:52:52Z</time>
      </trkpt>
      <trkpt lat="49.81776" lon="0.77924">
        <ele>84.9</ele>
        <time>2020-06-18T09:52:53Z</time>
      </trkpt>
      <trkpt lat="49.81781" lon="0.77929">
        <ele>84.8</ele>
        <time>2020-06-18T09:52:54Z</time>
      </trkpt>
      <trkpt lat="49.81786" lon="0.77932">
        <ele>84.8</ele>
        <time>2020-06-18T09:52:55Z</time>
      </trkpt>
      <trkpt lat="49.81791" lon="0.77935">
        <ele>84.8</ele>
        <time>2020-06-18T09:52:56Z</time>
      </trkpt>
      <trkpt lat="49.81796" lon="0.77939">
        <ele>84.7</ele>
        <time>2020-06-18T09:52:57Z</time>
      </trkpt>
      <trkpt lat="49.81801" lon="0.77944">
        <ele>84.6</ele>
        <time>2020-06-18T09:52:58Z</time>
      </trkpt>
      <trkpt lat="49.81807" lon="0.7795">
        <ele>84.5</ele>
        <time>2020-06-18T09:52:59Z</time>
      </trkpt>
      <trkpt lat="49.81813" lon="0.77954">
        <ele>84.5</ele>
        <time>2020-06-18T09:53:00Z</time>
      </trkpt>
      <trkpt lat="49.81819" lon="0.7796">
        <ele>84.4</ele>
        <time>2020-06-18T09:53:01Z</time>
      </trkpt>
      <trkpt lat="49.81825" lon="0.77964">
        <ele>84.4</ele>
        <time>2020-06-18T09:53:02Z</time>
      </trkpt>
      <trkpt lat="49.81829" lon="0.77968">
        <ele>84.4</ele>
        <time>2020-06-18T09:53:03Z</time>
      </trkpt>
      <trkpt lat="49.81834" lon="0.77972">
        <ele>84.4</ele>
        <time>2020-06-18T09:53:04Z</time>
      </trkpt>
      <trkpt lat="49.8184" lon="0.77977">
        <ele>84.3</ele>
        <time>2020-06-18T09:53:05Z</time>
      </trkpt>
      <trkpt lat="49.81846" lon="0.77982">
        <ele>84.2</ele>
        <time>2020-06-18T09:53:06Z</time>
      </trkpt>
      <trkpt lat="49.81852" lon="0.77987">
        <ele>84.1</ele>
        <time>2020-06-18T09:53:07Z</time>
      </trkpt>
      <trkpt lat="49.81858" lon="0.77991">
        <ele>84</ele>
        <time>2020-06-18T09:53:08Z</time>
      </trkpt>
      <trkpt lat="49.81864" lon="0.77996">
        <ele>83.8</ele>
        <time>2020-06-18T09:53:09Z</time>
      </trkpt>
      <trkpt lat="49.8187" lon="0.78">
        <ele>83.8</ele>
        <time>2020-06-18T09:53:10Z</time>
      </trkpt>
      <trkpt lat="49.81876" lon="0.78003">
        <ele>83.7</ele>
        <time>2020-06-18T09:53:11Z</time>
      </trkpt>
      <trkpt lat="49.81882" lon="0.78006">
        <ele>83.6</ele>
        <time>2020-06-18T09:53:12Z</time>
      </trkpt>
      <trkpt lat="49.81889" lon="0.78009">
        <ele>83.6</ele>
        <time>2020-06-18T09:53:13Z</time>
      </trkpt>
      <trkpt lat="49.81895" lon="0.78013">
        <ele>83.6</ele>
        <time>2020-06-18T09:53:14Z</time>
      </trkpt>
      <trkpt lat="49.81901" lon="0.78017">
        <ele>83.5</ele>
        <time>2020-06-18T09:53:15Z</time>
      </trkpt>
      <trkpt lat="49.81907" lon="0.78021">
        <ele>83.5</ele>
        <time>2020-06-18T09:53:16Z</time>
      </trkpt>
      <trkpt lat="49.81914" lon="0.78025">
        <ele>83.5</ele>
        <time>2020-06-18T09:53:17Z</time>
      </trkpt>
      <trkpt lat="49.8192" lon="0.78029">
        <ele>83.4</ele>
        <time>2020-06-18T09:53:18Z</time>
      </trkpt>
      <trkpt lat="49.81926" lon="0.78033">
        <ele>83.4</ele>
        <time>2020-06-18T09:53:19Z</time>
      </trkpt>
      <trkpt lat="49.81933" lon="0.78036">
        <ele>83.3</ele>
        <time>2020-06-18T09:53:20Z</time>
      </trkpt>
      <trkpt lat="49.81939" lon="0.7804">
        <ele>83.4</ele>
        <time>2020-06-18T09:53:21Z</time>
      </trkpt>
      <trkpt lat="49.81945" lon="0.78044">
        <ele>83.4</ele>
        <time>2020-06-18T09:53:22Z</time>
      </trkpt>
      <trkpt lat="49.81951" lon="0.78048">
        <ele>83.4</ele>
        <time>2020-06-18T09:53:23Z</time>
      </trkpt>
      <trkpt lat="49.81958" lon="0.78052">
        <ele>83.4</ele>
        <time>2020-06-18T09:53:24Z</time>
      </trkpt>
      <trkpt lat="49.81964" lon="0.78057">
        <ele>83.4</ele>
        <time>2020-06-18T09:53:25Z</time>
      </trkpt>
      <trkpt lat="49.8197" lon="0.78061">
        <ele>83.4</ele>
        <time>2020-06-18T09:53:26Z</time>
      </trkpt>
      <trkpt lat="49.81977" lon="0.78064">
        <ele>83.4</ele>
        <time>2020-06-18T09:53:27Z</time>
      </trkpt>
      <trkpt lat="49.81983" lon="0.78069">
        <ele>83.5</ele>
        <time>2020-06-18T09:53:28Z</time>
      </trkpt>
      <trkpt lat="49.81989" lon="0.78073">
        <ele>83.5</ele>
        <time>2020-06-18T09:53:29Z</time>
      </trkpt>
      <trkpt lat="49.81995" lon="0.78077">
        <ele>83.5</ele>
        <time>2020-06-18T09:53:30Z</time>
      </trkpt>
      <trkpt lat="49.82001" lon="0.78082">
        <ele>83.4</ele>
        <time>2020-06-18T09:53:31Z</time>
      </trkpt>
      <trkpt lat="49.82008" lon="0.78086">
        <ele>83.3</ele>
        <time>2020-06-18T09:53:32Z</time>
      </trkpt>
      <trkpt lat="49.82014" lon="0.78089">
        <ele>83.2</ele>
        <time>2020-06-18T09:53:33Z</time>
      </trkpt>
      <trkpt lat="49.8202" lon="0.78093">
        <ele>83.1</ele>
        <time>2020-06-18T09:53:34Z</time>
      </trkpt>
      <trkpt lat="49.82026" lon="0.78097">
        <ele>83.1</ele>
        <time>2020-06-18T09:53:35Z</time>
      </trkpt>
      <trkpt lat="49.82033" lon="0.78101">
        <ele>83.1</ele>
        <time>2020-06-18T09:53:36Z</time>
      </trkpt>
      <trkpt lat="49.82039" lon="0.78105">
        <ele>83</ele>
        <time>2020-06-18T09:53:37Z</time>
      </trkpt>
      <trkpt lat="49.82046" lon="0.78108">
        <ele>82.9</ele>
        <time>2020-06-18T09:53:38Z</time>
      </trkpt>
      <trkpt lat="49.82053" lon="0.78112">
        <ele>82.8</ele>
        <time>2020-06-18T09:53:39Z</time>
      </trkpt>
      <trkpt lat="49.82059" lon="0.78116">
        <ele>82.8</ele>
        <time>2020-06-18T09:53:40Z</time>
      </trkpt>
      <trkpt lat="49.82066" lon="0.7812">
        <ele>82.7</ele>
        <time>2020-06-18T09:53:41Z</time>
      </trkpt>
      <trkpt lat="49.82072" lon="0.78125">
        <ele>82.6</ele>
        <time>2020-06-18T09:53:42Z</time>
      </trkpt>
      <trkpt lat="49.82078" lon="0.78129">
        <ele>82.5</ele>
        <time>2020-06-18T09:53:43Z</time>
      </trkpt>
      <trkpt lat="49.82085" lon="0.78134">
        <ele>82.5</ele>
        <time>2020-06-18T09:53:44Z</time>
      </trkpt>
      <trkpt lat="49.82091" lon="0.78138">
        <ele>82.4</ele>
        <time>2020-06-18T09:53:45Z</time>
      </trkpt>
      <trkpt lat="49.82098" lon="0.78142">
        <ele>82.4</ele>
        <time>2020-06-18T09:53:46Z</time>
      </trkpt>
      <trkpt lat="49.82105" lon="0.78146">
        <ele>82.3</ele>
        <time>2020-06-18T09:53:47Z</time>
      </trkpt>
      <trkpt lat="49.82111" lon="0.7815">
        <ele>82.2</ele>
        <time>2020-06-18T09:53:48Z</time>
      </trkpt>
      <trkpt lat="49.82118" lon="0.78153">
        <ele>82.2</ele>
        <time>2020-06-18T09:53:49Z</time>
      </trkpt>
      <trkpt lat="49.82125" lon="0.78158">
        <ele>82.1</ele>
        <time>2020-06-18T09:53:50Z</time>
      </trkpt>
      <trkpt lat="49.82131" lon="0.78162">
        <ele>82.1</ele>
        <time>2020-06-18T09:53:51Z</time>
      </trkpt>
      <trkpt lat="49.82138" lon="0.78166">
        <ele>82.1</ele>
        <time>2020-06-18T09:53:52Z</time>
      </trkpt>
      <trkpt lat="49.82145" lon="0.7817">
        <ele>82.1</ele>
        <time>2020-06-18T09:53:53Z</time>
      </trkpt>
      <trkpt lat="49.82151" lon="0.78174">
        <ele>82.1</ele>
        <time>2020-06-18T09:53:54Z</time>
      </trkpt>
      <trkpt lat="49.82158" lon="0.78179">
        <ele>82</ele>
        <time>2020-06-18T09:53:55Z</time>
      </trkpt>
      <trkpt lat="49.82165" lon="0.78183">
        <ele>82</ele>
        <time>2020-06-18T09:53:56Z</time>
      </trkpt>
      <trkpt lat="49.82171" lon="0.78187">
        <ele>82</ele>
        <time>2020-06-18T09:53:57Z</time>
      </trkpt>
      <trkpt lat="49.82178" lon="0.7819">
        <ele>81.9</ele>
        <time>2020-06-18T09:53:58Z</time>
      </trkpt>
      <trkpt lat="49.82185" lon="0.78193">
        <ele>81.9</ele>
        <time>2020-06-18T09:53:59Z</time>
      </trkpt>
      <trkpt lat="49.82191" lon="0.78196">
        <ele>81.9</ele>
        <time>2020-06-18T09:54:00Z</time>
      </trkpt>
      <trkpt lat="49.82198" lon="0.78201">
        <ele>81.9</ele>
        <time>2020-06-18T09:54:01Z</time>
      </trkpt>
      <trkpt lat="49.82204" lon="0.78205">
        <ele>82</ele>
        <time>2020-06-18T09:54:02Z</time>
      </trkpt>
      <trkpt lat="49.8221" lon="0.78209">
        <ele>82.1</ele>
        <time>2020-06-18T09:54:03Z</time>
      </trkpt>
      <trkpt lat="49.82216" lon="0.78214">
        <ele>82.2</ele>
        <time>2020-06-18T09:54:04Z</time>
      </trkpt>
      <trkpt lat="49.82223" lon="0.78218">
        <ele>82.2</ele>
        <time>2020-06-18T09:54:05Z</time>
      </trkpt>
      <trkpt lat="49.82229" lon="0.78222">
        <ele>82.2</ele>
        <time>2020-06-18T09:54:06Z</time>
      </trkpt>
      <trkpt lat="49.82235" lon="0.78225">
        <ele>82.3</ele>
        <time>2020-06-18T09:54:07Z</time>
      </trkpt>
      <trkpt lat="49.82242" lon="0.78229">
        <ele>82.3</ele>
        <time>2020-06-18T09:54:08Z</time>
      </trkpt>
      <trkpt lat="49.82248" lon="0.78234">
        <ele>82.4</ele>
        <time>2020-06-18T09:54:09Z</time>
      </trkpt>
      <trkpt lat="49.82254" lon="0.78238">
        <ele>82.4</ele>
        <time>2020-06-18T09:54:10Z</time>
      </trkpt>
      <trkpt lat="49.8226" lon="0.78242">
        <ele>82.4</ele>
        <time>2020-06-18T09:54:11Z</time>
      </trkpt>
      <trkpt lat="49.82267" lon="0.78245">
        <ele>82.4</ele>
        <time>2020-06-18T09:54:12Z</time>
      </trkpt>
      <trkpt lat="49.82273" lon="0.78249">
        <ele>82.3</ele>
        <time>2020-06-18T09:54:13Z</time>
      </trkpt>
      <trkpt lat="49.82279" lon="0.78253">
        <ele>82.4</ele>
        <time>2020-06-18T09:54:14Z</time>
      </trkpt>
      <trkpt lat="49.82285" lon="0.78257">
        <ele>82.4</ele>
        <time>2020-06-18T09:54:15Z</time>
      </trkpt>
      <trkpt lat="49.82291" lon="0.78261">
        <ele>82.5</ele>
        <time>2020-06-18T09:54:16Z</time>
      </trkpt>
      <trkpt lat="49.82298" lon="0.78265">
        <ele>82.6</ele>
        <time>2020-06-18T09:54:17Z</time>
      </trkpt>
      <trkpt lat="49.82304" lon="0.78268">
        <ele>82.7</ele>
        <time>2020-06-18T09:54:18Z</time>
      </trkpt>
      <trkpt lat="49.8231" lon="0.78272">
        <ele>82.9</ele>
        <time>2020-06-18T09:54:19Z</time>
      </trkpt>
      <trkpt lat="49.82317" lon="0.78275">
        <ele>83</ele>
        <time>2020-06-18T09:54:20Z</time>
      </trkpt>
      <trkpt lat="49.82323" lon="0.78278">
        <ele>83.1</ele>
        <time>2020-06-18T09:54:21Z</time>
      </trkpt>
      <trkpt lat="49.82329" lon="0.78281">
        <ele>83.2</ele>
        <time>2020-06-18T09:54:22Z</time>
      </trkpt>
      <trkpt lat="49.82335" lon="0.78285">
        <ele>83.2</ele>
        <time>2020-06-18T09:54:23Z</time>
      </trkpt>
      <trkpt lat="49.82341" lon="0.78288">
        <ele>83.2</ele>
        <time>2020-06-18T09:54:24Z</time>
      </trkpt>
      <trkpt lat="49.82347" lon="0.78292">
        <ele>83.3</ele>
        <time>2020-06-18T09:54:25Z</time>
      </trkpt>
      <trkpt lat="49.82353" lon="0.78295">
        <ele>83.3</ele>
        <time>2020-06-18T09:54:26Z</time>
      </trkpt>
      <trkpt lat="49.82359" lon="0.78299">
        <ele>83.4</ele>
        <time>2020-06-18T09:54:27Z</time>
      </trkpt>
      <trkpt lat="49.82365" lon="0.78303">
        <ele>83.4</ele>
        <time>2020-06-18T09:54:28Z</time>
      </trkpt>
      <trkpt lat="49.82371" lon="0.78307">
        <ele>83.5</ele>
        <time>2020-06-18T09:54:29Z</time>
      </trkpt>
      <trkpt lat="49.82377" lon="0.78311">
        <ele>83.6</ele>
        <time>2020-06-18T09:54:30Z</time>
      </trkpt>
      <trkpt lat="49.82382" lon="0.78317">
        <ele>83.6</ele>
        <time>2020-06-18T09:54:31Z</time>
      </trkpt>
      <trkpt lat="49.82388" lon="0.78321">
        <ele>83.7</ele>
        <time>2020-06-18T09:54:32Z</time>
      </trkpt>
      <trkpt lat="49.82393" lon="0.78325">
        <ele>83.7</ele>
        <time>2020-06-18T09:54:33Z</time>
      </trkpt>
      <trkpt lat="49.82398" lon="0.7833">
        <ele>83.8</ele>
        <time>2020-06-18T09:54:34Z</time>
      </trkpt>
      <trkpt lat="49.82403" lon="0.78334">
        <ele>83.9</ele>
        <time>2020-06-18T09:54:35Z</time>
      </trkpt>
      <trkpt lat="49.82408" lon="0.78339">
        <ele>84</ele>
        <time>2020-06-18T09:54:36Z</time>
      </trkpt>
      <trkpt lat="49.82413" lon="0.78344">
        <ele>84.1</ele>
        <time>2020-06-18T09:54:37Z</time>
      </trkpt>
      <trkpt lat="49.82418" lon="0.78348">
        <ele>84.2</ele>
        <time>2020-06-18T09:54:38Z</time>
      </trkpt>
      <trkpt lat="49.82423" lon="0.78353">
        <ele>84.3</ele>
        <time>2020-06-18T09:54:39Z</time>
      </trkpt>
      <trkpt lat="49.82427" lon="0.78359">
        <ele>84.4</ele>
        <time>2020-06-18T09:54:40Z</time>
      </trkpt>
      <trkpt lat="49.82432" lon="0.78363">
        <ele>84.5</ele>
        <time>2020-06-18T09:54:41Z</time>
      </trkpt>
      <trkpt lat="49.82437" lon="0.78368">
        <ele>84.6</ele>
        <time>2020-06-18T09:54:42Z</time>
      </trkpt>
      <trkpt lat="49.82442" lon="0.78374">
        <ele>84.7</ele>
        <time>2020-06-18T09:54:43Z</time>
      </trkpt>
      <trkpt lat="49.82447" lon="0.78379">
        <ele>84.8</ele>
        <time>2020-06-18T09:54:44Z</time>
      </trkpt>
      <trkpt lat="49.82451" lon="0.78385">
        <ele>85</ele>
        <time>2020-06-18T09:54:45Z</time>
      </trkpt>
      <trkpt lat="49.82455" lon="0.78391">
        <ele>85.1</ele>
        <time>2020-06-18T09:54:46Z</time>
      </trkpt>
      <trkpt lat="49.82459" lon="0.78397">
        <ele>85.3</ele>
        <time>2020-06-18T09:54:47Z</time>
      </trkpt>
      <trkpt lat="49.82463" lon="0.78402">
        <ele>85.3</ele>
        <time>2020-06-18T09:54:48Z</time>
      </trkpt>
      <trkpt lat="49.82468" lon="0.78407">
        <ele>85.4</ele>
        <time>2020-06-18T09:54:49Z</time>
      </trkpt>
      <trkpt lat="49.82473" lon="0.78412">
        <ele>85.6</ele>
        <time>2020-06-18T09:54:50Z</time>
      </trkpt>
      <trkpt lat="49.82477" lon="0.78418">
        <ele>85.7</ele>
        <time>2020-06-18T09:54:51Z</time>
      </trkpt>
      <trkpt lat="49.82481" lon="0.78423">
        <ele>85.8</ele>
        <time>2020-06-18T09:54:52Z</time>
      </trkpt>
      <trkpt lat="49.82484" lon="0.7843">
        <ele>85.9</ele>
        <time>2020-06-18T09:54:53Z</time>
      </trkpt>
      <trkpt lat="49.82488" lon="0.78436">
        <ele>86.1</ele>
        <time>2020-06-18T09:54:54Z</time>
      </trkpt>
      <trkpt lat="49.82492" lon="0.78442">
        <ele>86.2</ele>
        <time>2020-06-18T09:54:55Z</time>
      </trkpt>
      <trkpt lat="49.82496" lon="0.78448">
        <ele>86.3</ele>
        <time>2020-06-18T09:54:56Z</time>
      </trkpt>
      <trkpt lat="49.825" lon="0.78455">
        <ele>86.4</ele>
        <time>2020-06-18T09:54:57Z</time>
      </trkpt>
      <trkpt lat="49.82503" lon="0.78462">
        <ele>86.6</ele>
        <time>2020-06-18T09:54:58Z</time>
      </trkpt>
      <trkpt lat="49.82507" lon="0.7847">
        <ele>86.7</ele>
        <time>2020-06-18T09:54:59Z</time>
      </trkpt>
      <trkpt lat="49.82511" lon="0.78475">
        <ele>86.7</ele>
        <time>2020-06-18T09:55:00Z</time>
      </trkpt>
      <trkpt lat="49.82516" lon="0.78481">
        <ele>86.8</ele>
        <time>2020-06-18T09:55:01Z</time>
      </trkpt>
      <trkpt lat="49.8252" lon="0.78487">
        <ele>86.9</ele>
        <time>2020-06-18T09:55:02Z</time>
      </trkpt>
      <trkpt lat="49.82524" lon="0.78493">
        <ele>87</ele>
        <time>2020-06-18T09:55:03Z</time>
      </trkpt>
      <trkpt lat="49.82529" lon="0.78498">
        <ele>87.2</ele>
        <time>2020-06-18T09:55:04Z</time>
      </trkpt>
      <trkpt lat="49.82534" lon="0.78504">
        <ele>87.3</ele>
        <time>2020-06-18T09:55:05Z</time>
      </trkpt>
      <trkpt lat="49.82537" lon="0.7851">
        <ele>87.5</ele>
        <time>2020-06-18T09:55:06Z</time>
      </trkpt>
      <trkpt lat="49.82542" lon="0.78516">
        <ele>87.5</ele>
        <time>2020-06-18T09:55:07Z</time>
      </trkpt>
      <trkpt lat="49.82546" lon="0.78522">
        <ele>87.6</ele>
        <time>2020-06-18T09:55:08Z</time>
      </trkpt>
      <trkpt lat="49.8255" lon="0.78528">
        <ele>87.7</ele>
        <time>2020-06-18T09:55:09Z</time>
      </trkpt>
      <trkpt lat="49.82554" lon="0.78533">
        <ele>87.7</ele>
        <time>2020-06-18T09:55:10Z</time>
      </trkpt>
      <trkpt lat="49.82558" lon="0.78539">
        <ele>87.8</ele>
        <time>2020-06-18T09:55:11Z</time>
      </trkpt>
      <trkpt lat="49.82562" lon="0.78544">
        <ele>87.9</ele>
        <time>2020-06-18T09:55:12Z</time>
      </trkpt>
      <trkpt lat="49.82566" lon="0.78549">
        <ele>87.9</ele>
        <time>2020-06-18T09:55:13Z</time>
      </trkpt>
      <trkpt lat="49.8257" lon="0.78554">
        <ele>88</ele>
        <time>2020-06-18T09:55:14Z</time>
      </trkpt>
      <trkpt lat="49.82574" lon="0.7856">
        <ele>88.1</ele>
        <time>2020-06-18T09:55:15Z</time>
      </trkpt>
      <trkpt lat="49.82578" lon="0.78566">
        <ele>88.2</ele>
        <time>2020-06-18T09:55:16Z</time>
      </trkpt>
      <trkpt lat="49.82581" lon="0.78573">
        <ele>88.3</ele>
        <time>2020-06-18T09:55:17Z</time>
      </trkpt>
      <trkpt lat="49.82584" lon="0.78579">
        <ele>88.4</ele>
        <time>2020-06-18T09:55:18Z</time>
      </trkpt>
      <trkpt lat="49.82588" lon="0.78584">
        <ele>88.5</ele>
        <time>2020-06-18T09:55:19Z</time>
      </trkpt>
      <trkpt lat="49.82592" lon="0.78589">
        <ele>88.6</ele>
        <time>2020-06-18T09:55:20Z</time>
      </trkpt>
      <trkpt lat="49.82595" lon="0.78595">
        <ele>88.7</ele>
        <time>2020-06-18T09:55:21Z</time>
      </trkpt>
      <trkpt lat="49.82599" lon="0.786">
        <ele>88.8</ele>
        <time>2020-06-18T09:55:22Z</time>
      </trkpt>
      <trkpt lat="49.82602" lon="0.78605">
        <ele>88.9</ele>
        <time>2020-06-18T09:55:23Z</time>
      </trkpt>
      <trkpt lat="49.82606" lon="0.78609">
        <ele>89</ele>
        <time>2020-06-18T09:55:24Z</time>
      </trkpt>
      <trkpt lat="49.82609" lon="0.78614">
        <ele>89.1</ele>
        <time>2020-06-18T09:55:25Z</time>
      </trkpt>
      <trkpt lat="49.82613" lon="0.78619">
        <ele>89.3</ele>
        <time>2020-06-18T09:55:26Z</time>
      </trkpt>
      <trkpt lat="49.82617" lon="0.78622">
        <ele>89.4</ele>
        <time>2020-06-18T09:55:27Z</time>
      </trkpt>
      <trkpt lat="49.8262" lon="0.78626">
        <ele>89.5</ele>
        <time>2020-06-18T09:55:28Z</time>
      </trkpt>
      <trkpt lat="49.82624" lon="0.78631">
        <ele>89.6</ele>
        <time>2020-06-18T09:55:29Z</time>
      </trkpt>
      <trkpt lat="49.82629" lon="0.78635">
        <ele>89.8</ele>
        <time>2020-06-18T09:55:30Z</time>
      </trkpt>
      <trkpt lat="49.82633" lon="0.78639">
        <ele>89.9</ele>
        <time>2020-06-18T09:55:31Z</time>
      </trkpt>
      <trkpt lat="49.82637" lon="0.78642">
        <ele>90</ele>
        <time>2020-06-18T09:55:32Z</time>
      </trkpt>
      <trkpt lat="49.82641" lon="0.78645">
        <ele>90.1</ele>
        <time>2020-06-18T09:55:33Z</time>
      </trkpt>
      <trkpt lat="49.82645" lon="0.78649">
        <ele>90.2</ele>
        <time>2020-06-18T09:55:34Z</time>
      </trkpt>
      <trkpt lat="49.82649" lon="0.78651">
        <ele>90.2</ele>
        <time>2020-06-18T09:55:35Z</time>
      </trkpt>
      <trkpt lat="49.82652" lon="0.78655">
        <ele>90.3</ele>
        <time>2020-06-18T09:55:36Z</time>
      </trkpt>
      <trkpt lat="49.82656" lon="0.78659">
        <ele>90.3</ele>
        <time>2020-06-18T09:55:37Z</time>
      </trkpt>
      <trkpt lat="49.8266" lon="0.78662">
        <ele>90.4</ele>
        <time>2020-06-18T09:55:38Z</time>
      </trkpt>
      <trkpt lat="49.82664" lon="0.78666">
        <ele>90.4</ele>
        <time>2020-06-18T09:55:39Z</time>
      </trkpt>
      <trkpt lat="49.82667" lon="0.7867">
        <ele>90.4</ele>
        <time>2020-06-18T09:55:40Z</time>
      </trkpt>
      <trkpt lat="49.82671" lon="0.78674">
        <ele>90.4</ele>
        <time>2020-06-18T09:55:41Z</time>
      </trkpt>
      <trkpt lat="49.82674" lon="0.78678">
        <ele>90.5</ele>
        <time>2020-06-18T09:55:42Z</time>
      </trkpt>
      <trkpt lat="49.82678" lon="0.78682">
        <ele>90.5</ele>
        <time>2020-06-18T09:55:43Z</time>
      </trkpt>
      <trkpt lat="49.82682" lon="0.78686">
        <ele>90.5</ele>
        <time>2020-06-18T09:55:44Z</time>
      </trkpt>
      <trkpt lat="49.82687" lon="0.78689">
        <ele>90.5</ele>
        <time>2020-06-18T09:55:45Z</time>
      </trkpt>
      <trkpt lat="49.82692" lon="0.78691">
        <ele>90.5</ele>
        <time>2020-06-18T09:55:46Z</time>
      </trkpt>
      <trkpt lat="49.82696" lon="0.78695">
        <ele>90.5</ele>
        <time>2020-06-18T09:55:47Z</time>
      </trkpt>
      <trkpt lat="49.82699" lon="0.787">
        <ele>90.4</ele>
        <time>2020-06-18T09:55:48Z</time>
      </trkpt>
      <trkpt lat="49.82703" lon="0.78704">
        <ele>90.4</ele>
        <time>2020-06-18T09:55:49Z</time>
      </trkpt>
      <trkpt lat="49.82706" lon="0.78708">
        <ele>90.4</ele>
        <time>2020-06-18T09:55:50Z</time>
      </trkpt>
      <trkpt lat="49.8271" lon="0.78711">
        <ele>90.3</ele>
        <time>2020-06-18T09:55:51Z</time>
      </trkpt>
      <trkpt lat="49.82714" lon="0.78714">
        <ele>90.3</ele>
        <time>2020-06-18T09:55:52Z</time>
      </trkpt>
      <trkpt lat="49.82718" lon="0.78717">
        <ele>90.3</ele>
        <time>2020-06-18T09:55:53Z</time>
      </trkpt>
      <trkpt lat="49.82721" lon="0.78721">
        <ele>90.3</ele>
        <time>2020-06-18T09:55:54Z</time>
      </trkpt>
      <trkpt lat="49.82723" lon="0.78726">
        <ele>90.2</ele>
        <time>2020-06-18T09:55:55Z</time>
      </trkpt>
      <trkpt lat="49.82722" lon="0.78733">
        <ele>90.6</ele>
        <time>2020-06-18T09:55:56Z</time>
      </trkpt>
      <trkpt lat="49.8272" lon="0.78738">
        <ele>90.7</ele>
        <time>2020-06-18T09:55:57Z</time>
      </trkpt>
      <trkpt lat="49.82717" lon="0.78743">
        <ele>90.7</ele>
        <time>2020-06-18T09:55:58Z</time>
      </trkpt>
      <trkpt lat="49.82713" lon="0.78747">
        <ele>90.8</ele>
        <time>2020-06-18T09:55:59Z</time>
      </trkpt>
      <trkpt lat="49.82711" lon="0.78751">
        <ele>90.8</ele>
        <time>2020-06-18T09:56:00Z</time>
      </trkpt>
      <trkpt lat="49.82707" lon="0.78755">
        <ele>90.9</ele>
        <time>2020-06-18T09:56:01Z</time>
      </trkpt>
      <trkpt lat="49.82705" lon="0.78757">
        <ele>90.9</ele>
        <time>2020-06-18T09:56:02Z</time>
      </trkpt>
      <trkpt lat="49.82702" lon="0.7876">
        <ele>90.9</ele>
        <time>2020-06-18T09:56:03Z</time>
      </trkpt>
      <trkpt lat="49.82701" lon="0.7876">
        <ele>90.9</ele>
        <time>2020-06-18T09:56:04Z</time>
      </trkpt>
      <trkpt lat="49.82698" lon="0.78763">
        <ele>91</ele>
        <time>2020-06-18T09:56:05Z</time>
      </trkpt>
      <trkpt lat="49.82697" lon="0.78763">
        <ele>91</ele>
        <time>2020-06-18T09:56:06Z</time>
      </trkpt>
      <trkpt lat="49.82695" lon="0.78764">
        <ele>91</ele>
        <time>2020-06-18T09:56:07Z</time>
      </trkpt>
      <trkpt lat="49.82694" lon="0.78766">
        <ele>91</ele>
        <time>2020-06-18T09:56:08Z</time>
      </trkpt>
      <trkpt lat="49.82694" lon="0.78768">
        <ele>91</ele>
        <time>2020-06-18T09:56:09Z</time>
      </trkpt>
      <trkpt lat="49.82695" lon="0.78768">
        <ele>91</ele>
        <time>2020-06-18T09:56:10Z</time>
      </trkpt>
      <trkpt lat="49.82695" lon="0.78767">
        <ele>91</ele>
        <time>2020-06-18T09:56:11Z</time>
      </trkpt>
      <trkpt lat="49.82696" lon="0.78766">
        <ele>91</ele>
        <time>2020-06-18T09:56:12Z</time>
      </trkpt>
      <trkpt lat="49.82697" lon="0.78765">
        <ele>91</ele>
        <time>2020-06-18T09:56:13Z</time>
      </trkpt>
      <trkpt lat="49.82698" lon="0.78764">
        <ele>91</ele>
        <time>2020-06-18T09:56:14Z</time>
      </trkpt>
      <trkpt lat="49.827" lon="0.78762">
        <ele>91</ele>
        <time>2020-06-18T09:56:15Z</time>
      </trkpt>
      <trkpt lat="49.82701" lon="0.7876">
        <ele>91</ele>
        <time>2020-06-18T09:56:16Z</time>
      </trkpt>
      <trkpt lat="49.82704" lon="0.78757">
        <ele>91</ele>
        <time>2020-06-18T09:56:17Z</time>
      </trkpt>
      <trkpt lat="49.82706" lon="0.78754">
        <ele>90.9</ele>
        <time>2020-06-18T09:56:18Z</time>
      </trkpt>
      <trkpt lat="49.8271" lon="0.78752">
        <ele>90.9</ele>
        <time>2020-06-18T09:56:19Z</time>
      </trkpt>
      <trkpt lat="49.82712" lon="0.78748">
        <ele>90.8</ele>
        <time>2020-06-18T09:56:20Z</time>
      </trkpt>
      <trkpt lat="49.82716" lon="0.78744">
        <ele>90.8</ele>
        <time>2020-06-18T09:56:21Z</time>
      </trkpt>
      <trkpt lat="49.82719" lon="0.7874">
        <ele>90.7</ele>
        <time>2020-06-18T09:56:22Z</time>
      </trkpt>
      <trkpt lat="49.82722" lon="0.78737">
        <ele>90.7</ele>
        <time>2020-06-18T09:56:23Z</time>
      </trkpt>
      <trkpt lat="49.82725" lon="0.78733">
        <ele>90.6</ele>
        <time>2020-06-18T09:56:24Z</time>
      </trkpt>
      <trkpt lat="49.82728" lon="0.7873">
        <ele>90.6</ele>
        <time>2020-06-18T09:56:25Z</time>
      </trkpt>
      <trkpt lat="49.82731" lon="0.78726">
        <ele>90.5</ele>
        <time>2020-06-18T09:56:26Z</time>
      </trkpt>
      <trkpt lat="49.82734" lon="0.78723">
        <ele>90.5</ele>
        <time>2020-06-18T09:56:27Z</time>
      </trkpt>
      <trkpt lat="49.82737" lon="0.78721">
        <ele>90.4</ele>
        <time>2020-06-18T09:56:28Z</time>
      </trkpt>
      <trkpt lat="49.8274" lon="0.78718">
        <ele>90.3</ele>
        <time>2020-06-18T09:56:29Z</time>
      </trkpt>
      <trkpt lat="49.82743" lon="0.78714">
        <ele>90.3</ele>
        <time>2020-06-18T09:56:30Z</time>
      </trkpt>
      <trkpt lat="49.82746" lon="0.7871">
        <ele>90.2</ele>
        <time>2020-06-18T09:56:31Z</time>
      </trkpt>
      <trkpt lat="49.8275" lon="0.78708">
        <ele>90.2</ele>
        <time>2020-06-18T09:56:32Z</time>
      </trkpt>
      <trkpt lat="49.82753" lon="0.78705">
        <ele>90.1</ele>
        <time>2020-06-18T09:56:33Z</time>
      </trkpt>
      <trkpt lat="49.82756" lon="0.78701">
        <ele>90.1</ele>
        <time>2020-06-18T09:56:34Z</time>
      </trkpt>
      <trkpt lat="49.82758" lon="0.78698">
        <ele>90.1</ele>
        <time>2020-06-18T09:56:35Z</time>
      </trkpt>
      <trkpt lat="49.82761" lon="0.78696">
        <ele>90.1</ele>
        <time>2020-06-18T09:56:36Z</time>
      </trkpt>
      <trkpt lat="49.82764" lon="0.78693">
        <ele>90.1</ele>
        <time>2020-06-18T09:56:37Z</time>
      </trkpt>
      <trkpt lat="49.82765" lon="0.78693">
        <ele>90</ele>
        <time>2020-06-18T09:56:38Z</time>
      </trkpt>
      <trkpt lat="49.82769" lon="0.78694">
        <ele>89.9</ele>
        <time>2020-06-18T09:56:39Z</time>
      </trkpt>
      <trkpt lat="49.82771" lon="0.78699">
        <ele>89.8</ele>
        <time>2020-06-18T09:56:40Z</time>
      </trkpt>
      <trkpt lat="49.82774" lon="0.78705">
        <ele>89.7</ele>
        <time>2020-06-18T09:56:41Z</time>
      </trkpt>
      <trkpt lat="49.82777" lon="0.78712">
        <ele>89.6</ele>
        <time>2020-06-18T09:56:42Z</time>
      </trkpt>
      <trkpt lat="49.82779" lon="0.78719">
        <ele>89.5</ele>
        <time>2020-06-18T09:56:43Z</time>
      </trkpt>
      <trkpt lat="49.82782" lon="0.78725">
        <ele>89.5</ele>
        <time>2020-06-18T09:56:44Z</time>
      </trkpt>
      <trkpt lat="49.82784" lon="0.78732">
        <ele>89.4</ele>
        <time>2020-06-18T09:56:45Z</time>
      </trkpt>
      <trkpt lat="49.82787" lon="0.78738">
        <ele>89.4</ele>
        <time>2020-06-18T09:56:46Z</time>
      </trkpt>
      <trkpt lat="49.82789" lon="0.78746">
        <ele>89.4</ele>
        <time>2020-06-18T09:56:47Z</time>
      </trkpt>
      <trkpt lat="49.82791" lon="0.78753">
        <ele>89.4</ele>
        <time>2020-06-18T09:56:48Z</time>
      </trkpt>
      <trkpt lat="49.82794" lon="0.78759">
        <ele>89.4</ele>
        <time>2020-06-18T09:56:49Z</time>
      </trkpt>
      <trkpt lat="49.82797" lon="0.78765">
        <ele>89.4</ele>
        <time>2020-06-18T09:56:50Z</time>
      </trkpt>
      <trkpt lat="49.82799" lon="0.7877">
        <ele>89.4</ele>
        <time>2020-06-18T09:56:51Z</time>
      </trkpt>
      <trkpt lat="49.82801" lon="0.78775">
        <ele>89.4</ele>
        <time>2020-06-18T09:56:52Z</time>
      </trkpt>
      <trkpt lat="49.828" lon="0.7878">
        <ele>89.4</ele>
        <time>2020-06-18T09:56:53Z</time>
      </trkpt>
      <trkpt lat="49.82796" lon="0.78786">
        <ele>89.4</ele>
        <time>2020-06-18T09:56:54Z</time>
      </trkpt>
      <trkpt lat="49.82792" lon="0.78791">
        <ele>89.4</ele>
        <time>2020-06-18T09:56:55Z</time>
      </trkpt>
      <trkpt lat="49.82788" lon="0.78795">
        <ele>89.4</ele>
        <time>2020-06-18T09:56:56Z</time>
      </trkpt>
      <trkpt lat="49.82784" lon="0.78799">
        <ele>89.3</ele>
        <time>2020-06-18T09:56:57Z</time>
      </trkpt>
      <trkpt lat="49.82781" lon="0.78802">
        <ele>89.3</ele>
        <time>2020-06-18T09:56:58Z</time>
      </trkpt>
      <trkpt lat="49.82778" lon="0.78806">
        <ele>89.3</ele>
        <time>2020-06-18T09:56:59Z</time>
      </trkpt>
      <trkpt lat="49.82774" lon="0.78809">
        <ele>89.2</ele>
        <time>2020-06-18T09:57:00Z</time>
      </trkpt>
      <trkpt lat="49.82773" lon="0.78813">
        <ele>89.2</ele>
        <time>2020-06-18T09:57:01Z</time>
      </trkpt>
      <trkpt lat="49.82772" lon="0.78819">
        <ele>89.2</ele>
        <time>2020-06-18T09:57:02Z</time>
      </trkpt>
      <trkpt lat="49.82774" lon="0.78826">
        <ele>89.2</ele>
        <time>2020-06-18T09:57:03Z</time>
      </trkpt>
      <trkpt lat="49.82775" lon="0.78833">
        <ele>89.2</ele>
        <time>2020-06-18T09:57:04Z</time>
      </trkpt>
      <trkpt lat="49.82777" lon="0.7884">
        <ele>89.2</ele>
        <time>2020-06-18T09:57:05Z</time>
      </trkpt>
      <trkpt lat="49.82779" lon="0.78847">
        <ele>89.2</ele>
        <time>2020-06-18T09:57:06Z</time>
      </trkpt>
      <trkpt lat="49.8278" lon="0.78854">
        <ele>89.2</ele>
        <time>2020-06-18T09:57:07Z</time>
      </trkpt>
      <trkpt lat="49.82782" lon="0.78861">
        <ele>89.3</ele>
        <time>2020-06-18T09:57:08Z</time>
      </trkpt>
      <trkpt lat="49.82785" lon="0.78867">
        <ele>89.3</ele>
        <time>2020-06-18T09:57:09Z</time>
      </trkpt>
      <trkpt lat="49.82787" lon="0.78873">
        <ele>89.4</ele>
        <time>2020-06-18T09:57:10Z</time>
      </trkpt>
      <trkpt lat="49.82789" lon="0.7888">
        <ele>89.4</ele>
        <time>2020-06-18T09:57:11Z</time>
      </trkpt>
      <trkpt lat="49.82792" lon="0.78886">
        <ele>89.5</ele>
        <time>2020-06-18T09:57:12Z</time>
      </trkpt>
      <trkpt lat="49.82793" lon="0.78893">
        <ele>89.6</ele>
        <time>2020-06-18T09:57:13Z</time>
      </trkpt>
      <trkpt lat="49.82795" lon="0.78899">
        <ele>89.7</ele>
        <time>2020-06-18T09:57:14Z</time>
      </trkpt>
      <trkpt lat="49.82798" lon="0.78905">
        <ele>89.8</ele>
        <time>2020-06-18T09:57:15Z</time>
      </trkpt>
      <trkpt lat="49.828" lon="0.78911">
        <ele>89.9</ele>
        <time>2020-06-18T09:57:16Z</time>
      </trkpt>
      <trkpt lat="49.82803" lon="0.78916">
        <ele>89.9</ele>
        <time>2020-06-18T09:57:17Z</time>
      </trkpt>
      <trkpt lat="49.82806" lon="0.78921">
        <ele>90</ele>
        <time>2020-06-18T09:57:18Z</time>
      </trkpt>
      <trkpt lat="49.82809" lon="0.78924">
        <ele>90.1</ele>
        <time>2020-06-18T09:57:19Z</time>
      </trkpt>
      <trkpt lat="49.82811" lon="0.78929">
        <ele>90.2</ele>
        <time>2020-06-18T09:57:20Z</time>
      </trkpt>
      <trkpt lat="49.82814" lon="0.78933">
        <ele>90.3</ele>
        <time>2020-06-18T09:57:21Z</time>
      </trkpt>
      <trkpt lat="49.82818" lon="0.78936">
        <ele>90.4</ele>
        <time>2020-06-18T09:57:22Z</time>
      </trkpt>
      <trkpt lat="49.82821" lon="0.78939">
        <ele>90.5</ele>
        <time>2020-06-18T09:57:23Z</time>
      </trkpt>
      <trkpt lat="49.82824" lon="0.78943">
        <ele>90.6</ele>
        <time>2020-06-18T09:57:24Z</time>
      </trkpt>
      <trkpt lat="49.82827" lon="0.78946">
        <ele>90.7</ele>
        <time>2020-06-18T09:57:25Z</time>
      </trkpt>
      <trkpt lat="49.82831" lon="0.78948">
        <ele>90.8</ele>
        <time>2020-06-18T09:57:26Z</time>
      </trkpt>
      <trkpt lat="49.82835" lon="0.78951">
        <ele>91</ele>
        <time>2020-06-18T09:57:27Z</time>
      </trkpt>
      <trkpt lat="49.82838" lon="0.78954">
        <ele>91</ele>
        <time>2020-06-18T09:57:28Z</time>
      </trkpt>
      <trkpt lat="49.82843" lon="0.78956">
        <ele>91.1</ele>
        <time>2020-06-18T09:57:29Z</time>
      </trkpt>
      <trkpt lat="49.82845" lon="0.78961">
        <ele>91.2</ele>
        <time>2020-06-18T09:57:30Z</time>
      </trkpt>
      <trkpt lat="49.82847" lon="0.78967">
        <ele>91.3</ele>
        <time>2020-06-18T09:57:31Z</time>
      </trkpt>
      <trkpt lat="49.82846" lon="0.78974">
        <ele>91.4</ele>
        <time>2020-06-18T09:57:32Z</time>
      </trkpt>
      <trkpt lat="49.82846" lon="0.7898">
        <ele>91.4</ele>
        <time>2020-06-18T09:57:33Z</time>
      </trkpt>
      <trkpt lat="49.82845" lon="0.78986">
        <ele>91.5</ele>
        <time>2020-06-18T09:57:34Z</time>
      </trkpt>
      <trkpt lat="49.82845" lon="0.78992">
        <ele>91.6</ele>
        <time>2020-06-18T09:57:35Z</time>
      </trkpt>
      <trkpt lat="49.82845" lon="0.78999">
        <ele>91.6</ele>
        <time>2020-06-18T09:57:36Z</time>
      </trkpt>
      <trkpt lat="49.82844" lon="0.79006">
        <ele>91.7</ele>
        <time>2020-06-18T09:57:37Z</time>
      </trkpt>
      <trkpt lat="49.82843" lon="0.79012">
        <ele>91.7</ele>
        <time>2020-06-18T09:57:38Z</time>
      </trkpt>
      <trkpt lat="49.82844" lon="0.79018">
        <ele>91.8</ele>
        <time>2020-06-18T09:57:39Z</time>
      </trkpt>
      <trkpt lat="49.82844" lon="0.79024">
        <ele>91.8</ele>
        <time>2020-06-18T09:57:40Z</time>
      </trkpt>
      <trkpt lat="49.82843" lon="0.7903">
        <ele>91.9</ele>
        <time>2020-06-18T09:57:41Z</time>
      </trkpt>
      <trkpt lat="49.82843" lon="0.79036">
        <ele>91.9</ele>
        <time>2020-06-18T09:57:42Z</time>
      </trkpt>
      <trkpt lat="49.82843" lon="0.79042">
        <ele>91.9</ele>
        <time>2020-06-18T09:57:43Z</time>
      </trkpt>
      <trkpt lat="49.82842" lon="0.79047">
        <ele>92</ele>
        <time>2020-06-18T09:57:44Z</time>
      </trkpt>
      <trkpt lat="49.82842" lon="0.79052">
        <ele>92</ele>
        <time>2020-06-18T09:57:45Z</time>
      </trkpt>
      <trkpt lat="49.82842" lon="0.79056">
        <ele>92</ele>
        <time>2020-06-18T09:57:46Z</time>
      </trkpt>
      <trkpt lat="49.82841" lon="0.79061">
        <ele>92.1</ele>
        <time>2020-06-18T09:57:47Z</time>
      </trkpt>
      <trkpt lat="49.82842" lon="0.79066">
        <ele>92.1</ele>
        <time>2020-06-18T09:57:48Z</time>
      </trkpt>
      <trkpt lat="49.82842" lon="0.79067">
        <ele>92.1</ele>
        <time>2020-06-18T09:57:49Z</time>
      </trkpt>
      <trkpt lat="49.82841" lon="0.7907">
        <ele>92.1</ele>
        <time>2020-06-18T09:57:50Z</time>
      </trkpt>
      <trkpt lat="49.82841" lon="0.79072">
        <ele>92.1</ele>
        <time>2020-06-18T09:57:51Z</time>
      </trkpt>
      <trkpt lat="49.82841" lon="0.79073">
        <ele>92.2</ele>
        <time>2020-06-18T09:57:52Z</time>
      </trkpt>
      <trkpt lat="49.82842" lon="0.79074">
        <ele>92.2</ele>
        <time>2020-06-18T09:57:53Z</time>
      </trkpt>
      <trkpt lat="49.82842" lon="0.79074">
        <ele>92.2</ele>
        <time>2020-06-18T09:57:54Z</time>
      </trkpt>
      <trkpt lat="49.82843" lon="0.79075">
        <ele>92.2</ele>
        <time>2020-06-18T09:57:55Z</time>
      </trkpt>
      <trkpt lat="49.82846" lon="0.79079">
        <ele>92.2</ele>
        <time>2020-06-18T09:57:56Z</time>
      </trkpt>
      <trkpt lat="49.82847" lon="0.7908">
        <ele>92.2</ele>
        <time>2020-06-18T09:57:57Z</time>
      </trkpt>
      <trkpt lat="49.8285" lon="0.79081">
        <ele>92.2</ele>
        <time>2020-06-18T09:57:58Z</time>
      </trkpt>
      <trkpt lat="49.82854" lon="0.79082">
        <ele>92.2</ele>
        <time>2020-06-18T09:57:59Z</time>
      </trkpt>
      <trkpt lat="49.82856" lon="0.79082">
        <ele>92.2</ele>
        <time>2020-06-18T09:58:00Z</time>
      </trkpt>
      <trkpt lat="49.82859" lon="0.79081">
        <ele>92.2</ele>
        <time>2020-06-18T09:58:01Z</time>
      </trkpt>
      <trkpt lat="49.82863" lon="0.79081">
        <ele>92.2</ele>
        <time>2020-06-18T09:58:02Z</time>
      </trkpt>
      <trkpt lat="49.82867" lon="0.79083">
        <ele>92.2</ele>
        <time>2020-06-18T09:58:03Z</time>
      </trkpt>
      <trkpt lat="49.82871" lon="0.79085">
        <ele>92.1</ele>
        <time>2020-06-18T09:58:04Z</time>
      </trkpt>
      <trkpt lat="49.82876" lon="0.79087">
        <ele>92.1</ele>
        <time>2020-06-18T09:58:05Z</time>
      </trkpt>
      <trkpt lat="49.8288" lon="0.79088">
        <ele>92.1</ele>
        <time>2020-06-18T09:58:06Z</time>
      </trkpt>
      <trkpt lat="49.82885" lon="0.79089">
        <ele>92.1</ele>
        <time>2020-06-18T09:58:07Z</time>
      </trkpt>
      <trkpt lat="49.82889" lon="0.79089">
        <ele>92.1</ele>
        <time>2020-06-18T09:58:08Z</time>
      </trkpt>
      <trkpt lat="49.82892" lon="0.79091">
        <ele>92.1</ele>
        <time>2020-06-18T09:58:09Z</time>
      </trkpt>
      <trkpt lat="49.82896" lon="0.79092">
        <ele>92.1</ele>
        <time>2020-06-18T09:58:10Z</time>
      </trkpt>
      <trkpt lat="49.82899" lon="0.79093">
        <ele>92.1</ele>
        <time>2020-06-18T09:58:11Z</time>
      </trkpt>
      <trkpt lat="49.82903" lon="0.79092">
        <ele>92.1</ele>
        <time>2020-06-18T09:58:12Z</time>
      </trkpt>
      <trkpt lat="49.82907" lon="0.79094">
        <ele>92.1</ele>
        <time>2020-06-18T09:58:13Z</time>
      </trkpt>
      <trkpt lat="49.82911" lon="0.79095">
        <ele>92.1</ele>
        <time>2020-06-18T09:58:14Z</time>
      </trkpt>
      <trkpt lat="49.82915" lon="0.79097">
        <ele>92.1</ele>
        <time>2020-06-18T09:58:15Z</time>
      </trkpt>
      <trkpt lat="49.82918" lon="0.79101">
        <ele>92</ele>
        <time>2020-06-18T09:58:16Z</time>
      </trkpt>
      <trkpt lat="49.8292" lon="0.79107">
        <ele>92</ele>
        <time>2020-06-18T09:58:17Z</time>
      </trkpt>
      <trkpt lat="49.82923" lon="0.79112">
        <ele>91.9</ele>
        <time>2020-06-18T09:58:18Z</time>
      </trkpt>
      <trkpt lat="49.82926" lon="0.79118">
        <ele>91.9</ele>
        <time>2020-06-18T09:58:19Z</time>
      </trkpt>
      <trkpt lat="49.82928" lon="0.79124">
        <ele>91.8</ele>
        <time>2020-06-18T09:58:20Z</time>
      </trkpt>
      <trkpt lat="49.82931" lon="0.79131">
        <ele>91.8</ele>
        <time>2020-06-18T09:58:21Z</time>
      </trkpt>
      <trkpt lat="49.82934" lon="0.79137">
        <ele>91.7</ele>
        <time>2020-06-18T09:58:22Z</time>
      </trkpt>
      <trkpt lat="49.82936" lon="0.79144">
        <ele>91.6</ele>
        <time>2020-06-18T09:58:23Z</time>
      </trkpt>
      <trkpt lat="49.82938" lon="0.7915">
        <ele>91.6</ele>
        <time>2020-06-18T09:58:24Z</time>
      </trkpt>
      <trkpt lat="49.8294" lon="0.79157">
        <ele>91.5</ele>
        <time>2020-06-18T09:58:25Z</time>
      </trkpt>
      <trkpt lat="49.82943" lon="0.79164">
        <ele>91.4</ele>
        <time>2020-06-18T09:58:26Z</time>
      </trkpt>
      <trkpt lat="49.82945" lon="0.7917">
        <ele>91.4</ele>
        <time>2020-06-18T09:58:27Z</time>
      </trkpt>
      <trkpt lat="49.82948" lon="0.79177">
        <ele>91.3</ele>
        <time>2020-06-18T09:58:28Z</time>
      </trkpt>
      <trkpt lat="49.82951" lon="0.79183">
        <ele>91.3</ele>
        <time>2020-06-18T09:58:29Z</time>
      </trkpt>
      <trkpt lat="49.82954" lon="0.7919">
        <ele>91.3</ele>
        <time>2020-06-18T09:58:30Z</time>
      </trkpt>
      <trkpt lat="49.82957" lon="0.79198">
        <ele>91.4</ele>
        <time>2020-06-18T09:58:31Z</time>
      </trkpt>
      <trkpt lat="49.8296" lon="0.79204">
        <ele>91.4</ele>
        <time>2020-06-18T09:58:32Z</time>
      </trkpt>
      <trkpt lat="49.82964" lon="0.79211">
        <ele>91.3</ele>
        <time>2020-06-18T09:58:33Z</time>
      </trkpt>
      <trkpt lat="49.82967" lon="0.79218">
        <ele>91.3</ele>
        <time>2020-06-18T09:58:34Z</time>
      </trkpt>
      <trkpt lat="49.8297" lon="0.79225">
        <ele>91.3</ele>
        <time>2020-06-18T09:58:35Z</time>
      </trkpt>
      <trkpt lat="49.82974" lon="0.79232">
        <ele>91.2</ele>
        <time>2020-06-18T09:58:36Z</time>
      </trkpt>
      <trkpt lat="49.82977" lon="0.79238">
        <ele>91.2</ele>
        <time>2020-06-18T09:58:37Z</time>
      </trkpt>
      <trkpt lat="49.8298" lon="0.79245">
        <ele>91.1</ele>
        <time>2020-06-18T09:58:38Z</time>
      </trkpt>
      <trkpt lat="49.82983" lon="0.79252">
        <ele>91</ele>
        <time>2020-06-18T09:58:39Z</time>
      </trkpt>
      <trkpt lat="49.82985" lon="0.79258">
        <ele>91</ele>
        <time>2020-06-18T09:58:40Z</time>
      </trkpt>
      <trkpt lat="49.82988" lon="0.79265">
        <ele>90.9</ele>
        <time>2020-06-18T09:58:41Z</time>
      </trkpt>
      <trkpt lat="49.82989" lon="0.79274">
        <ele>90.8</ele>
        <time>2020-06-18T09:58:42Z</time>
      </trkpt>
      <trkpt lat="49.82992" lon="0.7928">
        <ele>90.7</ele>
        <time>2020-06-18T09:58:43Z</time>
      </trkpt>
      <trkpt lat="49.82994" lon="0.79288">
        <ele>90.6</ele>
        <time>2020-06-18T09:58:44Z</time>
      </trkpt>
      <trkpt lat="49.82995" lon="0.79296">
        <ele>90.5</ele>
        <time>2020-06-18T09:58:45Z</time>
      </trkpt>
      <trkpt lat="49.82997" lon="0.79305">
        <ele>90.4</ele>
        <time>2020-06-18T09:58:46Z</time>
      </trkpt>
      <trkpt lat="49.82999" lon="0.79314">
        <ele>90.3</ele>
        <time>2020-06-18T09:58:47Z</time>
      </trkpt>
      <trkpt lat="49.83" lon="0.79323">
        <ele>90.2</ele>
        <time>2020-06-18T09:58:48Z</time>
      </trkpt>
      <trkpt lat="49.83002" lon="0.79332">
        <ele>90.1</ele>
        <time>2020-06-18T09:58:49Z</time>
      </trkpt>
      <trkpt lat="49.83003" lon="0.79341">
        <ele>90</ele>
        <time>2020-06-18T09:58:50Z</time>
      </trkpt>
      <trkpt lat="49.83005" lon="0.79348">
        <ele>89.9</ele>
        <time>2020-06-18T09:58:51Z</time>
      </trkpt>
      <trkpt lat="49.83007" lon="0.79356">
        <ele>89.7</ele>
        <time>2020-06-18T09:58:52Z</time>
      </trkpt>
      <trkpt lat="49.83009" lon="0.79364">
        <ele>89.6</ele>
        <time>2020-06-18T09:58:53Z</time>
      </trkpt>
      <trkpt lat="49.83011" lon="0.79373">
        <ele>89.4</ele>
        <time>2020-06-18T09:58:54Z</time>
      </trkpt>
      <trkpt lat="49.83015" lon="0.7938">
        <ele>89.3</ele>
        <time>2020-06-18T09:58:55Z</time>
      </trkpt>
      <trkpt lat="49.83019" lon="0.79387">
        <ele>89.1</ele>
        <time>2020-06-18T09:58:56Z</time>
      </trkpt>
      <trkpt lat="49.83025" lon="0.79391">
        <ele>88.9</ele>
        <time>2020-06-18T09:58:57Z</time>
      </trkpt>
      <trkpt lat="49.83031" lon="0.79397">
        <ele>88.7</ele>
        <time>2020-06-18T09:58:58Z</time>
      </trkpt>
      <trkpt lat="49.83036" lon="0.79403">
        <ele>88.5</ele>
        <time>2020-06-18T09:58:59Z</time>
      </trkpt>
      <trkpt lat="49.83042" lon="0.79408">
        <ele>88.3</ele>
        <time>2020-06-18T09:59:00Z</time>
      </trkpt>
      <trkpt lat="49.83048" lon="0.79414">
        <ele>88.1</ele>
        <time>2020-06-18T09:59:01Z</time>
      </trkpt>
      <trkpt lat="49.83054" lon="0.7942">
        <ele>87.9</ele>
        <time>2020-06-18T09:59:02Z</time>
      </trkpt>
      <trkpt lat="49.8306" lon="0.79426">
        <ele>87.7</ele>
        <time>2020-06-18T09:59:03Z</time>
      </trkpt>
      <trkpt lat="49.83065" lon="0.79433">
        <ele>87.5</ele>
        <time>2020-06-18T09:59:04Z</time>
      </trkpt>
      <trkpt lat="49.83072" lon="0.79439">
        <ele>87.3</ele>
        <time>2020-06-18T09:59:05Z</time>
      </trkpt>
      <trkpt lat="49.83078" lon="0.79445">
        <ele>87.1</ele>
        <time>2020-06-18T09:59:06Z</time>
      </trkpt>
      <trkpt lat="49.83084" lon="0.79451">
        <ele>86.9</ele>
        <time>2020-06-18T09:59:07Z</time>
      </trkpt>
      <trkpt lat="49.8309" lon="0.79457">
        <ele>86.7</ele>
        <time>2020-06-18T09:59:08Z</time>
      </trkpt>
      <trkpt lat="49.83095" lon="0.79465">
        <ele>86.6</ele>
        <time>2020-06-18T09:59:09Z</time>
      </trkpt>
      <trkpt lat="49.83101" lon="0.79472">
        <ele>86.5</ele>
        <time>2020-06-18T09:59:10Z</time>
      </trkpt>
      <trkpt lat="49.83106" lon="0.7948">
        <ele>86.4</ele>
        <time>2020-06-18T09:59:11Z</time>
      </trkpt>
      <trkpt lat="49.83111" lon="0.79488">
        <ele>86.3</ele>
        <time>2020-06-18T09:59:12Z</time>
      </trkpt>
      <trkpt lat="49.83116" lon="0.79497">
        <ele>86</ele>
        <time>2020-06-18T09:59:13Z</time>
      </trkpt>
      <trkpt lat="49.83121" lon="0.79505">
        <ele>85.8</ele>
        <time>2020-06-18T09:59:14Z</time>
      </trkpt>
      <trkpt lat="49.83126" lon="0.79512">
        <ele>85.7</ele>
        <time>2020-06-18T09:59:15Z</time>
      </trkpt>
      <trkpt lat="49.83132" lon="0.7952">
        <ele>85.6</ele>
        <time>2020-06-18T09:59:16Z</time>
      </trkpt>
      <trkpt lat="49.83136" lon="0.79529">
        <ele>85.5</ele>
        <time>2020-06-18T09:59:17Z</time>
      </trkpt>
      <trkpt lat="49.8314" lon="0.79538">
        <ele>85.4</ele>
        <time>2020-06-18T09:59:18Z</time>
      </trkpt>
      <trkpt lat="49.83143" lon="0.79547">
        <ele>85.3</ele>
        <time>2020-06-18T09:59:19Z</time>
      </trkpt>
      <trkpt lat="49.83146" lon="0.79557">
        <ele>85.2</ele>
        <time>2020-06-18T09:59:20Z</time>
      </trkpt>
      <trkpt lat="49.83149" lon="0.79566">
        <ele>85.1</ele>
        <time>2020-06-18T09:59:21Z</time>
      </trkpt>
      <trkpt lat="49.83152" lon="0.79575">
        <ele>85.1</ele>
        <time>2020-06-18T09:59:22Z</time>
      </trkpt>
      <trkpt lat="49.83156" lon="0.79584">
        <ele>85</ele>
        <time>2020-06-18T09:59:23Z</time>
      </trkpt>
      <trkpt lat="49.83159" lon="0.79594">
        <ele>84.9</ele>
        <time>2020-06-18T09:59:24Z</time>
      </trkpt>
      <trkpt lat="49.83162" lon="0.79604">
        <ele>84.8</ele>
        <time>2020-06-18T09:59:25Z</time>
      </trkpt>
      <trkpt lat="49.83165" lon="0.79613">
        <ele>84.8</ele>
        <time>2020-06-18T09:59:26Z</time>
      </trkpt>
      <trkpt lat="49.83168" lon="0.79623">
        <ele>84.7</ele>
        <time>2020-06-18T09:59:27Z</time>
      </trkpt>
      <trkpt lat="49.83171" lon="0.79632">
        <ele>84.6</ele>
        <time>2020-06-18T09:59:28Z</time>
      </trkpt>
      <trkpt lat="49.83175" lon="0.79641">
        <ele>84.5</ele>
        <time>2020-06-18T09:59:29Z</time>
      </trkpt>
      <trkpt lat="49.83178" lon="0.7965">
        <ele>84.5</ele>
        <time>2020-06-18T09:59:30Z</time>
      </trkpt>
      <trkpt lat="49.83181" lon="0.7966">
        <ele>84.5</ele>
        <time>2020-06-18T09:59:31Z</time>
      </trkpt>
      <trkpt lat="49.83185" lon="0.79669">
        <ele>84.5</ele>
        <time>2020-06-18T09:59:32Z</time>
      </trkpt>
      <trkpt lat="49.83188" lon="0.79678">
        <ele>84.5</ele>
        <time>2020-06-18T09:59:33Z</time>
      </trkpt>
      <trkpt lat="49.83192" lon="0.79687">
        <ele>84.5</ele>
        <time>2020-06-18T09:59:34Z</time>
      </trkpt>
      <trkpt lat="49.83196" lon="0.79695">
        <ele>84.5</ele>
        <time>2020-06-18T09:59:35Z</time>
      </trkpt>
      <trkpt lat="49.83201" lon="0.79702">
        <ele>84.5</ele>
        <time>2020-06-18T09:59:36Z</time>
      </trkpt>
      <trkpt lat="49.83205" lon="0.79709">
        <ele>84.5</ele>
        <time>2020-06-18T09:59:37Z</time>
      </trkpt>
      <trkpt lat="49.8321" lon="0.79716">
        <ele>84.6</ele>
        <time>2020-06-18T09:59:38Z</time>
      </trkpt>
      <trkpt lat="49.83214" lon="0.79722">
        <ele>84.6</ele>
        <time>2020-06-18T09:59:39Z</time>
      </trkpt>
      <trkpt lat="49.8322" lon="0.79726">
        <ele>84.6</ele>
        <time>2020-06-18T09:59:40Z</time>
      </trkpt>
      <trkpt lat="49.83225" lon="0.79732">
        <ele>84.5</ele>
        <time>2020-06-18T09:59:41Z</time>
      </trkpt>
      <trkpt lat="49.8323" lon="0.79737">
        <ele>84.5</ele>
        <time>2020-06-18T09:59:42Z</time>
      </trkpt>
      <trkpt lat="49.83234" lon="0.79743">
        <ele>84.4</ele>
        <time>2020-06-18T09:59:43Z</time>
      </trkpt>
      <trkpt lat="49.83239" lon="0.7975">
        <ele>84.3</ele>
        <time>2020-06-18T09:59:44Z</time>
      </trkpt>
      <trkpt lat="49.83243" lon="0.79757">
        <ele>84.2</ele>
        <time>2020-06-18T09:59:45Z</time>
      </trkpt>
      <trkpt lat="49.83248" lon="0.79764">
        <ele>84.2</ele>
        <time>2020-06-18T09:59:46Z</time>
      </trkpt>
      <trkpt lat="49.83252" lon="0.79772">
        <ele>84.1</ele>
        <time>2020-06-18T09:59:47Z</time>
      </trkpt>
      <trkpt lat="49.83257" lon="0.79779">
        <ele>84</ele>
        <time>2020-06-18T09:59:48Z</time>
      </trkpt>
      <trkpt lat="49.83263" lon="0.79785">
        <ele>83.9</ele>
        <time>2020-06-18T09:59:49Z</time>
      </trkpt>
      <trkpt lat="49.83268" lon="0.79792">
        <ele>83.9</ele>
        <time>2020-06-18T09:59:50Z</time>
      </trkpt>
      <trkpt lat="49.83273" lon="0.79799">
        <ele>83.8</ele>
        <time>2020-06-18T09:59:51Z</time>
      </trkpt>
      <trkpt lat="49.83278" lon="0.79807">
        <ele>83.8</ele>
        <time>2020-06-18T09:59:52Z</time>
      </trkpt>
      <trkpt lat="49.83283" lon="0.79815">
        <ele>83.7</ele>
        <time>2020-06-18T09:59:53Z</time>
      </trkpt>
      <trkpt lat="49.83288" lon="0.79822">
        <ele>83.5</ele>
        <time>2020-06-18T09:59:54Z</time>
      </trkpt>
      <trkpt lat="49.83294" lon="0.79828">
        <ele>83.4</ele>
        <time>2020-06-18T09:59:55Z</time>
      </trkpt>
      <trkpt lat="49.833" lon="0.79835">
        <ele>83.3</ele>
        <time>2020-06-18T09:59:56Z</time>
      </trkpt>
      <trkpt lat="49.83305" lon="0.79842">
        <ele>83.1</ele>
        <time>2020-06-18T09:59:57Z</time>
      </trkpt>
      <trkpt lat="49.83311" lon="0.7985">
        <ele>83</ele>
        <time>2020-06-18T09:59:58Z</time>
      </trkpt>
      <trkpt lat="49.83316" lon="0.79859">
        <ele>82.9</ele>
        <time>2020-06-18T09:59:59Z</time>
      </trkpt>
      <trkpt lat="49.83321" lon="0.79866">
        <ele>82.8</ele>
        <time>2020-06-18T10:00:00Z</time>
      </trkpt>
      <trkpt lat="49.83326" lon="0.79874">
        <ele>82.7</ele>
        <time>2020-06-18T10:00:01Z</time>
      </trkpt>
      <trkpt lat="49.83331" lon="0.79882">
        <ele>82.7</ele>
        <time>2020-06-18T10:00:02Z</time>
      </trkpt>
      <trkpt lat="49.83337" lon="0.79889">
        <ele>82.6</ele>
        <time>2020-06-18T10:00:03Z</time>
      </trkpt>
      <trkpt lat="49.83341" lon="0.79898">
        <ele>82.6</ele>
        <time>2020-06-18T10:00:04Z</time>
      </trkpt>
      <trkpt lat="49.83346" lon="0.79905">
        <ele>82.6</ele>
        <time>2020-06-18T10:00:05Z</time>
      </trkpt>
      <trkpt lat="49.83351" lon="0.79913">
        <ele>82.5</ele>
        <time>2020-06-18T10:00:06Z</time>
      </trkpt>
      <trkpt lat="49.83356" lon="0.7992">
        <ele>82.3</ele>
        <time>2020-06-18T10:00:07Z</time>
      </trkpt>
      <trkpt lat="49.83361" lon="0.79928">
        <ele>82.2</ele>
        <time>2020-06-18T10:00:08Z</time>
      </trkpt>
      <trkpt lat="49.83366" lon="0.79935">
        <ele>82.2</ele>
        <time>2020-06-18T10:00:09Z</time>
      </trkpt>
      <trkpt lat="49.83371" lon="0.79942">
        <ele>82.1</ele>
        <time>2020-06-18T10:00:10Z</time>
      </trkpt>
      <trkpt lat="49.83376" lon="0.7995">
        <ele>82.1</ele>
        <time>2020-06-18T10:00:11Z</time>
      </trkpt>
      <trkpt lat="49.83381" lon="0.79957">
        <ele>82.1</ele>
        <time>2020-06-18T10:00:12Z</time>
      </trkpt>
      <trkpt lat="49.83386" lon="0.79964">
        <ele>82.1</ele>
        <time>2020-06-18T10:00:13Z</time>
      </trkpt>
      <trkpt lat="49.83391" lon="0.79971">
        <ele>82.1</ele>
        <time>2020-06-18T10:00:14Z</time>
      </trkpt>
      <trkpt lat="49.83395" lon="0.79979">
        <ele>82.1</ele>
        <time>2020-06-18T10:00:15Z</time>
      </trkpt>
      <trkpt lat="49.83399" lon="0.79987">
        <ele>82.1</ele>
        <time>2020-06-18T10:00:16Z</time>
      </trkpt>
      <trkpt lat="49.83404" lon="0.79995">
        <ele>82.1</ele>
        <time>2020-06-18T10:00:17Z</time>
      </trkpt>
      <trkpt lat="49.83408" lon="0.80003">
        <ele>82.2</ele>
        <time>2020-06-18T10:00:18Z</time>
      </trkpt>
      <trkpt lat="49.83412" lon="0.80011">
        <ele>82.2</ele>
        <time>2020-06-18T10:00:19Z</time>
      </trkpt>
      <trkpt lat="49.83416" lon="0.80018">
        <ele>82.3</ele>
        <time>2020-06-18T10:00:20Z</time>
      </trkpt>
      <trkpt lat="49.83421" lon="0.80026">
        <ele>82.3</ele>
        <time>2020-06-18T10:00:21Z</time>
      </trkpt>
      <trkpt lat="49.83425" lon="0.80034">
        <ele>82.2</ele>
        <time>2020-06-18T10:00:22Z</time>
      </trkpt>
      <trkpt lat="49.83429" lon="0.80042">
        <ele>82.2</ele>
        <time>2020-06-18T10:00:23Z</time>
      </trkpt>
      <trkpt lat="49.83433" lon="0.8005">
        <ele>82.2</ele>
        <time>2020-06-18T10:00:24Z</time>
      </trkpt>
      <trkpt lat="49.83437" lon="0.80058">
        <ele>82.2</ele>
        <time>2020-06-18T10:00:25Z</time>
      </trkpt>
      <trkpt lat="49.83441" lon="0.80065">
        <ele>82.1</ele>
        <time>2020-06-18T10:00:26Z</time>
      </trkpt>
      <trkpt lat="49.83445" lon="0.80074">
        <ele>82.1</ele>
        <time>2020-06-18T10:00:27Z</time>
      </trkpt>
      <trkpt lat="49.83448" lon="0.80082">
        <ele>82</ele>
        <time>2020-06-18T10:00:28Z</time>
      </trkpt>
      <trkpt lat="49.83452" lon="0.80091">
        <ele>82</ele>
        <time>2020-06-18T10:00:29Z</time>
      </trkpt>
      <trkpt lat="49.83456" lon="0.80099">
        <ele>82</ele>
        <time>2020-06-18T10:00:30Z</time>
      </trkpt>
      <trkpt lat="49.8346" lon="0.80108">
        <ele>81.9</ele>
        <time>2020-06-18T10:00:31Z</time>
      </trkpt>
      <trkpt lat="49.83464" lon="0.80116">
        <ele>81.9</ele>
        <time>2020-06-18T10:00:32Z</time>
      </trkpt>
      <trkpt lat="49.83468" lon="0.80124">
        <ele>81.8</ele>
        <time>2020-06-18T10:00:33Z</time>
      </trkpt>
      <trkpt lat="49.83471" lon="0.80131">
        <ele>81.7</ele>
        <time>2020-06-18T10:00:34Z</time>
      </trkpt>
      <trkpt lat="49.83475" lon="0.80139">
        <ele>81.6</ele>
        <time>2020-06-18T10:00:35Z</time>
      </trkpt>
      <trkpt lat="49.83479" lon="0.80145">
        <ele>81.5</ele>
        <time>2020-06-18T10:00:36Z</time>
      </trkpt>
      <trkpt lat="49.83483" lon="0.80153">
        <ele>81.4</ele>
        <time>2020-06-18T10:00:37Z</time>
      </trkpt>
      <trkpt lat="49.83486" lon="0.8016">
        <ele>81.3</ele>
        <time>2020-06-18T10:00:38Z</time>
      </trkpt>
      <trkpt lat="49.8349" lon="0.80168">
        <ele>81.2</ele>
        <time>2020-06-18T10:00:39Z</time>
      </trkpt>
      <trkpt lat="49.83492" lon="0.80176">
        <ele>81.1</ele>
        <time>2020-06-18T10:00:40Z</time>
      </trkpt>
      <trkpt lat="49.83495" lon="0.80185">
        <ele>81.1</ele>
        <time>2020-06-18T10:00:41Z</time>
      </trkpt>
      <trkpt lat="49.83499" lon="0.80194">
        <ele>81</ele>
        <time>2020-06-18T10:00:42Z</time>
      </trkpt>
      <trkpt lat="49.83503" lon="0.80201">
        <ele>81</ele>
        <time>2020-06-18T10:00:43Z</time>
      </trkpt>
      <trkpt lat="49.83507" lon="0.80209">
        <ele>80.9</ele>
        <time>2020-06-18T10:00:44Z</time>
      </trkpt>
      <trkpt lat="49.83511" lon="0.80216">
        <ele>80.8</ele>
        <time>2020-06-18T10:00:45Z</time>
      </trkpt>
      <trkpt lat="49.83514" lon="0.80224">
        <ele>80.8</ele>
        <time>2020-06-18T10:00:46Z</time>
      </trkpt>
      <trkpt lat="49.83517" lon="0.80232">
        <ele>80.7</ele>
        <time>2020-06-18T10:00:47Z</time>
      </trkpt>
      <trkpt lat="49.83519" lon="0.80239">
        <ele>80.6</ele>
        <time>2020-06-18T10:00:48Z</time>
      </trkpt>
      <trkpt lat="49.83523" lon="0.80245">
        <ele>80.6</ele>
        <time>2020-06-18T10:00:49Z</time>
      </trkpt>
      <trkpt lat="49.83526" lon="0.80252">
        <ele>80.4</ele>
        <time>2020-06-18T10:00:50Z</time>
      </trkpt>
      <trkpt lat="49.83529" lon="0.80259">
        <ele>80.3</ele>
        <time>2020-06-18T10:00:51Z</time>
      </trkpt>
      <trkpt lat="49.83533" lon="0.80267">
        <ele>80.1</ele>
        <time>2020-06-18T10:00:52Z</time>
      </trkpt>
      <trkpt lat="49.83536" lon="0.80274">
        <ele>80</ele>
        <time>2020-06-18T10:00:53Z</time>
      </trkpt>
      <trkpt lat="49.83539" lon="0.80282">
        <ele>79.8</ele>
        <time>2020-06-18T10:00:54Z</time>
      </trkpt>
      <trkpt lat="49.83543" lon="0.8029">
        <ele>79.7</ele>
        <time>2020-06-18T10:00:55Z</time>
      </trkpt>
      <trkpt lat="49.83546" lon="0.80298">
        <ele>79.6</ele>
        <time>2020-06-18T10:00:56Z</time>
      </trkpt>
      <trkpt lat="49.8355" lon="0.80306">
        <ele>79.5</ele>
        <time>2020-06-18T10:00:57Z</time>
      </trkpt>
      <trkpt lat="49.83553" lon="0.80314">
        <ele>79.4</ele>
        <time>2020-06-18T10:00:58Z</time>
      </trkpt>
      <trkpt lat="49.83556" lon="0.80322">
        <ele>79.2</ele>
        <time>2020-06-18T10:00:59Z</time>
      </trkpt>
      <trkpt lat="49.8356" lon="0.8033">
        <ele>79.1</ele>
        <time>2020-06-18T10:01:00Z</time>
      </trkpt>
      <trkpt lat="49.83563" lon="0.80338">
        <ele>78.9</ele>
        <time>2020-06-18T10:01:01Z</time>
      </trkpt>
      <trkpt lat="49.83567" lon="0.80346">
        <ele>78.7</ele>
        <time>2020-06-18T10:01:02Z</time>
      </trkpt>
      <trkpt lat="49.8357" lon="0.80354">
        <ele>78.6</ele>
        <time>2020-06-18T10:01:03Z</time>
      </trkpt>
      <trkpt lat="49.83574" lon="0.80362">
        <ele>78.4</ele>
        <time>2020-06-18T10:01:04Z</time>
      </trkpt>
      <trkpt lat="49.83576" lon="0.80371">
        <ele>78.3</ele>
        <time>2020-06-18T10:01:05Z</time>
      </trkpt>
      <trkpt lat="49.8358" lon="0.80379">
        <ele>78.2</ele>
        <time>2020-06-18T10:01:06Z</time>
      </trkpt>
      <trkpt lat="49.83583" lon="0.80388">
        <ele>78.1</ele>
        <time>2020-06-18T10:01:07Z</time>
      </trkpt>
      <trkpt lat="49.83586" lon="0.80396">
        <ele>78</ele>
        <time>2020-06-18T10:01:08Z</time>
      </trkpt>
      <trkpt lat="49.83589" lon="0.80405">
        <ele>77.8</ele>
        <time>2020-06-18T10:01:09Z</time>
      </trkpt>
      <trkpt lat="49.83593" lon="0.80414">
        <ele>77.7</ele>
        <time>2020-06-18T10:01:10Z</time>
      </trkpt>
      <trkpt lat="49.83596" lon="0.80423">
        <ele>77.6</ele>
        <time>2020-06-18T10:01:11Z</time>
      </trkpt>
      <trkpt lat="49.836" lon="0.80432">
        <ele>77.4</ele>
        <time>2020-06-18T10:01:12Z</time>
      </trkpt>
      <trkpt lat="49.83604" lon="0.80441">
        <ele>77.3</ele>
        <time>2020-06-18T10:01:13Z</time>
      </trkpt>
      <trkpt lat="49.83608" lon="0.8045">
        <ele>77.2</ele>
        <time>2020-06-18T10:01:14Z</time>
      </trkpt>
      <trkpt lat="49.83612" lon="0.80459">
        <ele>77.1</ele>
        <time>2020-06-18T10:01:15Z</time>
      </trkpt>
      <trkpt lat="49.83616" lon="0.80468">
        <ele>77</ele>
        <time>2020-06-18T10:01:16Z</time>
      </trkpt>
      <trkpt lat="49.83619" lon="0.80477">
        <ele>76.9</ele>
        <time>2020-06-18T10:01:17Z</time>
      </trkpt>
      <trkpt lat="49.83623" lon="0.80486">
        <ele>76.9</ele>
        <time>2020-06-18T10:01:18Z</time>
      </trkpt>
      <trkpt lat="49.83627" lon="0.80495">
        <ele>76.8</ele>
        <time>2020-06-18T10:01:19Z</time>
      </trkpt>
      <trkpt lat="49.83631" lon="0.80504">
        <ele>76.7</ele>
        <time>2020-06-18T10:01:20Z</time>
      </trkpt>
      <trkpt lat="49.83635" lon="0.80513">
        <ele>76.5</ele>
        <time>2020-06-18T10:01:21Z</time>
      </trkpt>
      <trkpt lat="49.83639" lon="0.80521">
        <ele>76.4</ele>
        <time>2020-06-18T10:01:22Z</time>
      </trkpt>
      <trkpt lat="49.83642" lon="0.8053">
        <ele>76.3</ele>
        <time>2020-06-18T10:01:23Z</time>
      </trkpt>
      <trkpt lat="49.83645" lon="0.80539">
        <ele>76.2</ele>
        <time>2020-06-18T10:01:24Z</time>
      </trkpt>
      <trkpt lat="49.83649" lon="0.80547">
        <ele>76.1</ele>
        <time>2020-06-18T10:01:25Z</time>
      </trkpt>
      <trkpt lat="49.83652" lon="0.80556">
        <ele>76</ele>
        <time>2020-06-18T10:01:26Z</time>
      </trkpt>
      <trkpt lat="49.83656" lon="0.80565">
        <ele>75.9</ele>
        <time>2020-06-18T10:01:27Z</time>
      </trkpt>
      <trkpt lat="49.83659" lon="0.80575">
        <ele>75.9</ele>
        <time>2020-06-18T10:01:28Z</time>
      </trkpt>
      <trkpt lat="49.83662" lon="0.80584">
        <ele>75.8</ele>
        <time>2020-06-18T10:01:29Z</time>
      </trkpt>
      <trkpt lat="49.83665" lon="0.80594">
        <ele>75.7</ele>
        <time>2020-06-18T10:01:30Z</time>
      </trkpt>
      <trkpt lat="49.83667" lon="0.80604">
        <ele>75.6</ele>
        <time>2020-06-18T10:01:31Z</time>
      </trkpt>
      <trkpt lat="49.8367" lon="0.80614">
        <ele>75.5</ele>
        <time>2020-06-18T10:01:32Z</time>
      </trkpt>
      <trkpt lat="49.83672" lon="0.80624">
        <ele>75.4</ele>
        <time>2020-06-18T10:01:33Z</time>
      </trkpt>
      <trkpt lat="49.83674" lon="0.80635">
        <ele>75.3</ele>
        <time>2020-06-18T10:01:34Z</time>
      </trkpt>
      <trkpt lat="49.83676" lon="0.80645">
        <ele>75.3</ele>
        <time>2020-06-18T10:01:35Z</time>
      </trkpt>
      <trkpt lat="49.83678" lon="0.80655">
        <ele>75.2</ele>
        <time>2020-06-18T10:01:36Z</time>
      </trkpt>
      <trkpt lat="49.8368" lon="0.80666">
        <ele>75.1</ele>
        <time>2020-06-18T10:01:37Z</time>
      </trkpt>
      <trkpt lat="49.83681" lon="0.80676">
        <ele>75</ele>
        <time>2020-06-18T10:01:38Z</time>
      </trkpt>
      <trkpt lat="49.83683" lon="0.80687">
        <ele>74.9</ele>
        <time>2020-06-18T10:01:39Z</time>
      </trkpt>
      <trkpt lat="49.83685" lon="0.80697">
        <ele>74.9</ele>
        <time>2020-06-18T10:01:40Z</time>
      </trkpt>
      <trkpt lat="49.83687" lon="0.80708">
        <ele>74.8</ele>
        <time>2020-06-18T10:01:41Z</time>
      </trkpt>
      <trkpt lat="49.83689" lon="0.80719">
        <ele>74.8</ele>
        <time>2020-06-18T10:01:42Z</time>
      </trkpt>
      <trkpt lat="49.83691" lon="0.80729">
        <ele>74.7</ele>
        <time>2020-06-18T10:01:43Z</time>
      </trkpt>
      <trkpt lat="49.83693" lon="0.8074">
        <ele>74.7</ele>
        <time>2020-06-18T10:01:44Z</time>
      </trkpt>
      <trkpt lat="49.83695" lon="0.80751">
        <ele>74.7</ele>
        <time>2020-06-18T10:01:45Z</time>
      </trkpt>
      <trkpt lat="49.83697" lon="0.80762">
        <ele>74.7</ele>
        <time>2020-06-18T10:01:46Z</time>
      </trkpt>
      <trkpt lat="49.83699" lon="0.80773">
        <ele>74.7</ele>
        <time>2020-06-18T10:01:47Z</time>
      </trkpt>
      <trkpt lat="49.83701" lon="0.80784">
        <ele>74.7</ele>
        <time>2020-06-18T10:01:48Z</time>
      </trkpt>
      <trkpt lat="49.83704" lon="0.80794">
        <ele>74.6</ele>
        <time>2020-06-18T10:01:49Z</time>
      </trkpt>
      <trkpt lat="49.83706" lon="0.80805">
        <ele>74.6</ele>
        <time>2020-06-18T10:01:50Z</time>
      </trkpt>
      <trkpt lat="49.83708" lon="0.80816">
        <ele>74.5</ele>
        <time>2020-06-18T10:01:51Z</time>
      </trkpt>
      <trkpt lat="49.8371" lon="0.80827">
        <ele>74.4</ele>
        <time>2020-06-18T10:01:52Z</time>
      </trkpt>
      <trkpt lat="49.83711" lon="0.80838">
        <ele>74.4</ele>
        <time>2020-06-18T10:01:53Z</time>
      </trkpt>
      <trkpt lat="49.83712" lon="0.80848">
        <ele>74.3</ele>
        <time>2020-06-18T10:01:54Z</time>
      </trkpt>
      <trkpt lat="49.83714" lon="0.80859">
        <ele>74.3</ele>
        <time>2020-06-18T10:01:55Z</time>
      </trkpt>
      <trkpt lat="49.83717" lon="0.8087">
        <ele>74.2</ele>
        <time>2020-06-18T10:01:56Z</time>
      </trkpt>
      <trkpt lat="49.83719" lon="0.80881">
        <ele>74.1</ele>
        <time>2020-06-18T10:01:57Z</time>
      </trkpt>
      <trkpt lat="49.8372" lon="0.80893">
        <ele>74.1</ele>
        <time>2020-06-18T10:01:58Z</time>
      </trkpt>
      <trkpt lat="49.83722" lon="0.80904">
        <ele>74.1</ele>
        <time>2020-06-18T10:01:59Z</time>
      </trkpt>
      <trkpt lat="49.83725" lon="0.80915">
        <ele>74.1</ele>
        <time>2020-06-18T10:02:00Z</time>
      </trkpt>
      <trkpt lat="49.83727" lon="0.80926">
        <ele>74</ele>
        <time>2020-06-18T10:02:01Z</time>
      </trkpt>
      <trkpt lat="49.83729" lon="0.80939">
        <ele>74</ele>
        <time>2020-06-18T10:02:02Z</time>
      </trkpt>
      <trkpt lat="49.83732" lon="0.80949">
        <ele>73.9</ele>
        <time>2020-06-18T10:02:03Z</time>
      </trkpt>
      <trkpt lat="49.83735" lon="0.80959">
        <ele>73.8</ele>
        <time>2020-06-18T10:02:04Z</time>
      </trkpt>
      <trkpt lat="49.83738" lon="0.80969">
        <ele>73.8</ele>
        <time>2020-06-18T10:02:05Z</time>
      </trkpt>
      <trkpt lat="49.83741" lon="0.80978">
        <ele>73.9</ele>
        <time>2020-06-18T10:02:06Z</time>
      </trkpt>
      <trkpt lat="49.83743" lon="0.80987">
        <ele>74</ele>
        <time>2020-06-18T10:02:07Z</time>
      </trkpt>
      <trkpt lat="49.83746" lon="0.80996">
        <ele>74</ele>
        <time>2020-06-18T10:02:08Z</time>
      </trkpt>
      <trkpt lat="49.83748" lon="0.81004">
        <ele>74.1</ele>
        <time>2020-06-18T10:02:09Z</time>
      </trkpt>
      <trkpt lat="49.83751" lon="0.81013">
        <ele>74</ele>
        <time>2020-06-18T10:02:10Z</time>
      </trkpt>
      <trkpt lat="49.83754" lon="0.81021">
        <ele>74</ele>
        <time>2020-06-18T10:02:11Z</time>
      </trkpt>
      <trkpt lat="49.83758" lon="0.8103">
        <ele>73.9</ele>
        <time>2020-06-18T10:02:12Z</time>
      </trkpt>
      <trkpt lat="49.83761" lon="0.81039">
        <ele>73.8</ele>
        <time>2020-06-18T10:02:13Z</time>
      </trkpt>
      <trkpt lat="49.83764" lon="0.81049">
        <ele>73.7</ele>
        <time>2020-06-18T10:02:14Z</time>
      </trkpt>
      <trkpt lat="49.83768" lon="0.81058">
        <ele>73.6</ele>
        <time>2020-06-18T10:02:15Z</time>
      </trkpt>
      <trkpt lat="49.83771" lon="0.81068">
        <ele>73.6</ele>
        <time>2020-06-18T10:02:16Z</time>
      </trkpt>
      <trkpt lat="49.83774" lon="0.81078">
        <ele>73.6</ele>
        <time>2020-06-18T10:02:17Z</time>
      </trkpt>
      <trkpt lat="49.83777" lon="0.81088">
        <ele>73.5</ele>
        <time>2020-06-18T10:02:18Z</time>
      </trkpt>
      <trkpt lat="49.83781" lon="0.81097">
        <ele>73.4</ele>
        <time>2020-06-18T10:02:19Z</time>
      </trkpt>
      <trkpt lat="49.83785" lon="0.81106">
        <ele>73.3</ele>
        <time>2020-06-18T10:02:20Z</time>
      </trkpt>
      <trkpt lat="49.83789" lon="0.81116">
        <ele>73.2</ele>
        <time>2020-06-18T10:02:21Z</time>
      </trkpt>
      <trkpt lat="49.83793" lon="0.81125">
        <ele>73.2</ele>
        <time>2020-06-18T10:02:22Z</time>
      </trkpt>
      <trkpt lat="49.83797" lon="0.81134">
        <ele>73.1</ele>
        <time>2020-06-18T10:02:23Z</time>
      </trkpt>
      <trkpt lat="49.83801" lon="0.81142">
        <ele>73</ele>
        <time>2020-06-18T10:02:24Z</time>
      </trkpt>
      <trkpt lat="49.83805" lon="0.81151">
        <ele>73</ele>
        <time>2020-06-18T10:02:25Z</time>
      </trkpt>
      <trkpt lat="49.83809" lon="0.8116">
        <ele>72.9</ele>
        <time>2020-06-18T10:02:26Z</time>
      </trkpt>
      <trkpt lat="49.83813" lon="0.81168">
        <ele>72.9</ele>
        <time>2020-06-18T10:02:27Z</time>
      </trkpt>
      <trkpt lat="49.83817" lon="0.81177">
        <ele>72.8</ele>
        <time>2020-06-18T10:02:28Z</time>
      </trkpt>
      <trkpt lat="49.83821" lon="0.81187">
        <ele>72.6</ele>
        <time>2020-06-18T10:02:29Z</time>
      </trkpt>
      <trkpt lat="49.83825" lon="0.81196">
        <ele>72.4</ele>
        <time>2020-06-18T10:02:30Z</time>
      </trkpt>
      <trkpt lat="49.8383" lon="0.81205">
        <ele>72.3</ele>
        <time>2020-06-18T10:02:31Z</time>
      </trkpt>
      <trkpt lat="49.83834" lon="0.81215">
        <ele>72.2</ele>
        <time>2020-06-18T10:02:32Z</time>
      </trkpt>
      <trkpt lat="49.83839" lon="0.81224">
        <ele>72.1</ele>
        <time>2020-06-18T10:02:33Z</time>
      </trkpt>
      <trkpt lat="49.83843" lon="0.81233">
        <ele>72.1</ele>
        <time>2020-06-18T10:02:34Z</time>
      </trkpt>
      <trkpt lat="49.83847" lon="0.81242">
        <ele>71.9</ele>
        <time>2020-06-18T10:02:35Z</time>
      </trkpt>
      <trkpt lat="49.83852" lon="0.8125">
        <ele>71.9</ele>
        <time>2020-06-18T10:02:36Z</time>
      </trkpt>
      <trkpt lat="49.83856" lon="0.81258">
        <ele>71.8</ele>
        <time>2020-06-18T10:02:37Z</time>
      </trkpt>
      <trkpt lat="49.8386" lon="0.81266">
        <ele>71.7</ele>
        <time>2020-06-18T10:02:38Z</time>
      </trkpt>
      <trkpt lat="49.83863" lon="0.81273">
        <ele>71.6</ele>
        <time>2020-06-18T10:02:39Z</time>
      </trkpt>
      <trkpt lat="49.83867" lon="0.81282">
        <ele>71.5</ele>
        <time>2020-06-18T10:02:40Z</time>
      </trkpt>
      <trkpt lat="49.83871" lon="0.81289">
        <ele>71.4</ele>
        <time>2020-06-18T10:02:41Z</time>
      </trkpt>
      <trkpt lat="49.83874" lon="0.81297">
        <ele>71.3</ele>
        <time>2020-06-18T10:02:42Z</time>
      </trkpt>
      <trkpt lat="49.83878" lon="0.81304">
        <ele>71.3</ele>
        <time>2020-06-18T10:02:43Z</time>
      </trkpt>
      <trkpt lat="49.83881" lon="0.81311">
        <ele>71.2</ele>
        <time>2020-06-18T10:02:44Z</time>
      </trkpt>
      <trkpt lat="49.83885" lon="0.81319">
        <ele>71.2</ele>
        <time>2020-06-18T10:02:45Z</time>
      </trkpt>
      <trkpt lat="49.83888" lon="0.81326">
        <ele>71.2</ele>
        <time>2020-06-18T10:02:46Z</time>
      </trkpt>
      <trkpt lat="49.83891" lon="0.81333">
        <ele>71.1</ele>
        <time>2020-06-18T10:02:47Z</time>
      </trkpt>
      <trkpt lat="49.83894" lon="0.8134">
        <ele>71</ele>
        <time>2020-06-18T10:02:48Z</time>
      </trkpt>
      <trkpt lat="49.83897" lon="0.81347">
        <ele>71</ele>
        <time>2020-06-18T10:02:49Z</time>
      </trkpt>
      <trkpt lat="49.839" lon="0.81354">
        <ele>70.9</ele>
        <time>2020-06-18T10:02:50Z</time>
      </trkpt>
      <trkpt lat="49.83903" lon="0.81361">
        <ele>70.8</ele>
        <time>2020-06-18T10:02:51Z</time>
      </trkpt>
      <trkpt lat="49.83907" lon="0.81368">
        <ele>70.7</ele>
        <time>2020-06-18T10:02:52Z</time>
      </trkpt>
      <trkpt lat="49.8391" lon="0.81374">
        <ele>70.6</ele>
        <time>2020-06-18T10:02:53Z</time>
      </trkpt>
      <trkpt lat="49.83914" lon="0.81382">
        <ele>70.6</ele>
        <time>2020-06-18T10:02:54Z</time>
      </trkpt>
      <trkpt lat="49.83918" lon="0.81389">
        <ele>70.6</ele>
        <time>2020-06-18T10:02:55Z</time>
      </trkpt>
      <trkpt lat="49.83921" lon="0.81396">
        <ele>70.6</ele>
        <time>2020-06-18T10:02:56Z</time>
      </trkpt>
      <trkpt lat="49.83925" lon="0.81403">
        <ele>70.5</ele>
        <time>2020-06-18T10:02:57Z</time>
      </trkpt>
      <trkpt lat="49.83927" lon="0.81411">
        <ele>70.5</ele>
        <time>2020-06-18T10:02:58Z</time>
      </trkpt>
      <trkpt lat="49.8393" lon="0.81417">
        <ele>70.4</ele>
        <time>2020-06-18T10:02:59Z</time>
      </trkpt>
      <trkpt lat="49.83932" lon="0.81424">
        <ele>70.3</ele>
        <time>2020-06-18T10:03:00Z</time>
      </trkpt>
      <trkpt lat="49.83935" lon="0.8143">
        <ele>70.3</ele>
        <time>2020-06-18T10:03:01Z</time>
      </trkpt>
      <trkpt lat="49.83938" lon="0.81436">
        <ele>70.2</ele>
        <time>2020-06-18T10:03:02Z</time>
      </trkpt>
      <trkpt lat="49.83941" lon="0.81442">
        <ele>70.1</ele>
        <time>2020-06-18T10:03:03Z</time>
      </trkpt>
      <trkpt lat="49.83944" lon="0.81448">
        <ele>70</ele>
        <time>2020-06-18T10:03:04Z</time>
      </trkpt>
      <trkpt lat="49.83948" lon="0.81455">
        <ele>70</ele>
        <time>2020-06-18T10:03:05Z</time>
      </trkpt>
      <trkpt lat="49.83951" lon="0.81462">
        <ele>69.9</ele>
        <time>2020-06-18T10:03:06Z</time>
      </trkpt>
      <trkpt lat="49.83954" lon="0.81469">
        <ele>69.9</ele>
        <time>2020-06-18T10:03:07Z</time>
      </trkpt>
      <trkpt lat="49.83957" lon="0.81476">
        <ele>69.8</ele>
        <time>2020-06-18T10:03:08Z</time>
      </trkpt>
      <trkpt lat="49.83961" lon="0.81482">
        <ele>69.8</ele>
        <time>2020-06-18T10:03:09Z</time>
      </trkpt>
      <trkpt lat="49.83964" lon="0.81489">
        <ele>69.8</ele>
        <time>2020-06-18T10:03:10Z</time>
      </trkpt>
      <trkpt lat="49.83967" lon="0.81495">
        <ele>69.8</ele>
        <time>2020-06-18T10:03:11Z</time>
      </trkpt>
      <trkpt lat="49.83971" lon="0.81502">
        <ele>69.8</ele>
        <time>2020-06-18T10:03:12Z</time>
      </trkpt>
      <trkpt lat="49.83973" lon="0.81508">
        <ele>69.7</ele>
        <time>2020-06-18T10:03:13Z</time>
      </trkpt>
      <trkpt lat="49.83977" lon="0.81515">
        <ele>69.7</ele>
        <time>2020-06-18T10:03:14Z</time>
      </trkpt>
      <trkpt lat="49.8398" lon="0.81522">
        <ele>69.7</ele>
        <time>2020-06-18T10:03:15Z</time>
      </trkpt>
      <trkpt lat="49.83982" lon="0.81529">
        <ele>69.7</ele>
        <time>2020-06-18T10:03:16Z</time>
      </trkpt>
      <trkpt lat="49.83985" lon="0.81535">
        <ele>69.7</ele>
        <time>2020-06-18T10:03:17Z</time>
      </trkpt>
      <trkpt lat="49.83989" lon="0.81541">
        <ele>69.7</ele>
        <time>2020-06-18T10:03:18Z</time>
      </trkpt>
      <trkpt lat="49.83992" lon="0.81547">
        <ele>69.6</ele>
        <time>2020-06-18T10:03:19Z</time>
      </trkpt>
      <trkpt lat="49.83995" lon="0.81553">
        <ele>69.6</ele>
        <time>2020-06-18T10:03:20Z</time>
      </trkpt>
      <trkpt lat="49.83998" lon="0.81559">
        <ele>69.6</ele>
        <time>2020-06-18T10:03:21Z</time>
      </trkpt>
      <trkpt lat="49.84001" lon="0.81566">
        <ele>69.5</ele>
        <time>2020-06-18T10:03:22Z</time>
      </trkpt>
      <trkpt lat="49.84004" lon="0.81572">
        <ele>69.5</ele>
        <time>2020-06-18T10:03:23Z</time>
      </trkpt>
      <trkpt lat="49.84006" lon="0.81579">
        <ele>69.5</ele>
        <time>2020-06-18T10:03:24Z</time>
      </trkpt>
      <trkpt lat="49.84009" lon="0.81584">
        <ele>69.5</ele>
        <time>2020-06-18T10:03:25Z</time>
      </trkpt>
      <trkpt lat="49.84012" lon="0.8159">
        <ele>69.4</ele>
        <time>2020-06-18T10:03:26Z</time>
      </trkpt>
      <trkpt lat="49.84014" lon="0.81596">
        <ele>69.4</ele>
        <time>2020-06-18T10:03:27Z</time>
      </trkpt>
      <trkpt lat="49.84016" lon="0.81601">
        <ele>69.4</ele>
        <time>2020-06-18T10:03:28Z</time>
      </trkpt>
      <trkpt lat="49.84019" lon="0.81606">
        <ele>69.4</ele>
        <time>2020-06-18T10:03:29Z</time>
      </trkpt>
      <trkpt lat="49.84021" lon="0.8161">
        <ele>69.4</ele>
        <time>2020-06-18T10:03:30Z</time>
      </trkpt>
      <trkpt lat="49.84023" lon="0.81613">
        <ele>69.5</ele>
        <time>2020-06-18T10:03:31Z</time>
      </trkpt>
      <trkpt lat="49.84025" lon="0.81619">
        <ele>69.5</ele>
        <time>2020-06-18T10:03:32Z</time>
      </trkpt>
      <trkpt lat="49.84025" lon="0.81621">
        <ele>69.5</ele>
        <time>2020-06-18T10:03:33Z</time>
      </trkpt>
      <trkpt lat="49.84026" lon="0.81627">
        <ele>69.5</ele>
        <time>2020-06-18T10:03:34Z</time>
      </trkpt>
      <trkpt lat="49.84027" lon="0.81634">
        <ele>69.6</ele>
        <time>2020-06-18T10:03:35Z</time>
      </trkpt>
      <trkpt lat="49.84027" lon="0.8164">
        <ele>69.6</ele>
        <time>2020-06-18T10:03:36Z</time>
      </trkpt>
      <trkpt lat="49.84028" lon="0.81647">
        <ele>69.5</ele>
        <time>2020-06-18T10:03:37Z</time>
      </trkpt>
      <trkpt lat="49.84028" lon="0.81654">
        <ele>69.4</ele>
        <time>2020-06-18T10:03:38Z</time>
      </trkpt>
      <trkpt lat="49.84027" lon="0.81661">
        <ele>69.3</ele>
        <time>2020-06-18T10:03:39Z</time>
      </trkpt>
      <trkpt lat="49.84027" lon="0.8167">
        <ele>69.2</ele>
        <time>2020-06-18T10:03:40Z</time>
      </trkpt>
      <trkpt lat="49.84028" lon="0.8168">
        <ele>69.1</ele>
        <time>2020-06-18T10:03:41Z</time>
      </trkpt>
      <trkpt lat="49.84028" lon="0.8169">
        <ele>69</ele>
        <time>2020-06-18T10:03:42Z</time>
      </trkpt>
      <trkpt lat="49.84029" lon="0.817">
        <ele>68.9</ele>
        <time>2020-06-18T10:03:43Z</time>
      </trkpt>
      <trkpt lat="49.84029" lon="0.8171">
        <ele>68.8</ele>
        <time>2020-06-18T10:03:44Z</time>
      </trkpt>
      <trkpt lat="49.84029" lon="0.81719">
        <ele>68.7</ele>
        <time>2020-06-18T10:03:45Z</time>
      </trkpt>
      <trkpt lat="49.84029" lon="0.81728">
        <ele>68.6</ele>
        <time>2020-06-18T10:03:46Z</time>
      </trkpt>
      <trkpt lat="49.84029" lon="0.81738">
        <ele>68.6</ele>
        <time>2020-06-18T10:03:47Z</time>
      </trkpt>
      <trkpt lat="49.84029" lon="0.81748">
        <ele>68.5</ele>
        <time>2020-06-18T10:03:48Z</time>
      </trkpt>
      <trkpt lat="49.84029" lon="0.81758">
        <ele>68.4</ele>
        <time>2020-06-18T10:03:49Z</time>
      </trkpt>
      <trkpt lat="49.84028" lon="0.81767">
        <ele>68.3</ele>
        <time>2020-06-18T10:03:50Z</time>
      </trkpt>
      <trkpt lat="49.84028" lon="0.81778">
        <ele>68.2</ele>
        <time>2020-06-18T10:03:51Z</time>
      </trkpt>
      <trkpt lat="49.84029" lon="0.81789">
        <ele>68.1</ele>
        <time>2020-06-18T10:03:52Z</time>
      </trkpt>
      <trkpt lat="49.8403" lon="0.81801">
        <ele>68</ele>
        <time>2020-06-18T10:03:53Z</time>
      </trkpt>
      <trkpt lat="49.8403" lon="0.81812">
        <ele>67.9</ele>
        <time>2020-06-18T10:03:54Z</time>
      </trkpt>
      <trkpt lat="49.84031" lon="0.81823">
        <ele>67.8</ele>
        <time>2020-06-18T10:03:55Z</time>
      </trkpt>
      <trkpt lat="49.8403" lon="0.81834">
        <ele>67.8</ele>
        <time>2020-06-18T10:03:56Z</time>
      </trkpt>
      <trkpt lat="49.8403" lon="0.81844">
        <ele>67.7</ele>
        <time>2020-06-18T10:03:57Z</time>
      </trkpt>
      <trkpt lat="49.8403" lon="0.81855">
        <ele>67.6</ele>
        <time>2020-06-18T10:03:58Z</time>
      </trkpt>
      <trkpt lat="49.84031" lon="0.81866">
        <ele>67.5</ele>
        <time>2020-06-18T10:03:59Z</time>
      </trkpt>
      <trkpt lat="49.84031" lon="0.81877">
        <ele>67.4</ele>
        <time>2020-06-18T10:04:00Z</time>
      </trkpt>
      <trkpt lat="49.84031" lon="0.81889">
        <ele>67.3</ele>
        <time>2020-06-18T10:04:01Z</time>
      </trkpt>
      <trkpt lat="49.84032" lon="0.81901">
        <ele>67.2</ele>
        <time>2020-06-18T10:04:02Z</time>
      </trkpt>
      <trkpt lat="49.84032" lon="0.81912">
        <ele>67.1</ele>
        <time>2020-06-18T10:04:03Z</time>
      </trkpt>
      <trkpt lat="49.84032" lon="0.81923">
        <ele>67</ele>
        <time>2020-06-18T10:04:04Z</time>
      </trkpt>
      <trkpt lat="49.84033" lon="0.81935">
        <ele>66.9</ele>
        <time>2020-06-18T10:04:05Z</time>
      </trkpt>
      <trkpt lat="49.84034" lon="0.81944">
        <ele>66.8</ele>
        <time>2020-06-18T10:04:06Z</time>
      </trkpt>
      <trkpt lat="49.84034" lon="0.81953">
        <ele>66.7</ele>
        <time>2020-06-18T10:04:07Z</time>
      </trkpt>
      <trkpt lat="49.84035" lon="0.81964">
        <ele>66.6</ele>
        <time>2020-06-18T10:04:08Z</time>
      </trkpt>
      <trkpt lat="49.84036" lon="0.81974">
        <ele>66.5</ele>
        <time>2020-06-18T10:04:09Z</time>
      </trkpt>
      <trkpt lat="49.84036" lon="0.81985">
        <ele>66.4</ele>
        <time>2020-06-18T10:04:10Z</time>
      </trkpt>
      <trkpt lat="49.84035" lon="0.81995">
        <ele>66.4</ele>
        <time>2020-06-18T10:04:11Z</time>
      </trkpt>
      <trkpt lat="49.84034" lon="0.82006">
        <ele>66.4</ele>
        <time>2020-06-18T10:04:12Z</time>
      </trkpt>
      <trkpt lat="49.84034" lon="0.82018">
        <ele>66.3</ele>
        <time>2020-06-18T10:04:13Z</time>
      </trkpt>
      <trkpt lat="49.84034" lon="0.82031">
        <ele>66.3</ele>
        <time>2020-06-18T10:04:14Z</time>
      </trkpt>
      <trkpt lat="49.84034" lon="0.82042">
        <ele>66.3</ele>
        <time>2020-06-18T10:04:15Z</time>
      </trkpt>
      <trkpt lat="49.84034" lon="0.82055">
        <ele>66.2</ele>
        <time>2020-06-18T10:04:16Z</time>
      </trkpt>
      <trkpt lat="49.84035" lon="0.82069">
        <ele>66.2</ele>
        <time>2020-06-18T10:04:17Z</time>
      </trkpt>
      <trkpt lat="49.84035" lon="0.82083">
        <ele>66.1</ele>
        <time>2020-06-18T10:04:18Z</time>
      </trkpt>
      <trkpt lat="49.84036" lon="0.82096">
        <ele>66.1</ele>
        <time>2020-06-18T10:04:19Z</time>
      </trkpt>
      <trkpt lat="49.84036" lon="0.82109">
        <ele>66.1</ele>
        <time>2020-06-18T10:04:20Z</time>
      </trkpt>
      <trkpt lat="49.84036" lon="0.82121">
        <ele>66.1</ele>
        <time>2020-06-18T10:04:21Z</time>
      </trkpt>
      <trkpt lat="49.84037" lon="0.82134">
        <ele>66.1</ele>
        <time>2020-06-18T10:04:22Z</time>
      </trkpt>
      <trkpt lat="49.84037" lon="0.82147">
        <ele>66.1</ele>
        <time>2020-06-18T10:04:23Z</time>
      </trkpt>
      <trkpt lat="49.84038" lon="0.82159">
        <ele>66.1</ele>
        <time>2020-06-18T10:04:24Z</time>
      </trkpt>
      <trkpt lat="49.84038" lon="0.8217">
        <ele>66</ele>
        <time>2020-06-18T10:04:25Z</time>
      </trkpt>
      <trkpt lat="49.84039" lon="0.82182">
        <ele>65.9</ele>
        <time>2020-06-18T10:04:26Z</time>
      </trkpt>
      <trkpt lat="49.84039" lon="0.82194">
        <ele>65.9</ele>
        <time>2020-06-18T10:04:27Z</time>
      </trkpt>
      <trkpt lat="49.84039" lon="0.82207">
        <ele>65.9</ele>
        <time>2020-06-18T10:04:28Z</time>
      </trkpt>
      <trkpt lat="49.84039" lon="0.8222">
        <ele>65.9</ele>
        <time>2020-06-18T10:04:29Z</time>
      </trkpt>
      <trkpt lat="49.8404" lon="0.82233">
        <ele>65.9</ele>
        <time>2020-06-18T10:04:30Z</time>
      </trkpt>
      <trkpt lat="49.8404" lon="0.82246">
        <ele>66</ele>
        <time>2020-06-18T10:04:31Z</time>
      </trkpt>
      <trkpt lat="49.84039" lon="0.82258">
        <ele>66</ele>
        <time>2020-06-18T10:04:32Z</time>
      </trkpt>
      <trkpt lat="49.84039" lon="0.82271">
        <ele>66.1</ele>
        <time>2020-06-18T10:04:33Z</time>
      </trkpt>
      <trkpt lat="49.8404" lon="0.82283">
        <ele>66.1</ele>
        <time>2020-06-18T10:04:34Z</time>
      </trkpt>
      <trkpt lat="49.8404" lon="0.82295">
        <ele>66.1</ele>
        <time>2020-06-18T10:04:35Z</time>
      </trkpt>
      <trkpt lat="49.8404" lon="0.82308">
        <ele>66.1</ele>
        <time>2020-06-18T10:04:36Z</time>
      </trkpt>
      <trkpt lat="49.8404" lon="0.82318">
        <ele>66.1</ele>
        <time>2020-06-18T10:04:37Z</time>
      </trkpt>
      <trkpt lat="49.8404" lon="0.82327">
        <ele>66</ele>
        <time>2020-06-18T10:04:38Z</time>
      </trkpt>
      <trkpt lat="49.84041" lon="0.82337">
        <ele>66.1</ele>
        <time>2020-06-18T10:04:39Z</time>
      </trkpt>
      <trkpt lat="49.84041" lon="0.82348">
        <ele>66.1</ele>
        <time>2020-06-18T10:04:40Z</time>
      </trkpt>
      <trkpt lat="49.84041" lon="0.82358">
        <ele>66.1</ele>
        <time>2020-06-18T10:04:41Z</time>
      </trkpt>
      <trkpt lat="49.84041" lon="0.8237">
        <ele>66.1</ele>
        <time>2020-06-18T10:04:42Z</time>
      </trkpt>
      <trkpt lat="49.84042" lon="0.82381">
        <ele>66.2</ele>
        <time>2020-06-18T10:04:43Z</time>
      </trkpt>
      <trkpt lat="49.84043" lon="0.82391">
        <ele>66.2</ele>
        <time>2020-06-18T10:04:44Z</time>
      </trkpt>
      <trkpt lat="49.84043" lon="0.82401">
        <ele>66.3</ele>
        <time>2020-06-18T10:04:45Z</time>
      </trkpt>
      <trkpt lat="49.84043" lon="0.82411">
        <ele>66.3</ele>
        <time>2020-06-18T10:04:46Z</time>
      </trkpt>
      <trkpt lat="49.84044" lon="0.8242">
        <ele>66.4</ele>
        <time>2020-06-18T10:04:47Z</time>
      </trkpt>
      <trkpt lat="49.84044" lon="0.82429">
        <ele>66.5</ele>
        <time>2020-06-18T10:04:48Z</time>
      </trkpt>
      <trkpt lat="49.84044" lon="0.82438">
        <ele>66.5</ele>
        <time>2020-06-18T10:04:49Z</time>
      </trkpt>
      <trkpt lat="49.84045" lon="0.82446">
        <ele>66.6</ele>
        <time>2020-06-18T10:04:50Z</time>
      </trkpt>
      <trkpt lat="49.84045" lon="0.82455">
        <ele>66.7</ele>
        <time>2020-06-18T10:04:51Z</time>
      </trkpt>
      <trkpt lat="49.84046" lon="0.82464">
        <ele>66.8</ele>
        <time>2020-06-18T10:04:52Z</time>
      </trkpt>
      <trkpt lat="49.84046" lon="0.82473">
        <ele>66.9</ele>
        <time>2020-06-18T10:04:53Z</time>
      </trkpt>
      <trkpt lat="49.84046" lon="0.82482">
        <ele>67</ele>
        <time>2020-06-18T10:04:54Z</time>
      </trkpt>
      <trkpt lat="49.84047" lon="0.8249">
        <ele>67.1</ele>
        <time>2020-06-18T10:04:55Z</time>
      </trkpt>
      <trkpt lat="49.84047" lon="0.82499">
        <ele>67.2</ele>
        <time>2020-06-18T10:04:56Z</time>
      </trkpt>
      <trkpt lat="49.84047" lon="0.82507">
        <ele>67.3</ele>
        <time>2020-06-18T10:04:57Z</time>
      </trkpt>
      <trkpt lat="49.84047" lon="0.82516">
        <ele>67.4</ele>
        <time>2020-06-18T10:04:58Z</time>
      </trkpt>
      <trkpt lat="49.84047" lon="0.82525">
        <ele>67.5</ele>
        <time>2020-06-18T10:04:59Z</time>
      </trkpt>
      <trkpt lat="49.84047" lon="0.82533">
        <ele>67.6</ele>
        <time>2020-06-18T10:05:00Z</time>
      </trkpt>
      <trkpt lat="49.84047" lon="0.82541">
        <ele>67.7</ele>
        <time>2020-06-18T10:05:01Z</time>
      </trkpt>
      <trkpt lat="49.84048" lon="0.82549">
        <ele>67.8</ele>
        <time>2020-06-18T10:05:02Z</time>
      </trkpt>
      <trkpt lat="49.84048" lon="0.82557">
        <ele>68</ele>
        <time>2020-06-18T10:05:03Z</time>
      </trkpt>
      <trkpt lat="49.84048" lon="0.82565">
        <ele>68.1</ele>
        <time>2020-06-18T10:05:04Z</time>
      </trkpt>
      <trkpt lat="49.84048" lon="0.82573">
        <ele>68.2</ele>
        <time>2020-06-18T10:05:05Z</time>
      </trkpt>
      <trkpt lat="49.84048" lon="0.82581">
        <ele>68.3</ele>
        <time>2020-06-18T10:05:06Z</time>
      </trkpt>
      <trkpt lat="49.84048" lon="0.82589">
        <ele>68.5</ele>
        <time>2020-06-18T10:05:07Z</time>
      </trkpt>
      <trkpt lat="49.84048" lon="0.82596">
        <ele>68.6</ele>
        <time>2020-06-18T10:05:08Z</time>
      </trkpt>
      <trkpt lat="49.84048" lon="0.82603">
        <ele>68.7</ele>
        <time>2020-06-18T10:05:09Z</time>
      </trkpt>
      <trkpt lat="49.84048" lon="0.82609">
        <ele>68.8</ele>
        <time>2020-06-18T10:05:10Z</time>
      </trkpt>
      <trkpt lat="49.84048" lon="0.82615">
        <ele>68.9</ele>
        <time>2020-06-18T10:05:11Z</time>
      </trkpt>
      <trkpt lat="49.84048" lon="0.82622">
        <ele>69</ele>
        <time>2020-06-18T10:05:12Z</time>
      </trkpt>
      <trkpt lat="49.84048" lon="0.82628">
        <ele>69.1</ele>
        <time>2020-06-18T10:05:13Z</time>
      </trkpt>
      <trkpt lat="49.84048" lon="0.82635">
        <ele>69.2</ele>
        <time>2020-06-18T10:05:14Z</time>
      </trkpt>
      <trkpt lat="49.84048" lon="0.82642">
        <ele>69.4</ele>
        <time>2020-06-18T10:05:15Z</time>
      </trkpt>
      <trkpt lat="49.84048" lon="0.82647">
        <ele>69.5</ele>
        <time>2020-06-18T10:05:16Z</time>
      </trkpt>
      <trkpt lat="49.84047" lon="0.82654">
        <ele>69.6</ele>
        <time>2020-06-18T10:05:17Z</time>
      </trkpt>
      <trkpt lat="49.84046" lon="0.82661">
        <ele>69.8</ele>
        <time>2020-06-18T10:05:18Z</time>
      </trkpt>
      <trkpt lat="49.84046" lon="0.82667">
        <ele>69.9</ele>
        <time>2020-06-18T10:05:19Z</time>
      </trkpt>
      <trkpt lat="49.84046" lon="0.82672">
        <ele>69.9</ele>
        <time>2020-06-18T10:05:20Z</time>
      </trkpt>
      <trkpt lat="49.84046" lon="0.82677">
        <ele>69.8</ele>
        <time>2020-06-18T10:05:21Z</time>
      </trkpt>
      <trkpt lat="49.84046" lon="0.82678">
        <ele>69.8</ele>
        <time>2020-06-18T10:05:22Z</time>
      </trkpt>
      <trkpt lat="49.84047" lon="0.82678">
        <ele>69.7</ele>
        <time>2020-06-18T10:05:23Z</time>
      </trkpt>
      <trkpt lat="49.84048" lon="0.82678">
        <ele>69.7</ele>
        <time>2020-06-18T10:05:24Z</time>
      </trkpt>
      <trkpt lat="49.8405" lon="0.82678">
        <ele>69.7</ele>
        <time>2020-06-18T10:05:25Z</time>
      </trkpt>
      <trkpt lat="49.84051" lon="0.82678">
        <ele>69.7</ele>
        <time>2020-06-18T10:05:26Z</time>
      </trkpt>
      <trkpt lat="49.84053" lon="0.82676">
        <ele>69.6</ele>
        <time>2020-06-18T10:05:27Z</time>
      </trkpt>
      <trkpt lat="49.84055" lon="0.82671">
        <ele>69.5</ele>
        <time>2020-06-18T10:05:28Z</time>
      </trkpt>
      <trkpt lat="49.84059" lon="0.82667">
        <ele>69.4</ele>
        <time>2020-06-18T10:05:29Z</time>
      </trkpt>
      <trkpt lat="49.84062" lon="0.82662">
        <ele>69.3</ele>
        <time>2020-06-18T10:05:30Z</time>
      </trkpt>
      <trkpt lat="49.84067" lon="0.82657">
        <ele>69.2</ele>
        <time>2020-06-18T10:05:31Z</time>
      </trkpt>
      <trkpt lat="49.84071" lon="0.82653">
        <ele>69.1</ele>
        <time>2020-06-18T10:05:32Z</time>
      </trkpt>
      <trkpt lat="49.84075" lon="0.82649">
        <ele>69</ele>
        <time>2020-06-18T10:05:33Z</time>
      </trkpt>
      <trkpt lat="49.84079" lon="0.82645">
        <ele>68.9</ele>
        <time>2020-06-18T10:05:34Z</time>
      </trkpt>
      <trkpt lat="49.84083" lon="0.82639">
        <ele>68.8</ele>
        <time>2020-06-18T10:05:35Z</time>
      </trkpt>
      <trkpt lat="49.84087" lon="0.82635">
        <ele>68.7</ele>
        <time>2020-06-18T10:05:36Z</time>
      </trkpt>
      <trkpt lat="49.8409" lon="0.82632">
        <ele>68.7</ele>
        <time>2020-06-18T10:05:37Z</time>
      </trkpt>
      <trkpt lat="49.84094" lon="0.82627">
        <ele>68.6</ele>
        <time>2020-06-18T10:05:38Z</time>
      </trkpt>
      <trkpt lat="49.84098" lon="0.82624">
        <ele>68.5</ele>
        <time>2020-06-18T10:05:39Z</time>
      </trkpt>
      <trkpt lat="49.84102" lon="0.82619">
        <ele>68.4</ele>
        <time>2020-06-18T10:05:40Z</time>
      </trkpt>
      <trkpt lat="49.84107" lon="0.82615">
        <ele>68.3</ele>
        <time>2020-06-18T10:05:41Z</time>
      </trkpt>
      <trkpt lat="49.84111" lon="0.82612">
        <ele>68.6</ele>
        <time>2020-06-18T10:05:42Z</time>
      </trkpt>
      <trkpt lat="49.84116" lon="0.8261">
        <ele>68.7</ele>
        <time>2020-06-18T10:05:43Z</time>
      </trkpt>
      <trkpt lat="49.8412" lon="0.82611">
        <ele>68.7</ele>
        <time>2020-06-18T10:05:44Z</time>
      </trkpt>
      <trkpt lat="49.84126" lon="0.82612">
        <ele>68.6</ele>
        <time>2020-06-18T10:05:45Z</time>
      </trkpt>
      <trkpt lat="49.84131" lon="0.82614">
        <ele>68.4</ele>
        <time>2020-06-18T10:05:46Z</time>
      </trkpt>
      <trkpt lat="49.84136" lon="0.82616">
        <ele>68.2</ele>
        <time>2020-06-18T10:05:47Z</time>
      </trkpt>
      <trkpt lat="49.84141" lon="0.82619">
        <ele>68.1</ele>
        <time>2020-06-18T10:05:48Z</time>
      </trkpt>
      <trkpt lat="49.84147" lon="0.82622">
        <ele>67.9</ele>
        <time>2020-06-18T10:05:49Z</time>
      </trkpt>
      <trkpt lat="49.84152" lon="0.82625">
        <ele>67.8</ele>
        <time>2020-06-18T10:05:50Z</time>
      </trkpt>
      <trkpt lat="49.84157" lon="0.82629">
        <ele>67.7</ele>
        <time>2020-06-18T10:05:51Z</time>
      </trkpt>
      <trkpt lat="49.84164" lon="0.82632">
        <ele>67.6</ele>
        <time>2020-06-18T10:05:52Z</time>
      </trkpt>
      <trkpt lat="49.84169" lon="0.82635">
        <ele>67.6</ele>
        <time>2020-06-18T10:05:53Z</time>
      </trkpt>
      <trkpt lat="49.84175" lon="0.82639">
        <ele>67.6</ele>
        <time>2020-06-18T10:05:54Z</time>
      </trkpt>
      <trkpt lat="49.84181" lon="0.82642">
        <ele>67.5</ele>
        <time>2020-06-18T10:05:55Z</time>
      </trkpt>
      <trkpt lat="49.84186" lon="0.82648">
        <ele>67.5</ele>
        <time>2020-06-18T10:05:56Z</time>
      </trkpt>
      <trkpt lat="49.84191" lon="0.82652">
        <ele>67.5</ele>
        <time>2020-06-18T10:05:57Z</time>
      </trkpt>
      <trkpt lat="49.84196" lon="0.82658">
        <ele>67.5</ele>
        <time>2020-06-18T10:05:58Z</time>
      </trkpt>
      <trkpt lat="49.842" lon="0.82663">
        <ele>67.6</ele>
        <time>2020-06-18T10:05:59Z</time>
      </trkpt>
      <trkpt lat="49.84205" lon="0.82666">
        <ele>67.6</ele>
        <time>2020-06-18T10:06:00Z</time>
      </trkpt>
      <trkpt lat="49.8421" lon="0.8267">
        <ele>67.6</ele>
        <time>2020-06-18T10:06:01Z</time>
      </trkpt>
      <trkpt lat="49.84213" lon="0.82674">
        <ele>67.6</ele>
        <time>2020-06-18T10:06:02Z</time>
      </trkpt>
      <trkpt lat="49.84218" lon="0.82677">
        <ele>67.6</ele>
        <time>2020-06-18T10:06:03Z</time>
      </trkpt>
      <trkpt lat="49.84222" lon="0.8268">
        <ele>67.7</ele>
        <time>2020-06-18T10:06:04Z</time>
      </trkpt>
      <trkpt lat="49.84227" lon="0.82684">
        <ele>67.7</ele>
        <time>2020-06-18T10:06:05Z</time>
      </trkpt>
      <trkpt lat="49.84231" lon="0.82688">
        <ele>67.8</ele>
        <time>2020-06-18T10:06:06Z</time>
      </trkpt>
      <trkpt lat="49.84236" lon="0.82691">
        <ele>67.8</ele>
        <time>2020-06-18T10:06:07Z</time>
      </trkpt>
      <trkpt lat="49.84241" lon="0.82695">
        <ele>67.9</ele>
        <time>2020-06-18T10:06:08Z</time>
      </trkpt>
      <trkpt lat="49.84246" lon="0.82699">
        <ele>68</ele>
        <time>2020-06-18T10:06:09Z</time>
      </trkpt>
      <trkpt lat="49.8425" lon="0.82703">
        <ele>68.1</ele>
        <time>2020-06-18T10:06:10Z</time>
      </trkpt>
      <trkpt lat="49.84255" lon="0.82706">
        <ele>68.2</ele>
        <time>2020-06-18T10:06:11Z</time>
      </trkpt>
      <trkpt lat="49.84259" lon="0.82709">
        <ele>68.3</ele>
        <time>2020-06-18T10:06:12Z</time>
      </trkpt>
      <trkpt lat="49.84264" lon="0.82713">
        <ele>68.4</ele>
        <time>2020-06-18T10:06:13Z</time>
      </trkpt>
      <trkpt lat="49.84269" lon="0.82717">
        <ele>68.4</ele>
        <time>2020-06-18T10:06:14Z</time>
      </trkpt>
      <trkpt lat="49.84275" lon="0.82721">
        <ele>68.5</ele>
        <time>2020-06-18T10:06:15Z</time>
      </trkpt>
      <trkpt lat="49.8428" lon="0.82725">
        <ele>68.6</ele>
        <time>2020-06-18T10:06:16Z</time>
      </trkpt>
      <trkpt lat="49.84285" lon="0.82731">
        <ele>68.7</ele>
        <time>2020-06-18T10:06:17Z</time>
      </trkpt>
      <trkpt lat="49.8429" lon="0.82735">
        <ele>68.8</ele>
        <time>2020-06-18T10:06:18Z</time>
      </trkpt>
      <trkpt lat="49.84294" lon="0.8274">
        <ele>68.9</ele>
        <time>2020-06-18T10:06:19Z</time>
      </trkpt>
      <trkpt lat="49.84299" lon="0.82745">
        <ele>69</ele>
        <time>2020-06-18T10:06:20Z</time>
      </trkpt>
      <trkpt lat="49.84304" lon="0.82749">
        <ele>69.1</ele>
        <time>2020-06-18T10:06:21Z</time>
      </trkpt>
      <trkpt lat="49.84309" lon="0.82752">
        <ele>69.3</ele>
        <time>2020-06-18T10:06:22Z</time>
      </trkpt>
      <trkpt lat="49.84314" lon="0.82755">
        <ele>69.4</ele>
        <time>2020-06-18T10:06:23Z</time>
      </trkpt>
      <trkpt lat="49.84319" lon="0.82759">
        <ele>69.5</ele>
        <time>2020-06-18T10:06:24Z</time>
      </trkpt>
      <trkpt lat="49.84324" lon="0.82763">
        <ele>69.6</ele>
        <time>2020-06-18T10:06:25Z</time>
      </trkpt>
      <trkpt lat="49.84329" lon="0.82767">
        <ele>69.7</ele>
        <time>2020-06-18T10:06:26Z</time>
      </trkpt>
      <trkpt lat="49.84334" lon="0.82772">
        <ele>69.8</ele>
        <time>2020-06-18T10:06:27Z</time>
      </trkpt>
      <trkpt lat="49.84338" lon="0.82776">
        <ele>70</ele>
        <time>2020-06-18T10:06:28Z</time>
      </trkpt>
      <trkpt lat="49.84343" lon="0.8278">
        <ele>70.1</ele>
        <time>2020-06-18T10:06:29Z</time>
      </trkpt>
      <trkpt lat="49.84348" lon="0.82785">
        <ele>70.2</ele>
        <time>2020-06-18T10:06:30Z</time>
      </trkpt>
      <trkpt lat="49.84354" lon="0.82789">
        <ele>70.4</ele>
        <time>2020-06-18T10:06:31Z</time>
      </trkpt>
      <trkpt lat="49.84359" lon="0.82795">
        <ele>70.5</ele>
        <time>2020-06-18T10:06:32Z</time>
      </trkpt>
      <trkpt lat="49.84363" lon="0.82799">
        <ele>70.7</ele>
        <time>2020-06-18T10:06:33Z</time>
      </trkpt>
      <trkpt lat="49.84369" lon="0.82803">
        <ele>70.8</ele>
        <time>2020-06-18T10:06:34Z</time>
      </trkpt>
      <trkpt lat="49.84373" lon="0.82806">
        <ele>70.8</ele>
        <time>2020-06-18T10:06:35Z</time>
      </trkpt>
      <trkpt lat="49.84377" lon="0.82809">
        <ele>70.9</ele>
        <time>2020-06-18T10:06:36Z</time>
      </trkpt>
      <trkpt lat="49.84382" lon="0.82813">
        <ele>71</ele>
        <time>2020-06-18T10:06:37Z</time>
      </trkpt>
      <trkpt lat="49.84387" lon="0.82817">
        <ele>71.1</ele>
        <time>2020-06-18T10:06:38Z</time>
      </trkpt>
      <trkpt lat="49.84392" lon="0.82821">
        <ele>71.2</ele>
        <time>2020-06-18T10:06:39Z</time>
      </trkpt>
      <trkpt lat="49.84397" lon="0.82825">
        <ele>71.3</ele>
        <time>2020-06-18T10:06:40Z</time>
      </trkpt>
      <trkpt lat="49.84402" lon="0.82829">
        <ele>71.4</ele>
        <time>2020-06-18T10:06:41Z</time>
      </trkpt>
      <trkpt lat="49.84407" lon="0.82835">
        <ele>71.5</ele>
        <time>2020-06-18T10:06:42Z</time>
      </trkpt>
      <trkpt lat="49.84412" lon="0.82839">
        <ele>71.7</ele>
        <time>2020-06-18T10:06:43Z</time>
      </trkpt>
      <trkpt lat="49.84417" lon="0.82843">
        <ele>71.8</ele>
        <time>2020-06-18T10:06:44Z</time>
      </trkpt>
      <trkpt lat="49.84422" lon="0.82847">
        <ele>71.9</ele>
        <time>2020-06-18T10:06:45Z</time>
      </trkpt>
      <trkpt lat="49.84427" lon="0.82851">
        <ele>72</ele>
        <time>2020-06-18T10:06:46Z</time>
      </trkpt>
      <trkpt lat="49.84431" lon="0.82856">
        <ele>72.1</ele>
        <time>2020-06-18T10:06:47Z</time>
      </trkpt>
      <trkpt lat="49.84436" lon="0.8286">
        <ele>72.1</ele>
        <time>2020-06-18T10:06:48Z</time>
      </trkpt>
      <trkpt lat="49.84441" lon="0.82864">
        <ele>72.2</ele>
        <time>2020-06-18T10:06:49Z</time>
      </trkpt>
      <trkpt lat="49.84446" lon="0.82867">
        <ele>72.2</ele>
        <time>2020-06-18T10:06:50Z</time>
      </trkpt>
      <trkpt lat="49.84451" lon="0.82871">
        <ele>72.2</ele>
        <time>2020-06-18T10:06:51Z</time>
      </trkpt>
      <trkpt lat="49.84456" lon="0.82875">
        <ele>72.2</ele>
        <time>2020-06-18T10:06:52Z</time>
      </trkpt>
      <trkpt lat="49.8446" lon="0.82879">
        <ele>72.2</ele>
        <time>2020-06-18T10:06:53Z</time>
      </trkpt>
      <trkpt lat="49.84466" lon="0.82884">
        <ele>72.3</ele>
        <time>2020-06-18T10:06:54Z</time>
      </trkpt>
      <trkpt lat="49.84472" lon="0.82889">
        <ele>72.2</ele>
        <time>2020-06-18T10:06:55Z</time>
      </trkpt>
      <trkpt lat="49.84478" lon="0.82893">
        <ele>72.2</ele>
        <time>2020-06-18T10:06:56Z</time>
      </trkpt>
      <trkpt lat="49.84484" lon="0.82895">
        <ele>72.2</ele>
        <time>2020-06-18T10:06:57Z</time>
      </trkpt>
      <trkpt lat="49.84489" lon="0.82898">
        <ele>72.1</ele>
        <time>2020-06-18T10:06:58Z</time>
      </trkpt>
      <trkpt lat="49.84495" lon="0.82901">
        <ele>72</ele>
        <time>2020-06-18T10:06:59Z</time>
      </trkpt>
      <trkpt lat="49.84501" lon="0.82903">
        <ele>72</ele>
        <time>2020-06-18T10:07:00Z</time>
      </trkpt>
      <trkpt lat="49.84507" lon="0.82904">
        <ele>72</ele>
        <time>2020-06-18T10:07:01Z</time>
      </trkpt>
      <trkpt lat="49.84513" lon="0.82906">
        <ele>71.9</ele>
        <time>2020-06-18T10:07:02Z</time>
      </trkpt>
      <trkpt lat="49.84519" lon="0.82909">
        <ele>71.9</ele>
        <time>2020-06-18T10:07:03Z</time>
      </trkpt>
      <trkpt lat="49.84525" lon="0.82911">
        <ele>71.9</ele>
        <time>2020-06-18T10:07:04Z</time>
      </trkpt>
      <trkpt lat="49.84532" lon="0.82914">
        <ele>71.8</ele>
        <time>2020-06-18T10:07:05Z</time>
      </trkpt>
      <trkpt lat="49.84538" lon="0.82916">
        <ele>71.7</ele>
        <time>2020-06-18T10:07:06Z</time>
      </trkpt>
      <trkpt lat="49.84545" lon="0.82918">
        <ele>71.7</ele>
        <time>2020-06-18T10:07:07Z</time>
      </trkpt>
      <trkpt lat="49.84551" lon="0.8292">
        <ele>71.6</ele>
        <time>2020-06-18T10:07:08Z</time>
      </trkpt>
      <trkpt lat="49.84555" lon="0.82921">
        <ele>71.5</ele>
        <time>2020-06-18T10:07:09Z</time>
      </trkpt>
      <trkpt lat="49.8456" lon="0.82924">
        <ele>71.5</ele>
        <time>2020-06-18T10:07:10Z</time>
      </trkpt>
      <trkpt lat="49.84565" lon="0.82927">
        <ele>71.5</ele>
        <time>2020-06-18T10:07:11Z</time>
      </trkpt>
      <trkpt lat="49.84571" lon="0.8293">
        <ele>71.4</ele>
        <time>2020-06-18T10:07:12Z</time>
      </trkpt>
      <trkpt lat="49.84577" lon="0.82931">
        <ele>71.4</ele>
        <time>2020-06-18T10:07:13Z</time>
      </trkpt>
      <trkpt lat="49.8458" lon="0.82932">
        <ele>71.4</ele>
        <time>2020-06-18T10:07:14Z</time>
      </trkpt>
      <trkpt lat="49.84584" lon="0.82934">
        <ele>71.4</ele>
        <time>2020-06-18T10:07:15Z</time>
      </trkpt>
      <trkpt lat="49.84589" lon="0.82936">
        <ele>71.4</ele>
        <time>2020-06-18T10:07:16Z</time>
      </trkpt>
      <trkpt lat="49.84593" lon="0.82938">
        <ele>71.3</ele>
        <time>2020-06-18T10:07:17Z</time>
      </trkpt>
      <trkpt lat="49.84599" lon="0.82942">
        <ele>71.3</ele>
        <time>2020-06-18T10:07:18Z</time>
      </trkpt>
      <trkpt lat="49.84603" lon="0.82946">
        <ele>71.3</ele>
        <time>2020-06-18T10:07:19Z</time>
      </trkpt>
      <trkpt lat="49.84608" lon="0.8295">
        <ele>71.3</ele>
        <time>2020-06-18T10:07:20Z</time>
      </trkpt>
      <trkpt lat="49.84613" lon="0.82954">
        <ele>71.2</ele>
        <time>2020-06-18T10:07:21Z</time>
      </trkpt>
      <trkpt lat="49.84618" lon="0.82959">
        <ele>71.1</ele>
        <time>2020-06-18T10:07:22Z</time>
      </trkpt>
      <trkpt lat="49.84623" lon="0.82964">
        <ele>70.9</ele>
        <time>2020-06-18T10:07:23Z</time>
      </trkpt>
      <trkpt lat="49.84628" lon="0.82968">
        <ele>70.8</ele>
        <time>2020-06-18T10:07:24Z</time>
      </trkpt>
      <trkpt lat="49.84633" lon="0.82972">
        <ele>70.7</ele>
        <time>2020-06-18T10:07:25Z</time>
      </trkpt>
      <trkpt lat="49.84638" lon="0.82977">
        <ele>70.6</ele>
        <time>2020-06-18T10:07:26Z</time>
      </trkpt>
      <trkpt lat="49.84643" lon="0.82982">
        <ele>70.5</ele>
        <time>2020-06-18T10:07:27Z</time>
      </trkpt>
      <trkpt lat="49.84647" lon="0.82985">
        <ele>70.5</ele>
        <time>2020-06-18T10:07:28Z</time>
      </trkpt>
      <trkpt lat="49.84652" lon="0.82989">
        <ele>70.4</ele>
        <time>2020-06-18T10:07:29Z</time>
      </trkpt>
      <trkpt lat="49.84656" lon="0.82993">
        <ele>70.4</ele>
        <time>2020-06-18T10:07:30Z</time>
      </trkpt>
      <trkpt lat="49.84661" lon="0.82999">
        <ele>70.3</ele>
        <time>2020-06-18T10:07:31Z</time>
      </trkpt>
      <trkpt lat="49.84666" lon="0.83002">
        <ele>70.2</ele>
        <time>2020-06-18T10:07:32Z</time>
      </trkpt>
      <trkpt lat="49.84671" lon="0.83007">
        <ele>70.1</ele>
        <time>2020-06-18T10:07:33Z</time>
      </trkpt>
      <trkpt lat="49.84677" lon="0.83011">
        <ele>70.1</ele>
        <time>2020-06-18T10:07:34Z</time>
      </trkpt>
      <trkpt lat="49.84682" lon="0.83014">
        <ele>70</ele>
        <time>2020-06-18T10:07:35Z</time>
      </trkpt>
      <trkpt lat="49.84687" lon="0.83018">
        <ele>69.9</ele>
        <time>2020-06-18T10:07:36Z</time>
      </trkpt>
      <trkpt lat="49.84693" lon="0.83022">
        <ele>69.8</ele>
        <time>2020-06-18T10:07:37Z</time>
      </trkpt>
      <trkpt lat="49.84697" lon="0.83024">
        <ele>69.8</ele>
        <time>2020-06-18T10:07:38Z</time>
      </trkpt>
      <trkpt lat="49.84702" lon="0.83027">
        <ele>69.7</ele>
        <time>2020-06-18T10:07:39Z</time>
      </trkpt>
      <trkpt lat="49.84707" lon="0.8303">
        <ele>69.7</ele>
        <time>2020-06-18T10:07:40Z</time>
      </trkpt>
      <trkpt lat="49.84713" lon="0.83034">
        <ele>69.6</ele>
        <time>2020-06-18T10:07:41Z</time>
      </trkpt>
      <trkpt lat="49.84719" lon="0.83037">
        <ele>69.5</ele>
        <time>2020-06-18T10:07:42Z</time>
      </trkpt>
      <trkpt lat="49.84725" lon="0.8304">
        <ele>69.5</ele>
        <time>2020-06-18T10:07:43Z</time>
      </trkpt>
      <trkpt lat="49.84731" lon="0.83043">
        <ele>69.4</ele>
        <time>2020-06-18T10:07:44Z</time>
      </trkpt>
      <trkpt lat="49.84738" lon="0.83044">
        <ele>69.4</ele>
        <time>2020-06-18T10:07:45Z</time>
      </trkpt>
      <trkpt lat="49.84743" lon="0.83045">
        <ele>69.4</ele>
        <time>2020-06-18T10:07:46Z</time>
      </trkpt>
      <trkpt lat="49.84749" lon="0.83045">
        <ele>69.4</ele>
        <time>2020-06-18T10:07:47Z</time>
      </trkpt>
      <trkpt lat="49.84755" lon="0.83046">
        <ele>69.4</ele>
        <time>2020-06-18T10:07:48Z</time>
      </trkpt>
      <trkpt lat="49.8476" lon="0.83047">
        <ele>69.3</ele>
        <time>2020-06-18T10:07:49Z</time>
      </trkpt>
      <trkpt lat="49.84766" lon="0.83048">
        <ele>69.3</ele>
        <time>2020-06-18T10:07:50Z</time>
      </trkpt>
      <trkpt lat="49.84771" lon="0.8305">
        <ele>69.2</ele>
        <time>2020-06-18T10:07:51Z</time>
      </trkpt>
      <trkpt lat="49.84776" lon="0.8305">
        <ele>69.2</ele>
        <time>2020-06-18T10:07:52Z</time>
      </trkpt>
      <trkpt lat="49.84781" lon="0.8305">
        <ele>69.2</ele>
        <time>2020-06-18T10:07:53Z</time>
      </trkpt>
      <trkpt lat="49.84784" lon="0.8305">
        <ele>69.2</ele>
        <time>2020-06-18T10:07:54Z</time>
      </trkpt>
      <trkpt lat="49.84787" lon="0.8305">
        <ele>69.2</ele>
        <time>2020-06-18T10:07:55Z</time>
      </trkpt>
      <trkpt lat="49.8479" lon="0.83049">
        <ele>69.2</ele>
        <time>2020-06-18T10:07:56Z</time>
      </trkpt>
      <trkpt lat="49.84793" lon="0.83051">
        <ele>69.2</ele>
        <time>2020-06-18T10:07:57Z</time>
      </trkpt>
      <trkpt lat="49.84795" lon="0.83052">
        <ele>69.2</ele>
        <time>2020-06-18T10:07:58Z</time>
      </trkpt>
      <trkpt lat="49.84795" lon="0.83052">
        <ele>69.2</ele>
        <time>2020-06-18T10:07:59Z</time>
      </trkpt>
      <trkpt lat="49.84796" lon="0.83053">
        <ele>69.2</ele>
        <time>2020-06-18T10:08:00Z</time>
      </trkpt>
      <trkpt lat="49.84796" lon="0.83053">
        <ele>69.2</ele>
        <time>2020-06-18T10:08:01Z</time>
      </trkpt>
      <trkpt lat="49.84795" lon="0.83053">
        <ele>69.2</ele>
        <time>2020-06-18T10:08:02Z</time>
      </trkpt>
      <trkpt lat="49.84794" lon="0.83053">
        <ele>69.2</ele>
        <time>2020-06-18T10:08:03Z</time>
      </trkpt>
      <trkpt lat="49.84794" lon="0.83051">
        <ele>69.2</ele>
        <time>2020-06-18T10:08:04Z</time>
      </trkpt>
      <trkpt lat="49.84794" lon="0.83052">
        <ele>69.2</ele>
        <time>2020-06-18T10:08:05Z</time>
      </trkpt>
      <trkpt lat="49.84794" lon="0.83052">
        <ele>69.2</ele>
        <time>2020-06-18T10:08:06Z</time>
      </trkpt>
      <trkpt lat="49.84794" lon="0.83052">
        <ele>69.2</ele>
        <time>2020-06-18T10:08:07Z</time>
      </trkpt>
      <trkpt lat="49.84794" lon="0.83052">
        <ele>69.2</ele>
        <time>2020-06-18T10:08:08Z</time>
      </trkpt>
      <trkpt lat="49.84794" lon="0.83051">
        <ele>69.2</ele>
        <time>2020-06-18T10:08:09Z</time>
      </trkpt>
      <trkpt lat="49.84794" lon="0.83051">
        <ele>69.2</ele>
        <time>2020-06-18T10:08:10Z</time>
      </trkpt>
      <trkpt lat="49.84794" lon="0.83051">
        <ele>69.2</ele>
        <time>2020-06-18T10:08:11Z</time>
      </trkpt>
      <trkpt lat="49.84794" lon="0.83051">
        <ele>69.2</ele>
        <time>2020-06-18T10:08:12Z</time>
      </trkpt>
      <trkpt lat="49.84794" lon="0.83051">
        <ele>69.2</ele>
        <time>2020-06-18T10:08:13Z</time>
      </trkpt>
      <trkpt lat="49.84794" lon="0.83051">
        <ele>69.2</ele>
        <time>2020-06-18T10:08:14Z</time>
      </trkpt>
      <trkpt lat="49.84794" lon="0.83051">
        <ele>69.2</ele>
        <time>2020-06-18T10:08:15Z</time>
      </trkpt>
      <trkpt lat="49.84797" lon="0.83051">
        <ele>69.2</ele>
        <time>2020-06-18T10:09:46Z</time>
      </trkpt>
      <trkpt lat="49.84798" lon="0.83051">
        <ele>69.2</ele>
        <time>2020-06-18T10:09:47Z</time>
      </trkpt>
      <trkpt lat="49.84799" lon="0.83051">
        <ele>69.2</ele>
        <time>2020-06-18T10:09:48Z</time>
      </trkpt>
      <trkpt lat="49.84801" lon="0.83051">
        <ele>69.2</ele>
        <time>2020-06-18T10:09:49Z</time>
      </trkpt>
      <trkpt lat="49.84802" lon="0.83051">
        <ele>69.1</ele>
        <time>2020-06-18T10:09:50Z</time>
      </trkpt>
      <trkpt lat="49.84804" lon="0.83051">
        <ele>69.1</ele>
        <time>2020-06-18T10:09:51Z</time>
      </trkpt>
      <trkpt lat="49.84806" lon="0.83051">
        <ele>69.1</ele>
        <time>2020-06-18T10:09:52Z</time>
      </trkpt>
      <trkpt lat="49.84809" lon="0.83052">
        <ele>69.1</ele>
        <time>2020-06-18T10:09:53Z</time>
      </trkpt>
      <trkpt lat="49.84811" lon="0.83052">
        <ele>69.1</ele>
        <time>2020-06-18T10:09:54Z</time>
      </trkpt>
      <trkpt lat="49.84815" lon="0.83053">
        <ele>69</ele>
        <time>2020-06-18T10:09:55Z</time>
      </trkpt>
      <trkpt lat="49.84816" lon="0.83053">
        <ele>69</ele>
        <time>2020-06-18T10:09:56Z</time>
      </trkpt>
      <trkpt lat="49.84819" lon="0.83052">
        <ele>69</ele>
        <time>2020-06-18T10:09:57Z</time>
      </trkpt>
      <trkpt lat="49.84823" lon="0.83052">
        <ele>69</ele>
        <time>2020-06-18T10:09:58Z</time>
      </trkpt>
      <trkpt lat="49.84827" lon="0.83053">
        <ele>69</ele>
        <time>2020-06-18T10:09:59Z</time>
      </trkpt>
      <trkpt lat="49.8483" lon="0.83052">
        <ele>69</ele>
        <time>2020-06-18T10:10:00Z</time>
      </trkpt>
      <trkpt lat="49.84834" lon="0.83052">
        <ele>69</ele>
        <time>2020-06-18T10:10:01Z</time>
      </trkpt>
      <trkpt lat="49.84838" lon="0.83051">
        <ele>69</ele>
        <time>2020-06-18T10:10:02Z</time>
      </trkpt>
      <trkpt lat="49.84843" lon="0.83051">
        <ele>68.9</ele>
        <time>2020-06-18T10:10:03Z</time>
      </trkpt>
      <trkpt lat="49.84847" lon="0.83053">
        <ele>68.9</ele>
        <time>2020-06-18T10:10:04Z</time>
      </trkpt>
      <trkpt lat="49.84852" lon="0.83053">
        <ele>68.9</ele>
        <time>2020-06-18T10:10:05Z</time>
      </trkpt>
      <trkpt lat="49.84856" lon="0.83054">
        <ele>68.8</ele>
        <time>2020-06-18T10:10:06Z</time>
      </trkpt>
      <trkpt lat="49.84861" lon="0.83053">
        <ele>68.7</ele>
        <time>2020-06-18T10:10:07Z</time>
      </trkpt>
      <trkpt lat="49.84865" lon="0.83053">
        <ele>68.7</ele>
        <time>2020-06-18T10:10:08Z</time>
      </trkpt>
      <trkpt lat="49.8487" lon="0.83053">
        <ele>68.7</ele>
        <time>2020-06-18T10:10:09Z</time>
      </trkpt>
      <trkpt lat="49.84874" lon="0.83052">
        <ele>68.7</ele>
        <time>2020-06-18T10:10:10Z</time>
      </trkpt>
      <trkpt lat="49.84879" lon="0.83052">
        <ele>68.7</ele>
        <time>2020-06-18T10:10:11Z</time>
      </trkpt>
      <trkpt lat="49.84885" lon="0.83052">
        <ele>68.7</ele>
        <time>2020-06-18T10:10:12Z</time>
      </trkpt>
      <trkpt lat="49.8489" lon="0.83052">
        <ele>68.7</ele>
        <time>2020-06-18T10:10:13Z</time>
      </trkpt>
      <trkpt lat="49.84895" lon="0.83053">
        <ele>68.7</ele>
        <time>2020-06-18T10:10:14Z</time>
      </trkpt>
      <trkpt lat="49.849" lon="0.83054">
        <ele>68.7</ele>
        <time>2020-06-18T10:10:15Z</time>
      </trkpt>
      <trkpt lat="49.84904" lon="0.83054">
        <ele>68.8</ele>
        <time>2020-06-18T10:10:16Z</time>
      </trkpt>
      <trkpt lat="49.84909" lon="0.83055">
        <ele>68.8</ele>
        <time>2020-06-18T10:10:17Z</time>
      </trkpt>
      <trkpt lat="49.84914" lon="0.83054">
        <ele>68.8</ele>
        <time>2020-06-18T10:10:18Z</time>
      </trkpt>
      <trkpt lat="49.84919" lon="0.83054">
        <ele>68.9</ele>
        <time>2020-06-18T10:10:19Z</time>
      </trkpt>
      <trkpt lat="49.84924" lon="0.83054">
        <ele>68.9</ele>
        <time>2020-06-18T10:10:20Z</time>
      </trkpt>
      <trkpt lat="49.84928" lon="0.83054">
        <ele>68.9</ele>
        <time>2020-06-18T10:10:21Z</time>
      </trkpt>
      <trkpt lat="49.84933" lon="0.83054">
        <ele>69</ele>
        <time>2020-06-18T10:10:22Z</time>
      </trkpt>
      <trkpt lat="49.84937" lon="0.83055">
        <ele>69</ele>
        <time>2020-06-18T10:10:23Z</time>
      </trkpt>
      <trkpt lat="49.84942" lon="0.83055">
        <ele>69</ele>
        <time>2020-06-18T10:10:24Z</time>
      </trkpt>
      <trkpt lat="49.84946" lon="0.83056">
        <ele>69.1</ele>
        <time>2020-06-18T10:10:25Z</time>
      </trkpt>
      <trkpt lat="49.84951" lon="0.83057">
        <ele>69.2</ele>
        <time>2020-06-18T10:10:26Z</time>
      </trkpt>
      <trkpt lat="49.84956" lon="0.83057">
        <ele>69.2</ele>
        <time>2020-06-18T10:10:27Z</time>
      </trkpt>
      <trkpt lat="49.84961" lon="0.83057">
        <ele>69.2</ele>
        <time>2020-06-18T10:10:28Z</time>
      </trkpt>
      <trkpt lat="49.84966" lon="0.83058">
        <ele>69.2</ele>
        <time>2020-06-18T10:10:29Z</time>
      </trkpt>
      <trkpt lat="49.8497" lon="0.83059">
        <ele>69.2</ele>
        <time>2020-06-18T10:10:30Z</time>
      </trkpt>
      <trkpt lat="49.84974" lon="0.8306">
        <ele>69.2</ele>
        <time>2020-06-18T10:10:31Z</time>
      </trkpt>
      <trkpt lat="49.84979" lon="0.8306">
        <ele>69.2</ele>
        <time>2020-06-18T10:10:32Z</time>
      </trkpt>
      <trkpt lat="49.84983" lon="0.8306">
        <ele>69.2</ele>
        <time>2020-06-18T10:10:33Z</time>
      </trkpt>
      <trkpt lat="49.84989" lon="0.83061">
        <ele>69.2</ele>
        <time>2020-06-18T10:10:34Z</time>
      </trkpt>
      <trkpt lat="49.84994" lon="0.83061">
        <ele>69.2</ele>
        <time>2020-06-18T10:10:35Z</time>
      </trkpt>
      <trkpt lat="49.85" lon="0.83062">
        <ele>69.2</ele>
        <time>2020-06-18T10:10:36Z</time>
      </trkpt>
      <trkpt lat="49.85006" lon="0.83063">
        <ele>69.2</ele>
        <time>2020-06-18T10:10:37Z</time>
      </trkpt>
      <trkpt lat="49.85012" lon="0.83064">
        <ele>69.2</ele>
        <time>2020-06-18T10:10:38Z</time>
      </trkpt>
      <trkpt lat="49.85018" lon="0.83065">
        <ele>69.1</ele>
        <time>2020-06-18T10:10:39Z</time>
      </trkpt>
      <trkpt lat="49.85024" lon="0.83066">
        <ele>69.1</ele>
        <time>2020-06-18T10:10:40Z</time>
      </trkpt>
      <trkpt lat="49.85029" lon="0.83068">
        <ele>69.1</ele>
        <time>2020-06-18T10:10:41Z</time>
      </trkpt>
      <trkpt lat="49.85035" lon="0.83069">
        <ele>69</ele>
        <time>2020-06-18T10:10:42Z</time>
      </trkpt>
      <trkpt lat="49.8504" lon="0.83072">
        <ele>68.9</ele>
        <time>2020-06-18T10:10:43Z</time>
      </trkpt>
      <trkpt lat="49.85045" lon="0.83075">
        <ele>68.7</ele>
        <time>2020-06-18T10:10:44Z</time>
      </trkpt>
      <trkpt lat="49.85051" lon="0.83077">
        <ele>68.6</ele>
        <time>2020-06-18T10:10:45Z</time>
      </trkpt>
      <trkpt lat="49.85056" lon="0.8308">
        <ele>68.5</ele>
        <time>2020-06-18T10:10:46Z</time>
      </trkpt>
      <trkpt lat="49.85061" lon="0.83082">
        <ele>68.4</ele>
        <time>2020-06-18T10:10:47Z</time>
      </trkpt>
      <trkpt lat="49.85067" lon="0.83085">
        <ele>68.4</ele>
        <time>2020-06-18T10:10:48Z</time>
      </trkpt>
      <trkpt lat="49.85072" lon="0.83087">
        <ele>68.3</ele>
        <time>2020-06-18T10:10:49Z</time>
      </trkpt>
      <trkpt lat="49.85078" lon="0.8309">
        <ele>68.3</ele>
        <time>2020-06-18T10:10:50Z</time>
      </trkpt>
      <trkpt lat="49.85083" lon="0.83093">
        <ele>68.2</ele>
        <time>2020-06-18T10:10:51Z</time>
      </trkpt>
      <trkpt lat="49.85088" lon="0.83096">
        <ele>68.2</ele>
        <time>2020-06-18T10:10:52Z</time>
      </trkpt>
      <trkpt lat="49.85093" lon="0.831">
        <ele>68.2</ele>
        <time>2020-06-18T10:10:53Z</time>
      </trkpt>
      <trkpt lat="49.85099" lon="0.83103">
        <ele>68.2</ele>
        <time>2020-06-18T10:10:54Z</time>
      </trkpt>
      <trkpt lat="49.85105" lon="0.83108">
        <ele>68.2</ele>
        <time>2020-06-18T10:10:55Z</time>
      </trkpt>
      <trkpt lat="49.85111" lon="0.83112">
        <ele>68.3</ele>
        <time>2020-06-18T10:10:56Z</time>
      </trkpt>
      <trkpt lat="49.85117" lon="0.83117">
        <ele>68.3</ele>
        <time>2020-06-18T10:10:57Z</time>
      </trkpt>
      <trkpt lat="49.85122" lon="0.83121">
        <ele>68.3</ele>
        <time>2020-06-18T10:10:58Z</time>
      </trkpt>
      <trkpt lat="49.85127" lon="0.83125">
        <ele>68.3</ele>
        <time>2020-06-18T10:10:59Z</time>
      </trkpt>
      <trkpt lat="49.85132" lon="0.83129">
        <ele>68.3</ele>
        <time>2020-06-18T10:11:00Z</time>
      </trkpt>
      <trkpt lat="49.85137" lon="0.83133">
        <ele>68.4</ele>
        <time>2020-06-18T10:11:01Z</time>
      </trkpt>
      <trkpt lat="49.85141" lon="0.83138">
        <ele>68.4</ele>
        <time>2020-06-18T10:11:02Z</time>
      </trkpt>
      <trkpt lat="49.85146" lon="0.83142">
        <ele>68.4</ele>
        <time>2020-06-18T10:11:03Z</time>
      </trkpt>
      <trkpt lat="49.85151" lon="0.83146">
        <ele>68.4</ele>
        <time>2020-06-18T10:11:04Z</time>
      </trkpt>
      <trkpt lat="49.85156" lon="0.83151">
        <ele>68.4</ele>
        <time>2020-06-18T10:11:05Z</time>
      </trkpt>
      <trkpt lat="49.8516" lon="0.83156">
        <ele>68.4</ele>
        <time>2020-06-18T10:11:06Z</time>
      </trkpt>
      <trkpt lat="49.85165" lon="0.83161">
        <ele>68.4</ele>
        <time>2020-06-18T10:11:07Z</time>
      </trkpt>
      <trkpt lat="49.8517" lon="0.83165">
        <ele>68.4</ele>
        <time>2020-06-18T10:11:08Z</time>
      </trkpt>
      <trkpt lat="49.85174" lon="0.83169">
        <ele>68.5</ele>
        <time>2020-06-18T10:11:09Z</time>
      </trkpt>
      <trkpt lat="49.85179" lon="0.83174">
        <ele>68.5</ele>
        <time>2020-06-18T10:11:10Z</time>
      </trkpt>
      <trkpt lat="49.85183" lon="0.83178">
        <ele>68.5</ele>
        <time>2020-06-18T10:11:11Z</time>
      </trkpt>
      <trkpt lat="49.85188" lon="0.83182">
        <ele>68.5</ele>
        <time>2020-06-18T10:11:12Z</time>
      </trkpt>
      <trkpt lat="49.85193" lon="0.83186">
        <ele>68.5</ele>
        <time>2020-06-18T10:11:13Z</time>
      </trkpt>
      <trkpt lat="49.85198" lon="0.8319">
        <ele>68.4</ele>
        <time>2020-06-18T10:11:14Z</time>
      </trkpt>
      <trkpt lat="49.85203" lon="0.83194">
        <ele>68.4</ele>
        <time>2020-06-18T10:11:15Z</time>
      </trkpt>
      <trkpt lat="49.85208" lon="0.83198">
        <ele>68.4</ele>
        <time>2020-06-18T10:11:16Z</time>
      </trkpt>
      <trkpt lat="49.85213" lon="0.83201">
        <ele>68.3</ele>
        <time>2020-06-18T10:11:17Z</time>
      </trkpt>
      <trkpt lat="49.85217" lon="0.83205">
        <ele>68.2</ele>
        <time>2020-06-18T10:11:18Z</time>
      </trkpt>
      <trkpt lat="49.85223" lon="0.83209">
        <ele>68.2</ele>
        <time>2020-06-18T10:11:19Z</time>
      </trkpt>
      <trkpt lat="49.85228" lon="0.83213">
        <ele>68.2</ele>
        <time>2020-06-18T10:11:20Z</time>
      </trkpt>
      <trkpt lat="49.85233" lon="0.83217">
        <ele>68.2</ele>
        <time>2020-06-18T10:11:21Z</time>
      </trkpt>
      <trkpt lat="49.85237" lon="0.83223">
        <ele>68.1</ele>
        <time>2020-06-18T10:11:22Z</time>
      </trkpt>
      <trkpt lat="49.85242" lon="0.83227">
        <ele>67.9</ele>
        <time>2020-06-18T10:11:23Z</time>
      </trkpt>
      <trkpt lat="49.85247" lon="0.83231">
        <ele>67.8</ele>
        <time>2020-06-18T10:11:24Z</time>
      </trkpt>
      <trkpt lat="49.85252" lon="0.83236">
        <ele>67.6</ele>
        <time>2020-06-18T10:11:25Z</time>
      </trkpt>
      <trkpt lat="49.85257" lon="0.83242">
        <ele>67.4</ele>
        <time>2020-06-18T10:11:26Z</time>
      </trkpt>
      <trkpt lat="49.85262" lon="0.83247">
        <ele>67.3</ele>
        <time>2020-06-18T10:11:27Z</time>
      </trkpt>
      <trkpt lat="49.85268" lon="0.83252">
        <ele>67.1</ele>
        <time>2020-06-18T10:11:28Z</time>
      </trkpt>
      <trkpt lat="49.85273" lon="0.83257">
        <ele>67</ele>
        <time>2020-06-18T10:11:29Z</time>
      </trkpt>
      <trkpt lat="49.85278" lon="0.83263">
        <ele>66.9</ele>
        <time>2020-06-18T10:11:30Z</time>
      </trkpt>
      <trkpt lat="49.85283" lon="0.83269">
        <ele>66.8</ele>
        <time>2020-06-18T10:11:31Z</time>
      </trkpt>
      <trkpt lat="49.85288" lon="0.83274">
        <ele>66.7</ele>
        <time>2020-06-18T10:11:32Z</time>
      </trkpt>
      <trkpt lat="49.85294" lon="0.8328">
        <ele>66.5</ele>
        <time>2020-06-18T10:11:33Z</time>
      </trkpt>
      <trkpt lat="49.85299" lon="0.83285">
        <ele>66.3</ele>
        <time>2020-06-18T10:11:34Z</time>
      </trkpt>
      <trkpt lat="49.85306" lon="0.83291">
        <ele>66.1</ele>
        <time>2020-06-18T10:11:35Z</time>
      </trkpt>
      <trkpt lat="49.85311" lon="0.83297">
        <ele>65.9</ele>
        <time>2020-06-18T10:11:36Z</time>
      </trkpt>
      <trkpt lat="49.85317" lon="0.83302">
        <ele>65.8</ele>
        <time>2020-06-18T10:11:37Z</time>
      </trkpt>
      <trkpt lat="49.85323" lon="0.83308">
        <ele>65.6</ele>
        <time>2020-06-18T10:11:38Z</time>
      </trkpt>
      <trkpt lat="49.85329" lon="0.83315">
        <ele>65.4</ele>
        <time>2020-06-18T10:11:39Z</time>
      </trkpt>
      <trkpt lat="49.85333" lon="0.8332">
        <ele>65.3</ele>
        <time>2020-06-18T10:11:40Z</time>
      </trkpt>
      <trkpt lat="49.85338" lon="0.83327">
        <ele>65.1</ele>
        <time>2020-06-18T10:11:41Z</time>
      </trkpt>
      <trkpt lat="49.85343" lon="0.83334">
        <ele>64.9</ele>
        <time>2020-06-18T10:11:42Z</time>
      </trkpt>
      <trkpt lat="49.85349" lon="0.83341">
        <ele>64.8</ele>
        <time>2020-06-18T10:11:43Z</time>
      </trkpt>
      <trkpt lat="49.85354" lon="0.83349">
        <ele>64.7</ele>
        <time>2020-06-18T10:11:44Z</time>
      </trkpt>
      <trkpt lat="49.85359" lon="0.83357">
        <ele>64.5</ele>
        <time>2020-06-18T10:11:45Z</time>
      </trkpt>
      <trkpt lat="49.85365" lon="0.83364">
        <ele>64.4</ele>
        <time>2020-06-18T10:11:46Z</time>
      </trkpt>
      <trkpt lat="49.85371" lon="0.83371">
        <ele>64.3</ele>
        <time>2020-06-18T10:11:47Z</time>
      </trkpt>
      <trkpt lat="49.85376" lon="0.83377">
        <ele>64.2</ele>
        <time>2020-06-18T10:11:48Z</time>
      </trkpt>
      <trkpt lat="49.85381" lon="0.83385">
        <ele>64</ele>
        <time>2020-06-18T10:11:49Z</time>
      </trkpt>
      <trkpt lat="49.85386" lon="0.83391">
        <ele>63.9</ele>
        <time>2020-06-18T10:11:50Z</time>
      </trkpt>
      <trkpt lat="49.85391" lon="0.83397">
        <ele>63.9</ele>
        <time>2020-06-18T10:11:51Z</time>
      </trkpt>
      <trkpt lat="49.85396" lon="0.83404">
        <ele>63.8</ele>
        <time>2020-06-18T10:11:52Z</time>
      </trkpt>
      <trkpt lat="49.85402" lon="0.83411">
        <ele>63.8</ele>
        <time>2020-06-18T10:11:53Z</time>
      </trkpt>
      <trkpt lat="49.85407" lon="0.83416">
        <ele>63.8</ele>
        <time>2020-06-18T10:11:54Z</time>
      </trkpt>
      <trkpt lat="49.85412" lon="0.83422">
        <ele>63.8</ele>
        <time>2020-06-18T10:11:55Z</time>
      </trkpt>
      <trkpt lat="49.85418" lon="0.83428">
        <ele>63.8</ele>
        <time>2020-06-18T10:11:56Z</time>
      </trkpt>
      <trkpt lat="49.85423" lon="0.83435">
        <ele>63.8</ele>
        <time>2020-06-18T10:11:57Z</time>
      </trkpt>
      <trkpt lat="49.85429" lon="0.83441">
        <ele>63.9</ele>
        <time>2020-06-18T10:11:58Z</time>
      </trkpt>
      <trkpt lat="49.85435" lon="0.83447">
        <ele>63.9</ele>
        <time>2020-06-18T10:11:59Z</time>
      </trkpt>
      <trkpt lat="49.8544" lon="0.83453">
        <ele>63.8</ele>
        <time>2020-06-18T10:12:00Z</time>
      </trkpt>
      <trkpt lat="49.85445" lon="0.8346">
        <ele>63.8</ele>
        <time>2020-06-18T10:12:01Z</time>
      </trkpt>
      <trkpt lat="49.85451" lon="0.83466">
        <ele>63.7</ele>
        <time>2020-06-18T10:12:02Z</time>
      </trkpt>
      <trkpt lat="49.85456" lon="0.83472">
        <ele>63.6</ele>
        <time>2020-06-18T10:12:03Z</time>
      </trkpt>
      <trkpt lat="49.85462" lon="0.83478">
        <ele>63.6</ele>
        <time>2020-06-18T10:12:04Z</time>
      </trkpt>
      <trkpt lat="49.85468" lon="0.83484">
        <ele>63.5</ele>
        <time>2020-06-18T10:12:05Z</time>
      </trkpt>
      <trkpt lat="49.85474" lon="0.8349">
        <ele>63.5</ele>
        <time>2020-06-18T10:12:06Z</time>
      </trkpt>
      <trkpt lat="49.85479" lon="0.83495">
        <ele>63.4</ele>
        <time>2020-06-18T10:12:07Z</time>
      </trkpt>
      <trkpt lat="49.85484" lon="0.835">
        <ele>63.4</ele>
        <time>2020-06-18T10:12:08Z</time>
      </trkpt>
      <trkpt lat="49.85489" lon="0.83506">
        <ele>63.3</ele>
        <time>2020-06-18T10:12:09Z</time>
      </trkpt>
      <trkpt lat="49.85494" lon="0.83512">
        <ele>63.3</ele>
        <time>2020-06-18T10:12:10Z</time>
      </trkpt>
      <trkpt lat="49.85499" lon="0.83517">
        <ele>63.3</ele>
        <time>2020-06-18T10:12:11Z</time>
      </trkpt>
      <trkpt lat="49.85503" lon="0.83523">
        <ele>63.4</ele>
        <time>2020-06-18T10:12:12Z</time>
      </trkpt>
      <trkpt lat="49.85508" lon="0.83529">
        <ele>63.4</ele>
        <time>2020-06-18T10:12:13Z</time>
      </trkpt>
      <trkpt lat="49.85512" lon="0.83534">
        <ele>63.4</ele>
        <time>2020-06-18T10:12:14Z</time>
      </trkpt>
      <trkpt lat="49.85517" lon="0.83539">
        <ele>63.4</ele>
        <time>2020-06-18T10:12:15Z</time>
      </trkpt>
      <trkpt lat="49.85521" lon="0.83545">
        <ele>63.3</ele>
        <time>2020-06-18T10:12:16Z</time>
      </trkpt>
      <trkpt lat="49.85526" lon="0.8355">
        <ele>63.2</ele>
        <time>2020-06-18T10:12:17Z</time>
      </trkpt>
      <trkpt lat="49.8553" lon="0.83555">
        <ele>63.2</ele>
        <time>2020-06-18T10:12:18Z</time>
      </trkpt>
      <trkpt lat="49.85536" lon="0.83561">
        <ele>63.1</ele>
        <time>2020-06-18T10:12:19Z</time>
      </trkpt>
      <trkpt lat="49.85541" lon="0.83566">
        <ele>63.1</ele>
        <time>2020-06-18T10:12:20Z</time>
      </trkpt>
      <trkpt lat="49.85547" lon="0.83571">
        <ele>63.1</ele>
        <time>2020-06-18T10:12:21Z</time>
      </trkpt>
      <trkpt lat="49.85552" lon="0.83577">
        <ele>63.4</ele>
        <time>2020-06-18T10:12:22Z</time>
      </trkpt>
      <trkpt lat="49.85558" lon="0.83584">
        <ele>63.4</ele>
        <time>2020-06-18T10:12:23Z</time>
      </trkpt>
      <trkpt lat="49.85563" lon="0.83589">
        <ele>63.4</ele>
        <time>2020-06-18T10:12:24Z</time>
      </trkpt>
      <trkpt lat="49.85569" lon="0.83595">
        <ele>63.4</ele>
        <time>2020-06-18T10:12:25Z</time>
      </trkpt>
      <trkpt lat="49.85574" lon="0.83601">
        <ele>63.4</ele>
        <time>2020-06-18T10:12:26Z</time>
      </trkpt>
      <trkpt lat="49.85579" lon="0.83606">
        <ele>63.3</ele>
        <time>2020-06-18T10:12:27Z</time>
      </trkpt>
      <trkpt lat="49.85584" lon="0.83612">
        <ele>63.2</ele>
        <time>2020-06-18T10:12:28Z</time>
      </trkpt>
      <trkpt lat="49.85588" lon="0.83616">
        <ele>63</ele>
        <time>2020-06-18T10:12:29Z</time>
      </trkpt>
      <trkpt lat="49.85593" lon="0.83621">
        <ele>62.9</ele>
        <time>2020-06-18T10:12:30Z</time>
      </trkpt>
      <trkpt lat="49.85598" lon="0.83627">
        <ele>62.8</ele>
        <time>2020-06-18T10:12:31Z</time>
      </trkpt>
      <trkpt lat="49.85603" lon="0.83632">
        <ele>62.8</ele>
        <time>2020-06-18T10:12:32Z</time>
      </trkpt>
      <trkpt lat="49.85608" lon="0.83637">
        <ele>62.8</ele>
        <time>2020-06-18T10:12:33Z</time>
      </trkpt>
      <trkpt lat="49.85612" lon="0.83643">
        <ele>62.8</ele>
        <time>2020-06-18T10:12:34Z</time>
      </trkpt>
      <trkpt lat="49.85618" lon="0.83649">
        <ele>62.8</ele>
        <time>2020-06-18T10:12:35Z</time>
      </trkpt>
      <trkpt lat="49.85623" lon="0.83655">
        <ele>62.7</ele>
        <time>2020-06-18T10:12:36Z</time>
      </trkpt>
      <trkpt lat="49.85629" lon="0.83661">
        <ele>62.7</ele>
        <time>2020-06-18T10:12:37Z</time>
      </trkpt>
      <trkpt lat="49.85634" lon="0.83666">
        <ele>62.7</ele>
        <time>2020-06-18T10:12:38Z</time>
      </trkpt>
      <trkpt lat="49.85639" lon="0.83672">
        <ele>62.6</ele>
        <time>2020-06-18T10:12:39Z</time>
      </trkpt>
      <trkpt lat="49.85645" lon="0.83679">
        <ele>62.5</ele>
        <time>2020-06-18T10:12:40Z</time>
      </trkpt>
      <trkpt lat="49.8565" lon="0.83686">
        <ele>62.4</ele>
        <time>2020-06-18T10:12:41Z</time>
      </trkpt>
      <trkpt lat="49.85655" lon="0.83693">
        <ele>62.3</ele>
        <time>2020-06-18T10:12:42Z</time>
      </trkpt>
      <trkpt lat="49.85659" lon="0.83699">
        <ele>62.2</ele>
        <time>2020-06-18T10:12:43Z</time>
      </trkpt>
      <trkpt lat="49.85664" lon="0.83705">
        <ele>62.1</ele>
        <time>2020-06-18T10:12:44Z</time>
      </trkpt>
      <trkpt lat="49.85669" lon="0.8371">
        <ele>62.1</ele>
        <time>2020-06-18T10:12:45Z</time>
      </trkpt>
      <trkpt lat="49.85673" lon="0.83715">
        <ele>62</ele>
        <time>2020-06-18T10:12:46Z</time>
      </trkpt>
      <trkpt lat="49.85678" lon="0.83721">
        <ele>61.9</ele>
        <time>2020-06-18T10:12:47Z</time>
      </trkpt>
      <trkpt lat="49.85682" lon="0.83728">
        <ele>61.9</ele>
        <time>2020-06-18T10:12:48Z</time>
      </trkpt>
      <trkpt lat="49.85686" lon="0.83735">
        <ele>61.8</ele>
        <time>2020-06-18T10:12:49Z</time>
      </trkpt>
      <trkpt lat="49.8569" lon="0.83742">
        <ele>61.8</ele>
        <time>2020-06-18T10:12:50Z</time>
      </trkpt>
      <trkpt lat="49.85695" lon="0.83748">
        <ele>61.7</ele>
        <time>2020-06-18T10:12:51Z</time>
      </trkpt>
      <trkpt lat="49.857" lon="0.83756">
        <ele>61.7</ele>
        <time>2020-06-18T10:12:52Z</time>
      </trkpt>
      <trkpt lat="49.85704" lon="0.83762">
        <ele>61.6</ele>
        <time>2020-06-18T10:12:53Z</time>
      </trkpt>
      <trkpt lat="49.85707" lon="0.83768">
        <ele>61.6</ele>
        <time>2020-06-18T10:12:54Z</time>
      </trkpt>
      <trkpt lat="49.8571" lon="0.83774">
        <ele>61.6</ele>
        <time>2020-06-18T10:12:55Z</time>
      </trkpt>
      <trkpt lat="49.85713" lon="0.83781">
        <ele>61.5</ele>
        <time>2020-06-18T10:12:56Z</time>
      </trkpt>
      <trkpt lat="49.85717" lon="0.83789">
        <ele>61.5</ele>
        <time>2020-06-18T10:12:57Z</time>
      </trkpt>
      <trkpt lat="49.8572" lon="0.83796">
        <ele>61.4</ele>
        <time>2020-06-18T10:12:58Z</time>
      </trkpt>
      <trkpt lat="49.85725" lon="0.83804">
        <ele>61.3</ele>
        <time>2020-06-18T10:12:59Z</time>
      </trkpt>
      <trkpt lat="49.85729" lon="0.83812">
        <ele>61.2</ele>
        <time>2020-06-18T10:13:00Z</time>
      </trkpt>
      <trkpt lat="49.85733" lon="0.83819">
        <ele>61.2</ele>
        <time>2020-06-18T10:13:01Z</time>
      </trkpt>
      <trkpt lat="49.85738" lon="0.83827">
        <ele>61.1</ele>
        <time>2020-06-18T10:13:02Z</time>
      </trkpt>
      <trkpt lat="49.85742" lon="0.83834">
        <ele>61.1</ele>
        <time>2020-06-18T10:13:03Z</time>
      </trkpt>
      <trkpt lat="49.85746" lon="0.83842">
        <ele>61.1</ele>
        <time>2020-06-18T10:13:04Z</time>
      </trkpt>
      <trkpt lat="49.85749" lon="0.83848">
        <ele>61</ele>
        <time>2020-06-18T10:13:05Z</time>
      </trkpt>
      <trkpt lat="49.85753" lon="0.83855">
        <ele>61</ele>
        <time>2020-06-18T10:13:06Z</time>
      </trkpt>
      <trkpt lat="49.85757" lon="0.83863">
        <ele>60.9</ele>
        <time>2020-06-18T10:13:07Z</time>
      </trkpt>
      <trkpt lat="49.85761" lon="0.83869">
        <ele>60.8</ele>
        <time>2020-06-18T10:13:08Z</time>
      </trkpt>
      <trkpt lat="49.85765" lon="0.83876">
        <ele>60.6</ele>
        <time>2020-06-18T10:13:09Z</time>
      </trkpt>
      <trkpt lat="49.85768" lon="0.83881">
        <ele>60.5</ele>
        <time>2020-06-18T10:13:10Z</time>
      </trkpt>
      <trkpt lat="49.85772" lon="0.83887">
        <ele>60.4</ele>
        <time>2020-06-18T10:13:11Z</time>
      </trkpt>
      <trkpt lat="49.85775" lon="0.83893">
        <ele>60.3</ele>
        <time>2020-06-18T10:13:12Z</time>
      </trkpt>
      <trkpt lat="49.85779" lon="0.83899">
        <ele>60.2</ele>
        <time>2020-06-18T10:13:13Z</time>
      </trkpt>
      <trkpt lat="49.85783" lon="0.83906">
        <ele>60.2</ele>
        <time>2020-06-18T10:13:14Z</time>
      </trkpt>
      <trkpt lat="49.85786" lon="0.83912">
        <ele>60.1</ele>
        <time>2020-06-18T10:13:15Z</time>
      </trkpt>
      <trkpt lat="49.8579" lon="0.8392">
        <ele>60.1</ele>
        <time>2020-06-18T10:13:16Z</time>
      </trkpt>
      <trkpt lat="49.85794" lon="0.83927">
        <ele>60</ele>
        <time>2020-06-18T10:13:17Z</time>
      </trkpt>
      <trkpt lat="49.85798" lon="0.83933">
        <ele>60</ele>
        <time>2020-06-18T10:13:18Z</time>
      </trkpt>
      <trkpt lat="49.85802" lon="0.8394">
        <ele>59.9</ele>
        <time>2020-06-18T10:13:19Z</time>
      </trkpt>
      <trkpt lat="49.85806" lon="0.83947">
        <ele>59.9</ele>
        <time>2020-06-18T10:13:20Z</time>
      </trkpt>
      <trkpt lat="49.8581" lon="0.83953">
        <ele>59.9</ele>
        <time>2020-06-18T10:13:21Z</time>
      </trkpt>
      <trkpt lat="49.85814" lon="0.83959">
        <ele>59.8</ele>
        <time>2020-06-18T10:13:22Z</time>
      </trkpt>
      <trkpt lat="49.85818" lon="0.83964">
        <ele>59.8</ele>
        <time>2020-06-18T10:13:23Z</time>
      </trkpt>
      <trkpt lat="49.85822" lon="0.8397">
        <ele>59.7</ele>
        <time>2020-06-18T10:13:24Z</time>
      </trkpt>
      <trkpt lat="49.85826" lon="0.83976">
        <ele>59.7</ele>
        <time>2020-06-18T10:13:25Z</time>
      </trkpt>
      <trkpt lat="49.85829" lon="0.83981">
        <ele>59.6</ele>
        <time>2020-06-18T10:13:26Z</time>
      </trkpt>
      <trkpt lat="49.85833" lon="0.83987">
        <ele>59.6</ele>
        <time>2020-06-18T10:13:27Z</time>
      </trkpt>
      <trkpt lat="49.85838" lon="0.83995">
        <ele>59.5</ele>
        <time>2020-06-18T10:13:28Z</time>
      </trkpt>
      <trkpt lat="49.85842" lon="0.84002">
        <ele>59.5</ele>
        <time>2020-06-18T10:13:29Z</time>
      </trkpt>
      <trkpt lat="49.85847" lon="0.84008">
        <ele>59.4</ele>
        <time>2020-06-18T10:13:30Z</time>
      </trkpt>
      <trkpt lat="49.8585" lon="0.84014">
        <ele>59.3</ele>
        <time>2020-06-18T10:13:31Z</time>
      </trkpt>
      <trkpt lat="49.85855" lon="0.84021">
        <ele>59.2</ele>
        <time>2020-06-18T10:13:32Z</time>
      </trkpt>
      <trkpt lat="49.8586" lon="0.84028">
        <ele>59.2</ele>
        <time>2020-06-18T10:13:33Z</time>
      </trkpt>
      <trkpt lat="49.85864" lon="0.84035">
        <ele>59.1</ele>
        <time>2020-06-18T10:13:34Z</time>
      </trkpt>
      <trkpt lat="49.85869" lon="0.84042">
        <ele>59.1</ele>
        <time>2020-06-18T10:13:35Z</time>
      </trkpt>
      <trkpt lat="49.85873" lon="0.84047">
        <ele>59</ele>
        <time>2020-06-18T10:13:36Z</time>
      </trkpt>
      <trkpt lat="49.85877" lon="0.84054">
        <ele>59</ele>
        <time>2020-06-18T10:13:37Z</time>
      </trkpt>
      <trkpt lat="49.85883" lon="0.84061">
        <ele>58.8</ele>
        <time>2020-06-18T10:13:38Z</time>
      </trkpt>
      <trkpt lat="49.85887" lon="0.84068">
        <ele>58.7</ele>
        <time>2020-06-18T10:13:39Z</time>
      </trkpt>
      <trkpt lat="49.85892" lon="0.84075">
        <ele>58.5</ele>
        <time>2020-06-18T10:13:40Z</time>
      </trkpt>
      <trkpt lat="49.85896" lon="0.84082">
        <ele>58.4</ele>
        <time>2020-06-18T10:13:41Z</time>
      </trkpt>
      <trkpt lat="49.85901" lon="0.84087">
        <ele>58.3</ele>
        <time>2020-06-18T10:13:42Z</time>
      </trkpt>
      <trkpt lat="49.85905" lon="0.84093">
        <ele>58.2</ele>
        <time>2020-06-18T10:13:43Z</time>
      </trkpt>
      <trkpt lat="49.8591" lon="0.841">
        <ele>58.2</ele>
        <time>2020-06-18T10:13:44Z</time>
      </trkpt>
      <trkpt lat="49.85914" lon="0.84106">
        <ele>58.1</ele>
        <time>2020-06-18T10:13:45Z</time>
      </trkpt>
      <trkpt lat="49.85919" lon="0.84112">
        <ele>58.1</ele>
        <time>2020-06-18T10:13:46Z</time>
      </trkpt>
      <trkpt lat="49.85923" lon="0.84117">
        <ele>58.1</ele>
        <time>2020-06-18T10:13:47Z</time>
      </trkpt>
      <trkpt lat="49.85926" lon="0.84123">
        <ele>58.1</ele>
        <time>2020-06-18T10:13:48Z</time>
      </trkpt>
      <trkpt lat="49.8593" lon="0.8413">
        <ele>58.1</ele>
        <time>2020-06-18T10:13:49Z</time>
      </trkpt>
      <trkpt lat="49.85934" lon="0.84136">
        <ele>58.1</ele>
        <time>2020-06-18T10:13:50Z</time>
      </trkpt>
      <trkpt lat="49.85939" lon="0.84143">
        <ele>58</ele>
        <time>2020-06-18T10:13:51Z</time>
      </trkpt>
      <trkpt lat="49.85943" lon="0.84152">
        <ele>58</ele>
        <time>2020-06-18T10:13:52Z</time>
      </trkpt>
      <trkpt lat="49.85948" lon="0.84158">
        <ele>58</ele>
        <time>2020-06-18T10:13:53Z</time>
      </trkpt>
      <trkpt lat="49.85952" lon="0.84164">
        <ele>57.9</ele>
        <time>2020-06-18T10:13:54Z</time>
      </trkpt>
      <trkpt lat="49.85957" lon="0.84172">
        <ele>57.8</ele>
        <time>2020-06-18T10:13:55Z</time>
      </trkpt>
      <trkpt lat="49.85963" lon="0.84179">
        <ele>57.8</ele>
        <time>2020-06-18T10:13:56Z</time>
      </trkpt>
      <trkpt lat="49.85968" lon="0.84187">
        <ele>57.7</ele>
        <time>2020-06-18T10:13:57Z</time>
      </trkpt>
      <trkpt lat="49.85973" lon="0.84194">
        <ele>57.7</ele>
        <time>2020-06-18T10:13:58Z</time>
      </trkpt>
      <trkpt lat="49.85977" lon="0.84202">
        <ele>57.7</ele>
        <time>2020-06-18T10:13:59Z</time>
      </trkpt>
      <trkpt lat="49.85982" lon="0.84209">
        <ele>57.7</ele>
        <time>2020-06-18T10:14:00Z</time>
      </trkpt>
      <trkpt lat="49.85986" lon="0.84217">
        <ele>57.6</ele>
        <time>2020-06-18T10:14:01Z</time>
      </trkpt>
      <trkpt lat="49.85991" lon="0.84226">
        <ele>57.6</ele>
        <time>2020-06-18T10:14:02Z</time>
      </trkpt>
      <trkpt lat="49.85995" lon="0.84236">
        <ele>57.5</ele>
        <time>2020-06-18T10:14:03Z</time>
      </trkpt>
      <trkpt lat="49.85998" lon="0.84245">
        <ele>57.4</ele>
        <time>2020-06-18T10:14:04Z</time>
      </trkpt>
      <trkpt lat="49.86002" lon="0.84254">
        <ele>57.4</ele>
        <time>2020-06-18T10:14:05Z</time>
      </trkpt>
      <trkpt lat="49.86006" lon="0.84262">
        <ele>57.3</ele>
        <time>2020-06-18T10:14:06Z</time>
      </trkpt>
      <trkpt lat="49.8601" lon="0.84272">
        <ele>57.3</ele>
        <time>2020-06-18T10:14:07Z</time>
      </trkpt>
      <trkpt lat="49.86014" lon="0.84281">
        <ele>57.2</ele>
        <time>2020-06-18T10:14:08Z</time>
      </trkpt>
      <trkpt lat="49.86018" lon="0.8429">
        <ele>57.2</ele>
        <time>2020-06-18T10:14:09Z</time>
      </trkpt>
      <trkpt lat="49.86022" lon="0.84299">
        <ele>57.1</ele>
        <time>2020-06-18T10:14:10Z</time>
      </trkpt>
      <trkpt lat="49.86026" lon="0.84308">
        <ele>57.1</ele>
        <time>2020-06-18T10:14:11Z</time>
      </trkpt>
      <trkpt lat="49.86029" lon="0.84317">
        <ele>57</ele>
        <time>2020-06-18T10:14:12Z</time>
      </trkpt>
      <trkpt lat="49.86032" lon="0.84326">
        <ele>56.9</ele>
        <time>2020-06-18T10:14:13Z</time>
      </trkpt>
      <trkpt lat="49.86036" lon="0.84335">
        <ele>56.8</ele>
        <time>2020-06-18T10:14:14Z</time>
      </trkpt>
      <trkpt lat="49.8604" lon="0.84345">
        <ele>56.7</ele>
        <time>2020-06-18T10:14:15Z</time>
      </trkpt>
      <trkpt lat="49.86044" lon="0.84354">
        <ele>56.7</ele>
        <time>2020-06-18T10:14:16Z</time>
      </trkpt>
      <trkpt lat="49.86047" lon="0.84364">
        <ele>56.6</ele>
        <time>2020-06-18T10:14:17Z</time>
      </trkpt>
      <trkpt lat="49.86051" lon="0.84373">
        <ele>56.6</ele>
        <time>2020-06-18T10:14:18Z</time>
      </trkpt>
      <trkpt lat="49.86055" lon="0.84383">
        <ele>56.5</ele>
        <time>2020-06-18T10:14:19Z</time>
      </trkpt>
      <trkpt lat="49.8606" lon="0.84392">
        <ele>56.4</ele>
        <time>2020-06-18T10:14:20Z</time>
      </trkpt>
      <trkpt lat="49.86064" lon="0.84401">
        <ele>56.3</ele>
        <time>2020-06-18T10:14:21Z</time>
      </trkpt>
      <trkpt lat="49.86068" lon="0.8441">
        <ele>56.2</ele>
        <time>2020-06-18T10:14:22Z</time>
      </trkpt>
      <trkpt lat="49.86072" lon="0.84418">
        <ele>56.1</ele>
        <time>2020-06-18T10:14:23Z</time>
      </trkpt>
      <trkpt lat="49.86076" lon="0.84427">
        <ele>56</ele>
        <time>2020-06-18T10:14:24Z</time>
      </trkpt>
      <trkpt lat="49.8608" lon="0.84435">
        <ele>55.8</ele>
        <time>2020-06-18T10:14:25Z</time>
      </trkpt>
      <trkpt lat="49.86083" lon="0.84444">
        <ele>55.7</ele>
        <time>2020-06-18T10:14:26Z</time>
      </trkpt>
      <trkpt lat="49.86087" lon="0.84452">
        <ele>55.6</ele>
        <time>2020-06-18T10:14:27Z</time>
      </trkpt>
      <trkpt lat="49.8609" lon="0.8446">
        <ele>55.4</ele>
        <time>2020-06-18T10:14:28Z</time>
      </trkpt>
      <trkpt lat="49.86094" lon="0.84468">
        <ele>55.3</ele>
        <time>2020-06-18T10:14:29Z</time>
      </trkpt>
      <trkpt lat="49.86097" lon="0.84476">
        <ele>55.3</ele>
        <time>2020-06-18T10:14:30Z</time>
      </trkpt>
      <trkpt lat="49.86099" lon="0.84485">
        <ele>55.3</ele>
        <time>2020-06-18T10:14:31Z</time>
      </trkpt>
      <trkpt lat="49.86103" lon="0.84492">
        <ele>55.2</ele>
        <time>2020-06-18T10:14:32Z</time>
      </trkpt>
      <trkpt lat="49.86106" lon="0.84498">
        <ele>55.2</ele>
        <time>2020-06-18T10:14:33Z</time>
      </trkpt>
      <trkpt lat="49.86109" lon="0.84506">
        <ele>55.1</ele>
        <time>2020-06-18T10:14:34Z</time>
      </trkpt>
      <trkpt lat="49.86112" lon="0.84513">
        <ele>55</ele>
        <time>2020-06-18T10:14:35Z</time>
      </trkpt>
      <trkpt lat="49.86116" lon="0.8452">
        <ele>54.9</ele>
        <time>2020-06-18T10:14:36Z</time>
      </trkpt>
      <trkpt lat="49.86118" lon="0.84529">
        <ele>54.8</ele>
        <time>2020-06-18T10:14:37Z</time>
      </trkpt>
      <trkpt lat="49.86122" lon="0.84536">
        <ele>54.6</ele>
        <time>2020-06-18T10:14:38Z</time>
      </trkpt>
      <trkpt lat="49.86125" lon="0.84544">
        <ele>54.4</ele>
        <time>2020-06-18T10:14:39Z</time>
      </trkpt>
      <trkpt lat="49.86128" lon="0.84553">
        <ele>54.3</ele>
        <time>2020-06-18T10:14:40Z</time>
      </trkpt>
      <trkpt lat="49.86132" lon="0.8456">
        <ele>54</ele>
        <time>2020-06-18T10:14:41Z</time>
      </trkpt>
      <trkpt lat="49.86135" lon="0.84569">
        <ele>53.8</ele>
        <time>2020-06-18T10:14:42Z</time>
      </trkpt>
      <trkpt lat="49.86139" lon="0.84576">
        <ele>53.6</ele>
        <time>2020-06-18T10:14:43Z</time>
      </trkpt>
      <trkpt lat="49.86143" lon="0.84581">
        <ele>53.4</ele>
        <time>2020-06-18T10:14:44Z</time>
      </trkpt>
      <trkpt lat="49.86147" lon="0.84588">
        <ele>53.2</ele>
        <time>2020-06-18T10:14:45Z</time>
      </trkpt>
      <trkpt lat="49.8615" lon="0.84596">
        <ele>53</ele>
        <time>2020-06-18T10:14:46Z</time>
      </trkpt>
      <trkpt lat="49.86155" lon="0.84605">
        <ele>52.8</ele>
        <time>2020-06-18T10:14:47Z</time>
      </trkpt>
      <trkpt lat="49.86159" lon="0.84614">
        <ele>52.7</ele>
        <time>2020-06-18T10:14:48Z</time>
      </trkpt>
      <trkpt lat="49.86162" lon="0.84623">
        <ele>52.7</ele>
        <time>2020-06-18T10:14:49Z</time>
      </trkpt>
      <trkpt lat="49.86166" lon="0.84632">
        <ele>52.6</ele>
        <time>2020-06-18T10:14:50Z</time>
      </trkpt>
      <trkpt lat="49.86168" lon="0.84641">
        <ele>52.5</ele>
        <time>2020-06-18T10:14:51Z</time>
      </trkpt>
      <trkpt lat="49.86172" lon="0.84648">
        <ele>52.5</ele>
        <time>2020-06-18T10:14:52Z</time>
      </trkpt>
      <trkpt lat="49.86175" lon="0.84655">
        <ele>52.4</ele>
        <time>2020-06-18T10:14:53Z</time>
      </trkpt>
      <trkpt lat="49.86178" lon="0.84662">
        <ele>52.3</ele>
        <time>2020-06-18T10:14:54Z</time>
      </trkpt>
      <trkpt lat="49.86182" lon="0.84669">
        <ele>52.2</ele>
        <time>2020-06-18T10:14:55Z</time>
      </trkpt>
      <trkpt lat="49.86185" lon="0.84676">
        <ele>52.1</ele>
        <time>2020-06-18T10:14:56Z</time>
      </trkpt>
      <trkpt lat="49.86188" lon="0.84684">
        <ele>52</ele>
        <time>2020-06-18T10:14:57Z</time>
      </trkpt>
      <trkpt lat="49.86191" lon="0.84691">
        <ele>51.9</ele>
        <time>2020-06-18T10:14:58Z</time>
      </trkpt>
      <trkpt lat="49.86195" lon="0.84697">
        <ele>51.8</ele>
        <time>2020-06-18T10:14:59Z</time>
      </trkpt>
      <trkpt lat="49.86199" lon="0.84703">
        <ele>51.8</ele>
        <time>2020-06-18T10:15:00Z</time>
      </trkpt>
      <trkpt lat="49.86203" lon="0.8471">
        <ele>51.7</ele>
        <time>2020-06-18T10:15:01Z</time>
      </trkpt>
      <trkpt lat="49.86208" lon="0.84717">
        <ele>51.6</ele>
        <time>2020-06-18T10:15:02Z</time>
      </trkpt>
      <trkpt lat="49.86212" lon="0.84723">
        <ele>51.5</ele>
        <time>2020-06-18T10:15:03Z</time>
      </trkpt>
      <trkpt lat="49.86216" lon="0.8473">
        <ele>51.5</ele>
        <time>2020-06-18T10:15:04Z</time>
      </trkpt>
      <trkpt lat="49.86218" lon="0.84739">
        <ele>51.4</ele>
        <time>2020-06-18T10:15:05Z</time>
      </trkpt>
      <trkpt lat="49.86221" lon="0.84747">
        <ele>51.4</ele>
        <time>2020-06-18T10:15:06Z</time>
      </trkpt>
      <trkpt lat="49.86224" lon="0.84754">
        <ele>51.4</ele>
        <time>2020-06-18T10:15:07Z</time>
      </trkpt>
      <trkpt lat="49.86228" lon="0.84761">
        <ele>51.5</ele>
        <time>2020-06-18T10:15:08Z</time>
      </trkpt>
      <trkpt lat="49.8623" lon="0.84769">
        <ele>51.5</ele>
        <time>2020-06-18T10:15:09Z</time>
      </trkpt>
      <trkpt lat="49.86233" lon="0.84777">
        <ele>51.5</ele>
        <time>2020-06-18T10:15:10Z</time>
      </trkpt>
      <trkpt lat="49.86236" lon="0.84784">
        <ele>51.6</ele>
        <time>2020-06-18T10:15:11Z</time>
      </trkpt>
      <trkpt lat="49.86238" lon="0.84791">
        <ele>51.6</ele>
        <time>2020-06-18T10:15:12Z</time>
      </trkpt>
      <trkpt lat="49.8624" lon="0.848">
        <ele>51.6</ele>
        <time>2020-06-18T10:15:13Z</time>
      </trkpt>
      <trkpt lat="49.86244" lon="0.84808">
        <ele>51.6</ele>
        <time>2020-06-18T10:15:14Z</time>
      </trkpt>
      <trkpt lat="49.86247" lon="0.84815">
        <ele>51.6</ele>
        <time>2020-06-18T10:15:15Z</time>
      </trkpt>
      <trkpt lat="49.86248" lon="0.84822">
        <ele>51.6</ele>
        <time>2020-06-18T10:15:16Z</time>
      </trkpt>
      <trkpt lat="49.8625" lon="0.84829">
        <ele>51.6</ele>
        <time>2020-06-18T10:15:17Z</time>
      </trkpt>
      <trkpt lat="49.8625" lon="0.84837">
        <ele>51.5</ele>
        <time>2020-06-18T10:15:18Z</time>
      </trkpt>
      <trkpt lat="49.86252" lon="0.84847">
        <ele>51.5</ele>
        <time>2020-06-18T10:15:19Z</time>
      </trkpt>
      <trkpt lat="49.86254" lon="0.84857">
        <ele>51.4</ele>
        <time>2020-06-18T10:15:20Z</time>
      </trkpt>
      <trkpt lat="49.86256" lon="0.84866">
        <ele>51.4</ele>
        <time>2020-06-18T10:15:21Z</time>
      </trkpt>
      <trkpt lat="49.86257" lon="0.84874">
        <ele>51.4</ele>
        <time>2020-06-18T10:15:22Z</time>
      </trkpt>
      <trkpt lat="49.86258" lon="0.84882">
        <ele>51.4</ele>
        <time>2020-06-18T10:15:23Z</time>
      </trkpt>
      <trkpt lat="49.86257" lon="0.84892">
        <ele>51.4</ele>
        <time>2020-06-18T10:15:24Z</time>
      </trkpt>
      <trkpt lat="49.86258" lon="0.849">
        <ele>51.5</ele>
        <time>2020-06-18T10:15:25Z</time>
      </trkpt>
      <trkpt lat="49.86258" lon="0.84907">
        <ele>51.5</ele>
        <time>2020-06-18T10:15:26Z</time>
      </trkpt>
      <trkpt lat="49.86258" lon="0.84915">
        <ele>51.6</ele>
        <time>2020-06-18T10:15:27Z</time>
      </trkpt>
      <trkpt lat="49.86257" lon="0.8492">
        <ele>51.6</ele>
        <time>2020-06-18T10:15:28Z</time>
      </trkpt>
      <trkpt lat="49.86259" lon="0.84924">
        <ele>51.6</ele>
        <time>2020-06-18T10:15:29Z</time>
      </trkpt>
      <trkpt lat="49.86262" lon="0.84926">
        <ele>51.6</ele>
        <time>2020-06-18T10:15:30Z</time>
      </trkpt>
      <trkpt lat="49.86266" lon="0.84926">
        <ele>51.5</ele>
        <time>2020-06-18T10:15:31Z</time>
      </trkpt>
      <trkpt lat="49.8627" lon="0.84926">
        <ele>51.5</ele>
        <time>2020-06-18T10:15:32Z</time>
      </trkpt>
      <trkpt lat="49.86274" lon="0.84928">
        <ele>51.5</ele>
        <time>2020-06-18T10:15:33Z</time>
      </trkpt>
      <trkpt lat="49.86278" lon="0.84928">
        <ele>51.4</ele>
        <time>2020-06-18T10:15:34Z</time>
      </trkpt>
      <trkpt lat="49.86283" lon="0.84928">
        <ele>51.3</ele>
        <time>2020-06-18T10:15:35Z</time>
      </trkpt>
      <trkpt lat="49.86287" lon="0.84928">
        <ele>51.2</ele>
        <time>2020-06-18T10:15:36Z</time>
      </trkpt>
      <trkpt lat="49.86292" lon="0.84928">
        <ele>51.1</ele>
        <time>2020-06-18T10:15:37Z</time>
      </trkpt>
      <trkpt lat="49.86297" lon="0.84929">
        <ele>51</ele>
        <time>2020-06-18T10:15:38Z</time>
      </trkpt>
      <trkpt lat="49.86303" lon="0.84929">
        <ele>50.9</ele>
        <time>2020-06-18T10:15:39Z</time>
      </trkpt>
      <trkpt lat="49.86308" lon="0.8493">
        <ele>50.9</ele>
        <time>2020-06-18T10:15:40Z</time>
      </trkpt>
      <trkpt lat="49.86313" lon="0.84931">
        <ele>50.8</ele>
        <time>2020-06-18T10:15:41Z</time>
      </trkpt>
      <trkpt lat="49.86319" lon="0.84932">
        <ele>50.8</ele>
        <time>2020-06-18T10:15:42Z</time>
      </trkpt>
      <trkpt lat="49.86324" lon="0.84934">
        <ele>50.9</ele>
        <time>2020-06-18T10:15:43Z</time>
      </trkpt>
      <trkpt lat="49.86329" lon="0.84933">
        <ele>50.9</ele>
        <time>2020-06-18T10:15:44Z</time>
      </trkpt>
      <trkpt lat="49.86334" lon="0.84932">
        <ele>50.9</ele>
        <time>2020-06-18T10:15:45Z</time>
      </trkpt>
      <trkpt lat="49.86339" lon="0.84932">
        <ele>50.9</ele>
        <time>2020-06-18T10:15:46Z</time>
      </trkpt>
      <trkpt lat="49.86343" lon="0.84931">
        <ele>50.8</ele>
        <time>2020-06-18T10:15:47Z</time>
      </trkpt>
      <trkpt lat="49.86348" lon="0.8493">
        <ele>50.8</ele>
        <time>2020-06-18T10:15:48Z</time>
      </trkpt>
      <trkpt lat="49.86352" lon="0.8493">
        <ele>50.9</ele>
        <time>2020-06-18T10:15:49Z</time>
      </trkpt>
      <trkpt lat="49.86355" lon="0.84929">
        <ele>50.9</ele>
        <time>2020-06-18T10:15:50Z</time>
      </trkpt>
      <trkpt lat="49.86359" lon="0.84929">
        <ele>50.9</ele>
        <time>2020-06-18T10:15:51Z</time>
      </trkpt>
      <trkpt lat="49.86364" lon="0.8493">
        <ele>50.9</ele>
        <time>2020-06-18T10:15:52Z</time>
      </trkpt>
      <trkpt lat="49.86369" lon="0.84931">
        <ele>51</ele>
        <time>2020-06-18T10:15:53Z</time>
      </trkpt>
      <trkpt lat="49.86374" lon="0.84931">
        <ele>51</ele>
        <time>2020-06-18T10:15:54Z</time>
      </trkpt>
      <trkpt lat="49.86378" lon="0.84932">
        <ele>51</ele>
        <time>2020-06-18T10:15:55Z</time>
      </trkpt>
      <trkpt lat="49.86384" lon="0.84931">
        <ele>51</ele>
        <time>2020-06-18T10:15:56Z</time>
      </trkpt>
      <trkpt lat="49.86389" lon="0.84932">
        <ele>51</ele>
        <time>2020-06-18T10:15:57Z</time>
      </trkpt>
      <trkpt lat="49.86394" lon="0.84932">
        <ele>51</ele>
        <time>2020-06-18T10:15:58Z</time>
      </trkpt>
      <trkpt lat="49.86398" lon="0.84933">
        <ele>51</ele>
        <time>2020-06-18T10:15:59Z</time>
      </trkpt>
      <trkpt lat="49.86403" lon="0.84932">
        <ele>50.9</ele>
        <time>2020-06-18T10:16:00Z</time>
      </trkpt>
      <trkpt lat="49.86408" lon="0.84931">
        <ele>50.9</ele>
        <time>2020-06-18T10:16:01Z</time>
      </trkpt>
      <trkpt lat="49.86413" lon="0.84929">
        <ele>50.9</ele>
        <time>2020-06-18T10:16:02Z</time>
      </trkpt>
      <trkpt lat="49.86417" lon="0.84929">
        <ele>50.8</ele>
        <time>2020-06-18T10:16:03Z</time>
      </trkpt>
      <trkpt lat="49.86421" lon="0.8493">
        <ele>50.8</ele>
        <time>2020-06-18T10:16:04Z</time>
      </trkpt>
      <trkpt lat="49.86425" lon="0.84929">
        <ele>50.8</ele>
        <time>2020-06-18T10:16:05Z</time>
      </trkpt>
      <trkpt lat="49.86428" lon="0.84927">
        <ele>50.8</ele>
        <time>2020-06-18T10:16:06Z</time>
      </trkpt>
      <trkpt lat="49.86432" lon="0.84926">
        <ele>50.8</ele>
        <time>2020-06-18T10:16:07Z</time>
      </trkpt>
      <trkpt lat="49.86436" lon="0.84925">
        <ele>50.8</ele>
        <time>2020-06-18T10:16:08Z</time>
      </trkpt>
      <trkpt lat="49.8644" lon="0.84924">
        <ele>50.8</ele>
        <time>2020-06-18T10:16:09Z</time>
      </trkpt>
      <trkpt lat="49.86444" lon="0.84922">
        <ele>50.8</ele>
        <time>2020-06-18T10:16:10Z</time>
      </trkpt>
      <trkpt lat="49.86448" lon="0.84921">
        <ele>50.7</ele>
        <time>2020-06-18T10:16:11Z</time>
      </trkpt>
      <trkpt lat="49.86453" lon="0.84921">
        <ele>50.7</ele>
        <time>2020-06-18T10:16:12Z</time>
      </trkpt>
      <trkpt lat="49.86457" lon="0.84923">
        <ele>50.7</ele>
        <time>2020-06-18T10:16:13Z</time>
      </trkpt>
      <trkpt lat="49.86463" lon="0.84926">
        <ele>50.6</ele>
        <time>2020-06-18T10:16:14Z</time>
      </trkpt>
      <trkpt lat="49.86467" lon="0.84927">
        <ele>50.6</ele>
        <time>2020-06-18T10:16:15Z</time>
      </trkpt>
      <trkpt lat="49.86471" lon="0.84928">
        <ele>50.5</ele>
        <time>2020-06-18T10:16:16Z</time>
      </trkpt>
      <trkpt lat="49.86475" lon="0.84929">
        <ele>50.4</ele>
        <time>2020-06-18T10:16:17Z</time>
      </trkpt>
      <trkpt lat="49.86479" lon="0.84929">
        <ele>50.4</ele>
        <time>2020-06-18T10:16:18Z</time>
      </trkpt>
      <trkpt lat="49.86483" lon="0.84925">
        <ele>50.3</ele>
        <time>2020-06-18T10:16:19Z</time>
      </trkpt>
      <trkpt lat="49.86488" lon="0.84925">
        <ele>50.3</ele>
        <time>2020-06-18T10:16:20Z</time>
      </trkpt>
      <trkpt lat="49.86492" lon="0.84925">
        <ele>50.2</ele>
        <time>2020-06-18T10:16:21Z</time>
      </trkpt>
      <trkpt lat="49.86496" lon="0.84926">
        <ele>50.1</ele>
        <time>2020-06-18T10:16:22Z</time>
      </trkpt>
      <trkpt lat="49.86501" lon="0.84928">
        <ele>50.1</ele>
        <time>2020-06-18T10:16:23Z</time>
      </trkpt>
      <trkpt lat="49.86505" lon="0.8493">
        <ele>50</ele>
        <time>2020-06-18T10:16:24Z</time>
      </trkpt>
      <trkpt lat="49.86509" lon="0.84932">
        <ele>50</ele>
        <time>2020-06-18T10:16:25Z</time>
      </trkpt>
      <trkpt lat="49.86513" lon="0.84932">
        <ele>49.9</ele>
        <time>2020-06-18T10:16:26Z</time>
      </trkpt>
      <trkpt lat="49.86517" lon="0.84933">
        <ele>49.9</ele>
        <time>2020-06-18T10:16:27Z</time>
      </trkpt>
      <trkpt lat="49.8652" lon="0.84935">
        <ele>49.9</ele>
        <time>2020-06-18T10:16:28Z</time>
      </trkpt>
      <trkpt lat="49.86523" lon="0.84938">
        <ele>49.8</ele>
        <time>2020-06-18T10:16:29Z</time>
      </trkpt>
      <trkpt lat="49.86526" lon="0.84942">
        <ele>49.8</ele>
        <time>2020-06-18T10:16:30Z</time>
      </trkpt>
      <trkpt lat="49.86529" lon="0.84946">
        <ele>49.8</ele>
        <time>2020-06-18T10:16:31Z</time>
      </trkpt>
      <trkpt lat="49.8653" lon="0.8495">
        <ele>49.8</ele>
        <time>2020-06-18T10:16:32Z</time>
      </trkpt>
      <trkpt lat="49.86533" lon="0.84953">
        <ele>49.9</ele>
        <time>2020-06-18T10:16:33Z</time>
      </trkpt>
      <trkpt lat="49.86534" lon="0.84954">
        <ele>49.9</ele>
        <time>2020-06-18T10:16:34Z</time>
      </trkpt>
      <trkpt lat="49.86535" lon="0.84956">
        <ele>49.9</ele>
        <time>2020-06-18T10:16:35Z</time>
      </trkpt>
      <trkpt lat="49.86536" lon="0.84956">
        <ele>49.9</ele>
        <time>2020-06-18T10:16:36Z</time>
      </trkpt>
      <trkpt lat="49.86536" lon="0.84957">
        <ele>49.9</ele>
        <time>2020-06-18T10:16:37Z</time>
      </trkpt>
      <trkpt lat="49.86537" lon="0.84957">
        <ele>49.9</ele>
        <time>2020-06-18T10:16:38Z</time>
      </trkpt>
      <trkpt lat="49.86539" lon="0.84961">
        <ele>49.9</ele>
        <time>2020-06-18T10:16:39Z</time>
      </trkpt>
      <trkpt lat="49.8654" lon="0.84963">
        <ele>49.1</ele>
        <time>2020-06-18T10:16:40Z</time>
      </trkpt>
      <trkpt lat="49.86542" lon="0.84966">
        <ele>49</ele>
        <time>2020-06-18T10:16:41Z</time>
      </trkpt>
      <trkpt lat="49.86544" lon="0.8497">
        <ele>49</ele>
        <time>2020-06-18T10:16:42Z</time>
      </trkpt>
      <trkpt lat="49.86545" lon="0.84975">
        <ele>48.9</ele>
        <time>2020-06-18T10:16:43Z</time>
      </trkpt>
      <trkpt lat="49.86546" lon="0.84979">
        <ele>48.8</ele>
        <time>2020-06-18T10:16:44Z</time>
      </trkpt>
      <trkpt lat="49.86548" lon="0.84985">
        <ele>48.8</ele>
        <time>2020-06-18T10:16:45Z</time>
      </trkpt>
      <trkpt lat="49.86549" lon="0.8499">
        <ele>48.7</ele>
        <time>2020-06-18T10:16:46Z</time>
      </trkpt>
      <trkpt lat="49.86551" lon="0.84996">
        <ele>48.6</ele>
        <time>2020-06-18T10:16:47Z</time>
      </trkpt>
      <trkpt lat="49.86551" lon="0.85002">
        <ele>48.5</ele>
        <time>2020-06-18T10:16:48Z</time>
      </trkpt>
      <trkpt lat="49.86551" lon="0.85009">
        <ele>48.5</ele>
        <time>2020-06-18T10:16:49Z</time>
      </trkpt>
      <trkpt lat="49.86551" lon="0.85016">
        <ele>48.4</ele>
        <time>2020-06-18T10:16:50Z</time>
      </trkpt>
      <trkpt lat="49.86552" lon="0.85022">
        <ele>48.3</ele>
        <time>2020-06-18T10:16:51Z</time>
      </trkpt>
      <trkpt lat="49.86552" lon="0.85029">
        <ele>48.3</ele>
        <time>2020-06-18T10:16:52Z</time>
      </trkpt>
      <trkpt lat="49.86555" lon="0.85035">
        <ele>48.3</ele>
        <time>2020-06-18T10:16:53Z</time>
      </trkpt>
      <trkpt lat="49.86557" lon="0.85042">
        <ele>48.3</ele>
        <time>2020-06-18T10:16:54Z</time>
      </trkpt>
      <trkpt lat="49.86557" lon="0.85048">
        <ele>48.3</ele>
        <time>2020-06-18T10:16:55Z</time>
      </trkpt>
      <trkpt lat="49.86558" lon="0.85055">
        <ele>48.3</ele>
        <time>2020-06-18T10:16:56Z</time>
      </trkpt>
      <trkpt lat="49.86558" lon="0.85062">
        <ele>48.3</ele>
        <time>2020-06-18T10:16:57Z</time>
      </trkpt>
      <trkpt lat="49.86559" lon="0.85069">
        <ele>48.2</ele>
        <time>2020-06-18T10:16:58Z</time>
      </trkpt>
      <trkpt lat="49.8656" lon="0.85075">
        <ele>48.2</ele>
        <time>2020-06-18T10:16:59Z</time>
      </trkpt>
      <trkpt lat="49.8656" lon="0.85081">
        <ele>48.2</ele>
        <time>2020-06-18T10:17:00Z</time>
      </trkpt>
      <trkpt lat="49.8656" lon="0.85088">
        <ele>48.2</ele>
        <time>2020-06-18T10:17:01Z</time>
      </trkpt>
      <trkpt lat="49.8656" lon="0.85095">
        <ele>48.2</ele>
        <time>2020-06-18T10:17:02Z</time>
      </trkpt>
      <trkpt lat="49.8656" lon="0.85101">
        <ele>48.2</ele>
        <time>2020-06-18T10:17:03Z</time>
      </trkpt>
      <trkpt lat="49.8656" lon="0.85109">
        <ele>48.3</ele>
        <time>2020-06-18T10:17:04Z</time>
      </trkpt>
      <trkpt lat="49.86558" lon="0.85117">
        <ele>48.3</ele>
        <time>2020-06-18T10:17:05Z</time>
      </trkpt>
      <trkpt lat="49.86557" lon="0.85124">
        <ele>48.4</ele>
        <time>2020-06-18T10:17:06Z</time>
      </trkpt>
      <trkpt lat="49.86555" lon="0.85131">
        <ele>48.4</ele>
        <time>2020-06-18T10:17:07Z</time>
      </trkpt>
      <trkpt lat="49.86554" lon="0.85139">
        <ele>48.4</ele>
        <time>2020-06-18T10:17:08Z</time>
      </trkpt>
      <trkpt lat="49.86554" lon="0.85148">
        <ele>48.5</ele>
        <time>2020-06-18T10:17:09Z</time>
      </trkpt>
      <trkpt lat="49.86554" lon="0.85157">
        <ele>48.7</ele>
        <time>2020-06-18T10:17:10Z</time>
      </trkpt>
      <trkpt lat="49.86556" lon="0.85166">
        <ele>49.1</ele>
        <time>2020-06-18T10:17:11Z</time>
      </trkpt>
      <trkpt lat="49.86558" lon="0.85175">
        <ele>49.5</ele>
        <time>2020-06-18T10:17:12Z</time>
      </trkpt>
      <trkpt lat="49.86557" lon="0.85183">
        <ele>49.7</ele>
        <time>2020-06-18T10:17:13Z</time>
      </trkpt>
      <trkpt lat="49.86558" lon="0.85192">
        <ele>49.7</ele>
        <time>2020-06-18T10:17:14Z</time>
      </trkpt>
      <trkpt lat="49.86557" lon="0.85201">
        <ele>49.8</ele>
        <time>2020-06-18T10:17:15Z</time>
      </trkpt>
      <trkpt lat="49.86558" lon="0.8521">
        <ele>49.8</ele>
        <time>2020-06-18T10:17:16Z</time>
      </trkpt>
      <trkpt lat="49.86558" lon="0.85218">
        <ele>49.8</ele>
        <time>2020-06-18T10:17:17Z</time>
      </trkpt>
      <trkpt lat="49.86559" lon="0.85226">
        <ele>49.7</ele>
        <time>2020-06-18T10:17:18Z</time>
      </trkpt>
      <trkpt lat="49.8656" lon="0.85235">
        <ele>49.7</ele>
        <time>2020-06-18T10:17:19Z</time>
      </trkpt>
      <trkpt lat="49.8656" lon="0.85244">
        <ele>49.5</ele>
        <time>2020-06-18T10:17:20Z</time>
      </trkpt>
      <trkpt lat="49.8656" lon="0.85252">
        <ele>49.4</ele>
        <time>2020-06-18T10:17:21Z</time>
      </trkpt>
      <trkpt lat="49.86559" lon="0.85262">
        <ele>49.3</ele>
        <time>2020-06-18T10:17:22Z</time>
      </trkpt>
      <trkpt lat="49.86559" lon="0.85271">
        <ele>49.4</ele>
        <time>2020-06-18T10:17:23Z</time>
      </trkpt>
      <trkpt lat="49.86558" lon="0.85279">
        <ele>49.4</ele>
        <time>2020-06-18T10:17:24Z</time>
      </trkpt>
      <trkpt lat="49.86557" lon="0.85288">
        <ele>49.5</ele>
        <time>2020-06-18T10:17:25Z</time>
      </trkpt>
      <trkpt lat="49.86556" lon="0.85298">
        <ele>49.5</ele>
        <time>2020-06-18T10:17:26Z</time>
      </trkpt>
      <trkpt lat="49.86556" lon="0.85307">
        <ele>49.6</ele>
        <time>2020-06-18T10:17:27Z</time>
      </trkpt>
      <trkpt lat="49.86556" lon="0.85315">
        <ele>49.6</ele>
        <time>2020-06-18T10:17:28Z</time>
      </trkpt>
      <trkpt lat="49.86556" lon="0.85325">
        <ele>49.6</ele>
        <time>2020-06-18T10:17:29Z</time>
      </trkpt>
      <trkpt lat="49.86556" lon="0.85334">
        <ele>49.7</ele>
        <time>2020-06-18T10:17:30Z</time>
      </trkpt>
      <trkpt lat="49.86555" lon="0.85342">
        <ele>49.7</ele>
        <time>2020-06-18T10:17:31Z</time>
      </trkpt>
      <trkpt lat="49.86553" lon="0.85351">
        <ele>49.9</ele>
        <time>2020-06-18T10:17:32Z</time>
      </trkpt>
      <trkpt lat="49.86553" lon="0.85361">
        <ele>50</ele>
        <time>2020-06-18T10:17:33Z</time>
      </trkpt>
      <trkpt lat="49.86554" lon="0.85371">
        <ele>50.2</ele>
        <time>2020-06-18T10:17:34Z</time>
      </trkpt>
      <trkpt lat="49.86554" lon="0.85381">
        <ele>50.3</ele>
        <time>2020-06-18T10:17:35Z</time>
      </trkpt>
      <trkpt lat="49.86554" lon="0.85391">
        <ele>50.3</ele>
        <time>2020-06-18T10:17:36Z</time>
      </trkpt>
      <trkpt lat="49.86555" lon="0.85401">
        <ele>50.3</ele>
        <time>2020-06-18T10:17:37Z</time>
      </trkpt>
      <trkpt lat="49.86554" lon="0.8541">
        <ele>50.3</ele>
        <time>2020-06-18T10:17:38Z</time>
      </trkpt>
      <trkpt lat="49.86554" lon="0.85419">
        <ele>50.3</ele>
        <time>2020-06-18T10:17:39Z</time>
      </trkpt>
      <trkpt lat="49.86554" lon="0.85428">
        <ele>50.3</ele>
        <time>2020-06-18T10:17:40Z</time>
      </trkpt>
      <trkpt lat="49.86554" lon="0.85437">
        <ele>50.3</ele>
        <time>2020-06-18T10:17:41Z</time>
      </trkpt>
      <trkpt lat="49.86555" lon="0.85445">
        <ele>50.3</ele>
        <time>2020-06-18T10:17:42Z</time>
      </trkpt>
      <trkpt lat="49.86555" lon="0.85454">
        <ele>50.3</ele>
        <time>2020-06-18T10:17:43Z</time>
      </trkpt>
      <trkpt lat="49.86555" lon="0.85464">
        <ele>50.4</ele>
        <time>2020-06-18T10:17:44Z</time>
      </trkpt>
      <trkpt lat="49.86555" lon="0.85472">
        <ele>50.5</ele>
        <time>2020-06-18T10:17:45Z</time>
      </trkpt>
      <trkpt lat="49.86555" lon="0.85481">
        <ele>50.5</ele>
        <time>2020-06-18T10:17:46Z</time>
      </trkpt>
      <trkpt lat="49.86554" lon="0.8549">
        <ele>50.5</ele>
        <time>2020-06-18T10:17:47Z</time>
      </trkpt>
      <trkpt lat="49.86554" lon="0.85498">
        <ele>50.5</ele>
        <time>2020-06-18T10:17:48Z</time>
      </trkpt>
      <trkpt lat="49.86553" lon="0.85506">
        <ele>50.4</ele>
        <time>2020-06-18T10:17:49Z</time>
      </trkpt>
      <trkpt lat="49.86553" lon="0.85515">
        <ele>50.4</ele>
        <time>2020-06-18T10:17:50Z</time>
      </trkpt>
      <trkpt lat="49.86553" lon="0.85526">
        <ele>50.3</ele>
        <time>2020-06-18T10:17:51Z</time>
      </trkpt>
      <trkpt lat="49.86553" lon="0.85537">
        <ele>50.3</ele>
        <time>2020-06-18T10:17:52Z</time>
      </trkpt>
      <trkpt lat="49.86552" lon="0.85546">
        <ele>50.2</ele>
        <time>2020-06-18T10:17:53Z</time>
      </trkpt>
      <trkpt lat="49.86552" lon="0.85554">
        <ele>50.2</ele>
        <time>2020-06-18T10:17:54Z</time>
      </trkpt>
      <trkpt lat="49.86552" lon="0.85564">
        <ele>50.2</ele>
        <time>2020-06-18T10:17:55Z</time>
      </trkpt>
      <trkpt lat="49.86551" lon="0.85573">
        <ele>50.2</ele>
        <time>2020-06-18T10:17:56Z</time>
      </trkpt>
      <trkpt lat="49.86551" lon="0.85583">
        <ele>50.7</ele>
        <time>2020-06-18T10:17:57Z</time>
      </trkpt>
      <trkpt lat="49.86552" lon="0.85592">
        <ele>51</ele>
        <time>2020-06-18T10:17:58Z</time>
      </trkpt>
      <trkpt lat="49.86552" lon="0.85603">
        <ele>51.1</ele>
        <time>2020-06-18T10:17:59Z</time>
      </trkpt>
      <trkpt lat="49.86553" lon="0.85615">
        <ele>51.1</ele>
        <time>2020-06-18T10:18:00Z</time>
      </trkpt>
      <trkpt lat="49.86552" lon="0.85626">
        <ele>51</ele>
        <time>2020-06-18T10:18:01Z</time>
      </trkpt>
      <trkpt lat="49.86552" lon="0.85636">
        <ele>50.9</ele>
        <time>2020-06-18T10:18:02Z</time>
      </trkpt>
      <trkpt lat="49.86552" lon="0.85646">
        <ele>50.9</ele>
        <time>2020-06-18T10:18:03Z</time>
      </trkpt>
      <trkpt lat="49.86552" lon="0.85656">
        <ele>50.8</ele>
        <time>2020-06-18T10:18:04Z</time>
      </trkpt>
      <trkpt lat="49.86553" lon="0.85666">
        <ele>50.8</ele>
        <time>2020-06-18T10:18:05Z</time>
      </trkpt>
      <trkpt lat="49.86553" lon="0.85675">
        <ele>50.8</ele>
        <time>2020-06-18T10:18:06Z</time>
      </trkpt>
      <trkpt lat="49.86553" lon="0.85685">
        <ele>50.7</ele>
        <time>2020-06-18T10:18:07Z</time>
      </trkpt>
      <trkpt lat="49.86553" lon="0.85696">
        <ele>50.7</ele>
        <time>2020-06-18T10:18:08Z</time>
      </trkpt>
      <trkpt lat="49.86552" lon="0.85705">
        <ele>50.7</ele>
        <time>2020-06-18T10:18:09Z</time>
      </trkpt>
      <trkpt lat="49.86552" lon="0.85716">
        <ele>50.7</ele>
        <time>2020-06-18T10:18:10Z</time>
      </trkpt>
      <trkpt lat="49.86551" lon="0.85727">
        <ele>50.7</ele>
        <time>2020-06-18T10:18:11Z</time>
      </trkpt>
      <trkpt lat="49.86551" lon="0.85737">
        <ele>50.7</ele>
        <time>2020-06-18T10:18:12Z</time>
      </trkpt>
      <trkpt lat="49.86551" lon="0.85748">
        <ele>50.7</ele>
        <time>2020-06-18T10:18:13Z</time>
      </trkpt>
      <trkpt lat="49.86551" lon="0.85758">
        <ele>50.6</ele>
        <time>2020-06-18T10:18:14Z</time>
      </trkpt>
      <trkpt lat="49.86551" lon="0.85769">
        <ele>50.6</ele>
        <time>2020-06-18T10:18:15Z</time>
      </trkpt>
      <trkpt lat="49.8655" lon="0.8578">
        <ele>50.6</ele>
        <time>2020-06-18T10:18:16Z</time>
      </trkpt>
      <trkpt lat="49.8655" lon="0.85791">
        <ele>50.6</ele>
        <time>2020-06-18T10:18:17Z</time>
      </trkpt>
      <trkpt lat="49.8655" lon="0.85804">
        <ele>50.5</ele>
        <time>2020-06-18T10:18:18Z</time>
      </trkpt>
      <trkpt lat="49.8655" lon="0.85815">
        <ele>50.5</ele>
        <time>2020-06-18T10:18:19Z</time>
      </trkpt>
      <trkpt lat="49.8655" lon="0.85826">
        <ele>50.4</ele>
        <time>2020-06-18T10:18:20Z</time>
      </trkpt>
      <trkpt lat="49.8655" lon="0.85837">
        <ele>50.2</ele>
        <time>2020-06-18T10:18:21Z</time>
      </trkpt>
      <trkpt lat="49.8655" lon="0.85848">
        <ele>50.1</ele>
        <time>2020-06-18T10:18:22Z</time>
      </trkpt>
      <trkpt lat="49.86549" lon="0.85858">
        <ele>50.1</ele>
        <time>2020-06-18T10:18:23Z</time>
      </trkpt>
      <trkpt lat="49.86549" lon="0.85869">
        <ele>50.1</ele>
        <time>2020-06-18T10:18:24Z</time>
      </trkpt>
      <trkpt lat="49.86548" lon="0.85879">
        <ele>50.1</ele>
        <time>2020-06-18T10:18:25Z</time>
      </trkpt>
      <trkpt lat="49.86548" lon="0.85889">
        <ele>50</ele>
        <time>2020-06-18T10:18:26Z</time>
      </trkpt>
      <trkpt lat="49.86548" lon="0.85899">
        <ele>50</ele>
        <time>2020-06-18T10:18:27Z</time>
      </trkpt>
      <trkpt lat="49.86548" lon="0.85908">
        <ele>50</ele>
        <time>2020-06-18T10:18:28Z</time>
      </trkpt>
      <trkpt lat="49.86549" lon="0.85917">
        <ele>50</ele>
        <time>2020-06-18T10:18:29Z</time>
      </trkpt>
      <trkpt lat="49.86549" lon="0.85927">
        <ele>49.9</ele>
        <time>2020-06-18T10:18:30Z</time>
      </trkpt>
      <trkpt lat="49.86549" lon="0.85938">
        <ele>49.9</ele>
        <time>2020-06-18T10:18:31Z</time>
      </trkpt>
      <trkpt lat="49.86548" lon="0.85948">
        <ele>49.8</ele>
        <time>2020-06-18T10:18:32Z</time>
      </trkpt>
      <trkpt lat="49.86549" lon="0.85959">
        <ele>49.8</ele>
        <time>2020-06-18T10:18:33Z</time>
      </trkpt>
      <trkpt lat="49.86548" lon="0.85969">
        <ele>49.7</ele>
        <time>2020-06-18T10:18:34Z</time>
      </trkpt>
      <trkpt lat="49.86548" lon="0.8598">
        <ele>49.7</ele>
        <time>2020-06-18T10:18:35Z</time>
      </trkpt>
      <trkpt lat="49.86548" lon="0.85991">
        <ele>49.6</ele>
        <time>2020-06-18T10:18:36Z</time>
      </trkpt>
      <trkpt lat="49.86548" lon="0.86003">
        <ele>49.5</ele>
        <time>2020-06-18T10:18:37Z</time>
      </trkpt>
      <trkpt lat="49.86548" lon="0.86014">
        <ele>49.3</ele>
        <time>2020-06-18T10:18:38Z</time>
      </trkpt>
      <trkpt lat="49.86548" lon="0.86026">
        <ele>49.3</ele>
        <time>2020-06-18T10:18:39Z</time>
      </trkpt>
      <trkpt lat="49.86548" lon="0.86037">
        <ele>49.2</ele>
        <time>2020-06-18T10:18:40Z</time>
      </trkpt>
      <trkpt lat="49.86548" lon="0.86049">
        <ele>49.2</ele>
        <time>2020-06-18T10:18:41Z</time>
      </trkpt>
      <trkpt lat="49.86548" lon="0.86061">
        <ele>49.2</ele>
        <time>2020-06-18T10:18:42Z</time>
      </trkpt>
      <trkpt lat="49.86548" lon="0.86073">
        <ele>49.2</ele>
        <time>2020-06-18T10:18:43Z</time>
      </trkpt>
      <trkpt lat="49.86548" lon="0.86085">
        <ele>49.3</ele>
        <time>2020-06-18T10:18:44Z</time>
      </trkpt>
      <trkpt lat="49.86548" lon="0.86097">
        <ele>49.3</ele>
        <time>2020-06-18T10:18:45Z</time>
      </trkpt>
      <trkpt lat="49.86548" lon="0.86108">
        <ele>49.4</ele>
        <time>2020-06-18T10:18:46Z</time>
      </trkpt>
      <trkpt lat="49.86548" lon="0.8612">
        <ele>49.6</ele>
        <time>2020-06-18T10:18:47Z</time>
      </trkpt>
      <trkpt lat="49.86547" lon="0.86131">
        <ele>49.7</ele>
        <time>2020-06-18T10:18:48Z</time>
      </trkpt>
      <trkpt lat="49.86547" lon="0.86143">
        <ele>49.8</ele>
        <time>2020-06-18T10:18:49Z</time>
      </trkpt>
      <trkpt lat="49.86547" lon="0.86154">
        <ele>49.9</ele>
        <time>2020-06-18T10:18:50Z</time>
      </trkpt>
      <trkpt lat="49.86546" lon="0.86165">
        <ele>49.9</ele>
        <time>2020-06-18T10:18:51Z</time>
      </trkpt>
      <trkpt lat="49.86546" lon="0.86176">
        <ele>49.9</ele>
        <time>2020-06-18T10:18:52Z</time>
      </trkpt>
      <trkpt lat="49.86546" lon="0.86187">
        <ele>50</ele>
        <time>2020-06-18T10:18:53Z</time>
      </trkpt>
      <trkpt lat="49.86546" lon="0.86198">
        <ele>50.1</ele>
        <time>2020-06-18T10:18:54Z</time>
      </trkpt>
      <trkpt lat="49.86546" lon="0.86209">
        <ele>50.2</ele>
        <time>2020-06-18T10:18:55Z</time>
      </trkpt>
      <trkpt lat="49.86545" lon="0.8622">
        <ele>50.2</ele>
        <time>2020-06-18T10:18:56Z</time>
      </trkpt>
      <trkpt lat="49.86545" lon="0.8623">
        <ele>50.1</ele>
        <time>2020-06-18T10:18:57Z</time>
      </trkpt>
      <trkpt lat="49.86545" lon="0.86241">
        <ele>49.9</ele>
        <time>2020-06-18T10:18:58Z</time>
      </trkpt>
      <trkpt lat="49.86545" lon="0.86251">
        <ele>50.9</ele>
        <time>2020-06-18T10:18:59Z</time>
      </trkpt>
      <trkpt lat="49.86545" lon="0.86261">
        <ele>51.6</ele>
        <time>2020-06-18T10:19:00Z</time>
      </trkpt>
      <trkpt lat="49.86545" lon="0.86272">
        <ele>52</ele>
        <time>2020-06-18T10:19:01Z</time>
      </trkpt>
      <trkpt lat="49.86544" lon="0.86282">
        <ele>52.2</ele>
        <time>2020-06-18T10:19:02Z</time>
      </trkpt>
      <trkpt lat="49.86545" lon="0.86291">
        <ele>52.2</ele>
        <time>2020-06-18T10:19:03Z</time>
      </trkpt>
      <trkpt lat="49.86544" lon="0.86301">
        <ele>52.2</ele>
        <time>2020-06-18T10:19:04Z</time>
      </trkpt>
      <trkpt lat="49.86544" lon="0.86311">
        <ele>52.3</ele>
        <time>2020-06-18T10:19:05Z</time>
      </trkpt>
      <trkpt lat="49.86544" lon="0.8632">
        <ele>52.4</ele>
        <time>2020-06-18T10:19:06Z</time>
      </trkpt>
      <trkpt lat="49.86544" lon="0.8633">
        <ele>52.6</ele>
        <time>2020-06-18T10:19:07Z</time>
      </trkpt>
      <trkpt lat="49.86544" lon="0.86339">
        <ele>52.8</ele>
        <time>2020-06-18T10:19:08Z</time>
      </trkpt>
      <trkpt lat="49.86544" lon="0.86349">
        <ele>53.1</ele>
        <time>2020-06-18T10:19:09Z</time>
      </trkpt>
      <trkpt lat="49.86544" lon="0.86358">
        <ele>53.3</ele>
        <time>2020-06-18T10:19:10Z</time>
      </trkpt>
      <trkpt lat="49.86543" lon="0.86367">
        <ele>53.5</ele>
        <time>2020-06-18T10:19:11Z</time>
      </trkpt>
      <trkpt lat="49.86543" lon="0.86376">
        <ele>53.5</ele>
        <time>2020-06-18T10:19:12Z</time>
      </trkpt>
      <trkpt lat="49.86544" lon="0.86385">
        <ele>53.6</ele>
        <time>2020-06-18T10:19:13Z</time>
      </trkpt>
      <trkpt lat="49.86543" lon="0.86393">
        <ele>53.7</ele>
        <time>2020-06-18T10:19:14Z</time>
      </trkpt>
      <trkpt lat="49.86543" lon="0.86401">
        <ele>53.8</ele>
        <time>2020-06-18T10:19:15Z</time>
      </trkpt>
      <trkpt lat="49.86543" lon="0.8641">
        <ele>53.9</ele>
        <time>2020-06-18T10:19:16Z</time>
      </trkpt>
      <trkpt lat="49.86543" lon="0.86418">
        <ele>54.1</ele>
        <time>2020-06-18T10:19:17Z</time>
      </trkpt>
      <trkpt lat="49.86544" lon="0.86426">
        <ele>54.3</ele>
        <time>2020-06-18T10:19:18Z</time>
      </trkpt>
      <trkpt lat="49.86544" lon="0.86435">
        <ele>54.5</ele>
        <time>2020-06-18T10:19:19Z</time>
      </trkpt>
      <trkpt lat="49.86544" lon="0.86443">
        <ele>54.7</ele>
        <time>2020-06-18T10:19:20Z</time>
      </trkpt>
      <trkpt lat="49.86543" lon="0.86451">
        <ele>54.9</ele>
        <time>2020-06-18T10:19:21Z</time>
      </trkpt>
      <trkpt lat="49.86543" lon="0.8646">
        <ele>55</ele>
        <time>2020-06-18T10:19:22Z</time>
      </trkpt>
      <trkpt lat="49.86543" lon="0.86467">
        <ele>55.1</ele>
        <time>2020-06-18T10:19:23Z</time>
      </trkpt>
      <trkpt lat="49.86542" lon="0.86475">
        <ele>55.2</ele>
        <time>2020-06-18T10:19:24Z</time>
      </trkpt>
      <trkpt lat="49.86542" lon="0.86483">
        <ele>55.4</ele>
        <time>2020-06-18T10:19:25Z</time>
      </trkpt>
      <trkpt lat="49.86542" lon="0.86491">
        <ele>55.5</ele>
        <time>2020-06-18T10:19:26Z</time>
      </trkpt>
      <trkpt lat="49.86542" lon="0.86499">
        <ele>55.6</ele>
        <time>2020-06-18T10:19:27Z</time>
      </trkpt>
      <trkpt lat="49.86542" lon="0.86508">
        <ele>55.7</ele>
        <time>2020-06-18T10:19:28Z</time>
      </trkpt>
      <trkpt lat="49.86543" lon="0.86516">
        <ele>55.8</ele>
        <time>2020-06-18T10:19:29Z</time>
      </trkpt>
      <trkpt lat="49.86542" lon="0.86525">
        <ele>55.9</ele>
        <time>2020-06-18T10:19:30Z</time>
      </trkpt>
      <trkpt lat="49.86541" lon="0.86534">
        <ele>56.1</ele>
        <time>2020-06-18T10:19:31Z</time>
      </trkpt>
      <trkpt lat="49.86541" lon="0.86542">
        <ele>56.2</ele>
        <time>2020-06-18T10:19:32Z</time>
      </trkpt>
      <trkpt lat="49.86541" lon="0.86551">
        <ele>56.3</ele>
        <time>2020-06-18T10:19:33Z</time>
      </trkpt>
      <trkpt lat="49.86541" lon="0.86559">
        <ele>56.3</ele>
        <time>2020-06-18T10:19:34Z</time>
      </trkpt>
      <trkpt lat="49.86541" lon="0.86569">
        <ele>56.4</ele>
        <time>2020-06-18T10:19:35Z</time>
      </trkpt>
      <trkpt lat="49.86539" lon="0.86577">
        <ele>56.4</ele>
        <time>2020-06-18T10:19:36Z</time>
      </trkpt>
      <trkpt lat="49.8654" lon="0.86586">
        <ele>56.5</ele>
        <time>2020-06-18T10:19:37Z</time>
      </trkpt>
      <trkpt lat="49.8654" lon="0.86595">
        <ele>56.6</ele>
        <time>2020-06-18T10:19:38Z</time>
      </trkpt>
      <trkpt lat="49.86539" lon="0.86603">
        <ele>56.6</ele>
        <time>2020-06-18T10:19:39Z</time>
      </trkpt>
      <trkpt lat="49.86539" lon="0.8661">
        <ele>56.7</ele>
        <time>2020-06-18T10:19:40Z</time>
      </trkpt>
      <trkpt lat="49.86538" lon="0.86619">
        <ele>56.9</ele>
        <time>2020-06-18T10:19:41Z</time>
      </trkpt>
      <trkpt lat="49.86539" lon="0.86627">
        <ele>57</ele>
        <time>2020-06-18T10:19:42Z</time>
      </trkpt>
      <trkpt lat="49.86539" lon="0.86635">
        <ele>57.2</ele>
        <time>2020-06-18T10:19:43Z</time>
      </trkpt>
      <trkpt lat="49.86539" lon="0.86644">
        <ele>57.3</ele>
        <time>2020-06-18T10:19:44Z</time>
      </trkpt>
      <trkpt lat="49.8654" lon="0.86653">
        <ele>57.3</ele>
        <time>2020-06-18T10:19:45Z</time>
      </trkpt>
      <trkpt lat="49.8654" lon="0.86662">
        <ele>57.4</ele>
        <time>2020-06-18T10:19:46Z</time>
      </trkpt>
      <trkpt lat="49.86541" lon="0.86668">
        <ele>57.4</ele>
        <time>2020-06-18T10:19:47Z</time>
      </trkpt>
      <trkpt lat="49.86541" lon="0.86677">
        <ele>57.4</ele>
        <time>2020-06-18T10:19:48Z</time>
      </trkpt>
      <trkpt lat="49.86541" lon="0.86685">
        <ele>57.6</ele>
        <time>2020-06-18T10:19:49Z</time>
      </trkpt>
      <trkpt lat="49.86542" lon="0.8669">
        <ele>57.7</ele>
        <time>2020-06-18T10:19:50Z</time>
      </trkpt>
      <trkpt lat="49.86541" lon="0.86699">
        <ele>57.8</ele>
        <time>2020-06-18T10:19:51Z</time>
      </trkpt>
      <trkpt lat="49.86541" lon="0.86705">
        <ele>57.9</ele>
        <time>2020-06-18T10:19:52Z</time>
      </trkpt>
      <trkpt lat="49.86541" lon="0.86712">
        <ele>58</ele>
        <time>2020-06-18T10:19:53Z</time>
      </trkpt>
      <trkpt lat="49.86541" lon="0.86721">
        <ele>58.1</ele>
        <time>2020-06-18T10:19:54Z</time>
      </trkpt>
      <trkpt lat="49.8654" lon="0.8673">
        <ele>58.2</ele>
        <time>2020-06-18T10:19:55Z</time>
      </trkpt>
      <trkpt lat="49.8654" lon="0.86739">
        <ele>58.2</ele>
        <time>2020-06-18T10:19:56Z</time>
      </trkpt>
      <trkpt lat="49.8654" lon="0.86749">
        <ele>58.4</ele>
        <time>2020-06-18T10:19:57Z</time>
      </trkpt>
      <trkpt lat="49.8654" lon="0.86756">
        <ele>58.5</ele>
        <time>2020-06-18T10:19:58Z</time>
      </trkpt>
      <trkpt lat="49.86541" lon="0.86766">
        <ele>58.6</ele>
        <time>2020-06-18T10:19:59Z</time>
      </trkpt>
      <trkpt lat="49.8654" lon="0.86777">
        <ele>58.7</ele>
        <time>2020-06-18T10:20:00Z</time>
      </trkpt>
      <trkpt lat="49.8654" lon="0.86786">
        <ele>58.8</ele>
        <time>2020-06-18T10:20:01Z</time>
      </trkpt>
      <trkpt lat="49.8654" lon="0.86795">
        <ele>58.9</ele>
        <time>2020-06-18T10:20:02Z</time>
      </trkpt>
      <trkpt lat="49.86541" lon="0.86805">
        <ele>59</ele>
        <time>2020-06-18T10:20:03Z</time>
      </trkpt>
      <trkpt lat="49.86541" lon="0.86813">
        <ele>59.1</ele>
        <time>2020-06-18T10:20:04Z</time>
      </trkpt>
      <trkpt lat="49.86541" lon="0.86821">
        <ele>59.2</ele>
        <time>2020-06-18T10:20:05Z</time>
      </trkpt>
      <trkpt lat="49.86541" lon="0.8683">
        <ele>59.2</ele>
        <time>2020-06-18T10:20:06Z</time>
      </trkpt>
      <trkpt lat="49.8654" lon="0.86838">
        <ele>59.2</ele>
        <time>2020-06-18T10:20:07Z</time>
      </trkpt>
      <trkpt lat="49.8654" lon="0.86849">
        <ele>59.2</ele>
        <time>2020-06-18T10:20:08Z</time>
      </trkpt>
      <trkpt lat="49.86539" lon="0.86858">
        <ele>59.2</ele>
        <time>2020-06-18T10:20:09Z</time>
      </trkpt>
      <trkpt lat="49.8654" lon="0.8687">
        <ele>59.3</ele>
        <time>2020-06-18T10:20:10Z</time>
      </trkpt>
      <trkpt lat="49.8654" lon="0.86877">
        <ele>59.4</ele>
        <time>2020-06-18T10:20:11Z</time>
      </trkpt>
      <trkpt lat="49.8654" lon="0.86887">
        <ele>59.4</ele>
        <time>2020-06-18T10:20:12Z</time>
      </trkpt>
      <trkpt lat="49.86539" lon="0.86898">
        <ele>59.5</ele>
        <time>2020-06-18T10:20:13Z</time>
      </trkpt>
      <trkpt lat="49.86539" lon="0.86908">
        <ele>59.5</ele>
        <time>2020-06-18T10:20:14Z</time>
      </trkpt>
      <trkpt lat="49.86539" lon="0.86918">
        <ele>59.6</ele>
        <time>2020-06-18T10:20:15Z</time>
      </trkpt>
      <trkpt lat="49.86539" lon="0.86926">
        <ele>59.6</ele>
        <time>2020-06-18T10:20:16Z</time>
      </trkpt>
      <trkpt lat="49.86539" lon="0.86934">
        <ele>59.6</ele>
        <time>2020-06-18T10:20:17Z</time>
      </trkpt>
      <trkpt lat="49.86538" lon="0.86942">
        <ele>59.7</ele>
        <time>2020-06-18T10:20:18Z</time>
      </trkpt>
      <trkpt lat="49.86539" lon="0.8695">
        <ele>59.8</ele>
        <time>2020-06-18T10:20:19Z</time>
      </trkpt>
      <trkpt lat="49.86539" lon="0.86957">
        <ele>59.8</ele>
        <time>2020-06-18T10:20:20Z</time>
      </trkpt>
      <trkpt lat="49.86539" lon="0.86967">
        <ele>59.9</ele>
        <time>2020-06-18T10:20:21Z</time>
      </trkpt>
      <trkpt lat="49.86538" lon="0.86977">
        <ele>59.9</ele>
        <time>2020-06-18T10:20:22Z</time>
      </trkpt>
      <trkpt lat="49.86538" lon="0.86988">
        <ele>59.9</ele>
        <time>2020-06-18T10:20:23Z</time>
      </trkpt>
      <trkpt lat="49.86537" lon="0.86998">
        <ele>59.8</ele>
        <time>2020-06-18T10:20:24Z</time>
      </trkpt>
      <trkpt lat="49.86537" lon="0.87007">
        <ele>59.8</ele>
        <time>2020-06-18T10:20:25Z</time>
      </trkpt>
      <trkpt lat="49.86537" lon="0.87014">
        <ele>59.8</ele>
        <time>2020-06-18T10:20:26Z</time>
      </trkpt>
      <trkpt lat="49.86536" lon="0.87023">
        <ele>59.8</ele>
        <time>2020-06-18T10:20:27Z</time>
      </trkpt>
      <trkpt lat="49.86537" lon="0.87032">
        <ele>59.9</ele>
        <time>2020-06-18T10:20:28Z</time>
      </trkpt>
      <trkpt lat="49.86537" lon="0.87042">
        <ele>60</ele>
        <time>2020-06-18T10:20:29Z</time>
      </trkpt>
      <trkpt lat="49.86537" lon="0.87051">
        <ele>60.1</ele>
        <time>2020-06-18T10:20:30Z</time>
      </trkpt>
      <trkpt lat="49.86537" lon="0.87062">
        <ele>60.1</ele>
        <time>2020-06-18T10:20:31Z</time>
      </trkpt>
      <trkpt lat="49.86536" lon="0.8707">
        <ele>60.1</ele>
        <time>2020-06-18T10:20:32Z</time>
      </trkpt>
      <trkpt lat="49.86536" lon="0.87078">
        <ele>60.1</ele>
        <time>2020-06-18T10:20:33Z</time>
      </trkpt>
      <trkpt lat="49.86535" lon="0.87087">
        <ele>60.1</ele>
        <time>2020-06-18T10:20:34Z</time>
      </trkpt>
      <trkpt lat="49.86535" lon="0.87098">
        <ele>60.1</ele>
        <time>2020-06-18T10:20:35Z</time>
      </trkpt>
      <trkpt lat="49.86535" lon="0.8711">
        <ele>60.1</ele>
        <time>2020-06-18T10:20:36Z</time>
      </trkpt>
      <trkpt lat="49.86535" lon="0.87121">
        <ele>60.1</ele>
        <time>2020-06-18T10:20:37Z</time>
      </trkpt>
      <trkpt lat="49.86535" lon="0.87131">
        <ele>60.1</ele>
        <time>2020-06-18T10:20:38Z</time>
      </trkpt>
      <trkpt lat="49.86536" lon="0.8714">
        <ele>60.1</ele>
        <time>2020-06-18T10:20:39Z</time>
      </trkpt>
      <trkpt lat="49.86535" lon="0.87151">
        <ele>60.2</ele>
        <time>2020-06-18T10:20:40Z</time>
      </trkpt>
      <trkpt lat="49.86535" lon="0.87161">
        <ele>60.2</ele>
        <time>2020-06-18T10:20:41Z</time>
      </trkpt>
      <trkpt lat="49.86535" lon="0.87172">
        <ele>60.2</ele>
        <time>2020-06-18T10:20:42Z</time>
      </trkpt>
      <trkpt lat="49.86535" lon="0.87183">
        <ele>60.1</ele>
        <time>2020-06-18T10:20:43Z</time>
      </trkpt>
      <trkpt lat="49.86535" lon="0.87192">
        <ele>60.1</ele>
        <time>2020-06-18T10:20:44Z</time>
      </trkpt>
      <trkpt lat="49.86535" lon="0.87202">
        <ele>60</ele>
        <time>2020-06-18T10:20:45Z</time>
      </trkpt>
      <trkpt lat="49.86535" lon="0.87211">
        <ele>60</ele>
        <time>2020-06-18T10:20:46Z</time>
      </trkpt>
      <trkpt lat="49.86535" lon="0.87221">
        <ele>60</ele>
        <time>2020-06-18T10:20:47Z</time>
      </trkpt>
      <trkpt lat="49.86534" lon="0.87231">
        <ele>59.9</ele>
        <time>2020-06-18T10:20:48Z</time>
      </trkpt>
      <trkpt lat="49.86534" lon="0.87241">
        <ele>59.8</ele>
        <time>2020-06-18T10:20:49Z</time>
      </trkpt>
      <trkpt lat="49.86534" lon="0.87251">
        <ele>59.7</ele>
        <time>2020-06-18T10:20:50Z</time>
      </trkpt>
      <trkpt lat="49.86534" lon="0.87261">
        <ele>59.5</ele>
        <time>2020-06-18T10:20:51Z</time>
      </trkpt>
      <trkpt lat="49.86534" lon="0.87271">
        <ele>59.4</ele>
        <time>2020-06-18T10:20:52Z</time>
      </trkpt>
      <trkpt lat="49.86534" lon="0.8728">
        <ele>59.2</ele>
        <time>2020-06-18T10:20:53Z</time>
      </trkpt>
      <trkpt lat="49.86534" lon="0.87289">
        <ele>59.1</ele>
        <time>2020-06-18T10:20:54Z</time>
      </trkpt>
      <trkpt lat="49.86534" lon="0.873">
        <ele>59</ele>
        <time>2020-06-18T10:20:55Z</time>
      </trkpt>
      <trkpt lat="49.86534" lon="0.87309">
        <ele>58.9</ele>
        <time>2020-06-18T10:20:56Z</time>
      </trkpt>
      <trkpt lat="49.86534" lon="0.8732">
        <ele>58.8</ele>
        <time>2020-06-18T10:20:57Z</time>
      </trkpt>
      <trkpt lat="49.86534" lon="0.87332">
        <ele>58.5</ele>
        <time>2020-06-18T10:20:58Z</time>
      </trkpt>
      <trkpt lat="49.86533" lon="0.87342">
        <ele>58.3</ele>
        <time>2020-06-18T10:20:59Z</time>
      </trkpt>
      <trkpt lat="49.86533" lon="0.87353">
        <ele>58.1</ele>
        <time>2020-06-18T10:21:00Z</time>
      </trkpt>
      <trkpt lat="49.86533" lon="0.87364">
        <ele>57.9</ele>
        <time>2020-06-18T10:21:01Z</time>
      </trkpt>
      <trkpt lat="49.86533" lon="0.87376">
        <ele>57.8</ele>
        <time>2020-06-18T10:21:02Z</time>
      </trkpt>
      <trkpt lat="49.86533" lon="0.87387">
        <ele>57.5</ele>
        <time>2020-06-18T10:21:03Z</time>
      </trkpt>
      <trkpt lat="49.86532" lon="0.87399">
        <ele>57.2</ele>
        <time>2020-06-18T10:21:04Z</time>
      </trkpt>
      <trkpt lat="49.86532" lon="0.87411">
        <ele>56.8</ele>
        <time>2020-06-18T10:21:05Z</time>
      </trkpt>
      <trkpt lat="49.86532" lon="0.87423">
        <ele>56.4</ele>
        <time>2020-06-18T10:21:06Z</time>
      </trkpt>
      <trkpt lat="49.86532" lon="0.87435">
        <ele>56</ele>
        <time>2020-06-18T10:21:07Z</time>
      </trkpt>
      <trkpt lat="49.86532" lon="0.87448">
        <ele>55.6</ele>
        <time>2020-06-18T10:21:08Z</time>
      </trkpt>
      <trkpt lat="49.86531" lon="0.8746">
        <ele>55.2</ele>
        <time>2020-06-18T10:21:09Z</time>
      </trkpt>
      <trkpt lat="49.86531" lon="0.87472">
        <ele>54.8</ele>
        <time>2020-06-18T10:21:10Z</time>
      </trkpt>
      <trkpt lat="49.86531" lon="0.87485">
        <ele>54.4</ele>
        <time>2020-06-18T10:21:11Z</time>
      </trkpt>
      <trkpt lat="49.86531" lon="0.87497">
        <ele>54</ele>
        <time>2020-06-18T10:21:12Z</time>
      </trkpt>
      <trkpt lat="49.86531" lon="0.8751">
        <ele>53.5</ele>
        <time>2020-06-18T10:21:13Z</time>
      </trkpt>
      <trkpt lat="49.8653" lon="0.87522">
        <ele>53.1</ele>
        <time>2020-06-18T10:21:14Z</time>
      </trkpt>
      <trkpt lat="49.8653" lon="0.87535">
        <ele>52.6</ele>
        <time>2020-06-18T10:21:15Z</time>
      </trkpt>
      <trkpt lat="49.8653" lon="0.87548">
        <ele>52.2</ele>
        <time>2020-06-18T10:21:16Z</time>
      </trkpt>
      <trkpt lat="49.8653" lon="0.8756">
        <ele>51.8</ele>
        <time>2020-06-18T10:21:17Z</time>
      </trkpt>
      <trkpt lat="49.8653" lon="0.87573">
        <ele>51.3</ele>
        <time>2020-06-18T10:21:18Z</time>
      </trkpt>
      <trkpt lat="49.8653" lon="0.87587">
        <ele>51</ele>
        <time>2020-06-18T10:21:19Z</time>
      </trkpt>
      <trkpt lat="49.8653" lon="0.876">
        <ele>50.5</ele>
        <time>2020-06-18T10:21:20Z</time>
      </trkpt>
      <trkpt lat="49.8653" lon="0.87614">
        <ele>50.1</ele>
        <time>2020-06-18T10:21:21Z</time>
      </trkpt>
      <trkpt lat="49.8653" lon="0.87627">
        <ele>49.7</ele>
        <time>2020-06-18T10:21:22Z</time>
      </trkpt>
      <trkpt lat="49.8653" lon="0.87641">
        <ele>49.2</ele>
        <time>2020-06-18T10:21:23Z</time>
      </trkpt>
      <trkpt lat="49.86531" lon="0.87654">
        <ele>48.8</ele>
        <time>2020-06-18T10:21:24Z</time>
      </trkpt>
      <trkpt lat="49.86531" lon="0.87668">
        <ele>48.4</ele>
        <time>2020-06-18T10:21:25Z</time>
      </trkpt>
      <trkpt lat="49.86532" lon="0.87682">
        <ele>48.1</ele>
        <time>2020-06-18T10:21:26Z</time>
      </trkpt>
      <trkpt lat="49.86534" lon="0.87696">
        <ele>47.8</ele>
        <time>2020-06-18T10:21:27Z</time>
      </trkpt>
      <trkpt lat="49.86535" lon="0.8771">
        <ele>47.3</ele>
        <time>2020-06-18T10:21:28Z</time>
      </trkpt>
      <trkpt lat="49.86537" lon="0.87724">
        <ele>46.8</ele>
        <time>2020-06-18T10:21:29Z</time>
      </trkpt>
      <trkpt lat="49.86539" lon="0.87738">
        <ele>46.4</ele>
        <time>2020-06-18T10:21:30Z</time>
      </trkpt>
      <trkpt lat="49.8654" lon="0.87753">
        <ele>46</ele>
        <time>2020-06-18T10:21:31Z</time>
      </trkpt>
      <trkpt lat="49.86542" lon="0.87767">
        <ele>45.6</ele>
        <time>2020-06-18T10:21:32Z</time>
      </trkpt>
      <trkpt lat="49.86543" lon="0.87782">
        <ele>45.2</ele>
        <time>2020-06-18T10:21:33Z</time>
      </trkpt>
      <trkpt lat="49.86545" lon="0.87796">
        <ele>44.7</ele>
        <time>2020-06-18T10:21:34Z</time>
      </trkpt>
      <trkpt lat="49.86546" lon="0.87811">
        <ele>44.2</ele>
        <time>2020-06-18T10:21:35Z</time>
      </trkpt>
      <trkpt lat="49.86548" lon="0.87825">
        <ele>43.8</ele>
        <time>2020-06-18T10:21:36Z</time>
      </trkpt>
      <trkpt lat="49.8655" lon="0.8784">
        <ele>43.3</ele>
        <time>2020-06-18T10:21:37Z</time>
      </trkpt>
      <trkpt lat="49.86552" lon="0.87855">
        <ele>42.8</ele>
        <time>2020-06-18T10:21:38Z</time>
      </trkpt>
      <trkpt lat="49.86553" lon="0.8787">
        <ele>42.3</ele>
        <time>2020-06-18T10:21:39Z</time>
      </trkpt>
      <trkpt lat="49.86555" lon="0.87885">
        <ele>41.8</ele>
        <time>2020-06-18T10:21:40Z</time>
      </trkpt>
      <trkpt lat="49.86557" lon="0.879">
        <ele>41.3</ele>
        <time>2020-06-18T10:21:41Z</time>
      </trkpt>
      <trkpt lat="49.86559" lon="0.87915">
        <ele>40.9</ele>
        <time>2020-06-18T10:21:42Z</time>
      </trkpt>
      <trkpt lat="49.8656" lon="0.8793">
        <ele>40.4</ele>
        <time>2020-06-18T10:21:43Z</time>
      </trkpt>
      <trkpt lat="49.86562" lon="0.87946">
        <ele>39.9</ele>
        <time>2020-06-18T10:21:44Z</time>
      </trkpt>
      <trkpt lat="49.86564" lon="0.87961">
        <ele>39.5</ele>
        <time>2020-06-18T10:21:45Z</time>
      </trkpt>
      <trkpt lat="49.86566" lon="0.87976">
        <ele>39.2</ele>
        <time>2020-06-18T10:21:46Z</time>
      </trkpt>
      <trkpt lat="49.86568" lon="0.87991">
        <ele>38.8</ele>
        <time>2020-06-18T10:21:47Z</time>
      </trkpt>
      <trkpt lat="49.86569" lon="0.88007">
        <ele>38.3</ele>
        <time>2020-06-18T10:21:48Z</time>
      </trkpt>
      <trkpt lat="49.86571" lon="0.88022">
        <ele>37.8</ele>
        <time>2020-06-18T10:21:49Z</time>
      </trkpt>
      <trkpt lat="49.86573" lon="0.88037">
        <ele>37.4</ele>
        <time>2020-06-18T10:21:50Z</time>
      </trkpt>
      <trkpt lat="49.86575" lon="0.88052">
        <ele>37</ele>
        <time>2020-06-18T10:21:51Z</time>
      </trkpt>
      <trkpt lat="49.86577" lon="0.88067">
        <ele>36.6</ele>
        <time>2020-06-18T10:21:52Z</time>
      </trkpt>
      <trkpt lat="49.86579" lon="0.88083">
        <ele>36.2</ele>
        <time>2020-06-18T10:21:53Z</time>
      </trkpt>
      <trkpt lat="49.8658" lon="0.88098">
        <ele>35.7</ele>
        <time>2020-06-18T10:21:54Z</time>
      </trkpt>
      <trkpt lat="49.86582" lon="0.88113">
        <ele>35.3</ele>
        <time>2020-06-18T10:21:55Z</time>
      </trkpt>
      <trkpt lat="49.86584" lon="0.88128">
        <ele>34.8</ele>
        <time>2020-06-18T10:21:56Z</time>
      </trkpt>
      <trkpt lat="49.86586" lon="0.88144">
        <ele>34.3</ele>
        <time>2020-06-18T10:21:57Z</time>
      </trkpt>
      <trkpt lat="49.86587" lon="0.88159">
        <ele>33.7</ele>
        <time>2020-06-18T10:21:58Z</time>
      </trkpt>
      <trkpt lat="49.86589" lon="0.88174">
        <ele>33.1</ele>
        <time>2020-06-18T10:21:59Z</time>
      </trkpt>
      <trkpt lat="49.8659" lon="0.88188">
        <ele>32.5</ele>
        <time>2020-06-18T10:22:00Z</time>
      </trkpt>
      <trkpt lat="49.86592" lon="0.88202">
        <ele>32.1</ele>
        <time>2020-06-18T10:22:01Z</time>
      </trkpt>
      <trkpt lat="49.86594" lon="0.88215">
        <ele>31.7</ele>
        <time>2020-06-18T10:22:02Z</time>
      </trkpt>
      <trkpt lat="49.86596" lon="0.88229">
        <ele>31.3</ele>
        <time>2020-06-18T10:22:03Z</time>
      </trkpt>
      <trkpt lat="49.86597" lon="0.88242">
        <ele>31</ele>
        <time>2020-06-18T10:22:04Z</time>
      </trkpt>
      <trkpt lat="49.86598" lon="0.88256">
        <ele>30.7</ele>
        <time>2020-06-18T10:22:05Z</time>
      </trkpt>
      <trkpt lat="49.86599" lon="0.88269">
        <ele>30.4</ele>
        <time>2020-06-18T10:22:06Z</time>
      </trkpt>
      <trkpt lat="49.866" lon="0.88282">
        <ele>30</ele>
        <time>2020-06-18T10:22:07Z</time>
      </trkpt>
      <trkpt lat="49.86601" lon="0.88295">
        <ele>29.7</ele>
        <time>2020-06-18T10:22:08Z</time>
      </trkpt>
      <trkpt lat="49.86603" lon="0.88308">
        <ele>29.5</ele>
        <time>2020-06-18T10:22:09Z</time>
      </trkpt>
      <trkpt lat="49.86604" lon="0.88321">
        <ele>29.2</ele>
        <time>2020-06-18T10:22:10Z</time>
      </trkpt>
      <trkpt lat="49.86606" lon="0.88334">
        <ele>28.8</ele>
        <time>2020-06-18T10:22:11Z</time>
      </trkpt>
      <trkpt lat="49.86607" lon="0.88347">
        <ele>28.4</ele>
        <time>2020-06-18T10:22:12Z</time>
      </trkpt>
      <trkpt lat="49.86608" lon="0.88361">
        <ele>27.9</ele>
        <time>2020-06-18T10:22:13Z</time>
      </trkpt>
      <trkpt lat="49.8661" lon="0.88374">
        <ele>27.4</ele>
        <time>2020-06-18T10:22:14Z</time>
      </trkpt>
      <trkpt lat="49.86611" lon="0.88388">
        <ele>26.9</ele>
        <time>2020-06-18T10:22:15Z</time>
      </trkpt>
      <trkpt lat="49.86613" lon="0.88402">
        <ele>26.5</ele>
        <time>2020-06-18T10:22:16Z</time>
      </trkpt>
      <trkpt lat="49.86613" lon="0.88416">
        <ele>26.1</ele>
        <time>2020-06-18T10:22:17Z</time>
      </trkpt>
      <trkpt lat="49.86613" lon="0.8843">
        <ele>25.7</ele>
        <time>2020-06-18T10:22:18Z</time>
      </trkpt>
      <trkpt lat="49.86612" lon="0.88443">
        <ele>25.5</ele>
        <time>2020-06-18T10:22:19Z</time>
      </trkpt>
      <trkpt lat="49.8661" lon="0.88457">
        <ele>24.9</ele>
        <time>2020-06-18T10:22:20Z</time>
      </trkpt>
      <trkpt lat="49.86607" lon="0.8847">
        <ele>24.3</ele>
        <time>2020-06-18T10:22:21Z</time>
      </trkpt>
      <trkpt lat="49.86604" lon="0.88483">
        <ele>23.7</ele>
        <time>2020-06-18T10:22:22Z</time>
      </trkpt>
      <trkpt lat="49.866" lon="0.88496">
        <ele>23.2</ele>
        <time>2020-06-18T10:22:23Z</time>
      </trkpt>
      <trkpt lat="49.86595" lon="0.88509">
        <ele>22.6</ele>
        <time>2020-06-18T10:22:24Z</time>
      </trkpt>
      <trkpt lat="49.8659" lon="0.88521">
        <ele>22</ele>
        <time>2020-06-18T10:22:25Z</time>
      </trkpt>
      <trkpt lat="49.86586" lon="0.88533">
        <ele>21.5</ele>
        <time>2020-06-18T10:22:26Z</time>
      </trkpt>
      <trkpt lat="49.86582" lon="0.88546">
        <ele>21</ele>
        <time>2020-06-18T10:22:27Z</time>
      </trkpt>
      <trkpt lat="49.86578" lon="0.88558">
        <ele>20.4</ele>
        <time>2020-06-18T10:22:28Z</time>
      </trkpt>
      <trkpt lat="49.86573" lon="0.8857">
        <ele>19.9</ele>
        <time>2020-06-18T10:22:29Z</time>
      </trkpt>
      <trkpt lat="49.86567" lon="0.88582">
        <ele>19.8</ele>
        <time>2020-06-18T10:22:30Z</time>
      </trkpt>
      <trkpt lat="49.86562" lon="0.88595">
        <ele>19.8</ele>
        <time>2020-06-18T10:22:31Z</time>
      </trkpt>
      <trkpt lat="49.86557" lon="0.88607">
        <ele>19.2</ele>
        <time>2020-06-18T10:22:32Z</time>
      </trkpt>
      <trkpt lat="49.86552" lon="0.8862">
        <ele>18.6</ele>
        <time>2020-06-18T10:22:33Z</time>
      </trkpt>
      <trkpt lat="49.86547" lon="0.88632">
        <ele>18.1</ele>
        <time>2020-06-18T10:22:34Z</time>
      </trkpt>
      <trkpt lat="49.86541" lon="0.88645">
        <ele>17.6</ele>
        <time>2020-06-18T10:22:35Z</time>
      </trkpt>
      <trkpt lat="49.86536" lon="0.88657">
        <ele>17.2</ele>
        <time>2020-06-18T10:22:36Z</time>
      </trkpt>
      <trkpt lat="49.8653" lon="0.88669">
        <ele>16.8</ele>
        <time>2020-06-18T10:22:37Z</time>
      </trkpt>
      <trkpt lat="49.86525" lon="0.88682">
        <ele>16.5</ele>
        <time>2020-06-18T10:22:38Z</time>
      </trkpt>
      <trkpt lat="49.86519" lon="0.88694">
        <ele>16.1</ele>
        <time>2020-06-18T10:22:39Z</time>
      </trkpt>
      <trkpt lat="49.86514" lon="0.88705">
        <ele>16.1</ele>
        <time>2020-06-18T10:22:40Z</time>
      </trkpt>
      <trkpt lat="49.86509" lon="0.88717">
        <ele>16</ele>
        <time>2020-06-18T10:22:41Z</time>
      </trkpt>
      <trkpt lat="49.86504" lon="0.88728">
        <ele>15.9</ele>
        <time>2020-06-18T10:22:42Z</time>
      </trkpt>
      <trkpt lat="49.865" lon="0.8874">
        <ele>15.9</ele>
        <time>2020-06-18T10:22:43Z</time>
      </trkpt>
      <trkpt lat="49.86497" lon="0.88752">
        <ele>16</ele>
        <time>2020-06-18T10:22:44Z</time>
      </trkpt>
      <trkpt lat="49.86496" lon="0.88764">
        <ele>16.1</ele>
        <time>2020-06-18T10:22:45Z</time>
      </trkpt>
      <trkpt lat="49.86496" lon="0.88775">
        <ele>16.3</ele>
        <time>2020-06-18T10:22:46Z</time>
      </trkpt>
      <trkpt lat="49.86496" lon="0.88786">
        <ele>16.8</ele>
        <time>2020-06-18T10:22:47Z</time>
      </trkpt>
      <trkpt lat="49.86496" lon="0.88796">
        <ele>17.3</ele>
        <time>2020-06-18T10:22:48Z</time>
      </trkpt>
      <trkpt lat="49.86496" lon="0.88806">
        <ele>17.7</ele>
        <time>2020-06-18T10:22:49Z</time>
      </trkpt>
      <trkpt lat="49.86497" lon="0.88816">
        <ele>18.2</ele>
        <time>2020-06-18T10:22:50Z</time>
      </trkpt>
      <trkpt lat="49.86497" lon="0.88824">
        <ele>18.6</ele>
        <time>2020-06-18T10:22:51Z</time>
      </trkpt>
      <trkpt lat="49.86498" lon="0.88833">
        <ele>19.1</ele>
        <time>2020-06-18T10:22:52Z</time>
      </trkpt>
      <trkpt lat="49.86498" lon="0.88841">
        <ele>19.6</ele>
        <time>2020-06-18T10:22:53Z</time>
      </trkpt>
      <trkpt lat="49.86497" lon="0.88849">
        <ele>20</ele>
        <time>2020-06-18T10:22:54Z</time>
      </trkpt>
      <trkpt lat="49.86497" lon="0.88856">
        <ele>20.5</ele>
        <time>2020-06-18T10:22:55Z</time>
      </trkpt>
      <trkpt lat="49.86497" lon="0.88863">
        <ele>21.2</ele>
        <time>2020-06-18T10:22:56Z</time>
      </trkpt>
      <trkpt lat="49.86496" lon="0.8887">
        <ele>21.3</ele>
        <time>2020-06-18T10:22:57Z</time>
      </trkpt>
      <trkpt lat="49.86496" lon="0.88877">
        <ele>21.3</ele>
        <time>2020-06-18T10:22:58Z</time>
      </trkpt>
      <trkpt lat="49.86496" lon="0.88884">
        <ele>21.3</ele>
        <time>2020-06-18T10:22:59Z</time>
      </trkpt>
      <trkpt lat="49.86496" lon="0.8889">
        <ele>21.3</ele>
        <time>2020-06-18T10:23:00Z</time>
      </trkpt>
      <trkpt lat="49.86496" lon="0.88896">
        <ele>21.6</ele>
        <time>2020-06-18T10:23:01Z</time>
      </trkpt>
      <trkpt lat="49.86496" lon="0.88901">
        <ele>21.8</ele>
        <time>2020-06-18T10:23:02Z</time>
      </trkpt>
      <trkpt lat="49.86495" lon="0.88906">
        <ele>21.9</ele>
        <time>2020-06-18T10:23:03Z</time>
      </trkpt>
      <trkpt lat="49.86496" lon="0.88912">
        <ele>22.1</ele>
        <time>2020-06-18T10:23:04Z</time>
      </trkpt>
      <trkpt lat="49.86496" lon="0.88917">
        <ele>22.2</ele>
        <time>2020-06-18T10:23:05Z</time>
      </trkpt>
      <trkpt lat="49.86496" lon="0.88923">
        <ele>22.4</ele>
        <time>2020-06-18T10:23:06Z</time>
      </trkpt>
      <trkpt lat="49.86497" lon="0.8893">
        <ele>22.5</ele>
        <time>2020-06-18T10:23:07Z</time>
      </trkpt>
      <trkpt lat="49.86497" lon="0.88936">
        <ele>22.7</ele>
        <time>2020-06-18T10:23:08Z</time>
      </trkpt>
      <trkpt lat="49.86497" lon="0.88942">
        <ele>22.9</ele>
        <time>2020-06-18T10:23:09Z</time>
      </trkpt>
      <trkpt lat="49.86497" lon="0.88949">
        <ele>23.1</ele>
        <time>2020-06-18T10:23:10Z</time>
      </trkpt>
      <trkpt lat="49.86498" lon="0.88955">
        <ele>23.3</ele>
        <time>2020-06-18T10:23:11Z</time>
      </trkpt>
      <trkpt lat="49.865" lon="0.8896">
        <ele>23.5</ele>
        <time>2020-06-18T10:23:12Z</time>
      </trkpt>
      <trkpt lat="49.86503" lon="0.88966">
        <ele>23.7</ele>
        <time>2020-06-18T10:23:13Z</time>
      </trkpt>
      <trkpt lat="49.86506" lon="0.8897">
        <ele>23.9</ele>
        <time>2020-06-18T10:23:14Z</time>
      </trkpt>
      <trkpt lat="49.8651" lon="0.88976">
        <ele>24.2</ele>
        <time>2020-06-18T10:23:15Z</time>
      </trkpt>
      <trkpt lat="49.86514" lon="0.88981">
        <ele>24.5</ele>
        <time>2020-06-18T10:23:16Z</time>
      </trkpt>
      <trkpt lat="49.86518" lon="0.88985">
        <ele>24.8</ele>
        <time>2020-06-18T10:23:17Z</time>
      </trkpt>
      <trkpt lat="49.86521" lon="0.8899">
        <ele>25</ele>
        <time>2020-06-18T10:23:18Z</time>
      </trkpt>
      <trkpt lat="49.86523" lon="0.88993">
        <ele>25.2</ele>
        <time>2020-06-18T10:23:19Z</time>
      </trkpt>
      <trkpt lat="49.86526" lon="0.88996">
        <ele>25.3</ele>
        <time>2020-06-18T10:23:20Z</time>
      </trkpt>
      <trkpt lat="49.86529" lon="0.88999">
        <ele>25.5</ele>
        <time>2020-06-18T10:23:21Z</time>
      </trkpt>
      <trkpt lat="49.86532" lon="0.89002">
        <ele>25.7</ele>
        <time>2020-06-18T10:23:22Z</time>
      </trkpt>
      <trkpt lat="49.86537" lon="0.89006">
        <ele>25.9</ele>
        <time>2020-06-18T10:23:23Z</time>
      </trkpt>
      <trkpt lat="49.86541" lon="0.89008">
        <ele>26.1</ele>
        <time>2020-06-18T10:23:24Z</time>
      </trkpt>
      <trkpt lat="49.86545" lon="0.89011">
        <ele>26.3</ele>
        <time>2020-06-18T10:23:25Z</time>
      </trkpt>
      <trkpt lat="49.86549" lon="0.89015">
        <ele>26.5</ele>
        <time>2020-06-18T10:23:26Z</time>
      </trkpt>
      <trkpt lat="49.86552" lon="0.89017">
        <ele>26.7</ele>
        <time>2020-06-18T10:23:27Z</time>
      </trkpt>
      <trkpt lat="49.86556" lon="0.8902">
        <ele>26.9</ele>
        <time>2020-06-18T10:23:28Z</time>
      </trkpt>
      <trkpt lat="49.8656" lon="0.89025">
        <ele>27.1</ele>
        <time>2020-06-18T10:23:29Z</time>
      </trkpt>
      <trkpt lat="49.86563" lon="0.89027">
        <ele>27.3</ele>
        <time>2020-06-18T10:23:30Z</time>
      </trkpt>
      <trkpt lat="49.86567" lon="0.8903">
        <ele>27.5</ele>
        <time>2020-06-18T10:23:31Z</time>
      </trkpt>
      <trkpt lat="49.8657" lon="0.89032">
        <ele>27.7</ele>
        <time>2020-06-18T10:23:32Z</time>
      </trkpt>
      <trkpt lat="49.86573" lon="0.89035">
        <ele>27.9</ele>
        <time>2020-06-18T10:23:33Z</time>
      </trkpt>
      <trkpt lat="49.86574" lon="0.89036">
        <ele>28</ele>
        <time>2020-06-18T10:23:34Z</time>
      </trkpt>
      <trkpt lat="49.86578" lon="0.89039">
        <ele>28.2</ele>
        <time>2020-06-18T10:23:35Z</time>
      </trkpt>
      <trkpt lat="49.86581" lon="0.89042">
        <ele>28.5</ele>
        <time>2020-06-18T10:23:36Z</time>
      </trkpt>
      <trkpt lat="49.86584" lon="0.89045">
        <ele>28.7</ele>
        <time>2020-06-18T10:23:37Z</time>
      </trkpt>
      <trkpt lat="49.86587" lon="0.89048">
        <ele>28.9</ele>
        <time>2020-06-18T10:23:38Z</time>
      </trkpt>
      <trkpt lat="49.8659" lon="0.89051">
        <ele>29.1</ele>
        <time>2020-06-18T10:23:39Z</time>
      </trkpt>
      <trkpt lat="49.86594" lon="0.89052">
        <ele>29.3</ele>
        <time>2020-06-18T10:23:40Z</time>
      </trkpt>
      <trkpt lat="49.86597" lon="0.89055">
        <ele>29.5</ele>
        <time>2020-06-18T10:23:41Z</time>
      </trkpt>
      <trkpt lat="49.866" lon="0.89056">
        <ele>29.6</ele>
        <time>2020-06-18T10:23:42Z</time>
      </trkpt>
      <trkpt lat="49.86603" lon="0.89058">
        <ele>29.8</ele>
        <time>2020-06-18T10:23:43Z</time>
      </trkpt>
      <trkpt lat="49.86606" lon="0.8906">
        <ele>30</ele>
        <time>2020-06-18T10:23:44Z</time>
      </trkpt>
      <trkpt lat="49.86609" lon="0.89061">
        <ele>30.2</ele>
        <time>2020-06-18T10:23:45Z</time>
      </trkpt>
      <trkpt lat="49.86613" lon="0.89065">
        <ele>30.4</ele>
        <time>2020-06-18T10:23:46Z</time>
      </trkpt>
      <trkpt lat="49.86615" lon="0.89067">
        <ele>30.6</ele>
        <time>2020-06-18T10:23:47Z</time>
      </trkpt>
      <trkpt lat="49.86619" lon="0.89069">
        <ele>30.8</ele>
        <time>2020-06-18T10:23:48Z</time>
      </trkpt>
      <trkpt lat="49.86622" lon="0.8907">
        <ele>31</ele>
        <time>2020-06-18T10:23:49Z</time>
      </trkpt>
      <trkpt lat="49.86626" lon="0.89074">
        <ele>31.3</ele>
        <time>2020-06-18T10:23:50Z</time>
      </trkpt>
      <trkpt lat="49.86628" lon="0.89075">
        <ele>31.4</ele>
        <time>2020-06-18T10:23:51Z</time>
      </trkpt>
      <trkpt lat="49.86632" lon="0.89077">
        <ele>31.7</ele>
        <time>2020-06-18T10:23:52Z</time>
      </trkpt>
      <trkpt lat="49.86635" lon="0.8908">
        <ele>31.9</ele>
        <time>2020-06-18T10:23:53Z</time>
      </trkpt>
      <trkpt lat="49.86638" lon="0.89082">
        <ele>32.1</ele>
        <time>2020-06-18T10:23:54Z</time>
      </trkpt>
      <trkpt lat="49.86641" lon="0.89084">
        <ele>32.4</ele>
        <time>2020-06-18T10:23:55Z</time>
      </trkpt>
      <trkpt lat="49.86644" lon="0.89087">
        <ele>32.6</ele>
        <time>2020-06-18T10:23:56Z</time>
      </trkpt>
      <trkpt lat="49.86647" lon="0.89089">
        <ele>32.8</ele>
        <time>2020-06-18T10:23:57Z</time>
      </trkpt>
      <trkpt lat="49.8665" lon="0.89092">
        <ele>33.1</ele>
        <time>2020-06-18T10:23:58Z</time>
      </trkpt>
      <trkpt lat="49.86653" lon="0.89093">
        <ele>33.3</ele>
        <time>2020-06-18T10:23:59Z</time>
      </trkpt>
      <trkpt lat="49.86657" lon="0.89096">
        <ele>33.5</ele>
        <time>2020-06-18T10:24:00Z</time>
      </trkpt>
      <trkpt lat="49.86659" lon="0.89098">
        <ele>33.6</ele>
        <time>2020-06-18T10:24:01Z</time>
      </trkpt>
      <trkpt lat="49.86662" lon="0.891">
        <ele>33.8</ele>
        <time>2020-06-18T10:24:02Z</time>
      </trkpt>
      <trkpt lat="49.86665" lon="0.89102">
        <ele>34</ele>
        <time>2020-06-18T10:24:03Z</time>
      </trkpt>
      <trkpt lat="49.86667" lon="0.89103">
        <ele>34.1</ele>
        <time>2020-06-18T10:24:04Z</time>
      </trkpt>
      <trkpt lat="49.8667" lon="0.89105">
        <ele>34.3</ele>
        <time>2020-06-18T10:24:05Z</time>
      </trkpt>
      <trkpt lat="49.86673" lon="0.89107">
        <ele>34.4</ele>
        <time>2020-06-18T10:24:06Z</time>
      </trkpt>
      <trkpt lat="49.86677" lon="0.8911">
        <ele>34.6</ele>
        <time>2020-06-18T10:24:07Z</time>
      </trkpt>
      <trkpt lat="49.86678" lon="0.89111">
        <ele>34.7</ele>
        <time>2020-06-18T10:24:08Z</time>
      </trkpt>
      <trkpt lat="49.86681" lon="0.89115">
        <ele>34.8</ele>
        <time>2020-06-18T10:24:09Z</time>
      </trkpt>
      <trkpt lat="49.86685" lon="0.89118">
        <ele>35</ele>
        <time>2020-06-18T10:24:10Z</time>
      </trkpt>
      <trkpt lat="49.86688" lon="0.89123">
        <ele>35.3</ele>
        <time>2020-06-18T10:24:11Z</time>
      </trkpt>
      <trkpt lat="49.86693" lon="0.89127">
        <ele>35.9</ele>
        <time>2020-06-18T10:24:12Z</time>
      </trkpt>
      <trkpt lat="49.86695" lon="0.8913">
        <ele>36.3</ele>
        <time>2020-06-18T10:24:13Z</time>
      </trkpt>
      <trkpt lat="49.86698" lon="0.89132">
        <ele>36.6</ele>
        <time>2020-06-18T10:24:14Z</time>
      </trkpt>
      <trkpt lat="49.86701" lon="0.89135">
        <ele>36.8</ele>
        <time>2020-06-18T10:24:15Z</time>
      </trkpt>
      <trkpt lat="49.86702" lon="0.89139">
        <ele>37.1</ele>
        <time>2020-06-18T10:24:16Z</time>
      </trkpt>
      <trkpt lat="49.86704" lon="0.89143">
        <ele>37.2</ele>
        <time>2020-06-18T10:24:17Z</time>
      </trkpt>
      <trkpt lat="49.86706" lon="0.89148">
        <ele>37.4</ele>
        <time>2020-06-18T10:24:18Z</time>
      </trkpt>
      <trkpt lat="49.86708" lon="0.89152">
        <ele>37.5</ele>
        <time>2020-06-18T10:24:19Z</time>
      </trkpt>
      <trkpt lat="49.8671" lon="0.89158">
        <ele>37.7</ele>
        <time>2020-06-18T10:24:20Z</time>
      </trkpt>
      <trkpt lat="49.86711" lon="0.89164">
        <ele>37.8</ele>
        <time>2020-06-18T10:24:21Z</time>
      </trkpt>
      <trkpt lat="49.86713" lon="0.89169">
        <ele>38</ele>
        <time>2020-06-18T10:24:22Z</time>
      </trkpt>
      <trkpt lat="49.86714" lon="0.89174">
        <ele>38.1</ele>
        <time>2020-06-18T10:24:23Z</time>
      </trkpt>
      <trkpt lat="49.86716" lon="0.8918">
        <ele>38.3</ele>
        <time>2020-06-18T10:24:24Z</time>
      </trkpt>
      <trkpt lat="49.86716" lon="0.89184">
        <ele>38.4</ele>
        <time>2020-06-18T10:24:25Z</time>
      </trkpt>
      <trkpt lat="49.86717" lon="0.89192">
        <ele>38.5</ele>
        <time>2020-06-18T10:24:26Z</time>
      </trkpt>
      <trkpt lat="49.86718" lon="0.89197">
        <ele>38.7</ele>
        <time>2020-06-18T10:24:27Z</time>
      </trkpt>
      <trkpt lat="49.86718" lon="0.89202">
        <ele>38.7</ele>
        <time>2020-06-18T10:24:28Z</time>
      </trkpt>
      <trkpt lat="49.86719" lon="0.89206">
        <ele>38.8</ele>
        <time>2020-06-18T10:24:29Z</time>
      </trkpt>
      <trkpt lat="49.86719" lon="0.89212">
        <ele>38.9</ele>
        <time>2020-06-18T10:24:30Z</time>
      </trkpt>
      <trkpt lat="49.8672" lon="0.89219">
        <ele>39</ele>
        <time>2020-06-18T10:24:31Z</time>
      </trkpt>
      <trkpt lat="49.86721" lon="0.89225">
        <ele>39.1</ele>
        <time>2020-06-18T10:24:32Z</time>
      </trkpt>
      <trkpt lat="49.86722" lon="0.89232">
        <ele>39.2</ele>
        <time>2020-06-18T10:24:33Z</time>
      </trkpt>
      <trkpt lat="49.86722" lon="0.89238">
        <ele>39.3</ele>
        <time>2020-06-18T10:24:34Z</time>
      </trkpt>
      <trkpt lat="49.86723" lon="0.89244">
        <ele>39.3</ele>
        <time>2020-06-18T10:24:35Z</time>
      </trkpt>
      <trkpt lat="49.86724" lon="0.8925">
        <ele>39.4</ele>
        <time>2020-06-18T10:24:36Z</time>
      </trkpt>
      <trkpt lat="49.86724" lon="0.89255">
        <ele>39.6</ele>
        <time>2020-06-18T10:24:37Z</time>
      </trkpt>
      <trkpt lat="49.86724" lon="0.89262">
        <ele>39.7</ele>
        <time>2020-06-18T10:24:38Z</time>
      </trkpt>
      <trkpt lat="49.86724" lon="0.89267">
        <ele>39.8</ele>
        <time>2020-06-18T10:24:39Z</time>
      </trkpt>
      <trkpt lat="49.86725" lon="0.89273">
        <ele>40</ele>
        <time>2020-06-18T10:24:40Z</time>
      </trkpt>
      <trkpt lat="49.86725" lon="0.89278">
        <ele>40.1</ele>
        <time>2020-06-18T10:24:41Z</time>
      </trkpt>
      <trkpt lat="49.86726" lon="0.89283">
        <ele>40.2</ele>
        <time>2020-06-18T10:24:42Z</time>
      </trkpt>
      <trkpt lat="49.86726" lon="0.89288">
        <ele>40.3</ele>
        <time>2020-06-18T10:24:43Z</time>
      </trkpt>
      <trkpt lat="49.86727" lon="0.89294">
        <ele>40.5</ele>
        <time>2020-06-18T10:24:44Z</time>
      </trkpt>
      <trkpt lat="49.86728" lon="0.89299">
        <ele>40.6</ele>
        <time>2020-06-18T10:24:45Z</time>
      </trkpt>
      <trkpt lat="49.86728" lon="0.89306">
        <ele>40.7</ele>
        <time>2020-06-18T10:24:46Z</time>
      </trkpt>
      <trkpt lat="49.86729" lon="0.89312">
        <ele>40.9</ele>
        <time>2020-06-18T10:24:47Z</time>
      </trkpt>
      <trkpt lat="49.8673" lon="0.89318">
        <ele>41</ele>
        <time>2020-06-18T10:24:48Z</time>
      </trkpt>
      <trkpt lat="49.8673" lon="0.89324">
        <ele>41.1</ele>
        <time>2020-06-18T10:24:49Z</time>
      </trkpt>
      <trkpt lat="49.86732" lon="0.89328">
        <ele>41.1</ele>
        <time>2020-06-18T10:24:50Z</time>
      </trkpt>
      <trkpt lat="49.86732" lon="0.8933">
        <ele>41.2</ele>
        <time>2020-06-18T10:24:51Z</time>
      </trkpt>
      <trkpt lat="49.86732" lon="0.89336">
        <ele>41.3</ele>
        <time>2020-06-18T10:24:52Z</time>
      </trkpt>
      <trkpt lat="49.86733" lon="0.89343">
        <ele>41.4</ele>
        <time>2020-06-18T10:24:53Z</time>
      </trkpt>
      <trkpt lat="49.86733" lon="0.89349">
        <ele>41.5</ele>
        <time>2020-06-18T10:24:54Z</time>
      </trkpt>
      <trkpt lat="49.86733" lon="0.89354">
        <ele>41.6</ele>
        <time>2020-06-18T10:24:55Z</time>
      </trkpt>
      <trkpt lat="49.86735" lon="0.89361">
        <ele>41.7</ele>
        <time>2020-06-18T10:24:56Z</time>
      </trkpt>
      <trkpt lat="49.86735" lon="0.89367">
        <ele>41.8</ele>
        <time>2020-06-18T10:24:57Z</time>
      </trkpt>
      <trkpt lat="49.86735" lon="0.89374">
        <ele>42</ele>
        <time>2020-06-18T10:24:58Z</time>
      </trkpt>
      <trkpt lat="49.86735" lon="0.89381">
        <ele>42.1</ele>
        <time>2020-06-18T10:24:59Z</time>
      </trkpt>
      <trkpt lat="49.86735" lon="0.89389">
        <ele>42.3</ele>
        <time>2020-06-18T10:25:00Z</time>
      </trkpt>
      <trkpt lat="49.86736" lon="0.89397">
        <ele>42.4</ele>
        <time>2020-06-18T10:25:01Z</time>
      </trkpt>
      <trkpt lat="49.86737" lon="0.89406">
        <ele>42.6</ele>
        <time>2020-06-18T10:25:02Z</time>
      </trkpt>
      <trkpt lat="49.86737" lon="0.89414">
        <ele>42.7</ele>
        <time>2020-06-18T10:25:03Z</time>
      </trkpt>
      <trkpt lat="49.86738" lon="0.89422">
        <ele>42.7</ele>
        <time>2020-06-18T10:25:04Z</time>
      </trkpt>
      <trkpt lat="49.86738" lon="0.8943">
        <ele>42.8</ele>
        <time>2020-06-18T10:25:05Z</time>
      </trkpt>
      <trkpt lat="49.86739" lon="0.89436">
        <ele>42.9</ele>
        <time>2020-06-18T10:25:06Z</time>
      </trkpt>
      <trkpt lat="49.8674" lon="0.89443">
        <ele>42.9</ele>
        <time>2020-06-18T10:25:07Z</time>
      </trkpt>
      <trkpt lat="49.86741" lon="0.89452">
        <ele>43.1</ele>
        <time>2020-06-18T10:25:08Z</time>
      </trkpt>
      <trkpt lat="49.86742" lon="0.8946">
        <ele>43.2</ele>
        <time>2020-06-18T10:25:09Z</time>
      </trkpt>
      <trkpt lat="49.86743" lon="0.89467">
        <ele>43.5</ele>
        <time>2020-06-18T10:25:10Z</time>
      </trkpt>
      <trkpt lat="49.86744" lon="0.89474">
        <ele>43.6</ele>
        <time>2020-06-18T10:25:11Z</time>
      </trkpt>
      <trkpt lat="49.86746" lon="0.89481">
        <ele>43.8</ele>
        <time>2020-06-18T10:25:12Z</time>
      </trkpt>
      <trkpt lat="49.86747" lon="0.89489">
        <ele>43.9</ele>
        <time>2020-06-18T10:25:13Z</time>
      </trkpt>
      <trkpt lat="49.86746" lon="0.89494">
        <ele>44</ele>
        <time>2020-06-18T10:25:14Z</time>
      </trkpt>
      <trkpt lat="49.86747" lon="0.895">
        <ele>44</ele>
        <time>2020-06-18T10:25:15Z</time>
      </trkpt>
      <trkpt lat="49.86748" lon="0.89505">
        <ele>44.1</ele>
        <time>2020-06-18T10:25:16Z</time>
      </trkpt>
      <trkpt lat="49.86748" lon="0.89512">
        <ele>44.2</ele>
        <time>2020-06-18T10:25:17Z</time>
      </trkpt>
      <trkpt lat="49.86749" lon="0.89519">
        <ele>44.3</ele>
        <time>2020-06-18T10:25:18Z</time>
      </trkpt>
      <trkpt lat="49.86749" lon="0.89527">
        <ele>44.4</ele>
        <time>2020-06-18T10:25:19Z</time>
      </trkpt>
      <trkpt lat="49.8675" lon="0.89535">
        <ele>44.6</ele>
        <time>2020-06-18T10:25:20Z</time>
      </trkpt>
      <trkpt lat="49.8675" lon="0.89538">
        <ele>44.6</ele>
        <time>2020-06-18T10:25:21Z</time>
      </trkpt>
      <trkpt lat="49.86751" lon="0.89544">
        <ele>44.7</ele>
        <time>2020-06-18T10:25:22Z</time>
      </trkpt>
      <trkpt lat="49.86753" lon="0.89551">
        <ele>44.9</ele>
        <time>2020-06-18T10:25:23Z</time>
      </trkpt>
      <trkpt lat="49.86754" lon="0.89559">
        <ele>45</ele>
        <time>2020-06-18T10:25:24Z</time>
      </trkpt>
      <trkpt lat="49.86755" lon="0.89566">
        <ele>45.2</ele>
        <time>2020-06-18T10:25:25Z</time>
      </trkpt>
      <trkpt lat="49.86755" lon="0.89574">
        <ele>45.4</ele>
        <time>2020-06-18T10:25:26Z</time>
      </trkpt>
      <trkpt lat="49.86757" lon="0.89581">
        <ele>45.5</ele>
        <time>2020-06-18T10:25:27Z</time>
      </trkpt>
      <trkpt lat="49.86757" lon="0.89588">
        <ele>45.7</ele>
        <time>2020-06-18T10:25:28Z</time>
      </trkpt>
      <trkpt lat="49.86757" lon="0.89595">
        <ele>45.7</ele>
        <time>2020-06-18T10:25:29Z</time>
      </trkpt>
      <trkpt lat="49.86758" lon="0.896">
        <ele>45.8</ele>
        <time>2020-06-18T10:25:30Z</time>
      </trkpt>
      <trkpt lat="49.86758" lon="0.89608">
        <ele>46</ele>
        <time>2020-06-18T10:25:31Z</time>
      </trkpt>
      <trkpt lat="49.86759" lon="0.89614">
        <ele>46.1</ele>
        <time>2020-06-18T10:25:32Z</time>
      </trkpt>
      <trkpt lat="49.8676" lon="0.89622">
        <ele>46.2</ele>
        <time>2020-06-18T10:25:33Z</time>
      </trkpt>
      <trkpt lat="49.8676" lon="0.8963">
        <ele>46.4</ele>
        <time>2020-06-18T10:25:34Z</time>
      </trkpt>
      <trkpt lat="49.86761" lon="0.89638">
        <ele>46.5</ele>
        <time>2020-06-18T10:25:35Z</time>
      </trkpt>
      <trkpt lat="49.86762" lon="0.89645">
        <ele>46.6</ele>
        <time>2020-06-18T10:25:36Z</time>
      </trkpt>
      <trkpt lat="49.86762" lon="0.89651">
        <ele>46.7</ele>
        <time>2020-06-18T10:25:37Z</time>
      </trkpt>
      <trkpt lat="49.86763" lon="0.89658">
        <ele>46.8</ele>
        <time>2020-06-18T10:25:38Z</time>
      </trkpt>
      <trkpt lat="49.86763" lon="0.89663">
        <ele>46.9</ele>
        <time>2020-06-18T10:25:39Z</time>
      </trkpt>
      <trkpt lat="49.86764" lon="0.89672">
        <ele>47</ele>
        <time>2020-06-18T10:25:40Z</time>
      </trkpt>
      <trkpt lat="49.86765" lon="0.89678">
        <ele>47.1</ele>
        <time>2020-06-18T10:25:41Z</time>
      </trkpt>
      <trkpt lat="49.86766" lon="0.89686">
        <ele>47.3</ele>
        <time>2020-06-18T10:25:42Z</time>
      </trkpt>
      <trkpt lat="49.86768" lon="0.89692">
        <ele>47.4</ele>
        <time>2020-06-18T10:25:43Z</time>
      </trkpt>
      <trkpt lat="49.86769" lon="0.89699">
        <ele>47.5</ele>
        <time>2020-06-18T10:25:44Z</time>
      </trkpt>
      <trkpt lat="49.86769" lon="0.89707">
        <ele>47.6</ele>
        <time>2020-06-18T10:25:45Z</time>
      </trkpt>
      <trkpt lat="49.8677" lon="0.89714">
        <ele>47.7</ele>
        <time>2020-06-18T10:25:46Z</time>
      </trkpt>
      <trkpt lat="49.86771" lon="0.89721">
        <ele>47.8</ele>
        <time>2020-06-18T10:25:47Z</time>
      </trkpt>
      <trkpt lat="49.86772" lon="0.89729">
        <ele>47.9</ele>
        <time>2020-06-18T10:25:48Z</time>
      </trkpt>
      <trkpt lat="49.86773" lon="0.89736">
        <ele>48</ele>
        <time>2020-06-18T10:25:49Z</time>
      </trkpt>
      <trkpt lat="49.86774" lon="0.89743">
        <ele>48.1</ele>
        <time>2020-06-18T10:25:50Z</time>
      </trkpt>
      <trkpt lat="49.86774" lon="0.89749">
        <ele>48.1</ele>
        <time>2020-06-18T10:25:51Z</time>
      </trkpt>
      <trkpt lat="49.86775" lon="0.89756">
        <ele>48.2</ele>
        <time>2020-06-18T10:25:52Z</time>
      </trkpt>
      <trkpt lat="49.86775" lon="0.89763">
        <ele>48.3</ele>
        <time>2020-06-18T10:25:53Z</time>
      </trkpt>
      <trkpt lat="49.86776" lon="0.89769">
        <ele>48.4</ele>
        <time>2020-06-18T10:25:54Z</time>
      </trkpt>
      <trkpt lat="49.86777" lon="0.89778">
        <ele>48.6</ele>
        <time>2020-06-18T10:25:55Z</time>
      </trkpt>
      <trkpt lat="49.86778" lon="0.89787">
        <ele>48.7</ele>
        <time>2020-06-18T10:25:56Z</time>
      </trkpt>
      <trkpt lat="49.86779" lon="0.89795">
        <ele>48.8</ele>
        <time>2020-06-18T10:25:57Z</time>
      </trkpt>
      <trkpt lat="49.8678" lon="0.89801">
        <ele>48.9</ele>
        <time>2020-06-18T10:25:58Z</time>
      </trkpt>
      <trkpt lat="49.86781" lon="0.89808">
        <ele>48.9</ele>
        <time>2020-06-18T10:25:59Z</time>
      </trkpt>
      <trkpt lat="49.86781" lon="0.89815">
        <ele>49</ele>
        <time>2020-06-18T10:26:00Z</time>
      </trkpt>
      <trkpt lat="49.86781" lon="0.89821">
        <ele>49</ele>
        <time>2020-06-18T10:26:01Z</time>
      </trkpt>
      <trkpt lat="49.86782" lon="0.89828">
        <ele>49.1</ele>
        <time>2020-06-18T10:26:02Z</time>
      </trkpt>
      <trkpt lat="49.86782" lon="0.89836">
        <ele>49.1</ele>
        <time>2020-06-18T10:26:03Z</time>
      </trkpt>
      <trkpt lat="49.86783" lon="0.89842">
        <ele>49.1</ele>
        <time>2020-06-18T10:26:04Z</time>
      </trkpt>
      <trkpt lat="49.86785" lon="0.89847">
        <ele>49.1</ele>
        <time>2020-06-18T10:26:05Z</time>
      </trkpt>
      <trkpt lat="49.86786" lon="0.89854">
        <ele>49.1</ele>
        <time>2020-06-18T10:26:06Z</time>
      </trkpt>
      <trkpt lat="49.86788" lon="0.89861">
        <ele>49</ele>
        <time>2020-06-18T10:26:07Z</time>
      </trkpt>
      <trkpt lat="49.86789" lon="0.89868">
        <ele>49</ele>
        <time>2020-06-18T10:26:08Z</time>
      </trkpt>
      <trkpt lat="49.8679" lon="0.89876">
        <ele>49</ele>
        <time>2020-06-18T10:26:09Z</time>
      </trkpt>
      <trkpt lat="49.86791" lon="0.89885">
        <ele>48.9</ele>
        <time>2020-06-18T10:26:10Z</time>
      </trkpt>
      <trkpt lat="49.86792" lon="0.89893">
        <ele>48.9</ele>
        <time>2020-06-18T10:26:11Z</time>
      </trkpt>
      <trkpt lat="49.86794" lon="0.89901">
        <ele>48.8</ele>
        <time>2020-06-18T10:26:12Z</time>
      </trkpt>
      <trkpt lat="49.86793" lon="0.89909">
        <ele>48.8</ele>
        <time>2020-06-18T10:26:13Z</time>
      </trkpt>
      <trkpt lat="49.86795" lon="0.89915">
        <ele>48.7</ele>
        <time>2020-06-18T10:26:14Z</time>
      </trkpt>
      <trkpt lat="49.86796" lon="0.89924">
        <ele>48.6</ele>
        <time>2020-06-18T10:26:15Z</time>
      </trkpt>
      <trkpt lat="49.86799" lon="0.89934">
        <ele>48.4</ele>
        <time>2020-06-18T10:26:16Z</time>
      </trkpt>
      <trkpt lat="49.868" lon="0.89944">
        <ele>48.7</ele>
        <time>2020-06-18T10:26:17Z</time>
      </trkpt>
      <trkpt lat="49.86802" lon="0.89954">
        <ele>48.8</ele>
        <time>2020-06-18T10:26:18Z</time>
      </trkpt>
      <trkpt lat="49.86803" lon="0.89962">
        <ele>48.8</ele>
        <time>2020-06-18T10:26:19Z</time>
      </trkpt>
      <trkpt lat="49.86804" lon="0.89971">
        <ele>48.7</ele>
        <time>2020-06-18T10:26:20Z</time>
      </trkpt>
      <trkpt lat="49.86806" lon="0.89981">
        <ele>48.6</ele>
        <time>2020-06-18T10:26:21Z</time>
      </trkpt>
      <trkpt lat="49.86808" lon="0.8999">
        <ele>48.5</ele>
        <time>2020-06-18T10:26:22Z</time>
      </trkpt>
      <trkpt lat="49.86811" lon="0.9">
        <ele>48.5</ele>
        <time>2020-06-18T10:26:23Z</time>
      </trkpt>
      <trkpt lat="49.86812" lon="0.9001">
        <ele>48.4</ele>
        <time>2020-06-18T10:26:24Z</time>
      </trkpt>
      <trkpt lat="49.86814" lon="0.90018">
        <ele>48.3</ele>
        <time>2020-06-18T10:26:25Z</time>
      </trkpt>
      <trkpt lat="49.86815" lon="0.90027">
        <ele>48.3</ele>
        <time>2020-06-18T10:26:26Z</time>
      </trkpt>
      <trkpt lat="49.86816" lon="0.90035">
        <ele>48.2</ele>
        <time>2020-06-18T10:26:27Z</time>
      </trkpt>
      <trkpt lat="49.86818" lon="0.90044">
        <ele>48.1</ele>
        <time>2020-06-18T10:26:28Z</time>
      </trkpt>
      <trkpt lat="49.86819" lon="0.90052">
        <ele>48.1</ele>
        <time>2020-06-18T10:26:29Z</time>
      </trkpt>
      <trkpt lat="49.8682" lon="0.9006">
        <ele>48</ele>
        <time>2020-06-18T10:26:30Z</time>
      </trkpt>
      <trkpt lat="49.86821" lon="0.90069">
        <ele>47.9</ele>
        <time>2020-06-18T10:26:31Z</time>
      </trkpt>
      <trkpt lat="49.86823" lon="0.90077">
        <ele>47.7</ele>
        <time>2020-06-18T10:26:32Z</time>
      </trkpt>
      <trkpt lat="49.86825" lon="0.90087">
        <ele>47.6</ele>
        <time>2020-06-18T10:26:33Z</time>
      </trkpt>
      <trkpt lat="49.86826" lon="0.90096">
        <ele>47.4</ele>
        <time>2020-06-18T10:26:34Z</time>
      </trkpt>
      <trkpt lat="49.86827" lon="0.90106">
        <ele>47.3</ele>
        <time>2020-06-18T10:26:35Z</time>
      </trkpt>
      <trkpt lat="49.86829" lon="0.90115">
        <ele>47.1</ele>
        <time>2020-06-18T10:26:36Z</time>
      </trkpt>
      <trkpt lat="49.86831" lon="0.90125">
        <ele>46.9</ele>
        <time>2020-06-18T10:26:37Z</time>
      </trkpt>
      <trkpt lat="49.86833" lon="0.90134">
        <ele>46.6</ele>
        <time>2020-06-18T10:26:38Z</time>
      </trkpt>
      <trkpt lat="49.86835" lon="0.90144">
        <ele>46.4</ele>
        <time>2020-06-18T10:26:39Z</time>
      </trkpt>
      <trkpt lat="49.86836" lon="0.90153">
        <ele>46.2</ele>
        <time>2020-06-18T10:26:40Z</time>
      </trkpt>
      <trkpt lat="49.86838" lon="0.90163">
        <ele>46.1</ele>
        <time>2020-06-18T10:26:41Z</time>
      </trkpt>
      <trkpt lat="49.8684" lon="0.90173">
        <ele>46.1</ele>
        <time>2020-06-18T10:26:42Z</time>
      </trkpt>
      <trkpt lat="49.86842" lon="0.90184">
        <ele>46</ele>
        <time>2020-06-18T10:26:43Z</time>
      </trkpt>
      <trkpt lat="49.86844" lon="0.90194">
        <ele>46</ele>
        <time>2020-06-18T10:26:44Z</time>
      </trkpt>
      <trkpt lat="49.86846" lon="0.90205">
        <ele>45.8</ele>
        <time>2020-06-18T10:26:45Z</time>
      </trkpt>
      <trkpt lat="49.86848" lon="0.90215">
        <ele>45.5</ele>
        <time>2020-06-18T10:26:46Z</time>
      </trkpt>
      <trkpt lat="49.8685" lon="0.90226">
        <ele>45.3</ele>
        <time>2020-06-18T10:26:47Z</time>
      </trkpt>
      <trkpt lat="49.86852" lon="0.90237">
        <ele>45.2</ele>
        <time>2020-06-18T10:26:48Z</time>
      </trkpt>
      <trkpt lat="49.86854" lon="0.90248">
        <ele>45</ele>
        <time>2020-06-18T10:26:49Z</time>
      </trkpt>
      <trkpt lat="49.86856" lon="0.9026">
        <ele>44.9</ele>
        <time>2020-06-18T10:26:50Z</time>
      </trkpt>
      <trkpt lat="49.86858" lon="0.90271">
        <ele>44.7</ele>
        <time>2020-06-18T10:26:51Z</time>
      </trkpt>
      <trkpt lat="49.8686" lon="0.90283">
        <ele>44.6</ele>
        <time>2020-06-18T10:26:52Z</time>
      </trkpt>
      <trkpt lat="49.86862" lon="0.90295">
        <ele>44.5</ele>
        <time>2020-06-18T10:26:53Z</time>
      </trkpt>
      <trkpt lat="49.86864" lon="0.90306">
        <ele>44.4</ele>
        <time>2020-06-18T10:26:54Z</time>
      </trkpt>
      <trkpt lat="49.86866" lon="0.90318">
        <ele>44.4</ele>
        <time>2020-06-18T10:26:55Z</time>
      </trkpt>
      <trkpt lat="49.86868" lon="0.90329">
        <ele>44.4</ele>
        <time>2020-06-18T10:26:56Z</time>
      </trkpt>
      <trkpt lat="49.8687" lon="0.9034">
        <ele>44.4</ele>
        <time>2020-06-18T10:26:57Z</time>
      </trkpt>
      <trkpt lat="49.86872" lon="0.90352">
        <ele>44.4</ele>
        <time>2020-06-18T10:26:58Z</time>
      </trkpt>
      <trkpt lat="49.86874" lon="0.90363">
        <ele>44.4</ele>
        <time>2020-06-18T10:26:59Z</time>
      </trkpt>
      <trkpt lat="49.86876" lon="0.90374">
        <ele>44.5</ele>
        <time>2020-06-18T10:27:00Z</time>
      </trkpt>
      <trkpt lat="49.86878" lon="0.90385">
        <ele>44.6</ele>
        <time>2020-06-18T10:27:01Z</time>
      </trkpt>
      <trkpt lat="49.8688" lon="0.90395">
        <ele>44.7</ele>
        <time>2020-06-18T10:27:02Z</time>
      </trkpt>
      <trkpt lat="49.86882" lon="0.90406">
        <ele>44.8</ele>
        <time>2020-06-18T10:27:03Z</time>
      </trkpt>
      <trkpt lat="49.86884" lon="0.90416">
        <ele>44.9</ele>
        <time>2020-06-18T10:27:04Z</time>
      </trkpt>
      <trkpt lat="49.86885" lon="0.90427">
        <ele>44.9</ele>
        <time>2020-06-18T10:27:05Z</time>
      </trkpt>
      <trkpt lat="49.86887" lon="0.90437">
        <ele>45</ele>
        <time>2020-06-18T10:27:06Z</time>
      </trkpt>
      <trkpt lat="49.86889" lon="0.90447">
        <ele>45</ele>
        <time>2020-06-18T10:27:07Z</time>
      </trkpt>
      <trkpt lat="49.8689" lon="0.90457">
        <ele>45.2</ele>
        <time>2020-06-18T10:27:08Z</time>
      </trkpt>
      <trkpt lat="49.86892" lon="0.90466">
        <ele>45.3</ele>
        <time>2020-06-18T10:27:09Z</time>
      </trkpt>
      <trkpt lat="49.86893" lon="0.90476">
        <ele>45.5</ele>
        <time>2020-06-18T10:27:10Z</time>
      </trkpt>
      <trkpt lat="49.86895" lon="0.90485">
        <ele>45.6</ele>
        <time>2020-06-18T10:27:11Z</time>
      </trkpt>
      <trkpt lat="49.86897" lon="0.90494">
        <ele>45.7</ele>
        <time>2020-06-18T10:27:12Z</time>
      </trkpt>
      <trkpt lat="49.86898" lon="0.90504">
        <ele>45.8</ele>
        <time>2020-06-18T10:27:13Z</time>
      </trkpt>
      <trkpt lat="49.869" lon="0.90513">
        <ele>46</ele>
        <time>2020-06-18T10:27:14Z</time>
      </trkpt>
      <trkpt lat="49.86901" lon="0.90523">
        <ele>46.2</ele>
        <time>2020-06-18T10:27:15Z</time>
      </trkpt>
      <trkpt lat="49.86903" lon="0.90532">
        <ele>46.3</ele>
        <time>2020-06-18T10:27:16Z</time>
      </trkpt>
      <trkpt lat="49.86904" lon="0.90541">
        <ele>46.4</ele>
        <time>2020-06-18T10:27:17Z</time>
      </trkpt>
      <trkpt lat="49.86906" lon="0.9055">
        <ele>46.4</ele>
        <time>2020-06-18T10:27:18Z</time>
      </trkpt>
      <trkpt lat="49.86908" lon="0.90558">
        <ele>46.4</ele>
        <time>2020-06-18T10:27:19Z</time>
      </trkpt>
      <trkpt lat="49.8691" lon="0.90567">
        <ele>46.5</ele>
        <time>2020-06-18T10:27:20Z</time>
      </trkpt>
      <trkpt lat="49.86911" lon="0.90575">
        <ele>46.5</ele>
        <time>2020-06-18T10:27:21Z</time>
      </trkpt>
      <trkpt lat="49.86912" lon="0.90584">
        <ele>46.6</ele>
        <time>2020-06-18T10:27:22Z</time>
      </trkpt>
      <trkpt lat="49.86914" lon="0.90593">
        <ele>46.7</ele>
        <time>2020-06-18T10:27:23Z</time>
      </trkpt>
      <trkpt lat="49.86915" lon="0.90601">
        <ele>46.7</ele>
        <time>2020-06-18T10:27:24Z</time>
      </trkpt>
      <trkpt lat="49.86917" lon="0.9061">
        <ele>46.8</ele>
        <time>2020-06-18T10:27:25Z</time>
      </trkpt>
      <trkpt lat="49.86918" lon="0.90619">
        <ele>46.8</ele>
        <time>2020-06-18T10:27:26Z</time>
      </trkpt>
      <trkpt lat="49.86919" lon="0.90627">
        <ele>46.9</ele>
        <time>2020-06-18T10:27:27Z</time>
      </trkpt>
      <trkpt lat="49.86921" lon="0.90636">
        <ele>47</ele>
        <time>2020-06-18T10:27:28Z</time>
      </trkpt>
      <trkpt lat="49.86923" lon="0.90643">
        <ele>47</ele>
        <time>2020-06-18T10:27:29Z</time>
      </trkpt>
      <trkpt lat="49.86925" lon="0.90652">
        <ele>47</ele>
        <time>2020-06-18T10:27:30Z</time>
      </trkpt>
      <trkpt lat="49.86927" lon="0.9066">
        <ele>47</ele>
        <time>2020-06-18T10:27:31Z</time>
      </trkpt>
      <trkpt lat="49.86928" lon="0.90669">
        <ele>47.1</ele>
        <time>2020-06-18T10:27:32Z</time>
      </trkpt>
      <trkpt lat="49.86929" lon="0.90677">
        <ele>47.1</ele>
        <time>2020-06-18T10:27:33Z</time>
      </trkpt>
      <trkpt lat="49.86931" lon="0.90686">
        <ele>47.1</ele>
        <time>2020-06-18T10:27:34Z</time>
      </trkpt>
      <trkpt lat="49.86932" lon="0.90694">
        <ele>47.1</ele>
        <time>2020-06-18T10:27:35Z</time>
      </trkpt>
      <trkpt lat="49.86934" lon="0.90702">
        <ele>47</ele>
        <time>2020-06-18T10:27:36Z</time>
      </trkpt>
      <trkpt lat="49.86935" lon="0.9071">
        <ele>47</ele>
        <time>2020-06-18T10:27:37Z</time>
      </trkpt>
      <trkpt lat="49.86936" lon="0.90718">
        <ele>47</ele>
        <time>2020-06-18T10:27:38Z</time>
      </trkpt>
      <trkpt lat="49.86938" lon="0.90726">
        <ele>47</ele>
        <time>2020-06-18T10:27:39Z</time>
      </trkpt>
      <trkpt lat="49.8694" lon="0.90734">
        <ele>47</ele>
        <time>2020-06-18T10:27:40Z</time>
      </trkpt>
      <trkpt lat="49.86941" lon="0.90743">
        <ele>47</ele>
        <time>2020-06-18T10:27:41Z</time>
      </trkpt>
      <trkpt lat="49.86942" lon="0.90753">
        <ele>47</ele>
        <time>2020-06-18T10:27:42Z</time>
      </trkpt>
      <trkpt lat="49.86944" lon="0.90762">
        <ele>47</ele>
        <time>2020-06-18T10:27:43Z</time>
      </trkpt>
      <trkpt lat="49.86945" lon="0.90771">
        <ele>47</ele>
        <time>2020-06-18T10:27:44Z</time>
      </trkpt>
      <trkpt lat="49.86947" lon="0.9078">
        <ele>47</ele>
        <time>2020-06-18T10:27:45Z</time>
      </trkpt>
      <trkpt lat="49.86948" lon="0.9079">
        <ele>47</ele>
        <time>2020-06-18T10:27:46Z</time>
      </trkpt>
      <trkpt lat="49.8695" lon="0.90799">
        <ele>47</ele>
        <time>2020-06-18T10:27:47Z</time>
      </trkpt>
      <trkpt lat="49.86952" lon="0.90809">
        <ele>47</ele>
        <time>2020-06-18T10:27:48Z</time>
      </trkpt>
      <trkpt lat="49.86954" lon="0.90818">
        <ele>47</ele>
        <time>2020-06-18T10:27:49Z</time>
      </trkpt>
      <trkpt lat="49.86955" lon="0.90827">
        <ele>47.1</ele>
        <time>2020-06-18T10:27:50Z</time>
      </trkpt>
      <trkpt lat="49.86956" lon="0.90836">
        <ele>47.1</ele>
        <time>2020-06-18T10:27:51Z</time>
      </trkpt>
      <trkpt lat="49.86958" lon="0.90845">
        <ele>47.1</ele>
        <time>2020-06-18T10:27:52Z</time>
      </trkpt>
      <trkpt lat="49.8696" lon="0.90853">
        <ele>47.2</ele>
        <time>2020-06-18T10:27:53Z</time>
      </trkpt>
      <trkpt lat="49.86961" lon="0.90863">
        <ele>47.2</ele>
        <time>2020-06-18T10:27:54Z</time>
      </trkpt>
      <trkpt lat="49.86964" lon="0.90872">
        <ele>47.3</ele>
        <time>2020-06-18T10:27:55Z</time>
      </trkpt>
      <trkpt lat="49.86965" lon="0.90882">
        <ele>47.4</ele>
        <time>2020-06-18T10:27:56Z</time>
      </trkpt>
      <trkpt lat="49.86966" lon="0.9089">
        <ele>47.5</ele>
        <time>2020-06-18T10:27:57Z</time>
      </trkpt>
      <trkpt lat="49.86968" lon="0.90898">
        <ele>47.5</ele>
        <time>2020-06-18T10:27:58Z</time>
      </trkpt>
      <trkpt lat="49.86969" lon="0.90907">
        <ele>47.5</ele>
        <time>2020-06-18T10:27:59Z</time>
      </trkpt>
      <trkpt lat="49.8697" lon="0.90916">
        <ele>47.5</ele>
        <time>2020-06-18T10:28:00Z</time>
      </trkpt>
      <trkpt lat="49.86972" lon="0.90925">
        <ele>47.5</ele>
        <time>2020-06-18T10:28:01Z</time>
      </trkpt>
      <trkpt lat="49.86973" lon="0.90932">
        <ele>47.4</ele>
        <time>2020-06-18T10:28:02Z</time>
      </trkpt>
      <trkpt lat="49.86975" lon="0.90941">
        <ele>47.4</ele>
        <time>2020-06-18T10:28:03Z</time>
      </trkpt>
      <trkpt lat="49.86977" lon="0.9095">
        <ele>47.4</ele>
        <time>2020-06-18T10:28:04Z</time>
      </trkpt>
      <trkpt lat="49.86979" lon="0.90958">
        <ele>47.3</ele>
        <time>2020-06-18T10:28:05Z</time>
      </trkpt>
      <trkpt lat="49.8698" lon="0.90968">
        <ele>47.3</ele>
        <time>2020-06-18T10:28:06Z</time>
      </trkpt>
      <trkpt lat="49.8698" lon="0.90975">
        <ele>47.2</ele>
        <time>2020-06-18T10:28:07Z</time>
      </trkpt>
      <trkpt lat="49.86981" lon="0.90984">
        <ele>47.2</ele>
        <time>2020-06-18T10:28:08Z</time>
      </trkpt>
      <trkpt lat="49.86982" lon="0.90994">
        <ele>47.1</ele>
        <time>2020-06-18T10:28:09Z</time>
      </trkpt>
      <trkpt lat="49.86983" lon="0.91003">
        <ele>47</ele>
        <time>2020-06-18T10:28:10Z</time>
      </trkpt>
      <trkpt lat="49.86984" lon="0.91012">
        <ele>47</ele>
        <time>2020-06-18T10:28:11Z</time>
      </trkpt>
      <trkpt lat="49.86986" lon="0.91022">
        <ele>47</ele>
        <time>2020-06-18T10:28:12Z</time>
      </trkpt>
      <trkpt lat="49.86989" lon="0.91032">
        <ele>47</ele>
        <time>2020-06-18T10:28:13Z</time>
      </trkpt>
      <trkpt lat="49.86991" lon="0.91043">
        <ele>47</ele>
        <time>2020-06-18T10:28:14Z</time>
      </trkpt>
      <trkpt lat="49.86992" lon="0.91051">
        <ele>46.9</ele>
        <time>2020-06-18T10:28:15Z</time>
      </trkpt>
      <trkpt lat="49.86995" lon="0.91059">
        <ele>46.9</ele>
        <time>2020-06-18T10:28:16Z</time>
      </trkpt>
      <trkpt lat="49.86997" lon="0.91068">
        <ele>46.9</ele>
        <time>2020-06-18T10:28:17Z</time>
      </trkpt>
      <trkpt lat="49.86999" lon="0.91077">
        <ele>46.9</ele>
        <time>2020-06-18T10:28:18Z</time>
      </trkpt>
      <trkpt lat="49.87001" lon="0.91085">
        <ele>46.9</ele>
        <time>2020-06-18T10:28:19Z</time>
      </trkpt>
      <trkpt lat="49.87002" lon="0.91094">
        <ele>46.9</ele>
        <time>2020-06-18T10:28:20Z</time>
      </trkpt>
      <trkpt lat="49.87003" lon="0.91104">
        <ele>46.9</ele>
        <time>2020-06-18T10:28:21Z</time>
      </trkpt>
      <trkpt lat="49.87005" lon="0.91113">
        <ele>46.9</ele>
        <time>2020-06-18T10:28:22Z</time>
      </trkpt>
      <trkpt lat="49.87007" lon="0.91122">
        <ele>46.9</ele>
        <time>2020-06-18T10:28:23Z</time>
      </trkpt>
      <trkpt lat="49.87009" lon="0.91131">
        <ele>47</ele>
        <time>2020-06-18T10:28:24Z</time>
      </trkpt>
      <trkpt lat="49.8701" lon="0.9114">
        <ele>47.1</ele>
        <time>2020-06-18T10:28:25Z</time>
      </trkpt>
      <trkpt lat="49.87012" lon="0.91149">
        <ele>47.3</ele>
        <time>2020-06-18T10:28:26Z</time>
      </trkpt>
      <trkpt lat="49.87014" lon="0.91159">
        <ele>47.5</ele>
        <time>2020-06-18T10:28:27Z</time>
      </trkpt>
      <trkpt lat="49.87015" lon="0.91168">
        <ele>47.6</ele>
        <time>2020-06-18T10:28:28Z</time>
      </trkpt>
      <trkpt lat="49.87017" lon="0.91177">
        <ele>47.6</ele>
        <time>2020-06-18T10:28:29Z</time>
      </trkpt>
      <trkpt lat="49.87018" lon="0.91186">
        <ele>47.4</ele>
        <time>2020-06-18T10:28:30Z</time>
      </trkpt>
      <trkpt lat="49.8702" lon="0.91196">
        <ele>47.2</ele>
        <time>2020-06-18T10:28:31Z</time>
      </trkpt>
      <trkpt lat="49.87021" lon="0.91205">
        <ele>47</ele>
        <time>2020-06-18T10:28:32Z</time>
      </trkpt>
      <trkpt lat="49.87023" lon="0.91214">
        <ele>46.8</ele>
        <time>2020-06-18T10:28:33Z</time>
      </trkpt>
      <trkpt lat="49.87025" lon="0.91224">
        <ele>46.7</ele>
        <time>2020-06-18T10:28:34Z</time>
      </trkpt>
      <trkpt lat="49.87027" lon="0.91234">
        <ele>46.7</ele>
        <time>2020-06-18T10:28:35Z</time>
      </trkpt>
      <trkpt lat="49.87028" lon="0.91244">
        <ele>46.6</ele>
        <time>2020-06-18T10:28:36Z</time>
      </trkpt>
      <trkpt lat="49.8703" lon="0.91254">
        <ele>46.6</ele>
        <time>2020-06-18T10:28:37Z</time>
      </trkpt>
      <trkpt lat="49.87032" lon="0.91265">
        <ele>46.4</ele>
        <time>2020-06-18T10:28:38Z</time>
      </trkpt>
      <trkpt lat="49.87034" lon="0.91276">
        <ele>46.4</ele>
        <time>2020-06-18T10:28:39Z</time>
      </trkpt>
      <trkpt lat="49.87035" lon="0.91286">
        <ele>46.3</ele>
        <time>2020-06-18T10:28:40Z</time>
      </trkpt>
      <trkpt lat="49.87037" lon="0.91296">
        <ele>46.4</ele>
        <time>2020-06-18T10:28:41Z</time>
      </trkpt>
      <trkpt lat="49.87039" lon="0.91306">
        <ele>46.4</ele>
        <time>2020-06-18T10:28:42Z</time>
      </trkpt>
      <trkpt lat="49.87041" lon="0.91316">
        <ele>46.4</ele>
        <time>2020-06-18T10:28:43Z</time>
      </trkpt>
      <trkpt lat="49.87042" lon="0.91325">
        <ele>46.4</ele>
        <time>2020-06-18T10:28:44Z</time>
      </trkpt>
      <trkpt lat="49.87044" lon="0.91335">
        <ele>46.3</ele>
        <time>2020-06-18T10:28:45Z</time>
      </trkpt>
      <trkpt lat="49.87046" lon="0.91345">
        <ele>46.3</ele>
        <time>2020-06-18T10:28:46Z</time>
      </trkpt>
      <trkpt lat="49.87047" lon="0.91354">
        <ele>46.3</ele>
        <time>2020-06-18T10:28:47Z</time>
      </trkpt>
      <trkpt lat="49.87049" lon="0.91364">
        <ele>46.3</ele>
        <time>2020-06-18T10:28:48Z</time>
      </trkpt>
      <trkpt lat="49.87051" lon="0.91374">
        <ele>46.3</ele>
        <time>2020-06-18T10:28:49Z</time>
      </trkpt>
      <trkpt lat="49.87053" lon="0.91384">
        <ele>46.2</ele>
        <time>2020-06-18T10:28:50Z</time>
      </trkpt>
      <trkpt lat="49.87054" lon="0.91394">
        <ele>46.2</ele>
        <time>2020-06-18T10:28:51Z</time>
      </trkpt>
      <trkpt lat="49.87056" lon="0.91404">
        <ele>46.2</ele>
        <time>2020-06-18T10:28:52Z</time>
      </trkpt>
      <trkpt lat="49.87058" lon="0.91414">
        <ele>46.2</ele>
        <time>2020-06-18T10:28:53Z</time>
      </trkpt>
      <trkpt lat="49.8706" lon="0.91424">
        <ele>46.2</ele>
        <time>2020-06-18T10:28:54Z</time>
      </trkpt>
      <trkpt lat="49.87061" lon="0.91434">
        <ele>46.2</ele>
        <time>2020-06-18T10:28:55Z</time>
      </trkpt>
      <trkpt lat="49.87063" lon="0.91444">
        <ele>46.2</ele>
        <time>2020-06-18T10:28:56Z</time>
      </trkpt>
      <trkpt lat="49.87065" lon="0.91454">
        <ele>46.2</ele>
        <time>2020-06-18T10:28:57Z</time>
      </trkpt>
      <trkpt lat="49.87067" lon="0.91464">
        <ele>46.2</ele>
        <time>2020-06-18T10:28:58Z</time>
      </trkpt>
      <trkpt lat="49.87068" lon="0.91475">
        <ele>46.2</ele>
        <time>2020-06-18T10:28:59Z</time>
      </trkpt>
      <trkpt lat="49.8707" lon="0.91485">
        <ele>46.2</ele>
        <time>2020-06-18T10:29:00Z</time>
      </trkpt>
      <trkpt lat="49.87072" lon="0.91495">
        <ele>46.1</ele>
        <time>2020-06-18T10:29:01Z</time>
      </trkpt>
      <trkpt lat="49.87073" lon="0.91506">
        <ele>46.1</ele>
        <time>2020-06-18T10:29:02Z</time>
      </trkpt>
      <trkpt lat="49.87075" lon="0.91516">
        <ele>46.1</ele>
        <time>2020-06-18T10:29:03Z</time>
      </trkpt>
      <trkpt lat="49.87077" lon="0.91526">
        <ele>46</ele>
        <time>2020-06-18T10:29:04Z</time>
      </trkpt>
      <trkpt lat="49.87078" lon="0.91536">
        <ele>45.9</ele>
        <time>2020-06-18T10:29:05Z</time>
      </trkpt>
      <trkpt lat="49.8708" lon="0.91546">
        <ele>45.9</ele>
        <time>2020-06-18T10:29:06Z</time>
      </trkpt>
      <trkpt lat="49.87082" lon="0.91557">
        <ele>45.8</ele>
        <time>2020-06-18T10:29:07Z</time>
      </trkpt>
      <trkpt lat="49.87084" lon="0.91567">
        <ele>45.8</ele>
        <time>2020-06-18T10:29:08Z</time>
      </trkpt>
      <trkpt lat="49.87086" lon="0.91577">
        <ele>45.8</ele>
        <time>2020-06-18T10:29:09Z</time>
      </trkpt>
      <trkpt lat="49.87088" lon="0.91588">
        <ele>45.8</ele>
        <time>2020-06-18T10:29:10Z</time>
      </trkpt>
      <trkpt lat="49.8709" lon="0.91598">
        <ele>45.8</ele>
        <time>2020-06-18T10:29:11Z</time>
      </trkpt>
      <trkpt lat="49.87092" lon="0.91609">
        <ele>45.8</ele>
        <time>2020-06-18T10:29:12Z</time>
      </trkpt>
      <trkpt lat="49.87093" lon="0.91619">
        <ele>45.7</ele>
        <time>2020-06-18T10:29:13Z</time>
      </trkpt>
      <trkpt lat="49.87095" lon="0.91629">
        <ele>45.7</ele>
        <time>2020-06-18T10:29:14Z</time>
      </trkpt>
      <trkpt lat="49.87097" lon="0.9164">
        <ele>45.7</ele>
        <time>2020-06-18T10:29:15Z</time>
      </trkpt>
      <trkpt lat="49.87099" lon="0.9165">
        <ele>45.7</ele>
        <time>2020-06-18T10:29:16Z</time>
      </trkpt>
      <trkpt lat="49.871" lon="0.91661">
        <ele>45.6</ele>
        <time>2020-06-18T10:29:17Z</time>
      </trkpt>
      <trkpt lat="49.87102" lon="0.91671">
        <ele>45.6</ele>
        <time>2020-06-18T10:29:18Z</time>
      </trkpt>
      <trkpt lat="49.87104" lon="0.91682">
        <ele>45.6</ele>
        <time>2020-06-18T10:29:19Z</time>
      </trkpt>
      <trkpt lat="49.87105" lon="0.91692">
        <ele>45.6</ele>
        <time>2020-06-18T10:29:20Z</time>
      </trkpt>
      <trkpt lat="49.87107" lon="0.91702">
        <ele>45.6</ele>
        <time>2020-06-18T10:29:21Z</time>
      </trkpt>
      <trkpt lat="49.87109" lon="0.91712">
        <ele>45.6</ele>
        <time>2020-06-18T10:29:22Z</time>
      </trkpt>
      <trkpt lat="49.87111" lon="0.91722">
        <ele>45.6</ele>
        <time>2020-06-18T10:29:23Z</time>
      </trkpt>
      <trkpt lat="49.87112" lon="0.91733">
        <ele>45.6</ele>
        <time>2020-06-18T10:29:24Z</time>
      </trkpt>
      <trkpt lat="49.87114" lon="0.91743">
        <ele>45.6</ele>
        <time>2020-06-18T10:29:25Z</time>
      </trkpt>
      <trkpt lat="49.87116" lon="0.91753">
        <ele>45.7</ele>
        <time>2020-06-18T10:29:26Z</time>
      </trkpt>
      <trkpt lat="49.87118" lon="0.91763">
        <ele>45.7</ele>
        <time>2020-06-18T10:29:27Z</time>
      </trkpt>
      <trkpt lat="49.8712" lon="0.91774">
        <ele>45.8</ele>
        <time>2020-06-18T10:29:28Z</time>
      </trkpt>
      <trkpt lat="49.87122" lon="0.91784">
        <ele>45.9</ele>
        <time>2020-06-18T10:29:29Z</time>
      </trkpt>
      <trkpt lat="49.87124" lon="0.91795">
        <ele>46</ele>
        <time>2020-06-18T10:29:30Z</time>
      </trkpt>
      <trkpt lat="49.87126" lon="0.91805">
        <ele>46.1</ele>
        <time>2020-06-18T10:29:31Z</time>
      </trkpt>
      <trkpt lat="49.87127" lon="0.91814">
        <ele>46.2</ele>
        <time>2020-06-18T10:29:32Z</time>
      </trkpt>
      <trkpt lat="49.87129" lon="0.91824">
        <ele>46.3</ele>
        <time>2020-06-18T10:29:33Z</time>
      </trkpt>
      <trkpt lat="49.87131" lon="0.91833">
        <ele>46.4</ele>
        <time>2020-06-18T10:29:34Z</time>
      </trkpt>
      <trkpt lat="49.87133" lon="0.91843">
        <ele>46.5</ele>
        <time>2020-06-18T10:29:35Z</time>
      </trkpt>
      <trkpt lat="49.87135" lon="0.91852">
        <ele>46.6</ele>
        <time>2020-06-18T10:29:36Z</time>
      </trkpt>
      <trkpt lat="49.87136" lon="0.91862">
        <ele>46.6</ele>
        <time>2020-06-18T10:29:37Z</time>
      </trkpt>
      <trkpt lat="49.87138" lon="0.91872">
        <ele>46.7</ele>
        <time>2020-06-18T10:29:38Z</time>
      </trkpt>
      <trkpt lat="49.87139" lon="0.91881">
        <ele>46.7</ele>
        <time>2020-06-18T10:29:39Z</time>
      </trkpt>
      <trkpt lat="49.87141" lon="0.9189">
        <ele>46.8</ele>
        <time>2020-06-18T10:29:40Z</time>
      </trkpt>
      <trkpt lat="49.87143" lon="0.919">
        <ele>46.8</ele>
        <time>2020-06-18T10:29:41Z</time>
      </trkpt>
      <trkpt lat="49.87145" lon="0.9191">
        <ele>46.9</ele>
        <time>2020-06-18T10:29:42Z</time>
      </trkpt>
      <trkpt lat="49.87146" lon="0.91919">
        <ele>47</ele>
        <time>2020-06-18T10:29:43Z</time>
      </trkpt>
      <trkpt lat="49.87148" lon="0.91929">
        <ele>47.1</ele>
        <time>2020-06-18T10:29:44Z</time>
      </trkpt>
      <trkpt lat="49.8715" lon="0.91938">
        <ele>47.3</ele>
        <time>2020-06-18T10:29:45Z</time>
      </trkpt>
      <trkpt lat="49.87151" lon="0.91947">
        <ele>47.4</ele>
        <time>2020-06-18T10:29:46Z</time>
      </trkpt>
      <trkpt lat="49.87153" lon="0.91956">
        <ele>47.5</ele>
        <time>2020-06-18T10:29:47Z</time>
      </trkpt>
      <trkpt lat="49.87154" lon="0.91964">
        <ele>47.5</ele>
        <time>2020-06-18T10:29:48Z</time>
      </trkpt>
      <trkpt lat="49.87156" lon="0.91974">
        <ele>47.6</ele>
        <time>2020-06-18T10:29:49Z</time>
      </trkpt>
      <trkpt lat="49.87157" lon="0.91983">
        <ele>47.7</ele>
        <time>2020-06-18T10:29:50Z</time>
      </trkpt>
      <trkpt lat="49.87159" lon="0.91991">
        <ele>47.7</ele>
        <time>2020-06-18T10:29:51Z</time>
      </trkpt>
      <trkpt lat="49.8716" lon="0.91999">
        <ele>47.8</ele>
        <time>2020-06-18T10:29:52Z</time>
      </trkpt>
      <trkpt lat="49.87162" lon="0.92007">
        <ele>47.8</ele>
        <time>2020-06-18T10:29:53Z</time>
      </trkpt>
      <trkpt lat="49.87163" lon="0.92015">
        <ele>47.9</ele>
        <time>2020-06-18T10:29:54Z</time>
      </trkpt>
      <trkpt lat="49.87164" lon="0.92023">
        <ele>48.1</ele>
        <time>2020-06-18T10:29:55Z</time>
      </trkpt>
      <trkpt lat="49.87166" lon="0.92031">
        <ele>48.3</ele>
        <time>2020-06-18T10:29:56Z</time>
      </trkpt>
      <trkpt lat="49.87167" lon="0.92039">
        <ele>48.4</ele>
        <time>2020-06-18T10:29:57Z</time>
      </trkpt>
      <trkpt lat="49.87168" lon="0.92046">
        <ele>48.5</ele>
        <time>2020-06-18T10:29:58Z</time>
      </trkpt>
      <trkpt lat="49.87169" lon="0.92056">
        <ele>48.7</ele>
        <time>2020-06-18T10:29:59Z</time>
      </trkpt>
      <trkpt lat="49.87171" lon="0.92063">
        <ele>48.9</ele>
        <time>2020-06-18T10:30:00Z</time>
      </trkpt>
      <trkpt lat="49.87172" lon="0.92072">
        <ele>49</ele>
        <time>2020-06-18T10:30:01Z</time>
      </trkpt>
      <trkpt lat="49.87173" lon="0.92079">
        <ele>49.1</ele>
        <time>2020-06-18T10:30:02Z</time>
      </trkpt>
      <trkpt lat="49.87175" lon="0.92088">
        <ele>49.2</ele>
        <time>2020-06-18T10:30:03Z</time>
      </trkpt>
      <trkpt lat="49.87176" lon="0.92098">
        <ele>49.3</ele>
        <time>2020-06-18T10:30:04Z</time>
      </trkpt>
      <trkpt lat="49.87178" lon="0.92108">
        <ele>49.4</ele>
        <time>2020-06-18T10:30:05Z</time>
      </trkpt>
      <trkpt lat="49.87179" lon="0.92116">
        <ele>49.4</ele>
        <time>2020-06-18T10:30:06Z</time>
      </trkpt>
      <trkpt lat="49.87181" lon="0.92125">
        <ele>49.5</ele>
        <time>2020-06-18T10:30:07Z</time>
      </trkpt>
      <trkpt lat="49.87182" lon="0.92133">
        <ele>49.5</ele>
        <time>2020-06-18T10:30:08Z</time>
      </trkpt>
      <trkpt lat="49.87183" lon="0.92142">
        <ele>49.6</ele>
        <time>2020-06-18T10:30:09Z</time>
      </trkpt>
      <trkpt lat="49.87186" lon="0.92152">
        <ele>49.6</ele>
        <time>2020-06-18T10:30:10Z</time>
      </trkpt>
      <trkpt lat="49.87187" lon="0.9216">
        <ele>49.6</ele>
        <time>2020-06-18T10:30:11Z</time>
      </trkpt>
      <trkpt lat="49.87188" lon="0.92168">
        <ele>49.7</ele>
        <time>2020-06-18T10:30:12Z</time>
      </trkpt>
      <trkpt lat="49.87189" lon="0.92176">
        <ele>49.7</ele>
        <time>2020-06-18T10:30:13Z</time>
      </trkpt>
      <trkpt lat="49.8719" lon="0.92183">
        <ele>49.8</ele>
        <time>2020-06-18T10:30:14Z</time>
      </trkpt>
      <trkpt lat="49.87192" lon="0.9219">
        <ele>49.8</ele>
        <time>2020-06-18T10:30:15Z</time>
      </trkpt>
      <trkpt lat="49.87193" lon="0.92198">
        <ele>49.9</ele>
        <time>2020-06-18T10:30:16Z</time>
      </trkpt>
      <trkpt lat="49.87195" lon="0.92208">
        <ele>50</ele>
        <time>2020-06-18T10:30:17Z</time>
      </trkpt>
      <trkpt lat="49.87197" lon="0.92216">
        <ele>50.1</ele>
        <time>2020-06-18T10:30:18Z</time>
      </trkpt>
      <trkpt lat="49.87198" lon="0.92224">
        <ele>50.3</ele>
        <time>2020-06-18T10:30:19Z</time>
      </trkpt>
      <trkpt lat="49.872" lon="0.92233">
        <ele>50.5</ele>
        <time>2020-06-18T10:30:20Z</time>
      </trkpt>
      <trkpt lat="49.87202" lon="0.92242">
        <ele>50.6</ele>
        <time>2020-06-18T10:30:21Z</time>
      </trkpt>
      <trkpt lat="49.87204" lon="0.92252">
        <ele>50.8</ele>
        <time>2020-06-18T10:30:22Z</time>
      </trkpt>
      <trkpt lat="49.87206" lon="0.92261">
        <ele>51</ele>
        <time>2020-06-18T10:30:23Z</time>
      </trkpt>
      <trkpt lat="49.87207" lon="0.92269">
        <ele>51.1</ele>
        <time>2020-06-18T10:30:24Z</time>
      </trkpt>
      <trkpt lat="49.87209" lon="0.92278">
        <ele>51.2</ele>
        <time>2020-06-18T10:30:25Z</time>
      </trkpt>
      <trkpt lat="49.8721" lon="0.92286">
        <ele>51.2</ele>
        <time>2020-06-18T10:30:26Z</time>
      </trkpt>
      <trkpt lat="49.87211" lon="0.92293">
        <ele>51.2</ele>
        <time>2020-06-18T10:30:27Z</time>
      </trkpt>
      <trkpt lat="49.87212" lon="0.92302">
        <ele>51.3</ele>
        <time>2020-06-18T10:30:28Z</time>
      </trkpt>
      <trkpt lat="49.87214" lon="0.92311">
        <ele>51.3</ele>
        <time>2020-06-18T10:30:29Z</time>
      </trkpt>
      <trkpt lat="49.87216" lon="0.9232">
        <ele>51.4</ele>
        <time>2020-06-18T10:30:30Z</time>
      </trkpt>
      <trkpt lat="49.87217" lon="0.92328">
        <ele>51.4</ele>
        <time>2020-06-18T10:30:31Z</time>
      </trkpt>
      <trkpt lat="49.87218" lon="0.92337">
        <ele>51.5</ele>
        <time>2020-06-18T10:30:32Z</time>
      </trkpt>
      <trkpt lat="49.87219" lon="0.92345">
        <ele>51.5</ele>
        <time>2020-06-18T10:30:33Z</time>
      </trkpt>
      <trkpt lat="49.87221" lon="0.92354">
        <ele>51.8</ele>
        <time>2020-06-18T10:30:34Z</time>
      </trkpt>
      <trkpt lat="49.87222" lon="0.92362">
        <ele>51.9</ele>
        <time>2020-06-18T10:30:35Z</time>
      </trkpt>
      <trkpt lat="49.87223" lon="0.9237">
        <ele>51.9</ele>
        <time>2020-06-18T10:30:36Z</time>
      </trkpt>
      <trkpt lat="49.87225" lon="0.92377">
        <ele>51.9</ele>
        <time>2020-06-18T10:30:37Z</time>
      </trkpt>
      <trkpt lat="49.87226" lon="0.92387">
        <ele>51.9</ele>
        <time>2020-06-18T10:30:38Z</time>
      </trkpt>
      <trkpt lat="49.87228" lon="0.92395">
        <ele>51.9</ele>
        <time>2020-06-18T10:30:39Z</time>
      </trkpt>
      <trkpt lat="49.8723" lon="0.92406">
        <ele>51.9</ele>
        <time>2020-06-18T10:30:40Z</time>
      </trkpt>
      <trkpt lat="49.87232" lon="0.92415">
        <ele>51.9</ele>
        <time>2020-06-18T10:30:41Z</time>
      </trkpt>
      <trkpt lat="49.87233" lon="0.92422">
        <ele>51.9</ele>
        <time>2020-06-18T10:30:42Z</time>
      </trkpt>
      <trkpt lat="49.87235" lon="0.92431">
        <ele>51.8</ele>
        <time>2020-06-18T10:30:43Z</time>
      </trkpt>
      <trkpt lat="49.87235" lon="0.92439">
        <ele>51.8</ele>
        <time>2020-06-18T10:30:44Z</time>
      </trkpt>
      <trkpt lat="49.87238" lon="0.92448">
        <ele>51.7</ele>
        <time>2020-06-18T10:30:45Z</time>
      </trkpt>
      <trkpt lat="49.87239" lon="0.92456">
        <ele>51.7</ele>
        <time>2020-06-18T10:30:46Z</time>
      </trkpt>
      <trkpt lat="49.8724" lon="0.92464">
        <ele>51.7</ele>
        <time>2020-06-18T10:30:47Z</time>
      </trkpt>
      <trkpt lat="49.87241" lon="0.92472">
        <ele>51.8</ele>
        <time>2020-06-18T10:30:48Z</time>
      </trkpt>
      <trkpt lat="49.87242" lon="0.92481">
        <ele>51.8</ele>
        <time>2020-06-18T10:30:49Z</time>
      </trkpt>
      <trkpt lat="49.87244" lon="0.92491">
        <ele>51.8</ele>
        <time>2020-06-18T10:30:50Z</time>
      </trkpt>
      <trkpt lat="49.87246" lon="0.92499">
        <ele>51.8</ele>
        <time>2020-06-18T10:30:51Z</time>
      </trkpt>
      <trkpt lat="49.87247" lon="0.92508">
        <ele>51.8</ele>
        <time>2020-06-18T10:30:52Z</time>
      </trkpt>
      <trkpt lat="49.87249" lon="0.92517">
        <ele>51.8</ele>
        <time>2020-06-18T10:30:53Z</time>
      </trkpt>
      <trkpt lat="49.87251" lon="0.92525">
        <ele>51.8</ele>
        <time>2020-06-18T10:30:54Z</time>
      </trkpt>
      <trkpt lat="49.87252" lon="0.92535">
        <ele>51.9</ele>
        <time>2020-06-18T10:30:55Z</time>
      </trkpt>
      <trkpt lat="49.87253" lon="0.92545">
        <ele>52</ele>
        <time>2020-06-18T10:30:56Z</time>
      </trkpt>
      <trkpt lat="49.87256" lon="0.92554">
        <ele>52.1</ele>
        <time>2020-06-18T10:30:57Z</time>
      </trkpt>
      <trkpt lat="49.87257" lon="0.92565">
        <ele>52.2</ele>
        <time>2020-06-18T10:30:58Z</time>
      </trkpt>
      <trkpt lat="49.87259" lon="0.92574">
        <ele>52.2</ele>
        <time>2020-06-18T10:30:59Z</time>
      </trkpt>
      <trkpt lat="49.87261" lon="0.92583">
        <ele>52.3</ele>
        <time>2020-06-18T10:31:00Z</time>
      </trkpt>
      <trkpt lat="49.87263" lon="0.92591">
        <ele>52.3</ele>
        <time>2020-06-18T10:31:01Z</time>
      </trkpt>
      <trkpt lat="49.87264" lon="0.926">
        <ele>52.2</ele>
        <time>2020-06-18T10:31:02Z</time>
      </trkpt>
      <trkpt lat="49.87266" lon="0.92609">
        <ele>52.2</ele>
        <time>2020-06-18T10:31:03Z</time>
      </trkpt>
      <trkpt lat="49.87268" lon="0.92618">
        <ele>52.1</ele>
        <time>2020-06-18T10:31:04Z</time>
      </trkpt>
      <trkpt lat="49.8727" lon="0.92626">
        <ele>52.2</ele>
        <time>2020-06-18T10:31:05Z</time>
      </trkpt>
      <trkpt lat="49.87271" lon="0.92636">
        <ele>52.2</ele>
        <time>2020-06-18T10:31:06Z</time>
      </trkpt>
      <trkpt lat="49.87272" lon="0.92644">
        <ele>52.2</ele>
        <time>2020-06-18T10:31:07Z</time>
      </trkpt>
      <trkpt lat="49.87273" lon="0.92652">
        <ele>52.2</ele>
        <time>2020-06-18T10:31:08Z</time>
      </trkpt>
      <trkpt lat="49.87275" lon="0.9266">
        <ele>52.2</ele>
        <time>2020-06-18T10:31:09Z</time>
      </trkpt>
      <trkpt lat="49.87276" lon="0.92668">
        <ele>52.2</ele>
        <time>2020-06-18T10:31:10Z</time>
      </trkpt>
      <trkpt lat="49.87278" lon="0.92676">
        <ele>52.2</ele>
        <time>2020-06-18T10:31:11Z</time>
      </trkpt>
      <trkpt lat="49.87279" lon="0.92685">
        <ele>52.3</ele>
        <time>2020-06-18T10:31:12Z</time>
      </trkpt>
      <trkpt lat="49.87281" lon="0.92695">
        <ele>52.4</ele>
        <time>2020-06-18T10:31:13Z</time>
      </trkpt>
      <trkpt lat="49.87282" lon="0.92704">
        <ele>52.3</ele>
        <time>2020-06-18T10:31:14Z</time>
      </trkpt>
      <trkpt lat="49.87284" lon="0.92712">
        <ele>52.3</ele>
        <time>2020-06-18T10:31:15Z</time>
      </trkpt>
      <trkpt lat="49.87286" lon="0.9272">
        <ele>52.3</ele>
        <time>2020-06-18T10:31:16Z</time>
      </trkpt>
      <trkpt lat="49.87287" lon="0.92729">
        <ele>52.4</ele>
        <time>2020-06-18T10:31:17Z</time>
      </trkpt>
      <trkpt lat="49.87288" lon="0.92738">
        <ele>52.4</ele>
        <time>2020-06-18T10:31:18Z</time>
      </trkpt>
      <trkpt lat="49.8729" lon="0.92747">
        <ele>52.5</ele>
        <time>2020-06-18T10:31:19Z</time>
      </trkpt>
      <trkpt lat="49.87291" lon="0.92757">
        <ele>52.6</ele>
        <time>2020-06-18T10:31:20Z</time>
      </trkpt>
      <trkpt lat="49.87292" lon="0.92765">
        <ele>52.6</ele>
        <time>2020-06-18T10:31:21Z</time>
      </trkpt>
      <trkpt lat="49.87294" lon="0.92774">
        <ele>52.7</ele>
        <time>2020-06-18T10:31:22Z</time>
      </trkpt>
      <trkpt lat="49.87295" lon="0.92783">
        <ele>52.7</ele>
        <time>2020-06-18T10:31:23Z</time>
      </trkpt>
      <trkpt lat="49.87297" lon="0.92792">
        <ele>52.8</ele>
        <time>2020-06-18T10:31:24Z</time>
      </trkpt>
      <trkpt lat="49.87298" lon="0.92801">
        <ele>53</ele>
        <time>2020-06-18T10:31:25Z</time>
      </trkpt>
      <trkpt lat="49.87299" lon="0.92809">
        <ele>53</ele>
        <time>2020-06-18T10:31:26Z</time>
      </trkpt>
      <trkpt lat="49.87301" lon="0.92818">
        <ele>53.1</ele>
        <time>2020-06-18T10:31:27Z</time>
      </trkpt>
      <trkpt lat="49.87303" lon="0.92826">
        <ele>53.1</ele>
        <time>2020-06-18T10:31:28Z</time>
      </trkpt>
      <trkpt lat="49.87304" lon="0.92834">
        <ele>53.2</ele>
        <time>2020-06-18T10:31:29Z</time>
      </trkpt>
      <trkpt lat="49.87306" lon="0.92842">
        <ele>53.3</ele>
        <time>2020-06-18T10:31:30Z</time>
      </trkpt>
      <trkpt lat="49.87307" lon="0.92852">
        <ele>53.4</ele>
        <time>2020-06-18T10:31:31Z</time>
      </trkpt>
      <trkpt lat="49.87308" lon="0.9286">
        <ele>53.5</ele>
        <time>2020-06-18T10:31:32Z</time>
      </trkpt>
      <trkpt lat="49.8731" lon="0.92869">
        <ele>53.6</ele>
        <time>2020-06-18T10:31:33Z</time>
      </trkpt>
      <trkpt lat="49.87311" lon="0.92875">
        <ele>53.7</ele>
        <time>2020-06-18T10:31:34Z</time>
      </trkpt>
      <trkpt lat="49.87313" lon="0.92883">
        <ele>53.8</ele>
        <time>2020-06-18T10:31:35Z</time>
      </trkpt>
      <trkpt lat="49.87314" lon="0.92892">
        <ele>53.9</ele>
        <time>2020-06-18T10:31:36Z</time>
      </trkpt>
      <trkpt lat="49.87316" lon="0.92902">
        <ele>54.1</ele>
        <time>2020-06-18T10:31:37Z</time>
      </trkpt>
      <trkpt lat="49.87318" lon="0.92912">
        <ele>54.2</ele>
        <time>2020-06-18T10:31:38Z</time>
      </trkpt>
      <trkpt lat="49.87319" lon="0.92921">
        <ele>54.2</ele>
        <time>2020-06-18T10:31:39Z</time>
      </trkpt>
      <trkpt lat="49.87321" lon="0.9293">
        <ele>54.3</ele>
        <time>2020-06-18T10:31:40Z</time>
      </trkpt>
      <trkpt lat="49.87323" lon="0.92937">
        <ele>54.3</ele>
        <time>2020-06-18T10:31:41Z</time>
      </trkpt>
      <trkpt lat="49.87325" lon="0.92946">
        <ele>54.4</ele>
        <time>2020-06-18T10:31:42Z</time>
      </trkpt>
      <trkpt lat="49.87326" lon="0.92956">
        <ele>54.5</ele>
        <time>2020-06-18T10:31:43Z</time>
      </trkpt>
      <trkpt lat="49.87328" lon="0.92964">
        <ele>54.6</ele>
        <time>2020-06-18T10:31:44Z</time>
      </trkpt>
      <trkpt lat="49.8733" lon="0.92973">
        <ele>54.7</ele>
        <time>2020-06-18T10:31:45Z</time>
      </trkpt>
      <trkpt lat="49.87331" lon="0.92982">
        <ele>54.8</ele>
        <time>2020-06-18T10:31:46Z</time>
      </trkpt>
      <trkpt lat="49.87333" lon="0.92992">
        <ele>54.8</ele>
        <time>2020-06-18T10:31:47Z</time>
      </trkpt>
      <trkpt lat="49.87335" lon="0.93">
        <ele>55</ele>
        <time>2020-06-18T10:31:48Z</time>
      </trkpt>
      <trkpt lat="49.87337" lon="0.93008">
        <ele>55.1</ele>
        <time>2020-06-18T10:31:49Z</time>
      </trkpt>
      <trkpt lat="49.87338" lon="0.93016">
        <ele>55.2</ele>
        <time>2020-06-18T10:31:50Z</time>
      </trkpt>
      <trkpt lat="49.8734" lon="0.93025">
        <ele>55.3</ele>
        <time>2020-06-18T10:31:51Z</time>
      </trkpt>
      <trkpt lat="49.87341" lon="0.93033">
        <ele>55.3</ele>
        <time>2020-06-18T10:31:52Z</time>
      </trkpt>
      <trkpt lat="49.87343" lon="0.93042">
        <ele>55.3</ele>
        <time>2020-06-18T10:31:53Z</time>
      </trkpt>
      <trkpt lat="49.87344" lon="0.9305">
        <ele>55.4</ele>
        <time>2020-06-18T10:31:54Z</time>
      </trkpt>
      <trkpt lat="49.87345" lon="0.93057">
        <ele>55.4</ele>
        <time>2020-06-18T10:31:55Z</time>
      </trkpt>
      <trkpt lat="49.87346" lon="0.93067">
        <ele>55.5</ele>
        <time>2020-06-18T10:31:56Z</time>
      </trkpt>
      <trkpt lat="49.87348" lon="0.93076">
        <ele>55.6</ele>
        <time>2020-06-18T10:31:57Z</time>
      </trkpt>
      <trkpt lat="49.8735" lon="0.93086">
        <ele>55.8</ele>
        <time>2020-06-18T10:31:58Z</time>
      </trkpt>
      <trkpt lat="49.87351" lon="0.93095">
        <ele>55.9</ele>
        <time>2020-06-18T10:31:59Z</time>
      </trkpt>
      <trkpt lat="49.87353" lon="0.93104">
        <ele>56</ele>
        <time>2020-06-18T10:32:00Z</time>
      </trkpt>
      <trkpt lat="49.87355" lon="0.93111">
        <ele>56.1</ele>
        <time>2020-06-18T10:32:01Z</time>
      </trkpt>
      <trkpt lat="49.87357" lon="0.93122">
        <ele>56.2</ele>
        <time>2020-06-18T10:32:02Z</time>
      </trkpt>
      <trkpt lat="49.87358" lon="0.9313">
        <ele>56.2</ele>
        <time>2020-06-18T10:32:03Z</time>
      </trkpt>
      <trkpt lat="49.87361" lon="0.93137">
        <ele>56.3</ele>
        <time>2020-06-18T10:32:04Z</time>
      </trkpt>
      <trkpt lat="49.87363" lon="0.93146">
        <ele>56.3</ele>
        <time>2020-06-18T10:32:05Z</time>
      </trkpt>
      <trkpt lat="49.87364" lon="0.93156">
        <ele>56.3</ele>
        <time>2020-06-18T10:32:06Z</time>
      </trkpt>
      <trkpt lat="49.87365" lon="0.93164">
        <ele>56.3</ele>
        <time>2020-06-18T10:32:07Z</time>
      </trkpt>
      <trkpt lat="49.87366" lon="0.93173">
        <ele>56.4</ele>
        <time>2020-06-18T10:32:08Z</time>
      </trkpt>
      <trkpt lat="49.87367" lon="0.93181">
        <ele>56.5</ele>
        <time>2020-06-18T10:32:09Z</time>
      </trkpt>
      <trkpt lat="49.87368" lon="0.93189">
        <ele>56.6</ele>
        <time>2020-06-18T10:32:10Z</time>
      </trkpt>
      <trkpt lat="49.87369" lon="0.93198">
        <ele>56.7</ele>
        <time>2020-06-18T10:32:11Z</time>
      </trkpt>
      <trkpt lat="49.8737" lon="0.93208">
        <ele>56.8</ele>
        <time>2020-06-18T10:32:12Z</time>
      </trkpt>
      <trkpt lat="49.87372" lon="0.93214">
        <ele>56.9</ele>
        <time>2020-06-18T10:32:13Z</time>
      </trkpt>
      <trkpt lat="49.87373" lon="0.93223">
        <ele>57</ele>
        <time>2020-06-18T10:32:14Z</time>
      </trkpt>
      <trkpt lat="49.87374" lon="0.93231">
        <ele>57.2</ele>
        <time>2020-06-18T10:32:15Z</time>
      </trkpt>
      <trkpt lat="49.87375" lon="0.9324">
        <ele>57.3</ele>
        <time>2020-06-18T10:32:16Z</time>
      </trkpt>
      <trkpt lat="49.87377" lon="0.93248">
        <ele>57.4</ele>
        <time>2020-06-18T10:32:17Z</time>
      </trkpt>
      <trkpt lat="49.87378" lon="0.93256">
        <ele>57.4</ele>
        <time>2020-06-18T10:32:18Z</time>
      </trkpt>
      <trkpt lat="49.8738" lon="0.93265">
        <ele>57.4</ele>
        <time>2020-06-18T10:32:19Z</time>
      </trkpt>
      <trkpt lat="49.87381" lon="0.93273">
        <ele>57.5</ele>
        <time>2020-06-18T10:32:20Z</time>
      </trkpt>
      <trkpt lat="49.87383" lon="0.93281">
        <ele>57.6</ele>
        <time>2020-06-18T10:32:21Z</time>
      </trkpt>
      <trkpt lat="49.87385" lon="0.93291">
        <ele>57.7</ele>
        <time>2020-06-18T10:32:22Z</time>
      </trkpt>
      <trkpt lat="49.87387" lon="0.93302">
        <ele>57.7</ele>
        <time>2020-06-18T10:32:23Z</time>
      </trkpt>
      <trkpt lat="49.87389" lon="0.93312">
        <ele>57.7</ele>
        <time>2020-06-18T10:32:24Z</time>
      </trkpt>
      <trkpt lat="49.8739" lon="0.93322">
        <ele>57.7</ele>
        <time>2020-06-18T10:32:25Z</time>
      </trkpt>
      <trkpt lat="49.87392" lon="0.93332">
        <ele>57.8</ele>
        <time>2020-06-18T10:32:26Z</time>
      </trkpt>
      <trkpt lat="49.87394" lon="0.93343">
        <ele>57.9</ele>
        <time>2020-06-18T10:32:27Z</time>
      </trkpt>
      <trkpt lat="49.87395" lon="0.93351">
        <ele>58</ele>
        <time>2020-06-18T10:32:28Z</time>
      </trkpt>
      <trkpt lat="49.87396" lon="0.9336">
        <ele>58.1</ele>
        <time>2020-06-18T10:32:29Z</time>
      </trkpt>
      <trkpt lat="49.87397" lon="0.93368">
        <ele>58.1</ele>
        <time>2020-06-18T10:32:30Z</time>
      </trkpt>
      <trkpt lat="49.87398" lon="0.93376">
        <ele>58.2</ele>
        <time>2020-06-18T10:32:31Z</time>
      </trkpt>
      <trkpt lat="49.874" lon="0.93384">
        <ele>58.2</ele>
        <time>2020-06-18T10:32:32Z</time>
      </trkpt>
      <trkpt lat="49.87401" lon="0.93393">
        <ele>58.3</ele>
        <time>2020-06-18T10:32:33Z</time>
      </trkpt>
      <trkpt lat="49.87403" lon="0.93402">
        <ele>58.5</ele>
        <time>2020-06-18T10:32:34Z</time>
      </trkpt>
      <trkpt lat="49.87404" lon="0.93411">
        <ele>58.7</ele>
        <time>2020-06-18T10:32:35Z</time>
      </trkpt>
      <trkpt lat="49.87406" lon="0.93421">
        <ele>59.7</ele>
        <time>2020-06-18T10:32:36Z</time>
      </trkpt>
      <trkpt lat="49.87407" lon="0.93429">
        <ele>60.7</ele>
        <time>2020-06-18T10:32:37Z</time>
      </trkpt>
      <trkpt lat="49.87409" lon="0.93438">
        <ele>61.2</ele>
        <time>2020-06-18T10:32:38Z</time>
      </trkpt>
      <trkpt lat="49.8741" lon="0.93446">
        <ele>61.4</ele>
        <time>2020-06-18T10:32:39Z</time>
      </trkpt>
      <trkpt lat="49.87412" lon="0.93456">
        <ele>61.6</ele>
        <time>2020-06-18T10:32:40Z</time>
      </trkpt>
      <trkpt lat="49.87414" lon="0.93464">
        <ele>61.7</ele>
        <time>2020-06-18T10:32:41Z</time>
      </trkpt>
      <trkpt lat="49.87416" lon="0.93474">
        <ele>61.8</ele>
        <time>2020-06-18T10:32:42Z</time>
      </trkpt>
      <trkpt lat="49.87417" lon="0.93484">
        <ele>61.9</ele>
        <time>2020-06-18T10:32:43Z</time>
      </trkpt>
      <trkpt lat="49.87418" lon="0.93493">
        <ele>62</ele>
        <time>2020-06-18T10:32:44Z</time>
      </trkpt>
      <trkpt lat="49.8742" lon="0.93502">
        <ele>62.1</ele>
        <time>2020-06-18T10:32:45Z</time>
      </trkpt>
      <trkpt lat="49.87422" lon="0.93511">
        <ele>62.2</ele>
        <time>2020-06-18T10:32:46Z</time>
      </trkpt>
      <trkpt lat="49.87424" lon="0.9352">
        <ele>62.3</ele>
        <time>2020-06-18T10:32:47Z</time>
      </trkpt>
      <trkpt lat="49.87425" lon="0.9353">
        <ele>62.3</ele>
        <time>2020-06-18T10:32:48Z</time>
      </trkpt>
      <trkpt lat="49.87427" lon="0.93538">
        <ele>62.2</ele>
        <time>2020-06-18T10:32:49Z</time>
      </trkpt>
      <trkpt lat="49.87428" lon="0.93547">
        <ele>62.1</ele>
        <time>2020-06-18T10:32:50Z</time>
      </trkpt>
      <trkpt lat="49.8743" lon="0.93555">
        <ele>62</ele>
        <time>2020-06-18T10:32:51Z</time>
      </trkpt>
      <trkpt lat="49.87432" lon="0.93564">
        <ele>61.9</ele>
        <time>2020-06-18T10:32:52Z</time>
      </trkpt>
      <trkpt lat="49.87433" lon="0.93572">
        <ele>61.8</ele>
        <time>2020-06-18T10:32:53Z</time>
      </trkpt>
      <trkpt lat="49.87434" lon="0.93581">
        <ele>61.7</ele>
        <time>2020-06-18T10:32:54Z</time>
      </trkpt>
      <trkpt lat="49.87435" lon="0.93589">
        <ele>61.6</ele>
        <time>2020-06-18T10:32:55Z</time>
      </trkpt>
      <trkpt lat="49.87437" lon="0.93597">
        <ele>61.6</ele>
        <time>2020-06-18T10:32:56Z</time>
      </trkpt>
      <trkpt lat="49.87438" lon="0.93606">
        <ele>61.5</ele>
        <time>2020-06-18T10:32:57Z</time>
      </trkpt>
      <trkpt lat="49.8744" lon="0.93614">
        <ele>61.4</ele>
        <time>2020-06-18T10:32:58Z</time>
      </trkpt>
      <trkpt lat="49.87442" lon="0.93624">
        <ele>61.2</ele>
        <time>2020-06-18T10:32:59Z</time>
      </trkpt>
      <trkpt lat="49.87444" lon="0.93634">
        <ele>61.1</ele>
        <time>2020-06-18T10:33:00Z</time>
      </trkpt>
      <trkpt lat="49.87447" lon="0.93644">
        <ele>61</ele>
        <time>2020-06-18T10:33:01Z</time>
      </trkpt>
      <trkpt lat="49.87448" lon="0.93654">
        <ele>60.9</ele>
        <time>2020-06-18T10:33:02Z</time>
      </trkpt>
      <trkpt lat="49.8745" lon="0.93664">
        <ele>60.8</ele>
        <time>2020-06-18T10:33:03Z</time>
      </trkpt>
      <trkpt lat="49.87451" lon="0.93675">
        <ele>60.7</ele>
        <time>2020-06-18T10:33:04Z</time>
      </trkpt>
      <trkpt lat="49.87453" lon="0.93685">
        <ele>60.6</ele>
        <time>2020-06-18T10:33:05Z</time>
      </trkpt>
      <trkpt lat="49.87455" lon="0.93696">
        <ele>60.5</ele>
        <time>2020-06-18T10:33:06Z</time>
      </trkpt>
      <trkpt lat="49.87456" lon="0.93705">
        <ele>60.4</ele>
        <time>2020-06-18T10:33:07Z</time>
      </trkpt>
      <trkpt lat="49.87458" lon="0.93714">
        <ele>60.3</ele>
        <time>2020-06-18T10:33:08Z</time>
      </trkpt>
      <trkpt lat="49.8746" lon="0.93724">
        <ele>60.3</ele>
        <time>2020-06-18T10:33:09Z</time>
      </trkpt>
      <trkpt lat="49.87461" lon="0.93733">
        <ele>60.2</ele>
        <time>2020-06-18T10:33:10Z</time>
      </trkpt>
      <trkpt lat="49.87463" lon="0.93743">
        <ele>60</ele>
        <time>2020-06-18T10:33:11Z</time>
      </trkpt>
      <trkpt lat="49.87464" lon="0.93753">
        <ele>59.8</ele>
        <time>2020-06-18T10:33:12Z</time>
      </trkpt>
      <trkpt lat="49.87466" lon="0.93763">
        <ele>59.6</ele>
        <time>2020-06-18T10:33:13Z</time>
      </trkpt>
      <trkpt lat="49.87468" lon="0.93773">
        <ele>59.3</ele>
        <time>2020-06-18T10:33:14Z</time>
      </trkpt>
      <trkpt lat="49.87469" lon="0.93783">
        <ele>59</ele>
        <time>2020-06-18T10:33:15Z</time>
      </trkpt>
      <trkpt lat="49.87471" lon="0.93792">
        <ele>58.7</ele>
        <time>2020-06-18T10:33:16Z</time>
      </trkpt>
      <trkpt lat="49.87473" lon="0.93802">
        <ele>58.5</ele>
        <time>2020-06-18T10:33:17Z</time>
      </trkpt>
      <trkpt lat="49.87474" lon="0.93812">
        <ele>58.4</ele>
        <time>2020-06-18T10:33:18Z</time>
      </trkpt>
      <trkpt lat="49.87476" lon="0.93823">
        <ele>58.2</ele>
        <time>2020-06-18T10:33:19Z</time>
      </trkpt>
      <trkpt lat="49.87478" lon="0.93834">
        <ele>58</ele>
        <time>2020-06-18T10:33:20Z</time>
      </trkpt>
      <trkpt lat="49.8748" lon="0.93845">
        <ele>57.9</ele>
        <time>2020-06-18T10:33:21Z</time>
      </trkpt>
      <trkpt lat="49.87482" lon="0.93856">
        <ele>57.7</ele>
        <time>2020-06-18T10:33:22Z</time>
      </trkpt>
      <trkpt lat="49.87484" lon="0.93866">
        <ele>57.4</ele>
        <time>2020-06-18T10:33:23Z</time>
      </trkpt>
      <trkpt lat="49.87486" lon="0.93877">
        <ele>57.2</ele>
        <time>2020-06-18T10:33:24Z</time>
      </trkpt>
      <trkpt lat="49.87488" lon="0.93887">
        <ele>57</ele>
        <time>2020-06-18T10:33:25Z</time>
      </trkpt>
      <trkpt lat="49.8749" lon="0.93897">
        <ele>56.8</ele>
        <time>2020-06-18T10:33:26Z</time>
      </trkpt>
      <trkpt lat="49.87491" lon="0.93906">
        <ele>56.6</ele>
        <time>2020-06-18T10:33:27Z</time>
      </trkpt>
      <trkpt lat="49.87493" lon="0.93916">
        <ele>56.4</ele>
        <time>2020-06-18T10:33:28Z</time>
      </trkpt>
      <trkpt lat="49.87495" lon="0.93927">
        <ele>56.1</ele>
        <time>2020-06-18T10:33:29Z</time>
      </trkpt>
      <trkpt lat="49.87497" lon="0.93936">
        <ele>55.9</ele>
        <time>2020-06-18T10:33:30Z</time>
      </trkpt>
      <trkpt lat="49.87499" lon="0.93947">
        <ele>55.6</ele>
        <time>2020-06-18T10:33:31Z</time>
      </trkpt>
      <trkpt lat="49.87501" lon="0.93957">
        <ele>55.5</ele>
        <time>2020-06-18T10:33:32Z</time>
      </trkpt>
      <trkpt lat="49.87503" lon="0.93968">
        <ele>55.4</ele>
        <time>2020-06-18T10:33:33Z</time>
      </trkpt>
      <trkpt lat="49.87504" lon="0.93979">
        <ele>55.3</ele>
        <time>2020-06-18T10:33:34Z</time>
      </trkpt>
      <trkpt lat="49.87506" lon="0.93989">
        <ele>55.2</ele>
        <time>2020-06-18T10:33:35Z</time>
      </trkpt>
      <trkpt lat="49.87508" lon="0.94">
        <ele>55.1</ele>
        <time>2020-06-18T10:33:36Z</time>
      </trkpt>
      <trkpt lat="49.8751" lon="0.9401">
        <ele>55</ele>
        <time>2020-06-18T10:33:37Z</time>
      </trkpt>
      <trkpt lat="49.87511" lon="0.94021">
        <ele>54.9</ele>
        <time>2020-06-18T10:33:38Z</time>
      </trkpt>
      <trkpt lat="49.87512" lon="0.94032">
        <ele>54.8</ele>
        <time>2020-06-18T10:33:39Z</time>
      </trkpt>
      <trkpt lat="49.87514" lon="0.94042">
        <ele>54.7</ele>
        <time>2020-06-18T10:33:40Z</time>
      </trkpt>
      <trkpt lat="49.87516" lon="0.94052">
        <ele>54.6</ele>
        <time>2020-06-18T10:33:41Z</time>
      </trkpt>
      <trkpt lat="49.87519" lon="0.94062">
        <ele>54.6</ele>
        <time>2020-06-18T10:33:42Z</time>
      </trkpt>
      <trkpt lat="49.87521" lon="0.94073">
        <ele>54.6</ele>
        <time>2020-06-18T10:33:43Z</time>
      </trkpt>
      <trkpt lat="49.87523" lon="0.94083">
        <ele>54.5</ele>
        <time>2020-06-18T10:33:44Z</time>
      </trkpt>
      <trkpt lat="49.87525" lon="0.94093">
        <ele>54.4</ele>
        <time>2020-06-18T10:33:45Z</time>
      </trkpt>
      <trkpt lat="49.87527" lon="0.94104">
        <ele>54.2</ele>
        <time>2020-06-18T10:33:46Z</time>
      </trkpt>
      <trkpt lat="49.87529" lon="0.94114">
        <ele>54</ele>
        <time>2020-06-18T10:33:47Z</time>
      </trkpt>
      <trkpt lat="49.87531" lon="0.94125">
        <ele>53.9</ele>
        <time>2020-06-18T10:33:48Z</time>
      </trkpt>
      <trkpt lat="49.87533" lon="0.94135">
        <ele>53.8</ele>
        <time>2020-06-18T10:33:49Z</time>
      </trkpt>
      <trkpt lat="49.87534" lon="0.94145">
        <ele>53.7</ele>
        <time>2020-06-18T10:33:50Z</time>
      </trkpt>
      <trkpt lat="49.87536" lon="0.94156">
        <ele>53.6</ele>
        <time>2020-06-18T10:33:51Z</time>
      </trkpt>
      <trkpt lat="49.87538" lon="0.94166">
        <ele>53.6</ele>
        <time>2020-06-18T10:33:52Z</time>
      </trkpt>
      <trkpt lat="49.87539" lon="0.94177">
        <ele>53.5</ele>
        <time>2020-06-18T10:33:53Z</time>
      </trkpt>
      <trkpt lat="49.87541" lon="0.94187">
        <ele>53.4</ele>
        <time>2020-06-18T10:33:54Z</time>
      </trkpt>
      <trkpt lat="49.87543" lon="0.94197">
        <ele>53.3</ele>
        <time>2020-06-18T10:33:55Z</time>
      </trkpt>
      <trkpt lat="49.87544" lon="0.94208">
        <ele>53.2</ele>
        <time>2020-06-18T10:33:56Z</time>
      </trkpt>
      <trkpt lat="49.87546" lon="0.94219">
        <ele>53.2</ele>
        <time>2020-06-18T10:33:57Z</time>
      </trkpt>
      <trkpt lat="49.87548" lon="0.94229">
        <ele>53.1</ele>
        <time>2020-06-18T10:33:58Z</time>
      </trkpt>
      <trkpt lat="49.8755" lon="0.9424">
        <ele>53.1</ele>
        <time>2020-06-18T10:33:59Z</time>
      </trkpt>
      <trkpt lat="49.87551" lon="0.9425">
        <ele>53.1</ele>
        <time>2020-06-18T10:34:00Z</time>
      </trkpt>
      <trkpt lat="49.87553" lon="0.94261">
        <ele>53</ele>
        <time>2020-06-18T10:34:01Z</time>
      </trkpt>
      <trkpt lat="49.87554" lon="0.94271">
        <ele>53</ele>
        <time>2020-06-18T10:34:02Z</time>
      </trkpt>
      <trkpt lat="49.87556" lon="0.94282">
        <ele>52.8</ele>
        <time>2020-06-18T10:34:03Z</time>
      </trkpt>
      <trkpt lat="49.87558" lon="0.94292">
        <ele>52.7</ele>
        <time>2020-06-18T10:34:04Z</time>
      </trkpt>
      <trkpt lat="49.8756" lon="0.94302">
        <ele>52.6</ele>
        <time>2020-06-18T10:34:05Z</time>
      </trkpt>
      <trkpt lat="49.87562" lon="0.94312">
        <ele>52.5</ele>
        <time>2020-06-18T10:34:06Z</time>
      </trkpt>
      <trkpt lat="49.87564" lon="0.94322">
        <ele>52.4</ele>
        <time>2020-06-18T10:34:07Z</time>
      </trkpt>
      <trkpt lat="49.87565" lon="0.94333">
        <ele>52.4</ele>
        <time>2020-06-18T10:34:08Z</time>
      </trkpt>
      <trkpt lat="49.87567" lon="0.94343">
        <ele>52.4</ele>
        <time>2020-06-18T10:34:09Z</time>
      </trkpt>
      <trkpt lat="49.87569" lon="0.94354">
        <ele>52.4</ele>
        <time>2020-06-18T10:34:10Z</time>
      </trkpt>
      <trkpt lat="49.87571" lon="0.94364">
        <ele>52.4</ele>
        <time>2020-06-18T10:34:11Z</time>
      </trkpt>
      <trkpt lat="49.87573" lon="0.94375">
        <ele>52.4</ele>
        <time>2020-06-18T10:34:12Z</time>
      </trkpt>
      <trkpt lat="49.87574" lon="0.94385">
        <ele>52.4</ele>
        <time>2020-06-18T10:34:13Z</time>
      </trkpt>
      <trkpt lat="49.87576" lon="0.94396">
        <ele>52.4</ele>
        <time>2020-06-18T10:34:14Z</time>
      </trkpt>
      <trkpt lat="49.87577" lon="0.94406">
        <ele>52.4</ele>
        <time>2020-06-18T10:34:15Z</time>
      </trkpt>
      <trkpt lat="49.8758" lon="0.94416">
        <ele>52.3</ele>
        <time>2020-06-18T10:34:16Z</time>
      </trkpt>
      <trkpt lat="49.87581" lon="0.94426">
        <ele>52.3</ele>
        <time>2020-06-18T10:34:17Z</time>
      </trkpt>
      <trkpt lat="49.87583" lon="0.94437">
        <ele>52.3</ele>
        <time>2020-06-18T10:34:18Z</time>
      </trkpt>
      <trkpt lat="49.87584" lon="0.94448">
        <ele>52.3</ele>
        <time>2020-06-18T10:34:19Z</time>
      </trkpt>
      <trkpt lat="49.87587" lon="0.94458">
        <ele>52.4</ele>
        <time>2020-06-18T10:34:20Z</time>
      </trkpt>
      <trkpt lat="49.87589" lon="0.94468">
        <ele>52.4</ele>
        <time>2020-06-18T10:34:21Z</time>
      </trkpt>
      <trkpt lat="49.87591" lon="0.94479">
        <ele>52.4</ele>
        <time>2020-06-18T10:34:22Z</time>
      </trkpt>
      <trkpt lat="49.87593" lon="0.9449">
        <ele>52.4</ele>
        <time>2020-06-18T10:34:23Z</time>
      </trkpt>
      <trkpt lat="49.87594" lon="0.94501">
        <ele>52.4</ele>
        <time>2020-06-18T10:34:24Z</time>
      </trkpt>
      <trkpt lat="49.87596" lon="0.94511">
        <ele>52.4</ele>
        <time>2020-06-18T10:34:25Z</time>
      </trkpt>
      <trkpt lat="49.87598" lon="0.94522">
        <ele>52.4</ele>
        <time>2020-06-18T10:34:26Z</time>
      </trkpt>
      <trkpt lat="49.876" lon="0.94534">
        <ele>52.3</ele>
        <time>2020-06-18T10:34:27Z</time>
      </trkpt>
      <trkpt lat="49.87602" lon="0.94545">
        <ele>52.2</ele>
        <time>2020-06-18T10:34:28Z</time>
      </trkpt>
      <trkpt lat="49.87603" lon="0.94556">
        <ele>52</ele>
        <time>2020-06-18T10:34:29Z</time>
      </trkpt>
      <trkpt lat="49.87605" lon="0.94567">
        <ele>51.7</ele>
        <time>2020-06-18T10:34:30Z</time>
      </trkpt>
      <trkpt lat="49.87606" lon="0.94579">
        <ele>51.5</ele>
        <time>2020-06-18T10:34:31Z</time>
      </trkpt>
      <trkpt lat="49.87607" lon="0.9459">
        <ele>51.2</ele>
        <time>2020-06-18T10:34:32Z</time>
      </trkpt>
      <trkpt lat="49.87608" lon="0.94601">
        <ele>50.9</ele>
        <time>2020-06-18T10:34:33Z</time>
      </trkpt>
      <trkpt lat="49.87609" lon="0.94613">
        <ele>50.6</ele>
        <time>2020-06-18T10:34:34Z</time>
      </trkpt>
      <trkpt lat="49.87609" lon="0.94624">
        <ele>50.2</ele>
        <time>2020-06-18T10:34:35Z</time>
      </trkpt>
      <trkpt lat="49.87609" lon="0.94636">
        <ele>49.8</ele>
        <time>2020-06-18T10:34:36Z</time>
      </trkpt>
      <trkpt lat="49.87609" lon="0.94647">
        <ele>49.5</ele>
        <time>2020-06-18T10:34:37Z</time>
      </trkpt>
      <trkpt lat="49.8761" lon="0.94659">
        <ele>49</ele>
        <time>2020-06-18T10:34:38Z</time>
      </trkpt>
      <trkpt lat="49.8761" lon="0.94671">
        <ele>48.5</ele>
        <time>2020-06-18T10:34:39Z</time>
      </trkpt>
      <trkpt lat="49.8761" lon="0.94682">
        <ele>47.8</ele>
        <time>2020-06-18T10:34:40Z</time>
      </trkpt>
      <trkpt lat="49.8761" lon="0.94694">
        <ele>46.9</ele>
        <time>2020-06-18T10:34:41Z</time>
      </trkpt>
      <trkpt lat="49.8761" lon="0.94706">
        <ele>46.2</ele>
        <time>2020-06-18T10:34:42Z</time>
      </trkpt>
      <trkpt lat="49.8761" lon="0.94719">
        <ele>45.8</ele>
        <time>2020-06-18T10:34:43Z</time>
      </trkpt>
      <trkpt lat="49.8761" lon="0.94731">
        <ele>45.3</ele>
        <time>2020-06-18T10:34:44Z</time>
      </trkpt>
      <trkpt lat="49.87611" lon="0.94744">
        <ele>44.9</ele>
        <time>2020-06-18T10:34:45Z</time>
      </trkpt>
      <trkpt lat="49.87611" lon="0.94756">
        <ele>44.4</ele>
        <time>2020-06-18T10:34:46Z</time>
      </trkpt>
      <trkpt lat="49.87611" lon="0.94769">
        <ele>43.9</ele>
        <time>2020-06-18T10:34:47Z</time>
      </trkpt>
      <trkpt lat="49.87611" lon="0.94782">
        <ele>43.3</ele>
        <time>2020-06-18T10:34:48Z</time>
      </trkpt>
      <trkpt lat="49.87611" lon="0.94795">
        <ele>42.8</ele>
        <time>2020-06-18T10:34:49Z</time>
      </trkpt>
      <trkpt lat="49.87611" lon="0.94809">
        <ele>42.4</ele>
        <time>2020-06-18T10:34:50Z</time>
      </trkpt>
      <trkpt lat="49.87611" lon="0.94823">
        <ele>41.9</ele>
        <time>2020-06-18T10:34:51Z</time>
      </trkpt>
      <trkpt lat="49.87612" lon="0.94837">
        <ele>41.4</ele>
        <time>2020-06-18T10:34:52Z</time>
      </trkpt>
      <trkpt lat="49.87611" lon="0.94851">
        <ele>41</ele>
        <time>2020-06-18T10:34:53Z</time>
      </trkpt>
      <trkpt lat="49.87612" lon="0.94865">
        <ele>40.5</ele>
        <time>2020-06-18T10:34:54Z</time>
      </trkpt>
      <trkpt lat="49.87612" lon="0.94879">
        <ele>40.1</ele>
        <time>2020-06-18T10:34:55Z</time>
      </trkpt>
      <trkpt lat="49.87611" lon="0.94893">
        <ele>39.7</ele>
        <time>2020-06-18T10:34:56Z</time>
      </trkpt>
      <trkpt lat="49.87611" lon="0.94907">
        <ele>39.2</ele>
        <time>2020-06-18T10:34:57Z</time>
      </trkpt>
      <trkpt lat="49.87611" lon="0.94921">
        <ele>38.6</ele>
        <time>2020-06-18T10:34:58Z</time>
      </trkpt>
      <trkpt lat="49.87611" lon="0.94935">
        <ele>38</ele>
        <time>2020-06-18T10:34:59Z</time>
      </trkpt>
      <trkpt lat="49.8761" lon="0.94949">
        <ele>37.3</ele>
        <time>2020-06-18T10:35:00Z</time>
      </trkpt>
      <trkpt lat="49.87609" lon="0.94963">
        <ele>36.7</ele>
        <time>2020-06-18T10:35:01Z</time>
      </trkpt>
      <trkpt lat="49.87606" lon="0.94977">
        <ele>36</ele>
        <time>2020-06-18T10:35:02Z</time>
      </trkpt>
      <trkpt lat="49.87603" lon="0.94991">
        <ele>35.3</ele>
        <time>2020-06-18T10:35:03Z</time>
      </trkpt>
      <trkpt lat="49.87601" lon="0.95006">
        <ele>34.6</ele>
        <time>2020-06-18T10:35:04Z</time>
      </trkpt>
      <trkpt lat="49.87597" lon="0.9502">
        <ele>33.8</ele>
        <time>2020-06-18T10:35:05Z</time>
      </trkpt>
      <trkpt lat="49.87594" lon="0.95034">
        <ele>33</ele>
        <time>2020-06-18T10:35:06Z</time>
      </trkpt>
      <trkpt lat="49.8759" lon="0.95048">
        <ele>32.3</ele>
        <time>2020-06-18T10:35:07Z</time>
      </trkpt>
      <trkpt lat="49.87586" lon="0.95061">
        <ele>31.6</ele>
        <time>2020-06-18T10:35:08Z</time>
      </trkpt>
      <trkpt lat="49.87581" lon="0.95074">
        <ele>30.9</ele>
        <time>2020-06-18T10:35:09Z</time>
      </trkpt>
      <trkpt lat="49.87575" lon="0.95087">
        <ele>30.2</ele>
        <time>2020-06-18T10:35:10Z</time>
      </trkpt>
      <trkpt lat="49.87569" lon="0.951">
        <ele>29.6</ele>
        <time>2020-06-18T10:35:11Z</time>
      </trkpt>
      <trkpt lat="49.87562" lon="0.95112">
        <ele>29</ele>
        <time>2020-06-18T10:35:12Z</time>
      </trkpt>
      <trkpt lat="49.87556" lon="0.95125">
        <ele>28.4</ele>
        <time>2020-06-18T10:35:13Z</time>
      </trkpt>
      <trkpt lat="49.87548" lon="0.95137">
        <ele>27.9</ele>
        <time>2020-06-18T10:35:14Z</time>
      </trkpt>
      <trkpt lat="49.87541" lon="0.95149">
        <ele>27.4</ele>
        <time>2020-06-18T10:35:15Z</time>
      </trkpt>
      <trkpt lat="49.87533" lon="0.9516">
        <ele>27</ele>
        <time>2020-06-18T10:35:16Z</time>
      </trkpt>
      <trkpt lat="49.87524" lon="0.9517">
        <ele>26.5</ele>
        <time>2020-06-18T10:35:17Z</time>
      </trkpt>
      <trkpt lat="49.87515" lon="0.9518">
        <ele>25.9</ele>
        <time>2020-06-18T10:35:18Z</time>
      </trkpt>
      <trkpt lat="49.87506" lon="0.9519">
        <ele>25.3</ele>
        <time>2020-06-18T10:35:19Z</time>
      </trkpt>
      <trkpt lat="49.87497" lon="0.952">
        <ele>24.7</ele>
        <time>2020-06-18T10:35:20Z</time>
      </trkpt>
      <trkpt lat="49.87488" lon="0.9521">
        <ele>24.1</ele>
        <time>2020-06-18T10:35:21Z</time>
      </trkpt>
      <trkpt lat="49.87479" lon="0.9522">
        <ele>23.4</ele>
        <time>2020-06-18T10:35:22Z</time>
      </trkpt>
      <trkpt lat="49.87469" lon="0.95228">
        <ele>22.8</ele>
        <time>2020-06-18T10:35:23Z</time>
      </trkpt>
      <trkpt lat="49.8746" lon="0.95236">
        <ele>22.2</ele>
        <time>2020-06-18T10:35:24Z</time>
      </trkpt>
      <trkpt lat="49.87451" lon="0.95244">
        <ele>21.7</ele>
        <time>2020-06-18T10:35:25Z</time>
      </trkpt>
      <trkpt lat="49.87443" lon="0.95253">
        <ele>21.1</ele>
        <time>2020-06-18T10:35:26Z</time>
      </trkpt>
      <trkpt lat="49.87435" lon="0.95262">
        <ele>20.6</ele>
        <time>2020-06-18T10:35:27Z</time>
      </trkpt>
      <trkpt lat="49.87427" lon="0.9527">
        <ele>20</ele>
        <time>2020-06-18T10:35:28Z</time>
      </trkpt>
      <trkpt lat="49.87418" lon="0.95278">
        <ele>19.4</ele>
        <time>2020-06-18T10:35:29Z</time>
      </trkpt>
      <trkpt lat="49.8741" lon="0.95286">
        <ele>18.8</ele>
        <time>2020-06-18T10:35:30Z</time>
      </trkpt>
      <trkpt lat="49.87402" lon="0.95295">
        <ele>18.1</ele>
        <time>2020-06-18T10:35:31Z</time>
      </trkpt>
      <trkpt lat="49.87395" lon="0.95303">
        <ele>17.5</ele>
        <time>2020-06-18T10:35:32Z</time>
      </trkpt>
      <trkpt lat="49.87389" lon="0.95309">
        <ele>17</ele>
        <time>2020-06-18T10:35:33Z</time>
      </trkpt>
      <trkpt lat="49.87383" lon="0.95317">
        <ele>16.4</ele>
        <time>2020-06-18T10:35:34Z</time>
      </trkpt>
      <trkpt lat="49.87378" lon="0.95325">
        <ele>15.9</ele>
        <time>2020-06-18T10:35:35Z</time>
      </trkpt>
      <trkpt lat="49.87373" lon="0.95335">
        <ele>15.4</ele>
        <time>2020-06-18T10:35:36Z</time>
      </trkpt>
      <trkpt lat="49.87368" lon="0.95345">
        <ele>14.9</ele>
        <time>2020-06-18T10:35:37Z</time>
      </trkpt>
      <trkpt lat="49.87365" lon="0.95356">
        <ele>14.5</ele>
        <time>2020-06-18T10:35:38Z</time>
      </trkpt>
      <trkpt lat="49.87363" lon="0.95368">
        <ele>14</ele>
        <time>2020-06-18T10:35:39Z</time>
      </trkpt>
      <trkpt lat="49.87361" lon="0.9538">
        <ele>13.6</ele>
        <time>2020-06-18T10:35:40Z</time>
      </trkpt>
      <trkpt lat="49.8736" lon="0.95391">
        <ele>13.3</ele>
        <time>2020-06-18T10:35:41Z</time>
      </trkpt>
      <trkpt lat="49.87359" lon="0.95402">
        <ele>13.1</ele>
        <time>2020-06-18T10:35:42Z</time>
      </trkpt>
      <trkpt lat="49.87359" lon="0.95411">
        <ele>13</ele>
        <time>2020-06-18T10:35:43Z</time>
      </trkpt>
      <trkpt lat="49.87361" lon="0.95418">
        <ele>12.9</ele>
        <time>2020-06-18T10:35:44Z</time>
      </trkpt>
      <trkpt lat="49.87362" lon="0.95424">
        <ele>12.7</ele>
        <time>2020-06-18T10:35:45Z</time>
      </trkpt>
      <trkpt lat="49.87362" lon="0.95431">
        <ele>12.6</ele>
        <time>2020-06-18T10:35:46Z</time>
      </trkpt>
      <trkpt lat="49.87361" lon="0.95437">
        <ele>12.5</ele>
        <time>2020-06-18T10:35:47Z</time>
      </trkpt>
      <trkpt lat="49.87362" lon="0.95444">
        <ele>13.1</ele>
        <time>2020-06-18T10:35:48Z</time>
      </trkpt>
      <trkpt lat="49.87361" lon="0.9545">
        <ele>13.2</ele>
        <time>2020-06-18T10:35:49Z</time>
      </trkpt>
      <trkpt lat="49.87362" lon="0.95456">
        <ele>13.2</ele>
        <time>2020-06-18T10:35:50Z</time>
      </trkpt>
      <trkpt lat="49.87364" lon="0.95462">
        <ele>11.7</ele>
        <time>2020-06-18T10:35:51Z</time>
      </trkpt>
      <trkpt lat="49.87367" lon="0.95469">
        <ele>11.6</ele>
        <time>2020-06-18T10:35:52Z</time>
      </trkpt>
      <trkpt lat="49.87372" lon="0.95475">
        <ele>11.4</ele>
        <time>2020-06-18T10:35:53Z</time>
      </trkpt>
      <trkpt lat="49.87375" lon="0.95481">
        <ele>11.2</ele>
        <time>2020-06-18T10:35:54Z</time>
      </trkpt>
      <trkpt lat="49.87378" lon="0.95489">
        <ele>11</ele>
        <time>2020-06-18T10:35:55Z</time>
      </trkpt>
      <trkpt lat="49.87379" lon="0.95498">
        <ele>10.7</ele>
        <time>2020-06-18T10:35:56Z</time>
      </trkpt>
      <trkpt lat="49.87382" lon="0.95507">
        <ele>10.5</ele>
        <time>2020-06-18T10:35:57Z</time>
      </trkpt>
      <trkpt lat="49.87385" lon="0.95516">
        <ele>10.2</ele>
        <time>2020-06-18T10:35:58Z</time>
      </trkpt>
      <trkpt lat="49.87388" lon="0.95525">
        <ele>10</ele>
        <time>2020-06-18T10:35:59Z</time>
      </trkpt>
      <trkpt lat="49.87391" lon="0.95533">
        <ele>9.9</ele>
        <time>2020-06-18T10:36:00Z</time>
      </trkpt>
      <trkpt lat="49.87393" lon="0.95543">
        <ele>9.8</ele>
        <time>2020-06-18T10:36:01Z</time>
      </trkpt>
      <trkpt lat="49.87395" lon="0.95552">
        <ele>9.7</ele>
        <time>2020-06-18T10:36:02Z</time>
      </trkpt>
      <trkpt lat="49.87397" lon="0.9556">
        <ele>9.6</ele>
        <time>2020-06-18T10:36:03Z</time>
      </trkpt>
      <trkpt lat="49.87399" lon="0.95568">
        <ele>9.5</ele>
        <time>2020-06-18T10:36:04Z</time>
      </trkpt>
      <trkpt lat="49.87402" lon="0.95577">
        <ele>9.4</ele>
        <time>2020-06-18T10:36:05Z</time>
      </trkpt>
      <trkpt lat="49.87403" lon="0.95586">
        <ele>9.4</ele>
        <time>2020-06-18T10:36:06Z</time>
      </trkpt>
      <trkpt lat="49.87405" lon="0.95594">
        <ele>9.3</ele>
        <time>2020-06-18T10:36:07Z</time>
      </trkpt>
      <trkpt lat="49.87407" lon="0.95603">
        <ele>9.2</ele>
        <time>2020-06-18T10:36:08Z</time>
      </trkpt>
      <trkpt lat="49.8741" lon="0.95611">
        <ele>9.1</ele>
        <time>2020-06-18T10:36:09Z</time>
      </trkpt>
      <trkpt lat="49.87411" lon="0.9562">
        <ele>9.1</ele>
        <time>2020-06-18T10:36:10Z</time>
      </trkpt>
      <trkpt lat="49.87413" lon="0.95629">
        <ele>9</ele>
        <time>2020-06-18T10:36:11Z</time>
      </trkpt>
      <trkpt lat="49.87415" lon="0.95638">
        <ele>9</ele>
        <time>2020-06-18T10:36:12Z</time>
      </trkpt>
      <trkpt lat="49.87418" lon="0.95646">
        <ele>8.9</ele>
        <time>2020-06-18T10:36:13Z</time>
      </trkpt>
      <trkpt lat="49.8742" lon="0.95654">
        <ele>8.8</ele>
        <time>2020-06-18T10:36:14Z</time>
      </trkpt>
      <trkpt lat="49.87423" lon="0.95662">
        <ele>8.8</ele>
        <time>2020-06-18T10:36:15Z</time>
      </trkpt>
      <trkpt lat="49.87425" lon="0.9567">
        <ele>8.7</ele>
        <time>2020-06-18T10:36:16Z</time>
      </trkpt>
      <trkpt lat="49.87427" lon="0.95679">
        <ele>8.6</ele>
        <time>2020-06-18T10:36:17Z</time>
      </trkpt>
      <trkpt lat="49.8743" lon="0.95688">
        <ele>8.5</ele>
        <time>2020-06-18T10:36:18Z</time>
      </trkpt>
      <trkpt lat="49.87432" lon="0.95698">
        <ele>8.4</ele>
        <time>2020-06-18T10:36:19Z</time>
      </trkpt>
      <trkpt lat="49.87434" lon="0.95707">
        <ele>8.3</ele>
        <time>2020-06-18T10:36:20Z</time>
      </trkpt>
      <trkpt lat="49.87437" lon="0.95717">
        <ele>8.3</ele>
        <time>2020-06-18T10:36:21Z</time>
      </trkpt>
      <trkpt lat="49.87439" lon="0.95726">
        <ele>8.3</ele>
        <time>2020-06-18T10:36:22Z</time>
      </trkpt>
      <trkpt lat="49.87441" lon="0.95734">
        <ele>8.3</ele>
        <time>2020-06-18T10:36:23Z</time>
      </trkpt>
      <trkpt lat="49.87442" lon="0.95743">
        <ele>8.3</ele>
        <time>2020-06-18T10:36:24Z</time>
      </trkpt>
      <trkpt lat="49.87444" lon="0.95752">
        <ele>8.3</ele>
        <time>2020-06-18T10:36:25Z</time>
      </trkpt>
      <trkpt lat="49.87442" lon="0.95761">
        <ele>8.3</ele>
        <time>2020-06-18T10:36:26Z</time>
      </trkpt>
      <trkpt lat="49.87442" lon="0.9577">
        <ele>8.3</ele>
        <time>2020-06-18T10:36:27Z</time>
      </trkpt>
      <trkpt lat="49.87439" lon="0.95778">
        <ele>8.3</ele>
        <time>2020-06-18T10:36:28Z</time>
      </trkpt>
      <trkpt lat="49.87434" lon="0.95785">
        <ele>8.4</ele>
        <time>2020-06-18T10:36:29Z</time>
      </trkpt>
      <trkpt lat="49.87432" lon="0.95794">
        <ele>8.5</ele>
        <time>2020-06-18T10:36:30Z</time>
      </trkpt>
      <trkpt lat="49.87429" lon="0.95803">
        <ele>8.5</ele>
        <time>2020-06-18T10:36:31Z</time>
      </trkpt>
      <trkpt lat="49.87427" lon="0.95811">
        <ele>8.6</ele>
        <time>2020-06-18T10:36:32Z</time>
      </trkpt>
      <trkpt lat="49.87424" lon="0.95819">
        <ele>8.7</ele>
        <time>2020-06-18T10:36:33Z</time>
      </trkpt>
      <trkpt lat="49.87423" lon="0.95827">
        <ele>8.7</ele>
        <time>2020-06-18T10:36:34Z</time>
      </trkpt>
      <trkpt lat="49.87422" lon="0.95835">
        <ele>8.8</ele>
        <time>2020-06-18T10:36:35Z</time>
      </trkpt>
      <trkpt lat="49.8742" lon="0.95842">
        <ele>8.8</ele>
        <time>2020-06-18T10:36:36Z</time>
      </trkpt>
      <trkpt lat="49.87418" lon="0.9585">
        <ele>8.8</ele>
        <time>2020-06-18T10:36:37Z</time>
      </trkpt>
      <trkpt lat="49.87416" lon="0.95858">
        <ele>8.8</ele>
        <time>2020-06-18T10:36:38Z</time>
      </trkpt>
      <trkpt lat="49.87413" lon="0.95867">
        <ele>8.8</ele>
        <time>2020-06-18T10:36:39Z</time>
      </trkpt>
      <trkpt lat="49.87411" lon="0.95875">
        <ele>8.9</ele>
        <time>2020-06-18T10:36:40Z</time>
      </trkpt>
      <trkpt lat="49.87408" lon="0.95884">
        <ele>8.9</ele>
        <time>2020-06-18T10:36:41Z</time>
      </trkpt>
      <trkpt lat="49.87406" lon="0.95894">
        <ele>9</ele>
        <time>2020-06-18T10:36:42Z</time>
      </trkpt>
      <trkpt lat="49.87404" lon="0.95905">
        <ele>9</ele>
        <time>2020-06-18T10:36:43Z</time>
      </trkpt>
      <trkpt lat="49.87401" lon="0.95915">
        <ele>9.1</ele>
        <time>2020-06-18T10:36:44Z</time>
      </trkpt>
      <trkpt lat="49.87398" lon="0.95925">
        <ele>9.2</ele>
        <time>2020-06-18T10:36:45Z</time>
      </trkpt>
      <trkpt lat="49.87395" lon="0.95935">
        <ele>9.2</ele>
        <time>2020-06-18T10:36:46Z</time>
      </trkpt>
      <trkpt lat="49.87393" lon="0.95944">
        <ele>9.3</ele>
        <time>2020-06-18T10:36:47Z</time>
      </trkpt>
      <trkpt lat="49.8739" lon="0.95953">
        <ele>9.4</ele>
        <time>2020-06-18T10:36:48Z</time>
      </trkpt>
      <trkpt lat="49.87388" lon="0.9596">
        <ele>9.5</ele>
        <time>2020-06-18T10:36:49Z</time>
      </trkpt>
      <trkpt lat="49.87385" lon="0.95968">
        <ele>9.6</ele>
        <time>2020-06-18T10:36:50Z</time>
      </trkpt>
      <trkpt lat="49.87382" lon="0.95976">
        <ele>9.8</ele>
        <time>2020-06-18T10:36:51Z</time>
      </trkpt>
      <trkpt lat="49.87378" lon="0.95983">
        <ele>10</ele>
        <time>2020-06-18T10:36:52Z</time>
      </trkpt>
      <trkpt lat="49.87372" lon="0.9599">
        <ele>10.2</ele>
        <time>2020-06-18T10:36:53Z</time>
      </trkpt>
      <trkpt lat="49.87369" lon="0.95994">
        <ele>10.4</ele>
        <time>2020-06-18T10:36:54Z</time>
      </trkpt>
      <trkpt lat="49.87368" lon="0.96">
        <ele>10.5</ele>
        <time>2020-06-18T10:36:55Z</time>
      </trkpt>
      <trkpt lat="49.87369" lon="0.96007">
        <ele>10.6</ele>
        <time>2020-06-18T10:36:56Z</time>
      </trkpt>
      <trkpt lat="49.8737" lon="0.96013">
        <ele>10.6</ele>
        <time>2020-06-18T10:36:57Z</time>
      </trkpt>
      <trkpt lat="49.87372" lon="0.9602">
        <ele>10.7</ele>
        <time>2020-06-18T10:36:58Z</time>
      </trkpt>
      <trkpt lat="49.87373" lon="0.96028">
        <ele>10.8</ele>
        <time>2020-06-18T10:36:59Z</time>
      </trkpt>
      <trkpt lat="49.87373" lon="0.96035">
        <ele>10.8</ele>
        <time>2020-06-18T10:37:00Z</time>
      </trkpt>
      <trkpt lat="49.87373" lon="0.96043">
        <ele>10.8</ele>
        <time>2020-06-18T10:37:01Z</time>
      </trkpt>
      <trkpt lat="49.87373" lon="0.96049">
        <ele>10.9</ele>
        <time>2020-06-18T10:37:02Z</time>
      </trkpt>
      <trkpt lat="49.87375" lon="0.96055">
        <ele>11</ele>
        <time>2020-06-18T10:37:03Z</time>
      </trkpt>
      <trkpt lat="49.87378" lon="0.96061">
        <ele>11.1</ele>
        <time>2020-06-18T10:37:04Z</time>
      </trkpt>
      <trkpt lat="49.87381" lon="0.96066">
        <ele>11.3</ele>
        <time>2020-06-18T10:37:05Z</time>
      </trkpt>
      <trkpt lat="49.87384" lon="0.96072">
        <ele>11.5</ele>
        <time>2020-06-18T10:37:06Z</time>
      </trkpt>
      <trkpt lat="49.87386" lon="0.96075">
        <ele>11.6</ele>
        <time>2020-06-18T10:37:07Z</time>
      </trkpt>
      <trkpt lat="49.8739" lon="0.96081">
        <ele>11.8</ele>
        <time>2020-06-18T10:37:08Z</time>
      </trkpt>
      <trkpt lat="49.87393" lon="0.96085">
        <ele>12</ele>
        <time>2020-06-18T10:37:09Z</time>
      </trkpt>
      <trkpt lat="49.87397" lon="0.9609">
        <ele>12.2</ele>
        <time>2020-06-18T10:37:10Z</time>
      </trkpt>
      <trkpt lat="49.87402" lon="0.96092">
        <ele>12.4</ele>
        <time>2020-06-18T10:37:11Z</time>
      </trkpt>
      <trkpt lat="49.87408" lon="0.96093">
        <ele>12.6</ele>
        <time>2020-06-18T10:37:12Z</time>
      </trkpt>
      <trkpt lat="49.87413" lon="0.96096">
        <ele>12.8</ele>
        <time>2020-06-18T10:37:13Z</time>
      </trkpt>
      <trkpt lat="49.87417" lon="0.96098">
        <ele>13.1</ele>
        <time>2020-06-18T10:37:14Z</time>
      </trkpt>
      <trkpt lat="49.87423" lon="0.96102">
        <ele>13.3</ele>
        <time>2020-06-18T10:37:15Z</time>
      </trkpt>
      <trkpt lat="49.87426" lon="0.96102">
        <ele>13.5</ele>
        <time>2020-06-18T10:37:16Z</time>
      </trkpt>
      <trkpt lat="49.8743" lon="0.96102">
        <ele>13.7</ele>
        <time>2020-06-18T10:37:17Z</time>
      </trkpt>
      <trkpt lat="49.87433" lon="0.961">
        <ele>13.9</ele>
        <time>2020-06-18T10:37:18Z</time>
      </trkpt>
      <trkpt lat="49.87436" lon="0.96098">
        <ele>14.1</ele>
        <time>2020-06-18T10:37:19Z</time>
      </trkpt>
      <trkpt lat="49.87439" lon="0.96098">
        <ele>14.3</ele>
        <time>2020-06-18T10:37:20Z</time>
      </trkpt>
      <trkpt lat="49.87443" lon="0.96097">
        <ele>14.5</ele>
        <time>2020-06-18T10:37:21Z</time>
      </trkpt>
      <trkpt lat="49.87447" lon="0.96095">
        <ele>14.8</ele>
        <time>2020-06-18T10:37:22Z</time>
      </trkpt>
      <trkpt lat="49.8745" lon="0.96094">
        <ele>15</ele>
        <time>2020-06-18T10:37:23Z</time>
      </trkpt>
      <trkpt lat="49.87454" lon="0.96094">
        <ele>15.3</ele>
        <time>2020-06-18T10:37:24Z</time>
      </trkpt>
      <trkpt lat="49.87458" lon="0.96093">
        <ele>15.5</ele>
        <time>2020-06-18T10:37:25Z</time>
      </trkpt>
      <trkpt lat="49.8746" lon="0.96093">
        <ele>15.7</ele>
        <time>2020-06-18T10:37:26Z</time>
      </trkpt>
      <trkpt lat="49.87464" lon="0.96091">
        <ele>15.9</ele>
        <time>2020-06-18T10:37:27Z</time>
      </trkpt>
      <trkpt lat="49.87467" lon="0.9609">
        <ele>16.1</ele>
        <time>2020-06-18T10:37:28Z</time>
      </trkpt>
      <trkpt lat="49.87472" lon="0.96089">
        <ele>16.3</ele>
        <time>2020-06-18T10:37:29Z</time>
      </trkpt>
      <trkpt lat="49.87473" lon="0.96089">
        <ele>16.4</ele>
        <time>2020-06-18T10:37:30Z</time>
      </trkpt>
      <trkpt lat="49.87477" lon="0.96089">
        <ele>16.6</ele>
        <time>2020-06-18T10:37:31Z</time>
      </trkpt>
      <trkpt lat="49.8748" lon="0.96088">
        <ele>16.7</ele>
        <time>2020-06-18T10:37:32Z</time>
      </trkpt>
      <trkpt lat="49.87484" lon="0.96088">
        <ele>16.9</ele>
        <time>2020-06-18T10:37:33Z</time>
      </trkpt>
      <trkpt lat="49.87487" lon="0.96088">
        <ele>17</ele>
        <time>2020-06-18T10:37:34Z</time>
      </trkpt>
      <trkpt lat="49.87491" lon="0.96087">
        <ele>17.5</ele>
        <time>2020-06-18T10:37:35Z</time>
      </trkpt>
      <trkpt lat="49.87494" lon="0.96086">
        <ele>17.7</ele>
        <time>2020-06-18T10:37:36Z</time>
      </trkpt>
      <trkpt lat="49.87498" lon="0.96084">
        <ele>18</ele>
        <time>2020-06-18T10:37:37Z</time>
      </trkpt>
      <trkpt lat="49.87502" lon="0.96084">
        <ele>18.2</ele>
        <time>2020-06-18T10:37:38Z</time>
      </trkpt>
      <trkpt lat="49.87505" lon="0.96082">
        <ele>18.4</ele>
        <time>2020-06-18T10:37:39Z</time>
      </trkpt>
      <trkpt lat="49.87507" lon="0.96082">
        <ele>18.6</ele>
        <time>2020-06-18T10:37:40Z</time>
      </trkpt>
      <trkpt lat="49.87509" lon="0.96081">
        <ele>18.7</ele>
        <time>2020-06-18T10:37:41Z</time>
      </trkpt>
      <trkpt lat="49.87511" lon="0.96081">
        <ele>18.9</ele>
        <time>2020-06-18T10:37:42Z</time>
      </trkpt>
      <trkpt lat="49.87514" lon="0.9608">
        <ele>19</ele>
        <time>2020-06-18T10:37:43Z</time>
      </trkpt>
      <trkpt lat="49.87518" lon="0.96078">
        <ele>19.3</ele>
        <time>2020-06-18T10:37:44Z</time>
      </trkpt>
      <trkpt lat="49.87522" lon="0.96077">
        <ele>19.6</ele>
        <time>2020-06-18T10:37:45Z</time>
      </trkpt>
      <trkpt lat="49.87526" lon="0.96077">
        <ele>19.8</ele>
        <time>2020-06-18T10:37:46Z</time>
      </trkpt>
      <trkpt lat="49.87527" lon="0.96077">
        <ele>19.9</ele>
        <time>2020-06-18T10:37:47Z</time>
      </trkpt>
      <trkpt lat="49.87531" lon="0.96077">
        <ele>20.1</ele>
        <time>2020-06-18T10:37:48Z</time>
      </trkpt>
      <trkpt lat="49.87534" lon="0.96076">
        <ele>20.4</ele>
        <time>2020-06-18T10:37:49Z</time>
      </trkpt>
      <trkpt lat="49.87539" lon="0.96076">
        <ele>20.7</ele>
        <time>2020-06-18T10:37:50Z</time>
      </trkpt>
      <trkpt lat="49.87543" lon="0.96076">
        <ele>21</ele>
        <time>2020-06-18T10:37:51Z</time>
      </trkpt>
      <trkpt lat="49.87545" lon="0.96075">
        <ele>21.1</ele>
        <time>2020-06-18T10:37:52Z</time>
      </trkpt>
      <trkpt lat="49.87549" lon="0.96075">
        <ele>21.4</ele>
        <time>2020-06-18T10:37:53Z</time>
      </trkpt>
      <trkpt lat="49.87553" lon="0.96074">
        <ele>21.6</ele>
        <time>2020-06-18T10:37:54Z</time>
      </trkpt>
      <trkpt lat="49.87555" lon="0.96073">
        <ele>21.8</ele>
        <time>2020-06-18T10:37:55Z</time>
      </trkpt>
      <trkpt lat="49.87558" lon="0.96073">
        <ele>22</ele>
        <time>2020-06-18T10:37:56Z</time>
      </trkpt>
      <trkpt lat="49.87562" lon="0.96072">
        <ele>22.3</ele>
        <time>2020-06-18T10:37:57Z</time>
      </trkpt>
      <trkpt lat="49.87565" lon="0.96071">
        <ele>22.6</ele>
        <time>2020-06-18T10:37:58Z</time>
      </trkpt>
      <trkpt lat="49.87569" lon="0.9607">
        <ele>22.9</ele>
        <time>2020-06-18T10:37:59Z</time>
      </trkpt>
      <trkpt lat="49.87571" lon="0.96069">
        <ele>23</ele>
        <time>2020-06-18T10:38:00Z</time>
      </trkpt>
      <trkpt lat="49.87575" lon="0.9607">
        <ele>23.3</ele>
        <time>2020-06-18T10:38:01Z</time>
      </trkpt>
      <trkpt lat="49.87578" lon="0.96069">
        <ele>23.6</ele>
        <time>2020-06-18T10:38:02Z</time>
      </trkpt>
      <trkpt lat="49.87582" lon="0.96068">
        <ele>23.9</ele>
        <time>2020-06-18T10:38:03Z</time>
      </trkpt>
      <trkpt lat="49.87584" lon="0.96068">
        <ele>24</ele>
        <time>2020-06-18T10:38:04Z</time>
      </trkpt>
      <trkpt lat="49.87588" lon="0.96067">
        <ele>24.2</ele>
        <time>2020-06-18T10:38:05Z</time>
      </trkpt>
      <trkpt lat="49.8759" lon="0.96066">
        <ele>24.4</ele>
        <time>2020-06-18T10:38:06Z</time>
      </trkpt>
      <trkpt lat="49.87595" lon="0.96065">
        <ele>24.6</ele>
        <time>2020-06-18T10:38:07Z</time>
      </trkpt>
      <trkpt lat="49.87596" lon="0.96064">
        <ele>24.8</ele>
        <time>2020-06-18T10:38:08Z</time>
      </trkpt>
      <trkpt lat="49.876" lon="0.96064">
        <ele>24.9</ele>
        <time>2020-06-18T10:38:09Z</time>
      </trkpt>
      <trkpt lat="49.87604" lon="0.96063">
        <ele>25.1</ele>
        <time>2020-06-18T10:38:10Z</time>
      </trkpt>
      <trkpt lat="49.87605" lon="0.96062">
        <ele>25.2</ele>
        <time>2020-06-18T10:38:11Z</time>
      </trkpt>
      <trkpt lat="49.87608" lon="0.96062">
        <ele>25.4</ele>
        <time>2020-06-18T10:38:12Z</time>
      </trkpt>
      <trkpt lat="49.87611" lon="0.9606">
        <ele>25.7</ele>
        <time>2020-06-18T10:38:13Z</time>
      </trkpt>
      <trkpt lat="49.87615" lon="0.9606">
        <ele>26</ele>
        <time>2020-06-18T10:38:14Z</time>
      </trkpt>
      <trkpt lat="49.87618" lon="0.9606">
        <ele>26.2</ele>
        <time>2020-06-18T10:38:15Z</time>
      </trkpt>
      <trkpt lat="49.8762" lon="0.9606">
        <ele>26.3</ele>
        <time>2020-06-18T10:38:16Z</time>
      </trkpt>
      <trkpt lat="49.87623" lon="0.96063">
        <ele>26.5</ele>
        <time>2020-06-18T10:38:17Z</time>
      </trkpt>
      <trkpt lat="49.87628" lon="0.96061">
        <ele>26.7</ele>
        <time>2020-06-18T10:38:18Z</time>
      </trkpt>
      <trkpt lat="49.87632" lon="0.9606">
        <ele>27</ele>
        <time>2020-06-18T10:38:19Z</time>
      </trkpt>
      <trkpt lat="49.87633" lon="0.9606">
        <ele>27</ele>
        <time>2020-06-18T10:38:20Z</time>
      </trkpt>
      <trkpt lat="49.87636" lon="0.96059">
        <ele>27.2</ele>
        <time>2020-06-18T10:38:21Z</time>
      </trkpt>
      <trkpt lat="49.87642" lon="0.96059">
        <ele>27.5</ele>
        <time>2020-06-18T10:38:22Z</time>
      </trkpt>
      <trkpt lat="49.87645" lon="0.96059">
        <ele>27.7</ele>
        <time>2020-06-18T10:38:23Z</time>
      </trkpt>
      <trkpt lat="49.87648" lon="0.96059">
        <ele>27.9</ele>
        <time>2020-06-18T10:38:24Z</time>
      </trkpt>
      <trkpt lat="49.87651" lon="0.96059">
        <ele>28</ele>
        <time>2020-06-18T10:38:25Z</time>
      </trkpt>
      <trkpt lat="49.87654" lon="0.96058">
        <ele>28.2</ele>
        <time>2020-06-18T10:38:26Z</time>
      </trkpt>
      <trkpt lat="49.87657" lon="0.96057">
        <ele>28.4</ele>
        <time>2020-06-18T10:38:27Z</time>
      </trkpt>
      <trkpt lat="49.87659" lon="0.96057">
        <ele>28.4</ele>
        <time>2020-06-18T10:38:28Z</time>
      </trkpt>
      <trkpt lat="49.87662" lon="0.96058">
        <ele>28.6</ele>
        <time>2020-06-18T10:38:29Z</time>
      </trkpt>
      <trkpt lat="49.87665" lon="0.96058">
        <ele>28.7</ele>
        <time>2020-06-18T10:38:30Z</time>
      </trkpt>
      <trkpt lat="49.87669" lon="0.96057">
        <ele>28.9</ele>
        <time>2020-06-18T10:38:31Z</time>
      </trkpt>
      <trkpt lat="49.87673" lon="0.96057">
        <ele>29.2</ele>
        <time>2020-06-18T10:38:32Z</time>
      </trkpt>
      <trkpt lat="49.87676" lon="0.96057">
        <ele>29.3</ele>
        <time>2020-06-18T10:38:33Z</time>
      </trkpt>
      <trkpt lat="49.87678" lon="0.96057">
        <ele>29.5</ele>
        <time>2020-06-18T10:38:34Z</time>
      </trkpt>
      <trkpt lat="49.87681" lon="0.96057">
        <ele>29.6</ele>
        <time>2020-06-18T10:38:35Z</time>
      </trkpt>
      <trkpt lat="49.87684" lon="0.96058">
        <ele>29.8</ele>
        <time>2020-06-18T10:38:36Z</time>
      </trkpt>
      <trkpt lat="49.87686" lon="0.96059">
        <ele>29.9</ele>
        <time>2020-06-18T10:38:37Z</time>
      </trkpt>
      <trkpt lat="49.87689" lon="0.96059">
        <ele>30.1</ele>
        <time>2020-06-18T10:38:38Z</time>
      </trkpt>
      <trkpt lat="49.87693" lon="0.96061">
        <ele>30.3</ele>
        <time>2020-06-18T10:38:39Z</time>
      </trkpt>
      <trkpt lat="49.87694" lon="0.96061">
        <ele>30.4</ele>
        <time>2020-06-18T10:38:40Z</time>
      </trkpt>
      <trkpt lat="49.87697" lon="0.96064">
        <ele>30.5</ele>
        <time>2020-06-18T10:38:41Z</time>
      </trkpt>
      <trkpt lat="49.87699" lon="0.96066">
        <ele>30.7</ele>
        <time>2020-06-18T10:38:42Z</time>
      </trkpt>
      <trkpt lat="49.87702" lon="0.96069">
        <ele>30.8</ele>
        <time>2020-06-18T10:38:43Z</time>
      </trkpt>
      <trkpt lat="49.87705" lon="0.96071">
        <ele>31</ele>
        <time>2020-06-18T10:38:44Z</time>
      </trkpt>
      <trkpt lat="49.87709" lon="0.96072">
        <ele>31.3</ele>
        <time>2020-06-18T10:38:45Z</time>
      </trkpt>
      <trkpt lat="49.8771" lon="0.96073">
        <ele>31.4</ele>
        <time>2020-06-18T10:38:46Z</time>
      </trkpt>
      <trkpt lat="49.87714" lon="0.96075">
        <ele>31.6</ele>
        <time>2020-06-18T10:38:47Z</time>
      </trkpt>
      <trkpt lat="49.87718" lon="0.96076">
        <ele>31.8</ele>
        <time>2020-06-18T10:38:48Z</time>
      </trkpt>
      <trkpt lat="49.87719" lon="0.96077">
        <ele>31.9</ele>
        <time>2020-06-18T10:38:49Z</time>
      </trkpt>
      <trkpt lat="49.87722" lon="0.96078">
        <ele>32.1</ele>
        <time>2020-06-18T10:38:50Z</time>
      </trkpt>
      <trkpt lat="49.87725" lon="0.9608">
        <ele>32.3</ele>
        <time>2020-06-18T10:38:51Z</time>
      </trkpt>
      <trkpt lat="49.87728" lon="0.96082">
        <ele>32.5</ele>
        <time>2020-06-18T10:38:52Z</time>
      </trkpt>
      <trkpt lat="49.87731" lon="0.96084">
        <ele>32.7</ele>
        <time>2020-06-18T10:38:53Z</time>
      </trkpt>
      <trkpt lat="49.87734" lon="0.96085">
        <ele>32.9</ele>
        <time>2020-06-18T10:38:54Z</time>
      </trkpt>
      <trkpt lat="49.87737" lon="0.96087">
        <ele>33.1</ele>
        <time>2020-06-18T10:38:55Z</time>
      </trkpt>
      <trkpt lat="49.8774" lon="0.9609">
        <ele>33.3</ele>
        <time>2020-06-18T10:38:56Z</time>
      </trkpt>
      <trkpt lat="49.87742" lon="0.9609">
        <ele>33.4</ele>
        <time>2020-06-18T10:38:57Z</time>
      </trkpt>
      <trkpt lat="49.87745" lon="0.96092">
        <ele>33.6</ele>
        <time>2020-06-18T10:38:58Z</time>
      </trkpt>
      <trkpt lat="49.87746" lon="0.96093">
        <ele>33.7</ele>
        <time>2020-06-18T10:38:59Z</time>
      </trkpt>
      <trkpt lat="49.8775" lon="0.96094">
        <ele>33.9</ele>
        <time>2020-06-18T10:39:00Z</time>
      </trkpt>
      <trkpt lat="49.87752" lon="0.96095">
        <ele>34</ele>
        <time>2020-06-18T10:39:01Z</time>
      </trkpt>
      <trkpt lat="49.87754" lon="0.96095">
        <ele>34.2</ele>
        <time>2020-06-18T10:39:02Z</time>
      </trkpt>
      <trkpt lat="49.87758" lon="0.96096">
        <ele>34.6</ele>
        <time>2020-06-18T10:39:03Z</time>
      </trkpt>
      <trkpt lat="49.87761" lon="0.96096">
        <ele>35</ele>
        <time>2020-06-18T10:39:04Z</time>
      </trkpt>
      <trkpt lat="49.87765" lon="0.96097">
        <ele>35.4</ele>
        <time>2020-06-18T10:39:05Z</time>
      </trkpt>
      <trkpt lat="49.87767" lon="0.96099">
        <ele>35.7</ele>
        <time>2020-06-18T10:39:06Z</time>
      </trkpt>
      <trkpt lat="49.8777" lon="0.96099">
        <ele>36</ele>
        <time>2020-06-18T10:39:07Z</time>
      </trkpt>
      <trkpt lat="49.87773" lon="0.96101">
        <ele>36.2</ele>
        <time>2020-06-18T10:39:08Z</time>
      </trkpt>
      <trkpt lat="49.87775" lon="0.96102">
        <ele>36.3</ele>
        <time>2020-06-18T10:39:09Z</time>
      </trkpt>
      <trkpt lat="49.87778" lon="0.96103">
        <ele>36.6</ele>
        <time>2020-06-18T10:39:10Z</time>
      </trkpt>
      <trkpt lat="49.87779" lon="0.96103">
        <ele>36.6</ele>
        <time>2020-06-18T10:39:11Z</time>
      </trkpt>
      <trkpt lat="49.87782" lon="0.96105">
        <ele>36.9</ele>
        <time>2020-06-18T10:39:12Z</time>
      </trkpt>
      <trkpt lat="49.87783" lon="0.96106">
        <ele>36.9</ele>
        <time>2020-06-18T10:39:13Z</time>
      </trkpt>
      <trkpt lat="49.87786" lon="0.96109">
        <ele>37.2</ele>
        <time>2020-06-18T10:39:14Z</time>
      </trkpt>
      <trkpt lat="49.87789" lon="0.96111">
        <ele>37.3</ele>
        <time>2020-06-18T10:39:15Z</time>
      </trkpt>
      <trkpt lat="49.87793" lon="0.96114">
        <ele>37.5</ele>
        <time>2020-06-18T10:39:16Z</time>
      </trkpt>
      <trkpt lat="49.87798" lon="0.96117">
        <ele>37.8</ele>
        <time>2020-06-18T10:39:17Z</time>
      </trkpt>
      <trkpt lat="49.87801" lon="0.96118">
        <ele>38</ele>
        <time>2020-06-18T10:39:18Z</time>
      </trkpt>
      <trkpt lat="49.87805" lon="0.9612">
        <ele>38.2</ele>
        <time>2020-06-18T10:39:19Z</time>
      </trkpt>
      <trkpt lat="49.87809" lon="0.96122">
        <ele>38.4</ele>
        <time>2020-06-18T10:39:20Z</time>
      </trkpt>
      <trkpt lat="49.87812" lon="0.96123">
        <ele>38.5</ele>
        <time>2020-06-18T10:39:21Z</time>
      </trkpt>
      <trkpt lat="49.87815" lon="0.96126">
        <ele>38.7</ele>
        <time>2020-06-18T10:39:22Z</time>
      </trkpt>
      <trkpt lat="49.87819" lon="0.96127">
        <ele>38.9</ele>
        <time>2020-06-18T10:39:23Z</time>
      </trkpt>
      <trkpt lat="49.87822" lon="0.9613">
        <ele>39.1</ele>
        <time>2020-06-18T10:39:24Z</time>
      </trkpt>
      <trkpt lat="49.87826" lon="0.96131">
        <ele>39.3</ele>
        <time>2020-06-18T10:39:25Z</time>
      </trkpt>
      <trkpt lat="49.87829" lon="0.96133">
        <ele>39.4</ele>
        <time>2020-06-18T10:39:26Z</time>
      </trkpt>
      <trkpt lat="49.87833" lon="0.96135">
        <ele>39.5</ele>
        <time>2020-06-18T10:39:27Z</time>
      </trkpt>
      <trkpt lat="49.87835" lon="0.96137">
        <ele>39.5</ele>
        <time>2020-06-18T10:39:28Z</time>
      </trkpt>
      <trkpt lat="49.87838" lon="0.96139">
        <ele>39.6</ele>
        <time>2020-06-18T10:39:29Z</time>
      </trkpt>
      <trkpt lat="49.87842" lon="0.96141">
        <ele>39.7</ele>
        <time>2020-06-18T10:39:30Z</time>
      </trkpt>
      <trkpt lat="49.87846" lon="0.96143">
        <ele>39.8</ele>
        <time>2020-06-18T10:39:31Z</time>
      </trkpt>
      <trkpt lat="49.87849" lon="0.96145">
        <ele>39.9</ele>
        <time>2020-06-18T10:39:32Z</time>
      </trkpt>
      <trkpt lat="49.87852" lon="0.96147">
        <ele>40.1</ele>
        <time>2020-06-18T10:39:33Z</time>
      </trkpt>
      <trkpt lat="49.87857" lon="0.96149">
        <ele>40.2</ele>
        <time>2020-06-18T10:39:34Z</time>
      </trkpt>
      <trkpt lat="49.87858" lon="0.9615">
        <ele>40.2</ele>
        <time>2020-06-18T10:39:35Z</time>
      </trkpt>
      <trkpt lat="49.87862" lon="0.96152">
        <ele>40.3</ele>
        <time>2020-06-18T10:39:36Z</time>
      </trkpt>
      <trkpt lat="49.87864" lon="0.96154">
        <ele>40.4</ele>
        <time>2020-06-18T10:39:37Z</time>
      </trkpt>
      <trkpt lat="49.87867" lon="0.96157">
        <ele>40.4</ele>
        <time>2020-06-18T10:39:38Z</time>
      </trkpt>
      <trkpt lat="49.8787" lon="0.96161">
        <ele>40.5</ele>
        <time>2020-06-18T10:39:39Z</time>
      </trkpt>
      <trkpt lat="49.87874" lon="0.96163">
        <ele>40.5</ele>
        <time>2020-06-18T10:39:40Z</time>
      </trkpt>
      <trkpt lat="49.87877" lon="0.96168">
        <ele>40.6</ele>
        <time>2020-06-18T10:39:41Z</time>
      </trkpt>
      <trkpt lat="49.8788" lon="0.96172">
        <ele>40.6</ele>
        <time>2020-06-18T10:39:42Z</time>
      </trkpt>
      <trkpt lat="49.87883" lon="0.96177">
        <ele>40.7</ele>
        <time>2020-06-18T10:39:43Z</time>
      </trkpt>
      <trkpt lat="49.87885" lon="0.96181">
        <ele>40.7</ele>
        <time>2020-06-18T10:39:44Z</time>
      </trkpt>
      <trkpt lat="49.87888" lon="0.96186">
        <ele>40.8</ele>
        <time>2020-06-18T10:39:45Z</time>
      </trkpt>
      <trkpt lat="49.87891" lon="0.96192">
        <ele>40.8</ele>
        <time>2020-06-18T10:39:46Z</time>
      </trkpt>
      <trkpt lat="49.87893" lon="0.96198">
        <ele>40.9</ele>
        <time>2020-06-18T10:39:47Z</time>
      </trkpt>
      <trkpt lat="49.87895" lon="0.96204">
        <ele>40.9</ele>
        <time>2020-06-18T10:39:48Z</time>
      </trkpt>
      <trkpt lat="49.87897" lon="0.96213">
        <ele>41</ele>
        <time>2020-06-18T10:39:49Z</time>
      </trkpt>
      <trkpt lat="49.87898" lon="0.9622">
        <ele>41</ele>
        <time>2020-06-18T10:39:50Z</time>
      </trkpt>
      <trkpt lat="49.87899" lon="0.96227">
        <ele>41.1</ele>
        <time>2020-06-18T10:39:51Z</time>
      </trkpt>
      <trkpt lat="49.879" lon="0.96233">
        <ele>41.1</ele>
        <time>2020-06-18T10:39:52Z</time>
      </trkpt>
      <trkpt lat="49.87901" lon="0.96242">
        <ele>41.1</ele>
        <time>2020-06-18T10:39:53Z</time>
      </trkpt>
      <trkpt lat="49.87902" lon="0.96249">
        <ele>41.2</ele>
        <time>2020-06-18T10:39:54Z</time>
      </trkpt>
      <trkpt lat="49.87903" lon="0.96256">
        <ele>41.2</ele>
        <time>2020-06-18T10:39:55Z</time>
      </trkpt>
      <trkpt lat="49.87904" lon="0.96263">
        <ele>41.2</ele>
        <time>2020-06-18T10:39:56Z</time>
      </trkpt>
      <trkpt lat="49.87905" lon="0.9627">
        <ele>41.3</ele>
        <time>2020-06-18T10:39:57Z</time>
      </trkpt>
      <trkpt lat="49.87907" lon="0.96279">
        <ele>41.4</ele>
        <time>2020-06-18T10:39:58Z</time>
      </trkpt>
      <trkpt lat="49.87908" lon="0.96286">
        <ele>41.4</ele>
        <time>2020-06-18T10:39:59Z</time>
      </trkpt>
      <trkpt lat="49.87909" lon="0.96292">
        <ele>41.5</ele>
        <time>2020-06-18T10:40:00Z</time>
      </trkpt>
      <trkpt lat="49.8791" lon="0.963">
        <ele>41.6</ele>
        <time>2020-06-18T10:40:01Z</time>
      </trkpt>
      <trkpt lat="49.8791" lon="0.96308">
        <ele>41.6</ele>
        <time>2020-06-18T10:40:02Z</time>
      </trkpt>
      <trkpt lat="49.87911" lon="0.96315">
        <ele>41.7</ele>
        <time>2020-06-18T10:40:03Z</time>
      </trkpt>
      <trkpt lat="49.87913" lon="0.96321">
        <ele>41.8</ele>
        <time>2020-06-18T10:40:04Z</time>
      </trkpt>
      <trkpt lat="49.87913" lon="0.96328">
        <ele>41.9</ele>
        <time>2020-06-18T10:40:05Z</time>
      </trkpt>
      <trkpt lat="49.87916" lon="0.96335">
        <ele>42.1</ele>
        <time>2020-06-18T10:40:06Z</time>
      </trkpt>
      <trkpt lat="49.87917" lon="0.96342">
        <ele>42.2</ele>
        <time>2020-06-18T10:40:07Z</time>
      </trkpt>
      <trkpt lat="49.87917" lon="0.96349">
        <ele>42.3</ele>
        <time>2020-06-18T10:40:08Z</time>
      </trkpt>
      <trkpt lat="49.87918" lon="0.96355">
        <ele>42.5</ele>
        <time>2020-06-18T10:40:09Z</time>
      </trkpt>
      <trkpt lat="49.87919" lon="0.96361">
        <ele>42.6</ele>
        <time>2020-06-18T10:40:10Z</time>
      </trkpt>
      <trkpt lat="49.8792" lon="0.96367">
        <ele>42.7</ele>
        <time>2020-06-18T10:40:11Z</time>
      </trkpt>
      <trkpt lat="49.87921" lon="0.96372">
        <ele>42.9</ele>
        <time>2020-06-18T10:40:12Z</time>
      </trkpt>
      <trkpt lat="49.87922" lon="0.96377">
        <ele>43</ele>
        <time>2020-06-18T10:40:13Z</time>
      </trkpt>
      <trkpt lat="49.87922" lon="0.96384">
        <ele>43.3</ele>
        <time>2020-06-18T10:40:14Z</time>
      </trkpt>
      <trkpt lat="49.87924" lon="0.96389">
        <ele>43.4</ele>
        <time>2020-06-18T10:40:15Z</time>
      </trkpt>
      <trkpt lat="49.87924" lon="0.96394">
        <ele>43.6</ele>
        <time>2020-06-18T10:40:16Z</time>
      </trkpt>
      <trkpt lat="49.87925" lon="0.96397">
        <ele>43.7</ele>
        <time>2020-06-18T10:40:17Z</time>
      </trkpt>
      <trkpt lat="49.87926" lon="0.96402">
        <ele>43.8</ele>
        <time>2020-06-18T10:40:18Z</time>
      </trkpt>
      <trkpt lat="49.87927" lon="0.96407">
        <ele>44</ele>
        <time>2020-06-18T10:40:19Z</time>
      </trkpt>
      <trkpt lat="49.87927" lon="0.96413">
        <ele>44.2</ele>
        <time>2020-06-18T10:40:20Z</time>
      </trkpt>
      <trkpt lat="49.87928" lon="0.96418">
        <ele>44.4</ele>
        <time>2020-06-18T10:40:21Z</time>
      </trkpt>
      <trkpt lat="49.87929" lon="0.96425">
        <ele>44.6</ele>
        <time>2020-06-18T10:40:22Z</time>
      </trkpt>
      <trkpt lat="49.8793" lon="0.96429">
        <ele>44.8</ele>
        <time>2020-06-18T10:40:23Z</time>
      </trkpt>
      <trkpt lat="49.87931" lon="0.96437">
        <ele>45.1</ele>
        <time>2020-06-18T10:40:24Z</time>
      </trkpt>
      <trkpt lat="49.87931" lon="0.96441">
        <ele>45.3</ele>
        <time>2020-06-18T10:40:25Z</time>
      </trkpt>
      <trkpt lat="49.87933" lon="0.96446">
        <ele>45.5</ele>
        <time>2020-06-18T10:40:26Z</time>
      </trkpt>
      <trkpt lat="49.87933" lon="0.96451">
        <ele>45.6</ele>
        <time>2020-06-18T10:40:27Z</time>
      </trkpt>
      <trkpt lat="49.87934" lon="0.96456">
        <ele>45.8</ele>
        <time>2020-06-18T10:40:28Z</time>
      </trkpt>
      <trkpt lat="49.87934" lon="0.96461">
        <ele>46</ele>
        <time>2020-06-18T10:40:29Z</time>
      </trkpt>
      <trkpt lat="49.87935" lon="0.96467">
        <ele>46.3</ele>
        <time>2020-06-18T10:40:30Z</time>
      </trkpt>
      <trkpt lat="49.87937" lon="0.96473">
        <ele>46.5</ele>
        <time>2020-06-18T10:40:31Z</time>
      </trkpt>
      <trkpt lat="49.87938" lon="0.96478">
        <ele>46.7</ele>
        <time>2020-06-18T10:40:32Z</time>
      </trkpt>
      <trkpt lat="49.87939" lon="0.96483">
        <ele>46.9</ele>
        <time>2020-06-18T10:40:33Z</time>
      </trkpt>
      <trkpt lat="49.8794" lon="0.96488">
        <ele>47.2</ele>
        <time>2020-06-18T10:40:34Z</time>
      </trkpt>
      <trkpt lat="49.87941" lon="0.96495">
        <ele>47.4</ele>
        <time>2020-06-18T10:40:35Z</time>
      </trkpt>
      <trkpt lat="49.87941" lon="0.96497">
        <ele>47.5</ele>
        <time>2020-06-18T10:40:36Z</time>
      </trkpt>
      <trkpt lat="49.87942" lon="0.96502">
        <ele>47.7</ele>
        <time>2020-06-18T10:40:37Z</time>
      </trkpt>
      <trkpt lat="49.87943" lon="0.96507">
        <ele>47.8</ele>
        <time>2020-06-18T10:40:38Z</time>
      </trkpt>
      <trkpt lat="49.87943" lon="0.96511">
        <ele>48</ele>
        <time>2020-06-18T10:40:39Z</time>
      </trkpt>
      <trkpt lat="49.87944" lon="0.96517">
        <ele>48.2</ele>
        <time>2020-06-18T10:40:40Z</time>
      </trkpt>
      <trkpt lat="49.87945" lon="0.96522">
        <ele>48.3</ele>
        <time>2020-06-18T10:40:41Z</time>
      </trkpt>
      <trkpt lat="49.87946" lon="0.96527">
        <ele>48.5</ele>
        <time>2020-06-18T10:40:42Z</time>
      </trkpt>
      <trkpt lat="49.87947" lon="0.96533">
        <ele>48.6</ele>
        <time>2020-06-18T10:40:43Z</time>
      </trkpt>
      <trkpt lat="49.87947" lon="0.96539">
        <ele>48.8</ele>
        <time>2020-06-18T10:40:44Z</time>
      </trkpt>
      <trkpt lat="49.87949" lon="0.96544">
        <ele>49</ele>
        <time>2020-06-18T10:40:45Z</time>
      </trkpt>
      <trkpt lat="49.8795" lon="0.9655">
        <ele>49.2</ele>
        <time>2020-06-18T10:40:46Z</time>
      </trkpt>
      <trkpt lat="49.8795" lon="0.96556">
        <ele>49.4</ele>
        <time>2020-06-18T10:40:47Z</time>
      </trkpt>
      <trkpt lat="49.87952" lon="0.9656">
        <ele>49.6</ele>
        <time>2020-06-18T10:40:48Z</time>
      </trkpt>
      <trkpt lat="49.87953" lon="0.96567">
        <ele>49.8</ele>
        <time>2020-06-18T10:40:49Z</time>
      </trkpt>
      <trkpt lat="49.87954" lon="0.96573">
        <ele>50</ele>
        <time>2020-06-18T10:40:50Z</time>
      </trkpt>
      <trkpt lat="49.87955" lon="0.96576">
        <ele>50.1</ele>
        <time>2020-06-18T10:40:51Z</time>
      </trkpt>
      <trkpt lat="49.87956" lon="0.9658">
        <ele>50.2</ele>
        <time>2020-06-18T10:40:52Z</time>
      </trkpt>
      <trkpt lat="49.87957" lon="0.96584">
        <ele>50.3</ele>
        <time>2020-06-18T10:40:53Z</time>
      </trkpt>
      <trkpt lat="49.87957" lon="0.96586">
        <ele>50.3</ele>
        <time>2020-06-18T10:40:54Z</time>
      </trkpt>
      <trkpt lat="49.87958" lon="0.96592">
        <ele>50.5</ele>
        <time>2020-06-18T10:40:55Z</time>
      </trkpt>
      <trkpt lat="49.8796" lon="0.96599">
        <ele>50.7</ele>
        <time>2020-06-18T10:40:56Z</time>
      </trkpt>
      <trkpt lat="49.87961" lon="0.96606">
        <ele>50.9</ele>
        <time>2020-06-18T10:40:57Z</time>
      </trkpt>
      <trkpt lat="49.87963" lon="0.96611">
        <ele>51.1</ele>
        <time>2020-06-18T10:40:58Z</time>
      </trkpt>
      <trkpt lat="49.87964" lon="0.96618">
        <ele>51.3</ele>
        <time>2020-06-18T10:40:59Z</time>
      </trkpt>
      <trkpt lat="49.87964" lon="0.96622">
        <ele>51.4</ele>
        <time>2020-06-18T10:41:00Z</time>
      </trkpt>
      <trkpt lat="49.87965" lon="0.96627">
        <ele>51.6</ele>
        <time>2020-06-18T10:41:01Z</time>
      </trkpt>
      <trkpt lat="49.87966" lon="0.96633">
        <ele>51.8</ele>
        <time>2020-06-18T10:41:02Z</time>
      </trkpt>
      <trkpt lat="49.87967" lon="0.96638">
        <ele>51.9</ele>
        <time>2020-06-18T10:41:03Z</time>
      </trkpt>
      <trkpt lat="49.87968" lon="0.96644">
        <ele>52.1</ele>
        <time>2020-06-18T10:41:04Z</time>
      </trkpt>
      <trkpt lat="49.87968" lon="0.96649">
        <ele>52.3</ele>
        <time>2020-06-18T10:41:05Z</time>
      </trkpt>
      <trkpt lat="49.87969" lon="0.96655">
        <ele>52.4</ele>
        <time>2020-06-18T10:41:06Z</time>
      </trkpt>
      <trkpt lat="49.8797" lon="0.96662">
        <ele>52.6</ele>
        <time>2020-06-18T10:41:07Z</time>
      </trkpt>
      <trkpt lat="49.87971" lon="0.9667">
        <ele>52.9</ele>
        <time>2020-06-18T10:41:08Z</time>
      </trkpt>
      <trkpt lat="49.87973" lon="0.96674">
        <ele>53</ele>
        <time>2020-06-18T10:41:09Z</time>
      </trkpt>
      <trkpt lat="49.87974" lon="0.9668">
        <ele>53.2</ele>
        <time>2020-06-18T10:41:10Z</time>
      </trkpt>
      <trkpt lat="49.87975" lon="0.96686">
        <ele>53.4</ele>
        <time>2020-06-18T10:41:11Z</time>
      </trkpt>
      <trkpt lat="49.87975" lon="0.96688">
        <ele>53.5</ele>
        <time>2020-06-18T10:41:12Z</time>
      </trkpt>
      <trkpt lat="49.87976" lon="0.96693">
        <ele>53.7</ele>
        <time>2020-06-18T10:41:13Z</time>
      </trkpt>
      <trkpt lat="49.87977" lon="0.96698">
        <ele>54</ele>
        <time>2020-06-18T10:41:14Z</time>
      </trkpt>
      <trkpt lat="49.87978" lon="0.96702">
        <ele>54.2</ele>
        <time>2020-06-18T10:41:15Z</time>
      </trkpt>
      <trkpt lat="49.87979" lon="0.96708">
        <ele>54.5</ele>
        <time>2020-06-18T10:41:16Z</time>
      </trkpt>
      <trkpt lat="49.8798" lon="0.96714">
        <ele>54.9</ele>
        <time>2020-06-18T10:41:17Z</time>
      </trkpt>
      <trkpt lat="49.8798" lon="0.96719">
        <ele>55.5</ele>
        <time>2020-06-18T10:41:18Z</time>
      </trkpt>
      <trkpt lat="49.87982" lon="0.96723">
        <ele>56.1</ele>
        <time>2020-06-18T10:41:19Z</time>
      </trkpt>
      <trkpt lat="49.87983" lon="0.96726">
        <ele>56.5</ele>
        <time>2020-06-18T10:41:20Z</time>
      </trkpt>
      <trkpt lat="49.87984" lon="0.96732">
        <ele>57</ele>
        <time>2020-06-18T10:41:21Z</time>
      </trkpt>
      <trkpt lat="49.87984" lon="0.96735">
        <ele>57.2</ele>
        <time>2020-06-18T10:41:22Z</time>
      </trkpt>
      <trkpt lat="49.87985" lon="0.96741">
        <ele>57.5</ele>
        <time>2020-06-18T10:41:23Z</time>
      </trkpt>
      <trkpt lat="49.87986" lon="0.96749">
        <ele>57.8</ele>
        <time>2020-06-18T10:41:24Z</time>
      </trkpt>
      <trkpt lat="49.87988" lon="0.96755">
        <ele>58</ele>
        <time>2020-06-18T10:41:25Z</time>
      </trkpt>
      <trkpt lat="49.87989" lon="0.96762">
        <ele>58.2</ele>
        <time>2020-06-18T10:41:26Z</time>
      </trkpt>
      <trkpt lat="49.8799" lon="0.96767">
        <ele>58.4</ele>
        <time>2020-06-18T10:41:27Z</time>
      </trkpt>
      <trkpt lat="49.8799" lon="0.96773">
        <ele>58.5</ele>
        <time>2020-06-18T10:41:28Z</time>
      </trkpt>
      <trkpt lat="49.87991" lon="0.9678">
        <ele>58.7</ele>
        <time>2020-06-18T10:41:29Z</time>
      </trkpt>
      <trkpt lat="49.87993" lon="0.96786">
        <ele>58.9</ele>
        <time>2020-06-18T10:41:30Z</time>
      </trkpt>
      <trkpt lat="49.87993" lon="0.96794">
        <ele>59.1</ele>
        <time>2020-06-18T10:41:31Z</time>
      </trkpt>
      <trkpt lat="49.87995" lon="0.96801">
        <ele>59.3</ele>
        <time>2020-06-18T10:41:32Z</time>
      </trkpt>
      <trkpt lat="49.87996" lon="0.96807">
        <ele>59.4</ele>
        <time>2020-06-18T10:41:33Z</time>
      </trkpt>
      <trkpt lat="49.87997" lon="0.96815">
        <ele>59.6</ele>
        <time>2020-06-18T10:41:34Z</time>
      </trkpt>
      <trkpt lat="49.87998" lon="0.9682">
        <ele>59.7</ele>
        <time>2020-06-18T10:41:35Z</time>
      </trkpt>
      <trkpt lat="49.88" lon="0.96828">
        <ele>59.9</ele>
        <time>2020-06-18T10:41:36Z</time>
      </trkpt>
      <trkpt lat="49.88001" lon="0.96835">
        <ele>60.1</ele>
        <time>2020-06-18T10:41:37Z</time>
      </trkpt>
      <trkpt lat="49.88002" lon="0.9684">
        <ele>60.2</ele>
        <time>2020-06-18T10:41:38Z</time>
      </trkpt>
      <trkpt lat="49.88003" lon="0.96846">
        <ele>60.3</ele>
        <time>2020-06-18T10:41:39Z</time>
      </trkpt>
      <trkpt lat="49.88003" lon="0.96852">
        <ele>60.5</ele>
        <time>2020-06-18T10:41:40Z</time>
      </trkpt>
      <trkpt lat="49.88004" lon="0.96858">
        <ele>60.6</ele>
        <time>2020-06-18T10:41:41Z</time>
      </trkpt>
      <trkpt lat="49.88005" lon="0.96863">
        <ele>60.7</ele>
        <time>2020-06-18T10:41:42Z</time>
      </trkpt>
      <trkpt lat="49.88006" lon="0.9687">
        <ele>60.9</ele>
        <time>2020-06-18T10:41:43Z</time>
      </trkpt>
      <trkpt lat="49.88007" lon="0.96877">
        <ele>61.1</ele>
        <time>2020-06-18T10:41:44Z</time>
      </trkpt>
      <trkpt lat="49.88008" lon="0.96883">
        <ele>61.2</ele>
        <time>2020-06-18T10:41:45Z</time>
      </trkpt>
      <trkpt lat="49.88008" lon="0.96888">
        <ele>61.3</ele>
        <time>2020-06-18T10:41:46Z</time>
      </trkpt>
      <trkpt lat="49.88009" lon="0.96894">
        <ele>61.5</ele>
        <time>2020-06-18T10:41:47Z</time>
      </trkpt>
      <trkpt lat="49.88011" lon="0.96899">
        <ele>61.6</ele>
        <time>2020-06-18T10:41:48Z</time>
      </trkpt>
      <trkpt lat="49.88012" lon="0.96905">
        <ele>61.6</ele>
        <time>2020-06-18T10:41:49Z</time>
      </trkpt>
      <trkpt lat="49.88013" lon="0.96912">
        <ele>61.7</ele>
        <time>2020-06-18T10:41:50Z</time>
      </trkpt>
      <trkpt lat="49.88015" lon="0.96919">
        <ele>61.8</ele>
        <time>2020-06-18T10:41:51Z</time>
      </trkpt>
      <trkpt lat="49.88016" lon="0.96925">
        <ele>61.9</ele>
        <time>2020-06-18T10:41:52Z</time>
      </trkpt>
      <trkpt lat="49.88017" lon="0.96932">
        <ele>62</ele>
        <time>2020-06-18T10:41:53Z</time>
      </trkpt>
      <trkpt lat="49.88018" lon="0.96937">
        <ele>62</ele>
        <time>2020-06-18T10:41:54Z</time>
      </trkpt>
      <trkpt lat="49.88018" lon="0.96943">
        <ele>62.1</ele>
        <time>2020-06-18T10:41:55Z</time>
      </trkpt>
      <trkpt lat="49.88019" lon="0.96949">
        <ele>62.2</ele>
        <time>2020-06-18T10:41:56Z</time>
      </trkpt>
      <trkpt lat="49.8802" lon="0.96954">
        <ele>62.2</ele>
        <time>2020-06-18T10:41:57Z</time>
      </trkpt>
      <trkpt lat="49.88022" lon="0.9696">
        <ele>62.3</ele>
        <time>2020-06-18T10:41:58Z</time>
      </trkpt>
      <trkpt lat="49.88023" lon="0.96967">
        <ele>62.4</ele>
        <time>2020-06-18T10:41:59Z</time>
      </trkpt>
      <trkpt lat="49.88025" lon="0.96973">
        <ele>62.4</ele>
        <time>2020-06-18T10:42:00Z</time>
      </trkpt>
      <trkpt lat="49.88026" lon="0.96979">
        <ele>62.5</ele>
        <time>2020-06-18T10:42:01Z</time>
      </trkpt>
      <trkpt lat="49.88026" lon="0.96985">
        <ele>62.6</ele>
        <time>2020-06-18T10:42:02Z</time>
      </trkpt>
      <trkpt lat="49.88027" lon="0.96991">
        <ele>62.8</ele>
        <time>2020-06-18T10:42:03Z</time>
      </trkpt>
      <trkpt lat="49.88029" lon="0.96998">
        <ele>62.9</ele>
        <time>2020-06-18T10:42:04Z</time>
      </trkpt>
      <trkpt lat="49.8803" lon="0.97004">
        <ele>63</ele>
        <time>2020-06-18T10:42:05Z</time>
      </trkpt>
      <trkpt lat="49.88031" lon="0.9701">
        <ele>63.1</ele>
        <time>2020-06-18T10:42:06Z</time>
      </trkpt>
      <trkpt lat="49.88032" lon="0.97017">
        <ele>63.2</ele>
        <time>2020-06-18T10:42:07Z</time>
      </trkpt>
      <trkpt lat="49.88032" lon="0.97022">
        <ele>63.3</ele>
        <time>2020-06-18T10:42:08Z</time>
      </trkpt>
      <trkpt lat="49.88033" lon="0.97028">
        <ele>63.4</ele>
        <time>2020-06-18T10:42:09Z</time>
      </trkpt>
      <trkpt lat="49.88034" lon="0.97034">
        <ele>63.5</ele>
        <time>2020-06-18T10:42:10Z</time>
      </trkpt>
      <trkpt lat="49.88036" lon="0.97041">
        <ele>63.5</ele>
        <time>2020-06-18T10:42:11Z</time>
      </trkpt>
      <trkpt lat="49.88037" lon="0.97048">
        <ele>63.6</ele>
        <time>2020-06-18T10:42:12Z</time>
      </trkpt>
      <trkpt lat="49.88039" lon="0.97054">
        <ele>63.7</ele>
        <time>2020-06-18T10:42:13Z</time>
      </trkpt>
      <trkpt lat="49.8804" lon="0.9706">
        <ele>63.8</ele>
        <time>2020-06-18T10:42:14Z</time>
      </trkpt>
      <trkpt lat="49.88041" lon="0.97067">
        <ele>63.8</ele>
        <time>2020-06-18T10:42:15Z</time>
      </trkpt>
      <trkpt lat="49.88042" lon="0.97073">
        <ele>63.9</ele>
        <time>2020-06-18T10:42:16Z</time>
      </trkpt>
      <trkpt lat="49.88042" lon="0.9708">
        <ele>64</ele>
        <time>2020-06-18T10:42:17Z</time>
      </trkpt>
      <trkpt lat="49.88043" lon="0.97086">
        <ele>64.1</ele>
        <time>2020-06-18T10:42:18Z</time>
      </trkpt>
      <trkpt lat="49.88044" lon="0.97092">
        <ele>64.2</ele>
        <time>2020-06-18T10:42:19Z</time>
      </trkpt>
      <trkpt lat="49.88045" lon="0.97098">
        <ele>64.3</ele>
        <time>2020-06-18T10:42:20Z</time>
      </trkpt>
      <trkpt lat="49.88046" lon="0.97104">
        <ele>64.4</ele>
        <time>2020-06-18T10:42:21Z</time>
      </trkpt>
      <trkpt lat="49.88048" lon="0.97108">
        <ele>64.4</ele>
        <time>2020-06-18T10:42:22Z</time>
      </trkpt>
      <trkpt lat="49.88049" lon="0.97117">
        <ele>64.5</ele>
        <time>2020-06-18T10:42:23Z</time>
      </trkpt>
      <trkpt lat="49.8805" lon="0.97124">
        <ele>64.5</ele>
        <time>2020-06-18T10:42:24Z</time>
      </trkpt>
      <trkpt lat="49.88052" lon="0.97131">
        <ele>64.6</ele>
        <time>2020-06-18T10:42:25Z</time>
      </trkpt>
      <trkpt lat="49.88053" lon="0.97137">
        <ele>64.7</ele>
        <time>2020-06-18T10:42:26Z</time>
      </trkpt>
      <trkpt lat="49.88055" lon="0.97144">
        <ele>64.7</ele>
        <time>2020-06-18T10:42:27Z</time>
      </trkpt>
      <trkpt lat="49.88056" lon="0.9715">
        <ele>64.8</ele>
        <time>2020-06-18T10:42:28Z</time>
      </trkpt>
      <trkpt lat="49.88057" lon="0.97157">
        <ele>64.8</ele>
        <time>2020-06-18T10:42:29Z</time>
      </trkpt>
      <trkpt lat="49.88058" lon="0.97163">
        <ele>64.8</ele>
        <time>2020-06-18T10:42:30Z</time>
      </trkpt>
      <trkpt lat="49.8806" lon="0.97168">
        <ele>64.8</ele>
        <time>2020-06-18T10:42:31Z</time>
      </trkpt>
      <trkpt lat="49.8806" lon="0.97173">
        <ele>64.8</ele>
        <time>2020-06-18T10:42:32Z</time>
      </trkpt>
      <trkpt lat="49.88061" lon="0.97179">
        <ele>64.8</ele>
        <time>2020-06-18T10:42:33Z</time>
      </trkpt>
      <trkpt lat="49.88061" lon="0.97185">
        <ele>64.8</ele>
        <time>2020-06-18T10:42:34Z</time>
      </trkpt>
      <trkpt lat="49.88063" lon="0.97191">
        <ele>64.9</ele>
        <time>2020-06-18T10:42:35Z</time>
      </trkpt>
      <trkpt lat="49.88064" lon="0.97197">
        <ele>64.9</ele>
        <time>2020-06-18T10:42:36Z</time>
      </trkpt>
      <trkpt lat="49.88065" lon="0.97203">
        <ele>64.9</ele>
        <time>2020-06-18T10:42:37Z</time>
      </trkpt>
      <trkpt lat="49.88066" lon="0.97211">
        <ele>65</ele>
        <time>2020-06-18T10:42:38Z</time>
      </trkpt>
      <trkpt lat="49.88068" lon="0.97217">
        <ele>65</ele>
        <time>2020-06-18T10:42:39Z</time>
      </trkpt>
      <trkpt lat="49.88069" lon="0.97225">
        <ele>65</ele>
        <time>2020-06-18T10:42:40Z</time>
      </trkpt>
      <trkpt lat="49.88071" lon="0.97233">
        <ele>65</ele>
        <time>2020-06-18T10:42:41Z</time>
      </trkpt>
      <trkpt lat="49.88072" lon="0.9724">
        <ele>65.1</ele>
        <time>2020-06-18T10:42:42Z</time>
      </trkpt>
      <trkpt lat="49.88073" lon="0.97246">
        <ele>65.1</ele>
        <time>2020-06-18T10:42:43Z</time>
      </trkpt>
      <trkpt lat="49.88075" lon="0.97254">
        <ele>65.2</ele>
        <time>2020-06-18T10:42:44Z</time>
      </trkpt>
      <trkpt lat="49.88076" lon="0.97261">
        <ele>65.3</ele>
        <time>2020-06-18T10:42:45Z</time>
      </trkpt>
      <trkpt lat="49.88077" lon="0.97268">
        <ele>65.3</ele>
        <time>2020-06-18T10:42:46Z</time>
      </trkpt>
      <trkpt lat="49.88079" lon="0.97275">
        <ele>65.4</ele>
        <time>2020-06-18T10:42:47Z</time>
      </trkpt>
      <trkpt lat="49.8808" lon="0.97283">
        <ele>65.5</ele>
        <time>2020-06-18T10:42:48Z</time>
      </trkpt>
      <trkpt lat="49.88081" lon="0.9729">
        <ele>65.5</ele>
        <time>2020-06-18T10:42:49Z</time>
      </trkpt>
      <trkpt lat="49.88082" lon="0.97296">
        <ele>65.6</ele>
        <time>2020-06-18T10:42:50Z</time>
      </trkpt>
      <trkpt lat="49.88083" lon="0.97303">
        <ele>65.6</ele>
        <time>2020-06-18T10:42:51Z</time>
      </trkpt>
      <trkpt lat="49.88084" lon="0.97309">
        <ele>65.7</ele>
        <time>2020-06-18T10:42:52Z</time>
      </trkpt>
      <trkpt lat="49.88085" lon="0.97316">
        <ele>65.8</ele>
        <time>2020-06-18T10:42:53Z</time>
      </trkpt>
      <trkpt lat="49.88086" lon="0.97323">
        <ele>65.9</ele>
        <time>2020-06-18T10:42:54Z</time>
      </trkpt>
      <trkpt lat="49.88087" lon="0.97331">
        <ele>66</ele>
        <time>2020-06-18T10:42:55Z</time>
      </trkpt>
      <trkpt lat="49.88088" lon="0.97338">
        <ele>66.2</ele>
        <time>2020-06-18T10:42:56Z</time>
      </trkpt>
      <trkpt lat="49.88089" lon="0.97346">
        <ele>66.3</ele>
        <time>2020-06-18T10:42:57Z</time>
      </trkpt>
      <trkpt lat="49.8809" lon="0.97353">
        <ele>66.3</ele>
        <time>2020-06-18T10:42:58Z</time>
      </trkpt>
      <trkpt lat="49.88092" lon="0.97362">
        <ele>66.3</ele>
        <time>2020-06-18T10:42:59Z</time>
      </trkpt>
      <trkpt lat="49.88093" lon="0.9737">
        <ele>66.4</ele>
        <time>2020-06-18T10:43:00Z</time>
      </trkpt>
      <trkpt lat="49.88095" lon="0.97377">
        <ele>66.4</ele>
        <time>2020-06-18T10:43:01Z</time>
      </trkpt>
      <trkpt lat="49.88096" lon="0.97384">
        <ele>66.5</ele>
        <time>2020-06-18T10:43:02Z</time>
      </trkpt>
      <trkpt lat="49.88097" lon="0.97391">
        <ele>66.5</ele>
        <time>2020-06-18T10:43:03Z</time>
      </trkpt>
      <trkpt lat="49.88098" lon="0.97399">
        <ele>66.6</ele>
        <time>2020-06-18T10:43:04Z</time>
      </trkpt>
      <trkpt lat="49.881" lon="0.97405">
        <ele>66.6</ele>
        <time>2020-06-18T10:43:05Z</time>
      </trkpt>
      <trkpt lat="49.881" lon="0.97412">
        <ele>66.6</ele>
        <time>2020-06-18T10:43:06Z</time>
      </trkpt>
      <trkpt lat="49.88102" lon="0.97419">
        <ele>66.7</ele>
        <time>2020-06-18T10:43:07Z</time>
      </trkpt>
      <trkpt lat="49.88103" lon="0.97426">
        <ele>66.7</ele>
        <time>2020-06-18T10:43:08Z</time>
      </trkpt>
      <trkpt lat="49.88104" lon="0.97433">
        <ele>66.8</ele>
        <time>2020-06-18T10:43:09Z</time>
      </trkpt>
      <trkpt lat="49.88105" lon="0.9744">
        <ele>66.8</ele>
        <time>2020-06-18T10:43:10Z</time>
      </trkpt>
      <trkpt lat="49.88106" lon="0.97447">
        <ele>66.9</ele>
        <time>2020-06-18T10:43:11Z</time>
      </trkpt>
      <trkpt lat="49.88108" lon="0.97455">
        <ele>67</ele>
        <time>2020-06-18T10:43:12Z</time>
      </trkpt>
      <trkpt lat="49.8811" lon="0.97462">
        <ele>67.1</ele>
        <time>2020-06-18T10:43:13Z</time>
      </trkpt>
      <trkpt lat="49.88111" lon="0.9747">
        <ele>67.2</ele>
        <time>2020-06-18T10:43:14Z</time>
      </trkpt>
      <trkpt lat="49.88112" lon="0.97478">
        <ele>67.3</ele>
        <time>2020-06-18T10:43:15Z</time>
      </trkpt>
      <trkpt lat="49.88113" lon="0.97485">
        <ele>67.3</ele>
        <time>2020-06-18T10:43:16Z</time>
      </trkpt>
      <trkpt lat="49.88114" lon="0.97493">
        <ele>67.4</ele>
        <time>2020-06-18T10:43:17Z</time>
      </trkpt>
      <trkpt lat="49.88115" lon="0.97502">
        <ele>67.5</ele>
        <time>2020-06-18T10:43:18Z</time>
      </trkpt>
      <trkpt lat="49.88117" lon="0.9751">
        <ele>67.6</ele>
        <time>2020-06-18T10:43:19Z</time>
      </trkpt>
      <trkpt lat="49.88118" lon="0.97518">
        <ele>67.7</ele>
        <time>2020-06-18T10:43:20Z</time>
      </trkpt>
      <trkpt lat="49.8812" lon="0.97526">
        <ele>67.7</ele>
        <time>2020-06-18T10:43:21Z</time>
      </trkpt>
      <trkpt lat="49.8812" lon="0.97533">
        <ele>67.8</ele>
        <time>2020-06-18T10:43:22Z</time>
      </trkpt>
      <trkpt lat="49.88121" lon="0.9754">
        <ele>67.8</ele>
        <time>2020-06-18T10:43:23Z</time>
      </trkpt>
      <trkpt lat="49.88123" lon="0.97547">
        <ele>67.9</ele>
        <time>2020-06-18T10:43:24Z</time>
      </trkpt>
      <trkpt lat="49.88125" lon="0.97554">
        <ele>68</ele>
        <time>2020-06-18T10:43:25Z</time>
      </trkpt>
      <trkpt lat="49.88126" lon="0.97564">
        <ele>68</ele>
        <time>2020-06-18T10:43:26Z</time>
      </trkpt>
      <trkpt lat="49.88128" lon="0.97572">
        <ele>68</ele>
        <time>2020-06-18T10:43:27Z</time>
      </trkpt>
      <trkpt lat="49.8813" lon="0.97579">
        <ele>68.3</ele>
        <time>2020-06-18T10:43:28Z</time>
      </trkpt>
      <trkpt lat="49.88131" lon="0.97587">
        <ele>68.8</ele>
        <time>2020-06-18T10:43:29Z</time>
      </trkpt>
      <trkpt lat="49.88132" lon="0.97593">
        <ele>69.1</ele>
        <time>2020-06-18T10:43:30Z</time>
      </trkpt>
      <trkpt lat="49.88134" lon="0.976">
        <ele>69.3</ele>
        <time>2020-06-18T10:43:31Z</time>
      </trkpt>
      <trkpt lat="49.88135" lon="0.97608">
        <ele>69.3</ele>
        <time>2020-06-18T10:43:32Z</time>
      </trkpt>
      <trkpt lat="49.88137" lon="0.97616">
        <ele>69.3</ele>
        <time>2020-06-18T10:43:33Z</time>
      </trkpt>
      <trkpt lat="49.88138" lon="0.97625">
        <ele>69.3</ele>
        <time>2020-06-18T10:43:34Z</time>
      </trkpt>
      <trkpt lat="49.88139" lon="0.97634">
        <ele>69.2</ele>
        <time>2020-06-18T10:43:35Z</time>
      </trkpt>
      <trkpt lat="49.88141" lon="0.97643">
        <ele>69.2</ele>
        <time>2020-06-18T10:43:36Z</time>
      </trkpt>
      <trkpt lat="49.88143" lon="0.97652">
        <ele>69.2</ele>
        <time>2020-06-18T10:43:37Z</time>
      </trkpt>
      <trkpt lat="49.88145" lon="0.9766">
        <ele>69.1</ele>
        <time>2020-06-18T10:43:38Z</time>
      </trkpt>
      <trkpt lat="49.88146" lon="0.97668">
        <ele>69.1</ele>
        <time>2020-06-18T10:43:39Z</time>
      </trkpt>
      <trkpt lat="49.88148" lon="0.97676">
        <ele>69.1</ele>
        <time>2020-06-18T10:43:40Z</time>
      </trkpt>
      <trkpt lat="49.88149" lon="0.97683">
        <ele>69.1</ele>
        <time>2020-06-18T10:43:41Z</time>
      </trkpt>
      <trkpt lat="49.8815" lon="0.97692">
        <ele>69.1</ele>
        <time>2020-06-18T10:43:42Z</time>
      </trkpt>
      <trkpt lat="49.88151" lon="0.977">
        <ele>69.1</ele>
        <time>2020-06-18T10:43:43Z</time>
      </trkpt>
      <trkpt lat="49.88151" lon="0.97706">
        <ele>69.1</ele>
        <time>2020-06-18T10:43:44Z</time>
      </trkpt>
      <trkpt lat="49.88152" lon="0.97714">
        <ele>69.1</ele>
        <time>2020-06-18T10:43:45Z</time>
      </trkpt>
      <trkpt lat="49.88154" lon="0.97722">
        <ele>69.2</ele>
        <time>2020-06-18T10:43:46Z</time>
      </trkpt>
      <trkpt lat="49.88156" lon="0.97731">
        <ele>69.2</ele>
        <time>2020-06-18T10:43:47Z</time>
      </trkpt>
      <trkpt lat="49.88158" lon="0.97739">
        <ele>69.3</ele>
        <time>2020-06-18T10:43:48Z</time>
      </trkpt>
      <trkpt lat="49.88159" lon="0.97747">
        <ele>69.3</ele>
        <time>2020-06-18T10:43:49Z</time>
      </trkpt>
      <trkpt lat="49.88161" lon="0.97755">
        <ele>69.4</ele>
        <time>2020-06-18T10:43:50Z</time>
      </trkpt>
      <trkpt lat="49.88162" lon="0.97763">
        <ele>69.5</ele>
        <time>2020-06-18T10:43:51Z</time>
      </trkpt>
      <trkpt lat="49.88163" lon="0.97772">
        <ele>69.6</ele>
        <time>2020-06-18T10:43:52Z</time>
      </trkpt>
      <trkpt lat="49.88165" lon="0.9778">
        <ele>69.7</ele>
        <time>2020-06-18T10:43:53Z</time>
      </trkpt>
      <trkpt lat="49.88166" lon="0.97789">
        <ele>69.8</ele>
        <time>2020-06-18T10:43:54Z</time>
      </trkpt>
      <trkpt lat="49.88169" lon="0.97797">
        <ele>69.9</ele>
        <time>2020-06-18T10:43:55Z</time>
      </trkpt>
      <trkpt lat="49.88169" lon="0.97805">
        <ele>69.8</ele>
        <time>2020-06-18T10:43:56Z</time>
      </trkpt>
      <trkpt lat="49.88171" lon="0.97814">
        <ele>69.8</ele>
        <time>2020-06-18T10:43:57Z</time>
      </trkpt>
      <trkpt lat="49.88172" lon="0.97823">
        <ele>69.7</ele>
        <time>2020-06-18T10:43:58Z</time>
      </trkpt>
      <trkpt lat="49.88174" lon="0.97832">
        <ele>69.6</ele>
        <time>2020-06-18T10:43:59Z</time>
      </trkpt>
      <trkpt lat="49.88176" lon="0.97839">
        <ele>69.5</ele>
        <time>2020-06-18T10:44:00Z</time>
      </trkpt>
      <trkpt lat="49.88177" lon="0.97847">
        <ele>69.5</ele>
        <time>2020-06-18T10:44:01Z</time>
      </trkpt>
      <trkpt lat="49.88178" lon="0.97855">
        <ele>69.4</ele>
        <time>2020-06-18T10:44:02Z</time>
      </trkpt>
      <trkpt lat="49.88179" lon="0.97863">
        <ele>69.5</ele>
        <time>2020-06-18T10:44:03Z</time>
      </trkpt>
      <trkpt lat="49.88181" lon="0.97871">
        <ele>69.5</ele>
        <time>2020-06-18T10:44:04Z</time>
      </trkpt>
      <trkpt lat="49.88182" lon="0.97878">
        <ele>69.5</ele>
        <time>2020-06-18T10:44:05Z</time>
      </trkpt>
      <trkpt lat="49.88184" lon="0.97886">
        <ele>69.5</ele>
        <time>2020-06-18T10:44:06Z</time>
      </trkpt>
      <trkpt lat="49.88184" lon="0.97891">
        <ele>69.5</ele>
        <time>2020-06-18T10:44:07Z</time>
      </trkpt>
      <trkpt lat="49.88185" lon="0.97898">
        <ele>69.5</ele>
        <time>2020-06-18T10:44:08Z</time>
      </trkpt>
      <trkpt lat="49.88187" lon="0.97905">
        <ele>69.5</ele>
        <time>2020-06-18T10:44:09Z</time>
      </trkpt>
      <trkpt lat="49.88188" lon="0.97912">
        <ele>69.5</ele>
        <time>2020-06-18T10:44:10Z</time>
      </trkpt>
      <trkpt lat="49.8819" lon="0.97921">
        <ele>69.5</ele>
        <time>2020-06-18T10:44:11Z</time>
      </trkpt>
      <trkpt lat="49.88192" lon="0.97929">
        <ele>69.5</ele>
        <time>2020-06-18T10:44:12Z</time>
      </trkpt>
      <trkpt lat="49.88193" lon="0.97937">
        <ele>69.4</ele>
        <time>2020-06-18T10:44:13Z</time>
      </trkpt>
      <trkpt lat="49.88195" lon="0.97944">
        <ele>69.4</ele>
        <time>2020-06-18T10:44:14Z</time>
      </trkpt>
      <trkpt lat="49.88196" lon="0.97951">
        <ele>69.4</ele>
        <time>2020-06-18T10:44:15Z</time>
      </trkpt>
      <trkpt lat="49.88197" lon="0.97959">
        <ele>69.3</ele>
        <time>2020-06-18T10:44:16Z</time>
      </trkpt>
      <trkpt lat="49.88198" lon="0.97966">
        <ele>69.2</ele>
        <time>2020-06-18T10:44:17Z</time>
      </trkpt>
      <trkpt lat="49.88199" lon="0.97974">
        <ele>69.2</ele>
        <time>2020-06-18T10:44:18Z</time>
      </trkpt>
      <trkpt lat="49.882" lon="0.97981">
        <ele>69.1</ele>
        <time>2020-06-18T10:44:19Z</time>
      </trkpt>
      <trkpt lat="49.88202" lon="0.97988">
        <ele>69.1</ele>
        <time>2020-06-18T10:44:20Z</time>
      </trkpt>
      <trkpt lat="49.88203" lon="0.97995">
        <ele>69</ele>
        <time>2020-06-18T10:44:21Z</time>
      </trkpt>
      <trkpt lat="49.88204" lon="0.98002">
        <ele>69</ele>
        <time>2020-06-18T10:44:22Z</time>
      </trkpt>
      <trkpt lat="49.88206" lon="0.98009">
        <ele>69</ele>
        <time>2020-06-18T10:44:23Z</time>
      </trkpt>
      <trkpt lat="49.88208" lon="0.98016">
        <ele>69</ele>
        <time>2020-06-18T10:44:24Z</time>
      </trkpt>
      <trkpt lat="49.88209" lon="0.98024">
        <ele>69</ele>
        <time>2020-06-18T10:44:25Z</time>
      </trkpt>
      <trkpt lat="49.8821" lon="0.98032">
        <ele>69</ele>
        <time>2020-06-18T10:44:26Z</time>
      </trkpt>
      <trkpt lat="49.88211" lon="0.9804">
        <ele>68.9</ele>
        <time>2020-06-18T10:44:27Z</time>
      </trkpt>
      <trkpt lat="49.88212" lon="0.98049">
        <ele>68.9</ele>
        <time>2020-06-18T10:44:28Z</time>
      </trkpt>
      <trkpt lat="49.88213" lon="0.9806">
        <ele>68.8</ele>
        <time>2020-06-18T10:44:29Z</time>
      </trkpt>
      <trkpt lat="49.88215" lon="0.98069">
        <ele>68.8</ele>
        <time>2020-06-18T10:44:30Z</time>
      </trkpt>
      <trkpt lat="49.88216" lon="0.98077">
        <ele>68.7</ele>
        <time>2020-06-18T10:44:31Z</time>
      </trkpt>
      <trkpt lat="49.88217" lon="0.98086">
        <ele>68.7</ele>
        <time>2020-06-18T10:44:32Z</time>
      </trkpt>
      <trkpt lat="49.88219" lon="0.98096">
        <ele>68.6</ele>
        <time>2020-06-18T10:44:33Z</time>
      </trkpt>
      <trkpt lat="49.8822" lon="0.98104">
        <ele>68.6</ele>
        <time>2020-06-18T10:44:34Z</time>
      </trkpt>
      <trkpt lat="49.88222" lon="0.98115">
        <ele>68.5</ele>
        <time>2020-06-18T10:44:35Z</time>
      </trkpt>
      <trkpt lat="49.88223" lon="0.98125">
        <ele>68.5</ele>
        <time>2020-06-18T10:44:36Z</time>
      </trkpt>
      <trkpt lat="49.88225" lon="0.98133">
        <ele>68.4</ele>
        <time>2020-06-18T10:44:37Z</time>
      </trkpt>
      <trkpt lat="49.88227" lon="0.98143">
        <ele>68.3</ele>
        <time>2020-06-18T10:44:38Z</time>
      </trkpt>
      <trkpt lat="49.88229" lon="0.98153">
        <ele>68.3</ele>
        <time>2020-06-18T10:44:39Z</time>
      </trkpt>
      <trkpt lat="49.8823" lon="0.98163">
        <ele>68.2</ele>
        <time>2020-06-18T10:44:40Z</time>
      </trkpt>
      <trkpt lat="49.88232" lon="0.98173">
        <ele>68.1</ele>
        <time>2020-06-18T10:44:41Z</time>
      </trkpt>
      <trkpt lat="49.88234" lon="0.98184">
        <ele>68.1</ele>
        <time>2020-06-18T10:44:42Z</time>
      </trkpt>
      <trkpt lat="49.88236" lon="0.98194">
        <ele>68</ele>
        <time>2020-06-18T10:44:43Z</time>
      </trkpt>
      <trkpt lat="49.88238" lon="0.98205">
        <ele>67.9</ele>
        <time>2020-06-18T10:44:44Z</time>
      </trkpt>
      <trkpt lat="49.8824" lon="0.98215">
        <ele>67.7</ele>
        <time>2020-06-18T10:44:45Z</time>
      </trkpt>
      <trkpt lat="49.88241" lon="0.98226">
        <ele>67.6</ele>
        <time>2020-06-18T10:44:46Z</time>
      </trkpt>
      <trkpt lat="49.88243" lon="0.98236">
        <ele>67.5</ele>
        <time>2020-06-18T10:44:47Z</time>
      </trkpt>
      <trkpt lat="49.88244" lon="0.98246">
        <ele>67.5</ele>
        <time>2020-06-18T10:44:48Z</time>
      </trkpt>
      <trkpt lat="49.88246" lon="0.98256">
        <ele>67.5</ele>
        <time>2020-06-18T10:44:49Z</time>
      </trkpt>
      <trkpt lat="49.88248" lon="0.98266">
        <ele>67.5</ele>
        <time>2020-06-18T10:44:50Z</time>
      </trkpt>
      <trkpt lat="49.88249" lon="0.98275">
        <ele>67.5</ele>
        <time>2020-06-18T10:44:51Z</time>
      </trkpt>
      <trkpt lat="49.88251" lon="0.98284">
        <ele>67.4</ele>
        <time>2020-06-18T10:44:52Z</time>
      </trkpt>
      <trkpt lat="49.88253" lon="0.98293">
        <ele>67.4</ele>
        <time>2020-06-18T10:44:53Z</time>
      </trkpt>
      <trkpt lat="49.88254" lon="0.98301">
        <ele>67.4</ele>
        <time>2020-06-18T10:44:54Z</time>
      </trkpt>
      <trkpt lat="49.88256" lon="0.98309">
        <ele>67.4</ele>
        <time>2020-06-18T10:44:55Z</time>
      </trkpt>
      <trkpt lat="49.88257" lon="0.98316">
        <ele>67.4</ele>
        <time>2020-06-18T10:44:56Z</time>
      </trkpt>
      <trkpt lat="49.88258" lon="0.98323">
        <ele>67.4</ele>
        <time>2020-06-18T10:44:57Z</time>
      </trkpt>
      <trkpt lat="49.8826" lon="0.98329">
        <ele>67.3</ele>
        <time>2020-06-18T10:44:58Z</time>
      </trkpt>
      <trkpt lat="49.88261" lon="0.98335">
        <ele>67.3</ele>
        <time>2020-06-18T10:44:59Z</time>
      </trkpt>
      <trkpt lat="49.88262" lon="0.9834">
        <ele>67.3</ele>
        <time>2020-06-18T10:45:00Z</time>
      </trkpt>
      <trkpt lat="49.88263" lon="0.98346">
        <ele>67.3</ele>
        <time>2020-06-18T10:45:01Z</time>
      </trkpt>
      <trkpt lat="49.88264" lon="0.98351">
        <ele>67.3</ele>
        <time>2020-06-18T10:45:02Z</time>
      </trkpt>
      <trkpt lat="49.88265" lon="0.98356">
        <ele>67.3</ele>
        <time>2020-06-18T10:45:03Z</time>
      </trkpt>
      <trkpt lat="49.88266" lon="0.98361">
        <ele>67.3</ele>
        <time>2020-06-18T10:45:04Z</time>
      </trkpt>
      <trkpt lat="49.88266" lon="0.98366">
        <ele>67.3</ele>
        <time>2020-06-18T10:45:05Z</time>
      </trkpt>
      <trkpt lat="49.88267" lon="0.9837">
        <ele>67.2</ele>
        <time>2020-06-18T10:45:06Z</time>
      </trkpt>
      <trkpt lat="49.88267" lon="0.98375">
        <ele>67.2</ele>
        <time>2020-06-18T10:45:07Z</time>
      </trkpt>
      <trkpt lat="49.88267" lon="0.98379">
        <ele>67.2</ele>
        <time>2020-06-18T10:45:08Z</time>
      </trkpt>
      <trkpt lat="49.88266" lon="0.9838">
        <ele>67.2</ele>
        <time>2020-06-18T10:45:09Z</time>
      </trkpt>
      <trkpt lat="49.88266" lon="0.98381">
        <ele>67.2</ele>
        <time>2020-06-18T10:45:10Z</time>
      </trkpt>
      <trkpt lat="49.88266" lon="0.9838">
        <ele>67.2</ele>
        <time>2020-06-18T10:45:11Z</time>
      </trkpt>
      <trkpt lat="49.88265" lon="0.9838">
        <ele>67.2</ele>
        <time>2020-06-18T10:45:12Z</time>
      </trkpt>
      <trkpt lat="49.88265" lon="0.9838">
        <ele>67.2</ele>
        <time>2020-06-18T10:45:13Z</time>
      </trkpt>
      <trkpt lat="49.88265" lon="0.9838">
        <ele>67.2</ele>
        <time>2020-06-18T10:45:14Z</time>
      </trkpt>
      <trkpt lat="49.88265" lon="0.98379">
        <ele>67.2</ele>
        <time>2020-06-18T10:45:15Z</time>
      </trkpt>
      <trkpt lat="49.88264" lon="0.98379">
        <ele>67.2</ele>
        <time>2020-06-18T10:45:16Z</time>
      </trkpt>
      <trkpt lat="49.88265" lon="0.98379">
        <ele>67.2</ele>
        <time>2020-06-18T10:45:17Z</time>
      </trkpt>
      <trkpt lat="49.88263" lon="0.98379">
        <ele>67.2</ele>
        <time>2020-06-18T10:45:18Z</time>
      </trkpt>
      <trkpt lat="49.88265" lon="0.98381">
        <ele>67.2</ele>
        <time>2020-06-18T10:45:19Z</time>
      </trkpt>
      <trkpt lat="49.88268" lon="0.98383">
        <ele>67.2</ele>
        <time>2020-06-18T10:45:20Z</time>
      </trkpt>
      <trkpt lat="49.8827" lon="0.98384">
        <ele>67.3</ele>
        <time>2020-06-18T10:49:03Z</time>
      </trkpt>
      <trkpt lat="49.88272" lon="0.98386">
        <ele>67.3</ele>
        <time>2020-06-18T10:49:04Z</time>
      </trkpt>
      <trkpt lat="49.88273" lon="0.9839">
        <ele>67.3</ele>
        <time>2020-06-18T10:49:05Z</time>
      </trkpt>
      <trkpt lat="49.88274" lon="0.98395">
        <ele>67.3</ele>
        <time>2020-06-18T10:49:06Z</time>
      </trkpt>
      <trkpt lat="49.88273" lon="0.984">
        <ele>67.3</ele>
        <time>2020-06-18T10:49:07Z</time>
      </trkpt>
      <trkpt lat="49.88274" lon="0.98404">
        <ele>67.2</ele>
        <time>2020-06-18T10:49:08Z</time>
      </trkpt>
      <trkpt lat="49.88274" lon="0.98409">
        <ele>67.2</ele>
        <time>2020-06-18T10:49:09Z</time>
      </trkpt>
      <trkpt lat="49.88275" lon="0.98413">
        <ele>67.2</ele>
        <time>2020-06-18T10:49:10Z</time>
      </trkpt>
      <trkpt lat="49.88274" lon="0.98418">
        <ele>67.1</ele>
        <time>2020-06-18T10:49:11Z</time>
      </trkpt>
      <trkpt lat="49.88275" lon="0.98422">
        <ele>67.1</ele>
        <time>2020-06-18T10:49:12Z</time>
      </trkpt>
      <trkpt lat="49.88276" lon="0.98428">
        <ele>67.1</ele>
        <time>2020-06-18T10:49:13Z</time>
      </trkpt>
      <trkpt lat="49.88277" lon="0.9843">
        <ele>67.1</ele>
        <time>2020-06-18T10:49:14Z</time>
      </trkpt>
      <trkpt lat="49.88276" lon="0.98434">
        <ele>67.1</ele>
        <time>2020-06-18T10:49:15Z</time>
      </trkpt>
      <trkpt lat="49.88277" lon="0.98439">
        <ele>67.1</ele>
        <time>2020-06-18T10:49:16Z</time>
      </trkpt>
      <trkpt lat="49.88277" lon="0.98444">
        <ele>67</ele>
        <time>2020-06-18T10:49:17Z</time>
      </trkpt>
      <trkpt lat="49.88278" lon="0.9845">
        <ele>67</ele>
        <time>2020-06-18T10:49:18Z</time>
      </trkpt>
      <trkpt lat="49.8828" lon="0.98457">
        <ele>67</ele>
        <time>2020-06-18T10:49:19Z</time>
      </trkpt>
      <trkpt lat="49.88282" lon="0.98462">
        <ele>66.9</ele>
        <time>2020-06-18T10:49:20Z</time>
      </trkpt>
      <trkpt lat="49.88283" lon="0.98469">
        <ele>66.9</ele>
        <time>2020-06-18T10:49:21Z</time>
      </trkpt>
      <trkpt lat="49.88284" lon="0.98476">
        <ele>66.9</ele>
        <time>2020-06-18T10:49:22Z</time>
      </trkpt>
      <trkpt lat="49.88286" lon="0.98484">
        <ele>66.8</ele>
        <time>2020-06-18T10:49:23Z</time>
      </trkpt>
      <trkpt lat="49.88287" lon="0.98491">
        <ele>66.8</ele>
        <time>2020-06-18T10:49:24Z</time>
      </trkpt>
      <trkpt lat="49.88288" lon="0.98499">
        <ele>66.8</ele>
        <time>2020-06-18T10:49:25Z</time>
      </trkpt>
      <trkpt lat="49.88289" lon="0.98506">
        <ele>66.7</ele>
        <time>2020-06-18T10:49:26Z</time>
      </trkpt>
      <trkpt lat="49.88291" lon="0.98514">
        <ele>66.7</ele>
        <time>2020-06-18T10:49:27Z</time>
      </trkpt>
      <trkpt lat="49.88292" lon="0.98521">
        <ele>66.6</ele>
        <time>2020-06-18T10:49:28Z</time>
      </trkpt>
      <trkpt lat="49.88294" lon="0.98528">
        <ele>66.6</ele>
        <time>2020-06-18T10:49:29Z</time>
      </trkpt>
      <trkpt lat="49.88295" lon="0.98536">
        <ele>66.5</ele>
        <time>2020-06-18T10:49:30Z</time>
      </trkpt>
      <trkpt lat="49.88297" lon="0.98546">
        <ele>66.5</ele>
        <time>2020-06-18T10:49:31Z</time>
      </trkpt>
      <trkpt lat="49.88298" lon="0.98553">
        <ele>66.4</ele>
        <time>2020-06-18T10:49:32Z</time>
      </trkpt>
      <trkpt lat="49.883" lon="0.98564">
        <ele>66.3</ele>
        <time>2020-06-18T10:49:33Z</time>
      </trkpt>
      <trkpt lat="49.88301" lon="0.98573">
        <ele>66.2</ele>
        <time>2020-06-18T10:49:34Z</time>
      </trkpt>
      <trkpt lat="49.88303" lon="0.98581">
        <ele>66.1</ele>
        <time>2020-06-18T10:49:35Z</time>
      </trkpt>
      <trkpt lat="49.88306" lon="0.98592">
        <ele>65.9</ele>
        <time>2020-06-18T10:49:36Z</time>
      </trkpt>
      <trkpt lat="49.88308" lon="0.98601">
        <ele>65.8</ele>
        <time>2020-06-18T10:49:37Z</time>
      </trkpt>
      <trkpt lat="49.88309" lon="0.9861">
        <ele>65.7</ele>
        <time>2020-06-18T10:49:38Z</time>
      </trkpt>
      <trkpt lat="49.8831" lon="0.98618">
        <ele>65.6</ele>
        <time>2020-06-18T10:49:39Z</time>
      </trkpt>
      <trkpt lat="49.88311" lon="0.98628">
        <ele>65.6</ele>
        <time>2020-06-18T10:49:40Z</time>
      </trkpt>
      <trkpt lat="49.88313" lon="0.98638">
        <ele>65.5</ele>
        <time>2020-06-18T10:49:41Z</time>
      </trkpt>
      <trkpt lat="49.88315" lon="0.98648">
        <ele>65.4</ele>
        <time>2020-06-18T10:49:42Z</time>
      </trkpt>
      <trkpt lat="49.88317" lon="0.98658">
        <ele>65.3</ele>
        <time>2020-06-18T10:49:43Z</time>
      </trkpt>
      <trkpt lat="49.88318" lon="0.98669">
        <ele>65.1</ele>
        <time>2020-06-18T10:49:44Z</time>
      </trkpt>
      <trkpt lat="49.8832" lon="0.98679">
        <ele>65</ele>
        <time>2020-06-18T10:49:45Z</time>
      </trkpt>
      <trkpt lat="49.88322" lon="0.98689">
        <ele>64.9</ele>
        <time>2020-06-18T10:49:46Z</time>
      </trkpt>
      <trkpt lat="49.88324" lon="0.98699">
        <ele>64.8</ele>
        <time>2020-06-18T10:49:47Z</time>
      </trkpt>
      <trkpt lat="49.88325" lon="0.9871">
        <ele>64.6</ele>
        <time>2020-06-18T10:49:48Z</time>
      </trkpt>
      <trkpt lat="49.88327" lon="0.98721">
        <ele>64.4</ele>
        <time>2020-06-18T10:49:49Z</time>
      </trkpt>
      <trkpt lat="49.88329" lon="0.98732">
        <ele>64.1</ele>
        <time>2020-06-18T10:49:50Z</time>
      </trkpt>
      <trkpt lat="49.88331" lon="0.98743">
        <ele>63.9</ele>
        <time>2020-06-18T10:49:51Z</time>
      </trkpt>
      <trkpt lat="49.88333" lon="0.98754">
        <ele>63.7</ele>
        <time>2020-06-18T10:49:52Z</time>
      </trkpt>
      <trkpt lat="49.88335" lon="0.98765">
        <ele>63.5</ele>
        <time>2020-06-18T10:49:53Z</time>
      </trkpt>
      <trkpt lat="49.88336" lon="0.98777">
        <ele>63.4</ele>
        <time>2020-06-18T10:49:54Z</time>
      </trkpt>
      <trkpt lat="49.88339" lon="0.98788">
        <ele>63.3</ele>
        <time>2020-06-18T10:49:55Z</time>
      </trkpt>
      <trkpt lat="49.8834" lon="0.98799">
        <ele>63.2</ele>
        <time>2020-06-18T10:49:56Z</time>
      </trkpt>
      <trkpt lat="49.88342" lon="0.9881">
        <ele>63.2</ele>
        <time>2020-06-18T10:49:57Z</time>
      </trkpt>
      <trkpt lat="49.88344" lon="0.9882">
        <ele>63.2</ele>
        <time>2020-06-18T10:49:58Z</time>
      </trkpt>
      <trkpt lat="49.88347" lon="0.98831">
        <ele>63.3</ele>
        <time>2020-06-18T10:49:59Z</time>
      </trkpt>
      <trkpt lat="49.88348" lon="0.98841">
        <ele>63.3</ele>
        <time>2020-06-18T10:50:00Z</time>
      </trkpt>
      <trkpt lat="49.8835" lon="0.98851">
        <ele>63.4</ele>
        <time>2020-06-18T10:50:01Z</time>
      </trkpt>
      <trkpt lat="49.88352" lon="0.98861">
        <ele>63.6</ele>
        <time>2020-06-18T10:50:02Z</time>
      </trkpt>
      <trkpt lat="49.88354" lon="0.98871">
        <ele>64.3</ele>
        <time>2020-06-18T10:50:03Z</time>
      </trkpt>
      <trkpt lat="49.88355" lon="0.98881">
        <ele>66.8</ele>
        <time>2020-06-18T10:50:04Z</time>
      </trkpt>
      <trkpt lat="49.88357" lon="0.98891">
        <ele>68.3</ele>
        <time>2020-06-18T10:50:05Z</time>
      </trkpt>
      <trkpt lat="49.88359" lon="0.98901">
        <ele>69</ele>
        <time>2020-06-18T10:50:06Z</time>
      </trkpt>
      <trkpt lat="49.8836" lon="0.98912">
        <ele>69.1</ele>
        <time>2020-06-18T10:50:07Z</time>
      </trkpt>
      <trkpt lat="49.88362" lon="0.98922">
        <ele>69.2</ele>
        <time>2020-06-18T10:50:08Z</time>
      </trkpt>
      <trkpt lat="49.88363" lon="0.98932">
        <ele>69.1</ele>
        <time>2020-06-18T10:50:09Z</time>
      </trkpt>
      <trkpt lat="49.88365" lon="0.98942">
        <ele>69.1</ele>
        <time>2020-06-18T10:50:10Z</time>
      </trkpt>
      <trkpt lat="49.88367" lon="0.98952">
        <ele>69.1</ele>
        <time>2020-06-18T10:50:11Z</time>
      </trkpt>
      <trkpt lat="49.88368" lon="0.98961">
        <ele>69</ele>
        <time>2020-06-18T10:50:12Z</time>
      </trkpt>
      <trkpt lat="49.8837" lon="0.98971">
        <ele>69</ele>
        <time>2020-06-18T10:50:13Z</time>
      </trkpt>
      <trkpt lat="49.88372" lon="0.98982">
        <ele>69</ele>
        <time>2020-06-18T10:50:14Z</time>
      </trkpt>
      <trkpt lat="49.88374" lon="0.98991">
        <ele>69</ele>
        <time>2020-06-18T10:50:15Z</time>
      </trkpt>
      <trkpt lat="49.88376" lon="0.99001">
        <ele>69</ele>
        <time>2020-06-18T10:50:16Z</time>
      </trkpt>
      <trkpt lat="49.88378" lon="0.99011">
        <ele>69.1</ele>
        <time>2020-06-18T10:50:17Z</time>
      </trkpt>
      <trkpt lat="49.88379" lon="0.99021">
        <ele>69</ele>
        <time>2020-06-18T10:50:18Z</time>
      </trkpt>
      <trkpt lat="49.88381" lon="0.99031">
        <ele>69</ele>
        <time>2020-06-18T10:50:19Z</time>
      </trkpt>
      <trkpt lat="49.88383" lon="0.99041">
        <ele>68.9</ele>
        <time>2020-06-18T10:50:20Z</time>
      </trkpt>
      <trkpt lat="49.88385" lon="0.99052">
        <ele>68.8</ele>
        <time>2020-06-18T10:50:21Z</time>
      </trkpt>
      <trkpt lat="49.88386" lon="0.99062">
        <ele>68.7</ele>
        <time>2020-06-18T10:50:22Z</time>
      </trkpt>
      <trkpt lat="49.88388" lon="0.99073">
        <ele>68.6</ele>
        <time>2020-06-18T10:50:23Z</time>
      </trkpt>
      <trkpt lat="49.8839" lon="0.99083">
        <ele>68.6</ele>
        <time>2020-06-18T10:50:24Z</time>
      </trkpt>
      <trkpt lat="49.88392" lon="0.99094">
        <ele>68.5</ele>
        <time>2020-06-18T10:50:25Z</time>
      </trkpt>
      <trkpt lat="49.88394" lon="0.99105">
        <ele>68.4</ele>
        <time>2020-06-18T10:50:26Z</time>
      </trkpt>
      <trkpt lat="49.88396" lon="0.99115">
        <ele>68.4</ele>
        <time>2020-06-18T10:50:27Z</time>
      </trkpt>
      <trkpt lat="49.88398" lon="0.99126">
        <ele>68.3</ele>
        <time>2020-06-18T10:50:28Z</time>
      </trkpt>
      <trkpt lat="49.884" lon="0.99136">
        <ele>68.3</ele>
        <time>2020-06-18T10:50:29Z</time>
      </trkpt>
      <trkpt lat="49.88402" lon="0.99148">
        <ele>68.2</ele>
        <time>2020-06-18T10:50:30Z</time>
      </trkpt>
      <trkpt lat="49.88404" lon="0.99159">
        <ele>68.1</ele>
        <time>2020-06-18T10:50:31Z</time>
      </trkpt>
      <trkpt lat="49.88405" lon="0.9917">
        <ele>68.1</ele>
        <time>2020-06-18T10:50:32Z</time>
      </trkpt>
      <trkpt lat="49.88407" lon="0.99182">
        <ele>68</ele>
        <time>2020-06-18T10:50:33Z</time>
      </trkpt>
      <trkpt lat="49.88409" lon="0.99193">
        <ele>68</ele>
        <time>2020-06-18T10:50:34Z</time>
      </trkpt>
      <trkpt lat="49.88411" lon="0.99205">
        <ele>67.9</ele>
        <time>2020-06-18T10:50:35Z</time>
      </trkpt>
      <trkpt lat="49.88413" lon="0.99216">
        <ele>67.9</ele>
        <time>2020-06-18T10:50:36Z</time>
      </trkpt>
      <trkpt lat="49.88416" lon="0.99227">
        <ele>67.9</ele>
        <time>2020-06-18T10:50:37Z</time>
      </trkpt>
      <trkpt lat="49.88418" lon="0.99238">
        <ele>67.8</ele>
        <time>2020-06-18T10:50:38Z</time>
      </trkpt>
      <trkpt lat="49.8842" lon="0.99249">
        <ele>67.8</ele>
        <time>2020-06-18T10:50:39Z</time>
      </trkpt>
      <trkpt lat="49.88421" lon="0.9926">
        <ele>67.8</ele>
        <time>2020-06-18T10:50:40Z</time>
      </trkpt>
      <trkpt lat="49.88423" lon="0.99272">
        <ele>67.8</ele>
        <time>2020-06-18T10:50:41Z</time>
      </trkpt>
      <trkpt lat="49.88424" lon="0.99283">
        <ele>67.7</ele>
        <time>2020-06-18T10:50:42Z</time>
      </trkpt>
      <trkpt lat="49.88426" lon="0.99293">
        <ele>67.7</ele>
        <time>2020-06-18T10:50:43Z</time>
      </trkpt>
      <trkpt lat="49.88428" lon="0.99303">
        <ele>67.7</ele>
        <time>2020-06-18T10:50:44Z</time>
      </trkpt>
      <trkpt lat="49.8843" lon="0.99313">
        <ele>67.7</ele>
        <time>2020-06-18T10:50:45Z</time>
      </trkpt>
      <trkpt lat="49.88432" lon="0.99323">
        <ele>67.7</ele>
        <time>2020-06-18T10:50:46Z</time>
      </trkpt>
      <trkpt lat="49.88433" lon="0.99333">
        <ele>67.7</ele>
        <time>2020-06-18T10:50:47Z</time>
      </trkpt>
      <trkpt lat="49.88435" lon="0.99343">
        <ele>67.7</ele>
        <time>2020-06-18T10:50:48Z</time>
      </trkpt>
      <trkpt lat="49.88437" lon="0.99353">
        <ele>67.6</ele>
        <time>2020-06-18T10:50:49Z</time>
      </trkpt>
      <trkpt lat="49.88439" lon="0.99363">
        <ele>67.6</ele>
        <time>2020-06-18T10:50:50Z</time>
      </trkpt>
      <trkpt lat="49.88441" lon="0.99372">
        <ele>67.6</ele>
        <time>2020-06-18T10:50:51Z</time>
      </trkpt>
      <trkpt lat="49.88443" lon="0.99382">
        <ele>67.6</ele>
        <time>2020-06-18T10:50:52Z</time>
      </trkpt>
      <trkpt lat="49.88444" lon="0.99392">
        <ele>67.7</ele>
        <time>2020-06-18T10:50:53Z</time>
      </trkpt>
      <trkpt lat="49.88446" lon="0.99401">
        <ele>67.7</ele>
        <time>2020-06-18T10:50:54Z</time>
      </trkpt>
      <trkpt lat="49.88448" lon="0.99411">
        <ele>67.8</ele>
        <time>2020-06-18T10:50:55Z</time>
      </trkpt>
      <trkpt lat="49.88449" lon="0.9942">
        <ele>67.9</ele>
        <time>2020-06-18T10:50:56Z</time>
      </trkpt>
      <trkpt lat="49.88451" lon="0.9943">
        <ele>67.9</ele>
        <time>2020-06-18T10:50:57Z</time>
      </trkpt>
      <trkpt lat="49.88453" lon="0.99439">
        <ele>68</ele>
        <time>2020-06-18T10:50:58Z</time>
      </trkpt>
      <trkpt lat="49.88454" lon="0.99448">
        <ele>67.9</ele>
        <time>2020-06-18T10:50:59Z</time>
      </trkpt>
      <trkpt lat="49.88456" lon="0.99458">
        <ele>67.9</ele>
        <time>2020-06-18T10:51:00Z</time>
      </trkpt>
      <trkpt lat="49.88458" lon="0.99467">
        <ele>67.9</ele>
        <time>2020-06-18T10:51:01Z</time>
      </trkpt>
      <trkpt lat="49.88459" lon="0.99476">
        <ele>67.9</ele>
        <time>2020-06-18T10:51:02Z</time>
      </trkpt>
      <trkpt lat="49.88461" lon="0.99486">
        <ele>67.9</ele>
        <time>2020-06-18T10:51:03Z</time>
      </trkpt>
      <trkpt lat="49.88463" lon="0.99495">
        <ele>67.9</ele>
        <time>2020-06-18T10:51:04Z</time>
      </trkpt>
      <trkpt lat="49.88464" lon="0.99504">
        <ele>67.8</ele>
        <time>2020-06-18T10:51:05Z</time>
      </trkpt>
      <trkpt lat="49.88466" lon="0.99514">
        <ele>67.8</ele>
        <time>2020-06-18T10:51:06Z</time>
      </trkpt>
      <trkpt lat="49.88467" lon="0.99523">
        <ele>67.8</ele>
        <time>2020-06-18T10:51:07Z</time>
      </trkpt>
      <trkpt lat="49.88469" lon="0.99533">
        <ele>67.7</ele>
        <time>2020-06-18T10:51:08Z</time>
      </trkpt>
      <trkpt lat="49.88471" lon="0.99542">
        <ele>67.7</ele>
        <time>2020-06-18T10:51:09Z</time>
      </trkpt>
      <trkpt lat="49.88472" lon="0.99552">
        <ele>67.6</ele>
        <time>2020-06-18T10:51:10Z</time>
      </trkpt>
      <trkpt lat="49.88474" lon="0.99562">
        <ele>67.5</ele>
        <time>2020-06-18T10:51:11Z</time>
      </trkpt>
      <trkpt lat="49.88476" lon="0.99572">
        <ele>67.5</ele>
        <time>2020-06-18T10:51:12Z</time>
      </trkpt>
      <trkpt lat="49.88478" lon="0.99581">
        <ele>67.5</ele>
        <time>2020-06-18T10:51:13Z</time>
      </trkpt>
      <trkpt lat="49.88479" lon="0.99591">
        <ele>67.5</ele>
        <time>2020-06-18T10:51:14Z</time>
      </trkpt>
      <trkpt lat="49.88481" lon="0.996">
        <ele>67.6</ele>
        <time>2020-06-18T10:51:15Z</time>
      </trkpt>
      <trkpt lat="49.88483" lon="0.9961">
        <ele>67.6</ele>
        <time>2020-06-18T10:51:16Z</time>
      </trkpt>
      <trkpt lat="49.88485" lon="0.99619">
        <ele>67.6</ele>
        <time>2020-06-18T10:51:17Z</time>
      </trkpt>
      <trkpt lat="49.88486" lon="0.99629">
        <ele>67.5</ele>
        <time>2020-06-18T10:51:18Z</time>
      </trkpt>
      <trkpt lat="49.88488" lon="0.99639">
        <ele>67.5</ele>
        <time>2020-06-18T10:51:19Z</time>
      </trkpt>
      <trkpt lat="49.8849" lon="0.99648">
        <ele>67.5</ele>
        <time>2020-06-18T10:51:20Z</time>
      </trkpt>
      <trkpt lat="49.88491" lon="0.99658">
        <ele>67.5</ele>
        <time>2020-06-18T10:51:21Z</time>
      </trkpt>
      <trkpt lat="49.88493" lon="0.99668">
        <ele>67.4</ele>
        <time>2020-06-18T10:51:22Z</time>
      </trkpt>
      <trkpt lat="49.88494" lon="0.99678">
        <ele>67.4</ele>
        <time>2020-06-18T10:51:23Z</time>
      </trkpt>
      <trkpt lat="49.88495" lon="0.99687">
        <ele>67.4</ele>
        <time>2020-06-18T10:51:24Z</time>
      </trkpt>
      <trkpt lat="49.88497" lon="0.99697">
        <ele>67.4</ele>
        <time>2020-06-18T10:51:25Z</time>
      </trkpt>
      <trkpt lat="49.88498" lon="0.99707">
        <ele>67.3</ele>
        <time>2020-06-18T10:51:26Z</time>
      </trkpt>
      <trkpt lat="49.885" lon="0.99716">
        <ele>67.3</ele>
        <time>2020-06-18T10:51:27Z</time>
      </trkpt>
      <trkpt lat="49.88502" lon="0.99726">
        <ele>67.2</ele>
        <time>2020-06-18T10:51:28Z</time>
      </trkpt>
      <trkpt lat="49.88504" lon="0.99735">
        <ele>67.2</ele>
        <time>2020-06-18T10:51:29Z</time>
      </trkpt>
      <trkpt lat="49.88505" lon="0.99745">
        <ele>67.1</ele>
        <time>2020-06-18T10:51:30Z</time>
      </trkpt>
      <trkpt lat="49.88507" lon="0.99755">
        <ele>67</ele>
        <time>2020-06-18T10:51:31Z</time>
      </trkpt>
      <trkpt lat="49.88509" lon="0.99764">
        <ele>66.9</ele>
        <time>2020-06-18T10:51:32Z</time>
      </trkpt>
      <trkpt lat="49.8851" lon="0.99774">
        <ele>66.8</ele>
        <time>2020-06-18T10:51:33Z</time>
      </trkpt>
      <trkpt lat="49.88512" lon="0.99785">
        <ele>66.7</ele>
        <time>2020-06-18T10:51:34Z</time>
      </trkpt>
      <trkpt lat="49.88514" lon="0.99795">
        <ele>66.6</ele>
        <time>2020-06-18T10:51:35Z</time>
      </trkpt>
      <trkpt lat="49.88516" lon="0.99805">
        <ele>66.5</ele>
        <time>2020-06-18T10:51:36Z</time>
      </trkpt>
      <trkpt lat="49.88517" lon="0.99816">
        <ele>66.4</ele>
        <time>2020-06-18T10:51:37Z</time>
      </trkpt>
      <trkpt lat="49.88519" lon="0.99826">
        <ele>66.3</ele>
        <time>2020-06-18T10:51:38Z</time>
      </trkpt>
      <trkpt lat="49.88521" lon="0.99837">
        <ele>66.2</ele>
        <time>2020-06-18T10:51:39Z</time>
      </trkpt>
      <trkpt lat="49.88523" lon="0.99848">
        <ele>66.1</ele>
        <time>2020-06-18T10:51:40Z</time>
      </trkpt>
      <trkpt lat="49.88525" lon="0.99858">
        <ele>66</ele>
        <time>2020-06-18T10:51:41Z</time>
      </trkpt>
      <trkpt lat="49.88527" lon="0.99869">
        <ele>65.9</ele>
        <time>2020-06-18T10:51:42Z</time>
      </trkpt>
      <trkpt lat="49.88529" lon="0.99879">
        <ele>65.8</ele>
        <time>2020-06-18T10:51:43Z</time>
      </trkpt>
      <trkpt lat="49.88531" lon="0.9989">
        <ele>65.7</ele>
        <time>2020-06-18T10:51:44Z</time>
      </trkpt>
      <trkpt lat="49.88533" lon="0.99902">
        <ele>65.6</ele>
        <time>2020-06-18T10:51:45Z</time>
      </trkpt>
      <trkpt lat="49.88535" lon="0.99913">
        <ele>65.5</ele>
        <time>2020-06-18T10:51:46Z</time>
      </trkpt>
      <trkpt lat="49.88537" lon="0.99924">
        <ele>65.4</ele>
        <time>2020-06-18T10:51:47Z</time>
      </trkpt>
      <trkpt lat="49.88539" lon="0.99935">
        <ele>65.2</ele>
        <time>2020-06-18T10:51:48Z</time>
      </trkpt>
      <trkpt lat="49.88541" lon="0.99946">
        <ele>65.1</ele>
        <time>2020-06-18T10:51:49Z</time>
      </trkpt>
      <trkpt lat="49.88542" lon="0.99957">
        <ele>65</ele>
        <time>2020-06-18T10:51:50Z</time>
      </trkpt>
      <trkpt lat="49.88544" lon="0.99969">
        <ele>64.9</ele>
        <time>2020-06-18T10:51:51Z</time>
      </trkpt>
      <trkpt lat="49.88546" lon="0.9998">
        <ele>64.8</ele>
        <time>2020-06-18T10:51:52Z</time>
      </trkpt>
      <trkpt lat="49.88548" lon="0.99991">
        <ele>64.7</ele>
        <time>2020-06-18T10:51:53Z</time>
      </trkpt>
      <trkpt lat="49.8855" lon="1.00001">
        <ele>64.7</ele>
        <time>2020-06-18T10:51:54Z</time>
      </trkpt>
      <trkpt lat="49.88552" lon="1.00012">
        <ele>64.6</ele>
        <time>2020-06-18T10:51:55Z</time>
      </trkpt>
      <trkpt lat="49.88553" lon="1.00023">
        <ele>64.5</ele>
        <time>2020-06-18T10:51:56Z</time>
      </trkpt>
      <trkpt lat="49.88556" lon="1.00033">
        <ele>64.4</ele>
        <time>2020-06-18T10:51:57Z</time>
      </trkpt>
      <trkpt lat="49.88558" lon="1.00044">
        <ele>64.3</ele>
        <time>2020-06-18T10:51:58Z</time>
      </trkpt>
      <trkpt lat="49.8856" lon="1.00054">
        <ele>64.2</ele>
        <time>2020-06-18T10:51:59Z</time>
      </trkpt>
      <trkpt lat="49.88561" lon="1.00064">
        <ele>64.1</ele>
        <time>2020-06-18T10:52:00Z</time>
      </trkpt>
      <trkpt lat="49.88563" lon="1.00075">
        <ele>64</ele>
        <time>2020-06-18T10:52:01Z</time>
      </trkpt>
      <trkpt lat="49.88564" lon="1.00086">
        <ele>63.9</ele>
        <time>2020-06-18T10:52:02Z</time>
      </trkpt>
      <trkpt lat="49.88566" lon="1.00096">
        <ele>63.8</ele>
        <time>2020-06-18T10:52:03Z</time>
      </trkpt>
      <trkpt lat="49.88568" lon="1.00107">
        <ele>63.7</ele>
        <time>2020-06-18T10:52:04Z</time>
      </trkpt>
      <trkpt lat="49.8857" lon="1.00118">
        <ele>63.7</ele>
        <time>2020-06-18T10:52:05Z</time>
      </trkpt>
      <trkpt lat="49.88572" lon="1.00129">
        <ele>63.7</ele>
        <time>2020-06-18T10:52:06Z</time>
      </trkpt>
      <trkpt lat="49.88574" lon="1.0014">
        <ele>63.8</ele>
        <time>2020-06-18T10:52:07Z</time>
      </trkpt>
      <trkpt lat="49.88576" lon="1.00151">
        <ele>63.9</ele>
        <time>2020-06-18T10:52:08Z</time>
      </trkpt>
      <trkpt lat="49.88577" lon="1.00162">
        <ele>64.1</ele>
        <time>2020-06-18T10:52:09Z</time>
      </trkpt>
      <trkpt lat="49.88579" lon="1.00172">
        <ele>65.7</ele>
        <time>2020-06-18T10:52:10Z</time>
      </trkpt>
      <trkpt lat="49.88581" lon="1.00183">
        <ele>66.7</ele>
        <time>2020-06-18T10:52:11Z</time>
      </trkpt>
      <trkpt lat="49.88583" lon="1.00194">
        <ele>67</ele>
        <time>2020-06-18T10:52:12Z</time>
      </trkpt>
      <trkpt lat="49.88585" lon="1.00204">
        <ele>67</ele>
        <time>2020-06-18T10:52:13Z</time>
      </trkpt>
      <trkpt lat="49.88587" lon="1.00215">
        <ele>67.1</ele>
        <time>2020-06-18T10:52:14Z</time>
      </trkpt>
      <trkpt lat="49.88588" lon="1.00226">
        <ele>67.1</ele>
        <time>2020-06-18T10:52:15Z</time>
      </trkpt>
      <trkpt lat="49.8859" lon="1.00236">
        <ele>67</ele>
        <time>2020-06-18T10:52:16Z</time>
      </trkpt>
      <trkpt lat="49.88591" lon="1.00247">
        <ele>67</ele>
        <time>2020-06-18T10:52:17Z</time>
      </trkpt>
      <trkpt lat="49.88593" lon="1.00257">
        <ele>66.9</ele>
        <time>2020-06-18T10:52:18Z</time>
      </trkpt>
      <trkpt lat="49.88595" lon="1.00268">
        <ele>66.8</ele>
        <time>2020-06-18T10:52:19Z</time>
      </trkpt>
      <trkpt lat="49.88597" lon="1.00278">
        <ele>66.7</ele>
        <time>2020-06-18T10:52:20Z</time>
      </trkpt>
      <trkpt lat="49.88599" lon="1.00288">
        <ele>66.7</ele>
        <time>2020-06-18T10:52:21Z</time>
      </trkpt>
      <trkpt lat="49.886" lon="1.00299">
        <ele>66.6</ele>
        <time>2020-06-18T10:52:22Z</time>
      </trkpt>
      <trkpt lat="49.88602" lon="1.00309">
        <ele>66.5</ele>
        <time>2020-06-18T10:52:23Z</time>
      </trkpt>
      <trkpt lat="49.88603" lon="1.00319">
        <ele>66.5</ele>
        <time>2020-06-18T10:52:24Z</time>
      </trkpt>
      <trkpt lat="49.88605" lon="1.00329">
        <ele>66.5</ele>
        <time>2020-06-18T10:52:25Z</time>
      </trkpt>
      <trkpt lat="49.88607" lon="1.00339">
        <ele>66.5</ele>
        <time>2020-06-18T10:52:26Z</time>
      </trkpt>
      <trkpt lat="49.88609" lon="1.00348">
        <ele>66.5</ele>
        <time>2020-06-18T10:52:27Z</time>
      </trkpt>
      <trkpt lat="49.8861" lon="1.00358">
        <ele>66.6</ele>
        <time>2020-06-18T10:52:28Z</time>
      </trkpt>
      <trkpt lat="49.88612" lon="1.00367">
        <ele>66.6</ele>
        <time>2020-06-18T10:52:29Z</time>
      </trkpt>
      <trkpt lat="49.88613" lon="1.00376">
        <ele>66.6</ele>
        <time>2020-06-18T10:52:30Z</time>
      </trkpt>
      <trkpt lat="49.88615" lon="1.00385">
        <ele>66.7</ele>
        <time>2020-06-18T10:52:31Z</time>
      </trkpt>
      <trkpt lat="49.88617" lon="1.00394">
        <ele>66.6</ele>
        <time>2020-06-18T10:52:32Z</time>
      </trkpt>
      <trkpt lat="49.88618" lon="1.00403">
        <ele>66.6</ele>
        <time>2020-06-18T10:52:33Z</time>
      </trkpt>
      <trkpt lat="49.8862" lon="1.00412">
        <ele>66.6</ele>
        <time>2020-06-18T10:52:34Z</time>
      </trkpt>
      <trkpt lat="49.88622" lon="1.00421">
        <ele>66.6</ele>
        <time>2020-06-18T10:52:35Z</time>
      </trkpt>
      <trkpt lat="49.88624" lon="1.0043">
        <ele>66.6</ele>
        <time>2020-06-18T10:52:36Z</time>
      </trkpt>
      <trkpt lat="49.88625" lon="1.00439">
        <ele>66.6</ele>
        <time>2020-06-18T10:52:37Z</time>
      </trkpt>
      <trkpt lat="49.88628" lon="1.00447">
        <ele>66.7</ele>
        <time>2020-06-18T10:52:38Z</time>
      </trkpt>
      <trkpt lat="49.8863" lon="1.00456">
        <ele>66.7</ele>
        <time>2020-06-18T10:52:39Z</time>
      </trkpt>
      <trkpt lat="49.88631" lon="1.00465">
        <ele>66.7</ele>
        <time>2020-06-18T10:52:40Z</time>
      </trkpt>
      <trkpt lat="49.88633" lon="1.00474">
        <ele>66.7</ele>
        <time>2020-06-18T10:52:41Z</time>
      </trkpt>
      <trkpt lat="49.88634" lon="1.00483">
        <ele>66.7</ele>
        <time>2020-06-18T10:52:42Z</time>
      </trkpt>
      <trkpt lat="49.88636" lon="1.00493">
        <ele>66.7</ele>
        <time>2020-06-18T10:52:43Z</time>
      </trkpt>
      <trkpt lat="49.88637" lon="1.00502">
        <ele>66.6</ele>
        <time>2020-06-18T10:52:44Z</time>
      </trkpt>
      <trkpt lat="49.88637" lon="1.00511">
        <ele>66.7</ele>
        <time>2020-06-18T10:52:45Z</time>
      </trkpt>
      <trkpt lat="49.88639" lon="1.0052">
        <ele>66.7</ele>
        <time>2020-06-18T10:52:46Z</time>
      </trkpt>
      <trkpt lat="49.8864" lon="1.00529">
        <ele>66.7</ele>
        <time>2020-06-18T10:52:47Z</time>
      </trkpt>
      <trkpt lat="49.88642" lon="1.00538">
        <ele>66.7</ele>
        <time>2020-06-18T10:52:48Z</time>
      </trkpt>
      <trkpt lat="49.88643" lon="1.00547">
        <ele>66.8</ele>
        <time>2020-06-18T10:52:49Z</time>
      </trkpt>
      <trkpt lat="49.88644" lon="1.00556">
        <ele>66.9</ele>
        <time>2020-06-18T10:52:50Z</time>
      </trkpt>
      <trkpt lat="49.88646" lon="1.00564">
        <ele>67</ele>
        <time>2020-06-18T10:52:51Z</time>
      </trkpt>
      <trkpt lat="49.88647" lon="1.00573">
        <ele>67.1</ele>
        <time>2020-06-18T10:52:52Z</time>
      </trkpt>
      <trkpt lat="49.88649" lon="1.00583">
        <ele>67.1</ele>
        <time>2020-06-18T10:52:53Z</time>
      </trkpt>
      <trkpt lat="49.88651" lon="1.00592">
        <ele>67</ele>
        <time>2020-06-18T10:52:54Z</time>
      </trkpt>
      <trkpt lat="49.88653" lon="1.006">
        <ele>67</ele>
        <time>2020-06-18T10:52:55Z</time>
      </trkpt>
      <trkpt lat="49.88654" lon="1.00609">
        <ele>66.9</ele>
        <time>2020-06-18T10:52:56Z</time>
      </trkpt>
      <trkpt lat="49.88656" lon="1.00619">
        <ele>66.8</ele>
        <time>2020-06-18T10:52:57Z</time>
      </trkpt>
      <trkpt lat="49.88658" lon="1.00628">
        <ele>66.8</ele>
        <time>2020-06-18T10:52:58Z</time>
      </trkpt>
      <trkpt lat="49.8866" lon="1.00639">
        <ele>66.7</ele>
        <time>2020-06-18T10:52:59Z</time>
      </trkpt>
      <trkpt lat="49.88662" lon="1.0065">
        <ele>66.6</ele>
        <time>2020-06-18T10:53:00Z</time>
      </trkpt>
      <trkpt lat="49.88664" lon="1.00659">
        <ele>66.5</ele>
        <time>2020-06-18T10:53:01Z</time>
      </trkpt>
      <trkpt lat="49.88665" lon="1.00668">
        <ele>66.4</ele>
        <time>2020-06-18T10:53:02Z</time>
      </trkpt>
      <trkpt lat="49.88667" lon="1.00678">
        <ele>66.4</ele>
        <time>2020-06-18T10:53:03Z</time>
      </trkpt>
      <trkpt lat="49.88669" lon="1.00688">
        <ele>66.5</ele>
        <time>2020-06-18T10:53:04Z</time>
      </trkpt>
      <trkpt lat="49.88671" lon="1.00698">
        <ele>66.6</ele>
        <time>2020-06-18T10:53:05Z</time>
      </trkpt>
      <trkpt lat="49.88673" lon="1.00707">
        <ele>66.7</ele>
        <time>2020-06-18T10:53:06Z</time>
      </trkpt>
      <trkpt lat="49.88674" lon="1.00718">
        <ele>66.8</ele>
        <time>2020-06-18T10:53:07Z</time>
      </trkpt>
      <trkpt lat="49.88676" lon="1.00729">
        <ele>66.7</ele>
        <time>2020-06-18T10:53:08Z</time>
      </trkpt>
      <trkpt lat="49.88678" lon="1.00738">
        <ele>66.5</ele>
        <time>2020-06-18T10:53:09Z</time>
      </trkpt>
      <trkpt lat="49.88679" lon="1.00749">
        <ele>66.3</ele>
        <time>2020-06-18T10:53:10Z</time>
      </trkpt>
      <trkpt lat="49.88681" lon="1.00759">
        <ele>66.2</ele>
        <time>2020-06-18T10:53:11Z</time>
      </trkpt>
      <trkpt lat="49.88683" lon="1.00768">
        <ele>66.1</ele>
        <time>2020-06-18T10:53:12Z</time>
      </trkpt>
      <trkpt lat="49.88684" lon="1.00778">
        <ele>66</ele>
        <time>2020-06-18T10:53:13Z</time>
      </trkpt>
      <trkpt lat="49.88686" lon="1.00788">
        <ele>66</ele>
        <time>2020-06-18T10:53:14Z</time>
      </trkpt>
      <trkpt lat="49.88688" lon="1.00799">
        <ele>66</ele>
        <time>2020-06-18T10:53:15Z</time>
      </trkpt>
      <trkpt lat="49.8869" lon="1.00809">
        <ele>66.1</ele>
        <time>2020-06-18T10:53:16Z</time>
      </trkpt>
      <trkpt lat="49.88692" lon="1.00819">
        <ele>66.1</ele>
        <time>2020-06-18T10:53:17Z</time>
      </trkpt>
      <trkpt lat="49.88694" lon="1.00829">
        <ele>66.1</ele>
        <time>2020-06-18T10:53:18Z</time>
      </trkpt>
      <trkpt lat="49.88696" lon="1.00839">
        <ele>66</ele>
        <time>2020-06-18T10:53:19Z</time>
      </trkpt>
      <trkpt lat="49.88698" lon="1.0085">
        <ele>66.1</ele>
        <time>2020-06-18T10:53:20Z</time>
      </trkpt>
      <trkpt lat="49.88699" lon="1.0086">
        <ele>66.1</ele>
        <time>2020-06-18T10:53:21Z</time>
      </trkpt>
      <trkpt lat="49.88701" lon="1.00871">
        <ele>66.1</ele>
        <time>2020-06-18T10:53:22Z</time>
      </trkpt>
      <trkpt lat="49.88702" lon="1.00881">
        <ele>66</ele>
        <time>2020-06-18T10:53:23Z</time>
      </trkpt>
      <trkpt lat="49.88704" lon="1.00892">
        <ele>66</ele>
        <time>2020-06-18T10:53:24Z</time>
      </trkpt>
      <trkpt lat="49.88706" lon="1.00902">
        <ele>65.9</ele>
        <time>2020-06-18T10:53:25Z</time>
      </trkpt>
      <trkpt lat="49.88708" lon="1.00912">
        <ele>65.9</ele>
        <time>2020-06-18T10:53:26Z</time>
      </trkpt>
      <trkpt lat="49.8871" lon="1.00923">
        <ele>65.8</ele>
        <time>2020-06-18T10:53:27Z</time>
      </trkpt>
      <trkpt lat="49.88712" lon="1.00933">
        <ele>65.8</ele>
        <time>2020-06-18T10:53:28Z</time>
      </trkpt>
      <trkpt lat="49.88714" lon="1.00943">
        <ele>65.7</ele>
        <time>2020-06-18T10:53:29Z</time>
      </trkpt>
      <trkpt lat="49.88715" lon="1.00954">
        <ele>65.7</ele>
        <time>2020-06-18T10:53:30Z</time>
      </trkpt>
      <trkpt lat="49.88717" lon="1.00965">
        <ele>65.7</ele>
        <time>2020-06-18T10:53:31Z</time>
      </trkpt>
      <trkpt lat="49.88719" lon="1.00975">
        <ele>65.7</ele>
        <time>2020-06-18T10:53:32Z</time>
      </trkpt>
      <trkpt lat="49.8872" lon="1.00986">
        <ele>65.7</ele>
        <time>2020-06-18T10:53:33Z</time>
      </trkpt>
      <trkpt lat="49.88722" lon="1.00996">
        <ele>65.7</ele>
        <time>2020-06-18T10:53:34Z</time>
      </trkpt>
      <trkpt lat="49.88724" lon="1.01006">
        <ele>65.7</ele>
        <time>2020-06-18T10:53:35Z</time>
      </trkpt>
      <trkpt lat="49.88726" lon="1.01016">
        <ele>65.7</ele>
        <time>2020-06-18T10:53:36Z</time>
      </trkpt>
      <trkpt lat="49.88728" lon="1.01027">
        <ele>65.7</ele>
        <time>2020-06-18T10:53:37Z</time>
      </trkpt>
      <trkpt lat="49.88729" lon="1.01037">
        <ele>65.7</ele>
        <time>2020-06-18T10:53:38Z</time>
      </trkpt>
      <trkpt lat="49.88731" lon="1.01046">
        <ele>65.7</ele>
        <time>2020-06-18T10:53:39Z</time>
      </trkpt>
      <trkpt lat="49.88733" lon="1.01056">
        <ele>65.7</ele>
        <time>2020-06-18T10:53:40Z</time>
      </trkpt>
      <trkpt lat="49.88735" lon="1.01065">
        <ele>65.7</ele>
        <time>2020-06-18T10:53:41Z</time>
      </trkpt>
      <trkpt lat="49.88737" lon="1.01075">
        <ele>65.7</ele>
        <time>2020-06-18T10:53:42Z</time>
      </trkpt>
      <trkpt lat="49.88738" lon="1.01085">
        <ele>65.8</ele>
        <time>2020-06-18T10:53:43Z</time>
      </trkpt>
      <trkpt lat="49.8874" lon="1.01095">
        <ele>65.9</ele>
        <time>2020-06-18T10:53:44Z</time>
      </trkpt>
      <trkpt lat="49.88742" lon="1.01105">
        <ele>66</ele>
        <time>2020-06-18T10:53:45Z</time>
      </trkpt>
      <trkpt lat="49.88743" lon="1.01115">
        <ele>66.1</ele>
        <time>2020-06-18T10:53:46Z</time>
      </trkpt>
      <trkpt lat="49.88745" lon="1.01125">
        <ele>66.2</ele>
        <time>2020-06-18T10:53:47Z</time>
      </trkpt>
      <trkpt lat="49.88747" lon="1.01136">
        <ele>66.4</ele>
        <time>2020-06-18T10:53:48Z</time>
      </trkpt>
      <trkpt lat="49.88748" lon="1.01146">
        <ele>66.6</ele>
        <time>2020-06-18T10:53:49Z</time>
      </trkpt>
      <trkpt lat="49.8875" lon="1.01156">
        <ele>66.9</ele>
        <time>2020-06-18T10:53:50Z</time>
      </trkpt>
      <trkpt lat="49.88752" lon="1.01167">
        <ele>66.8</ele>
        <time>2020-06-18T10:53:51Z</time>
      </trkpt>
      <trkpt lat="49.88753" lon="1.01177">
        <ele>66.6</ele>
        <time>2020-06-18T10:53:52Z</time>
      </trkpt>
      <trkpt lat="49.88755" lon="1.01187">
        <ele>66.5</ele>
        <time>2020-06-18T10:53:53Z</time>
      </trkpt>
      <trkpt lat="49.88757" lon="1.01197">
        <ele>66.4</ele>
        <time>2020-06-18T10:53:54Z</time>
      </trkpt>
      <trkpt lat="49.88759" lon="1.01208">
        <ele>66.3</ele>
        <time>2020-06-18T10:53:55Z</time>
      </trkpt>
      <trkpt lat="49.88761" lon="1.01218">
        <ele>66.2</ele>
        <time>2020-06-18T10:53:56Z</time>
      </trkpt>
      <trkpt lat="49.88763" lon="1.01228">
        <ele>66.2</ele>
        <time>2020-06-18T10:53:57Z</time>
      </trkpt>
      <trkpt lat="49.88765" lon="1.01239">
        <ele>66.2</ele>
        <time>2020-06-18T10:53:58Z</time>
      </trkpt>
      <trkpt lat="49.88767" lon="1.01249">
        <ele>66.3</ele>
        <time>2020-06-18T10:53:59Z</time>
      </trkpt>
      <trkpt lat="49.88768" lon="1.0126">
        <ele>66.3</ele>
        <time>2020-06-18T10:54:00Z</time>
      </trkpt>
      <trkpt lat="49.8877" lon="1.01271">
        <ele>66.4</ele>
        <time>2020-06-18T10:54:01Z</time>
      </trkpt>
      <trkpt lat="49.88772" lon="1.01281">
        <ele>66.4</ele>
        <time>2020-06-18T10:54:02Z</time>
      </trkpt>
      <trkpt lat="49.88774" lon="1.01292">
        <ele>66.5</ele>
        <time>2020-06-18T10:54:03Z</time>
      </trkpt>
      <trkpt lat="49.88775" lon="1.01302">
        <ele>67.4</ele>
        <time>2020-06-18T10:54:04Z</time>
      </trkpt>
      <trkpt lat="49.88777" lon="1.01313">
        <ele>68</ele>
        <time>2020-06-18T10:54:05Z</time>
      </trkpt>
      <trkpt lat="49.88779" lon="1.01323">
        <ele>68.2</ele>
        <time>2020-06-18T10:54:06Z</time>
      </trkpt>
      <trkpt lat="49.88781" lon="1.01334">
        <ele>68.3</ele>
        <time>2020-06-18T10:54:07Z</time>
      </trkpt>
      <trkpt lat="49.88782" lon="1.01345">
        <ele>68.3</ele>
        <time>2020-06-18T10:54:08Z</time>
      </trkpt>
      <trkpt lat="49.88785" lon="1.01356">
        <ele>68.1</ele>
        <time>2020-06-18T10:54:09Z</time>
      </trkpt>
      <trkpt lat="49.88786" lon="1.01367">
        <ele>68</ele>
        <time>2020-06-18T10:54:10Z</time>
      </trkpt>
      <trkpt lat="49.88788" lon="1.01378">
        <ele>68</ele>
        <time>2020-06-18T10:54:11Z</time>
      </trkpt>
      <trkpt lat="49.8879" lon="1.01389">
        <ele>67.9</ele>
        <time>2020-06-18T10:54:12Z</time>
      </trkpt>
      <trkpt lat="49.88792" lon="1.01399">
        <ele>67.9</ele>
        <time>2020-06-18T10:54:13Z</time>
      </trkpt>
      <trkpt lat="49.88794" lon="1.0141">
        <ele>67.8</ele>
        <time>2020-06-18T10:54:14Z</time>
      </trkpt>
      <trkpt lat="49.88795" lon="1.01421">
        <ele>67.7</ele>
        <time>2020-06-18T10:54:15Z</time>
      </trkpt>
      <trkpt lat="49.88797" lon="1.01432">
        <ele>67.6</ele>
        <time>2020-06-18T10:54:16Z</time>
      </trkpt>
      <trkpt lat="49.88799" lon="1.01443">
        <ele>67.6</ele>
        <time>2020-06-18T10:54:17Z</time>
      </trkpt>
      <trkpt lat="49.88801" lon="1.01454">
        <ele>67.5</ele>
        <time>2020-06-18T10:54:18Z</time>
      </trkpt>
      <trkpt lat="49.88803" lon="1.01465">
        <ele>67.5</ele>
        <time>2020-06-18T10:54:19Z</time>
      </trkpt>
      <trkpt lat="49.88805" lon="1.01476">
        <ele>67.4</ele>
        <time>2020-06-18T10:54:20Z</time>
      </trkpt>
      <trkpt lat="49.88807" lon="1.01487">
        <ele>67.4</ele>
        <time>2020-06-18T10:54:21Z</time>
      </trkpt>
      <trkpt lat="49.88809" lon="1.01498">
        <ele>67.2</ele>
        <time>2020-06-18T10:54:22Z</time>
      </trkpt>
      <trkpt lat="49.88811" lon="1.01509">
        <ele>67.1</ele>
        <time>2020-06-18T10:54:23Z</time>
      </trkpt>
      <trkpt lat="49.88813" lon="1.01519">
        <ele>67</ele>
        <time>2020-06-18T10:54:24Z</time>
      </trkpt>
      <trkpt lat="49.88815" lon="1.0153">
        <ele>66.9</ele>
        <time>2020-06-18T10:54:25Z</time>
      </trkpt>
      <trkpt lat="49.88816" lon="1.01541">
        <ele>66.9</ele>
        <time>2020-06-18T10:54:26Z</time>
      </trkpt>
      <trkpt lat="49.88818" lon="1.01552">
        <ele>66.9</ele>
        <time>2020-06-18T10:54:27Z</time>
      </trkpt>
      <trkpt lat="49.8882" lon="1.01563">
        <ele>67</ele>
        <time>2020-06-18T10:54:28Z</time>
      </trkpt>
      <trkpt lat="49.88822" lon="1.01574">
        <ele>67.1</ele>
        <time>2020-06-18T10:54:29Z</time>
      </trkpt>
      <trkpt lat="49.88824" lon="1.01585">
        <ele>67.1</ele>
        <time>2020-06-18T10:54:30Z</time>
      </trkpt>
      <trkpt lat="49.88826" lon="1.01596">
        <ele>67.1</ele>
        <time>2020-06-18T10:54:31Z</time>
      </trkpt>
      <trkpt lat="49.88828" lon="1.01607">
        <ele>67</ele>
        <time>2020-06-18T10:54:32Z</time>
      </trkpt>
      <trkpt lat="49.8883" lon="1.01618">
        <ele>66.9</ele>
        <time>2020-06-18T10:54:33Z</time>
      </trkpt>
      <trkpt lat="49.88832" lon="1.01629">
        <ele>66.8</ele>
        <time>2020-06-18T10:54:34Z</time>
      </trkpt>
      <trkpt lat="49.88834" lon="1.01641">
        <ele>66.7</ele>
        <time>2020-06-18T10:54:35Z</time>
      </trkpt>
      <trkpt lat="49.88835" lon="1.01652">
        <ele>66.6</ele>
        <time>2020-06-18T10:54:36Z</time>
      </trkpt>
      <trkpt lat="49.88837" lon="1.01662">
        <ele>66.5</ele>
        <time>2020-06-18T10:54:37Z</time>
      </trkpt>
      <trkpt lat="49.88839" lon="1.01673">
        <ele>66.6</ele>
        <time>2020-06-18T10:54:38Z</time>
      </trkpt>
      <trkpt lat="49.88841" lon="1.01684">
        <ele>66.7</ele>
        <time>2020-06-18T10:54:39Z</time>
      </trkpt>
      <trkpt lat="49.88842" lon="1.01694">
        <ele>66.8</ele>
        <time>2020-06-18T10:54:40Z</time>
      </trkpt>
      <trkpt lat="49.88844" lon="1.01704">
        <ele>66.9</ele>
        <time>2020-06-18T10:54:41Z</time>
      </trkpt>
      <trkpt lat="49.88847" lon="1.01714">
        <ele>67.1</ele>
        <time>2020-06-18T10:54:42Z</time>
      </trkpt>
      <trkpt lat="49.88848" lon="1.01725">
        <ele>67.2</ele>
        <time>2020-06-18T10:54:43Z</time>
      </trkpt>
      <trkpt lat="49.8885" lon="1.01735">
        <ele>67.3</ele>
        <time>2020-06-18T10:54:44Z</time>
      </trkpt>
      <trkpt lat="49.88852" lon="1.01744">
        <ele>67.5</ele>
        <time>2020-06-18T10:54:45Z</time>
      </trkpt>
      <trkpt lat="49.88854" lon="1.01754">
        <ele>67.7</ele>
        <time>2020-06-18T10:54:46Z</time>
      </trkpt>
      <trkpt lat="49.88856" lon="1.01763">
        <ele>67.9</ele>
        <time>2020-06-18T10:54:47Z</time>
      </trkpt>
      <trkpt lat="49.88857" lon="1.01772">
        <ele>68.1</ele>
        <time>2020-06-18T10:54:48Z</time>
      </trkpt>
      <trkpt lat="49.88859" lon="1.0178">
        <ele>68.3</ele>
        <time>2020-06-18T10:54:49Z</time>
      </trkpt>
      <trkpt lat="49.8886" lon="1.01789">
        <ele>68.5</ele>
        <time>2020-06-18T10:54:50Z</time>
      </trkpt>
      <trkpt lat="49.88862" lon="1.01798">
        <ele>68.8</ele>
        <time>2020-06-18T10:54:51Z</time>
      </trkpt>
      <trkpt lat="49.88864" lon="1.01806">
        <ele>69</ele>
        <time>2020-06-18T10:54:52Z</time>
      </trkpt>
      <trkpt lat="49.88865" lon="1.01815">
        <ele>69.2</ele>
        <time>2020-06-18T10:54:53Z</time>
      </trkpt>
      <trkpt lat="49.88867" lon="1.01822">
        <ele>69.4</ele>
        <time>2020-06-18T10:54:54Z</time>
      </trkpt>
      <trkpt lat="49.88868" lon="1.0183">
        <ele>69.6</ele>
        <time>2020-06-18T10:54:55Z</time>
      </trkpt>
      <trkpt lat="49.88869" lon="1.01837">
        <ele>69.8</ele>
        <time>2020-06-18T10:54:56Z</time>
      </trkpt>
      <trkpt lat="49.8887" lon="1.01845">
        <ele>69.9</ele>
        <time>2020-06-18T10:54:57Z</time>
      </trkpt>
      <trkpt lat="49.88871" lon="1.01852">
        <ele>70.1</ele>
        <time>2020-06-18T10:54:58Z</time>
      </trkpt>
      <trkpt lat="49.88872" lon="1.01859">
        <ele>70.2</ele>
        <time>2020-06-18T10:54:59Z</time>
      </trkpt>
      <trkpt lat="49.88874" lon="1.01867">
        <ele>70.4</ele>
        <time>2020-06-18T10:55:00Z</time>
      </trkpt>
      <trkpt lat="49.88875" lon="1.01875">
        <ele>70.5</ele>
        <time>2020-06-18T10:55:01Z</time>
      </trkpt>
      <trkpt lat="49.88876" lon="1.01883">
        <ele>70.6</ele>
        <time>2020-06-18T10:55:02Z</time>
      </trkpt>
      <trkpt lat="49.88877" lon="1.01891">
        <ele>70.7</ele>
        <time>2020-06-18T10:55:03Z</time>
      </trkpt>
      <trkpt lat="49.88879" lon="1.01899">
        <ele>70.8</ele>
        <time>2020-06-18T10:55:04Z</time>
      </trkpt>
      <trkpt lat="49.8888" lon="1.01905">
        <ele>70.9</ele>
        <time>2020-06-18T10:55:05Z</time>
      </trkpt>
      <trkpt lat="49.88882" lon="1.01914">
        <ele>70.9</ele>
        <time>2020-06-18T10:55:06Z</time>
      </trkpt>
      <trkpt lat="49.88884" lon="1.01922">
        <ele>71.1</ele>
        <time>2020-06-18T10:55:07Z</time>
      </trkpt>
      <trkpt lat="49.88885" lon="1.01929">
        <ele>71.2</ele>
        <time>2020-06-18T10:55:08Z</time>
      </trkpt>
      <trkpt lat="49.88886" lon="1.01937">
        <ele>71.3</ele>
        <time>2020-06-18T10:55:09Z</time>
      </trkpt>
      <trkpt lat="49.88887" lon="1.01943">
        <ele>71.4</ele>
        <time>2020-06-18T10:55:10Z</time>
      </trkpt>
      <trkpt lat="49.88888" lon="1.01952">
        <ele>71.5</ele>
        <time>2020-06-18T10:55:11Z</time>
      </trkpt>
      <trkpt lat="49.88889" lon="1.0196">
        <ele>71.7</ele>
        <time>2020-06-18T10:55:12Z</time>
      </trkpt>
      <trkpt lat="49.8889" lon="1.01968">
        <ele>71.8</ele>
        <time>2020-06-18T10:55:13Z</time>
      </trkpt>
      <trkpt lat="49.88891" lon="1.01976">
        <ele>71.9</ele>
        <time>2020-06-18T10:55:14Z</time>
      </trkpt>
      <trkpt lat="49.88893" lon="1.01984">
        <ele>71.9</ele>
        <time>2020-06-18T10:55:15Z</time>
      </trkpt>
      <trkpt lat="49.88894" lon="1.01992">
        <ele>71.9</ele>
        <time>2020-06-18T10:55:16Z</time>
      </trkpt>
      <trkpt lat="49.88896" lon="1.02002">
        <ele>71.9</ele>
        <time>2020-06-18T10:55:17Z</time>
      </trkpt>
      <trkpt lat="49.88897" lon="1.02009">
        <ele>71.8</ele>
        <time>2020-06-18T10:55:18Z</time>
      </trkpt>
      <trkpt lat="49.88898" lon="1.02016">
        <ele>71.8</ele>
        <time>2020-06-18T10:55:19Z</time>
      </trkpt>
      <trkpt lat="49.88899" lon="1.02025">
        <ele>71.7</ele>
        <time>2020-06-18T10:55:20Z</time>
      </trkpt>
      <trkpt lat="49.889" lon="1.02033">
        <ele>71.7</ele>
        <time>2020-06-18T10:55:21Z</time>
      </trkpt>
      <trkpt lat="49.88902" lon="1.02041">
        <ele>71.7</ele>
        <time>2020-06-18T10:55:22Z</time>
      </trkpt>
      <trkpt lat="49.88905" lon="1.0205">
        <ele>71.8</ele>
        <time>2020-06-18T10:55:23Z</time>
      </trkpt>
      <trkpt lat="49.88906" lon="1.02057">
        <ele>71.8</ele>
        <time>2020-06-18T10:55:24Z</time>
      </trkpt>
      <trkpt lat="49.88908" lon="1.02064">
        <ele>71.9</ele>
        <time>2020-06-18T10:55:25Z</time>
      </trkpt>
      <trkpt lat="49.88909" lon="1.02071">
        <ele>71.9</ele>
        <time>2020-06-18T10:55:26Z</time>
      </trkpt>
      <trkpt lat="49.88911" lon="1.0208">
        <ele>71.8</ele>
        <time>2020-06-18T10:55:27Z</time>
      </trkpt>
      <trkpt lat="49.88913" lon="1.02088">
        <ele>71.8</ele>
        <time>2020-06-18T10:55:28Z</time>
      </trkpt>
      <trkpt lat="49.88914" lon="1.02096">
        <ele>71.7</ele>
        <time>2020-06-18T10:55:29Z</time>
      </trkpt>
      <trkpt lat="49.88915" lon="1.02104">
        <ele>71.6</ele>
        <time>2020-06-18T10:55:30Z</time>
      </trkpt>
      <trkpt lat="49.88917" lon="1.02114">
        <ele>71.6</ele>
        <time>2020-06-18T10:55:31Z</time>
      </trkpt>
      <trkpt lat="49.88918" lon="1.02121">
        <ele>71.6</ele>
        <time>2020-06-18T10:55:32Z</time>
      </trkpt>
      <trkpt lat="49.88919" lon="1.0213">
        <ele>71.5</ele>
        <time>2020-06-18T10:55:33Z</time>
      </trkpt>
      <trkpt lat="49.8892" lon="1.0214">
        <ele>71.5</ele>
        <time>2020-06-18T10:55:34Z</time>
      </trkpt>
      <trkpt lat="49.88922" lon="1.0215">
        <ele>71.5</ele>
        <time>2020-06-18T10:55:35Z</time>
      </trkpt>
      <trkpt lat="49.88923" lon="1.02158">
        <ele>71.5</ele>
        <time>2020-06-18T10:55:36Z</time>
      </trkpt>
      <trkpt lat="49.88925" lon="1.02169">
        <ele>71.5</ele>
        <time>2020-06-18T10:55:37Z</time>
      </trkpt>
      <trkpt lat="49.88927" lon="1.02178">
        <ele>71.4</ele>
        <time>2020-06-18T10:55:38Z</time>
      </trkpt>
      <trkpt lat="49.88929" lon="1.02188">
        <ele>71.3</ele>
        <time>2020-06-18T10:55:39Z</time>
      </trkpt>
      <trkpt lat="49.88931" lon="1.02198">
        <ele>71.2</ele>
        <time>2020-06-18T10:55:40Z</time>
      </trkpt>
      <trkpt lat="49.88932" lon="1.02207">
        <ele>71.1</ele>
        <time>2020-06-18T10:55:41Z</time>
      </trkpt>
      <trkpt lat="49.88934" lon="1.02216">
        <ele>71</ele>
        <time>2020-06-18T10:55:42Z</time>
      </trkpt>
      <trkpt lat="49.88935" lon="1.02225">
        <ele>70.9</ele>
        <time>2020-06-18T10:55:43Z</time>
      </trkpt>
      <trkpt lat="49.88937" lon="1.02234">
        <ele>70.9</ele>
        <time>2020-06-18T10:55:44Z</time>
      </trkpt>
      <trkpt lat="49.88939" lon="1.02244">
        <ele>70.9</ele>
        <time>2020-06-18T10:55:45Z</time>
      </trkpt>
      <trkpt lat="49.88941" lon="1.02253">
        <ele>70.9</ele>
        <time>2020-06-18T10:55:46Z</time>
      </trkpt>
      <trkpt lat="49.88942" lon="1.02262">
        <ele>70.9</ele>
        <time>2020-06-18T10:55:47Z</time>
      </trkpt>
      <trkpt lat="49.88943" lon="1.02271">
        <ele>70.9</ele>
        <time>2020-06-18T10:55:48Z</time>
      </trkpt>
      <trkpt lat="49.88945" lon="1.0228">
        <ele>70.9</ele>
        <time>2020-06-18T10:55:49Z</time>
      </trkpt>
      <trkpt lat="49.88946" lon="1.0229">
        <ele>70.8</ele>
        <time>2020-06-18T10:55:50Z</time>
      </trkpt>
      <trkpt lat="49.88948" lon="1.02299">
        <ele>70.8</ele>
        <time>2020-06-18T10:55:51Z</time>
      </trkpt>
      <trkpt lat="49.8895" lon="1.02308">
        <ele>70.7</ele>
        <time>2020-06-18T10:55:52Z</time>
      </trkpt>
      <trkpt lat="49.88951" lon="1.02317">
        <ele>70.4</ele>
        <time>2020-06-18T10:55:53Z</time>
      </trkpt>
      <trkpt lat="49.88953" lon="1.02325">
        <ele>70.9</ele>
        <time>2020-06-18T10:55:54Z</time>
      </trkpt>
      <trkpt lat="49.88955" lon="1.02334">
        <ele>71.2</ele>
        <time>2020-06-18T10:55:55Z</time>
      </trkpt>
      <trkpt lat="49.88957" lon="1.02344">
        <ele>71.4</ele>
        <time>2020-06-18T10:55:56Z</time>
      </trkpt>
      <trkpt lat="49.88958" lon="1.02353">
        <ele>71.5</ele>
        <time>2020-06-18T10:55:57Z</time>
      </trkpt>
      <trkpt lat="49.88959" lon="1.02362">
        <ele>71.5</ele>
        <time>2020-06-18T10:55:58Z</time>
      </trkpt>
      <trkpt lat="49.8896" lon="1.02368">
        <ele>71.6</ele>
        <time>2020-06-18T10:55:59Z</time>
      </trkpt>
      <trkpt lat="49.88962" lon="1.02376">
        <ele>71.7</ele>
        <time>2020-06-18T10:56:00Z</time>
      </trkpt>
      <trkpt lat="49.88963" lon="1.02385">
        <ele>71.8</ele>
        <time>2020-06-18T10:56:01Z</time>
      </trkpt>
      <trkpt lat="49.88965" lon="1.02394">
        <ele>71.8</ele>
        <time>2020-06-18T10:56:02Z</time>
      </trkpt>
      <trkpt lat="49.88966" lon="1.02403">
        <ele>71.9</ele>
        <time>2020-06-18T10:56:03Z</time>
      </trkpt>
      <trkpt lat="49.88967" lon="1.02412">
        <ele>72</ele>
        <time>2020-06-18T10:56:04Z</time>
      </trkpt>
      <trkpt lat="49.88969" lon="1.02422">
        <ele>72.1</ele>
        <time>2020-06-18T10:56:05Z</time>
      </trkpt>
      <trkpt lat="49.88971" lon="1.02432">
        <ele>72.2</ele>
        <time>2020-06-18T10:56:06Z</time>
      </trkpt>
      <trkpt lat="49.88973" lon="1.02442">
        <ele>72.3</ele>
        <time>2020-06-18T10:56:07Z</time>
      </trkpt>
      <trkpt lat="49.88975" lon="1.02451">
        <ele>72.4</ele>
        <time>2020-06-18T10:56:08Z</time>
      </trkpt>
      <trkpt lat="49.88977" lon="1.02461">
        <ele>72.5</ele>
        <time>2020-06-18T10:56:09Z</time>
      </trkpt>
      <trkpt lat="49.88979" lon="1.02472">
        <ele>72.6</ele>
        <time>2020-06-18T10:56:10Z</time>
      </trkpt>
      <trkpt lat="49.8898" lon="1.02477">
        <ele>72.6</ele>
        <time>2020-06-18T10:56:11Z</time>
      </trkpt>
      <trkpt lat="49.88981" lon="1.02486">
        <ele>72.7</ele>
        <time>2020-06-18T10:56:12Z</time>
      </trkpt>
      <trkpt lat="49.88982" lon="1.02493">
        <ele>72.8</ele>
        <time>2020-06-18T10:56:13Z</time>
      </trkpt>
      <trkpt lat="49.88984" lon="1.02502">
        <ele>73</ele>
        <time>2020-06-18T10:56:14Z</time>
      </trkpt>
      <trkpt lat="49.88985" lon="1.02513">
        <ele>73.1</ele>
        <time>2020-06-18T10:56:15Z</time>
      </trkpt>
      <trkpt lat="49.88987" lon="1.02522">
        <ele>73.3</ele>
        <time>2020-06-18T10:56:16Z</time>
      </trkpt>
      <trkpt lat="49.88989" lon="1.02531">
        <ele>73.5</ele>
        <time>2020-06-18T10:56:17Z</time>
      </trkpt>
      <trkpt lat="49.8899" lon="1.0254">
        <ele>73.7</ele>
        <time>2020-06-18T10:56:18Z</time>
      </trkpt>
      <trkpt lat="49.88992" lon="1.02552">
        <ele>73.8</ele>
        <time>2020-06-18T10:56:19Z</time>
      </trkpt>
      <trkpt lat="49.88994" lon="1.02562">
        <ele>74</ele>
        <time>2020-06-18T10:56:20Z</time>
      </trkpt>
      <trkpt lat="49.88994" lon="1.02573">
        <ele>74.1</ele>
        <time>2020-06-18T10:56:21Z</time>
      </trkpt>
      <trkpt lat="49.88996" lon="1.02582">
        <ele>74.2</ele>
        <time>2020-06-18T10:56:22Z</time>
      </trkpt>
      <trkpt lat="49.88997" lon="1.02591">
        <ele>74.3</ele>
        <time>2020-06-18T10:56:23Z</time>
      </trkpt>
      <trkpt lat="49.88999" lon="1.026">
        <ele>74.4</ele>
        <time>2020-06-18T10:56:24Z</time>
      </trkpt>
      <trkpt lat="49.89001" lon="1.0261">
        <ele>74.6</ele>
        <time>2020-06-18T10:56:25Z</time>
      </trkpt>
      <trkpt lat="49.89003" lon="1.02619">
        <ele>74.8</ele>
        <time>2020-06-18T10:56:26Z</time>
      </trkpt>
      <trkpt lat="49.89005" lon="1.02627">
        <ele>75</ele>
        <time>2020-06-18T10:56:27Z</time>
      </trkpt>
      <trkpt lat="49.89006" lon="1.02635">
        <ele>75.2</ele>
        <time>2020-06-18T10:56:28Z</time>
      </trkpt>
      <trkpt lat="49.89007" lon="1.02643">
        <ele>75.4</ele>
        <time>2020-06-18T10:56:29Z</time>
      </trkpt>
      <trkpt lat="49.89008" lon="1.02652">
        <ele>75.6</ele>
        <time>2020-06-18T10:56:30Z</time>
      </trkpt>
      <trkpt lat="49.8901" lon="1.02662">
        <ele>75.9</ele>
        <time>2020-06-18T10:56:31Z</time>
      </trkpt>
      <trkpt lat="49.89011" lon="1.02671">
        <ele>76.2</ele>
        <time>2020-06-18T10:56:32Z</time>
      </trkpt>
      <trkpt lat="49.89012" lon="1.02679">
        <ele>76.5</ele>
        <time>2020-06-18T10:56:33Z</time>
      </trkpt>
      <trkpt lat="49.89014" lon="1.02686">
        <ele>76.7</ele>
        <time>2020-06-18T10:56:34Z</time>
      </trkpt>
      <trkpt lat="49.89016" lon="1.02695">
        <ele>76.9</ele>
        <time>2020-06-18T10:56:35Z</time>
      </trkpt>
      <trkpt lat="49.89017" lon="1.02703">
        <ele>77.1</ele>
        <time>2020-06-18T10:56:36Z</time>
      </trkpt>
      <trkpt lat="49.89018" lon="1.02711">
        <ele>77.3</ele>
        <time>2020-06-18T10:56:37Z</time>
      </trkpt>
      <trkpt lat="49.89019" lon="1.0272">
        <ele>77.4</ele>
        <time>2020-06-18T10:56:38Z</time>
      </trkpt>
      <trkpt lat="49.8902" lon="1.02727">
        <ele>77.6</ele>
        <time>2020-06-18T10:56:39Z</time>
      </trkpt>
      <trkpt lat="49.89022" lon="1.02736">
        <ele>77.7</ele>
        <time>2020-06-18T10:56:40Z</time>
      </trkpt>
      <trkpt lat="49.89024" lon="1.02744">
        <ele>77.9</ele>
        <time>2020-06-18T10:56:41Z</time>
      </trkpt>
      <trkpt lat="49.89026" lon="1.02755">
        <ele>78.2</ele>
        <time>2020-06-18T10:56:42Z</time>
      </trkpt>
      <trkpt lat="49.89028" lon="1.02764">
        <ele>78.3</ele>
        <time>2020-06-18T10:56:43Z</time>
      </trkpt>
      <trkpt lat="49.8903" lon="1.02772">
        <ele>78.4</ele>
        <time>2020-06-18T10:56:44Z</time>
      </trkpt>
      <trkpt lat="49.89032" lon="1.0278">
        <ele>78.5</ele>
        <time>2020-06-18T10:56:45Z</time>
      </trkpt>
      <trkpt lat="49.89033" lon="1.02788">
        <ele>78.6</ele>
        <time>2020-06-18T10:56:46Z</time>
      </trkpt>
      <trkpt lat="49.89034" lon="1.02795">
        <ele>78.7</ele>
        <time>2020-06-18T10:56:47Z</time>
      </trkpt>
      <trkpt lat="49.89035" lon="1.02803">
        <ele>78.8</ele>
        <time>2020-06-18T10:56:48Z</time>
      </trkpt>
      <trkpt lat="49.89036" lon="1.02812">
        <ele>78.9</ele>
        <time>2020-06-18T10:56:49Z</time>
      </trkpt>
      <trkpt lat="49.89037" lon="1.02822">
        <ele>78.9</ele>
        <time>2020-06-18T10:56:50Z</time>
      </trkpt>
      <trkpt lat="49.89038" lon="1.02831">
        <ele>79.1</ele>
        <time>2020-06-18T10:56:51Z</time>
      </trkpt>
      <trkpt lat="49.8904" lon="1.0284">
        <ele>79.2</ele>
        <time>2020-06-18T10:56:52Z</time>
      </trkpt>
      <trkpt lat="49.89041" lon="1.02848">
        <ele>79.3</ele>
        <time>2020-06-18T10:56:53Z</time>
      </trkpt>
      <trkpt lat="49.89043" lon="1.02857">
        <ele>79.3</ele>
        <time>2020-06-18T10:56:54Z</time>
      </trkpt>
      <trkpt lat="49.89044" lon="1.02865">
        <ele>79.4</ele>
        <time>2020-06-18T10:56:55Z</time>
      </trkpt>
      <trkpt lat="49.89045" lon="1.02874">
        <ele>79.5</ele>
        <time>2020-06-18T10:56:56Z</time>
      </trkpt>
      <trkpt lat="49.89047" lon="1.02882">
        <ele>79.6</ele>
        <time>2020-06-18T10:56:57Z</time>
      </trkpt>
      <trkpt lat="49.89049" lon="1.0289">
        <ele>79.6</ele>
        <time>2020-06-18T10:56:58Z</time>
      </trkpt>
      <trkpt lat="49.8905" lon="1.02898">
        <ele>79.5</ele>
        <time>2020-06-18T10:56:59Z</time>
      </trkpt>
      <trkpt lat="49.89052" lon="1.02908">
        <ele>78.8</ele>
        <time>2020-06-18T10:57:00Z</time>
      </trkpt>
      <trkpt lat="49.89053" lon="1.02916">
        <ele>77.5</ele>
        <time>2020-06-18T10:57:01Z</time>
      </trkpt>
      <trkpt lat="49.89055" lon="1.02925">
        <ele>75.5</ele>
        <time>2020-06-18T10:57:02Z</time>
      </trkpt>
      <trkpt lat="49.89056" lon="1.02934">
        <ele>75</ele>
        <time>2020-06-18T10:57:03Z</time>
      </trkpt>
      <trkpt lat="49.89058" lon="1.02944">
        <ele>75.2</ele>
        <time>2020-06-18T10:57:04Z</time>
      </trkpt>
      <trkpt lat="49.89059" lon="1.02951">
        <ele>75.3</ele>
        <time>2020-06-18T10:57:05Z</time>
      </trkpt>
      <trkpt lat="49.89061" lon="1.0296">
        <ele>75.3</ele>
        <time>2020-06-18T10:57:06Z</time>
      </trkpt>
      <trkpt lat="49.89062" lon="1.02969">
        <ele>75.3</ele>
        <time>2020-06-18T10:57:07Z</time>
      </trkpt>
      <trkpt lat="49.89064" lon="1.02978">
        <ele>75.3</ele>
        <time>2020-06-18T10:57:08Z</time>
      </trkpt>
      <trkpt lat="49.89066" lon="1.02988">
        <ele>75.3</ele>
        <time>2020-06-18T10:57:09Z</time>
      </trkpt>
      <trkpt lat="49.89068" lon="1.02996">
        <ele>75.3</ele>
        <time>2020-06-18T10:57:10Z</time>
      </trkpt>
      <trkpt lat="49.89069" lon="1.03004">
        <ele>75.3</ele>
        <time>2020-06-18T10:57:11Z</time>
      </trkpt>
      <trkpt lat="49.89071" lon="1.03013">
        <ele>75.3</ele>
        <time>2020-06-18T10:57:12Z</time>
      </trkpt>
      <trkpt lat="49.89072" lon="1.03021">
        <ele>75.4</ele>
        <time>2020-06-18T10:57:13Z</time>
      </trkpt>
      <trkpt lat="49.89074" lon="1.03029">
        <ele>75.5</ele>
        <time>2020-06-18T10:57:14Z</time>
      </trkpt>
      <trkpt lat="49.89076" lon="1.0304">
        <ele>75.6</ele>
        <time>2020-06-18T10:57:15Z</time>
      </trkpt>
      <trkpt lat="49.89077" lon="1.03048">
        <ele>75.6</ele>
        <time>2020-06-18T10:57:16Z</time>
      </trkpt>
      <trkpt lat="49.89079" lon="1.03054">
        <ele>75.6</ele>
        <time>2020-06-18T10:57:17Z</time>
      </trkpt>
      <trkpt lat="49.8908" lon="1.03063">
        <ele>75.6</ele>
        <time>2020-06-18T10:57:18Z</time>
      </trkpt>
      <trkpt lat="49.8908" lon="1.03071">
        <ele>75.6</ele>
        <time>2020-06-18T10:57:19Z</time>
      </trkpt>
      <trkpt lat="49.89081" lon="1.0308">
        <ele>75.7</ele>
        <time>2020-06-18T10:57:20Z</time>
      </trkpt>
      <trkpt lat="49.89084" lon="1.03089">
        <ele>75.8</ele>
        <time>2020-06-18T10:57:21Z</time>
      </trkpt>
      <trkpt lat="49.89085" lon="1.03098">
        <ele>75.8</ele>
        <time>2020-06-18T10:57:22Z</time>
      </trkpt>
      <trkpt lat="49.89085" lon="1.03107">
        <ele>75.9</ele>
        <time>2020-06-18T10:57:23Z</time>
      </trkpt>
      <trkpt lat="49.89087" lon="1.03117">
        <ele>76.1</ele>
        <time>2020-06-18T10:57:24Z</time>
      </trkpt>
      <trkpt lat="49.89089" lon="1.03125">
        <ele>76.2</ele>
        <time>2020-06-18T10:57:25Z</time>
      </trkpt>
      <trkpt lat="49.8909" lon="1.03133">
        <ele>76.4</ele>
        <time>2020-06-18T10:57:26Z</time>
      </trkpt>
      <trkpt lat="49.89091" lon="1.03139">
        <ele>76.5</ele>
        <time>2020-06-18T10:57:27Z</time>
      </trkpt>
      <trkpt lat="49.89091" lon="1.03147">
        <ele>76.6</ele>
        <time>2020-06-18T10:57:28Z</time>
      </trkpt>
      <trkpt lat="49.89089" lon="1.03157">
        <ele>76.6</ele>
        <time>2020-06-18T10:57:29Z</time>
      </trkpt>
      <trkpt lat="49.89088" lon="1.03166">
        <ele>76.9</ele>
        <time>2020-06-18T10:57:30Z</time>
      </trkpt>
      <trkpt lat="49.89088" lon="1.03174">
        <ele>76.9</ele>
        <time>2020-06-18T10:57:31Z</time>
      </trkpt>
      <trkpt lat="49.89089" lon="1.03181">
        <ele>76.9</ele>
        <time>2020-06-18T10:57:32Z</time>
      </trkpt>
      <trkpt lat="49.89092" lon="1.03188">
        <ele>76.6</ele>
        <time>2020-06-18T10:57:33Z</time>
      </trkpt>
      <trkpt lat="49.89096" lon="1.03193">
        <ele>76.6</ele>
        <time>2020-06-18T10:57:34Z</time>
      </trkpt>
      <trkpt lat="49.891" lon="1.03201">
        <ele>76.5</ele>
        <time>2020-06-18T10:57:35Z</time>
      </trkpt>
      <trkpt lat="49.89102" lon="1.0321">
        <ele>76.5</ele>
        <time>2020-06-18T10:57:36Z</time>
      </trkpt>
      <trkpt lat="49.89104" lon="1.03218">
        <ele>76.5</ele>
        <time>2020-06-18T10:57:37Z</time>
      </trkpt>
      <trkpt lat="49.89105" lon="1.03228">
        <ele>76.6</ele>
        <time>2020-06-18T10:57:38Z</time>
      </trkpt>
      <trkpt lat="49.89106" lon="1.03236">
        <ele>76.7</ele>
        <time>2020-06-18T10:57:39Z</time>
      </trkpt>
      <trkpt lat="49.89109" lon="1.03244">
        <ele>76.7</ele>
        <time>2020-06-18T10:57:40Z</time>
      </trkpt>
      <trkpt lat="49.89111" lon="1.03253">
        <ele>76.8</ele>
        <time>2020-06-18T10:57:41Z</time>
      </trkpt>
      <trkpt lat="49.89112" lon="1.03262">
        <ele>76.8</ele>
        <time>2020-06-18T10:57:42Z</time>
      </trkpt>
      <trkpt lat="49.89114" lon="1.03271">
        <ele>76.9</ele>
        <time>2020-06-18T10:57:43Z</time>
      </trkpt>
      <trkpt lat="49.89115" lon="1.0328">
        <ele>77</ele>
        <time>2020-06-18T10:57:44Z</time>
      </trkpt>
      <trkpt lat="49.89117" lon="1.03288">
        <ele>77</ele>
        <time>2020-06-18T10:57:45Z</time>
      </trkpt>
      <trkpt lat="49.89118" lon="1.03297">
        <ele>77.1</ele>
        <time>2020-06-18T10:57:46Z</time>
      </trkpt>
      <trkpt lat="49.8912" lon="1.03303">
        <ele>77.2</ele>
        <time>2020-06-18T10:57:47Z</time>
      </trkpt>
      <trkpt lat="49.89122" lon="1.03313">
        <ele>77.3</ele>
        <time>2020-06-18T10:57:48Z</time>
      </trkpt>
      <trkpt lat="49.89123" lon="1.03324">
        <ele>77.4</ele>
        <time>2020-06-18T10:57:49Z</time>
      </trkpt>
      <trkpt lat="49.89124" lon="1.03331">
        <ele>77.5</ele>
        <time>2020-06-18T10:57:50Z</time>
      </trkpt>
      <trkpt lat="49.89126" lon="1.0334">
        <ele>77.7</ele>
        <time>2020-06-18T10:57:51Z</time>
      </trkpt>
      <trkpt lat="49.89127" lon="1.03349">
        <ele>77.8</ele>
        <time>2020-06-18T10:57:52Z</time>
      </trkpt>
      <trkpt lat="49.89128" lon="1.03358">
        <ele>77.9</ele>
        <time>2020-06-18T10:57:53Z</time>
      </trkpt>
      <trkpt lat="49.8913" lon="1.03369">
        <ele>78.2</ele>
        <time>2020-06-18T10:57:54Z</time>
      </trkpt>
      <trkpt lat="49.89131" lon="1.03377">
        <ele>78.1</ele>
        <time>2020-06-18T10:57:55Z</time>
      </trkpt>
      <trkpt lat="49.89133" lon="1.03386">
        <ele>78.1</ele>
        <time>2020-06-18T10:57:56Z</time>
      </trkpt>
      <trkpt lat="49.89134" lon="1.03395">
        <ele>78.1</ele>
        <time>2020-06-18T10:57:57Z</time>
      </trkpt>
      <trkpt lat="49.89136" lon="1.034">
        <ele>78.1</ele>
        <time>2020-06-18T10:57:58Z</time>
      </trkpt>
      <trkpt lat="49.89136" lon="1.03409">
        <ele>78.1</ele>
        <time>2020-06-18T10:57:59Z</time>
      </trkpt>
      <trkpt lat="49.89137" lon="1.03418">
        <ele>78.2</ele>
        <time>2020-06-18T10:58:00Z</time>
      </trkpt>
      <trkpt lat="49.89139" lon="1.03426">
        <ele>78.2</ele>
        <time>2020-06-18T10:58:01Z</time>
      </trkpt>
      <trkpt lat="49.8914" lon="1.03434">
        <ele>78.4</ele>
        <time>2020-06-18T10:58:02Z</time>
      </trkpt>
      <trkpt lat="49.89142" lon="1.03441">
        <ele>78.5</ele>
        <time>2020-06-18T10:58:03Z</time>
      </trkpt>
      <trkpt lat="49.89144" lon="1.03449">
        <ele>78.6</ele>
        <time>2020-06-18T10:58:04Z</time>
      </trkpt>
      <trkpt lat="49.89146" lon="1.03457">
        <ele>78.7</ele>
        <time>2020-06-18T10:58:05Z</time>
      </trkpt>
      <trkpt lat="49.89148" lon="1.03464">
        <ele>78.8</ele>
        <time>2020-06-18T10:58:06Z</time>
      </trkpt>
      <trkpt lat="49.8915" lon="1.03472">
        <ele>78.9</ele>
        <time>2020-06-18T10:58:07Z</time>
      </trkpt>
      <trkpt lat="49.89151" lon="1.03482">
        <ele>79.1</ele>
        <time>2020-06-18T10:58:08Z</time>
      </trkpt>
      <trkpt lat="49.89153" lon="1.03491">
        <ele>79.2</ele>
        <time>2020-06-18T10:58:09Z</time>
      </trkpt>
      <trkpt lat="49.89156" lon="1.03498">
        <ele>79.3</ele>
        <time>2020-06-18T10:58:10Z</time>
      </trkpt>
      <trkpt lat="49.89157" lon="1.03506">
        <ele>79.4</ele>
        <time>2020-06-18T10:58:11Z</time>
      </trkpt>
      <trkpt lat="49.89158" lon="1.03514">
        <ele>79.5</ele>
        <time>2020-06-18T10:58:12Z</time>
      </trkpt>
      <trkpt lat="49.8916" lon="1.03522">
        <ele>79.7</ele>
        <time>2020-06-18T10:58:13Z</time>
      </trkpt>
      <trkpt lat="49.89161" lon="1.03531">
        <ele>79.8</ele>
        <time>2020-06-18T10:58:14Z</time>
      </trkpt>
      <trkpt lat="49.89161" lon="1.03537">
        <ele>79.9</ele>
        <time>2020-06-18T10:58:15Z</time>
      </trkpt>
      <trkpt lat="49.89163" lon="1.03545">
        <ele>80</ele>
        <time>2020-06-18T10:58:16Z</time>
      </trkpt>
      <trkpt lat="49.89165" lon="1.03555">
        <ele>80.1</ele>
        <time>2020-06-18T10:58:17Z</time>
      </trkpt>
      <trkpt lat="49.89167" lon="1.03563">
        <ele>80.3</ele>
        <time>2020-06-18T10:58:18Z</time>
      </trkpt>
      <trkpt lat="49.89168" lon="1.0357">
        <ele>80.4</ele>
        <time>2020-06-18T10:58:19Z</time>
      </trkpt>
      <trkpt lat="49.89169" lon="1.03578">
        <ele>80.5</ele>
        <time>2020-06-18T10:58:20Z</time>
      </trkpt>
      <trkpt lat="49.89171" lon="1.03587">
        <ele>80.6</ele>
        <time>2020-06-18T10:58:21Z</time>
      </trkpt>
      <trkpt lat="49.89172" lon="1.03596">
        <ele>80.8</ele>
        <time>2020-06-18T10:58:22Z</time>
      </trkpt>
      <trkpt lat="49.89173" lon="1.03604">
        <ele>80.9</ele>
        <time>2020-06-18T10:58:23Z</time>
      </trkpt>
      <trkpt lat="49.89174" lon="1.03611">
        <ele>81.1</ele>
        <time>2020-06-18T10:58:24Z</time>
      </trkpt>
      <trkpt lat="49.89175" lon="1.0362">
        <ele>81.2</ele>
        <time>2020-06-18T10:58:25Z</time>
      </trkpt>
      <trkpt lat="49.89177" lon="1.03626">
        <ele>81.3</ele>
        <time>2020-06-18T10:58:26Z</time>
      </trkpt>
      <trkpt lat="49.89179" lon="1.03635">
        <ele>81.5</ele>
        <time>2020-06-18T10:58:27Z</time>
      </trkpt>
      <trkpt lat="49.8918" lon="1.03644">
        <ele>81.7</ele>
        <time>2020-06-18T10:58:28Z</time>
      </trkpt>
      <trkpt lat="49.89182" lon="1.03652">
        <ele>81.8</ele>
        <time>2020-06-18T10:58:29Z</time>
      </trkpt>
      <trkpt lat="49.89183" lon="1.03661">
        <ele>81.9</ele>
        <time>2020-06-18T10:58:30Z</time>
      </trkpt>
      <trkpt lat="49.89184" lon="1.03668">
        <ele>82</ele>
        <time>2020-06-18T10:58:31Z</time>
      </trkpt>
      <trkpt lat="49.89185" lon="1.03677">
        <ele>82.2</ele>
        <time>2020-06-18T10:58:32Z</time>
      </trkpt>
      <trkpt lat="49.89187" lon="1.03687">
        <ele>82.4</ele>
        <time>2020-06-18T10:58:33Z</time>
      </trkpt>
      <trkpt lat="49.89188" lon="1.03696">
        <ele>82.5</ele>
        <time>2020-06-18T10:58:34Z</time>
      </trkpt>
      <trkpt lat="49.8919" lon="1.03704">
        <ele>82.7</ele>
        <time>2020-06-18T10:58:35Z</time>
      </trkpt>
      <trkpt lat="49.89191" lon="1.03713">
        <ele>82.9</ele>
        <time>2020-06-18T10:58:36Z</time>
      </trkpt>
      <trkpt lat="49.89192" lon="1.03721">
        <ele>83</ele>
        <time>2020-06-18T10:58:37Z</time>
      </trkpt>
      <trkpt lat="49.89194" lon="1.03729">
        <ele>83.1</ele>
        <time>2020-06-18T10:58:38Z</time>
      </trkpt>
      <trkpt lat="49.89195" lon="1.03738">
        <ele>83.3</ele>
        <time>2020-06-18T10:58:39Z</time>
      </trkpt>
      <trkpt lat="49.89196" lon="1.03746">
        <ele>83.4</ele>
        <time>2020-06-18T10:58:40Z</time>
      </trkpt>
      <trkpt lat="49.89198" lon="1.03755">
        <ele>83.5</ele>
        <time>2020-06-18T10:58:41Z</time>
      </trkpt>
      <trkpt lat="49.89199" lon="1.03763">
        <ele>83.6</ele>
        <time>2020-06-18T10:58:42Z</time>
      </trkpt>
      <trkpt lat="49.892" lon="1.03771">
        <ele>83.7</ele>
        <time>2020-06-18T10:58:43Z</time>
      </trkpt>
      <trkpt lat="49.89201" lon="1.0378">
        <ele>83.8</ele>
        <time>2020-06-18T10:58:44Z</time>
      </trkpt>
      <trkpt lat="49.89203" lon="1.03787">
        <ele>84</ele>
        <time>2020-06-18T10:58:45Z</time>
      </trkpt>
      <trkpt lat="49.89204" lon="1.03795">
        <ele>84.1</ele>
        <time>2020-06-18T10:58:46Z</time>
      </trkpt>
      <trkpt lat="49.89206" lon="1.03804">
        <ele>84.3</ele>
        <time>2020-06-18T10:58:47Z</time>
      </trkpt>
      <trkpt lat="49.89208" lon="1.03813">
        <ele>84.4</ele>
        <time>2020-06-18T10:58:48Z</time>
      </trkpt>
      <trkpt lat="49.8921" lon="1.03821">
        <ele>84.6</ele>
        <time>2020-06-18T10:58:49Z</time>
      </trkpt>
      <trkpt lat="49.89211" lon="1.03829">
        <ele>84.8</ele>
        <time>2020-06-18T10:58:50Z</time>
      </trkpt>
      <trkpt lat="49.89212" lon="1.03838">
        <ele>84.9</ele>
        <time>2020-06-18T10:58:51Z</time>
      </trkpt>
      <trkpt lat="49.89214" lon="1.03846">
        <ele>85.1</ele>
        <time>2020-06-18T10:58:52Z</time>
      </trkpt>
      <trkpt lat="49.89215" lon="1.03853">
        <ele>85.2</ele>
        <time>2020-06-18T10:58:53Z</time>
      </trkpt>
      <trkpt lat="49.89216" lon="1.03862">
        <ele>85.4</ele>
        <time>2020-06-18T10:58:54Z</time>
      </trkpt>
      <trkpt lat="49.89217" lon="1.03871">
        <ele>85.5</ele>
        <time>2020-06-18T10:58:55Z</time>
      </trkpt>
      <trkpt lat="49.89218" lon="1.03878">
        <ele>85.7</ele>
        <time>2020-06-18T10:58:56Z</time>
      </trkpt>
      <trkpt lat="49.89221" lon="1.03886">
        <ele>85.8</ele>
        <time>2020-06-18T10:58:57Z</time>
      </trkpt>
      <trkpt lat="49.89222" lon="1.03894">
        <ele>85.9</ele>
        <time>2020-06-18T10:58:58Z</time>
      </trkpt>
      <trkpt lat="49.89223" lon="1.03903">
        <ele>86</ele>
        <time>2020-06-18T10:58:59Z</time>
      </trkpt>
      <trkpt lat="49.89225" lon="1.03911">
        <ele>86.1</ele>
        <time>2020-06-18T10:59:00Z</time>
      </trkpt>
      <trkpt lat="49.89226" lon="1.03918">
        <ele>86.2</ele>
        <time>2020-06-18T10:59:01Z</time>
      </trkpt>
      <trkpt lat="49.89228" lon="1.03926">
        <ele>86.3</ele>
        <time>2020-06-18T10:59:02Z</time>
      </trkpt>
      <trkpt lat="49.89229" lon="1.03935">
        <ele>86.4</ele>
        <time>2020-06-18T10:59:03Z</time>
      </trkpt>
      <trkpt lat="49.8923" lon="1.03943">
        <ele>86.6</ele>
        <time>2020-06-18T10:59:04Z</time>
      </trkpt>
      <trkpt lat="49.89231" lon="1.0395">
        <ele>86.7</ele>
        <time>2020-06-18T10:59:05Z</time>
      </trkpt>
      <trkpt lat="49.89233" lon="1.03961">
        <ele>86.8</ele>
        <time>2020-06-18T10:59:06Z</time>
      </trkpt>
      <trkpt lat="49.89235" lon="1.03969">
        <ele>87</ele>
        <time>2020-06-18T10:59:07Z</time>
      </trkpt>
      <trkpt lat="49.89236" lon="1.03977">
        <ele>87.1</ele>
        <time>2020-06-18T10:59:08Z</time>
      </trkpt>
      <trkpt lat="49.89238" lon="1.03984">
        <ele>87.2</ele>
        <time>2020-06-18T10:59:09Z</time>
      </trkpt>
      <trkpt lat="49.89239" lon="1.03992">
        <ele>87.4</ele>
        <time>2020-06-18T10:59:10Z</time>
      </trkpt>
      <trkpt lat="49.8924" lon="1.04001">
        <ele>87.5</ele>
        <time>2020-06-18T10:59:11Z</time>
      </trkpt>
      <trkpt lat="49.89242" lon="1.0401">
        <ele>87.6</ele>
        <time>2020-06-18T10:59:12Z</time>
      </trkpt>
      <trkpt lat="49.89243" lon="1.04018">
        <ele>87.7</ele>
        <time>2020-06-18T10:59:13Z</time>
      </trkpt>
      <trkpt lat="49.89244" lon="1.04026">
        <ele>87.7</ele>
        <time>2020-06-18T10:59:14Z</time>
      </trkpt>
      <trkpt lat="49.89246" lon="1.04033">
        <ele>87.8</ele>
        <time>2020-06-18T10:59:15Z</time>
      </trkpt>
      <trkpt lat="49.89247" lon="1.0404">
        <ele>87.8</ele>
        <time>2020-06-18T10:59:16Z</time>
      </trkpt>
      <trkpt lat="49.89248" lon="1.04048">
        <ele>87.9</ele>
        <time>2020-06-18T10:59:17Z</time>
      </trkpt>
      <trkpt lat="49.89249" lon="1.04055">
        <ele>87.9</ele>
        <time>2020-06-18T10:59:18Z</time>
      </trkpt>
      <trkpt lat="49.89251" lon="1.04063">
        <ele>87.9</ele>
        <time>2020-06-18T10:59:19Z</time>
      </trkpt>
      <trkpt lat="49.89252" lon="1.04071">
        <ele>87.7</ele>
        <time>2020-06-18T10:59:20Z</time>
      </trkpt>
      <trkpt lat="49.89253" lon="1.04079">
        <ele>87.6</ele>
        <time>2020-06-18T10:59:21Z</time>
      </trkpt>
      <trkpt lat="49.89254" lon="1.04086">
        <ele>87.4</ele>
        <time>2020-06-18T10:59:22Z</time>
      </trkpt>
      <trkpt lat="49.89256" lon="1.04093">
        <ele>87.3</ele>
        <time>2020-06-18T10:59:23Z</time>
      </trkpt>
      <trkpt lat="49.89258" lon="1.04101">
        <ele>87.1</ele>
        <time>2020-06-18T10:59:24Z</time>
      </trkpt>
      <trkpt lat="49.8926" lon="1.0411">
        <ele>87.1</ele>
        <time>2020-06-18T10:59:25Z</time>
      </trkpt>
      <trkpt lat="49.89262" lon="1.04118">
        <ele>87.1</ele>
        <time>2020-06-18T10:59:26Z</time>
      </trkpt>
      <trkpt lat="49.89264" lon="1.04127">
        <ele>87</ele>
        <time>2020-06-18T10:59:27Z</time>
      </trkpt>
      <trkpt lat="49.89266" lon="1.04135">
        <ele>87</ele>
        <time>2020-06-18T10:59:28Z</time>
      </trkpt>
      <trkpt lat="49.89267" lon="1.04145">
        <ele>87</ele>
        <time>2020-06-18T10:59:29Z</time>
      </trkpt>
      <trkpt lat="49.89268" lon="1.04153">
        <ele>87</ele>
        <time>2020-06-18T10:59:30Z</time>
      </trkpt>
      <trkpt lat="49.89268" lon="1.04161">
        <ele>87</ele>
        <time>2020-06-18T10:59:31Z</time>
      </trkpt>
      <trkpt lat="49.89269" lon="1.04169">
        <ele>86.9</ele>
        <time>2020-06-18T10:59:32Z</time>
      </trkpt>
      <trkpt lat="49.8927" lon="1.04179">
        <ele>86.7</ele>
        <time>2020-06-18T10:59:33Z</time>
      </trkpt>
      <trkpt lat="49.89271" lon="1.04188">
        <ele>86.5</ele>
        <time>2020-06-18T10:59:34Z</time>
      </trkpt>
      <trkpt lat="49.89273" lon="1.04197">
        <ele>86.3</ele>
        <time>2020-06-18T10:59:35Z</time>
      </trkpt>
      <trkpt lat="49.89274" lon="1.04207">
        <ele>86.1</ele>
        <time>2020-06-18T10:59:36Z</time>
      </trkpt>
      <trkpt lat="49.89275" lon="1.04218">
        <ele>85.9</ele>
        <time>2020-06-18T10:59:37Z</time>
      </trkpt>
      <trkpt lat="49.89276" lon="1.04229">
        <ele>85.7</ele>
        <time>2020-06-18T10:59:38Z</time>
      </trkpt>
      <trkpt lat="49.89277" lon="1.0424">
        <ele>85.6</ele>
        <time>2020-06-18T10:59:39Z</time>
      </trkpt>
      <trkpt lat="49.89278" lon="1.04251">
        <ele>85.4</ele>
        <time>2020-06-18T10:59:40Z</time>
      </trkpt>
      <trkpt lat="49.89279" lon="1.04262">
        <ele>85.3</ele>
        <time>2020-06-18T10:59:41Z</time>
      </trkpt>
      <trkpt lat="49.89281" lon="1.04275">
        <ele>85.1</ele>
        <time>2020-06-18T10:59:42Z</time>
      </trkpt>
      <trkpt lat="49.89282" lon="1.04288">
        <ele>84.9</ele>
        <time>2020-06-18T10:59:43Z</time>
      </trkpt>
      <trkpt lat="49.89283" lon="1.043">
        <ele>84.7</ele>
        <time>2020-06-18T10:59:44Z</time>
      </trkpt>
      <trkpt lat="49.89285" lon="1.04313">
        <ele>84.4</ele>
        <time>2020-06-18T10:59:45Z</time>
      </trkpt>
      <trkpt lat="49.89286" lon="1.04326">
        <ele>84.1</ele>
        <time>2020-06-18T10:59:46Z</time>
      </trkpt>
      <trkpt lat="49.89287" lon="1.04338">
        <ele>83.9</ele>
        <time>2020-06-18T10:59:47Z</time>
      </trkpt>
      <trkpt lat="49.89288" lon="1.04351">
        <ele>83.7</ele>
        <time>2020-06-18T10:59:48Z</time>
      </trkpt>
      <trkpt lat="49.89289" lon="1.04363">
        <ele>83.6</ele>
        <time>2020-06-18T10:59:49Z</time>
      </trkpt>
      <trkpt lat="49.89291" lon="1.04377">
        <ele>83.3</ele>
        <time>2020-06-18T10:59:50Z</time>
      </trkpt>
      <trkpt lat="49.89292" lon="1.0439">
        <ele>83.1</ele>
        <time>2020-06-18T10:59:51Z</time>
      </trkpt>
      <trkpt lat="49.89293" lon="1.04402">
        <ele>82.8</ele>
        <time>2020-06-18T10:59:52Z</time>
      </trkpt>
      <trkpt lat="49.89294" lon="1.04416">
        <ele>82.5</ele>
        <time>2020-06-18T10:59:53Z</time>
      </trkpt>
      <trkpt lat="49.89295" lon="1.04429">
        <ele>82.2</ele>
        <time>2020-06-18T10:59:54Z</time>
      </trkpt>
      <trkpt lat="49.89297" lon="1.04443">
        <ele>82</ele>
        <time>2020-06-18T10:59:55Z</time>
      </trkpt>
      <trkpt lat="49.89298" lon="1.04456">
        <ele>81.8</ele>
        <time>2020-06-18T10:59:56Z</time>
      </trkpt>
      <trkpt lat="49.89299" lon="1.0447">
        <ele>81.5</ele>
        <time>2020-06-18T10:59:57Z</time>
      </trkpt>
      <trkpt lat="49.893" lon="1.04483">
        <ele>81.2</ele>
        <time>2020-06-18T10:59:58Z</time>
      </trkpt>
      <trkpt lat="49.89302" lon="1.04497">
        <ele>80.9</ele>
        <time>2020-06-18T10:59:59Z</time>
      </trkpt>
      <trkpt lat="49.89303" lon="1.0451">
        <ele>80.5</ele>
        <time>2020-06-18T11:00:00Z</time>
      </trkpt>
      <trkpt lat="49.89305" lon="1.04523">
        <ele>80.2</ele>
        <time>2020-06-18T11:00:01Z</time>
      </trkpt>
      <trkpt lat="49.89306" lon="1.04537">
        <ele>79.9</ele>
        <time>2020-06-18T11:00:02Z</time>
      </trkpt>
      <trkpt lat="49.89307" lon="1.0455">
        <ele>79.7</ele>
        <time>2020-06-18T11:00:03Z</time>
      </trkpt>
      <trkpt lat="49.89309" lon="1.04563">
        <ele>79.4</ele>
        <time>2020-06-18T11:00:04Z</time>
      </trkpt>
      <trkpt lat="49.89309" lon="1.04576">
        <ele>79.2</ele>
        <time>2020-06-18T11:00:05Z</time>
      </trkpt>
      <trkpt lat="49.8931" lon="1.0459">
        <ele>78.9</ele>
        <time>2020-06-18T11:00:06Z</time>
      </trkpt>
      <trkpt lat="49.89312" lon="1.04603">
        <ele>78.5</ele>
        <time>2020-06-18T11:00:07Z</time>
      </trkpt>
      <trkpt lat="49.89313" lon="1.04617">
        <ele>78.2</ele>
        <time>2020-06-18T11:00:08Z</time>
      </trkpt>
      <trkpt lat="49.89315" lon="1.0463">
        <ele>77.9</ele>
        <time>2020-06-18T11:00:09Z</time>
      </trkpt>
      <trkpt lat="49.89316" lon="1.04643">
        <ele>77.6</ele>
        <time>2020-06-18T11:00:10Z</time>
      </trkpt>
      <trkpt lat="49.89318" lon="1.04657">
        <ele>77.2</ele>
        <time>2020-06-18T11:00:11Z</time>
      </trkpt>
      <trkpt lat="49.89319" lon="1.04671">
        <ele>76.7</ele>
        <time>2020-06-18T11:00:12Z</time>
      </trkpt>
      <trkpt lat="49.89321" lon="1.04685">
        <ele>76.3</ele>
        <time>2020-06-18T11:00:13Z</time>
      </trkpt>
      <trkpt lat="49.89322" lon="1.04699">
        <ele>75.8</ele>
        <time>2020-06-18T11:00:14Z</time>
      </trkpt>
      <trkpt lat="49.89323" lon="1.04713">
        <ele>75.4</ele>
        <time>2020-06-18T11:00:15Z</time>
      </trkpt>
      <trkpt lat="49.89325" lon="1.04728">
        <ele>75.1</ele>
        <time>2020-06-18T11:00:16Z</time>
      </trkpt>
      <trkpt lat="49.89326" lon="1.04742">
        <ele>74.8</ele>
        <time>2020-06-18T11:00:17Z</time>
      </trkpt>
      <trkpt lat="49.89328" lon="1.04757">
        <ele>74.4</ele>
        <time>2020-06-18T11:00:18Z</time>
      </trkpt>
      <trkpt lat="49.89329" lon="1.04772">
        <ele>73.9</ele>
        <time>2020-06-18T11:00:19Z</time>
      </trkpt>
      <trkpt lat="49.8933" lon="1.04787">
        <ele>73.4</ele>
        <time>2020-06-18T11:00:20Z</time>
      </trkpt>
      <trkpt lat="49.89331" lon="1.04802">
        <ele>72.9</ele>
        <time>2020-06-18T11:00:21Z</time>
      </trkpt>
      <trkpt lat="49.89333" lon="1.04817">
        <ele>72.4</ele>
        <time>2020-06-18T11:00:22Z</time>
      </trkpt>
      <trkpt lat="49.89335" lon="1.04832">
        <ele>71.9</ele>
        <time>2020-06-18T11:00:23Z</time>
      </trkpt>
      <trkpt lat="49.89336" lon="1.04847">
        <ele>71.3</ele>
        <time>2020-06-18T11:00:24Z</time>
      </trkpt>
      <trkpt lat="49.89338" lon="1.04863">
        <ele>70.8</ele>
        <time>2020-06-18T11:00:25Z</time>
      </trkpt>
      <trkpt lat="49.89339" lon="1.04879">
        <ele>70.3</ele>
        <time>2020-06-18T11:00:26Z</time>
      </trkpt>
      <trkpt lat="49.89341" lon="1.04894">
        <ele>69.8</ele>
        <time>2020-06-18T11:00:27Z</time>
      </trkpt>
      <trkpt lat="49.89342" lon="1.0491">
        <ele>69.2</ele>
        <time>2020-06-18T11:00:28Z</time>
      </trkpt>
      <trkpt lat="49.89343" lon="1.04926">
        <ele>68.6</ele>
        <time>2020-06-18T11:00:29Z</time>
      </trkpt>
      <trkpt lat="49.89345" lon="1.04942">
        <ele>68</ele>
        <time>2020-06-18T11:00:30Z</time>
      </trkpt>
      <trkpt lat="49.89346" lon="1.04959">
        <ele>67.3</ele>
        <time>2020-06-18T11:00:31Z</time>
      </trkpt>
      <trkpt lat="49.89347" lon="1.04975">
        <ele>66.6</ele>
        <time>2020-06-18T11:00:32Z</time>
      </trkpt>
      <trkpt lat="49.89349" lon="1.04992">
        <ele>66</ele>
        <time>2020-06-18T11:00:33Z</time>
      </trkpt>
      <trkpt lat="49.89351" lon="1.05009">
        <ele>65.3</ele>
        <time>2020-06-18T11:00:34Z</time>
      </trkpt>
      <trkpt lat="49.89353" lon="1.05025">
        <ele>64.6</ele>
        <time>2020-06-18T11:00:35Z</time>
      </trkpt>
      <trkpt lat="49.89356" lon="1.05042">
        <ele>63.9</ele>
        <time>2020-06-18T11:00:36Z</time>
      </trkpt>
      <trkpt lat="49.8936" lon="1.05059">
        <ele>63.3</ele>
        <time>2020-06-18T11:00:37Z</time>
      </trkpt>
      <trkpt lat="49.89364" lon="1.05075">
        <ele>62.6</ele>
        <time>2020-06-18T11:00:38Z</time>
      </trkpt>
      <trkpt lat="49.89369" lon="1.05091">
        <ele>61.8</ele>
        <time>2020-06-18T11:00:39Z</time>
      </trkpt>
      <trkpt lat="49.89374" lon="1.05107">
        <ele>61.1</ele>
        <time>2020-06-18T11:00:40Z</time>
      </trkpt>
      <trkpt lat="49.89381" lon="1.05121">
        <ele>60.3</ele>
        <time>2020-06-18T11:00:41Z</time>
      </trkpt>
      <trkpt lat="49.89389" lon="1.05134">
        <ele>59.5</ele>
        <time>2020-06-18T11:00:42Z</time>
      </trkpt>
      <trkpt lat="49.89397" lon="1.05147">
        <ele>58.7</ele>
        <time>2020-06-18T11:00:43Z</time>
      </trkpt>
      <trkpt lat="49.89405" lon="1.0516">
        <ele>57.9</ele>
        <time>2020-06-18T11:00:44Z</time>
      </trkpt>
      <trkpt lat="49.89413" lon="1.05172">
        <ele>57.1</ele>
        <time>2020-06-18T11:00:45Z</time>
      </trkpt>
      <trkpt lat="49.89422" lon="1.05184">
        <ele>56.2</ele>
        <time>2020-06-18T11:00:46Z</time>
      </trkpt>
      <trkpt lat="49.89432" lon="1.05194">
        <ele>55.4</ele>
        <time>2020-06-18T11:00:47Z</time>
      </trkpt>
      <trkpt lat="49.89442" lon="1.05203">
        <ele>54.6</ele>
        <time>2020-06-18T11:00:48Z</time>
      </trkpt>
      <trkpt lat="49.89454" lon="1.0521">
        <ele>53.8</ele>
        <time>2020-06-18T11:00:49Z</time>
      </trkpt>
      <trkpt lat="49.89465" lon="1.05217">
        <ele>53.2</ele>
        <time>2020-06-18T11:00:50Z</time>
      </trkpt>
      <trkpt lat="49.89476" lon="1.05223">
        <ele>52.5</ele>
        <time>2020-06-18T11:00:51Z</time>
      </trkpt>
      <trkpt lat="49.89487" lon="1.05227">
        <ele>51.8</ele>
        <time>2020-06-18T11:00:52Z</time>
      </trkpt>
      <trkpt lat="49.89498" lon="1.05231">
        <ele>51.2</ele>
        <time>2020-06-18T11:00:53Z</time>
      </trkpt>
      <trkpt lat="49.89509" lon="1.05236">
        <ele>50.6</ele>
        <time>2020-06-18T11:00:54Z</time>
      </trkpt>
      <trkpt lat="49.89521" lon="1.05238">
        <ele>50</ele>
        <time>2020-06-18T11:00:55Z</time>
      </trkpt>
      <trkpt lat="49.89532" lon="1.05239">
        <ele>49.4</ele>
        <time>2020-06-18T11:00:56Z</time>
      </trkpt>
      <trkpt lat="49.89543" lon="1.05239">
        <ele>48.8</ele>
        <time>2020-06-18T11:00:57Z</time>
      </trkpt>
      <trkpt lat="49.89554" lon="1.05236">
        <ele>48</ele>
        <time>2020-06-18T11:00:58Z</time>
      </trkpt>
      <trkpt lat="49.89565" lon="1.05232">
        <ele>47.3</ele>
        <time>2020-06-18T11:00:59Z</time>
      </trkpt>
      <trkpt lat="49.89576" lon="1.05228">
        <ele>46.6</ele>
        <time>2020-06-18T11:01:00Z</time>
      </trkpt>
      <trkpt lat="49.89586" lon="1.05223">
        <ele>45.9</ele>
        <time>2020-06-18T11:01:01Z</time>
      </trkpt>
      <trkpt lat="49.89597" lon="1.05219">
        <ele>45.2</ele>
        <time>2020-06-18T11:01:02Z</time>
      </trkpt>
      <trkpt lat="49.89608" lon="1.05215">
        <ele>44.5</ele>
        <time>2020-06-18T11:01:03Z</time>
      </trkpt>
      <trkpt lat="49.89618" lon="1.0521">
        <ele>43.8</ele>
        <time>2020-06-18T11:01:04Z</time>
      </trkpt>
      <trkpt lat="49.89629" lon="1.05205">
        <ele>43.2</ele>
        <time>2020-06-18T11:01:05Z</time>
      </trkpt>
      <trkpt lat="49.89639" lon="1.05199">
        <ele>42.5</ele>
        <time>2020-06-18T11:01:06Z</time>
      </trkpt>
      <trkpt lat="49.89649" lon="1.05194">
        <ele>41.9</ele>
        <time>2020-06-18T11:01:07Z</time>
      </trkpt>
      <trkpt lat="49.8966" lon="1.0519">
        <ele>41.3</ele>
        <time>2020-06-18T11:01:08Z</time>
      </trkpt>
      <trkpt lat="49.8967" lon="1.05184">
        <ele>40.6</ele>
        <time>2020-06-18T11:01:09Z</time>
      </trkpt>
      <trkpt lat="49.8968" lon="1.0518">
        <ele>40</ele>
        <time>2020-06-18T11:01:10Z</time>
      </trkpt>
      <trkpt lat="49.8969" lon="1.05175">
        <ele>39.4</ele>
        <time>2020-06-18T11:01:11Z</time>
      </trkpt>
      <trkpt lat="49.897" lon="1.0517">
        <ele>38.7</ele>
        <time>2020-06-18T11:01:12Z</time>
      </trkpt>
      <trkpt lat="49.8971" lon="1.05166">
        <ele>38.1</ele>
        <time>2020-06-18T11:01:13Z</time>
      </trkpt>
      <trkpt lat="49.89719" lon="1.05161">
        <ele>37.4</ele>
        <time>2020-06-18T11:01:14Z</time>
      </trkpt>
      <trkpt lat="49.89729" lon="1.05156">
        <ele>36.7</ele>
        <time>2020-06-18T11:01:15Z</time>
      </trkpt>
      <trkpt lat="49.89739" lon="1.05152">
        <ele>36</ele>
        <time>2020-06-18T11:01:16Z</time>
      </trkpt>
      <trkpt lat="49.89749" lon="1.05147">
        <ele>35.4</ele>
        <time>2020-06-18T11:01:17Z</time>
      </trkpt>
      <trkpt lat="49.89759" lon="1.05143">
        <ele>34.8</ele>
        <time>2020-06-18T11:01:18Z</time>
      </trkpt>
      <trkpt lat="49.89769" lon="1.05138">
        <ele>34.2</ele>
        <time>2020-06-18T11:01:19Z</time>
      </trkpt>
      <trkpt lat="49.89778" lon="1.05132">
        <ele>33.6</ele>
        <time>2020-06-18T11:01:20Z</time>
      </trkpt>
      <trkpt lat="49.89788" lon="1.05127">
        <ele>33</ele>
        <time>2020-06-18T11:01:21Z</time>
      </trkpt>
      <trkpt lat="49.89798" lon="1.05123">
        <ele>32.4</ele>
        <time>2020-06-18T11:01:22Z</time>
      </trkpt>
      <trkpt lat="49.89808" lon="1.05119">
        <ele>31.8</ele>
        <time>2020-06-18T11:01:23Z</time>
      </trkpt>
      <trkpt lat="49.89819" lon="1.05115">
        <ele>31.2</ele>
        <time>2020-06-18T11:01:24Z</time>
      </trkpt>
      <trkpt lat="49.89829" lon="1.05111">
        <ele>30.5</ele>
        <time>2020-06-18T11:01:25Z</time>
      </trkpt>
      <trkpt lat="49.89839" lon="1.05107">
        <ele>29.9</ele>
        <time>2020-06-18T11:01:26Z</time>
      </trkpt>
      <trkpt lat="49.89849" lon="1.05105">
        <ele>29.3</ele>
        <time>2020-06-18T11:01:27Z</time>
      </trkpt>
      <trkpt lat="49.89859" lon="1.05102">
        <ele>28.6</ele>
        <time>2020-06-18T11:01:28Z</time>
      </trkpt>
      <trkpt lat="49.89869" lon="1.051">
        <ele>28</ele>
        <time>2020-06-18T11:01:29Z</time>
      </trkpt>
      <trkpt lat="49.8988" lon="1.051">
        <ele>27.4</ele>
        <time>2020-06-18T11:01:30Z</time>
      </trkpt>
      <trkpt lat="49.8989" lon="1.05099">
        <ele>26.7</ele>
        <time>2020-06-18T11:01:31Z</time>
      </trkpt>
      <trkpt lat="49.89901" lon="1.05099">
        <ele>26</ele>
        <time>2020-06-18T11:01:32Z</time>
      </trkpt>
      <trkpt lat="49.89911" lon="1.05099">
        <ele>25.4</ele>
        <time>2020-06-18T11:01:33Z</time>
      </trkpt>
      <trkpt lat="49.89922" lon="1.051">
        <ele>24.8</ele>
        <time>2020-06-18T11:01:34Z</time>
      </trkpt>
      <trkpt lat="49.89932" lon="1.05101">
        <ele>24.1</ele>
        <time>2020-06-18T11:01:35Z</time>
      </trkpt>
      <trkpt lat="49.89942" lon="1.05101">
        <ele>23.5</ele>
        <time>2020-06-18T11:01:36Z</time>
      </trkpt>
      <trkpt lat="49.89953" lon="1.05101">
        <ele>22.9</ele>
        <time>2020-06-18T11:01:37Z</time>
      </trkpt>
      <trkpt lat="49.89963" lon="1.051">
        <ele>22.2</ele>
        <time>2020-06-18T11:01:38Z</time>
      </trkpt>
      <trkpt lat="49.89974" lon="1.05101">
        <ele>21.6</ele>
        <time>2020-06-18T11:01:39Z</time>
      </trkpt>
      <trkpt lat="49.89984" lon="1.05102">
        <ele>21</ele>
        <time>2020-06-18T11:01:40Z</time>
      </trkpt>
      <trkpt lat="49.89994" lon="1.05103">
        <ele>20.4</ele>
        <time>2020-06-18T11:01:41Z</time>
      </trkpt>
      <trkpt lat="49.90004" lon="1.05104">
        <ele>19.7</ele>
        <time>2020-06-18T11:01:42Z</time>
      </trkpt>
      <trkpt lat="49.90015" lon="1.05106">
        <ele>19.2</ele>
        <time>2020-06-18T11:01:43Z</time>
      </trkpt>
      <trkpt lat="49.90025" lon="1.05107">
        <ele>18.7</ele>
        <time>2020-06-18T11:01:44Z</time>
      </trkpt>
      <trkpt lat="49.90034" lon="1.05108">
        <ele>18.1</ele>
        <time>2020-06-18T11:01:45Z</time>
      </trkpt>
      <trkpt lat="49.90044" lon="1.05109">
        <ele>17.6</ele>
        <time>2020-06-18T11:01:46Z</time>
      </trkpt>
      <trkpt lat="49.90053" lon="1.05109">
        <ele>17</ele>
        <time>2020-06-18T11:01:47Z</time>
      </trkpt>
      <trkpt lat="49.90062" lon="1.0511">
        <ele>16.5</ele>
        <time>2020-06-18T11:01:48Z</time>
      </trkpt>
      <trkpt lat="49.9007" lon="1.0511">
        <ele>15.9</ele>
        <time>2020-06-18T11:01:49Z</time>
      </trkpt>
      <trkpt lat="49.90078" lon="1.05113">
        <ele>15.4</ele>
        <time>2020-06-18T11:01:50Z</time>
      </trkpt>
      <trkpt lat="49.90086" lon="1.05115">
        <ele>14.9</ele>
        <time>2020-06-18T11:01:51Z</time>
      </trkpt>
      <trkpt lat="49.90093" lon="1.05119">
        <ele>14.4</ele>
        <time>2020-06-18T11:01:52Z</time>
      </trkpt>
      <trkpt lat="49.90099" lon="1.05125">
        <ele>14</ele>
        <time>2020-06-18T11:01:53Z</time>
      </trkpt>
      <trkpt lat="49.90105" lon="1.05133">
        <ele>13.5</ele>
        <time>2020-06-18T11:01:54Z</time>
      </trkpt>
      <trkpt lat="49.9011" lon="1.05142">
        <ele>13.1</ele>
        <time>2020-06-18T11:01:55Z</time>
      </trkpt>
      <trkpt lat="49.90116" lon="1.05151">
        <ele>12.6</ele>
        <time>2020-06-18T11:01:56Z</time>
      </trkpt>
      <trkpt lat="49.90122" lon="1.05161">
        <ele>12.2</ele>
        <time>2020-06-18T11:01:57Z</time>
      </trkpt>
      <trkpt lat="49.90127" lon="1.05171">
        <ele>11.9</ele>
        <time>2020-06-18T11:01:58Z</time>
      </trkpt>
      <trkpt lat="49.90133" lon="1.05181">
        <ele>11.6</ele>
        <time>2020-06-18T11:01:59Z</time>
      </trkpt>
      <trkpt lat="49.90141" lon="1.05188">
        <ele>11.4</ele>
        <time>2020-06-18T11:02:00Z</time>
      </trkpt>
      <trkpt lat="49.90149" lon="1.05195">
        <ele>11.1</ele>
        <time>2020-06-18T11:02:01Z</time>
      </trkpt>
      <trkpt lat="49.90157" lon="1.05203">
        <ele>10.7</ele>
        <time>2020-06-18T11:02:02Z</time>
      </trkpt>
      <trkpt lat="49.90164" lon="1.05212">
        <ele>10.3</ele>
        <time>2020-06-18T11:02:03Z</time>
      </trkpt>
      <trkpt lat="49.90171" lon="1.05221">
        <ele>9.9</ele>
        <time>2020-06-18T11:02:04Z</time>
      </trkpt>
      <trkpt lat="49.90179" lon="1.05229">
        <ele>9.6</ele>
        <time>2020-06-18T11:02:05Z</time>
      </trkpt>
      <trkpt lat="49.90185" lon="1.05238">
        <ele>9.3</ele>
        <time>2020-06-18T11:02:06Z</time>
      </trkpt>
      <trkpt lat="49.90192" lon="1.05247">
        <ele>9.1</ele>
        <time>2020-06-18T11:02:07Z</time>
      </trkpt>
      <trkpt lat="49.90197" lon="1.05255">
        <ele>8.9</ele>
        <time>2020-06-18T11:02:08Z</time>
      </trkpt>
      <trkpt lat="49.90203" lon="1.05263">
        <ele>8.7</ele>
        <time>2020-06-18T11:02:09Z</time>
      </trkpt>
      <trkpt lat="49.90208" lon="1.05272">
        <ele>8.5</ele>
        <time>2020-06-18T11:02:10Z</time>
      </trkpt>
      <trkpt lat="49.90213" lon="1.0528">
        <ele>8.4</ele>
        <time>2020-06-18T11:02:11Z</time>
      </trkpt>
      <trkpt lat="49.90219" lon="1.05288">
        <ele>8.2</ele>
        <time>2020-06-18T11:02:12Z</time>
      </trkpt>
      <trkpt lat="49.90223" lon="1.05298">
        <ele>8.1</ele>
        <time>2020-06-18T11:02:13Z</time>
      </trkpt>
      <trkpt lat="49.90228" lon="1.05304">
        <ele>7.9</ele>
        <time>2020-06-18T11:02:14Z</time>
      </trkpt>
      <trkpt lat="49.90233" lon="1.05311">
        <ele>8</ele>
        <time>2020-06-18T11:02:15Z</time>
      </trkpt>
      <trkpt lat="49.90239" lon="1.05316">
        <ele>8.1</ele>
        <time>2020-06-18T11:02:16Z</time>
      </trkpt>
      <trkpt lat="49.90245" lon="1.05322">
        <ele>8.1</ele>
        <time>2020-06-18T11:02:17Z</time>
      </trkpt>
      <trkpt lat="49.9025" lon="1.05327">
        <ele>8.2</ele>
        <time>2020-06-18T11:02:18Z</time>
      </trkpt>
      <trkpt lat="49.90256" lon="1.05333">
        <ele>8.3</ele>
        <time>2020-06-18T11:02:19Z</time>
      </trkpt>
      <trkpt lat="49.90261" lon="1.05338">
        <ele>8.4</ele>
        <time>2020-06-18T11:02:20Z</time>
      </trkpt>
      <trkpt lat="49.90267" lon="1.05344">
        <ele>8.5</ele>
        <time>2020-06-18T11:02:21Z</time>
      </trkpt>
      <trkpt lat="49.90272" lon="1.05351">
        <ele>8.6</ele>
        <time>2020-06-18T11:02:22Z</time>
      </trkpt>
      <trkpt lat="49.90277" lon="1.05357">
        <ele>8.5</ele>
        <time>2020-06-18T11:02:23Z</time>
      </trkpt>
      <trkpt lat="49.90282" lon="1.05364">
        <ele>8.5</ele>
        <time>2020-06-18T11:02:24Z</time>
      </trkpt>
      <trkpt lat="49.90287" lon="1.05371">
        <ele>8.8</ele>
        <time>2020-06-18T11:02:25Z</time>
      </trkpt>
      <trkpt lat="49.90293" lon="1.05377">
        <ele>8.9</ele>
        <time>2020-06-18T11:02:26Z</time>
      </trkpt>
      <trkpt lat="49.90297" lon="1.05383">
        <ele>9</ele>
        <time>2020-06-18T11:02:27Z</time>
      </trkpt>
      <trkpt lat="49.90302" lon="1.05389">
        <ele>9.2</ele>
        <time>2020-06-18T11:02:28Z</time>
      </trkpt>
      <trkpt lat="49.90307" lon="1.05395">
        <ele>9.3</ele>
        <time>2020-06-18T11:02:29Z</time>
      </trkpt>
      <trkpt lat="49.90312" lon="1.05401">
        <ele>9.6</ele>
        <time>2020-06-18T11:02:30Z</time>
      </trkpt>
      <trkpt lat="49.90318" lon="1.05406">
        <ele>9.8</ele>
        <time>2020-06-18T11:02:31Z</time>
      </trkpt>
      <trkpt lat="49.90322" lon="1.05412">
        <ele>10</ele>
        <time>2020-06-18T11:02:32Z</time>
      </trkpt>
      <trkpt lat="49.90326" lon="1.05419">
        <ele>10.3</ele>
        <time>2020-06-18T11:02:33Z</time>
      </trkpt>
      <trkpt lat="49.9033" lon="1.05424">
        <ele>10.5</ele>
        <time>2020-06-18T11:02:34Z</time>
      </trkpt>
      <trkpt lat="49.90334" lon="1.05429">
        <ele>10.8</ele>
        <time>2020-06-18T11:02:35Z</time>
      </trkpt>
      <trkpt lat="49.90338" lon="1.05434">
        <ele>11.1</ele>
        <time>2020-06-18T11:02:36Z</time>
      </trkpt>
      <trkpt lat="49.90342" lon="1.05439">
        <ele>11.4</ele>
        <time>2020-06-18T11:02:37Z</time>
      </trkpt>
      <trkpt lat="49.90345" lon="1.05443">
        <ele>11.7</ele>
        <time>2020-06-18T11:02:38Z</time>
      </trkpt>
      <trkpt lat="49.90349" lon="1.05448">
        <ele>11.9</ele>
        <time>2020-06-18T11:02:39Z</time>
      </trkpt>
      <trkpt lat="49.90353" lon="1.05453">
        <ele>12.3</ele>
        <time>2020-06-18T11:02:40Z</time>
      </trkpt>
      <trkpt lat="49.90356" lon="1.05459">
        <ele>12.6</ele>
        <time>2020-06-18T11:02:41Z</time>
      </trkpt>
      <trkpt lat="49.90359" lon="1.05463">
        <ele>12.9</ele>
        <time>2020-06-18T11:02:42Z</time>
      </trkpt>
      <trkpt lat="49.90362" lon="1.05466">
        <ele>13.2</ele>
        <time>2020-06-18T11:02:43Z</time>
      </trkpt>
      <trkpt lat="49.90363" lon="1.05467">
        <ele>13.3</ele>
        <time>2020-06-18T11:02:44Z</time>
      </trkpt>
      <trkpt lat="49.90366" lon="1.0547">
        <ele>13.5</ele>
        <time>2020-06-18T11:02:45Z</time>
      </trkpt>
      <trkpt lat="49.90369" lon="1.05475">
        <ele>13.8</ele>
        <time>2020-06-18T11:02:46Z</time>
      </trkpt>
      <trkpt lat="49.90371" lon="1.05477">
        <ele>14</ele>
        <time>2020-06-18T11:02:47Z</time>
      </trkpt>
      <trkpt lat="49.90374" lon="1.05481">
        <ele>14.3</ele>
        <time>2020-06-18T11:02:48Z</time>
      </trkpt>
      <trkpt lat="49.90376" lon="1.05485">
        <ele>14.5</ele>
        <time>2020-06-18T11:02:49Z</time>
      </trkpt>
      <trkpt lat="49.90379" lon="1.0549">
        <ele>14.8</ele>
        <time>2020-06-18T11:02:50Z</time>
      </trkpt>
      <trkpt lat="49.90383" lon="1.05495">
        <ele>15.2</ele>
        <time>2020-06-18T11:02:51Z</time>
      </trkpt>
      <trkpt lat="49.90385" lon="1.05497">
        <ele>15.4</ele>
        <time>2020-06-18T11:02:52Z</time>
      </trkpt>
      <trkpt lat="49.9039" lon="1.05504">
        <ele>15.8</ele>
        <time>2020-06-18T11:02:53Z</time>
      </trkpt>
      <trkpt lat="49.90393" lon="1.05508">
        <ele>16.1</ele>
        <time>2020-06-18T11:02:54Z</time>
      </trkpt>
      <trkpt lat="49.90396" lon="1.05512">
        <ele>16.4</ele>
        <time>2020-06-18T11:02:55Z</time>
      </trkpt>
      <trkpt lat="49.90399" lon="1.05515">
        <ele>16.6</ele>
        <time>2020-06-18T11:02:56Z</time>
      </trkpt>
      <trkpt lat="49.90401" lon="1.0552">
        <ele>16.9</ele>
        <time>2020-06-18T11:02:57Z</time>
      </trkpt>
      <trkpt lat="49.90403" lon="1.05523">
        <ele>17</ele>
        <time>2020-06-18T11:02:58Z</time>
      </trkpt>
      <trkpt lat="49.90405" lon="1.05526">
        <ele>17.2</ele>
        <time>2020-06-18T11:02:59Z</time>
      </trkpt>
      <trkpt lat="49.90408" lon="1.05529">
        <ele>17.4</ele>
        <time>2020-06-18T11:03:00Z</time>
      </trkpt>
      <trkpt lat="49.90411" lon="1.05533">
        <ele>17.7</ele>
        <time>2020-06-18T11:03:01Z</time>
      </trkpt>
      <trkpt lat="49.90414" lon="1.05535">
        <ele>17.9</ele>
        <time>2020-06-18T11:03:02Z</time>
      </trkpt>
      <trkpt lat="49.90415" lon="1.05536">
        <ele>18</ele>
        <time>2020-06-18T11:03:03Z</time>
      </trkpt>
      <trkpt lat="49.90418" lon="1.05539">
        <ele>18.2</ele>
        <time>2020-06-18T11:03:04Z</time>
      </trkpt>
      <trkpt lat="49.90421" lon="1.05545">
        <ele>18.5</ele>
        <time>2020-06-18T11:03:05Z</time>
      </trkpt>
      <trkpt lat="49.90424" lon="1.05548">
        <ele>18.7</ele>
        <time>2020-06-18T11:03:06Z</time>
      </trkpt>
      <trkpt lat="49.90427" lon="1.05552">
        <ele>18.9</ele>
        <time>2020-06-18T11:03:07Z</time>
      </trkpt>
      <trkpt lat="49.90429" lon="1.05555">
        <ele>19.4</ele>
        <time>2020-06-18T11:03:08Z</time>
      </trkpt>
      <trkpt lat="49.90432" lon="1.05559">
        <ele>19.8</ele>
        <time>2020-06-18T11:03:09Z</time>
      </trkpt>
      <trkpt lat="49.90434" lon="1.05562">
        <ele>20.2</ele>
        <time>2020-06-18T11:03:10Z</time>
      </trkpt>
      <trkpt lat="49.90436" lon="1.05565">
        <ele>20.6</ele>
        <time>2020-06-18T11:03:11Z</time>
      </trkpt>
      <trkpt lat="49.90438" lon="1.05567">
        <ele>20.9</ele>
        <time>2020-06-18T11:03:12Z</time>
      </trkpt>
      <trkpt lat="49.90441" lon="1.0557">
        <ele>21.2</ele>
        <time>2020-06-18T11:03:13Z</time>
      </trkpt>
      <trkpt lat="49.90443" lon="1.05572">
        <ele>21.5</ele>
        <time>2020-06-18T11:03:14Z</time>
      </trkpt>
      <trkpt lat="49.90446" lon="1.05575">
        <ele>21.9</ele>
        <time>2020-06-18T11:03:15Z</time>
      </trkpt>
      <trkpt lat="49.90448" lon="1.05578">
        <ele>22.3</ele>
        <time>2020-06-18T11:03:16Z</time>
      </trkpt>
      <trkpt lat="49.90451" lon="1.05582">
        <ele>22.7</ele>
        <time>2020-06-18T11:03:17Z</time>
      </trkpt>
      <trkpt lat="49.90453" lon="1.05585">
        <ele>22.9</ele>
        <time>2020-06-18T11:03:18Z</time>
      </trkpt>
      <trkpt lat="49.90454" lon="1.05588">
        <ele>23.2</ele>
        <time>2020-06-18T11:03:19Z</time>
      </trkpt>
      <trkpt lat="49.90456" lon="1.05591">
        <ele>23.5</ele>
        <time>2020-06-18T11:03:20Z</time>
      </trkpt>
      <trkpt lat="49.90459" lon="1.05594">
        <ele>23.9</ele>
        <time>2020-06-18T11:03:21Z</time>
      </trkpt>
      <trkpt lat="49.9046" lon="1.05594">
        <ele>24</ele>
        <time>2020-06-18T11:03:22Z</time>
      </trkpt>
      <trkpt lat="49.90463" lon="1.05598">
        <ele>24.4</ele>
        <time>2020-06-18T11:03:23Z</time>
      </trkpt>
      <trkpt lat="49.90465" lon="1.05603">
        <ele>24.8</ele>
        <time>2020-06-18T11:03:24Z</time>
      </trkpt>
      <trkpt lat="49.90468" lon="1.05606">
        <ele>25.2</ele>
        <time>2020-06-18T11:03:25Z</time>
      </trkpt>
      <trkpt lat="49.90469" lon="1.05608">
        <ele>25.3</ele>
        <time>2020-06-18T11:03:26Z</time>
      </trkpt>
      <trkpt lat="49.90471" lon="1.05612">
        <ele>23.4</ele>
        <time>2020-06-18T11:03:27Z</time>
      </trkpt>
      <trkpt lat="49.90473" lon="1.05615">
        <ele>23.6</ele>
        <time>2020-06-18T11:03:28Z</time>
      </trkpt>
      <trkpt lat="49.90475" lon="1.05618">
        <ele>23.8</ele>
        <time>2020-06-18T11:03:29Z</time>
      </trkpt>
      <trkpt lat="49.90476" lon="1.05618">
        <ele>23.9</ele>
        <time>2020-06-18T11:03:30Z</time>
      </trkpt>
      <trkpt lat="49.90477" lon="1.05621">
        <ele>24.1</ele>
        <time>2020-06-18T11:03:31Z</time>
      </trkpt>
      <trkpt lat="49.90479" lon="1.05624">
        <ele>24.2</ele>
        <time>2020-06-18T11:03:32Z</time>
      </trkpt>
      <trkpt lat="49.90481" lon="1.05627">
        <ele>24.4</ele>
        <time>2020-06-18T11:03:33Z</time>
      </trkpt>
      <trkpt lat="49.90482" lon="1.05629">
        <ele>24.5</ele>
        <time>2020-06-18T11:03:34Z</time>
      </trkpt>
      <trkpt lat="49.90484" lon="1.05632">
        <ele>24.7</ele>
        <time>2020-06-18T11:03:35Z</time>
      </trkpt>
      <trkpt lat="49.90486" lon="1.05635">
        <ele>24.9</ele>
        <time>2020-06-18T11:03:36Z</time>
      </trkpt>
      <trkpt lat="49.90489" lon="1.05638">
        <ele>25.2</ele>
        <time>2020-06-18T11:03:37Z</time>
      </trkpt>
      <trkpt lat="49.90492" lon="1.05641">
        <ele>25.4</ele>
        <time>2020-06-18T11:03:38Z</time>
      </trkpt>
      <trkpt lat="49.90494" lon="1.05644">
        <ele>25.6</ele>
        <time>2020-06-18T11:03:39Z</time>
      </trkpt>
      <trkpt lat="49.90499" lon="1.05648">
        <ele>25.9</ele>
        <time>2020-06-18T11:03:40Z</time>
      </trkpt>
      <trkpt lat="49.905" lon="1.05649">
        <ele>26.1</ele>
        <time>2020-06-18T11:03:41Z</time>
      </trkpt>
      <trkpt lat="49.90503" lon="1.05651">
        <ele>26.3</ele>
        <time>2020-06-18T11:03:42Z</time>
      </trkpt>
      <trkpt lat="49.90505" lon="1.05654">
        <ele>26.5</ele>
        <time>2020-06-18T11:03:43Z</time>
      </trkpt>
      <trkpt lat="49.90508" lon="1.05655">
        <ele>26.7</ele>
        <time>2020-06-18T11:03:44Z</time>
      </trkpt>
      <trkpt lat="49.90512" lon="1.05657">
        <ele>26.9</ele>
        <time>2020-06-18T11:03:45Z</time>
      </trkpt>
      <trkpt lat="49.90514" lon="1.05657">
        <ele>27.1</ele>
        <time>2020-06-18T11:03:46Z</time>
      </trkpt>
      <trkpt lat="49.90517" lon="1.05659">
        <ele>27.3</ele>
        <time>2020-06-18T11:03:47Z</time>
      </trkpt>
      <trkpt lat="49.90521" lon="1.05661">
        <ele>27.6</ele>
        <time>2020-06-18T11:03:48Z</time>
      </trkpt>
      <trkpt lat="49.90524" lon="1.05662">
        <ele>27.8</ele>
        <time>2020-06-18T11:03:49Z</time>
      </trkpt>
      <trkpt lat="49.90528" lon="1.05664">
        <ele>28</ele>
        <time>2020-06-18T11:03:50Z</time>
      </trkpt>
      <trkpt lat="49.90529" lon="1.05664">
        <ele>28.1</ele>
        <time>2020-06-18T11:03:51Z</time>
      </trkpt>
      <trkpt lat="49.90532" lon="1.05665">
        <ele>28.3</ele>
        <time>2020-06-18T11:03:52Z</time>
      </trkpt>
      <trkpt lat="49.90536" lon="1.05666">
        <ele>28.5</ele>
        <time>2020-06-18T11:03:53Z</time>
      </trkpt>
      <trkpt lat="49.90538" lon="1.05666">
        <ele>28.7</ele>
        <time>2020-06-18T11:03:54Z</time>
      </trkpt>
      <trkpt lat="49.90541" lon="1.05665">
        <ele>28.9</ele>
        <time>2020-06-18T11:03:55Z</time>
      </trkpt>
      <trkpt lat="49.90544" lon="1.05667">
        <ele>29.1</ele>
        <time>2020-06-18T11:03:56Z</time>
      </trkpt>
      <trkpt lat="49.90547" lon="1.05666">
        <ele>29.3</ele>
        <time>2020-06-18T11:03:57Z</time>
      </trkpt>
      <trkpt lat="49.9055" lon="1.05666">
        <ele>29.5</ele>
        <time>2020-06-18T11:03:58Z</time>
      </trkpt>
      <trkpt lat="49.90552" lon="1.05665">
        <ele>29.6</ele>
        <time>2020-06-18T11:03:59Z</time>
      </trkpt>
      <trkpt lat="49.90555" lon="1.05664">
        <ele>29.8</ele>
        <time>2020-06-18T11:04:00Z</time>
      </trkpt>
      <trkpt lat="49.90556" lon="1.05664">
        <ele>29.9</ele>
        <time>2020-06-18T11:04:01Z</time>
      </trkpt>
      <trkpt lat="49.90559" lon="1.05664">
        <ele>30.1</ele>
        <time>2020-06-18T11:04:02Z</time>
      </trkpt>
      <trkpt lat="49.9056" lon="1.05665">
        <ele>30.1</ele>
        <time>2020-06-18T11:04:03Z</time>
      </trkpt>
      <trkpt lat="49.90563" lon="1.05665">
        <ele>30.3</ele>
        <time>2020-06-18T11:04:04Z</time>
      </trkpt>
      <trkpt lat="49.90567" lon="1.05667">
        <ele>30.6</ele>
        <time>2020-06-18T11:04:05Z</time>
      </trkpt>
      <trkpt lat="49.9057" lon="1.05667">
        <ele>30.7</ele>
        <time>2020-06-18T11:04:06Z</time>
      </trkpt>
      <trkpt lat="49.90574" lon="1.05666">
        <ele>31</ele>
        <time>2020-06-18T11:04:07Z</time>
      </trkpt>
      <trkpt lat="49.90576" lon="1.05666">
        <ele>31.1</ele>
        <time>2020-06-18T11:04:08Z</time>
      </trkpt>
      <trkpt lat="49.90578" lon="1.05666">
        <ele>31.2</ele>
        <time>2020-06-18T11:04:09Z</time>
      </trkpt>
      <trkpt lat="49.90582" lon="1.05667">
        <ele>31.5</ele>
        <time>2020-06-18T11:04:10Z</time>
      </trkpt>
      <trkpt lat="49.90583" lon="1.05667">
        <ele>31.6</ele>
        <time>2020-06-18T11:04:11Z</time>
      </trkpt>
      <trkpt lat="49.90585" lon="1.05667">
        <ele>31.7</ele>
        <time>2020-06-18T11:04:12Z</time>
      </trkpt>
      <trkpt lat="49.90586" lon="1.05667">
        <ele>31.8</ele>
        <time>2020-06-18T11:04:13Z</time>
      </trkpt>
      <trkpt lat="49.90589" lon="1.05666">
        <ele>31.9</ele>
        <time>2020-06-18T11:04:14Z</time>
      </trkpt>
      <trkpt lat="49.9059" lon="1.05666">
        <ele>32</ele>
        <time>2020-06-18T11:04:15Z</time>
      </trkpt>
      <trkpt lat="49.90594" lon="1.05666">
        <ele>32.2</ele>
        <time>2020-06-18T11:04:16Z</time>
      </trkpt>
      <trkpt lat="49.90595" lon="1.05667">
        <ele>32.3</ele>
        <time>2020-06-18T11:04:17Z</time>
      </trkpt>
      <trkpt lat="49.90599" lon="1.05668">
        <ele>32.6</ele>
        <time>2020-06-18T11:04:18Z</time>
      </trkpt>
      <trkpt lat="49.90603" lon="1.05667">
        <ele>32.8</ele>
        <time>2020-06-18T11:04:19Z</time>
      </trkpt>
      <trkpt lat="49.90607" lon="1.05666">
        <ele>33</ele>
        <time>2020-06-18T11:04:20Z</time>
      </trkpt>
      <trkpt lat="49.9061" lon="1.05665">
        <ele>33.2</ele>
        <time>2020-06-18T11:04:21Z</time>
      </trkpt>
      <trkpt lat="49.90614" lon="1.05665">
        <ele>33.4</ele>
        <time>2020-06-18T11:04:22Z</time>
      </trkpt>
      <trkpt lat="49.90616" lon="1.05664">
        <ele>33.6</ele>
        <time>2020-06-18T11:04:23Z</time>
      </trkpt>
      <trkpt lat="49.90618" lon="1.05664">
        <ele>33.7</ele>
        <time>2020-06-18T11:04:24Z</time>
      </trkpt>
      <trkpt lat="49.90621" lon="1.05663">
        <ele>33.9</ele>
        <time>2020-06-18T11:04:25Z</time>
      </trkpt>
      <trkpt lat="49.90622" lon="1.05664">
        <ele>33.9</ele>
        <time>2020-06-18T11:04:26Z</time>
      </trkpt>
      <trkpt lat="49.90626" lon="1.05664">
        <ele>34.1</ele>
        <time>2020-06-18T11:04:27Z</time>
      </trkpt>
      <trkpt lat="49.90627" lon="1.05664">
        <ele>34.2</ele>
        <time>2020-06-18T11:04:28Z</time>
      </trkpt>
      <trkpt lat="49.9063" lon="1.05663">
        <ele>34.4</ele>
        <time>2020-06-18T11:04:29Z</time>
      </trkpt>
      <trkpt lat="49.90632" lon="1.05663">
        <ele>34.5</ele>
        <time>2020-06-18T11:04:30Z</time>
      </trkpt>
      <trkpt lat="49.90636" lon="1.05664">
        <ele>34.7</ele>
        <time>2020-06-18T11:04:31Z</time>
      </trkpt>
      <trkpt lat="49.90637" lon="1.05664">
        <ele>34.8</ele>
        <time>2020-06-18T11:04:32Z</time>
      </trkpt>
      <trkpt lat="49.90641" lon="1.05665">
        <ele>35</ele>
        <time>2020-06-18T11:04:33Z</time>
      </trkpt>
      <trkpt lat="49.90644" lon="1.05665">
        <ele>35.2</ele>
        <time>2020-06-18T11:04:34Z</time>
      </trkpt>
      <trkpt lat="49.90648" lon="1.05665">
        <ele>35.4</ele>
        <time>2020-06-18T11:04:35Z</time>
      </trkpt>
      <trkpt lat="49.90651" lon="1.05664">
        <ele>35.6</ele>
        <time>2020-06-18T11:04:36Z</time>
      </trkpt>
      <trkpt lat="49.90652" lon="1.05664">
        <ele>35.7</ele>
        <time>2020-06-18T11:04:37Z</time>
      </trkpt>
      <trkpt lat="49.90656" lon="1.05664">
        <ele>35.9</ele>
        <time>2020-06-18T11:04:38Z</time>
      </trkpt>
      <trkpt lat="49.90659" lon="1.05663">
        <ele>36.1</ele>
        <time>2020-06-18T11:04:39Z</time>
      </trkpt>
      <trkpt lat="49.90662" lon="1.05663">
        <ele>36.3</ele>
        <time>2020-06-18T11:04:40Z</time>
      </trkpt>
      <trkpt lat="49.90666" lon="1.05664">
        <ele>36.5</ele>
        <time>2020-06-18T11:04:41Z</time>
      </trkpt>
      <trkpt lat="49.9067" lon="1.05664">
        <ele>36.8</ele>
        <time>2020-06-18T11:04:42Z</time>
      </trkpt>
      <trkpt lat="49.90671" lon="1.05664">
        <ele>36.8</ele>
        <time>2020-06-18T11:04:43Z</time>
      </trkpt>
      <trkpt lat="49.90674" lon="1.05664">
        <ele>37</ele>
        <time>2020-06-18T11:04:44Z</time>
      </trkpt>
      <trkpt lat="49.90677" lon="1.05663">
        <ele>37.4</ele>
        <time>2020-06-18T11:04:45Z</time>
      </trkpt>
      <trkpt lat="49.90681" lon="1.05664">
        <ele>37.6</ele>
        <time>2020-06-18T11:04:46Z</time>
      </trkpt>
      <trkpt lat="49.90683" lon="1.05664">
        <ele>37.6</ele>
        <time>2020-06-18T11:04:47Z</time>
      </trkpt>
      <trkpt lat="49.90687" lon="1.05664">
        <ele>37.8</ele>
        <time>2020-06-18T11:04:48Z</time>
      </trkpt>
      <trkpt lat="49.9069" lon="1.05664">
        <ele>38</ele>
        <time>2020-06-18T11:04:49Z</time>
      </trkpt>
      <trkpt lat="49.90692" lon="1.05663">
        <ele>38.1</ele>
        <time>2020-06-18T11:04:50Z</time>
      </trkpt>
      <trkpt lat="49.90696" lon="1.05663">
        <ele>38.3</ele>
        <time>2020-06-18T11:04:51Z</time>
      </trkpt>
      <trkpt lat="49.907" lon="1.05664">
        <ele>38.5</ele>
        <time>2020-06-18T11:04:52Z</time>
      </trkpt>
      <trkpt lat="49.90704" lon="1.05663">
        <ele>38.7</ele>
        <time>2020-06-18T11:04:53Z</time>
      </trkpt>
      <trkpt lat="49.90705" lon="1.05663">
        <ele>38.7</ele>
        <time>2020-06-18T11:04:54Z</time>
      </trkpt>
      <trkpt lat="49.90708" lon="1.05663">
        <ele>38.9</ele>
        <time>2020-06-18T11:04:55Z</time>
      </trkpt>
      <trkpt lat="49.90709" lon="1.0566">
        <ele>39</ele>
        <time>2020-06-18T11:04:56Z</time>
      </trkpt>
      <trkpt lat="49.90711" lon="1.0566">
        <ele>39.1</ele>
        <time>2020-06-18T11:04:57Z</time>
      </trkpt>
      <trkpt lat="49.90714" lon="1.05658">
        <ele>39.3</ele>
        <time>2020-06-18T11:04:58Z</time>
      </trkpt>
      <trkpt lat="49.90715" lon="1.05658">
        <ele>39.3</ele>
        <time>2020-06-18T11:04:59Z</time>
      </trkpt>
      <trkpt lat="49.90719" lon="1.05657">
        <ele>39.5</ele>
        <time>2020-06-18T11:05:00Z</time>
      </trkpt>
      <trkpt lat="49.90723" lon="1.05656">
        <ele>39.8</ele>
        <time>2020-06-18T11:05:01Z</time>
      </trkpt>
      <trkpt lat="49.90725" lon="1.05656">
        <ele>39.9</ele>
        <time>2020-06-18T11:05:02Z</time>
      </trkpt>
      <trkpt lat="49.90728" lon="1.05653">
        <ele>40.1</ele>
        <time>2020-06-18T11:05:03Z</time>
      </trkpt>
      <trkpt lat="49.90729" lon="1.05653">
        <ele>40.2</ele>
        <time>2020-06-18T11:05:04Z</time>
      </trkpt>
      <trkpt lat="49.90734" lon="1.05651">
        <ele>40.4</ele>
        <time>2020-06-18T11:05:05Z</time>
      </trkpt>
      <trkpt lat="49.90736" lon="1.05651">
        <ele>40.6</ele>
        <time>2020-06-18T11:05:06Z</time>
      </trkpt>
      <trkpt lat="49.9074" lon="1.05653">
        <ele>40.8</ele>
        <time>2020-06-18T11:05:07Z</time>
      </trkpt>
      <trkpt lat="49.90743" lon="1.05654">
        <ele>40.9</ele>
        <time>2020-06-18T11:05:08Z</time>
      </trkpt>
      <trkpt lat="49.90746" lon="1.05654">
        <ele>41.1</ele>
        <time>2020-06-18T11:05:09Z</time>
      </trkpt>
      <trkpt lat="49.90747" lon="1.05654">
        <ele>41.1</ele>
        <time>2020-06-18T11:05:10Z</time>
      </trkpt>
      <trkpt lat="49.90751" lon="1.05654">
        <ele>41.3</ele>
        <time>2020-06-18T11:05:11Z</time>
      </trkpt>
      <trkpt lat="49.90753" lon="1.05653">
        <ele>41.5</ele>
        <time>2020-06-18T11:05:12Z</time>
      </trkpt>
      <trkpt lat="49.90757" lon="1.05653">
        <ele>41.6</ele>
        <time>2020-06-18T11:05:13Z</time>
      </trkpt>
      <trkpt lat="49.9076" lon="1.05653">
        <ele>41.8</ele>
        <time>2020-06-18T11:05:14Z</time>
      </trkpt>
      <trkpt lat="49.90763" lon="1.05651">
        <ele>41.9</ele>
        <time>2020-06-18T11:05:15Z</time>
      </trkpt>
      <trkpt lat="49.90764" lon="1.05651">
        <ele>42</ele>
        <time>2020-06-18T11:05:16Z</time>
      </trkpt>
      <trkpt lat="49.90766" lon="1.05651">
        <ele>42.1</ele>
        <time>2020-06-18T11:05:17Z</time>
      </trkpt>
      <trkpt lat="49.90769" lon="1.05651">
        <ele>42.2</ele>
        <time>2020-06-18T11:05:18Z</time>
      </trkpt>
      <trkpt lat="49.90772" lon="1.05652">
        <ele>42.4</ele>
        <time>2020-06-18T11:05:19Z</time>
      </trkpt>
      <trkpt lat="49.90775" lon="1.05653">
        <ele>42.5</ele>
        <time>2020-06-18T11:05:20Z</time>
      </trkpt>
      <trkpt lat="49.90779" lon="1.05654">
        <ele>42.8</ele>
        <time>2020-06-18T11:05:21Z</time>
      </trkpt>
      <trkpt lat="49.90783" lon="1.05656">
        <ele>43</ele>
        <time>2020-06-18T11:05:22Z</time>
      </trkpt>
      <trkpt lat="49.90785" lon="1.05658">
        <ele>43.1</ele>
        <time>2020-06-18T11:05:23Z</time>
      </trkpt>
      <trkpt lat="49.90789" lon="1.05658">
        <ele>43.4</ele>
        <time>2020-06-18T11:05:24Z</time>
      </trkpt>
      <trkpt lat="49.9079" lon="1.05658">
        <ele>43.4</ele>
        <time>2020-06-18T11:05:25Z</time>
      </trkpt>
      <trkpt lat="49.90794" lon="1.0566">
        <ele>43.6</ele>
        <time>2020-06-18T11:05:26Z</time>
      </trkpt>
      <trkpt lat="49.90798" lon="1.05661">
        <ele>43.8</ele>
        <time>2020-06-18T11:05:27Z</time>
      </trkpt>
      <trkpt lat="49.90801" lon="1.05662">
        <ele>44</ele>
        <time>2020-06-18T11:05:28Z</time>
      </trkpt>
      <trkpt lat="49.90804" lon="1.05662">
        <ele>44.2</ele>
        <time>2020-06-18T11:05:29Z</time>
      </trkpt>
      <trkpt lat="49.90808" lon="1.05664">
        <ele>44.4</ele>
        <time>2020-06-18T11:05:30Z</time>
      </trkpt>
      <trkpt lat="49.90809" lon="1.05665">
        <ele>44.5</ele>
        <time>2020-06-18T11:05:31Z</time>
      </trkpt>
      <trkpt lat="49.90813" lon="1.05666">
        <ele>44.6</ele>
        <time>2020-06-18T11:05:32Z</time>
      </trkpt>
      <trkpt lat="49.90814" lon="1.05667">
        <ele>44.7</ele>
        <time>2020-06-18T11:05:33Z</time>
      </trkpt>
      <trkpt lat="49.90817" lon="1.05668">
        <ele>44.9</ele>
        <time>2020-06-18T11:05:34Z</time>
      </trkpt>
      <trkpt lat="49.90821" lon="1.05669">
        <ele>45</ele>
        <time>2020-06-18T11:05:35Z</time>
      </trkpt>
      <trkpt lat="49.90825" lon="1.05673">
        <ele>45.3</ele>
        <time>2020-06-18T11:05:36Z</time>
      </trkpt>
      <trkpt lat="49.90827" lon="1.05675">
        <ele>45.4</ele>
        <time>2020-06-18T11:05:37Z</time>
      </trkpt>
      <trkpt lat="49.9083" lon="1.05678">
        <ele>45.6</ele>
        <time>2020-06-18T11:05:38Z</time>
      </trkpt>
      <trkpt lat="49.90832" lon="1.0568">
        <ele>45.8</ele>
        <time>2020-06-18T11:05:39Z</time>
      </trkpt>
      <trkpt lat="49.90835" lon="1.05683">
        <ele>45.9</ele>
        <time>2020-06-18T11:05:40Z</time>
      </trkpt>
      <trkpt lat="49.90838" lon="1.05686">
        <ele>46.1</ele>
        <time>2020-06-18T11:05:41Z</time>
      </trkpt>
      <trkpt lat="49.90839" lon="1.05686">
        <ele>46.2</ele>
        <time>2020-06-18T11:05:42Z</time>
      </trkpt>
      <trkpt lat="49.90842" lon="1.05687">
        <ele>46.3</ele>
        <time>2020-06-18T11:05:43Z</time>
      </trkpt>
      <trkpt lat="49.90843" lon="1.05688">
        <ele>46.4</ele>
        <time>2020-06-18T11:05:44Z</time>
      </trkpt>
      <trkpt lat="49.90845" lon="1.05692">
        <ele>46.6</ele>
        <time>2020-06-18T11:05:45Z</time>
      </trkpt>
      <trkpt lat="49.90846" lon="1.05692">
        <ele>46.6</ele>
        <time>2020-06-18T11:05:46Z</time>
      </trkpt>
      <trkpt lat="49.90848" lon="1.05696">
        <ele>46.8</ele>
        <time>2020-06-18T11:05:47Z</time>
      </trkpt>
      <trkpt lat="49.9085" lon="1.05698">
        <ele>47</ele>
        <time>2020-06-18T11:05:48Z</time>
      </trkpt>
      <trkpt lat="49.90851" lon="1.057">
        <ele>47.1</ele>
        <time>2020-06-18T11:05:49Z</time>
      </trkpt>
      <trkpt lat="49.90854" lon="1.05703">
        <ele>47.2</ele>
        <time>2020-06-18T11:05:50Z</time>
      </trkpt>
      <trkpt lat="49.90856" lon="1.05705">
        <ele>47.4</ele>
        <time>2020-06-18T11:05:51Z</time>
      </trkpt>
      <trkpt lat="49.90859" lon="1.05708">
        <ele>47.6</ele>
        <time>2020-06-18T11:05:52Z</time>
      </trkpt>
      <trkpt lat="49.90863" lon="1.05711">
        <ele>47.9</ele>
        <time>2020-06-18T11:05:53Z</time>
      </trkpt>
      <trkpt lat="49.90864" lon="1.05712">
        <ele>48</ele>
        <time>2020-06-18T11:05:54Z</time>
      </trkpt>
      <trkpt lat="49.90868" lon="1.05715">
        <ele>48.2</ele>
        <time>2020-06-18T11:05:55Z</time>
      </trkpt>
      <trkpt lat="49.90871" lon="1.05719">
        <ele>48.4</ele>
        <time>2020-06-18T11:05:56Z</time>
      </trkpt>
      <trkpt lat="49.90874" lon="1.05724">
        <ele>48.7</ele>
        <time>2020-06-18T11:05:57Z</time>
      </trkpt>
      <trkpt lat="49.90876" lon="1.05727">
        <ele>48.9</ele>
        <time>2020-06-18T11:05:58Z</time>
      </trkpt>
      <trkpt lat="49.90879" lon="1.05732">
        <ele>49.2</ele>
        <time>2020-06-18T11:05:59Z</time>
      </trkpt>
      <trkpt lat="49.90882" lon="1.05735">
        <ele>49.4</ele>
        <time>2020-06-18T11:06:00Z</time>
      </trkpt>
      <trkpt lat="49.90885" lon="1.05738">
        <ele>49.6</ele>
        <time>2020-06-18T11:06:01Z</time>
      </trkpt>
      <trkpt lat="49.90887" lon="1.05742">
        <ele>49.8</ele>
        <time>2020-06-18T11:06:02Z</time>
      </trkpt>
      <trkpt lat="49.90889" lon="1.05747">
        <ele>50.1</ele>
        <time>2020-06-18T11:06:03Z</time>
      </trkpt>
      <trkpt lat="49.9089" lon="1.05749">
        <ele>50.2</ele>
        <time>2020-06-18T11:06:04Z</time>
      </trkpt>
      <trkpt lat="49.90891" lon="1.05754">
        <ele>50.5</ele>
        <time>2020-06-18T11:06:05Z</time>
      </trkpt>
      <trkpt lat="49.90891" lon="1.05756">
        <ele>50.5</ele>
        <time>2020-06-18T11:06:06Z</time>
      </trkpt>
      <trkpt lat="49.90892" lon="1.05761">
        <ele>50.8</ele>
        <time>2020-06-18T11:06:07Z</time>
      </trkpt>
      <trkpt lat="49.90892" lon="1.05763">
        <ele>50.8</ele>
        <time>2020-06-18T11:06:08Z</time>
      </trkpt>
      <trkpt lat="49.90894" lon="1.05767">
        <ele>51.1</ele>
        <time>2020-06-18T11:06:09Z</time>
      </trkpt>
      <trkpt lat="49.90894" lon="1.05768">
        <ele>51.1</ele>
        <time>2020-06-18T11:06:10Z</time>
      </trkpt>
      <trkpt lat="49.90895" lon="1.05772">
        <ele>51.3</ele>
        <time>2020-06-18T11:06:11Z</time>
      </trkpt>
      <trkpt lat="49.90897" lon="1.05778">
        <ele>51.6</ele>
        <time>2020-06-18T11:06:12Z</time>
      </trkpt>
      <trkpt lat="49.90897" lon="1.0578">
        <ele>51.7</ele>
        <time>2020-06-18T11:06:13Z</time>
      </trkpt>
      <trkpt lat="49.909" lon="1.05784">
        <ele>52</ele>
        <time>2020-06-18T11:06:14Z</time>
      </trkpt>
      <trkpt lat="49.90902" lon="1.05789">
        <ele>52.2</ele>
        <time>2020-06-18T11:06:15Z</time>
      </trkpt>
      <trkpt lat="49.90902" lon="1.0579">
        <ele>52.3</ele>
        <time>2020-06-18T11:06:16Z</time>
      </trkpt>
      <trkpt lat="49.90903" lon="1.05795">
        <ele>52.5</ele>
        <time>2020-06-18T11:06:17Z</time>
      </trkpt>
      <trkpt lat="49.90904" lon="1.05801">
        <ele>52.8</ele>
        <time>2020-06-18T11:06:18Z</time>
      </trkpt>
      <trkpt lat="49.90905" lon="1.05803">
        <ele>52.9</ele>
        <time>2020-06-18T11:06:19Z</time>
      </trkpt>
      <trkpt lat="49.90906" lon="1.05807">
        <ele>53.1</ele>
        <time>2020-06-18T11:06:20Z</time>
      </trkpt>
      <trkpt lat="49.90907" lon="1.05812">
        <ele>53.3</ele>
        <time>2020-06-18T11:06:21Z</time>
      </trkpt>
      <trkpt lat="49.90907" lon="1.05814">
        <ele>53.4</ele>
        <time>2020-06-18T11:06:22Z</time>
      </trkpt>
      <trkpt lat="49.90909" lon="1.05818">
        <ele>53.6</ele>
        <time>2020-06-18T11:06:23Z</time>
      </trkpt>
      <trkpt lat="49.9091" lon="1.05823">
        <ele>53.8</ele>
        <time>2020-06-18T11:06:24Z</time>
      </trkpt>
      <trkpt lat="49.90911" lon="1.05829">
        <ele>54.1</ele>
        <time>2020-06-18T11:06:25Z</time>
      </trkpt>
      <trkpt lat="49.90911" lon="1.05831">
        <ele>54.2</ele>
        <time>2020-06-18T11:06:26Z</time>
      </trkpt>
      <trkpt lat="49.90912" lon="1.05836">
        <ele>54.4</ele>
        <time>2020-06-18T11:06:27Z</time>
      </trkpt>
      <trkpt lat="49.90913" lon="1.0584">
        <ele>54.6</ele>
        <time>2020-06-18T11:06:28Z</time>
      </trkpt>
      <trkpt lat="49.90914" lon="1.05844">
        <ele>54.8</ele>
        <time>2020-06-18T11:06:29Z</time>
      </trkpt>
      <trkpt lat="49.90916" lon="1.05851">
        <ele>55.1</ele>
        <time>2020-06-18T11:06:30Z</time>
      </trkpt>
      <trkpt lat="49.90917" lon="1.05853">
        <ele>55.2</ele>
        <time>2020-06-18T11:06:31Z</time>
      </trkpt>
      <trkpt lat="49.90919" lon="1.05858">
        <ele>55.5</ele>
        <time>2020-06-18T11:06:32Z</time>
      </trkpt>
      <trkpt lat="49.9092" lon="1.0586">
        <ele>55.6</ele>
        <time>2020-06-18T11:06:33Z</time>
      </trkpt>
      <trkpt lat="49.90921" lon="1.05864">
        <ele>55.8</ele>
        <time>2020-06-18T11:06:34Z</time>
      </trkpt>
      <trkpt lat="49.90923" lon="1.05868">
        <ele>56</ele>
        <time>2020-06-18T11:06:35Z</time>
      </trkpt>
      <trkpt lat="49.90924" lon="1.05873">
        <ele>56.2</ele>
        <time>2020-06-18T11:06:36Z</time>
      </trkpt>
      <trkpt lat="49.90926" lon="1.05878">
        <ele>56.5</ele>
        <time>2020-06-18T11:06:37Z</time>
      </trkpt>
      <trkpt lat="49.90927" lon="1.05884">
        <ele>56.7</ele>
        <time>2020-06-18T11:06:38Z</time>
      </trkpt>
      <trkpt lat="49.90928" lon="1.05889">
        <ele>56.9</ele>
        <time>2020-06-18T11:06:39Z</time>
      </trkpt>
      <trkpt lat="49.90929" lon="1.05893">
        <ele>57.1</ele>
        <time>2020-06-18T11:06:40Z</time>
      </trkpt>
      <trkpt lat="49.90929" lon="1.05899">
        <ele>57.3</ele>
        <time>2020-06-18T11:06:41Z</time>
      </trkpt>
      <trkpt lat="49.9093" lon="1.05904">
        <ele>57.6</ele>
        <time>2020-06-18T11:06:42Z</time>
      </trkpt>
      <trkpt lat="49.90932" lon="1.05909">
        <ele>57.8</ele>
        <time>2020-06-18T11:06:43Z</time>
      </trkpt>
      <trkpt lat="49.90933" lon="1.05914">
        <ele>58.1</ele>
        <time>2020-06-18T11:06:44Z</time>
      </trkpt>
      <trkpt lat="49.90935" lon="1.05918">
        <ele>58.3</ele>
        <time>2020-06-18T11:06:45Z</time>
      </trkpt>
      <trkpt lat="49.90936" lon="1.05922">
        <ele>58.5</ele>
        <time>2020-06-18T11:06:46Z</time>
      </trkpt>
      <trkpt lat="49.90937" lon="1.05926">
        <ele>58.7</ele>
        <time>2020-06-18T11:06:47Z</time>
      </trkpt>
      <trkpt lat="49.90938" lon="1.05928">
        <ele>58.8</ele>
        <time>2020-06-18T11:06:48Z</time>
      </trkpt>
      <trkpt lat="49.90939" lon="1.05933">
        <ele>59</ele>
        <time>2020-06-18T11:06:49Z</time>
      </trkpt>
      <trkpt lat="49.9094" lon="1.05934">
        <ele>59.1</ele>
        <time>2020-06-18T11:06:50Z</time>
      </trkpt>
      <trkpt lat="49.90941" lon="1.05939">
        <ele>59.4</ele>
        <time>2020-06-18T11:06:51Z</time>
      </trkpt>
      <trkpt lat="49.90941" lon="1.05944">
        <ele>59.6</ele>
        <time>2020-06-18T11:06:52Z</time>
      </trkpt>
      <trkpt lat="49.90943" lon="1.05949">
        <ele>59.8</ele>
        <time>2020-06-18T11:06:53Z</time>
      </trkpt>
      <trkpt lat="49.90944" lon="1.05954">
        <ele>60.1</ele>
        <time>2020-06-18T11:06:54Z</time>
      </trkpt>
      <trkpt lat="49.90945" lon="1.05959">
        <ele>60.3</ele>
        <time>2020-06-18T11:06:55Z</time>
      </trkpt>
      <trkpt lat="49.90946" lon="1.05964">
        <ele>60.6</ele>
        <time>2020-06-18T11:06:56Z</time>
      </trkpt>
      <trkpt lat="49.90947" lon="1.0597">
        <ele>60.8</ele>
        <time>2020-06-18T11:06:57Z</time>
      </trkpt>
      <trkpt lat="49.90948" lon="1.05974">
        <ele>61</ele>
        <time>2020-06-18T11:06:58Z</time>
      </trkpt>
      <trkpt lat="49.90949" lon="1.05979">
        <ele>61.3</ele>
        <time>2020-06-18T11:06:59Z</time>
      </trkpt>
      <trkpt lat="49.90951" lon="1.05984">
        <ele>61.5</ele>
        <time>2020-06-18T11:07:00Z</time>
      </trkpt>
      <trkpt lat="49.90953" lon="1.05988">
        <ele>61.8</ele>
        <time>2020-06-18T11:07:01Z</time>
      </trkpt>
      <trkpt lat="49.90953" lon="1.05989">
        <ele>61.8</ele>
        <time>2020-06-18T11:07:02Z</time>
      </trkpt>
      <trkpt lat="49.90955" lon="1.05995">
        <ele>62.1</ele>
        <time>2020-06-18T11:07:03Z</time>
      </trkpt>
      <trkpt lat="49.90956" lon="1.05998">
        <ele>62.3</ele>
        <time>2020-06-18T11:07:04Z</time>
      </trkpt>
      <trkpt lat="49.90958" lon="1.06004">
        <ele>62.5</ele>
        <time>2020-06-18T11:07:05Z</time>
      </trkpt>
      <trkpt lat="49.90958" lon="1.06006">
        <ele>62.6</ele>
        <time>2020-06-18T11:07:06Z</time>
      </trkpt>
      <trkpt lat="49.90959" lon="1.06011">
        <ele>62.8</ele>
        <time>2020-06-18T11:07:07Z</time>
      </trkpt>
      <trkpt lat="49.9096" lon="1.06016">
        <ele>63</ele>
        <time>2020-06-18T11:07:08Z</time>
      </trkpt>
      <trkpt lat="49.90962" lon="1.0602">
        <ele>63.2</ele>
        <time>2020-06-18T11:07:09Z</time>
      </trkpt>
      <trkpt lat="49.90962" lon="1.06024">
        <ele>63.4</ele>
        <time>2020-06-18T11:07:10Z</time>
      </trkpt>
      <trkpt lat="49.90963" lon="1.06029">
        <ele>63.6</ele>
        <time>2020-06-18T11:07:11Z</time>
      </trkpt>
      <trkpt lat="49.90964" lon="1.06034">
        <ele>63.8</ele>
        <time>2020-06-18T11:07:12Z</time>
      </trkpt>
      <trkpt lat="49.90965" lon="1.06039">
        <ele>64</ele>
        <time>2020-06-18T11:07:13Z</time>
      </trkpt>
      <trkpt lat="49.90965" lon="1.06041">
        <ele>64.1</ele>
        <time>2020-06-18T11:07:14Z</time>
      </trkpt>
      <trkpt lat="49.90965" lon="1.06046">
        <ele>64.3</ele>
        <time>2020-06-18T11:07:15Z</time>
      </trkpt>
      <trkpt lat="49.90966" lon="1.06051">
        <ele>64.5</ele>
        <time>2020-06-18T11:07:16Z</time>
      </trkpt>
      <trkpt lat="49.90964" lon="1.06055">
        <ele>64.7</ele>
        <time>2020-06-18T11:07:17Z</time>
      </trkpt>
      <trkpt lat="49.90963" lon="1.06059">
        <ele>64.9</ele>
        <time>2020-06-18T11:07:18Z</time>
      </trkpt>
      <trkpt lat="49.90963" lon="1.06064">
        <ele>65.1</ele>
        <time>2020-06-18T11:07:19Z</time>
      </trkpt>
      <trkpt lat="49.90962" lon="1.06069">
        <ele>65.3</ele>
        <time>2020-06-18T11:07:20Z</time>
      </trkpt>
      <trkpt lat="49.90962" lon="1.06076">
        <ele>65.6</ele>
        <time>2020-06-18T11:07:21Z</time>
      </trkpt>
      <trkpt lat="49.90961" lon="1.06078">
        <ele>65.7</ele>
        <time>2020-06-18T11:07:22Z</time>
      </trkpt>
      <trkpt lat="49.90961" lon="1.06083">
        <ele>65.9</ele>
        <time>2020-06-18T11:07:23Z</time>
      </trkpt>
      <trkpt lat="49.9096" lon="1.06087">
        <ele>66.1</ele>
        <time>2020-06-18T11:07:24Z</time>
      </trkpt>
      <trkpt lat="49.9096" lon="1.06092">
        <ele>66.4</ele>
        <time>2020-06-18T11:07:25Z</time>
      </trkpt>
      <trkpt lat="49.90959" lon="1.06096">
        <ele>66.6</ele>
        <time>2020-06-18T11:07:26Z</time>
      </trkpt>
      <trkpt lat="49.90957" lon="1.06101">
        <ele>66.8</ele>
        <time>2020-06-18T11:07:27Z</time>
      </trkpt>
      <trkpt lat="49.90956" lon="1.06104">
        <ele>67</ele>
        <time>2020-06-18T11:07:28Z</time>
      </trkpt>
      <trkpt lat="49.90955" lon="1.06109">
        <ele>67.2</ele>
        <time>2020-06-18T11:07:29Z</time>
      </trkpt>
      <trkpt lat="49.90954" lon="1.06114">
        <ele>67.4</ele>
        <time>2020-06-18T11:07:30Z</time>
      </trkpt>
      <trkpt lat="49.90953" lon="1.06116">
        <ele>67.5</ele>
        <time>2020-06-18T11:07:31Z</time>
      </trkpt>
      <trkpt lat="49.90953" lon="1.0612">
        <ele>67.7</ele>
        <time>2020-06-18T11:07:32Z</time>
      </trkpt>
      <trkpt lat="49.90952" lon="1.06121">
        <ele>67.8</ele>
        <time>2020-06-18T11:07:33Z</time>
      </trkpt>
      <trkpt lat="49.9095" lon="1.06126">
        <ele>68.1</ele>
        <time>2020-06-18T11:07:34Z</time>
      </trkpt>
      <trkpt lat="49.90949" lon="1.06128">
        <ele>68.2</ele>
        <time>2020-06-18T11:07:35Z</time>
      </trkpt>
      <trkpt lat="49.90947" lon="1.06133">
        <ele>68.4</ele>
        <time>2020-06-18T11:07:36Z</time>
      </trkpt>
      <trkpt lat="49.90946" lon="1.06135">
        <ele>68.5</ele>
        <time>2020-06-18T11:07:37Z</time>
      </trkpt>
      <trkpt lat="49.90944" lon="1.06139">
        <ele>68.7</ele>
        <time>2020-06-18T11:07:38Z</time>
      </trkpt>
      <trkpt lat="49.90942" lon="1.06143">
        <ele>69</ele>
        <time>2020-06-18T11:07:39Z</time>
      </trkpt>
      <trkpt lat="49.90942" lon="1.06144">
        <ele>69.1</ele>
        <time>2020-06-18T11:07:40Z</time>
      </trkpt>
      <trkpt lat="49.9094" lon="1.06148">
        <ele>69.3</ele>
        <time>2020-06-18T11:07:41Z</time>
      </trkpt>
      <trkpt lat="49.90938" lon="1.06152">
        <ele>69.6</ele>
        <time>2020-06-18T11:07:42Z</time>
      </trkpt>
      <trkpt lat="49.90937" lon="1.06153">
        <ele>69.6</ele>
        <time>2020-06-18T11:07:43Z</time>
      </trkpt>
      <trkpt lat="49.90936" lon="1.06157">
        <ele>69.9</ele>
        <time>2020-06-18T11:07:44Z</time>
      </trkpt>
      <trkpt lat="49.90935" lon="1.06158">
        <ele>69.9</ele>
        <time>2020-06-18T11:07:45Z</time>
      </trkpt>
      <trkpt lat="49.90934" lon="1.06162">
        <ele>70.1</ele>
        <time>2020-06-18T11:07:46Z</time>
      </trkpt>
      <trkpt lat="49.90932" lon="1.06166">
        <ele>70.4</ele>
        <time>2020-06-18T11:07:47Z</time>
      </trkpt>
      <trkpt lat="49.90931" lon="1.0617">
        <ele>70.6</ele>
        <time>2020-06-18T11:07:48Z</time>
      </trkpt>
      <trkpt lat="49.90928" lon="1.06175">
        <ele>70.8</ele>
        <time>2020-06-18T11:07:49Z</time>
      </trkpt>
      <trkpt lat="49.90927" lon="1.06177">
        <ele>70.9</ele>
        <time>2020-06-18T11:07:50Z</time>
      </trkpt>
      <trkpt lat="49.90925" lon="1.06179">
        <ele>71.4</ele>
        <time>2020-06-18T11:07:51Z</time>
      </trkpt>
      <trkpt lat="49.90922" lon="1.06182">
        <ele>71.6</ele>
        <time>2020-06-18T11:07:52Z</time>
      </trkpt>
      <trkpt lat="49.9092" lon="1.06186">
        <ele>71.8</ele>
        <time>2020-06-18T11:07:53Z</time>
      </trkpt>
      <trkpt lat="49.90918" lon="1.06189">
        <ele>72</ele>
        <time>2020-06-18T11:07:54Z</time>
      </trkpt>
      <trkpt lat="49.90916" lon="1.06193">
        <ele>72.2</ele>
        <time>2020-06-18T11:07:55Z</time>
      </trkpt>
      <trkpt lat="49.90914" lon="1.06197">
        <ele>72.4</ele>
        <time>2020-06-18T11:07:56Z</time>
      </trkpt>
      <trkpt lat="49.90913" lon="1.06199">
        <ele>72.5</ele>
        <time>2020-06-18T11:07:57Z</time>
      </trkpt>
      <trkpt lat="49.90911" lon="1.06203">
        <ele>72.8</ele>
        <time>2020-06-18T11:07:58Z</time>
      </trkpt>
      <trkpt lat="49.9091" lon="1.06205">
        <ele>72.8</ele>
        <time>2020-06-18T11:07:59Z</time>
      </trkpt>
      <trkpt lat="49.90908" lon="1.06209">
        <ele>73.1</ele>
        <time>2020-06-18T11:08:00Z</time>
      </trkpt>
      <trkpt lat="49.90907" lon="1.06211">
        <ele>73.2</ele>
        <time>2020-06-18T11:08:01Z</time>
      </trkpt>
      <trkpt lat="49.90905" lon="1.06214">
        <ele>73.4</ele>
        <time>2020-06-18T11:08:02Z</time>
      </trkpt>
      <trkpt lat="49.90903" lon="1.06217">
        <ele>73.6</ele>
        <time>2020-06-18T11:08:03Z</time>
      </trkpt>
      <trkpt lat="49.909" lon="1.0622">
        <ele>73.8</ele>
        <time>2020-06-18T11:08:04Z</time>
      </trkpt>
      <trkpt lat="49.90897" lon="1.06225">
        <ele>74.1</ele>
        <time>2020-06-18T11:08:05Z</time>
      </trkpt>
      <trkpt lat="49.90896" lon="1.06227">
        <ele>74.2</ele>
        <time>2020-06-18T11:08:06Z</time>
      </trkpt>
      <trkpt lat="49.90895" lon="1.06231">
        <ele>74.4</ele>
        <time>2020-06-18T11:08:07Z</time>
      </trkpt>
      <trkpt lat="49.90892" lon="1.06235">
        <ele>74.7</ele>
        <time>2020-06-18T11:08:08Z</time>
      </trkpt>
      <trkpt lat="49.90889" lon="1.06239">
        <ele>74.9</ele>
        <time>2020-06-18T11:08:09Z</time>
      </trkpt>
      <trkpt lat="49.90888" lon="1.06243">
        <ele>75.2</ele>
        <time>2020-06-18T11:08:10Z</time>
      </trkpt>
      <trkpt lat="49.90886" lon="1.06247">
        <ele>75.4</ele>
        <time>2020-06-18T11:08:11Z</time>
      </trkpt>
      <trkpt lat="49.90884" lon="1.06251">
        <ele>75.6</ele>
        <time>2020-06-18T11:08:12Z</time>
      </trkpt>
      <trkpt lat="49.90882" lon="1.06254">
        <ele>75.8</ele>
        <time>2020-06-18T11:08:13Z</time>
      </trkpt>
      <trkpt lat="49.90879" lon="1.06257">
        <ele>76</ele>
        <time>2020-06-18T11:08:14Z</time>
      </trkpt>
      <trkpt lat="49.90877" lon="1.06262">
        <ele>76.2</ele>
        <time>2020-06-18T11:08:15Z</time>
      </trkpt>
      <trkpt lat="49.90877" lon="1.06264">
        <ele>76.3</ele>
        <time>2020-06-18T11:08:16Z</time>
      </trkpt>
      <trkpt lat="49.90874" lon="1.06269">
        <ele>76.6</ele>
        <time>2020-06-18T11:08:17Z</time>
      </trkpt>
      <trkpt lat="49.90873" lon="1.0627">
        <ele>76.7</ele>
        <time>2020-06-18T11:08:18Z</time>
      </trkpt>
      <trkpt lat="49.9087" lon="1.06274">
        <ele>76.9</ele>
        <time>2020-06-18T11:08:19Z</time>
      </trkpt>
      <trkpt lat="49.9087" lon="1.06275">
        <ele>76.9</ele>
        <time>2020-06-18T11:08:20Z</time>
      </trkpt>
      <trkpt lat="49.90867" lon="1.0628">
        <ele>77.2</ele>
        <time>2020-06-18T11:08:21Z</time>
      </trkpt>
      <trkpt lat="49.90866" lon="1.06281">
        <ele>77.3</ele>
        <time>2020-06-18T11:08:22Z</time>
      </trkpt>
      <trkpt lat="49.90864" lon="1.06285">
        <ele>77.4</ele>
        <time>2020-06-18T11:08:23Z</time>
      </trkpt>
      <trkpt lat="49.90862" lon="1.06288">
        <ele>77.6</ele>
        <time>2020-06-18T11:08:24Z</time>
      </trkpt>
      <trkpt lat="49.9086" lon="1.06293">
        <ele>78</ele>
        <time>2020-06-18T11:08:25Z</time>
      </trkpt>
      <trkpt lat="49.90859" lon="1.06295">
        <ele>78.1</ele>
        <time>2020-06-18T11:08:26Z</time>
      </trkpt>
      <trkpt lat="49.90858" lon="1.06298">
        <ele>78.2</ele>
        <time>2020-06-18T11:08:27Z</time>
      </trkpt>
      <trkpt lat="49.90856" lon="1.06301">
        <ele>78.4</ele>
        <time>2020-06-18T11:08:28Z</time>
      </trkpt>
      <trkpt lat="49.90854" lon="1.06305">
        <ele>78.6</ele>
        <time>2020-06-18T11:08:29Z</time>
      </trkpt>
      <trkpt lat="49.90851" lon="1.06308">
        <ele>78.8</ele>
        <time>2020-06-18T11:08:30Z</time>
      </trkpt>
      <trkpt lat="49.9085" lon="1.06313">
        <ele>78.9</ele>
        <time>2020-06-18T11:08:31Z</time>
      </trkpt>
      <trkpt lat="49.90848" lon="1.06318">
        <ele>79.2</ele>
        <time>2020-06-18T11:08:32Z</time>
      </trkpt>
      <trkpt lat="49.90847" lon="1.0632">
        <ele>79.3</ele>
        <time>2020-06-18T11:08:33Z</time>
      </trkpt>
      <trkpt lat="49.90846" lon="1.06325">
        <ele>79.4</ele>
        <time>2020-06-18T11:08:34Z</time>
      </trkpt>
      <trkpt lat="49.90845" lon="1.06329">
        <ele>79.6</ele>
        <time>2020-06-18T11:08:35Z</time>
      </trkpt>
      <trkpt lat="49.90842" lon="1.06333">
        <ele>79.8</ele>
        <time>2020-06-18T11:08:36Z</time>
      </trkpt>
      <trkpt lat="49.90841" lon="1.06336">
        <ele>79.9</ele>
        <time>2020-06-18T11:08:37Z</time>
      </trkpt>
      <trkpt lat="49.90839" lon="1.0634">
        <ele>80.1</ele>
        <time>2020-06-18T11:08:38Z</time>
      </trkpt>
      <trkpt lat="49.90836" lon="1.06343">
        <ele>80.3</ele>
        <time>2020-06-18T11:08:39Z</time>
      </trkpt>
      <trkpt lat="49.90834" lon="1.06348">
        <ele>80.5</ele>
        <time>2020-06-18T11:08:40Z</time>
      </trkpt>
      <trkpt lat="49.90832" lon="1.06351">
        <ele>80.6</ele>
        <time>2020-06-18T11:08:41Z</time>
      </trkpt>
      <trkpt lat="49.9083" lon="1.06354">
        <ele>80.8</ele>
        <time>2020-06-18T11:08:42Z</time>
      </trkpt>
      <trkpt lat="49.90828" lon="1.06359">
        <ele>81</ele>
        <time>2020-06-18T11:08:43Z</time>
      </trkpt>
      <trkpt lat="49.90827" lon="1.06361">
        <ele>81</ele>
        <time>2020-06-18T11:08:44Z</time>
      </trkpt>
      <trkpt lat="49.90826" lon="1.06365">
        <ele>81.2</ele>
        <time>2020-06-18T11:08:45Z</time>
      </trkpt>
      <trkpt lat="49.90826" lon="1.0637">
        <ele>81.3</ele>
        <time>2020-06-18T11:08:46Z</time>
      </trkpt>
      <trkpt lat="49.90825" lon="1.06374">
        <ele>81.5</ele>
        <time>2020-06-18T11:08:47Z</time>
      </trkpt>
      <trkpt lat="49.90825" lon="1.06379">
        <ele>81.6</ele>
        <time>2020-06-18T11:08:48Z</time>
      </trkpt>
      <trkpt lat="49.90825" lon="1.06384">
        <ele>81.8</ele>
        <time>2020-06-18T11:08:49Z</time>
      </trkpt>
      <trkpt lat="49.90825" lon="1.06389">
        <ele>81.9</ele>
        <time>2020-06-18T11:08:50Z</time>
      </trkpt>
      <trkpt lat="49.90823" lon="1.06395">
        <ele>82.1</ele>
        <time>2020-06-18T11:08:51Z</time>
      </trkpt>
      <trkpt lat="49.90823" lon="1.06402">
        <ele>82.1</ele>
        <time>2020-06-18T11:08:52Z</time>
      </trkpt>
      <trkpt lat="49.90824" lon="1.06404">
        <ele>82.1</ele>
        <time>2020-06-18T11:08:53Z</time>
      </trkpt>
      <trkpt lat="49.90825" lon="1.06409">
        <ele>82.1</ele>
        <time>2020-06-18T11:08:54Z</time>
      </trkpt>
      <trkpt lat="49.90826" lon="1.06414">
        <ele>82</ele>
        <time>2020-06-18T11:08:55Z</time>
      </trkpt>
      <trkpt lat="49.90828" lon="1.06418">
        <ele>81.9</ele>
        <time>2020-06-18T11:08:56Z</time>
      </trkpt>
      <trkpt lat="49.90829" lon="1.06423">
        <ele>81.9</ele>
        <time>2020-06-18T11:08:57Z</time>
      </trkpt>
      <trkpt lat="49.90831" lon="1.06426">
        <ele>81.8</ele>
        <time>2020-06-18T11:08:58Z</time>
      </trkpt>
      <trkpt lat="49.90834" lon="1.06429">
        <ele>81.7</ele>
        <time>2020-06-18T11:08:59Z</time>
      </trkpt>
      <trkpt lat="49.90836" lon="1.06433">
        <ele>81.6</ele>
        <time>2020-06-18T11:09:00Z</time>
      </trkpt>
      <trkpt lat="49.90839" lon="1.06438">
        <ele>81.5</ele>
        <time>2020-06-18T11:09:01Z</time>
      </trkpt>
      <trkpt lat="49.90841" lon="1.06442">
        <ele>81.4</ele>
        <time>2020-06-18T11:09:02Z</time>
      </trkpt>
      <trkpt lat="49.90844" lon="1.06446">
        <ele>81.3</ele>
        <time>2020-06-18T11:09:03Z</time>
      </trkpt>
      <trkpt lat="49.90847" lon="1.06451">
        <ele>81.2</ele>
        <time>2020-06-18T11:09:04Z</time>
      </trkpt>
      <trkpt lat="49.90849" lon="1.06456">
        <ele>81.2</ele>
        <time>2020-06-18T11:09:05Z</time>
      </trkpt>
      <trkpt lat="49.90852" lon="1.06461">
        <ele>81.1</ele>
        <time>2020-06-18T11:09:06Z</time>
      </trkpt>
      <trkpt lat="49.90855" lon="1.06466">
        <ele>81</ele>
        <time>2020-06-18T11:09:07Z</time>
      </trkpt>
      <trkpt lat="49.90858" lon="1.0647">
        <ele>80.9</ele>
        <time>2020-06-18T11:09:08Z</time>
      </trkpt>
      <trkpt lat="49.90861" lon="1.06475">
        <ele>80.8</ele>
        <time>2020-06-18T11:09:09Z</time>
      </trkpt>
      <trkpt lat="49.90863" lon="1.0648">
        <ele>80.8</ele>
        <time>2020-06-18T11:09:10Z</time>
      </trkpt>
      <trkpt lat="49.90866" lon="1.06484">
        <ele>80.7</ele>
        <time>2020-06-18T11:09:11Z</time>
      </trkpt>
      <trkpt lat="49.90868" lon="1.06489">
        <ele>80.6</ele>
        <time>2020-06-18T11:09:12Z</time>
      </trkpt>
      <trkpt lat="49.90871" lon="1.06494">
        <ele>80.6</ele>
        <time>2020-06-18T11:09:13Z</time>
      </trkpt>
      <trkpt lat="49.90874" lon="1.06499">
        <ele>80.5</ele>
        <time>2020-06-18T11:09:14Z</time>
      </trkpt>
      <trkpt lat="49.90877" lon="1.06504">
        <ele>80.4</ele>
        <time>2020-06-18T11:09:15Z</time>
      </trkpt>
      <trkpt lat="49.9088" lon="1.06508">
        <ele>80.4</ele>
        <time>2020-06-18T11:09:16Z</time>
      </trkpt>
      <trkpt lat="49.90882" lon="1.06512">
        <ele>80.3</ele>
        <time>2020-06-18T11:09:17Z</time>
      </trkpt>
      <trkpt lat="49.90885" lon="1.06516">
        <ele>80.3</ele>
        <time>2020-06-18T11:09:18Z</time>
      </trkpt>
      <trkpt lat="49.90887" lon="1.06521">
        <ele>80.2</ele>
        <time>2020-06-18T11:09:19Z</time>
      </trkpt>
      <trkpt lat="49.90891" lon="1.06525">
        <ele>80.2</ele>
        <time>2020-06-18T11:09:20Z</time>
      </trkpt>
      <trkpt lat="49.90894" lon="1.0653">
        <ele>80.1</ele>
        <time>2020-06-18T11:09:21Z</time>
      </trkpt>
      <trkpt lat="49.90898" lon="1.06535">
        <ele>80</ele>
        <time>2020-06-18T11:09:22Z</time>
      </trkpt>
      <trkpt lat="49.90901" lon="1.06541">
        <ele>79.9</ele>
        <time>2020-06-18T11:09:23Z</time>
      </trkpt>
      <trkpt lat="49.90905" lon="1.06545">
        <ele>79.8</ele>
        <time>2020-06-18T11:09:24Z</time>
      </trkpt>
      <trkpt lat="49.90909" lon="1.06551">
        <ele>79.7</ele>
        <time>2020-06-18T11:09:25Z</time>
      </trkpt>
      <trkpt lat="49.90913" lon="1.06557">
        <ele>79.5</ele>
        <time>2020-06-18T11:09:26Z</time>
      </trkpt>
      <trkpt lat="49.90918" lon="1.06562">
        <ele>79.4</ele>
        <time>2020-06-18T11:09:27Z</time>
      </trkpt>
      <trkpt lat="49.90922" lon="1.06567">
        <ele>79.3</ele>
        <time>2020-06-18T11:09:28Z</time>
      </trkpt>
      <trkpt lat="49.90926" lon="1.06574">
        <ele>79.1</ele>
        <time>2020-06-18T11:09:29Z</time>
      </trkpt>
      <trkpt lat="49.90931" lon="1.06577">
        <ele>79</ele>
        <time>2020-06-18T11:09:30Z</time>
      </trkpt>
      <trkpt lat="49.90935" lon="1.06583">
        <ele>79</ele>
        <time>2020-06-18T11:09:31Z</time>
      </trkpt>
      <trkpt lat="49.90939" lon="1.06589">
        <ele>78.9</ele>
        <time>2020-06-18T11:09:32Z</time>
      </trkpt>
      <trkpt lat="49.90943" lon="1.06594">
        <ele>78.8</ele>
        <time>2020-06-18T11:09:33Z</time>
      </trkpt>
      <trkpt lat="49.90947" lon="1.066">
        <ele>78.7</ele>
        <time>2020-06-18T11:09:34Z</time>
      </trkpt>
      <trkpt lat="49.9095" lon="1.06606">
        <ele>78.6</ele>
        <time>2020-06-18T11:09:35Z</time>
      </trkpt>
      <trkpt lat="49.90954" lon="1.06611">
        <ele>78.5</ele>
        <time>2020-06-18T11:09:36Z</time>
      </trkpt>
      <trkpt lat="49.90958" lon="1.06616">
        <ele>78.4</ele>
        <time>2020-06-18T11:09:37Z</time>
      </trkpt>
      <trkpt lat="49.90962" lon="1.06621">
        <ele>78.2</ele>
        <time>2020-06-18T11:09:38Z</time>
      </trkpt>
      <trkpt lat="49.90965" lon="1.06628">
        <ele>78.1</ele>
        <time>2020-06-18T11:09:39Z</time>
      </trkpt>
      <trkpt lat="49.90968" lon="1.06635">
        <ele>78</ele>
        <time>2020-06-18T11:09:40Z</time>
      </trkpt>
      <trkpt lat="49.90972" lon="1.06641">
        <ele>77.8</ele>
        <time>2020-06-18T11:09:41Z</time>
      </trkpt>
      <trkpt lat="49.90976" lon="1.06647">
        <ele>77.7</ele>
        <time>2020-06-18T11:09:42Z</time>
      </trkpt>
      <trkpt lat="49.90979" lon="1.06653">
        <ele>77.5</ele>
        <time>2020-06-18T11:09:43Z</time>
      </trkpt>
      <trkpt lat="49.90982" lon="1.06659">
        <ele>77.4</ele>
        <time>2020-06-18T11:09:44Z</time>
      </trkpt>
      <trkpt lat="49.90986" lon="1.06665">
        <ele>77.4</ele>
        <time>2020-06-18T11:09:45Z</time>
      </trkpt>
      <trkpt lat="49.9099" lon="1.06672">
        <ele>77.3</ele>
        <time>2020-06-18T11:09:46Z</time>
      </trkpt>
      <trkpt lat="49.90994" lon="1.06678">
        <ele>77.2</ele>
        <time>2020-06-18T11:09:47Z</time>
      </trkpt>
      <trkpt lat="49.90997" lon="1.06685">
        <ele>77.1</ele>
        <time>2020-06-18T11:09:48Z</time>
      </trkpt>
      <trkpt lat="49.91001" lon="1.06691">
        <ele>77</ele>
        <time>2020-06-18T11:09:49Z</time>
      </trkpt>
      <trkpt lat="49.91004" lon="1.06697">
        <ele>76.9</ele>
        <time>2020-06-18T11:09:50Z</time>
      </trkpt>
      <trkpt lat="49.91008" lon="1.06704">
        <ele>76.8</ele>
        <time>2020-06-18T11:09:51Z</time>
      </trkpt>
      <trkpt lat="49.91012" lon="1.06711">
        <ele>76.6</ele>
        <time>2020-06-18T11:09:52Z</time>
      </trkpt>
      <trkpt lat="49.91016" lon="1.06717">
        <ele>76.5</ele>
        <time>2020-06-18T11:09:53Z</time>
      </trkpt>
      <trkpt lat="49.91019" lon="1.06722">
        <ele>76.5</ele>
        <time>2020-06-18T11:09:54Z</time>
      </trkpt>
      <trkpt lat="49.91023" lon="1.06728">
        <ele>76.4</ele>
        <time>2020-06-18T11:09:55Z</time>
      </trkpt>
      <trkpt lat="49.91027" lon="1.06733">
        <ele>76.4</ele>
        <time>2020-06-18T11:09:56Z</time>
      </trkpt>
      <trkpt lat="49.91031" lon="1.06738">
        <ele>76.4</ele>
        <time>2020-06-18T11:09:57Z</time>
      </trkpt>
      <trkpt lat="49.91035" lon="1.06743">
        <ele>76.3</ele>
        <time>2020-06-18T11:09:58Z</time>
      </trkpt>
      <trkpt lat="49.91039" lon="1.06749">
        <ele>76.2</ele>
        <time>2020-06-18T11:09:59Z</time>
      </trkpt>
      <trkpt lat="49.91043" lon="1.06755">
        <ele>76</ele>
        <time>2020-06-18T11:10:00Z</time>
      </trkpt>
      <trkpt lat="49.91048" lon="1.06761">
        <ele>75.9</ele>
        <time>2020-06-18T11:10:01Z</time>
      </trkpt>
      <trkpt lat="49.91052" lon="1.06768">
        <ele>75.8</ele>
        <time>2020-06-18T11:10:02Z</time>
      </trkpt>
      <trkpt lat="49.91056" lon="1.06774">
        <ele>75.7</ele>
        <time>2020-06-18T11:10:03Z</time>
      </trkpt>
      <trkpt lat="49.9106" lon="1.0678">
        <ele>75.6</ele>
        <time>2020-06-18T11:10:04Z</time>
      </trkpt>
      <trkpt lat="49.91064" lon="1.06786">
        <ele>75.5</ele>
        <time>2020-06-18T11:10:05Z</time>
      </trkpt>
      <trkpt lat="49.91068" lon="1.0679">
        <ele>75.4</ele>
        <time>2020-06-18T11:10:06Z</time>
      </trkpt>
      <trkpt lat="49.91071" lon="1.06796">
        <ele>75.4</ele>
        <time>2020-06-18T11:10:07Z</time>
      </trkpt>
      <trkpt lat="49.91076" lon="1.06801">
        <ele>75.3</ele>
        <time>2020-06-18T11:10:08Z</time>
      </trkpt>
      <trkpt lat="49.91081" lon="1.06807">
        <ele>75.2</ele>
        <time>2020-06-18T11:10:09Z</time>
      </trkpt>
      <trkpt lat="49.91086" lon="1.06813">
        <ele>75.1</ele>
        <time>2020-06-18T11:10:10Z</time>
      </trkpt>
      <trkpt lat="49.9109" lon="1.06818">
        <ele>75</ele>
        <time>2020-06-18T11:10:11Z</time>
      </trkpt>
      <trkpt lat="49.91094" lon="1.06823">
        <ele>74.9</ele>
        <time>2020-06-18T11:10:12Z</time>
      </trkpt>
      <trkpt lat="49.91097" lon="1.06829">
        <ele>74.8</ele>
        <time>2020-06-18T11:10:13Z</time>
      </trkpt>
      <trkpt lat="49.91101" lon="1.06835">
        <ele>74.8</ele>
        <time>2020-06-18T11:10:14Z</time>
      </trkpt>
      <trkpt lat="49.91103" lon="1.0684">
        <ele>74.7</ele>
        <time>2020-06-18T11:10:15Z</time>
      </trkpt>
      <trkpt lat="49.91107" lon="1.06846">
        <ele>74.6</ele>
        <time>2020-06-18T11:10:16Z</time>
      </trkpt>
      <trkpt lat="49.9111" lon="1.06851">
        <ele>74.6</ele>
        <time>2020-06-18T11:10:17Z</time>
      </trkpt>
      <trkpt lat="49.91113" lon="1.06855">
        <ele>74.5</ele>
        <time>2020-06-18T11:10:18Z</time>
      </trkpt>
      <trkpt lat="49.91117" lon="1.06858">
        <ele>74.4</ele>
        <time>2020-06-18T11:10:19Z</time>
      </trkpt>
      <trkpt lat="49.9112" lon="1.06861">
        <ele>74.3</ele>
        <time>2020-06-18T11:10:20Z</time>
      </trkpt>
      <trkpt lat="49.91123" lon="1.06865">
        <ele>74.2</ele>
        <time>2020-06-18T11:10:21Z</time>
      </trkpt>
      <trkpt lat="49.91127" lon="1.06868">
        <ele>74.1</ele>
        <time>2020-06-18T11:10:22Z</time>
      </trkpt>
      <trkpt lat="49.9113" lon="1.06873">
        <ele>74</ele>
        <time>2020-06-18T11:10:23Z</time>
      </trkpt>
      <trkpt lat="49.91134" lon="1.06878">
        <ele>73.9</ele>
        <time>2020-06-18T11:10:24Z</time>
      </trkpt>
      <trkpt lat="49.91136" lon="1.06883">
        <ele>73.7</ele>
        <time>2020-06-18T11:10:25Z</time>
      </trkpt>
      <trkpt lat="49.91139" lon="1.06888">
        <ele>73.6</ele>
        <time>2020-06-18T11:10:26Z</time>
      </trkpt>
      <trkpt lat="49.9114" lon="1.06895">
        <ele>73.4</ele>
        <time>2020-06-18T11:10:27Z</time>
      </trkpt>
      <trkpt lat="49.91143" lon="1.06902">
        <ele>73.3</ele>
        <time>2020-06-18T11:10:28Z</time>
      </trkpt>
      <trkpt lat="49.91145" lon="1.06907">
        <ele>73.1</ele>
        <time>2020-06-18T11:10:29Z</time>
      </trkpt>
      <trkpt lat="49.91148" lon="1.06912">
        <ele>73</ele>
        <time>2020-06-18T11:10:30Z</time>
      </trkpt>
      <trkpt lat="49.91149" lon="1.06918">
        <ele>72.9</ele>
        <time>2020-06-18T11:10:31Z</time>
      </trkpt>
      <trkpt lat="49.91152" lon="1.06924">
        <ele>72.7</ele>
        <time>2020-06-18T11:10:32Z</time>
      </trkpt>
      <trkpt lat="49.91155" lon="1.06929">
        <ele>72.6</ele>
        <time>2020-06-18T11:10:33Z</time>
      </trkpt>
      <trkpt lat="49.91157" lon="1.06932">
        <ele>72.5</ele>
        <time>2020-06-18T11:10:34Z</time>
      </trkpt>
      <trkpt lat="49.91159" lon="1.06936">
        <ele>72.4</ele>
        <time>2020-06-18T11:10:35Z</time>
      </trkpt>
      <trkpt lat="49.91162" lon="1.06942">
        <ele>72.3</ele>
        <time>2020-06-18T11:10:36Z</time>
      </trkpt>
      <trkpt lat="49.91165" lon="1.06948">
        <ele>72.1</ele>
        <time>2020-06-18T11:10:37Z</time>
      </trkpt>
      <trkpt lat="49.91168" lon="1.06954">
        <ele>71.9</ele>
        <time>2020-06-18T11:10:38Z</time>
      </trkpt>
      <trkpt lat="49.91172" lon="1.0696">
        <ele>71.8</ele>
        <time>2020-06-18T11:10:39Z</time>
      </trkpt>
      <trkpt lat="49.91175" lon="1.06967">
        <ele>71.6</ele>
        <time>2020-06-18T11:10:40Z</time>
      </trkpt>
      <trkpt lat="49.91178" lon="1.06971">
        <ele>71.5</ele>
        <time>2020-06-18T11:10:41Z</time>
      </trkpt>
      <trkpt lat="49.91182" lon="1.06976">
        <ele>71.4</ele>
        <time>2020-06-18T11:10:42Z</time>
      </trkpt>
      <trkpt lat="49.91185" lon="1.06981">
        <ele>71.2</ele>
        <time>2020-06-18T11:10:43Z</time>
      </trkpt>
      <trkpt lat="49.91188" lon="1.06985">
        <ele>71.1</ele>
        <time>2020-06-18T11:10:44Z</time>
      </trkpt>
      <trkpt lat="49.91191" lon="1.06991">
        <ele>71</ele>
        <time>2020-06-18T11:10:45Z</time>
      </trkpt>
      <trkpt lat="49.91194" lon="1.06995">
        <ele>70.9</ele>
        <time>2020-06-18T11:10:46Z</time>
      </trkpt>
      <trkpt lat="49.91197" lon="1.06998">
        <ele>70.8</ele>
        <time>2020-06-18T11:10:47Z</time>
      </trkpt>
      <trkpt lat="49.91198" lon="1.07003">
        <ele>70.7</ele>
        <time>2020-06-18T11:10:48Z</time>
      </trkpt>
      <trkpt lat="49.91199" lon="1.07005">
        <ele>70.7</ele>
        <time>2020-06-18T11:10:49Z</time>
      </trkpt>
      <trkpt lat="49.91199" lon="1.07005">
        <ele>70.7</ele>
        <time>2020-06-18T11:10:50Z</time>
      </trkpt>
      <trkpt lat="49.91199" lon="1.07006">
        <ele>70.7</ele>
        <time>2020-06-18T11:10:51Z</time>
      </trkpt>
      <trkpt lat="49.912" lon="1.07007">
        <ele>70.7</ele>
        <time>2020-06-18T11:10:52Z</time>
      </trkpt>
      <trkpt lat="49.912" lon="1.07007">
        <ele>70.7</ele>
        <time>2020-06-18T11:10:53Z</time>
      </trkpt>
      <trkpt lat="49.912" lon="1.07008">
        <ele>70.6</ele>
        <time>2020-06-18T11:10:54Z</time>
      </trkpt>
      <trkpt lat="49.91201" lon="1.07009">
        <ele>70.6</ele>
        <time>2020-06-18T11:10:55Z</time>
      </trkpt>
      <trkpt lat="49.91201" lon="1.0701">
        <ele>70.6</ele>
        <time>2020-06-18T11:10:56Z</time>
      </trkpt>
      <trkpt lat="49.91201" lon="1.0701">
        <ele>70.6</ele>
        <time>2020-06-18T11:10:57Z</time>
      </trkpt>
      <trkpt lat="49.91202" lon="1.07011">
        <ele>70.6</ele>
        <time>2020-06-18T11:10:58Z</time>
      </trkpt>
      <trkpt lat="49.91202" lon="1.07012">
        <ele>70.6</ele>
        <time>2020-06-18T11:10:59Z</time>
      </trkpt>
      <trkpt lat="49.91202" lon="1.07012">
        <ele>70.6</ele>
        <time>2020-06-18T11:11:00Z</time>
      </trkpt>
      <trkpt lat="49.91203" lon="1.07013">
        <ele>70.6</ele>
        <time>2020-06-18T11:11:01Z</time>
      </trkpt>
      <trkpt lat="49.91203" lon="1.07014">
        <ele>70.5</ele>
        <time>2020-06-18T11:15:34Z</time>
      </trkpt>
      <trkpt lat="49.91203" lon="1.07015">
        <ele>70.5</ele>
        <time>2020-06-18T11:15:35Z</time>
      </trkpt>
      <trkpt lat="49.91204" lon="1.07015">
        <ele>70.5</ele>
        <time>2020-06-18T11:15:36Z</time>
      </trkpt>
      <trkpt lat="49.91205" lon="1.07016">
        <ele>70.5</ele>
        <time>2020-06-18T11:15:37Z</time>
      </trkpt>
      <trkpt lat="49.91206" lon="1.07018">
        <ele>70.4</ele>
        <time>2020-06-18T11:15:38Z</time>
      </trkpt>
      <trkpt lat="49.91209" lon="1.07022">
        <ele>70.3</ele>
        <time>2020-06-18T11:15:39Z</time>
      </trkpt>
      <trkpt lat="49.9121" lon="1.07024">
        <ele>70.2</ele>
        <time>2020-06-18T11:15:40Z</time>
      </trkpt>
      <trkpt lat="49.91214" lon="1.07028">
        <ele>70.2</ele>
        <time>2020-06-18T11:15:41Z</time>
      </trkpt>
      <trkpt lat="49.91216" lon="1.07029">
        <ele>70.2</ele>
        <time>2020-06-18T11:15:42Z</time>
      </trkpt>
      <trkpt lat="49.9122" lon="1.07031">
        <ele>70.1</ele>
        <time>2020-06-18T11:15:43Z</time>
      </trkpt>
      <trkpt lat="49.91223" lon="1.07035">
        <ele>70.1</ele>
        <time>2020-06-18T11:15:44Z</time>
      </trkpt>
      <trkpt lat="49.91226" lon="1.07038">
        <ele>70</ele>
        <time>2020-06-18T11:15:45Z</time>
      </trkpt>
      <trkpt lat="49.91229" lon="1.07042">
        <ele>69.9</ele>
        <time>2020-06-18T11:15:46Z</time>
      </trkpt>
      <trkpt lat="49.91232" lon="1.07047">
        <ele>69.9</ele>
        <time>2020-06-18T11:15:47Z</time>
      </trkpt>
      <trkpt lat="49.91236" lon="1.07051">
        <ele>69.8</ele>
        <time>2020-06-18T11:15:48Z</time>
      </trkpt>
      <trkpt lat="49.9124" lon="1.07056">
        <ele>69.6</ele>
        <time>2020-06-18T11:15:49Z</time>
      </trkpt>
      <trkpt lat="49.91244" lon="1.07063">
        <ele>69.5</ele>
        <time>2020-06-18T11:15:50Z</time>
      </trkpt>
      <trkpt lat="49.91247" lon="1.07068">
        <ele>69.4</ele>
        <time>2020-06-18T11:15:51Z</time>
      </trkpt>
      <trkpt lat="49.9125" lon="1.07073">
        <ele>69.4</ele>
        <time>2020-06-18T11:15:52Z</time>
      </trkpt>
      <trkpt lat="49.91253" lon="1.07078">
        <ele>69.3</ele>
        <time>2020-06-18T11:15:53Z</time>
      </trkpt>
      <trkpt lat="49.91257" lon="1.07083">
        <ele>69.2</ele>
        <time>2020-06-18T11:15:54Z</time>
      </trkpt>
      <trkpt lat="49.91261" lon="1.07088">
        <ele>69.1</ele>
        <time>2020-06-18T11:15:55Z</time>
      </trkpt>
      <trkpt lat="49.91264" lon="1.07094">
        <ele>68.9</ele>
        <time>2020-06-18T11:15:56Z</time>
      </trkpt>
      <trkpt lat="49.91268" lon="1.07101">
        <ele>68.8</ele>
        <time>2020-06-18T11:15:57Z</time>
      </trkpt>
      <trkpt lat="49.91271" lon="1.07106">
        <ele>68.7</ele>
        <time>2020-06-18T11:15:58Z</time>
      </trkpt>
      <trkpt lat="49.91275" lon="1.07112">
        <ele>68.5</ele>
        <time>2020-06-18T11:15:59Z</time>
      </trkpt>
      <trkpt lat="49.91278" lon="1.07119">
        <ele>68.4</ele>
        <time>2020-06-18T11:16:00Z</time>
      </trkpt>
      <trkpt lat="49.91282" lon="1.07125">
        <ele>68.2</ele>
        <time>2020-06-18T11:16:01Z</time>
      </trkpt>
      <trkpt lat="49.91286" lon="1.07132">
        <ele>68.1</ele>
        <time>2020-06-18T11:16:02Z</time>
      </trkpt>
      <trkpt lat="49.91291" lon="1.07138">
        <ele>67.9</ele>
        <time>2020-06-18T11:16:03Z</time>
      </trkpt>
      <trkpt lat="49.91294" lon="1.07145">
        <ele>67.8</ele>
        <time>2020-06-18T11:16:04Z</time>
      </trkpt>
      <trkpt lat="49.91298" lon="1.07151">
        <ele>67.6</ele>
        <time>2020-06-18T11:16:05Z</time>
      </trkpt>
      <trkpt lat="49.91301" lon="1.07157">
        <ele>67.5</ele>
        <time>2020-06-18T11:16:06Z</time>
      </trkpt>
      <trkpt lat="49.91304" lon="1.07163">
        <ele>67.4</ele>
        <time>2020-06-18T11:16:07Z</time>
      </trkpt>
      <trkpt lat="49.91308" lon="1.07169">
        <ele>67.3</ele>
        <time>2020-06-18T11:16:08Z</time>
      </trkpt>
      <trkpt lat="49.91313" lon="1.07177">
        <ele>67.2</ele>
        <time>2020-06-18T11:16:09Z</time>
      </trkpt>
      <trkpt lat="49.91317" lon="1.07184">
        <ele>67.1</ele>
        <time>2020-06-18T11:16:10Z</time>
      </trkpt>
      <trkpt lat="49.91321" lon="1.0719">
        <ele>67</ele>
        <time>2020-06-18T11:16:11Z</time>
      </trkpt>
      <trkpt lat="49.91325" lon="1.07197">
        <ele>66.9</ele>
        <time>2020-06-18T11:16:12Z</time>
      </trkpt>
      <trkpt lat="49.91329" lon="1.07203">
        <ele>66.8</ele>
        <time>2020-06-18T11:16:13Z</time>
      </trkpt>
      <trkpt lat="49.91333" lon="1.07209">
        <ele>66.7</ele>
        <time>2020-06-18T11:16:14Z</time>
      </trkpt>
      <trkpt lat="49.91338" lon="1.07214">
        <ele>66.5</ele>
        <time>2020-06-18T11:16:15Z</time>
      </trkpt>
      <trkpt lat="49.91343" lon="1.07219">
        <ele>66.1</ele>
        <time>2020-06-18T11:16:16Z</time>
      </trkpt>
      <trkpt lat="49.91347" lon="1.07225">
        <ele>65.9</ele>
        <time>2020-06-18T11:16:17Z</time>
      </trkpt>
      <trkpt lat="49.91351" lon="1.07231">
        <ele>65.7</ele>
        <time>2020-06-18T11:16:18Z</time>
      </trkpt>
      <trkpt lat="49.91355" lon="1.07238">
        <ele>65.6</ele>
        <time>2020-06-18T11:16:19Z</time>
      </trkpt>
      <trkpt lat="49.91358" lon="1.07244">
        <ele>65.4</ele>
        <time>2020-06-18T11:16:20Z</time>
      </trkpt>
      <trkpt lat="49.91362" lon="1.0725">
        <ele>65.2</ele>
        <time>2020-06-18T11:16:21Z</time>
      </trkpt>
      <trkpt lat="49.91366" lon="1.07256">
        <ele>65</ele>
        <time>2020-06-18T11:16:22Z</time>
      </trkpt>
      <trkpt lat="49.91371" lon="1.07262">
        <ele>64.8</ele>
        <time>2020-06-18T11:16:23Z</time>
      </trkpt>
      <trkpt lat="49.91376" lon="1.07268">
        <ele>64.6</ele>
        <time>2020-06-18T11:16:24Z</time>
      </trkpt>
      <trkpt lat="49.9138" lon="1.07275">
        <ele>64.4</ele>
        <time>2020-06-18T11:16:25Z</time>
      </trkpt>
      <trkpt lat="49.91383" lon="1.07281">
        <ele>64.2</ele>
        <time>2020-06-18T11:16:26Z</time>
      </trkpt>
      <trkpt lat="49.91386" lon="1.07288">
        <ele>64</ele>
        <time>2020-06-18T11:16:27Z</time>
      </trkpt>
      <trkpt lat="49.91389" lon="1.07293">
        <ele>63.8</ele>
        <time>2020-06-18T11:16:28Z</time>
      </trkpt>
      <trkpt lat="49.91392" lon="1.07299">
        <ele>63.7</ele>
        <time>2020-06-18T11:16:29Z</time>
      </trkpt>
      <trkpt lat="49.91395" lon="1.07306">
        <ele>63.5</ele>
        <time>2020-06-18T11:16:30Z</time>
      </trkpt>
      <trkpt lat="49.91399" lon="1.07311">
        <ele>63.4</ele>
        <time>2020-06-18T11:16:31Z</time>
      </trkpt>
      <trkpt lat="49.91402" lon="1.07317">
        <ele>63.2</ele>
        <time>2020-06-18T11:16:32Z</time>
      </trkpt>
      <trkpt lat="49.91405" lon="1.07321">
        <ele>63.1</ele>
        <time>2020-06-18T11:16:33Z</time>
      </trkpt>
      <trkpt lat="49.91408" lon="1.07325">
        <ele>63</ele>
        <time>2020-06-18T11:16:34Z</time>
      </trkpt>
      <trkpt lat="49.91412" lon="1.07329">
        <ele>62.8</ele>
        <time>2020-06-18T11:16:35Z</time>
      </trkpt>
      <trkpt lat="49.91415" lon="1.07333">
        <ele>62.6</ele>
        <time>2020-06-18T11:16:36Z</time>
      </trkpt>
      <trkpt lat="49.91419" lon="1.07337">
        <ele>62.4</ele>
        <time>2020-06-18T11:16:37Z</time>
      </trkpt>
      <trkpt lat="49.91422" lon="1.07341">
        <ele>62.3</ele>
        <time>2020-06-18T11:16:38Z</time>
      </trkpt>
      <trkpt lat="49.91426" lon="1.07348">
        <ele>62</ele>
        <time>2020-06-18T11:16:39Z</time>
      </trkpt>
      <trkpt lat="49.91429" lon="1.07355">
        <ele>61.8</ele>
        <time>2020-06-18T11:16:40Z</time>
      </trkpt>
      <trkpt lat="49.91433" lon="1.07363">
        <ele>61.5</ele>
        <time>2020-06-18T11:16:41Z</time>
      </trkpt>
      <trkpt lat="49.91437" lon="1.07369">
        <ele>61.3</ele>
        <time>2020-06-18T11:16:42Z</time>
      </trkpt>
      <trkpt lat="49.9144" lon="1.07375">
        <ele>61.1</ele>
        <time>2020-06-18T11:16:43Z</time>
      </trkpt>
      <trkpt lat="49.91444" lon="1.07382">
        <ele>60.9</ele>
        <time>2020-06-18T11:16:44Z</time>
      </trkpt>
      <trkpt lat="49.91448" lon="1.07387">
        <ele>60.7</ele>
        <time>2020-06-18T11:16:45Z</time>
      </trkpt>
      <trkpt lat="49.91452" lon="1.07394">
        <ele>60.5</ele>
        <time>2020-06-18T11:16:46Z</time>
      </trkpt>
      <trkpt lat="49.91456" lon="1.074">
        <ele>60.4</ele>
        <time>2020-06-18T11:16:47Z</time>
      </trkpt>
      <trkpt lat="49.9146" lon="1.07405">
        <ele>60.2</ele>
        <time>2020-06-18T11:16:48Z</time>
      </trkpt>
      <trkpt lat="49.91464" lon="1.0741">
        <ele>60</ele>
        <time>2020-06-18T11:16:49Z</time>
      </trkpt>
      <trkpt lat="49.91468" lon="1.07416">
        <ele>59.9</ele>
        <time>2020-06-18T11:16:50Z</time>
      </trkpt>
      <trkpt lat="49.91471" lon="1.07424">
        <ele>59.7</ele>
        <time>2020-06-18T11:16:51Z</time>
      </trkpt>
      <trkpt lat="49.91475" lon="1.07429">
        <ele>59.6</ele>
        <time>2020-06-18T11:16:52Z</time>
      </trkpt>
      <trkpt lat="49.91478" lon="1.07434">
        <ele>59.4</ele>
        <time>2020-06-18T11:16:53Z</time>
      </trkpt>
      <trkpt lat="49.9148" lon="1.0744">
        <ele>59.3</ele>
        <time>2020-06-18T11:16:54Z</time>
      </trkpt>
      <trkpt lat="49.91481" lon="1.07443">
        <ele>59.2</ele>
        <time>2020-06-18T11:16:55Z</time>
      </trkpt>
      <trkpt lat="49.91484" lon="1.07447">
        <ele>59.2</ele>
        <time>2020-06-18T11:16:56Z</time>
      </trkpt>
      <trkpt lat="49.91485" lon="1.07448">
        <ele>59.1</ele>
        <time>2020-06-18T11:16:57Z</time>
      </trkpt>
      <trkpt lat="49.91487" lon="1.0745">
        <ele>59.1</ele>
        <time>2020-06-18T11:16:58Z</time>
      </trkpt>
      <trkpt lat="49.91488" lon="1.07451">
        <ele>59.1</ele>
        <time>2020-06-18T11:16:59Z</time>
      </trkpt>
      <trkpt lat="49.91489" lon="1.07451">
        <ele>59</ele>
        <time>2020-06-18T11:17:00Z</time>
      </trkpt>
      <trkpt lat="49.9149" lon="1.0745">
        <ele>59</ele>
        <time>2020-06-18T11:17:01Z</time>
      </trkpt>
      <trkpt lat="49.91491" lon="1.0745">
        <ele>59</ele>
        <time>2020-06-18T11:17:02Z</time>
      </trkpt>
      <trkpt lat="49.91491" lon="1.07449">
        <ele>59</ele>
        <time>2020-06-18T11:17:03Z</time>
      </trkpt>
      <trkpt lat="49.91491" lon="1.07449">
        <ele>59</ele>
        <time>2020-06-18T11:17:04Z</time>
      </trkpt>
      <trkpt lat="49.91491" lon="1.0745">
        <ele>59</ele>
        <time>2020-06-18T11:17:05Z</time>
      </trkpt>
      <trkpt lat="49.91491" lon="1.0745">
        <ele>59</ele>
        <time>2020-06-18T11:17:06Z</time>
      </trkpt>
      <trkpt lat="49.91491" lon="1.0745">
        <ele>59</ele>
        <time>2020-06-18T11:17:07Z</time>
      </trkpt>
      <trkpt lat="49.91491" lon="1.07451">
        <ele>59</ele>
        <time>2020-06-18T11:17:08Z</time>
      </trkpt>
      <trkpt lat="49.91492" lon="1.07452">
        <ele>59</ele>
        <time>2020-06-18T11:17:09Z</time>
      </trkpt>
      <trkpt lat="49.91492" lon="1.07453">
        <ele>58.9</ele>
        <time>2020-06-18T11:17:10Z</time>
      </trkpt>
      <trkpt lat="49.91492" lon="1.07454">
        <ele>58.9</ele>
        <time>2020-06-18T11:17:11Z</time>
      </trkpt>
      <trkpt lat="49.91493" lon="1.07459">
        <ele>58.9</ele>
        <time>2020-06-18T11:17:12Z</time>
      </trkpt>
      <trkpt lat="49.91493" lon="1.0746">
        <ele>58.8</ele>
        <time>2020-06-18T11:17:13Z</time>
      </trkpt>
      <trkpt lat="49.91494" lon="1.07466">
        <ele>58.8</ele>
        <time>2020-06-18T11:17:14Z</time>
      </trkpt>
      <trkpt lat="49.91494" lon="1.07468">
        <ele>58.7</ele>
        <time>2020-06-18T11:17:15Z</time>
      </trkpt>
      <trkpt lat="49.91496" lon="1.07472">
        <ele>58.7</ele>
        <time>2020-06-18T11:17:16Z</time>
      </trkpt>
      <trkpt lat="49.91499" lon="1.07476">
        <ele>58.6</ele>
        <time>2020-06-18T11:17:17Z</time>
      </trkpt>
      <trkpt lat="49.915" lon="1.07477">
        <ele>58.6</ele>
        <time>2020-06-18T11:17:18Z</time>
      </trkpt>
      <trkpt lat="49.91502" lon="1.0748">
        <ele>58.5</ele>
        <time>2020-06-18T11:17:19Z</time>
      </trkpt>
      <trkpt lat="49.91505" lon="1.07482">
        <ele>58.5</ele>
        <time>2020-06-18T11:17:20Z</time>
      </trkpt>
      <trkpt lat="49.91507" lon="1.07482">
        <ele>58.5</ele>
        <time>2020-06-18T11:17:21Z</time>
      </trkpt>
      <trkpt lat="49.9151" lon="1.07482">
        <ele>58.4</ele>
        <time>2020-06-18T11:17:22Z</time>
      </trkpt>
      <trkpt lat="49.91513" lon="1.0748">
        <ele>58.4</ele>
        <time>2020-06-18T11:17:23Z</time>
      </trkpt>
      <trkpt lat="49.91517" lon="1.07477">
        <ele>58.4</ele>
        <time>2020-06-18T11:17:24Z</time>
      </trkpt>
      <trkpt lat="49.91521" lon="1.07476">
        <ele>58.3</ele>
        <time>2020-06-18T11:17:25Z</time>
      </trkpt>
      <trkpt lat="49.91526" lon="1.07475">
        <ele>58.3</ele>
        <time>2020-06-18T11:17:26Z</time>
      </trkpt>
      <trkpt lat="49.91531" lon="1.07473">
        <ele>58.3</ele>
        <time>2020-06-18T11:17:27Z</time>
      </trkpt>
      <trkpt lat="49.91536" lon="1.07472">
        <ele>58.2</ele>
        <time>2020-06-18T11:17:28Z</time>
      </trkpt>
      <trkpt lat="49.91541" lon="1.0747">
        <ele>58.2</ele>
        <time>2020-06-18T11:17:29Z</time>
      </trkpt>
      <trkpt lat="49.91547" lon="1.07468">
        <ele>58.2</ele>
        <time>2020-06-18T11:17:30Z</time>
      </trkpt>
      <trkpt lat="49.91554" lon="1.07467">
        <ele>58.1</ele>
        <time>2020-06-18T11:17:31Z</time>
      </trkpt>
      <trkpt lat="49.91559" lon="1.07466">
        <ele>58.1</ele>
        <time>2020-06-18T11:17:32Z</time>
      </trkpt>
      <trkpt lat="49.91565" lon="1.07466">
        <ele>58.1</ele>
        <time>2020-06-18T11:17:33Z</time>
      </trkpt>
      <trkpt lat="49.9157" lon="1.07465">
        <ele>58</ele>
        <time>2020-06-18T11:17:34Z</time>
      </trkpt>
      <trkpt lat="49.91575" lon="1.07464">
        <ele>58</ele>
        <time>2020-06-18T11:17:35Z</time>
      </trkpt>
      <trkpt lat="49.9158" lon="1.07463">
        <ele>57.9</ele>
        <time>2020-06-18T11:17:36Z</time>
      </trkpt>
      <trkpt lat="49.91585" lon="1.0746">
        <ele>57.9</ele>
        <time>2020-06-18T11:17:37Z</time>
      </trkpt>
      <trkpt lat="49.9159" lon="1.07458">
        <ele>57.8</ele>
        <time>2020-06-18T11:17:38Z</time>
      </trkpt>
      <trkpt lat="49.91595" lon="1.07456">
        <ele>57.7</ele>
        <time>2020-06-18T11:17:39Z</time>
      </trkpt>
      <trkpt lat="49.916" lon="1.07453">
        <ele>57.6</ele>
        <time>2020-06-18T11:17:40Z</time>
      </trkpt>
      <trkpt lat="49.91605" lon="1.07451">
        <ele>57.5</ele>
        <time>2020-06-18T11:17:41Z</time>
      </trkpt>
      <trkpt lat="49.91611" lon="1.0745">
        <ele>57.5</ele>
        <time>2020-06-18T11:17:42Z</time>
      </trkpt>
      <trkpt lat="49.91617" lon="1.07449">
        <ele>57.4</ele>
        <time>2020-06-18T11:17:43Z</time>
      </trkpt>
      <trkpt lat="49.91623" lon="1.07447">
        <ele>57.3</ele>
        <time>2020-06-18T11:17:44Z</time>
      </trkpt>
      <trkpt lat="49.91628" lon="1.07446">
        <ele>57.2</ele>
        <time>2020-06-18T11:17:45Z</time>
      </trkpt>
      <trkpt lat="49.91633" lon="1.07445">
        <ele>57.1</ele>
        <time>2020-06-18T11:17:46Z</time>
      </trkpt>
      <trkpt lat="49.91637" lon="1.07443">
        <ele>57</ele>
        <time>2020-06-18T11:17:47Z</time>
      </trkpt>
      <trkpt lat="49.91642" lon="1.07441">
        <ele>56.9</ele>
        <time>2020-06-18T11:17:48Z</time>
      </trkpt>
      <trkpt lat="49.91647" lon="1.07442">
        <ele>56.8</ele>
        <time>2020-06-18T11:17:49Z</time>
      </trkpt>
      <trkpt lat="49.91651" lon="1.07439">
        <ele>56.7</ele>
        <time>2020-06-18T11:17:50Z</time>
      </trkpt>
      <trkpt lat="49.91656" lon="1.07434">
        <ele>56.5</ele>
        <time>2020-06-18T11:17:51Z</time>
      </trkpt>
      <trkpt lat="49.91661" lon="1.07433">
        <ele>56.1</ele>
        <time>2020-06-18T11:17:52Z</time>
      </trkpt>
      <trkpt lat="49.91667" lon="1.07433">
        <ele>55.7</ele>
        <time>2020-06-18T11:17:53Z</time>
      </trkpt>
      <trkpt lat="49.91673" lon="1.07432">
        <ele>55.3</ele>
        <time>2020-06-18T11:17:54Z</time>
      </trkpt>
      <trkpt lat="49.91679" lon="1.07431">
        <ele>54.9</ele>
        <time>2020-06-18T11:17:55Z</time>
      </trkpt>
      <trkpt lat="49.91685" lon="1.0743">
        <ele>54.4</ele>
        <time>2020-06-18T11:17:56Z</time>
      </trkpt>
      <trkpt lat="49.91691" lon="1.07429">
        <ele>54</ele>
        <time>2020-06-18T11:17:57Z</time>
      </trkpt>
      <trkpt lat="49.91699" lon="1.07428">
        <ele>53.4</ele>
        <time>2020-06-18T11:17:58Z</time>
      </trkpt>
      <trkpt lat="49.91707" lon="1.07426">
        <ele>52.8</ele>
        <time>2020-06-18T11:17:59Z</time>
      </trkpt>
      <trkpt lat="49.91714" lon="1.07425">
        <ele>52.3</ele>
        <time>2020-06-18T11:18:00Z</time>
      </trkpt>
      <trkpt lat="49.91721" lon="1.07423">
        <ele>51.7</ele>
        <time>2020-06-18T11:18:01Z</time>
      </trkpt>
      <trkpt lat="49.91729" lon="1.07422">
        <ele>51</ele>
        <time>2020-06-18T11:18:02Z</time>
      </trkpt>
      <trkpt lat="49.91736" lon="1.07421">
        <ele>50.4</ele>
        <time>2020-06-18T11:18:03Z</time>
      </trkpt>
      <trkpt lat="49.91743" lon="1.07421">
        <ele>49.8</ele>
        <time>2020-06-18T11:18:04Z</time>
      </trkpt>
      <trkpt lat="49.9175" lon="1.07421">
        <ele>49.2</ele>
        <time>2020-06-18T11:18:05Z</time>
      </trkpt>
      <trkpt lat="49.91757" lon="1.07419">
        <ele>48.6</ele>
        <time>2020-06-18T11:18:06Z</time>
      </trkpt>
      <trkpt lat="49.91762" lon="1.0742">
        <ele>48.2</ele>
        <time>2020-06-18T11:18:07Z</time>
      </trkpt>
      <trkpt lat="49.91767" lon="1.0742">
        <ele>47.8</ele>
        <time>2020-06-18T11:18:08Z</time>
      </trkpt>
      <trkpt lat="49.9177" lon="1.0742">
        <ele>47.6</ele>
        <time>2020-06-18T11:18:09Z</time>
      </trkpt>
      <trkpt lat="49.91774" lon="1.07419">
        <ele>47.3</ele>
        <time>2020-06-18T11:18:10Z</time>
      </trkpt>
      <trkpt lat="49.91779" lon="1.07418">
        <ele>47.2</ele>
        <time>2020-06-18T11:18:11Z</time>
      </trkpt>
      <trkpt lat="49.91784" lon="1.07417">
        <ele>46.9</ele>
        <time>2020-06-18T11:18:12Z</time>
      </trkpt>
      <trkpt lat="49.91789" lon="1.07415">
        <ele>46.7</ele>
        <time>2020-06-18T11:18:13Z</time>
      </trkpt>
      <trkpt lat="49.91795" lon="1.07414">
        <ele>46.5</ele>
        <time>2020-06-18T11:18:14Z</time>
      </trkpt>
      <trkpt lat="49.91801" lon="1.07414">
        <ele>45.6</ele>
        <time>2020-06-18T11:18:15Z</time>
      </trkpt>
      <trkpt lat="49.91807" lon="1.07414">
        <ele>45.1</ele>
        <time>2020-06-18T11:18:16Z</time>
      </trkpt>
      <trkpt lat="49.91811" lon="1.07414">
        <ele>44.7</ele>
        <time>2020-06-18T11:18:17Z</time>
      </trkpt>
      <trkpt lat="49.91815" lon="1.07413">
        <ele>44.3</ele>
        <time>2020-06-18T11:18:18Z</time>
      </trkpt>
      <trkpt lat="49.91821" lon="1.07411">
        <ele>43.8</ele>
        <time>2020-06-18T11:18:19Z</time>
      </trkpt>
      <trkpt lat="49.91828" lon="1.07408">
        <ele>43.2</ele>
        <time>2020-06-18T11:18:20Z</time>
      </trkpt>
      <trkpt lat="49.91835" lon="1.07406">
        <ele>42.6</ele>
        <time>2020-06-18T11:18:21Z</time>
      </trkpt>
      <trkpt lat="49.91842" lon="1.07404">
        <ele>41.4</ele>
        <time>2020-06-18T11:18:22Z</time>
      </trkpt>
      <trkpt lat="49.91848" lon="1.07401">
        <ele>41</ele>
        <time>2020-06-18T11:18:23Z</time>
      </trkpt>
      <trkpt lat="49.91855" lon="1.074">
        <ele>40.6</ele>
        <time>2020-06-18T11:18:24Z</time>
      </trkpt>
      <trkpt lat="49.91863" lon="1.07399">
        <ele>40</ele>
        <time>2020-06-18T11:18:25Z</time>
      </trkpt>
      <trkpt lat="49.91873" lon="1.07398">
        <ele>39.4</ele>
        <time>2020-06-18T11:18:26Z</time>
      </trkpt>
      <trkpt lat="49.91882" lon="1.07395">
        <ele>38.8</ele>
        <time>2020-06-18T11:18:27Z</time>
      </trkpt>
      <trkpt lat="49.91891" lon="1.07393">
        <ele>38.2</ele>
        <time>2020-06-18T11:18:28Z</time>
      </trkpt>
      <trkpt lat="49.91901" lon="1.07391">
        <ele>37.6</ele>
        <time>2020-06-18T11:18:29Z</time>
      </trkpt>
      <trkpt lat="49.9191" lon="1.07389">
        <ele>37</ele>
        <time>2020-06-18T11:18:30Z</time>
      </trkpt>
      <trkpt lat="49.91918" lon="1.07386">
        <ele>36.4</ele>
        <time>2020-06-18T11:18:31Z</time>
      </trkpt>
      <trkpt lat="49.91927" lon="1.07384">
        <ele>35.2</ele>
        <time>2020-06-18T11:18:32Z</time>
      </trkpt>
      <trkpt lat="49.91937" lon="1.07382">
        <ele>34.5</ele>
        <time>2020-06-18T11:18:33Z</time>
      </trkpt>
      <trkpt lat="49.91946" lon="1.07379">
        <ele>33.7</ele>
        <time>2020-06-18T11:18:34Z</time>
      </trkpt>
      <trkpt lat="49.91955" lon="1.07377">
        <ele>33</ele>
        <time>2020-06-18T11:18:35Z</time>
      </trkpt>
      <trkpt lat="49.91965" lon="1.07374">
        <ele>32.2</ele>
        <time>2020-06-18T11:18:36Z</time>
      </trkpt>
      <trkpt lat="49.91975" lon="1.07371">
        <ele>31.4</ele>
        <time>2020-06-18T11:18:37Z</time>
      </trkpt>
      <trkpt lat="49.91983" lon="1.07369">
        <ele>30.7</ele>
        <time>2020-06-18T11:18:38Z</time>
      </trkpt>
      <trkpt lat="49.91991" lon="1.07367">
        <ele>30.2</ele>
        <time>2020-06-18T11:18:39Z</time>
      </trkpt>
      <trkpt lat="49.92" lon="1.07367">
        <ele>29.6</ele>
        <time>2020-06-18T11:18:40Z</time>
      </trkpt>
      <trkpt lat="49.92009" lon="1.07366">
        <ele>28.9</ele>
        <time>2020-06-18T11:18:41Z</time>
      </trkpt>
      <trkpt lat="49.92019" lon="1.07365">
        <ele>28.2</ele>
        <time>2020-06-18T11:18:42Z</time>
      </trkpt>
      <trkpt lat="49.92028" lon="1.07365">
        <ele>27.5</ele>
        <time>2020-06-18T11:18:43Z</time>
      </trkpt>
      <trkpt lat="49.92037" lon="1.07364">
        <ele>26.9</ele>
        <time>2020-06-18T11:18:44Z</time>
      </trkpt>
      <trkpt lat="49.92045" lon="1.07363">
        <ele>26.3</ele>
        <time>2020-06-18T11:18:45Z</time>
      </trkpt>
      <trkpt lat="49.92054" lon="1.0736">
        <ele>25.7</ele>
        <time>2020-06-18T11:18:46Z</time>
      </trkpt>
      <trkpt lat="49.92062" lon="1.0736">
        <ele>25.1</ele>
        <time>2020-06-18T11:18:47Z</time>
      </trkpt>
      <trkpt lat="49.9207" lon="1.07359">
        <ele>24.5</ele>
        <time>2020-06-18T11:18:48Z</time>
      </trkpt>
      <trkpt lat="49.92078" lon="1.07359">
        <ele>23.9</ele>
        <time>2020-06-18T11:18:49Z</time>
      </trkpt>
      <trkpt lat="49.92086" lon="1.07358">
        <ele>23.3</ele>
        <time>2020-06-18T11:18:50Z</time>
      </trkpt>
      <trkpt lat="49.92094" lon="1.07359">
        <ele>22.6</ele>
        <time>2020-06-18T11:18:51Z</time>
      </trkpt>
      <trkpt lat="49.92102" lon="1.07359">
        <ele>21.9</ele>
        <time>2020-06-18T11:18:52Z</time>
      </trkpt>
      <trkpt lat="49.9211" lon="1.07359">
        <ele>21.2</ele>
        <time>2020-06-18T11:18:53Z</time>
      </trkpt>
      <trkpt lat="49.92118" lon="1.07358">
        <ele>20.6</ele>
        <time>2020-06-18T11:18:54Z</time>
      </trkpt>
      <trkpt lat="49.92125" lon="1.07358">
        <ele>20.2</ele>
        <time>2020-06-18T11:18:55Z</time>
      </trkpt>
      <trkpt lat="49.92132" lon="1.07353">
        <ele>19.7</ele>
        <time>2020-06-18T11:18:56Z</time>
      </trkpt>
      <trkpt lat="49.92139" lon="1.07353">
        <ele>19.1</ele>
        <time>2020-06-18T11:18:57Z</time>
      </trkpt>
      <trkpt lat="49.92147" lon="1.07353">
        <ele>18.5</ele>
        <time>2020-06-18T11:18:58Z</time>
      </trkpt>
      <trkpt lat="49.92154" lon="1.07352">
        <ele>18</ele>
        <time>2020-06-18T11:18:59Z</time>
      </trkpt>
      <trkpt lat="49.92161" lon="1.07349">
        <ele>17.5</ele>
        <time>2020-06-18T11:19:00Z</time>
      </trkpt>
      <trkpt lat="49.92168" lon="1.07346">
        <ele>17.1</ele>
        <time>2020-06-18T11:19:01Z</time>
      </trkpt>
      <trkpt lat="49.92174" lon="1.07343">
        <ele>16.6</ele>
        <time>2020-06-18T11:19:02Z</time>
      </trkpt>
      <trkpt lat="49.92181" lon="1.07339">
        <ele>16.2</ele>
        <time>2020-06-18T11:19:03Z</time>
      </trkpt>
      <trkpt lat="49.92187" lon="1.07337">
        <ele>15.8</ele>
        <time>2020-06-18T11:19:04Z</time>
      </trkpt>
      <trkpt lat="49.92193" lon="1.07335">
        <ele>15.4</ele>
        <time>2020-06-18T11:19:05Z</time>
      </trkpt>
      <trkpt lat="49.922" lon="1.07335">
        <ele>15</ele>
        <time>2020-06-18T11:19:06Z</time>
      </trkpt>
      <trkpt lat="49.92206" lon="1.07332">
        <ele>14.7</ele>
        <time>2020-06-18T11:19:07Z</time>
      </trkpt>
      <trkpt lat="49.92212" lon="1.07331">
        <ele>14.3</ele>
        <time>2020-06-18T11:19:08Z</time>
      </trkpt>
      <trkpt lat="49.92217" lon="1.0733">
        <ele>14.1</ele>
        <time>2020-06-18T11:19:09Z</time>
      </trkpt>
      <trkpt lat="49.92223" lon="1.0733">
        <ele>13.8</ele>
        <time>2020-06-18T11:19:10Z</time>
      </trkpt>
      <trkpt lat="49.92228" lon="1.07329">
        <ele>13.5</ele>
        <time>2020-06-18T11:19:11Z</time>
      </trkpt>
      <trkpt lat="49.92232" lon="1.07328">
        <ele>13.2</ele>
        <time>2020-06-18T11:19:12Z</time>
      </trkpt>
      <trkpt lat="49.92236" lon="1.07329">
        <ele>13.1</ele>
        <time>2020-06-18T11:19:13Z</time>
      </trkpt>
      <trkpt lat="49.92241" lon="1.0733">
        <ele>13</ele>
        <time>2020-06-18T11:19:14Z</time>
      </trkpt>
      <trkpt lat="49.92244" lon="1.07328">
        <ele>13</ele>
        <time>2020-06-18T11:19:15Z</time>
      </trkpt>
      <trkpt lat="49.92248" lon="1.07327">
        <ele>13</ele>
        <time>2020-06-18T11:19:16Z</time>
      </trkpt>
      <trkpt lat="49.92252" lon="1.07326">
        <ele>12.9</ele>
        <time>2020-06-18T11:19:17Z</time>
      </trkpt>
      <trkpt lat="49.92255" lon="1.07323">
        <ele>12.9</ele>
        <time>2020-06-18T11:19:18Z</time>
      </trkpt>
      <trkpt lat="49.92258" lon="1.07322">
        <ele>12.9</ele>
        <time>2020-06-18T11:19:19Z</time>
      </trkpt>
      <trkpt lat="49.92262" lon="1.0732">
        <ele>12.8</ele>
        <time>2020-06-18T11:19:20Z</time>
      </trkpt>
      <trkpt lat="49.92265" lon="1.07319">
        <ele>12.8</ele>
        <time>2020-06-18T11:19:21Z</time>
      </trkpt>
      <trkpt lat="49.92267" lon="1.07314">
        <ele>12.7</ele>
        <time>2020-06-18T11:19:22Z</time>
      </trkpt>
      <trkpt lat="49.9227" lon="1.07314">
        <ele>12.7</ele>
        <time>2020-06-18T11:19:23Z</time>
      </trkpt>
      <trkpt lat="49.92273" lon="1.07314">
        <ele>12.7</ele>
        <time>2020-06-18T11:19:24Z</time>
      </trkpt>
      <trkpt lat="49.92275" lon="1.07321">
        <ele>12.6</ele>
        <time>2020-06-18T11:19:25Z</time>
      </trkpt>
      <trkpt lat="49.92279" lon="1.07322">
        <ele>12.6</ele>
        <time>2020-06-18T11:19:26Z</time>
      </trkpt>
      <trkpt lat="49.9228" lon="1.07321">
        <ele>12.6</ele>
        <time>2020-06-18T11:19:27Z</time>
      </trkpt>
      <trkpt lat="49.92284" lon="1.07318">
        <ele>12.5</ele>
        <time>2020-06-18T11:19:28Z</time>
      </trkpt>
      <trkpt lat="49.92285" lon="1.07317">
        <ele>12.5</ele>
        <time>2020-06-18T11:19:29Z</time>
      </trkpt>
      <trkpt lat="49.92288" lon="1.07315">
        <ele>12.5</ele>
        <time>2020-06-18T11:19:30Z</time>
      </trkpt>
      <trkpt lat="49.92289" lon="1.07314">
        <ele>12.5</ele>
        <time>2020-06-18T11:19:31Z</time>
      </trkpt>
      <trkpt lat="49.92292" lon="1.07315">
        <ele>12.5</ele>
        <time>2020-06-18T11:19:32Z</time>
      </trkpt>
      <trkpt lat="49.92293" lon="1.07315">
        <ele>12.5</ele>
        <time>2020-06-18T11:19:33Z</time>
      </trkpt>
      <trkpt lat="49.92295" lon="1.07312">
        <ele>12.4</ele>
        <time>2020-06-18T11:19:34Z</time>
      </trkpt>
      <trkpt lat="49.92299" lon="1.07313">
        <ele>12.3</ele>
        <time>2020-06-18T11:19:35Z</time>
      </trkpt>
      <trkpt lat="49.92301" lon="1.07312">
        <ele>12.3</ele>
        <time>2020-06-18T11:19:36Z</time>
      </trkpt>
      <trkpt lat="49.92304" lon="1.07313">
        <ele>12.2</ele>
        <time>2020-06-18T11:19:37Z</time>
      </trkpt>
      <trkpt lat="49.92306" lon="1.07321">
        <ele>12</ele>
        <time>2020-06-18T11:19:38Z</time>
      </trkpt>
      <trkpt lat="49.92309" lon="1.07325">
        <ele>12</ele>
        <time>2020-06-18T11:19:39Z</time>
      </trkpt>
      <trkpt lat="49.92311" lon="1.07328">
        <ele>11.9</ele>
        <time>2020-06-18T11:19:40Z</time>
      </trkpt>
      <trkpt lat="49.92312" lon="1.07328">
        <ele>11.9</ele>
        <time>2020-06-18T11:19:41Z</time>
      </trkpt>
      <trkpt lat="49.92313" lon="1.07328">
        <ele>11.8</ele>
        <time>2020-06-18T11:19:42Z</time>
      </trkpt>
      <trkpt lat="49.92314" lon="1.07329">
        <ele>11.8</ele>
        <time>2020-06-18T11:19:43Z</time>
      </trkpt>
      <trkpt lat="49.92314" lon="1.07329">
        <ele>11.8</ele>
        <time>2020-06-18T11:19:44Z</time>
      </trkpt>
      <trkpt lat="49.92314" lon="1.07329">
        <ele>11.8</ele>
        <time>2020-06-18T11:19:45Z</time>
      </trkpt>
      <trkpt lat="49.92315" lon="1.07329">
        <ele>11.8</ele>
        <time>2020-06-18T11:19:46Z</time>
      </trkpt>
      <trkpt lat="49.92315" lon="1.07328">
        <ele>11.8</ele>
        <time>2020-06-18T11:19:47Z</time>
      </trkpt>
      <trkpt lat="49.92316" lon="1.0733">
        <ele>11.7</ele>
        <time>2020-06-18T11:19:48Z</time>
      </trkpt>
      <trkpt lat="49.92316" lon="1.07331">
        <ele>11.7</ele>
        <time>2020-06-18T11:19:49Z</time>
      </trkpt>
      <trkpt lat="49.92316" lon="1.07332">
        <ele>11.7</ele>
        <time>2020-06-18T11:19:50Z</time>
      </trkpt>
      <trkpt lat="49.92316" lon="1.07332">
        <ele>11.7</ele>
        <time>2020-06-18T11:19:51Z</time>
      </trkpt>
      <trkpt lat="49.92316" lon="1.07332">
        <ele>11.7</ele>
        <time>2020-06-18T11:19:52Z</time>
      </trkpt>
      <trkpt lat="49.92318" lon="1.07333">
        <ele>11.7</ele>
        <time>2020-06-18T11:19:53Z</time>
      </trkpt>
      <trkpt lat="49.92319" lon="1.07333">
        <ele>11.6</ele>
        <time>2020-06-18T11:19:54Z</time>
      </trkpt>
      <trkpt lat="49.9232" lon="1.07333">
        <ele>11.6</ele>
        <time>2020-06-18T11:19:55Z</time>
      </trkpt>
      <trkpt lat="49.92322" lon="1.07333">
        <ele>11.5</ele>
        <time>2020-06-18T11:19:56Z</time>
      </trkpt>
      <trkpt lat="49.92323" lon="1.07332">
        <ele>11.5</ele>
        <time>2020-06-18T11:19:57Z</time>
      </trkpt>
      <trkpt lat="49.92323" lon="1.07332">
        <ele>11.5</ele>
        <time>2020-06-18T11:19:58Z</time>
      </trkpt>
      <trkpt lat="49.92324" lon="1.07332">
        <ele>11.5</ele>
        <time>2020-06-18T11:19:59Z</time>
      </trkpt>
      <trkpt lat="49.92325" lon="1.07331">
        <ele>11.5</ele>
        <time>2020-06-18T11:20:00Z</time>
      </trkpt>
      <trkpt lat="49.92326" lon="1.07332">
        <ele>11.4</ele>
        <time>2020-06-18T11:20:01Z</time>
      </trkpt>
      <trkpt lat="49.92327" lon="1.07334">
        <ele>11.4</ele>
        <time>2020-06-18T11:20:02Z</time>
      </trkpt>
      <trkpt lat="49.92328" lon="1.07334">
        <ele>11.4</ele>
        <time>2020-06-18T11:20:03Z</time>
      </trkpt>
      <trkpt lat="49.92329" lon="1.07335">
        <ele>11.3</ele>
        <time>2020-06-18T11:20:04Z</time>
      </trkpt>
      <trkpt lat="49.9233" lon="1.07335">
        <ele>11.3</ele>
        <time>2020-06-18T11:20:05Z</time>
      </trkpt>
      <trkpt lat="49.92331" lon="1.07335">
        <ele>11.3</ele>
        <time>2020-06-18T11:20:06Z</time>
      </trkpt>
      <trkpt lat="49.92331" lon="1.07335">
        <ele>11.3</ele>
        <time>2020-06-18T11:20:07Z</time>
      </trkpt>
      <trkpt lat="49.92331" lon="1.07335">
        <ele>11.3</ele>
        <time>2020-06-18T11:20:08Z</time>
      </trkpt>
      <trkpt lat="49.92331" lon="1.07334">
        <ele>11.3</ele>
        <time>2020-06-18T11:20:09Z</time>
      </trkpt>
      <trkpt lat="49.92332" lon="1.07334">
        <ele>11.3</ele>
        <time>2020-06-18T11:20:10Z</time>
      </trkpt>
      <trkpt lat="49.92333" lon="1.07335">
        <ele>11.1</ele>
        <time>2020-06-18T11:20:11Z</time>
      </trkpt>
      <trkpt lat="49.92333" lon="1.07335">
        <ele>11.1</ele>
        <time>2020-06-18T11:20:12Z</time>
      </trkpt>
      <trkpt lat="49.92335" lon="1.07337">
        <ele>11</ele>
        <time>2020-06-18T11:20:13Z</time>
      </trkpt>
      <trkpt lat="49.92336" lon="1.07339">
        <ele>10.9</ele>
        <time>2020-06-18T11:20:14Z</time>
      </trkpt>
      <trkpt lat="49.92337" lon="1.07341">
        <ele>10.9</ele>
        <time>2020-06-18T11:20:15Z</time>
      </trkpt>
      <trkpt lat="49.92338" lon="1.07346">
        <ele>10.8</ele>
        <time>2020-06-18T11:20:16Z</time>
      </trkpt>
      <trkpt lat="49.92339" lon="1.07348">
        <ele>10.7</ele>
        <time>2020-06-18T11:20:17Z</time>
      </trkpt>
      <trkpt lat="49.92341" lon="1.07351">
        <ele>10.7</ele>
        <time>2020-06-18T11:20:18Z</time>
      </trkpt>
      <trkpt lat="49.92343" lon="1.07354">
        <ele>10.6</ele>
        <time>2020-06-18T11:20:19Z</time>
      </trkpt>
      <trkpt lat="49.92344" lon="1.07358">
        <ele>10.6</ele>
        <time>2020-06-18T11:20:20Z</time>
      </trkpt>
      <trkpt lat="49.92344" lon="1.07364">
        <ele>10.5</ele>
        <time>2020-06-18T11:20:21Z</time>
      </trkpt>
      <trkpt lat="49.92343" lon="1.07369">
        <ele>10.4</ele>
        <time>2020-06-18T11:20:22Z</time>
      </trkpt>
      <trkpt lat="49.92342" lon="1.07375">
        <ele>10.4</ele>
        <time>2020-06-18T11:20:23Z</time>
      </trkpt>
      <trkpt lat="49.92342" lon="1.07381">
        <ele>10.3</ele>
        <time>2020-06-18T11:20:24Z</time>
      </trkpt>
      <trkpt lat="49.92343" lon="1.07385">
        <ele>10.2</ele>
        <time>2020-06-18T11:20:25Z</time>
      </trkpt>
      <trkpt lat="49.92344" lon="1.0739">
        <ele>10.2</ele>
        <time>2020-06-18T11:20:26Z</time>
      </trkpt>
      <trkpt lat="49.92344" lon="1.07392">
        <ele>10.2</ele>
        <time>2020-06-18T11:20:27Z</time>
      </trkpt>
      <trkpt lat="49.92345" lon="1.07397">
        <ele>10.1</ele>
        <time>2020-06-18T11:20:28Z</time>
      </trkpt>
      <trkpt lat="49.92345" lon="1.07402">
        <ele>10</ele>
        <time>2020-06-18T11:20:29Z</time>
      </trkpt>
      <trkpt lat="49.92346" lon="1.07404">
        <ele>10</ele>
        <time>2020-06-18T11:20:30Z</time>
      </trkpt>
      <trkpt lat="49.92345" lon="1.07409">
        <ele>10</ele>
        <time>2020-06-18T11:20:31Z</time>
      </trkpt>
      <trkpt lat="49.92346" lon="1.07414">
        <ele>9.9</ele>
        <time>2020-06-18T11:20:32Z</time>
      </trkpt>
      <trkpt lat="49.92347" lon="1.07418">
        <ele>9.8</ele>
        <time>2020-06-18T11:20:33Z</time>
      </trkpt>
      <trkpt lat="49.92348" lon="1.07423">
        <ele>9.8</ele>
        <time>2020-06-18T11:20:34Z</time>
      </trkpt>
      <trkpt lat="49.92349" lon="1.07425">
        <ele>9.8</ele>
        <time>2020-06-18T11:20:35Z</time>
      </trkpt>
      <trkpt lat="49.92348" lon="1.07432">
        <ele>9.7</ele>
        <time>2020-06-18T11:20:36Z</time>
      </trkpt>
      <trkpt lat="49.92347" lon="1.07435">
        <ele>9.6</ele>
        <time>2020-06-18T11:20:37Z</time>
      </trkpt>
      <trkpt lat="49.92348" lon="1.07439">
        <ele>9.6</ele>
        <time>2020-06-18T11:20:38Z</time>
      </trkpt>
      <trkpt lat="49.92351" lon="1.07443">
        <ele>9.5</ele>
        <time>2020-06-18T11:20:39Z</time>
      </trkpt>
      <trkpt lat="49.92353" lon="1.07446">
        <ele>9.5</ele>
        <time>2020-06-18T11:20:40Z</time>
      </trkpt>
      <trkpt lat="49.92355" lon="1.07451">
        <ele>9.4</ele>
        <time>2020-06-18T11:20:41Z</time>
      </trkpt>
      <trkpt lat="49.92356" lon="1.07453">
        <ele>9.4</ele>
        <time>2020-06-18T11:20:42Z</time>
      </trkpt>
      <trkpt lat="49.92353" lon="1.07465">
        <ele>9.3</ele>
        <time>2020-06-18T11:20:43Z</time>
      </trkpt>
      <trkpt lat="49.92353" lon="1.07471">
        <ele>9.2</ele>
        <time>2020-06-18T11:20:44Z</time>
      </trkpt>
      <trkpt lat="49.92353" lon="1.07472">
        <ele>9.2</ele>
        <time>2020-06-18T11:20:45Z</time>
      </trkpt>
      <trkpt lat="49.92352" lon="1.07477">
        <ele>9.2</ele>
        <time>2020-06-18T11:20:46Z</time>
      </trkpt>
      <trkpt lat="49.92351" lon="1.07479">
        <ele>9.2</ele>
        <time>2020-06-18T11:20:47Z</time>
      </trkpt>
      <trkpt lat="49.92351" lon="1.07484">
        <ele>9.2</ele>
        <time>2020-06-18T11:20:48Z</time>
      </trkpt>
      <trkpt lat="49.92349" lon="1.0749">
        <ele>9.1</ele>
        <time>2020-06-18T11:20:49Z</time>
      </trkpt>
      <trkpt lat="49.92347" lon="1.07495">
        <ele>9.1</ele>
        <time>2020-06-18T11:20:50Z</time>
      </trkpt>
      <trkpt lat="49.92344" lon="1.07498">
        <ele>9.1</ele>
        <time>2020-06-18T11:20:51Z</time>
      </trkpt>
      <trkpt lat="49.9234" lon="1.07501">
        <ele>9.1</ele>
        <time>2020-06-18T11:20:52Z</time>
      </trkpt>
      <trkpt lat="49.92337" lon="1.07504">
        <ele>9.1</ele>
        <time>2020-06-18T11:20:53Z</time>
      </trkpt>
      <trkpt lat="49.92333" lon="1.07508">
        <ele>9</ele>
        <time>2020-06-18T11:20:54Z</time>
      </trkpt>
      <trkpt lat="49.92332" lon="1.07516">
        <ele>9</ele>
        <time>2020-06-18T11:20:55Z</time>
      </trkpt>
      <trkpt lat="49.9233" lon="1.0752">
        <ele>9</ele>
        <time>2020-06-18T11:20:56Z</time>
      </trkpt>
      <trkpt lat="49.92328" lon="1.07524">
        <ele>9</ele>
        <time>2020-06-18T11:20:57Z</time>
      </trkpt>
      <trkpt lat="49.92327" lon="1.07528">
        <ele>9</ele>
        <time>2020-06-18T11:20:58Z</time>
      </trkpt>
      <trkpt lat="49.92326" lon="1.07533">
        <ele>9</ele>
        <time>2020-06-18T11:20:59Z</time>
      </trkpt>
      <trkpt lat="49.92325" lon="1.07537">
        <ele>9</ele>
        <time>2020-06-18T11:21:00Z</time>
      </trkpt>
      <trkpt lat="49.92323" lon="1.07541">
        <ele>9</ele>
        <time>2020-06-18T11:21:01Z</time>
      </trkpt>
      <trkpt lat="49.92322" lon="1.07549">
        <ele>9</ele>
        <time>2020-06-18T11:21:02Z</time>
      </trkpt>
      <trkpt lat="49.92322" lon="1.07554">
        <ele>8.7</ele>
        <time>2020-06-18T11:21:03Z</time>
      </trkpt>
      <trkpt lat="49.92322" lon="1.07556">
        <ele>8.7</ele>
        <time>2020-06-18T11:21:04Z</time>
      </trkpt>
      <trkpt lat="49.92322" lon="1.07561">
        <ele>8.7</ele>
        <time>2020-06-18T11:21:05Z</time>
      </trkpt>
      <trkpt lat="49.92321" lon="1.07567">
        <ele>8.7</ele>
        <time>2020-06-18T11:21:06Z</time>
      </trkpt>
      <trkpt lat="49.92321" lon="1.07569">
        <ele>8.7</ele>
        <time>2020-06-18T11:21:07Z</time>
      </trkpt>
      <trkpt lat="49.92321" lon="1.07575">
        <ele>8.7</ele>
        <time>2020-06-18T11:21:08Z</time>
      </trkpt>
      <trkpt lat="49.92321" lon="1.07577">
        <ele>8.7</ele>
        <time>2020-06-18T11:21:09Z</time>
      </trkpt>
      <trkpt lat="49.92321" lon="1.07582">
        <ele>8.6</ele>
        <time>2020-06-18T11:21:10Z</time>
      </trkpt>
      <trkpt lat="49.92321" lon="1.07587">
        <ele>8.8</ele>
        <time>2020-06-18T11:21:11Z</time>
      </trkpt>
      <trkpt lat="49.92321" lon="1.07593">
        <ele>9</ele>
        <time>2020-06-18T11:21:12Z</time>
      </trkpt>
      <trkpt lat="49.92318" lon="1.07599">
        <ele>9.3</ele>
        <time>2020-06-18T11:21:13Z</time>
      </trkpt>
      <trkpt lat="49.92318" lon="1.07605">
        <ele>9.5</ele>
        <time>2020-06-18T11:21:14Z</time>
      </trkpt>
      <trkpt lat="49.92317" lon="1.07611">
        <ele>9.7</ele>
        <time>2020-06-18T11:21:15Z</time>
      </trkpt>
      <trkpt lat="49.92317" lon="1.07618">
        <ele>9.9</ele>
        <time>2020-06-18T11:21:16Z</time>
      </trkpt>
      <trkpt lat="49.92317" lon="1.07623">
        <ele>10.1</ele>
        <time>2020-06-18T11:21:17Z</time>
      </trkpt>
      <trkpt lat="49.92317" lon="1.07628">
        <ele>10.2</ele>
        <time>2020-06-18T11:21:18Z</time>
      </trkpt>
      <trkpt lat="49.92317" lon="1.0763">
        <ele>10.2</ele>
        <time>2020-06-18T11:21:19Z</time>
      </trkpt>
      <trkpt lat="49.92317" lon="1.07635">
        <ele>10.2</ele>
        <time>2020-06-18T11:21:20Z</time>
      </trkpt>
      <trkpt lat="49.92317" lon="1.07637">
        <ele>10.3</ele>
        <time>2020-06-18T11:21:21Z</time>
      </trkpt>
      <trkpt lat="49.92317" lon="1.07642">
        <ele>10.3</ele>
        <time>2020-06-18T11:21:22Z</time>
      </trkpt>
      <trkpt lat="49.92316" lon="1.07647">
        <ele>10.4</ele>
        <time>2020-06-18T11:21:23Z</time>
      </trkpt>
      <trkpt lat="49.92316" lon="1.07649">
        <ele>10.5</ele>
        <time>2020-06-18T11:21:24Z</time>
      </trkpt>
      <trkpt lat="49.92315" lon="1.07655">
        <ele>10.5</ele>
        <time>2020-06-18T11:21:25Z</time>
      </trkpt>
      <trkpt lat="49.92315" lon="1.07657">
        <ele>10.5</ele>
        <time>2020-06-18T11:21:26Z</time>
      </trkpt>
      <trkpt lat="49.92315" lon="1.07663">
        <ele>10.6</ele>
        <time>2020-06-18T11:21:27Z</time>
      </trkpt>
      <trkpt lat="49.92315" lon="1.07665">
        <ele>10.6</ele>
        <time>2020-06-18T11:21:28Z</time>
      </trkpt>
      <trkpt lat="49.92315" lon="1.07669">
        <ele>10.6</ele>
        <time>2020-06-18T11:21:29Z</time>
      </trkpt>
      <trkpt lat="49.92315" lon="1.07673">
        <ele>10.6</ele>
        <time>2020-06-18T11:21:30Z</time>
      </trkpt>
      <trkpt lat="49.92315" lon="1.07673">
        <ele>10.6</ele>
        <time>2020-06-18T11:21:31Z</time>
      </trkpt>
      <trkpt lat="49.92315" lon="1.07679">
        <ele>10.6</ele>
        <time>2020-06-18T11:21:32Z</time>
      </trkpt>
      <trkpt lat="49.92315" lon="1.07681">
        <ele>10.6</ele>
        <time>2020-06-18T11:21:33Z</time>
      </trkpt>
      <trkpt lat="49.92317" lon="1.07686">
        <ele>10.6</ele>
        <time>2020-06-18T11:21:34Z</time>
      </trkpt>
      <trkpt lat="49.92318" lon="1.07688">
        <ele>10.6</ele>
        <time>2020-06-18T11:21:35Z</time>
      </trkpt>
      <trkpt lat="49.9232" lon="1.07696">
        <ele>10.5</ele>
        <time>2020-06-18T11:21:36Z</time>
      </trkpt>
      <trkpt lat="49.92322" lon="1.07702">
        <ele>10.5</ele>
        <time>2020-06-18T11:21:37Z</time>
      </trkpt>
      <trkpt lat="49.92323" lon="1.07707">
        <ele>10.5</ele>
        <time>2020-06-18T11:21:38Z</time>
      </trkpt>
      <trkpt lat="49.92325" lon="1.07711">
        <ele>10.4</ele>
        <time>2020-06-18T11:21:39Z</time>
      </trkpt>
      <trkpt lat="49.92327" lon="1.07712">
        <ele>10.4</ele>
        <time>2020-06-18T11:21:40Z</time>
      </trkpt>
      <trkpt lat="49.9233" lon="1.07714">
        <ele>10.4</ele>
        <time>2020-06-18T11:21:41Z</time>
      </trkpt>
      <trkpt lat="49.92331" lon="1.07715">
        <ele>10.4</ele>
        <time>2020-06-18T11:21:42Z</time>
      </trkpt>
      <trkpt lat="49.92334" lon="1.07718">
        <ele>10.3</ele>
        <time>2020-06-18T11:21:43Z</time>
      </trkpt>
      <trkpt lat="49.92337" lon="1.07719">
        <ele>10.2</ele>
        <time>2020-06-18T11:21:44Z</time>
      </trkpt>
      <trkpt lat="49.9234" lon="1.07724">
        <ele>9.7</ele>
        <time>2020-06-18T11:21:45Z</time>
      </trkpt>
      <trkpt lat="49.92342" lon="1.07729">
        <ele>9.2</ele>
        <time>2020-06-18T11:21:46Z</time>
      </trkpt>
      <trkpt lat="49.92345" lon="1.07731">
        <ele>8.9</ele>
        <time>2020-06-18T11:21:47Z</time>
      </trkpt>
      <trkpt lat="49.92347" lon="1.07733">
        <ele>8.6</ele>
        <time>2020-06-18T11:21:48Z</time>
      </trkpt>
      <trkpt lat="49.9235" lon="1.07736">
        <ele>8.6</ele>
        <time>2020-06-18T11:21:49Z</time>
      </trkpt>
      <trkpt lat="49.92352" lon="1.07738">
        <ele>8.6</ele>
        <time>2020-06-18T11:21:50Z</time>
      </trkpt>
      <trkpt lat="49.92353" lon="1.07741">
        <ele>8.6</ele>
        <time>2020-06-18T11:21:51Z</time>
      </trkpt>
      <trkpt lat="49.92354" lon="1.07744">
        <ele>8.6</ele>
        <time>2020-06-18T11:21:52Z</time>
      </trkpt>
      <trkpt lat="49.92354" lon="1.07746">
        <ele>8.6</ele>
        <time>2020-06-18T11:21:53Z</time>
      </trkpt>
      <trkpt lat="49.92354" lon="1.07746">
        <ele>8.6</ele>
        <time>2020-06-18T11:21:54Z</time>
      </trkpt>
      <trkpt lat="49.92354" lon="1.07746">
        <ele>8.6</ele>
        <time>2020-06-18T11:21:55Z</time>
      </trkpt>
      <trkpt lat="49.92354" lon="1.07746">
        <ele>8.6</ele>
        <time>2020-06-18T11:21:56Z</time>
      </trkpt>
      <trkpt lat="49.92354" lon="1.07746">
        <ele>8.6</ele>
        <time>2020-06-18T11:21:57Z</time>
      </trkpt>
      <trkpt lat="49.92355" lon="1.07747">
        <ele>8.5</ele>
        <time>2020-06-18T11:21:58Z</time>
      </trkpt>
      <trkpt lat="49.92355" lon="1.07747">
        <ele>8.5</ele>
        <time>2020-06-18T11:21:59Z</time>
      </trkpt>
      <trkpt lat="49.92356" lon="1.07748">
        <ele>8.5</ele>
        <time>2020-06-18T11:22:00Z</time>
      </trkpt>
      <trkpt lat="49.92356" lon="1.07748">
        <ele>8.5</ele>
        <time>2020-06-18T11:22:01Z</time>
      </trkpt>
      <trkpt lat="49.92356" lon="1.07748">
        <ele>8.5</ele>
        <time>2020-06-18T11:22:02Z</time>
      </trkpt>
      <trkpt lat="49.92361" lon="1.07751">
        <ele>8.5</ele>
        <time>2020-06-18T11:22:11Z</time>
      </trkpt>
      <trkpt lat="49.92362" lon="1.07751">
        <ele>8.5</ele>
        <time>2020-06-18T11:22:12Z</time>
      </trkpt>
      <trkpt lat="49.92362" lon="1.07751">
        <ele>8.5</ele>
        <time>2020-06-18T11:22:13Z</time>
      </trkpt>
      <trkpt lat="49.92363" lon="1.0775">
        <ele>8.5</ele>
        <time>2020-06-18T11:22:14Z</time>
      </trkpt>
      <trkpt lat="49.92365" lon="1.0775">
        <ele>8.5</ele>
        <time>2020-06-18T11:22:15Z</time>
      </trkpt>
      <trkpt lat="49.92365" lon="1.0775">
        <ele>8.5</ele>
        <time>2020-06-18T11:22:16Z</time>
      </trkpt>
      <trkpt lat="49.92366" lon="1.0775">
        <ele>8.5</ele>
        <time>2020-06-18T11:22:17Z</time>
      </trkpt>
      <trkpt lat="49.92369" lon="1.07751">
        <ele>8.5</ele>
        <time>2020-06-18T11:22:18Z</time>
      </trkpt>
      <trkpt lat="49.9237" lon="1.07751">
        <ele>8.4</ele>
        <time>2020-06-18T11:22:19Z</time>
      </trkpt>
      <trkpt lat="49.92373" lon="1.07752">
        <ele>8.4</ele>
        <time>2020-06-18T11:22:20Z</time>
      </trkpt>
      <trkpt lat="49.92377" lon="1.07755">
        <ele>8.4</ele>
        <time>2020-06-18T11:22:21Z</time>
      </trkpt>
      <trkpt lat="49.92381" lon="1.07758">
        <ele>8.4</ele>
        <time>2020-06-18T11:22:22Z</time>
      </trkpt>
      <trkpt lat="49.92385" lon="1.07759">
        <ele>8.4</ele>
        <time>2020-06-18T11:22:23Z</time>
      </trkpt>
      <trkpt lat="49.92389" lon="1.0776">
        <ele>8.4</ele>
        <time>2020-06-18T11:22:24Z</time>
      </trkpt>
      <trkpt lat="49.92393" lon="1.07762">
        <ele>8.4</ele>
        <time>2020-06-18T11:22:25Z</time>
      </trkpt>
      <trkpt lat="49.92396" lon="1.07763">
        <ele>8.4</ele>
        <time>2020-06-18T11:22:26Z</time>
      </trkpt>
      <trkpt lat="49.92399" lon="1.07764">
        <ele>8.4</ele>
        <time>2020-06-18T11:22:27Z</time>
      </trkpt>
      <trkpt lat="49.92402" lon="1.07766">
        <ele>8.4</ele>
        <time>2020-06-18T11:22:28Z</time>
      </trkpt>
      <trkpt lat="49.92405" lon="1.07768">
        <ele>8.3</ele>
        <time>2020-06-18T11:22:29Z</time>
      </trkpt>
      <trkpt lat="49.92406" lon="1.07769">
        <ele>8.3</ele>
        <time>2020-06-18T11:22:30Z</time>
      </trkpt>
      <trkpt lat="49.9241" lon="1.07771">
        <ele>8.3</ele>
        <time>2020-06-18T11:22:31Z</time>
      </trkpt>
      <trkpt lat="49.92413" lon="1.07773">
        <ele>8.2</ele>
        <time>2020-06-18T11:22:32Z</time>
      </trkpt>
      <trkpt lat="49.92413" lon="1.07774">
        <ele>8.2</ele>
        <time>2020-06-18T11:22:33Z</time>
      </trkpt>
      <trkpt lat="49.92415" lon="1.07778">
        <ele>8.2</ele>
        <time>2020-06-18T11:22:34Z</time>
      </trkpt>
      <trkpt lat="49.92417" lon="1.07783">
        <ele>8.2</ele>
        <time>2020-06-18T11:22:35Z</time>
      </trkpt>
      <trkpt lat="49.92417" lon="1.07785">
        <ele>8.2</ele>
        <time>2020-06-18T11:22:36Z</time>
      </trkpt>
      <trkpt lat="49.92417" lon="1.07789">
        <ele>8.2</ele>
        <time>2020-06-18T11:22:37Z</time>
      </trkpt>
      <trkpt lat="49.92417" lon="1.07791">
        <ele>8.2</ele>
        <time>2020-06-18T11:22:38Z</time>
      </trkpt>
      <trkpt lat="49.92419" lon="1.07794">
        <ele>8.4</ele>
        <time>2020-06-18T11:22:39Z</time>
      </trkpt>
      <trkpt lat="49.9242" lon="1.07796">
        <ele>8.4</ele>
        <time>2020-06-18T11:22:40Z</time>
      </trkpt>
      <trkpt lat="49.92421" lon="1.07798">
        <ele>8.4</ele>
        <time>2020-06-18T11:22:41Z</time>
      </trkpt>
      <trkpt lat="49.92421" lon="1.07801">
        <ele>8.5</ele>
        <time>2020-06-18T11:22:42Z</time>
      </trkpt>
      <trkpt lat="49.92422" lon="1.07806">
        <ele>8.5</ele>
        <time>2020-06-18T11:22:43Z</time>
      </trkpt>
      <trkpt lat="49.92422" lon="1.07808">
        <ele>8.5</ele>
        <time>2020-06-18T11:22:44Z</time>
      </trkpt>
      <trkpt lat="49.92423" lon="1.07813">
        <ele>8.6</ele>
        <time>2020-06-18T11:22:45Z</time>
      </trkpt>
      <trkpt lat="49.92423" lon="1.07818">
        <ele>8.6</ele>
        <time>2020-06-18T11:22:46Z</time>
      </trkpt>
      <trkpt lat="49.92424" lon="1.07821">
        <ele>8.7</ele>
        <time>2020-06-18T11:22:47Z</time>
      </trkpt>
      <trkpt lat="49.92424" lon="1.07822">
        <ele>8.7</ele>
        <time>2020-06-18T11:22:48Z</time>
      </trkpt>
      <trkpt lat="49.92425" lon="1.07824">
        <ele>8.8</ele>
        <time>2020-06-18T11:22:49Z</time>
      </trkpt>
      <trkpt lat="49.92427" lon="1.07825">
        <ele>8.9</ele>
        <time>2020-06-18T11:22:50Z</time>
      </trkpt>
      <trkpt lat="49.92428" lon="1.07824">
        <ele>8.9</ele>
        <time>2020-06-18T11:22:51Z</time>
      </trkpt>
      <trkpt lat="49.92429" lon="1.07823">
        <ele>8.9</ele>
        <time>2020-06-18T11:22:52Z</time>
      </trkpt>
      <trkpt lat="49.92429" lon="1.07822">
        <ele>9</ele>
        <time>2020-06-18T11:22:53Z</time>
      </trkpt>
      <trkpt lat="49.9243" lon="1.07824">
        <ele>9.1</ele>
        <time>2020-06-18T11:22:54Z</time>
      </trkpt>
      <trkpt lat="49.92431" lon="1.07824">
        <ele>9.1</ele>
        <time>2020-06-18T11:22:55Z</time>
      </trkpt>
      <trkpt lat="49.92431" lon="1.07825">
        <ele>9.1</ele>
        <time>2020-06-18T11:22:56Z</time>
      </trkpt>
      <trkpt lat="49.92431" lon="1.07824">
        <ele>9.2</ele>
        <time>2020-06-18T11:22:57Z</time>
      </trkpt>
      <trkpt lat="49.92431" lon="1.07825">
        <ele>9.2</ele>
        <time>2020-06-18T11:22:58Z</time>
      </trkpt>
      <trkpt lat="49.92431" lon="1.07826">
        <ele>9.2</ele>
        <time>2020-06-18T11:22:59Z</time>
      </trkpt>
      <trkpt lat="49.92432" lon="1.07827">
        <ele>9.3</ele>
        <time>2020-06-18T11:23:00Z</time>
      </trkpt>
      <trkpt lat="49.92432" lon="1.07828">
        <ele>9.4</ele>
        <time>2020-06-18T11:23:01Z</time>
      </trkpt>
      <trkpt lat="49.92433" lon="1.07828">
        <ele>9.4</ele>
        <time>2020-06-18T11:23:02Z</time>
      </trkpt>
      <trkpt lat="49.92434" lon="1.07828">
        <ele>9.4</ele>
        <time>2020-06-18T11:23:03Z</time>
      </trkpt>
      <trkpt lat="49.92435" lon="1.07829">
        <ele>9.5</ele>
        <time>2020-06-18T11:23:04Z</time>
      </trkpt>
      <trkpt lat="49.92436" lon="1.07829">
        <ele>9.6</ele>
        <time>2020-06-18T11:23:05Z</time>
      </trkpt>
      <trkpt lat="49.92437" lon="1.07832">
        <ele>9.6</ele>
        <time>2020-06-18T11:23:06Z</time>
      </trkpt>
      <trkpt lat="49.92438" lon="1.07835">
        <ele>9.7</ele>
        <time>2020-06-18T11:23:07Z</time>
      </trkpt>
      <trkpt lat="49.92438" lon="1.07837">
        <ele>9.7</ele>
        <time>2020-06-18T11:23:08Z</time>
      </trkpt>
      <trkpt lat="49.92439" lon="1.0784">
        <ele>9.8</ele>
        <time>2020-06-18T11:23:09Z</time>
      </trkpt>
      <trkpt lat="49.9244" lon="1.07843">
        <ele>9.8</ele>
        <time>2020-06-18T11:23:10Z</time>
      </trkpt>
      <trkpt lat="49.9244" lon="1.07845">
        <ele>9.9</ele>
        <time>2020-06-18T11:23:11Z</time>
      </trkpt>
      <trkpt lat="49.92441" lon="1.07848">
        <ele>10</ele>
        <time>2020-06-18T11:24:03Z</time>
      </trkpt>
      <trkpt lat="49.92441" lon="1.07851">
        <ele>10</ele>
        <time>2020-06-18T11:24:04Z</time>
      </trkpt>
      <trkpt lat="49.92442" lon="1.07853">
        <ele>10</ele>
        <time>2020-06-18T11:24:05Z</time>
      </trkpt>
      <trkpt lat="49.92442" lon="1.07856">
        <ele>10.1</ele>
        <time>2020-06-18T11:24:06Z</time>
      </trkpt>
      <trkpt lat="49.92443" lon="1.07858">
        <ele>10.2</ele>
        <time>2020-06-18T11:24:07Z</time>
      </trkpt>
      <trkpt lat="49.92443" lon="1.0786">
        <ele>10.2</ele>
        <time>2020-06-18T11:24:08Z</time>
      </trkpt>
      <trkpt lat="49.92444" lon="1.07866">
        <ele>10.3</ele>
        <time>2020-06-18T11:24:09Z</time>
      </trkpt>
      <trkpt lat="49.92444" lon="1.07867">
        <ele>10.3</ele>
        <time>2020-06-18T11:24:10Z</time>
      </trkpt>
      <trkpt lat="49.92445" lon="1.07873">
        <ele>10.4</ele>
        <time>2020-06-18T11:24:11Z</time>
      </trkpt>
      <trkpt lat="49.92445" lon="1.07875">
        <ele>10.4</ele>
        <time>2020-06-18T11:24:12Z</time>
      </trkpt>
      <trkpt lat="49.92446" lon="1.0788">
        <ele>10.5</ele>
        <time>2020-06-18T11:24:13Z</time>
      </trkpt>
      <trkpt lat="49.92447" lon="1.07884">
        <ele>10.6</ele>
        <time>2020-06-18T11:24:14Z</time>
      </trkpt>
      <trkpt lat="49.92449" lon="1.07888">
        <ele>10.7</ele>
        <time>2020-06-18T11:24:15Z</time>
      </trkpt>
      <trkpt lat="49.9245" lon="1.07893">
        <ele>10.8</ele>
        <time>2020-06-18T11:24:16Z</time>
      </trkpt>
      <trkpt lat="49.92451" lon="1.07898">
        <ele>10.9</ele>
        <time>2020-06-18T11:24:17Z</time>
      </trkpt>
      <trkpt lat="49.92452" lon="1.07904">
        <ele>10.9</ele>
        <time>2020-06-18T11:24:18Z</time>
      </trkpt>
      <trkpt lat="49.92447" lon="1.07914">
        <ele>10.9</ele>
        <time>2020-06-18T11:24:19Z</time>
      </trkpt>
      <trkpt lat="49.92449" lon="1.07917">
        <ele>11</ele>
        <time>2020-06-18T11:24:20Z</time>
      </trkpt>
      <trkpt lat="49.92448" lon="1.07919">
        <ele>11</ele>
        <time>2020-06-18T11:24:21Z</time>
      </trkpt>
      <trkpt lat="49.92449" lon="1.07924">
        <ele>11</ele>
        <time>2020-06-18T11:24:22Z</time>
      </trkpt>
      <trkpt lat="49.92449" lon="1.07926">
        <ele>11.1</ele>
        <time>2020-06-18T11:24:23Z</time>
      </trkpt>
      <trkpt lat="49.9245" lon="1.0793">
        <ele>11.1</ele>
        <time>2020-06-18T11:24:24Z</time>
      </trkpt>
      <trkpt lat="49.9245" lon="1.07934">
        <ele>11.1</ele>
        <time>2020-06-18T11:24:25Z</time>
      </trkpt>
      <trkpt lat="49.9245" lon="1.07939">
        <ele>11.1</ele>
        <time>2020-06-18T11:24:26Z</time>
      </trkpt>
      <trkpt lat="49.9245" lon="1.07941">
        <ele>11.2</ele>
        <time>2020-06-18T11:24:27Z</time>
      </trkpt>
      <trkpt lat="49.92451" lon="1.07945">
        <ele>11.2</ele>
        <time>2020-06-18T11:24:28Z</time>
      </trkpt>
      <trkpt lat="49.92451" lon="1.07947">
        <ele>11.2</ele>
        <time>2020-06-18T11:24:29Z</time>
      </trkpt>
      <trkpt lat="49.9245" lon="1.07947">
        <ele>11.2</ele>
        <time>2020-06-18T11:24:30Z</time>
      </trkpt>
      <trkpt lat="49.92448" lon="1.07949">
        <ele>11.2</ele>
        <time>2020-06-18T11:24:31Z</time>
      </trkpt>
      <trkpt lat="49.92447" lon="1.07953">
        <ele>11.2</ele>
        <time>2020-06-18T11:24:32Z</time>
      </trkpt>
      <trkpt lat="49.92447" lon="1.07955">
        <ele>11.2</ele>
        <time>2020-06-18T11:24:33Z</time>
      </trkpt>
      <trkpt lat="49.92445" lon="1.07958">
        <ele>11.2</ele>
        <time>2020-06-18T11:24:34Z</time>
      </trkpt>
      <trkpt lat="49.92442" lon="1.07963">
        <ele>11.1</ele>
        <time>2020-06-18T11:24:35Z</time>
      </trkpt>
      <trkpt lat="49.9244" lon="1.07969">
        <ele>10.9</ele>
        <time>2020-06-18T11:24:36Z</time>
      </trkpt>
      <trkpt lat="49.92439" lon="1.07974">
        <ele>10.9</ele>
        <time>2020-06-18T11:24:37Z</time>
      </trkpt>
      <trkpt lat="49.92438" lon="1.07979">
        <ele>10.8</ele>
        <time>2020-06-18T11:24:38Z</time>
      </trkpt>
      <trkpt lat="49.92438" lon="1.07984">
        <ele>10.5</ele>
        <time>2020-06-18T11:24:39Z</time>
      </trkpt>
      <trkpt lat="49.92439" lon="1.07988">
        <ele>10.4</ele>
        <time>2020-06-18T11:24:40Z</time>
      </trkpt>
      <trkpt lat="49.92441" lon="1.07994">
        <ele>10.3</ele>
        <time>2020-06-18T11:24:41Z</time>
      </trkpt>
      <trkpt lat="49.92441" lon="1.07999">
        <ele>10.1</ele>
        <time>2020-06-18T11:24:42Z</time>
      </trkpt>
      <trkpt lat="49.92441" lon="1.08004">
        <ele>9.9</ele>
        <time>2020-06-18T11:24:43Z</time>
      </trkpt>
      <trkpt lat="49.92441" lon="1.08009">
        <ele>9.7</ele>
        <time>2020-06-18T11:24:44Z</time>
      </trkpt>
      <trkpt lat="49.92441" lon="1.08015">
        <ele>9.2</ele>
        <time>2020-06-18T11:24:45Z</time>
      </trkpt>
      <trkpt lat="49.92442" lon="1.08021">
        <ele>9</ele>
        <time>2020-06-18T11:24:46Z</time>
      </trkpt>
      <trkpt lat="49.92441" lon="1.08028">
        <ele>8.5</ele>
        <time>2020-06-18T11:24:47Z</time>
      </trkpt>
      <trkpt lat="49.92438" lon="1.08035">
        <ele>8.1</ele>
        <time>2020-06-18T11:24:48Z</time>
      </trkpt>
      <trkpt lat="49.92437" lon="1.08042">
        <ele>8</ele>
        <time>2020-06-18T11:24:49Z</time>
      </trkpt>
      <trkpt lat="49.92435" lon="1.08047">
        <ele>7.8</ele>
        <time>2020-06-18T11:24:50Z</time>
      </trkpt>
      <trkpt lat="49.92434" lon="1.08054">
        <ele>7.5</ele>
        <time>2020-06-18T11:24:51Z</time>
      </trkpt>
      <trkpt lat="49.92432" lon="1.08059">
        <ele>7.4</ele>
        <time>2020-06-18T11:24:52Z</time>
      </trkpt>
      <trkpt lat="49.92431" lon="1.08064">
        <ele>7.4</ele>
        <time>2020-06-18T11:24:53Z</time>
      </trkpt>
      <trkpt lat="49.9243" lon="1.08069">
        <ele>7.3</ele>
        <time>2020-06-18T11:24:54Z</time>
      </trkpt>
      <trkpt lat="49.9243" lon="1.08074">
        <ele>7.2</ele>
        <time>2020-06-18T11:24:55Z</time>
      </trkpt>
      <trkpt lat="49.92429" lon="1.08079">
        <ele>7</ele>
        <time>2020-06-18T11:24:56Z</time>
      </trkpt>
      <trkpt lat="49.92428" lon="1.08084">
        <ele>7</ele>
        <time>2020-06-18T11:24:57Z</time>
      </trkpt>
      <trkpt lat="49.92428" lon="1.08089">
        <ele>6.9</ele>
        <time>2020-06-18T11:24:58Z</time>
      </trkpt>
      <trkpt lat="49.92428" lon="1.08091">
        <ele>6.8</ele>
        <time>2020-06-18T11:24:59Z</time>
      </trkpt>
      <trkpt lat="49.92427" lon="1.08096">
        <ele>6.7</ele>
        <time>2020-06-18T11:25:00Z</time>
      </trkpt>
      <trkpt lat="49.92426" lon="1.08097">
        <ele>6.7</ele>
        <time>2020-06-18T11:25:01Z</time>
      </trkpt>
      <trkpt lat="49.92426" lon="1.08099">
        <ele>6.7</ele>
        <time>2020-06-18T11:25:02Z</time>
      </trkpt>
      <trkpt lat="49.92425" lon="1.081">
        <ele>6.7</ele>
        <time>2020-06-18T11:25:03Z</time>
      </trkpt>
      <trkpt lat="49.92425" lon="1.081">
        <ele>6.7</ele>
        <time>2020-06-18T11:25:04Z</time>
      </trkpt>
      <trkpt lat="49.92425" lon="1.081">
        <ele>6.7</ele>
        <time>2020-06-18T11:25:05Z</time>
      </trkpt>
      <trkpt lat="49.92425" lon="1.08101">
        <ele>6.7</ele>
        <time>2020-06-18T11:25:06Z</time>
      </trkpt>
      <trkpt lat="49.92425" lon="1.08102">
        <ele>6.7</ele>
        <time>2020-06-18T11:25:07Z</time>
      </trkpt>
      <trkpt lat="49.92426" lon="1.08104">
        <ele>6.7</ele>
        <time>2020-06-18T11:25:08Z</time>
      </trkpt>
      <trkpt lat="49.92427" lon="1.08105">
        <ele>6.7</ele>
        <time>2020-06-18T11:25:09Z</time>
      </trkpt>
      <trkpt lat="49.92427" lon="1.08105">
        <ele>6.7</ele>
        <time>2020-06-18T11:25:10Z</time>
      </trkpt>
      <trkpt lat="49.92428" lon="1.08105">
        <ele>6.7</ele>
        <time>2020-06-18T11:25:11Z</time>
      </trkpt>
      <trkpt lat="49.92432" lon="1.08101">
        <ele>6.8</ele>
        <time>2020-06-18T11:25:14Z</time>
      </trkpt>
      <trkpt lat="49.92434" lon="1.081">
        <ele>6.8</ele>
        <time>2020-06-18T11:25:15Z</time>
      </trkpt>
      <trkpt lat="49.92436" lon="1.08097">
        <ele>6.8</ele>
        <time>2020-06-18T11:25:16Z</time>
      </trkpt>
      <trkpt lat="49.92438" lon="1.08094">
        <ele>6.8</ele>
        <time>2020-06-18T11:25:17Z</time>
      </trkpt>
      <trkpt lat="49.92439" lon="1.08093">
        <ele>6.8</ele>
        <time>2020-06-18T11:25:18Z</time>
      </trkpt>
      <trkpt lat="49.92442" lon="1.08091">
        <ele>6.8</ele>
        <time>2020-06-18T11:25:19Z</time>
      </trkpt>
      <trkpt lat="49.92443" lon="1.0809">
        <ele>6.8</ele>
        <time>2020-06-18T11:25:20Z</time>
      </trkpt>
      <trkpt lat="49.92447" lon="1.08088">
        <ele>6.8</ele>
        <time>2020-06-18T11:25:21Z</time>
      </trkpt>
      <trkpt lat="49.92449" lon="1.08086">
        <ele>6.8</ele>
        <time>2020-06-18T11:25:22Z</time>
      </trkpt>
      <trkpt lat="49.92452" lon="1.08085">
        <ele>6.9</ele>
        <time>2020-06-18T11:25:23Z</time>
      </trkpt>
      <trkpt lat="49.92455" lon="1.08083">
        <ele>6.9</ele>
        <time>2020-06-18T11:25:24Z</time>
      </trkpt>
      <trkpt lat="49.92458" lon="1.08082">
        <ele>6.9</ele>
        <time>2020-06-18T11:25:25Z</time>
      </trkpt>
      <trkpt lat="49.92459" lon="1.08081">
        <ele>6.9</ele>
        <time>2020-06-18T11:25:26Z</time>
      </trkpt>
      <trkpt lat="49.92462" lon="1.08078">
        <ele>6.9</ele>
        <time>2020-06-18T11:25:27Z</time>
      </trkpt>
      <trkpt lat="49.92462" lon="1.08077">
        <ele>6.9</ele>
        <time>2020-06-18T11:25:28Z</time>
      </trkpt>
      <trkpt lat="49.92464" lon="1.08072">
        <ele>6.9</ele>
        <time>2020-06-18T11:25:29Z</time>
      </trkpt>
      <trkpt lat="49.92465" lon="1.08071">
        <ele>6.9</ele>
        <time>2020-06-18T11:25:30Z</time>
      </trkpt>
      <trkpt lat="49.92467" lon="1.08067">
        <ele>6.9</ele>
        <time>2020-06-18T11:25:31Z</time>
      </trkpt>
      <trkpt lat="49.92467" lon="1.08066">
        <ele>6.9</ele>
        <time>2020-06-18T11:25:32Z</time>
      </trkpt>
      <trkpt lat="49.92468" lon="1.08064">
        <ele>7</ele>
        <time>2020-06-18T11:25:33Z</time>
      </trkpt>
      <trkpt lat="49.92469" lon="1.08063">
        <ele>7</ele>
        <time>2020-06-18T11:25:34Z</time>
      </trkpt>
      <trkpt lat="49.9247" lon="1.08064">
        <ele>7</ele>
        <time>2020-06-18T11:25:35Z</time>
      </trkpt>
      <trkpt lat="49.9247" lon="1.08064">
        <ele>7</ele>
        <time>2020-06-18T11:25:36Z</time>
      </trkpt>
      <trkpt lat="49.92472" lon="1.08064">
        <ele>7</ele>
        <time>2020-06-18T11:25:37Z</time>
      </trkpt>
      <trkpt lat="49.92474" lon="1.08065">
        <ele>7</ele>
        <time>2020-06-18T11:25:38Z</time>
      </trkpt>
      <trkpt lat="49.92477" lon="1.08064">
        <ele>7</ele>
        <time>2020-06-18T11:25:39Z</time>
      </trkpt>
      <trkpt lat="49.92478" lon="1.08063">
        <ele>7</ele>
        <time>2020-06-18T11:25:40Z</time>
      </trkpt>
      <trkpt lat="49.92481" lon="1.08061">
        <ele>7</ele>
        <time>2020-06-18T11:25:41Z</time>
      </trkpt>
      <trkpt lat="49.92483" lon="1.08059">
        <ele>7</ele>
        <time>2020-06-18T11:25:42Z</time>
      </trkpt>
      <trkpt lat="49.92487" lon="1.08057">
        <ele>7</ele>
        <time>2020-06-18T11:25:43Z</time>
      </trkpt>
      <trkpt lat="49.92488" lon="1.08057">
        <ele>7</ele>
        <time>2020-06-18T11:25:44Z</time>
      </trkpt>
      <trkpt lat="49.92491" lon="1.08054">
        <ele>7</ele>
        <time>2020-06-18T11:25:45Z</time>
      </trkpt>
      <trkpt lat="49.92493" lon="1.08052">
        <ele>7</ele>
        <time>2020-06-18T11:25:46Z</time>
      </trkpt>
      <trkpt lat="49.92496" lon="1.08049">
        <ele>7</ele>
        <time>2020-06-18T11:25:47Z</time>
      </trkpt>
      <trkpt lat="49.92497" lon="1.08048">
        <ele>7</ele>
        <time>2020-06-18T11:25:48Z</time>
      </trkpt>
      <trkpt lat="49.92498" lon="1.08046">
        <ele>7</ele>
        <time>2020-06-18T11:25:49Z</time>
      </trkpt>
      <trkpt lat="49.92499" lon="1.08045">
        <ele>7</ele>
        <time>2020-06-18T11:25:50Z</time>
      </trkpt>
      <trkpt lat="49.92501" lon="1.08044">
        <ele>7</ele>
        <time>2020-06-18T11:25:51Z</time>
      </trkpt>
      <trkpt lat="49.92502" lon="1.08044">
        <ele>7</ele>
        <time>2020-06-18T11:25:52Z</time>
      </trkpt>
      <trkpt lat="49.92503" lon="1.08042">
        <ele>7</ele>
        <time>2020-06-18T11:25:53Z</time>
      </trkpt>
      <trkpt lat="49.92503" lon="1.08042">
        <ele>7</ele>
        <time>2020-06-18T11:25:54Z</time>
      </trkpt>
      <trkpt lat="49.92503" lon="1.08042">
        <ele>7</ele>
        <time>2020-06-18T11:25:55Z</time>
      </trkpt>
      <trkpt lat="49.92504" lon="1.08041">
        <ele>7</ele>
        <time>2020-06-18T11:25:56Z</time>
      </trkpt>
      <trkpt lat="49.92504" lon="1.08041">
        <ele>7</ele>
        <time>2020-06-18T11:25:57Z</time>
      </trkpt>
      <trkpt lat="49.92504" lon="1.08041">
        <ele>7</ele>
        <time>2020-06-18T11:25:58Z</time>
      </trkpt>
      <trkpt lat="49.92505" lon="1.0804">
        <ele>7</ele>
        <time>2020-06-18T11:25:59Z</time>
      </trkpt>
      <trkpt lat="49.92506" lon="1.08038">
        <ele>7</ele>
        <time>2020-06-18T11:26:00Z</time>
      </trkpt>
      <trkpt lat="49.92507" lon="1.08037">
        <ele>7</ele>
        <time>2020-06-18T11:26:01Z</time>
      </trkpt>
      <trkpt lat="49.92508" lon="1.08036">
        <ele>7</ele>
        <time>2020-06-18T11:26:02Z</time>
      </trkpt>
      <trkpt lat="49.92512" lon="1.08035">
        <ele>7</ele>
        <time>2020-06-18T11:26:03Z</time>
      </trkpt>
      <trkpt lat="49.92512" lon="1.08034">
        <ele>7</ele>
        <time>2020-06-18T11:26:04Z</time>
      </trkpt>
      <trkpt lat="49.92515" lon="1.08033">
        <ele>7</ele>
        <time>2020-06-18T11:26:05Z</time>
      </trkpt>
      <trkpt lat="49.92516" lon="1.08033">
        <ele>7</ele>
        <time>2020-06-18T11:26:06Z</time>
      </trkpt>
      <trkpt lat="49.92519" lon="1.08031">
        <ele>7</ele>
        <time>2020-06-18T11:26:07Z</time>
      </trkpt>
      <trkpt lat="49.9252" lon="1.08031">
        <ele>7</ele>
        <time>2020-06-18T11:26:08Z</time>
      </trkpt>
      <trkpt lat="49.92523" lon="1.08029">
        <ele>7</ele>
        <time>2020-06-18T11:26:09Z</time>
      </trkpt>
      <trkpt lat="49.92524" lon="1.08028">
        <ele>7</ele>
        <time>2020-06-18T11:26:10Z</time>
      </trkpt>
      <trkpt lat="49.92526" lon="1.08027">
        <ele>7</ele>
        <time>2020-06-18T11:26:11Z</time>
      </trkpt>
      <trkpt lat="49.92527" lon="1.08025">
        <ele>7</ele>
        <time>2020-06-18T11:26:12Z</time>
      </trkpt>
      <trkpt lat="49.92528" lon="1.08024">
        <ele>7</ele>
        <time>2020-06-18T11:26:13Z</time>
      </trkpt>
      <trkpt lat="49.9253" lon="1.08022">
        <ele>7</ele>
        <time>2020-06-18T11:26:14Z</time>
      </trkpt>
      <trkpt lat="49.92533" lon="1.0802">
        <ele>7</ele>
        <time>2020-06-18T11:26:15Z</time>
      </trkpt>
      <trkpt lat="49.92534" lon="1.08019">
        <ele>7</ele>
        <time>2020-06-18T11:26:16Z</time>
      </trkpt>
      <trkpt lat="49.92536" lon="1.08018">
        <ele>7</ele>
        <time>2020-06-18T11:26:17Z</time>
      </trkpt>
      <trkpt lat="49.92537" lon="1.08017">
        <ele>7</ele>
        <time>2020-06-18T11:26:18Z</time>
      </trkpt>
      <trkpt lat="49.92537" lon="1.08016">
        <ele>7</ele>
        <time>2020-06-18T11:26:19Z</time>
      </trkpt>
      <trkpt lat="49.9254" lon="1.08014">
        <ele>7</ele>
        <time>2020-06-18T11:26:20Z</time>
      </trkpt>
      <trkpt lat="49.92541" lon="1.08014">
        <ele>7.1</ele>
        <time>2020-06-18T11:26:21Z</time>
      </trkpt>
      <trkpt lat="49.92541" lon="1.08012">
        <ele>7.1</ele>
        <time>2020-06-18T11:26:22Z</time>
      </trkpt>
      <trkpt lat="49.92542" lon="1.0801">
        <ele>7.1</ele>
        <time>2020-06-18T11:26:23Z</time>
      </trkpt>
      <trkpt lat="49.92544" lon="1.08009">
        <ele>7.1</ele>
        <time>2020-06-18T11:26:24Z</time>
      </trkpt>
      <trkpt lat="49.92546" lon="1.08008">
        <ele>6.9</ele>
        <time>2020-06-18T11:26:25Z</time>
      </trkpt>
      <trkpt lat="49.92549" lon="1.08007">
        <ele>6.9</ele>
        <time>2020-06-18T11:26:26Z</time>
      </trkpt>
      <trkpt lat="49.9255" lon="1.08006">
        <ele>6.9</ele>
        <time>2020-06-18T11:26:27Z</time>
      </trkpt>
      <trkpt lat="49.92554" lon="1.08005">
        <ele>6.9</ele>
        <time>2020-06-18T11:26:28Z</time>
      </trkpt>
      <trkpt lat="49.92556" lon="1.08004">
        <ele>6.9</ele>
        <time>2020-06-18T11:26:29Z</time>
      </trkpt>
      <trkpt lat="49.9256" lon="1.08002">
        <ele>6.9</ele>
        <time>2020-06-18T11:26:30Z</time>
      </trkpt>
      <trkpt lat="49.92561" lon="1.08001">
        <ele>6.9</ele>
        <time>2020-06-18T11:26:31Z</time>
      </trkpt>
      <trkpt lat="49.92564" lon="1.07998">
        <ele>6.9</ele>
        <time>2020-06-18T11:26:32Z</time>
      </trkpt>
      <trkpt lat="49.92564" lon="1.07998">
        <ele>6.9</ele>
        <time>2020-06-18T11:26:33Z</time>
      </trkpt>
      <trkpt lat="49.92568" lon="1.07996">
        <ele>6.9</ele>
        <time>2020-06-18T11:26:34Z</time>
      </trkpt>
      <trkpt lat="49.9257" lon="1.07995">
        <ele>6.9</ele>
        <time>2020-06-18T11:26:35Z</time>
      </trkpt>
      <trkpt lat="49.92573" lon="1.07992">
        <ele>6.9</ele>
        <time>2020-06-18T11:26:36Z</time>
      </trkpt>
      <trkpt lat="49.92574" lon="1.07992">
        <ele>6.9</ele>
        <time>2020-06-18T11:26:37Z</time>
      </trkpt>
      <trkpt lat="49.92575" lon="1.07991">
        <ele>6.9</ele>
        <time>2020-06-18T11:26:38Z</time>
      </trkpt>
      <trkpt lat="49.92576" lon="1.0799">
        <ele>6.9</ele>
        <time>2020-06-18T11:26:39Z</time>
      </trkpt>
      <trkpt lat="49.92579" lon="1.07987">
        <ele>6.9</ele>
        <time>2020-06-18T11:26:40Z</time>
      </trkpt>
      <trkpt lat="49.92581" lon="1.07986">
        <ele>6.9</ele>
        <time>2020-06-18T11:26:41Z</time>
      </trkpt>
      <trkpt lat="49.92583" lon="1.07983">
        <ele>6.9</ele>
        <time>2020-06-18T11:26:42Z</time>
      </trkpt>
      <trkpt lat="49.92584" lon="1.07982">
        <ele>7</ele>
        <time>2020-06-18T11:26:43Z</time>
      </trkpt>
      <trkpt lat="49.92587" lon="1.07979">
        <ele>7</ele>
        <time>2020-06-18T11:26:44Z</time>
      </trkpt>
      <trkpt lat="49.92588" lon="1.07978">
        <ele>7</ele>
        <time>2020-06-18T11:26:45Z</time>
      </trkpt>
      <trkpt lat="49.92592" lon="1.07977">
        <ele>7</ele>
        <time>2020-06-18T11:26:46Z</time>
      </trkpt>
      <trkpt lat="49.92593" lon="1.07976">
        <ele>7</ele>
        <time>2020-06-18T11:26:47Z</time>
      </trkpt>
      <trkpt lat="49.92594" lon="1.07975">
        <ele>7</ele>
        <time>2020-06-18T11:26:48Z</time>
      </trkpt>
      <trkpt lat="49.92596" lon="1.07974">
        <ele>7</ele>
        <time>2020-06-18T11:26:49Z</time>
      </trkpt>
      <trkpt lat="49.92597" lon="1.07972">
        <ele>7</ele>
        <time>2020-06-18T11:26:50Z</time>
      </trkpt>
      <trkpt lat="49.92598" lon="1.07971">
        <ele>7</ele>
        <time>2020-06-18T11:26:51Z</time>
      </trkpt>
      <trkpt lat="49.92601" lon="1.07969">
        <ele>7</ele>
        <time>2020-06-18T11:26:52Z</time>
      </trkpt>
      <trkpt lat="49.92602" lon="1.07969">
        <ele>7</ele>
        <time>2020-06-18T11:26:53Z</time>
      </trkpt>
      <trkpt lat="49.92604" lon="1.07968">
        <ele>7.1</ele>
        <time>2020-06-18T11:26:54Z</time>
      </trkpt>
      <trkpt lat="49.92605" lon="1.07966">
        <ele>7.1</ele>
        <time>2020-06-18T11:26:55Z</time>
      </trkpt>
      <trkpt lat="49.92607" lon="1.07966">
        <ele>7.1</ele>
        <time>2020-06-18T11:26:56Z</time>
      </trkpt>
      <trkpt lat="49.92608" lon="1.07964">
        <ele>7.1</ele>
        <time>2020-06-18T11:26:57Z</time>
      </trkpt>
      <trkpt lat="49.9261" lon="1.07963">
        <ele>7.1</ele>
        <time>2020-06-18T11:26:58Z</time>
      </trkpt>
      <trkpt lat="49.92611" lon="1.07962">
        <ele>7.1</ele>
        <time>2020-06-18T11:26:59Z</time>
      </trkpt>
      <trkpt lat="49.92615" lon="1.07962">
        <ele>7.2</ele>
        <time>2020-06-18T11:27:00Z</time>
      </trkpt>
      <trkpt lat="49.92615" lon="1.07962">
        <ele>7.2</ele>
        <time>2020-06-18T11:27:01Z</time>
      </trkpt>
      <trkpt lat="49.92617" lon="1.07961">
        <ele>7.2</ele>
        <time>2020-06-18T11:27:02Z</time>
      </trkpt>
      <trkpt lat="49.92618" lon="1.0796">
        <ele>7.2</ele>
        <time>2020-06-18T11:27:03Z</time>
      </trkpt>
      <trkpt lat="49.92619" lon="1.0796">
        <ele>7.2</ele>
        <time>2020-06-18T11:27:04Z</time>
      </trkpt>
      <trkpt lat="49.92621" lon="1.07959">
        <ele>7.2</ele>
        <time>2020-06-18T11:27:05Z</time>
      </trkpt>
      <trkpt lat="49.92623" lon="1.07958">
        <ele>7.2</ele>
        <time>2020-06-18T11:27:06Z</time>
      </trkpt>
      <trkpt lat="49.92624" lon="1.07957">
        <ele>7.2</ele>
        <time>2020-06-18T11:27:07Z</time>
      </trkpt>
      <trkpt lat="49.92624" lon="1.07955">
        <ele>7.3</ele>
        <time>2020-06-18T11:27:08Z</time>
      </trkpt>
      <trkpt lat="49.92626" lon="1.07954">
        <ele>7.4</ele>
        <time>2020-06-18T11:27:09Z</time>
      </trkpt>
      <trkpt lat="49.92627" lon="1.07953">
        <ele>7.4</ele>
        <time>2020-06-18T11:27:10Z</time>
      </trkpt>
      <trkpt lat="49.92629" lon="1.07952">
        <ele>7.4</ele>
        <time>2020-06-18T11:27:11Z</time>
      </trkpt>
      <trkpt lat="49.92631" lon="1.07953">
        <ele>7.4</ele>
        <time>2020-06-18T11:27:12Z</time>
      </trkpt>
      <trkpt lat="49.92632" lon="1.07953">
        <ele>7.4</ele>
        <time>2020-06-18T11:27:13Z</time>
      </trkpt>
      <trkpt lat="49.92634" lon="1.07953">
        <ele>7.4</ele>
        <time>2020-06-18T11:27:14Z</time>
      </trkpt>
      <trkpt lat="49.92636" lon="1.07953">
        <ele>7.4</ele>
        <time>2020-06-18T11:27:15Z</time>
      </trkpt>
      <trkpt lat="49.92638" lon="1.0795">
        <ele>7.6</ele>
        <time>2020-06-18T11:27:16Z</time>
      </trkpt>
      <trkpt lat="49.92639" lon="1.07949">
        <ele>7.6</ele>
        <time>2020-06-18T11:27:17Z</time>
      </trkpt>
      <trkpt lat="49.92642" lon="1.07948">
        <ele>7.6</ele>
        <time>2020-06-18T11:27:18Z</time>
      </trkpt>
      <trkpt lat="49.92643" lon="1.07947">
        <ele>7.6</ele>
        <time>2020-06-18T11:27:19Z</time>
      </trkpt>
      <trkpt lat="49.92644" lon="1.07946">
        <ele>7.5</ele>
        <time>2020-06-18T11:27:20Z</time>
      </trkpt>
      <trkpt lat="49.92645" lon="1.07945">
        <ele>7.5</ele>
        <time>2020-06-18T11:27:21Z</time>
      </trkpt>
      <trkpt lat="49.92647" lon="1.07943">
        <ele>7.5</ele>
        <time>2020-06-18T11:27:22Z</time>
      </trkpt>
      <trkpt lat="49.92648" lon="1.07942">
        <ele>7.5</ele>
        <time>2020-06-18T11:27:23Z</time>
      </trkpt>
      <trkpt lat="49.92648" lon="1.07941">
        <ele>7.5</ele>
        <time>2020-06-18T11:27:24Z</time>
      </trkpt>
      <trkpt lat="49.9265" lon="1.07939">
        <ele>7.5</ele>
        <time>2020-06-18T11:27:25Z</time>
      </trkpt>
      <trkpt lat="49.92651" lon="1.07937">
        <ele>7.5</ele>
        <time>2020-06-18T11:27:26Z</time>
      </trkpt>
      <trkpt lat="49.92652" lon="1.07937">
        <ele>7.5</ele>
        <time>2020-06-18T11:27:27Z</time>
      </trkpt>
      <trkpt lat="49.92653" lon="1.07935">
        <ele>7.5</ele>
        <time>2020-06-18T11:27:28Z</time>
      </trkpt>
      <trkpt lat="49.92655" lon="1.07934">
        <ele>7.5</ele>
        <time>2020-06-18T11:27:29Z</time>
      </trkpt>
      <trkpt lat="49.92656" lon="1.07933">
        <ele>7.5</ele>
        <time>2020-06-18T11:27:30Z</time>
      </trkpt>
      <trkpt lat="49.92656" lon="1.07932">
        <ele>7.5</ele>
        <time>2020-06-18T11:27:31Z</time>
      </trkpt>
      <trkpt lat="49.92658" lon="1.07932">
        <ele>7.5</ele>
        <time>2020-06-18T11:27:32Z</time>
      </trkpt>
      <trkpt lat="49.9266" lon="1.07933">
        <ele>7.5</ele>
        <time>2020-06-18T11:27:33Z</time>
      </trkpt>
      <trkpt lat="49.92663" lon="1.07932">
        <ele>7.5</ele>
        <time>2020-06-18T11:27:34Z</time>
      </trkpt>
      <trkpt lat="49.92663" lon="1.07932">
        <ele>7.5</ele>
        <time>2020-06-18T11:27:35Z</time>
      </trkpt>
      <trkpt lat="49.92664" lon="1.07931">
        <ele>7.5</ele>
        <time>2020-06-18T11:27:36Z</time>
      </trkpt>
      <trkpt lat="49.92665" lon="1.0793">
        <ele>7.5</ele>
        <time>2020-06-18T11:27:37Z</time>
      </trkpt>
      <trkpt lat="49.92665" lon="1.07928">
        <ele>7.5</ele>
        <time>2020-06-18T11:27:38Z</time>
      </trkpt>
      <trkpt lat="49.92667" lon="1.07927">
        <ele>7.5</ele>
        <time>2020-06-18T11:27:39Z</time>
      </trkpt>
      <trkpt lat="49.92668" lon="1.07926">
        <ele>7.5</ele>
        <time>2020-06-18T11:27:40Z</time>
      </trkpt>
      <trkpt lat="49.92669" lon="1.07925">
        <ele>7.5</ele>
        <time>2020-06-18T11:27:41Z</time>
      </trkpt>
      <trkpt lat="49.9267" lon="1.07924">
        <ele>7.5</ele>
        <time>2020-06-18T11:27:42Z</time>
      </trkpt>
      <trkpt lat="49.9267" lon="1.07924">
        <ele>7.5</ele>
        <time>2020-06-18T11:27:43Z</time>
      </trkpt>
      <trkpt lat="49.92671" lon="1.07923">
        <ele>7.5</ele>
        <time>2020-06-18T11:27:44Z</time>
      </trkpt>
      <trkpt lat="49.92671" lon="1.0792">
        <ele>7.5</ele>
        <time>2020-06-18T11:27:45Z</time>
      </trkpt>
      <trkpt lat="49.92671" lon="1.0792">
        <ele>7.5</ele>
        <time>2020-06-18T11:27:46Z</time>
      </trkpt>
      <trkpt lat="49.92672" lon="1.07919">
        <ele>7.5</ele>
        <time>2020-06-18T11:27:47Z</time>
      </trkpt>
      <trkpt lat="49.92673" lon="1.07919">
        <ele>7.5</ele>
        <time>2020-06-18T11:27:48Z</time>
      </trkpt>
      <trkpt lat="49.92674" lon="1.07919">
        <ele>7.5</ele>
        <time>2020-06-18T11:27:49Z</time>
      </trkpt>
      <trkpt lat="49.92674" lon="1.0792">
        <ele>7.5</ele>
        <time>2020-06-18T11:27:50Z</time>
      </trkpt>
      <trkpt lat="49.92675" lon="1.07921">
        <ele>7.5</ele>
        <time>2020-06-18T11:27:51Z</time>
      </trkpt>
      <trkpt lat="49.92676" lon="1.07924">
        <ele>7.5</ele>
        <time>2020-06-18T11:27:52Z</time>
      </trkpt>
      <trkpt lat="49.92676" lon="1.07924">
        <ele>7.5</ele>
        <time>2020-06-18T11:27:53Z</time>
      </trkpt>
      <trkpt lat="49.92677" lon="1.07925">
        <ele>7.6</ele>
        <time>2020-06-18T11:27:54Z</time>
      </trkpt>
      <trkpt lat="49.92677" lon="1.07926">
        <ele>7.6</ele>
        <time>2020-06-18T11:27:55Z</time>
      </trkpt>
      <trkpt lat="49.92678" lon="1.07927">
        <ele>7.6</ele>
        <time>2020-06-18T11:27:56Z</time>
      </trkpt>
      <trkpt lat="49.92679" lon="1.07926">
        <ele>7.6</ele>
        <time>2020-06-18T11:27:57Z</time>
      </trkpt>
      <trkpt lat="49.92679" lon="1.07926">
        <ele>7.6</ele>
        <time>2020-06-18T11:27:58Z</time>
      </trkpt>
      <trkpt lat="49.92679" lon="1.07925">
        <ele>7.6</ele>
        <time>2020-06-18T11:27:59Z</time>
      </trkpt>
      <trkpt lat="49.92681" lon="1.07926">
        <ele>7.6</ele>
        <time>2020-06-18T11:28:00Z</time>
      </trkpt>
      <trkpt lat="49.92683" lon="1.07925">
        <ele>7.6</ele>
        <time>2020-06-18T11:28:01Z</time>
      </trkpt>
      <trkpt lat="49.92684" lon="1.07924">
        <ele>7.6</ele>
        <time>2020-06-18T11:28:02Z</time>
      </trkpt>
      <trkpt lat="49.92686" lon="1.07924">
        <ele>7.6</ele>
        <time>2020-06-18T11:28:03Z</time>
      </trkpt>
      <trkpt lat="49.9269" lon="1.07922">
        <ele>7.6</ele>
        <time>2020-06-18T11:28:04Z</time>
      </trkpt>
      <trkpt lat="49.92691" lon="1.07922">
        <ele>7.7</ele>
        <time>2020-06-18T11:28:05Z</time>
      </trkpt>
      <trkpt lat="49.92693" lon="1.07923">
        <ele>7.7</ele>
        <time>2020-06-18T11:28:06Z</time>
      </trkpt>
      <trkpt lat="49.92694" lon="1.07922">
        <ele>7.7</ele>
        <time>2020-06-18T11:28:07Z</time>
      </trkpt>
      <trkpt lat="49.92695" lon="1.07923">
        <ele>7.7</ele>
        <time>2020-06-18T11:28:08Z</time>
      </trkpt>
      <trkpt lat="49.92696" lon="1.07922">
        <ele>7.7</ele>
        <time>2020-06-18T11:28:09Z</time>
      </trkpt>
      <trkpt lat="49.92697" lon="1.07921">
        <ele>7.7</ele>
        <time>2020-06-18T11:28:10Z</time>
      </trkpt>
      <trkpt lat="49.92698" lon="1.0792">
        <ele>7.7</ele>
        <time>2020-06-18T11:28:11Z</time>
      </trkpt>
      <trkpt lat="49.92699" lon="1.07919">
        <ele>7.7</ele>
        <time>2020-06-18T11:28:12Z</time>
      </trkpt>
      <trkpt lat="49.927" lon="1.07921">
        <ele>7.7</ele>
        <time>2020-06-18T11:28:13Z</time>
      </trkpt>
      <trkpt lat="49.927" lon="1.07922">
        <ele>7.7</ele>
        <time>2020-06-18T11:28:14Z</time>
      </trkpt>
      <trkpt lat="49.92701" lon="1.07922">
        <ele>7.7</ele>
        <time>2020-06-18T11:28:15Z</time>
      </trkpt>
      <trkpt lat="49.92701" lon="1.07922">
        <ele>7.7</ele>
        <time>2020-06-18T11:28:16Z</time>
      </trkpt>
      <trkpt lat="49.92702" lon="1.07922">
        <ele>7.7</ele>
        <time>2020-06-18T11:28:17Z</time>
      </trkpt>
      <trkpt lat="49.92702" lon="1.07921">
        <ele>7.7</ele>
        <time>2020-06-18T11:28:18Z</time>
      </trkpt>
      <trkpt lat="49.92702" lon="1.07921">
        <ele>7.7</ele>
        <time>2020-06-18T11:28:19Z</time>
      </trkpt>
      <trkpt lat="49.92702" lon="1.0792">
        <ele>7.7</ele>
        <time>2020-06-18T11:28:20Z</time>
      </trkpt>
      <trkpt lat="49.92702" lon="1.0792">
        <ele>7.7</ele>
        <time>2020-06-18T11:28:21Z</time>
      </trkpt>
      <trkpt lat="49.92702" lon="1.0792">
        <ele>7.7</ele>
        <time>2020-06-18T11:28:22Z</time>
      </trkpt>
      <trkpt lat="49.92702" lon="1.0792">
        <ele>7.7</ele>
        <time>2020-06-18T11:28:23Z</time>
      </trkpt>
      <trkpt lat="49.92703" lon="1.0792">
        <ele>7.7</ele>
        <time>2020-06-18T11:28:24Z</time>
      </trkpt>
      <trkpt lat="49.92702" lon="1.0792">
        <ele>7.7</ele>
        <time>2020-06-18T11:28:25Z</time>
      </trkpt>
      <trkpt lat="49.92702" lon="1.07919">
        <ele>7.7</ele>
        <time>2020-06-18T11:28:26Z</time>
      </trkpt>
      <trkpt lat="49.92703" lon="1.07919">
        <ele>7.8</ele>
        <time>2020-06-18T11:28:27Z</time>
      </trkpt>
      <trkpt lat="49.92703" lon="1.07918">
        <ele>7.8</ele>
        <time>2020-06-18T11:28:28Z</time>
      </trkpt>
      <trkpt lat="49.92703" lon="1.07917">
        <ele>7.8</ele>
        <time>2020-06-18T11:28:29Z</time>
      </trkpt>
      <trkpt lat="49.92703" lon="1.07916">
        <ele>7.8</ele>
        <time>2020-06-18T11:28:30Z</time>
      </trkpt>
      <trkpt lat="49.92704" lon="1.07915">
        <ele>7.8</ele>
        <time>2020-06-18T11:28:31Z</time>
      </trkpt>
      <trkpt lat="49.92704" lon="1.07914">
        <ele>7.8</ele>
        <time>2020-06-18T11:28:32Z</time>
      </trkpt>
      <trkpt lat="49.92703" lon="1.07913">
        <ele>7.8</ele>
        <time>2020-06-18T11:28:33Z</time>
      </trkpt>
      <trkpt lat="49.92703" lon="1.07913">
        <ele>7.8</ele>
        <time>2020-06-18T11:28:34Z</time>
      </trkpt>
      <trkpt lat="49.92704" lon="1.07912">
        <ele>7.8</ele>
        <time>2020-06-18T11:28:35Z</time>
      </trkpt>
      <trkpt lat="49.92704" lon="1.07912">
        <ele>7.8</ele>
        <time>2020-06-18T11:28:36Z</time>
      </trkpt>
      <trkpt lat="49.92704" lon="1.07911">
        <ele>7.8</ele>
        <time>2020-06-18T11:28:37Z</time>
      </trkpt>
      <trkpt lat="49.92704" lon="1.0791">
        <ele>7.8</ele>
        <time>2020-06-18T11:28:38Z</time>
      </trkpt>
      <trkpt lat="49.92705" lon="1.07908">
        <ele>7.8</ele>
        <time>2020-06-18T11:28:39Z</time>
      </trkpt>
      <trkpt lat="49.92705" lon="1.07907">
        <ele>7.8</ele>
        <time>2020-06-18T11:28:40Z</time>
      </trkpt>
      <trkpt lat="49.92705" lon="1.07905">
        <ele>7.8</ele>
        <time>2020-06-18T11:28:41Z</time>
      </trkpt>
      <trkpt lat="49.92705" lon="1.07904">
        <ele>7.8</ele>
        <time>2020-06-18T11:28:42Z</time>
      </trkpt>
      <trkpt lat="49.92706" lon="1.07903">
        <ele>7.8</ele>
        <time>2020-06-18T11:28:43Z</time>
      </trkpt>
      <trkpt lat="49.92706" lon="1.07902">
        <ele>7.8</ele>
        <time>2020-06-18T11:28:44Z</time>
      </trkpt>
      <trkpt lat="49.92706" lon="1.07901">
        <ele>7.8</ele>
        <time>2020-06-18T11:28:45Z</time>
      </trkpt>
      <trkpt lat="49.92706" lon="1.07901">
        <ele>7.8</ele>
        <time>2020-06-18T11:28:46Z</time>
      </trkpt>
      <trkpt lat="49.92706" lon="1.079">
        <ele>7.8</ele>
        <time>2020-06-18T11:28:47Z</time>
      </trkpt>
      <trkpt lat="49.92706" lon="1.07899">
        <ele>7.8</ele>
        <time>2020-06-18T11:28:48Z</time>
      </trkpt>
      <trkpt lat="49.92706" lon="1.07898">
        <ele>7.9</ele>
        <time>2020-06-18T11:28:49Z</time>
      </trkpt>
      <trkpt lat="49.92706" lon="1.07898">
        <ele>7.9</ele>
        <time>2020-06-18T11:28:50Z</time>
      </trkpt>
      <trkpt lat="49.92706" lon="1.07897">
        <ele>7.9</ele>
        <time>2020-06-18T11:28:51Z</time>
      </trkpt>
      <trkpt lat="49.92706" lon="1.07896">
        <ele>7.9</ele>
        <time>2020-06-18T11:28:52Z</time>
      </trkpt>
      <trkpt lat="49.92707" lon="1.07896">
        <ele>7.9</ele>
        <time>2020-06-18T11:28:53Z</time>
      </trkpt>
      <trkpt lat="49.92706" lon="1.07895">
        <ele>7.9</ele>
        <time>2020-06-18T11:28:54Z</time>
      </trkpt>
      <trkpt lat="49.92706" lon="1.07895">
        <ele>7.9</ele>
        <time>2020-06-18T11:28:55Z</time>
      </trkpt>
      <trkpt lat="49.92706" lon="1.07895">
        <ele>7.9</ele>
        <time>2020-06-18T11:28:56Z</time>
      </trkpt>
      <trkpt lat="49.92706" lon="1.07895">
        <ele>7.9</ele>
        <time>2020-06-18T11:28:57Z</time>
      </trkpt>
      <trkpt lat="49.92706" lon="1.07895">
        <ele>7.9</ele>
        <time>2020-06-18T11:28:58Z</time>
      </trkpt>
      <trkpt lat="49.92707" lon="1.07895">
        <ele>7.9</ele>
        <time>2020-06-18T11:28:59Z</time>
      </trkpt>
      <trkpt lat="49.92707" lon="1.07895">
        <ele>7.9</ele>
        <time>2020-06-18T11:29:00Z</time>
      </trkpt>
      <trkpt lat="49.92709" lon="1.07895">
        <ele>7.9</ele>
        <time>2020-06-18T11:29:01Z</time>
      </trkpt>
      <trkpt lat="49.92712" lon="1.07896">
        <ele>7.9</ele>
        <time>2020-06-18T11:29:02Z</time>
      </trkpt>
      <trkpt lat="49.92715" lon="1.079">
        <ele>7.9</ele>
        <time>2020-06-18T11:29:03Z</time>
      </trkpt>
      <trkpt lat="49.92716" lon="1.07902">
        <ele>7.9</ele>
        <time>2020-06-18T11:29:04Z</time>
      </trkpt>
      <trkpt lat="49.92719" lon="1.07906">
        <ele>8</ele>
        <time>2020-06-18T11:29:05Z</time>
      </trkpt>
      <trkpt lat="49.92718" lon="1.07906">
        <ele>8</ele>
        <time>2020-06-18T11:29:06Z</time>
      </trkpt>
      <trkpt lat="49.92719" lon="1.07909">
        <ele>8</ele>
        <time>2020-06-18T11:29:07Z</time>
      </trkpt>
      <trkpt lat="49.92719" lon="1.0791">
        <ele>8</ele>
        <time>2020-06-18T11:29:08Z</time>
      </trkpt>
      <trkpt lat="49.92719" lon="1.07913">
        <ele>8</ele>
        <time>2020-06-18T11:29:09Z</time>
      </trkpt>
      <trkpt lat="49.92718" lon="1.07914">
        <ele>8</ele>
        <time>2020-06-18T11:29:10Z</time>
      </trkpt>
      <trkpt lat="49.92717" lon="1.07915">
        <ele>8</ele>
        <time>2020-06-18T11:29:11Z</time>
      </trkpt>
      <trkpt lat="49.92716" lon="1.07916">
        <ele>8</ele>
        <time>2020-06-18T11:29:12Z</time>
      </trkpt>
      <trkpt lat="49.92715" lon="1.07916">
        <ele>8</ele>
        <time>2020-06-18T11:29:13Z</time>
      </trkpt>
      <trkpt lat="49.92714" lon="1.07916">
        <ele>8</ele>
        <time>2020-06-18T11:29:14Z</time>
      </trkpt>
      <trkpt lat="49.92714" lon="1.07917">
        <ele>8</ele>
        <time>2020-06-18T11:29:15Z</time>
      </trkpt>
      <trkpt lat="49.92713" lon="1.07917">
        <ele>8</ele>
        <time>2020-06-18T11:29:16Z</time>
      </trkpt>
      <trkpt lat="49.92712" lon="1.07917">
        <ele>8</ele>
        <time>2020-06-18T11:29:17Z</time>
      </trkpt>
      <trkpt lat="49.92711" lon="1.07917">
        <ele>8</ele>
        <time>2020-06-18T11:29:18Z</time>
      </trkpt>
      <trkpt lat="49.9271" lon="1.07916">
        <ele>8</ele>
        <time>2020-06-18T11:29:19Z</time>
      </trkpt>
      <trkpt lat="49.9271" lon="1.07916">
        <ele>8</ele>
        <time>2020-06-18T11:29:20Z</time>
      </trkpt>
      <trkpt lat="49.92709" lon="1.07916">
        <ele>8</ele>
        <time>2020-06-18T11:29:21Z</time>
      </trkpt>
      <trkpt lat="49.92709" lon="1.07916">
        <ele>8</ele>
        <time>2020-06-18T11:29:22Z</time>
      </trkpt>
      <trkpt lat="49.92708" lon="1.07916">
        <ele>8</ele>
        <time>2020-06-18T11:29:23Z</time>
      </trkpt>
      <trkpt lat="49.92708" lon="1.07916">
        <ele>8</ele>
        <time>2020-06-18T11:29:24Z</time>
      </trkpt>
      <trkpt lat="49.92707" lon="1.07916">
        <ele>8.1</ele>
        <time>2020-06-18T11:29:25Z</time>
      </trkpt>
      <trkpt lat="49.92706" lon="1.07915">
        <ele>8.1</ele>
        <time>2020-06-18T11:29:26Z</time>
      </trkpt>
      <trkpt lat="49.92706" lon="1.07915">
        <ele>8.1</ele>
        <time>2020-06-18T11:29:27Z</time>
      </trkpt>
      <trkpt lat="49.92705" lon="1.07914">
        <ele>8.1</ele>
        <time>2020-06-18T11:29:28Z</time>
      </trkpt>
      <trkpt lat="49.92705" lon="1.07913">
        <ele>8.1</ele>
        <time>2020-06-18T11:29:29Z</time>
      </trkpt>
      <trkpt lat="49.92705" lon="1.07912">
        <ele>8.1</ele>
        <time>2020-06-18T11:29:30Z</time>
      </trkpt>
      <trkpt lat="49.92705" lon="1.07911">
        <ele>8.1</ele>
        <time>2020-06-18T11:29:31Z</time>
      </trkpt>
      <trkpt lat="49.92705" lon="1.07909">
        <ele>8.1</ele>
        <time>2020-06-18T11:29:32Z</time>
      </trkpt>
      <trkpt lat="49.92706" lon="1.07908">
        <ele>8.1</ele>
        <time>2020-06-18T11:29:33Z</time>
      </trkpt>
      <trkpt lat="49.92707" lon="1.07907">
        <ele>8.1</ele>
        <time>2020-06-18T11:29:34Z</time>
      </trkpt>
      <trkpt lat="49.92707" lon="1.07905">
        <ele>8.1</ele>
        <time>2020-06-18T11:29:35Z</time>
      </trkpt>
      <trkpt lat="49.92707" lon="1.07903">
        <ele>8.1</ele>
        <time>2020-06-18T11:29:36Z</time>
      </trkpt>
      <trkpt lat="49.92707" lon="1.07902">
        <ele>8.1</ele>
        <time>2020-06-18T11:29:37Z</time>
      </trkpt>
      <trkpt lat="49.92707" lon="1.07901">
        <ele>8.1</ele>
        <time>2020-06-18T11:29:38Z</time>
      </trkpt>
      <trkpt lat="49.92707" lon="1.079">
        <ele>8.1</ele>
        <time>2020-06-18T11:29:39Z</time>
      </trkpt>
      <trkpt lat="49.92707" lon="1.07899">
        <ele>8.1</ele>
        <time>2020-06-18T11:29:40Z</time>
      </trkpt>
      <trkpt lat="49.92708" lon="1.07896">
        <ele>8.1</ele>
        <time>2020-06-18T11:29:41Z</time>
      </trkpt>
      <trkpt lat="49.92708" lon="1.07895">
        <ele>8.4</ele>
        <time>2020-06-18T11:29:42Z</time>
      </trkpt>
      <trkpt lat="49.92709" lon="1.07894">
        <ele>8.4</ele>
        <time>2020-06-18T11:29:43Z</time>
      </trkpt>
      <trkpt lat="49.92709" lon="1.07893">
        <ele>8.4</ele>
        <time>2020-06-18T11:29:44Z</time>
      </trkpt>
      <trkpt lat="49.92709" lon="1.07891">
        <ele>8.4</ele>
        <time>2020-06-18T11:29:45Z</time>
      </trkpt>
      <trkpt lat="49.9271" lon="1.07889">
        <ele>8.4</ele>
        <time>2020-06-18T11:29:46Z</time>
      </trkpt>
      <trkpt lat="49.9271" lon="1.07888">
        <ele>8.4</ele>
        <time>2020-06-18T11:29:47Z</time>
      </trkpt>
      <trkpt lat="49.9271" lon="1.07887">
        <ele>8.4</ele>
        <time>2020-06-18T11:29:48Z</time>
      </trkpt>
      <trkpt lat="49.9271" lon="1.07885">
        <ele>8.4</ele>
        <time>2020-06-18T11:29:49Z</time>
      </trkpt>
      <trkpt lat="49.92711" lon="1.07882">
        <ele>8.4</ele>
        <time>2020-06-18T11:29:50Z</time>
      </trkpt>
      <trkpt lat="49.92711" lon="1.0788">
        <ele>8.4</ele>
        <time>2020-06-18T11:29:51Z</time>
      </trkpt>
      <trkpt lat="49.92712" lon="1.07879">
        <ele>8.4</ele>
        <time>2020-06-18T11:29:52Z</time>
      </trkpt>
      <trkpt lat="49.92711" lon="1.07881">
        <ele>8.4</ele>
        <time>2020-06-18T11:29:53Z</time>
      </trkpt>
      <trkpt lat="49.92712" lon="1.07882">
        <ele>8.4</ele>
        <time>2020-06-18T11:29:54Z</time>
      </trkpt>
      <trkpt lat="49.92712" lon="1.07882">
        <ele>8.4</ele>
        <time>2020-06-18T11:29:55Z</time>
      </trkpt>
      <trkpt lat="49.92712" lon="1.07881">
        <ele>8.4</ele>
        <time>2020-06-18T11:29:56Z</time>
      </trkpt>
      <trkpt lat="49.92712" lon="1.07882">
        <ele>8.4</ele>
        <time>2020-06-18T11:29:57Z</time>
      </trkpt>
      <trkpt lat="49.92713" lon="1.07883">
        <ele>8.4</ele>
        <time>2020-06-18T11:29:58Z</time>
      </trkpt>
      <trkpt lat="49.92716" lon="1.07887">
        <ele>8.4</ele>
        <time>2020-06-18T11:29:59Z</time>
      </trkpt>
      <trkpt lat="49.92717" lon="1.07891">
        <ele>8.4</ele>
        <time>2020-06-18T11:30:00Z</time>
      </trkpt>
      <trkpt lat="49.92718" lon="1.07892">
        <ele>8.4</ele>
        <time>2020-06-18T11:30:01Z</time>
      </trkpt>
      <trkpt lat="49.92719" lon="1.07891">
        <ele>8.4</ele>
        <time>2020-06-18T11:30:02Z</time>
      </trkpt>
      <trkpt lat="49.92719" lon="1.07891">
        <ele>8.4</ele>
        <time>2020-06-18T11:30:03Z</time>
      </trkpt>
      <trkpt lat="49.92719" lon="1.07891">
        <ele>8.4</ele>
        <time>2020-06-18T11:30:04Z</time>
      </trkpt>
      <trkpt lat="49.92731" lon="1.07898">
        <ele>8.7</ele>
        <time>2020-06-18T11:30:20Z</time>
      </trkpt>
      <trkpt lat="49.92731" lon="1.07899">
        <ele>8.7</ele>
        <time>2020-06-18T11:30:21Z</time>
      </trkpt>
      <trkpt lat="49.92731" lon="1.07901">
        <ele>8.7</ele>
        <time>2020-06-18T11:30:22Z</time>
      </trkpt>
      <trkpt lat="49.92731" lon="1.07902">
        <ele>8.7</ele>
        <time>2020-06-18T11:30:23Z</time>
      </trkpt>
      <trkpt lat="49.92732" lon="1.07905">
        <ele>8.7</ele>
        <time>2020-06-18T11:30:24Z</time>
      </trkpt>
      <trkpt lat="49.92731" lon="1.07907">
        <ele>8.7</ele>
        <time>2020-06-18T11:30:25Z</time>
      </trkpt>
      <trkpt lat="49.92732" lon="1.07911">
        <ele>8.7</ele>
        <time>2020-06-18T11:30:26Z</time>
      </trkpt>
      <trkpt lat="49.92732" lon="1.07913">
        <ele>8.5</ele>
        <time>2020-06-18T11:30:27Z</time>
      </trkpt>
      <trkpt lat="49.92734" lon="1.07917">
        <ele>8.5</ele>
        <time>2020-06-18T11:30:28Z</time>
      </trkpt>
      <trkpt lat="49.92735" lon="1.07922">
        <ele>8.5</ele>
        <time>2020-06-18T11:30:29Z</time>
      </trkpt>
      <trkpt lat="49.92737" lon="1.07926">
        <ele>8.3</ele>
        <time>2020-06-18T11:30:30Z</time>
      </trkpt>
      <trkpt lat="49.92737" lon="1.07927">
        <ele>8.3</ele>
        <time>2020-06-18T11:30:31Z</time>
      </trkpt>
      <trkpt lat="49.9274" lon="1.0793">
        <ele>8.3</ele>
        <time>2020-06-18T11:30:32Z</time>
      </trkpt>
      <trkpt lat="49.92741" lon="1.07932">
        <ele>8.2</ele>
        <time>2020-06-18T11:30:33Z</time>
      </trkpt>
      <trkpt lat="49.92743" lon="1.07935">
        <ele>8.2</ele>
        <time>2020-06-18T11:30:34Z</time>
      </trkpt>
      <trkpt lat="49.92745" lon="1.0794">
        <ele>8.2</ele>
        <time>2020-06-18T11:30:35Z</time>
      </trkpt>
      <trkpt lat="49.92746" lon="1.07942">
        <ele>8.1</ele>
        <time>2020-06-18T11:30:36Z</time>
      </trkpt>
      <trkpt lat="49.92748" lon="1.07946">
        <ele>8.1</ele>
        <time>2020-06-18T11:30:37Z</time>
      </trkpt>
      <trkpt lat="49.9275" lon="1.07951">
        <ele>8</ele>
        <time>2020-06-18T11:30:38Z</time>
      </trkpt>
      <trkpt lat="49.92751" lon="1.07954">
        <ele>8</ele>
        <time>2020-06-18T11:30:39Z</time>
      </trkpt>
      <trkpt lat="49.92751" lon="1.07956">
        <ele>8</ele>
        <time>2020-06-18T11:30:40Z</time>
      </trkpt>
      <trkpt lat="49.92753" lon="1.07961">
        <ele>7.9</ele>
        <time>2020-06-18T11:30:41Z</time>
      </trkpt>
      <trkpt lat="49.92754" lon="1.07963">
        <ele>7.9</ele>
        <time>2020-06-18T11:30:42Z</time>
      </trkpt>
      <trkpt lat="49.92755" lon="1.07966">
        <ele>7.8</ele>
        <time>2020-06-18T11:30:43Z</time>
      </trkpt>
      <trkpt lat="49.92756" lon="1.07967">
        <ele>7.8</ele>
        <time>2020-06-18T11:30:44Z</time>
      </trkpt>
      <trkpt lat="49.92757" lon="1.07969">
        <ele>7.8</ele>
        <time>2020-06-18T11:30:45Z</time>
      </trkpt>
      <trkpt lat="49.92758" lon="1.07971">
        <ele>7.8</ele>
        <time>2020-06-18T11:30:46Z</time>
      </trkpt>
      <trkpt lat="49.92759" lon="1.07973">
        <ele>7.7</ele>
        <time>2020-06-18T11:30:47Z</time>
      </trkpt>
      <trkpt lat="49.9276" lon="1.07975">
        <ele>7.7</ele>
        <time>2020-06-18T11:30:48Z</time>
      </trkpt>
      <trkpt lat="49.92762" lon="1.07979">
        <ele>7.7</ele>
        <time>2020-06-18T11:30:49Z</time>
      </trkpt>
      <trkpt lat="49.92763" lon="1.07981">
        <ele>7.7</ele>
        <time>2020-06-18T11:30:50Z</time>
      </trkpt>
      <trkpt lat="49.92765" lon="1.07985">
        <ele>7.7</ele>
        <time>2020-06-18T11:30:51Z</time>
      </trkpt>
      <trkpt lat="49.92766" lon="1.07987">
        <ele>7.6</ele>
        <time>2020-06-18T11:30:52Z</time>
      </trkpt>
      <trkpt lat="49.92768" lon="1.07991">
        <ele>7.6</ele>
        <time>2020-06-18T11:30:53Z</time>
      </trkpt>
      <trkpt lat="49.92769" lon="1.07992">
        <ele>7.6</ele>
        <time>2020-06-18T11:30:54Z</time>
      </trkpt>
      <trkpt lat="49.92771" lon="1.07996">
        <ele>7.6</ele>
        <time>2020-06-18T11:30:55Z</time>
      </trkpt>
      <trkpt lat="49.92772" lon="1.07997">
        <ele>7.6</ele>
        <time>2020-06-18T11:30:56Z</time>
      </trkpt>
      <trkpt lat="49.92775" lon="1.08002">
        <ele>7.6</ele>
        <time>2020-06-18T11:30:57Z</time>
      </trkpt>
      <trkpt lat="49.92776" lon="1.08003">
        <ele>7.6</ele>
        <time>2020-06-18T11:30:58Z</time>
      </trkpt>
      <trkpt lat="49.92778" lon="1.08006">
        <ele>7.6</ele>
        <time>2020-06-18T11:30:59Z</time>
      </trkpt>
      <trkpt lat="49.92778" lon="1.08008">
        <ele>7.6</ele>
        <time>2020-06-18T11:31:00Z</time>
      </trkpt>
      <trkpt lat="49.92781" lon="1.08011">
        <ele>7.7</ele>
        <time>2020-06-18T11:31:01Z</time>
      </trkpt>
      <trkpt lat="49.92782" lon="1.08013">
        <ele>7.7</ele>
        <time>2020-06-18T11:31:02Z</time>
      </trkpt>
      <trkpt lat="49.92784" lon="1.08016">
        <ele>7.7</ele>
        <time>2020-06-18T11:31:03Z</time>
      </trkpt>
      <trkpt lat="49.92786" lon="1.0802">
        <ele>7.7</ele>
        <time>2020-06-18T11:31:04Z</time>
      </trkpt>
      <trkpt lat="49.92789" lon="1.08025">
        <ele>7.7</ele>
        <time>2020-06-18T11:31:05Z</time>
      </trkpt>
      <trkpt lat="49.92792" lon="1.0803">
        <ele>7.8</ele>
        <time>2020-06-18T11:31:06Z</time>
      </trkpt>
      <trkpt lat="49.92795" lon="1.08036">
        <ele>7.8</ele>
        <time>2020-06-18T11:31:07Z</time>
      </trkpt>
      <trkpt lat="49.92798" lon="1.08041">
        <ele>7.8</ele>
        <time>2020-06-18T11:31:08Z</time>
      </trkpt>
      <trkpt lat="49.92801" lon="1.08047">
        <ele>7.7</ele>
        <time>2020-06-18T11:31:09Z</time>
      </trkpt>
      <trkpt lat="49.92804" lon="1.08052">
        <ele>7.7</ele>
        <time>2020-06-18T11:31:10Z</time>
      </trkpt>
      <trkpt lat="49.92807" lon="1.08057">
        <ele>7.7</ele>
        <time>2020-06-18T11:31:11Z</time>
      </trkpt>
      <trkpt lat="49.92809" lon="1.08062">
        <ele>7.6</ele>
        <time>2020-06-18T11:31:12Z</time>
      </trkpt>
      <trkpt lat="49.92812" lon="1.08068">
        <ele>7.6</ele>
        <time>2020-06-18T11:31:13Z</time>
      </trkpt>
      <trkpt lat="49.92814" lon="1.08076">
        <ele>7.6</ele>
        <time>2020-06-18T11:31:14Z</time>
      </trkpt>
      <trkpt lat="49.92818" lon="1.08082">
        <ele>7.5</ele>
        <time>2020-06-18T11:31:15Z</time>
      </trkpt>
      <trkpt lat="49.92821" lon="1.08088">
        <ele>7.5</ele>
        <time>2020-06-18T11:31:16Z</time>
      </trkpt>
      <trkpt lat="49.92824" lon="1.08094">
        <ele>7.4</ele>
        <time>2020-06-18T11:31:17Z</time>
      </trkpt>
      <trkpt lat="49.92827" lon="1.081">
        <ele>7.4</ele>
        <time>2020-06-18T11:31:18Z</time>
      </trkpt>
      <trkpt lat="49.92831" lon="1.08108">
        <ele>7.4</ele>
        <time>2020-06-18T11:31:19Z</time>
      </trkpt>
      <trkpt lat="49.92835" lon="1.08116">
        <ele>7.3</ele>
        <time>2020-06-18T11:31:20Z</time>
      </trkpt>
      <trkpt lat="49.92837" lon="1.08124">
        <ele>7.3</ele>
        <time>2020-06-18T11:31:21Z</time>
      </trkpt>
      <trkpt lat="49.9284" lon="1.08131">
        <ele>7.3</ele>
        <time>2020-06-18T11:31:22Z</time>
      </trkpt>
      <trkpt lat="49.92843" lon="1.08138">
        <ele>7.3</ele>
        <time>2020-06-18T11:31:23Z</time>
      </trkpt>
      <trkpt lat="49.92847" lon="1.08144">
        <ele>7.3</ele>
        <time>2020-06-18T11:31:24Z</time>
      </trkpt>
      <trkpt lat="49.9285" lon="1.0815">
        <ele>7.3</ele>
        <time>2020-06-18T11:31:25Z</time>
      </trkpt>
      <trkpt lat="49.92854" lon="1.08157">
        <ele>7.3</ele>
        <time>2020-06-18T11:31:26Z</time>
      </trkpt>
      <trkpt lat="49.92857" lon="1.08164">
        <ele>7.3</ele>
        <time>2020-06-18T11:31:27Z</time>
      </trkpt>
      <trkpt lat="49.92859" lon="1.08173">
        <ele>7.3</ele>
        <time>2020-06-18T11:31:28Z</time>
      </trkpt>
      <trkpt lat="49.92862" lon="1.08179">
        <ele>7.3</ele>
        <time>2020-06-18T11:31:29Z</time>
      </trkpt>
      <trkpt lat="49.92865" lon="1.08184">
        <ele>7.2</ele>
        <time>2020-06-18T11:31:30Z</time>
      </trkpt>
      <trkpt lat="49.92868" lon="1.08191">
        <ele>7.2</ele>
        <time>2020-06-18T11:31:31Z</time>
      </trkpt>
      <trkpt lat="49.92871" lon="1.08197">
        <ele>7.2</ele>
        <time>2020-06-18T11:31:32Z</time>
      </trkpt>
      <trkpt lat="49.92875" lon="1.08204">
        <ele>7.1</ele>
        <time>2020-06-18T11:31:33Z</time>
      </trkpt>
      <trkpt lat="49.92877" lon="1.08211">
        <ele>7.1</ele>
        <time>2020-06-18T11:31:34Z</time>
      </trkpt>
      <trkpt lat="49.92879" lon="1.08217">
        <ele>7.2</ele>
        <time>2020-06-18T11:31:35Z</time>
      </trkpt>
      <trkpt lat="49.92881" lon="1.08224">
        <ele>7.2</ele>
        <time>2020-06-18T11:31:36Z</time>
      </trkpt>
      <trkpt lat="49.92884" lon="1.08231">
        <ele>7.2</ele>
        <time>2020-06-18T11:31:37Z</time>
      </trkpt>
      <trkpt lat="49.92887" lon="1.08238">
        <ele>7.2</ele>
        <time>2020-06-18T11:31:38Z</time>
      </trkpt>
      <trkpt lat="49.92892" lon="1.08245">
        <ele>7.3</ele>
        <time>2020-06-18T11:31:39Z</time>
      </trkpt>
      <trkpt lat="49.92895" lon="1.08251">
        <ele>7.3</ele>
        <time>2020-06-18T11:31:40Z</time>
      </trkpt>
      <trkpt lat="49.92897" lon="1.08258">
        <ele>7.3</ele>
        <time>2020-06-18T11:31:41Z</time>
      </trkpt>
      <trkpt lat="49.92899" lon="1.08265">
        <ele>7.3</ele>
        <time>2020-06-18T11:31:42Z</time>
      </trkpt>
      <trkpt lat="49.92902" lon="1.0827">
        <ele>7.3</ele>
        <time>2020-06-18T11:31:43Z</time>
      </trkpt>
      <trkpt lat="49.92905" lon="1.08275">
        <ele>7.3</ele>
        <time>2020-06-18T11:31:44Z</time>
      </trkpt>
      <trkpt lat="49.92907" lon="1.0828">
        <ele>7.3</ele>
        <time>2020-06-18T11:31:45Z</time>
      </trkpt>
      <trkpt lat="49.92909" lon="1.08286">
        <ele>7.4</ele>
        <time>2020-06-18T11:31:46Z</time>
      </trkpt>
      <trkpt lat="49.92911" lon="1.08291">
        <ele>7.4</ele>
        <time>2020-06-18T11:31:47Z</time>
      </trkpt>
      <trkpt lat="49.92912" lon="1.08299">
        <ele>7.5</ele>
        <time>2020-06-18T11:31:48Z</time>
      </trkpt>
      <trkpt lat="49.92914" lon="1.08303">
        <ele>7.6</ele>
        <time>2020-06-18T11:31:49Z</time>
      </trkpt>
      <trkpt lat="49.92916" lon="1.08309">
        <ele>7.6</ele>
        <time>2020-06-18T11:31:50Z</time>
      </trkpt>
      <trkpt lat="49.92917" lon="1.08312">
        <ele>7.6</ele>
        <time>2020-06-18T11:31:51Z</time>
      </trkpt>
      <trkpt lat="49.9292" lon="1.08316">
        <ele>7.7</ele>
        <time>2020-06-18T11:31:52Z</time>
      </trkpt>
      <trkpt lat="49.92921" lon="1.08318">
        <ele>7.7</ele>
        <time>2020-06-18T11:31:53Z</time>
      </trkpt>
      <trkpt lat="49.92919" lon="1.08324">
        <ele>7.7</ele>
        <time>2020-06-18T11:31:54Z</time>
      </trkpt>
      <trkpt lat="49.92921" lon="1.08328">
        <ele>7.8</ele>
        <time>2020-06-18T11:31:55Z</time>
      </trkpt>
      <trkpt lat="49.92923" lon="1.08334">
        <ele>8.7</ele>
        <time>2020-06-18T11:31:56Z</time>
      </trkpt>
      <trkpt lat="49.92924" lon="1.08337">
        <ele>8.7</ele>
        <time>2020-06-18T11:31:57Z</time>
      </trkpt>
      <trkpt lat="49.92926" lon="1.08341">
        <ele>8.6</ele>
        <time>2020-06-18T11:31:58Z</time>
      </trkpt>
      <trkpt lat="49.92926" lon="1.08343">
        <ele>8.6</ele>
        <time>2020-06-18T11:31:59Z</time>
      </trkpt>
      <trkpt lat="49.92925" lon="1.08347">
        <ele>8.6</ele>
        <time>2020-06-18T11:32:00Z</time>
      </trkpt>
      <trkpt lat="49.92925" lon="1.08347">
        <ele>8.6</ele>
        <time>2020-06-18T11:32:01Z</time>
      </trkpt>
      <trkpt lat="49.92926" lon="1.08346">
        <ele>8.6</ele>
        <time>2020-06-18T11:32:02Z</time>
      </trkpt>
      <trkpt lat="49.92928" lon="1.08345">
        <ele>8.6</ele>
        <time>2020-06-18T11:32:03Z</time>
      </trkpt>
      <trkpt lat="49.92929" lon="1.08346">
        <ele>8.6</ele>
        <time>2020-06-18T11:32:04Z</time>
      </trkpt>
      <trkpt lat="49.92929" lon="1.08343">
        <ele>8.6</ele>
        <time>2020-06-18T11:32:05Z</time>
      </trkpt>
      <trkpt lat="49.92929" lon="1.08342">
        <ele>8.6</ele>
        <time>2020-06-18T11:32:06Z</time>
      </trkpt>
      <trkpt lat="49.92929" lon="1.08341">
        <ele>8.6</ele>
        <time>2020-06-18T11:32:07Z</time>
      </trkpt>
      <trkpt lat="49.9293" lon="1.08338">
        <ele>8.6</ele>
        <time>2020-06-18T11:32:08Z</time>
      </trkpt>
      <trkpt lat="49.92929" lon="1.08336">
        <ele>8.5</ele>
        <time>2020-06-18T11:32:09Z</time>
      </trkpt>
      <trkpt lat="49.92928" lon="1.08336">
        <ele>8.5</ele>
        <time>2020-06-18T11:32:10Z</time>
      </trkpt>
      <trkpt lat="49.92927" lon="1.08335">
        <ele>8.5</ele>
        <time>2020-06-18T11:32:11Z</time>
      </trkpt>
      <trkpt lat="49.92927" lon="1.08334">
        <ele>8.5</ele>
        <time>2020-06-18T11:32:12Z</time>
      </trkpt>
      <trkpt lat="49.92926" lon="1.08334">
        <ele>8.5</ele>
        <time>2020-06-18T11:32:13Z</time>
      </trkpt>
      <trkpt lat="49.92926" lon="1.08334">
        <ele>8.5</ele>
        <time>2020-06-18T11:32:14Z</time>
      </trkpt>
      <trkpt lat="49.92926" lon="1.08333">
        <ele>8.5</ele>
        <time>2020-06-18T11:32:15Z</time>
      </trkpt>
      <trkpt lat="49.92925" lon="1.08333">
        <ele>8.5</ele>
        <time>2020-06-18T11:32:16Z</time>
      </trkpt>
      <trkpt lat="49.92925" lon="1.08331">
        <ele>8.5</ele>
        <time>2020-06-18T11:32:17Z</time>
      </trkpt>
      <trkpt lat="49.92924" lon="1.0833">
        <ele>8.2</ele>
        <time>2020-06-18T11:32:18Z</time>
      </trkpt>
      <trkpt lat="49.92924" lon="1.08329">
        <ele>8.2</ele>
        <time>2020-06-18T11:32:19Z</time>
      </trkpt>
      <trkpt lat="49.92924" lon="1.0833">
        <ele>8.2</ele>
        <time>2020-06-18T11:32:20Z</time>
      </trkpt>
      <trkpt lat="49.92923" lon="1.08328">
        <ele>8.1</ele>
        <time>2020-06-18T11:32:21Z</time>
      </trkpt>
      <trkpt lat="49.92922" lon="1.08325">
        <ele>8</ele>
        <time>2020-06-18T11:32:22Z</time>
      </trkpt>
      <trkpt lat="49.92921" lon="1.08324">
        <ele>7.9</ele>
        <time>2020-06-18T11:32:23Z</time>
      </trkpt>
      <trkpt lat="49.92921" lon="1.0832">
        <ele>7.8</ele>
        <time>2020-06-18T11:32:24Z</time>
      </trkpt>
      <trkpt lat="49.92921" lon="1.08319">
        <ele>7.8</ele>
        <time>2020-06-18T11:32:25Z</time>
      </trkpt>
      <trkpt lat="49.9292" lon="1.08317">
        <ele>7.7</ele>
        <time>2020-06-18T11:32:26Z</time>
      </trkpt>
      <trkpt lat="49.9292" lon="1.08313">
        <ele>7.7</ele>
        <time>2020-06-18T11:32:27Z</time>
      </trkpt>
      <trkpt lat="49.92919" lon="1.08311">
        <ele>7.7</ele>
        <time>2020-06-18T11:32:28Z</time>
      </trkpt>
      <trkpt lat="49.92919" lon="1.08309">
        <ele>7.7</ele>
        <time>2020-06-18T11:32:29Z</time>
      </trkpt>
      <trkpt lat="49.92918" lon="1.08307">
        <ele>7.6</ele>
        <time>2020-06-18T11:32:30Z</time>
      </trkpt>
      <trkpt lat="49.92918" lon="1.08305">
        <ele>7.6</ele>
        <time>2020-06-18T11:32:31Z</time>
      </trkpt>
      <trkpt lat="49.92918" lon="1.08304">
        <ele>7.6</ele>
        <time>2020-06-18T11:32:32Z</time>
      </trkpt>
      <trkpt lat="49.92918" lon="1.08303">
        <ele>7.6</ele>
        <time>2020-06-18T11:32:33Z</time>
      </trkpt>
      <trkpt lat="49.92919" lon="1.08305">
        <ele>7.6</ele>
        <time>2020-06-18T11:32:34Z</time>
      </trkpt>
      <trkpt lat="49.9292" lon="1.08308">
        <ele>7.6</ele>
        <time>2020-06-18T11:32:35Z</time>
      </trkpt>
      <trkpt lat="49.9292" lon="1.08308">
        <ele>7.6</ele>
        <time>2020-06-18T11:32:36Z</time>
      </trkpt>
      <trkpt lat="49.9292" lon="1.0831">
        <ele>7.6</ele>
        <time>2020-06-18T11:32:37Z</time>
      </trkpt>
      <trkpt lat="49.92919" lon="1.08311">
        <ele>7.6</ele>
        <time>2020-06-18T11:32:38Z</time>
      </trkpt>
      <trkpt lat="49.92919" lon="1.08311">
        <ele>7.6</ele>
        <time>2020-06-18T11:32:39Z</time>
      </trkpt>
      <trkpt lat="49.92919" lon="1.0831">
        <ele>7.6</ele>
        <time>2020-06-18T11:32:40Z</time>
      </trkpt>
      <trkpt lat="49.9292" lon="1.0831">
        <ele>7.6</ele>
        <time>2020-06-18T11:32:41Z</time>
      </trkpt>
      <trkpt lat="49.9292" lon="1.0831">
        <ele>7.6</ele>
        <time>2020-06-18T11:32:42Z</time>
      </trkpt>
      <trkpt lat="49.9292" lon="1.0831">
        <ele>7.6</ele>
        <time>2020-06-18T11:32:43Z</time>
      </trkpt>
      <trkpt lat="49.9292" lon="1.0831">
        <ele>7.6</ele>
        <time>2020-06-18T11:32:44Z</time>
      </trkpt>
      <trkpt lat="49.9292" lon="1.0831">
        <ele>7.6</ele>
        <time>2020-06-18T11:32:45Z</time>
      </trkpt>
      <trkpt lat="49.9292" lon="1.08309">
        <ele>7.6</ele>
        <time>2020-06-18T11:32:46Z</time>
      </trkpt>
      <trkpt lat="49.9292" lon="1.08309">
        <ele>7.6</ele>
        <time>2020-06-18T11:32:47Z</time>
      </trkpt>
      <trkpt lat="49.9292" lon="1.08309">
        <ele>7.6</ele>
        <time>2020-06-18T11:34:11Z</time>
      </trkpt>
      <trkpt lat="49.9292" lon="1.08309">
        <ele>7.6</ele>
        <time>2020-06-18T11:34:12Z</time>
      </trkpt>
      <trkpt lat="49.9292" lon="1.08309">
        <ele>7.6</ele>
        <time>2020-06-18T11:34:13Z</time>
      </trkpt>
      <trkpt lat="49.92921" lon="1.08309">
        <ele>7.6</ele>
        <time>2020-06-18T11:34:14Z</time>
      </trkpt>
      <trkpt lat="49.92917" lon="1.08309">
        <ele>7.5</ele>
        <time>2020-06-18T11:34:15Z</time>
      </trkpt>
      <trkpt lat="49.92915" lon="1.08309">
        <ele>7.5</ele>
        <time>2020-06-18T11:34:16Z</time>
      </trkpt>
      <trkpt lat="49.92915" lon="1.08307">
        <ele>7.5</ele>
        <time>2020-06-18T11:34:17Z</time>
      </trkpt>
      <trkpt lat="49.92914" lon="1.08303">
        <ele>7.5</ele>
        <time>2020-06-18T11:34:18Z</time>
      </trkpt>
      <trkpt lat="49.92915" lon="1.08301">
        <ele>7.5</ele>
        <time>2020-06-18T11:34:19Z</time>
      </trkpt>
      <trkpt lat="49.92915" lon="1.08301">
        <ele>7.5</ele>
        <time>2020-06-18T11:34:20Z</time>
      </trkpt>
      <trkpt lat="49.92915" lon="1.083">
        <ele>7.5</ele>
        <time>2020-06-18T11:34:21Z</time>
      </trkpt>
      <trkpt lat="49.92915" lon="1.08299">
        <ele>7.5</ele>
        <time>2020-06-18T11:34:22Z</time>
      </trkpt>
      <trkpt lat="49.92915" lon="1.08299">
        <ele>7.4</ele>
        <time>2020-06-18T11:34:23Z</time>
      </trkpt>
      <trkpt lat="49.92915" lon="1.08298">
        <ele>7.4</ele>
        <time>2020-06-18T11:34:24Z</time>
      </trkpt>
      <trkpt lat="49.92915" lon="1.08297">
        <ele>7.4</ele>
        <time>2020-06-18T11:34:25Z</time>
      </trkpt>
      <trkpt lat="49.92915" lon="1.08296">
        <ele>7.4</ele>
        <time>2020-06-18T11:34:26Z</time>
      </trkpt>
      <trkpt lat="49.92915" lon="1.08295">
        <ele>7.4</ele>
        <time>2020-06-18T11:34:27Z</time>
      </trkpt>
      <trkpt lat="49.92914" lon="1.08293">
        <ele>7.4</ele>
        <time>2020-06-18T11:34:28Z</time>
      </trkpt>
      <trkpt lat="49.92914" lon="1.0829">
        <ele>7.4</ele>
        <time>2020-06-18T11:34:29Z</time>
      </trkpt>
      <trkpt lat="49.92913" lon="1.08289">
        <ele>7.4</ele>
        <time>2020-06-18T11:34:30Z</time>
      </trkpt>
      <trkpt lat="49.92913" lon="1.08288">
        <ele>7.4</ele>
        <time>2020-06-18T11:34:31Z</time>
      </trkpt>
      <trkpt lat="49.92912" lon="1.08285">
        <ele>7.4</ele>
        <time>2020-06-18T11:34:32Z</time>
      </trkpt>
      <trkpt lat="49.92912" lon="1.08283">
        <ele>7.3</ele>
        <time>2020-06-18T11:34:33Z</time>
      </trkpt>
      <trkpt lat="49.92912" lon="1.08282">
        <ele>7.3</ele>
        <time>2020-06-18T11:34:34Z</time>
      </trkpt>
      <trkpt lat="49.92911" lon="1.08281">
        <ele>7.3</ele>
        <time>2020-06-18T11:34:35Z</time>
      </trkpt>
      <trkpt lat="49.92911" lon="1.0828">
        <ele>7.3</ele>
        <time>2020-06-18T11:34:36Z</time>
      </trkpt>
      <trkpt lat="49.92911" lon="1.08279">
        <ele>7.3</ele>
        <time>2020-06-18T11:34:37Z</time>
      </trkpt>
      <trkpt lat="49.92911" lon="1.08279">
        <ele>7.3</ele>
        <time>2020-06-18T11:34:38Z</time>
      </trkpt>
      <trkpt lat="49.92911" lon="1.08279">
        <ele>7.3</ele>
        <time>2020-06-18T11:34:39Z</time>
      </trkpt>
      <trkpt lat="49.92911" lon="1.08278">
        <ele>7.3</ele>
        <time>2020-06-18T11:34:40Z</time>
      </trkpt>
      <trkpt lat="49.9291" lon="1.08278">
        <ele>7.3</ele>
        <time>2020-06-18T11:34:41Z</time>
      </trkpt>
      <trkpt lat="49.92909" lon="1.08278">
        <ele>7.3</ele>
        <time>2020-06-18T11:34:42Z</time>
      </trkpt>
      <trkpt lat="49.92909" lon="1.08278">
        <ele>7.3</ele>
        <time>2020-06-18T11:34:43Z</time>
      </trkpt>
      <trkpt lat="49.92909" lon="1.08278">
        <ele>7.3</ele>
        <time>2020-06-18T11:34:44Z</time>
      </trkpt>
      <trkpt lat="49.92909" lon="1.08278">
        <ele>7.3</ele>
        <time>2020-06-18T11:34:45Z</time>
      </trkpt>
      <trkpt lat="49.92903" lon="1.08266">
        <ele>7.3</ele>
        <time>2020-06-18T11:34:59Z</time>
      </trkpt>
      <trkpt lat="49.92904" lon="1.08264">
        <ele>7.3</ele>
        <time>2020-06-18T11:35:00Z</time>
      </trkpt>
      <trkpt lat="49.92904" lon="1.08263">
        <ele>7.3</ele>
        <time>2020-06-18T11:35:01Z</time>
      </trkpt>
      <trkpt lat="49.92903" lon="1.0826">
        <ele>7.3</ele>
        <time>2020-06-18T11:35:02Z</time>
      </trkpt>
      <trkpt lat="49.92903" lon="1.08258">
        <ele>7.3</ele>
        <time>2020-06-18T11:35:03Z</time>
      </trkpt>
      <trkpt lat="49.92903" lon="1.08257">
        <ele>7.3</ele>
        <time>2020-06-18T11:35:04Z</time>
      </trkpt>
      <trkpt lat="49.92902" lon="1.08255">
        <ele>7.3</ele>
        <time>2020-06-18T11:35:05Z</time>
      </trkpt>
      <trkpt lat="49.92901" lon="1.08252">
        <ele>7.3</ele>
        <time>2020-06-18T11:35:06Z</time>
      </trkpt>
      <trkpt lat="49.92899" lon="1.08248">
        <ele>7.3</ele>
        <time>2020-06-18T11:35:07Z</time>
      </trkpt>
      <trkpt lat="49.92899" lon="1.08247">
        <ele>7.3</ele>
        <time>2020-06-18T11:35:08Z</time>
      </trkpt>
      <trkpt lat="49.92898" lon="1.08243">
        <ele>7.3</ele>
        <time>2020-06-18T11:35:09Z</time>
      </trkpt>
      <trkpt lat="49.92897" lon="1.08241">
        <ele>7.3</ele>
        <time>2020-06-18T11:35:10Z</time>
      </trkpt>
      <trkpt lat="49.92897" lon="1.08239">
        <ele>7.3</ele>
        <time>2020-06-18T11:35:11Z</time>
      </trkpt>
      <trkpt lat="49.92897" lon="1.08236">
        <ele>7.3</ele>
        <time>2020-06-18T11:35:12Z</time>
      </trkpt>
      <trkpt lat="49.92896" lon="1.08234">
        <ele>7.2</ele>
        <time>2020-06-18T11:35:13Z</time>
      </trkpt>
      <trkpt lat="49.92895" lon="1.08231">
        <ele>7.2</ele>
        <time>2020-06-18T11:35:14Z</time>
      </trkpt>
      <trkpt lat="49.92895" lon="1.08229">
        <ele>7.2</ele>
        <time>2020-06-18T11:35:15Z</time>
      </trkpt>
      <trkpt lat="49.92893" lon="1.08227">
        <ele>7.2</ele>
        <time>2020-06-18T11:35:16Z</time>
      </trkpt>
      <trkpt lat="49.92891" lon="1.08223">
        <ele>7.2</ele>
        <time>2020-06-18T11:35:17Z</time>
      </trkpt>
      <trkpt lat="49.9289" lon="1.0822">
        <ele>7.2</ele>
        <time>2020-06-18T11:35:18Z</time>
      </trkpt>
      <trkpt lat="49.9289" lon="1.08216">
        <ele>7.2</ele>
        <time>2020-06-18T11:35:19Z</time>
      </trkpt>
      <trkpt lat="49.92889" lon="1.08215">
        <ele>7.2</ele>
        <time>2020-06-18T11:35:20Z</time>
      </trkpt>
      <trkpt lat="49.92887" lon="1.08211">
        <ele>7.2</ele>
        <time>2020-06-18T11:35:21Z</time>
      </trkpt>
      <trkpt lat="49.92886" lon="1.08207">
        <ele>7.2</ele>
        <time>2020-06-18T11:35:22Z</time>
      </trkpt>
      <trkpt lat="49.92885" lon="1.08205">
        <ele>7.2</ele>
        <time>2020-06-18T11:35:23Z</time>
      </trkpt>
      <trkpt lat="49.92884" lon="1.08202">
        <ele>7.1</ele>
        <time>2020-06-18T11:35:24Z</time>
      </trkpt>
      <trkpt lat="49.92883" lon="1.08201">
        <ele>7.1</ele>
        <time>2020-06-18T11:35:25Z</time>
      </trkpt>
      <trkpt lat="49.92881" lon="1.08197">
        <ele>7.1</ele>
        <time>2020-06-18T11:35:26Z</time>
      </trkpt>
      <trkpt lat="49.9288" lon="1.08195">
        <ele>7.1</ele>
        <time>2020-06-18T11:35:27Z</time>
      </trkpt>
      <trkpt lat="49.92878" lon="1.08191">
        <ele>7.2</ele>
        <time>2020-06-18T11:35:28Z</time>
      </trkpt>
      <trkpt lat="49.92877" lon="1.0819">
        <ele>7.2</ele>
        <time>2020-06-18T11:35:29Z</time>
      </trkpt>
      <trkpt lat="49.92876" lon="1.08186">
        <ele>7.2</ele>
        <time>2020-06-18T11:35:30Z</time>
      </trkpt>
      <trkpt lat="49.92875" lon="1.08185">
        <ele>7.2</ele>
        <time>2020-06-18T11:35:31Z</time>
      </trkpt>
      <trkpt lat="49.92874" lon="1.08183">
        <ele>7.2</ele>
        <time>2020-06-18T11:35:32Z</time>
      </trkpt>
      <trkpt lat="49.92873" lon="1.08183">
        <ele>7.2</ele>
        <time>2020-06-18T11:35:33Z</time>
      </trkpt>
      <trkpt lat="49.92872" lon="1.08182">
        <ele>7.2</ele>
        <time>2020-06-18T11:35:34Z</time>
      </trkpt>
      <trkpt lat="49.92872" lon="1.08181">
        <ele>7.2</ele>
        <time>2020-06-18T11:35:35Z</time>
      </trkpt>
      <trkpt lat="49.92872" lon="1.08181">
        <ele>7.2</ele>
        <time>2020-06-18T11:35:36Z</time>
      </trkpt>
      <trkpt lat="49.92871" lon="1.08181">
        <ele>7.2</ele>
        <time>2020-06-18T11:35:37Z</time>
      </trkpt>
      <trkpt lat="49.9287" lon="1.08182">
        <ele>7.2</ele>
        <time>2020-06-18T11:35:38Z</time>
      </trkpt>
      <trkpt lat="49.92869" lon="1.08182">
        <ele>7.2</ele>
        <time>2020-06-18T11:35:39Z</time>
      </trkpt>
      <trkpt lat="49.92869" lon="1.08181">
        <ele>7.2</ele>
        <time>2020-06-18T11:35:40Z</time>
      </trkpt>
      <trkpt lat="49.92869" lon="1.08181">
        <ele>7.3</ele>
        <time>2020-06-18T11:35:41Z</time>
      </trkpt>
      <trkpt lat="49.9287" lon="1.08179">
        <ele>7.3</ele>
        <time>2020-06-18T11:35:42Z</time>
      </trkpt>
      <trkpt lat="49.92869" lon="1.08178">
        <ele>7.3</ele>
        <time>2020-06-18T11:35:43Z</time>
      </trkpt>
      <trkpt lat="49.92868" lon="1.08175">
        <ele>7.3</ele>
        <time>2020-06-18T11:35:44Z</time>
      </trkpt>
      <trkpt lat="49.92868" lon="1.08174">
        <ele>7.3</ele>
        <time>2020-06-18T11:35:45Z</time>
      </trkpt>
      <trkpt lat="49.92867" lon="1.08173">
        <ele>7.3</ele>
        <time>2020-06-18T11:35:46Z</time>
      </trkpt>
      <trkpt lat="49.92866" lon="1.0817">
        <ele>7.3</ele>
        <time>2020-06-18T11:35:47Z</time>
      </trkpt>
      <trkpt lat="49.92865" lon="1.08169">
        <ele>7.3</ele>
        <time>2020-06-18T11:35:48Z</time>
      </trkpt>
      <trkpt lat="49.92863" lon="1.08166">
        <ele>7.3</ele>
        <time>2020-06-18T11:35:49Z</time>
      </trkpt>
      <trkpt lat="49.92863" lon="1.08165">
        <ele>7.3</ele>
        <time>2020-06-18T11:35:50Z</time>
      </trkpt>
      <trkpt lat="49.92863" lon="1.08163">
        <ele>7.3</ele>
        <time>2020-06-18T11:35:51Z</time>
      </trkpt>
      <trkpt lat="49.92862" lon="1.08159">
        <ele>7.3</ele>
        <time>2020-06-18T11:35:52Z</time>
      </trkpt>
      <trkpt lat="49.92862" lon="1.08157">
        <ele>7.3</ele>
        <time>2020-06-18T11:35:53Z</time>
      </trkpt>
      <trkpt lat="49.92861" lon="1.08156">
        <ele>7.3</ele>
        <time>2020-06-18T11:35:54Z</time>
      </trkpt>
      <trkpt lat="49.9286" lon="1.08151">
        <ele>7.3</ele>
        <time>2020-06-18T11:35:55Z</time>
      </trkpt>
      <trkpt lat="49.92859" lon="1.0815">
        <ele>7.3</ele>
        <time>2020-06-18T11:35:56Z</time>
      </trkpt>
      <trkpt lat="49.92857" lon="1.08145">
        <ele>7.3</ele>
        <time>2020-06-18T11:35:57Z</time>
      </trkpt>
      <trkpt lat="49.92856" lon="1.08143">
        <ele>7.3</ele>
        <time>2020-06-18T11:35:58Z</time>
      </trkpt>
      <trkpt lat="49.92855" lon="1.08139">
        <ele>7.3</ele>
        <time>2020-06-18T11:35:59Z</time>
      </trkpt>
      <trkpt lat="49.92854" lon="1.08135">
        <ele>7.3</ele>
        <time>2020-06-18T11:36:00Z</time>
      </trkpt>
      <trkpt lat="49.92851" lon="1.08131">
        <ele>7.3</ele>
        <time>2020-06-18T11:36:01Z</time>
      </trkpt>
      <trkpt lat="49.9285" lon="1.0813">
        <ele>7.3</ele>
        <time>2020-06-18T11:36:02Z</time>
      </trkpt>
      <trkpt lat="49.92846" lon="1.08126">
        <ele>7.3</ele>
        <time>2020-06-18T11:36:03Z</time>
      </trkpt>
      <trkpt lat="49.92845" lon="1.08124">
        <ele>7.3</ele>
        <time>2020-06-18T11:36:04Z</time>
      </trkpt>
      <trkpt lat="49.92841" lon="1.08122">
        <ele>7.3</ele>
        <time>2020-06-18T11:36:05Z</time>
      </trkpt>
      <trkpt lat="49.92839" lon="1.08118">
        <ele>7.3</ele>
        <time>2020-06-18T11:36:06Z</time>
      </trkpt>
      <trkpt lat="49.92835" lon="1.08112">
        <ele>7.3</ele>
        <time>2020-06-18T11:36:07Z</time>
      </trkpt>
      <trkpt lat="49.92832" lon="1.08105">
        <ele>7.4</ele>
        <time>2020-06-18T11:36:08Z</time>
      </trkpt>
      <trkpt lat="49.92829" lon="1.08098">
        <ele>7.4</ele>
        <time>2020-06-18T11:36:09Z</time>
      </trkpt>
      <trkpt lat="49.92826" lon="1.0809">
        <ele>7.4</ele>
        <time>2020-06-18T11:36:10Z</time>
      </trkpt>
      <trkpt lat="49.92823" lon="1.08084">
        <ele>7.5</ele>
        <time>2020-06-18T11:36:11Z</time>
      </trkpt>
      <trkpt lat="49.92821" lon="1.08079">
        <ele>7.5</ele>
        <time>2020-06-18T11:36:12Z</time>
      </trkpt>
      <trkpt lat="49.92819" lon="1.08076">
        <ele>7.5</ele>
        <time>2020-06-18T11:36:13Z</time>
      </trkpt>
      <trkpt lat="49.92817" lon="1.08073">
        <ele>7.6</ele>
        <time>2020-06-18T11:36:14Z</time>
      </trkpt>
      <trkpt lat="49.92815" lon="1.08069">
        <ele>7.6</ele>
        <time>2020-06-18T11:36:15Z</time>
      </trkpt>
      <trkpt lat="49.92812" lon="1.08066">
        <ele>7.6</ele>
        <time>2020-06-18T11:36:16Z</time>
      </trkpt>
      <trkpt lat="49.92809" lon="1.08061">
        <ele>7.6</ele>
        <time>2020-06-18T11:36:17Z</time>
      </trkpt>
      <trkpt lat="49.92807" lon="1.08056">
        <ele>7.7</ele>
        <time>2020-06-18T11:36:18Z</time>
      </trkpt>
      <trkpt lat="49.92805" lon="1.08052">
        <ele>7.7</ele>
        <time>2020-06-18T11:36:19Z</time>
      </trkpt>
      <trkpt lat="49.92802" lon="1.08046">
        <ele>7.7</ele>
        <time>2020-06-18T11:36:20Z</time>
      </trkpt>
      <trkpt lat="49.92801" lon="1.08042">
        <ele>7.8</ele>
        <time>2020-06-18T11:36:21Z</time>
      </trkpt>
      <trkpt lat="49.92796" lon="1.08041">
        <ele>7.8</ele>
        <time>2020-06-18T11:36:22Z</time>
      </trkpt>
      <trkpt lat="49.92795" lon="1.08037">
        <ele>7.8</ele>
        <time>2020-06-18T11:36:23Z</time>
      </trkpt>
      <trkpt lat="49.92792" lon="1.08033">
        <ele>7.8</ele>
        <time>2020-06-18T11:36:24Z</time>
      </trkpt>
      <trkpt lat="49.9279" lon="1.08029">
        <ele>7.8</ele>
        <time>2020-06-18T11:36:25Z</time>
      </trkpt>
      <trkpt lat="49.92788" lon="1.08025">
        <ele>7.7</ele>
        <time>2020-06-18T11:36:26Z</time>
      </trkpt>
      <trkpt lat="49.92787" lon="1.08024">
        <ele>7.7</ele>
        <time>2020-06-18T11:36:27Z</time>
      </trkpt>
      <trkpt lat="49.92784" lon="1.08021">
        <ele>7.7</ele>
        <time>2020-06-18T11:36:28Z</time>
      </trkpt>
      <trkpt lat="49.92784" lon="1.0802">
        <ele>7.7</ele>
        <time>2020-06-18T11:36:29Z</time>
      </trkpt>
      <trkpt lat="49.92782" lon="1.08019">
        <ele>7.7</ele>
        <time>2020-06-18T11:36:30Z</time>
      </trkpt>
      <trkpt lat="49.92782" lon="1.08018">
        <ele>7.7</ele>
        <time>2020-06-18T11:36:31Z</time>
      </trkpt>
      <trkpt lat="49.9278" lon="1.08016">
        <ele>7.7</ele>
        <time>2020-06-18T11:36:32Z</time>
      </trkpt>
      <trkpt lat="49.92779" lon="1.08014">
        <ele>7.7</ele>
        <time>2020-06-18T11:36:33Z</time>
      </trkpt>
      <trkpt lat="49.92779" lon="1.08013">
        <ele>7.7</ele>
        <time>2020-06-18T11:36:34Z</time>
      </trkpt>
      <trkpt lat="49.9278" lon="1.08012">
        <ele>7.7</ele>
        <time>2020-06-18T11:36:35Z</time>
      </trkpt>
      <trkpt lat="49.9278" lon="1.0801">
        <ele>7.7</ele>
        <time>2020-06-18T11:36:36Z</time>
      </trkpt>
      <trkpt lat="49.9278" lon="1.0801">
        <ele>7.7</ele>
        <time>2020-06-18T11:36:37Z</time>
      </trkpt>
      <trkpt lat="49.92779" lon="1.08009">
        <ele>7.6</ele>
        <time>2020-06-18T11:36:38Z</time>
      </trkpt>
      <trkpt lat="49.92779" lon="1.08008">
        <ele>7.6</ele>
        <time>2020-06-18T11:36:39Z</time>
      </trkpt>
      <trkpt lat="49.92779" lon="1.08009">
        <ele>7.6</ele>
        <time>2020-06-18T11:36:40Z</time>
      </trkpt>
      <trkpt lat="49.9278" lon="1.0801">
        <ele>7.6</ele>
        <time>2020-06-18T11:36:41Z</time>
      </trkpt>
      <trkpt lat="49.92779" lon="1.08009">
        <ele>7.6</ele>
        <time>2020-06-18T11:36:42Z</time>
      </trkpt>
      <trkpt lat="49.92778" lon="1.08009">
        <ele>7.6</ele>
        <time>2020-06-18T11:36:43Z</time>
      </trkpt>
      <trkpt lat="49.92776" lon="1.08008">
        <ele>7.6</ele>
        <time>2020-06-18T11:36:44Z</time>
      </trkpt>
      <trkpt lat="49.92776" lon="1.08009">
        <ele>7.6</ele>
        <time>2020-06-18T11:36:45Z</time>
      </trkpt>
      <trkpt lat="49.92776" lon="1.0801">
        <ele>7.6</ele>
        <time>2020-06-18T11:36:46Z</time>
      </trkpt>
      <trkpt lat="49.92776" lon="1.0801">
        <ele>7.6</ele>
        <time>2020-06-18T11:36:47Z</time>
      </trkpt>
      <trkpt lat="49.92776" lon="1.0801">
        <ele>7.6</ele>
        <time>2020-06-18T11:36:48Z</time>
      </trkpt>
      <trkpt lat="49.92776" lon="1.0801">
        <ele>7.6</ele>
        <time>2020-06-18T11:36:49Z</time>
      </trkpt>
      <trkpt lat="49.92776" lon="1.0801">
        <ele>7.6</ele>
        <time>2020-06-18T11:36:50Z</time>
      </trkpt>
      <trkpt lat="49.92776" lon="1.0801">
        <ele>7.6</ele>
        <time>2020-06-18T11:36:51Z</time>
      </trkpt>
      <trkpt lat="49.92775" lon="1.0801">
        <ele>7.6</ele>
        <time>2020-06-18T11:36:52Z</time>
      </trkpt>
      <trkpt lat="49.92775" lon="1.0801">
        <ele>7.6</ele>
        <time>2020-06-18T11:36:53Z</time>
      </trkpt>
      <trkpt lat="49.92775" lon="1.0801">
        <ele>7.6</ele>
        <time>2020-06-18T11:36:54Z</time>
      </trkpt>
      <trkpt lat="49.92775" lon="1.0801">
        <ele>7.6</ele>
        <time>2020-06-18T11:36:55Z</time>
      </trkpt>
      <trkpt lat="49.92774" lon="1.08005">
        <ele>7.6</ele>
        <time>2020-06-18T11:36:59Z</time>
      </trkpt>
      <trkpt lat="49.92774" lon="1.08004">
        <ele>7.6</ele>
        <time>2020-06-18T11:37:00Z</time>
      </trkpt>
      <trkpt lat="49.92773" lon="1.08003">
        <ele>7.6</ele>
        <time>2020-06-18T11:37:01Z</time>
      </trkpt>
      <trkpt lat="49.92773" lon="1.08002">
        <ele>7.6</ele>
        <time>2020-06-18T11:37:02Z</time>
      </trkpt>
      <trkpt lat="49.92772" lon="1.08002">
        <ele>7.6</ele>
        <time>2020-06-18T11:37:03Z</time>
      </trkpt>
      <trkpt lat="49.92773" lon="1.08002">
        <ele>7.6</ele>
        <time>2020-06-18T11:37:04Z</time>
      </trkpt>
      <trkpt lat="49.92772" lon="1.08002">
        <ele>7.6</ele>
        <time>2020-06-18T11:37:05Z</time>
      </trkpt>
      <trkpt lat="49.92772" lon="1.08003">
        <ele>7.6</ele>
        <time>2020-06-18T11:37:06Z</time>
      </trkpt>
      <trkpt lat="49.92772" lon="1.08003">
        <ele>7.6</ele>
        <time>2020-06-18T11:37:07Z</time>
      </trkpt>
      <trkpt lat="49.92772" lon="1.08002">
        <ele>7.6</ele>
        <time>2020-06-18T11:37:08Z</time>
      </trkpt>
      <trkpt lat="49.9277" lon="1.08003">
        <ele>7.6</ele>
        <time>2020-06-18T11:37:09Z</time>
      </trkpt>
      <trkpt lat="49.9277" lon="1.08003">
        <ele>7.6</ele>
        <time>2020-06-18T11:37:10Z</time>
      </trkpt>
      <trkpt lat="49.92769" lon="1.08003">
        <ele>7.6</ele>
        <time>2020-06-18T11:37:11Z</time>
      </trkpt>
      <trkpt lat="49.9277" lon="1.08003">
        <ele>7.6</ele>
        <time>2020-06-18T11:37:12Z</time>
      </trkpt>
      <trkpt lat="49.9277" lon="1.08003">
        <ele>7.6</ele>
        <time>2020-06-18T11:37:13Z</time>
      </trkpt>
      <trkpt lat="49.9277" lon="1.08003">
        <ele>7.6</ele>
        <time>2020-06-18T11:37:14Z</time>
      </trkpt>
      <trkpt lat="49.92769" lon="1.08002">
        <ele>7.6</ele>
        <time>2020-06-18T11:37:15Z</time>
      </trkpt>
      <trkpt lat="49.9277" lon="1.07999">
        <ele>7.7</ele>
        <time>2020-06-18T11:37:16Z</time>
      </trkpt>
      <trkpt lat="49.9277" lon="1.07999">
        <ele>7.7</ele>
        <time>2020-06-18T11:37:17Z</time>
      </trkpt>
      <trkpt lat="49.9277" lon="1.07999">
        <ele>7.7</ele>
        <time>2020-06-18T11:37:18Z</time>
      </trkpt>
      <trkpt lat="49.9277" lon="1.07998">
        <ele>7.7</ele>
        <time>2020-06-18T11:37:19Z</time>
      </trkpt>
      <trkpt lat="49.92769" lon="1.07997">
        <ele>7.7</ele>
        <time>2020-06-18T11:37:20Z</time>
      </trkpt>
      <trkpt lat="49.92768" lon="1.07995">
        <ele>7.7</ele>
        <time>2020-06-18T11:37:21Z</time>
      </trkpt>
      <trkpt lat="49.92766" lon="1.07994">
        <ele>7.7</ele>
        <time>2020-06-18T11:37:22Z</time>
      </trkpt>
      <trkpt lat="49.92765" lon="1.07993">
        <ele>7.7</ele>
        <time>2020-06-18T11:37:23Z</time>
      </trkpt>
      <trkpt lat="49.92765" lon="1.07992">
        <ele>7.7</ele>
        <time>2020-06-18T11:37:24Z</time>
      </trkpt>
      <trkpt lat="49.92765" lon="1.0799">
        <ele>7.7</ele>
        <time>2020-06-18T11:37:25Z</time>
      </trkpt>
      <trkpt lat="49.92764" lon="1.07988">
        <ele>7.7</ele>
        <time>2020-06-18T11:37:26Z</time>
      </trkpt>
      <trkpt lat="49.92763" lon="1.07986">
        <ele>7.7</ele>
        <time>2020-06-18T11:37:27Z</time>
      </trkpt>
      <trkpt lat="49.92762" lon="1.07984">
        <ele>7.8</ele>
        <time>2020-06-18T11:37:28Z</time>
      </trkpt>
      <trkpt lat="49.92761" lon="1.07979">
        <ele>7.8</ele>
        <time>2020-06-18T11:37:29Z</time>
      </trkpt>
      <trkpt lat="49.92761" lon="1.07976">
        <ele>7.8</ele>
        <time>2020-06-18T11:37:30Z</time>
      </trkpt>
      <trkpt lat="49.9276" lon="1.07972">
        <ele>7.9</ele>
        <time>2020-06-18T11:37:31Z</time>
      </trkpt>
      <trkpt lat="49.92759" lon="1.07968">
        <ele>7.9</ele>
        <time>2020-06-18T11:37:32Z</time>
      </trkpt>
      <trkpt lat="49.92757" lon="1.07965">
        <ele>8</ele>
        <time>2020-06-18T11:37:33Z</time>
      </trkpt>
      <trkpt lat="49.92756" lon="1.07962">
        <ele>8</ele>
        <time>2020-06-18T11:37:34Z</time>
      </trkpt>
      <trkpt lat="49.92756" lon="1.07961">
        <ele>8</ele>
        <time>2020-06-18T11:37:35Z</time>
      </trkpt>
      <trkpt lat="49.92755" lon="1.07956">
        <ele>8.1</ele>
        <time>2020-06-18T11:37:36Z</time>
      </trkpt>
      <trkpt lat="49.92754" lon="1.07955">
        <ele>8.1</ele>
        <time>2020-06-18T11:37:37Z</time>
      </trkpt>
      <trkpt lat="49.92753" lon="1.07954">
        <ele>8.1</ele>
        <time>2020-06-18T11:37:38Z</time>
      </trkpt>
      <trkpt lat="49.92752" lon="1.07953">
        <ele>8.1</ele>
        <time>2020-06-18T11:37:39Z</time>
      </trkpt>
      <trkpt lat="49.92752" lon="1.07953">
        <ele>8.1</ele>
        <time>2020-06-18T11:37:40Z</time>
      </trkpt>
      <trkpt lat="49.92751" lon="1.07953">
        <ele>8.1</ele>
        <time>2020-06-18T11:37:41Z</time>
      </trkpt>
      <trkpt lat="49.9275" lon="1.07952">
        <ele>8.1</ele>
        <time>2020-06-18T11:37:42Z</time>
      </trkpt>
      <trkpt lat="49.9275" lon="1.07951">
        <ele>8.1</ele>
        <time>2020-06-18T11:37:43Z</time>
      </trkpt>
      <trkpt lat="49.9275" lon="1.07951">
        <ele>8.1</ele>
        <time>2020-06-18T11:37:44Z</time>
      </trkpt>
      <trkpt lat="49.9275" lon="1.07951">
        <ele>8.1</ele>
        <time>2020-06-18T11:37:45Z</time>
      </trkpt>
      <trkpt lat="49.9275" lon="1.07951">
        <ele>8.1</ele>
        <time>2020-06-18T11:37:46Z</time>
      </trkpt>
      <trkpt lat="49.9275" lon="1.07952">
        <ele>8.1</ele>
        <time>2020-06-18T11:37:47Z</time>
      </trkpt>
      <trkpt lat="49.9275" lon="1.07952">
        <ele>8.1</ele>
        <time>2020-06-18T11:37:48Z</time>
      </trkpt>
      <trkpt lat="49.9275" lon="1.07952">
        <ele>8.1</ele>
        <time>2020-06-18T11:37:49Z</time>
      </trkpt>
      <trkpt lat="49.92747" lon="1.07946">
        <ele>8.2</ele>
        <time>2020-06-18T11:37:58Z</time>
      </trkpt>
      <trkpt lat="49.92746" lon="1.07943">
        <ele>8.2</ele>
        <time>2020-06-18T11:37:59Z</time>
      </trkpt>
      <trkpt lat="49.92744" lon="1.07943">
        <ele>8.2</ele>
        <time>2020-06-18T11:38:00Z</time>
      </trkpt>
      <trkpt lat="49.92742" lon="1.07943">
        <ele>8.2</ele>
        <time>2020-06-18T11:38:01Z</time>
      </trkpt>
      <trkpt lat="49.92739" lon="1.07942">
        <ele>8.2</ele>
        <time>2020-06-18T11:38:02Z</time>
      </trkpt>
      <trkpt lat="49.92738" lon="1.07942">
        <ele>8.2</ele>
        <time>2020-06-18T11:38:03Z</time>
      </trkpt>
      <trkpt lat="49.92737" lon="1.07943">
        <ele>8.2</ele>
        <time>2020-06-18T11:38:04Z</time>
      </trkpt>
      <trkpt lat="49.92737" lon="1.07942">
        <ele>8.2</ele>
        <time>2020-06-18T11:38:05Z</time>
      </trkpt>
      <trkpt lat="49.92737" lon="1.07942">
        <ele>8.2</ele>
        <time>2020-06-18T11:38:06Z</time>
      </trkpt>
      <trkpt lat="49.92737" lon="1.07942">
        <ele>8.2</ele>
        <time>2020-06-18T11:38:07Z</time>
      </trkpt>
      <trkpt lat="49.92737" lon="1.07942">
        <ele>8.2</ele>
        <time>2020-06-18T11:38:08Z</time>
      </trkpt>
      <trkpt lat="49.92736" lon="1.07941">
        <ele>8.2</ele>
        <time>2020-06-18T11:38:09Z</time>
      </trkpt>
      <trkpt lat="49.92736" lon="1.0794">
        <ele>8.3</ele>
        <time>2020-06-18T11:38:10Z</time>
      </trkpt>
      <trkpt lat="49.92735" lon="1.0794">
        <ele>8.3</ele>
        <time>2020-06-18T11:38:11Z</time>
      </trkpt>
      <trkpt lat="49.92734" lon="1.07939">
        <ele>8.3</ele>
        <time>2020-06-18T11:38:12Z</time>
      </trkpt>
      <trkpt lat="49.92733" lon="1.07939">
        <ele>8.3</ele>
        <time>2020-06-18T11:38:13Z</time>
      </trkpt>
      <trkpt lat="49.92733" lon="1.07938">
        <ele>8.3</ele>
        <time>2020-06-18T11:38:14Z</time>
      </trkpt>
      <trkpt lat="49.92733" lon="1.07938">
        <ele>8.3</ele>
        <time>2020-06-18T11:38:15Z</time>
      </trkpt>
      <trkpt lat="49.92732" lon="1.07937">
        <ele>8.3</ele>
        <time>2020-06-18T11:38:16Z</time>
      </trkpt>
      <trkpt lat="49.92731" lon="1.07936">
        <ele>8.3</ele>
        <time>2020-06-18T11:38:17Z</time>
      </trkpt>
      <trkpt lat="49.92731" lon="1.07934">
        <ele>8.4</ele>
        <time>2020-06-18T11:38:18Z</time>
      </trkpt>
      <trkpt lat="49.92732" lon="1.07929">
        <ele>8.5</ele>
        <time>2020-06-18T11:38:19Z</time>
      </trkpt>
      <trkpt lat="49.92731" lon="1.07927">
        <ele>8.5</ele>
        <time>2020-06-18T11:38:20Z</time>
      </trkpt>
      <trkpt lat="49.92731" lon="1.07926">
        <ele>8.6</ele>
        <time>2020-06-18T11:38:21Z</time>
      </trkpt>
      <trkpt lat="49.9273" lon="1.07925">
        <ele>8.6</ele>
        <time>2020-06-18T11:38:22Z</time>
      </trkpt>
      <trkpt lat="49.92729" lon="1.07924">
        <ele>8.6</ele>
        <time>2020-06-18T11:38:23Z</time>
      </trkpt>
      <trkpt lat="49.92725" lon="1.07922">
        <ele>8.6</ele>
        <time>2020-06-18T11:38:27Z</time>
      </trkpt>
      <trkpt lat="49.92723" lon="1.07922">
        <ele>8.7</ele>
        <time>2020-06-18T11:38:28Z</time>
      </trkpt>
      <trkpt lat="49.92723" lon="1.07922">
        <ele>8.7</ele>
        <time>2020-06-18T11:38:29Z</time>
      </trkpt>
      <trkpt lat="49.92723" lon="1.07921">
        <ele>8.7</ele>
        <time>2020-06-18T11:38:30Z</time>
      </trkpt>
      <trkpt lat="49.92723" lon="1.0792">
        <ele>8.7</ele>
        <time>2020-06-18T11:38:31Z</time>
      </trkpt>
      <trkpt lat="49.92722" lon="1.0792">
        <ele>8.7</ele>
        <time>2020-06-18T11:38:32Z</time>
      </trkpt>
      <trkpt lat="49.92723" lon="1.0792">
        <ele>8.7</ele>
        <time>2020-06-18T11:38:33Z</time>
      </trkpt>
      <trkpt lat="49.92723" lon="1.07919">
        <ele>8.7</ele>
        <time>2020-06-18T11:38:34Z</time>
      </trkpt>
      <trkpt lat="49.92723" lon="1.07919">
        <ele>8.7</ele>
        <time>2020-06-18T11:38:35Z</time>
      </trkpt>
      <trkpt lat="49.92723" lon="1.07918">
        <ele>8.7</ele>
        <time>2020-06-18T11:38:36Z</time>
      </trkpt>
      <trkpt lat="49.92723" lon="1.07917">
        <ele>8.7</ele>
        <time>2020-06-18T11:38:37Z</time>
      </trkpt>
      <trkpt lat="49.92724" lon="1.07916">
        <ele>8.7</ele>
        <time>2020-06-18T11:38:38Z</time>
      </trkpt>
      <trkpt lat="49.92724" lon="1.07913">
        <ele>8.7</ele>
        <time>2020-06-18T11:38:39Z</time>
      </trkpt>
      <trkpt lat="49.92725" lon="1.07911">
        <ele>8.7</ele>
        <time>2020-06-18T11:38:40Z</time>
      </trkpt>
      <trkpt lat="49.92725" lon="1.0791">
        <ele>8.7</ele>
        <time>2020-06-18T11:38:41Z</time>
      </trkpt>
      <trkpt lat="49.92725" lon="1.07908">
        <ele>8.8</ele>
        <time>2020-06-18T11:38:42Z</time>
      </trkpt>
      <trkpt lat="49.92726" lon="1.07906">
        <ele>8.8</ele>
        <time>2020-06-18T11:38:43Z</time>
      </trkpt>
      <trkpt lat="49.92726" lon="1.07903">
        <ele>8.8</ele>
        <time>2020-06-18T11:38:44Z</time>
      </trkpt>
      <trkpt lat="49.92727" lon="1.07902">
        <ele>8.8</ele>
        <time>2020-06-18T11:38:45Z</time>
      </trkpt>
      <trkpt lat="49.92728" lon="1.079">
        <ele>8.8</ele>
        <time>2020-06-18T11:38:46Z</time>
      </trkpt>
      <trkpt lat="49.92728" lon="1.07899">
        <ele>8.8</ele>
        <time>2020-06-18T11:38:47Z</time>
      </trkpt>
      <trkpt lat="49.92729" lon="1.07898">
        <ele>8.8</ele>
        <time>2020-06-18T11:38:48Z</time>
      </trkpt>
      <trkpt lat="49.92728" lon="1.07899">
        <ele>8.8</ele>
        <time>2020-06-18T11:38:49Z</time>
      </trkpt>
      <trkpt lat="49.9273" lon="1.07896">
        <ele>8.8</ele>
        <time>2020-06-18T11:38:50Z</time>
      </trkpt>
      <trkpt lat="49.9273" lon="1.07896">
        <ele>8.8</ele>
        <time>2020-06-18T11:38:51Z</time>
      </trkpt>
      <trkpt lat="49.92731" lon="1.07895">
        <ele>8.8</ele>
        <time>2020-06-18T11:38:52Z</time>
      </trkpt>
      <trkpt lat="49.92731" lon="1.07896">
        <ele>8.8</ele>
        <time>2020-06-18T11:38:53Z</time>
      </trkpt>
      <trkpt lat="49.92731" lon="1.07896">
        <ele>8.8</ele>
        <time>2020-06-18T11:38:54Z</time>
      </trkpt>
      <trkpt lat="49.92731" lon="1.07896">
        <ele>8.8</ele>
        <time>2020-06-18T11:38:55Z</time>
      </trkpt>
      <trkpt lat="49.92731" lon="1.07896">
        <ele>8.8</ele>
        <time>2020-06-18T11:38:56Z</time>
      </trkpt>
      <trkpt lat="49.92731" lon="1.07896">
        <ele>8.8</ele>
        <time>2020-06-18T11:38:57Z</time>
      </trkpt>
      <trkpt lat="49.92731" lon="1.07896">
        <ele>8.8</ele>
        <time>2020-06-18T11:38:58Z</time>
      </trkpt>
      <trkpt lat="49.92731" lon="1.07897">
        <ele>8.8</ele>
        <time>2020-06-18T11:38:59Z</time>
      </trkpt>
      <trkpt lat="49.9273" lon="1.07897">
        <ele>8.8</ele>
        <time>2020-06-18T11:39:00Z</time>
      </trkpt>
      <trkpt lat="49.92734" lon="1.07891">
        <ele>8.8</ele>
        <time>2020-06-18T11:39:19Z</time>
      </trkpt>
      <trkpt lat="49.92734" lon="1.0789">
        <ele>8.8</ele>
        <time>2020-06-18T11:39:20Z</time>
      </trkpt>
      <trkpt lat="49.92735" lon="1.07889">
        <ele>8.8</ele>
        <time>2020-06-18T11:39:21Z</time>
      </trkpt>
      <trkpt lat="49.92735" lon="1.07889">
        <ele>8.8</ele>
        <time>2020-06-18T11:39:22Z</time>
      </trkpt>
      <trkpt lat="49.92735" lon="1.07889">
        <ele>8.8</ele>
        <time>2020-06-18T11:39:23Z</time>
      </trkpt>
      <trkpt lat="49.92735" lon="1.07889">
        <ele>8.8</ele>
        <time>2020-06-18T11:39:24Z</time>
      </trkpt>
      <trkpt lat="49.92736" lon="1.07889">
        <ele>8.8</ele>
        <time>2020-06-18T11:39:25Z</time>
      </trkpt>
      <trkpt lat="49.92736" lon="1.07888">
        <ele>8.8</ele>
        <time>2020-06-18T11:39:26Z</time>
      </trkpt>
      <trkpt lat="49.92737" lon="1.07887">
        <ele>8.8</ele>
        <time>2020-06-18T11:39:27Z</time>
      </trkpt>
      <trkpt lat="49.92737" lon="1.07887">
        <ele>8.8</ele>
        <time>2020-06-18T11:39:28Z</time>
      </trkpt>
      <trkpt lat="49.92737" lon="1.07886">
        <ele>8.8</ele>
        <time>2020-06-18T11:39:29Z</time>
      </trkpt>
      <trkpt lat="49.92737" lon="1.07886">
        <ele>8.8</ele>
        <time>2020-06-18T11:39:30Z</time>
      </trkpt>
      <trkpt lat="49.92737" lon="1.07886">
        <ele>8.8</ele>
        <time>2020-06-18T11:39:31Z</time>
      </trkpt>
      <trkpt lat="49.92737" lon="1.07886">
        <ele>8.8</ele>
        <time>2020-06-18T11:39:32Z</time>
      </trkpt>
      <trkpt lat="49.92738" lon="1.07885">
        <ele>8.8</ele>
        <time>2020-06-18T11:39:33Z</time>
      </trkpt>
      <trkpt lat="49.92738" lon="1.07885">
        <ele>8.8</ele>
        <time>2020-06-18T11:39:34Z</time>
      </trkpt>
      <trkpt lat="49.92738" lon="1.07886">
        <ele>8.8</ele>
        <time>2020-06-18T11:39:35Z</time>
      </trkpt>
      <trkpt lat="49.92738" lon="1.07887">
        <ele>8.8</ele>
        <time>2020-06-18T11:39:36Z</time>
      </trkpt>
      <trkpt lat="49.92737" lon="1.07888">
        <ele>8.8</ele>
        <time>2020-06-18T11:39:37Z</time>
      </trkpt>
      <trkpt lat="49.92737" lon="1.07888">
        <ele>8.8</ele>
        <time>2020-06-18T11:39:38Z</time>
      </trkpt>
      <trkpt lat="49.92737" lon="1.07888">
        <ele>8.8</ele>
        <time>2020-06-18T11:39:39Z</time>
      </trkpt>
      <trkpt lat="49.92721" lon="1.0789">
        <ele>8.9</ele>
        <time>2020-06-18T11:41:41Z</time>
      </trkpt>
      <trkpt lat="49.92723" lon="1.07891">
        <ele>8.9</ele>
        <time>2020-06-18T11:41:42Z</time>
      </trkpt>
      <trkpt lat="49.92724" lon="1.07894">
        <ele>8.9</ele>
        <time>2020-06-18T11:41:43Z</time>
      </trkpt>
      <trkpt lat="49.92725" lon="1.07894">
        <ele>8.9</ele>
        <time>2020-06-18T11:41:44Z</time>
      </trkpt>
      <trkpt lat="49.92727" lon="1.07895">
        <ele>8.9</ele>
        <time>2020-06-18T11:41:45Z</time>
      </trkpt>
      <trkpt lat="49.92728" lon="1.07896">
        <ele>8.9</ele>
        <time>2020-06-18T11:41:46Z</time>
      </trkpt>
      <trkpt lat="49.92729" lon="1.07897">
        <ele>8.9</ele>
        <time>2020-06-18T11:41:47Z</time>
      </trkpt>
      <trkpt lat="49.92729" lon="1.07898">
        <ele>8.9</ele>
        <time>2020-06-18T11:41:48Z</time>
      </trkpt>
      <trkpt lat="49.92731" lon="1.07901">
        <ele>9</ele>
        <time>2020-06-18T11:41:49Z</time>
      </trkpt>
      <trkpt lat="49.92731" lon="1.07903">
        <ele>9</ele>
        <time>2020-06-18T11:41:50Z</time>
      </trkpt>
      <trkpt lat="49.92732" lon="1.07905">
        <ele>9</ele>
        <time>2020-06-18T11:41:51Z</time>
      </trkpt>
      <trkpt lat="49.92733" lon="1.07907">
        <ele>9</ele>
        <time>2020-06-18T11:41:52Z</time>
      </trkpt>
      <trkpt lat="49.92733" lon="1.07908">
        <ele>9</ele>
        <time>2020-06-18T11:41:53Z</time>
      </trkpt>
      <trkpt lat="49.92733" lon="1.07908">
        <ele>9</ele>
        <time>2020-06-18T11:41:54Z</time>
      </trkpt>
      <trkpt lat="49.92733" lon="1.07909">
        <ele>9</ele>
        <time>2020-06-18T11:41:55Z</time>
      </trkpt>
      <trkpt lat="49.92734" lon="1.07909">
        <ele>9</ele>
        <time>2020-06-18T11:41:56Z</time>
      </trkpt>
      <trkpt lat="49.92734" lon="1.07909">
        <ele>9</ele>
        <time>2020-06-18T11:41:57Z</time>
      </trkpt>
      <trkpt lat="49.92734" lon="1.0791">
        <ele>9</ele>
        <time>2020-06-18T11:41:58Z</time>
      </trkpt>
      <trkpt lat="49.92733" lon="1.07911">
        <ele>9</ele>
        <time>2020-06-18T11:41:59Z</time>
      </trkpt>
      <trkpt lat="49.92732" lon="1.07912">
        <ele>9</ele>
        <time>2020-06-18T11:42:00Z</time>
      </trkpt>
      <trkpt lat="49.92725" lon="1.07918">
        <ele>9</ele>
        <time>2020-06-18T11:50:24Z</time>
      </trkpt>
      <trkpt lat="49.92725" lon="1.07917">
        <ele>9</ele>
        <time>2020-06-18T11:50:25Z</time>
      </trkpt>
      <trkpt lat="49.92725" lon="1.07916">
        <ele>9</ele>
        <time>2020-06-18T11:50:26Z</time>
      </trkpt>
      <trkpt lat="49.92725" lon="1.07915">
        <ele>9</ele>
        <time>2020-06-18T11:50:27Z</time>
      </trkpt>
      <trkpt lat="49.92725" lon="1.07915">
        <ele>9.1</ele>
        <time>2020-06-18T11:50:28Z</time>
      </trkpt>
      <trkpt lat="49.92724" lon="1.07915">
        <ele>9.1</ele>
        <time>2020-06-18T11:50:29Z</time>
      </trkpt>
      <trkpt lat="49.92724" lon="1.07915">
        <ele>9.1</ele>
        <time>2020-06-18T11:50:30Z</time>
      </trkpt>
      <trkpt lat="49.92724" lon="1.07914">
        <ele>9.1</ele>
        <time>2020-06-18T11:50:31Z</time>
      </trkpt>
      <trkpt lat="49.92715" lon="1.07882">
        <ele>9.2</ele>
        <time>2020-06-18T12:07:52Z</time>
      </trkpt>
      <trkpt lat="49.92714" lon="1.07879">
        <ele>9.2</ele>
        <time>2020-06-18T12:07:53Z</time>
      </trkpt>
      <trkpt lat="49.92714" lon="1.07878">
        <ele>9.2</ele>
        <time>2020-06-18T12:07:54Z</time>
      </trkpt>
      <trkpt lat="49.92714" lon="1.07881">
        <ele>9.2</ele>
        <time>2020-06-18T12:07:55Z</time>
      </trkpt>
      <trkpt lat="49.92714" lon="1.07884">
        <ele>9.2</ele>
        <time>2020-06-18T12:07:56Z</time>
      </trkpt>
      <trkpt lat="49.92714" lon="1.07887">
        <ele>9.2</ele>
        <time>2020-06-18T12:07:57Z</time>
      </trkpt>
      <trkpt lat="49.92714" lon="1.0789">
        <ele>9.2</ele>
        <time>2020-06-18T12:07:58Z</time>
      </trkpt>
      <trkpt lat="49.92714" lon="1.07893">
        <ele>9.1</ele>
        <time>2020-06-18T12:07:59Z</time>
      </trkpt>
      <trkpt lat="49.92714" lon="1.07896">
        <ele>9.1</ele>
        <time>2020-06-18T12:08:00Z</time>
      </trkpt>
      <trkpt lat="49.92714" lon="1.07899">
        <ele>9</ele>
        <time>2020-06-18T12:08:01Z</time>
      </trkpt>
      <trkpt lat="49.92714" lon="1.07903">
        <ele>9</ele>
        <time>2020-06-18T12:08:02Z</time>
      </trkpt>
      <trkpt lat="49.92714" lon="1.07906">
        <ele>8.9</ele>
        <time>2020-06-18T12:08:03Z</time>
      </trkpt>
      <trkpt lat="49.92714" lon="1.07909">
        <ele>8.9</ele>
        <time>2020-06-18T12:08:04Z</time>
      </trkpt>
      <trkpt lat="49.92714" lon="1.07912">
        <ele>8.8</ele>
        <time>2020-06-18T12:08:05Z</time>
      </trkpt>
      <trkpt lat="49.92714" lon="1.07915">
        <ele>8.8</ele>
        <time>2020-06-18T12:08:06Z</time>
      </trkpt>
      <trkpt lat="49.92714" lon="1.07918">
        <ele>8.8</ele>
        <time>2020-06-18T12:08:07Z</time>
      </trkpt>
      <trkpt lat="49.92714" lon="1.07921">
        <ele>8.7</ele>
        <time>2020-06-18T12:08:08Z</time>
      </trkpt>
      <trkpt lat="49.92714" lon="1.07924">
        <ele>8.7</ele>
        <time>2020-06-18T12:08:09Z</time>
      </trkpt>
      <trkpt lat="49.92714" lon="1.07927">
        <ele>8.7</ele>
        <time>2020-06-18T12:52:07Z</time>
      </trkpt>
      <trkpt lat="49.92714" lon="1.0793">
        <ele>8.2</ele>
        <time>2020-06-18T12:52:08Z</time>
      </trkpt>
      <trkpt lat="49.92714" lon="1.07933">
        <ele>8.2</ele>
        <time>2020-06-18T12:52:09Z</time>
      </trkpt>
      <trkpt lat="49.92714" lon="1.07936">
        <ele>8.2</ele>
        <time>2020-06-18T12:52:10Z</time>
      </trkpt>
      <trkpt lat="49.92713" lon="1.07939">
        <ele>8.2</ele>
        <time>2020-06-18T12:52:11Z</time>
      </trkpt>
      <trkpt lat="49.92713" lon="1.07942">
        <ele>8.2</ele>
        <time>2020-06-18T12:52:12Z</time>
      </trkpt>
      <trkpt lat="49.92713" lon="1.07946">
        <ele>8.2</ele>
        <time>2020-06-18T12:52:13Z</time>
      </trkpt>
      <trkpt lat="49.92713" lon="1.07949">
        <ele>8.2</ele>
        <time>2020-06-18T12:52:14Z</time>
      </trkpt>
      <trkpt lat="49.92713" lon="1.07952">
        <ele>8.2</ele>
        <time>2020-06-18T12:52:15Z</time>
      </trkpt>
      <trkpt lat="49.92713" lon="1.07955">
        <ele>8.2</ele>
        <time>2020-06-18T12:52:16Z</time>
      </trkpt>
      <trkpt lat="49.92713" lon="1.07958">
        <ele>8.2</ele>
        <time>2020-06-18T12:52:17Z</time>
      </trkpt>
      <trkpt lat="49.92713" lon="1.07961">
        <ele>8.2</ele>
        <time>2020-06-18T12:56:52Z</time>
      </trkpt>
      <trkpt lat="49.92713" lon="1.07964">
        <ele>8.2</ele>
        <time>2020-06-18T12:56:53Z</time>
      </trkpt>
      <trkpt lat="49.92716" lon="1.07966">
        <ele>8.2</ele>
        <time>2020-06-18T12:56:54Z</time>
      </trkpt>
      <trkpt lat="49.92718" lon="1.07958">
        <ele>8.2</ele>
        <time>2020-06-18T12:56:55Z</time>
      </trkpt>
      <trkpt lat="49.92721" lon="1.07951">
        <ele>8.2</ele>
        <time>2020-06-18T12:56:56Z</time>
      </trkpt>
      <trkpt lat="49.92723" lon="1.07943">
        <ele>8.2</ele>
        <time>2020-06-18T12:56:57Z</time>
      </trkpt>
      <trkpt lat="49.92724" lon="1.07944">
        <ele>8.2</ele>
        <time>2020-06-18T12:56:58Z</time>
      </trkpt>
      <trkpt lat="49.92723" lon="1.07945">
        <ele>8.2</ele>
        <time>2020-06-18T12:56:59Z</time>
      </trkpt>
      <trkpt lat="49.92724" lon="1.07946">
        <ele>8.2</ele>
        <time>2020-06-18T12:57:00Z</time>
      </trkpt>
      <trkpt lat="49.92724" lon="1.07947">
        <ele>8.2</ele>
        <time>2020-06-18T12:57:01Z</time>
      </trkpt>
      <trkpt lat="49.92725" lon="1.07949">
        <ele>8.2</ele>
        <time>2020-06-18T12:57:02Z</time>
      </trkpt>
      <trkpt lat="49.92725" lon="1.07948">
        <ele>8.2</ele>
        <time>2020-06-18T12:57:03Z</time>
      </trkpt>
      <trkpt lat="49.92725" lon="1.07945">
        <ele>8.2</ele>
        <time>2020-06-18T12:57:04Z</time>
      </trkpt>
      <trkpt lat="49.92725" lon="1.07945">
        <ele>8.2</ele>
        <time>2020-06-18T12:57:05Z</time>
      </trkpt>
      <trkpt lat="49.92725" lon="1.07943">
        <ele>8.2</ele>
        <time>2020-06-18T12:57:06Z</time>
      </trkpt>
      <trkpt lat="49.92725" lon="1.07941">
        <ele>8.2</ele>
        <time>2020-06-18T12:57:07Z</time>
      </trkpt>
      <trkpt lat="49.92724" lon="1.0794">
        <ele>8.2</ele>
        <time>2020-06-18T12:57:08Z</time>
      </trkpt>
      <trkpt lat="49.92723" lon="1.07939">
        <ele>8.2</ele>
        <time>2020-06-18T12:57:09Z</time>
      </trkpt>
      <trkpt lat="49.92722" lon="1.07938">
        <ele>8.2</ele>
        <time>2020-06-18T12:57:10Z</time>
      </trkpt>
      <trkpt lat="49.92721" lon="1.07937">
        <ele>8.2</ele>
        <time>2020-06-18T12:57:11Z</time>
      </trkpt>
      <trkpt lat="49.9272" lon="1.07936">
        <ele>8.2</ele>
        <time>2020-06-18T12:57:12Z</time>
      </trkpt>
      <trkpt lat="49.92719" lon="1.07934">
        <ele>8.1</ele>
        <time>2020-06-18T12:59:06Z</time>
      </trkpt>
      <trkpt lat="49.92718" lon="1.07933">
        <ele>8.1</ele>
        <time>2020-06-18T12:59:07Z</time>
      </trkpt>
      <trkpt lat="49.92715" lon="1.07934">
        <ele>8.1</ele>
        <time>2020-06-18T12:59:08Z</time>
      </trkpt>
      <trkpt lat="49.92714" lon="1.07935">
        <ele>8.1</ele>
        <time>2020-06-18T12:59:09Z</time>
      </trkpt>
      <trkpt lat="49.92711" lon="1.07935">
        <ele>8</ele>
        <time>2020-06-18T12:59:10Z</time>
      </trkpt>
      <trkpt lat="49.92707" lon="1.07936">
        <ele>8</ele>
        <time>2020-06-18T12:59:11Z</time>
      </trkpt>
      <trkpt lat="49.92703" lon="1.07937">
        <ele>7.9</ele>
        <time>2020-06-18T12:59:12Z</time>
      </trkpt>
      <trkpt lat="49.92699" lon="1.07938">
        <ele>7.9</ele>
        <time>2020-06-18T12:59:13Z</time>
      </trkpt>
      <trkpt lat="49.92695" lon="1.0794">
        <ele>7.8</ele>
        <time>2020-06-18T12:59:14Z</time>
      </trkpt>
      <trkpt lat="49.92692" lon="1.07941">
        <ele>7.7</ele>
        <time>2020-06-18T12:59:15Z</time>
      </trkpt>
      <trkpt lat="49.92688" lon="1.07943">
        <ele>7.7</ele>
        <time>2020-06-18T12:59:16Z</time>
      </trkpt>
      <trkpt lat="49.92682" lon="1.07945">
        <ele>7.6</ele>
        <time>2020-06-18T12:59:17Z</time>
      </trkpt>
      <trkpt lat="49.92678" lon="1.07947">
        <ele>7.5</ele>
        <time>2020-06-18T12:59:18Z</time>
      </trkpt>
      <trkpt lat="49.92673" lon="1.0795">
        <ele>7.5</ele>
        <time>2020-06-18T12:59:19Z</time>
      </trkpt>
      <trkpt lat="49.9267" lon="1.07953">
        <ele>7.5</ele>
        <time>2020-06-18T12:59:20Z</time>
      </trkpt>
      <trkpt lat="49.92667" lon="1.07956">
        <ele>7.5</ele>
        <time>2020-06-18T12:59:21Z</time>
      </trkpt>
      <trkpt lat="49.92664" lon="1.07957">
        <ele>7.5</ele>
        <time>2020-06-18T12:59:22Z</time>
      </trkpt>
      <trkpt lat="49.92659" lon="1.07959">
        <ele>7.5</ele>
        <time>2020-06-18T12:59:23Z</time>
      </trkpt>
      <trkpt lat="49.92655" lon="1.07961">
        <ele>7.5</ele>
        <time>2020-06-18T12:59:24Z</time>
      </trkpt>
      <trkpt lat="49.92652" lon="1.07963">
        <ele>7.5</ele>
        <time>2020-06-18T12:59:25Z</time>
      </trkpt>
      <trkpt lat="49.92648" lon="1.07964">
        <ele>7.6</ele>
        <time>2020-06-18T12:59:26Z</time>
      </trkpt>
      <trkpt lat="49.92644" lon="1.07966">
        <ele>7.5</ele>
        <time>2020-06-18T12:59:27Z</time>
      </trkpt>
      <trkpt lat="49.92639" lon="1.07968">
        <ele>7.4</ele>
        <time>2020-06-18T12:59:28Z</time>
      </trkpt>
      <trkpt lat="49.92634" lon="1.07971">
        <ele>7.4</ele>
        <time>2020-06-18T12:59:29Z</time>
      </trkpt>
      <trkpt lat="49.9263" lon="1.07974">
        <ele>7.3</ele>
        <time>2020-06-18T12:59:30Z</time>
      </trkpt>
      <trkpt lat="49.92626" lon="1.07978">
        <ele>7.2</ele>
        <time>2020-06-18T12:59:31Z</time>
      </trkpt>
      <trkpt lat="49.92621" lon="1.07981">
        <ele>7.1</ele>
        <time>2020-06-18T12:59:32Z</time>
      </trkpt>
      <trkpt lat="49.92616" lon="1.07984">
        <ele>7.1</ele>
        <time>2020-06-18T12:59:33Z</time>
      </trkpt>
      <trkpt lat="49.92611" lon="1.07986">
        <ele>7.1</ele>
        <time>2020-06-18T12:59:34Z</time>
      </trkpt>
      <trkpt lat="49.92607" lon="1.07989">
        <ele>7</ele>
        <time>2020-06-18T12:59:35Z</time>
      </trkpt>
      <trkpt lat="49.92602" lon="1.07992">
        <ele>7</ele>
        <time>2020-06-18T12:59:36Z</time>
      </trkpt>
      <trkpt lat="49.92598" lon="1.07994">
        <ele>7</ele>
        <time>2020-06-18T12:59:37Z</time>
      </trkpt>
      <trkpt lat="49.92594" lon="1.07997">
        <ele>7</ele>
        <time>2020-06-18T12:59:38Z</time>
      </trkpt>
      <trkpt lat="49.92591" lon="1.07999">
        <ele>7</ele>
        <time>2020-06-18T12:59:39Z</time>
      </trkpt>
      <trkpt lat="49.92587" lon="1.08001">
        <ele>7</ele>
        <time>2020-06-18T12:59:40Z</time>
      </trkpt>
      <trkpt lat="49.92584" lon="1.08003">
        <ele>6.9</ele>
        <time>2020-06-18T12:59:41Z</time>
      </trkpt>
      <trkpt lat="49.9258" lon="1.08005">
        <ele>6.9</ele>
        <time>2020-06-18T12:59:42Z</time>
      </trkpt>
      <trkpt lat="49.92577" lon="1.08006">
        <ele>6.9</ele>
        <time>2020-06-18T12:59:43Z</time>
      </trkpt>
      <trkpt lat="49.92574" lon="1.08009">
        <ele>6.9</ele>
        <time>2020-06-18T12:59:44Z</time>
      </trkpt>
      <trkpt lat="49.92571" lon="1.08012">
        <ele>6.9</ele>
        <time>2020-06-18T12:59:45Z</time>
      </trkpt>
      <trkpt lat="49.9257" lon="1.08013">
        <ele>6.9</ele>
        <time>2020-06-18T12:59:46Z</time>
      </trkpt>
      <trkpt lat="49.92568" lon="1.08014">
        <ele>6.9</ele>
        <time>2020-06-18T12:59:47Z</time>
      </trkpt>
      <trkpt lat="49.92567" lon="1.08015">
        <ele>6.9</ele>
        <time>2020-06-18T12:59:48Z</time>
      </trkpt>
      <trkpt lat="49.92565" lon="1.08016">
        <ele>6.9</ele>
        <time>2020-06-18T12:59:49Z</time>
      </trkpt>
      <trkpt lat="49.92565" lon="1.08016">
        <ele>6.9</ele>
        <time>2020-06-18T12:59:50Z</time>
      </trkpt>
      <trkpt lat="49.92564" lon="1.08016">
        <ele>6.9</ele>
        <time>2020-06-18T12:59:51Z</time>
      </trkpt>
      <trkpt lat="49.92566" lon="1.08014">
        <ele>6.9</ele>
        <time>2020-06-18T12:59:52Z</time>
      </trkpt>
      <trkpt lat="49.92565" lon="1.08013">
        <ele>6.9</ele>
        <time>2020-06-18T12:59:53Z</time>
      </trkpt>
      <trkpt lat="49.92565" lon="1.08013">
        <ele>6.9</ele>
        <time>2020-06-18T12:59:54Z</time>
      </trkpt>
      <trkpt lat="49.92564" lon="1.08013">
        <ele>6.9</ele>
        <time>2020-06-18T12:59:55Z</time>
      </trkpt>
      <trkpt lat="49.92564" lon="1.08014">
        <ele>6.9</ele>
        <time>2020-06-18T12:59:56Z</time>
      </trkpt>
      <trkpt lat="49.92565" lon="1.08016">
        <ele>6.9</ele>
        <time>2020-06-18T12:59:57Z</time>
      </trkpt>
      <trkpt lat="49.92564" lon="1.08016">
        <ele>6.9</ele>
        <time>2020-06-18T12:59:58Z</time>
      </trkpt>
      <trkpt lat="49.92564" lon="1.08016">
        <ele>6.9</ele>
        <time>2020-06-18T12:59:59Z</time>
      </trkpt>
      <trkpt lat="49.92564" lon="1.08015">
        <ele>6.9</ele>
        <time>2020-06-18T13:00:00Z</time>
      </trkpt>
      <trkpt lat="49.92565" lon="1.08015">
        <ele>6.9</ele>
        <time>2020-06-18T13:00:01Z</time>
      </trkpt>
      <trkpt lat="49.92564" lon="1.08015">
        <ele>6.9</ele>
        <time>2020-06-18T13:00:02Z</time>
      </trkpt>
      <trkpt lat="49.92564" lon="1.08015">
        <ele>6.9</ele>
        <time>2020-06-18T13:00:03Z</time>
      </trkpt>
      <trkpt lat="49.92563" lon="1.08016">
        <ele>6.9</ele>
        <time>2020-06-18T13:00:04Z</time>
      </trkpt>
      <trkpt lat="49.92562" lon="1.08016">
        <ele>6.9</ele>
        <time>2020-06-18T13:00:05Z</time>
      </trkpt>
      <trkpt lat="49.92563" lon="1.08015">
        <ele>6.9</ele>
        <time>2020-06-18T13:00:06Z</time>
      </trkpt>
      <trkpt lat="49.92563" lon="1.08015">
        <ele>6.9</ele>
        <time>2020-06-18T13:00:07Z</time>
      </trkpt>
      <trkpt lat="49.92551" lon="1.08221">
        <ele>6.4</ele>
        <time>2020-06-18T13:03:54Z</time>
      </trkpt>
      <trkpt lat="49.9255" lon="1.08212">
        <ele>5.8</ele>
        <time>2020-06-18T13:03:55Z</time>
      </trkpt>
      <trkpt lat="49.92549" lon="1.08204">
        <ele>5.1</ele>
        <time>2020-06-18T13:03:56Z</time>
      </trkpt>
      <trkpt lat="49.92549" lon="1.08203">
        <ele>5.1</ele>
        <time>2020-06-18T13:03:57Z</time>
      </trkpt>
      <trkpt lat="49.92549" lon="1.08203">
        <ele>5.1</ele>
        <time>2020-06-18T13:03:58Z</time>
      </trkpt>
      <trkpt lat="49.9255" lon="1.08203">
        <ele>5.1</ele>
        <time>2020-06-18T13:03:59Z</time>
      </trkpt>
      <trkpt lat="49.92549" lon="1.08203">
        <ele>5.1</ele>
        <time>2020-06-18T13:04:00Z</time>
      </trkpt>
      <trkpt lat="49.92549" lon="1.08203">
        <ele>5.1</ele>
        <time>2020-06-18T13:04:01Z</time>
      </trkpt>
      <trkpt lat="49.92549" lon="1.08203">
        <ele>5.1</ele>
        <time>2020-06-18T13:04:02Z</time>
      </trkpt>
      <trkpt lat="49.92549" lon="1.08203">
        <ele>5.1</ele>
        <time>2020-06-18T13:04:03Z</time>
      </trkpt>
      <trkpt lat="49.92549" lon="1.08201">
        <ele>4.7</ele>
        <time>2020-06-18T13:04:04Z</time>
      </trkpt>
      <trkpt lat="49.92549" lon="1.08199">
        <ele>4.7</ele>
        <time>2020-06-18T13:04:05Z</time>
      </trkpt>
      <trkpt lat="49.92548" lon="1.08198">
        <ele>4.3</ele>
        <time>2020-06-18T13:04:06Z</time>
      </trkpt>
      <trkpt lat="49.92551" lon="1.08163">
        <ele>2.4</ele>
        <time>2020-06-18T13:05:08Z</time>
      </trkpt>
      <trkpt lat="49.92551" lon="1.08162">
        <ele>2.4</ele>
        <time>2020-06-18T13:05:09Z</time>
      </trkpt>
      <trkpt lat="49.92551" lon="1.08161">
        <ele>2.4</ele>
        <time>2020-06-18T13:05:10Z</time>
      </trkpt>
      <trkpt lat="49.92552" lon="1.08161">
        <ele>2.4</ele>
        <time>2020-06-18T13:05:11Z</time>
      </trkpt>
      <trkpt lat="49.92552" lon="1.0816">
        <ele>2.4</ele>
        <time>2020-06-18T13:05:12Z</time>
      </trkpt>
      <trkpt lat="49.92552" lon="1.08159">
        <ele>2.4</ele>
        <time>2020-06-18T13:05:13Z</time>
      </trkpt>
      <trkpt lat="49.92552" lon="1.0816">
        <ele>2.4</ele>
        <time>2020-06-18T13:05:14Z</time>
      </trkpt>
      <trkpt lat="49.92552" lon="1.08159">
        <ele>2.4</ele>
        <time>2020-06-18T13:05:15Z</time>
      </trkpt>
      <trkpt lat="49.92552" lon="1.08159">
        <ele>2.4</ele>
        <time>2020-06-18T13:05:16Z</time>
      </trkpt>
      <trkpt lat="49.92551" lon="1.0816">
        <ele>2.5</ele>
        <time>2020-06-18T13:05:17Z</time>
      </trkpt>
      <trkpt lat="49.92551" lon="1.08159">
        <ele>2.4</ele>
        <time>2020-06-18T13:05:18Z</time>
      </trkpt>
      <trkpt lat="49.92552" lon="1.08159">
        <ele>2.4</ele>
        <time>2020-06-18T13:05:19Z</time>
      </trkpt>
      <trkpt lat="49.92553" lon="1.08157">
        <ele>2.4</ele>
        <time>2020-06-18T13:05:20Z</time>
      </trkpt>
      <trkpt lat="49.92553" lon="1.08156">
        <ele>2.4</ele>
        <time>2020-06-18T13:05:21Z</time>
      </trkpt>
      <trkpt lat="49.92554" lon="1.08155">
        <ele>2.4</ele>
        <time>2020-06-18T13:05:22Z</time>
      </trkpt>
      <trkpt lat="49.92554" lon="1.08155">
        <ele>2.4</ele>
        <time>2020-06-18T13:05:23Z</time>
      </trkpt>
      <trkpt lat="49.92554" lon="1.08155">
        <ele>2.4</ele>
        <time>2020-06-18T13:05:24Z</time>
      </trkpt>
      <trkpt lat="49.92553" lon="1.08155">
        <ele>2.5</ele>
        <time>2020-06-18T13:05:25Z</time>
      </trkpt>
      <trkpt lat="49.92556" lon="1.08154">
        <ele>2.4</ele>
        <time>2020-06-18T13:05:26Z</time>
      </trkpt>
      <trkpt lat="49.92556" lon="1.08154">
        <ele>2.4</ele>
        <time>2020-06-18T13:05:27Z</time>
      </trkpt>
      <trkpt lat="49.92556" lon="1.08154">
        <ele>2.4</ele>
        <time>2020-06-18T13:05:28Z</time>
      </trkpt>
      <trkpt lat="49.92556" lon="1.08154">
        <ele>2.5</ele>
        <time>2020-06-18T13:05:29Z</time>
      </trkpt>
      <trkpt lat="49.92556" lon="1.08153">
        <ele>2.5</ele>
        <time>2020-06-18T13:05:30Z</time>
      </trkpt>
      <trkpt lat="49.92556" lon="1.08152">
        <ele>2.5</ele>
        <time>2020-06-18T13:05:31Z</time>
      </trkpt>
      <trkpt lat="49.92555" lon="1.08151">
        <ele>2.5</ele>
        <time>2020-06-18T13:05:32Z</time>
      </trkpt>
      <trkpt lat="49.92556" lon="1.0815">
        <ele>2.5</ele>
        <time>2020-06-18T13:05:33Z</time>
      </trkpt>
      <trkpt lat="49.92556" lon="1.0815">
        <ele>2.5</ele>
        <time>2020-06-18T13:05:34Z</time>
      </trkpt>
      <trkpt lat="49.92556" lon="1.0815">
        <ele>2.5</ele>
        <time>2020-06-18T13:05:35Z</time>
      </trkpt>
      <trkpt lat="49.92556" lon="1.0815">
        <ele>2.5</ele>
        <time>2020-06-18T13:05:36Z</time>
      </trkpt>
      <trkpt lat="49.92556" lon="1.0815">
        <ele>2.5</ele>
        <time>2020-06-18T13:05:37Z</time>
      </trkpt>
      <trkpt lat="49.92556" lon="1.08143">
        <ele>2.5</ele>
        <time>2020-06-18T13:05:50Z</time>
      </trkpt>
      <trkpt lat="49.92557" lon="1.08142">
        <ele>2.5</ele>
        <time>2020-06-18T13:05:51Z</time>
      </trkpt>
      <trkpt lat="49.92557" lon="1.08142">
        <ele>2.5</ele>
        <time>2020-06-18T13:05:52Z</time>
      </trkpt>
      <trkpt lat="49.92558" lon="1.0814">
        <ele>2.5</ele>
        <time>2020-06-18T13:05:53Z</time>
      </trkpt>
      <trkpt lat="49.92558" lon="1.08139">
        <ele>2.5</ele>
        <time>2020-06-18T13:05:54Z</time>
      </trkpt>
      <trkpt lat="49.92558" lon="1.08139">
        <ele>2.5</ele>
        <time>2020-06-18T13:05:55Z</time>
      </trkpt>
      <trkpt lat="49.92558" lon="1.08137">
        <ele>2.5</ele>
        <time>2020-06-18T13:05:56Z</time>
      </trkpt>
      <trkpt lat="49.92558" lon="1.08137">
        <ele>2.5</ele>
        <time>2020-06-18T13:05:57Z</time>
      </trkpt>
      <trkpt lat="49.92559" lon="1.08136">
        <ele>2.5</ele>
        <time>2020-06-18T13:05:58Z</time>
      </trkpt>
      <trkpt lat="49.92559" lon="1.08135">
        <ele>2.6</ele>
        <time>2020-06-18T13:05:59Z</time>
      </trkpt>
      <trkpt lat="49.92559" lon="1.08135">
        <ele>2.6</ele>
        <time>2020-06-18T13:06:00Z</time>
      </trkpt>
      <trkpt lat="49.9256" lon="1.08134">
        <ele>2.6</ele>
        <time>2020-06-18T13:06:01Z</time>
      </trkpt>
      <trkpt lat="49.92559" lon="1.08134">
        <ele>2.6</ele>
        <time>2020-06-18T13:06:02Z</time>
      </trkpt>
      <trkpt lat="49.92557" lon="1.08134">
        <ele>2.6</ele>
        <time>2020-06-18T13:06:03Z</time>
      </trkpt>
      <trkpt lat="49.92558" lon="1.08135">
        <ele>2.6</ele>
        <time>2020-06-18T13:06:04Z</time>
      </trkpt>
      <trkpt lat="49.92558" lon="1.08134">
        <ele>2.6</ele>
        <time>2020-06-18T13:06:05Z</time>
      </trkpt>
      <trkpt lat="49.92558" lon="1.08133">
        <ele>2.6</ele>
        <time>2020-06-18T13:06:06Z</time>
      </trkpt>
      <trkpt lat="49.92558" lon="1.08133">
        <ele>2.6</ele>
        <time>2020-06-18T13:06:07Z</time>
      </trkpt>
      <trkpt lat="49.92558" lon="1.0813">
        <ele>2.6</ele>
        <time>2020-06-18T13:06:08Z</time>
      </trkpt>
      <trkpt lat="49.92559" lon="1.08129">
        <ele>2.6</ele>
        <time>2020-06-18T13:06:09Z</time>
      </trkpt>
      <trkpt lat="49.92558" lon="1.08128">
        <ele>2.6</ele>
        <time>2020-06-18T13:06:10Z</time>
      </trkpt>
      <trkpt lat="49.92558" lon="1.08126">
        <ele>2.6</ele>
        <time>2020-06-18T13:06:11Z</time>
      </trkpt>
      <trkpt lat="49.92558" lon="1.08124">
        <ele>2.6</ele>
        <time>2020-06-18T13:06:12Z</time>
      </trkpt>
      <trkpt lat="49.92558" lon="1.08122">
        <ele>2.7</ele>
        <time>2020-06-18T13:06:13Z</time>
      </trkpt>
      <trkpt lat="49.92557" lon="1.08119">
        <ele>2.7</ele>
        <time>2020-06-18T13:06:14Z</time>
      </trkpt>
      <trkpt lat="49.92557" lon="1.08118">
        <ele>2.7</ele>
        <time>2020-06-18T13:06:15Z</time>
      </trkpt>
      <trkpt lat="49.92556" lon="1.08116">
        <ele>2.7</ele>
        <time>2020-06-18T13:06:16Z</time>
      </trkpt>
      <trkpt lat="49.92556" lon="1.08116">
        <ele>2.8</ele>
        <time>2020-06-18T13:06:17Z</time>
      </trkpt>
      <trkpt lat="49.92555" lon="1.08115">
        <ele>2.8</ele>
        <time>2020-06-18T13:06:18Z</time>
      </trkpt>
      <trkpt lat="49.92555" lon="1.08114">
        <ele>2.8</ele>
        <time>2020-06-18T13:06:19Z</time>
      </trkpt>
      <trkpt lat="49.92554" lon="1.08113">
        <ele>2.8</ele>
        <time>2020-06-18T13:06:20Z</time>
      </trkpt>
      <trkpt lat="49.92554" lon="1.08112">
        <ele>2.8</ele>
        <time>2020-06-18T13:06:21Z</time>
      </trkpt>
      <trkpt lat="49.92554" lon="1.08111">
        <ele>2.8</ele>
        <time>2020-06-18T13:06:22Z</time>
      </trkpt>
      <trkpt lat="49.92553" lon="1.0811">
        <ele>2.9</ele>
        <time>2020-06-18T13:06:23Z</time>
      </trkpt>
      <trkpt lat="49.92553" lon="1.08109">
        <ele>2.9</ele>
        <time>2020-06-18T13:06:24Z</time>
      </trkpt>
      <trkpt lat="49.92553" lon="1.08109">
        <ele>2.9</ele>
        <time>2020-06-18T13:06:25Z</time>
      </trkpt>
      <trkpt lat="49.92554" lon="1.08108">
        <ele>2.8</ele>
        <time>2020-06-18T13:06:26Z</time>
      </trkpt>
      <trkpt lat="49.92554" lon="1.08108">
        <ele>2.9</ele>
        <time>2020-06-18T13:06:27Z</time>
      </trkpt>
      <trkpt lat="49.92554" lon="1.08108">
        <ele>2.9</ele>
        <time>2020-06-18T13:06:28Z</time>
      </trkpt>
      <trkpt lat="49.92554" lon="1.08105">
        <ele>2.9</ele>
        <time>2020-06-18T13:06:29Z</time>
      </trkpt>
      <trkpt lat="49.92554" lon="1.08103">
        <ele>3</ele>
        <time>2020-06-18T13:06:30Z</time>
      </trkpt>
      <trkpt lat="49.92553" lon="1.08101">
        <ele>3.1</ele>
        <time>2020-06-18T13:06:31Z</time>
      </trkpt>
      <trkpt lat="49.92552" lon="1.08099">
        <ele>3.3</ele>
        <time>2020-06-18T13:06:32Z</time>
      </trkpt>
      <trkpt lat="49.92552" lon="1.08097">
        <ele>3.3</ele>
        <time>2020-06-18T13:06:33Z</time>
      </trkpt>
      <trkpt lat="49.92551" lon="1.08097">
        <ele>3.3</ele>
        <time>2020-06-18T13:06:34Z</time>
      </trkpt>
      <trkpt lat="49.92551" lon="1.08096">
        <ele>3.3</ele>
        <time>2020-06-18T13:06:35Z</time>
      </trkpt>
      <trkpt lat="49.92551" lon="1.08096">
        <ele>3.3</ele>
        <time>2020-06-18T13:06:36Z</time>
      </trkpt>
      <trkpt lat="49.9255" lon="1.08095">
        <ele>3.6</ele>
        <time>2020-06-18T13:06:37Z</time>
      </trkpt>
      <trkpt lat="49.92551" lon="1.08095">
        <ele>3.5</ele>
        <time>2020-06-18T13:06:38Z</time>
      </trkpt>
      <trkpt lat="49.92551" lon="1.08096">
        <ele>3.3</ele>
        <time>2020-06-18T13:06:39Z</time>
      </trkpt>
      <trkpt lat="49.92552" lon="1.08096">
        <ele>3.3</ele>
        <time>2020-06-18T13:06:40Z</time>
      </trkpt>
      <trkpt lat="49.92553" lon="1.08097">
        <ele>3.3</ele>
        <time>2020-06-18T13:06:41Z</time>
      </trkpt>
      <trkpt lat="49.92553" lon="1.08097">
        <ele>3.3</ele>
        <time>2020-06-18T13:06:42Z</time>
      </trkpt>
      <trkpt lat="49.92554" lon="1.08097">
        <ele>3.2</ele>
        <time>2020-06-18T13:06:43Z</time>
      </trkpt>
      <trkpt lat="49.92554" lon="1.08097">
        <ele>3.2</ele>
        <time>2020-06-18T13:06:44Z</time>
      </trkpt>
      <trkpt lat="49.92555" lon="1.08097">
        <ele>3.2</ele>
        <time>2020-06-18T13:06:45Z</time>
      </trkpt>
      <trkpt lat="49.92554" lon="1.08096">
        <ele>3.3</ele>
        <time>2020-06-18T13:06:46Z</time>
      </trkpt>
      <trkpt lat="49.92554" lon="1.08096">
        <ele>3.3</ele>
        <time>2020-06-18T13:06:47Z</time>
      </trkpt>
      <trkpt lat="49.92554" lon="1.08096">
        <ele>3.3</ele>
        <time>2020-06-18T13:06:48Z</time>
      </trkpt>
      <trkpt lat="49.92555" lon="1.08096">
        <ele>3.3</ele>
        <time>2020-06-18T13:06:49Z</time>
      </trkpt>
      <trkpt lat="49.92555" lon="1.0809">
        <ele>3.6</ele>
        <time>2020-06-18T13:07:12Z</time>
      </trkpt>
      <trkpt lat="49.92556" lon="1.08089">
        <ele>3.6</ele>
        <time>2020-06-18T13:07:13Z</time>
      </trkpt>
      <trkpt lat="49.92556" lon="1.08088">
        <ele>3.6</ele>
        <time>2020-06-18T13:07:14Z</time>
      </trkpt>
      <trkpt lat="49.92556" lon="1.08088">
        <ele>3.5</ele>
        <time>2020-06-18T13:07:15Z</time>
      </trkpt>
      <trkpt lat="49.92556" lon="1.08088">
        <ele>3.5</ele>
        <time>2020-06-18T13:07:16Z</time>
      </trkpt>
      <trkpt lat="49.92556" lon="1.08089">
        <ele>3.5</ele>
        <time>2020-06-18T13:07:17Z</time>
      </trkpt>
      <trkpt lat="49.92557" lon="1.08088">
        <ele>3.5</ele>
        <time>2020-06-18T13:07:18Z</time>
      </trkpt>
      <trkpt lat="49.92557" lon="1.08088">
        <ele>3.5</ele>
        <time>2020-06-18T13:07:19Z</time>
      </trkpt>
      <trkpt lat="49.92558" lon="1.08088">
        <ele>3.5</ele>
        <time>2020-06-18T13:07:20Z</time>
      </trkpt>
      <trkpt lat="49.92558" lon="1.08087">
        <ele>3.5</ele>
        <time>2020-06-18T13:07:21Z</time>
      </trkpt>
      <trkpt lat="49.92559" lon="1.08087">
        <ele>3.5</ele>
        <time>2020-06-18T13:07:22Z</time>
      </trkpt>
      <trkpt lat="49.9256" lon="1.08087">
        <ele>3.4</ele>
        <time>2020-06-18T13:07:23Z</time>
      </trkpt>
      <trkpt lat="49.9256" lon="1.08087">
        <ele>3.4</ele>
        <time>2020-06-18T13:07:24Z</time>
      </trkpt>
      <trkpt lat="49.9256" lon="1.08087">
        <ele>3.5</ele>
        <time>2020-06-18T13:07:25Z</time>
      </trkpt>
      <trkpt lat="49.9256" lon="1.08087">
        <ele>3.5</ele>
        <time>2020-06-18T13:07:26Z</time>
      </trkpt>
      <trkpt lat="49.9256" lon="1.08087">
        <ele>3.5</ele>
        <time>2020-06-18T13:07:27Z</time>
      </trkpt>
      <trkpt lat="49.9256" lon="1.08088">
        <ele>3.5</ele>
        <time>2020-06-18T13:07:28Z</time>
      </trkpt>
      <trkpt lat="49.92559" lon="1.08087">
        <ele>3.5</ele>
        <time>2020-06-18T13:07:29Z</time>
      </trkpt>
      <trkpt lat="49.92559" lon="1.08086">
        <ele>3.8</ele>
        <time>2020-06-18T13:07:30Z</time>
      </trkpt>
      <trkpt lat="49.92558" lon="1.08085">
        <ele>3.8</ele>
        <time>2020-06-18T13:07:31Z</time>
      </trkpt>
      <trkpt lat="49.92557" lon="1.08083">
        <ele>3.8</ele>
        <time>2020-06-18T13:07:32Z</time>
      </trkpt>
      <trkpt lat="49.92558" lon="1.08082">
        <ele>4</ele>
        <time>2020-06-18T13:07:33Z</time>
      </trkpt>
      <trkpt lat="49.92558" lon="1.08081">
        <ele>4</ele>
        <time>2020-06-18T13:07:34Z</time>
      </trkpt>
      <trkpt lat="49.92558" lon="1.0808">
        <ele>4</ele>
        <time>2020-06-18T13:07:35Z</time>
      </trkpt>
      <trkpt lat="49.92558" lon="1.08079">
        <ele>4</ele>
        <time>2020-06-18T13:07:36Z</time>
      </trkpt>
      <trkpt lat="49.92558" lon="1.08078">
        <ele>4.3</ele>
        <time>2020-06-18T13:07:37Z</time>
      </trkpt>
      <trkpt lat="49.92558" lon="1.08078">
        <ele>4.3</ele>
        <time>2020-06-18T13:07:38Z</time>
      </trkpt>
      <trkpt lat="49.92558" lon="1.08077">
        <ele>4.3</ele>
        <time>2020-06-18T13:07:39Z</time>
      </trkpt>
      <trkpt lat="49.92558" lon="1.08077">
        <ele>4.3</ele>
        <time>2020-06-18T13:07:40Z</time>
      </trkpt>
      <trkpt lat="49.92558" lon="1.08077">
        <ele>4.3</ele>
        <time>2020-06-18T13:07:41Z</time>
      </trkpt>
      <trkpt lat="49.92558" lon="1.08076">
        <ele>4.3</ele>
        <time>2020-06-18T13:07:42Z</time>
      </trkpt>
      <trkpt lat="49.92558" lon="1.08076">
        <ele>4.3</ele>
        <time>2020-06-18T13:07:43Z</time>
      </trkpt>
      <trkpt lat="49.92558" lon="1.08075">
        <ele>4.3</ele>
        <time>2020-06-18T13:07:44Z</time>
      </trkpt>
      <trkpt lat="49.92555" lon="1.08036">
        <ele>6.7</ele>
        <time>2020-06-18T13:09:36Z</time>
      </trkpt>
      <trkpt lat="49.92554" lon="1.08036">
        <ele>6.7</ele>
        <time>2020-06-18T13:09:37Z</time>
      </trkpt>
      <trkpt lat="49.92553" lon="1.08037">
        <ele>6.7</ele>
        <time>2020-06-18T13:09:38Z</time>
      </trkpt>
      <trkpt lat="49.92551" lon="1.08036">
        <ele>6.7</ele>
        <time>2020-06-18T13:09:39Z</time>
      </trkpt>
      <trkpt lat="49.92551" lon="1.08035">
        <ele>6.7</ele>
        <time>2020-06-18T13:09:40Z</time>
      </trkpt>
      <trkpt lat="49.9255" lon="1.08035">
        <ele>6.7</ele>
        <time>2020-06-18T13:09:41Z</time>
      </trkpt>
      <trkpt lat="49.92549" lon="1.08034">
        <ele>6.7</ele>
        <time>2020-06-18T13:09:42Z</time>
      </trkpt>
      <trkpt lat="49.92549" lon="1.08035">
        <ele>6.7</ele>
        <time>2020-06-18T13:09:43Z</time>
      </trkpt>
      <trkpt lat="49.92549" lon="1.08036">
        <ele>6.7</ele>
        <time>2020-06-18T13:09:44Z</time>
      </trkpt>
      <trkpt lat="49.92549" lon="1.08036">
        <ele>6.7</ele>
        <time>2020-06-18T13:09:45Z</time>
      </trkpt>
      <trkpt lat="49.92549" lon="1.08038">
        <ele>6.7</ele>
        <time>2020-06-18T13:09:46Z</time>
      </trkpt>
      <trkpt lat="49.9255" lon="1.08038">
        <ele>6.7</ele>
        <time>2020-06-18T13:09:47Z</time>
      </trkpt>
      <trkpt lat="49.92551" lon="1.08039">
        <ele>6.7</ele>
        <time>2020-06-18T13:09:48Z</time>
      </trkpt>
      <trkpt lat="49.92554" lon="1.08038">
        <ele>6.7</ele>
        <time>2020-06-18T13:09:49Z</time>
      </trkpt>
      <trkpt lat="49.92555" lon="1.08038">
        <ele>6.7</ele>
        <time>2020-06-18T13:09:50Z</time>
      </trkpt>
      <trkpt lat="49.92559" lon="1.08035">
        <ele>6.7</ele>
        <time>2020-06-18T13:09:51Z</time>
      </trkpt>
      <trkpt lat="49.92563" lon="1.08033">
        <ele>6.7</ele>
        <time>2020-06-18T13:09:52Z</time>
      </trkpt>
      <trkpt lat="49.92567" lon="1.08031">
        <ele>6.7</ele>
        <time>2020-06-18T13:09:53Z</time>
      </trkpt>
      <trkpt lat="49.9257" lon="1.08029">
        <ele>6.7</ele>
        <time>2020-06-18T13:09:54Z</time>
      </trkpt>
      <trkpt lat="49.92574" lon="1.08026">
        <ele>6.7</ele>
        <time>2020-06-18T13:09:55Z</time>
      </trkpt>
      <trkpt lat="49.92577" lon="1.08023">
        <ele>6.7</ele>
        <time>2020-06-18T13:09:56Z</time>
      </trkpt>
      <trkpt lat="49.9258" lon="1.08021">
        <ele>6.8</ele>
        <time>2020-06-18T13:09:57Z</time>
      </trkpt>
      <trkpt lat="49.92584" lon="1.08018">
        <ele>6.8</ele>
        <time>2020-06-18T13:09:58Z</time>
      </trkpt>
      <trkpt lat="49.92586" lon="1.08015">
        <ele>6.8</ele>
        <time>2020-06-18T13:09:59Z</time>
      </trkpt>
      <trkpt lat="49.92589" lon="1.08012">
        <ele>6.8</ele>
        <time>2020-06-18T13:10:00Z</time>
      </trkpt>
      <trkpt lat="49.92592" lon="1.08009">
        <ele>6.9</ele>
        <time>2020-06-18T13:10:01Z</time>
      </trkpt>
      <trkpt lat="49.92595" lon="1.08006">
        <ele>6.9</ele>
        <time>2020-06-18T13:10:02Z</time>
      </trkpt>
      <trkpt lat="49.92598" lon="1.08003">
        <ele>6.9</ele>
        <time>2020-06-18T13:10:03Z</time>
      </trkpt>
      <trkpt lat="49.92601" lon="1.08002">
        <ele>7</ele>
        <time>2020-06-18T13:10:04Z</time>
      </trkpt>
      <trkpt lat="49.92604" lon="1.08">
        <ele>7</ele>
        <time>2020-06-18T13:10:05Z</time>
      </trkpt>
      <trkpt lat="49.92605" lon="1.08">
        <ele>7</ele>
        <time>2020-06-18T13:10:06Z</time>
      </trkpt>
      <trkpt lat="49.92608" lon="1.07999">
        <ele>7</ele>
        <time>2020-06-18T13:10:07Z</time>
      </trkpt>
      <trkpt lat="49.92609" lon="1.07998">
        <ele>7</ele>
        <time>2020-06-18T13:10:08Z</time>
      </trkpt>
      <trkpt lat="49.92609" lon="1.07997">
        <ele>7.1</ele>
        <time>2020-06-18T13:10:09Z</time>
      </trkpt>
      <trkpt lat="49.92612" lon="1.07996">
        <ele>7.1</ele>
        <time>2020-06-18T13:10:10Z</time>
      </trkpt>
      <trkpt lat="49.92614" lon="1.07995">
        <ele>7.1</ele>
        <time>2020-06-18T13:10:11Z</time>
      </trkpt>
      <trkpt lat="49.92615" lon="1.07995">
        <ele>7.1</ele>
        <time>2020-06-18T13:10:12Z</time>
      </trkpt>
      <trkpt lat="49.92616" lon="1.07995">
        <ele>7.1</ele>
        <time>2020-06-18T13:10:13Z</time>
      </trkpt>
      <trkpt lat="49.92618" lon="1.07996">
        <ele>7.1</ele>
        <time>2020-06-18T13:10:14Z</time>
      </trkpt>
      <trkpt lat="49.92621" lon="1.07999">
        <ele>7.1</ele>
        <time>2020-06-18T13:10:15Z</time>
      </trkpt>
      <trkpt lat="49.92622" lon="1.08001">
        <ele>7.1</ele>
        <time>2020-06-18T13:10:16Z</time>
      </trkpt>
      <trkpt lat="49.92625" lon="1.08005">
        <ele>7.2</ele>
        <time>2020-06-18T13:10:17Z</time>
      </trkpt>
      <trkpt lat="49.92627" lon="1.08009">
        <ele>7.4</ele>
        <time>2020-06-18T13:10:18Z</time>
      </trkpt>
      <trkpt lat="49.92631" lon="1.08013">
        <ele>7.4</ele>
        <time>2020-06-18T13:10:19Z</time>
      </trkpt>
      <trkpt lat="49.92634" lon="1.08016">
        <ele>7.3</ele>
        <time>2020-06-18T13:10:20Z</time>
      </trkpt>
      <trkpt lat="49.92637" lon="1.08019">
        <ele>7.2</ele>
        <time>2020-06-18T13:10:21Z</time>
      </trkpt>
      <trkpt lat="49.9264" lon="1.08022">
        <ele>7.1</ele>
        <time>2020-06-18T13:10:22Z</time>
      </trkpt>
      <trkpt lat="49.92641" lon="1.08028">
        <ele>7</ele>
        <time>2020-06-18T13:10:23Z</time>
      </trkpt>
      <trkpt lat="49.92642" lon="1.08034">
        <ele>7</ele>
        <time>2020-06-18T13:10:24Z</time>
      </trkpt>
      <trkpt lat="49.92643" lon="1.08041">
        <ele>6.8</ele>
        <time>2020-06-18T13:10:25Z</time>
      </trkpt>
      <trkpt lat="49.92644" lon="1.0805">
        <ele>6.8</ele>
        <time>2020-06-18T13:10:26Z</time>
      </trkpt>
      <trkpt lat="49.92644" lon="1.08057">
        <ele>6.9</ele>
        <time>2020-06-18T13:10:27Z</time>
      </trkpt>
      <trkpt lat="49.92644" lon="1.08064">
        <ele>7</ele>
        <time>2020-06-18T13:10:28Z</time>
      </trkpt>
      <trkpt lat="49.92644" lon="1.08071">
        <ele>7.1</ele>
        <time>2020-06-18T13:10:29Z</time>
      </trkpt>
      <trkpt lat="49.92644" lon="1.08077">
        <ele>7.1</ele>
        <time>2020-06-18T13:10:30Z</time>
      </trkpt>
      <trkpt lat="49.92644" lon="1.08083">
        <ele>7.1</ele>
        <time>2020-06-18T13:10:31Z</time>
      </trkpt>
      <trkpt lat="49.92643" lon="1.08089">
        <ele>7.2</ele>
        <time>2020-06-18T13:10:32Z</time>
      </trkpt>
      <trkpt lat="49.92644" lon="1.08095">
        <ele>7.2</ele>
        <time>2020-06-18T13:10:33Z</time>
      </trkpt>
      <trkpt lat="49.92643" lon="1.081">
        <ele>7.2</ele>
        <time>2020-06-18T13:10:34Z</time>
      </trkpt>
      <trkpt lat="49.92643" lon="1.08106">
        <ele>7.2</ele>
        <time>2020-06-18T13:10:35Z</time>
      </trkpt>
      <trkpt lat="49.92641" lon="1.0811">
        <ele>7.2</ele>
        <time>2020-06-18T13:10:36Z</time>
      </trkpt>
      <trkpt lat="49.92639" lon="1.08114">
        <ele>7.2</ele>
        <time>2020-06-18T13:10:37Z</time>
      </trkpt>
      <trkpt lat="49.92639" lon="1.08116">
        <ele>7.2</ele>
        <time>2020-06-18T13:10:38Z</time>
      </trkpt>
      <trkpt lat="49.92639" lon="1.08122">
        <ele>7.2</ele>
        <time>2020-06-18T13:10:39Z</time>
      </trkpt>
      <trkpt lat="49.92639" lon="1.08123">
        <ele>7.2</ele>
        <time>2020-06-18T13:10:40Z</time>
      </trkpt>
      <trkpt lat="49.92639" lon="1.08129">
        <ele>7.2</ele>
        <time>2020-06-18T13:10:41Z</time>
      </trkpt>
      <trkpt lat="49.92639" lon="1.08133">
        <ele>7.1</ele>
        <time>2020-06-18T13:10:42Z</time>
      </trkpt>
      <trkpt lat="49.92639" lon="1.08138">
        <ele>7.1</ele>
        <time>2020-06-18T13:10:43Z</time>
      </trkpt>
      <trkpt lat="49.92639" lon="1.08143">
        <ele>7.1</ele>
        <time>2020-06-18T13:10:44Z</time>
      </trkpt>
      <trkpt lat="49.92639" lon="1.08149">
        <ele>7</ele>
        <time>2020-06-18T13:10:45Z</time>
      </trkpt>
      <trkpt lat="49.92639" lon="1.08156">
        <ele>7</ele>
        <time>2020-06-18T13:10:46Z</time>
      </trkpt>
      <trkpt lat="49.9264" lon="1.08164">
        <ele>7</ele>
        <time>2020-06-18T13:10:47Z</time>
      </trkpt>
      <trkpt lat="49.92641" lon="1.08171">
        <ele>6.9</ele>
        <time>2020-06-18T13:10:48Z</time>
      </trkpt>
      <trkpt lat="49.92643" lon="1.08178">
        <ele>6.9</ele>
        <time>2020-06-18T13:10:49Z</time>
      </trkpt>
      <trkpt lat="49.92646" lon="1.08184">
        <ele>6.8</ele>
        <time>2020-06-18T13:10:50Z</time>
      </trkpt>
      <trkpt lat="49.92648" lon="1.0819">
        <ele>6.8</ele>
        <time>2020-06-18T13:10:51Z</time>
      </trkpt>
      <trkpt lat="49.92651" lon="1.08197">
        <ele>6.7</ele>
        <time>2020-06-18T13:10:52Z</time>
      </trkpt>
      <trkpt lat="49.92654" lon="1.08205">
        <ele>6.6</ele>
        <time>2020-06-18T13:10:53Z</time>
      </trkpt>
      <trkpt lat="49.92657" lon="1.08212">
        <ele>6.6</ele>
        <time>2020-06-18T13:10:54Z</time>
      </trkpt>
      <trkpt lat="49.92661" lon="1.0822">
        <ele>6.5</ele>
        <time>2020-06-18T13:10:55Z</time>
      </trkpt>
      <trkpt lat="49.92664" lon="1.08226">
        <ele>6.5</ele>
        <time>2020-06-18T13:10:56Z</time>
      </trkpt>
      <trkpt lat="49.92669" lon="1.08232">
        <ele>6.4</ele>
        <time>2020-06-18T13:10:57Z</time>
      </trkpt>
      <trkpt lat="49.92673" lon="1.08241">
        <ele>6.4</ele>
        <time>2020-06-18T13:10:58Z</time>
      </trkpt>
      <trkpt lat="49.92677" lon="1.08249">
        <ele>6.4</ele>
        <time>2020-06-18T13:10:59Z</time>
      </trkpt>
      <trkpt lat="49.9268" lon="1.08257">
        <ele>6.3</ele>
        <time>2020-06-18T13:11:00Z</time>
      </trkpt>
      <trkpt lat="49.92682" lon="1.08265">
        <ele>6.3</ele>
        <time>2020-06-18T13:11:01Z</time>
      </trkpt>
      <trkpt lat="49.92684" lon="1.08272">
        <ele>6.2</ele>
        <time>2020-06-18T13:11:02Z</time>
      </trkpt>
      <trkpt lat="49.92687" lon="1.0828">
        <ele>6.2</ele>
        <time>2020-06-18T13:11:03Z</time>
      </trkpt>
      <trkpt lat="49.9269" lon="1.08289">
        <ele>6.2</ele>
        <time>2020-06-18T13:11:04Z</time>
      </trkpt>
      <trkpt lat="49.92692" lon="1.08297">
        <ele>6.1</ele>
        <time>2020-06-18T13:11:05Z</time>
      </trkpt>
      <trkpt lat="49.92695" lon="1.08303">
        <ele>6.1</ele>
        <time>2020-06-18T13:11:06Z</time>
      </trkpt>
      <trkpt lat="49.92698" lon="1.08308">
        <ele>6.1</ele>
        <time>2020-06-18T13:11:07Z</time>
      </trkpt>
      <trkpt lat="49.927" lon="1.08317">
        <ele>6</ele>
        <time>2020-06-18T13:11:08Z</time>
      </trkpt>
      <trkpt lat="49.92703" lon="1.08326">
        <ele>6</ele>
        <time>2020-06-18T13:11:09Z</time>
      </trkpt>
      <trkpt lat="49.92705" lon="1.08333">
        <ele>6</ele>
        <time>2020-06-18T13:11:10Z</time>
      </trkpt>
      <trkpt lat="49.92709" lon="1.08341">
        <ele>6</ele>
        <time>2020-06-18T13:11:11Z</time>
      </trkpt>
      <trkpt lat="49.92712" lon="1.08348">
        <ele>6</ele>
        <time>2020-06-18T13:11:12Z</time>
      </trkpt>
      <trkpt lat="49.92716" lon="1.08355">
        <ele>6</ele>
        <time>2020-06-18T13:11:13Z</time>
      </trkpt>
      <trkpt lat="49.9272" lon="1.08362">
        <ele>6</ele>
        <time>2020-06-18T13:11:14Z</time>
      </trkpt>
      <trkpt lat="49.92721" lon="1.08369">
        <ele>6</ele>
        <time>2020-06-18T13:11:15Z</time>
      </trkpt>
      <trkpt lat="49.92723" lon="1.08376">
        <ele>6</ele>
        <time>2020-06-18T13:11:16Z</time>
      </trkpt>
      <trkpt lat="49.92725" lon="1.08384">
        <ele>6.1</ele>
        <time>2020-06-18T13:11:17Z</time>
      </trkpt>
      <trkpt lat="49.92726" lon="1.08393">
        <ele>6.1</ele>
        <time>2020-06-18T13:11:18Z</time>
      </trkpt>
      <trkpt lat="49.92728" lon="1.08402">
        <ele>6.2</ele>
        <time>2020-06-18T13:11:19Z</time>
      </trkpt>
      <trkpt lat="49.92728" lon="1.08409">
        <ele>6.3</ele>
        <time>2020-06-18T13:11:20Z</time>
      </trkpt>
      <trkpt lat="49.92728" lon="1.08415">
        <ele>6.3</ele>
        <time>2020-06-18T13:11:21Z</time>
      </trkpt>
      <trkpt lat="49.92728" lon="1.08424">
        <ele>6.4</ele>
        <time>2020-06-18T13:11:22Z</time>
      </trkpt>
      <trkpt lat="49.92728" lon="1.08432">
        <ele>6.5</ele>
        <time>2020-06-18T13:11:23Z</time>
      </trkpt>
      <trkpt lat="49.92728" lon="1.08441">
        <ele>6.6</ele>
        <time>2020-06-18T13:11:24Z</time>
      </trkpt>
      <trkpt lat="49.92728" lon="1.08449">
        <ele>6.7</ele>
        <time>2020-06-18T13:11:25Z</time>
      </trkpt>
      <trkpt lat="49.92728" lon="1.08455">
        <ele>6.8</ele>
        <time>2020-06-18T13:11:26Z</time>
      </trkpt>
      <trkpt lat="49.92728" lon="1.08462">
        <ele>6.8</ele>
        <time>2020-06-18T13:11:27Z</time>
      </trkpt>
      <trkpt lat="49.92729" lon="1.08469">
        <ele>6.9</ele>
        <time>2020-06-18T13:11:28Z</time>
      </trkpt>
      <trkpt lat="49.9273" lon="1.08476">
        <ele>6.9</ele>
        <time>2020-06-18T13:11:29Z</time>
      </trkpt>
      <trkpt lat="49.9273" lon="1.08482">
        <ele>7</ele>
        <time>2020-06-18T13:11:30Z</time>
      </trkpt>
      <trkpt lat="49.9273" lon="1.08488">
        <ele>7</ele>
        <time>2020-06-18T13:11:31Z</time>
      </trkpt>
      <trkpt lat="49.92729" lon="1.08492">
        <ele>7.1</ele>
        <time>2020-06-18T13:11:32Z</time>
      </trkpt>
      <trkpt lat="49.92732" lon="1.08493">
        <ele>7.1</ele>
        <time>2020-06-18T13:11:33Z</time>
      </trkpt>
      <trkpt lat="49.92733" lon="1.08494">
        <ele>7.1</ele>
        <time>2020-06-18T13:11:34Z</time>
      </trkpt>
      <trkpt lat="49.92735" lon="1.08499">
        <ele>7.1</ele>
        <time>2020-06-18T13:11:35Z</time>
      </trkpt>
      <trkpt lat="49.92735" lon="1.085">
        <ele>7.2</ele>
        <time>2020-06-18T13:11:36Z</time>
      </trkpt>
      <trkpt lat="49.92734" lon="1.08501">
        <ele>7.2</ele>
        <time>2020-06-18T13:11:37Z</time>
      </trkpt>
      <trkpt lat="49.92734" lon="1.08505">
        <ele>7.2</ele>
        <time>2020-06-18T13:11:38Z</time>
      </trkpt>
      <trkpt lat="49.92736" lon="1.08511">
        <ele>7.3</ele>
        <time>2020-06-18T13:11:39Z</time>
      </trkpt>
      <trkpt lat="49.92736" lon="1.08513">
        <ele>7.3</ele>
        <time>2020-06-18T13:11:40Z</time>
      </trkpt>
      <trkpt lat="49.92736" lon="1.08518">
        <ele>7.3</ele>
        <time>2020-06-18T13:11:41Z</time>
      </trkpt>
      <trkpt lat="49.92736" lon="1.08523">
        <ele>7.4</ele>
        <time>2020-06-18T13:11:42Z</time>
      </trkpt>
      <trkpt lat="49.92736" lon="1.0853">
        <ele>7.5</ele>
        <time>2020-06-18T13:11:43Z</time>
      </trkpt>
      <trkpt lat="49.92737" lon="1.08535">
        <ele>7.5</ele>
        <time>2020-06-18T13:11:44Z</time>
      </trkpt>
      <trkpt lat="49.92736" lon="1.08542">
        <ele>7.6</ele>
        <time>2020-06-18T13:11:45Z</time>
      </trkpt>
      <trkpt lat="49.92735" lon="1.08549">
        <ele>7.6</ele>
        <time>2020-06-18T13:11:46Z</time>
      </trkpt>
      <trkpt lat="49.92734" lon="1.08555">
        <ele>7.6</ele>
        <time>2020-06-18T13:11:47Z</time>
      </trkpt>
      <trkpt lat="49.92735" lon="1.08562">
        <ele>7.7</ele>
        <time>2020-06-18T13:11:48Z</time>
      </trkpt>
      <trkpt lat="49.92736" lon="1.08569">
        <ele>7.7</ele>
        <time>2020-06-18T13:11:49Z</time>
      </trkpt>
      <trkpt lat="49.92737" lon="1.08576">
        <ele>7.7</ele>
        <time>2020-06-18T13:11:50Z</time>
      </trkpt>
      <trkpt lat="49.92739" lon="1.08583">
        <ele>7.8</ele>
        <time>2020-06-18T13:11:51Z</time>
      </trkpt>
      <trkpt lat="49.9274" lon="1.0859">
        <ele>7.9</ele>
        <time>2020-06-18T13:11:52Z</time>
      </trkpt>
      <trkpt lat="49.92741" lon="1.08597">
        <ele>8</ele>
        <time>2020-06-18T13:11:53Z</time>
      </trkpt>
      <trkpt lat="49.92741" lon="1.08604">
        <ele>8</ele>
        <time>2020-06-18T13:11:54Z</time>
      </trkpt>
      <trkpt lat="49.9274" lon="1.08611">
        <ele>8.1</ele>
        <time>2020-06-18T13:11:55Z</time>
      </trkpt>
      <trkpt lat="49.92738" lon="1.08615">
        <ele>8.2</ele>
        <time>2020-06-18T13:11:56Z</time>
      </trkpt>
      <trkpt lat="49.92736" lon="1.08619">
        <ele>8.2</ele>
        <time>2020-06-18T13:11:57Z</time>
      </trkpt>
      <trkpt lat="49.92735" lon="1.08625">
        <ele>8.2</ele>
        <time>2020-06-18T13:11:58Z</time>
      </trkpt>
      <trkpt lat="49.92735" lon="1.08628">
        <ele>8.3</ele>
        <time>2020-06-18T13:11:59Z</time>
      </trkpt>
      <trkpt lat="49.92736" lon="1.08633">
        <ele>8.3</ele>
        <time>2020-06-18T13:12:00Z</time>
      </trkpt>
      <trkpt lat="49.92737" lon="1.08638">
        <ele>8.3</ele>
        <time>2020-06-18T13:12:01Z</time>
      </trkpt>
      <trkpt lat="49.92738" lon="1.0864">
        <ele>8.3</ele>
        <time>2020-06-18T13:12:02Z</time>
      </trkpt>
      <trkpt lat="49.92739" lon="1.08644">
        <ele>8.3</ele>
        <time>2020-06-18T13:12:03Z</time>
      </trkpt>
      <trkpt lat="49.9274" lon="1.08649">
        <ele>8.3</ele>
        <time>2020-06-18T13:12:04Z</time>
      </trkpt>
      <trkpt lat="49.92741" lon="1.08654">
        <ele>8.2</ele>
        <time>2020-06-18T13:12:05Z</time>
      </trkpt>
      <trkpt lat="49.9274" lon="1.08661">
        <ele>8.2</ele>
        <time>2020-06-18T13:12:06Z</time>
      </trkpt>
      <trkpt lat="49.9274" lon="1.08667">
        <ele>8.1</ele>
        <time>2020-06-18T13:12:07Z</time>
      </trkpt>
      <trkpt lat="49.92741" lon="1.08674">
        <ele>8.1</ele>
        <time>2020-06-18T13:12:08Z</time>
      </trkpt>
      <trkpt lat="49.92742" lon="1.08682">
        <ele>8.1</ele>
        <time>2020-06-18T13:12:09Z</time>
      </trkpt>
      <trkpt lat="49.92743" lon="1.0869">
        <ele>8.2</ele>
        <time>2020-06-18T13:12:10Z</time>
      </trkpt>
      <trkpt lat="49.92743" lon="1.08697">
        <ele>8.2</ele>
        <time>2020-06-18T13:12:11Z</time>
      </trkpt>
      <trkpt lat="49.92743" lon="1.08703">
        <ele>8.2</ele>
        <time>2020-06-18T13:12:12Z</time>
      </trkpt>
      <trkpt lat="49.92743" lon="1.08708">
        <ele>8.3</ele>
        <time>2020-06-18T13:12:13Z</time>
      </trkpt>
      <trkpt lat="49.92743" lon="1.08715">
        <ele>8.4</ele>
        <time>2020-06-18T13:12:14Z</time>
      </trkpt>
      <trkpt lat="49.92745" lon="1.08721">
        <ele>8.5</ele>
        <time>2020-06-18T13:12:15Z</time>
      </trkpt>
      <trkpt lat="49.92746" lon="1.08729">
        <ele>8.6</ele>
        <time>2020-06-18T13:12:16Z</time>
      </trkpt>
      <trkpt lat="49.92748" lon="1.08735">
        <ele>8.7</ele>
        <time>2020-06-18T13:12:17Z</time>
      </trkpt>
      <trkpt lat="49.9275" lon="1.08741">
        <ele>8.9</ele>
        <time>2020-06-18T13:12:18Z</time>
      </trkpt>
      <trkpt lat="49.92752" lon="1.08748">
        <ele>9</ele>
        <time>2020-06-18T13:12:19Z</time>
      </trkpt>
      <trkpt lat="49.92754" lon="1.08755">
        <ele>9.2</ele>
        <time>2020-06-18T13:12:20Z</time>
      </trkpt>
      <trkpt lat="49.92755" lon="1.08758">
        <ele>9.3</ele>
        <time>2020-06-18T13:12:21Z</time>
      </trkpt>
      <trkpt lat="49.92755" lon="1.08764">
        <ele>9.4</ele>
        <time>2020-06-18T13:12:22Z</time>
      </trkpt>
      <trkpt lat="49.92755" lon="1.08769">
        <ele>9.5</ele>
        <time>2020-06-18T13:12:23Z</time>
      </trkpt>
      <trkpt lat="49.92755" lon="1.08774">
        <ele>9.7</ele>
        <time>2020-06-18T13:12:24Z</time>
      </trkpt>
      <trkpt lat="49.92755" lon="1.08779">
        <ele>9.8</ele>
        <time>2020-06-18T13:12:25Z</time>
      </trkpt>
      <trkpt lat="49.92756" lon="1.08785">
        <ele>9.9</ele>
        <time>2020-06-18T13:12:26Z</time>
      </trkpt>
      <trkpt lat="49.92758" lon="1.08791">
        <ele>10</ele>
        <time>2020-06-18T13:12:27Z</time>
      </trkpt>
      <trkpt lat="49.92759" lon="1.08798">
        <ele>10.3</ele>
        <time>2020-06-18T13:12:28Z</time>
      </trkpt>
      <trkpt lat="49.92759" lon="1.08804">
        <ele>10.4</ele>
        <time>2020-06-18T13:12:29Z</time>
      </trkpt>
      <trkpt lat="49.9276" lon="1.08811">
        <ele>10.6</ele>
        <time>2020-06-18T13:12:30Z</time>
      </trkpt>
      <trkpt lat="49.92761" lon="1.08818">
        <ele>10.8</ele>
        <time>2020-06-18T13:12:31Z</time>
      </trkpt>
      <trkpt lat="49.92762" lon="1.08824">
        <ele>10.9</ele>
        <time>2020-06-18T13:12:32Z</time>
      </trkpt>
      <trkpt lat="49.92763" lon="1.0883">
        <ele>11.1</ele>
        <time>2020-06-18T13:12:33Z</time>
      </trkpt>
      <trkpt lat="49.92765" lon="1.08837">
        <ele>11.2</ele>
        <time>2020-06-18T13:12:34Z</time>
      </trkpt>
      <trkpt lat="49.92767" lon="1.08843">
        <ele>11.4</ele>
        <time>2020-06-18T13:12:35Z</time>
      </trkpt>
      <trkpt lat="49.92768" lon="1.08849">
        <ele>11.5</ele>
        <time>2020-06-18T13:12:36Z</time>
      </trkpt>
      <trkpt lat="49.92769" lon="1.08853">
        <ele>11.7</ele>
        <time>2020-06-18T13:12:37Z</time>
      </trkpt>
      <trkpt lat="49.92771" lon="1.08858">
        <ele>11.8</ele>
        <time>2020-06-18T13:12:38Z</time>
      </trkpt>
      <trkpt lat="49.92773" lon="1.08862">
        <ele>11.9</ele>
        <time>2020-06-18T13:12:39Z</time>
      </trkpt>
      <trkpt lat="49.92775" lon="1.08867">
        <ele>12.1</ele>
        <time>2020-06-18T13:12:40Z</time>
      </trkpt>
      <trkpt lat="49.92777" lon="1.08871">
        <ele>12.2</ele>
        <time>2020-06-18T13:12:41Z</time>
      </trkpt>
      <trkpt lat="49.92778" lon="1.08876">
        <ele>12.3</ele>
        <time>2020-06-18T13:12:42Z</time>
      </trkpt>
      <trkpt lat="49.92779" lon="1.08881">
        <ele>12.5</ele>
        <time>2020-06-18T13:12:43Z</time>
      </trkpt>
      <trkpt lat="49.92781" lon="1.08887">
        <ele>12.7</ele>
        <time>2020-06-18T13:12:44Z</time>
      </trkpt>
      <trkpt lat="49.92782" lon="1.08894">
        <ele>12.8</ele>
        <time>2020-06-18T13:12:45Z</time>
      </trkpt>
      <trkpt lat="49.92783" lon="1.089">
        <ele>13</ele>
        <time>2020-06-18T13:12:46Z</time>
      </trkpt>
      <trkpt lat="49.92784" lon="1.08907">
        <ele>13.2</ele>
        <time>2020-06-18T13:12:47Z</time>
      </trkpt>
      <trkpt lat="49.92784" lon="1.08914">
        <ele>13.4</ele>
        <time>2020-06-18T13:12:48Z</time>
      </trkpt>
      <trkpt lat="49.92785" lon="1.0892">
        <ele>13.6</ele>
        <time>2020-06-18T13:12:49Z</time>
      </trkpt>
      <trkpt lat="49.92786" lon="1.08925">
        <ele>13.7</ele>
        <time>2020-06-18T13:12:50Z</time>
      </trkpt>
      <trkpt lat="49.92787" lon="1.0893">
        <ele>13.9</ele>
        <time>2020-06-18T13:12:51Z</time>
      </trkpt>
      <trkpt lat="49.92787" lon="1.08937">
        <ele>14.1</ele>
        <time>2020-06-18T13:12:52Z</time>
      </trkpt>
      <trkpt lat="49.92787" lon="1.08944">
        <ele>14.2</ele>
        <time>2020-06-18T13:12:53Z</time>
      </trkpt>
      <trkpt lat="49.92788" lon="1.08951">
        <ele>14.4</ele>
        <time>2020-06-18T13:12:54Z</time>
      </trkpt>
      <trkpt lat="49.92788" lon="1.08955">
        <ele>14.5</ele>
        <time>2020-06-18T13:12:55Z</time>
      </trkpt>
      <trkpt lat="49.92789" lon="1.08961">
        <ele>14.6</ele>
        <time>2020-06-18T13:12:56Z</time>
      </trkpt>
      <trkpt lat="49.92789" lon="1.08966">
        <ele>14.7</ele>
        <time>2020-06-18T13:12:57Z</time>
      </trkpt>
      <trkpt lat="49.92788" lon="1.08972">
        <ele>14.9</ele>
        <time>2020-06-18T13:12:58Z</time>
      </trkpt>
      <trkpt lat="49.92789" lon="1.08978">
        <ele>15</ele>
        <time>2020-06-18T13:12:59Z</time>
      </trkpt>
      <trkpt lat="49.9279" lon="1.08984">
        <ele>15.2</ele>
        <time>2020-06-18T13:13:00Z</time>
      </trkpt>
      <trkpt lat="49.92791" lon="1.0899">
        <ele>15.4</ele>
        <time>2020-06-18T13:13:01Z</time>
      </trkpt>
      <trkpt lat="49.92792" lon="1.08996">
        <ele>15.5</ele>
        <time>2020-06-18T13:13:02Z</time>
      </trkpt>
      <trkpt lat="49.92792" lon="1.09003">
        <ele>15.6</ele>
        <time>2020-06-18T13:13:03Z</time>
      </trkpt>
      <trkpt lat="49.92792" lon="1.09009">
        <ele>15.8</ele>
        <time>2020-06-18T13:13:04Z</time>
      </trkpt>
      <trkpt lat="49.92792" lon="1.09017">
        <ele>15.9</ele>
        <time>2020-06-18T13:13:05Z</time>
      </trkpt>
      <trkpt lat="49.92791" lon="1.09024">
        <ele>16.1</ele>
        <time>2020-06-18T13:13:06Z</time>
      </trkpt>
      <trkpt lat="49.9279" lon="1.0903">
        <ele>16.2</ele>
        <time>2020-06-18T13:13:07Z</time>
      </trkpt>
      <trkpt lat="49.9279" lon="1.09036">
        <ele>16.3</ele>
        <time>2020-06-18T13:13:08Z</time>
      </trkpt>
      <trkpt lat="49.92789" lon="1.09042">
        <ele>16.5</ele>
        <time>2020-06-18T13:13:09Z</time>
      </trkpt>
      <trkpt lat="49.92789" lon="1.09047">
        <ele>16.6</ele>
        <time>2020-06-18T13:13:10Z</time>
      </trkpt>
      <trkpt lat="49.92789" lon="1.09052">
        <ele>16.7</ele>
        <time>2020-06-18T13:13:11Z</time>
      </trkpt>
      <trkpt lat="49.92789" lon="1.09057">
        <ele>16.9</ele>
        <time>2020-06-18T13:13:12Z</time>
      </trkpt>
      <trkpt lat="49.92788" lon="1.09063">
        <ele>17</ele>
        <time>2020-06-18T13:13:13Z</time>
      </trkpt>
      <trkpt lat="49.92785" lon="1.09067">
        <ele>17.2</ele>
        <time>2020-06-18T13:13:14Z</time>
      </trkpt>
      <trkpt lat="49.92782" lon="1.09071">
        <ele>17.4</ele>
        <time>2020-06-18T13:13:15Z</time>
      </trkpt>
      <trkpt lat="49.9278" lon="1.09076">
        <ele>17.5</ele>
        <time>2020-06-18T13:13:16Z</time>
      </trkpt>
      <trkpt lat="49.92779" lon="1.09081">
        <ele>17.7</ele>
        <time>2020-06-18T13:13:17Z</time>
      </trkpt>
      <trkpt lat="49.92778" lon="1.09085">
        <ele>17.8</ele>
        <time>2020-06-18T13:13:18Z</time>
      </trkpt>
      <trkpt lat="49.92778" lon="1.0909">
        <ele>18</ele>
        <time>2020-06-18T13:13:19Z</time>
      </trkpt>
      <trkpt lat="49.92777" lon="1.09096">
        <ele>18.1</ele>
        <time>2020-06-18T13:13:20Z</time>
      </trkpt>
      <trkpt lat="49.92776" lon="1.09101">
        <ele>18.3</ele>
        <time>2020-06-18T13:13:21Z</time>
      </trkpt>
      <trkpt lat="49.92775" lon="1.09107">
        <ele>18.6</ele>
        <time>2020-06-18T13:13:22Z</time>
      </trkpt>
      <trkpt lat="49.92775" lon="1.09112">
        <ele>18.8</ele>
        <time>2020-06-18T13:13:23Z</time>
      </trkpt>
      <trkpt lat="49.92775" lon="1.09117">
        <ele>19</ele>
        <time>2020-06-18T13:13:24Z</time>
      </trkpt>
      <trkpt lat="49.92774" lon="1.09121">
        <ele>19.1</ele>
        <time>2020-06-18T13:13:25Z</time>
      </trkpt>
      <trkpt lat="49.92773" lon="1.09127">
        <ele>19.3</ele>
        <time>2020-06-18T13:13:26Z</time>
      </trkpt>
      <trkpt lat="49.92772" lon="1.0913">
        <ele>19.4</ele>
        <time>2020-06-18T13:13:27Z</time>
      </trkpt>
      <trkpt lat="49.92771" lon="1.09134">
        <ele>19.5</ele>
        <time>2020-06-18T13:13:28Z</time>
      </trkpt>
      <trkpt lat="49.92769" lon="1.09139">
        <ele>19.7</ele>
        <time>2020-06-18T13:13:29Z</time>
      </trkpt>
      <trkpt lat="49.92769" lon="1.09141">
        <ele>19.8</ele>
        <time>2020-06-18T13:13:30Z</time>
      </trkpt>
      <trkpt lat="49.92767" lon="1.09147">
        <ele>20</ele>
        <time>2020-06-18T13:13:31Z</time>
      </trkpt>
      <trkpt lat="49.92766" lon="1.09154">
        <ele>20.2</ele>
        <time>2020-06-18T13:13:32Z</time>
      </trkpt>
      <trkpt lat="49.92764" lon="1.09161">
        <ele>20.4</ele>
        <time>2020-06-18T13:13:33Z</time>
      </trkpt>
      <trkpt lat="49.92763" lon="1.09167">
        <ele>20.7</ele>
        <time>2020-06-18T13:13:34Z</time>
      </trkpt>
      <trkpt lat="49.92763" lon="1.09173">
        <ele>20.9</ele>
        <time>2020-06-18T13:13:35Z</time>
      </trkpt>
      <trkpt lat="49.92762" lon="1.09178">
        <ele>21</ele>
        <time>2020-06-18T13:13:36Z</time>
      </trkpt>
      <trkpt lat="49.9276" lon="1.09184">
        <ele>21.2</ele>
        <time>2020-06-18T13:13:37Z</time>
      </trkpt>
      <trkpt lat="49.9276" lon="1.0919">
        <ele>21.4</ele>
        <time>2020-06-18T13:13:38Z</time>
      </trkpt>
      <trkpt lat="49.92759" lon="1.09194">
        <ele>21.6</ele>
        <time>2020-06-18T13:13:39Z</time>
      </trkpt>
      <trkpt lat="49.92757" lon="1.09199">
        <ele>21.7</ele>
        <time>2020-06-18T13:13:40Z</time>
      </trkpt>
      <trkpt lat="49.92756" lon="1.09202">
        <ele>21.9</ele>
        <time>2020-06-18T13:13:41Z</time>
      </trkpt>
      <trkpt lat="49.92755" lon="1.09207">
        <ele>22</ele>
        <time>2020-06-18T13:13:42Z</time>
      </trkpt>
      <trkpt lat="49.92753" lon="1.09212">
        <ele>22.2</ele>
        <time>2020-06-18T13:13:43Z</time>
      </trkpt>
      <trkpt lat="49.92752" lon="1.09217">
        <ele>22.4</ele>
        <time>2020-06-18T13:13:44Z</time>
      </trkpt>
      <trkpt lat="49.92751" lon="1.09222">
        <ele>22.5</ele>
        <time>2020-06-18T13:13:45Z</time>
      </trkpt>
      <trkpt lat="49.92751" lon="1.09227">
        <ele>22.7</ele>
        <time>2020-06-18T13:13:46Z</time>
      </trkpt>
      <trkpt lat="49.9275" lon="1.09232">
        <ele>22.8</ele>
        <time>2020-06-18T13:13:47Z</time>
      </trkpt>
      <trkpt lat="49.92749" lon="1.09236">
        <ele>23</ele>
        <time>2020-06-18T13:13:48Z</time>
      </trkpt>
      <trkpt lat="49.92749" lon="1.0924">
        <ele>23.1</ele>
        <time>2020-06-18T13:13:49Z</time>
      </trkpt>
      <trkpt lat="49.92748" lon="1.09245">
        <ele>23.3</ele>
        <time>2020-06-18T13:13:50Z</time>
      </trkpt>
      <trkpt lat="49.92747" lon="1.0925">
        <ele>23.5</ele>
        <time>2020-06-18T13:13:51Z</time>
      </trkpt>
      <trkpt lat="49.92747" lon="1.09254">
        <ele>23.6</ele>
        <time>2020-06-18T13:13:52Z</time>
      </trkpt>
      <trkpt lat="49.92746" lon="1.0926">
        <ele>23.8</ele>
        <time>2020-06-18T13:13:53Z</time>
      </trkpt>
      <trkpt lat="49.92744" lon="1.09265">
        <ele>24</ele>
        <time>2020-06-18T13:13:54Z</time>
      </trkpt>
      <trkpt lat="49.92743" lon="1.0927">
        <ele>24.2</ele>
        <time>2020-06-18T13:13:55Z</time>
      </trkpt>
      <trkpt lat="49.92741" lon="1.09275">
        <ele>24.3</ele>
        <time>2020-06-18T13:13:56Z</time>
      </trkpt>
      <trkpt lat="49.9274" lon="1.09279">
        <ele>24.5</ele>
        <time>2020-06-18T13:13:57Z</time>
      </trkpt>
      <trkpt lat="49.92738" lon="1.09285">
        <ele>24.7</ele>
        <time>2020-06-18T13:13:58Z</time>
      </trkpt>
      <trkpt lat="49.92735" lon="1.09292">
        <ele>25</ele>
        <time>2020-06-18T13:13:59Z</time>
      </trkpt>
      <trkpt lat="49.92734" lon="1.09297">
        <ele>25.1</ele>
        <time>2020-06-18T13:14:00Z</time>
      </trkpt>
      <trkpt lat="49.92733" lon="1.09301">
        <ele>25.3</ele>
        <time>2020-06-18T13:14:01Z</time>
      </trkpt>
      <trkpt lat="49.92732" lon="1.09307">
        <ele>25.5</ele>
        <time>2020-06-18T13:14:02Z</time>
      </trkpt>
      <trkpt lat="49.9273" lon="1.09313">
        <ele>25.7</ele>
        <time>2020-06-18T13:14:03Z</time>
      </trkpt>
      <trkpt lat="49.92729" lon="1.09321">
        <ele>25.9</ele>
        <time>2020-06-18T13:14:04Z</time>
      </trkpt>
      <trkpt lat="49.92727" lon="1.09326">
        <ele>26.1</ele>
        <time>2020-06-18T13:14:05Z</time>
      </trkpt>
      <trkpt lat="49.92725" lon="1.09334">
        <ele>26.4</ele>
        <time>2020-06-18T13:14:06Z</time>
      </trkpt>
      <trkpt lat="49.92723" lon="1.09342">
        <ele>26.7</ele>
        <time>2020-06-18T13:14:07Z</time>
      </trkpt>
      <trkpt lat="49.92722" lon="1.09349">
        <ele>27</ele>
        <time>2020-06-18T13:14:08Z</time>
      </trkpt>
      <trkpt lat="49.92721" lon="1.09354">
        <ele>27.1</ele>
        <time>2020-06-18T13:14:09Z</time>
      </trkpt>
      <trkpt lat="49.92719" lon="1.0936">
        <ele>27.4</ele>
        <time>2020-06-18T13:14:10Z</time>
      </trkpt>
      <trkpt lat="49.92718" lon="1.09366">
        <ele>27.6</ele>
        <time>2020-06-18T13:14:11Z</time>
      </trkpt>
      <trkpt lat="49.92716" lon="1.09371">
        <ele>27.8</ele>
        <time>2020-06-18T13:14:12Z</time>
      </trkpt>
      <trkpt lat="49.92715" lon="1.09377">
        <ele>28</ele>
        <time>2020-06-18T13:14:13Z</time>
      </trkpt>
      <trkpt lat="49.92714" lon="1.09383">
        <ele>28.3</ele>
        <time>2020-06-18T13:14:14Z</time>
      </trkpt>
      <trkpt lat="49.92713" lon="1.09388">
        <ele>28.5</ele>
        <time>2020-06-18T13:14:15Z</time>
      </trkpt>
      <trkpt lat="49.92711" lon="1.09392">
        <ele>28.7</ele>
        <time>2020-06-18T13:14:16Z</time>
      </trkpt>
      <trkpt lat="49.9271" lon="1.09396">
        <ele>28.8</ele>
        <time>2020-06-18T13:14:17Z</time>
      </trkpt>
      <trkpt lat="49.92708" lon="1.09402">
        <ele>29.1</ele>
        <time>2020-06-18T13:14:18Z</time>
      </trkpt>
      <trkpt lat="49.92707" lon="1.09407">
        <ele>29.2</ele>
        <time>2020-06-18T13:14:19Z</time>
      </trkpt>
      <trkpt lat="49.92705" lon="1.09411">
        <ele>29.5</ele>
        <time>2020-06-18T13:14:20Z</time>
      </trkpt>
      <trkpt lat="49.92703" lon="1.09416">
        <ele>29.7</ele>
        <time>2020-06-18T13:14:21Z</time>
      </trkpt>
      <trkpt lat="49.92701" lon="1.09421">
        <ele>29.9</ele>
        <time>2020-06-18T13:14:22Z</time>
      </trkpt>
      <trkpt lat="49.92699" lon="1.09427">
        <ele>30.1</ele>
        <time>2020-06-18T13:14:23Z</time>
      </trkpt>
      <trkpt lat="49.92698" lon="1.09432">
        <ele>30.3</ele>
        <time>2020-06-18T13:14:24Z</time>
      </trkpt>
      <trkpt lat="49.92697" lon="1.09437">
        <ele>30.5</ele>
        <time>2020-06-18T13:14:25Z</time>
      </trkpt>
      <trkpt lat="49.92696" lon="1.09442">
        <ele>30.7</ele>
        <time>2020-06-18T13:14:26Z</time>
      </trkpt>
      <trkpt lat="49.92694" lon="1.09447">
        <ele>30.9</ele>
        <time>2020-06-18T13:14:27Z</time>
      </trkpt>
      <trkpt lat="49.92693" lon="1.09452">
        <ele>31.1</ele>
        <time>2020-06-18T13:14:28Z</time>
      </trkpt>
      <trkpt lat="49.92691" lon="1.09458">
        <ele>31.3</ele>
        <time>2020-06-18T13:14:29Z</time>
      </trkpt>
      <trkpt lat="49.92691" lon="1.09461">
        <ele>31.4</ele>
        <time>2020-06-18T13:14:30Z</time>
      </trkpt>
      <trkpt lat="49.92689" lon="1.09465">
        <ele>31.6</ele>
        <time>2020-06-18T13:14:31Z</time>
      </trkpt>
      <trkpt lat="49.92688" lon="1.0947">
        <ele>31.7</ele>
        <time>2020-06-18T13:14:32Z</time>
      </trkpt>
      <trkpt lat="49.92686" lon="1.09475">
        <ele>31.9</ele>
        <time>2020-06-18T13:14:33Z</time>
      </trkpt>
      <trkpt lat="49.92685" lon="1.09482">
        <ele>32.1</ele>
        <time>2020-06-18T13:14:34Z</time>
      </trkpt>
      <trkpt lat="49.92684" lon="1.09488">
        <ele>32.5</ele>
        <time>2020-06-18T13:14:35Z</time>
      </trkpt>
      <trkpt lat="49.92683" lon="1.09495">
        <ele>32.7</ele>
        <time>2020-06-18T13:14:36Z</time>
      </trkpt>
      <trkpt lat="49.92682" lon="1.09498">
        <ele>32.9</ele>
        <time>2020-06-18T13:14:37Z</time>
      </trkpt>
      <trkpt lat="49.9268" lon="1.09504">
        <ele>33.1</ele>
        <time>2020-06-18T13:14:38Z</time>
      </trkpt>
      <trkpt lat="49.92679" lon="1.09509">
        <ele>33.3</ele>
        <time>2020-06-18T13:14:39Z</time>
      </trkpt>
      <trkpt lat="49.92677" lon="1.09514">
        <ele>33.5</ele>
        <time>2020-06-18T13:14:40Z</time>
      </trkpt>
      <trkpt lat="49.92676" lon="1.09519">
        <ele>33.7</ele>
        <time>2020-06-18T13:14:41Z</time>
      </trkpt>
      <trkpt lat="49.92676" lon="1.09525">
        <ele>33.9</ele>
        <time>2020-06-18T13:14:42Z</time>
      </trkpt>
      <trkpt lat="49.92675" lon="1.09529">
        <ele>34.1</ele>
        <time>2020-06-18T13:14:43Z</time>
      </trkpt>
      <trkpt lat="49.92675" lon="1.09535">
        <ele>34.3</ele>
        <time>2020-06-18T13:14:44Z</time>
      </trkpt>
      <trkpt lat="49.92673" lon="1.09539">
        <ele>34.5</ele>
        <time>2020-06-18T13:14:45Z</time>
      </trkpt>
      <trkpt lat="49.92671" lon="1.09543">
        <ele>34.6</ele>
        <time>2020-06-18T13:14:46Z</time>
      </trkpt>
      <trkpt lat="49.92669" lon="1.09548">
        <ele>34.8</ele>
        <time>2020-06-18T13:14:47Z</time>
      </trkpt>
      <trkpt lat="49.92668" lon="1.09553">
        <ele>35</ele>
        <time>2020-06-18T13:14:48Z</time>
      </trkpt>
      <trkpt lat="49.92667" lon="1.09557">
        <ele>35.1</ele>
        <time>2020-06-18T13:14:49Z</time>
      </trkpt>
      <trkpt lat="49.92665" lon="1.09562">
        <ele>35.3</ele>
        <time>2020-06-18T13:14:50Z</time>
      </trkpt>
      <trkpt lat="49.92664" lon="1.09566">
        <ele>35.5</ele>
        <time>2020-06-18T13:14:51Z</time>
      </trkpt>
      <trkpt lat="49.92663" lon="1.09571">
        <ele>35.6</ele>
        <time>2020-06-18T13:14:52Z</time>
      </trkpt>
      <trkpt lat="49.92661" lon="1.09575">
        <ele>35.8</ele>
        <time>2020-06-18T13:14:53Z</time>
      </trkpt>
      <trkpt lat="49.92659" lon="1.09579">
        <ele>35.9</ele>
        <time>2020-06-18T13:14:54Z</time>
      </trkpt>
      <trkpt lat="49.92658" lon="1.09584">
        <ele>36.1</ele>
        <time>2020-06-18T13:14:55Z</time>
      </trkpt>
      <trkpt lat="49.92658" lon="1.09589">
        <ele>36.3</ele>
        <time>2020-06-18T13:14:56Z</time>
      </trkpt>
      <trkpt lat="49.92656" lon="1.09595">
        <ele>36.5</ele>
        <time>2020-06-18T13:14:57Z</time>
      </trkpt>
      <trkpt lat="49.92655" lon="1.096">
        <ele>36.7</ele>
        <time>2020-06-18T13:14:58Z</time>
      </trkpt>
      <trkpt lat="49.92654" lon="1.09605">
        <ele>36.9</ele>
        <time>2020-06-18T13:14:59Z</time>
      </trkpt>
      <trkpt lat="49.92653" lon="1.09609">
        <ele>37</ele>
        <time>2020-06-18T13:15:00Z</time>
      </trkpt>
      <trkpt lat="49.92652" lon="1.09614">
        <ele>37.2</ele>
        <time>2020-06-18T13:15:01Z</time>
      </trkpt>
      <trkpt lat="49.9265" lon="1.09618">
        <ele>37.4</ele>
        <time>2020-06-18T13:15:02Z</time>
      </trkpt>
      <trkpt lat="49.9265" lon="1.09625">
        <ele>37.6</ele>
        <time>2020-06-18T13:15:03Z</time>
      </trkpt>
      <trkpt lat="49.92649" lon="1.09631">
        <ele>37.9</ele>
        <time>2020-06-18T13:15:04Z</time>
      </trkpt>
      <trkpt lat="49.92648" lon="1.09636">
        <ele>38</ele>
        <time>2020-06-18T13:15:05Z</time>
      </trkpt>
      <trkpt lat="49.92647" lon="1.0964">
        <ele>38.2</ele>
        <time>2020-06-18T13:15:06Z</time>
      </trkpt>
      <trkpt lat="49.92645" lon="1.09645">
        <ele>38.4</ele>
        <time>2020-06-18T13:15:07Z</time>
      </trkpt>
      <trkpt lat="49.92645" lon="1.0965">
        <ele>38.6</ele>
        <time>2020-06-18T13:15:08Z</time>
      </trkpt>
      <trkpt lat="49.92644" lon="1.09655">
        <ele>38.8</ele>
        <time>2020-06-18T13:15:09Z</time>
      </trkpt>
      <trkpt lat="49.92642" lon="1.09661">
        <ele>39</ele>
        <time>2020-06-18T13:15:10Z</time>
      </trkpt>
      <trkpt lat="49.92642" lon="1.09666">
        <ele>39.2</ele>
        <time>2020-06-18T13:15:11Z</time>
      </trkpt>
      <trkpt lat="49.92641" lon="1.09673">
        <ele>39.5</ele>
        <time>2020-06-18T13:15:12Z</time>
      </trkpt>
      <trkpt lat="49.92638" lon="1.0968">
        <ele>39.8</ele>
        <time>2020-06-18T13:15:13Z</time>
      </trkpt>
      <trkpt lat="49.92637" lon="1.09686">
        <ele>40</ele>
        <time>2020-06-18T13:15:14Z</time>
      </trkpt>
      <trkpt lat="49.92633" lon="1.09692">
        <ele>40.3</ele>
        <time>2020-06-18T13:15:15Z</time>
      </trkpt>
      <trkpt lat="49.92632" lon="1.09696">
        <ele>40.5</ele>
        <time>2020-06-18T13:15:16Z</time>
      </trkpt>
      <trkpt lat="49.92631" lon="1.09702">
        <ele>40.7</ele>
        <time>2020-06-18T13:15:17Z</time>
      </trkpt>
      <trkpt lat="49.9263" lon="1.09707">
        <ele>40.9</ele>
        <time>2020-06-18T13:15:18Z</time>
      </trkpt>
      <trkpt lat="49.92628" lon="1.09713">
        <ele>41.2</ele>
        <time>2020-06-18T13:15:19Z</time>
      </trkpt>
      <trkpt lat="49.92626" lon="1.0972">
        <ele>41.5</ele>
        <time>2020-06-18T13:15:20Z</time>
      </trkpt>
      <trkpt lat="49.92624" lon="1.09726">
        <ele>41.7</ele>
        <time>2020-06-18T13:15:21Z</time>
      </trkpt>
      <trkpt lat="49.92622" lon="1.09732">
        <ele>42</ele>
        <time>2020-06-18T13:15:22Z</time>
      </trkpt>
      <trkpt lat="49.92621" lon="1.09736">
        <ele>42.1</ele>
        <time>2020-06-18T13:15:23Z</time>
      </trkpt>
      <trkpt lat="49.92619" lon="1.09742">
        <ele>42.3</ele>
        <time>2020-06-18T13:15:24Z</time>
      </trkpt>
      <trkpt lat="49.92618" lon="1.09744">
        <ele>42.4</ele>
        <time>2020-06-18T13:15:25Z</time>
      </trkpt>
      <trkpt lat="49.92616" lon="1.09749">
        <ele>42.6</ele>
        <time>2020-06-18T13:15:26Z</time>
      </trkpt>
      <trkpt lat="49.92614" lon="1.09759">
        <ele>43</ele>
        <time>2020-06-18T13:15:27Z</time>
      </trkpt>
      <trkpt lat="49.92612" lon="1.09764">
        <ele>43.2</ele>
        <time>2020-06-18T13:15:28Z</time>
      </trkpt>
      <trkpt lat="49.9261" lon="1.09769">
        <ele>43.4</ele>
        <time>2020-06-18T13:15:29Z</time>
      </trkpt>
      <trkpt lat="49.92609" lon="1.09774">
        <ele>43.6</ele>
        <time>2020-06-18T13:15:30Z</time>
      </trkpt>
      <trkpt lat="49.92608" lon="1.09779">
        <ele>43.8</ele>
        <time>2020-06-18T13:15:31Z</time>
      </trkpt>
      <trkpt lat="49.92607" lon="1.09784">
        <ele>44</ele>
        <time>2020-06-18T13:15:32Z</time>
      </trkpt>
      <trkpt lat="49.92606" lon="1.09789">
        <ele>44.2</ele>
        <time>2020-06-18T13:15:33Z</time>
      </trkpt>
      <trkpt lat="49.92605" lon="1.09794">
        <ele>44.4</ele>
        <time>2020-06-18T13:15:34Z</time>
      </trkpt>
      <trkpt lat="49.92603" lon="1.098">
        <ele>44.6</ele>
        <time>2020-06-18T13:15:35Z</time>
      </trkpt>
      <trkpt lat="49.92601" lon="1.09805">
        <ele>44.9</ele>
        <time>2020-06-18T13:15:36Z</time>
      </trkpt>
      <trkpt lat="49.92599" lon="1.09811">
        <ele>45.1</ele>
        <time>2020-06-18T13:15:37Z</time>
      </trkpt>
      <trkpt lat="49.92598" lon="1.09815">
        <ele>45.2</ele>
        <time>2020-06-18T13:15:38Z</time>
      </trkpt>
      <trkpt lat="49.92595" lon="1.09819">
        <ele>45.4</ele>
        <time>2020-06-18T13:15:39Z</time>
      </trkpt>
      <trkpt lat="49.92593" lon="1.09823">
        <ele>45.6</ele>
        <time>2020-06-18T13:15:40Z</time>
      </trkpt>
      <trkpt lat="49.92591" lon="1.09827">
        <ele>45.8</ele>
        <time>2020-06-18T13:15:41Z</time>
      </trkpt>
      <trkpt lat="49.92589" lon="1.09833">
        <ele>46</ele>
        <time>2020-06-18T13:15:42Z</time>
      </trkpt>
      <trkpt lat="49.92588" lon="1.09838">
        <ele>46.2</ele>
        <time>2020-06-18T13:15:43Z</time>
      </trkpt>
      <trkpt lat="49.92586" lon="1.09844">
        <ele>46.4</ele>
        <time>2020-06-18T13:15:44Z</time>
      </trkpt>
      <trkpt lat="49.92585" lon="1.09849">
        <ele>46.7</ele>
        <time>2020-06-18T13:15:45Z</time>
      </trkpt>
      <trkpt lat="49.92583" lon="1.09854">
        <ele>46.9</ele>
        <time>2020-06-18T13:15:46Z</time>
      </trkpt>
      <trkpt lat="49.92581" lon="1.0986">
        <ele>47.1</ele>
        <time>2020-06-18T13:15:47Z</time>
      </trkpt>
      <trkpt lat="49.92579" lon="1.09867">
        <ele>47.4</ele>
        <time>2020-06-18T13:15:48Z</time>
      </trkpt>
      <trkpt lat="49.92579" lon="1.0987">
        <ele>47.5</ele>
        <time>2020-06-18T13:15:49Z</time>
      </trkpt>
      <trkpt lat="49.92578" lon="1.09875">
        <ele>47.7</ele>
        <time>2020-06-18T13:15:50Z</time>
      </trkpt>
      <trkpt lat="49.92577" lon="1.0988">
        <ele>47.9</ele>
        <time>2020-06-18T13:15:51Z</time>
      </trkpt>
      <trkpt lat="49.92576" lon="1.09886">
        <ele>48.2</ele>
        <time>2020-06-18T13:15:52Z</time>
      </trkpt>
      <trkpt lat="49.92574" lon="1.09892">
        <ele>48.5</ele>
        <time>2020-06-18T13:15:53Z</time>
      </trkpt>
      <trkpt lat="49.92573" lon="1.09898">
        <ele>48.8</ele>
        <time>2020-06-18T13:15:54Z</time>
      </trkpt>
      <trkpt lat="49.92571" lon="1.09902">
        <ele>48.9</ele>
        <time>2020-06-18T13:15:55Z</time>
      </trkpt>
      <trkpt lat="49.9257" lon="1.09908">
        <ele>49.1</ele>
        <time>2020-06-18T13:15:56Z</time>
      </trkpt>
      <trkpt lat="49.92569" lon="1.09914">
        <ele>49.3</ele>
        <time>2020-06-18T13:15:57Z</time>
      </trkpt>
      <trkpt lat="49.92568" lon="1.09919">
        <ele>49.4</ele>
        <time>2020-06-18T13:15:58Z</time>
      </trkpt>
      <trkpt lat="49.92567" lon="1.09923">
        <ele>49.6</ele>
        <time>2020-06-18T13:15:59Z</time>
      </trkpt>
      <trkpt lat="49.92566" lon="1.09927">
        <ele>49.7</ele>
        <time>2020-06-18T13:16:00Z</time>
      </trkpt>
      <trkpt lat="49.92565" lon="1.09932">
        <ele>49.9</ele>
        <time>2020-06-18T13:16:01Z</time>
      </trkpt>
      <trkpt lat="49.92564" lon="1.09938">
        <ele>50.1</ele>
        <time>2020-06-18T13:16:02Z</time>
      </trkpt>
      <trkpt lat="49.92563" lon="1.09943">
        <ele>50.3</ele>
        <time>2020-06-18T13:16:03Z</time>
      </trkpt>
      <trkpt lat="49.92562" lon="1.09947">
        <ele>50.5</ele>
        <time>2020-06-18T13:16:04Z</time>
      </trkpt>
      <trkpt lat="49.92561" lon="1.09952">
        <ele>50.6</ele>
        <time>2020-06-18T13:16:05Z</time>
      </trkpt>
      <trkpt lat="49.9256" lon="1.09958">
        <ele>50.8</ele>
        <time>2020-06-18T13:16:06Z</time>
      </trkpt>
      <trkpt lat="49.9256" lon="1.09964">
        <ele>51</ele>
        <time>2020-06-18T13:16:07Z</time>
      </trkpt>
      <trkpt lat="49.92559" lon="1.09968">
        <ele>51.2</ele>
        <time>2020-06-18T13:16:08Z</time>
      </trkpt>
      <trkpt lat="49.92558" lon="1.09974">
        <ele>51.3</ele>
        <time>2020-06-18T13:16:09Z</time>
      </trkpt>
      <trkpt lat="49.92557" lon="1.09976">
        <ele>51.4</ele>
        <time>2020-06-18T13:16:10Z</time>
      </trkpt>
      <trkpt lat="49.92557" lon="1.09981">
        <ele>51.5</ele>
        <time>2020-06-18T13:16:11Z</time>
      </trkpt>
      <trkpt lat="49.92556" lon="1.09983">
        <ele>51.6</ele>
        <time>2020-06-18T13:16:12Z</time>
      </trkpt>
      <trkpt lat="49.92555" lon="1.09987">
        <ele>51.7</ele>
        <time>2020-06-18T13:16:13Z</time>
      </trkpt>
      <trkpt lat="49.92553" lon="1.09991">
        <ele>52.1</ele>
        <time>2020-06-18T13:16:14Z</time>
      </trkpt>
      <trkpt lat="49.92552" lon="1.09997">
        <ele>52.3</ele>
        <time>2020-06-18T13:16:15Z</time>
      </trkpt>
      <trkpt lat="49.9255" lon="1.10002">
        <ele>52.6</ele>
        <time>2020-06-18T13:16:16Z</time>
      </trkpt>
      <trkpt lat="49.92549" lon="1.10008">
        <ele>52.8</ele>
        <time>2020-06-18T13:16:17Z</time>
      </trkpt>
      <trkpt lat="49.92548" lon="1.10015">
        <ele>53.1</ele>
        <time>2020-06-18T13:16:18Z</time>
      </trkpt>
      <trkpt lat="49.92545" lon="1.10022">
        <ele>53.5</ele>
        <time>2020-06-18T13:16:19Z</time>
      </trkpt>
      <trkpt lat="49.92543" lon="1.10028">
        <ele>53.8</ele>
        <time>2020-06-18T13:16:20Z</time>
      </trkpt>
      <trkpt lat="49.92542" lon="1.10034">
        <ele>54</ele>
        <time>2020-06-18T13:16:21Z</time>
      </trkpt>
      <trkpt lat="49.9254" lon="1.10039">
        <ele>54.3</ele>
        <time>2020-06-18T13:16:22Z</time>
      </trkpt>
      <trkpt lat="49.9254" lon="1.10044">
        <ele>54.5</ele>
        <time>2020-06-18T13:16:23Z</time>
      </trkpt>
      <trkpt lat="49.92539" lon="1.10048">
        <ele>54.7</ele>
        <time>2020-06-18T13:16:24Z</time>
      </trkpt>
      <trkpt lat="49.92538" lon="1.10053">
        <ele>54.9</ele>
        <time>2020-06-18T13:16:25Z</time>
      </trkpt>
      <trkpt lat="49.92536" lon="1.10058">
        <ele>55.1</ele>
        <time>2020-06-18T13:16:26Z</time>
      </trkpt>
      <trkpt lat="49.92534" lon="1.10063">
        <ele>55.4</ele>
        <time>2020-06-18T13:16:27Z</time>
      </trkpt>
      <trkpt lat="49.92531" lon="1.10069">
        <ele>55.7</ele>
        <time>2020-06-18T13:16:28Z</time>
      </trkpt>
      <trkpt lat="49.92529" lon="1.10074">
        <ele>55.9</ele>
        <time>2020-06-18T13:16:29Z</time>
      </trkpt>
      <trkpt lat="49.92527" lon="1.1008">
        <ele>56.2</ele>
        <time>2020-06-18T13:16:30Z</time>
      </trkpt>
      <trkpt lat="49.92525" lon="1.10085">
        <ele>56.7</ele>
        <time>2020-06-18T13:16:31Z</time>
      </trkpt>
      <trkpt lat="49.92524" lon="1.1009">
        <ele>56.7</ele>
        <time>2020-06-18T13:16:32Z</time>
      </trkpt>
      <trkpt lat="49.92523" lon="1.10096">
        <ele>56.7</ele>
        <time>2020-06-18T13:16:33Z</time>
      </trkpt>
      <trkpt lat="49.92521" lon="1.101">
        <ele>56.8</ele>
        <time>2020-06-18T13:16:34Z</time>
      </trkpt>
      <trkpt lat="49.92519" lon="1.10107">
        <ele>56.9</ele>
        <time>2020-06-18T13:16:35Z</time>
      </trkpt>
      <trkpt lat="49.92517" lon="1.10113">
        <ele>57.1</ele>
        <time>2020-06-18T13:16:36Z</time>
      </trkpt>
      <trkpt lat="49.92515" lon="1.10119">
        <ele>57.3</ele>
        <time>2020-06-18T13:16:37Z</time>
      </trkpt>
      <trkpt lat="49.92513" lon="1.10123">
        <ele>57.5</ele>
        <time>2020-06-18T13:16:38Z</time>
      </trkpt>
      <trkpt lat="49.92511" lon="1.10129">
        <ele>57.7</ele>
        <time>2020-06-18T13:16:39Z</time>
      </trkpt>
      <trkpt lat="49.92509" lon="1.10135">
        <ele>57.9</ele>
        <time>2020-06-18T13:16:40Z</time>
      </trkpt>
      <trkpt lat="49.92508" lon="1.1014">
        <ele>58.1</ele>
        <time>2020-06-18T13:16:41Z</time>
      </trkpt>
      <trkpt lat="49.92506" lon="1.10145">
        <ele>58.2</ele>
        <time>2020-06-18T13:16:42Z</time>
      </trkpt>
      <trkpt lat="49.92505" lon="1.10151">
        <ele>58.4</ele>
        <time>2020-06-18T13:16:43Z</time>
      </trkpt>
      <trkpt lat="49.92504" lon="1.10158">
        <ele>58.6</ele>
        <time>2020-06-18T13:16:44Z</time>
      </trkpt>
      <trkpt lat="49.92504" lon="1.10166">
        <ele>58.8</ele>
        <time>2020-06-18T13:16:45Z</time>
      </trkpt>
      <trkpt lat="49.92503" lon="1.10172">
        <ele>59</ele>
        <time>2020-06-18T13:16:46Z</time>
      </trkpt>
      <trkpt lat="49.92503" lon="1.1018">
        <ele>59.1</ele>
        <time>2020-06-18T13:16:47Z</time>
      </trkpt>
      <trkpt lat="49.92502" lon="1.10187">
        <ele>59.3</ele>
        <time>2020-06-18T13:16:48Z</time>
      </trkpt>
      <trkpt lat="49.925" lon="1.10193">
        <ele>59.5</ele>
        <time>2020-06-18T13:16:49Z</time>
      </trkpt>
      <trkpt lat="49.92498" lon="1.10199">
        <ele>59.8</ele>
        <time>2020-06-18T13:16:50Z</time>
      </trkpt>
      <trkpt lat="49.92497" lon="1.10204">
        <ele>59.9</ele>
        <time>2020-06-18T13:16:51Z</time>
      </trkpt>
      <trkpt lat="49.92495" lon="1.1021">
        <ele>60</ele>
        <time>2020-06-18T13:16:52Z</time>
      </trkpt>
      <trkpt lat="49.92493" lon="1.10215">
        <ele>60.1</ele>
        <time>2020-06-18T13:16:53Z</time>
      </trkpt>
      <trkpt lat="49.92491" lon="1.1022">
        <ele>60.3</ele>
        <time>2020-06-18T13:16:54Z</time>
      </trkpt>
      <trkpt lat="49.9249" lon="1.10225">
        <ele>60.4</ele>
        <time>2020-06-18T13:16:55Z</time>
      </trkpt>
      <trkpt lat="49.92489" lon="1.10229">
        <ele>60.5</ele>
        <time>2020-06-18T13:16:56Z</time>
      </trkpt>
      <trkpt lat="49.92487" lon="1.10234">
        <ele>60.6</ele>
        <time>2020-06-18T13:16:57Z</time>
      </trkpt>
      <trkpt lat="49.92485" lon="1.1024">
        <ele>60.8</ele>
        <time>2020-06-18T13:16:58Z</time>
      </trkpt>
      <trkpt lat="49.92485" lon="1.10245">
        <ele>60.9</ele>
        <time>2020-06-18T13:16:59Z</time>
      </trkpt>
      <trkpt lat="49.92483" lon="1.1025">
        <ele>61</ele>
        <time>2020-06-18T13:17:00Z</time>
      </trkpt>
      <trkpt lat="49.92482" lon="1.10256">
        <ele>61.2</ele>
        <time>2020-06-18T13:17:01Z</time>
      </trkpt>
      <trkpt lat="49.92481" lon="1.10261">
        <ele>61.3</ele>
        <time>2020-06-18T13:17:02Z</time>
      </trkpt>
      <trkpt lat="49.9248" lon="1.10266">
        <ele>61.4</ele>
        <time>2020-06-18T13:17:03Z</time>
      </trkpt>
      <trkpt lat="49.92479" lon="1.10271">
        <ele>61.6</ele>
        <time>2020-06-18T13:17:04Z</time>
      </trkpt>
      <trkpt lat="49.92478" lon="1.10277">
        <ele>61.7</ele>
        <time>2020-06-18T13:17:05Z</time>
      </trkpt>
      <trkpt lat="49.92478" lon="1.10283">
        <ele>61.9</ele>
        <time>2020-06-18T13:17:06Z</time>
      </trkpt>
      <trkpt lat="49.92476" lon="1.10287">
        <ele>62</ele>
        <time>2020-06-18T13:17:07Z</time>
      </trkpt>
      <trkpt lat="49.92474" lon="1.10291">
        <ele>62.1</ele>
        <time>2020-06-18T13:17:08Z</time>
      </trkpt>
      <trkpt lat="49.92472" lon="1.10297">
        <ele>62.3</ele>
        <time>2020-06-18T13:17:09Z</time>
      </trkpt>
      <trkpt lat="49.9247" lon="1.10305">
        <ele>62.5</ele>
        <time>2020-06-18T13:17:10Z</time>
      </trkpt>
      <trkpt lat="49.92468" lon="1.10311">
        <ele>62.7</ele>
        <time>2020-06-18T13:17:11Z</time>
      </trkpt>
      <trkpt lat="49.92467" lon="1.10315">
        <ele>62.8</ele>
        <time>2020-06-18T13:17:12Z</time>
      </trkpt>
      <trkpt lat="49.92466" lon="1.10321">
        <ele>62.9</ele>
        <time>2020-06-18T13:17:13Z</time>
      </trkpt>
      <trkpt lat="49.92463" lon="1.10327">
        <ele>63.2</ele>
        <time>2020-06-18T13:17:14Z</time>
      </trkpt>
      <trkpt lat="49.9246" lon="1.10332">
        <ele>63.3</ele>
        <time>2020-06-18T13:17:15Z</time>
      </trkpt>
      <trkpt lat="49.92459" lon="1.10337">
        <ele>63.5</ele>
        <time>2020-06-18T13:17:16Z</time>
      </trkpt>
      <trkpt lat="49.92459" lon="1.10339">
        <ele>63.5</ele>
        <time>2020-06-18T13:17:17Z</time>
      </trkpt>
      <trkpt lat="49.92459" lon="1.10342">
        <ele>63.6</ele>
        <time>2020-06-18T13:17:18Z</time>
      </trkpt>
      <trkpt lat="49.92458" lon="1.10344">
        <ele>63.7</ele>
        <time>2020-06-18T13:17:19Z</time>
      </trkpt>
      <trkpt lat="49.92457" lon="1.10347">
        <ele>63.8</ele>
        <time>2020-06-18T13:17:20Z</time>
      </trkpt>
      <trkpt lat="49.92457" lon="1.10348">
        <ele>63.8</ele>
        <time>2020-06-18T13:17:21Z</time>
      </trkpt>
      <trkpt lat="49.92456" lon="1.1035">
        <ele>63.8</ele>
        <time>2020-06-18T13:17:22Z</time>
      </trkpt>
      <trkpt lat="49.92456" lon="1.10351">
        <ele>63.9</ele>
        <time>2020-06-18T13:17:23Z</time>
      </trkpt>
      <trkpt lat="49.92456" lon="1.10352">
        <ele>63.9</ele>
        <time>2020-06-18T13:17:24Z</time>
      </trkpt>
      <trkpt lat="49.92456" lon="1.10354">
        <ele>63.9</ele>
        <time>2020-06-18T13:17:25Z</time>
      </trkpt>
      <trkpt lat="49.92456" lon="1.10359">
        <ele>64.1</ele>
        <time>2020-06-18T13:17:26Z</time>
      </trkpt>
      <trkpt lat="49.92456" lon="1.10361">
        <ele>64.1</ele>
        <time>2020-06-18T13:17:27Z</time>
      </trkpt>
      <trkpt lat="49.92456" lon="1.10367">
        <ele>64.2</ele>
        <time>2020-06-18T13:17:28Z</time>
      </trkpt>
      <trkpt lat="49.92457" lon="1.10372">
        <ele>64.5</ele>
        <time>2020-06-18T13:17:29Z</time>
      </trkpt>
      <trkpt lat="49.92458" lon="1.10377">
        <ele>64.5</ele>
        <time>2020-06-18T13:17:30Z</time>
      </trkpt>
      <trkpt lat="49.92459" lon="1.10383">
        <ele>64.6</ele>
        <time>2020-06-18T13:17:31Z</time>
      </trkpt>
      <trkpt lat="49.9246" lon="1.10388">
        <ele>64.6</ele>
        <time>2020-06-18T13:17:32Z</time>
      </trkpt>
      <trkpt lat="49.92462" lon="1.10393">
        <ele>64.7</ele>
        <time>2020-06-18T13:17:33Z</time>
      </trkpt>
      <trkpt lat="49.92463" lon="1.10398">
        <ele>64.7</ele>
        <time>2020-06-18T13:17:34Z</time>
      </trkpt>
      <trkpt lat="49.92464" lon="1.10407">
        <ele>64.8</ele>
        <time>2020-06-18T13:17:35Z</time>
      </trkpt>
      <trkpt lat="49.92466" lon="1.10413">
        <ele>64.9</ele>
        <time>2020-06-18T13:17:36Z</time>
      </trkpt>
      <trkpt lat="49.92468" lon="1.10418">
        <ele>64.9</ele>
        <time>2020-06-18T13:17:37Z</time>
      </trkpt>
      <trkpt lat="49.9247" lon="1.10423">
        <ele>65</ele>
        <time>2020-06-18T13:17:38Z</time>
      </trkpt>
      <trkpt lat="49.92473" lon="1.10428">
        <ele>65</ele>
        <time>2020-06-18T13:17:39Z</time>
      </trkpt>
      <trkpt lat="49.92476" lon="1.10432">
        <ele>65.1</ele>
        <time>2020-06-18T13:17:40Z</time>
      </trkpt>
      <trkpt lat="49.92478" lon="1.10437">
        <ele>65.1</ele>
        <time>2020-06-18T13:17:41Z</time>
      </trkpt>
      <trkpt lat="49.92481" lon="1.10441">
        <ele>65.1</ele>
        <time>2020-06-18T13:17:42Z</time>
      </trkpt>
      <trkpt lat="49.92483" lon="1.10446">
        <ele>65.4</ele>
        <time>2020-06-18T13:17:43Z</time>
      </trkpt>
      <trkpt lat="49.92486" lon="1.10451">
        <ele>65.6</ele>
        <time>2020-06-18T13:17:44Z</time>
      </trkpt>
      <trkpt lat="49.92488" lon="1.10456">
        <ele>65.7</ele>
        <time>2020-06-18T13:17:45Z</time>
      </trkpt>
      <trkpt lat="49.92491" lon="1.1046">
        <ele>65.9</ele>
        <time>2020-06-18T13:17:46Z</time>
      </trkpt>
      <trkpt lat="49.92494" lon="1.10465">
        <ele>66</ele>
        <time>2020-06-18T13:17:47Z</time>
      </trkpt>
      <trkpt lat="49.92496" lon="1.10469">
        <ele>66.2</ele>
        <time>2020-06-18T13:17:48Z</time>
      </trkpt>
      <trkpt lat="49.92498" lon="1.10474">
        <ele>66.3</ele>
        <time>2020-06-18T13:17:49Z</time>
      </trkpt>
      <trkpt lat="49.92501" lon="1.10478">
        <ele>66.5</ele>
        <time>2020-06-18T13:17:50Z</time>
      </trkpt>
      <trkpt lat="49.92503" lon="1.10482">
        <ele>66.6</ele>
        <time>2020-06-18T13:17:51Z</time>
      </trkpt>
      <trkpt lat="49.92506" lon="1.10488">
        <ele>66.8</ele>
        <time>2020-06-18T13:17:52Z</time>
      </trkpt>
      <trkpt lat="49.92509" lon="1.10493">
        <ele>67</ele>
        <time>2020-06-18T13:17:53Z</time>
      </trkpt>
      <trkpt lat="49.92512" lon="1.10497">
        <ele>67.1</ele>
        <time>2020-06-18T13:17:54Z</time>
      </trkpt>
      <trkpt lat="49.92515" lon="1.10502">
        <ele>67.3</ele>
        <time>2020-06-18T13:17:55Z</time>
      </trkpt>
      <trkpt lat="49.92519" lon="1.10506">
        <ele>67.5</ele>
        <time>2020-06-18T13:17:56Z</time>
      </trkpt>
      <trkpt lat="49.92521" lon="1.10511">
        <ele>67.6</ele>
        <time>2020-06-18T13:17:57Z</time>
      </trkpt>
      <trkpt lat="49.92524" lon="1.10517">
        <ele>67.8</ele>
        <time>2020-06-18T13:17:58Z</time>
      </trkpt>
      <trkpt lat="49.92527" lon="1.10522">
        <ele>67.9</ele>
        <time>2020-06-18T13:17:59Z</time>
      </trkpt>
      <trkpt lat="49.92529" lon="1.10525">
        <ele>68</ele>
        <time>2020-06-18T13:18:00Z</time>
      </trkpt>
      <trkpt lat="49.92532" lon="1.10529">
        <ele>68.1</ele>
        <time>2020-06-18T13:18:01Z</time>
      </trkpt>
      <trkpt lat="49.92535" lon="1.10533">
        <ele>68.1</ele>
        <time>2020-06-18T13:18:02Z</time>
      </trkpt>
      <trkpt lat="49.92539" lon="1.10537">
        <ele>68.2</ele>
        <time>2020-06-18T13:18:03Z</time>
      </trkpt>
      <trkpt lat="49.92541" lon="1.1054">
        <ele>68.3</ele>
        <time>2020-06-18T13:18:04Z</time>
      </trkpt>
      <trkpt lat="49.92545" lon="1.10545">
        <ele>68.4</ele>
        <time>2020-06-18T13:18:05Z</time>
      </trkpt>
      <trkpt lat="49.92548" lon="1.10548">
        <ele>68.4</ele>
        <time>2020-06-18T13:18:06Z</time>
      </trkpt>
      <trkpt lat="49.92549" lon="1.10549">
        <ele>68.4</ele>
        <time>2020-06-18T13:18:07Z</time>
      </trkpt>
      <trkpt lat="49.92551" lon="1.10553">
        <ele>68.5</ele>
        <time>2020-06-18T13:18:08Z</time>
      </trkpt>
      <trkpt lat="49.92554" lon="1.10558">
        <ele>68.6</ele>
        <time>2020-06-18T13:18:09Z</time>
      </trkpt>
      <trkpt lat="49.92557" lon="1.10561">
        <ele>68.7</ele>
        <time>2020-06-18T13:18:10Z</time>
      </trkpt>
      <trkpt lat="49.9256" lon="1.10566">
        <ele>68.8</ele>
        <time>2020-06-18T13:18:11Z</time>
      </trkpt>
      <trkpt lat="49.92563" lon="1.1057">
        <ele>68.9</ele>
        <time>2020-06-18T13:18:12Z</time>
      </trkpt>
      <trkpt lat="49.92566" lon="1.10575">
        <ele>69</ele>
        <time>2020-06-18T13:18:13Z</time>
      </trkpt>
      <trkpt lat="49.92569" lon="1.1058">
        <ele>69.1</ele>
        <time>2020-06-18T13:18:14Z</time>
      </trkpt>
      <trkpt lat="49.92571" lon="1.10584">
        <ele>69.1</ele>
        <time>2020-06-18T13:18:15Z</time>
      </trkpt>
      <trkpt lat="49.92574" lon="1.10589">
        <ele>69.2</ele>
        <time>2020-06-18T13:18:16Z</time>
      </trkpt>
      <trkpt lat="49.92578" lon="1.10594">
        <ele>69.3</ele>
        <time>2020-06-18T13:18:17Z</time>
      </trkpt>
      <trkpt lat="49.9258" lon="1.10598">
        <ele>69.4</ele>
        <time>2020-06-18T13:18:18Z</time>
      </trkpt>
      <trkpt lat="49.92583" lon="1.10602">
        <ele>69.5</ele>
        <time>2020-06-18T13:18:19Z</time>
      </trkpt>
      <trkpt lat="49.92586" lon="1.10606">
        <ele>69.7</ele>
        <time>2020-06-18T13:18:20Z</time>
      </trkpt>
      <trkpt lat="49.92588" lon="1.10611">
        <ele>69.8</ele>
        <time>2020-06-18T13:18:21Z</time>
      </trkpt>
      <trkpt lat="49.92591" lon="1.10617">
        <ele>70</ele>
        <time>2020-06-18T13:18:22Z</time>
      </trkpt>
      <trkpt lat="49.92595" lon="1.10623">
        <ele>70.1</ele>
        <time>2020-06-18T13:18:23Z</time>
      </trkpt>
      <trkpt lat="49.92598" lon="1.10628">
        <ele>70.3</ele>
        <time>2020-06-18T13:18:24Z</time>
      </trkpt>
      <trkpt lat="49.926" lon="1.10631">
        <ele>70.3</ele>
        <time>2020-06-18T13:18:25Z</time>
      </trkpt>
      <trkpt lat="49.92603" lon="1.10634">
        <ele>70.4</ele>
        <time>2020-06-18T13:18:26Z</time>
      </trkpt>
      <trkpt lat="49.92605" lon="1.10638">
        <ele>70.5</ele>
        <time>2020-06-18T13:18:27Z</time>
      </trkpt>
      <trkpt lat="49.92608" lon="1.10641">
        <ele>70.6</ele>
        <time>2020-06-18T13:18:28Z</time>
      </trkpt>
      <trkpt lat="49.9261" lon="1.10644">
        <ele>70.7</ele>
        <time>2020-06-18T13:18:29Z</time>
      </trkpt>
      <trkpt lat="49.92612" lon="1.10646">
        <ele>70.8</ele>
        <time>2020-06-18T13:18:30Z</time>
      </trkpt>
      <trkpt lat="49.92614" lon="1.10651">
        <ele>70.9</ele>
        <time>2020-06-18T13:18:31Z</time>
      </trkpt>
      <trkpt lat="49.92615" lon="1.10653">
        <ele>71</ele>
        <time>2020-06-18T13:18:32Z</time>
      </trkpt>
      <trkpt lat="49.92617" lon="1.10657">
        <ele>71.1</ele>
        <time>2020-06-18T13:18:33Z</time>
      </trkpt>
      <trkpt lat="49.92618" lon="1.10658">
        <ele>71.1</ele>
        <time>2020-06-18T13:18:34Z</time>
      </trkpt>
      <trkpt lat="49.92619" lon="1.10663">
        <ele>71.2</ele>
        <time>2020-06-18T13:18:35Z</time>
      </trkpt>
      <trkpt lat="49.9262" lon="1.10664">
        <ele>71.2</ele>
        <time>2020-06-18T13:18:36Z</time>
      </trkpt>
      <trkpt lat="49.92622" lon="1.10668">
        <ele>71.2</ele>
        <time>2020-06-18T13:18:37Z</time>
      </trkpt>
      <trkpt lat="49.92624" lon="1.10672">
        <ele>71.3</ele>
        <time>2020-06-18T13:18:38Z</time>
      </trkpt>
      <trkpt lat="49.92624" lon="1.10676">
        <ele>71.3</ele>
        <time>2020-06-18T13:18:39Z</time>
      </trkpt>
      <trkpt lat="49.92627" lon="1.1068">
        <ele>71.3</ele>
        <time>2020-06-18T13:18:40Z</time>
      </trkpt>
      <trkpt lat="49.9263" lon="1.10684">
        <ele>71.3</ele>
        <time>2020-06-18T13:18:41Z</time>
      </trkpt>
      <trkpt lat="49.92633" lon="1.10689">
        <ele>71.2</ele>
        <time>2020-06-18T13:18:42Z</time>
      </trkpt>
      <trkpt lat="49.92636" lon="1.10693">
        <ele>71.2</ele>
        <time>2020-06-18T13:18:43Z</time>
      </trkpt>
      <trkpt lat="49.9264" lon="1.10699">
        <ele>71.1</ele>
        <time>2020-06-18T13:18:44Z</time>
      </trkpt>
      <trkpt lat="49.92644" lon="1.10703">
        <ele>71.1</ele>
        <time>2020-06-18T13:18:45Z</time>
      </trkpt>
      <trkpt lat="49.92649" lon="1.10708">
        <ele>71.1</ele>
        <time>2020-06-18T13:18:46Z</time>
      </trkpt>
      <trkpt lat="49.92653" lon="1.10713">
        <ele>71</ele>
        <time>2020-06-18T13:18:47Z</time>
      </trkpt>
      <trkpt lat="49.92657" lon="1.10718">
        <ele>70.9</ele>
        <time>2020-06-18T13:18:48Z</time>
      </trkpt>
      <trkpt lat="49.9266" lon="1.10724">
        <ele>70.9</ele>
        <time>2020-06-18T13:18:49Z</time>
      </trkpt>
      <trkpt lat="49.92664" lon="1.10729">
        <ele>70.8</ele>
        <time>2020-06-18T13:18:50Z</time>
      </trkpt>
      <trkpt lat="49.92668" lon="1.10734">
        <ele>70.8</ele>
        <time>2020-06-18T13:18:51Z</time>
      </trkpt>
      <trkpt lat="49.92672" lon="1.10739">
        <ele>70.7</ele>
        <time>2020-06-18T13:18:52Z</time>
      </trkpt>
      <trkpt lat="49.92675" lon="1.10744">
        <ele>70.7</ele>
        <time>2020-06-18T13:18:53Z</time>
      </trkpt>
      <trkpt lat="49.92678" lon="1.10749">
        <ele>70.7</ele>
        <time>2020-06-18T13:18:54Z</time>
      </trkpt>
      <trkpt lat="49.92681" lon="1.10753">
        <ele>70.6</ele>
        <time>2020-06-18T13:18:55Z</time>
      </trkpt>
      <trkpt lat="49.92684" lon="1.10758">
        <ele>70.6</ele>
        <time>2020-06-18T13:18:56Z</time>
      </trkpt>
      <trkpt lat="49.92688" lon="1.10762">
        <ele>70.6</ele>
        <time>2020-06-18T13:18:57Z</time>
      </trkpt>
      <trkpt lat="49.92691" lon="1.10767">
        <ele>70.5</ele>
        <time>2020-06-18T13:18:58Z</time>
      </trkpt>
      <trkpt lat="49.92694" lon="1.10771">
        <ele>70.5</ele>
        <time>2020-06-18T13:18:59Z</time>
      </trkpt>
      <trkpt lat="49.92698" lon="1.10774">
        <ele>70.5</ele>
        <time>2020-06-18T13:19:00Z</time>
      </trkpt>
      <trkpt lat="49.92702" lon="1.10779">
        <ele>70.5</ele>
        <time>2020-06-18T13:19:01Z</time>
      </trkpt>
      <trkpt lat="49.92707" lon="1.10783">
        <ele>70.5</ele>
        <time>2020-06-18T13:19:02Z</time>
      </trkpt>
      <trkpt lat="49.92711" lon="1.10785">
        <ele>70.5</ele>
        <time>2020-06-18T13:19:03Z</time>
      </trkpt>
      <trkpt lat="49.92716" lon="1.10787">
        <ele>70.4</ele>
        <time>2020-06-18T13:19:04Z</time>
      </trkpt>
      <trkpt lat="49.9272" lon="1.10789">
        <ele>70.4</ele>
        <time>2020-06-18T13:19:05Z</time>
      </trkpt>
      <trkpt lat="49.92723" lon="1.10791">
        <ele>70.4</ele>
        <time>2020-06-18T13:19:06Z</time>
      </trkpt>
      <trkpt lat="49.92728" lon="1.10793">
        <ele>70.4</ele>
        <time>2020-06-18T13:19:07Z</time>
      </trkpt>
      <trkpt lat="49.92732" lon="1.10795">
        <ele>70.4</ele>
        <time>2020-06-18T13:19:08Z</time>
      </trkpt>
      <trkpt lat="49.92737" lon="1.10798">
        <ele>70.4</ele>
        <time>2020-06-18T13:19:09Z</time>
      </trkpt>
      <trkpt lat="49.92741" lon="1.10802">
        <ele>70.4</ele>
        <time>2020-06-18T13:19:10Z</time>
      </trkpt>
      <trkpt lat="49.92746" lon="1.10805">
        <ele>70.4</ele>
        <time>2020-06-18T13:19:11Z</time>
      </trkpt>
      <trkpt lat="49.92751" lon="1.10808">
        <ele>70.4</ele>
        <time>2020-06-18T13:19:12Z</time>
      </trkpt>
      <trkpt lat="49.92756" lon="1.10811">
        <ele>70.4</ele>
        <time>2020-06-18T13:19:13Z</time>
      </trkpt>
      <trkpt lat="49.92761" lon="1.10813">
        <ele>70.3</ele>
        <time>2020-06-18T13:19:14Z</time>
      </trkpt>
      <trkpt lat="49.92766" lon="1.10816">
        <ele>70.3</ele>
        <time>2020-06-18T13:19:15Z</time>
      </trkpt>
      <trkpt lat="49.92771" lon="1.10819">
        <ele>70.3</ele>
        <time>2020-06-18T13:19:16Z</time>
      </trkpt>
      <trkpt lat="49.92775" lon="1.10824">
        <ele>70.2</ele>
        <time>2020-06-18T13:19:17Z</time>
      </trkpt>
      <trkpt lat="49.9278" lon="1.10827">
        <ele>70.1</ele>
        <time>2020-06-18T13:19:18Z</time>
      </trkpt>
      <trkpt lat="49.92785" lon="1.10831">
        <ele>70.1</ele>
        <time>2020-06-18T13:19:19Z</time>
      </trkpt>
      <trkpt lat="49.9279" lon="1.10834">
        <ele>70</ele>
        <time>2020-06-18T13:19:20Z</time>
      </trkpt>
      <trkpt lat="49.92796" lon="1.10838">
        <ele>69.9</ele>
        <time>2020-06-18T13:19:21Z</time>
      </trkpt>
      <trkpt lat="49.92801" lon="1.1084">
        <ele>69.8</ele>
        <time>2020-06-18T13:19:22Z</time>
      </trkpt>
      <trkpt lat="49.92806" lon="1.10844">
        <ele>69.6</ele>
        <time>2020-06-18T13:19:23Z</time>
      </trkpt>
      <trkpt lat="49.92811" lon="1.10849">
        <ele>69.5</ele>
        <time>2020-06-18T13:19:24Z</time>
      </trkpt>
      <trkpt lat="49.92816" lon="1.10852">
        <ele>69.3</ele>
        <time>2020-06-18T13:19:25Z</time>
      </trkpt>
      <trkpt lat="49.92821" lon="1.10856">
        <ele>69.2</ele>
        <time>2020-06-18T13:19:26Z</time>
      </trkpt>
      <trkpt lat="49.92826" lon="1.10859">
        <ele>69.1</ele>
        <time>2020-06-18T13:19:27Z</time>
      </trkpt>
      <trkpt lat="49.92831" lon="1.10863">
        <ele>68.9</ele>
        <time>2020-06-18T13:19:28Z</time>
      </trkpt>
      <trkpt lat="49.92836" lon="1.10866">
        <ele>68.8</ele>
        <time>2020-06-18T13:19:29Z</time>
      </trkpt>
      <trkpt lat="49.92842" lon="1.10869">
        <ele>68.7</ele>
        <time>2020-06-18T13:19:30Z</time>
      </trkpt>
      <trkpt lat="49.92848" lon="1.10872">
        <ele>68.6</ele>
        <time>2020-06-18T13:19:31Z</time>
      </trkpt>
      <trkpt lat="49.92855" lon="1.10876">
        <ele>68.6</ele>
        <time>2020-06-18T13:19:32Z</time>
      </trkpt>
      <trkpt lat="49.92861" lon="1.1088">
        <ele>68.6</ele>
        <time>2020-06-18T13:19:33Z</time>
      </trkpt>
      <trkpt lat="49.92866" lon="1.10883">
        <ele>68.6</ele>
        <time>2020-06-18T13:19:34Z</time>
      </trkpt>
      <trkpt lat="49.92869" lon="1.10887">
        <ele>68.6</ele>
        <time>2020-06-18T13:19:35Z</time>
      </trkpt>
      <trkpt lat="49.92874" lon="1.1089">
        <ele>68.6</ele>
        <time>2020-06-18T13:19:36Z</time>
      </trkpt>
      <trkpt lat="49.92879" lon="1.10894">
        <ele>68.6</ele>
        <time>2020-06-18T13:19:37Z</time>
      </trkpt>
      <trkpt lat="49.92884" lon="1.10897">
        <ele>68.6</ele>
        <time>2020-06-18T13:19:38Z</time>
      </trkpt>
      <trkpt lat="49.92889" lon="1.109">
        <ele>68.6</ele>
        <time>2020-06-18T13:19:39Z</time>
      </trkpt>
      <trkpt lat="49.92894" lon="1.10903">
        <ele>68.6</ele>
        <time>2020-06-18T13:19:40Z</time>
      </trkpt>
      <trkpt lat="49.92899" lon="1.10907">
        <ele>68.6</ele>
        <time>2020-06-18T13:19:41Z</time>
      </trkpt>
      <trkpt lat="49.92904" lon="1.10911">
        <ele>68.6</ele>
        <time>2020-06-18T13:19:42Z</time>
      </trkpt>
      <trkpt lat="49.9291" lon="1.10914">
        <ele>68.6</ele>
        <time>2020-06-18T13:19:43Z</time>
      </trkpt>
      <trkpt lat="49.92915" lon="1.10918">
        <ele>68.6</ele>
        <time>2020-06-18T13:19:44Z</time>
      </trkpt>
      <trkpt lat="49.9292" lon="1.10923">
        <ele>68.6</ele>
        <time>2020-06-18T13:19:45Z</time>
      </trkpt>
      <trkpt lat="49.92925" lon="1.10927">
        <ele>68.6</ele>
        <time>2020-06-18T13:19:46Z</time>
      </trkpt>
      <trkpt lat="49.92929" lon="1.1093">
        <ele>68.7</ele>
        <time>2020-06-18T13:19:47Z</time>
      </trkpt>
      <trkpt lat="49.92934" lon="1.10935">
        <ele>68.7</ele>
        <time>2020-06-18T13:19:48Z</time>
      </trkpt>
      <trkpt lat="49.92938" lon="1.10939">
        <ele>68.6</ele>
        <time>2020-06-18T13:19:49Z</time>
      </trkpt>
      <trkpt lat="49.92943" lon="1.10943">
        <ele>68.6</ele>
        <time>2020-06-18T13:19:50Z</time>
      </trkpt>
      <trkpt lat="49.92948" lon="1.10947">
        <ele>68.6</ele>
        <time>2020-06-18T13:19:51Z</time>
      </trkpt>
      <trkpt lat="49.92953" lon="1.10951">
        <ele>68.6</ele>
        <time>2020-06-18T13:19:52Z</time>
      </trkpt>
      <trkpt lat="49.92958" lon="1.10955">
        <ele>68.5</ele>
        <time>2020-06-18T13:19:53Z</time>
      </trkpt>
      <trkpt lat="49.92962" lon="1.1096">
        <ele>68.5</ele>
        <time>2020-06-18T13:19:54Z</time>
      </trkpt>
      <trkpt lat="49.92966" lon="1.10963">
        <ele>68.5</ele>
        <time>2020-06-18T13:19:55Z</time>
      </trkpt>
      <trkpt lat="49.92971" lon="1.10968">
        <ele>68.5</ele>
        <time>2020-06-18T13:19:56Z</time>
      </trkpt>
      <trkpt lat="49.92976" lon="1.10973">
        <ele>68.5</ele>
        <time>2020-06-18T13:19:57Z</time>
      </trkpt>
      <trkpt lat="49.92981" lon="1.10978">
        <ele>68.4</ele>
        <time>2020-06-18T13:19:58Z</time>
      </trkpt>
      <trkpt lat="49.92986" lon="1.10984">
        <ele>68.4</ele>
        <time>2020-06-18T13:19:59Z</time>
      </trkpt>
      <trkpt lat="49.92991" lon="1.10989">
        <ele>68.4</ele>
        <time>2020-06-18T13:20:00Z</time>
      </trkpt>
      <trkpt lat="49.92996" lon="1.10993">
        <ele>68.4</ele>
        <time>2020-06-18T13:20:01Z</time>
      </trkpt>
      <trkpt lat="49.93001" lon="1.10997">
        <ele>68.4</ele>
        <time>2020-06-18T13:20:02Z</time>
      </trkpt>
      <trkpt lat="49.93005" lon="1.11002">
        <ele>68.4</ele>
        <time>2020-06-18T13:20:03Z</time>
      </trkpt>
      <trkpt lat="49.9301" lon="1.11007">
        <ele>68.4</ele>
        <time>2020-06-18T13:20:04Z</time>
      </trkpt>
      <trkpt lat="49.93015" lon="1.11012">
        <ele>68.4</ele>
        <time>2020-06-18T13:20:05Z</time>
      </trkpt>
      <trkpt lat="49.93019" lon="1.11017">
        <ele>68.4</ele>
        <time>2020-06-18T13:20:06Z</time>
      </trkpt>
      <trkpt lat="49.93024" lon="1.11021">
        <ele>68.4</ele>
        <time>2020-06-18T13:20:07Z</time>
      </trkpt>
      <trkpt lat="49.93028" lon="1.11026">
        <ele>68.4</ele>
        <time>2020-06-18T13:20:08Z</time>
      </trkpt>
      <trkpt lat="49.93032" lon="1.1103">
        <ele>68.4</ele>
        <time>2020-06-18T13:20:09Z</time>
      </trkpt>
      <trkpt lat="49.93036" lon="1.11034">
        <ele>68.4</ele>
        <time>2020-06-18T13:20:10Z</time>
      </trkpt>
      <trkpt lat="49.93039" lon="1.11039">
        <ele>68.4</ele>
        <time>2020-06-18T13:20:11Z</time>
      </trkpt>
      <trkpt lat="49.93042" lon="1.11043">
        <ele>68.4</ele>
        <time>2020-06-18T13:20:12Z</time>
      </trkpt>
      <trkpt lat="49.93045" lon="1.11049">
        <ele>68.4</ele>
        <time>2020-06-18T13:20:13Z</time>
      </trkpt>
      <trkpt lat="49.93045" lon="1.11055">
        <ele>68.4</ele>
        <time>2020-06-18T13:20:14Z</time>
      </trkpt>
      <trkpt lat="49.93045" lon="1.11061">
        <ele>68.3</ele>
        <time>2020-06-18T13:20:15Z</time>
      </trkpt>
      <trkpt lat="49.93045" lon="1.11066">
        <ele>68.3</ele>
        <time>2020-06-18T13:20:16Z</time>
      </trkpt>
      <trkpt lat="49.93047" lon="1.1107">
        <ele>68.3</ele>
        <time>2020-06-18T13:20:17Z</time>
      </trkpt>
      <trkpt lat="49.93048" lon="1.11074">
        <ele>68.3</ele>
        <time>2020-06-18T13:20:18Z</time>
      </trkpt>
      <trkpt lat="49.93051" lon="1.11074">
        <ele>68.2</ele>
        <time>2020-06-18T13:20:19Z</time>
      </trkpt>
      <trkpt lat="49.93053" lon="1.11073">
        <ele>68.2</ele>
        <time>2020-06-18T13:20:20Z</time>
      </trkpt>
      <trkpt lat="49.93056" lon="1.11075">
        <ele>68.2</ele>
        <time>2020-06-18T13:20:21Z</time>
      </trkpt>
      <trkpt lat="49.93059" lon="1.11078">
        <ele>68.2</ele>
        <time>2020-06-18T13:20:22Z</time>
      </trkpt>
      <trkpt lat="49.93063" lon="1.11082">
        <ele>68.2</ele>
        <time>2020-06-18T13:20:23Z</time>
      </trkpt>
      <trkpt lat="49.93067" lon="1.11086">
        <ele>68.2</ele>
        <time>2020-06-18T13:20:24Z</time>
      </trkpt>
      <trkpt lat="49.9307" lon="1.1109">
        <ele>68.2</ele>
        <time>2020-06-18T13:20:25Z</time>
      </trkpt>
      <trkpt lat="49.93074" lon="1.11094">
        <ele>68.2</ele>
        <time>2020-06-18T13:20:26Z</time>
      </trkpt>
      <trkpt lat="49.93078" lon="1.11099">
        <ele>68.2</ele>
        <time>2020-06-18T13:20:27Z</time>
      </trkpt>
      <trkpt lat="49.93082" lon="1.11104">
        <ele>68.2</ele>
        <time>2020-06-18T13:20:28Z</time>
      </trkpt>
      <trkpt lat="49.93086" lon="1.11109">
        <ele>68.2</ele>
        <time>2020-06-18T13:20:29Z</time>
      </trkpt>
      <trkpt lat="49.93091" lon="1.11114">
        <ele>68.2</ele>
        <time>2020-06-18T13:20:30Z</time>
      </trkpt>
      <trkpt lat="49.93095" lon="1.11119">
        <ele>68.3</ele>
        <time>2020-06-18T13:20:31Z</time>
      </trkpt>
      <trkpt lat="49.93099" lon="1.11125">
        <ele>68.3</ele>
        <time>2020-06-18T13:20:32Z</time>
      </trkpt>
      <trkpt lat="49.93103" lon="1.1113">
        <ele>68.4</ele>
        <time>2020-06-18T13:20:33Z</time>
      </trkpt>
      <trkpt lat="49.93107" lon="1.11136">
        <ele>68.4</ele>
        <time>2020-06-18T13:20:34Z</time>
      </trkpt>
      <trkpt lat="49.93111" lon="1.11141">
        <ele>68.5</ele>
        <time>2020-06-18T13:20:35Z</time>
      </trkpt>
      <trkpt lat="49.93115" lon="1.11146">
        <ele>68.5</ele>
        <time>2020-06-18T13:20:36Z</time>
      </trkpt>
      <trkpt lat="49.93118" lon="1.11151">
        <ele>68.5</ele>
        <time>2020-06-18T13:20:37Z</time>
      </trkpt>
      <trkpt lat="49.93121" lon="1.11156">
        <ele>68.5</ele>
        <time>2020-06-18T13:20:38Z</time>
      </trkpt>
      <trkpt lat="49.93124" lon="1.11161">
        <ele>68.5</ele>
        <time>2020-06-18T13:20:39Z</time>
      </trkpt>
      <trkpt lat="49.93126" lon="1.11165">
        <ele>68.5</ele>
        <time>2020-06-18T13:20:40Z</time>
      </trkpt>
      <trkpt lat="49.93128" lon="1.11169">
        <ele>68.5</ele>
        <time>2020-06-18T13:20:41Z</time>
      </trkpt>
      <trkpt lat="49.93131" lon="1.11171">
        <ele>68.5</ele>
        <time>2020-06-18T13:20:42Z</time>
      </trkpt>
      <trkpt lat="49.93132" lon="1.11171">
        <ele>68.5</ele>
        <time>2020-06-18T13:20:43Z</time>
      </trkpt>
      <trkpt lat="49.93135" lon="1.11173">
        <ele>68.5</ele>
        <time>2020-06-18T13:20:44Z</time>
      </trkpt>
      <trkpt lat="49.93137" lon="1.11176">
        <ele>68.5</ele>
        <time>2020-06-18T13:20:45Z</time>
      </trkpt>
      <trkpt lat="49.93139" lon="1.11181">
        <ele>68.5</ele>
        <time>2020-06-18T13:20:46Z</time>
      </trkpt>
      <trkpt lat="49.93141" lon="1.11188">
        <ele>68.5</ele>
        <time>2020-06-18T13:20:47Z</time>
      </trkpt>
      <trkpt lat="49.93142" lon="1.11195">
        <ele>68.5</ele>
        <time>2020-06-18T13:20:48Z</time>
      </trkpt>
      <trkpt lat="49.93144" lon="1.11202">
        <ele>68.1</ele>
        <time>2020-06-18T13:20:49Z</time>
      </trkpt>
      <trkpt lat="49.93148" lon="1.11208">
        <ele>68.2</ele>
        <time>2020-06-18T13:20:50Z</time>
      </trkpt>
      <trkpt lat="49.93152" lon="1.11213">
        <ele>68.2</ele>
        <time>2020-06-18T13:20:51Z</time>
      </trkpt>
      <trkpt lat="49.93156" lon="1.11217">
        <ele>68.5</ele>
        <time>2020-06-18T13:20:52Z</time>
      </trkpt>
      <trkpt lat="49.93161" lon="1.1122">
        <ele>68.6</ele>
        <time>2020-06-18T13:20:53Z</time>
      </trkpt>
      <trkpt lat="49.93166" lon="1.11225">
        <ele>68.6</ele>
        <time>2020-06-18T13:20:54Z</time>
      </trkpt>
      <trkpt lat="49.93169" lon="1.1123">
        <ele>68.5</ele>
        <time>2020-06-18T13:20:55Z</time>
      </trkpt>
      <trkpt lat="49.93173" lon="1.11235">
        <ele>68.5</ele>
        <time>2020-06-18T13:20:56Z</time>
      </trkpt>
      <trkpt lat="49.93177" lon="1.1124">
        <ele>68.4</ele>
        <time>2020-06-18T13:20:57Z</time>
      </trkpt>
      <trkpt lat="49.93181" lon="1.11245">
        <ele>68.3</ele>
        <time>2020-06-18T13:20:58Z</time>
      </trkpt>
      <trkpt lat="49.93183" lon="1.1125">
        <ele>68.2</ele>
        <time>2020-06-18T13:20:59Z</time>
      </trkpt>
      <trkpt lat="49.93187" lon="1.11255">
        <ele>68.1</ele>
        <time>2020-06-18T13:21:00Z</time>
      </trkpt>
      <trkpt lat="49.93192" lon="1.11261">
        <ele>67.9</ele>
        <time>2020-06-18T13:21:01Z</time>
      </trkpt>
      <trkpt lat="49.93197" lon="1.11268">
        <ele>67.8</ele>
        <time>2020-06-18T13:21:02Z</time>
      </trkpt>
      <trkpt lat="49.93202" lon="1.11274">
        <ele>67.7</ele>
        <time>2020-06-18T13:21:03Z</time>
      </trkpt>
      <trkpt lat="49.93206" lon="1.11281">
        <ele>67.6</ele>
        <time>2020-06-18T13:21:04Z</time>
      </trkpt>
      <trkpt lat="49.93211" lon="1.11287">
        <ele>67.5</ele>
        <time>2020-06-18T13:21:05Z</time>
      </trkpt>
      <trkpt lat="49.93215" lon="1.11293">
        <ele>67.3</ele>
        <time>2020-06-18T13:21:06Z</time>
      </trkpt>
      <trkpt lat="49.9322" lon="1.11298">
        <ele>67.2</ele>
        <time>2020-06-18T13:21:07Z</time>
      </trkpt>
      <trkpt lat="49.93224" lon="1.11305">
        <ele>67.1</ele>
        <time>2020-06-18T13:21:08Z</time>
      </trkpt>
      <trkpt lat="49.93229" lon="1.11311">
        <ele>67</ele>
        <time>2020-06-18T13:21:09Z</time>
      </trkpt>
      <trkpt lat="49.93233" lon="1.11318">
        <ele>66.8</ele>
        <time>2020-06-18T13:21:10Z</time>
      </trkpt>
      <trkpt lat="49.93238" lon="1.11324">
        <ele>66.7</ele>
        <time>2020-06-18T13:21:11Z</time>
      </trkpt>
      <trkpt lat="49.93242" lon="1.1133">
        <ele>66.5</ele>
        <time>2020-06-18T13:21:12Z</time>
      </trkpt>
      <trkpt lat="49.93248" lon="1.11337">
        <ele>66.3</ele>
        <time>2020-06-18T13:21:13Z</time>
      </trkpt>
      <trkpt lat="49.93253" lon="1.11344">
        <ele>66.1</ele>
        <time>2020-06-18T13:21:14Z</time>
      </trkpt>
      <trkpt lat="49.93258" lon="1.1135">
        <ele>65.8</ele>
        <time>2020-06-18T13:21:15Z</time>
      </trkpt>
      <trkpt lat="49.93263" lon="1.11357">
        <ele>65.6</ele>
        <time>2020-06-18T13:21:16Z</time>
      </trkpt>
      <trkpt lat="49.93268" lon="1.11363">
        <ele>65.3</ele>
        <time>2020-06-18T13:21:17Z</time>
      </trkpt>
      <trkpt lat="49.93273" lon="1.11369">
        <ele>65.1</ele>
        <time>2020-06-18T13:21:18Z</time>
      </trkpt>
      <trkpt lat="49.93278" lon="1.11375">
        <ele>64.8</ele>
        <time>2020-06-18T13:21:19Z</time>
      </trkpt>
      <trkpt lat="49.93284" lon="1.11382">
        <ele>64.5</ele>
        <time>2020-06-18T13:21:20Z</time>
      </trkpt>
      <trkpt lat="49.93289" lon="1.11388">
        <ele>64.2</ele>
        <time>2020-06-18T13:21:21Z</time>
      </trkpt>
      <trkpt lat="49.93295" lon="1.11394">
        <ele>63.9</ele>
        <time>2020-06-18T13:21:22Z</time>
      </trkpt>
      <trkpt lat="49.93301" lon="1.114">
        <ele>63.6</ele>
        <time>2020-06-18T13:21:23Z</time>
      </trkpt>
      <trkpt lat="49.93307" lon="1.11405">
        <ele>63.3</ele>
        <time>2020-06-18T13:21:24Z</time>
      </trkpt>
      <trkpt lat="49.93313" lon="1.11414">
        <ele>62.9</ele>
        <time>2020-06-18T13:21:25Z</time>
      </trkpt>
      <trkpt lat="49.9332" lon="1.1142">
        <ele>62.6</ele>
        <time>2020-06-18T13:21:26Z</time>
      </trkpt>
      <trkpt lat="49.93326" lon="1.11427">
        <ele>62.2</ele>
        <time>2020-06-18T13:21:27Z</time>
      </trkpt>
      <trkpt lat="49.93333" lon="1.11433">
        <ele>61.8</ele>
        <time>2020-06-18T13:21:28Z</time>
      </trkpt>
      <trkpt lat="49.93338" lon="1.1144">
        <ele>61.5</ele>
        <time>2020-06-18T13:21:29Z</time>
      </trkpt>
      <trkpt lat="49.93344" lon="1.11447">
        <ele>61.1</ele>
        <time>2020-06-18T13:21:30Z</time>
      </trkpt>
      <trkpt lat="49.93349" lon="1.11455">
        <ele>60.8</ele>
        <time>2020-06-18T13:21:31Z</time>
      </trkpt>
      <trkpt lat="49.93355" lon="1.11461">
        <ele>60.4</ele>
        <time>2020-06-18T13:21:32Z</time>
      </trkpt>
      <trkpt lat="49.9336" lon="1.11469">
        <ele>60</ele>
        <time>2020-06-18T13:21:33Z</time>
      </trkpt>
      <trkpt lat="49.93365" lon="1.11477">
        <ele>59.5</ele>
        <time>2020-06-18T13:21:34Z</time>
      </trkpt>
      <trkpt lat="49.93369" lon="1.11485">
        <ele>59.1</ele>
        <time>2020-06-18T13:21:35Z</time>
      </trkpt>
      <trkpt lat="49.93372" lon="1.11494">
        <ele>58.7</ele>
        <time>2020-06-18T13:21:36Z</time>
      </trkpt>
      <trkpt lat="49.93375" lon="1.11501">
        <ele>58.4</ele>
        <time>2020-06-18T13:21:37Z</time>
      </trkpt>
      <trkpt lat="49.93378" lon="1.11509">
        <ele>58</ele>
        <time>2020-06-18T13:21:38Z</time>
      </trkpt>
      <trkpt lat="49.9338" lon="1.11517">
        <ele>57.7</ele>
        <time>2020-06-18T13:21:39Z</time>
      </trkpt>
      <trkpt lat="49.93382" lon="1.11525">
        <ele>57.3</ele>
        <time>2020-06-18T13:21:40Z</time>
      </trkpt>
      <trkpt lat="49.93384" lon="1.11533">
        <ele>56.8</ele>
        <time>2020-06-18T13:21:41Z</time>
      </trkpt>
      <trkpt lat="49.93387" lon="1.11541">
        <ele>56.3</ele>
        <time>2020-06-18T13:21:42Z</time>
      </trkpt>
      <trkpt lat="49.9339" lon="1.1155">
        <ele>55.8</ele>
        <time>2020-06-18T13:21:43Z</time>
      </trkpt>
      <trkpt lat="49.93393" lon="1.11558">
        <ele>55.2</ele>
        <time>2020-06-18T13:21:44Z</time>
      </trkpt>
      <trkpt lat="49.93397" lon="1.11566">
        <ele>54.5</ele>
        <time>2020-06-18T13:21:45Z</time>
      </trkpt>
      <trkpt lat="49.93401" lon="1.11573">
        <ele>53.7</ele>
        <time>2020-06-18T13:21:46Z</time>
      </trkpt>
      <trkpt lat="49.93406" lon="1.1158">
        <ele>52.8</ele>
        <time>2020-06-18T13:21:47Z</time>
      </trkpt>
      <trkpt lat="49.9341" lon="1.11587">
        <ele>51.9</ele>
        <time>2020-06-18T13:21:48Z</time>
      </trkpt>
      <trkpt lat="49.93415" lon="1.11594">
        <ele>51.1</ele>
        <time>2020-06-18T13:21:49Z</time>
      </trkpt>
      <trkpt lat="49.9342" lon="1.11599">
        <ele>50.3</ele>
        <time>2020-06-18T13:21:50Z</time>
      </trkpt>
      <trkpt lat="49.93425" lon="1.11605">
        <ele>49.5</ele>
        <time>2020-06-18T13:21:51Z</time>
      </trkpt>
      <trkpt lat="49.9343" lon="1.11611">
        <ele>48.8</ele>
        <time>2020-06-18T13:21:52Z</time>
      </trkpt>
      <trkpt lat="49.93435" lon="1.11617">
        <ele>48.2</ele>
        <time>2020-06-18T13:21:53Z</time>
      </trkpt>
      <trkpt lat="49.93439" lon="1.11624">
        <ele>47.7</ele>
        <time>2020-06-18T13:21:54Z</time>
      </trkpt>
      <trkpt lat="49.93443" lon="1.11631">
        <ele>47.3</ele>
        <time>2020-06-18T13:21:55Z</time>
      </trkpt>
      <trkpt lat="49.93447" lon="1.11637">
        <ele>46.9</ele>
        <time>2020-06-18T13:21:56Z</time>
      </trkpt>
      <trkpt lat="49.9345" lon="1.11643">
        <ele>46.6</ele>
        <time>2020-06-18T13:21:57Z</time>
      </trkpt>
      <trkpt lat="49.93453" lon="1.11649">
        <ele>46.3</ele>
        <time>2020-06-18T13:21:58Z</time>
      </trkpt>
      <trkpt lat="49.93455" lon="1.11654">
        <ele>46.1</ele>
        <time>2020-06-18T13:21:59Z</time>
      </trkpt>
      <trkpt lat="49.93458" lon="1.11657">
        <ele>45.8</ele>
        <time>2020-06-18T13:22:00Z</time>
      </trkpt>
      <trkpt lat="49.93461" lon="1.1166">
        <ele>45.7</ele>
        <time>2020-06-18T13:22:01Z</time>
      </trkpt>
      <trkpt lat="49.93463" lon="1.11664">
        <ele>45.5</ele>
        <time>2020-06-18T13:22:02Z</time>
      </trkpt>
      <trkpt lat="49.93466" lon="1.11667">
        <ele>45.3</ele>
        <time>2020-06-18T13:22:03Z</time>
      </trkpt>
      <trkpt lat="49.93468" lon="1.11671">
        <ele>45</ele>
        <time>2020-06-18T13:22:04Z</time>
      </trkpt>
      <trkpt lat="49.93471" lon="1.11675">
        <ele>44.8</ele>
        <time>2020-06-18T13:22:05Z</time>
      </trkpt>
      <trkpt lat="49.93474" lon="1.11676">
        <ele>44.5</ele>
        <time>2020-06-18T13:22:06Z</time>
      </trkpt>
      <trkpt lat="49.93477" lon="1.11677">
        <ele>44.2</ele>
        <time>2020-06-18T13:22:07Z</time>
      </trkpt>
      <trkpt lat="49.93478" lon="1.11678">
        <ele>44.1</ele>
        <time>2020-06-18T13:22:08Z</time>
      </trkpt>
      <trkpt lat="49.93481" lon="1.11678">
        <ele>43.8</ele>
        <time>2020-06-18T13:22:09Z</time>
      </trkpt>
      <trkpt lat="49.93482" lon="1.11678">
        <ele>43.7</ele>
        <time>2020-06-18T13:22:10Z</time>
      </trkpt>
      <trkpt lat="49.93484" lon="1.11679">
        <ele>43.5</ele>
        <time>2020-06-18T13:22:11Z</time>
      </trkpt>
      <trkpt lat="49.93485" lon="1.1168">
        <ele>43.3</ele>
        <time>2020-06-18T13:22:12Z</time>
      </trkpt>
      <trkpt lat="49.93487" lon="1.11681">
        <ele>43.1</ele>
        <time>2020-06-18T13:22:13Z</time>
      </trkpt>
      <trkpt lat="49.93489" lon="1.1168">
        <ele>42.8</ele>
        <time>2020-06-18T13:22:14Z</time>
      </trkpt>
      <trkpt lat="49.93492" lon="1.11679">
        <ele>42.3</ele>
        <time>2020-06-18T13:22:15Z</time>
      </trkpt>
      <trkpt lat="49.93493" lon="1.11678">
        <ele>42.1</ele>
        <time>2020-06-18T13:22:16Z</time>
      </trkpt>
      <trkpt lat="49.93497" lon="1.11676">
        <ele>41.6</ele>
        <time>2020-06-18T13:22:17Z</time>
      </trkpt>
      <trkpt lat="49.93497" lon="1.11676">
        <ele>41.4</ele>
        <time>2020-06-18T13:22:18Z</time>
      </trkpt>
      <trkpt lat="49.935" lon="1.11673">
        <ele>41</ele>
        <time>2020-06-18T13:22:19Z</time>
      </trkpt>
      <trkpt lat="49.93501" lon="1.11673">
        <ele>40.8</ele>
        <time>2020-06-18T13:22:20Z</time>
      </trkpt>
      <trkpt lat="49.93504" lon="1.11671">
        <ele>40.4</ele>
        <time>2020-06-18T13:22:21Z</time>
      </trkpt>
      <trkpt lat="49.93507" lon="1.1167">
        <ele>39.9</ele>
        <time>2020-06-18T13:22:22Z</time>
      </trkpt>
      <trkpt lat="49.9351" lon="1.11668">
        <ele>39.4</ele>
        <time>2020-06-18T13:22:23Z</time>
      </trkpt>
      <trkpt lat="49.93513" lon="1.11668">
        <ele>39</ele>
        <time>2020-06-18T13:22:24Z</time>
      </trkpt>
      <trkpt lat="49.93516" lon="1.11668">
        <ele>38.6</ele>
        <time>2020-06-18T13:22:25Z</time>
      </trkpt>
      <trkpt lat="49.93519" lon="1.11668">
        <ele>38.1</ele>
        <time>2020-06-18T13:22:26Z</time>
      </trkpt>
      <trkpt lat="49.9352" lon="1.11667">
        <ele>37.9</ele>
        <time>2020-06-18T13:22:27Z</time>
      </trkpt>
      <trkpt lat="49.93523" lon="1.11666">
        <ele>37.5</ele>
        <time>2020-06-18T13:22:28Z</time>
      </trkpt>
      <trkpt lat="49.93526" lon="1.11665">
        <ele>37.1</ele>
        <time>2020-06-18T13:22:29Z</time>
      </trkpt>
      <trkpt lat="49.9353" lon="1.11664">
        <ele>36.6</ele>
        <time>2020-06-18T13:22:30Z</time>
      </trkpt>
      <trkpt lat="49.93532" lon="1.11663">
        <ele>36.4</ele>
        <time>2020-06-18T13:22:31Z</time>
      </trkpt>
      <trkpt lat="49.93535" lon="1.11662">
        <ele>36</ele>
        <time>2020-06-18T13:22:32Z</time>
      </trkpt>
      <trkpt lat="49.93536" lon="1.11662">
        <ele>35.9</ele>
        <time>2020-06-18T13:22:33Z</time>
      </trkpt>
      <trkpt lat="49.93539" lon="1.11661">
        <ele>35.4</ele>
        <time>2020-06-18T13:22:34Z</time>
      </trkpt>
      <trkpt lat="49.93541" lon="1.11661">
        <ele>35.3</ele>
        <time>2020-06-18T13:22:35Z</time>
      </trkpt>
      <trkpt lat="49.93544" lon="1.11662">
        <ele>34.8</ele>
        <time>2020-06-18T13:22:36Z</time>
      </trkpt>
      <trkpt lat="49.93546" lon="1.11663">
        <ele>34.6</ele>
        <time>2020-06-18T13:22:37Z</time>
      </trkpt>
      <trkpt lat="49.93548" lon="1.11666">
        <ele>34.2</ele>
        <time>2020-06-18T13:22:38Z</time>
      </trkpt>
      <trkpt lat="49.93551" lon="1.1167">
        <ele>33.8</ele>
        <time>2020-06-18T13:22:39Z</time>
      </trkpt>
      <trkpt lat="49.93554" lon="1.11675">
        <ele>30</ele>
        <time>2020-06-18T13:22:40Z</time>
      </trkpt>
      <trkpt lat="49.93557" lon="1.11683">
        <ele>29.9</ele>
        <time>2020-06-18T13:22:41Z</time>
      </trkpt>
      <trkpt lat="49.9356" lon="1.1169">
        <ele>29.7</ele>
        <time>2020-06-18T13:22:42Z</time>
      </trkpt>
      <trkpt lat="49.93561" lon="1.11697">
        <ele>29.5</ele>
        <time>2020-06-18T13:22:43Z</time>
      </trkpt>
      <trkpt lat="49.93562" lon="1.11704">
        <ele>29.3</ele>
        <time>2020-06-18T13:22:44Z</time>
      </trkpt>
      <trkpt lat="49.93563" lon="1.11711">
        <ele>29.1</ele>
        <time>2020-06-18T13:22:45Z</time>
      </trkpt>
      <trkpt lat="49.93566" lon="1.11718">
        <ele>28.9</ele>
        <time>2020-06-18T13:22:46Z</time>
      </trkpt>
      <trkpt lat="49.93568" lon="1.11725">
        <ele>28.6</ele>
        <time>2020-06-18T13:22:47Z</time>
      </trkpt>
      <trkpt lat="49.9357" lon="1.11733">
        <ele>28.4</ele>
        <time>2020-06-18T13:22:48Z</time>
      </trkpt>
      <trkpt lat="49.93572" lon="1.11741">
        <ele>28.1</ele>
        <time>2020-06-18T13:22:49Z</time>
      </trkpt>
      <trkpt lat="49.93573" lon="1.11749">
        <ele>27.9</ele>
        <time>2020-06-18T13:22:50Z</time>
      </trkpt>
      <trkpt lat="49.93575" lon="1.11757">
        <ele>27.6</ele>
        <time>2020-06-18T13:22:51Z</time>
      </trkpt>
      <trkpt lat="49.93577" lon="1.11766">
        <ele>27.3</ele>
        <time>2020-06-18T13:22:52Z</time>
      </trkpt>
      <trkpt lat="49.93581" lon="1.11776">
        <ele>27</ele>
        <time>2020-06-18T13:22:53Z</time>
      </trkpt>
      <trkpt lat="49.93584" lon="1.11783">
        <ele>26.7</ele>
        <time>2020-06-18T13:22:54Z</time>
      </trkpt>
      <trkpt lat="49.93588" lon="1.11789">
        <ele>26.5</ele>
        <time>2020-06-18T13:22:55Z</time>
      </trkpt>
      <trkpt lat="49.93592" lon="1.11795">
        <ele>26.3</ele>
        <time>2020-06-18T13:22:56Z</time>
      </trkpt>
      <trkpt lat="49.93597" lon="1.11799">
        <ele>26.1</ele>
        <time>2020-06-18T13:22:57Z</time>
      </trkpt>
      <trkpt lat="49.93603" lon="1.11804">
        <ele>25.8</ele>
        <time>2020-06-18T13:22:58Z</time>
      </trkpt>
      <trkpt lat="49.93609" lon="1.11808">
        <ele>25.6</ele>
        <time>2020-06-18T13:22:59Z</time>
      </trkpt>
      <trkpt lat="49.93614" lon="1.1181">
        <ele>25.3</ele>
        <time>2020-06-18T13:23:00Z</time>
      </trkpt>
      <trkpt lat="49.93619" lon="1.1181">
        <ele>25.2</ele>
        <time>2020-06-18T13:23:01Z</time>
      </trkpt>
      <trkpt lat="49.93625" lon="1.11811">
        <ele>24.9</ele>
        <time>2020-06-18T13:23:02Z</time>
      </trkpt>
      <trkpt lat="49.9363" lon="1.11811">
        <ele>24.7</ele>
        <time>2020-06-18T13:23:03Z</time>
      </trkpt>
      <trkpt lat="49.93636" lon="1.11813">
        <ele>24.5</ele>
        <time>2020-06-18T13:23:04Z</time>
      </trkpt>
      <trkpt lat="49.93641" lon="1.11813">
        <ele>24.3</ele>
        <time>2020-06-18T13:23:05Z</time>
      </trkpt>
      <trkpt lat="49.93647" lon="1.11813">
        <ele>24</ele>
        <time>2020-06-18T13:23:06Z</time>
      </trkpt>
      <trkpt lat="49.93653" lon="1.11813">
        <ele>23.8</ele>
        <time>2020-06-18T13:23:07Z</time>
      </trkpt>
      <trkpt lat="49.93659" lon="1.11813">
        <ele>23.5</ele>
        <time>2020-06-18T13:23:08Z</time>
      </trkpt>
      <trkpt lat="49.93664" lon="1.11814">
        <ele>23.3</ele>
        <time>2020-06-18T13:23:09Z</time>
      </trkpt>
      <trkpt lat="49.93669" lon="1.11815">
        <ele>23.1</ele>
        <time>2020-06-18T13:23:10Z</time>
      </trkpt>
      <trkpt lat="49.93674" lon="1.11816">
        <ele>22.9</ele>
        <time>2020-06-18T13:23:11Z</time>
      </trkpt>
      <trkpt lat="49.9368" lon="1.11817">
        <ele>22.7</ele>
        <time>2020-06-18T13:23:12Z</time>
      </trkpt>
      <trkpt lat="49.93687" lon="1.11818">
        <ele>22.4</ele>
        <time>2020-06-18T13:23:13Z</time>
      </trkpt>
      <trkpt lat="49.93693" lon="1.11818">
        <ele>22.3</ele>
        <time>2020-06-18T13:23:14Z</time>
      </trkpt>
      <trkpt lat="49.93699" lon="1.11819">
        <ele>22.1</ele>
        <time>2020-06-18T13:23:15Z</time>
      </trkpt>
      <trkpt lat="49.93704" lon="1.1182">
        <ele>22</ele>
        <time>2020-06-18T13:23:16Z</time>
      </trkpt>
      <trkpt lat="49.93709" lon="1.11821">
        <ele>21.8</ele>
        <time>2020-06-18T13:23:17Z</time>
      </trkpt>
      <trkpt lat="49.93714" lon="1.11824">
        <ele>21.7</ele>
        <time>2020-06-18T13:23:18Z</time>
      </trkpt>
      <trkpt lat="49.93719" lon="1.11828">
        <ele>21.7</ele>
        <time>2020-06-18T13:23:19Z</time>
      </trkpt>
      <trkpt lat="49.93724" lon="1.11833">
        <ele>21.6</ele>
        <time>2020-06-18T13:23:20Z</time>
      </trkpt>
      <trkpt lat="49.93728" lon="1.11838">
        <ele>21.4</ele>
        <time>2020-06-18T13:23:21Z</time>
      </trkpt>
      <trkpt lat="49.9373" lon="1.11845">
        <ele>21.4</ele>
        <time>2020-06-18T13:23:22Z</time>
      </trkpt>
      <trkpt lat="49.93732" lon="1.11851">
        <ele>21.4</ele>
        <time>2020-06-18T13:23:23Z</time>
      </trkpt>
      <trkpt lat="49.93734" lon="1.11857">
        <ele>21.4</ele>
        <time>2020-06-18T13:23:24Z</time>
      </trkpt>
      <trkpt lat="49.93736" lon="1.11863">
        <ele>21.4</ele>
        <time>2020-06-18T13:23:25Z</time>
      </trkpt>
      <trkpt lat="49.93738" lon="1.1187">
        <ele>21.4</ele>
        <time>2020-06-18T13:23:26Z</time>
      </trkpt>
      <trkpt lat="49.93739" lon="1.11877">
        <ele>21.4</ele>
        <time>2020-06-18T13:23:27Z</time>
      </trkpt>
      <trkpt lat="49.93741" lon="1.11884">
        <ele>21.5</ele>
        <time>2020-06-18T13:23:28Z</time>
      </trkpt>
      <trkpt lat="49.93742" lon="1.11893">
        <ele>21.5</ele>
        <time>2020-06-18T13:23:29Z</time>
      </trkpt>
      <trkpt lat="49.93744" lon="1.119">
        <ele>21.6</ele>
        <time>2020-06-18T13:23:30Z</time>
      </trkpt>
      <trkpt lat="49.93746" lon="1.11908">
        <ele>21.6</ele>
        <time>2020-06-18T13:23:31Z</time>
      </trkpt>
      <trkpt lat="49.93747" lon="1.11914">
        <ele>21.6</ele>
        <time>2020-06-18T13:23:32Z</time>
      </trkpt>
      <trkpt lat="49.93749" lon="1.11921">
        <ele>21.7</ele>
        <time>2020-06-18T13:23:33Z</time>
      </trkpt>
      <trkpt lat="49.9375" lon="1.11928">
        <ele>21.7</ele>
        <time>2020-06-18T13:23:34Z</time>
      </trkpt>
      <trkpt lat="49.93748" lon="1.11933">
        <ele>21.8</ele>
        <time>2020-06-18T13:23:35Z</time>
      </trkpt>
      <trkpt lat="49.93749" lon="1.1194">
        <ele>21.9</ele>
        <time>2020-06-18T13:23:36Z</time>
      </trkpt>
      <trkpt lat="49.9375" lon="1.11948">
        <ele>22</ele>
        <time>2020-06-18T13:23:37Z</time>
      </trkpt>
      <trkpt lat="49.93751" lon="1.11955">
        <ele>22</ele>
        <time>2020-06-18T13:23:38Z</time>
      </trkpt>
      <trkpt lat="49.93752" lon="1.11962">
        <ele>22.1</ele>
        <time>2020-06-18T13:23:39Z</time>
      </trkpt>
      <trkpt lat="49.93753" lon="1.11968">
        <ele>22.3</ele>
        <time>2020-06-18T13:23:40Z</time>
      </trkpt>
      <trkpt lat="49.93754" lon="1.11976">
        <ele>22.4</ele>
        <time>2020-06-18T13:23:41Z</time>
      </trkpt>
      <trkpt lat="49.93755" lon="1.11984">
        <ele>22.5</ele>
        <time>2020-06-18T13:23:42Z</time>
      </trkpt>
      <trkpt lat="49.93755" lon="1.11992">
        <ele>22.6</ele>
        <time>2020-06-18T13:23:43Z</time>
      </trkpt>
      <trkpt lat="49.93756" lon="1.11999">
        <ele>22.7</ele>
        <time>2020-06-18T13:23:44Z</time>
      </trkpt>
      <trkpt lat="49.93756" lon="1.12005">
        <ele>22.9</ele>
        <time>2020-06-18T13:23:45Z</time>
      </trkpt>
      <trkpt lat="49.93755" lon="1.12013">
        <ele>22.9</ele>
        <time>2020-06-18T13:23:46Z</time>
      </trkpt>
      <trkpt lat="49.93756" lon="1.1202">
        <ele>23</ele>
        <time>2020-06-18T13:23:47Z</time>
      </trkpt>
      <trkpt lat="49.93756" lon="1.12026">
        <ele>23.1</ele>
        <time>2020-06-18T13:23:48Z</time>
      </trkpt>
      <trkpt lat="49.93755" lon="1.12032">
        <ele>23.1</ele>
        <time>2020-06-18T13:23:49Z</time>
      </trkpt>
      <trkpt lat="49.93755" lon="1.12039">
        <ele>23.2</ele>
        <time>2020-06-18T13:23:50Z</time>
      </trkpt>
      <trkpt lat="49.93754" lon="1.12045">
        <ele>23.2</ele>
        <time>2020-06-18T13:23:51Z</time>
      </trkpt>
      <trkpt lat="49.93753" lon="1.12051">
        <ele>23.3</ele>
        <time>2020-06-18T13:23:52Z</time>
      </trkpt>
      <trkpt lat="49.93752" lon="1.12058">
        <ele>23.3</ele>
        <time>2020-06-18T13:23:53Z</time>
      </trkpt>
      <trkpt lat="49.93751" lon="1.12065">
        <ele>23.4</ele>
        <time>2020-06-18T13:23:54Z</time>
      </trkpt>
      <trkpt lat="49.9375" lon="1.12072">
        <ele>23.5</ele>
        <time>2020-06-18T13:23:55Z</time>
      </trkpt>
      <trkpt lat="49.9375" lon="1.12079">
        <ele>23.5</ele>
        <time>2020-06-18T13:23:56Z</time>
      </trkpt>
      <trkpt lat="49.93749" lon="1.12085">
        <ele>23.6</ele>
        <time>2020-06-18T13:23:57Z</time>
      </trkpt>
      <trkpt lat="49.93747" lon="1.12092">
        <ele>23.7</ele>
        <time>2020-06-18T13:23:58Z</time>
      </trkpt>
      <trkpt lat="49.93749" lon="1.12097">
        <ele>23.8</ele>
        <time>2020-06-18T13:23:59Z</time>
      </trkpt>
      <trkpt lat="49.93749" lon="1.12103">
        <ele>23.9</ele>
        <time>2020-06-18T13:24:00Z</time>
      </trkpt>
      <trkpt lat="49.93749" lon="1.1211">
        <ele>24</ele>
        <time>2020-06-18T13:24:01Z</time>
      </trkpt>
      <trkpt lat="49.93748" lon="1.12117">
        <ele>24.1</ele>
        <time>2020-06-18T13:24:02Z</time>
      </trkpt>
      <trkpt lat="49.93747" lon="1.12124">
        <ele>24.1</ele>
        <time>2020-06-18T13:24:03Z</time>
      </trkpt>
      <trkpt lat="49.93747" lon="1.1213">
        <ele>24.2</ele>
        <time>2020-06-18T13:24:04Z</time>
      </trkpt>
      <trkpt lat="49.93746" lon="1.12137">
        <ele>24.3</ele>
        <time>2020-06-18T13:24:05Z</time>
      </trkpt>
      <trkpt lat="49.93746" lon="1.12142">
        <ele>24.4</ele>
        <time>2020-06-18T13:24:06Z</time>
      </trkpt>
      <trkpt lat="49.93746" lon="1.12149">
        <ele>24.5</ele>
        <time>2020-06-18T13:24:07Z</time>
      </trkpt>
      <trkpt lat="49.93745" lon="1.12156">
        <ele>24.6</ele>
        <time>2020-06-18T13:24:08Z</time>
      </trkpt>
      <trkpt lat="49.93745" lon="1.12163">
        <ele>24.7</ele>
        <time>2020-06-18T13:24:09Z</time>
      </trkpt>
      <trkpt lat="49.93745" lon="1.12169">
        <ele>24.8</ele>
        <time>2020-06-18T13:24:10Z</time>
      </trkpt>
      <trkpt lat="49.93745" lon="1.12174">
        <ele>24.9</ele>
        <time>2020-06-18T13:24:11Z</time>
      </trkpt>
      <trkpt lat="49.93745" lon="1.1218">
        <ele>25</ele>
        <time>2020-06-18T13:24:12Z</time>
      </trkpt>
      <trkpt lat="49.93745" lon="1.12186">
        <ele>25.1</ele>
        <time>2020-06-18T13:24:13Z</time>
      </trkpt>
      <trkpt lat="49.93745" lon="1.12193">
        <ele>25.2</ele>
        <time>2020-06-18T13:24:14Z</time>
      </trkpt>
      <trkpt lat="49.93746" lon="1.12199">
        <ele>25.2</ele>
        <time>2020-06-18T13:24:15Z</time>
      </trkpt>
      <trkpt lat="49.93746" lon="1.12204">
        <ele>25.3</ele>
        <time>2020-06-18T13:24:16Z</time>
      </trkpt>
      <trkpt lat="49.93746" lon="1.12209">
        <ele>25.4</ele>
        <time>2020-06-18T13:24:17Z</time>
      </trkpt>
      <trkpt lat="49.93746" lon="1.12215">
        <ele>25.5</ele>
        <time>2020-06-18T13:24:18Z</time>
      </trkpt>
      <trkpt lat="49.93747" lon="1.12222">
        <ele>25.6</ele>
        <time>2020-06-18T13:24:19Z</time>
      </trkpt>
      <trkpt lat="49.93747" lon="1.12229">
        <ele>25.6</ele>
        <time>2020-06-18T13:24:20Z</time>
      </trkpt>
      <trkpt lat="49.93747" lon="1.12235">
        <ele>25.7</ele>
        <time>2020-06-18T13:24:21Z</time>
      </trkpt>
      <trkpt lat="49.93746" lon="1.12243">
        <ele>25.8</ele>
        <time>2020-06-18T13:24:22Z</time>
      </trkpt>
      <trkpt lat="49.93746" lon="1.12251">
        <ele>25.9</ele>
        <time>2020-06-18T13:24:23Z</time>
      </trkpt>
      <trkpt lat="49.93746" lon="1.12258">
        <ele>26.1</ele>
        <time>2020-06-18T13:24:24Z</time>
      </trkpt>
      <trkpt lat="49.93745" lon="1.12266">
        <ele>26.2</ele>
        <time>2020-06-18T13:24:25Z</time>
      </trkpt>
      <trkpt lat="49.93744" lon="1.12275">
        <ele>26.3</ele>
        <time>2020-06-18T13:24:26Z</time>
      </trkpt>
      <trkpt lat="49.93743" lon="1.12282">
        <ele>26.4</ele>
        <time>2020-06-18T13:24:27Z</time>
      </trkpt>
      <trkpt lat="49.93743" lon="1.12289">
        <ele>26.5</ele>
        <time>2020-06-18T13:24:28Z</time>
      </trkpt>
      <trkpt lat="49.93743" lon="1.12296">
        <ele>26.6</ele>
        <time>2020-06-18T13:24:29Z</time>
      </trkpt>
      <trkpt lat="49.93742" lon="1.12305">
        <ele>26.7</ele>
        <time>2020-06-18T13:24:30Z</time>
      </trkpt>
      <trkpt lat="49.93742" lon="1.12313">
        <ele>26.8</ele>
        <time>2020-06-18T13:24:31Z</time>
      </trkpt>
      <trkpt lat="49.93742" lon="1.12319">
        <ele>26.9</ele>
        <time>2020-06-18T13:24:32Z</time>
      </trkpt>
      <trkpt lat="49.93741" lon="1.12326">
        <ele>27</ele>
        <time>2020-06-18T13:24:33Z</time>
      </trkpt>
      <trkpt lat="49.93741" lon="1.12334">
        <ele>27.1</ele>
        <time>2020-06-18T13:24:34Z</time>
      </trkpt>
      <trkpt lat="49.93742" lon="1.12342">
        <ele>27.2</ele>
        <time>2020-06-18T13:24:35Z</time>
      </trkpt>
      <trkpt lat="49.93742" lon="1.1235">
        <ele>27.3</ele>
        <time>2020-06-18T13:24:36Z</time>
      </trkpt>
      <trkpt lat="49.93741" lon="1.12359">
        <ele>27.4</ele>
        <time>2020-06-18T13:24:37Z</time>
      </trkpt>
      <trkpt lat="49.93741" lon="1.12367">
        <ele>27.5</ele>
        <time>2020-06-18T13:24:38Z</time>
      </trkpt>
      <trkpt lat="49.93741" lon="1.12376">
        <ele>27.7</ele>
        <time>2020-06-18T13:24:39Z</time>
      </trkpt>
      <trkpt lat="49.93741" lon="1.12384">
        <ele>27.8</ele>
        <time>2020-06-18T13:24:40Z</time>
      </trkpt>
      <trkpt lat="49.93741" lon="1.12392">
        <ele>28</ele>
        <time>2020-06-18T13:24:41Z</time>
      </trkpt>
      <trkpt lat="49.93741" lon="1.124">
        <ele>28.1</ele>
        <time>2020-06-18T13:24:42Z</time>
      </trkpt>
      <trkpt lat="49.93742" lon="1.12408">
        <ele>28.1</ele>
        <time>2020-06-18T13:24:43Z</time>
      </trkpt>
      <trkpt lat="49.93744" lon="1.12415">
        <ele>28.2</ele>
        <time>2020-06-18T13:24:44Z</time>
      </trkpt>
      <trkpt lat="49.93746" lon="1.12422">
        <ele>28.2</ele>
        <time>2020-06-18T13:24:45Z</time>
      </trkpt>
      <trkpt lat="49.93747" lon="1.12428">
        <ele>28.3</ele>
        <time>2020-06-18T13:24:46Z</time>
      </trkpt>
      <trkpt lat="49.93748" lon="1.12435">
        <ele>28.3</ele>
        <time>2020-06-18T13:24:47Z</time>
      </trkpt>
      <trkpt lat="49.93749" lon="1.12442">
        <ele>28.4</ele>
        <time>2020-06-18T13:24:48Z</time>
      </trkpt>
      <trkpt lat="49.93751" lon="1.12448">
        <ele>28.4</ele>
        <time>2020-06-18T13:24:49Z</time>
      </trkpt>
      <trkpt lat="49.93752" lon="1.12455">
        <ele>28.4</ele>
        <time>2020-06-18T13:24:50Z</time>
      </trkpt>
      <trkpt lat="49.93754" lon="1.12462">
        <ele>28.5</ele>
        <time>2020-06-18T13:24:51Z</time>
      </trkpt>
      <trkpt lat="49.93756" lon="1.12469">
        <ele>28.5</ele>
        <time>2020-06-18T13:24:52Z</time>
      </trkpt>
      <trkpt lat="49.93756" lon="1.12477">
        <ele>28.5</ele>
        <time>2020-06-18T13:24:53Z</time>
      </trkpt>
      <trkpt lat="49.93758" lon="1.12485">
        <ele>28.6</ele>
        <time>2020-06-18T13:24:54Z</time>
      </trkpt>
      <trkpt lat="49.93758" lon="1.12492">
        <ele>28.6</ele>
        <time>2020-06-18T13:24:55Z</time>
      </trkpt>
      <trkpt lat="49.93759" lon="1.125">
        <ele>28.7</ele>
        <time>2020-06-18T13:24:56Z</time>
      </trkpt>
      <trkpt lat="49.9376" lon="1.12508">
        <ele>28.7</ele>
        <time>2020-06-18T13:24:57Z</time>
      </trkpt>
      <trkpt lat="49.93761" lon="1.12516">
        <ele>28.7</ele>
        <time>2020-06-18T13:24:58Z</time>
      </trkpt>
      <trkpt lat="49.93761" lon="1.12523">
        <ele>28.8</ele>
        <time>2020-06-18T13:24:59Z</time>
      </trkpt>
      <trkpt lat="49.93762" lon="1.12531">
        <ele>28.9</ele>
        <time>2020-06-18T13:25:00Z</time>
      </trkpt>
      <trkpt lat="49.93765" lon="1.12538">
        <ele>29</ele>
        <time>2020-06-18T13:25:01Z</time>
      </trkpt>
      <trkpt lat="49.93767" lon="1.12545">
        <ele>29.1</ele>
        <time>2020-06-18T13:25:02Z</time>
      </trkpt>
      <trkpt lat="49.93768" lon="1.12553">
        <ele>29.2</ele>
        <time>2020-06-18T13:25:03Z</time>
      </trkpt>
      <trkpt lat="49.9377" lon="1.12559">
        <ele>29.2</ele>
        <time>2020-06-18T13:25:04Z</time>
      </trkpt>
      <trkpt lat="49.93772" lon="1.12567">
        <ele>29.3</ele>
        <time>2020-06-18T13:25:05Z</time>
      </trkpt>
      <trkpt lat="49.93773" lon="1.12574">
        <ele>29.3</ele>
        <time>2020-06-18T13:25:06Z</time>
      </trkpt>
      <trkpt lat="49.93775" lon="1.12582">
        <ele>29.4</ele>
        <time>2020-06-18T13:25:07Z</time>
      </trkpt>
      <trkpt lat="49.93777" lon="1.12589">
        <ele>29.5</ele>
        <time>2020-06-18T13:25:08Z</time>
      </trkpt>
      <trkpt lat="49.93779" lon="1.12598">
        <ele>29.5</ele>
        <time>2020-06-18T13:25:09Z</time>
      </trkpt>
      <trkpt lat="49.93781" lon="1.12606">
        <ele>29.6</ele>
        <time>2020-06-18T13:25:10Z</time>
      </trkpt>
      <trkpt lat="49.93783" lon="1.12613">
        <ele>29.7</ele>
        <time>2020-06-18T13:25:11Z</time>
      </trkpt>
      <trkpt lat="49.93785" lon="1.12621">
        <ele>29.8</ele>
        <time>2020-06-18T13:25:12Z</time>
      </trkpt>
      <trkpt lat="49.93786" lon="1.12629">
        <ele>29.8</ele>
        <time>2020-06-18T13:25:13Z</time>
      </trkpt>
      <trkpt lat="49.93787" lon="1.12636">
        <ele>29.9</ele>
        <time>2020-06-18T13:25:14Z</time>
      </trkpt>
      <trkpt lat="49.93789" lon="1.12643">
        <ele>29.9</ele>
        <time>2020-06-18T13:25:15Z</time>
      </trkpt>
      <trkpt lat="49.93791" lon="1.1265">
        <ele>30</ele>
        <time>2020-06-18T13:25:16Z</time>
      </trkpt>
      <trkpt lat="49.93794" lon="1.12655">
        <ele>30.1</ele>
        <time>2020-06-18T13:25:17Z</time>
      </trkpt>
      <trkpt lat="49.93796" lon="1.12661">
        <ele>30.1</ele>
        <time>2020-06-18T13:25:18Z</time>
      </trkpt>
      <trkpt lat="49.93799" lon="1.12667">
        <ele>30.2</ele>
        <time>2020-06-18T13:25:19Z</time>
      </trkpt>
      <trkpt lat="49.93802" lon="1.12673">
        <ele>30.3</ele>
        <time>2020-06-18T13:25:20Z</time>
      </trkpt>
      <trkpt lat="49.93805" lon="1.12679">
        <ele>30.4</ele>
        <time>2020-06-18T13:25:21Z</time>
      </trkpt>
      <trkpt lat="49.93809" lon="1.12685">
        <ele>30.5</ele>
        <time>2020-06-18T13:25:22Z</time>
      </trkpt>
      <trkpt lat="49.93813" lon="1.12691">
        <ele>30.6</ele>
        <time>2020-06-18T13:25:23Z</time>
      </trkpt>
      <trkpt lat="49.93818" lon="1.12695">
        <ele>30.7</ele>
        <time>2020-06-18T13:25:24Z</time>
      </trkpt>
      <trkpt lat="49.93822" lon="1.12698">
        <ele>30.8</ele>
        <time>2020-06-18T13:25:25Z</time>
      </trkpt>
      <trkpt lat="49.93826" lon="1.12702">
        <ele>31</ele>
        <time>2020-06-18T13:25:26Z</time>
      </trkpt>
      <trkpt lat="49.93829" lon="1.12706">
        <ele>31.1</ele>
        <time>2020-06-18T13:25:27Z</time>
      </trkpt>
      <trkpt lat="49.93833" lon="1.12711">
        <ele>31.3</ele>
        <time>2020-06-18T13:25:28Z</time>
      </trkpt>
      <trkpt lat="49.93837" lon="1.12714">
        <ele>31.4</ele>
        <time>2020-06-18T13:25:29Z</time>
      </trkpt>
      <trkpt lat="49.93841" lon="1.12715">
        <ele>31.6</ele>
        <time>2020-06-18T13:25:30Z</time>
      </trkpt>
      <trkpt lat="49.93844" lon="1.12716">
        <ele>31.7</ele>
        <time>2020-06-18T13:25:31Z</time>
      </trkpt>
      <trkpt lat="49.93848" lon="1.12717">
        <ele>31.8</ele>
        <time>2020-06-18T13:25:32Z</time>
      </trkpt>
      <trkpt lat="49.93851" lon="1.12717">
        <ele>32</ele>
        <time>2020-06-18T13:25:33Z</time>
      </trkpt>
      <trkpt lat="49.93854" lon="1.12718">
        <ele>32.1</ele>
        <time>2020-06-18T13:25:34Z</time>
      </trkpt>
      <trkpt lat="49.93858" lon="1.1272">
        <ele>32.2</ele>
        <time>2020-06-18T13:25:35Z</time>
      </trkpt>
      <trkpt lat="49.93861" lon="1.12722">
        <ele>32.5</ele>
        <time>2020-06-18T13:25:36Z</time>
      </trkpt>
      <trkpt lat="49.93864" lon="1.12725">
        <ele>32.7</ele>
        <time>2020-06-18T13:25:37Z</time>
      </trkpt>
      <trkpt lat="49.93866" lon="1.12728">
        <ele>32.9</ele>
        <time>2020-06-18T13:25:38Z</time>
      </trkpt>
      <trkpt lat="49.9387" lon="1.12732">
        <ele>33.1</ele>
        <time>2020-06-18T13:25:39Z</time>
      </trkpt>
      <trkpt lat="49.93871" lon="1.12733">
        <ele>33.2</ele>
        <time>2020-06-18T13:25:40Z</time>
      </trkpt>
      <trkpt lat="49.93874" lon="1.12737">
        <ele>33.4</ele>
        <time>2020-06-18T13:25:41Z</time>
      </trkpt>
      <trkpt lat="49.93874" lon="1.12739">
        <ele>33.4</ele>
        <time>2020-06-18T13:25:42Z</time>
      </trkpt>
      <trkpt lat="49.93877" lon="1.12745">
        <ele>33.6</ele>
        <time>2020-06-18T13:25:43Z</time>
      </trkpt>
      <trkpt lat="49.93879" lon="1.12749">
        <ele>33.8</ele>
        <time>2020-06-18T13:25:44Z</time>
      </trkpt>
      <trkpt lat="49.93881" lon="1.12753">
        <ele>34</ele>
        <time>2020-06-18T13:25:45Z</time>
      </trkpt>
      <trkpt lat="49.93882" lon="1.12757">
        <ele>34.1</ele>
        <time>2020-06-18T13:25:46Z</time>
      </trkpt>
      <trkpt lat="49.93884" lon="1.12762">
        <ele>34.3</ele>
        <time>2020-06-18T13:25:47Z</time>
      </trkpt>
      <trkpt lat="49.93885" lon="1.12767">
        <ele>34.5</ele>
        <time>2020-06-18T13:25:48Z</time>
      </trkpt>
      <trkpt lat="49.93886" lon="1.12771">
        <ele>34.6</ele>
        <time>2020-06-18T13:25:49Z</time>
      </trkpt>
      <trkpt lat="49.93888" lon="1.12777">
        <ele>34.8</ele>
        <time>2020-06-18T13:25:50Z</time>
      </trkpt>
      <trkpt lat="49.93888" lon="1.12779">
        <ele>34.9</ele>
        <time>2020-06-18T13:25:51Z</time>
      </trkpt>
      <trkpt lat="49.9389" lon="1.12783">
        <ele>35.1</ele>
        <time>2020-06-18T13:25:52Z</time>
      </trkpt>
      <trkpt lat="49.93891" lon="1.12787">
        <ele>35.2</ele>
        <time>2020-06-18T13:25:53Z</time>
      </trkpt>
      <trkpt lat="49.93893" lon="1.12793">
        <ele>35.4</ele>
        <time>2020-06-18T13:25:54Z</time>
      </trkpt>
      <trkpt lat="49.93893" lon="1.12795">
        <ele>35.4</ele>
        <time>2020-06-18T13:25:55Z</time>
      </trkpt>
      <trkpt lat="49.93894" lon="1.12799">
        <ele>35.6</ele>
        <time>2020-06-18T13:25:56Z</time>
      </trkpt>
      <trkpt lat="49.93895" lon="1.12804">
        <ele>35.7</ele>
        <time>2020-06-18T13:25:57Z</time>
      </trkpt>
      <trkpt lat="49.93896" lon="1.1281">
        <ele>35.9</ele>
        <time>2020-06-18T13:25:58Z</time>
      </trkpt>
      <trkpt lat="49.93895" lon="1.12814">
        <ele>36</ele>
        <time>2020-06-18T13:25:59Z</time>
      </trkpt>
      <trkpt lat="49.93893" lon="1.12822">
        <ele>36.2</ele>
        <time>2020-06-18T13:26:00Z</time>
      </trkpt>
      <trkpt lat="49.93892" lon="1.12829">
        <ele>36.4</ele>
        <time>2020-06-18T13:26:01Z</time>
      </trkpt>
      <trkpt lat="49.93892" lon="1.12835">
        <ele>36.6</ele>
        <time>2020-06-18T13:26:02Z</time>
      </trkpt>
      <trkpt lat="49.93893" lon="1.1284">
        <ele>36.7</ele>
        <time>2020-06-18T13:26:03Z</time>
      </trkpt>
      <trkpt lat="49.93893" lon="1.12845">
        <ele>36.9</ele>
        <time>2020-06-18T13:26:04Z</time>
      </trkpt>
      <trkpt lat="49.93893" lon="1.1285">
        <ele>37</ele>
        <time>2020-06-18T13:26:05Z</time>
      </trkpt>
      <trkpt lat="49.93893" lon="1.12857">
        <ele>37.2</ele>
        <time>2020-06-18T13:26:06Z</time>
      </trkpt>
      <trkpt lat="49.93893" lon="1.12862">
        <ele>37.4</ele>
        <time>2020-06-18T13:26:07Z</time>
      </trkpt>
      <trkpt lat="49.93894" lon="1.12867">
        <ele>37.5</ele>
        <time>2020-06-18T13:26:08Z</time>
      </trkpt>
      <trkpt lat="49.93894" lon="1.12872">
        <ele>37.7</ele>
        <time>2020-06-18T13:26:09Z</time>
      </trkpt>
      <trkpt lat="49.93895" lon="1.12878">
        <ele>37.9</ele>
        <time>2020-06-18T13:26:10Z</time>
      </trkpt>
      <trkpt lat="49.93894" lon="1.12885">
        <ele>38.2</ele>
        <time>2020-06-18T13:26:11Z</time>
      </trkpt>
      <trkpt lat="49.93894" lon="1.12892">
        <ele>38.4</ele>
        <time>2020-06-18T13:26:12Z</time>
      </trkpt>
      <trkpt lat="49.93894" lon="1.12897">
        <ele>38.5</ele>
        <time>2020-06-18T13:26:13Z</time>
      </trkpt>
      <trkpt lat="49.93894" lon="1.12901">
        <ele>38.7</ele>
        <time>2020-06-18T13:26:14Z</time>
      </trkpt>
      <trkpt lat="49.93894" lon="1.12907">
        <ele>38.8</ele>
        <time>2020-06-18T13:26:15Z</time>
      </trkpt>
      <trkpt lat="49.93893" lon="1.12912">
        <ele>39</ele>
        <time>2020-06-18T13:26:16Z</time>
      </trkpt>
      <trkpt lat="49.93893" lon="1.12918">
        <ele>39.2</ele>
        <time>2020-06-18T13:26:17Z</time>
      </trkpt>
      <trkpt lat="49.93893" lon="1.12924">
        <ele>39.3</ele>
        <time>2020-06-18T13:26:18Z</time>
      </trkpt>
      <trkpt lat="49.93893" lon="1.1293">
        <ele>39.5</ele>
        <time>2020-06-18T13:26:19Z</time>
      </trkpt>
      <trkpt lat="49.93893" lon="1.12935">
        <ele>39.7</ele>
        <time>2020-06-18T13:26:20Z</time>
      </trkpt>
      <trkpt lat="49.93893" lon="1.1294">
        <ele>39.8</ele>
        <time>2020-06-18T13:26:21Z</time>
      </trkpt>
      <trkpt lat="49.93894" lon="1.12945">
        <ele>40</ele>
        <time>2020-06-18T13:26:22Z</time>
      </trkpt>
      <trkpt lat="49.93893" lon="1.12951">
        <ele>40.1</ele>
        <time>2020-06-18T13:26:23Z</time>
      </trkpt>
      <trkpt lat="49.93893" lon="1.12956">
        <ele>40.3</ele>
        <time>2020-06-18T13:26:24Z</time>
      </trkpt>
      <trkpt lat="49.93893" lon="1.12961">
        <ele>40.4</ele>
        <time>2020-06-18T13:26:25Z</time>
      </trkpt>
      <trkpt lat="49.93893" lon="1.12967">
        <ele>40.6</ele>
        <time>2020-06-18T13:26:26Z</time>
      </trkpt>
      <trkpt lat="49.93893" lon="1.12973">
        <ele>40.8</ele>
        <time>2020-06-18T13:26:27Z</time>
      </trkpt>
      <trkpt lat="49.93894" lon="1.12979">
        <ele>41</ele>
        <time>2020-06-18T13:26:28Z</time>
      </trkpt>
      <trkpt lat="49.93894" lon="1.12984">
        <ele>41.1</ele>
        <time>2020-06-18T13:26:29Z</time>
      </trkpt>
      <trkpt lat="49.93895" lon="1.12989">
        <ele>41.3</ele>
        <time>2020-06-18T13:26:30Z</time>
      </trkpt>
      <trkpt lat="49.93895" lon="1.12993">
        <ele>41.5</ele>
        <time>2020-06-18T13:26:31Z</time>
      </trkpt>
      <trkpt lat="49.93894" lon="1.12998">
        <ele>41.6</ele>
        <time>2020-06-18T13:26:32Z</time>
      </trkpt>
      <trkpt lat="49.93894" lon="1.13003">
        <ele>41.8</ele>
        <time>2020-06-18T13:26:33Z</time>
      </trkpt>
      <trkpt lat="49.93893" lon="1.13009">
        <ele>42</ele>
        <time>2020-06-18T13:26:34Z</time>
      </trkpt>
      <trkpt lat="49.93893" lon="1.13014">
        <ele>42.2</ele>
        <time>2020-06-18T13:26:35Z</time>
      </trkpt>
      <trkpt lat="49.93894" lon="1.13019">
        <ele>42.4</ele>
        <time>2020-06-18T13:26:36Z</time>
      </trkpt>
      <trkpt lat="49.93895" lon="1.13024">
        <ele>42.5</ele>
        <time>2020-06-18T13:26:37Z</time>
      </trkpt>
      <trkpt lat="49.93895" lon="1.13029">
        <ele>42.7</ele>
        <time>2020-06-18T13:26:38Z</time>
      </trkpt>
      <trkpt lat="49.93895" lon="1.13034">
        <ele>42.9</ele>
        <time>2020-06-18T13:26:39Z</time>
      </trkpt>
      <trkpt lat="49.93894" lon="1.13039">
        <ele>43.1</ele>
        <time>2020-06-18T13:26:40Z</time>
      </trkpt>
      <trkpt lat="49.93895" lon="1.13045">
        <ele>43.2</ele>
        <time>2020-06-18T13:26:41Z</time>
      </trkpt>
      <trkpt lat="49.93895" lon="1.13051">
        <ele>43.4</ele>
        <time>2020-06-18T13:26:42Z</time>
      </trkpt>
      <trkpt lat="49.93895" lon="1.13057">
        <ele>43.6</ele>
        <time>2020-06-18T13:26:43Z</time>
      </trkpt>
      <trkpt lat="49.93895" lon="1.13063">
        <ele>43.8</ele>
        <time>2020-06-18T13:26:44Z</time>
      </trkpt>
      <trkpt lat="49.93896" lon="1.13068">
        <ele>44</ele>
        <time>2020-06-18T13:26:45Z</time>
      </trkpt>
      <trkpt lat="49.93897" lon="1.13074">
        <ele>44.2</ele>
        <time>2020-06-18T13:26:46Z</time>
      </trkpt>
      <trkpt lat="49.93898" lon="1.13079">
        <ele>44.4</ele>
        <time>2020-06-18T13:26:47Z</time>
      </trkpt>
      <trkpt lat="49.939" lon="1.13085">
        <ele>44.5</ele>
        <time>2020-06-18T13:26:48Z</time>
      </trkpt>
      <trkpt lat="49.93901" lon="1.1309">
        <ele>44.7</ele>
        <time>2020-06-18T13:26:49Z</time>
      </trkpt>
      <trkpt lat="49.93902" lon="1.13096">
        <ele>44.9</ele>
        <time>2020-06-18T13:26:50Z</time>
      </trkpt>
      <trkpt lat="49.93903" lon="1.13102">
        <ele>45</ele>
        <time>2020-06-18T13:26:51Z</time>
      </trkpt>
      <trkpt lat="49.93905" lon="1.13106">
        <ele>45.2</ele>
        <time>2020-06-18T13:26:52Z</time>
      </trkpt>
      <trkpt lat="49.93906" lon="1.13111">
        <ele>45.3</ele>
        <time>2020-06-18T13:26:53Z</time>
      </trkpt>
      <trkpt lat="49.93908" lon="1.13116">
        <ele>45.5</ele>
        <time>2020-06-18T13:26:54Z</time>
      </trkpt>
      <trkpt lat="49.93909" lon="1.13122">
        <ele>45.7</ele>
        <time>2020-06-18T13:26:55Z</time>
      </trkpt>
      <trkpt lat="49.9391" lon="1.13128">
        <ele>45.9</ele>
        <time>2020-06-18T13:26:56Z</time>
      </trkpt>
      <trkpt lat="49.93913" lon="1.13133">
        <ele>46.1</ele>
        <time>2020-06-18T13:26:57Z</time>
      </trkpt>
      <trkpt lat="49.93914" lon="1.13138">
        <ele>46.3</ele>
        <time>2020-06-18T13:26:58Z</time>
      </trkpt>
      <trkpt lat="49.93915" lon="1.13144">
        <ele>46.5</ele>
        <time>2020-06-18T13:26:59Z</time>
      </trkpt>
      <trkpt lat="49.93916" lon="1.1315">
        <ele>46.7</ele>
        <time>2020-06-18T13:27:00Z</time>
      </trkpt>
      <trkpt lat="49.93918" lon="1.13156">
        <ele>46.9</ele>
        <time>2020-06-18T13:27:01Z</time>
      </trkpt>
      <trkpt lat="49.93919" lon="1.13161">
        <ele>47.1</ele>
        <time>2020-06-18T13:27:02Z</time>
      </trkpt>
      <trkpt lat="49.93921" lon="1.13166">
        <ele>47.3</ele>
        <time>2020-06-18T13:27:03Z</time>
      </trkpt>
      <trkpt lat="49.93922" lon="1.1317">
        <ele>47.5</ele>
        <time>2020-06-18T13:27:04Z</time>
      </trkpt>
      <trkpt lat="49.93923" lon="1.13174">
        <ele>47.7</ele>
        <time>2020-06-18T13:27:05Z</time>
      </trkpt>
      <trkpt lat="49.93926" lon="1.13179">
        <ele>47.9</ele>
        <time>2020-06-18T13:27:06Z</time>
      </trkpt>
      <trkpt lat="49.93926" lon="1.13181">
        <ele>47.9</ele>
        <time>2020-06-18T13:27:07Z</time>
      </trkpt>
      <trkpt lat="49.93928" lon="1.13186">
        <ele>48.2</ele>
        <time>2020-06-18T13:27:08Z</time>
      </trkpt>
      <trkpt lat="49.93929" lon="1.13188">
        <ele>48.3</ele>
        <time>2020-06-18T13:27:09Z</time>
      </trkpt>
      <trkpt lat="49.93932" lon="1.13192">
        <ele>48.4</ele>
        <time>2020-06-18T13:27:10Z</time>
      </trkpt>
      <trkpt lat="49.93933" lon="1.13197">
        <ele>48.6</ele>
        <time>2020-06-18T13:27:11Z</time>
      </trkpt>
      <trkpt lat="49.93935" lon="1.132">
        <ele>48.8</ele>
        <time>2020-06-18T13:27:12Z</time>
      </trkpt>
      <trkpt lat="49.93937" lon="1.13204">
        <ele>49</ele>
        <time>2020-06-18T13:27:13Z</time>
      </trkpt>
      <trkpt lat="49.9394" lon="1.13207">
        <ele>49.2</ele>
        <time>2020-06-18T13:27:14Z</time>
      </trkpt>
      <trkpt lat="49.93942" lon="1.13211">
        <ele>49.3</ele>
        <time>2020-06-18T13:27:15Z</time>
      </trkpt>
      <trkpt lat="49.93945" lon="1.13216">
        <ele>49.5</ele>
        <time>2020-06-18T13:27:16Z</time>
      </trkpt>
      <trkpt lat="49.93947" lon="1.1322">
        <ele>49.7</ele>
        <time>2020-06-18T13:27:17Z</time>
      </trkpt>
      <trkpt lat="49.93949" lon="1.13224">
        <ele>49.9</ele>
        <time>2020-06-18T13:27:18Z</time>
      </trkpt>
      <trkpt lat="49.93951" lon="1.13227">
        <ele>50</ele>
        <time>2020-06-18T13:27:19Z</time>
      </trkpt>
      <trkpt lat="49.93953" lon="1.13234">
        <ele>50.3</ele>
        <time>2020-06-18T13:27:20Z</time>
      </trkpt>
      <trkpt lat="49.93954" lon="1.1324">
        <ele>50.5</ele>
        <time>2020-06-18T13:27:21Z</time>
      </trkpt>
      <trkpt lat="49.93956" lon="1.13246">
        <ele>50.7</ele>
        <time>2020-06-18T13:27:22Z</time>
      </trkpt>
      <trkpt lat="49.93957" lon="1.13252">
        <ele>50.9</ele>
        <time>2020-06-18T13:27:23Z</time>
      </trkpt>
      <trkpt lat="49.93959" lon="1.13257">
        <ele>51.1</ele>
        <time>2020-06-18T13:27:24Z</time>
      </trkpt>
      <trkpt lat="49.93961" lon="1.1326">
        <ele>51.2</ele>
        <time>2020-06-18T13:27:25Z</time>
      </trkpt>
      <trkpt lat="49.93963" lon="1.13266">
        <ele>51.4</ele>
        <time>2020-06-18T13:27:26Z</time>
      </trkpt>
      <trkpt lat="49.93965" lon="1.13271">
        <ele>51.6</ele>
        <time>2020-06-18T13:27:27Z</time>
      </trkpt>
      <trkpt lat="49.93966" lon="1.13276">
        <ele>51.8</ele>
        <time>2020-06-18T13:27:28Z</time>
      </trkpt>
      <trkpt lat="49.93968" lon="1.13282">
        <ele>52</ele>
        <time>2020-06-18T13:27:29Z</time>
      </trkpt>
      <trkpt lat="49.93969" lon="1.13288">
        <ele>52.2</ele>
        <time>2020-06-18T13:27:30Z</time>
      </trkpt>
      <trkpt lat="49.9397" lon="1.13294">
        <ele>52.4</ele>
        <time>2020-06-18T13:27:31Z</time>
      </trkpt>
      <trkpt lat="49.93971" lon="1.13299">
        <ele>52.5</ele>
        <time>2020-06-18T13:27:32Z</time>
      </trkpt>
      <trkpt lat="49.93971" lon="1.13305">
        <ele>52.7</ele>
        <time>2020-06-18T13:27:33Z</time>
      </trkpt>
      <trkpt lat="49.93973" lon="1.1331">
        <ele>52.9</ele>
        <time>2020-06-18T13:27:34Z</time>
      </trkpt>
      <trkpt lat="49.93973" lon="1.13312">
        <ele>53</ele>
        <time>2020-06-18T13:27:35Z</time>
      </trkpt>
      <trkpt lat="49.93974" lon="1.13317">
        <ele>53.2</ele>
        <time>2020-06-18T13:27:36Z</time>
      </trkpt>
      <trkpt lat="49.93974" lon="1.13323">
        <ele>53.4</ele>
        <time>2020-06-18T13:27:37Z</time>
      </trkpt>
      <trkpt lat="49.93975" lon="1.13329">
        <ele>53.6</ele>
        <time>2020-06-18T13:27:38Z</time>
      </trkpt>
      <trkpt lat="49.93976" lon="1.13334">
        <ele>53.7</ele>
        <time>2020-06-18T13:27:39Z</time>
      </trkpt>
      <trkpt lat="49.93977" lon="1.13339">
        <ele>53.9</ele>
        <time>2020-06-18T13:27:40Z</time>
      </trkpt>
      <trkpt lat="49.93978" lon="1.13343">
        <ele>54</ele>
        <time>2020-06-18T13:27:41Z</time>
      </trkpt>
      <trkpt lat="49.93979" lon="1.13349">
        <ele>54.2</ele>
        <time>2020-06-18T13:27:42Z</time>
      </trkpt>
      <trkpt lat="49.93979" lon="1.13351">
        <ele>54.2</ele>
        <time>2020-06-18T13:27:43Z</time>
      </trkpt>
      <trkpt lat="49.93979" lon="1.13358">
        <ele>54.4</ele>
        <time>2020-06-18T13:27:44Z</time>
      </trkpt>
      <trkpt lat="49.9398" lon="1.1336">
        <ele>54.5</ele>
        <time>2020-06-18T13:27:45Z</time>
      </trkpt>
      <trkpt lat="49.93981" lon="1.13364">
        <ele>54.6</ele>
        <time>2020-06-18T13:27:46Z</time>
      </trkpt>
      <trkpt lat="49.93982" lon="1.1337">
        <ele>54.8</ele>
        <time>2020-06-18T13:27:47Z</time>
      </trkpt>
      <trkpt lat="49.93982" lon="1.13381">
        <ele>55.1</ele>
        <time>2020-06-18T13:27:48Z</time>
      </trkpt>
      <trkpt lat="49.93982" lon="1.13391">
        <ele>55.4</ele>
        <time>2020-06-18T13:27:49Z</time>
      </trkpt>
      <trkpt lat="49.93982" lon="1.134">
        <ele>55.7</ele>
        <time>2020-06-18T13:27:50Z</time>
      </trkpt>
      <trkpt lat="49.93982" lon="1.1341">
        <ele>56</ele>
        <time>2020-06-18T13:27:51Z</time>
      </trkpt>
      <trkpt lat="49.93982" lon="1.13419">
        <ele>56.2</ele>
        <time>2020-06-18T13:27:52Z</time>
      </trkpt>
      <trkpt lat="49.93982" lon="1.13426">
        <ele>56.4</ele>
        <time>2020-06-18T13:27:53Z</time>
      </trkpt>
      <trkpt lat="49.93982" lon="1.13433">
        <ele>56.6</ele>
        <time>2020-06-18T13:27:54Z</time>
      </trkpt>
      <trkpt lat="49.93982" lon="1.13438">
        <ele>56.7</ele>
        <time>2020-06-18T13:27:55Z</time>
      </trkpt>
      <trkpt lat="49.93982" lon="1.13444">
        <ele>56.9</ele>
        <time>2020-06-18T13:27:56Z</time>
      </trkpt>
      <trkpt lat="49.93981" lon="1.13455">
        <ele>57.3</ele>
        <time>2020-06-18T13:27:57Z</time>
      </trkpt>
      <trkpt lat="49.93979" lon="1.13465">
        <ele>57.6</ele>
        <time>2020-06-18T13:27:58Z</time>
      </trkpt>
      <trkpt lat="49.93978" lon="1.13474">
        <ele>57.9</ele>
        <time>2020-06-18T13:27:59Z</time>
      </trkpt>
      <trkpt lat="49.93978" lon="1.13481">
        <ele>58.1</ele>
        <time>2020-06-18T13:28:00Z</time>
      </trkpt>
      <trkpt lat="49.93978" lon="1.13486">
        <ele>58.3</ele>
        <time>2020-06-18T13:28:01Z</time>
      </trkpt>
      <trkpt lat="49.93976" lon="1.13495">
        <ele>58.6</ele>
        <time>2020-06-18T13:28:02Z</time>
      </trkpt>
      <trkpt lat="49.93975" lon="1.13503">
        <ele>58.9</ele>
        <time>2020-06-18T13:28:03Z</time>
      </trkpt>
      <trkpt lat="49.93974" lon="1.13509">
        <ele>59.2</ele>
        <time>2020-06-18T13:28:04Z</time>
      </trkpt>
      <trkpt lat="49.93972" lon="1.13516">
        <ele>59.4</ele>
        <time>2020-06-18T13:28:05Z</time>
      </trkpt>
      <trkpt lat="49.93972" lon="1.13522">
        <ele>59.6</ele>
        <time>2020-06-18T13:28:06Z</time>
      </trkpt>
      <trkpt lat="49.93971" lon="1.13529">
        <ele>59.8</ele>
        <time>2020-06-18T13:28:07Z</time>
      </trkpt>
      <trkpt lat="49.93972" lon="1.13535">
        <ele>60</ele>
        <time>2020-06-18T13:28:08Z</time>
      </trkpt>
      <trkpt lat="49.93972" lon="1.13541">
        <ele>60.3</ele>
        <time>2020-06-18T13:28:09Z</time>
      </trkpt>
      <trkpt lat="49.93972" lon="1.13548">
        <ele>60.5</ele>
        <time>2020-06-18T13:28:10Z</time>
      </trkpt>
      <trkpt lat="49.93973" lon="1.13554">
        <ele>60.7</ele>
        <time>2020-06-18T13:28:11Z</time>
      </trkpt>
      <trkpt lat="49.93972" lon="1.13558">
        <ele>60.8</ele>
        <time>2020-06-18T13:28:12Z</time>
      </trkpt>
      <trkpt lat="49.93972" lon="1.13565">
        <ele>61</ele>
        <time>2020-06-18T13:28:13Z</time>
      </trkpt>
      <trkpt lat="49.93971" lon="1.13567">
        <ele>61.1</ele>
        <time>2020-06-18T13:28:14Z</time>
      </trkpt>
      <trkpt lat="49.93971" lon="1.13573">
        <ele>61.3</ele>
        <time>2020-06-18T13:28:15Z</time>
      </trkpt>
      <trkpt lat="49.9397" lon="1.13579">
        <ele>61.5</ele>
        <time>2020-06-18T13:28:16Z</time>
      </trkpt>
      <trkpt lat="49.9397" lon="1.13584">
        <ele>61.6</ele>
        <time>2020-06-18T13:28:17Z</time>
      </trkpt>
      <trkpt lat="49.93969" lon="1.13589">
        <ele>61.8</ele>
        <time>2020-06-18T13:28:18Z</time>
      </trkpt>
      <trkpt lat="49.93969" lon="1.13594">
        <ele>61.9</ele>
        <time>2020-06-18T13:28:19Z</time>
      </trkpt>
      <trkpt lat="49.93969" lon="1.13598">
        <ele>62.1</ele>
        <time>2020-06-18T13:28:20Z</time>
      </trkpt>
      <trkpt lat="49.93969" lon="1.13603">
        <ele>62.3</ele>
        <time>2020-06-18T13:28:21Z</time>
      </trkpt>
      <trkpt lat="49.93969" lon="1.13607">
        <ele>62.4</ele>
        <time>2020-06-18T13:28:22Z</time>
      </trkpt>
      <trkpt lat="49.9397" lon="1.13612">
        <ele>62.6</ele>
        <time>2020-06-18T13:28:23Z</time>
      </trkpt>
      <trkpt lat="49.9397" lon="1.13617">
        <ele>62.7</ele>
        <time>2020-06-18T13:28:24Z</time>
      </trkpt>
      <trkpt lat="49.93969" lon="1.13622">
        <ele>62.9</ele>
        <time>2020-06-18T13:28:25Z</time>
      </trkpt>
      <trkpt lat="49.93968" lon="1.13629">
        <ele>63.1</ele>
        <time>2020-06-18T13:28:26Z</time>
      </trkpt>
      <trkpt lat="49.93968" lon="1.13633">
        <ele>63.3</ele>
        <time>2020-06-18T13:28:27Z</time>
      </trkpt>
      <trkpt lat="49.93967" lon="1.13638">
        <ele>63.4</ele>
        <time>2020-06-18T13:28:28Z</time>
      </trkpt>
      <trkpt lat="49.93966" lon="1.13643">
        <ele>63.6</ele>
        <time>2020-06-18T13:28:29Z</time>
      </trkpt>
      <trkpt lat="49.93965" lon="1.13649">
        <ele>63.7</ele>
        <time>2020-06-18T13:28:30Z</time>
      </trkpt>
      <trkpt lat="49.93965" lon="1.13656">
        <ele>63.9</ele>
        <time>2020-06-18T13:28:31Z</time>
      </trkpt>
      <trkpt lat="49.93965" lon="1.13664">
        <ele>64.1</ele>
        <time>2020-06-18T13:28:32Z</time>
      </trkpt>
      <trkpt lat="49.93964" lon="1.13674">
        <ele>64.3</ele>
        <time>2020-06-18T13:28:33Z</time>
      </trkpt>
      <trkpt lat="49.93965" lon="1.13685">
        <ele>64.5</ele>
        <time>2020-06-18T13:28:34Z</time>
      </trkpt>
      <trkpt lat="49.93964" lon="1.13694">
        <ele>64.7</ele>
        <time>2020-06-18T13:28:35Z</time>
      </trkpt>
      <trkpt lat="49.93962" lon="1.13701">
        <ele>64.8</ele>
        <time>2020-06-18T13:28:36Z</time>
      </trkpt>
      <trkpt lat="49.93962" lon="1.13706">
        <ele>64.9</ele>
        <time>2020-06-18T13:28:37Z</time>
      </trkpt>
      <trkpt lat="49.93961" lon="1.13713">
        <ele>65</ele>
        <time>2020-06-18T13:28:38Z</time>
      </trkpt>
      <trkpt lat="49.93959" lon="1.1372">
        <ele>65.2</ele>
        <time>2020-06-18T13:28:39Z</time>
      </trkpt>
      <trkpt lat="49.93957" lon="1.13726">
        <ele>65.3</ele>
        <time>2020-06-18T13:28:40Z</time>
      </trkpt>
      <trkpt lat="49.93956" lon="1.13732">
        <ele>65.4</ele>
        <time>2020-06-18T13:28:41Z</time>
      </trkpt>
      <trkpt lat="49.93955" lon="1.13738">
        <ele>65.6</ele>
        <time>2020-06-18T13:28:42Z</time>
      </trkpt>
      <trkpt lat="49.93953" lon="1.13747">
        <ele>65.8</ele>
        <time>2020-06-18T13:28:43Z</time>
      </trkpt>
      <trkpt lat="49.93952" lon="1.13755">
        <ele>65.9</ele>
        <time>2020-06-18T13:28:44Z</time>
      </trkpt>
      <trkpt lat="49.93952" lon="1.13763">
        <ele>66</ele>
        <time>2020-06-18T13:28:45Z</time>
      </trkpt>
      <trkpt lat="49.93952" lon="1.13769">
        <ele>66.1</ele>
        <time>2020-06-18T13:28:46Z</time>
      </trkpt>
      <trkpt lat="49.93951" lon="1.13774">
        <ele>66.2</ele>
        <time>2020-06-18T13:28:47Z</time>
      </trkpt>
      <trkpt lat="49.93949" lon="1.1378">
        <ele>66.3</ele>
        <time>2020-06-18T13:28:48Z</time>
      </trkpt>
      <trkpt lat="49.93949" lon="1.13785">
        <ele>66.4</ele>
        <time>2020-06-18T13:28:49Z</time>
      </trkpt>
      <trkpt lat="49.93949" lon="1.13789">
        <ele>66.5</ele>
        <time>2020-06-18T13:28:50Z</time>
      </trkpt>
      <trkpt lat="49.93949" lon="1.13794">
        <ele>66.6</ele>
        <time>2020-06-18T13:28:51Z</time>
      </trkpt>
      <trkpt lat="49.93947" lon="1.13798">
        <ele>66.7</ele>
        <time>2020-06-18T13:28:52Z</time>
      </trkpt>
      <trkpt lat="49.93946" lon="1.13803">
        <ele>66.8</ele>
        <time>2020-06-18T13:28:53Z</time>
      </trkpt>
      <trkpt lat="49.93945" lon="1.13808">
        <ele>66.9</ele>
        <time>2020-06-18T13:28:54Z</time>
      </trkpt>
      <trkpt lat="49.93944" lon="1.13814">
        <ele>67</ele>
        <time>2020-06-18T13:28:55Z</time>
      </trkpt>
      <trkpt lat="49.93943" lon="1.1382">
        <ele>67.2</ele>
        <time>2020-06-18T13:28:56Z</time>
      </trkpt>
      <trkpt lat="49.93943" lon="1.13826">
        <ele>67.3</ele>
        <time>2020-06-18T13:28:57Z</time>
      </trkpt>
      <trkpt lat="49.93942" lon="1.13832">
        <ele>67.5</ele>
        <time>2020-06-18T13:28:58Z</time>
      </trkpt>
      <trkpt lat="49.93942" lon="1.13837">
        <ele>67.6</ele>
        <time>2020-06-18T13:28:59Z</time>
      </trkpt>
      <trkpt lat="49.93943" lon="1.13843">
        <ele>67.7</ele>
        <time>2020-06-18T13:29:00Z</time>
      </trkpt>
      <trkpt lat="49.93943" lon="1.13848">
        <ele>67.8</ele>
        <time>2020-06-18T13:29:01Z</time>
      </trkpt>
      <trkpt lat="49.93944" lon="1.13854">
        <ele>68</ele>
        <time>2020-06-18T13:29:02Z</time>
      </trkpt>
      <trkpt lat="49.93945" lon="1.13861">
        <ele>68.2</ele>
        <time>2020-06-18T13:29:03Z</time>
      </trkpt>
      <trkpt lat="49.93946" lon="1.13867">
        <ele>69.4</ele>
        <time>2020-06-18T13:29:04Z</time>
      </trkpt>
      <trkpt lat="49.93948" lon="1.13873">
        <ele>69.7</ele>
        <time>2020-06-18T13:29:05Z</time>
      </trkpt>
      <trkpt lat="49.93949" lon="1.13879">
        <ele>70</ele>
        <time>2020-06-18T13:29:06Z</time>
      </trkpt>
      <trkpt lat="49.93951" lon="1.13885">
        <ele>70.3</ele>
        <time>2020-06-18T13:29:07Z</time>
      </trkpt>
      <trkpt lat="49.93951" lon="1.13887">
        <ele>70.4</ele>
        <time>2020-06-18T13:29:08Z</time>
      </trkpt>
      <trkpt lat="49.93953" lon="1.1389">
        <ele>70.6</ele>
        <time>2020-06-18T13:29:09Z</time>
      </trkpt>
      <trkpt lat="49.93955" lon="1.13894">
        <ele>70.9</ele>
        <time>2020-06-18T13:29:10Z</time>
      </trkpt>
      <trkpt lat="49.93957" lon="1.139">
        <ele>71.2</ele>
        <time>2020-06-18T13:29:11Z</time>
      </trkpt>
      <trkpt lat="49.93959" lon="1.13903">
        <ele>71.3</ele>
        <time>2020-06-18T13:29:12Z</time>
      </trkpt>
      <trkpt lat="49.9396" lon="1.13908">
        <ele>71.6</ele>
        <time>2020-06-18T13:29:13Z</time>
      </trkpt>
      <trkpt lat="49.93961" lon="1.13913">
        <ele>71.8</ele>
        <time>2020-06-18T13:29:14Z</time>
      </trkpt>
      <trkpt lat="49.93963" lon="1.1392">
        <ele>72.1</ele>
        <time>2020-06-18T13:29:15Z</time>
      </trkpt>
      <trkpt lat="49.93964" lon="1.13926">
        <ele>72.4</ele>
        <time>2020-06-18T13:29:16Z</time>
      </trkpt>
      <trkpt lat="49.93966" lon="1.1393">
        <ele>72.6</ele>
        <time>2020-06-18T13:29:17Z</time>
      </trkpt>
      <trkpt lat="49.93968" lon="1.13935">
        <ele>72.9</ele>
        <time>2020-06-18T13:29:18Z</time>
      </trkpt>
      <trkpt lat="49.93969" lon="1.13939">
        <ele>73.1</ele>
        <time>2020-06-18T13:29:19Z</time>
      </trkpt>
      <trkpt lat="49.93972" lon="1.13943">
        <ele>73.4</ele>
        <time>2020-06-18T13:29:20Z</time>
      </trkpt>
      <trkpt lat="49.93974" lon="1.13947">
        <ele>73.6</ele>
        <time>2020-06-18T13:29:21Z</time>
      </trkpt>
      <trkpt lat="49.93976" lon="1.13951">
        <ele>73.9</ele>
        <time>2020-06-18T13:29:22Z</time>
      </trkpt>
      <trkpt lat="49.93979" lon="1.13954">
        <ele>74.1</ele>
        <time>2020-06-18T13:29:23Z</time>
      </trkpt>
      <trkpt lat="49.93981" lon="1.13957">
        <ele>74.3</ele>
        <time>2020-06-18T13:29:24Z</time>
      </trkpt>
      <trkpt lat="49.93984" lon="1.1396">
        <ele>74.5</ele>
        <time>2020-06-18T13:29:25Z</time>
      </trkpt>
      <trkpt lat="49.93987" lon="1.13963">
        <ele>74.7</ele>
        <time>2020-06-18T13:29:26Z</time>
      </trkpt>
      <trkpt lat="49.9399" lon="1.13966">
        <ele>75</ele>
        <time>2020-06-18T13:29:27Z</time>
      </trkpt>
      <trkpt lat="49.93993" lon="1.13968">
        <ele>75.2</ele>
        <time>2020-06-18T13:29:28Z</time>
      </trkpt>
      <trkpt lat="49.93997" lon="1.13971">
        <ele>75.5</ele>
        <time>2020-06-18T13:29:29Z</time>
      </trkpt>
      <trkpt lat="49.94001" lon="1.13974">
        <ele>75.7</ele>
        <time>2020-06-18T13:29:30Z</time>
      </trkpt>
      <trkpt lat="49.94003" lon="1.13977">
        <ele>75.9</ele>
        <time>2020-06-18T13:29:31Z</time>
      </trkpt>
      <trkpt lat="49.94006" lon="1.1398">
        <ele>76.1</ele>
        <time>2020-06-18T13:29:32Z</time>
      </trkpt>
      <trkpt lat="49.94009" lon="1.13983">
        <ele>76.3</ele>
        <time>2020-06-18T13:29:33Z</time>
      </trkpt>
      <trkpt lat="49.94012" lon="1.13985">
        <ele>76.5</ele>
        <time>2020-06-18T13:29:34Z</time>
      </trkpt>
      <trkpt lat="49.94014" lon="1.13989">
        <ele>76.7</ele>
        <time>2020-06-18T13:29:35Z</time>
      </trkpt>
      <trkpt lat="49.94017" lon="1.13994">
        <ele>76.9</ele>
        <time>2020-06-18T13:29:36Z</time>
      </trkpt>
      <trkpt lat="49.94018" lon="1.13996">
        <ele>76.9</ele>
        <time>2020-06-18T13:29:37Z</time>
      </trkpt>
      <trkpt lat="49.94021" lon="1.14">
        <ele>77.1</ele>
        <time>2020-06-18T13:29:38Z</time>
      </trkpt>
      <trkpt lat="49.94022" lon="1.14005">
        <ele>77.2</ele>
        <time>2020-06-18T13:29:39Z</time>
      </trkpt>
      <trkpt lat="49.94023" lon="1.1401">
        <ele>77.4</ele>
        <time>2020-06-18T13:29:40Z</time>
      </trkpt>
      <trkpt lat="49.94025" lon="1.14016">
        <ele>77.5</ele>
        <time>2020-06-18T13:29:41Z</time>
      </trkpt>
      <trkpt lat="49.94026" lon="1.14022">
        <ele>77.6</ele>
        <time>2020-06-18T13:29:42Z</time>
      </trkpt>
      <trkpt lat="49.94027" lon="1.14029">
        <ele>77.7</ele>
        <time>2020-06-18T13:29:43Z</time>
      </trkpt>
      <trkpt lat="49.94027" lon="1.14035">
        <ele>77.8</ele>
        <time>2020-06-18T13:29:44Z</time>
      </trkpt>
      <trkpt lat="49.94028" lon="1.1404">
        <ele>77.9</ele>
        <time>2020-06-18T13:29:45Z</time>
      </trkpt>
      <trkpt lat="49.94029" lon="1.14046">
        <ele>78</ele>
        <time>2020-06-18T13:29:46Z</time>
      </trkpt>
      <trkpt lat="49.9403" lon="1.14054">
        <ele>78.1</ele>
        <time>2020-06-18T13:29:47Z</time>
      </trkpt>
      <trkpt lat="49.9403" lon="1.14061">
        <ele>78.1</ele>
        <time>2020-06-18T13:29:48Z</time>
      </trkpt>
      <trkpt lat="49.94031" lon="1.14068">
        <ele>78.2</ele>
        <time>2020-06-18T13:29:49Z</time>
      </trkpt>
      <trkpt lat="49.94031" lon="1.14074">
        <ele>78.3</ele>
        <time>2020-06-18T13:29:50Z</time>
      </trkpt>
      <trkpt lat="49.94032" lon="1.1408">
        <ele>78.4</ele>
        <time>2020-06-18T13:29:51Z</time>
      </trkpt>
      <trkpt lat="49.94033" lon="1.14086">
        <ele>78.4</ele>
        <time>2020-06-18T13:29:52Z</time>
      </trkpt>
      <trkpt lat="49.94034" lon="1.14093">
        <ele>78.5</ele>
        <time>2020-06-18T13:29:53Z</time>
      </trkpt>
      <trkpt lat="49.94036" lon="1.141">
        <ele>78.6</ele>
        <time>2020-06-18T13:29:54Z</time>
      </trkpt>
      <trkpt lat="49.94037" lon="1.14106">
        <ele>78.7</ele>
        <time>2020-06-18T13:29:55Z</time>
      </trkpt>
      <trkpt lat="49.94037" lon="1.14112">
        <ele>78.7</ele>
        <time>2020-06-18T13:29:56Z</time>
      </trkpt>
      <trkpt lat="49.94038" lon="1.14118">
        <ele>78.8</ele>
        <time>2020-06-18T13:29:57Z</time>
      </trkpt>
      <trkpt lat="49.94038" lon="1.14127">
        <ele>78.9</ele>
        <time>2020-06-18T13:29:58Z</time>
      </trkpt>
      <trkpt lat="49.94038" lon="1.14134">
        <ele>79</ele>
        <time>2020-06-18T13:29:59Z</time>
      </trkpt>
      <trkpt lat="49.94038" lon="1.14139">
        <ele>79.1</ele>
        <time>2020-06-18T13:30:00Z</time>
      </trkpt>
      <trkpt lat="49.94038" lon="1.14145">
        <ele>79.1</ele>
        <time>2020-06-18T13:30:01Z</time>
      </trkpt>
      <trkpt lat="49.94039" lon="1.14152">
        <ele>79.2</ele>
        <time>2020-06-18T13:30:02Z</time>
      </trkpt>
      <trkpt lat="49.94038" lon="1.14159">
        <ele>79.2</ele>
        <time>2020-06-18T13:30:03Z</time>
      </trkpt>
      <trkpt lat="49.94039" lon="1.14166">
        <ele>79.3</ele>
        <time>2020-06-18T13:30:04Z</time>
      </trkpt>
      <trkpt lat="49.94038" lon="1.14175">
        <ele>79.4</ele>
        <time>2020-06-18T13:30:05Z</time>
      </trkpt>
      <trkpt lat="49.94038" lon="1.14183">
        <ele>79.5</ele>
        <time>2020-06-18T13:30:06Z</time>
      </trkpt>
      <trkpt lat="49.94038" lon="1.14189">
        <ele>79.5</ele>
        <time>2020-06-18T13:30:07Z</time>
      </trkpt>
      <trkpt lat="49.94038" lon="1.14197">
        <ele>79.6</ele>
        <time>2020-06-18T13:30:08Z</time>
      </trkpt>
      <trkpt lat="49.94037" lon="1.14204">
        <ele>79.6</ele>
        <time>2020-06-18T13:30:09Z</time>
      </trkpt>
      <trkpt lat="49.94037" lon="1.14211">
        <ele>79.7</ele>
        <time>2020-06-18T13:30:10Z</time>
      </trkpt>
      <trkpt lat="49.94037" lon="1.14218">
        <ele>79.7</ele>
        <time>2020-06-18T13:30:11Z</time>
      </trkpt>
      <trkpt lat="49.94037" lon="1.14225">
        <ele>79.8</ele>
        <time>2020-06-18T13:30:12Z</time>
      </trkpt>
      <trkpt lat="49.94038" lon="1.14233">
        <ele>79.8</ele>
        <time>2020-06-18T13:30:13Z</time>
      </trkpt>
      <trkpt lat="49.94038" lon="1.1424">
        <ele>79.9</ele>
        <time>2020-06-18T13:30:14Z</time>
      </trkpt>
      <trkpt lat="49.94039" lon="1.14247">
        <ele>80</ele>
        <time>2020-06-18T13:30:15Z</time>
      </trkpt>
      <trkpt lat="49.94039" lon="1.14255">
        <ele>80</ele>
        <time>2020-06-18T13:30:16Z</time>
      </trkpt>
      <trkpt lat="49.9404" lon="1.14263">
        <ele>80.1</ele>
        <time>2020-06-18T13:30:17Z</time>
      </trkpt>
      <trkpt lat="49.9404" lon="1.1427">
        <ele>80.2</ele>
        <time>2020-06-18T13:30:18Z</time>
      </trkpt>
      <trkpt lat="49.94041" lon="1.14277">
        <ele>80.2</ele>
        <time>2020-06-18T13:30:19Z</time>
      </trkpt>
      <trkpt lat="49.94041" lon="1.14283">
        <ele>80.3</ele>
        <time>2020-06-18T13:30:20Z</time>
      </trkpt>
      <trkpt lat="49.94042" lon="1.14289">
        <ele>80.3</ele>
        <time>2020-06-18T13:30:21Z</time>
      </trkpt>
      <trkpt lat="49.94043" lon="1.14296">
        <ele>80.4</ele>
        <time>2020-06-18T13:30:22Z</time>
      </trkpt>
      <trkpt lat="49.94044" lon="1.14302">
        <ele>80.4</ele>
        <time>2020-06-18T13:30:23Z</time>
      </trkpt>
      <trkpt lat="49.94044" lon="1.14309">
        <ele>80.5</ele>
        <time>2020-06-18T13:30:24Z</time>
      </trkpt>
      <trkpt lat="49.94045" lon="1.14315">
        <ele>80.5</ele>
        <time>2020-06-18T13:30:25Z</time>
      </trkpt>
      <trkpt lat="49.94045" lon="1.14322">
        <ele>80.6</ele>
        <time>2020-06-18T13:30:26Z</time>
      </trkpt>
      <trkpt lat="49.94046" lon="1.1433">
        <ele>80.7</ele>
        <time>2020-06-18T13:30:27Z</time>
      </trkpt>
      <trkpt lat="49.94047" lon="1.14338">
        <ele>80.8</ele>
        <time>2020-06-18T13:30:28Z</time>
      </trkpt>
      <trkpt lat="49.94048" lon="1.14345">
        <ele>80.8</ele>
        <time>2020-06-18T13:30:29Z</time>
      </trkpt>
      <trkpt lat="49.94048" lon="1.14352">
        <ele>80.9</ele>
        <time>2020-06-18T13:30:30Z</time>
      </trkpt>
      <trkpt lat="49.94049" lon="1.14359">
        <ele>80.9</ele>
        <time>2020-06-18T13:30:31Z</time>
      </trkpt>
      <trkpt lat="49.9405" lon="1.14365">
        <ele>80.9</ele>
        <time>2020-06-18T13:30:32Z</time>
      </trkpt>
      <trkpt lat="49.9405" lon="1.14371">
        <ele>81</ele>
        <time>2020-06-18T13:30:33Z</time>
      </trkpt>
      <trkpt lat="49.94051" lon="1.14377">
        <ele>81</ele>
        <time>2020-06-18T13:30:34Z</time>
      </trkpt>
      <trkpt lat="49.94052" lon="1.14384">
        <ele>81</ele>
        <time>2020-06-18T13:30:35Z</time>
      </trkpt>
      <trkpt lat="49.94054" lon="1.14389">
        <ele>81</ele>
        <time>2020-06-18T13:30:36Z</time>
      </trkpt>
      <trkpt lat="49.94056" lon="1.14395">
        <ele>81.2</ele>
        <time>2020-06-18T13:30:37Z</time>
      </trkpt>
      <trkpt lat="49.94058" lon="1.14401">
        <ele>81.3</ele>
        <time>2020-06-18T13:30:38Z</time>
      </trkpt>
      <trkpt lat="49.9406" lon="1.14408">
        <ele>81.4</ele>
        <time>2020-06-18T13:30:39Z</time>
      </trkpt>
      <trkpt lat="49.94061" lon="1.14413">
        <ele>81.4</ele>
        <time>2020-06-18T13:30:40Z</time>
      </trkpt>
      <trkpt lat="49.94063" lon="1.14419">
        <ele>81.5</ele>
        <time>2020-06-18T13:30:41Z</time>
      </trkpt>
      <trkpt lat="49.94065" lon="1.14424">
        <ele>81.5</ele>
        <time>2020-06-18T13:30:42Z</time>
      </trkpt>
      <trkpt lat="49.94067" lon="1.1443">
        <ele>81.6</ele>
        <time>2020-06-18T13:30:43Z</time>
      </trkpt>
      <trkpt lat="49.94068" lon="1.14436">
        <ele>81.7</ele>
        <time>2020-06-18T13:30:44Z</time>
      </trkpt>
      <trkpt lat="49.94071" lon="1.14441">
        <ele>81.7</ele>
        <time>2020-06-18T13:30:45Z</time>
      </trkpt>
      <trkpt lat="49.94073" lon="1.14446">
        <ele>81.8</ele>
        <time>2020-06-18T13:30:46Z</time>
      </trkpt>
      <trkpt lat="49.94076" lon="1.14452">
        <ele>81.9</ele>
        <time>2020-06-18T13:30:47Z</time>
      </trkpt>
      <trkpt lat="49.94079" lon="1.14458">
        <ele>81.9</ele>
        <time>2020-06-18T13:30:48Z</time>
      </trkpt>
      <trkpt lat="49.94082" lon="1.14464">
        <ele>82</ele>
        <time>2020-06-18T13:30:49Z</time>
      </trkpt>
      <trkpt lat="49.94085" lon="1.1447">
        <ele>82.1</ele>
        <time>2020-06-18T13:30:50Z</time>
      </trkpt>
      <trkpt lat="49.94088" lon="1.14475">
        <ele>82.2</ele>
        <time>2020-06-18T13:30:51Z</time>
      </trkpt>
      <trkpt lat="49.9409" lon="1.1448">
        <ele>82.3</ele>
        <time>2020-06-18T13:30:52Z</time>
      </trkpt>
      <trkpt lat="49.94093" lon="1.14486">
        <ele>82.4</ele>
        <time>2020-06-18T13:30:53Z</time>
      </trkpt>
      <trkpt lat="49.94096" lon="1.1449">
        <ele>82.5</ele>
        <time>2020-06-18T13:30:54Z</time>
      </trkpt>
      <trkpt lat="49.94098" lon="1.14494">
        <ele>82.5</ele>
        <time>2020-06-18T13:30:55Z</time>
      </trkpt>
      <trkpt lat="49.94101" lon="1.14498">
        <ele>82.6</ele>
        <time>2020-06-18T13:30:56Z</time>
      </trkpt>
      <trkpt lat="49.94105" lon="1.14503">
        <ele>82.7</ele>
        <time>2020-06-18T13:30:57Z</time>
      </trkpt>
      <trkpt lat="49.94108" lon="1.14507">
        <ele>82.8</ele>
        <time>2020-06-18T13:30:58Z</time>
      </trkpt>
      <trkpt lat="49.94111" lon="1.1451">
        <ele>82.9</ele>
        <time>2020-06-18T13:30:59Z</time>
      </trkpt>
      <trkpt lat="49.94115" lon="1.14514">
        <ele>83</ele>
        <time>2020-06-18T13:31:00Z</time>
      </trkpt>
      <trkpt lat="49.94119" lon="1.14517">
        <ele>83.1</ele>
        <time>2020-06-18T13:31:01Z</time>
      </trkpt>
      <trkpt lat="49.94122" lon="1.1452">
        <ele>83.2</ele>
        <time>2020-06-18T13:31:02Z</time>
      </trkpt>
      <trkpt lat="49.94126" lon="1.14524">
        <ele>83.3</ele>
        <time>2020-06-18T13:31:03Z</time>
      </trkpt>
      <trkpt lat="49.94129" lon="1.14527">
        <ele>83.3</ele>
        <time>2020-06-18T13:31:04Z</time>
      </trkpt>
      <trkpt lat="49.94133" lon="1.1453">
        <ele>83.4</ele>
        <time>2020-06-18T13:31:05Z</time>
      </trkpt>
      <trkpt lat="49.94137" lon="1.14533">
        <ele>83.5</ele>
        <time>2020-06-18T13:31:06Z</time>
      </trkpt>
      <trkpt lat="49.94141" lon="1.14536">
        <ele>83.5</ele>
        <time>2020-06-18T13:31:07Z</time>
      </trkpt>
      <trkpt lat="49.94145" lon="1.1454">
        <ele>83.6</ele>
        <time>2020-06-18T13:31:08Z</time>
      </trkpt>
      <trkpt lat="49.94148" lon="1.14544">
        <ele>83.6</ele>
        <time>2020-06-18T13:31:09Z</time>
      </trkpt>
      <trkpt lat="49.94152" lon="1.14548">
        <ele>83.7</ele>
        <time>2020-06-18T13:31:10Z</time>
      </trkpt>
      <trkpt lat="49.94155" lon="1.14552">
        <ele>83.8</ele>
        <time>2020-06-18T13:31:11Z</time>
      </trkpt>
      <trkpt lat="49.94158" lon="1.14556">
        <ele>83.8</ele>
        <time>2020-06-18T13:31:12Z</time>
      </trkpt>
      <trkpt lat="49.94162" lon="1.14561">
        <ele>83.9</ele>
        <time>2020-06-18T13:31:13Z</time>
      </trkpt>
      <trkpt lat="49.94166" lon="1.14565">
        <ele>83.9</ele>
        <time>2020-06-18T13:31:14Z</time>
      </trkpt>
      <trkpt lat="49.94171" lon="1.1457">
        <ele>84</ele>
        <time>2020-06-18T13:31:15Z</time>
      </trkpt>
      <trkpt lat="49.94175" lon="1.14575">
        <ele>84</ele>
        <time>2020-06-18T13:31:16Z</time>
      </trkpt>
      <trkpt lat="49.94178" lon="1.14579">
        <ele>84.1</ele>
        <time>2020-06-18T13:31:17Z</time>
      </trkpt>
      <trkpt lat="49.94182" lon="1.14584">
        <ele>84.2</ele>
        <time>2020-06-18T13:31:18Z</time>
      </trkpt>
      <trkpt lat="49.94186" lon="1.14589">
        <ele>84.2</ele>
        <time>2020-06-18T13:31:19Z</time>
      </trkpt>
      <trkpt lat="49.94189" lon="1.14594">
        <ele>84.3</ele>
        <time>2020-06-18T13:31:20Z</time>
      </trkpt>
      <trkpt lat="49.94193" lon="1.14599">
        <ele>84.4</ele>
        <time>2020-06-18T13:31:21Z</time>
      </trkpt>
      <trkpt lat="49.94197" lon="1.14604">
        <ele>84.5</ele>
        <time>2020-06-18T13:31:22Z</time>
      </trkpt>
      <trkpt lat="49.942" lon="1.14609">
        <ele>84.5</ele>
        <time>2020-06-18T13:31:23Z</time>
      </trkpt>
      <trkpt lat="49.94203" lon="1.14613">
        <ele>84.6</ele>
        <time>2020-06-18T13:31:24Z</time>
      </trkpt>
      <trkpt lat="49.94206" lon="1.14617">
        <ele>84.7</ele>
        <time>2020-06-18T13:31:25Z</time>
      </trkpt>
      <trkpt lat="49.94209" lon="1.14622">
        <ele>84.7</ele>
        <time>2020-06-18T13:31:26Z</time>
      </trkpt>
      <trkpt lat="49.94212" lon="1.14626">
        <ele>84.8</ele>
        <time>2020-06-18T13:31:27Z</time>
      </trkpt>
      <trkpt lat="49.94215" lon="1.1463">
        <ele>84.8</ele>
        <time>2020-06-18T13:31:28Z</time>
      </trkpt>
      <trkpt lat="49.94218" lon="1.14636">
        <ele>84.9</ele>
        <time>2020-06-18T13:31:29Z</time>
      </trkpt>
      <trkpt lat="49.94221" lon="1.14641">
        <ele>85</ele>
        <time>2020-06-18T13:31:30Z</time>
      </trkpt>
      <trkpt lat="49.94224" lon="1.14646">
        <ele>85.1</ele>
        <time>2020-06-18T13:31:31Z</time>
      </trkpt>
      <trkpt lat="49.94227" lon="1.14652">
        <ele>85.1</ele>
        <time>2020-06-18T13:31:32Z</time>
      </trkpt>
      <trkpt lat="49.94229" lon="1.14659">
        <ele>85.2</ele>
        <time>2020-06-18T13:31:33Z</time>
      </trkpt>
      <trkpt lat="49.94231" lon="1.14666">
        <ele>85.3</ele>
        <time>2020-06-18T13:31:34Z</time>
      </trkpt>
      <trkpt lat="49.94233" lon="1.14672">
        <ele>85.3</ele>
        <time>2020-06-18T13:31:35Z</time>
      </trkpt>
      <trkpt lat="49.94235" lon="1.14679">
        <ele>85.4</ele>
        <time>2020-06-18T13:31:36Z</time>
      </trkpt>
      <trkpt lat="49.94237" lon="1.14685">
        <ele>85.4</ele>
        <time>2020-06-18T13:31:37Z</time>
      </trkpt>
      <trkpt lat="49.9424" lon="1.1469">
        <ele>85.4</ele>
        <time>2020-06-18T13:31:38Z</time>
      </trkpt>
      <trkpt lat="49.94242" lon="1.14694">
        <ele>85.5</ele>
        <time>2020-06-18T13:31:39Z</time>
      </trkpt>
      <trkpt lat="49.94244" lon="1.147">
        <ele>85.5</ele>
        <time>2020-06-18T13:31:40Z</time>
      </trkpt>
      <trkpt lat="49.94245" lon="1.14707">
        <ele>85.5</ele>
        <time>2020-06-18T13:31:41Z</time>
      </trkpt>
      <trkpt lat="49.94247" lon="1.14713">
        <ele>85.6</ele>
        <time>2020-06-18T13:31:42Z</time>
      </trkpt>
      <trkpt lat="49.94249" lon="1.14719">
        <ele>85.7</ele>
        <time>2020-06-18T13:31:43Z</time>
      </trkpt>
      <trkpt lat="49.9425" lon="1.14726">
        <ele>85.7</ele>
        <time>2020-06-18T13:31:44Z</time>
      </trkpt>
      <trkpt lat="49.94252" lon="1.14732">
        <ele>85.8</ele>
        <time>2020-06-18T13:31:45Z</time>
      </trkpt>
      <trkpt lat="49.94254" lon="1.14737">
        <ele>85.9</ele>
        <time>2020-06-18T13:31:46Z</time>
      </trkpt>
      <trkpt lat="49.94256" lon="1.14744">
        <ele>85.9</ele>
        <time>2020-06-18T13:31:47Z</time>
      </trkpt>
      <trkpt lat="49.94258" lon="1.14751">
        <ele>86</ele>
        <time>2020-06-18T13:31:48Z</time>
      </trkpt>
      <trkpt lat="49.9426" lon="1.14756">
        <ele>86.1</ele>
        <time>2020-06-18T13:31:49Z</time>
      </trkpt>
      <trkpt lat="49.94261" lon="1.14763">
        <ele>86.2</ele>
        <time>2020-06-18T13:31:50Z</time>
      </trkpt>
      <trkpt lat="49.94263" lon="1.14769">
        <ele>86.2</ele>
        <time>2020-06-18T13:31:51Z</time>
      </trkpt>
      <trkpt lat="49.94265" lon="1.14775">
        <ele>86.3</ele>
        <time>2020-06-18T13:31:52Z</time>
      </trkpt>
      <trkpt lat="49.94268" lon="1.14781">
        <ele>86.4</ele>
        <time>2020-06-18T13:31:53Z</time>
      </trkpt>
      <trkpt lat="49.94272" lon="1.14785">
        <ele>86.5</ele>
        <time>2020-06-18T13:31:54Z</time>
      </trkpt>
      <trkpt lat="49.94274" lon="1.1479">
        <ele>86.6</ele>
        <time>2020-06-18T13:31:55Z</time>
      </trkpt>
      <trkpt lat="49.94277" lon="1.14796">
        <ele>86.7</ele>
        <time>2020-06-18T13:31:56Z</time>
      </trkpt>
      <trkpt lat="49.94279" lon="1.14802">
        <ele>86.7</ele>
        <time>2020-06-18T13:31:57Z</time>
      </trkpt>
      <trkpt lat="49.94282" lon="1.14807">
        <ele>86.8</ele>
        <time>2020-06-18T13:31:58Z</time>
      </trkpt>
      <trkpt lat="49.94284" lon="1.14813">
        <ele>86.9</ele>
        <time>2020-06-18T13:31:59Z</time>
      </trkpt>
      <trkpt lat="49.94287" lon="1.14819">
        <ele>87</ele>
        <time>2020-06-18T13:32:00Z</time>
      </trkpt>
      <trkpt lat="49.94289" lon="1.14825">
        <ele>87.2</ele>
        <time>2020-06-18T13:32:01Z</time>
      </trkpt>
      <trkpt lat="49.94292" lon="1.14831">
        <ele>87.3</ele>
        <time>2020-06-18T13:32:02Z</time>
      </trkpt>
      <trkpt lat="49.94294" lon="1.14837">
        <ele>87.4</ele>
        <time>2020-06-18T13:32:03Z</time>
      </trkpt>
      <trkpt lat="49.94298" lon="1.14843">
        <ele>87.4</ele>
        <time>2020-06-18T13:32:04Z</time>
      </trkpt>
      <trkpt lat="49.94301" lon="1.14848">
        <ele>87.4</ele>
        <time>2020-06-18T13:32:05Z</time>
      </trkpt>
      <trkpt lat="49.94304" lon="1.14854">
        <ele>87.4</ele>
        <time>2020-06-18T13:32:06Z</time>
      </trkpt>
      <trkpt lat="49.94308" lon="1.14859">
        <ele>87.4</ele>
        <time>2020-06-18T13:32:07Z</time>
      </trkpt>
      <trkpt lat="49.94311" lon="1.14865">
        <ele>87.5</ele>
        <time>2020-06-18T13:32:08Z</time>
      </trkpt>
      <trkpt lat="49.94313" lon="1.1487">
        <ele>87.5</ele>
        <time>2020-06-18T13:32:09Z</time>
      </trkpt>
      <trkpt lat="49.94316" lon="1.14876">
        <ele>87.5</ele>
        <time>2020-06-18T13:32:10Z</time>
      </trkpt>
      <trkpt lat="49.94319" lon="1.14881">
        <ele>87.6</ele>
        <time>2020-06-18T13:32:11Z</time>
      </trkpt>
      <trkpt lat="49.94322" lon="1.14886">
        <ele>87.6</ele>
        <time>2020-06-18T13:32:12Z</time>
      </trkpt>
      <trkpt lat="49.94326" lon="1.14891">
        <ele>87.7</ele>
        <time>2020-06-18T13:32:13Z</time>
      </trkpt>
      <trkpt lat="49.94329" lon="1.14896">
        <ele>87.7</ele>
        <time>2020-06-18T13:32:14Z</time>
      </trkpt>
      <trkpt lat="49.94332" lon="1.14902">
        <ele>87.7</ele>
        <time>2020-06-18T13:32:15Z</time>
      </trkpt>
      <trkpt lat="49.94335" lon="1.14906">
        <ele>87.8</ele>
        <time>2020-06-18T13:32:16Z</time>
      </trkpt>
      <trkpt lat="49.94338" lon="1.14911">
        <ele>87.8</ele>
        <time>2020-06-18T13:32:17Z</time>
      </trkpt>
      <trkpt lat="49.94341" lon="1.14917">
        <ele>87.8</ele>
        <time>2020-06-18T13:32:18Z</time>
      </trkpt>
      <trkpt lat="49.94345" lon="1.14922">
        <ele>87.9</ele>
        <time>2020-06-18T13:32:19Z</time>
      </trkpt>
      <trkpt lat="49.94349" lon="1.14927">
        <ele>87.9</ele>
        <time>2020-06-18T13:32:20Z</time>
      </trkpt>
      <trkpt lat="49.94353" lon="1.14932">
        <ele>88</ele>
        <time>2020-06-18T13:32:21Z</time>
      </trkpt>
      <trkpt lat="49.94356" lon="1.14938">
        <ele>88</ele>
        <time>2020-06-18T13:32:22Z</time>
      </trkpt>
      <trkpt lat="49.94359" lon="1.14943">
        <ele>88</ele>
        <time>2020-06-18T13:32:23Z</time>
      </trkpt>
      <trkpt lat="49.94362" lon="1.14948">
        <ele>88</ele>
        <time>2020-06-18T13:32:24Z</time>
      </trkpt>
      <trkpt lat="49.94366" lon="1.14953">
        <ele>88</ele>
        <time>2020-06-18T13:32:25Z</time>
      </trkpt>
      <trkpt lat="49.9437" lon="1.14957">
        <ele>88</ele>
        <time>2020-06-18T13:32:26Z</time>
      </trkpt>
      <trkpt lat="49.94374" lon="1.14962">
        <ele>88.1</ele>
        <time>2020-06-18T13:32:27Z</time>
      </trkpt>
      <trkpt lat="49.94377" lon="1.14967">
        <ele>88.1</ele>
        <time>2020-06-18T13:32:28Z</time>
      </trkpt>
      <trkpt lat="49.94381" lon="1.14971">
        <ele>88.1</ele>
        <time>2020-06-18T13:32:29Z</time>
      </trkpt>
      <trkpt lat="49.94384" lon="1.14975">
        <ele>88.1</ele>
        <time>2020-06-18T13:32:30Z</time>
      </trkpt>
      <trkpt lat="49.94388" lon="1.14978">
        <ele>88.1</ele>
        <time>2020-06-18T13:32:31Z</time>
      </trkpt>
      <trkpt lat="49.94391" lon="1.14982">
        <ele>88.1</ele>
        <time>2020-06-18T13:32:32Z</time>
      </trkpt>
      <trkpt lat="49.94395" lon="1.14985">
        <ele>88.1</ele>
        <time>2020-06-18T13:32:33Z</time>
      </trkpt>
      <trkpt lat="49.94398" lon="1.14989">
        <ele>88.2</ele>
        <time>2020-06-18T13:32:34Z</time>
      </trkpt>
      <trkpt lat="49.944" lon="1.14992">
        <ele>88.2</ele>
        <time>2020-06-18T13:32:35Z</time>
      </trkpt>
      <trkpt lat="49.94403" lon="1.14996">
        <ele>88.2</ele>
        <time>2020-06-18T13:32:36Z</time>
      </trkpt>
      <trkpt lat="49.94405" lon="1.15001">
        <ele>88.2</ele>
        <time>2020-06-18T13:32:37Z</time>
      </trkpt>
      <trkpt lat="49.94408" lon="1.15005">
        <ele>88.3</ele>
        <time>2020-06-18T13:32:38Z</time>
      </trkpt>
      <trkpt lat="49.94412" lon="1.1501">
        <ele>88.3</ele>
        <time>2020-06-18T13:32:39Z</time>
      </trkpt>
      <trkpt lat="49.94415" lon="1.15014">
        <ele>88.3</ele>
        <time>2020-06-18T13:32:40Z</time>
      </trkpt>
      <trkpt lat="49.94419" lon="1.15019">
        <ele>88.4</ele>
        <time>2020-06-18T13:32:41Z</time>
      </trkpt>
      <trkpt lat="49.94422" lon="1.15024">
        <ele>88.4</ele>
        <time>2020-06-18T13:32:42Z</time>
      </trkpt>
      <trkpt lat="49.94426" lon="1.15029">
        <ele>88.4</ele>
        <time>2020-06-18T13:32:43Z</time>
      </trkpt>
      <trkpt lat="49.94429" lon="1.15035">
        <ele>88.5</ele>
        <time>2020-06-18T13:32:44Z</time>
      </trkpt>
      <trkpt lat="49.94432" lon="1.1504">
        <ele>88.5</ele>
        <time>2020-06-18T13:32:45Z</time>
      </trkpt>
      <trkpt lat="49.94437" lon="1.15045">
        <ele>88.5</ele>
        <time>2020-06-18T13:32:46Z</time>
      </trkpt>
      <trkpt lat="49.94441" lon="1.1505">
        <ele>88.5</ele>
        <time>2020-06-18T13:32:47Z</time>
      </trkpt>
      <trkpt lat="49.94445" lon="1.15056">
        <ele>88.5</ele>
        <time>2020-06-18T13:32:48Z</time>
      </trkpt>
      <trkpt lat="49.94448" lon="1.15061">
        <ele>88.6</ele>
        <time>2020-06-18T13:32:49Z</time>
      </trkpt>
      <trkpt lat="49.94452" lon="1.15066">
        <ele>88.6</ele>
        <time>2020-06-18T13:32:50Z</time>
      </trkpt>
      <trkpt lat="49.94454" lon="1.15071">
        <ele>88.6</ele>
        <time>2020-06-18T13:32:51Z</time>
      </trkpt>
      <trkpt lat="49.94458" lon="1.15076">
        <ele>88.7</ele>
        <time>2020-06-18T13:32:52Z</time>
      </trkpt>
      <trkpt lat="49.94461" lon="1.15081">
        <ele>88.7</ele>
        <time>2020-06-18T13:32:53Z</time>
      </trkpt>
      <trkpt lat="49.94465" lon="1.15087">
        <ele>88.7</ele>
        <time>2020-06-18T13:32:54Z</time>
      </trkpt>
      <trkpt lat="49.94469" lon="1.15093">
        <ele>88.7</ele>
        <time>2020-06-18T13:32:55Z</time>
      </trkpt>
      <trkpt lat="49.94472" lon="1.151">
        <ele>88.7</ele>
        <time>2020-06-18T13:32:56Z</time>
      </trkpt>
      <trkpt lat="49.94475" lon="1.15106">
        <ele>88.7</ele>
        <time>2020-06-18T13:32:57Z</time>
      </trkpt>
      <trkpt lat="49.94478" lon="1.15113">
        <ele>88.7</ele>
        <time>2020-06-18T13:32:58Z</time>
      </trkpt>
      <trkpt lat="49.94481" lon="1.15119">
        <ele>88.7</ele>
        <time>2020-06-18T13:32:59Z</time>
      </trkpt>
      <trkpt lat="49.94484" lon="1.15126">
        <ele>88.7</ele>
        <time>2020-06-18T13:33:00Z</time>
      </trkpt>
      <trkpt lat="49.94487" lon="1.15132">
        <ele>88.7</ele>
        <time>2020-06-18T13:33:01Z</time>
      </trkpt>
      <trkpt lat="49.9449" lon="1.15138">
        <ele>88.7</ele>
        <time>2020-06-18T13:33:02Z</time>
      </trkpt>
      <trkpt lat="49.94493" lon="1.15145">
        <ele>88.7</ele>
        <time>2020-06-18T13:33:03Z</time>
      </trkpt>
      <trkpt lat="49.94496" lon="1.15151">
        <ele>88.7</ele>
        <time>2020-06-18T13:33:04Z</time>
      </trkpt>
      <trkpt lat="49.94499" lon="1.15157">
        <ele>88.7</ele>
        <time>2020-06-18T13:33:05Z</time>
      </trkpt>
      <trkpt lat="49.94502" lon="1.15163">
        <ele>88.7</ele>
        <time>2020-06-18T13:33:06Z</time>
      </trkpt>
      <trkpt lat="49.94506" lon="1.15169">
        <ele>88.8</ele>
        <time>2020-06-18T13:33:07Z</time>
      </trkpt>
      <trkpt lat="49.9451" lon="1.15175">
        <ele>88.8</ele>
        <time>2020-06-18T13:33:08Z</time>
      </trkpt>
      <trkpt lat="49.94513" lon="1.15181">
        <ele>88.8</ele>
        <time>2020-06-18T13:33:09Z</time>
      </trkpt>
      <trkpt lat="49.94517" lon="1.15186">
        <ele>88.9</ele>
        <time>2020-06-18T13:33:10Z</time>
      </trkpt>
      <trkpt lat="49.94521" lon="1.15192">
        <ele>88.9</ele>
        <time>2020-06-18T13:33:11Z</time>
      </trkpt>
      <trkpt lat="49.94524" lon="1.15197">
        <ele>89</ele>
        <time>2020-06-18T13:33:12Z</time>
      </trkpt>
      <trkpt lat="49.94528" lon="1.15203">
        <ele>89</ele>
        <time>2020-06-18T13:33:13Z</time>
      </trkpt>
      <trkpt lat="49.94531" lon="1.15209">
        <ele>89.1</ele>
        <time>2020-06-18T13:33:14Z</time>
      </trkpt>
      <trkpt lat="49.94534" lon="1.15214">
        <ele>89.1</ele>
        <time>2020-06-18T13:33:15Z</time>
      </trkpt>
      <trkpt lat="49.94538" lon="1.15219">
        <ele>89.1</ele>
        <time>2020-06-18T13:33:16Z</time>
      </trkpt>
      <trkpt lat="49.94541" lon="1.15225">
        <ele>89.2</ele>
        <time>2020-06-18T13:33:17Z</time>
      </trkpt>
      <trkpt lat="49.94544" lon="1.1523">
        <ele>89.2</ele>
        <time>2020-06-18T13:33:18Z</time>
      </trkpt>
      <trkpt lat="49.94548" lon="1.15234">
        <ele>89.2</ele>
        <time>2020-06-18T13:33:19Z</time>
      </trkpt>
      <trkpt lat="49.94551" lon="1.15239">
        <ele>89.3</ele>
        <time>2020-06-18T13:33:20Z</time>
      </trkpt>
      <trkpt lat="49.94555" lon="1.15243">
        <ele>89.4</ele>
        <time>2020-06-18T13:33:21Z</time>
      </trkpt>
      <trkpt lat="49.94559" lon="1.15249">
        <ele>89.5</ele>
        <time>2020-06-18T13:33:22Z</time>
      </trkpt>
      <trkpt lat="49.94563" lon="1.15254">
        <ele>89.6</ele>
        <time>2020-06-18T13:33:23Z</time>
      </trkpt>
      <trkpt lat="49.94566" lon="1.15261">
        <ele>89.7</ele>
        <time>2020-06-18T13:33:24Z</time>
      </trkpt>
      <trkpt lat="49.9457" lon="1.15268">
        <ele>89.8</ele>
        <time>2020-06-18T13:33:25Z</time>
      </trkpt>
      <trkpt lat="49.94574" lon="1.15274">
        <ele>89.9</ele>
        <time>2020-06-18T13:33:26Z</time>
      </trkpt>
      <trkpt lat="49.94578" lon="1.15281">
        <ele>90</ele>
        <time>2020-06-18T13:33:27Z</time>
      </trkpt>
      <trkpt lat="49.94582" lon="1.15287">
        <ele>90</ele>
        <time>2020-06-18T13:33:28Z</time>
      </trkpt>
      <trkpt lat="49.94585" lon="1.15294">
        <ele>90.1</ele>
        <time>2020-06-18T13:33:29Z</time>
      </trkpt>
      <trkpt lat="49.94589" lon="1.153">
        <ele>90.1</ele>
        <time>2020-06-18T13:33:30Z</time>
      </trkpt>
      <trkpt lat="49.94593" lon="1.15306">
        <ele>90.2</ele>
        <time>2020-06-18T13:33:31Z</time>
      </trkpt>
      <trkpt lat="49.94596" lon="1.15311">
        <ele>90.2</ele>
        <time>2020-06-18T13:33:32Z</time>
      </trkpt>
      <trkpt lat="49.94599" lon="1.15316">
        <ele>90.3</ele>
        <time>2020-06-18T13:33:33Z</time>
      </trkpt>
      <trkpt lat="49.94603" lon="1.15322">
        <ele>90.4</ele>
        <time>2020-06-18T13:33:34Z</time>
      </trkpt>
      <trkpt lat="49.94606" lon="1.15328">
        <ele>90.5</ele>
        <time>2020-06-18T13:33:35Z</time>
      </trkpt>
      <trkpt lat="49.9461" lon="1.15333">
        <ele>90.6</ele>
        <time>2020-06-18T13:33:36Z</time>
      </trkpt>
      <trkpt lat="49.94613" lon="1.1534">
        <ele>90.7</ele>
        <time>2020-06-18T13:33:37Z</time>
      </trkpt>
      <trkpt lat="49.94617" lon="1.15346">
        <ele>90.8</ele>
        <time>2020-06-18T13:33:38Z</time>
      </trkpt>
      <trkpt lat="49.9462" lon="1.15352">
        <ele>90.9</ele>
        <time>2020-06-18T13:33:39Z</time>
      </trkpt>
      <trkpt lat="49.94623" lon="1.15358">
        <ele>91</ele>
        <time>2020-06-18T13:33:40Z</time>
      </trkpt>
      <trkpt lat="49.94626" lon="1.15364">
        <ele>91.1</ele>
        <time>2020-06-18T13:33:41Z</time>
      </trkpt>
      <trkpt lat="49.9463" lon="1.15371">
        <ele>91.2</ele>
        <time>2020-06-18T13:33:42Z</time>
      </trkpt>
      <trkpt lat="49.94633" lon="1.15378">
        <ele>91.3</ele>
        <time>2020-06-18T13:33:43Z</time>
      </trkpt>
      <trkpt lat="49.94636" lon="1.15384">
        <ele>91.3</ele>
        <time>2020-06-18T13:33:44Z</time>
      </trkpt>
      <trkpt lat="49.94639" lon="1.15389">
        <ele>91.4</ele>
        <time>2020-06-18T13:33:45Z</time>
      </trkpt>
      <trkpt lat="49.94643" lon="1.15395">
        <ele>91.5</ele>
        <time>2020-06-18T13:33:46Z</time>
      </trkpt>
      <trkpt lat="49.94646" lon="1.15401">
        <ele>91.5</ele>
        <time>2020-06-18T13:33:47Z</time>
      </trkpt>
      <trkpt lat="49.94649" lon="1.15407">
        <ele>91.6</ele>
        <time>2020-06-18T13:33:48Z</time>
      </trkpt>
      <trkpt lat="49.94652" lon="1.15414">
        <ele>91.7</ele>
        <time>2020-06-18T13:33:49Z</time>
      </trkpt>
      <trkpt lat="49.94655" lon="1.1542">
        <ele>91.8</ele>
        <time>2020-06-18T13:33:50Z</time>
      </trkpt>
      <trkpt lat="49.94658" lon="1.15428">
        <ele>91.9</ele>
        <time>2020-06-18T13:33:51Z</time>
      </trkpt>
      <trkpt lat="49.94661" lon="1.15435">
        <ele>92.1</ele>
        <time>2020-06-18T13:33:52Z</time>
      </trkpt>
      <trkpt lat="49.94664" lon="1.15442">
        <ele>92.2</ele>
        <time>2020-06-18T13:33:53Z</time>
      </trkpt>
      <trkpt lat="49.94666" lon="1.15448">
        <ele>92.4</ele>
        <time>2020-06-18T13:33:54Z</time>
      </trkpt>
      <trkpt lat="49.94669" lon="1.15454">
        <ele>92.5</ele>
        <time>2020-06-18T13:33:55Z</time>
      </trkpt>
      <trkpt lat="49.94672" lon="1.15459">
        <ele>92.6</ele>
        <time>2020-06-18T13:33:56Z</time>
      </trkpt>
      <trkpt lat="49.94675" lon="1.15465">
        <ele>92.8</ele>
        <time>2020-06-18T13:33:57Z</time>
      </trkpt>
      <trkpt lat="49.94678" lon="1.15471">
        <ele>92.9</ele>
        <time>2020-06-18T13:33:58Z</time>
      </trkpt>
      <trkpt lat="49.94681" lon="1.15477">
        <ele>93</ele>
        <time>2020-06-18T13:33:59Z</time>
      </trkpt>
      <trkpt lat="49.94684" lon="1.15483">
        <ele>93</ele>
        <time>2020-06-18T13:34:00Z</time>
      </trkpt>
      <trkpt lat="49.94688" lon="1.1549">
        <ele>93.1</ele>
        <time>2020-06-18T13:34:01Z</time>
      </trkpt>
      <trkpt lat="49.94691" lon="1.15497">
        <ele>93.2</ele>
        <time>2020-06-18T13:34:02Z</time>
      </trkpt>
      <trkpt lat="49.94695" lon="1.15503">
        <ele>93.3</ele>
        <time>2020-06-18T13:34:03Z</time>
      </trkpt>
      <trkpt lat="49.94698" lon="1.15509">
        <ele>93.4</ele>
        <time>2020-06-18T13:34:04Z</time>
      </trkpt>
      <trkpt lat="49.94701" lon="1.15515">
        <ele>93.4</ele>
        <time>2020-06-18T13:34:05Z</time>
      </trkpt>
      <trkpt lat="49.94704" lon="1.15521">
        <ele>93.4</ele>
        <time>2020-06-18T13:34:06Z</time>
      </trkpt>
      <trkpt lat="49.94707" lon="1.15527">
        <ele>93.5</ele>
        <time>2020-06-18T13:34:07Z</time>
      </trkpt>
      <trkpt lat="49.9471" lon="1.15533">
        <ele>93.5</ele>
        <time>2020-06-18T13:34:08Z</time>
      </trkpt>
      <trkpt lat="49.94713" lon="1.15539">
        <ele>93.6</ele>
        <time>2020-06-18T13:34:09Z</time>
      </trkpt>
      <trkpt lat="49.94717" lon="1.15546">
        <ele>93.6</ele>
        <time>2020-06-18T13:34:10Z</time>
      </trkpt>
      <trkpt lat="49.9472" lon="1.15552">
        <ele>93.7</ele>
        <time>2020-06-18T13:34:11Z</time>
      </trkpt>
      <trkpt lat="49.94723" lon="1.15558">
        <ele>93.7</ele>
        <time>2020-06-18T13:34:12Z</time>
      </trkpt>
      <trkpt lat="49.94726" lon="1.15564">
        <ele>93.8</ele>
        <time>2020-06-18T13:34:13Z</time>
      </trkpt>
      <trkpt lat="49.94729" lon="1.1557">
        <ele>93.9</ele>
        <time>2020-06-18T13:34:14Z</time>
      </trkpt>
      <trkpt lat="49.94733" lon="1.15577">
        <ele>93.9</ele>
        <time>2020-06-18T13:34:15Z</time>
      </trkpt>
      <trkpt lat="49.94736" lon="1.15585">
        <ele>94</ele>
        <time>2020-06-18T13:34:16Z</time>
      </trkpt>
      <trkpt lat="49.94739" lon="1.15592">
        <ele>94</ele>
        <time>2020-06-18T13:34:17Z</time>
      </trkpt>
      <trkpt lat="49.94741" lon="1.15599">
        <ele>94</ele>
        <time>2020-06-18T13:34:18Z</time>
      </trkpt>
      <trkpt lat="49.94744" lon="1.15606">
        <ele>94</ele>
        <time>2020-06-18T13:34:19Z</time>
      </trkpt>
      <trkpt lat="49.94746" lon="1.15613">
        <ele>94</ele>
        <time>2020-06-18T13:34:20Z</time>
      </trkpt>
      <trkpt lat="49.94749" lon="1.1562">
        <ele>94</ele>
        <time>2020-06-18T13:34:21Z</time>
      </trkpt>
      <trkpt lat="49.94751" lon="1.15626">
        <ele>94</ele>
        <time>2020-06-18T13:34:22Z</time>
      </trkpt>
      <trkpt lat="49.94754" lon="1.15633">
        <ele>94</ele>
        <time>2020-06-18T13:34:23Z</time>
      </trkpt>
      <trkpt lat="49.94757" lon="1.1564">
        <ele>94</ele>
        <time>2020-06-18T13:34:24Z</time>
      </trkpt>
      <trkpt lat="49.94759" lon="1.15647">
        <ele>94</ele>
        <time>2020-06-18T13:34:25Z</time>
      </trkpt>
      <trkpt lat="49.94761" lon="1.15655">
        <ele>94</ele>
        <time>2020-06-18T13:34:26Z</time>
      </trkpt>
      <trkpt lat="49.94763" lon="1.15663">
        <ele>94</ele>
        <time>2020-06-18T13:34:27Z</time>
      </trkpt>
      <trkpt lat="49.94765" lon="1.15671">
        <ele>94</ele>
        <time>2020-06-18T13:34:28Z</time>
      </trkpt>
      <trkpt lat="49.94767" lon="1.15679">
        <ele>93.9</ele>
        <time>2020-06-18T13:34:29Z</time>
      </trkpt>
      <trkpt lat="49.94768" lon="1.15688">
        <ele>93.9</ele>
        <time>2020-06-18T13:34:30Z</time>
      </trkpt>
      <trkpt lat="49.9477" lon="1.15695">
        <ele>93.9</ele>
        <time>2020-06-18T13:34:31Z</time>
      </trkpt>
      <trkpt lat="49.94771" lon="1.15702">
        <ele>93.9</ele>
        <time>2020-06-18T13:34:32Z</time>
      </trkpt>
      <trkpt lat="49.94773" lon="1.1571">
        <ele>93.9</ele>
        <time>2020-06-18T13:34:33Z</time>
      </trkpt>
      <trkpt lat="49.94775" lon="1.15718">
        <ele>94</ele>
        <time>2020-06-18T13:34:34Z</time>
      </trkpt>
      <trkpt lat="49.94776" lon="1.15725">
        <ele>94</ele>
        <time>2020-06-18T13:34:35Z</time>
      </trkpt>
      <trkpt lat="49.94777" lon="1.15734">
        <ele>94</ele>
        <time>2020-06-18T13:34:36Z</time>
      </trkpt>
      <trkpt lat="49.94778" lon="1.15742">
        <ele>94.1</ele>
        <time>2020-06-18T13:34:37Z</time>
      </trkpt>
      <trkpt lat="49.94779" lon="1.1575">
        <ele>94.1</ele>
        <time>2020-06-18T13:34:38Z</time>
      </trkpt>
      <trkpt lat="49.94781" lon="1.15758">
        <ele>94.1</ele>
        <time>2020-06-18T13:34:39Z</time>
      </trkpt>
      <trkpt lat="49.94782" lon="1.15766">
        <ele>94.2</ele>
        <time>2020-06-18T13:34:40Z</time>
      </trkpt>
      <trkpt lat="49.94783" lon="1.15773">
        <ele>94.2</ele>
        <time>2020-06-18T13:34:41Z</time>
      </trkpt>
      <trkpt lat="49.94784" lon="1.15782">
        <ele>94.2</ele>
        <time>2020-06-18T13:34:42Z</time>
      </trkpt>
      <trkpt lat="49.94786" lon="1.1579">
        <ele>94.2</ele>
        <time>2020-06-18T13:34:43Z</time>
      </trkpt>
      <trkpt lat="49.94788" lon="1.15798">
        <ele>94.3</ele>
        <time>2020-06-18T13:34:44Z</time>
      </trkpt>
      <trkpt lat="49.94789" lon="1.15806">
        <ele>94.3</ele>
        <time>2020-06-18T13:34:45Z</time>
      </trkpt>
      <trkpt lat="49.94791" lon="1.15813">
        <ele>94.4</ele>
        <time>2020-06-18T13:34:46Z</time>
      </trkpt>
      <trkpt lat="49.94792" lon="1.15821">
        <ele>94.4</ele>
        <time>2020-06-18T13:34:47Z</time>
      </trkpt>
      <trkpt lat="49.94794" lon="1.1583">
        <ele>94.5</ele>
        <time>2020-06-18T13:34:48Z</time>
      </trkpt>
      <trkpt lat="49.94796" lon="1.15837">
        <ele>94.6</ele>
        <time>2020-06-18T13:34:49Z</time>
      </trkpt>
      <trkpt lat="49.94798" lon="1.15844">
        <ele>94.6</ele>
        <time>2020-06-18T13:34:50Z</time>
      </trkpt>
      <trkpt lat="49.948" lon="1.15852">
        <ele>94.7</ele>
        <time>2020-06-18T13:34:51Z</time>
      </trkpt>
      <trkpt lat="49.94801" lon="1.1586">
        <ele>94.8</ele>
        <time>2020-06-18T13:34:52Z</time>
      </trkpt>
      <trkpt lat="49.94803" lon="1.15868">
        <ele>94.8</ele>
        <time>2020-06-18T13:34:53Z</time>
      </trkpt>
      <trkpt lat="49.94805" lon="1.15875">
        <ele>94.9</ele>
        <time>2020-06-18T13:34:54Z</time>
      </trkpt>
      <trkpt lat="49.94807" lon="1.15883">
        <ele>94.9</ele>
        <time>2020-06-18T13:34:55Z</time>
      </trkpt>
      <trkpt lat="49.94809" lon="1.1589">
        <ele>95</ele>
        <time>2020-06-18T13:34:56Z</time>
      </trkpt>
      <trkpt lat="49.94812" lon="1.15896">
        <ele>95</ele>
        <time>2020-06-18T13:34:57Z</time>
      </trkpt>
      <trkpt lat="49.94814" lon="1.15904">
        <ele>95.1</ele>
        <time>2020-06-18T13:34:58Z</time>
      </trkpt>
      <trkpt lat="49.94816" lon="1.15911">
        <ele>95.1</ele>
        <time>2020-06-18T13:34:59Z</time>
      </trkpt>
      <trkpt lat="49.94818" lon="1.15919">
        <ele>95.1</ele>
        <time>2020-06-18T13:35:00Z</time>
      </trkpt>
      <trkpt lat="49.94821" lon="1.15927">
        <ele>95.2</ele>
        <time>2020-06-18T13:35:01Z</time>
      </trkpt>
      <trkpt lat="49.94823" lon="1.15935">
        <ele>95.2</ele>
        <time>2020-06-18T13:35:02Z</time>
      </trkpt>
      <trkpt lat="49.94825" lon="1.15942">
        <ele>95.3</ele>
        <time>2020-06-18T13:35:03Z</time>
      </trkpt>
      <trkpt lat="49.94827" lon="1.1595">
        <ele>95.4</ele>
        <time>2020-06-18T13:35:04Z</time>
      </trkpt>
      <trkpt lat="49.94828" lon="1.15959">
        <ele>95.4</ele>
        <time>2020-06-18T13:35:05Z</time>
      </trkpt>
      <trkpt lat="49.9483" lon="1.15966">
        <ele>95.5</ele>
        <time>2020-06-18T13:35:06Z</time>
      </trkpt>
      <trkpt lat="49.94832" lon="1.15975">
        <ele>95.6</ele>
        <time>2020-06-18T13:35:07Z</time>
      </trkpt>
      <trkpt lat="49.94833" lon="1.15984">
        <ele>95.7</ele>
        <time>2020-06-18T13:35:08Z</time>
      </trkpt>
      <trkpt lat="49.94835" lon="1.15993">
        <ele>95.8</ele>
        <time>2020-06-18T13:35:09Z</time>
      </trkpt>
      <trkpt lat="49.94837" lon="1.16001">
        <ele>95.9</ele>
        <time>2020-06-18T13:35:10Z</time>
      </trkpt>
      <trkpt lat="49.94839" lon="1.1601">
        <ele>96</ele>
        <time>2020-06-18T13:35:11Z</time>
      </trkpt>
      <trkpt lat="49.9484" lon="1.16019">
        <ele>96.1</ele>
        <time>2020-06-18T13:35:12Z</time>
      </trkpt>
      <trkpt lat="49.94843" lon="1.16029">
        <ele>96.3</ele>
        <time>2020-06-18T13:35:13Z</time>
      </trkpt>
      <trkpt lat="49.94845" lon="1.16038">
        <ele>96.5</ele>
        <time>2020-06-18T13:35:14Z</time>
      </trkpt>
      <trkpt lat="49.94847" lon="1.16047">
        <ele>96.7</ele>
        <time>2020-06-18T13:35:15Z</time>
      </trkpt>
      <trkpt lat="49.94849" lon="1.16056">
        <ele>96.8</ele>
        <time>2020-06-18T13:35:16Z</time>
      </trkpt>
      <trkpt lat="49.94851" lon="1.16066">
        <ele>97</ele>
        <time>2020-06-18T13:35:17Z</time>
      </trkpt>
      <trkpt lat="49.94853" lon="1.16075">
        <ele>97.1</ele>
        <time>2020-06-18T13:35:18Z</time>
      </trkpt>
      <trkpt lat="49.94854" lon="1.16083">
        <ele>97.2</ele>
        <time>2020-06-18T13:35:19Z</time>
      </trkpt>
      <trkpt lat="49.94856" lon="1.16093">
        <ele>97.3</ele>
        <time>2020-06-18T13:35:20Z</time>
      </trkpt>
      <trkpt lat="49.94857" lon="1.16101">
        <ele>97.4</ele>
        <time>2020-06-18T13:35:21Z</time>
      </trkpt>
      <trkpt lat="49.94859" lon="1.1611">
        <ele>97.6</ele>
        <time>2020-06-18T13:35:22Z</time>
      </trkpt>
      <trkpt lat="49.94861" lon="1.16118">
        <ele>97.6</ele>
        <time>2020-06-18T13:35:23Z</time>
      </trkpt>
      <trkpt lat="49.94863" lon="1.16127">
        <ele>97.8</ele>
        <time>2020-06-18T13:35:24Z</time>
      </trkpt>
      <trkpt lat="49.94864" lon="1.16136">
        <ele>97.9</ele>
        <time>2020-06-18T13:35:25Z</time>
      </trkpt>
      <trkpt lat="49.94867" lon="1.16145">
        <ele>98</ele>
        <time>2020-06-18T13:35:26Z</time>
      </trkpt>
      <trkpt lat="49.94869" lon="1.16154">
        <ele>98.1</ele>
        <time>2020-06-18T13:35:27Z</time>
      </trkpt>
      <trkpt lat="49.9487" lon="1.16162">
        <ele>98.2</ele>
        <time>2020-06-18T13:35:28Z</time>
      </trkpt>
      <trkpt lat="49.94871" lon="1.1617">
        <ele>98.2</ele>
        <time>2020-06-18T13:35:29Z</time>
      </trkpt>
      <trkpt lat="49.94872" lon="1.16179">
        <ele>98.3</ele>
        <time>2020-06-18T13:35:30Z</time>
      </trkpt>
      <trkpt lat="49.94874" lon="1.16188">
        <ele>98.4</ele>
        <time>2020-06-18T13:35:31Z</time>
      </trkpt>
      <trkpt lat="49.94875" lon="1.16197">
        <ele>98.4</ele>
        <time>2020-06-18T13:35:32Z</time>
      </trkpt>
      <trkpt lat="49.94877" lon="1.16206">
        <ele>98.5</ele>
        <time>2020-06-18T13:35:33Z</time>
      </trkpt>
      <trkpt lat="49.94879" lon="1.16213">
        <ele>98.5</ele>
        <time>2020-06-18T13:35:34Z</time>
      </trkpt>
      <trkpt lat="49.94881" lon="1.16222">
        <ele>98.6</ele>
        <time>2020-06-18T13:35:35Z</time>
      </trkpt>
      <trkpt lat="49.94882" lon="1.16231">
        <ele>98.7</ele>
        <time>2020-06-18T13:35:36Z</time>
      </trkpt>
      <trkpt lat="49.94883" lon="1.16239">
        <ele>98.7</ele>
        <time>2020-06-18T13:35:37Z</time>
      </trkpt>
      <trkpt lat="49.94884" lon="1.16246">
        <ele>98.8</ele>
        <time>2020-06-18T13:35:38Z</time>
      </trkpt>
      <trkpt lat="49.94885" lon="1.16253">
        <ele>98.9</ele>
        <time>2020-06-18T13:35:39Z</time>
      </trkpt>
      <trkpt lat="49.94886" lon="1.1626">
        <ele>98.9</ele>
        <time>2020-06-18T13:35:40Z</time>
      </trkpt>
      <trkpt lat="49.94887" lon="1.16267">
        <ele>99</ele>
        <time>2020-06-18T13:35:41Z</time>
      </trkpt>
      <trkpt lat="49.94888" lon="1.16273">
        <ele>99.1</ele>
        <time>2020-06-18T13:35:42Z</time>
      </trkpt>
      <trkpt lat="49.94889" lon="1.1628">
        <ele>99.1</ele>
        <time>2020-06-18T13:35:43Z</time>
      </trkpt>
      <trkpt lat="49.9489" lon="1.16288">
        <ele>99.2</ele>
        <time>2020-06-18T13:35:44Z</time>
      </trkpt>
      <trkpt lat="49.94891" lon="1.16295">
        <ele>99.3</ele>
        <time>2020-06-18T13:35:45Z</time>
      </trkpt>
      <trkpt lat="49.94892" lon="1.16303">
        <ele>99.3</ele>
        <time>2020-06-18T13:35:46Z</time>
      </trkpt>
      <trkpt lat="49.94894" lon="1.16312">
        <ele>99.4</ele>
        <time>2020-06-18T13:35:47Z</time>
      </trkpt>
      <trkpt lat="49.94896" lon="1.1632">
        <ele>99.4</ele>
        <time>2020-06-18T13:35:48Z</time>
      </trkpt>
      <trkpt lat="49.94898" lon="1.16329">
        <ele>99.5</ele>
        <time>2020-06-18T13:35:49Z</time>
      </trkpt>
      <trkpt lat="49.94899" lon="1.16339">
        <ele>99.5</ele>
        <time>2020-06-18T13:35:50Z</time>
      </trkpt>
      <trkpt lat="49.94901" lon="1.16348">
        <ele>99.5</ele>
        <time>2020-06-18T13:35:51Z</time>
      </trkpt>
      <trkpt lat="49.94904" lon="1.16357">
        <ele>99.5</ele>
        <time>2020-06-18T13:35:52Z</time>
      </trkpt>
      <trkpt lat="49.94906" lon="1.16366">
        <ele>99.6</ele>
        <time>2020-06-18T13:35:53Z</time>
      </trkpt>
      <trkpt lat="49.94908" lon="1.16373">
        <ele>99.6</ele>
        <time>2020-06-18T13:35:54Z</time>
      </trkpt>
      <trkpt lat="49.94909" lon="1.16381">
        <ele>99.6</ele>
        <time>2020-06-18T13:35:55Z</time>
      </trkpt>
      <trkpt lat="49.94911" lon="1.1639">
        <ele>99.6</ele>
        <time>2020-06-18T13:35:56Z</time>
      </trkpt>
      <trkpt lat="49.94913" lon="1.16399">
        <ele>99.7</ele>
        <time>2020-06-18T13:35:57Z</time>
      </trkpt>
      <trkpt lat="49.94914" lon="1.16408">
        <ele>99.7</ele>
        <time>2020-06-18T13:35:58Z</time>
      </trkpt>
      <trkpt lat="49.94916" lon="1.16417">
        <ele>99.7</ele>
        <time>2020-06-18T13:35:59Z</time>
      </trkpt>
      <trkpt lat="49.94918" lon="1.16426">
        <ele>99.7</ele>
        <time>2020-06-18T13:36:00Z</time>
      </trkpt>
      <trkpt lat="49.9492" lon="1.16434">
        <ele>99.6</ele>
        <time>2020-06-18T13:36:01Z</time>
      </trkpt>
      <trkpt lat="49.94921" lon="1.16442">
        <ele>99.5</ele>
        <time>2020-06-18T13:36:02Z</time>
      </trkpt>
      <trkpt lat="49.94922" lon="1.16448">
        <ele>99.4</ele>
        <time>2020-06-18T13:36:03Z</time>
      </trkpt>
      <trkpt lat="49.94921" lon="1.16455">
        <ele>99.3</ele>
        <time>2020-06-18T13:36:04Z</time>
      </trkpt>
      <trkpt lat="49.94921" lon="1.16462">
        <ele>99.3</ele>
        <time>2020-06-18T13:36:05Z</time>
      </trkpt>
      <trkpt lat="49.94922" lon="1.16469">
        <ele>99.3</ele>
        <time>2020-06-18T13:36:06Z</time>
      </trkpt>
      <trkpt lat="49.94924" lon="1.16476">
        <ele>99.3</ele>
        <time>2020-06-18T13:36:07Z</time>
      </trkpt>
      <trkpt lat="49.94926" lon="1.16484">
        <ele>99.3</ele>
        <time>2020-06-18T13:36:08Z</time>
      </trkpt>
      <trkpt lat="49.94928" lon="1.16492">
        <ele>99.3</ele>
        <time>2020-06-18T13:36:09Z</time>
      </trkpt>
      <trkpt lat="49.94929" lon="1.16501">
        <ele>99.3</ele>
        <time>2020-06-18T13:36:10Z</time>
      </trkpt>
      <trkpt lat="49.9493" lon="1.1651">
        <ele>99.4</ele>
        <time>2020-06-18T13:36:11Z</time>
      </trkpt>
      <trkpt lat="49.9493" lon="1.1652">
        <ele>99.5</ele>
        <time>2020-06-18T13:36:12Z</time>
      </trkpt>
      <trkpt lat="49.9493" lon="1.16529">
        <ele>99.6</ele>
        <time>2020-06-18T13:36:13Z</time>
      </trkpt>
      <trkpt lat="49.94931" lon="1.16538">
        <ele>99.7</ele>
        <time>2020-06-18T13:36:14Z</time>
      </trkpt>
      <trkpt lat="49.94931" lon="1.16548">
        <ele>99.8</ele>
        <time>2020-06-18T13:36:15Z</time>
      </trkpt>
      <trkpt lat="49.94931" lon="1.16558">
        <ele>99.9</ele>
        <time>2020-06-18T13:36:16Z</time>
      </trkpt>
      <trkpt lat="49.94932" lon="1.16568">
        <ele>100</ele>
        <time>2020-06-18T13:36:17Z</time>
      </trkpt>
      <trkpt lat="49.94933" lon="1.16577">
        <ele>100.1</ele>
        <time>2020-06-18T13:36:18Z</time>
      </trkpt>
      <trkpt lat="49.94933" lon="1.16585">
        <ele>100.2</ele>
        <time>2020-06-18T13:36:19Z</time>
      </trkpt>
      <trkpt lat="49.94933" lon="1.16594">
        <ele>100.2</ele>
        <time>2020-06-18T13:36:20Z</time>
      </trkpt>
      <trkpt lat="49.94934" lon="1.16602">
        <ele>100.3</ele>
        <time>2020-06-18T13:36:21Z</time>
      </trkpt>
      <trkpt lat="49.94935" lon="1.16611">
        <ele>100.3</ele>
        <time>2020-06-18T13:36:22Z</time>
      </trkpt>
      <trkpt lat="49.94937" lon="1.16619">
        <ele>100.2</ele>
        <time>2020-06-18T13:36:23Z</time>
      </trkpt>
      <trkpt lat="49.94938" lon="1.16627">
        <ele>100.2</ele>
        <time>2020-06-18T13:36:24Z</time>
      </trkpt>
      <trkpt lat="49.94939" lon="1.16635">
        <ele>100.1</ele>
        <time>2020-06-18T13:36:25Z</time>
      </trkpt>
      <trkpt lat="49.94941" lon="1.16644">
        <ele>100</ele>
        <time>2020-06-18T13:36:26Z</time>
      </trkpt>
      <trkpt lat="49.94944" lon="1.16652">
        <ele>100</ele>
        <time>2020-06-18T13:36:27Z</time>
      </trkpt>
      <trkpt lat="49.94946" lon="1.16662">
        <ele>99.9</ele>
        <time>2020-06-18T13:36:28Z</time>
      </trkpt>
      <trkpt lat="49.94948" lon="1.16672">
        <ele>99.7</ele>
        <time>2020-06-18T13:36:29Z</time>
      </trkpt>
      <trkpt lat="49.94949" lon="1.16681">
        <ele>99.6</ele>
        <time>2020-06-18T13:36:30Z</time>
      </trkpt>
      <trkpt lat="49.9495" lon="1.16691">
        <ele>99.5</ele>
        <time>2020-06-18T13:36:31Z</time>
      </trkpt>
      <trkpt lat="49.94952" lon="1.167">
        <ele>99.4</ele>
        <time>2020-06-18T13:36:32Z</time>
      </trkpt>
      <trkpt lat="49.94953" lon="1.16709">
        <ele>99.3</ele>
        <time>2020-06-18T13:36:33Z</time>
      </trkpt>
      <trkpt lat="49.94955" lon="1.16719">
        <ele>99.2</ele>
        <time>2020-06-18T13:36:34Z</time>
      </trkpt>
      <trkpt lat="49.94957" lon="1.16729">
        <ele>99.1</ele>
        <time>2020-06-18T13:36:35Z</time>
      </trkpt>
      <trkpt lat="49.94959" lon="1.16739">
        <ele>98.9</ele>
        <time>2020-06-18T13:36:36Z</time>
      </trkpt>
      <trkpt lat="49.94961" lon="1.1675">
        <ele>98.7</ele>
        <time>2020-06-18T13:36:37Z</time>
      </trkpt>
      <trkpt lat="49.94964" lon="1.16762">
        <ele>98.5</ele>
        <time>2020-06-18T13:36:38Z</time>
      </trkpt>
      <trkpt lat="49.94966" lon="1.16774">
        <ele>98.2</ele>
        <time>2020-06-18T13:36:39Z</time>
      </trkpt>
      <trkpt lat="49.94969" lon="1.16784">
        <ele>98</ele>
        <time>2020-06-18T13:36:40Z</time>
      </trkpt>
      <trkpt lat="49.94973" lon="1.16795">
        <ele>97.7</ele>
        <time>2020-06-18T13:36:41Z</time>
      </trkpt>
      <trkpt lat="49.94976" lon="1.16806">
        <ele>97.5</ele>
        <time>2020-06-18T13:36:42Z</time>
      </trkpt>
      <trkpt lat="49.9498" lon="1.16817">
        <ele>97.3</ele>
        <time>2020-06-18T13:36:43Z</time>
      </trkpt>
      <trkpt lat="49.94984" lon="1.16828">
        <ele>97</ele>
        <time>2020-06-18T13:36:44Z</time>
      </trkpt>
      <trkpt lat="49.94988" lon="1.16839">
        <ele>96.8</ele>
        <time>2020-06-18T13:36:45Z</time>
      </trkpt>
      <trkpt lat="49.94992" lon="1.1685">
        <ele>96.5</ele>
        <time>2020-06-18T13:36:46Z</time>
      </trkpt>
      <trkpt lat="49.94996" lon="1.16862">
        <ele>96.3</ele>
        <time>2020-06-18T13:36:47Z</time>
      </trkpt>
      <trkpt lat="49.95001" lon="1.16873">
        <ele>96.1</ele>
        <time>2020-06-18T13:36:48Z</time>
      </trkpt>
      <trkpt lat="49.95005" lon="1.16884">
        <ele>95.9</ele>
        <time>2020-06-18T13:36:49Z</time>
      </trkpt>
      <trkpt lat="49.9501" lon="1.16896">
        <ele>95.7</ele>
        <time>2020-06-18T13:36:50Z</time>
      </trkpt>
      <trkpt lat="49.95015" lon="1.16907">
        <ele>95.5</ele>
        <time>2020-06-18T13:36:51Z</time>
      </trkpt>
      <trkpt lat="49.9502" lon="1.16918">
        <ele>95.4</ele>
        <time>2020-06-18T13:36:52Z</time>
      </trkpt>
      <trkpt lat="49.95025" lon="1.16929">
        <ele>95.3</ele>
        <time>2020-06-18T13:36:53Z</time>
      </trkpt>
      <trkpt lat="49.9503" lon="1.1694">
        <ele>95.1</ele>
        <time>2020-06-18T13:36:54Z</time>
      </trkpt>
      <trkpt lat="49.95034" lon="1.1695">
        <ele>95.1</ele>
        <time>2020-06-18T13:36:55Z</time>
      </trkpt>
      <trkpt lat="49.95038" lon="1.1696">
        <ele>95</ele>
        <time>2020-06-18T13:36:56Z</time>
      </trkpt>
      <trkpt lat="49.95042" lon="1.16971">
        <ele>95</ele>
        <time>2020-06-18T13:36:57Z</time>
      </trkpt>
      <trkpt lat="49.95047" lon="1.16982">
        <ele>95</ele>
        <time>2020-06-18T13:36:58Z</time>
      </trkpt>
      <trkpt lat="49.95051" lon="1.16992">
        <ele>94.9</ele>
        <time>2020-06-18T13:36:59Z</time>
      </trkpt>
      <trkpt lat="49.95056" lon="1.17002">
        <ele>94.7</ele>
        <time>2020-06-18T13:37:00Z</time>
      </trkpt>
      <trkpt lat="49.9506" lon="1.17012">
        <ele>94.6</ele>
        <time>2020-06-18T13:37:01Z</time>
      </trkpt>
      <trkpt lat="49.95064" lon="1.17022">
        <ele>94.4</ele>
        <time>2020-06-18T13:37:02Z</time>
      </trkpt>
      <trkpt lat="49.95067" lon="1.17032">
        <ele>94.3</ele>
        <time>2020-06-18T13:37:03Z</time>
      </trkpt>
      <trkpt lat="49.95071" lon="1.17042">
        <ele>94.1</ele>
        <time>2020-06-18T13:37:04Z</time>
      </trkpt>
      <trkpt lat="49.95075" lon="1.17052">
        <ele>93.9</ele>
        <time>2020-06-18T13:37:05Z</time>
      </trkpt>
      <trkpt lat="49.9508" lon="1.17062">
        <ele>93.7</ele>
        <time>2020-06-18T13:37:06Z</time>
      </trkpt>
      <trkpt lat="49.95084" lon="1.17071">
        <ele>93.5</ele>
        <time>2020-06-18T13:37:07Z</time>
      </trkpt>
      <trkpt lat="49.95088" lon="1.1708">
        <ele>93.3</ele>
        <time>2020-06-18T13:37:08Z</time>
      </trkpt>
      <trkpt lat="49.95092" lon="1.17089">
        <ele>93</ele>
        <time>2020-06-18T13:37:09Z</time>
      </trkpt>
      <trkpt lat="49.95096" lon="1.17098">
        <ele>92.7</ele>
        <time>2020-06-18T13:37:10Z</time>
      </trkpt>
      <trkpt lat="49.95099" lon="1.17106">
        <ele>92.4</ele>
        <time>2020-06-18T13:37:11Z</time>
      </trkpt>
      <trkpt lat="49.95103" lon="1.17114">
        <ele>92</ele>
        <time>2020-06-18T13:37:12Z</time>
      </trkpt>
      <trkpt lat="49.95107" lon="1.17123">
        <ele>91.6</ele>
        <time>2020-06-18T13:37:13Z</time>
      </trkpt>
      <trkpt lat="49.95111" lon="1.17132">
        <ele>91.2</ele>
        <time>2020-06-18T13:37:14Z</time>
      </trkpt>
      <trkpt lat="49.95116" lon="1.17141">
        <ele>90.8</ele>
        <time>2020-06-18T13:37:15Z</time>
      </trkpt>
      <trkpt lat="49.9512" lon="1.17151">
        <ele>90.3</ele>
        <time>2020-06-18T13:37:16Z</time>
      </trkpt>
      <trkpt lat="49.95124" lon="1.17161">
        <ele>89.8</ele>
        <time>2020-06-18T13:37:17Z</time>
      </trkpt>
      <trkpt lat="49.95129" lon="1.1717">
        <ele>89.4</ele>
        <time>2020-06-18T13:37:18Z</time>
      </trkpt>
      <trkpt lat="49.95134" lon="1.17181">
        <ele>88.9</ele>
        <time>2020-06-18T13:37:19Z</time>
      </trkpt>
      <trkpt lat="49.95139" lon="1.1719">
        <ele>88.5</ele>
        <time>2020-06-18T13:37:20Z</time>
      </trkpt>
      <trkpt lat="49.95143" lon="1.17202">
        <ele>87.9</ele>
        <time>2020-06-18T13:37:21Z</time>
      </trkpt>
      <trkpt lat="49.95148" lon="1.17213">
        <ele>87.6</ele>
        <time>2020-06-18T13:37:22Z</time>
      </trkpt>
      <trkpt lat="49.95153" lon="1.17224">
        <ele>87.3</ele>
        <time>2020-06-18T13:37:23Z</time>
      </trkpt>
      <trkpt lat="49.95158" lon="1.17235">
        <ele>87.1</ele>
        <time>2020-06-18T13:37:24Z</time>
      </trkpt>
      <trkpt lat="49.95164" lon="1.17247">
        <ele>86.8</ele>
        <time>2020-06-18T13:37:25Z</time>
      </trkpt>
      <trkpt lat="49.95169" lon="1.17258">
        <ele>86.6</ele>
        <time>2020-06-18T13:37:26Z</time>
      </trkpt>
      <trkpt lat="49.95175" lon="1.17269">
        <ele>86.5</ele>
        <time>2020-06-18T13:37:27Z</time>
      </trkpt>
      <trkpt lat="49.9518" lon="1.17281">
        <ele>86.4</ele>
        <time>2020-06-18T13:37:28Z</time>
      </trkpt>
      <trkpt lat="49.95184" lon="1.17291">
        <ele>86.3</ele>
        <time>2020-06-18T13:37:29Z</time>
      </trkpt>
      <trkpt lat="49.95189" lon="1.17301">
        <ele>86.3</ele>
        <time>2020-06-18T13:37:30Z</time>
      </trkpt>
      <trkpt lat="49.95194" lon="1.17312">
        <ele>86.2</ele>
        <time>2020-06-18T13:37:31Z</time>
      </trkpt>
      <trkpt lat="49.95198" lon="1.17324">
        <ele>86.2</ele>
        <time>2020-06-18T13:37:32Z</time>
      </trkpt>
      <trkpt lat="49.95203" lon="1.17335">
        <ele>86.1</ele>
        <time>2020-06-18T13:37:33Z</time>
      </trkpt>
      <trkpt lat="49.95207" lon="1.17346">
        <ele>86.1</ele>
        <time>2020-06-18T13:37:34Z</time>
      </trkpt>
      <trkpt lat="49.95212" lon="1.17357">
        <ele>86</ele>
        <time>2020-06-18T13:37:35Z</time>
      </trkpt>
      <trkpt lat="49.95216" lon="1.17368">
        <ele>86</ele>
        <time>2020-06-18T13:37:36Z</time>
      </trkpt>
      <trkpt lat="49.95219" lon="1.17378">
        <ele>86.1</ele>
        <time>2020-06-18T13:37:37Z</time>
      </trkpt>
      <trkpt lat="49.95223" lon="1.17389">
        <ele>86.1</ele>
        <time>2020-06-18T13:37:38Z</time>
      </trkpt>
      <trkpt lat="49.95226" lon="1.17401">
        <ele>86.2</ele>
        <time>2020-06-18T13:37:39Z</time>
      </trkpt>
      <trkpt lat="49.95229" lon="1.17412">
        <ele>86.2</ele>
        <time>2020-06-18T13:37:40Z</time>
      </trkpt>
      <trkpt lat="49.95232" lon="1.17423">
        <ele>86.2</ele>
        <time>2020-06-18T13:37:41Z</time>
      </trkpt>
      <trkpt lat="49.95235" lon="1.17435">
        <ele>86.3</ele>
        <time>2020-06-18T13:37:42Z</time>
      </trkpt>
      <trkpt lat="49.95239" lon="1.17445">
        <ele>86.3</ele>
        <time>2020-06-18T13:37:43Z</time>
      </trkpt>
      <trkpt lat="49.95242" lon="1.17456">
        <ele>86.4</ele>
        <time>2020-06-18T13:37:44Z</time>
      </trkpt>
      <trkpt lat="49.95245" lon="1.17466">
        <ele>86.5</ele>
        <time>2020-06-18T13:37:45Z</time>
      </trkpt>
      <trkpt lat="49.95248" lon="1.17476">
        <ele>86.6</ele>
        <time>2020-06-18T13:37:46Z</time>
      </trkpt>
      <trkpt lat="49.95251" lon="1.17486">
        <ele>86.7</ele>
        <time>2020-06-18T13:37:47Z</time>
      </trkpt>
      <trkpt lat="49.95254" lon="1.17496">
        <ele>86.7</ele>
        <time>2020-06-18T13:37:48Z</time>
      </trkpt>
      <trkpt lat="49.95256" lon="1.17507">
        <ele>86.9</ele>
        <time>2020-06-18T13:37:49Z</time>
      </trkpt>
      <trkpt lat="49.95259" lon="1.17516">
        <ele>87</ele>
        <time>2020-06-18T13:37:50Z</time>
      </trkpt>
      <trkpt lat="49.95261" lon="1.17526">
        <ele>87.2</ele>
        <time>2020-06-18T13:37:51Z</time>
      </trkpt>
      <trkpt lat="49.95263" lon="1.17536">
        <ele>87.4</ele>
        <time>2020-06-18T13:37:52Z</time>
      </trkpt>
      <trkpt lat="49.95265" lon="1.17546">
        <ele>87.7</ele>
        <time>2020-06-18T13:37:53Z</time>
      </trkpt>
      <trkpt lat="49.95267" lon="1.17557">
        <ele>87.9</ele>
        <time>2020-06-18T13:37:54Z</time>
      </trkpt>
      <trkpt lat="49.95268" lon="1.17568">
        <ele>88.2</ele>
        <time>2020-06-18T13:37:55Z</time>
      </trkpt>
      <trkpt lat="49.9527" lon="1.17578">
        <ele>88.4</ele>
        <time>2020-06-18T13:37:56Z</time>
      </trkpt>
      <trkpt lat="49.95272" lon="1.17589">
        <ele>88.5</ele>
        <time>2020-06-18T13:37:57Z</time>
      </trkpt>
      <trkpt lat="49.95274" lon="1.17599">
        <ele>88.6</ele>
        <time>2020-06-18T13:37:58Z</time>
      </trkpt>
      <trkpt lat="49.95275" lon="1.17609">
        <ele>88.8</ele>
        <time>2020-06-18T13:37:59Z</time>
      </trkpt>
      <trkpt lat="49.95277" lon="1.17618">
        <ele>89</ele>
        <time>2020-06-18T13:38:00Z</time>
      </trkpt>
      <trkpt lat="49.95279" lon="1.17628">
        <ele>89.2</ele>
        <time>2020-06-18T13:38:01Z</time>
      </trkpt>
      <trkpt lat="49.95281" lon="1.17638">
        <ele>89.5</ele>
        <time>2020-06-18T13:38:02Z</time>
      </trkpt>
      <trkpt lat="49.95284" lon="1.17646">
        <ele>89.7</ele>
        <time>2020-06-18T13:38:03Z</time>
      </trkpt>
      <trkpt lat="49.95287" lon="1.17655">
        <ele>89.9</ele>
        <time>2020-06-18T13:38:04Z</time>
      </trkpt>
      <trkpt lat="49.9529" lon="1.17665">
        <ele>90.1</ele>
        <time>2020-06-18T13:38:05Z</time>
      </trkpt>
      <trkpt lat="49.95293" lon="1.17673">
        <ele>90.3</ele>
        <time>2020-06-18T13:38:06Z</time>
      </trkpt>
      <trkpt lat="49.95295" lon="1.17683">
        <ele>90.6</ele>
        <time>2020-06-18T13:38:07Z</time>
      </trkpt>
      <trkpt lat="49.95298" lon="1.17692">
        <ele>90.8</ele>
        <time>2020-06-18T13:38:08Z</time>
      </trkpt>
      <trkpt lat="49.95301" lon="1.177">
        <ele>91</ele>
        <time>2020-06-18T13:38:09Z</time>
      </trkpt>
      <trkpt lat="49.95304" lon="1.17709">
        <ele>91.2</ele>
        <time>2020-06-18T13:38:10Z</time>
      </trkpt>
      <trkpt lat="49.95307" lon="1.17717">
        <ele>91.4</ele>
        <time>2020-06-18T13:38:11Z</time>
      </trkpt>
      <trkpt lat="49.95311" lon="1.17724">
        <ele>91.5</ele>
        <time>2020-06-18T13:38:12Z</time>
      </trkpt>
      <trkpt lat="49.95314" lon="1.17732">
        <ele>91.7</ele>
        <time>2020-06-18T13:38:13Z</time>
      </trkpt>
      <trkpt lat="49.95317" lon="1.1774">
        <ele>91.8</ele>
        <time>2020-06-18T13:38:14Z</time>
      </trkpt>
      <trkpt lat="49.9532" lon="1.17748">
        <ele>92</ele>
        <time>2020-06-18T13:38:15Z</time>
      </trkpt>
      <trkpt lat="49.95323" lon="1.17755">
        <ele>92.1</ele>
        <time>2020-06-18T13:38:16Z</time>
      </trkpt>
      <trkpt lat="49.95326" lon="1.17762">
        <ele>92.2</ele>
        <time>2020-06-18T13:38:17Z</time>
      </trkpt>
      <trkpt lat="49.9533" lon="1.17768">
        <ele>92.4</ele>
        <time>2020-06-18T13:38:18Z</time>
      </trkpt>
      <trkpt lat="49.95333" lon="1.17776">
        <ele>92.5</ele>
        <time>2020-06-18T13:38:19Z</time>
      </trkpt>
      <trkpt lat="49.95336" lon="1.17785">
        <ele>92.7</ele>
        <time>2020-06-18T13:38:20Z</time>
      </trkpt>
      <trkpt lat="49.95339" lon="1.17792">
        <ele>92.8</ele>
        <time>2020-06-18T13:38:21Z</time>
      </trkpt>
      <trkpt lat="49.95342" lon="1.17799">
        <ele>92.9</ele>
        <time>2020-06-18T13:38:22Z</time>
      </trkpt>
      <trkpt lat="49.95345" lon="1.17806">
        <ele>93</ele>
        <time>2020-06-18T13:38:23Z</time>
      </trkpt>
      <trkpt lat="49.95348" lon="1.17814">
        <ele>93.1</ele>
        <time>2020-06-18T13:38:24Z</time>
      </trkpt>
      <trkpt lat="49.95351" lon="1.1782">
        <ele>93.1</ele>
        <time>2020-06-18T13:38:25Z</time>
      </trkpt>
      <trkpt lat="49.95354" lon="1.17827">
        <ele>93.2</ele>
        <time>2020-06-18T13:38:26Z</time>
      </trkpt>
      <trkpt lat="49.95356" lon="1.17833">
        <ele>93.3</ele>
        <time>2020-06-18T13:38:27Z</time>
      </trkpt>
      <trkpt lat="49.95359" lon="1.17839">
        <ele>93.3</ele>
        <time>2020-06-18T13:38:28Z</time>
      </trkpt>
      <trkpt lat="49.95361" lon="1.17846">
        <ele>93.4</ele>
        <time>2020-06-18T13:38:29Z</time>
      </trkpt>
      <trkpt lat="49.95364" lon="1.17854">
        <ele>93.5</ele>
        <time>2020-06-18T13:38:30Z</time>
      </trkpt>
      <trkpt lat="49.95367" lon="1.17861">
        <ele>93.6</ele>
        <time>2020-06-18T13:38:31Z</time>
      </trkpt>
      <trkpt lat="49.9537" lon="1.17869">
        <ele>93.7</ele>
        <time>2020-06-18T13:38:32Z</time>
      </trkpt>
      <trkpt lat="49.95373" lon="1.17877">
        <ele>93.8</ele>
        <time>2020-06-18T13:38:33Z</time>
      </trkpt>
      <trkpt lat="49.95376" lon="1.17884">
        <ele>93.8</ele>
        <time>2020-06-18T13:38:34Z</time>
      </trkpt>
      <trkpt lat="49.95378" lon="1.17892">
        <ele>93.9</ele>
        <time>2020-06-18T13:38:35Z</time>
      </trkpt>
      <trkpt lat="49.9538" lon="1.179">
        <ele>94</ele>
        <time>2020-06-18T13:38:36Z</time>
      </trkpt>
      <trkpt lat="49.95383" lon="1.1791">
        <ele>94</ele>
        <time>2020-06-18T13:38:37Z</time>
      </trkpt>
      <trkpt lat="49.95386" lon="1.17919">
        <ele>94.1</ele>
        <time>2020-06-18T13:38:38Z</time>
      </trkpt>
      <trkpt lat="49.95388" lon="1.17928">
        <ele>94.2</ele>
        <time>2020-06-18T13:38:39Z</time>
      </trkpt>
      <trkpt lat="49.9539" lon="1.17937">
        <ele>94.2</ele>
        <time>2020-06-18T13:38:40Z</time>
      </trkpt>
      <trkpt lat="49.95392" lon="1.17945">
        <ele>94.3</ele>
        <time>2020-06-18T13:38:41Z</time>
      </trkpt>
      <trkpt lat="49.95393" lon="1.17954">
        <ele>94.4</ele>
        <time>2020-06-18T13:38:42Z</time>
      </trkpt>
      <trkpt lat="49.95395" lon="1.17962">
        <ele>94.5</ele>
        <time>2020-06-18T13:38:43Z</time>
      </trkpt>
      <trkpt lat="49.95396" lon="1.1797">
        <ele>94.6</ele>
        <time>2020-06-18T13:38:44Z</time>
      </trkpt>
      <trkpt lat="49.95397" lon="1.17981">
        <ele>94.8</ele>
        <time>2020-06-18T13:38:45Z</time>
      </trkpt>
      <trkpt lat="49.95398" lon="1.1799">
        <ele>94.9</ele>
        <time>2020-06-18T13:38:46Z</time>
      </trkpt>
      <trkpt lat="49.95399" lon="1.18">
        <ele>95.1</ele>
        <time>2020-06-18T13:38:47Z</time>
      </trkpt>
      <trkpt lat="49.954" lon="1.18009">
        <ele>95.2</ele>
        <time>2020-06-18T13:38:48Z</time>
      </trkpt>
      <trkpt lat="49.95402" lon="1.18017">
        <ele>95.2</ele>
        <time>2020-06-18T13:38:49Z</time>
      </trkpt>
      <trkpt lat="49.95404" lon="1.18026">
        <ele>95.3</ele>
        <time>2020-06-18T13:38:50Z</time>
      </trkpt>
      <trkpt lat="49.95406" lon="1.18035">
        <ele>95.4</ele>
        <time>2020-06-18T13:38:51Z</time>
      </trkpt>
      <trkpt lat="49.95408" lon="1.18045">
        <ele>95.5</ele>
        <time>2020-06-18T13:38:52Z</time>
      </trkpt>
      <trkpt lat="49.9541" lon="1.18052">
        <ele>95.6</ele>
        <time>2020-06-18T13:38:53Z</time>
      </trkpt>
      <trkpt lat="49.95412" lon="1.18059">
        <ele>95.7</ele>
        <time>2020-06-18T13:38:54Z</time>
      </trkpt>
      <trkpt lat="49.95413" lon="1.18068">
        <ele>95.8</ele>
        <time>2020-06-18T13:38:55Z</time>
      </trkpt>
      <trkpt lat="49.95415" lon="1.18076">
        <ele>95.9</ele>
        <time>2020-06-18T13:38:56Z</time>
      </trkpt>
      <trkpt lat="49.95416" lon="1.18084">
        <ele>96</ele>
        <time>2020-06-18T13:38:57Z</time>
      </trkpt>
      <trkpt lat="49.95418" lon="1.18092">
        <ele>96.1</ele>
        <time>2020-06-18T13:38:58Z</time>
      </trkpt>
      <trkpt lat="49.9542" lon="1.18101">
        <ele>96.2</ele>
        <time>2020-06-18T13:38:59Z</time>
      </trkpt>
      <trkpt lat="49.95422" lon="1.18109">
        <ele>96.3</ele>
        <time>2020-06-18T13:39:00Z</time>
      </trkpt>
      <trkpt lat="49.95424" lon="1.18116">
        <ele>96.4</ele>
        <time>2020-06-18T13:39:01Z</time>
      </trkpt>
      <trkpt lat="49.95425" lon="1.18125">
        <ele>96.5</ele>
        <time>2020-06-18T13:39:02Z</time>
      </trkpt>
      <trkpt lat="49.95427" lon="1.18134">
        <ele>96.6</ele>
        <time>2020-06-18T13:39:03Z</time>
      </trkpt>
      <trkpt lat="49.95429" lon="1.18143">
        <ele>96.8</ele>
        <time>2020-06-18T13:39:04Z</time>
      </trkpt>
      <trkpt lat="49.95431" lon="1.18152">
        <ele>96.9</ele>
        <time>2020-06-18T13:39:05Z</time>
      </trkpt>
      <trkpt lat="49.95433" lon="1.1816">
        <ele>97</ele>
        <time>2020-06-18T13:39:06Z</time>
      </trkpt>
      <trkpt lat="49.95435" lon="1.18168">
        <ele>97.1</ele>
        <time>2020-06-18T13:39:07Z</time>
      </trkpt>
      <trkpt lat="49.95436" lon="1.18177">
        <ele>97.3</ele>
        <time>2020-06-18T13:39:08Z</time>
      </trkpt>
      <trkpt lat="49.95438" lon="1.18185">
        <ele>97.4</ele>
        <time>2020-06-18T13:39:09Z</time>
      </trkpt>
      <trkpt lat="49.9544" lon="1.18193">
        <ele>97.5</ele>
        <time>2020-06-18T13:39:10Z</time>
      </trkpt>
      <trkpt lat="49.95442" lon="1.18201">
        <ele>97.7</ele>
        <time>2020-06-18T13:39:11Z</time>
      </trkpt>
      <trkpt lat="49.95444" lon="1.18208">
        <ele>97.8</ele>
        <time>2020-06-18T13:39:12Z</time>
      </trkpt>
      <trkpt lat="49.95445" lon="1.18215">
        <ele>97.9</ele>
        <time>2020-06-18T13:39:13Z</time>
      </trkpt>
      <trkpt lat="49.95447" lon="1.18224">
        <ele>98</ele>
        <time>2020-06-18T13:39:14Z</time>
      </trkpt>
      <trkpt lat="49.95448" lon="1.18232">
        <ele>98.2</ele>
        <time>2020-06-18T13:39:15Z</time>
      </trkpt>
      <trkpt lat="49.9545" lon="1.1824">
        <ele>98.3</ele>
        <time>2020-06-18T13:39:16Z</time>
      </trkpt>
      <trkpt lat="49.95451" lon="1.1825">
        <ele>98.5</ele>
        <time>2020-06-18T13:39:17Z</time>
      </trkpt>
      <trkpt lat="49.95452" lon="1.18259">
        <ele>98.6</ele>
        <time>2020-06-18T13:39:18Z</time>
      </trkpt>
      <trkpt lat="49.95454" lon="1.18267">
        <ele>98.6</ele>
        <time>2020-06-18T13:39:19Z</time>
      </trkpt>
      <trkpt lat="49.95455" lon="1.18275">
        <ele>98.7</ele>
        <time>2020-06-18T13:39:20Z</time>
      </trkpt>
      <trkpt lat="49.95457" lon="1.18283">
        <ele>98.9</ele>
        <time>2020-06-18T13:39:21Z</time>
      </trkpt>
      <trkpt lat="49.95459" lon="1.18291">
        <ele>99</ele>
        <time>2020-06-18T13:39:22Z</time>
      </trkpt>
      <trkpt lat="49.9546" lon="1.18299">
        <ele>99.1</ele>
        <time>2020-06-18T13:39:23Z</time>
      </trkpt>
      <trkpt lat="49.95461" lon="1.18308">
        <ele>99.2</ele>
        <time>2020-06-18T13:39:24Z</time>
      </trkpt>
      <trkpt lat="49.95463" lon="1.18316">
        <ele>99.3</ele>
        <time>2020-06-18T13:39:25Z</time>
      </trkpt>
      <trkpt lat="49.95464" lon="1.18326">
        <ele>99.4</ele>
        <time>2020-06-18T13:39:26Z</time>
      </trkpt>
      <trkpt lat="49.95464" lon="1.18337">
        <ele>99.5</ele>
        <time>2020-06-18T13:39:27Z</time>
      </trkpt>
      <trkpt lat="49.95465" lon="1.18347">
        <ele>99.6</ele>
        <time>2020-06-18T13:39:28Z</time>
      </trkpt>
      <trkpt lat="49.95467" lon="1.18356">
        <ele>99.7</ele>
        <time>2020-06-18T13:39:29Z</time>
      </trkpt>
      <trkpt lat="49.95468" lon="1.18365">
        <ele>99.8</ele>
        <time>2020-06-18T13:39:30Z</time>
      </trkpt>
      <trkpt lat="49.95469" lon="1.18373">
        <ele>99.9</ele>
        <time>2020-06-18T13:39:31Z</time>
      </trkpt>
      <trkpt lat="49.95469" lon="1.18382">
        <ele>100</ele>
        <time>2020-06-18T13:39:32Z</time>
      </trkpt>
      <trkpt lat="49.9547" lon="1.18391">
        <ele>100.1</ele>
        <time>2020-06-18T13:39:33Z</time>
      </trkpt>
      <trkpt lat="49.95471" lon="1.18399">
        <ele>100.2</ele>
        <time>2020-06-18T13:39:34Z</time>
      </trkpt>
      <trkpt lat="49.95472" lon="1.18406">
        <ele>100.3</ele>
        <time>2020-06-18T13:39:35Z</time>
      </trkpt>
      <trkpt lat="49.95473" lon="1.18414">
        <ele>100.4</ele>
        <time>2020-06-18T13:39:36Z</time>
      </trkpt>
      <trkpt lat="49.95474" lon="1.18422">
        <ele>100.4</ele>
        <time>2020-06-18T13:39:37Z</time>
      </trkpt>
      <trkpt lat="49.95476" lon="1.18429">
        <ele>100.5</ele>
        <time>2020-06-18T13:39:38Z</time>
      </trkpt>
      <trkpt lat="49.95476" lon="1.18436">
        <ele>100.6</ele>
        <time>2020-06-18T13:39:39Z</time>
      </trkpt>
      <trkpt lat="49.95476" lon="1.18443">
        <ele>100.7</ele>
        <time>2020-06-18T13:39:40Z</time>
      </trkpt>
      <trkpt lat="49.95477" lon="1.1845">
        <ele>100.7</ele>
        <time>2020-06-18T13:39:41Z</time>
      </trkpt>
      <trkpt lat="49.95478" lon="1.18459">
        <ele>100.8</ele>
        <time>2020-06-18T13:39:42Z</time>
      </trkpt>
      <trkpt lat="49.95479" lon="1.18468">
        <ele>100.9</ele>
        <time>2020-06-18T13:39:43Z</time>
      </trkpt>
      <trkpt lat="49.9548" lon="1.18478">
        <ele>100.9</ele>
        <time>2020-06-18T13:39:44Z</time>
      </trkpt>
      <trkpt lat="49.95482" lon="1.18486">
        <ele>100.9</ele>
        <time>2020-06-18T13:39:45Z</time>
      </trkpt>
      <trkpt lat="49.95483" lon="1.18497">
        <ele>101</ele>
        <time>2020-06-18T13:39:46Z</time>
      </trkpt>
      <trkpt lat="49.95484" lon="1.18504">
        <ele>101</ele>
        <time>2020-06-18T13:39:47Z</time>
      </trkpt>
      <trkpt lat="49.95486" lon="1.18512">
        <ele>101.1</ele>
        <time>2020-06-18T13:39:48Z</time>
      </trkpt>
      <trkpt lat="49.95487" lon="1.18521">
        <ele>101.1</ele>
        <time>2020-06-18T13:39:49Z</time>
      </trkpt>
      <trkpt lat="49.95488" lon="1.18529">
        <ele>101.2</ele>
        <time>2020-06-18T13:39:50Z</time>
      </trkpt>
      <trkpt lat="49.95489" lon="1.18537">
        <ele>101.2</ele>
        <time>2020-06-18T13:39:51Z</time>
      </trkpt>
      <trkpt lat="49.9549" lon="1.18545">
        <ele>101.3</ele>
        <time>2020-06-18T13:39:52Z</time>
      </trkpt>
      <trkpt lat="49.95491" lon="1.18554">
        <ele>101.4</ele>
        <time>2020-06-18T13:39:53Z</time>
      </trkpt>
      <trkpt lat="49.95492" lon="1.18564">
        <ele>101.5</ele>
        <time>2020-06-18T13:39:54Z</time>
      </trkpt>
      <trkpt lat="49.95492" lon="1.18572">
        <ele>101.6</ele>
        <time>2020-06-18T13:39:55Z</time>
      </trkpt>
      <trkpt lat="49.95493" lon="1.18579">
        <ele>101.7</ele>
        <time>2020-06-18T13:39:56Z</time>
      </trkpt>
      <trkpt lat="49.95494" lon="1.18587">
        <ele>101.8</ele>
        <time>2020-06-18T13:39:57Z</time>
      </trkpt>
      <trkpt lat="49.95495" lon="1.18596">
        <ele>101.9</ele>
        <time>2020-06-18T13:39:58Z</time>
      </trkpt>
      <trkpt lat="49.95496" lon="1.18604">
        <ele>101.9</ele>
        <time>2020-06-18T13:39:59Z</time>
      </trkpt>
      <trkpt lat="49.95497" lon="1.18613">
        <ele>102</ele>
        <time>2020-06-18T13:40:00Z</time>
      </trkpt>
      <trkpt lat="49.95498" lon="1.18622">
        <ele>102.1</ele>
        <time>2020-06-18T13:40:01Z</time>
      </trkpt>
      <trkpt lat="49.95499" lon="1.18629">
        <ele>102.1</ele>
        <time>2020-06-18T13:40:02Z</time>
      </trkpt>
      <trkpt lat="49.955" lon="1.18636">
        <ele>102.1</ele>
        <time>2020-06-18T13:40:03Z</time>
      </trkpt>
      <trkpt lat="49.95501" lon="1.18644">
        <ele>102.1</ele>
        <time>2020-06-18T13:40:04Z</time>
      </trkpt>
      <trkpt lat="49.95501" lon="1.18653">
        <ele>102.1</ele>
        <time>2020-06-18T13:40:05Z</time>
      </trkpt>
      <trkpt lat="49.95501" lon="1.18661">
        <ele>102.2</ele>
        <time>2020-06-18T13:40:06Z</time>
      </trkpt>
      <trkpt lat="49.95502" lon="1.1867">
        <ele>102.2</ele>
        <time>2020-06-18T13:40:07Z</time>
      </trkpt>
      <trkpt lat="49.95502" lon="1.18679">
        <ele>102.3</ele>
        <time>2020-06-18T13:40:08Z</time>
      </trkpt>
      <trkpt lat="49.95504" lon="1.18686">
        <ele>102.3</ele>
        <time>2020-06-18T13:40:09Z</time>
      </trkpt>
      <trkpt lat="49.95506" lon="1.18693">
        <ele>102.3</ele>
        <time>2020-06-18T13:40:10Z</time>
      </trkpt>
      <trkpt lat="49.95508" lon="1.18699">
        <ele>102.4</ele>
        <time>2020-06-18T13:40:11Z</time>
      </trkpt>
      <trkpt lat="49.95512" lon="1.18704">
        <ele>102.4</ele>
        <time>2020-06-18T13:40:12Z</time>
      </trkpt>
      <trkpt lat="49.95515" lon="1.18709">
        <ele>102.5</ele>
        <time>2020-06-18T13:40:13Z</time>
      </trkpt>
      <trkpt lat="49.95518" lon="1.18716">
        <ele>102.5</ele>
        <time>2020-06-18T13:40:14Z</time>
      </trkpt>
      <trkpt lat="49.95521" lon="1.18722">
        <ele>102.6</ele>
        <time>2020-06-18T13:40:15Z</time>
      </trkpt>
      <trkpt lat="49.95522" lon="1.18729">
        <ele>102.8</ele>
        <time>2020-06-18T13:40:16Z</time>
      </trkpt>
      <trkpt lat="49.95522" lon="1.18737">
        <ele>102.9</ele>
        <time>2020-06-18T13:40:17Z</time>
      </trkpt>
      <trkpt lat="49.95521" lon="1.18745">
        <ele>103.1</ele>
        <time>2020-06-18T13:40:18Z</time>
      </trkpt>
      <trkpt lat="49.95521" lon="1.18754">
        <ele>103.2</ele>
        <time>2020-06-18T13:40:19Z</time>
      </trkpt>
      <trkpt lat="49.95521" lon="1.18763">
        <ele>103</ele>
        <time>2020-06-18T13:40:20Z</time>
      </trkpt>
      <trkpt lat="49.9552" lon="1.18773">
        <ele>102.9</ele>
        <time>2020-06-18T13:40:21Z</time>
      </trkpt>
      <trkpt lat="49.95521" lon="1.18782">
        <ele>102.9</ele>
        <time>2020-06-18T13:40:22Z</time>
      </trkpt>
      <trkpt lat="49.95521" lon="1.18792">
        <ele>102.9</ele>
        <time>2020-06-18T13:40:23Z</time>
      </trkpt>
      <trkpt lat="49.95521" lon="1.18801">
        <ele>102.8</ele>
        <time>2020-06-18T13:40:24Z</time>
      </trkpt>
      <trkpt lat="49.95522" lon="1.18811">
        <ele>102.8</ele>
        <time>2020-06-18T13:40:25Z</time>
      </trkpt>
      <trkpt lat="49.95522" lon="1.18819">
        <ele>102.8</ele>
        <time>2020-06-18T13:40:26Z</time>
      </trkpt>
      <trkpt lat="49.95522" lon="1.18827">
        <ele>102.7</ele>
        <time>2020-06-18T13:40:27Z</time>
      </trkpt>
      <trkpt lat="49.95522" lon="1.18834">
        <ele>102.7</ele>
        <time>2020-06-18T13:40:28Z</time>
      </trkpt>
      <trkpt lat="49.95523" lon="1.18843">
        <ele>102.7</ele>
        <time>2020-06-18T13:40:29Z</time>
      </trkpt>
      <trkpt lat="49.95524" lon="1.18852">
        <ele>102.6</ele>
        <time>2020-06-18T13:40:30Z</time>
      </trkpt>
      <trkpt lat="49.95524" lon="1.18861">
        <ele>102.6</ele>
        <time>2020-06-18T13:40:31Z</time>
      </trkpt>
      <trkpt lat="49.95525" lon="1.1887">
        <ele>102.5</ele>
        <time>2020-06-18T13:40:32Z</time>
      </trkpt>
      <trkpt lat="49.95526" lon="1.1888">
        <ele>102.5</ele>
        <time>2020-06-18T13:40:33Z</time>
      </trkpt>
      <trkpt lat="49.95526" lon="1.18889">
        <ele>102.5</ele>
        <time>2020-06-18T13:40:34Z</time>
      </trkpt>
      <trkpt lat="49.95527" lon="1.18898">
        <ele>102.4</ele>
        <time>2020-06-18T13:40:35Z</time>
      </trkpt>
      <trkpt lat="49.95528" lon="1.18907">
        <ele>102.4</ele>
        <time>2020-06-18T13:40:36Z</time>
      </trkpt>
      <trkpt lat="49.95529" lon="1.18915">
        <ele>102.4</ele>
        <time>2020-06-18T13:40:37Z</time>
      </trkpt>
      <trkpt lat="49.9553" lon="1.18924">
        <ele>102.3</ele>
        <time>2020-06-18T13:40:38Z</time>
      </trkpt>
      <trkpt lat="49.95532" lon="1.18934">
        <ele>102.3</ele>
        <time>2020-06-18T13:40:39Z</time>
      </trkpt>
      <trkpt lat="49.95533" lon="1.18944">
        <ele>102.3</ele>
        <time>2020-06-18T13:40:40Z</time>
      </trkpt>
      <trkpt lat="49.95534" lon="1.18954">
        <ele>102.2</ele>
        <time>2020-06-18T13:40:41Z</time>
      </trkpt>
      <trkpt lat="49.95535" lon="1.18964">
        <ele>102.1</ele>
        <time>2020-06-18T13:40:42Z</time>
      </trkpt>
      <trkpt lat="49.95537" lon="1.18972">
        <ele>102.1</ele>
        <time>2020-06-18T13:40:43Z</time>
      </trkpt>
      <trkpt lat="49.95538" lon="1.18982">
        <ele>102.1</ele>
        <time>2020-06-18T13:40:44Z</time>
      </trkpt>
      <trkpt lat="49.95539" lon="1.18993">
        <ele>102</ele>
        <time>2020-06-18T13:40:45Z</time>
      </trkpt>
      <trkpt lat="49.9554" lon="1.19004">
        <ele>102</ele>
        <time>2020-06-18T13:40:46Z</time>
      </trkpt>
      <trkpt lat="49.95542" lon="1.19016">
        <ele>102</ele>
        <time>2020-06-18T13:40:47Z</time>
      </trkpt>
      <trkpt lat="49.95543" lon="1.19026">
        <ele>102</ele>
        <time>2020-06-18T13:40:48Z</time>
      </trkpt>
      <trkpt lat="49.95545" lon="1.19037">
        <ele>102</ele>
        <time>2020-06-18T13:40:49Z</time>
      </trkpt>
      <trkpt lat="49.95546" lon="1.19048">
        <ele>102</ele>
        <time>2020-06-18T13:40:50Z</time>
      </trkpt>
      <trkpt lat="49.95547" lon="1.19058">
        <ele>102</ele>
        <time>2020-06-18T13:40:51Z</time>
      </trkpt>
      <trkpt lat="49.95548" lon="1.19069">
        <ele>101.9</ele>
        <time>2020-06-18T13:40:52Z</time>
      </trkpt>
      <trkpt lat="49.95549" lon="1.19078">
        <ele>101.9</ele>
        <time>2020-06-18T13:40:53Z</time>
      </trkpt>
      <trkpt lat="49.95551" lon="1.19087">
        <ele>101.9</ele>
        <time>2020-06-18T13:40:54Z</time>
      </trkpt>
      <trkpt lat="49.95553" lon="1.19097">
        <ele>101.8</ele>
        <time>2020-06-18T13:40:55Z</time>
      </trkpt>
      <trkpt lat="49.95555" lon="1.19108">
        <ele>101.8</ele>
        <time>2020-06-18T13:40:56Z</time>
      </trkpt>
      <trkpt lat="49.95556" lon="1.19119">
        <ele>101.8</ele>
        <time>2020-06-18T13:40:57Z</time>
      </trkpt>
      <trkpt lat="49.95557" lon="1.19131">
        <ele>101.7</ele>
        <time>2020-06-18T13:40:58Z</time>
      </trkpt>
      <trkpt lat="49.95558" lon="1.19144">
        <ele>101.8</ele>
        <time>2020-06-18T13:40:59Z</time>
      </trkpt>
      <trkpt lat="49.95559" lon="1.19156">
        <ele>101.8</ele>
        <time>2020-06-18T13:41:00Z</time>
      </trkpt>
      <trkpt lat="49.95559" lon="1.19167">
        <ele>101.9</ele>
        <time>2020-06-18T13:41:01Z</time>
      </trkpt>
      <trkpt lat="49.9556" lon="1.19178">
        <ele>101.9</ele>
        <time>2020-06-18T13:41:02Z</time>
      </trkpt>
      <trkpt lat="49.95561" lon="1.19189">
        <ele>101.9</ele>
        <time>2020-06-18T13:41:03Z</time>
      </trkpt>
      <trkpt lat="49.95563" lon="1.192">
        <ele>101.9</ele>
        <time>2020-06-18T13:41:04Z</time>
      </trkpt>
      <trkpt lat="49.95564" lon="1.19211">
        <ele>102</ele>
        <time>2020-06-18T13:41:05Z</time>
      </trkpt>
      <trkpt lat="49.95565" lon="1.19222">
        <ele>102</ele>
        <time>2020-06-18T13:41:06Z</time>
      </trkpt>
      <trkpt lat="49.95566" lon="1.19232">
        <ele>102.1</ele>
        <time>2020-06-18T13:41:07Z</time>
      </trkpt>
      <trkpt lat="49.95567" lon="1.19243">
        <ele>102.1</ele>
        <time>2020-06-18T13:41:08Z</time>
      </trkpt>
      <trkpt lat="49.95568" lon="1.19253">
        <ele>102.2</ele>
        <time>2020-06-18T13:41:09Z</time>
      </trkpt>
      <trkpt lat="49.95569" lon="1.19264">
        <ele>102.2</ele>
        <time>2020-06-18T13:41:10Z</time>
      </trkpt>
      <trkpt lat="49.9557" lon="1.19274">
        <ele>102.3</ele>
        <time>2020-06-18T13:41:11Z</time>
      </trkpt>
      <trkpt lat="49.9557" lon="1.19283">
        <ele>102.4</ele>
        <time>2020-06-18T13:41:12Z</time>
      </trkpt>
      <trkpt lat="49.95571" lon="1.19293">
        <ele>102.4</ele>
        <time>2020-06-18T13:41:13Z</time>
      </trkpt>
      <trkpt lat="49.95571" lon="1.19303">
        <ele>102.5</ele>
        <time>2020-06-18T13:41:14Z</time>
      </trkpt>
      <trkpt lat="49.95572" lon="1.19313">
        <ele>102.6</ele>
        <time>2020-06-18T13:41:15Z</time>
      </trkpt>
      <trkpt lat="49.95572" lon="1.19323">
        <ele>102.6</ele>
        <time>2020-06-18T13:41:16Z</time>
      </trkpt>
      <trkpt lat="49.95572" lon="1.19333">
        <ele>102.7</ele>
        <time>2020-06-18T13:41:17Z</time>
      </trkpt>
      <trkpt lat="49.95572" lon="1.19342">
        <ele>102.8</ele>
        <time>2020-06-18T13:41:18Z</time>
      </trkpt>
      <trkpt lat="49.95572" lon="1.19352">
        <ele>102.9</ele>
        <time>2020-06-18T13:41:19Z</time>
      </trkpt>
      <trkpt lat="49.95573" lon="1.19361">
        <ele>102.9</ele>
        <time>2020-06-18T13:41:20Z</time>
      </trkpt>
      <trkpt lat="49.95573" lon="1.19371">
        <ele>103</ele>
        <time>2020-06-18T13:41:21Z</time>
      </trkpt>
      <trkpt lat="49.95573" lon="1.1938">
        <ele>103</ele>
        <time>2020-06-18T13:41:22Z</time>
      </trkpt>
      <trkpt lat="49.95573" lon="1.1939">
        <ele>103.1</ele>
        <time>2020-06-18T13:41:23Z</time>
      </trkpt>
      <trkpt lat="49.95573" lon="1.194">
        <ele>103.1</ele>
        <time>2020-06-18T13:41:24Z</time>
      </trkpt>
      <trkpt lat="49.95574" lon="1.19409">
        <ele>103.1</ele>
        <time>2020-06-18T13:41:25Z</time>
      </trkpt>
      <trkpt lat="49.95574" lon="1.19417">
        <ele>103.1</ele>
        <time>2020-06-18T13:41:26Z</time>
      </trkpt>
      <trkpt lat="49.95574" lon="1.19427">
        <ele>103.1</ele>
        <time>2020-06-18T13:41:27Z</time>
      </trkpt>
      <trkpt lat="49.95574" lon="1.19436">
        <ele>103.1</ele>
        <time>2020-06-18T13:41:28Z</time>
      </trkpt>
      <trkpt lat="49.95574" lon="1.19447">
        <ele>103.2</ele>
        <time>2020-06-18T13:41:29Z</time>
      </trkpt>
      <trkpt lat="49.95574" lon="1.19457">
        <ele>103.3</ele>
        <time>2020-06-18T13:41:30Z</time>
      </trkpt>
      <trkpt lat="49.95574" lon="1.19467">
        <ele>103.4</ele>
        <time>2020-06-18T13:41:31Z</time>
      </trkpt>
      <trkpt lat="49.95574" lon="1.19477">
        <ele>103.5</ele>
        <time>2020-06-18T13:41:32Z</time>
      </trkpt>
      <trkpt lat="49.95574" lon="1.19486">
        <ele>103.6</ele>
        <time>2020-06-18T13:41:33Z</time>
      </trkpt>
      <trkpt lat="49.95575" lon="1.19496">
        <ele>103.8</ele>
        <time>2020-06-18T13:41:34Z</time>
      </trkpt>
      <trkpt lat="49.95575" lon="1.19506">
        <ele>104</ele>
        <time>2020-06-18T13:41:35Z</time>
      </trkpt>
      <trkpt lat="49.95576" lon="1.19516">
        <ele>104.2</ele>
        <time>2020-06-18T13:41:36Z</time>
      </trkpt>
      <trkpt lat="49.95576" lon="1.19526">
        <ele>104.3</ele>
        <time>2020-06-18T13:41:37Z</time>
      </trkpt>
      <trkpt lat="49.95576" lon="1.19536">
        <ele>104.5</ele>
        <time>2020-06-18T13:41:38Z</time>
      </trkpt>
      <trkpt lat="49.95576" lon="1.19545">
        <ele>104.6</ele>
        <time>2020-06-18T13:41:39Z</time>
      </trkpt>
      <trkpt lat="49.95577" lon="1.19555">
        <ele>104.8</ele>
        <time>2020-06-18T13:41:40Z</time>
      </trkpt>
      <trkpt lat="49.95577" lon="1.19563">
        <ele>104.9</ele>
        <time>2020-06-18T13:41:41Z</time>
      </trkpt>
      <trkpt lat="49.95577" lon="1.19572">
        <ele>105</ele>
        <time>2020-06-18T13:41:42Z</time>
      </trkpt>
      <trkpt lat="49.95577" lon="1.19582">
        <ele>105.1</ele>
        <time>2020-06-18T13:41:43Z</time>
      </trkpt>
      <trkpt lat="49.95578" lon="1.1959">
        <ele>105.2</ele>
        <time>2020-06-18T13:41:44Z</time>
      </trkpt>
      <trkpt lat="49.95579" lon="1.19599">
        <ele>105.3</ele>
        <time>2020-06-18T13:41:45Z</time>
      </trkpt>
      <trkpt lat="49.95579" lon="1.19607">
        <ele>105.4</ele>
        <time>2020-06-18T13:41:46Z</time>
      </trkpt>
      <trkpt lat="49.9558" lon="1.19617">
        <ele>105.6</ele>
        <time>2020-06-18T13:41:47Z</time>
      </trkpt>
      <trkpt lat="49.95581" lon="1.19626">
        <ele>105.7</ele>
        <time>2020-06-18T13:41:48Z</time>
      </trkpt>
      <trkpt lat="49.95582" lon="1.19637">
        <ele>105.8</ele>
        <time>2020-06-18T13:41:49Z</time>
      </trkpt>
      <trkpt lat="49.95583" lon="1.19646">
        <ele>105.9</ele>
        <time>2020-06-18T13:41:50Z</time>
      </trkpt>
      <trkpt lat="49.95584" lon="1.19655">
        <ele>106</ele>
        <time>2020-06-18T13:41:51Z</time>
      </trkpt>
      <trkpt lat="49.95585" lon="1.19663">
        <ele>106.1</ele>
        <time>2020-06-18T13:41:52Z</time>
      </trkpt>
      <trkpt lat="49.95586" lon="1.19673">
        <ele>106.2</ele>
        <time>2020-06-18T13:41:53Z</time>
      </trkpt>
      <trkpt lat="49.95587" lon="1.19682">
        <ele>106.3</ele>
        <time>2020-06-18T13:41:54Z</time>
      </trkpt>
      <trkpt lat="49.95588" lon="1.19691">
        <ele>106.4</ele>
        <time>2020-06-18T13:41:55Z</time>
      </trkpt>
      <trkpt lat="49.95589" lon="1.19699">
        <ele>106.4</ele>
        <time>2020-06-18T13:41:56Z</time>
      </trkpt>
      <trkpt lat="49.9559" lon="1.19708">
        <ele>106.5</ele>
        <time>2020-06-18T13:41:57Z</time>
      </trkpt>
      <trkpt lat="49.95592" lon="1.19719">
        <ele>106.5</ele>
        <time>2020-06-18T13:41:58Z</time>
      </trkpt>
      <trkpt lat="49.95593" lon="1.19729">
        <ele>106.6</ele>
        <time>2020-06-18T13:41:59Z</time>
      </trkpt>
      <trkpt lat="49.95594" lon="1.19738">
        <ele>106.7</ele>
        <time>2020-06-18T13:42:00Z</time>
      </trkpt>
      <trkpt lat="49.95595" lon="1.19748">
        <ele>106.7</ele>
        <time>2020-06-18T13:42:01Z</time>
      </trkpt>
      <trkpt lat="49.95596" lon="1.19758">
        <ele>106.8</ele>
        <time>2020-06-18T13:42:02Z</time>
      </trkpt>
      <trkpt lat="49.95597" lon="1.19767">
        <ele>106.9</ele>
        <time>2020-06-18T13:42:03Z</time>
      </trkpt>
      <trkpt lat="49.95599" lon="1.19776">
        <ele>106.9</ele>
        <time>2020-06-18T13:42:04Z</time>
      </trkpt>
      <trkpt lat="49.956" lon="1.19785">
        <ele>107</ele>
        <time>2020-06-18T13:42:05Z</time>
      </trkpt>
      <trkpt lat="49.95602" lon="1.19794">
        <ele>107.1</ele>
        <time>2020-06-18T13:42:06Z</time>
      </trkpt>
      <trkpt lat="49.95603" lon="1.19803">
        <ele>107.1</ele>
        <time>2020-06-18T13:42:07Z</time>
      </trkpt>
      <trkpt lat="49.95604" lon="1.19812">
        <ele>107.2</ele>
        <time>2020-06-18T13:42:08Z</time>
      </trkpt>
      <trkpt lat="49.95605" lon="1.19822">
        <ele>107.3</ele>
        <time>2020-06-18T13:42:09Z</time>
      </trkpt>
      <trkpt lat="49.95606" lon="1.19831">
        <ele>107.4</ele>
        <time>2020-06-18T13:42:10Z</time>
      </trkpt>
      <trkpt lat="49.95607" lon="1.1984">
        <ele>107.4</ele>
        <time>2020-06-18T13:42:11Z</time>
      </trkpt>
      <trkpt lat="49.95608" lon="1.19848">
        <ele>107.5</ele>
        <time>2020-06-18T13:42:12Z</time>
      </trkpt>
      <trkpt lat="49.9561" lon="1.19858">
        <ele>107.6</ele>
        <time>2020-06-18T13:42:13Z</time>
      </trkpt>
      <trkpt lat="49.95611" lon="1.19867">
        <ele>107.7</ele>
        <time>2020-06-18T13:42:14Z</time>
      </trkpt>
      <trkpt lat="49.95612" lon="1.19876">
        <ele>107.7</ele>
        <time>2020-06-18T13:42:15Z</time>
      </trkpt>
      <trkpt lat="49.95614" lon="1.19885">
        <ele>107.8</ele>
        <time>2020-06-18T13:42:16Z</time>
      </trkpt>
      <trkpt lat="49.95614" lon="1.19895">
        <ele>107.9</ele>
        <time>2020-06-18T13:42:17Z</time>
      </trkpt>
      <trkpt lat="49.95615" lon="1.19903">
        <ele>107.9</ele>
        <time>2020-06-18T13:42:18Z</time>
      </trkpt>
      <trkpt lat="49.95616" lon="1.19914">
        <ele>108</ele>
        <time>2020-06-18T13:42:19Z</time>
      </trkpt>
      <trkpt lat="49.95617" lon="1.19924">
        <ele>108</ele>
        <time>2020-06-18T13:42:20Z</time>
      </trkpt>
      <trkpt lat="49.95619" lon="1.19935">
        <ele>108.1</ele>
        <time>2020-06-18T13:42:21Z</time>
      </trkpt>
      <trkpt lat="49.9562" lon="1.19945">
        <ele>108.1</ele>
        <time>2020-06-18T13:42:22Z</time>
      </trkpt>
      <trkpt lat="49.95621" lon="1.19956">
        <ele>108.1</ele>
        <time>2020-06-18T13:42:23Z</time>
      </trkpt>
      <trkpt lat="49.95622" lon="1.19966">
        <ele>108.2</ele>
        <time>2020-06-18T13:42:24Z</time>
      </trkpt>
      <trkpt lat="49.95624" lon="1.19976">
        <ele>108.2</ele>
        <time>2020-06-18T13:42:25Z</time>
      </trkpt>
      <trkpt lat="49.95625" lon="1.19986">
        <ele>108.2</ele>
        <time>2020-06-18T13:42:26Z</time>
      </trkpt>
      <trkpt lat="49.95626" lon="1.19996">
        <ele>108.2</ele>
        <time>2020-06-18T13:42:27Z</time>
      </trkpt>
      <trkpt lat="49.95628" lon="1.20007">
        <ele>108.2</ele>
        <time>2020-06-18T13:42:28Z</time>
      </trkpt>
      <trkpt lat="49.95629" lon="1.20016">
        <ele>108.2</ele>
        <time>2020-06-18T13:42:29Z</time>
      </trkpt>
      <trkpt lat="49.95631" lon="1.20028">
        <ele>108.3</ele>
        <time>2020-06-18T13:42:30Z</time>
      </trkpt>
      <trkpt lat="49.95632" lon="1.20038">
        <ele>108.4</ele>
        <time>2020-06-18T13:42:31Z</time>
      </trkpt>
      <trkpt lat="49.95633" lon="1.20049">
        <ele>108.4</ele>
        <time>2020-06-18T13:42:32Z</time>
      </trkpt>
      <trkpt lat="49.95634" lon="1.2006">
        <ele>108.4</ele>
        <time>2020-06-18T13:42:33Z</time>
      </trkpt>
      <trkpt lat="49.95635" lon="1.2007">
        <ele>108.4</ele>
        <time>2020-06-18T13:42:34Z</time>
      </trkpt>
      <trkpt lat="49.95637" lon="1.20081">
        <ele>108.4</ele>
        <time>2020-06-18T13:42:35Z</time>
      </trkpt>
      <trkpt lat="49.95638" lon="1.20091">
        <ele>108.5</ele>
        <time>2020-06-18T13:42:36Z</time>
      </trkpt>
      <trkpt lat="49.95639" lon="1.20101">
        <ele>108.5</ele>
        <time>2020-06-18T13:42:37Z</time>
      </trkpt>
      <trkpt lat="49.95641" lon="1.20111">
        <ele>108.6</ele>
        <time>2020-06-18T13:42:38Z</time>
      </trkpt>
      <trkpt lat="49.95642" lon="1.20121">
        <ele>108.6</ele>
        <time>2020-06-18T13:42:39Z</time>
      </trkpt>
      <trkpt lat="49.95643" lon="1.20131">
        <ele>108.7</ele>
        <time>2020-06-18T13:42:40Z</time>
      </trkpt>
      <trkpt lat="49.95645" lon="1.20141">
        <ele>108.7</ele>
        <time>2020-06-18T13:42:41Z</time>
      </trkpt>
      <trkpt lat="49.95646" lon="1.20151">
        <ele>108.8</ele>
        <time>2020-06-18T13:42:42Z</time>
      </trkpt>
      <trkpt lat="49.95648" lon="1.20162">
        <ele>108.8</ele>
        <time>2020-06-18T13:42:43Z</time>
      </trkpt>
      <trkpt lat="49.95648" lon="1.20171">
        <ele>108.8</ele>
        <time>2020-06-18T13:42:44Z</time>
      </trkpt>
      <trkpt lat="49.95649" lon="1.20182">
        <ele>108.8</ele>
        <time>2020-06-18T13:42:45Z</time>
      </trkpt>
      <trkpt lat="49.9565" lon="1.20193">
        <ele>108.8</ele>
        <time>2020-06-18T13:42:46Z</time>
      </trkpt>
      <trkpt lat="49.95651" lon="1.20204">
        <ele>108.7</ele>
        <time>2020-06-18T13:42:47Z</time>
      </trkpt>
      <trkpt lat="49.95652" lon="1.20214">
        <ele>108.7</ele>
        <time>2020-06-18T13:42:48Z</time>
      </trkpt>
      <trkpt lat="49.95652" lon="1.20225">
        <ele>108.6</ele>
        <time>2020-06-18T13:42:49Z</time>
      </trkpt>
      <trkpt lat="49.95654" lon="1.20235">
        <ele>108.6</ele>
        <time>2020-06-18T13:42:50Z</time>
      </trkpt>
      <trkpt lat="49.95654" lon="1.20245">
        <ele>108.5</ele>
        <time>2020-06-18T13:42:51Z</time>
      </trkpt>
      <trkpt lat="49.95655" lon="1.20256">
        <ele>108.5</ele>
        <time>2020-06-18T13:42:52Z</time>
      </trkpt>
      <trkpt lat="49.95656" lon="1.20268">
        <ele>108.4</ele>
        <time>2020-06-18T13:42:53Z</time>
      </trkpt>
      <trkpt lat="49.95657" lon="1.20278">
        <ele>108.4</ele>
        <time>2020-06-18T13:42:54Z</time>
      </trkpt>
      <trkpt lat="49.95658" lon="1.20289">
        <ele>108.4</ele>
        <time>2020-06-18T13:42:55Z</time>
      </trkpt>
      <trkpt lat="49.95659" lon="1.20299">
        <ele>108.4</ele>
        <time>2020-06-18T13:42:56Z</time>
      </trkpt>
      <trkpt lat="49.95659" lon="1.2031">
        <ele>108.4</ele>
        <time>2020-06-18T13:42:57Z</time>
      </trkpt>
      <trkpt lat="49.9566" lon="1.2032">
        <ele>108.4</ele>
        <time>2020-06-18T13:42:58Z</time>
      </trkpt>
      <trkpt lat="49.9566" lon="1.20331">
        <ele>108.4</ele>
        <time>2020-06-18T13:42:59Z</time>
      </trkpt>
      <trkpt lat="49.95661" lon="1.20343">
        <ele>108.4</ele>
        <time>2020-06-18T13:43:00Z</time>
      </trkpt>
      <trkpt lat="49.95662" lon="1.20355">
        <ele>108.4</ele>
        <time>2020-06-18T13:43:01Z</time>
      </trkpt>
      <trkpt lat="49.95662" lon="1.20366">
        <ele>108.4</ele>
        <time>2020-06-18T13:43:02Z</time>
      </trkpt>
      <trkpt lat="49.95663" lon="1.20378">
        <ele>108.4</ele>
        <time>2020-06-18T13:43:03Z</time>
      </trkpt>
      <trkpt lat="49.95663" lon="1.20389">
        <ele>108.4</ele>
        <time>2020-06-18T13:43:04Z</time>
      </trkpt>
      <trkpt lat="49.95664" lon="1.20399">
        <ele>108.4</ele>
        <time>2020-06-18T13:43:05Z</time>
      </trkpt>
      <trkpt lat="49.95665" lon="1.2041">
        <ele>108.4</ele>
        <time>2020-06-18T13:43:06Z</time>
      </trkpt>
      <trkpt lat="49.95666" lon="1.2042">
        <ele>108.4</ele>
        <time>2020-06-18T13:43:07Z</time>
      </trkpt>
      <trkpt lat="49.95666" lon="1.20431">
        <ele>108.4</ele>
        <time>2020-06-18T13:43:08Z</time>
      </trkpt>
      <trkpt lat="49.95667" lon="1.20442">
        <ele>108.4</ele>
        <time>2020-06-18T13:43:09Z</time>
      </trkpt>
      <trkpt lat="49.95669" lon="1.20453">
        <ele>108.4</ele>
        <time>2020-06-18T13:43:10Z</time>
      </trkpt>
      <trkpt lat="49.95671" lon="1.20463">
        <ele>108.4</ele>
        <time>2020-06-18T13:43:11Z</time>
      </trkpt>
      <trkpt lat="49.95673" lon="1.20473">
        <ele>108.4</ele>
        <time>2020-06-18T13:43:12Z</time>
      </trkpt>
      <trkpt lat="49.95675" lon="1.20482">
        <ele>108.4</ele>
        <time>2020-06-18T13:43:13Z</time>
      </trkpt>
      <trkpt lat="49.95678" lon="1.20493">
        <ele>108.3</ele>
        <time>2020-06-18T13:43:14Z</time>
      </trkpt>
      <trkpt lat="49.9568" lon="1.20503">
        <ele>108.3</ele>
        <time>2020-06-18T13:43:15Z</time>
      </trkpt>
      <trkpt lat="49.95683" lon="1.20513">
        <ele>108.3</ele>
        <time>2020-06-18T13:43:16Z</time>
      </trkpt>
      <trkpt lat="49.95687" lon="1.20522">
        <ele>108.3</ele>
        <time>2020-06-18T13:43:17Z</time>
      </trkpt>
      <trkpt lat="49.95691" lon="1.20531">
        <ele>108.3</ele>
        <time>2020-06-18T13:43:18Z</time>
      </trkpt>
      <trkpt lat="49.95695" lon="1.20541">
        <ele>108.3</ele>
        <time>2020-06-18T13:43:19Z</time>
      </trkpt>
      <trkpt lat="49.95699" lon="1.2055">
        <ele>108.4</ele>
        <time>2020-06-18T13:43:20Z</time>
      </trkpt>
      <trkpt lat="49.95703" lon="1.20558">
        <ele>108.4</ele>
        <time>2020-06-18T13:43:21Z</time>
      </trkpt>
      <trkpt lat="49.95707" lon="1.20567">
        <ele>108.4</ele>
        <time>2020-06-18T13:43:22Z</time>
      </trkpt>
      <trkpt lat="49.95711" lon="1.20576">
        <ele>108.4</ele>
        <time>2020-06-18T13:43:23Z</time>
      </trkpt>
      <trkpt lat="49.95715" lon="1.20584">
        <ele>108.4</ele>
        <time>2020-06-18T13:43:24Z</time>
      </trkpt>
      <trkpt lat="49.95719" lon="1.20592">
        <ele>108.4</ele>
        <time>2020-06-18T13:43:25Z</time>
      </trkpt>
      <trkpt lat="49.95723" lon="1.206">
        <ele>108.4</ele>
        <time>2020-06-18T13:43:26Z</time>
      </trkpt>
      <trkpt lat="49.95728" lon="1.20608">
        <ele>108.4</ele>
        <time>2020-06-18T13:43:27Z</time>
      </trkpt>
      <trkpt lat="49.95732" lon="1.20616">
        <ele>108.4</ele>
        <time>2020-06-18T13:43:28Z</time>
      </trkpt>
      <trkpt lat="49.95736" lon="1.20624">
        <ele>108.4</ele>
        <time>2020-06-18T13:43:29Z</time>
      </trkpt>
      <trkpt lat="49.95741" lon="1.20633">
        <ele>108.3</ele>
        <time>2020-06-18T13:43:30Z</time>
      </trkpt>
      <trkpt lat="49.95744" lon="1.20641">
        <ele>108.3</ele>
        <time>2020-06-18T13:43:31Z</time>
      </trkpt>
      <trkpt lat="49.95748" lon="1.20649">
        <ele>108.3</ele>
        <time>2020-06-18T13:43:32Z</time>
      </trkpt>
      <trkpt lat="49.95753" lon="1.20658">
        <ele>108.3</ele>
        <time>2020-06-18T13:43:33Z</time>
      </trkpt>
      <trkpt lat="49.95757" lon="1.20666">
        <ele>108.3</ele>
        <time>2020-06-18T13:43:34Z</time>
      </trkpt>
      <trkpt lat="49.95761" lon="1.20674">
        <ele>108.3</ele>
        <time>2020-06-18T13:43:35Z</time>
      </trkpt>
      <trkpt lat="49.95765" lon="1.20682">
        <ele>108.4</ele>
        <time>2020-06-18T13:43:36Z</time>
      </trkpt>
      <trkpt lat="49.95769" lon="1.20689">
        <ele>108.4</ele>
        <time>2020-06-18T13:43:37Z</time>
      </trkpt>
      <trkpt lat="49.95772" lon="1.20697">
        <ele>108.4</ele>
        <time>2020-06-18T13:43:38Z</time>
      </trkpt>
      <trkpt lat="49.95776" lon="1.20705">
        <ele>108.4</ele>
        <time>2020-06-18T13:43:39Z</time>
      </trkpt>
      <trkpt lat="49.9578" lon="1.20713">
        <ele>108.4</ele>
        <time>2020-06-18T13:43:40Z</time>
      </trkpt>
      <trkpt lat="49.95784" lon="1.20721">
        <ele>108.4</ele>
        <time>2020-06-18T13:43:41Z</time>
      </trkpt>
      <trkpt lat="49.95787" lon="1.2073">
        <ele>108.4</ele>
        <time>2020-06-18T13:43:42Z</time>
      </trkpt>
      <trkpt lat="49.95791" lon="1.20737">
        <ele>108.4</ele>
        <time>2020-06-18T13:43:43Z</time>
      </trkpt>
      <trkpt lat="49.95795" lon="1.20745">
        <ele>108.4</ele>
        <time>2020-06-18T13:43:44Z</time>
      </trkpt>
      <trkpt lat="49.95799" lon="1.20754">
        <ele>108.4</ele>
        <time>2020-06-18T13:43:45Z</time>
      </trkpt>
      <trkpt lat="49.95802" lon="1.20762">
        <ele>108.4</ele>
        <time>2020-06-18T13:43:46Z</time>
      </trkpt>
      <trkpt lat="49.95805" lon="1.20772">
        <ele>108.4</ele>
        <time>2020-06-18T13:43:47Z</time>
      </trkpt>
      <trkpt lat="49.95807" lon="1.20781">
        <ele>108.3</ele>
        <time>2020-06-18T13:43:48Z</time>
      </trkpt>
      <trkpt lat="49.95809" lon="1.20791">
        <ele>108.3</ele>
        <time>2020-06-18T13:43:49Z</time>
      </trkpt>
      <trkpt lat="49.95809" lon="1.208">
        <ele>108.2</ele>
        <time>2020-06-18T13:43:50Z</time>
      </trkpt>
      <trkpt lat="49.9581" lon="1.2081">
        <ele>108.2</ele>
        <time>2020-06-18T13:43:51Z</time>
      </trkpt>
      <trkpt lat="49.95809" lon="1.2082">
        <ele>108.2</ele>
        <time>2020-06-18T13:43:52Z</time>
      </trkpt>
      <trkpt lat="49.95808" lon="1.20831">
        <ele>108.2</ele>
        <time>2020-06-18T13:43:53Z</time>
      </trkpt>
      <trkpt lat="49.95807" lon="1.2084">
        <ele>108.3</ele>
        <time>2020-06-18T13:43:54Z</time>
      </trkpt>
      <trkpt lat="49.95806" lon="1.2085">
        <ele>108.3</ele>
        <time>2020-06-18T13:43:55Z</time>
      </trkpt>
      <trkpt lat="49.95805" lon="1.20859">
        <ele>108.3</ele>
        <time>2020-06-18T13:43:56Z</time>
      </trkpt>
      <trkpt lat="49.95803" lon="1.20869">
        <ele>108.3</ele>
        <time>2020-06-18T13:43:57Z</time>
      </trkpt>
      <trkpt lat="49.95802" lon="1.20879">
        <ele>108.3</ele>
        <time>2020-06-18T13:43:58Z</time>
      </trkpt>
      <trkpt lat="49.958" lon="1.2089">
        <ele>108.4</ele>
        <time>2020-06-18T13:43:59Z</time>
      </trkpt>
      <trkpt lat="49.95799" lon="1.209">
        <ele>108.4</ele>
        <time>2020-06-18T13:44:00Z</time>
      </trkpt>
      <trkpt lat="49.95798" lon="1.20911">
        <ele>108.4</ele>
        <time>2020-06-18T13:44:01Z</time>
      </trkpt>
      <trkpt lat="49.95796" lon="1.20921">
        <ele>108.5</ele>
        <time>2020-06-18T13:44:02Z</time>
      </trkpt>
      <trkpt lat="49.95795" lon="1.20931">
        <ele>108.5</ele>
        <time>2020-06-18T13:44:03Z</time>
      </trkpt>
      <trkpt lat="49.95794" lon="1.20942">
        <ele>108.5</ele>
        <time>2020-06-18T13:44:04Z</time>
      </trkpt>
      <trkpt lat="49.95792" lon="1.20951">
        <ele>108.5</ele>
        <time>2020-06-18T13:44:05Z</time>
      </trkpt>
      <trkpt lat="49.95791" lon="1.20962">
        <ele>108.5</ele>
        <time>2020-06-18T13:44:06Z</time>
      </trkpt>
      <trkpt lat="49.95789" lon="1.20972">
        <ele>108.5</ele>
        <time>2020-06-18T13:44:07Z</time>
      </trkpt>
      <trkpt lat="49.95788" lon="1.20982">
        <ele>108.4</ele>
        <time>2020-06-18T13:44:08Z</time>
      </trkpt>
      <trkpt lat="49.95787" lon="1.20992">
        <ele>108.4</ele>
        <time>2020-06-18T13:44:09Z</time>
      </trkpt>
      <trkpt lat="49.95786" lon="1.21003">
        <ele>108.4</ele>
        <time>2020-06-18T13:44:10Z</time>
      </trkpt>
      <trkpt lat="49.95784" lon="1.21014">
        <ele>108.3</ele>
        <time>2020-06-18T13:44:11Z</time>
      </trkpt>
      <trkpt lat="49.95783" lon="1.21025">
        <ele>108.3</ele>
        <time>2020-06-18T13:44:12Z</time>
      </trkpt>
      <trkpt lat="49.95781" lon="1.21036">
        <ele>108.3</ele>
        <time>2020-06-18T13:44:13Z</time>
      </trkpt>
      <trkpt lat="49.95779" lon="1.21047">
        <ele>108.3</ele>
        <time>2020-06-18T13:44:14Z</time>
      </trkpt>
      <trkpt lat="49.95778" lon="1.21057">
        <ele>108.3</ele>
        <time>2020-06-18T13:44:15Z</time>
      </trkpt>
      <trkpt lat="49.95776" lon="1.21068">
        <ele>108.3</ele>
        <time>2020-06-18T13:44:16Z</time>
      </trkpt>
      <trkpt lat="49.95775" lon="1.21079">
        <ele>108.3</ele>
        <time>2020-06-18T13:44:17Z</time>
      </trkpt>
      <trkpt lat="49.95773" lon="1.21089">
        <ele>108.2</ele>
        <time>2020-06-18T13:44:18Z</time>
      </trkpt>
      <trkpt lat="49.95771" lon="1.211">
        <ele>108.2</ele>
        <time>2020-06-18T13:44:19Z</time>
      </trkpt>
      <trkpt lat="49.9577" lon="1.2111">
        <ele>108.2</ele>
        <time>2020-06-18T13:44:20Z</time>
      </trkpt>
      <trkpt lat="49.95768" lon="1.21122">
        <ele>108.2</ele>
        <time>2020-06-18T13:44:21Z</time>
      </trkpt>
      <trkpt lat="49.95767" lon="1.21134">
        <ele>108.2</ele>
        <time>2020-06-18T13:44:22Z</time>
      </trkpt>
      <trkpt lat="49.95766" lon="1.21145">
        <ele>108.1</ele>
        <time>2020-06-18T13:44:23Z</time>
      </trkpt>
      <trkpt lat="49.95764" lon="1.21156">
        <ele>108.1</ele>
        <time>2020-06-18T13:44:24Z</time>
      </trkpt>
      <trkpt lat="49.95764" lon="1.21167">
        <ele>108.1</ele>
        <time>2020-06-18T13:44:25Z</time>
      </trkpt>
      <trkpt lat="49.95763" lon="1.21177">
        <ele>108.1</ele>
        <time>2020-06-18T13:44:26Z</time>
      </trkpt>
      <trkpt lat="49.95763" lon="1.21188">
        <ele>108.1</ele>
        <time>2020-06-18T13:44:27Z</time>
      </trkpt>
      <trkpt lat="49.95763" lon="1.21199">
        <ele>108.1</ele>
        <time>2020-06-18T13:44:28Z</time>
      </trkpt>
      <trkpt lat="49.95763" lon="1.2121">
        <ele>108.2</ele>
        <time>2020-06-18T13:44:29Z</time>
      </trkpt>
      <trkpt lat="49.95764" lon="1.21222">
        <ele>108.2</ele>
        <time>2020-06-18T13:44:30Z</time>
      </trkpt>
      <trkpt lat="49.95764" lon="1.21232">
        <ele>108.3</ele>
        <time>2020-06-18T13:44:31Z</time>
      </trkpt>
      <trkpt lat="49.95765" lon="1.21243">
        <ele>108.3</ele>
        <time>2020-06-18T13:44:32Z</time>
      </trkpt>
      <trkpt lat="49.95766" lon="1.21252">
        <ele>108.4</ele>
        <time>2020-06-18T13:44:33Z</time>
      </trkpt>
      <trkpt lat="49.95767" lon="1.21262">
        <ele>108.4</ele>
        <time>2020-06-18T13:44:34Z</time>
      </trkpt>
      <trkpt lat="49.95768" lon="1.21272">
        <ele>108.5</ele>
        <time>2020-06-18T13:44:35Z</time>
      </trkpt>
      <trkpt lat="49.95769" lon="1.21283">
        <ele>108.5</ele>
        <time>2020-06-18T13:44:36Z</time>
      </trkpt>
      <trkpt lat="49.95769" lon="1.21293">
        <ele>108.5</ele>
        <time>2020-06-18T13:44:37Z</time>
      </trkpt>
      <trkpt lat="49.9577" lon="1.21303">
        <ele>108.6</ele>
        <time>2020-06-18T13:44:38Z</time>
      </trkpt>
      <trkpt lat="49.9577" lon="1.21313">
        <ele>108.6</ele>
        <time>2020-06-18T13:44:39Z</time>
      </trkpt>
      <trkpt lat="49.9577" lon="1.21324">
        <ele>108.7</ele>
        <time>2020-06-18T13:44:40Z</time>
      </trkpt>
      <trkpt lat="49.95769" lon="1.21334">
        <ele>108.8</ele>
        <time>2020-06-18T13:44:41Z</time>
      </trkpt>
      <trkpt lat="49.95767" lon="1.21344">
        <ele>108.8</ele>
        <time>2020-06-18T13:44:42Z</time>
      </trkpt>
      <trkpt lat="49.95766" lon="1.21354">
        <ele>108.8</ele>
        <time>2020-06-18T13:44:43Z</time>
      </trkpt>
      <trkpt lat="49.95765" lon="1.21364">
        <ele>108.8</ele>
        <time>2020-06-18T13:44:44Z</time>
      </trkpt>
      <trkpt lat="49.95764" lon="1.21375">
        <ele>108.8</ele>
        <time>2020-06-18T13:44:45Z</time>
      </trkpt>
      <trkpt lat="49.95763" lon="1.21384">
        <ele>108.8</ele>
        <time>2020-06-18T13:44:46Z</time>
      </trkpt>
      <trkpt lat="49.95761" lon="1.21394">
        <ele>108.8</ele>
        <time>2020-06-18T13:44:47Z</time>
      </trkpt>
      <trkpt lat="49.9576" lon="1.21404">
        <ele>108.8</ele>
        <time>2020-06-18T13:44:48Z</time>
      </trkpt>
      <trkpt lat="49.95758" lon="1.21413">
        <ele>108.8</ele>
        <time>2020-06-18T13:44:49Z</time>
      </trkpt>
      <trkpt lat="49.95756" lon="1.21423">
        <ele>108.9</ele>
        <time>2020-06-18T13:44:50Z</time>
      </trkpt>
      <trkpt lat="49.95755" lon="1.21434">
        <ele>108.9</ele>
        <time>2020-06-18T13:44:51Z</time>
      </trkpt>
      <trkpt lat="49.95753" lon="1.21444">
        <ele>108.9</ele>
        <time>2020-06-18T13:44:52Z</time>
      </trkpt>
      <trkpt lat="49.95751" lon="1.21454">
        <ele>109</ele>
        <time>2020-06-18T13:44:53Z</time>
      </trkpt>
      <trkpt lat="49.9575" lon="1.21464">
        <ele>109</ele>
        <time>2020-06-18T13:44:54Z</time>
      </trkpt>
      <trkpt lat="49.95748" lon="1.21475">
        <ele>109.1</ele>
        <time>2020-06-18T13:44:55Z</time>
      </trkpt>
      <trkpt lat="49.95746" lon="1.21485">
        <ele>109.1</ele>
        <time>2020-06-18T13:44:56Z</time>
      </trkpt>
      <trkpt lat="49.95746" lon="1.21496">
        <ele>109.2</ele>
        <time>2020-06-18T13:44:57Z</time>
      </trkpt>
      <trkpt lat="49.95744" lon="1.21506">
        <ele>109.2</ele>
        <time>2020-06-18T13:44:58Z</time>
      </trkpt>
      <trkpt lat="49.95744" lon="1.21516">
        <ele>109.2</ele>
        <time>2020-06-18T13:44:59Z</time>
      </trkpt>
      <trkpt lat="49.95743" lon="1.21527">
        <ele>109.3</ele>
        <time>2020-06-18T13:45:00Z</time>
      </trkpt>
      <trkpt lat="49.95743" lon="1.21538">
        <ele>109.5</ele>
        <time>2020-06-18T13:45:01Z</time>
      </trkpt>
      <trkpt lat="49.95742" lon="1.21547">
        <ele>109.6</ele>
        <time>2020-06-18T13:45:02Z</time>
      </trkpt>
      <trkpt lat="49.95743" lon="1.21555">
        <ele>109.7</ele>
        <time>2020-06-18T13:45:03Z</time>
      </trkpt>
      <trkpt lat="49.95743" lon="1.21565">
        <ele>109.8</ele>
        <time>2020-06-18T13:45:04Z</time>
      </trkpt>
      <trkpt lat="49.95741" lon="1.21575">
        <ele>109.8</ele>
        <time>2020-06-18T13:45:05Z</time>
      </trkpt>
      <trkpt lat="49.95741" lon="1.21586">
        <ele>109.9</ele>
        <time>2020-06-18T13:45:06Z</time>
      </trkpt>
      <trkpt lat="49.95741" lon="1.21595">
        <ele>109.9</ele>
        <time>2020-06-18T13:45:07Z</time>
      </trkpt>
      <trkpt lat="49.95741" lon="1.21605">
        <ele>110</ele>
        <time>2020-06-18T13:45:08Z</time>
      </trkpt>
      <trkpt lat="49.95741" lon="1.21616">
        <ele>110.1</ele>
        <time>2020-06-18T13:45:09Z</time>
      </trkpt>
      <trkpt lat="49.9574" lon="1.21627">
        <ele>110.2</ele>
        <time>2020-06-18T13:45:10Z</time>
      </trkpt>
      <trkpt lat="49.95739" lon="1.21638">
        <ele>110.2</ele>
        <time>2020-06-18T13:45:11Z</time>
      </trkpt>
      <trkpt lat="49.95738" lon="1.21647">
        <ele>110.3</ele>
        <time>2020-06-18T13:45:12Z</time>
      </trkpt>
      <trkpt lat="49.95738" lon="1.21657">
        <ele>110.4</ele>
        <time>2020-06-18T13:45:13Z</time>
      </trkpt>
      <trkpt lat="49.95738" lon="1.21667">
        <ele>110.4</ele>
        <time>2020-06-18T13:45:14Z</time>
      </trkpt>
      <trkpt lat="49.95738" lon="1.21678">
        <ele>110.5</ele>
        <time>2020-06-18T13:45:15Z</time>
      </trkpt>
      <trkpt lat="49.95738" lon="1.21689">
        <ele>110.6</ele>
        <time>2020-06-18T13:45:16Z</time>
      </trkpt>
      <trkpt lat="49.95738" lon="1.21698">
        <ele>110.7</ele>
        <time>2020-06-18T13:45:17Z</time>
      </trkpt>
      <trkpt lat="49.95737" lon="1.21708">
        <ele>110.7</ele>
        <time>2020-06-18T13:45:18Z</time>
      </trkpt>
      <trkpt lat="49.95737" lon="1.21718">
        <ele>110.8</ele>
        <time>2020-06-18T13:45:19Z</time>
      </trkpt>
      <trkpt lat="49.95737" lon="1.21726">
        <ele>110.9</ele>
        <time>2020-06-18T13:45:20Z</time>
      </trkpt>
      <trkpt lat="49.95737" lon="1.21735">
        <ele>110.9</ele>
        <time>2020-06-18T13:45:21Z</time>
      </trkpt>
      <trkpt lat="49.95737" lon="1.21745">
        <ele>111</ele>
        <time>2020-06-18T13:45:22Z</time>
      </trkpt>
      <trkpt lat="49.95737" lon="1.21755">
        <ele>111.2</ele>
        <time>2020-06-18T13:45:23Z</time>
      </trkpt>
      <trkpt lat="49.95737" lon="1.21765">
        <ele>111.3</ele>
        <time>2020-06-18T13:45:24Z</time>
      </trkpt>
      <trkpt lat="49.95737" lon="1.21774">
        <ele>111.3</ele>
        <time>2020-06-18T13:45:25Z</time>
      </trkpt>
      <trkpt lat="49.95737" lon="1.21782">
        <ele>111.4</ele>
        <time>2020-06-18T13:45:26Z</time>
      </trkpt>
      <trkpt lat="49.95736" lon="1.21791">
        <ele>111.5</ele>
        <time>2020-06-18T13:45:27Z</time>
      </trkpt>
      <trkpt lat="49.95736" lon="1.21801">
        <ele>111.5</ele>
        <time>2020-06-18T13:45:28Z</time>
      </trkpt>
      <trkpt lat="49.95736" lon="1.21811">
        <ele>111.6</ele>
        <time>2020-06-18T13:45:29Z</time>
      </trkpt>
      <trkpt lat="49.95735" lon="1.2182">
        <ele>111.6</ele>
        <time>2020-06-18T13:45:30Z</time>
      </trkpt>
      <trkpt lat="49.95735" lon="1.2183">
        <ele>111.7</ele>
        <time>2020-06-18T13:45:31Z</time>
      </trkpt>
      <trkpt lat="49.95735" lon="1.21839">
        <ele>111.8</ele>
        <time>2020-06-18T13:45:32Z</time>
      </trkpt>
      <trkpt lat="49.95734" lon="1.21851">
        <ele>112</ele>
        <time>2020-06-18T13:45:33Z</time>
      </trkpt>
      <trkpt lat="49.95732" lon="1.21862">
        <ele>112.1</ele>
        <time>2020-06-18T13:45:34Z</time>
      </trkpt>
      <trkpt lat="49.95731" lon="1.21872">
        <ele>112.3</ele>
        <time>2020-06-18T13:45:35Z</time>
      </trkpt>
      <trkpt lat="49.9573" lon="1.2188">
        <ele>112.3</ele>
        <time>2020-06-18T13:45:36Z</time>
      </trkpt>
      <trkpt lat="49.95728" lon="1.21889">
        <ele>112.4</ele>
        <time>2020-06-18T13:45:37Z</time>
      </trkpt>
      <trkpt lat="49.95726" lon="1.21897">
        <ele>112.4</ele>
        <time>2020-06-18T13:45:38Z</time>
      </trkpt>
      <trkpt lat="49.95726" lon="1.21904">
        <ele>112.5</ele>
        <time>2020-06-18T13:45:39Z</time>
      </trkpt>
      <trkpt lat="49.95726" lon="1.21912">
        <ele>112.6</ele>
        <time>2020-06-18T13:45:40Z</time>
      </trkpt>
      <trkpt lat="49.95726" lon="1.21922">
        <ele>112.6</ele>
        <time>2020-06-18T13:45:41Z</time>
      </trkpt>
      <trkpt lat="49.95727" lon="1.21931">
        <ele>112.7</ele>
        <time>2020-06-18T13:45:42Z</time>
      </trkpt>
      <trkpt lat="49.95729" lon="1.21938">
        <ele>112.7</ele>
        <time>2020-06-18T13:45:43Z</time>
      </trkpt>
      <trkpt lat="49.95731" lon="1.21944">
        <ele>112.7</ele>
        <time>2020-06-18T13:45:44Z</time>
      </trkpt>
      <trkpt lat="49.95733" lon="1.2195">
        <ele>112.8</ele>
        <time>2020-06-18T13:45:45Z</time>
      </trkpt>
      <trkpt lat="49.95736" lon="1.21957">
        <ele>112.8</ele>
        <time>2020-06-18T13:45:46Z</time>
      </trkpt>
      <trkpt lat="49.9574" lon="1.21964">
        <ele>112.8</ele>
        <time>2020-06-18T13:45:47Z</time>
      </trkpt>
      <trkpt lat="49.95743" lon="1.21971">
        <ele>112.8</ele>
        <time>2020-06-18T13:45:48Z</time>
      </trkpt>
      <trkpt lat="49.95746" lon="1.21977">
        <ele>112.9</ele>
        <time>2020-06-18T13:45:49Z</time>
      </trkpt>
      <trkpt lat="49.9575" lon="1.21983">
        <ele>113</ele>
        <time>2020-06-18T13:45:50Z</time>
      </trkpt>
      <trkpt lat="49.95753" lon="1.21989">
        <ele>113</ele>
        <time>2020-06-18T13:45:51Z</time>
      </trkpt>
      <trkpt lat="49.95757" lon="1.21994">
        <ele>113.1</ele>
        <time>2020-06-18T13:45:52Z</time>
      </trkpt>
      <trkpt lat="49.9576" lon="1.22001">
        <ele>113.1</ele>
        <time>2020-06-18T13:45:53Z</time>
      </trkpt>
      <trkpt lat="49.95762" lon="1.22008">
        <ele>113.2</ele>
        <time>2020-06-18T13:45:54Z</time>
      </trkpt>
      <trkpt lat="49.95762" lon="1.22013">
        <ele>113.2</ele>
        <time>2020-06-18T13:45:55Z</time>
      </trkpt>
      <trkpt lat="49.9576" lon="1.22021">
        <ele>113.2</ele>
        <time>2020-06-18T13:45:56Z</time>
      </trkpt>
      <trkpt lat="49.95758" lon="1.22029">
        <ele>113.3</ele>
        <time>2020-06-18T13:45:57Z</time>
      </trkpt>
      <trkpt lat="49.95756" lon="1.22038">
        <ele>113.3</ele>
        <time>2020-06-18T13:45:58Z</time>
      </trkpt>
      <trkpt lat="49.95754" lon="1.22048">
        <ele>113.3</ele>
        <time>2020-06-18T13:45:59Z</time>
      </trkpt>
      <trkpt lat="49.95751" lon="1.22056">
        <ele>113.4</ele>
        <time>2020-06-18T13:46:00Z</time>
      </trkpt>
      <trkpt lat="49.95748" lon="1.22065">
        <ele>113.4</ele>
        <time>2020-06-18T13:46:01Z</time>
      </trkpt>
      <trkpt lat="49.95746" lon="1.22072">
        <ele>113.5</ele>
        <time>2020-06-18T13:46:02Z</time>
      </trkpt>
      <trkpt lat="49.95743" lon="1.22079">
        <ele>113.6</ele>
        <time>2020-06-18T13:46:03Z</time>
      </trkpt>
      <trkpt lat="49.95739" lon="1.22088">
        <ele>113.7</ele>
        <time>2020-06-18T13:46:04Z</time>
      </trkpt>
      <trkpt lat="49.95736" lon="1.22098">
        <ele>113.8</ele>
        <time>2020-06-18T13:46:05Z</time>
      </trkpt>
      <trkpt lat="49.95734" lon="1.22107">
        <ele>114</ele>
        <time>2020-06-18T13:46:06Z</time>
      </trkpt>
      <trkpt lat="49.95731" lon="1.22115">
        <ele>114.1</ele>
        <time>2020-06-18T13:46:07Z</time>
      </trkpt>
      <trkpt lat="49.95728" lon="1.22123">
        <ele>114.2</ele>
        <time>2020-06-18T13:46:08Z</time>
      </trkpt>
      <trkpt lat="49.95725" lon="1.22132">
        <ele>114.2</ele>
        <time>2020-06-18T13:46:09Z</time>
      </trkpt>
      <trkpt lat="49.95724" lon="1.22141">
        <ele>114.2</ele>
        <time>2020-06-18T13:46:10Z</time>
      </trkpt>
      <trkpt lat="49.95722" lon="1.22149">
        <ele>114.2</ele>
        <time>2020-06-18T13:46:11Z</time>
      </trkpt>
      <trkpt lat="49.95721" lon="1.22158">
        <ele>114.2</ele>
        <time>2020-06-18T13:46:12Z</time>
      </trkpt>
      <trkpt lat="49.95718" lon="1.22167">
        <ele>114.2</ele>
        <time>2020-06-18T13:46:13Z</time>
      </trkpt>
      <trkpt lat="49.95717" lon="1.22175">
        <ele>114.2</ele>
        <time>2020-06-18T13:46:14Z</time>
      </trkpt>
      <trkpt lat="49.95715" lon="1.22183">
        <ele>114.2</ele>
        <time>2020-06-18T13:46:15Z</time>
      </trkpt>
      <trkpt lat="49.95714" lon="1.2219">
        <ele>114.2</ele>
        <time>2020-06-18T13:46:16Z</time>
      </trkpt>
      <trkpt lat="49.95713" lon="1.22198">
        <ele>114.3</ele>
        <time>2020-06-18T13:46:17Z</time>
      </trkpt>
      <trkpt lat="49.95711" lon="1.22204">
        <ele>114.3</ele>
        <time>2020-06-18T13:46:18Z</time>
      </trkpt>
      <trkpt lat="49.9571" lon="1.2221">
        <ele>114.3</ele>
        <time>2020-06-18T13:46:19Z</time>
      </trkpt>
      <trkpt lat="49.95709" lon="1.22218">
        <ele>114.4</ele>
        <time>2020-06-18T13:46:20Z</time>
      </trkpt>
      <trkpt lat="49.95709" lon="1.22224">
        <ele>114.4</ele>
        <time>2020-06-18T13:46:21Z</time>
      </trkpt>
      <trkpt lat="49.9571" lon="1.22231">
        <ele>114.5</ele>
        <time>2020-06-18T13:46:22Z</time>
      </trkpt>
      <trkpt lat="49.95711" lon="1.22238">
        <ele>114.4</ele>
        <time>2020-06-18T13:46:23Z</time>
      </trkpt>
      <trkpt lat="49.95713" lon="1.22244">
        <ele>114.3</ele>
        <time>2020-06-18T13:46:24Z</time>
      </trkpt>
      <trkpt lat="49.95717" lon="1.22249">
        <ele>114.2</ele>
        <time>2020-06-18T13:46:25Z</time>
      </trkpt>
      <trkpt lat="49.95721" lon="1.22253">
        <ele>114.1</ele>
        <time>2020-06-18T13:46:26Z</time>
      </trkpt>
      <trkpt lat="49.95725" lon="1.22256">
        <ele>114</ele>
        <time>2020-06-18T13:46:27Z</time>
      </trkpt>
      <trkpt lat="49.95731" lon="1.2226">
        <ele>113.9</ele>
        <time>2020-06-18T13:46:28Z</time>
      </trkpt>
      <trkpt lat="49.95737" lon="1.22264">
        <ele>113.8</ele>
        <time>2020-06-18T13:46:29Z</time>
      </trkpt>
      <trkpt lat="49.95742" lon="1.22267">
        <ele>113.7</ele>
        <time>2020-06-18T13:46:30Z</time>
      </trkpt>
      <trkpt lat="49.95747" lon="1.2227">
        <ele>113.7</ele>
        <time>2020-06-18T13:46:31Z</time>
      </trkpt>
      <trkpt lat="49.95752" lon="1.22274">
        <ele>113.7</ele>
        <time>2020-06-18T13:46:32Z</time>
      </trkpt>
      <trkpt lat="49.95757" lon="1.22277">
        <ele>113.7</ele>
        <time>2020-06-18T13:46:33Z</time>
      </trkpt>
      <trkpt lat="49.95762" lon="1.22281">
        <ele>113.7</ele>
        <time>2020-06-18T13:46:34Z</time>
      </trkpt>
      <trkpt lat="49.95767" lon="1.22285">
        <ele>113.7</ele>
        <time>2020-06-18T13:46:35Z</time>
      </trkpt>
      <trkpt lat="49.95773" lon="1.2229">
        <ele>113.7</ele>
        <time>2020-06-18T13:46:36Z</time>
      </trkpt>
      <trkpt lat="49.95779" lon="1.22294">
        <ele>113.7</ele>
        <time>2020-06-18T13:46:37Z</time>
      </trkpt>
      <trkpt lat="49.95785" lon="1.22298">
        <ele>113.7</ele>
        <time>2020-06-18T13:46:38Z</time>
      </trkpt>
      <trkpt lat="49.95791" lon="1.22302">
        <ele>113.7</ele>
        <time>2020-06-18T13:46:39Z</time>
      </trkpt>
      <trkpt lat="49.95797" lon="1.22306">
        <ele>113.7</ele>
        <time>2020-06-18T13:46:40Z</time>
      </trkpt>
      <trkpt lat="49.95803" lon="1.2231">
        <ele>113.7</ele>
        <time>2020-06-18T13:46:41Z</time>
      </trkpt>
      <trkpt lat="49.95809" lon="1.22313">
        <ele>113.7</ele>
        <time>2020-06-18T13:46:42Z</time>
      </trkpt>
      <trkpt lat="49.95814" lon="1.22318">
        <ele>113.7</ele>
        <time>2020-06-18T13:46:43Z</time>
      </trkpt>
      <trkpt lat="49.9582" lon="1.2232">
        <ele>113.8</ele>
        <time>2020-06-18T13:46:44Z</time>
      </trkpt>
      <trkpt lat="49.95826" lon="1.22324">
        <ele>113.8</ele>
        <time>2020-06-18T13:46:45Z</time>
      </trkpt>
      <trkpt lat="49.95832" lon="1.22327">
        <ele>113.9</ele>
        <time>2020-06-18T13:46:46Z</time>
      </trkpt>
      <trkpt lat="49.95838" lon="1.2233">
        <ele>113.9</ele>
        <time>2020-06-18T13:46:47Z</time>
      </trkpt>
      <trkpt lat="49.95844" lon="1.22332">
        <ele>114</ele>
        <time>2020-06-18T13:46:48Z</time>
      </trkpt>
      <trkpt lat="49.9585" lon="1.22336">
        <ele>114</ele>
        <time>2020-06-18T13:46:49Z</time>
      </trkpt>
      <trkpt lat="49.95856" lon="1.22339">
        <ele>114.1</ele>
        <time>2020-06-18T13:46:50Z</time>
      </trkpt>
      <trkpt lat="49.95862" lon="1.22343">
        <ele>114.1</ele>
        <time>2020-06-18T13:46:51Z</time>
      </trkpt>
      <trkpt lat="49.95868" lon="1.22346">
        <ele>114.1</ele>
        <time>2020-06-18T13:46:52Z</time>
      </trkpt>
      <trkpt lat="49.95874" lon="1.2235">
        <ele>114.1</ele>
        <time>2020-06-18T13:46:53Z</time>
      </trkpt>
      <trkpt lat="49.95879" lon="1.22353">
        <ele>114.2</ele>
        <time>2020-06-18T13:46:54Z</time>
      </trkpt>
      <trkpt lat="49.95885" lon="1.22356">
        <ele>114.2</ele>
        <time>2020-06-18T13:46:55Z</time>
      </trkpt>
      <trkpt lat="49.95891" lon="1.2236">
        <ele>114.2</ele>
        <time>2020-06-18T13:46:56Z</time>
      </trkpt>
      <trkpt lat="49.95897" lon="1.22363">
        <ele>114.2</ele>
        <time>2020-06-18T13:46:57Z</time>
      </trkpt>
      <trkpt lat="49.95903" lon="1.22367">
        <ele>114.3</ele>
        <time>2020-06-18T13:46:58Z</time>
      </trkpt>
      <trkpt lat="49.95909" lon="1.2237">
        <ele>114.3</ele>
        <time>2020-06-18T13:46:59Z</time>
      </trkpt>
      <trkpt lat="49.95915" lon="1.22372">
        <ele>114.4</ele>
        <time>2020-06-18T13:47:00Z</time>
      </trkpt>
      <trkpt lat="49.95921" lon="1.22374">
        <ele>114.4</ele>
        <time>2020-06-18T13:47:01Z</time>
      </trkpt>
      <trkpt lat="49.95927" lon="1.22377">
        <ele>114.4</ele>
        <time>2020-06-18T13:47:02Z</time>
      </trkpt>
      <trkpt lat="49.95933" lon="1.22379">
        <ele>114.5</ele>
        <time>2020-06-18T13:47:03Z</time>
      </trkpt>
      <trkpt lat="49.95939" lon="1.2238">
        <ele>114.5</ele>
        <time>2020-06-18T13:47:04Z</time>
      </trkpt>
      <trkpt lat="49.95945" lon="1.22383">
        <ele>114.5</ele>
        <time>2020-06-18T13:47:05Z</time>
      </trkpt>
      <trkpt lat="49.95951" lon="1.22385">
        <ele>114.5</ele>
        <time>2020-06-18T13:47:06Z</time>
      </trkpt>
      <trkpt lat="49.95957" lon="1.22386">
        <ele>114.5</ele>
        <time>2020-06-18T13:47:07Z</time>
      </trkpt>
      <trkpt lat="49.95963" lon="1.22388">
        <ele>114.5</ele>
        <time>2020-06-18T13:47:08Z</time>
      </trkpt>
      <trkpt lat="49.9597" lon="1.22388">
        <ele>114.5</ele>
        <time>2020-06-18T13:47:09Z</time>
      </trkpt>
      <trkpt lat="49.95977" lon="1.22389">
        <ele>114.5</ele>
        <time>2020-06-18T13:47:10Z</time>
      </trkpt>
      <trkpt lat="49.95983" lon="1.22391">
        <ele>114.5</ele>
        <time>2020-06-18T13:47:11Z</time>
      </trkpt>
      <trkpt lat="49.9599" lon="1.22392">
        <ele>114.5</ele>
        <time>2020-06-18T13:47:12Z</time>
      </trkpt>
      <trkpt lat="49.95996" lon="1.22392">
        <ele>114.4</ele>
        <time>2020-06-18T13:47:13Z</time>
      </trkpt>
      <trkpt lat="49.96002" lon="1.22393">
        <ele>114.4</ele>
        <time>2020-06-18T13:47:14Z</time>
      </trkpt>
      <trkpt lat="49.96008" lon="1.22393">
        <ele>114.4</ele>
        <time>2020-06-18T13:47:15Z</time>
      </trkpt>
      <trkpt lat="49.96014" lon="1.22395">
        <ele>114.4</ele>
        <time>2020-06-18T13:47:16Z</time>
      </trkpt>
      <trkpt lat="49.9602" lon="1.22396">
        <ele>114.3</ele>
        <time>2020-06-18T13:47:17Z</time>
      </trkpt>
      <trkpt lat="49.96026" lon="1.22398">
        <ele>114.3</ele>
        <time>2020-06-18T13:47:18Z</time>
      </trkpt>
      <trkpt lat="49.96033" lon="1.224">
        <ele>114.3</ele>
        <time>2020-06-18T13:47:19Z</time>
      </trkpt>
      <trkpt lat="49.96039" lon="1.22402">
        <ele>114.2</ele>
        <time>2020-06-18T13:47:20Z</time>
      </trkpt>
      <trkpt lat="49.96045" lon="1.22404">
        <ele>114.2</ele>
        <time>2020-06-18T13:47:21Z</time>
      </trkpt>
      <trkpt lat="49.96051" lon="1.22406">
        <ele>114.2</ele>
        <time>2020-06-18T13:47:22Z</time>
      </trkpt>
      <trkpt lat="49.96057" lon="1.22408">
        <ele>114.1</ele>
        <time>2020-06-18T13:47:23Z</time>
      </trkpt>
      <trkpt lat="49.96064" lon="1.22411">
        <ele>114.1</ele>
        <time>2020-06-18T13:47:24Z</time>
      </trkpt>
      <trkpt lat="49.9607" lon="1.22413">
        <ele>114.1</ele>
        <time>2020-06-18T13:47:25Z</time>
      </trkpt>
      <trkpt lat="49.96077" lon="1.22416">
        <ele>114.1</ele>
        <time>2020-06-18T13:47:26Z</time>
      </trkpt>
      <trkpt lat="49.96082" lon="1.22418">
        <ele>114.1</ele>
        <time>2020-06-18T13:47:27Z</time>
      </trkpt>
      <trkpt lat="49.96087" lon="1.2242">
        <ele>114.1</ele>
        <time>2020-06-18T13:47:28Z</time>
      </trkpt>
      <trkpt lat="49.96093" lon="1.22423">
        <ele>114</ele>
        <time>2020-06-18T13:47:29Z</time>
      </trkpt>
      <trkpt lat="49.96099" lon="1.22425">
        <ele>114</ele>
        <time>2020-06-18T13:47:30Z</time>
      </trkpt>
      <trkpt lat="49.96104" lon="1.22429">
        <ele>114</ele>
        <time>2020-06-18T13:47:31Z</time>
      </trkpt>
      <trkpt lat="49.9611" lon="1.22431">
        <ele>114</ele>
        <time>2020-06-18T13:47:32Z</time>
      </trkpt>
      <trkpt lat="49.96115" lon="1.22434">
        <ele>114</ele>
        <time>2020-06-18T13:47:33Z</time>
      </trkpt>
      <trkpt lat="49.96123" lon="1.22437">
        <ele>114</ele>
        <time>2020-06-18T13:47:34Z</time>
      </trkpt>
      <trkpt lat="49.96129" lon="1.22438">
        <ele>114</ele>
        <time>2020-06-18T13:47:35Z</time>
      </trkpt>
      <trkpt lat="49.96134" lon="1.22439">
        <ele>114</ele>
        <time>2020-06-18T13:47:36Z</time>
      </trkpt>
      <trkpt lat="49.9614" lon="1.22441">
        <ele>113.9</ele>
        <time>2020-06-18T13:47:37Z</time>
      </trkpt>
      <trkpt lat="49.96144" lon="1.22443">
        <ele>113.9</ele>
        <time>2020-06-18T13:47:38Z</time>
      </trkpt>
      <trkpt lat="49.9615" lon="1.22446">
        <ele>113.8</ele>
        <time>2020-06-18T13:47:39Z</time>
      </trkpt>
      <trkpt lat="49.96155" lon="1.2245">
        <ele>113.7</ele>
        <time>2020-06-18T13:47:40Z</time>
      </trkpt>
      <trkpt lat="49.96161" lon="1.22452">
        <ele>113.7</ele>
        <time>2020-06-18T13:47:41Z</time>
      </trkpt>
      <trkpt lat="49.96167" lon="1.22455">
        <ele>113.6</ele>
        <time>2020-06-18T13:47:42Z</time>
      </trkpt>
      <trkpt lat="49.96172" lon="1.22458">
        <ele>113.6</ele>
        <time>2020-06-18T13:47:43Z</time>
      </trkpt>
      <trkpt lat="49.96177" lon="1.2246">
        <ele>113.5</ele>
        <time>2020-06-18T13:47:44Z</time>
      </trkpt>
      <trkpt lat="49.96182" lon="1.22462">
        <ele>113.5</ele>
        <time>2020-06-18T13:47:45Z</time>
      </trkpt>
      <trkpt lat="49.96188" lon="1.22464">
        <ele>113.5</ele>
        <time>2020-06-18T13:47:46Z</time>
      </trkpt>
      <trkpt lat="49.96194" lon="1.22466">
        <ele>113.5</ele>
        <time>2020-06-18T13:47:47Z</time>
      </trkpt>
      <trkpt lat="49.962" lon="1.22469">
        <ele>113.5</ele>
        <time>2020-06-18T13:47:48Z</time>
      </trkpt>
      <trkpt lat="49.96205" lon="1.22471">
        <ele>113.5</ele>
        <time>2020-06-18T13:47:49Z</time>
      </trkpt>
      <trkpt lat="49.96212" lon="1.22474">
        <ele>113.5</ele>
        <time>2020-06-18T13:47:50Z</time>
      </trkpt>
      <trkpt lat="49.96217" lon="1.22477">
        <ele>113.6</ele>
        <time>2020-06-18T13:47:51Z</time>
      </trkpt>
      <trkpt lat="49.96223" lon="1.22479">
        <ele>113.6</ele>
        <time>2020-06-18T13:47:52Z</time>
      </trkpt>
      <trkpt lat="49.96228" lon="1.22482">
        <ele>113.7</ele>
        <time>2020-06-18T13:47:53Z</time>
      </trkpt>
      <trkpt lat="49.96233" lon="1.22485">
        <ele>113.7</ele>
        <time>2020-06-18T13:47:54Z</time>
      </trkpt>
      <trkpt lat="49.96239" lon="1.22486">
        <ele>113.8</ele>
        <time>2020-06-18T13:47:55Z</time>
      </trkpt>
      <trkpt lat="49.96245" lon="1.22489">
        <ele>113.8</ele>
        <time>2020-06-18T13:47:56Z</time>
      </trkpt>
      <trkpt lat="49.96251" lon="1.22492">
        <ele>113.8</ele>
        <time>2020-06-18T13:47:57Z</time>
      </trkpt>
      <trkpt lat="49.96258" lon="1.22493">
        <ele>113.9</ele>
        <time>2020-06-18T13:47:58Z</time>
      </trkpt>
      <trkpt lat="49.96263" lon="1.22497">
        <ele>113.9</ele>
        <time>2020-06-18T13:47:59Z</time>
      </trkpt>
      <trkpt lat="49.96269" lon="1.22499">
        <ele>113.9</ele>
        <time>2020-06-18T13:48:00Z</time>
      </trkpt>
      <trkpt lat="49.96275" lon="1.22502">
        <ele>114</ele>
        <time>2020-06-18T13:48:01Z</time>
      </trkpt>
      <trkpt lat="49.9628" lon="1.22505">
        <ele>114</ele>
        <time>2020-06-18T13:48:02Z</time>
      </trkpt>
      <trkpt lat="49.96286" lon="1.22509">
        <ele>114</ele>
        <time>2020-06-18T13:48:03Z</time>
      </trkpt>
      <trkpt lat="49.9629" lon="1.22512">
        <ele>114.1</ele>
        <time>2020-06-18T13:48:04Z</time>
      </trkpt>
      <trkpt lat="49.96294" lon="1.22515">
        <ele>114.1</ele>
        <time>2020-06-18T13:48:05Z</time>
      </trkpt>
      <trkpt lat="49.96297" lon="1.22517">
        <ele>114.1</ele>
        <time>2020-06-18T13:48:06Z</time>
      </trkpt>
      <trkpt lat="49.963" lon="1.22518">
        <ele>114.2</ele>
        <time>2020-06-18T13:48:07Z</time>
      </trkpt>
      <trkpt lat="49.96303" lon="1.22521">
        <ele>114.2</ele>
        <time>2020-06-18T13:48:08Z</time>
      </trkpt>
      <trkpt lat="49.96307" lon="1.22523">
        <ele>114.2</ele>
        <time>2020-06-18T13:48:09Z</time>
      </trkpt>
      <trkpt lat="49.9631" lon="1.22525">
        <ele>114.2</ele>
        <time>2020-06-18T13:48:10Z</time>
      </trkpt>
      <trkpt lat="49.96311" lon="1.22526">
        <ele>114.2</ele>
        <time>2020-06-18T13:48:11Z</time>
      </trkpt>
      <trkpt lat="49.96311" lon="1.22527">
        <ele>114.2</ele>
        <time>2020-06-18T13:48:12Z</time>
      </trkpt>
      <trkpt lat="49.96311" lon="1.22528">
        <ele>114.2</ele>
        <time>2020-06-18T13:48:13Z</time>
      </trkpt>
      <trkpt lat="49.96311" lon="1.22529">
        <ele>114.2</ele>
        <time>2020-06-18T13:48:14Z</time>
      </trkpt>
      <trkpt lat="49.96311" lon="1.2253">
        <ele>114.3</ele>
        <time>2020-06-18T13:48:15Z</time>
      </trkpt>
      <trkpt lat="49.96311" lon="1.2253">
        <ele>114.3</ele>
        <time>2020-06-18T13:48:16Z</time>
      </trkpt>
      <trkpt lat="49.96311" lon="1.22531">
        <ele>114.3</ele>
        <time>2020-06-18T13:48:17Z</time>
      </trkpt>
      <trkpt lat="49.96311" lon="1.22532">
        <ele>114.3</ele>
        <time>2020-06-18T13:48:18Z</time>
      </trkpt>
      <trkpt lat="49.96311" lon="1.22533">
        <ele>114.3</ele>
        <time>2020-06-18T13:48:19Z</time>
      </trkpt>
      <trkpt lat="49.96311" lon="1.22534">
        <ele>114.3</ele>
        <time>2020-06-18T13:48:20Z</time>
      </trkpt>
      <trkpt lat="49.9631" lon="1.22535">
        <ele>114.3</ele>
        <time>2020-06-18T13:48:21Z</time>
      </trkpt>
      <trkpt lat="49.9631" lon="1.22536">
        <ele>114.3</ele>
        <time>2020-06-18T13:48:22Z</time>
      </trkpt>
      <trkpt lat="49.9631" lon="1.22536">
        <ele>114.3</ele>
        <time>2020-06-18T13:48:23Z</time>
      </trkpt>
      <trkpt lat="49.9631" lon="1.22537">
        <ele>114.3</ele>
        <time>2020-06-18T13:50:28Z</time>
      </trkpt>
      <trkpt lat="49.9631" lon="1.22538">
        <ele>114.3</ele>
        <time>2020-06-18T13:50:29Z</time>
      </trkpt>
      <trkpt lat="49.96314" lon="1.22541">
        <ele>114.3</ele>
        <time>2020-06-18T13:50:30Z</time>
      </trkpt>
      <trkpt lat="49.96315" lon="1.22542">
        <ele>114.3</ele>
        <time>2020-06-18T13:50:31Z</time>
      </trkpt>
      <trkpt lat="49.96317" lon="1.22545">
        <ele>114.3</ele>
        <time>2020-06-18T13:50:32Z</time>
      </trkpt>
      <trkpt lat="49.96321" lon="1.22548">
        <ele>114.3</ele>
        <time>2020-06-18T13:50:33Z</time>
      </trkpt>
      <trkpt lat="49.96324" lon="1.2255">
        <ele>114.4</ele>
        <time>2020-06-18T13:50:34Z</time>
      </trkpt>
      <trkpt lat="49.96328" lon="1.22553">
        <ele>114.4</ele>
        <time>2020-06-18T13:50:35Z</time>
      </trkpt>
      <trkpt lat="49.96331" lon="1.22556">
        <ele>114.4</ele>
        <time>2020-06-18T13:50:36Z</time>
      </trkpt>
      <trkpt lat="49.96335" lon="1.22559">
        <ele>114.5</ele>
        <time>2020-06-18T13:50:37Z</time>
      </trkpt>
      <trkpt lat="49.96337" lon="1.22561">
        <ele>114.5</ele>
        <time>2020-06-18T13:50:38Z</time>
      </trkpt>
      <trkpt lat="49.96341" lon="1.22563">
        <ele>114.5</ele>
        <time>2020-06-18T13:50:39Z</time>
      </trkpt>
      <trkpt lat="49.96344" lon="1.22566">
        <ele>114.5</ele>
        <time>2020-06-18T13:50:40Z</time>
      </trkpt>
      <trkpt lat="49.96348" lon="1.22569">
        <ele>114.6</ele>
        <time>2020-06-18T13:50:41Z</time>
      </trkpt>
      <trkpt lat="49.96351" lon="1.22571">
        <ele>114.6</ele>
        <time>2020-06-18T13:50:42Z</time>
      </trkpt>
      <trkpt lat="49.96354" lon="1.22574">
        <ele>114.6</ele>
        <time>2020-06-18T13:50:43Z</time>
      </trkpt>
      <trkpt lat="49.96357" lon="1.22578">
        <ele>114.6</ele>
        <time>2020-06-18T13:50:44Z</time>
      </trkpt>
      <trkpt lat="49.9636" lon="1.22581">
        <ele>114.7</ele>
        <time>2020-06-18T13:50:45Z</time>
      </trkpt>
      <trkpt lat="49.96363" lon="1.22584">
        <ele>114.7</ele>
        <time>2020-06-18T13:50:46Z</time>
      </trkpt>
      <trkpt lat="49.96367" lon="1.22588">
        <ele>114.7</ele>
        <time>2020-06-18T13:50:47Z</time>
      </trkpt>
      <trkpt lat="49.9637" lon="1.22592">
        <ele>114.7</ele>
        <time>2020-06-18T13:50:48Z</time>
      </trkpt>
      <trkpt lat="49.96373" lon="1.22597">
        <ele>114.8</ele>
        <time>2020-06-18T13:50:49Z</time>
      </trkpt>
      <trkpt lat="49.96377" lon="1.22601">
        <ele>114.8</ele>
        <time>2020-06-18T13:50:50Z</time>
      </trkpt>
      <trkpt lat="49.9638" lon="1.22605">
        <ele>114.8</ele>
        <time>2020-06-18T13:50:51Z</time>
      </trkpt>
      <trkpt lat="49.96384" lon="1.22608">
        <ele>114.8</ele>
        <time>2020-06-18T13:50:52Z</time>
      </trkpt>
      <trkpt lat="49.96387" lon="1.22612">
        <ele>114.9</ele>
        <time>2020-06-18T13:50:53Z</time>
      </trkpt>
      <trkpt lat="49.9639" lon="1.22615">
        <ele>114.9</ele>
        <time>2020-06-18T13:50:54Z</time>
      </trkpt>
      <trkpt lat="49.96393" lon="1.22619">
        <ele>114.9</ele>
        <time>2020-06-18T13:50:55Z</time>
      </trkpt>
      <trkpt lat="49.96397" lon="1.22623">
        <ele>114.9</ele>
        <time>2020-06-18T13:50:56Z</time>
      </trkpt>
      <trkpt lat="49.96401" lon="1.22627">
        <ele>114.9</ele>
        <time>2020-06-18T13:50:57Z</time>
      </trkpt>
      <trkpt lat="49.96406" lon="1.22631">
        <ele>114.9</ele>
        <time>2020-06-18T13:50:58Z</time>
      </trkpt>
      <trkpt lat="49.9641" lon="1.22635">
        <ele>115</ele>
        <time>2020-06-18T13:50:59Z</time>
      </trkpt>
      <trkpt lat="49.96413" lon="1.2264">
        <ele>115</ele>
        <time>2020-06-18T13:51:00Z</time>
      </trkpt>
      <trkpt lat="49.96417" lon="1.22645">
        <ele>115</ele>
        <time>2020-06-18T13:51:01Z</time>
      </trkpt>
      <trkpt lat="49.96421" lon="1.2265">
        <ele>115</ele>
        <time>2020-06-18T13:51:02Z</time>
      </trkpt>
      <trkpt lat="49.96425" lon="1.22655">
        <ele>115</ele>
        <time>2020-06-18T13:51:03Z</time>
      </trkpt>
      <trkpt lat="49.96428" lon="1.2266">
        <ele>115.1</ele>
        <time>2020-06-18T13:51:04Z</time>
      </trkpt>
      <trkpt lat="49.96432" lon="1.22664">
        <ele>115.1</ele>
        <time>2020-06-18T13:51:05Z</time>
      </trkpt>
      <trkpt lat="49.96436" lon="1.22669">
        <ele>115.1</ele>
        <time>2020-06-18T13:51:06Z</time>
      </trkpt>
      <trkpt lat="49.9644" lon="1.22675">
        <ele>115.2</ele>
        <time>2020-06-18T13:51:07Z</time>
      </trkpt>
      <trkpt lat="49.96444" lon="1.22679">
        <ele>115.2</ele>
        <time>2020-06-18T13:51:08Z</time>
      </trkpt>
      <trkpt lat="49.96448" lon="1.22684">
        <ele>115.2</ele>
        <time>2020-06-18T13:51:09Z</time>
      </trkpt>
      <trkpt lat="49.96452" lon="1.22689">
        <ele>115.2</ele>
        <time>2020-06-18T13:51:10Z</time>
      </trkpt>
      <trkpt lat="49.96456" lon="1.22695">
        <ele>115.3</ele>
        <time>2020-06-18T13:51:11Z</time>
      </trkpt>
      <trkpt lat="49.9646" lon="1.227">
        <ele>115.3</ele>
        <time>2020-06-18T13:51:12Z</time>
      </trkpt>
      <trkpt lat="49.96465" lon="1.22706">
        <ele>115.3</ele>
        <time>2020-06-18T13:51:13Z</time>
      </trkpt>
      <trkpt lat="49.96469" lon="1.22711">
        <ele>115.3</ele>
        <time>2020-06-18T13:51:14Z</time>
      </trkpt>
      <trkpt lat="49.96473" lon="1.22716">
        <ele>115.3</ele>
        <time>2020-06-18T13:51:15Z</time>
      </trkpt>
      <trkpt lat="49.96476" lon="1.22721">
        <ele>115.4</ele>
        <time>2020-06-18T13:51:16Z</time>
      </trkpt>
      <trkpt lat="49.9648" lon="1.22727">
        <ele>115.5</ele>
        <time>2020-06-18T13:51:17Z</time>
      </trkpt>
      <trkpt lat="49.96484" lon="1.22732">
        <ele>115.5</ele>
        <time>2020-06-18T13:51:18Z</time>
      </trkpt>
      <trkpt lat="49.96487" lon="1.22737">
        <ele>115.6</ele>
        <time>2020-06-18T13:51:19Z</time>
      </trkpt>
      <trkpt lat="49.96491" lon="1.22743">
        <ele>115.7</ele>
        <time>2020-06-18T13:51:20Z</time>
      </trkpt>
      <trkpt lat="49.96495" lon="1.22749">
        <ele>115.7</ele>
        <time>2020-06-18T13:51:21Z</time>
      </trkpt>
      <trkpt lat="49.96499" lon="1.22754">
        <ele>115.7</ele>
        <time>2020-06-18T13:51:22Z</time>
      </trkpt>
      <trkpt lat="49.96503" lon="1.22759">
        <ele>115.7</ele>
        <time>2020-06-18T13:51:23Z</time>
      </trkpt>
      <trkpt lat="49.96507" lon="1.22765">
        <ele>115.6</ele>
        <time>2020-06-18T13:51:24Z</time>
      </trkpt>
      <trkpt lat="49.96511" lon="1.2277">
        <ele>115.6</ele>
        <time>2020-06-18T13:51:25Z</time>
      </trkpt>
      <trkpt lat="49.96515" lon="1.22775">
        <ele>115.6</ele>
        <time>2020-06-18T13:51:26Z</time>
      </trkpt>
      <trkpt lat="49.96519" lon="1.22781">
        <ele>115.6</ele>
        <time>2020-06-18T13:51:27Z</time>
      </trkpt>
      <trkpt lat="49.96522" lon="1.22787">
        <ele>115.6</ele>
        <time>2020-06-18T13:51:28Z</time>
      </trkpt>
      <trkpt lat="49.96525" lon="1.22793">
        <ele>115.5</ele>
        <time>2020-06-18T13:51:29Z</time>
      </trkpt>
      <trkpt lat="49.96528" lon="1.22798">
        <ele>115.5</ele>
        <time>2020-06-18T13:51:30Z</time>
      </trkpt>
      <trkpt lat="49.96531" lon="1.22803">
        <ele>115.5</ele>
        <time>2020-06-18T13:51:31Z</time>
      </trkpt>
      <trkpt lat="49.96535" lon="1.22808">
        <ele>115.4</ele>
        <time>2020-06-18T13:51:32Z</time>
      </trkpt>
      <trkpt lat="49.96539" lon="1.22813">
        <ele>115.4</ele>
        <time>2020-06-18T13:51:33Z</time>
      </trkpt>
      <trkpt lat="49.96542" lon="1.22818">
        <ele>115.4</ele>
        <time>2020-06-18T13:51:34Z</time>
      </trkpt>
      <trkpt lat="49.96546" lon="1.22823">
        <ele>115.4</ele>
        <time>2020-06-18T13:51:35Z</time>
      </trkpt>
      <trkpt lat="49.96549" lon="1.22828">
        <ele>115.3</ele>
        <time>2020-06-18T13:51:36Z</time>
      </trkpt>
      <trkpt lat="49.96553" lon="1.22833">
        <ele>115.2</ele>
        <time>2020-06-18T13:51:37Z</time>
      </trkpt>
      <trkpt lat="49.96557" lon="1.22837">
        <ele>115.2</ele>
        <time>2020-06-18T13:51:38Z</time>
      </trkpt>
      <trkpt lat="49.96561" lon="1.22842">
        <ele>115.1</ele>
        <time>2020-06-18T13:51:39Z</time>
      </trkpt>
      <trkpt lat="49.96564" lon="1.22845">
        <ele>115.1</ele>
        <time>2020-06-18T13:51:40Z</time>
      </trkpt>
      <trkpt lat="49.96568" lon="1.22848">
        <ele>115.1</ele>
        <time>2020-06-18T13:51:41Z</time>
      </trkpt>
      <trkpt lat="49.96571" lon="1.22848">
        <ele>115.1</ele>
        <time>2020-06-18T13:51:42Z</time>
      </trkpt>
      <trkpt lat="49.96574" lon="1.22847">
        <ele>115.1</ele>
        <time>2020-06-18T13:51:43Z</time>
      </trkpt>
      <trkpt lat="49.96575" lon="1.22846">
        <ele>115.1</ele>
        <time>2020-06-18T13:51:44Z</time>
      </trkpt>
      <trkpt lat="49.96577" lon="1.22844">
        <ele>115.1</ele>
        <time>2020-06-18T13:51:45Z</time>
      </trkpt>
      <trkpt lat="49.96578" lon="1.22842">
        <ele>115</ele>
        <time>2020-06-18T13:51:46Z</time>
      </trkpt>
      <trkpt lat="49.96579" lon="1.2284">
        <ele>115</ele>
        <time>2020-06-18T13:51:47Z</time>
      </trkpt>
      <trkpt lat="49.96579" lon="1.2284">
        <ele>115</ele>
        <time>2020-06-18T13:51:48Z</time>
      </trkpt>
      <trkpt lat="49.96577" lon="1.22839">
        <ele>115</ele>
        <time>2020-06-18T13:51:49Z</time>
      </trkpt>
      <trkpt lat="49.96577" lon="1.22839">
        <ele>115</ele>
        <time>2020-06-18T13:51:50Z</time>
      </trkpt>
      <trkpt lat="49.96576" lon="1.2284">
        <ele>115</ele>
        <time>2020-06-18T13:51:51Z</time>
      </trkpt>
      <trkpt lat="49.96575" lon="1.22841">
        <ele>115</ele>
        <time>2020-06-18T13:51:52Z</time>
      </trkpt>
      <trkpt lat="49.96575" lon="1.22844">
        <ele>115</ele>
        <time>2020-06-18T13:51:53Z</time>
      </trkpt>
      <trkpt lat="49.96575" lon="1.22846">
        <ele>115</ele>
        <time>2020-06-18T13:51:54Z</time>
      </trkpt>
      <trkpt lat="49.96575" lon="1.22847">
        <ele>115</ele>
        <time>2020-06-18T13:51:55Z</time>
      </trkpt>
      <trkpt lat="49.96575" lon="1.22852">
        <ele>115</ele>
        <time>2020-06-18T13:51:56Z</time>
      </trkpt>
      <trkpt lat="49.96574" lon="1.22854">
        <ele>114.9</ele>
        <time>2020-06-18T13:51:57Z</time>
      </trkpt>
      <trkpt lat="49.96573" lon="1.22858">
        <ele>114.9</ele>
        <time>2020-06-18T13:51:58Z</time>
      </trkpt>
      <trkpt lat="49.96572" lon="1.22864">
        <ele>114.9</ele>
        <time>2020-06-18T13:51:59Z</time>
      </trkpt>
      <trkpt lat="49.96573" lon="1.22871">
        <ele>114.9</ele>
        <time>2020-06-18T13:52:00Z</time>
      </trkpt>
      <trkpt lat="49.96572" lon="1.22877">
        <ele>114.9</ele>
        <time>2020-06-18T13:52:01Z</time>
      </trkpt>
      <trkpt lat="49.96572" lon="1.22885">
        <ele>114.8</ele>
        <time>2020-06-18T13:52:02Z</time>
      </trkpt>
      <trkpt lat="49.96571" lon="1.22891">
        <ele>114.8</ele>
        <time>2020-06-18T13:52:03Z</time>
      </trkpt>
      <trkpt lat="49.96571" lon="1.22899">
        <ele>114.8</ele>
        <time>2020-06-18T13:52:04Z</time>
      </trkpt>
      <trkpt lat="49.96571" lon="1.22908">
        <ele>114.8</ele>
        <time>2020-06-18T13:52:05Z</time>
      </trkpt>
      <trkpt lat="49.96571" lon="1.22916">
        <ele>114.7</ele>
        <time>2020-06-18T13:52:06Z</time>
      </trkpt>
      <trkpt lat="49.96571" lon="1.22924">
        <ele>114.7</ele>
        <time>2020-06-18T13:52:07Z</time>
      </trkpt>
      <trkpt lat="49.96571" lon="1.22932">
        <ele>114.6</ele>
        <time>2020-06-18T13:52:08Z</time>
      </trkpt>
      <trkpt lat="49.96571" lon="1.22941">
        <ele>114.5</ele>
        <time>2020-06-18T13:52:09Z</time>
      </trkpt>
      <trkpt lat="49.96571" lon="1.22949">
        <ele>114.5</ele>
        <time>2020-06-18T13:52:10Z</time>
      </trkpt>
      <trkpt lat="49.96572" lon="1.22959">
        <ele>114.4</ele>
        <time>2020-06-18T13:52:11Z</time>
      </trkpt>
      <trkpt lat="49.96572" lon="1.22968">
        <ele>114.3</ele>
        <time>2020-06-18T13:52:12Z</time>
      </trkpt>
      <trkpt lat="49.96573" lon="1.22977">
        <ele>114.3</ele>
        <time>2020-06-18T13:52:13Z</time>
      </trkpt>
      <trkpt lat="49.96574" lon="1.22987">
        <ele>114.2</ele>
        <time>2020-06-18T13:52:14Z</time>
      </trkpt>
      <trkpt lat="49.96576" lon="1.22996">
        <ele>114.2</ele>
        <time>2020-06-18T13:52:15Z</time>
      </trkpt>
      <trkpt lat="49.96579" lon="1.23001">
        <ele>114.2</ele>
        <time>2020-06-18T13:52:16Z</time>
      </trkpt>
      <trkpt lat="49.96583" lon="1.23006">
        <ele>114.2</ele>
        <time>2020-06-18T13:52:17Z</time>
      </trkpt>
      <trkpt lat="49.96587" lon="1.23013">
        <ele>114.2</ele>
        <time>2020-06-18T13:52:18Z</time>
      </trkpt>
      <trkpt lat="49.9659" lon="1.23018">
        <ele>114.2</ele>
        <time>2020-06-18T13:52:19Z</time>
      </trkpt>
      <trkpt lat="49.96594" lon="1.23024">
        <ele>114.2</ele>
        <time>2020-06-18T13:52:20Z</time>
      </trkpt>
      <trkpt lat="49.96598" lon="1.23029">
        <ele>114.2</ele>
        <time>2020-06-18T13:52:21Z</time>
      </trkpt>
      <trkpt lat="49.96602" lon="1.23032">
        <ele>114.1</ele>
        <time>2020-06-18T13:52:22Z</time>
      </trkpt>
      <trkpt lat="49.96607" lon="1.23034">
        <ele>114.1</ele>
        <time>2020-06-18T13:52:23Z</time>
      </trkpt>
      <trkpt lat="49.96612" lon="1.23033">
        <ele>114</ele>
        <time>2020-06-18T13:52:24Z</time>
      </trkpt>
      <trkpt lat="49.96617" lon="1.23032">
        <ele>113.8</ele>
        <time>2020-06-18T13:52:25Z</time>
      </trkpt>
      <trkpt lat="49.96623" lon="1.2303">
        <ele>113.7</ele>
        <time>2020-06-18T13:52:26Z</time>
      </trkpt>
      <trkpt lat="49.96629" lon="1.23028">
        <ele>113.5</ele>
        <time>2020-06-18T13:52:27Z</time>
      </trkpt>
      <trkpt lat="49.96634" lon="1.23026">
        <ele>113.3</ele>
        <time>2020-06-18T13:52:28Z</time>
      </trkpt>
      <trkpt lat="49.9664" lon="1.23024">
        <ele>113.1</ele>
        <time>2020-06-18T13:52:29Z</time>
      </trkpt>
      <trkpt lat="49.96645" lon="1.23021">
        <ele>113</ele>
        <time>2020-06-18T13:52:30Z</time>
      </trkpt>
      <trkpt lat="49.96649" lon="1.23018">
        <ele>112.8</ele>
        <time>2020-06-18T13:52:31Z</time>
      </trkpt>
      <trkpt lat="49.96655" lon="1.23015">
        <ele>112.6</ele>
        <time>2020-06-18T13:52:32Z</time>
      </trkpt>
      <trkpt lat="49.96661" lon="1.23013">
        <ele>112.5</ele>
        <time>2020-06-18T13:52:33Z</time>
      </trkpt>
      <trkpt lat="49.96668" lon="1.23011">
        <ele>112.2</ele>
        <time>2020-06-18T13:52:34Z</time>
      </trkpt>
      <trkpt lat="49.96675" lon="1.2301">
        <ele>112</ele>
        <time>2020-06-18T13:52:35Z</time>
      </trkpt>
      <trkpt lat="49.96682" lon="1.23009">
        <ele>111.8</ele>
        <time>2020-06-18T13:52:36Z</time>
      </trkpt>
      <trkpt lat="49.96688" lon="1.23011">
        <ele>111.6</ele>
        <time>2020-06-18T13:52:37Z</time>
      </trkpt>
      <trkpt lat="49.96694" lon="1.23014">
        <ele>111.4</ele>
        <time>2020-06-18T13:52:38Z</time>
      </trkpt>
      <trkpt lat="49.96701" lon="1.23018">
        <ele>111.3</ele>
        <time>2020-06-18T13:52:39Z</time>
      </trkpt>
      <trkpt lat="49.96706" lon="1.23025">
        <ele>111.1</ele>
        <time>2020-06-18T13:52:40Z</time>
      </trkpt>
      <trkpt lat="49.96711" lon="1.23032">
        <ele>111</ele>
        <time>2020-06-18T13:52:41Z</time>
      </trkpt>
      <trkpt lat="49.96716" lon="1.23039">
        <ele>110.9</ele>
        <time>2020-06-18T13:52:42Z</time>
      </trkpt>
      <trkpt lat="49.9672" lon="1.23046">
        <ele>110.7</ele>
        <time>2020-06-18T13:52:43Z</time>
      </trkpt>
      <trkpt lat="49.96726" lon="1.23054">
        <ele>110.5</ele>
        <time>2020-06-18T13:52:44Z</time>
      </trkpt>
      <trkpt lat="49.96731" lon="1.23061">
        <ele>110.3</ele>
        <time>2020-06-18T13:52:45Z</time>
      </trkpt>
      <trkpt lat="49.96735" lon="1.23067">
        <ele>110.3</ele>
        <time>2020-06-18T13:52:46Z</time>
      </trkpt>
      <trkpt lat="49.9674" lon="1.23074">
        <ele>110.2</ele>
        <time>2020-06-18T13:52:47Z</time>
      </trkpt>
      <trkpt lat="49.96744" lon="1.23081">
        <ele>110.2</ele>
        <time>2020-06-18T13:52:48Z</time>
      </trkpt>
      <trkpt lat="49.96749" lon="1.23088">
        <ele>110.2</ele>
        <time>2020-06-18T13:52:49Z</time>
      </trkpt>
      <trkpt lat="49.96753" lon="1.23093">
        <ele>110.2</ele>
        <time>2020-06-18T13:52:50Z</time>
      </trkpt>
      <trkpt lat="49.96757" lon="1.23099">
        <ele>110.3</ele>
        <time>2020-06-18T13:52:51Z</time>
      </trkpt>
      <trkpt lat="49.96761" lon="1.23105">
        <ele>110.3</ele>
        <time>2020-06-18T13:52:52Z</time>
      </trkpt>
      <trkpt lat="49.96766" lon="1.2311">
        <ele>110.3</ele>
        <time>2020-06-18T13:52:53Z</time>
      </trkpt>
      <trkpt lat="49.96769" lon="1.23117">
        <ele>110.4</ele>
        <time>2020-06-18T13:52:54Z</time>
      </trkpt>
      <trkpt lat="49.96773" lon="1.23124">
        <ele>110.4</ele>
        <time>2020-06-18T13:52:55Z</time>
      </trkpt>
      <trkpt lat="49.96777" lon="1.2313">
        <ele>110.4</ele>
        <time>2020-06-18T13:52:56Z</time>
      </trkpt>
      <trkpt lat="49.9678" lon="1.23136">
        <ele>110.5</ele>
        <time>2020-06-18T13:52:57Z</time>
      </trkpt>
      <trkpt lat="49.96784" lon="1.2314">
        <ele>110.5</ele>
        <time>2020-06-18T13:52:58Z</time>
      </trkpt>
      <trkpt lat="49.96787" lon="1.23146">
        <ele>110.5</ele>
        <time>2020-06-18T13:52:59Z</time>
      </trkpt>
      <trkpt lat="49.96791" lon="1.23151">
        <ele>110.6</ele>
        <time>2020-06-18T13:53:00Z</time>
      </trkpt>
      <trkpt lat="49.96794" lon="1.23156">
        <ele>110.6</ele>
        <time>2020-06-18T13:53:01Z</time>
      </trkpt>
      <trkpt lat="49.96798" lon="1.23161">
        <ele>110.7</ele>
        <time>2020-06-18T13:53:02Z</time>
      </trkpt>
      <trkpt lat="49.96802" lon="1.23166">
        <ele>110.7</ele>
        <time>2020-06-18T13:53:03Z</time>
      </trkpt>
      <trkpt lat="49.96806" lon="1.23169">
        <ele>110.8</ele>
        <time>2020-06-18T13:53:04Z</time>
      </trkpt>
      <trkpt lat="49.9681" lon="1.23173">
        <ele>110.8</ele>
        <time>2020-06-18T13:53:05Z</time>
      </trkpt>
      <trkpt lat="49.96813" lon="1.23176">
        <ele>110.9</ele>
        <time>2020-06-18T13:53:06Z</time>
      </trkpt>
      <trkpt lat="49.96816" lon="1.2318">
        <ele>111</ele>
        <time>2020-06-18T13:53:07Z</time>
      </trkpt>
      <trkpt lat="49.9682" lon="1.23184">
        <ele>111</ele>
        <time>2020-06-18T13:53:08Z</time>
      </trkpt>
      <trkpt lat="49.96824" lon="1.23189">
        <ele>111.1</ele>
        <time>2020-06-18T13:53:09Z</time>
      </trkpt>
      <trkpt lat="49.96827" lon="1.23193">
        <ele>111.2</ele>
        <time>2020-06-18T13:53:10Z</time>
      </trkpt>
      <trkpt lat="49.96832" lon="1.23199">
        <ele>111.2</ele>
        <time>2020-06-18T13:53:11Z</time>
      </trkpt>
      <trkpt lat="49.96836" lon="1.23205">
        <ele>111.3</ele>
        <time>2020-06-18T13:53:12Z</time>
      </trkpt>
      <trkpt lat="49.9684" lon="1.23211">
        <ele>111.3</ele>
        <time>2020-06-18T13:53:13Z</time>
      </trkpt>
      <trkpt lat="49.96845" lon="1.23217">
        <ele>111.4</ele>
        <time>2020-06-18T13:53:14Z</time>
      </trkpt>
      <trkpt lat="49.96849" lon="1.23223">
        <ele>111.4</ele>
        <time>2020-06-18T13:53:15Z</time>
      </trkpt>
      <trkpt lat="49.96853" lon="1.23229">
        <ele>111.5</ele>
        <time>2020-06-18T13:53:16Z</time>
      </trkpt>
      <trkpt lat="49.96857" lon="1.23236">
        <ele>111.6</ele>
        <time>2020-06-18T13:53:17Z</time>
      </trkpt>
      <trkpt lat="49.9686" lon="1.23241">
        <ele>111.6</ele>
        <time>2020-06-18T13:53:18Z</time>
      </trkpt>
      <trkpt lat="49.96863" lon="1.23248">
        <ele>111.7</ele>
        <time>2020-06-18T13:53:19Z</time>
      </trkpt>
      <trkpt lat="49.96867" lon="1.23252">
        <ele>111.7</ele>
        <time>2020-06-18T13:53:20Z</time>
      </trkpt>
      <trkpt lat="49.96871" lon="1.23258">
        <ele>111.8</ele>
        <time>2020-06-18T13:53:21Z</time>
      </trkpt>
      <trkpt lat="49.96876" lon="1.23263">
        <ele>111.9</ele>
        <time>2020-06-18T13:53:22Z</time>
      </trkpt>
      <trkpt lat="49.9688" lon="1.23269">
        <ele>112</ele>
        <time>2020-06-18T13:53:23Z</time>
      </trkpt>
      <trkpt lat="49.96884" lon="1.23276">
        <ele>112.1</ele>
        <time>2020-06-18T13:53:24Z</time>
      </trkpt>
      <trkpt lat="49.96887" lon="1.23282">
        <ele>112.2</ele>
        <time>2020-06-18T13:53:25Z</time>
      </trkpt>
      <trkpt lat="49.96891" lon="1.23288">
        <ele>112.3</ele>
        <time>2020-06-18T13:53:26Z</time>
      </trkpt>
      <trkpt lat="49.96894" lon="1.23293">
        <ele>112.5</ele>
        <time>2020-06-18T13:53:27Z</time>
      </trkpt>
      <trkpt lat="49.96898" lon="1.23297">
        <ele>112.6</ele>
        <time>2020-06-18T13:53:28Z</time>
      </trkpt>
      <trkpt lat="49.96902" lon="1.23301">
        <ele>112.7</ele>
        <time>2020-06-18T13:53:29Z</time>
      </trkpt>
      <trkpt lat="49.96906" lon="1.23305">
        <ele>112.9</ele>
        <time>2020-06-18T13:53:30Z</time>
      </trkpt>
      <trkpt lat="49.96909" lon="1.23308">
        <ele>113</ele>
        <time>2020-06-18T13:53:31Z</time>
      </trkpt>
      <trkpt lat="49.96913" lon="1.23312">
        <ele>113.2</ele>
        <time>2020-06-18T13:53:32Z</time>
      </trkpt>
      <trkpt lat="49.96917" lon="1.23315">
        <ele>113.4</ele>
        <time>2020-06-18T13:53:33Z</time>
      </trkpt>
      <trkpt lat="49.96921" lon="1.23317">
        <ele>113.6</ele>
        <time>2020-06-18T13:53:34Z</time>
      </trkpt>
      <trkpt lat="49.96925" lon="1.2332">
        <ele>113.8</ele>
        <time>2020-06-18T13:53:35Z</time>
      </trkpt>
      <trkpt lat="49.96929" lon="1.23321">
        <ele>113.9</ele>
        <time>2020-06-18T13:53:36Z</time>
      </trkpt>
      <trkpt lat="49.96934" lon="1.23322">
        <ele>114.1</ele>
        <time>2020-06-18T13:53:37Z</time>
      </trkpt>
      <trkpt lat="49.96938" lon="1.23321">
        <ele>114.2</ele>
        <time>2020-06-18T13:53:38Z</time>
      </trkpt>
      <trkpt lat="49.96943" lon="1.23322">
        <ele>114.3</ele>
        <time>2020-06-18T13:53:39Z</time>
      </trkpt>
      <trkpt lat="49.96947" lon="1.23322">
        <ele>114.4</ele>
        <time>2020-06-18T13:53:40Z</time>
      </trkpt>
      <trkpt lat="49.96952" lon="1.23321">
        <ele>114.5</ele>
        <time>2020-06-18T13:53:41Z</time>
      </trkpt>
      <trkpt lat="49.96957" lon="1.23321">
        <ele>114.6</ele>
        <time>2020-06-18T13:53:42Z</time>
      </trkpt>
      <trkpt lat="49.96961" lon="1.2332">
        <ele>114.8</ele>
        <time>2020-06-18T13:53:43Z</time>
      </trkpt>
      <trkpt lat="49.96966" lon="1.23318">
        <ele>114.9</ele>
        <time>2020-06-18T13:53:44Z</time>
      </trkpt>
      <trkpt lat="49.96971" lon="1.23316">
        <ele>115.1</ele>
        <time>2020-06-18T13:53:45Z</time>
      </trkpt>
      <trkpt lat="49.96976" lon="1.23315">
        <ele>115.2</ele>
        <time>2020-06-18T13:53:46Z</time>
      </trkpt>
      <trkpt lat="49.9698" lon="1.23312">
        <ele>115.3</ele>
        <time>2020-06-18T13:53:47Z</time>
      </trkpt>
      <trkpt lat="49.96984" lon="1.23309">
        <ele>115.5</ele>
        <time>2020-06-18T13:53:48Z</time>
      </trkpt>
      <trkpt lat="49.96989" lon="1.23305">
        <ele>115.6</ele>
        <time>2020-06-18T13:53:49Z</time>
      </trkpt>
      <trkpt lat="49.96993" lon="1.23302">
        <ele>115.7</ele>
        <time>2020-06-18T13:53:50Z</time>
      </trkpt>
      <trkpt lat="49.96998" lon="1.23299">
        <ele>115.8</ele>
        <time>2020-06-18T13:53:51Z</time>
      </trkpt>
      <trkpt lat="49.97002" lon="1.23295">
        <ele>115.8</ele>
        <time>2020-06-18T13:53:52Z</time>
      </trkpt>
      <trkpt lat="49.97006" lon="1.23292">
        <ele>115.9</ele>
        <time>2020-06-18T13:53:53Z</time>
      </trkpt>
      <trkpt lat="49.9701" lon="1.23288">
        <ele>116</ele>
        <time>2020-06-18T13:53:54Z</time>
      </trkpt>
      <trkpt lat="49.97014" lon="1.23284">
        <ele>116.1</ele>
        <time>2020-06-18T13:53:55Z</time>
      </trkpt>
      <trkpt lat="49.97018" lon="1.23281">
        <ele>116.2</ele>
        <time>2020-06-18T13:53:56Z</time>
      </trkpt>
      <trkpt lat="49.97023" lon="1.23278">
        <ele>116.2</ele>
        <time>2020-06-18T13:53:57Z</time>
      </trkpt>
      <trkpt lat="49.97027" lon="1.23274">
        <ele>116.3</ele>
        <time>2020-06-18T13:53:58Z</time>
      </trkpt>
      <trkpt lat="49.97031" lon="1.23272">
        <ele>116.4</ele>
        <time>2020-06-18T13:53:59Z</time>
      </trkpt>
      <trkpt lat="49.97035" lon="1.23269">
        <ele>116.5</ele>
        <time>2020-06-18T13:54:00Z</time>
      </trkpt>
      <trkpt lat="49.9704" lon="1.23266">
        <ele>116.6</ele>
        <time>2020-06-18T13:54:01Z</time>
      </trkpt>
      <trkpt lat="49.97044" lon="1.23262">
        <ele>116.7</ele>
        <time>2020-06-18T13:54:02Z</time>
      </trkpt>
      <trkpt lat="49.97049" lon="1.23259">
        <ele>116.7</ele>
        <time>2020-06-18T13:54:03Z</time>
      </trkpt>
      <trkpt lat="49.97053" lon="1.23257">
        <ele>116.7</ele>
        <time>2020-06-18T13:54:04Z</time>
      </trkpt>
      <trkpt lat="49.97058" lon="1.23254">
        <ele>116.8</ele>
        <time>2020-06-18T13:54:05Z</time>
      </trkpt>
      <trkpt lat="49.97062" lon="1.23251">
        <ele>116.8</ele>
        <time>2020-06-18T13:54:06Z</time>
      </trkpt>
      <trkpt lat="49.97066" lon="1.23248">
        <ele>116.8</ele>
        <time>2020-06-18T13:54:07Z</time>
      </trkpt>
      <trkpt lat="49.9707" lon="1.23244">
        <ele>116.8</ele>
        <time>2020-06-18T13:54:08Z</time>
      </trkpt>
      <trkpt lat="49.97075" lon="1.23241">
        <ele>116.8</ele>
        <time>2020-06-18T13:54:09Z</time>
      </trkpt>
      <trkpt lat="49.97079" lon="1.23238">
        <ele>116.8</ele>
        <time>2020-06-18T13:54:10Z</time>
      </trkpt>
      <trkpt lat="49.97083" lon="1.23234">
        <ele>116.8</ele>
        <time>2020-06-18T13:54:11Z</time>
      </trkpt>
      <trkpt lat="49.97088" lon="1.23231">
        <ele>116.8</ele>
        <time>2020-06-18T13:54:12Z</time>
      </trkpt>
      <trkpt lat="49.97093" lon="1.23229">
        <ele>116.8</ele>
        <time>2020-06-18T13:54:13Z</time>
      </trkpt>
      <trkpt lat="49.97097" lon="1.23226">
        <ele>116.8</ele>
        <time>2020-06-18T13:54:14Z</time>
      </trkpt>
      <trkpt lat="49.97102" lon="1.23223">
        <ele>116.8</ele>
        <time>2020-06-18T13:54:15Z</time>
      </trkpt>
      <trkpt lat="49.97107" lon="1.23221">
        <ele>116.8</ele>
        <time>2020-06-18T13:54:16Z</time>
      </trkpt>
      <trkpt lat="49.97113" lon="1.23219">
        <ele>116.7</ele>
        <time>2020-06-18T13:54:17Z</time>
      </trkpt>
      <trkpt lat="49.97118" lon="1.23218">
        <ele>116.7</ele>
        <time>2020-06-18T13:54:18Z</time>
      </trkpt>
      <trkpt lat="49.97123" lon="1.23216">
        <ele>116.7</ele>
        <time>2020-06-18T13:54:19Z</time>
      </trkpt>
      <trkpt lat="49.97128" lon="1.23214">
        <ele>116.6</ele>
        <time>2020-06-18T13:54:20Z</time>
      </trkpt>
      <trkpt lat="49.97134" lon="1.23213">
        <ele>116.6</ele>
        <time>2020-06-18T13:54:21Z</time>
      </trkpt>
      <trkpt lat="49.97139" lon="1.23211">
        <ele>116.6</ele>
        <time>2020-06-18T13:54:22Z</time>
      </trkpt>
      <trkpt lat="49.97144" lon="1.23209">
        <ele>116.6</ele>
        <time>2020-06-18T13:54:23Z</time>
      </trkpt>
      <trkpt lat="49.9715" lon="1.23208">
        <ele>116.6</ele>
        <time>2020-06-18T13:54:24Z</time>
      </trkpt>
      <trkpt lat="49.97155" lon="1.23207">
        <ele>116.6</ele>
        <time>2020-06-18T13:54:25Z</time>
      </trkpt>
      <trkpt lat="49.97161" lon="1.23205">
        <ele>116.6</ele>
        <time>2020-06-18T13:54:26Z</time>
      </trkpt>
      <trkpt lat="49.97166" lon="1.23203">
        <ele>116.5</ele>
        <time>2020-06-18T13:54:27Z</time>
      </trkpt>
      <trkpt lat="49.97171" lon="1.23202">
        <ele>116.5</ele>
        <time>2020-06-18T13:54:28Z</time>
      </trkpt>
      <trkpt lat="49.97176" lon="1.232">
        <ele>116.5</ele>
        <time>2020-06-18T13:54:29Z</time>
      </trkpt>
      <trkpt lat="49.97181" lon="1.23198">
        <ele>116.5</ele>
        <time>2020-06-18T13:54:30Z</time>
      </trkpt>
      <trkpt lat="49.97187" lon="1.23197">
        <ele>116.4</ele>
        <time>2020-06-18T13:54:31Z</time>
      </trkpt>
      <trkpt lat="49.97193" lon="1.23196">
        <ele>116.4</ele>
        <time>2020-06-18T13:54:32Z</time>
      </trkpt>
      <trkpt lat="49.97199" lon="1.23194">
        <ele>116.4</ele>
        <time>2020-06-18T13:54:33Z</time>
      </trkpt>
      <trkpt lat="49.97205" lon="1.23193">
        <ele>116.4</ele>
        <time>2020-06-18T13:54:34Z</time>
      </trkpt>
      <trkpt lat="49.9721" lon="1.23192">
        <ele>116.4</ele>
        <time>2020-06-18T13:54:35Z</time>
      </trkpt>
      <trkpt lat="49.97215" lon="1.23191">
        <ele>116.3</ele>
        <time>2020-06-18T13:54:36Z</time>
      </trkpt>
      <trkpt lat="49.9722" lon="1.2319">
        <ele>116.3</ele>
        <time>2020-06-18T13:54:37Z</time>
      </trkpt>
      <trkpt lat="49.97226" lon="1.23189">
        <ele>116.2</ele>
        <time>2020-06-18T13:54:38Z</time>
      </trkpt>
      <trkpt lat="49.97232" lon="1.23187">
        <ele>116.2</ele>
        <time>2020-06-18T13:54:39Z</time>
      </trkpt>
      <trkpt lat="49.97238" lon="1.23186">
        <ele>116.1</ele>
        <time>2020-06-18T13:54:40Z</time>
      </trkpt>
      <trkpt lat="49.97243" lon="1.23184">
        <ele>116</ele>
        <time>2020-06-18T13:54:41Z</time>
      </trkpt>
      <trkpt lat="49.97248" lon="1.23182">
        <ele>116</ele>
        <time>2020-06-18T13:54:42Z</time>
      </trkpt>
      <trkpt lat="49.97253" lon="1.23182">
        <ele>115.9</ele>
        <time>2020-06-18T13:54:43Z</time>
      </trkpt>
      <trkpt lat="49.97259" lon="1.23179">
        <ele>115.8</ele>
        <time>2020-06-18T13:54:44Z</time>
      </trkpt>
      <trkpt lat="49.97265" lon="1.23178">
        <ele>115.8</ele>
        <time>2020-06-18T13:54:45Z</time>
      </trkpt>
      <trkpt lat="49.97271" lon="1.23176">
        <ele>115.7</ele>
        <time>2020-06-18T13:54:46Z</time>
      </trkpt>
      <trkpt lat="49.97277" lon="1.23175">
        <ele>115.6</ele>
        <time>2020-06-18T13:54:47Z</time>
      </trkpt>
      <trkpt lat="49.97283" lon="1.23174">
        <ele>115.6</ele>
        <time>2020-06-18T13:54:48Z</time>
      </trkpt>
      <trkpt lat="49.9729" lon="1.23174">
        <ele>115.5</ele>
        <time>2020-06-18T13:54:49Z</time>
      </trkpt>
      <trkpt lat="49.97298" lon="1.23172">
        <ele>115.4</ele>
        <time>2020-06-18T13:54:50Z</time>
      </trkpt>
      <trkpt lat="49.97305" lon="1.23171">
        <ele>115.4</ele>
        <time>2020-06-18T13:54:51Z</time>
      </trkpt>
      <trkpt lat="49.97311" lon="1.2317">
        <ele>115.3</ele>
        <time>2020-06-18T13:54:52Z</time>
      </trkpt>
      <trkpt lat="49.97316" lon="1.23169">
        <ele>115.3</ele>
        <time>2020-06-18T13:54:53Z</time>
      </trkpt>
      <trkpt lat="49.97323" lon="1.23167">
        <ele>115.2</ele>
        <time>2020-06-18T13:54:54Z</time>
      </trkpt>
      <trkpt lat="49.97329" lon="1.23166">
        <ele>115.1</ele>
        <time>2020-06-18T13:54:55Z</time>
      </trkpt>
      <trkpt lat="49.97335" lon="1.23165">
        <ele>115</ele>
        <time>2020-06-18T13:54:56Z</time>
      </trkpt>
      <trkpt lat="49.97341" lon="1.23163">
        <ele>114.9</ele>
        <time>2020-06-18T13:54:57Z</time>
      </trkpt>
      <trkpt lat="49.97346" lon="1.23162">
        <ele>114.8</ele>
        <time>2020-06-18T13:54:58Z</time>
      </trkpt>
      <trkpt lat="49.97352" lon="1.2316">
        <ele>114.8</ele>
        <time>2020-06-18T13:54:59Z</time>
      </trkpt>
      <trkpt lat="49.97357" lon="1.2316">
        <ele>114.7</ele>
        <time>2020-06-18T13:55:00Z</time>
      </trkpt>
      <trkpt lat="49.97362" lon="1.2316">
        <ele>114.7</ele>
        <time>2020-06-18T13:55:01Z</time>
      </trkpt>
      <trkpt lat="49.97368" lon="1.2316">
        <ele>114.6</ele>
        <time>2020-06-18T13:55:02Z</time>
      </trkpt>
      <trkpt lat="49.97374" lon="1.2316">
        <ele>114.4</ele>
        <time>2020-06-18T13:55:03Z</time>
      </trkpt>
      <trkpt lat="49.97379" lon="1.23158">
        <ele>114.3</ele>
        <time>2020-06-18T13:55:04Z</time>
      </trkpt>
      <trkpt lat="49.97385" lon="1.23156">
        <ele>114.2</ele>
        <time>2020-06-18T13:55:05Z</time>
      </trkpt>
      <trkpt lat="49.97391" lon="1.23155">
        <ele>114</ele>
        <time>2020-06-18T13:55:06Z</time>
      </trkpt>
      <trkpt lat="49.97398" lon="1.23153">
        <ele>113.8</ele>
        <time>2020-06-18T13:55:07Z</time>
      </trkpt>
      <trkpt lat="49.97403" lon="1.23152">
        <ele>113.7</ele>
        <time>2020-06-18T13:55:08Z</time>
      </trkpt>
      <trkpt lat="49.97408" lon="1.23151">
        <ele>113.5</ele>
        <time>2020-06-18T13:55:09Z</time>
      </trkpt>
      <trkpt lat="49.97413" lon="1.23152">
        <ele>113.4</ele>
        <time>2020-06-18T13:55:10Z</time>
      </trkpt>
      <trkpt lat="49.97419" lon="1.23152">
        <ele>113.2</ele>
        <time>2020-06-18T13:55:11Z</time>
      </trkpt>
      <trkpt lat="49.97425" lon="1.23151">
        <ele>113.1</ele>
        <time>2020-06-18T13:55:12Z</time>
      </trkpt>
      <trkpt lat="49.97431" lon="1.2315">
        <ele>113</ele>
        <time>2020-06-18T13:55:13Z</time>
      </trkpt>
      <trkpt lat="49.97437" lon="1.23148">
        <ele>112.9</ele>
        <time>2020-06-18T13:55:14Z</time>
      </trkpt>
      <trkpt lat="49.97443" lon="1.23147">
        <ele>112.7</ele>
        <time>2020-06-18T13:55:15Z</time>
      </trkpt>
      <trkpt lat="49.9745" lon="1.23146">
        <ele>112.6</ele>
        <time>2020-06-18T13:55:16Z</time>
      </trkpt>
      <trkpt lat="49.97458" lon="1.23147">
        <ele>112.5</ele>
        <time>2020-06-18T13:55:17Z</time>
      </trkpt>
      <trkpt lat="49.97465" lon="1.23146">
        <ele>112.3</ele>
        <time>2020-06-18T13:55:18Z</time>
      </trkpt>
      <trkpt lat="49.97472" lon="1.23145">
        <ele>112.2</ele>
        <time>2020-06-18T13:55:19Z</time>
      </trkpt>
      <trkpt lat="49.97477" lon="1.23143">
        <ele>112.2</ele>
        <time>2020-06-18T13:55:20Z</time>
      </trkpt>
      <trkpt lat="49.97484" lon="1.23142">
        <ele>112.1</ele>
        <time>2020-06-18T13:55:21Z</time>
      </trkpt>
      <trkpt lat="49.9749" lon="1.23141">
        <ele>112</ele>
        <time>2020-06-18T13:55:22Z</time>
      </trkpt>
      <trkpt lat="49.97496" lon="1.2314">
        <ele>111.9</ele>
        <time>2020-06-18T13:55:23Z</time>
      </trkpt>
      <trkpt lat="49.97502" lon="1.23138">
        <ele>111.8</ele>
        <time>2020-06-18T13:55:24Z</time>
      </trkpt>
      <trkpt lat="49.97509" lon="1.23136">
        <ele>111.6</ele>
        <time>2020-06-18T13:55:25Z</time>
      </trkpt>
      <trkpt lat="49.97515" lon="1.23133">
        <ele>111.4</ele>
        <time>2020-06-18T13:55:26Z</time>
      </trkpt>
      <trkpt lat="49.97521" lon="1.2313">
        <ele>111.3</ele>
        <time>2020-06-18T13:55:27Z</time>
      </trkpt>
      <trkpt lat="49.97528" lon="1.23127">
        <ele>111.1</ele>
        <time>2020-06-18T13:55:28Z</time>
      </trkpt>
      <trkpt lat="49.97535" lon="1.23124">
        <ele>110.9</ele>
        <time>2020-06-18T13:55:29Z</time>
      </trkpt>
      <trkpt lat="49.97541" lon="1.2312">
        <ele>110.8</ele>
        <time>2020-06-18T13:55:30Z</time>
      </trkpt>
      <trkpt lat="49.97548" lon="1.23117">
        <ele>110.6</ele>
        <time>2020-06-18T13:55:31Z</time>
      </trkpt>
      <trkpt lat="49.97556" lon="1.23115">
        <ele>110.5</ele>
        <time>2020-06-18T13:55:32Z</time>
      </trkpt>
      <trkpt lat="49.97563" lon="1.23111">
        <ele>110.3</ele>
        <time>2020-06-18T13:55:33Z</time>
      </trkpt>
      <trkpt lat="49.9757" lon="1.23108">
        <ele>110.2</ele>
        <time>2020-06-18T13:55:34Z</time>
      </trkpt>
      <trkpt lat="49.97576" lon="1.23104">
        <ele>110.1</ele>
        <time>2020-06-18T13:55:35Z</time>
      </trkpt>
      <trkpt lat="49.97583" lon="1.231">
        <ele>110.1</ele>
        <time>2020-06-18T13:55:36Z</time>
      </trkpt>
      <trkpt lat="49.9759" lon="1.23096">
        <ele>110</ele>
        <time>2020-06-18T13:55:37Z</time>
      </trkpt>
      <trkpt lat="49.97597" lon="1.23093">
        <ele>109.9</ele>
        <time>2020-06-18T13:55:38Z</time>
      </trkpt>
      <trkpt lat="49.97603" lon="1.2309">
        <ele>109.8</ele>
        <time>2020-06-18T13:55:39Z</time>
      </trkpt>
      <trkpt lat="49.9761" lon="1.23088">
        <ele>109.7</ele>
        <time>2020-06-18T13:55:40Z</time>
      </trkpt>
      <trkpt lat="49.97617" lon="1.23085">
        <ele>109.6</ele>
        <time>2020-06-18T13:55:41Z</time>
      </trkpt>
      <trkpt lat="49.97624" lon="1.23082">
        <ele>109.5</ele>
        <time>2020-06-18T13:55:42Z</time>
      </trkpt>
      <trkpt lat="49.97631" lon="1.23079">
        <ele>109.4</ele>
        <time>2020-06-18T13:55:43Z</time>
      </trkpt>
      <trkpt lat="49.97638" lon="1.23077">
        <ele>109.2</ele>
        <time>2020-06-18T13:55:44Z</time>
      </trkpt>
      <trkpt lat="49.97644" lon="1.23075">
        <ele>109.1</ele>
        <time>2020-06-18T13:55:45Z</time>
      </trkpt>
      <trkpt lat="49.97651" lon="1.23073">
        <ele>109</ele>
        <time>2020-06-18T13:55:46Z</time>
      </trkpt>
      <trkpt lat="49.97658" lon="1.23069">
        <ele>109</ele>
        <time>2020-06-18T13:55:47Z</time>
      </trkpt>
      <trkpt lat="49.97665" lon="1.23067">
        <ele>108.9</ele>
        <time>2020-06-18T13:55:48Z</time>
      </trkpt>
      <trkpt lat="49.97671" lon="1.23065">
        <ele>108.8</ele>
        <time>2020-06-18T13:55:49Z</time>
      </trkpt>
      <trkpt lat="49.97677" lon="1.23063">
        <ele>108.8</ele>
        <time>2020-06-18T13:55:50Z</time>
      </trkpt>
      <trkpt lat="49.97683" lon="1.2306">
        <ele>108.7</ele>
        <time>2020-06-18T13:55:51Z</time>
      </trkpt>
      <trkpt lat="49.97689" lon="1.23059">
        <ele>108.6</ele>
        <time>2020-06-18T13:55:52Z</time>
      </trkpt>
      <trkpt lat="49.97696" lon="1.23058">
        <ele>108.6</ele>
        <time>2020-06-18T13:55:53Z</time>
      </trkpt>
      <trkpt lat="49.97703" lon="1.23056">
        <ele>108.5</ele>
        <time>2020-06-18T13:55:54Z</time>
      </trkpt>
      <trkpt lat="49.97711" lon="1.23054">
        <ele>108.6</ele>
        <time>2020-06-18T13:55:55Z</time>
      </trkpt>
      <trkpt lat="49.97718" lon="1.23053">
        <ele>108.6</ele>
        <time>2020-06-18T13:55:56Z</time>
      </trkpt>
      <trkpt lat="49.97725" lon="1.23051">
        <ele>108.7</ele>
        <time>2020-06-18T13:55:57Z</time>
      </trkpt>
      <trkpt lat="49.97731" lon="1.23049">
        <ele>108.8</ele>
        <time>2020-06-18T13:55:58Z</time>
      </trkpt>
      <trkpt lat="49.97737" lon="1.23048">
        <ele>108.9</ele>
        <time>2020-06-18T13:55:59Z</time>
      </trkpt>
      <trkpt lat="49.97744" lon="1.23046">
        <ele>108.9</ele>
        <time>2020-06-18T13:56:00Z</time>
      </trkpt>
      <trkpt lat="49.9775" lon="1.23044">
        <ele>109.1</ele>
        <time>2020-06-18T13:56:01Z</time>
      </trkpt>
      <trkpt lat="49.97756" lon="1.23043">
        <ele>109.2</ele>
        <time>2020-06-18T13:56:02Z</time>
      </trkpt>
      <trkpt lat="49.97761" lon="1.23042">
        <ele>109.3</ele>
        <time>2020-06-18T13:56:03Z</time>
      </trkpt>
      <trkpt lat="49.97767" lon="1.23043">
        <ele>109.4</ele>
        <time>2020-06-18T13:56:04Z</time>
      </trkpt>
      <trkpt lat="49.97772" lon="1.23043">
        <ele>109.5</ele>
        <time>2020-06-18T13:56:05Z</time>
      </trkpt>
      <trkpt lat="49.97778" lon="1.23044">
        <ele>109.6</ele>
        <time>2020-06-18T13:56:06Z</time>
      </trkpt>
      <trkpt lat="49.97783" lon="1.23047">
        <ele>109.7</ele>
        <time>2020-06-18T13:56:07Z</time>
      </trkpt>
      <trkpt lat="49.97788" lon="1.23048">
        <ele>109.8</ele>
        <time>2020-06-18T13:56:08Z</time>
      </trkpt>
      <trkpt lat="49.97793" lon="1.23049">
        <ele>109.9</ele>
        <time>2020-06-18T13:56:09Z</time>
      </trkpt>
      <trkpt lat="49.97797" lon="1.2305">
        <ele>110</ele>
        <time>2020-06-18T13:56:10Z</time>
      </trkpt>
      <trkpt lat="49.97802" lon="1.23052">
        <ele>110.1</ele>
        <time>2020-06-18T13:56:11Z</time>
      </trkpt>
      <trkpt lat="49.97807" lon="1.23056">
        <ele>110.2</ele>
        <time>2020-06-18T13:56:12Z</time>
      </trkpt>
      <trkpt lat="49.97812" lon="1.23061">
        <ele>110.3</ele>
        <time>2020-06-18T13:56:13Z</time>
      </trkpt>
      <trkpt lat="49.97817" lon="1.23065">
        <ele>110.4</ele>
        <time>2020-06-18T13:56:14Z</time>
      </trkpt>
      <trkpt lat="49.97822" lon="1.23068">
        <ele>110.5</ele>
        <time>2020-06-18T13:56:15Z</time>
      </trkpt>
      <trkpt lat="49.97828" lon="1.23073">
        <ele>110.7</ele>
        <time>2020-06-18T13:56:16Z</time>
      </trkpt>
      <trkpt lat="49.97836" lon="1.23078">
        <ele>110.9</ele>
        <time>2020-06-18T13:56:17Z</time>
      </trkpt>
      <trkpt lat="49.97842" lon="1.23082">
        <ele>111.1</ele>
        <time>2020-06-18T13:56:18Z</time>
      </trkpt>
      <trkpt lat="49.97847" lon="1.23084">
        <ele>111.3</ele>
        <time>2020-06-18T13:56:19Z</time>
      </trkpt>
      <trkpt lat="49.97851" lon="1.23087">
        <ele>111.5</ele>
        <time>2020-06-18T13:56:20Z</time>
      </trkpt>
      <trkpt lat="49.97856" lon="1.23087">
        <ele>111.8</ele>
        <time>2020-06-18T13:56:21Z</time>
      </trkpt>
      <trkpt lat="49.97861" lon="1.23085">
        <ele>111.8</ele>
        <time>2020-06-18T13:56:22Z</time>
      </trkpt>
      <trkpt lat="49.97866" lon="1.23083">
        <ele>111.9</ele>
        <time>2020-06-18T13:56:23Z</time>
      </trkpt>
      <trkpt lat="49.9787" lon="1.23082">
        <ele>112</ele>
        <time>2020-06-18T13:56:24Z</time>
      </trkpt>
      <trkpt lat="49.97877" lon="1.23081">
        <ele>112.1</ele>
        <time>2020-06-18T13:56:25Z</time>
      </trkpt>
      <trkpt lat="49.97882" lon="1.2308">
        <ele>112.2</ele>
        <time>2020-06-18T13:56:26Z</time>
      </trkpt>
      <trkpt lat="49.97887" lon="1.23082">
        <ele>112.2</ele>
        <time>2020-06-18T13:56:27Z</time>
      </trkpt>
      <trkpt lat="49.97892" lon="1.23085">
        <ele>112.3</ele>
        <time>2020-06-18T13:56:28Z</time>
      </trkpt>
      <trkpt lat="49.97897" lon="1.23086">
        <ele>112.3</ele>
        <time>2020-06-18T13:56:29Z</time>
      </trkpt>
      <trkpt lat="49.97901" lon="1.23088">
        <ele>112.4</ele>
        <time>2020-06-18T13:56:30Z</time>
      </trkpt>
      <trkpt lat="49.97906" lon="1.2309">
        <ele>112.4</ele>
        <time>2020-06-18T13:56:31Z</time>
      </trkpt>
      <trkpt lat="49.9791" lon="1.23092">
        <ele>112.5</ele>
        <time>2020-06-18T13:56:32Z</time>
      </trkpt>
      <trkpt lat="49.97915" lon="1.23095">
        <ele>112.6</ele>
        <time>2020-06-18T13:56:33Z</time>
      </trkpt>
      <trkpt lat="49.9792" lon="1.23097">
        <ele>112.6</ele>
        <time>2020-06-18T13:56:34Z</time>
      </trkpt>
      <trkpt lat="49.97926" lon="1.23099">
        <ele>112.7</ele>
        <time>2020-06-18T13:56:35Z</time>
      </trkpt>
      <trkpt lat="49.9793" lon="1.23102">
        <ele>112.7</ele>
        <time>2020-06-18T13:56:36Z</time>
      </trkpt>
      <trkpt lat="49.97935" lon="1.23105">
        <ele>112.8</ele>
        <time>2020-06-18T13:56:37Z</time>
      </trkpt>
      <trkpt lat="49.97939" lon="1.2311">
        <ele>112.9</ele>
        <time>2020-06-18T13:56:38Z</time>
      </trkpt>
      <trkpt lat="49.97942" lon="1.23115">
        <ele>112.9</ele>
        <time>2020-06-18T13:56:39Z</time>
      </trkpt>
      <trkpt lat="49.97945" lon="1.23121">
        <ele>113</ele>
        <time>2020-06-18T13:56:40Z</time>
      </trkpt>
      <trkpt lat="49.97949" lon="1.23127">
        <ele>113</ele>
        <time>2020-06-18T13:56:41Z</time>
      </trkpt>
      <trkpt lat="49.97952" lon="1.23135">
        <ele>113</ele>
        <time>2020-06-18T13:56:42Z</time>
      </trkpt>
      <trkpt lat="49.97954" lon="1.23145">
        <ele>113</ele>
        <time>2020-06-18T13:56:43Z</time>
      </trkpt>
      <trkpt lat="49.97957" lon="1.23153">
        <ele>113</ele>
        <time>2020-06-18T13:56:44Z</time>
      </trkpt>
      <trkpt lat="49.9796" lon="1.23161">
        <ele>113</ele>
        <time>2020-06-18T13:56:45Z</time>
      </trkpt>
      <trkpt lat="49.97963" lon="1.2317">
        <ele>113</ele>
        <time>2020-06-18T13:56:46Z</time>
      </trkpt>
      <trkpt lat="49.97965" lon="1.23177">
        <ele>113</ele>
        <time>2020-06-18T13:56:47Z</time>
      </trkpt>
      <trkpt lat="49.97967" lon="1.23187">
        <ele>113</ele>
        <time>2020-06-18T13:56:48Z</time>
      </trkpt>
      <trkpt lat="49.97969" lon="1.23197">
        <ele>113.1</ele>
        <time>2020-06-18T13:56:49Z</time>
      </trkpt>
      <trkpt lat="49.97971" lon="1.23205">
        <ele>113.1</ele>
        <time>2020-06-18T13:56:50Z</time>
      </trkpt>
      <trkpt lat="49.97974" lon="1.23213">
        <ele>113.2</ele>
        <time>2020-06-18T13:56:51Z</time>
      </trkpt>
      <trkpt lat="49.97975" lon="1.23221">
        <ele>113.2</ele>
        <time>2020-06-18T13:56:52Z</time>
      </trkpt>
      <trkpt lat="49.97977" lon="1.2323">
        <ele>113.3</ele>
        <time>2020-06-18T13:56:53Z</time>
      </trkpt>
      <trkpt lat="49.97978" lon="1.23238">
        <ele>113.3</ele>
        <time>2020-06-18T13:56:54Z</time>
      </trkpt>
      <trkpt lat="49.97981" lon="1.23247">
        <ele>113.4</ele>
        <time>2020-06-18T13:56:55Z</time>
      </trkpt>
      <trkpt lat="49.97983" lon="1.23255">
        <ele>113.4</ele>
        <time>2020-06-18T13:56:56Z</time>
      </trkpt>
      <trkpt lat="49.97986" lon="1.23263">
        <ele>113.5</ele>
        <time>2020-06-18T13:56:57Z</time>
      </trkpt>
      <trkpt lat="49.9799" lon="1.23272">
        <ele>113.6</ele>
        <time>2020-06-18T13:56:58Z</time>
      </trkpt>
      <trkpt lat="49.97992" lon="1.23279">
        <ele>113.6</ele>
        <time>2020-06-18T13:56:59Z</time>
      </trkpt>
      <trkpt lat="49.97995" lon="1.23288">
        <ele>113.7</ele>
        <time>2020-06-18T13:57:00Z</time>
      </trkpt>
      <trkpt lat="49.97997" lon="1.23296">
        <ele>113.7</ele>
        <time>2020-06-18T13:57:01Z</time>
      </trkpt>
      <trkpt lat="49.97999" lon="1.23304">
        <ele>113.8</ele>
        <time>2020-06-18T13:57:02Z</time>
      </trkpt>
      <trkpt lat="49.98001" lon="1.23313">
        <ele>113.9</ele>
        <time>2020-06-18T13:57:03Z</time>
      </trkpt>
      <trkpt lat="49.98002" lon="1.2332">
        <ele>114</ele>
        <time>2020-06-18T13:57:04Z</time>
      </trkpt>
      <trkpt lat="49.98004" lon="1.23328">
        <ele>114.1</ele>
        <time>2020-06-18T13:57:05Z</time>
      </trkpt>
      <trkpt lat="49.98006" lon="1.23337">
        <ele>114.2</ele>
        <time>2020-06-18T13:57:06Z</time>
      </trkpt>
      <trkpt lat="49.98007" lon="1.23345">
        <ele>114.4</ele>
        <time>2020-06-18T13:57:07Z</time>
      </trkpt>
      <trkpt lat="49.98008" lon="1.23354">
        <ele>114.4</ele>
        <time>2020-06-18T13:57:08Z</time>
      </trkpt>
      <trkpt lat="49.98008" lon="1.23361">
        <ele>114.5</ele>
        <time>2020-06-18T13:57:09Z</time>
      </trkpt>
      <trkpt lat="49.9801" lon="1.23369">
        <ele>114.5</ele>
        <time>2020-06-18T13:57:10Z</time>
      </trkpt>
      <trkpt lat="49.98012" lon="1.23376">
        <ele>114.6</ele>
        <time>2020-06-18T13:57:11Z</time>
      </trkpt>
      <trkpt lat="49.98014" lon="1.23384">
        <ele>114.6</ele>
        <time>2020-06-18T13:57:12Z</time>
      </trkpt>
      <trkpt lat="49.98016" lon="1.23392">
        <ele>114.7</ele>
        <time>2020-06-18T13:57:13Z</time>
      </trkpt>
      <trkpt lat="49.98018" lon="1.23402">
        <ele>114.8</ele>
        <time>2020-06-18T13:57:14Z</time>
      </trkpt>
      <trkpt lat="49.9802" lon="1.2341">
        <ele>114.9</ele>
        <time>2020-06-18T13:57:15Z</time>
      </trkpt>
      <trkpt lat="49.98022" lon="1.23418">
        <ele>115</ele>
        <time>2020-06-18T13:57:16Z</time>
      </trkpt>
      <trkpt lat="49.98025" lon="1.23427">
        <ele>115.2</ele>
        <time>2020-06-18T13:57:17Z</time>
      </trkpt>
      <trkpt lat="49.98028" lon="1.23436">
        <ele>115.3</ele>
        <time>2020-06-18T13:57:18Z</time>
      </trkpt>
      <trkpt lat="49.9803" lon="1.23446">
        <ele>115.4</ele>
        <time>2020-06-18T13:57:19Z</time>
      </trkpt>
      <trkpt lat="49.98033" lon="1.23456">
        <ele>115.6</ele>
        <time>2020-06-18T13:57:20Z</time>
      </trkpt>
      <trkpt lat="49.98035" lon="1.23465">
        <ele>115.7</ele>
        <time>2020-06-18T13:57:21Z</time>
      </trkpt>
      <trkpt lat="49.98036" lon="1.23473">
        <ele>115.8</ele>
        <time>2020-06-18T13:57:22Z</time>
      </trkpt>
      <trkpt lat="49.98038" lon="1.23481">
        <ele>115.9</ele>
        <time>2020-06-18T13:57:23Z</time>
      </trkpt>
      <trkpt lat="49.98039" lon="1.23489">
        <ele>116</ele>
        <time>2020-06-18T13:57:24Z</time>
      </trkpt>
      <trkpt lat="49.9804" lon="1.23498">
        <ele>116.1</ele>
        <time>2020-06-18T13:57:25Z</time>
      </trkpt>
      <trkpt lat="49.98042" lon="1.23508">
        <ele>116.2</ele>
        <time>2020-06-18T13:57:26Z</time>
      </trkpt>
      <trkpt lat="49.98044" lon="1.2352">
        <ele>116.3</ele>
        <time>2020-06-18T13:57:27Z</time>
      </trkpt>
      <trkpt lat="49.98045" lon="1.23526">
        <ele>116.3</ele>
        <time>2020-06-18T13:57:28Z</time>
      </trkpt>
      <trkpt lat="49.98045" lon="1.23532">
        <ele>116.4</ele>
        <time>2020-06-18T13:57:29Z</time>
      </trkpt>
      <trkpt lat="49.98046" lon="1.2354">
        <ele>116.5</ele>
        <time>2020-06-18T13:57:30Z</time>
      </trkpt>
      <trkpt lat="49.98047" lon="1.23548">
        <ele>116.6</ele>
        <time>2020-06-18T13:57:31Z</time>
      </trkpt>
      <trkpt lat="49.98048" lon="1.23556">
        <ele>116.7</ele>
        <time>2020-06-18T13:57:32Z</time>
      </trkpt>
      <trkpt lat="49.9805" lon="1.23566">
        <ele>116.8</ele>
        <time>2020-06-18T13:57:33Z</time>
      </trkpt>
      <trkpt lat="49.9805" lon="1.23576">
        <ele>116.9</ele>
        <time>2020-06-18T13:57:34Z</time>
      </trkpt>
      <trkpt lat="49.98051" lon="1.23585">
        <ele>117.1</ele>
        <time>2020-06-18T13:57:35Z</time>
      </trkpt>
      <trkpt lat="49.98051" lon="1.23594">
        <ele>117.2</ele>
        <time>2020-06-18T13:57:36Z</time>
      </trkpt>
      <trkpt lat="49.98052" lon="1.23605">
        <ele>117.3</ele>
        <time>2020-06-18T13:57:37Z</time>
      </trkpt>
      <trkpt lat="49.98053" lon="1.23616">
        <ele>117.3</ele>
        <time>2020-06-18T13:57:38Z</time>
      </trkpt>
      <trkpt lat="49.98054" lon="1.23626">
        <ele>117.4</ele>
        <time>2020-06-18T13:57:39Z</time>
      </trkpt>
      <trkpt lat="49.98054" lon="1.23636">
        <ele>117.4</ele>
        <time>2020-06-18T13:57:40Z</time>
      </trkpt>
      <trkpt lat="49.98055" lon="1.23645">
        <ele>117.4</ele>
        <time>2020-06-18T13:57:41Z</time>
      </trkpt>
      <trkpt lat="49.98055" lon="1.23654">
        <ele>117.5</ele>
        <time>2020-06-18T13:57:42Z</time>
      </trkpt>
      <trkpt lat="49.98056" lon="1.23663">
        <ele>117.5</ele>
        <time>2020-06-18T13:57:43Z</time>
      </trkpt>
      <trkpt lat="49.98056" lon="1.23673">
        <ele>117.5</ele>
        <time>2020-06-18T13:57:44Z</time>
      </trkpt>
      <trkpt lat="49.98056" lon="1.23682">
        <ele>117.6</ele>
        <time>2020-06-18T13:57:45Z</time>
      </trkpt>
      <trkpt lat="49.98056" lon="1.23692">
        <ele>117.6</ele>
        <time>2020-06-18T13:57:46Z</time>
      </trkpt>
      <trkpt lat="49.98056" lon="1.23701">
        <ele>117.7</ele>
        <time>2020-06-18T13:57:47Z</time>
      </trkpt>
      <trkpt lat="49.98057" lon="1.23711">
        <ele>117.7</ele>
        <time>2020-06-18T13:57:48Z</time>
      </trkpt>
      <trkpt lat="49.98057" lon="1.2372">
        <ele>117.8</ele>
        <time>2020-06-18T13:57:49Z</time>
      </trkpt>
      <trkpt lat="49.98057" lon="1.2373">
        <ele>117.8</ele>
        <time>2020-06-18T13:57:50Z</time>
      </trkpt>
      <trkpt lat="49.98057" lon="1.23741">
        <ele>117.8</ele>
        <time>2020-06-18T13:57:51Z</time>
      </trkpt>
      <trkpt lat="49.98057" lon="1.23751">
        <ele>117.8</ele>
        <time>2020-06-18T13:57:52Z</time>
      </trkpt>
      <trkpt lat="49.98056" lon="1.23761">
        <ele>117.8</ele>
        <time>2020-06-18T13:57:53Z</time>
      </trkpt>
      <trkpt lat="49.98056" lon="1.23771">
        <ele>117.8</ele>
        <time>2020-06-18T13:57:54Z</time>
      </trkpt>
      <trkpt lat="49.98056" lon="1.23781">
        <ele>117.8</ele>
        <time>2020-06-18T13:57:55Z</time>
      </trkpt>
      <trkpt lat="49.98056" lon="1.23791">
        <ele>117.8</ele>
        <time>2020-06-18T13:57:56Z</time>
      </trkpt>
      <trkpt lat="49.98056" lon="1.23802">
        <ele>117.8</ele>
        <time>2020-06-18T13:57:57Z</time>
      </trkpt>
      <trkpt lat="49.98055" lon="1.23813">
        <ele>117.8</ele>
        <time>2020-06-18T13:57:58Z</time>
      </trkpt>
      <trkpt lat="49.98056" lon="1.23825">
        <ele>117.8</ele>
        <time>2020-06-18T13:57:59Z</time>
      </trkpt>
      <trkpt lat="49.98056" lon="1.23837">
        <ele>117.8</ele>
        <time>2020-06-18T13:58:00Z</time>
      </trkpt>
      <trkpt lat="49.98056" lon="1.23847">
        <ele>117.8</ele>
        <time>2020-06-18T13:58:01Z</time>
      </trkpt>
      <trkpt lat="49.98054" lon="1.23861">
        <ele>117.7</ele>
        <time>2020-06-18T13:58:02Z</time>
      </trkpt>
      <trkpt lat="49.98054" lon="1.23874">
        <ele>117.7</ele>
        <time>2020-06-18T13:58:03Z</time>
      </trkpt>
      <trkpt lat="49.98054" lon="1.23884">
        <ele>117.7</ele>
        <time>2020-06-18T13:58:04Z</time>
      </trkpt>
      <trkpt lat="49.98054" lon="1.23896">
        <ele>117.7</ele>
        <time>2020-06-18T13:58:05Z</time>
      </trkpt>
      <trkpt lat="49.98055" lon="1.23907">
        <ele>117.6</ele>
        <time>2020-06-18T13:58:06Z</time>
      </trkpt>
      <trkpt lat="49.98055" lon="1.23917">
        <ele>117.6</ele>
        <time>2020-06-18T13:58:07Z</time>
      </trkpt>
      <trkpt lat="49.98055" lon="1.23928">
        <ele>117.5</ele>
        <time>2020-06-18T13:58:08Z</time>
      </trkpt>
      <trkpt lat="49.98054" lon="1.23939">
        <ele>117.5</ele>
        <time>2020-06-18T13:58:09Z</time>
      </trkpt>
      <trkpt lat="49.98054" lon="1.23951">
        <ele>117.5</ele>
        <time>2020-06-18T13:58:10Z</time>
      </trkpt>
      <trkpt lat="49.98055" lon="1.23962">
        <ele>117.4</ele>
        <time>2020-06-18T13:58:11Z</time>
      </trkpt>
      <trkpt lat="49.98056" lon="1.23974">
        <ele>117.4</ele>
        <time>2020-06-18T13:58:12Z</time>
      </trkpt>
      <trkpt lat="49.98057" lon="1.23985">
        <ele>117.4</ele>
        <time>2020-06-18T13:58:13Z</time>
      </trkpt>
      <trkpt lat="49.98058" lon="1.23996">
        <ele>117.3</ele>
        <time>2020-06-18T13:58:14Z</time>
      </trkpt>
      <trkpt lat="49.98059" lon="1.24007">
        <ele>117.3</ele>
        <time>2020-06-18T13:58:15Z</time>
      </trkpt>
      <trkpt lat="49.98061" lon="1.24018">
        <ele>117.3</ele>
        <time>2020-06-18T13:58:16Z</time>
      </trkpt>
      <trkpt lat="49.98062" lon="1.24029">
        <ele>117.3</ele>
        <time>2020-06-18T13:58:17Z</time>
      </trkpt>
      <trkpt lat="49.98063" lon="1.2404">
        <ele>117.3</ele>
        <time>2020-06-18T13:58:18Z</time>
      </trkpt>
      <trkpt lat="49.98064" lon="1.2405">
        <ele>117.2</ele>
        <time>2020-06-18T13:58:19Z</time>
      </trkpt>
      <trkpt lat="49.98065" lon="1.24061">
        <ele>117.2</ele>
        <time>2020-06-18T13:58:20Z</time>
      </trkpt>
      <trkpt lat="49.98066" lon="1.24071">
        <ele>117.1</ele>
        <time>2020-06-18T13:58:21Z</time>
      </trkpt>
      <trkpt lat="49.98067" lon="1.24081">
        <ele>117.1</ele>
        <time>2020-06-18T13:58:22Z</time>
      </trkpt>
      <trkpt lat="49.98068" lon="1.24092">
        <ele>117.1</ele>
        <time>2020-06-18T13:58:23Z</time>
      </trkpt>
      <trkpt lat="49.98069" lon="1.24102">
        <ele>117</ele>
        <time>2020-06-18T13:58:24Z</time>
      </trkpt>
      <trkpt lat="49.9807" lon="1.24113">
        <ele>117</ele>
        <time>2020-06-18T13:58:25Z</time>
      </trkpt>
      <trkpt lat="49.98071" lon="1.24124">
        <ele>116.9</ele>
        <time>2020-06-18T13:58:26Z</time>
      </trkpt>
      <trkpt lat="49.98073" lon="1.24135">
        <ele>116.8</ele>
        <time>2020-06-18T13:58:27Z</time>
      </trkpt>
      <trkpt lat="49.98074" lon="1.24146">
        <ele>116.8</ele>
        <time>2020-06-18T13:58:28Z</time>
      </trkpt>
      <trkpt lat="49.98076" lon="1.24156">
        <ele>116.7</ele>
        <time>2020-06-18T13:58:29Z</time>
      </trkpt>
      <trkpt lat="49.98077" lon="1.24168">
        <ele>116.6</ele>
        <time>2020-06-18T13:58:30Z</time>
      </trkpt>
      <trkpt lat="49.98078" lon="1.24178">
        <ele>116.6</ele>
        <time>2020-06-18T13:58:31Z</time>
      </trkpt>
      <trkpt lat="49.98079" lon="1.24189">
        <ele>116.5</ele>
        <time>2020-06-18T13:58:32Z</time>
      </trkpt>
      <trkpt lat="49.9808" lon="1.242">
        <ele>116.4</ele>
        <time>2020-06-18T13:58:33Z</time>
      </trkpt>
      <trkpt lat="49.9808" lon="1.24211">
        <ele>116.3</ele>
        <time>2020-06-18T13:58:34Z</time>
      </trkpt>
      <trkpt lat="49.98081" lon="1.24223">
        <ele>116.3</ele>
        <time>2020-06-18T13:58:35Z</time>
      </trkpt>
      <trkpt lat="49.98082" lon="1.24235">
        <ele>116.2</ele>
        <time>2020-06-18T13:58:36Z</time>
      </trkpt>
      <trkpt lat="49.98083" lon="1.24246">
        <ele>116.1</ele>
        <time>2020-06-18T13:58:37Z</time>
      </trkpt>
      <trkpt lat="49.98084" lon="1.24258">
        <ele>116</ele>
        <time>2020-06-18T13:58:38Z</time>
      </trkpt>
      <trkpt lat="49.98085" lon="1.24269">
        <ele>116</ele>
        <time>2020-06-18T13:58:39Z</time>
      </trkpt>
      <trkpt lat="49.98086" lon="1.2428">
        <ele>115.9</ele>
        <time>2020-06-18T13:58:40Z</time>
      </trkpt>
      <trkpt lat="49.98087" lon="1.24291">
        <ele>115.9</ele>
        <time>2020-06-18T13:58:41Z</time>
      </trkpt>
      <trkpt lat="49.98088" lon="1.24303">
        <ele>115.8</ele>
        <time>2020-06-18T13:58:42Z</time>
      </trkpt>
      <trkpt lat="49.98089" lon="1.24314">
        <ele>115.7</ele>
        <time>2020-06-18T13:58:43Z</time>
      </trkpt>
      <trkpt lat="49.9809" lon="1.24325">
        <ele>115.7</ele>
        <time>2020-06-18T13:58:44Z</time>
      </trkpt>
      <trkpt lat="49.98091" lon="1.24336">
        <ele>115.6</ele>
        <time>2020-06-18T13:58:45Z</time>
      </trkpt>
      <trkpt lat="49.98093" lon="1.24347">
        <ele>115.6</ele>
        <time>2020-06-18T13:58:46Z</time>
      </trkpt>
      <trkpt lat="49.98094" lon="1.24357">
        <ele>115.6</ele>
        <time>2020-06-18T13:58:47Z</time>
      </trkpt>
      <trkpt lat="49.98095" lon="1.24367">
        <ele>115.6</ele>
        <time>2020-06-18T13:58:48Z</time>
      </trkpt>
      <trkpt lat="49.98097" lon="1.24377">
        <ele>115.6</ele>
        <time>2020-06-18T13:58:49Z</time>
      </trkpt>
      <trkpt lat="49.98098" lon="1.24387">
        <ele>115.5</ele>
        <time>2020-06-18T13:58:50Z</time>
      </trkpt>
      <trkpt lat="49.98098" lon="1.24398">
        <ele>115.4</ele>
        <time>2020-06-18T13:58:51Z</time>
      </trkpt>
      <trkpt lat="49.98099" lon="1.24408">
        <ele>115.3</ele>
        <time>2020-06-18T13:58:52Z</time>
      </trkpt>
      <trkpt lat="49.98101" lon="1.24418">
        <ele>115.2</ele>
        <time>2020-06-18T13:58:53Z</time>
      </trkpt>
      <trkpt lat="49.98102" lon="1.24427">
        <ele>115.1</ele>
        <time>2020-06-18T13:58:54Z</time>
      </trkpt>
      <trkpt lat="49.98103" lon="1.24438">
        <ele>115.1</ele>
        <time>2020-06-18T13:58:55Z</time>
      </trkpt>
      <trkpt lat="49.98103" lon="1.24447">
        <ele>115</ele>
        <time>2020-06-18T13:58:56Z</time>
      </trkpt>
      <trkpt lat="49.98103" lon="1.24457">
        <ele>114.9</ele>
        <time>2020-06-18T13:58:57Z</time>
      </trkpt>
      <trkpt lat="49.98102" lon="1.24468">
        <ele>114.9</ele>
        <time>2020-06-18T13:58:58Z</time>
      </trkpt>
      <trkpt lat="49.98101" lon="1.24478">
        <ele>114.8</ele>
        <time>2020-06-18T13:58:59Z</time>
      </trkpt>
      <trkpt lat="49.981" lon="1.24488">
        <ele>114.8</ele>
        <time>2020-06-18T13:59:00Z</time>
      </trkpt>
      <trkpt lat="49.98098" lon="1.24498">
        <ele>114.7</ele>
        <time>2020-06-18T13:59:01Z</time>
      </trkpt>
      <trkpt lat="49.98096" lon="1.24508">
        <ele>114.6</ele>
        <time>2020-06-18T13:59:02Z</time>
      </trkpt>
      <trkpt lat="49.98093" lon="1.24518">
        <ele>114.6</ele>
        <time>2020-06-18T13:59:03Z</time>
      </trkpt>
      <trkpt lat="49.9809" lon="1.24527">
        <ele>114.5</ele>
        <time>2020-06-18T13:59:04Z</time>
      </trkpt>
      <trkpt lat="49.98086" lon="1.24537">
        <ele>114.4</ele>
        <time>2020-06-18T13:59:05Z</time>
      </trkpt>
      <trkpt lat="49.98083" lon="1.24545">
        <ele>114.3</ele>
        <time>2020-06-18T13:59:06Z</time>
      </trkpt>
      <trkpt lat="49.98079" lon="1.24554">
        <ele>114.2</ele>
        <time>2020-06-18T13:59:07Z</time>
      </trkpt>
      <trkpt lat="49.98075" lon="1.24563">
        <ele>114.1</ele>
        <time>2020-06-18T13:59:08Z</time>
      </trkpt>
      <trkpt lat="49.9807" lon="1.2457">
        <ele>114.1</ele>
        <time>2020-06-18T13:59:09Z</time>
      </trkpt>
      <trkpt lat="49.98065" lon="1.24577">
        <ele>114</ele>
        <time>2020-06-18T13:59:10Z</time>
      </trkpt>
      <trkpt lat="49.9806" lon="1.24585">
        <ele>113.9</ele>
        <time>2020-06-18T13:59:11Z</time>
      </trkpt>
      <trkpt lat="49.98055" lon="1.24592">
        <ele>113.9</ele>
        <time>2020-06-18T13:59:12Z</time>
      </trkpt>
      <trkpt lat="49.98051" lon="1.24598">
        <ele>113.8</ele>
        <time>2020-06-18T13:59:13Z</time>
      </trkpt>
      <trkpt lat="49.98046" lon="1.24606">
        <ele>113.8</ele>
        <time>2020-06-18T13:59:14Z</time>
      </trkpt>
      <trkpt lat="49.98041" lon="1.24613">
        <ele>113.7</ele>
        <time>2020-06-18T13:59:15Z</time>
      </trkpt>
      <trkpt lat="49.98037" lon="1.24622">
        <ele>113.7</ele>
        <time>2020-06-18T13:59:16Z</time>
      </trkpt>
      <trkpt lat="49.98032" lon="1.24632">
        <ele>113.6</ele>
        <time>2020-06-18T13:59:17Z</time>
      </trkpt>
      <trkpt lat="49.9803" lon="1.24642">
        <ele>113.6</ele>
        <time>2020-06-18T13:59:18Z</time>
      </trkpt>
      <trkpt lat="49.9803" lon="1.24652">
        <ele>113.6</ele>
        <time>2020-06-18T13:59:19Z</time>
      </trkpt>
      <trkpt lat="49.98033" lon="1.24663">
        <ele>113.5</ele>
        <time>2020-06-18T13:59:20Z</time>
      </trkpt>
      <trkpt lat="49.98036" lon="1.2467">
        <ele>113.4</ele>
        <time>2020-06-18T13:59:21Z</time>
      </trkpt>
      <trkpt lat="49.98041" lon="1.24674">
        <ele>113.4</ele>
        <time>2020-06-18T13:59:22Z</time>
      </trkpt>
      <trkpt lat="49.98046" lon="1.2468">
        <ele>113.3</ele>
        <time>2020-06-18T13:59:23Z</time>
      </trkpt>
      <trkpt lat="49.9805" lon="1.24686">
        <ele>113.3</ele>
        <time>2020-06-18T13:59:24Z</time>
      </trkpt>
      <trkpt lat="49.98055" lon="1.24693">
        <ele>113.2</ele>
        <time>2020-06-18T13:59:25Z</time>
      </trkpt>
      <trkpt lat="49.9806" lon="1.24699">
        <ele>113.1</ele>
        <time>2020-06-18T13:59:26Z</time>
      </trkpt>
      <trkpt lat="49.98066" lon="1.24706">
        <ele>113</ele>
        <time>2020-06-18T13:59:27Z</time>
      </trkpt>
      <trkpt lat="49.98072" lon="1.24713">
        <ele>112.9</ele>
        <time>2020-06-18T13:59:28Z</time>
      </trkpt>
      <trkpt lat="49.98077" lon="1.24721">
        <ele>112.9</ele>
        <time>2020-06-18T13:59:29Z</time>
      </trkpt>
      <trkpt lat="49.98082" lon="1.24728">
        <ele>112.8</ele>
        <time>2020-06-18T13:59:30Z</time>
      </trkpt>
      <trkpt lat="49.98087" lon="1.24734">
        <ele>112.8</ele>
        <time>2020-06-18T13:59:31Z</time>
      </trkpt>
      <trkpt lat="49.98091" lon="1.24741">
        <ele>112.7</ele>
        <time>2020-06-18T13:59:32Z</time>
      </trkpt>
      <trkpt lat="49.98097" lon="1.24748">
        <ele>112.6</ele>
        <time>2020-06-18T13:59:33Z</time>
      </trkpt>
      <trkpt lat="49.98102" lon="1.24754">
        <ele>112.5</ele>
        <time>2020-06-18T13:59:34Z</time>
      </trkpt>
      <trkpt lat="49.98108" lon="1.24759">
        <ele>112.4</ele>
        <time>2020-06-18T13:59:35Z</time>
      </trkpt>
      <trkpt lat="49.98113" lon="1.24766">
        <ele>112.4</ele>
        <time>2020-06-18T13:59:36Z</time>
      </trkpt>
      <trkpt lat="49.98119" lon="1.24774">
        <ele>112.3</ele>
        <time>2020-06-18T13:59:37Z</time>
      </trkpt>
      <trkpt lat="49.98124" lon="1.24781">
        <ele>112.2</ele>
        <time>2020-06-18T13:59:38Z</time>
      </trkpt>
      <trkpt lat="49.98129" lon="1.24788">
        <ele>112.1</ele>
        <time>2020-06-18T13:59:39Z</time>
      </trkpt>
      <trkpt lat="49.98135" lon="1.24796">
        <ele>112</ele>
        <time>2020-06-18T13:59:40Z</time>
      </trkpt>
      <trkpt lat="49.98141" lon="1.24803">
        <ele>111.9</ele>
        <time>2020-06-18T13:59:41Z</time>
      </trkpt>
      <trkpt lat="49.98146" lon="1.2481">
        <ele>111.8</ele>
        <time>2020-06-18T13:59:42Z</time>
      </trkpt>
      <trkpt lat="49.98151" lon="1.24816">
        <ele>111.7</ele>
        <time>2020-06-18T13:59:43Z</time>
      </trkpt>
      <trkpt lat="49.98156" lon="1.24822">
        <ele>111.6</ele>
        <time>2020-06-18T13:59:44Z</time>
      </trkpt>
      <trkpt lat="49.98162" lon="1.24829">
        <ele>111.5</ele>
        <time>2020-06-18T13:59:45Z</time>
      </trkpt>
      <trkpt lat="49.98168" lon="1.24835">
        <ele>111.4</ele>
        <time>2020-06-18T13:59:46Z</time>
      </trkpt>
      <trkpt lat="49.98173" lon="1.2484">
        <ele>111.4</ele>
        <time>2020-06-18T13:59:47Z</time>
      </trkpt>
      <trkpt lat="49.98178" lon="1.24846">
        <ele>111.4</ele>
        <time>2020-06-18T13:59:48Z</time>
      </trkpt>
      <trkpt lat="49.98183" lon="1.24852">
        <ele>111.4</ele>
        <time>2020-06-18T13:59:49Z</time>
      </trkpt>
      <trkpt lat="49.98189" lon="1.24858">
        <ele>111.3</ele>
        <time>2020-06-18T13:59:50Z</time>
      </trkpt>
      <trkpt lat="49.98194" lon="1.24864">
        <ele>111.2</ele>
        <time>2020-06-18T13:59:51Z</time>
      </trkpt>
      <trkpt lat="49.98201" lon="1.2487">
        <ele>111.2</ele>
        <time>2020-06-18T13:59:52Z</time>
      </trkpt>
      <trkpt lat="49.98206" lon="1.24876">
        <ele>111.1</ele>
        <time>2020-06-18T13:59:53Z</time>
      </trkpt>
      <trkpt lat="49.98211" lon="1.24881">
        <ele>111.1</ele>
        <time>2020-06-18T13:59:54Z</time>
      </trkpt>
      <trkpt lat="49.98216" lon="1.24888">
        <ele>111</ele>
        <time>2020-06-18T13:59:55Z</time>
      </trkpt>
      <trkpt lat="49.98223" lon="1.24896">
        <ele>110.9</ele>
        <time>2020-06-18T13:59:56Z</time>
      </trkpt>
      <trkpt lat="49.98228" lon="1.24902">
        <ele>110.8</ele>
        <time>2020-06-18T13:59:57Z</time>
      </trkpt>
      <trkpt lat="49.98234" lon="1.24909">
        <ele>110.6</ele>
        <time>2020-06-18T13:59:58Z</time>
      </trkpt>
      <trkpt lat="49.9824" lon="1.24916">
        <ele>110.5</ele>
        <time>2020-06-18T13:59:59Z</time>
      </trkpt>
      <trkpt lat="49.98245" lon="1.24923">
        <ele>110.4</ele>
        <time>2020-06-18T14:00:00Z</time>
      </trkpt>
      <trkpt lat="49.98251" lon="1.24929">
        <ele>110.3</ele>
        <time>2020-06-18T14:00:01Z</time>
      </trkpt>
      <trkpt lat="49.98256" lon="1.24935">
        <ele>110.2</ele>
        <time>2020-06-18T14:00:02Z</time>
      </trkpt>
      <trkpt lat="49.98262" lon="1.24942">
        <ele>110.1</ele>
        <time>2020-06-18T14:00:03Z</time>
      </trkpt>
      <trkpt lat="49.98267" lon="1.24948">
        <ele>110</ele>
        <time>2020-06-18T14:00:04Z</time>
      </trkpt>
      <trkpt lat="49.98272" lon="1.24953">
        <ele>110</ele>
        <time>2020-06-18T14:00:05Z</time>
      </trkpt>
      <trkpt lat="49.98277" lon="1.2496">
        <ele>109.9</ele>
        <time>2020-06-18T14:00:06Z</time>
      </trkpt>
      <trkpt lat="49.98283" lon="1.24967">
        <ele>109.9</ele>
        <time>2020-06-18T14:00:07Z</time>
      </trkpt>
      <trkpt lat="49.98289" lon="1.24973">
        <ele>109.8</ele>
        <time>2020-06-18T14:00:08Z</time>
      </trkpt>
      <trkpt lat="49.98294" lon="1.24979">
        <ele>109.8</ele>
        <time>2020-06-18T14:00:09Z</time>
      </trkpt>
      <trkpt lat="49.98299" lon="1.24985">
        <ele>109.8</ele>
        <time>2020-06-18T14:00:10Z</time>
      </trkpt>
      <trkpt lat="49.98305" lon="1.24992">
        <ele>109.7</ele>
        <time>2020-06-18T14:00:11Z</time>
      </trkpt>
      <trkpt lat="49.9831" lon="1.24999">
        <ele>109.7</ele>
        <time>2020-06-18T14:00:12Z</time>
      </trkpt>
      <trkpt lat="49.98315" lon="1.25006">
        <ele>109.7</ele>
        <time>2020-06-18T14:00:13Z</time>
      </trkpt>
      <trkpt lat="49.98319" lon="1.25013">
        <ele>109.7</ele>
        <time>2020-06-18T14:00:14Z</time>
      </trkpt>
      <trkpt lat="49.98324" lon="1.2502">
        <ele>109.6</ele>
        <time>2020-06-18T14:00:15Z</time>
      </trkpt>
      <trkpt lat="49.98327" lon="1.25026">
        <ele>109.6</ele>
        <time>2020-06-18T14:00:16Z</time>
      </trkpt>
      <trkpt lat="49.98331" lon="1.25033">
        <ele>109.6</ele>
        <time>2020-06-18T14:00:17Z</time>
      </trkpt>
      <trkpt lat="49.98335" lon="1.25039">
        <ele>109.5</ele>
        <time>2020-06-18T14:00:18Z</time>
      </trkpt>
      <trkpt lat="49.9834" lon="1.25045">
        <ele>109.4</ele>
        <time>2020-06-18T14:00:19Z</time>
      </trkpt>
      <trkpt lat="49.98345" lon="1.25051">
        <ele>109.3</ele>
        <time>2020-06-18T14:00:20Z</time>
      </trkpt>
      <trkpt lat="49.98352" lon="1.25058">
        <ele>109.2</ele>
        <time>2020-06-18T14:00:21Z</time>
      </trkpt>
      <trkpt lat="49.98358" lon="1.25067">
        <ele>109.1</ele>
        <time>2020-06-18T14:00:22Z</time>
      </trkpt>
      <trkpt lat="49.98363" lon="1.25075">
        <ele>109</ele>
        <time>2020-06-18T14:00:23Z</time>
      </trkpt>
      <trkpt lat="49.98368" lon="1.25082">
        <ele>109</ele>
        <time>2020-06-18T14:00:24Z</time>
      </trkpt>
      <trkpt lat="49.98373" lon="1.2509">
        <ele>108.9</ele>
        <time>2020-06-18T14:00:25Z</time>
      </trkpt>
      <trkpt lat="49.98377" lon="1.25098">
        <ele>108.8</ele>
        <time>2020-06-18T14:00:26Z</time>
      </trkpt>
      <trkpt lat="49.98381" lon="1.25106">
        <ele>108.7</ele>
        <time>2020-06-18T14:00:27Z</time>
      </trkpt>
      <trkpt lat="49.98385" lon="1.25115">
        <ele>108.6</ele>
        <time>2020-06-18T14:00:28Z</time>
      </trkpt>
      <trkpt lat="49.98389" lon="1.25124">
        <ele>108.5</ele>
        <time>2020-06-18T14:00:29Z</time>
      </trkpt>
      <trkpt lat="49.98393" lon="1.25133">
        <ele>108.5</ele>
        <time>2020-06-18T14:00:30Z</time>
      </trkpt>
      <trkpt lat="49.98397" lon="1.25141">
        <ele>108.4</ele>
        <time>2020-06-18T14:00:31Z</time>
      </trkpt>
      <trkpt lat="49.98401" lon="1.25148">
        <ele>108.4</ele>
        <time>2020-06-18T14:00:32Z</time>
      </trkpt>
      <trkpt lat="49.98405" lon="1.25157">
        <ele>108.4</ele>
        <time>2020-06-18T14:00:33Z</time>
      </trkpt>
      <trkpt lat="49.98409" lon="1.25165">
        <ele>108.4</ele>
        <time>2020-06-18T14:00:34Z</time>
      </trkpt>
      <trkpt lat="49.98413" lon="1.25174">
        <ele>108.3</ele>
        <time>2020-06-18T14:00:35Z</time>
      </trkpt>
      <trkpt lat="49.98417" lon="1.25183">
        <ele>108.3</ele>
        <time>2020-06-18T14:00:36Z</time>
      </trkpt>
      <trkpt lat="49.98421" lon="1.25192">
        <ele>108.3</ele>
        <time>2020-06-18T14:00:37Z</time>
      </trkpt>
      <trkpt lat="49.98425" lon="1.252">
        <ele>108.2</ele>
        <time>2020-06-18T14:00:38Z</time>
      </trkpt>
      <trkpt lat="49.98429" lon="1.25208">
        <ele>108.2</ele>
        <time>2020-06-18T14:00:39Z</time>
      </trkpt>
      <trkpt lat="49.98432" lon="1.25217">
        <ele>108.1</ele>
        <time>2020-06-18T14:00:40Z</time>
      </trkpt>
      <trkpt lat="49.98436" lon="1.25225">
        <ele>108.1</ele>
        <time>2020-06-18T14:00:41Z</time>
      </trkpt>
      <trkpt lat="49.98441" lon="1.25234">
        <ele>108</ele>
        <time>2020-06-18T14:00:42Z</time>
      </trkpt>
      <trkpt lat="49.98445" lon="1.25242">
        <ele>107.9</ele>
        <time>2020-06-18T14:00:43Z</time>
      </trkpt>
      <trkpt lat="49.9845" lon="1.25251">
        <ele>107.9</ele>
        <time>2020-06-18T14:00:44Z</time>
      </trkpt>
      <trkpt lat="49.98455" lon="1.25259">
        <ele>107.8</ele>
        <time>2020-06-18T14:00:45Z</time>
      </trkpt>
      <trkpt lat="49.9846" lon="1.25267">
        <ele>107.7</ele>
        <time>2020-06-18T14:00:46Z</time>
      </trkpt>
      <trkpt lat="49.98465" lon="1.25275">
        <ele>107.6</ele>
        <time>2020-06-18T14:00:47Z</time>
      </trkpt>
      <trkpt lat="49.9847" lon="1.25283">
        <ele>107.5</ele>
        <time>2020-06-18T14:00:48Z</time>
      </trkpt>
      <trkpt lat="49.98475" lon="1.25291">
        <ele>107.5</ele>
        <time>2020-06-18T14:00:49Z</time>
      </trkpt>
      <trkpt lat="49.9848" lon="1.25299">
        <ele>107.4</ele>
        <time>2020-06-18T14:00:50Z</time>
      </trkpt>
      <trkpt lat="49.98486" lon="1.25308">
        <ele>107.4</ele>
        <time>2020-06-18T14:00:51Z</time>
      </trkpt>
      <trkpt lat="49.98491" lon="1.25315">
        <ele>107.3</ele>
        <time>2020-06-18T14:00:52Z</time>
      </trkpt>
      <trkpt lat="49.98495" lon="1.25324">
        <ele>107.3</ele>
        <time>2020-06-18T14:00:53Z</time>
      </trkpt>
      <trkpt lat="49.985" lon="1.25332">
        <ele>107.2</ele>
        <time>2020-06-18T14:00:54Z</time>
      </trkpt>
      <trkpt lat="49.98505" lon="1.2534">
        <ele>107.1</ele>
        <time>2020-06-18T14:00:55Z</time>
      </trkpt>
      <trkpt lat="49.9851" lon="1.25346">
        <ele>107.1</ele>
        <time>2020-06-18T14:00:56Z</time>
      </trkpt>
      <trkpt lat="49.98515" lon="1.25354">
        <ele>107.1</ele>
        <time>2020-06-18T14:00:57Z</time>
      </trkpt>
      <trkpt lat="49.98521" lon="1.25363">
        <ele>107</ele>
        <time>2020-06-18T14:00:58Z</time>
      </trkpt>
      <trkpt lat="49.98527" lon="1.2537">
        <ele>107</ele>
        <time>2020-06-18T14:00:59Z</time>
      </trkpt>
      <trkpt lat="49.98533" lon="1.25378">
        <ele>106.8</ele>
        <time>2020-06-18T14:01:00Z</time>
      </trkpt>
      <trkpt lat="49.98539" lon="1.25385">
        <ele>106.7</ele>
        <time>2020-06-18T14:01:01Z</time>
      </trkpt>
      <trkpt lat="49.98544" lon="1.25393">
        <ele>106.6</ele>
        <time>2020-06-18T14:01:02Z</time>
      </trkpt>
      <trkpt lat="49.98549" lon="1.25399">
        <ele>106.5</ele>
        <time>2020-06-18T14:01:03Z</time>
      </trkpt>
      <trkpt lat="49.98554" lon="1.25407">
        <ele>106.4</ele>
        <time>2020-06-18T14:01:04Z</time>
      </trkpt>
      <trkpt lat="49.98559" lon="1.25414">
        <ele>106.3</ele>
        <time>2020-06-18T14:01:05Z</time>
      </trkpt>
      <trkpt lat="49.98563" lon="1.25421">
        <ele>106.2</ele>
        <time>2020-06-18T14:01:06Z</time>
      </trkpt>
      <trkpt lat="49.98569" lon="1.25428">
        <ele>106.1</ele>
        <time>2020-06-18T14:01:07Z</time>
      </trkpt>
      <trkpt lat="49.98573" lon="1.25434">
        <ele>106.1</ele>
        <time>2020-06-18T14:01:08Z</time>
      </trkpt>
      <trkpt lat="49.98578" lon="1.25441">
        <ele>106</ele>
        <time>2020-06-18T14:01:09Z</time>
      </trkpt>
      <trkpt lat="49.98583" lon="1.25447">
        <ele>105.9</ele>
        <time>2020-06-18T14:01:10Z</time>
      </trkpt>
      <trkpt lat="49.98588" lon="1.25454">
        <ele>105.9</ele>
        <time>2020-06-18T14:01:11Z</time>
      </trkpt>
      <trkpt lat="49.98593" lon="1.2546">
        <ele>105.8</ele>
        <time>2020-06-18T14:01:12Z</time>
      </trkpt>
      <trkpt lat="49.98598" lon="1.25466">
        <ele>105.8</ele>
        <time>2020-06-18T14:01:13Z</time>
      </trkpt>
      <trkpt lat="49.98602" lon="1.25472">
        <ele>105.8</ele>
        <time>2020-06-18T14:01:14Z</time>
      </trkpt>
      <trkpt lat="49.98606" lon="1.25479">
        <ele>105.8</ele>
        <time>2020-06-18T14:01:15Z</time>
      </trkpt>
      <trkpt lat="49.9861" lon="1.25486">
        <ele>105.7</ele>
        <time>2020-06-18T14:01:16Z</time>
      </trkpt>
      <trkpt lat="49.98615" lon="1.25492">
        <ele>105.7</ele>
        <time>2020-06-18T14:01:17Z</time>
      </trkpt>
      <trkpt lat="49.98619" lon="1.25499">
        <ele>105.7</ele>
        <time>2020-06-18T14:01:18Z</time>
      </trkpt>
      <trkpt lat="49.98623" lon="1.25506">
        <ele>105.7</ele>
        <time>2020-06-18T14:01:19Z</time>
      </trkpt>
      <trkpt lat="49.98627" lon="1.25513">
        <ele>105.7</ele>
        <time>2020-06-18T14:01:20Z</time>
      </trkpt>
      <trkpt lat="49.98631" lon="1.25518">
        <ele>105.7</ele>
        <time>2020-06-18T14:01:21Z</time>
      </trkpt>
      <trkpt lat="49.98636" lon="1.25524">
        <ele>105.6</ele>
        <time>2020-06-18T14:01:22Z</time>
      </trkpt>
      <trkpt lat="49.98641" lon="1.2553">
        <ele>105.5</ele>
        <time>2020-06-18T14:01:23Z</time>
      </trkpt>
      <trkpt lat="49.98646" lon="1.25536">
        <ele>105.4</ele>
        <time>2020-06-18T14:01:24Z</time>
      </trkpt>
      <trkpt lat="49.98651" lon="1.25541">
        <ele>105.3</ele>
        <time>2020-06-18T14:01:25Z</time>
      </trkpt>
      <trkpt lat="49.98655" lon="1.25547">
        <ele>105.2</ele>
        <time>2020-06-18T14:01:26Z</time>
      </trkpt>
      <trkpt lat="49.9866" lon="1.25552">
        <ele>105.1</ele>
        <time>2020-06-18T14:01:27Z</time>
      </trkpt>
      <trkpt lat="49.98665" lon="1.25558">
        <ele>104.9</ele>
        <time>2020-06-18T14:01:28Z</time>
      </trkpt>
      <trkpt lat="49.9867" lon="1.25563">
        <ele>104.8</ele>
        <time>2020-06-18T14:01:29Z</time>
      </trkpt>
      <trkpt lat="49.98675" lon="1.2557">
        <ele>104.6</ele>
        <time>2020-06-18T14:01:30Z</time>
      </trkpt>
      <trkpt lat="49.98681" lon="1.25577">
        <ele>104.4</ele>
        <time>2020-06-18T14:01:31Z</time>
      </trkpt>
      <trkpt lat="49.98687" lon="1.25586">
        <ele>104.2</ele>
        <time>2020-06-18T14:01:32Z</time>
      </trkpt>
      <trkpt lat="49.98694" lon="1.25595">
        <ele>104.1</ele>
        <time>2020-06-18T14:01:33Z</time>
      </trkpt>
      <trkpt lat="49.98699" lon="1.25604">
        <ele>103.9</ele>
        <time>2020-06-18T14:01:34Z</time>
      </trkpt>
      <trkpt lat="49.98705" lon="1.25612">
        <ele>103.7</ele>
        <time>2020-06-18T14:01:35Z</time>
      </trkpt>
      <trkpt lat="49.9871" lon="1.25621">
        <ele>103.5</ele>
        <time>2020-06-18T14:01:36Z</time>
      </trkpt>
      <trkpt lat="49.98716" lon="1.2563">
        <ele>103.3</ele>
        <time>2020-06-18T14:01:37Z</time>
      </trkpt>
      <trkpt lat="49.98721" lon="1.25638">
        <ele>103.1</ele>
        <time>2020-06-18T14:01:38Z</time>
      </trkpt>
      <trkpt lat="49.98726" lon="1.25648">
        <ele>102.9</ele>
        <time>2020-06-18T14:01:39Z</time>
      </trkpt>
      <trkpt lat="49.98731" lon="1.25658">
        <ele>102.7</ele>
        <time>2020-06-18T14:01:40Z</time>
      </trkpt>
      <trkpt lat="49.98737" lon="1.25668">
        <ele>102.5</ele>
        <time>2020-06-18T14:01:41Z</time>
      </trkpt>
      <trkpt lat="49.98742" lon="1.25678">
        <ele>102.3</ele>
        <time>2020-06-18T14:01:42Z</time>
      </trkpt>
      <trkpt lat="49.98747" lon="1.25687">
        <ele>102</ele>
        <time>2020-06-18T14:01:43Z</time>
      </trkpt>
      <trkpt lat="49.98752" lon="1.25696">
        <ele>101.8</ele>
        <time>2020-06-18T14:01:44Z</time>
      </trkpt>
      <trkpt lat="49.98757" lon="1.25706">
        <ele>101.6</ele>
        <time>2020-06-18T14:01:45Z</time>
      </trkpt>
      <trkpt lat="49.98762" lon="1.25715">
        <ele>101.4</ele>
        <time>2020-06-18T14:01:46Z</time>
      </trkpt>
      <trkpt lat="49.98767" lon="1.25723">
        <ele>101.3</ele>
        <time>2020-06-18T14:01:47Z</time>
      </trkpt>
      <trkpt lat="49.98772" lon="1.25732">
        <ele>101.1</ele>
        <time>2020-06-18T14:01:48Z</time>
      </trkpt>
      <trkpt lat="49.98777" lon="1.2574">
        <ele>100.9</ele>
        <time>2020-06-18T14:01:49Z</time>
      </trkpt>
      <trkpt lat="49.98782" lon="1.25748">
        <ele>100.6</ele>
        <time>2020-06-18T14:01:50Z</time>
      </trkpt>
      <trkpt lat="49.98787" lon="1.25757">
        <ele>100.4</ele>
        <time>2020-06-18T14:01:51Z</time>
      </trkpt>
      <trkpt lat="49.98792" lon="1.25764">
        <ele>100.2</ele>
        <time>2020-06-18T14:01:52Z</time>
      </trkpt>
      <trkpt lat="49.98797" lon="1.25772">
        <ele>100</ele>
        <time>2020-06-18T14:01:53Z</time>
      </trkpt>
      <trkpt lat="49.98803" lon="1.2578">
        <ele>99.8</ele>
        <time>2020-06-18T14:01:54Z</time>
      </trkpt>
      <trkpt lat="49.98807" lon="1.25788">
        <ele>99.6</ele>
        <time>2020-06-18T14:01:55Z</time>
      </trkpt>
      <trkpt lat="49.98812" lon="1.25796">
        <ele>99.4</ele>
        <time>2020-06-18T14:01:56Z</time>
      </trkpt>
      <trkpt lat="49.98817" lon="1.25806">
        <ele>99.2</ele>
        <time>2020-06-18T14:01:57Z</time>
      </trkpt>
      <trkpt lat="49.98822" lon="1.25815">
        <ele>99.1</ele>
        <time>2020-06-18T14:01:58Z</time>
      </trkpt>
      <trkpt lat="49.98827" lon="1.25825">
        <ele>98.9</ele>
        <time>2020-06-18T14:01:59Z</time>
      </trkpt>
      <trkpt lat="49.98831" lon="1.25835">
        <ele>98.7</ele>
        <time>2020-06-18T14:02:00Z</time>
      </trkpt>
      <trkpt lat="49.98835" lon="1.25845">
        <ele>98.5</ele>
        <time>2020-06-18T14:02:01Z</time>
      </trkpt>
      <trkpt lat="49.98839" lon="1.25855">
        <ele>98.3</ele>
        <time>2020-06-18T14:02:02Z</time>
      </trkpt>
      <trkpt lat="49.98843" lon="1.25866">
        <ele>98.2</ele>
        <time>2020-06-18T14:02:03Z</time>
      </trkpt>
      <trkpt lat="49.98848" lon="1.25877">
        <ele>98</ele>
        <time>2020-06-18T14:02:04Z</time>
      </trkpt>
      <trkpt lat="49.98853" lon="1.25887">
        <ele>97.8</ele>
        <time>2020-06-18T14:02:05Z</time>
      </trkpt>
      <trkpt lat="49.98857" lon="1.25898">
        <ele>97.6</ele>
        <time>2020-06-18T14:02:06Z</time>
      </trkpt>
      <trkpt lat="49.98862" lon="1.25908">
        <ele>97.4</ele>
        <time>2020-06-18T14:02:07Z</time>
      </trkpt>
      <trkpt lat="49.98867" lon="1.25917">
        <ele>97.2</ele>
        <time>2020-06-18T14:02:08Z</time>
      </trkpt>
      <trkpt lat="49.98872" lon="1.25927">
        <ele>97.1</ele>
        <time>2020-06-18T14:02:09Z</time>
      </trkpt>
      <trkpt lat="49.98878" lon="1.25936">
        <ele>97</ele>
        <time>2020-06-18T14:02:10Z</time>
      </trkpt>
      <trkpt lat="49.98883" lon="1.25946">
        <ele>96.9</ele>
        <time>2020-06-18T14:02:11Z</time>
      </trkpt>
      <trkpt lat="49.98888" lon="1.25955">
        <ele>96.7</ele>
        <time>2020-06-18T14:02:12Z</time>
      </trkpt>
      <trkpt lat="49.98894" lon="1.25965">
        <ele>96.6</ele>
        <time>2020-06-18T14:02:13Z</time>
      </trkpt>
      <trkpt lat="49.989" lon="1.25975">
        <ele>96.4</ele>
        <time>2020-06-18T14:02:14Z</time>
      </trkpt>
      <trkpt lat="49.98905" lon="1.25984">
        <ele>96.3</ele>
        <time>2020-06-18T14:02:15Z</time>
      </trkpt>
      <trkpt lat="49.98911" lon="1.25992">
        <ele>96.2</ele>
        <time>2020-06-18T14:02:16Z</time>
      </trkpt>
      <trkpt lat="49.98916" lon="1.26002">
        <ele>96.1</ele>
        <time>2020-06-18T14:02:17Z</time>
      </trkpt>
      <trkpt lat="49.98922" lon="1.2601">
        <ele>96</ele>
        <time>2020-06-18T14:02:18Z</time>
      </trkpt>
      <trkpt lat="49.98928" lon="1.26019">
        <ele>96</ele>
        <time>2020-06-18T14:02:19Z</time>
      </trkpt>
      <trkpt lat="49.98933" lon="1.26028">
        <ele>95.9</ele>
        <time>2020-06-18T14:02:20Z</time>
      </trkpt>
      <trkpt lat="49.98938" lon="1.26037">
        <ele>95.9</ele>
        <time>2020-06-18T14:02:21Z</time>
      </trkpt>
      <trkpt lat="49.98944" lon="1.26046">
        <ele>95.9</ele>
        <time>2020-06-18T14:02:22Z</time>
      </trkpt>
      <trkpt lat="49.98949" lon="1.26054">
        <ele>95.9</ele>
        <time>2020-06-18T14:02:23Z</time>
      </trkpt>
      <trkpt lat="49.98954" lon="1.26062">
        <ele>95.8</ele>
        <time>2020-06-18T14:02:24Z</time>
      </trkpt>
      <trkpt lat="49.9896" lon="1.26071">
        <ele>95.7</ele>
        <time>2020-06-18T14:02:25Z</time>
      </trkpt>
      <trkpt lat="49.98966" lon="1.26079">
        <ele>95.7</ele>
        <time>2020-06-18T14:02:26Z</time>
      </trkpt>
      <trkpt lat="49.98971" lon="1.26088">
        <ele>95.7</ele>
        <time>2020-06-18T14:02:27Z</time>
      </trkpt>
      <trkpt lat="49.98977" lon="1.26096">
        <ele>95.6</ele>
        <time>2020-06-18T14:02:28Z</time>
      </trkpt>
      <trkpt lat="49.98982" lon="1.26105">
        <ele>95.5</ele>
        <time>2020-06-18T14:02:29Z</time>
      </trkpt>
      <trkpt lat="49.98987" lon="1.26114">
        <ele>95.5</ele>
        <time>2020-06-18T14:02:30Z</time>
      </trkpt>
      <trkpt lat="49.98992" lon="1.26123">
        <ele>95.4</ele>
        <time>2020-06-18T14:02:31Z</time>
      </trkpt>
      <trkpt lat="49.98997" lon="1.26132">
        <ele>95.3</ele>
        <time>2020-06-18T14:02:32Z</time>
      </trkpt>
      <trkpt lat="49.99003" lon="1.2614">
        <ele>95.2</ele>
        <time>2020-06-18T14:02:33Z</time>
      </trkpt>
      <trkpt lat="49.99008" lon="1.26149">
        <ele>95.1</ele>
        <time>2020-06-18T14:02:34Z</time>
      </trkpt>
      <trkpt lat="49.99012" lon="1.26158">
        <ele>95</ele>
        <time>2020-06-18T14:02:35Z</time>
      </trkpt>
      <trkpt lat="49.99017" lon="1.26168">
        <ele>94.9</ele>
        <time>2020-06-18T14:02:36Z</time>
      </trkpt>
      <trkpt lat="49.99022" lon="1.26178">
        <ele>94.8</ele>
        <time>2020-06-18T14:02:37Z</time>
      </trkpt>
      <trkpt lat="49.99027" lon="1.26188">
        <ele>94.6</ele>
        <time>2020-06-18T14:02:38Z</time>
      </trkpt>
      <trkpt lat="49.99032" lon="1.26198">
        <ele>94.5</ele>
        <time>2020-06-18T14:02:39Z</time>
      </trkpt>
      <trkpt lat="49.99036" lon="1.26209">
        <ele>94.5</ele>
        <time>2020-06-18T14:02:40Z</time>
      </trkpt>
      <trkpt lat="49.9904" lon="1.26218">
        <ele>94.5</ele>
        <time>2020-06-18T14:02:41Z</time>
      </trkpt>
      <trkpt lat="49.99045" lon="1.26227">
        <ele>94.4</ele>
        <time>2020-06-18T14:02:42Z</time>
      </trkpt>
      <trkpt lat="49.9905" lon="1.26236">
        <ele>94.4</ele>
        <time>2020-06-18T14:02:43Z</time>
      </trkpt>
      <trkpt lat="49.99055" lon="1.26244">
        <ele>94.3</ele>
        <time>2020-06-18T14:02:44Z</time>
      </trkpt>
      <trkpt lat="49.99059" lon="1.26254">
        <ele>94.3</ele>
        <time>2020-06-18T14:02:45Z</time>
      </trkpt>
      <trkpt lat="49.99062" lon="1.26263">
        <ele>94.2</ele>
        <time>2020-06-18T14:02:46Z</time>
      </trkpt>
      <trkpt lat="49.99066" lon="1.26272">
        <ele>94.1</ele>
        <time>2020-06-18T14:02:47Z</time>
      </trkpt>
      <trkpt lat="49.9907" lon="1.26281">
        <ele>94.1</ele>
        <time>2020-06-18T14:02:48Z</time>
      </trkpt>
      <trkpt lat="49.99074" lon="1.26291">
        <ele>94</ele>
        <time>2020-06-18T14:02:49Z</time>
      </trkpt>
      <trkpt lat="49.99079" lon="1.26299">
        <ele>94</ele>
        <time>2020-06-18T14:02:50Z</time>
      </trkpt>
      <trkpt lat="49.99084" lon="1.2631">
        <ele>93.9</ele>
        <time>2020-06-18T14:02:51Z</time>
      </trkpt>
      <trkpt lat="49.99088" lon="1.26319">
        <ele>93.9</ele>
        <time>2020-06-18T14:02:52Z</time>
      </trkpt>
      <trkpt lat="49.99093" lon="1.26328">
        <ele>93.8</ele>
        <time>2020-06-18T14:02:53Z</time>
      </trkpt>
      <trkpt lat="49.99097" lon="1.26337">
        <ele>93.8</ele>
        <time>2020-06-18T14:02:54Z</time>
      </trkpt>
      <trkpt lat="49.99102" lon="1.26346">
        <ele>93.7</ele>
        <time>2020-06-18T14:02:55Z</time>
      </trkpt>
      <trkpt lat="49.99106" lon="1.26356">
        <ele>93.7</ele>
        <time>2020-06-18T14:02:56Z</time>
      </trkpt>
      <trkpt lat="49.9911" lon="1.26366">
        <ele>93.6</ele>
        <time>2020-06-18T14:02:57Z</time>
      </trkpt>
      <trkpt lat="49.99114" lon="1.26376">
        <ele>93.6</ele>
        <time>2020-06-18T14:02:58Z</time>
      </trkpt>
      <trkpt lat="49.99119" lon="1.26386">
        <ele>93.5</ele>
        <time>2020-06-18T14:02:59Z</time>
      </trkpt>
      <trkpt lat="49.99123" lon="1.26396">
        <ele>93.4</ele>
        <time>2020-06-18T14:03:00Z</time>
      </trkpt>
      <trkpt lat="49.99128" lon="1.26406">
        <ele>93.4</ele>
        <time>2020-06-18T14:03:01Z</time>
      </trkpt>
      <trkpt lat="49.99132" lon="1.26415">
        <ele>93.3</ele>
        <time>2020-06-18T14:03:02Z</time>
      </trkpt>
      <trkpt lat="49.99137" lon="1.26425">
        <ele>93.3</ele>
        <time>2020-06-18T14:03:03Z</time>
      </trkpt>
      <trkpt lat="49.99141" lon="1.26435">
        <ele>93.2</ele>
        <time>2020-06-18T14:03:04Z</time>
      </trkpt>
      <trkpt lat="49.99146" lon="1.26444">
        <ele>93.1</ele>
        <time>2020-06-18T14:03:05Z</time>
      </trkpt>
      <trkpt lat="49.9915" lon="1.26454">
        <ele>93</ele>
        <time>2020-06-18T14:03:06Z</time>
      </trkpt>
      <trkpt lat="49.99154" lon="1.26464">
        <ele>93</ele>
        <time>2020-06-18T14:03:07Z</time>
      </trkpt>
      <trkpt lat="49.99159" lon="1.26475">
        <ele>92.9</ele>
        <time>2020-06-18T14:03:08Z</time>
      </trkpt>
      <trkpt lat="49.99163" lon="1.26486">
        <ele>92.9</ele>
        <time>2020-06-18T14:03:09Z</time>
      </trkpt>
      <trkpt lat="49.99167" lon="1.26496">
        <ele>92.8</ele>
        <time>2020-06-18T14:03:10Z</time>
      </trkpt>
      <trkpt lat="49.99171" lon="1.26506">
        <ele>92.8</ele>
        <time>2020-06-18T14:03:11Z</time>
      </trkpt>
      <trkpt lat="49.99175" lon="1.26515">
        <ele>92.9</ele>
        <time>2020-06-18T14:03:12Z</time>
      </trkpt>
      <trkpt lat="49.9918" lon="1.26524">
        <ele>93</ele>
        <time>2020-06-18T14:03:13Z</time>
      </trkpt>
      <trkpt lat="49.99184" lon="1.26532">
        <ele>93</ele>
        <time>2020-06-18T14:03:14Z</time>
      </trkpt>
      <trkpt lat="49.99189" lon="1.2654">
        <ele>93.1</ele>
        <time>2020-06-18T14:03:15Z</time>
      </trkpt>
      <trkpt lat="49.99193" lon="1.26549">
        <ele>93</ele>
        <time>2020-06-18T14:03:16Z</time>
      </trkpt>
      <trkpt lat="49.99197" lon="1.26558">
        <ele>92.9</ele>
        <time>2020-06-18T14:03:17Z</time>
      </trkpt>
      <trkpt lat="49.99202" lon="1.26567">
        <ele>92.8</ele>
        <time>2020-06-18T14:03:18Z</time>
      </trkpt>
      <trkpt lat="49.99206" lon="1.26578">
        <ele>92.8</ele>
        <time>2020-06-18T14:03:19Z</time>
      </trkpt>
      <trkpt lat="49.99211" lon="1.26588">
        <ele>92.7</ele>
        <time>2020-06-18T14:03:20Z</time>
      </trkpt>
      <trkpt lat="49.99215" lon="1.26597">
        <ele>92.7</ele>
        <time>2020-06-18T14:03:21Z</time>
      </trkpt>
      <trkpt lat="49.99219" lon="1.26607">
        <ele>92.7</ele>
        <time>2020-06-18T14:03:22Z</time>
      </trkpt>
      <trkpt lat="49.99224" lon="1.26615">
        <ele>92.7</ele>
        <time>2020-06-18T14:03:23Z</time>
      </trkpt>
      <trkpt lat="49.99229" lon="1.26623">
        <ele>92.6</ele>
        <time>2020-06-18T14:03:24Z</time>
      </trkpt>
      <trkpt lat="49.99234" lon="1.26632">
        <ele>92.6</ele>
        <time>2020-06-18T14:03:25Z</time>
      </trkpt>
      <trkpt lat="49.99238" lon="1.26639">
        <ele>92.5</ele>
        <time>2020-06-18T14:03:26Z</time>
      </trkpt>
      <trkpt lat="49.99242" lon="1.26647">
        <ele>92.5</ele>
        <time>2020-06-18T14:03:27Z</time>
      </trkpt>
      <trkpt lat="49.99245" lon="1.26658">
        <ele>92.4</ele>
        <time>2020-06-18T14:03:28Z</time>
      </trkpt>
      <trkpt lat="49.99249" lon="1.26667">
        <ele>92.3</ele>
        <time>2020-06-18T14:03:29Z</time>
      </trkpt>
      <trkpt lat="49.99254" lon="1.26676">
        <ele>92.3</ele>
        <time>2020-06-18T14:03:30Z</time>
      </trkpt>
      <trkpt lat="49.99258" lon="1.26686">
        <ele>92.2</ele>
        <time>2020-06-18T14:03:31Z</time>
      </trkpt>
      <trkpt lat="49.99264" lon="1.26696">
        <ele>92.2</ele>
        <time>2020-06-18T14:03:32Z</time>
      </trkpt>
      <trkpt lat="49.99268" lon="1.26706">
        <ele>92.2</ele>
        <time>2020-06-18T14:03:33Z</time>
      </trkpt>
      <trkpt lat="49.99272" lon="1.26715">
        <ele>92.1</ele>
        <time>2020-06-18T14:03:34Z</time>
      </trkpt>
      <trkpt lat="49.99276" lon="1.26724">
        <ele>92.1</ele>
        <time>2020-06-18T14:03:35Z</time>
      </trkpt>
      <trkpt lat="49.9928" lon="1.26734">
        <ele>92</ele>
        <time>2020-06-18T14:03:36Z</time>
      </trkpt>
      <trkpt lat="49.99284" lon="1.26744">
        <ele>92</ele>
        <time>2020-06-18T14:03:37Z</time>
      </trkpt>
      <trkpt lat="49.99288" lon="1.26753">
        <ele>92</ele>
        <time>2020-06-18T14:03:38Z</time>
      </trkpt>
      <trkpt lat="49.99292" lon="1.26762">
        <ele>91.9</ele>
        <time>2020-06-18T14:03:39Z</time>
      </trkpt>
      <trkpt lat="49.99297" lon="1.26771">
        <ele>91.9</ele>
        <time>2020-06-18T14:03:40Z</time>
      </trkpt>
      <trkpt lat="49.99302" lon="1.26781">
        <ele>91.9</ele>
        <time>2020-06-18T14:03:41Z</time>
      </trkpt>
      <trkpt lat="49.99307" lon="1.2679">
        <ele>91.9</ele>
        <time>2020-06-18T14:03:42Z</time>
      </trkpt>
      <trkpt lat="49.99311" lon="1.268">
        <ele>91.9</ele>
        <time>2020-06-18T14:03:43Z</time>
      </trkpt>
      <trkpt lat="49.99316" lon="1.26811">
        <ele>91.8</ele>
        <time>2020-06-18T14:03:44Z</time>
      </trkpt>
      <trkpt lat="49.99321" lon="1.26821">
        <ele>91.8</ele>
        <time>2020-06-18T14:03:45Z</time>
      </trkpt>
      <trkpt lat="49.99325" lon="1.26829">
        <ele>91.8</ele>
        <time>2020-06-18T14:03:46Z</time>
      </trkpt>
      <trkpt lat="49.99329" lon="1.26837">
        <ele>91.8</ele>
        <time>2020-06-18T14:03:47Z</time>
      </trkpt>
      <trkpt lat="49.99333" lon="1.26847">
        <ele>91.7</ele>
        <time>2020-06-18T14:03:48Z</time>
      </trkpt>
      <trkpt lat="49.99337" lon="1.26857">
        <ele>91.7</ele>
        <time>2020-06-18T14:03:49Z</time>
      </trkpt>
      <trkpt lat="49.99342" lon="1.26867">
        <ele>91.6</ele>
        <time>2020-06-18T14:03:50Z</time>
      </trkpt>
      <trkpt lat="49.99346" lon="1.26877">
        <ele>91.6</ele>
        <time>2020-06-18T14:03:51Z</time>
      </trkpt>
      <trkpt lat="49.99351" lon="1.26888">
        <ele>91.5</ele>
        <time>2020-06-18T14:03:52Z</time>
      </trkpt>
      <trkpt lat="49.99357" lon="1.26898">
        <ele>91.4</ele>
        <time>2020-06-18T14:03:53Z</time>
      </trkpt>
      <trkpt lat="49.99361" lon="1.26909">
        <ele>91.4</ele>
        <time>2020-06-18T14:03:54Z</time>
      </trkpt>
      <trkpt lat="49.99366" lon="1.26919">
        <ele>91.4</ele>
        <time>2020-06-18T14:03:55Z</time>
      </trkpt>
      <trkpt lat="49.99371" lon="1.26928">
        <ele>91.4</ele>
        <time>2020-06-18T14:03:56Z</time>
      </trkpt>
      <trkpt lat="49.99375" lon="1.26937">
        <ele>91.4</ele>
        <time>2020-06-18T14:03:57Z</time>
      </trkpt>
      <trkpt lat="49.9938" lon="1.26946">
        <ele>91.4</ele>
        <time>2020-06-18T14:03:58Z</time>
      </trkpt>
      <trkpt lat="49.99385" lon="1.26955">
        <ele>91.3</ele>
        <time>2020-06-18T14:03:59Z</time>
      </trkpt>
      <trkpt lat="49.99389" lon="1.26965">
        <ele>91.3</ele>
        <time>2020-06-18T14:04:00Z</time>
      </trkpt>
      <trkpt lat="49.99394" lon="1.26974">
        <ele>91.2</ele>
        <time>2020-06-18T14:04:01Z</time>
      </trkpt>
      <trkpt lat="49.99398" lon="1.26983">
        <ele>91.2</ele>
        <time>2020-06-18T14:04:02Z</time>
      </trkpt>
      <trkpt lat="49.99403" lon="1.26992">
        <ele>91.2</ele>
        <time>2020-06-18T14:04:03Z</time>
      </trkpt>
      <trkpt lat="49.99407" lon="1.27002">
        <ele>91.2</ele>
        <time>2020-06-18T14:04:04Z</time>
      </trkpt>
      <trkpt lat="49.99412" lon="1.2701">
        <ele>91.2</ele>
        <time>2020-06-18T14:04:05Z</time>
      </trkpt>
      <trkpt lat="49.99416" lon="1.27019">
        <ele>91.2</ele>
        <time>2020-06-18T14:04:06Z</time>
      </trkpt>
      <trkpt lat="49.99419" lon="1.27027">
        <ele>91.2</ele>
        <time>2020-06-18T14:04:07Z</time>
      </trkpt>
      <trkpt lat="49.99422" lon="1.27036">
        <ele>91.2</ele>
        <time>2020-06-18T14:04:08Z</time>
      </trkpt>
      <trkpt lat="49.99426" lon="1.27045">
        <ele>91.1</ele>
        <time>2020-06-18T14:04:09Z</time>
      </trkpt>
      <trkpt lat="49.99431" lon="1.27054">
        <ele>91.1</ele>
        <time>2020-06-18T14:04:10Z</time>
      </trkpt>
      <trkpt lat="49.99435" lon="1.27063">
        <ele>91</ele>
        <time>2020-06-18T14:04:11Z</time>
      </trkpt>
      <trkpt lat="49.99439" lon="1.27072">
        <ele>90.9</ele>
        <time>2020-06-18T14:04:12Z</time>
      </trkpt>
      <trkpt lat="49.99444" lon="1.27081">
        <ele>90.9</ele>
        <time>2020-06-18T14:04:13Z</time>
      </trkpt>
      <trkpt lat="49.9945" lon="1.27087">
        <ele>90.8</ele>
        <time>2020-06-18T14:04:14Z</time>
      </trkpt>
      <trkpt lat="49.99455" lon="1.27093">
        <ele>90.8</ele>
        <time>2020-06-18T14:04:15Z</time>
      </trkpt>
      <trkpt lat="49.99461" lon="1.271">
        <ele>90.7</ele>
        <time>2020-06-18T14:04:16Z</time>
      </trkpt>
      <trkpt lat="49.99468" lon="1.27107">
        <ele>90.7</ele>
        <time>2020-06-18T14:04:17Z</time>
      </trkpt>
      <trkpt lat="49.99474" lon="1.27114">
        <ele>90.6</ele>
        <time>2020-06-18T14:04:18Z</time>
      </trkpt>
      <trkpt lat="49.9948" lon="1.27123">
        <ele>90.6</ele>
        <time>2020-06-18T14:04:19Z</time>
      </trkpt>
      <trkpt lat="49.99485" lon="1.27131">
        <ele>90.5</ele>
        <time>2020-06-18T14:04:20Z</time>
      </trkpt>
      <trkpt lat="49.99491" lon="1.2714">
        <ele>90.5</ele>
        <time>2020-06-18T14:04:21Z</time>
      </trkpt>
      <trkpt lat="49.99497" lon="1.27147">
        <ele>90.4</ele>
        <time>2020-06-18T14:04:22Z</time>
      </trkpt>
      <trkpt lat="49.99503" lon="1.27154">
        <ele>90.4</ele>
        <time>2020-06-18T14:04:23Z</time>
      </trkpt>
      <trkpt lat="49.99508" lon="1.27161">
        <ele>90.3</ele>
        <time>2020-06-18T14:04:24Z</time>
      </trkpt>
      <trkpt lat="49.99514" lon="1.27168">
        <ele>90.3</ele>
        <time>2020-06-18T14:04:25Z</time>
      </trkpt>
      <trkpt lat="49.99521" lon="1.27175">
        <ele>90.3</ele>
        <time>2020-06-18T14:04:26Z</time>
      </trkpt>
      <trkpt lat="49.99527" lon="1.27181">
        <ele>90.2</ele>
        <time>2020-06-18T14:04:27Z</time>
      </trkpt>
      <trkpt lat="49.99533" lon="1.27189">
        <ele>90.1</ele>
        <time>2020-06-18T14:04:28Z</time>
      </trkpt>
      <trkpt lat="49.99539" lon="1.27197">
        <ele>90.1</ele>
        <time>2020-06-18T14:04:29Z</time>
      </trkpt>
      <trkpt lat="49.99544" lon="1.27204">
        <ele>90</ele>
        <time>2020-06-18T14:04:30Z</time>
      </trkpt>
      <trkpt lat="49.9955" lon="1.27211">
        <ele>89.9</ele>
        <time>2020-06-18T14:04:31Z</time>
      </trkpt>
      <trkpt lat="49.99555" lon="1.27218">
        <ele>89.9</ele>
        <time>2020-06-18T14:04:32Z</time>
      </trkpt>
      <trkpt lat="49.99562" lon="1.27224">
        <ele>89.8</ele>
        <time>2020-06-18T14:04:33Z</time>
      </trkpt>
      <trkpt lat="49.99567" lon="1.27231">
        <ele>89.8</ele>
        <time>2020-06-18T14:04:34Z</time>
      </trkpt>
      <trkpt lat="49.99573" lon="1.27239">
        <ele>89.7</ele>
        <time>2020-06-18T14:04:35Z</time>
      </trkpt>
      <trkpt lat="49.99579" lon="1.27246">
        <ele>89.6</ele>
        <time>2020-06-18T14:04:36Z</time>
      </trkpt>
      <trkpt lat="49.99585" lon="1.27254">
        <ele>89.5</ele>
        <time>2020-06-18T14:04:37Z</time>
      </trkpt>
      <trkpt lat="49.99592" lon="1.27261">
        <ele>89.3</ele>
        <time>2020-06-18T14:04:38Z</time>
      </trkpt>
      <trkpt lat="49.99598" lon="1.27268">
        <ele>89.2</ele>
        <time>2020-06-18T14:04:39Z</time>
      </trkpt>
      <trkpt lat="49.99604" lon="1.27276">
        <ele>89.1</ele>
        <time>2020-06-18T14:04:40Z</time>
      </trkpt>
      <trkpt lat="49.9961" lon="1.27283">
        <ele>89.1</ele>
        <time>2020-06-18T14:04:41Z</time>
      </trkpt>
      <trkpt lat="49.99616" lon="1.2729">
        <ele>89</ele>
        <time>2020-06-18T14:04:42Z</time>
      </trkpt>
      <trkpt lat="49.99622" lon="1.27298">
        <ele>89</ele>
        <time>2020-06-18T14:04:43Z</time>
      </trkpt>
      <trkpt lat="49.99628" lon="1.27305">
        <ele>88.9</ele>
        <time>2020-06-18T14:04:44Z</time>
      </trkpt>
      <trkpt lat="49.99634" lon="1.27311">
        <ele>88.9</ele>
        <time>2020-06-18T14:04:45Z</time>
      </trkpt>
      <trkpt lat="49.99639" lon="1.27318">
        <ele>88.8</ele>
        <time>2020-06-18T14:04:46Z</time>
      </trkpt>
      <trkpt lat="49.99645" lon="1.27325">
        <ele>88.8</ele>
        <time>2020-06-18T14:04:47Z</time>
      </trkpt>
      <trkpt lat="49.99652" lon="1.27332">
        <ele>88.7</ele>
        <time>2020-06-18T14:04:48Z</time>
      </trkpt>
      <trkpt lat="49.99657" lon="1.27341">
        <ele>88.7</ele>
        <time>2020-06-18T14:04:49Z</time>
      </trkpt>
      <trkpt lat="49.99663" lon="1.2735">
        <ele>88.6</ele>
        <time>2020-06-18T14:04:50Z</time>
      </trkpt>
      <trkpt lat="49.99668" lon="1.27358">
        <ele>88.5</ele>
        <time>2020-06-18T14:04:51Z</time>
      </trkpt>
      <trkpt lat="49.99674" lon="1.27365">
        <ele>88.4</ele>
        <time>2020-06-18T14:04:52Z</time>
      </trkpt>
      <trkpt lat="49.9968" lon="1.27373">
        <ele>88.3</ele>
        <time>2020-06-18T14:04:53Z</time>
      </trkpt>
      <trkpt lat="49.99686" lon="1.27381">
        <ele>88.2</ele>
        <time>2020-06-18T14:04:54Z</time>
      </trkpt>
      <trkpt lat="49.99692" lon="1.27389">
        <ele>88.1</ele>
        <time>2020-06-18T14:04:55Z</time>
      </trkpt>
      <trkpt lat="49.99698" lon="1.27396">
        <ele>88</ele>
        <time>2020-06-18T14:04:56Z</time>
      </trkpt>
      <trkpt lat="49.99704" lon="1.27404">
        <ele>87.9</ele>
        <time>2020-06-18T14:04:57Z</time>
      </trkpt>
      <trkpt lat="49.99711" lon="1.27413">
        <ele>87.9</ele>
        <time>2020-06-18T14:04:58Z</time>
      </trkpt>
      <trkpt lat="49.99716" lon="1.27421">
        <ele>87.9</ele>
        <time>2020-06-18T14:04:59Z</time>
      </trkpt>
      <trkpt lat="49.99722" lon="1.27428">
        <ele>87.8</ele>
        <time>2020-06-18T14:05:00Z</time>
      </trkpt>
      <trkpt lat="49.99728" lon="1.27435">
        <ele>87.8</ele>
        <time>2020-06-18T14:05:01Z</time>
      </trkpt>
      <trkpt lat="49.99734" lon="1.27442">
        <ele>87.5</ele>
        <time>2020-06-18T14:05:02Z</time>
      </trkpt>
      <trkpt lat="49.9974" lon="1.27451">
        <ele>87.3</ele>
        <time>2020-06-18T14:05:03Z</time>
      </trkpt>
      <trkpt lat="49.99746" lon="1.27459">
        <ele>87.1</ele>
        <time>2020-06-18T14:05:04Z</time>
      </trkpt>
      <trkpt lat="49.99752" lon="1.27467">
        <ele>87</ele>
        <time>2020-06-18T14:05:05Z</time>
      </trkpt>
      <trkpt lat="49.99757" lon="1.27475">
        <ele>86.9</ele>
        <time>2020-06-18T14:05:06Z</time>
      </trkpt>
      <trkpt lat="49.99764" lon="1.27484">
        <ele>86.7</ele>
        <time>2020-06-18T14:05:07Z</time>
      </trkpt>
      <trkpt lat="49.9977" lon="1.27492">
        <ele>86.5</ele>
        <time>2020-06-18T14:05:08Z</time>
      </trkpt>
      <trkpt lat="49.99777" lon="1.27501">
        <ele>86.4</ele>
        <time>2020-06-18T14:05:09Z</time>
      </trkpt>
      <trkpt lat="49.99784" lon="1.27509">
        <ele>86.3</ele>
        <time>2020-06-18T14:05:10Z</time>
      </trkpt>
      <trkpt lat="49.9979" lon="1.27517">
        <ele>86.2</ele>
        <time>2020-06-18T14:05:11Z</time>
      </trkpt>
      <trkpt lat="49.99797" lon="1.27525">
        <ele>86.1</ele>
        <time>2020-06-18T14:05:12Z</time>
      </trkpt>
      <trkpt lat="49.99803" lon="1.27534">
        <ele>86</ele>
        <time>2020-06-18T14:05:13Z</time>
      </trkpt>
      <trkpt lat="49.99809" lon="1.27542">
        <ele>85.8</ele>
        <time>2020-06-18T14:05:14Z</time>
      </trkpt>
      <trkpt lat="49.99816" lon="1.27549">
        <ele>85.7</ele>
        <time>2020-06-18T14:05:15Z</time>
      </trkpt>
      <trkpt lat="49.99822" lon="1.27557">
        <ele>85.6</ele>
        <time>2020-06-18T14:05:16Z</time>
      </trkpt>
      <trkpt lat="49.99829" lon="1.27566">
        <ele>85.4</ele>
        <time>2020-06-18T14:05:17Z</time>
      </trkpt>
      <trkpt lat="49.99835" lon="1.27573">
        <ele>85.3</ele>
        <time>2020-06-18T14:05:18Z</time>
      </trkpt>
      <trkpt lat="49.99841" lon="1.2758">
        <ele>85.1</ele>
        <time>2020-06-18T14:05:19Z</time>
      </trkpt>
      <trkpt lat="49.99847" lon="1.27588">
        <ele>85</ele>
        <time>2020-06-18T14:05:20Z</time>
      </trkpt>
      <trkpt lat="49.99853" lon="1.27595">
        <ele>85</ele>
        <time>2020-06-18T14:05:21Z</time>
      </trkpt>
      <trkpt lat="49.99859" lon="1.27603">
        <ele>84.9</ele>
        <time>2020-06-18T14:05:22Z</time>
      </trkpt>
      <trkpt lat="49.99865" lon="1.2761">
        <ele>84.9</ele>
        <time>2020-06-18T14:05:23Z</time>
      </trkpt>
      <trkpt lat="49.99872" lon="1.27617">
        <ele>84.8</ele>
        <time>2020-06-18T14:05:24Z</time>
      </trkpt>
      <trkpt lat="49.99877" lon="1.27624">
        <ele>84.7</ele>
        <time>2020-06-18T14:05:25Z</time>
      </trkpt>
      <trkpt lat="49.99883" lon="1.27631">
        <ele>84.7</ele>
        <time>2020-06-18T14:05:26Z</time>
      </trkpt>
      <trkpt lat="49.99889" lon="1.27638">
        <ele>84.6</ele>
        <time>2020-06-18T14:05:27Z</time>
      </trkpt>
      <trkpt lat="49.99895" lon="1.27644">
        <ele>84.6</ele>
        <time>2020-06-18T14:05:28Z</time>
      </trkpt>
      <trkpt lat="49.99901" lon="1.27652">
        <ele>84.5</ele>
        <time>2020-06-18T14:05:29Z</time>
      </trkpt>
      <trkpt lat="49.99906" lon="1.27658">
        <ele>84.5</ele>
        <time>2020-06-18T14:05:30Z</time>
      </trkpt>
      <trkpt lat="49.99912" lon="1.27665">
        <ele>84.4</ele>
        <time>2020-06-18T14:05:31Z</time>
      </trkpt>
      <trkpt lat="49.99918" lon="1.27671">
        <ele>84.3</ele>
        <time>2020-06-18T14:05:32Z</time>
      </trkpt>
      <trkpt lat="49.99924" lon="1.27679">
        <ele>84.3</ele>
        <time>2020-06-18T14:05:33Z</time>
      </trkpt>
      <trkpt lat="49.99931" lon="1.27686">
        <ele>84.2</ele>
        <time>2020-06-18T14:05:34Z</time>
      </trkpt>
      <trkpt lat="49.99937" lon="1.27694">
        <ele>84.1</ele>
        <time>2020-06-18T14:05:35Z</time>
      </trkpt>
      <trkpt lat="49.99942" lon="1.277">
        <ele>84.1</ele>
        <time>2020-06-18T14:05:36Z</time>
      </trkpt>
      <trkpt lat="49.99948" lon="1.27707">
        <ele>84</ele>
        <time>2020-06-18T14:05:37Z</time>
      </trkpt>
      <trkpt lat="49.99954" lon="1.27715">
        <ele>83.9</ele>
        <time>2020-06-18T14:05:38Z</time>
      </trkpt>
      <trkpt lat="49.9996" lon="1.27721">
        <ele>83.9</ele>
        <time>2020-06-18T14:05:39Z</time>
      </trkpt>
      <trkpt lat="49.99965" lon="1.27727">
        <ele>83.9</ele>
        <time>2020-06-18T14:05:40Z</time>
      </trkpt>
      <trkpt lat="49.9997" lon="1.27734">
        <ele>83.9</ele>
        <time>2020-06-18T14:05:41Z</time>
      </trkpt>
      <trkpt lat="49.99975" lon="1.27741">
        <ele>83.9</ele>
        <time>2020-06-18T14:05:42Z</time>
      </trkpt>
      <trkpt lat="49.9998" lon="1.27748">
        <ele>83.9</ele>
        <time>2020-06-18T14:05:43Z</time>
      </trkpt>
      <trkpt lat="49.99985" lon="1.27754">
        <ele>83.9</ele>
        <time>2020-06-18T14:05:44Z</time>
      </trkpt>
      <trkpt lat="49.9999" lon="1.27759">
        <ele>83.8</ele>
        <time>2020-06-18T14:05:45Z</time>
      </trkpt>
      <trkpt lat="49.99997" lon="1.27766">
        <ele>83.8</ele>
        <time>2020-06-18T14:05:46Z</time>
      </trkpt>
      <trkpt lat="50.00002" lon="1.27772">
        <ele>83.8</ele>
        <time>2020-06-18T14:05:47Z</time>
      </trkpt>
      <trkpt lat="50.00007" lon="1.27778">
        <ele>83.8</ele>
        <time>2020-06-18T14:05:48Z</time>
      </trkpt>
      <trkpt lat="50.00012" lon="1.27784">
        <ele>83.8</ele>
        <time>2020-06-18T14:05:49Z</time>
      </trkpt>
      <trkpt lat="50.00017" lon="1.2779">
        <ele>83.8</ele>
        <time>2020-06-18T14:05:50Z</time>
      </trkpt>
      <trkpt lat="50.00022" lon="1.27796">
        <ele>83.8</ele>
        <time>2020-06-18T14:05:51Z</time>
      </trkpt>
      <trkpt lat="50.00027" lon="1.27803">
        <ele>83.7</ele>
        <time>2020-06-18T14:05:52Z</time>
      </trkpt>
      <trkpt lat="50.00032" lon="1.2781">
        <ele>83.7</ele>
        <time>2020-06-18T14:05:53Z</time>
      </trkpt>
      <trkpt lat="50.00037" lon="1.27816">
        <ele>83.6</ele>
        <time>2020-06-18T14:05:54Z</time>
      </trkpt>
      <trkpt lat="50.00041" lon="1.27823">
        <ele>83.6</ele>
        <time>2020-06-18T14:05:55Z</time>
      </trkpt>
      <trkpt lat="50.00045" lon="1.27829">
        <ele>83.6</ele>
        <time>2020-06-18T14:05:56Z</time>
      </trkpt>
      <trkpt lat="50.00049" lon="1.27836">
        <ele>83.6</ele>
        <time>2020-06-18T14:05:57Z</time>
      </trkpt>
      <trkpt lat="50.00054" lon="1.27843">
        <ele>83.6</ele>
        <time>2020-06-18T14:05:58Z</time>
      </trkpt>
      <trkpt lat="50.0006" lon="1.27848">
        <ele>83.6</ele>
        <time>2020-06-18T14:05:59Z</time>
      </trkpt>
      <trkpt lat="50.00066" lon="1.27856">
        <ele>83.5</ele>
        <time>2020-06-18T14:06:00Z</time>
      </trkpt>
      <trkpt lat="50.0007" lon="1.27864">
        <ele>83.5</ele>
        <time>2020-06-18T14:06:01Z</time>
      </trkpt>
      <trkpt lat="50.00074" lon="1.27874">
        <ele>83.5</ele>
        <time>2020-06-18T14:06:02Z</time>
      </trkpt>
      <trkpt lat="50.00077" lon="1.27882">
        <ele>83.5</ele>
        <time>2020-06-18T14:06:03Z</time>
      </trkpt>
      <trkpt lat="50.00079" lon="1.27891">
        <ele>83.5</ele>
        <time>2020-06-18T14:06:04Z</time>
      </trkpt>
      <trkpt lat="50.0008" lon="1.27901">
        <ele>83.6</ele>
        <time>2020-06-18T14:06:05Z</time>
      </trkpt>
      <trkpt lat="50.00079" lon="1.27911">
        <ele>83.6</ele>
        <time>2020-06-18T14:06:06Z</time>
      </trkpt>
      <trkpt lat="50.00076" lon="1.27922">
        <ele>83.6</ele>
        <time>2020-06-18T14:06:07Z</time>
      </trkpt>
      <trkpt lat="50.00075" lon="1.27932">
        <ele>83.6</ele>
        <time>2020-06-18T14:06:08Z</time>
      </trkpt>
      <trkpt lat="50.00075" lon="1.27943">
        <ele>83.6</ele>
        <time>2020-06-18T14:06:09Z</time>
      </trkpt>
      <trkpt lat="50.00075" lon="1.27955">
        <ele>83.6</ele>
        <time>2020-06-18T14:06:10Z</time>
      </trkpt>
      <trkpt lat="50.00075" lon="1.27966">
        <ele>83.6</ele>
        <time>2020-06-18T14:06:11Z</time>
      </trkpt>
      <trkpt lat="50.00076" lon="1.27976">
        <ele>83.6</ele>
        <time>2020-06-18T14:06:12Z</time>
      </trkpt>
      <trkpt lat="50.00077" lon="1.27987">
        <ele>83.6</ele>
        <time>2020-06-18T14:06:13Z</time>
      </trkpt>
      <trkpt lat="50.00078" lon="1.27998">
        <ele>83.6</ele>
        <time>2020-06-18T14:06:14Z</time>
      </trkpt>
      <trkpt lat="50.00079" lon="1.28008">
        <ele>83.6</ele>
        <time>2020-06-18T14:06:15Z</time>
      </trkpt>
      <trkpt lat="50.0008" lon="1.28016">
        <ele>83.6</ele>
        <time>2020-06-18T14:06:16Z</time>
      </trkpt>
      <trkpt lat="50.00082" lon="1.28025">
        <ele>83.6</ele>
        <time>2020-06-18T14:06:17Z</time>
      </trkpt>
      <trkpt lat="50.00084" lon="1.28035">
        <ele>83.6</ele>
        <time>2020-06-18T14:06:18Z</time>
      </trkpt>
      <trkpt lat="50.00085" lon="1.28042">
        <ele>83.6</ele>
        <time>2020-06-18T14:06:19Z</time>
      </trkpt>
      <trkpt lat="50.00086" lon="1.28051">
        <ele>83.7</ele>
        <time>2020-06-18T14:06:20Z</time>
      </trkpt>
      <trkpt lat="50.00088" lon="1.28061">
        <ele>83.7</ele>
        <time>2020-06-18T14:06:21Z</time>
      </trkpt>
      <trkpt lat="50.00089" lon="1.28072">
        <ele>83.7</ele>
        <time>2020-06-18T14:06:22Z</time>
      </trkpt>
      <trkpt lat="50.0009" lon="1.28081">
        <ele>83.7</ele>
        <time>2020-06-18T14:06:23Z</time>
      </trkpt>
      <trkpt lat="50.00091" lon="1.28088">
        <ele>83.7</ele>
        <time>2020-06-18T14:06:24Z</time>
      </trkpt>
      <trkpt lat="50.00089" lon="1.28095">
        <ele>83.7</ele>
        <time>2020-06-18T14:06:25Z</time>
      </trkpt>
      <trkpt lat="50.00088" lon="1.28103">
        <ele>83.6</ele>
        <time>2020-06-18T14:06:26Z</time>
      </trkpt>
      <trkpt lat="50.00088" lon="1.28109">
        <ele>83.6</ele>
        <time>2020-06-18T14:06:27Z</time>
      </trkpt>
      <trkpt lat="50.00087" lon="1.28116">
        <ele>83.6</ele>
        <time>2020-06-18T14:06:28Z</time>
      </trkpt>
      <trkpt lat="50.00087" lon="1.28124">
        <ele>83.6</ele>
        <time>2020-06-18T14:06:29Z</time>
      </trkpt>
      <trkpt lat="50.00088" lon="1.28136">
        <ele>83.6</ele>
        <time>2020-06-18T14:06:30Z</time>
      </trkpt>
      <trkpt lat="50.0009" lon="1.28147">
        <ele>83.6</ele>
        <time>2020-06-18T14:06:31Z</time>
      </trkpt>
      <trkpt lat="50.00091" lon="1.28156">
        <ele>83.6</ele>
        <time>2020-06-18T14:06:32Z</time>
      </trkpt>
      <trkpt lat="50.00093" lon="1.28166">
        <ele>83.5</ele>
        <time>2020-06-18T14:06:33Z</time>
      </trkpt>
      <trkpt lat="50.00094" lon="1.28174">
        <ele>83.5</ele>
        <time>2020-06-18T14:06:34Z</time>
      </trkpt>
      <trkpt lat="50.00095" lon="1.28182">
        <ele>83.5</ele>
        <time>2020-06-18T14:06:35Z</time>
      </trkpt>
      <trkpt lat="50.00096" lon="1.28191">
        <ele>83.5</ele>
        <time>2020-06-18T14:06:36Z</time>
      </trkpt>
      <trkpt lat="50.00097" lon="1.282">
        <ele>83.5</ele>
        <time>2020-06-18T14:06:37Z</time>
      </trkpt>
      <trkpt lat="50.00097" lon="1.28207">
        <ele>83.5</ele>
        <time>2020-06-18T14:06:38Z</time>
      </trkpt>
      <trkpt lat="50.00096" lon="1.28215">
        <ele>83.5</ele>
        <time>2020-06-18T14:06:39Z</time>
      </trkpt>
      <trkpt lat="50.00094" lon="1.2822">
        <ele>83.5</ele>
        <time>2020-06-18T14:06:40Z</time>
      </trkpt>
      <trkpt lat="50.00091" lon="1.28225">
        <ele>83.5</ele>
        <time>2020-06-18T14:06:41Z</time>
      </trkpt>
      <trkpt lat="50.00088" lon="1.2823">
        <ele>83.4</ele>
        <time>2020-06-18T14:06:42Z</time>
      </trkpt>
      <trkpt lat="50.00085" lon="1.28237">
        <ele>83.4</ele>
        <time>2020-06-18T14:06:43Z</time>
      </trkpt>
      <trkpt lat="50.00084" lon="1.28244">
        <ele>83.4</ele>
        <time>2020-06-18T14:06:44Z</time>
      </trkpt>
      <trkpt lat="50.00084" lon="1.28252">
        <ele>83.4</ele>
        <time>2020-06-18T14:06:45Z</time>
      </trkpt>
      <trkpt lat="50.00088" lon="1.28261">
        <ele>83.4</ele>
        <time>2020-06-18T14:06:46Z</time>
      </trkpt>
      <trkpt lat="50.00091" lon="1.28267">
        <ele>83.4</ele>
        <time>2020-06-18T14:06:47Z</time>
      </trkpt>
      <trkpt lat="50.00095" lon="1.28272">
        <ele>83.3</ele>
        <time>2020-06-18T14:06:48Z</time>
      </trkpt>
      <trkpt lat="50.00099" lon="1.28278">
        <ele>83.2</ele>
        <time>2020-06-18T14:06:49Z</time>
      </trkpt>
      <trkpt lat="50.00103" lon="1.28283">
        <ele>83.2</ele>
        <time>2020-06-18T14:06:50Z</time>
      </trkpt>
      <trkpt lat="50.00107" lon="1.28287">
        <ele>83.1</ele>
        <time>2020-06-18T14:06:51Z</time>
      </trkpt>
      <trkpt lat="50.00112" lon="1.28292">
        <ele>83.1</ele>
        <time>2020-06-18T14:06:52Z</time>
      </trkpt>
      <trkpt lat="50.00116" lon="1.28295">
        <ele>83.1</ele>
        <time>2020-06-18T14:06:53Z</time>
      </trkpt>
      <trkpt lat="50.0012" lon="1.28297">
        <ele>83.1</ele>
        <time>2020-06-18T14:06:54Z</time>
      </trkpt>
      <trkpt lat="50.00123" lon="1.283">
        <ele>83.1</ele>
        <time>2020-06-18T14:06:55Z</time>
      </trkpt>
      <trkpt lat="50.00128" lon="1.28302">
        <ele>83.1</ele>
        <time>2020-06-18T14:06:56Z</time>
      </trkpt>
      <trkpt lat="50.00133" lon="1.28301">
        <ele>83.1</ele>
        <time>2020-06-18T14:06:57Z</time>
      </trkpt>
      <trkpt lat="50.00138" lon="1.283">
        <ele>83</ele>
        <time>2020-06-18T14:06:58Z</time>
      </trkpt>
      <trkpt lat="50.00142" lon="1.283">
        <ele>83</ele>
        <time>2020-06-18T14:06:59Z</time>
      </trkpt>
      <trkpt lat="50.00146" lon="1.28298">
        <ele>83</ele>
        <time>2020-06-18T14:07:00Z</time>
      </trkpt>
      <trkpt lat="50.00151" lon="1.28296">
        <ele>83</ele>
        <time>2020-06-18T14:07:01Z</time>
      </trkpt>
      <trkpt lat="50.00155" lon="1.28294">
        <ele>82.9</ele>
        <time>2020-06-18T14:07:02Z</time>
      </trkpt>
      <trkpt lat="50.0016" lon="1.28292">
        <ele>82.9</ele>
        <time>2020-06-18T14:07:03Z</time>
      </trkpt>
      <trkpt lat="50.00166" lon="1.2829">
        <ele>82.9</ele>
        <time>2020-06-18T14:07:04Z</time>
      </trkpt>
      <trkpt lat="50.00171" lon="1.28287">
        <ele>82.9</ele>
        <time>2020-06-18T14:07:05Z</time>
      </trkpt>
      <trkpt lat="50.00176" lon="1.28285">
        <ele>82.9</ele>
        <time>2020-06-18T14:07:06Z</time>
      </trkpt>
      <trkpt lat="50.00182" lon="1.28285">
        <ele>82.8</ele>
        <time>2020-06-18T14:07:07Z</time>
      </trkpt>
      <trkpt lat="50.00187" lon="1.28286">
        <ele>82.8</ele>
        <time>2020-06-18T14:07:08Z</time>
      </trkpt>
      <trkpt lat="50.00193" lon="1.28288">
        <ele>82.8</ele>
        <time>2020-06-18T14:07:09Z</time>
      </trkpt>
      <trkpt lat="50.00199" lon="1.2829">
        <ele>82.7</ele>
        <time>2020-06-18T14:07:10Z</time>
      </trkpt>
      <trkpt lat="50.00206" lon="1.28292">
        <ele>82.7</ele>
        <time>2020-06-18T14:07:11Z</time>
      </trkpt>
      <trkpt lat="50.00212" lon="1.28294">
        <ele>82.7</ele>
        <time>2020-06-18T14:07:12Z</time>
      </trkpt>
      <trkpt lat="50.00217" lon="1.28295">
        <ele>82.7</ele>
        <time>2020-06-18T14:07:13Z</time>
      </trkpt>
      <trkpt lat="50.00223" lon="1.28296">
        <ele>82.6</ele>
        <time>2020-06-18T14:07:14Z</time>
      </trkpt>
      <trkpt lat="50.00229" lon="1.28298">
        <ele>82.5</ele>
        <time>2020-06-18T14:07:15Z</time>
      </trkpt>
      <trkpt lat="50.00234" lon="1.28299">
        <ele>82.5</ele>
        <time>2020-06-18T14:07:16Z</time>
      </trkpt>
      <trkpt lat="50.0024" lon="1.283">
        <ele>82.4</ele>
        <time>2020-06-18T14:07:17Z</time>
      </trkpt>
      <trkpt lat="50.00245" lon="1.28301">
        <ele>82.3</ele>
        <time>2020-06-18T14:07:18Z</time>
      </trkpt>
      <trkpt lat="50.00251" lon="1.28302">
        <ele>82.2</ele>
        <time>2020-06-18T14:07:19Z</time>
      </trkpt>
      <trkpt lat="50.00257" lon="1.28305">
        <ele>82.1</ele>
        <time>2020-06-18T14:07:20Z</time>
      </trkpt>
      <trkpt lat="50.00263" lon="1.28306">
        <ele>82.1</ele>
        <time>2020-06-18T14:07:21Z</time>
      </trkpt>
      <trkpt lat="50.00269" lon="1.28308">
        <ele>82</ele>
        <time>2020-06-18T14:07:22Z</time>
      </trkpt>
      <trkpt lat="50.00276" lon="1.28311">
        <ele>82</ele>
        <time>2020-06-18T14:07:23Z</time>
      </trkpt>
      <trkpt lat="50.00282" lon="1.28313">
        <ele>81.9</ele>
        <time>2020-06-18T14:07:24Z</time>
      </trkpt>
      <trkpt lat="50.00288" lon="1.28315">
        <ele>81.9</ele>
        <time>2020-06-18T14:07:25Z</time>
      </trkpt>
      <trkpt lat="50.00294" lon="1.28316">
        <ele>81.8</ele>
        <time>2020-06-18T14:07:26Z</time>
      </trkpt>
      <trkpt lat="50.003" lon="1.28319">
        <ele>81.8</ele>
        <time>2020-06-18T14:07:27Z</time>
      </trkpt>
      <trkpt lat="50.00308" lon="1.28322">
        <ele>81.7</ele>
        <time>2020-06-18T14:07:28Z</time>
      </trkpt>
      <trkpt lat="50.00314" lon="1.28325">
        <ele>81.6</ele>
        <time>2020-06-18T14:07:29Z</time>
      </trkpt>
      <trkpt lat="50.0032" lon="1.28328">
        <ele>81.6</ele>
        <time>2020-06-18T14:07:30Z</time>
      </trkpt>
      <trkpt lat="50.00326" lon="1.2833">
        <ele>81.5</ele>
        <time>2020-06-18T14:07:31Z</time>
      </trkpt>
      <trkpt lat="50.00333" lon="1.28334">
        <ele>81.5</ele>
        <time>2020-06-18T14:07:32Z</time>
      </trkpt>
      <trkpt lat="50.00339" lon="1.28336">
        <ele>81.4</ele>
        <time>2020-06-18T14:07:33Z</time>
      </trkpt>
      <trkpt lat="50.00344" lon="1.28337">
        <ele>81.4</ele>
        <time>2020-06-18T14:07:34Z</time>
      </trkpt>
      <trkpt lat="50.00352" lon="1.28341">
        <ele>81.3</ele>
        <time>2020-06-18T14:07:35Z</time>
      </trkpt>
      <trkpt lat="50.00358" lon="1.28345">
        <ele>81.2</ele>
        <time>2020-06-18T14:07:36Z</time>
      </trkpt>
      <trkpt lat="50.00364" lon="1.28348">
        <ele>81.1</ele>
        <time>2020-06-18T14:07:37Z</time>
      </trkpt>
      <trkpt lat="50.00368" lon="1.2835">
        <ele>81.1</ele>
        <time>2020-06-18T14:07:38Z</time>
      </trkpt>
      <trkpt lat="50.00374" lon="1.28354">
        <ele>81</ele>
        <time>2020-06-18T14:07:39Z</time>
      </trkpt>
      <trkpt lat="50.00378" lon="1.28357">
        <ele>81</ele>
        <time>2020-06-18T14:07:40Z</time>
      </trkpt>
      <trkpt lat="50.00383" lon="1.28362">
        <ele>81</ele>
        <time>2020-06-18T14:07:41Z</time>
      </trkpt>
      <trkpt lat="50.00388" lon="1.28365">
        <ele>80.9</ele>
        <time>2020-06-18T14:07:42Z</time>
      </trkpt>
      <trkpt lat="50.00392" lon="1.2837">
        <ele>80.9</ele>
        <time>2020-06-18T14:07:43Z</time>
      </trkpt>
      <trkpt lat="50.00397" lon="1.28377">
        <ele>80.9</ele>
        <time>2020-06-18T14:07:44Z</time>
      </trkpt>
      <trkpt lat="50.004" lon="1.28382">
        <ele>80.9</ele>
        <time>2020-06-18T14:07:45Z</time>
      </trkpt>
      <trkpt lat="50.00404" lon="1.28387">
        <ele>80.9</ele>
        <time>2020-06-18T14:07:46Z</time>
      </trkpt>
      <trkpt lat="50.00407" lon="1.28392">
        <ele>80.9</ele>
        <time>2020-06-18T14:07:47Z</time>
      </trkpt>
      <trkpt lat="50.00411" lon="1.28397">
        <ele>80.9</ele>
        <time>2020-06-18T14:07:48Z</time>
      </trkpt>
      <trkpt lat="50.00415" lon="1.284">
        <ele>80.9</ele>
        <time>2020-06-18T14:07:49Z</time>
      </trkpt>
      <trkpt lat="50.00418" lon="1.28401">
        <ele>80.8</ele>
        <time>2020-06-18T14:07:50Z</time>
      </trkpt>
      <trkpt lat="50.00422" lon="1.28396">
        <ele>80.6</ele>
        <time>2020-06-18T14:07:51Z</time>
      </trkpt>
      <trkpt lat="50.00424" lon="1.2839">
        <ele>80.4</ele>
        <time>2020-06-18T14:07:52Z</time>
      </trkpt>
      <trkpt lat="50.00427" lon="1.28385">
        <ele>80.3</ele>
        <time>2020-06-18T14:07:53Z</time>
      </trkpt>
      <trkpt lat="50.0043" lon="1.28379">
        <ele>80.1</ele>
        <time>2020-06-18T14:07:54Z</time>
      </trkpt>
      <trkpt lat="50.00433" lon="1.28373">
        <ele>79.9</ele>
        <time>2020-06-18T14:07:55Z</time>
      </trkpt>
      <trkpt lat="50.00436" lon="1.28367">
        <ele>79.7</ele>
        <time>2020-06-18T14:07:56Z</time>
      </trkpt>
      <trkpt lat="50.0044" lon="1.28362">
        <ele>79.5</ele>
        <time>2020-06-18T14:07:57Z</time>
      </trkpt>
      <trkpt lat="50.00443" lon="1.28358">
        <ele>79.6</ele>
        <time>2020-06-18T14:07:58Z</time>
      </trkpt>
      <trkpt lat="50.00447" lon="1.28355">
        <ele>79.7</ele>
        <time>2020-06-18T14:07:59Z</time>
      </trkpt>
      <trkpt lat="50.00449" lon="1.28351">
        <ele>79.8</ele>
        <time>2020-06-18T14:08:00Z</time>
      </trkpt>
      <trkpt lat="50.00449" lon="1.28349">
        <ele>79.8</ele>
        <time>2020-06-18T14:08:01Z</time>
      </trkpt>
      <trkpt lat="50.00449" lon="1.28348">
        <ele>79.8</ele>
        <time>2020-06-18T14:08:02Z</time>
      </trkpt>
      <trkpt lat="50.0045" lon="1.28349">
        <ele>79.8</ele>
        <time>2020-06-18T14:08:03Z</time>
      </trkpt>
      <trkpt lat="50.0045" lon="1.2835">
        <ele>79.8</ele>
        <time>2020-06-18T14:08:04Z</time>
      </trkpt>
      <trkpt lat="50.0045" lon="1.2835">
        <ele>79.9</ele>
        <time>2020-06-18T14:08:05Z</time>
      </trkpt>
      <trkpt lat="50.0045" lon="1.28351">
        <ele>79.9</ele>
        <time>2020-06-18T14:08:06Z</time>
      </trkpt>
      <trkpt lat="50.0045" lon="1.28352">
        <ele>79.9</ele>
        <time>2020-06-18T14:08:07Z</time>
      </trkpt>
      <trkpt lat="50.0045" lon="1.28354">
        <ele>79.9</ele>
        <time>2020-06-18T14:08:08Z</time>
      </trkpt>
      <trkpt lat="50.00449" lon="1.28356">
        <ele>79.9</ele>
        <time>2020-06-18T14:08:09Z</time>
      </trkpt>
      <trkpt lat="50.00448" lon="1.2836">
        <ele>80</ele>
        <time>2020-06-18T14:08:10Z</time>
      </trkpt>
      <trkpt lat="50.00445" lon="1.28364">
        <ele>80.1</ele>
        <time>2020-06-18T14:08:11Z</time>
      </trkpt>
      <trkpt lat="50.00443" lon="1.28368">
        <ele>80.1</ele>
        <time>2020-06-18T14:08:12Z</time>
      </trkpt>
      <trkpt lat="50.0044" lon="1.28373">
        <ele>80.2</ele>
        <time>2020-06-18T14:08:13Z</time>
      </trkpt>
      <trkpt lat="50.00439" lon="1.28378">
        <ele>80.3</ele>
        <time>2020-06-18T14:08:14Z</time>
      </trkpt>
      <trkpt lat="50.00436" lon="1.28383">
        <ele>80.4</ele>
        <time>2020-06-18T14:08:15Z</time>
      </trkpt>
      <trkpt lat="50.00435" lon="1.28387">
        <ele>80.4</ele>
        <time>2020-06-18T14:08:16Z</time>
      </trkpt>
      <trkpt lat="50.00434" lon="1.28391">
        <ele>80.5</ele>
        <time>2020-06-18T14:08:17Z</time>
      </trkpt>
      <trkpt lat="50.00432" lon="1.28395">
        <ele>80.5</ele>
        <time>2020-06-18T14:08:18Z</time>
      </trkpt>
      <trkpt lat="50.00431" lon="1.284">
        <ele>80.6</ele>
        <time>2020-06-18T14:08:19Z</time>
      </trkpt>
      <trkpt lat="50.0043" lon="1.28406">
        <ele>80.7</ele>
        <time>2020-06-18T14:08:20Z</time>
      </trkpt>
      <trkpt lat="50.0043" lon="1.28413">
        <ele>80.9</ele>
        <time>2020-06-18T14:08:21Z</time>
      </trkpt>
      <trkpt lat="50.00432" lon="1.28418">
        <ele>80.9</ele>
        <time>2020-06-18T14:08:22Z</time>
      </trkpt>
      <trkpt lat="50.00435" lon="1.28424">
        <ele>80.9</ele>
        <time>2020-06-18T14:08:23Z</time>
      </trkpt>
      <trkpt lat="50.00439" lon="1.28429">
        <ele>80.9</ele>
        <time>2020-06-18T14:08:24Z</time>
      </trkpt>
      <trkpt lat="50.00442" lon="1.28434">
        <ele>80.9</ele>
        <time>2020-06-18T14:08:25Z</time>
      </trkpt>
      <trkpt lat="50.00446" lon="1.2844">
        <ele>80.9</ele>
        <time>2020-06-18T14:08:26Z</time>
      </trkpt>
      <trkpt lat="50.0045" lon="1.28446">
        <ele>80.9</ele>
        <time>2020-06-18T14:08:27Z</time>
      </trkpt>
      <trkpt lat="50.00454" lon="1.28452">
        <ele>80.9</ele>
        <time>2020-06-18T14:08:28Z</time>
      </trkpt>
      <trkpt lat="50.00458" lon="1.28458">
        <ele>80.9</ele>
        <time>2020-06-18T14:08:29Z</time>
      </trkpt>
      <trkpt lat="50.00462" lon="1.28464">
        <ele>80.9</ele>
        <time>2020-06-18T14:08:30Z</time>
      </trkpt>
      <trkpt lat="50.00467" lon="1.28471">
        <ele>80.9</ele>
        <time>2020-06-18T14:08:31Z</time>
      </trkpt>
      <trkpt lat="50.00472" lon="1.28477">
        <ele>80.9</ele>
        <time>2020-06-18T14:08:32Z</time>
      </trkpt>
      <trkpt lat="50.00477" lon="1.28483">
        <ele>80.9</ele>
        <time>2020-06-18T14:08:33Z</time>
      </trkpt>
      <trkpt lat="50.00482" lon="1.28488">
        <ele>80.9</ele>
        <time>2020-06-18T14:08:34Z</time>
      </trkpt>
      <trkpt lat="50.00486" lon="1.28494">
        <ele>80.9</ele>
        <time>2020-06-18T14:08:35Z</time>
      </trkpt>
      <trkpt lat="50.0049" lon="1.28498">
        <ele>80.9</ele>
        <time>2020-06-18T14:08:36Z</time>
      </trkpt>
      <trkpt lat="50.00495" lon="1.28503">
        <ele>80.9</ele>
        <time>2020-06-18T14:08:37Z</time>
      </trkpt>
      <trkpt lat="50.00498" lon="1.28509">
        <ele>80.9</ele>
        <time>2020-06-18T14:08:38Z</time>
      </trkpt>
      <trkpt lat="50.00502" lon="1.28514">
        <ele>80.9</ele>
        <time>2020-06-18T14:08:39Z</time>
      </trkpt>
      <trkpt lat="50.00505" lon="1.2852">
        <ele>80.9</ele>
        <time>2020-06-18T14:08:40Z</time>
      </trkpt>
      <trkpt lat="50.00509" lon="1.28527">
        <ele>80.8</ele>
        <time>2020-06-18T14:08:41Z</time>
      </trkpt>
      <trkpt lat="50.00513" lon="1.28533">
        <ele>80.8</ele>
        <time>2020-06-18T14:08:42Z</time>
      </trkpt>
      <trkpt lat="50.00518" lon="1.28541">
        <ele>80.8</ele>
        <time>2020-06-18T14:08:43Z</time>
      </trkpt>
      <trkpt lat="50.00522" lon="1.28547">
        <ele>80.8</ele>
        <time>2020-06-18T14:08:44Z</time>
      </trkpt>
      <trkpt lat="50.00526" lon="1.28553">
        <ele>80.8</ele>
        <time>2020-06-18T14:08:45Z</time>
      </trkpt>
      <trkpt lat="50.00529" lon="1.2856">
        <ele>80.8</ele>
        <time>2020-06-18T14:08:46Z</time>
      </trkpt>
      <trkpt lat="50.00533" lon="1.28567">
        <ele>80.8</ele>
        <time>2020-06-18T14:08:47Z</time>
      </trkpt>
      <trkpt lat="50.00536" lon="1.28574">
        <ele>80.8</ele>
        <time>2020-06-18T14:08:48Z</time>
      </trkpt>
      <trkpt lat="50.0054" lon="1.2858">
        <ele>80.8</ele>
        <time>2020-06-18T14:08:49Z</time>
      </trkpt>
      <trkpt lat="50.00544" lon="1.28586">
        <ele>80.8</ele>
        <time>2020-06-18T14:08:50Z</time>
      </trkpt>
      <trkpt lat="50.00547" lon="1.28591">
        <ele>80.8</ele>
        <time>2020-06-18T14:08:51Z</time>
      </trkpt>
      <trkpt lat="50.00551" lon="1.28597">
        <ele>80.8</ele>
        <time>2020-06-18T14:08:52Z</time>
      </trkpt>
      <trkpt lat="50.00553" lon="1.28602">
        <ele>80.8</ele>
        <time>2020-06-18T14:08:53Z</time>
      </trkpt>
      <trkpt lat="50.00556" lon="1.28608">
        <ele>80.8</ele>
        <time>2020-06-18T14:08:54Z</time>
      </trkpt>
      <trkpt lat="50.00558" lon="1.28613">
        <ele>80.8</ele>
        <time>2020-06-18T14:08:55Z</time>
      </trkpt>
      <trkpt lat="50.00561" lon="1.28619">
        <ele>80.8</ele>
        <time>2020-06-18T14:08:56Z</time>
      </trkpt>
      <trkpt lat="50.00564" lon="1.28625">
        <ele>80.8</ele>
        <time>2020-06-18T14:08:57Z</time>
      </trkpt>
      <trkpt lat="50.00567" lon="1.28632">
        <ele>80.8</ele>
        <time>2020-06-18T14:08:58Z</time>
      </trkpt>
      <trkpt lat="50.00569" lon="1.28638">
        <ele>80.8</ele>
        <time>2020-06-18T14:08:59Z</time>
      </trkpt>
      <trkpt lat="50.00572" lon="1.28644">
        <ele>80.8</ele>
        <time>2020-06-18T14:09:00Z</time>
      </trkpt>
      <trkpt lat="50.00574" lon="1.28648">
        <ele>80.8</ele>
        <time>2020-06-18T14:09:01Z</time>
      </trkpt>
      <trkpt lat="50.00577" lon="1.28652">
        <ele>80.8</ele>
        <time>2020-06-18T14:09:02Z</time>
      </trkpt>
      <trkpt lat="50.00579" lon="1.28655">
        <ele>80.8</ele>
        <time>2020-06-18T14:09:03Z</time>
      </trkpt>
      <trkpt lat="50.00581" lon="1.28657">
        <ele>80.8</ele>
        <time>2020-06-18T14:09:04Z</time>
      </trkpt>
      <trkpt lat="50.00581" lon="1.28659">
        <ele>80.8</ele>
        <time>2020-06-18T14:09:05Z</time>
      </trkpt>
      <trkpt lat="50.00581" lon="1.2866">
        <ele>80.8</ele>
        <time>2020-06-18T14:09:06Z</time>
      </trkpt>
      <trkpt lat="50.00581" lon="1.28661">
        <ele>80.8</ele>
        <time>2020-06-18T14:09:07Z</time>
      </trkpt>
      <trkpt lat="50.00581" lon="1.28661">
        <ele>80.8</ele>
        <time>2020-06-18T14:09:08Z</time>
      </trkpt>
      <trkpt lat="50.0058" lon="1.2866">
        <ele>80.8</ele>
        <time>2020-06-18T14:09:09Z</time>
      </trkpt>
      <trkpt lat="50.00581" lon="1.28658">
        <ele>80.8</ele>
        <time>2020-06-18T14:09:10Z</time>
      </trkpt>
      <trkpt lat="50.00581" lon="1.28657">
        <ele>80.8</ele>
        <time>2020-06-18T14:09:11Z</time>
      </trkpt>
      <trkpt lat="50.00581" lon="1.28655">
        <ele>80.8</ele>
        <time>2020-06-18T14:09:12Z</time>
      </trkpt>
      <trkpt lat="50.00581" lon="1.28653">
        <ele>80.8</ele>
        <time>2020-06-18T14:09:13Z</time>
      </trkpt>
      <trkpt lat="50.0058" lon="1.28649">
        <ele>80.8</ele>
        <time>2020-06-18T14:09:14Z</time>
      </trkpt>
      <trkpt lat="50.00579" lon="1.28647">
        <ele>80.8</ele>
        <time>2020-06-18T14:09:15Z</time>
      </trkpt>
      <trkpt lat="50.00577" lon="1.28643">
        <ele>80.8</ele>
        <time>2020-06-18T14:09:16Z</time>
      </trkpt>
      <trkpt lat="50.00576" lon="1.28638">
        <ele>80.8</ele>
        <time>2020-06-18T14:09:17Z</time>
      </trkpt>
      <trkpt lat="50.00575" lon="1.28637">
        <ele>80.8</ele>
        <time>2020-06-18T14:09:18Z</time>
      </trkpt>
      <trkpt lat="50.00573" lon="1.28633">
        <ele>80.8</ele>
        <time>2020-06-18T14:09:19Z</time>
      </trkpt>
      <trkpt lat="50.00571" lon="1.28631">
        <ele>80.8</ele>
        <time>2020-06-18T14:09:20Z</time>
      </trkpt>
      <trkpt lat="50.0057" lon="1.28629">
        <ele>80.8</ele>
        <time>2020-06-18T14:09:21Z</time>
      </trkpt>
      <trkpt lat="50.00569" lon="1.28628">
        <ele>80.8</ele>
        <time>2020-06-18T14:09:22Z</time>
      </trkpt>
      <trkpt lat="50.00568" lon="1.28627">
        <ele>80.8</ele>
        <time>2020-06-18T14:09:23Z</time>
      </trkpt>
      <trkpt lat="50.00567" lon="1.28626">
        <ele>80.8</ele>
        <time>2020-06-18T14:09:24Z</time>
      </trkpt>
      <trkpt lat="50.00566" lon="1.28625">
        <ele>80.8</ele>
        <time>2020-06-18T14:09:25Z</time>
      </trkpt>
      <trkpt lat="50.00564" lon="1.28624">
        <ele>80.8</ele>
        <time>2020-06-18T14:09:26Z</time>
      </trkpt>
      <trkpt lat="50.00563" lon="1.28622">
        <ele>80.8</ele>
        <time>2020-06-18T14:09:27Z</time>
      </trkpt>
      <trkpt lat="50.00562" lon="1.28621">
        <ele>80.8</ele>
        <time>2020-06-18T14:09:28Z</time>
      </trkpt>
      <trkpt lat="50.0056" lon="1.28616">
        <ele>80.8</ele>
        <time>2020-06-18T14:09:29Z</time>
      </trkpt>
      <trkpt lat="50.00558" lon="1.28612">
        <ele>80.8</ele>
        <time>2020-06-18T14:09:30Z</time>
      </trkpt>
      <trkpt lat="50.00556" lon="1.28607">
        <ele>80.8</ele>
        <time>2020-06-18T14:09:31Z</time>
      </trkpt>
      <trkpt lat="50.00555" lon="1.28605">
        <ele>80.8</ele>
        <time>2020-06-18T14:09:32Z</time>
      </trkpt>
      <trkpt lat="50.00553" lon="1.28601">
        <ele>80.8</ele>
        <time>2020-06-18T14:09:33Z</time>
      </trkpt>
      <trkpt lat="50.00551" lon="1.28597">
        <ele>80.8</ele>
        <time>2020-06-18T14:09:34Z</time>
      </trkpt>
      <trkpt lat="50.00549" lon="1.28593">
        <ele>80.8</ele>
        <time>2020-06-18T14:09:35Z</time>
      </trkpt>
      <trkpt lat="50.00546" lon="1.28588">
        <ele>80.8</ele>
        <time>2020-06-18T14:09:36Z</time>
      </trkpt>
      <trkpt lat="50.00544" lon="1.28583">
        <ele>80.8</ele>
        <time>2020-06-18T14:09:37Z</time>
      </trkpt>
      <trkpt lat="50.00541" lon="1.28579">
        <ele>80.8</ele>
        <time>2020-06-18T14:09:38Z</time>
      </trkpt>
      <trkpt lat="50.00538" lon="1.28575">
        <ele>80.8</ele>
        <time>2020-06-18T14:09:39Z</time>
      </trkpt>
      <trkpt lat="50.00535" lon="1.2857">
        <ele>80.8</ele>
        <time>2020-06-18T14:09:40Z</time>
      </trkpt>
      <trkpt lat="50.00531" lon="1.28565">
        <ele>80.8</ele>
        <time>2020-06-18T14:09:41Z</time>
      </trkpt>
      <trkpt lat="50.00528" lon="1.2856">
        <ele>80.8</ele>
        <time>2020-06-18T14:09:42Z</time>
      </trkpt>
      <trkpt lat="50.00524" lon="1.28555">
        <ele>80.8</ele>
        <time>2020-06-18T14:09:43Z</time>
      </trkpt>
      <trkpt lat="50.00521" lon="1.28549">
        <ele>80.8</ele>
        <time>2020-06-18T14:09:44Z</time>
      </trkpt>
      <trkpt lat="50.00517" lon="1.28543">
        <ele>80.8</ele>
        <time>2020-06-18T14:09:45Z</time>
      </trkpt>
      <trkpt lat="50.00514" lon="1.28538">
        <ele>80.9</ele>
        <time>2020-06-18T14:09:46Z</time>
      </trkpt>
      <trkpt lat="50.0051" lon="1.28533">
        <ele>80.9</ele>
        <time>2020-06-18T14:09:47Z</time>
      </trkpt>
      <trkpt lat="50.00505" lon="1.28528">
        <ele>80.9</ele>
        <time>2020-06-18T14:09:48Z</time>
      </trkpt>
      <trkpt lat="50.00502" lon="1.28521">
        <ele>80.9</ele>
        <time>2020-06-18T14:09:49Z</time>
      </trkpt>
      <trkpt lat="50.00498" lon="1.28514">
        <ele>80.9</ele>
        <time>2020-06-18T14:09:50Z</time>
      </trkpt>
      <trkpt lat="50.00493" lon="1.28509">
        <ele>80.9</ele>
        <time>2020-06-18T14:09:51Z</time>
      </trkpt>
      <trkpt lat="50.00489" lon="1.28503">
        <ele>80.9</ele>
        <time>2020-06-18T14:09:52Z</time>
      </trkpt>
      <trkpt lat="50.00485" lon="1.28497">
        <ele>80.9</ele>
        <time>2020-06-18T14:09:53Z</time>
      </trkpt>
      <trkpt lat="50.00482" lon="1.28492">
        <ele>80.9</ele>
        <time>2020-06-18T14:09:54Z</time>
      </trkpt>
      <trkpt lat="50.00478" lon="1.28488">
        <ele>80.9</ele>
        <time>2020-06-18T14:09:55Z</time>
      </trkpt>
      <trkpt lat="50.00474" lon="1.28484">
        <ele>80.9</ele>
        <time>2020-06-18T14:09:56Z</time>
      </trkpt>
      <trkpt lat="50.0047" lon="1.28479">
        <ele>80.9</ele>
        <time>2020-06-18T14:09:57Z</time>
      </trkpt>
      <trkpt lat="50.00465" lon="1.28474">
        <ele>80.9</ele>
        <time>2020-06-18T14:09:58Z</time>
      </trkpt>
      <trkpt lat="50.00461" lon="1.28469">
        <ele>80.9</ele>
        <time>2020-06-18T14:09:59Z</time>
      </trkpt>
      <trkpt lat="50.00457" lon="1.28463">
        <ele>80.9</ele>
        <time>2020-06-18T14:10:00Z</time>
      </trkpt>
      <trkpt lat="50.00453" lon="1.28457">
        <ele>80.9</ele>
        <time>2020-06-18T14:10:01Z</time>
      </trkpt>
      <trkpt lat="50.00449" lon="1.28451">
        <ele>80.9</ele>
        <time>2020-06-18T14:10:02Z</time>
      </trkpt>
      <trkpt lat="50.00445" lon="1.28445">
        <ele>80.9</ele>
        <time>2020-06-18T14:10:03Z</time>
      </trkpt>
      <trkpt lat="50.00441" lon="1.28438">
        <ele>80.9</ele>
        <time>2020-06-18T14:10:04Z</time>
      </trkpt>
      <trkpt lat="50.00437" lon="1.28431">
        <ele>80.9</ele>
        <time>2020-06-18T14:10:05Z</time>
      </trkpt>
      <trkpt lat="50.00433" lon="1.28425">
        <ele>80.9</ele>
        <time>2020-06-18T14:10:06Z</time>
      </trkpt>
      <trkpt lat="50.00429" lon="1.28418">
        <ele>80.9</ele>
        <time>2020-06-18T14:10:07Z</time>
      </trkpt>
      <trkpt lat="50.00425" lon="1.28411">
        <ele>80.9</ele>
        <time>2020-06-18T14:10:08Z</time>
      </trkpt>
      <trkpt lat="50.00421" lon="1.28404">
        <ele>80.9</ele>
        <time>2020-06-18T14:10:09Z</time>
      </trkpt>
      <trkpt lat="50.00417" lon="1.28397">
        <ele>80.9</ele>
        <time>2020-06-18T14:10:10Z</time>
      </trkpt>
      <trkpt lat="50.00412" lon="1.28392">
        <ele>80.9</ele>
        <time>2020-06-18T14:10:11Z</time>
      </trkpt>
      <trkpt lat="50.00407" lon="1.28386">
        <ele>80.9</ele>
        <time>2020-06-18T14:10:12Z</time>
      </trkpt>
      <trkpt lat="50.00403" lon="1.28379">
        <ele>80.9</ele>
        <time>2020-06-18T14:10:13Z</time>
      </trkpt>
      <trkpt lat="50.00398" lon="1.28374">
        <ele>80.9</ele>
        <time>2020-06-18T14:10:14Z</time>
      </trkpt>
      <trkpt lat="50.00394" lon="1.2837">
        <ele>80.9</ele>
        <time>2020-06-18T14:10:15Z</time>
      </trkpt>
      <trkpt lat="50.0039" lon="1.28366">
        <ele>80.9</ele>
        <time>2020-06-18T14:10:16Z</time>
      </trkpt>
      <trkpt lat="50.00385" lon="1.28361">
        <ele>81</ele>
        <time>2020-06-18T14:10:17Z</time>
      </trkpt>
      <trkpt lat="50.0038" lon="1.28357">
        <ele>81</ele>
        <time>2020-06-18T14:10:18Z</time>
      </trkpt>
      <trkpt lat="50.00375" lon="1.28354">
        <ele>81</ele>
        <time>2020-06-18T14:10:19Z</time>
      </trkpt>
      <trkpt lat="50.0037" lon="1.28351">
        <ele>81.1</ele>
        <time>2020-06-18T14:10:20Z</time>
      </trkpt>
      <trkpt lat="50.00365" lon="1.28348">
        <ele>81.1</ele>
        <time>2020-06-18T14:10:21Z</time>
      </trkpt>
      <trkpt lat="50.00359" lon="1.28344">
        <ele>81.2</ele>
        <time>2020-06-18T14:10:22Z</time>
      </trkpt>
      <trkpt lat="50.00354" lon="1.28342">
        <ele>81.3</ele>
        <time>2020-06-18T14:10:23Z</time>
      </trkpt>
      <trkpt lat="50.00348" lon="1.2834">
        <ele>81.3</ele>
        <time>2020-06-18T14:10:24Z</time>
      </trkpt>
      <trkpt lat="50.00342" lon="1.28338">
        <ele>81.4</ele>
        <time>2020-06-18T14:10:25Z</time>
      </trkpt>
      <trkpt lat="50.00337" lon="1.28336">
        <ele>81.5</ele>
        <time>2020-06-18T14:10:26Z</time>
      </trkpt>
      <trkpt lat="50.00332" lon="1.28334">
        <ele>81.5</ele>
        <time>2020-06-18T14:10:27Z</time>
      </trkpt>
      <trkpt lat="50.00326" lon="1.28333">
        <ele>81.5</ele>
        <time>2020-06-18T14:10:28Z</time>
      </trkpt>
      <trkpt lat="50.00321" lon="1.28332">
        <ele>81.6</ele>
        <time>2020-06-18T14:10:29Z</time>
      </trkpt>
      <trkpt lat="50.00315" lon="1.28331">
        <ele>81.6</ele>
        <time>2020-06-18T14:10:30Z</time>
      </trkpt>
      <trkpt lat="50.0031" lon="1.2833">
        <ele>81.7</ele>
        <time>2020-06-18T14:10:31Z</time>
      </trkpt>
      <trkpt lat="50.00304" lon="1.28329">
        <ele>81.7</ele>
        <time>2020-06-18T14:10:32Z</time>
      </trkpt>
      <trkpt lat="50.003" lon="1.28326">
        <ele>81.8</ele>
        <time>2020-06-18T14:10:33Z</time>
      </trkpt>
      <trkpt lat="50.00296" lon="1.28324">
        <ele>81.8</ele>
        <time>2020-06-18T14:10:34Z</time>
      </trkpt>
      <trkpt lat="50.00291" lon="1.28321">
        <ele>81.9</ele>
        <time>2020-06-18T14:10:35Z</time>
      </trkpt>
      <trkpt lat="50.00287" lon="1.28319">
        <ele>81.9</ele>
        <time>2020-06-18T14:10:36Z</time>
      </trkpt>
      <trkpt lat="50.00284" lon="1.28318">
        <ele>81.9</ele>
        <time>2020-06-18T14:10:37Z</time>
      </trkpt>
      <trkpt lat="50.0028" lon="1.28317">
        <ele>82</ele>
        <time>2020-06-18T14:10:38Z</time>
      </trkpt>
      <trkpt lat="50.00276" lon="1.28314">
        <ele>82</ele>
        <time>2020-06-18T14:10:39Z</time>
      </trkpt>
      <trkpt lat="50.00271" lon="1.28313">
        <ele>82</ele>
        <time>2020-06-18T14:10:40Z</time>
      </trkpt>
      <trkpt lat="50.00266" lon="1.28312">
        <ele>82.1</ele>
        <time>2020-06-18T14:10:41Z</time>
      </trkpt>
      <trkpt lat="50.00261" lon="1.2831">
        <ele>82.1</ele>
        <time>2020-06-18T14:10:42Z</time>
      </trkpt>
      <trkpt lat="50.00256" lon="1.28308">
        <ele>82.2</ele>
        <time>2020-06-18T14:10:43Z</time>
      </trkpt>
      <trkpt lat="50.00252" lon="1.28307">
        <ele>82.2</ele>
        <time>2020-06-18T14:10:44Z</time>
      </trkpt>
      <trkpt lat="50.00246" lon="1.28306">
        <ele>82.3</ele>
        <time>2020-06-18T14:10:45Z</time>
      </trkpt>
      <trkpt lat="50.00241" lon="1.28305">
        <ele>82.4</ele>
        <time>2020-06-18T14:10:46Z</time>
      </trkpt>
      <trkpt lat="50.00236" lon="1.28305">
        <ele>82.4</ele>
        <time>2020-06-18T14:10:47Z</time>
      </trkpt>
      <trkpt lat="50.00232" lon="1.28303">
        <ele>82.5</ele>
        <time>2020-06-18T14:10:48Z</time>
      </trkpt>
      <trkpt lat="50.00226" lon="1.28303">
        <ele>82.6</ele>
        <time>2020-06-18T14:10:49Z</time>
      </trkpt>
      <trkpt lat="50.00222" lon="1.28303">
        <ele>82.6</ele>
        <time>2020-06-18T14:10:50Z</time>
      </trkpt>
      <trkpt lat="50.00218" lon="1.28302">
        <ele>82.7</ele>
        <time>2020-06-18T14:10:51Z</time>
      </trkpt>
      <trkpt lat="50.00215" lon="1.28302">
        <ele>82.7</ele>
        <time>2020-06-18T14:10:52Z</time>
      </trkpt>
      <trkpt lat="50.00212" lon="1.28307">
        <ele>82.7</ele>
        <time>2020-06-18T14:10:53Z</time>
      </trkpt>
      <trkpt lat="50.00211" lon="1.28309">
        <ele>82.7</ele>
        <time>2020-06-18T14:10:54Z</time>
      </trkpt>
      <trkpt lat="50.0021" lon="1.28315">
        <ele>82.7</ele>
        <time>2020-06-18T14:10:55Z</time>
      </trkpt>
      <trkpt lat="50.00209" lon="1.2832">
        <ele>82.7</ele>
        <time>2020-06-18T14:10:56Z</time>
      </trkpt>
      <trkpt lat="50.00208" lon="1.28325">
        <ele>82.8</ele>
        <time>2020-06-18T14:10:57Z</time>
      </trkpt>
      <trkpt lat="50.00206" lon="1.2833">
        <ele>82.8</ele>
        <time>2020-06-18T14:10:58Z</time>
      </trkpt>
      <trkpt lat="50.00204" lon="1.28336">
        <ele>82.8</ele>
        <time>2020-06-18T14:10:59Z</time>
      </trkpt>
      <trkpt lat="50.002" lon="1.2834">
        <ele>82.8</ele>
        <time>2020-06-18T14:11:00Z</time>
      </trkpt>
      <trkpt lat="50.00197" lon="1.28345">
        <ele>82.9</ele>
        <time>2020-06-18T14:11:01Z</time>
      </trkpt>
      <trkpt lat="50.00196" lon="1.28351">
        <ele>82.9</ele>
        <time>2020-06-18T14:11:02Z</time>
      </trkpt>
      <trkpt lat="50.00194" lon="1.28356">
        <ele>83</ele>
        <time>2020-06-18T14:11:03Z</time>
      </trkpt>
      <trkpt lat="50.00192" lon="1.28361">
        <ele>83</ele>
        <time>2020-06-18T14:11:04Z</time>
      </trkpt>
      <trkpt lat="50.0019" lon="1.28365">
        <ele>83.1</ele>
        <time>2020-06-18T14:11:05Z</time>
      </trkpt>
      <trkpt lat="50.00189" lon="1.28369">
        <ele>83.1</ele>
        <time>2020-06-18T14:11:06Z</time>
      </trkpt>
      <trkpt lat="50.00189" lon="1.28375">
        <ele>83.2</ele>
        <time>2020-06-18T14:11:07Z</time>
      </trkpt>
      <trkpt lat="50.00188" lon="1.28379">
        <ele>83.3</ele>
        <time>2020-06-18T14:11:08Z</time>
      </trkpt>
      <trkpt lat="50.00184" lon="1.28384">
        <ele>83.4</ele>
        <time>2020-06-18T14:11:09Z</time>
      </trkpt>
      <trkpt lat="50.00182" lon="1.28388">
        <ele>83.5</ele>
        <time>2020-06-18T14:11:10Z</time>
      </trkpt>
      <trkpt lat="50.00179" lon="1.28392">
        <ele>83.6</ele>
        <time>2020-06-18T14:11:11Z</time>
      </trkpt>
      <trkpt lat="50.00177" lon="1.28392">
        <ele>83.6</ele>
        <time>2020-06-18T14:11:12Z</time>
      </trkpt>
      <trkpt lat="50.00175" lon="1.28394">
        <ele>83.8</ele>
        <time>2020-06-18T14:11:13Z</time>
      </trkpt>
      <trkpt lat="50.00173" lon="1.28398">
        <ele>83.8</ele>
        <time>2020-06-18T14:11:14Z</time>
      </trkpt>
      <trkpt lat="50.00172" lon="1.28399">
        <ele>83.8</ele>
        <time>2020-06-18T14:11:15Z</time>
      </trkpt>
      <trkpt lat="50.00171" lon="1.28401">
        <ele>83.8</ele>
        <time>2020-06-18T14:11:16Z</time>
      </trkpt>
      <trkpt lat="50.00171" lon="1.28403">
        <ele>83.7</ele>
        <time>2020-06-18T14:11:17Z</time>
      </trkpt>
      <trkpt lat="50.00172" lon="1.28403">
        <ele>83.7</ele>
        <time>2020-06-18T14:11:18Z</time>
      </trkpt>
      <trkpt lat="50.00173" lon="1.28402">
        <ele>83.7</ele>
        <time>2020-06-18T14:11:19Z</time>
      </trkpt>
      <trkpt lat="50.00173" lon="1.28401">
        <ele>83.7</ele>
        <time>2020-06-18T14:11:20Z</time>
      </trkpt>
      <trkpt lat="50.00174" lon="1.28399">
        <ele>83.7</ele>
        <time>2020-06-18T14:11:21Z</time>
      </trkpt>
      <trkpt lat="50.00174" lon="1.28398">
        <ele>83.7</ele>
        <time>2020-06-18T14:11:22Z</time>
      </trkpt>
      <trkpt lat="50.00175" lon="1.28397">
        <ele>83.7</ele>
        <time>2020-06-18T14:11:23Z</time>
      </trkpt>
      <trkpt lat="50.00176" lon="1.28392">
        <ele>83.6</ele>
        <time>2020-06-18T14:11:24Z</time>
      </trkpt>
      <trkpt lat="50.00178" lon="1.28387">
        <ele>83.5</ele>
        <time>2020-06-18T14:11:25Z</time>
      </trkpt>
      <trkpt lat="50.0018" lon="1.28383">
        <ele>83.1</ele>
        <time>2020-06-18T14:11:26Z</time>
      </trkpt>
      <trkpt lat="50.00182" lon="1.28383">
        <ele>83.1</ele>
        <time>2020-06-18T14:11:27Z</time>
      </trkpt>
      <trkpt lat="50.00184" lon="1.28384">
        <ele>83.1</ele>
        <time>2020-06-18T14:11:28Z</time>
      </trkpt>
      <trkpt lat="50.00188" lon="1.28389">
        <ele>83.1</ele>
        <time>2020-06-18T14:11:29Z</time>
      </trkpt>
      <trkpt lat="50.00193" lon="1.28395">
        <ele>83.1</ele>
        <time>2020-06-18T14:11:30Z</time>
      </trkpt>
      <trkpt lat="50.00196" lon="1.28399">
        <ele>83</ele>
        <time>2020-06-18T14:11:31Z</time>
      </trkpt>
      <trkpt lat="50.002" lon="1.28406">
        <ele>83</ele>
        <time>2020-06-18T14:11:32Z</time>
      </trkpt>
      <trkpt lat="50.00204" lon="1.28411">
        <ele>83</ele>
        <time>2020-06-18T14:11:33Z</time>
      </trkpt>
      <trkpt lat="50.00206" lon="1.28414">
        <ele>82.9</ele>
        <time>2020-06-18T14:11:34Z</time>
      </trkpt>
      <trkpt lat="50.0021" lon="1.28418">
        <ele>82.9</ele>
        <time>2020-06-18T14:11:35Z</time>
      </trkpt>
      <trkpt lat="50.00213" lon="1.28421">
        <ele>82.8</ele>
        <time>2020-06-18T14:11:36Z</time>
      </trkpt>
      <trkpt lat="50.00217" lon="1.28423">
        <ele>82.7</ele>
        <time>2020-06-18T14:11:37Z</time>
      </trkpt>
      <trkpt lat="50.0022" lon="1.28428">
        <ele>82.6</ele>
        <time>2020-06-18T14:11:38Z</time>
      </trkpt>
      <trkpt lat="50.00224" lon="1.28429">
        <ele>82.6</ele>
        <time>2020-06-18T14:11:39Z</time>
      </trkpt>
      <trkpt lat="50.00228" lon="1.28433">
        <ele>82.5</ele>
        <time>2020-06-18T14:11:40Z</time>
      </trkpt>
      <trkpt lat="50.00231" lon="1.28437">
        <ele>82.4</ele>
        <time>2020-06-18T14:11:41Z</time>
      </trkpt>
      <trkpt lat="50.00235" lon="1.28441">
        <ele>82.3</ele>
        <time>2020-06-18T14:11:42Z</time>
      </trkpt>
      <trkpt lat="50.00238" lon="1.28445">
        <ele>82.3</ele>
        <time>2020-06-18T14:11:43Z</time>
      </trkpt>
      <trkpt lat="50.00242" lon="1.2845">
        <ele>82.2</ele>
        <time>2020-06-18T14:11:44Z</time>
      </trkpt>
      <trkpt lat="50.00247" lon="1.28456">
        <ele>82.2</ele>
        <time>2020-06-18T14:11:45Z</time>
      </trkpt>
      <trkpt lat="50.00252" lon="1.28463">
        <ele>82.1</ele>
        <time>2020-06-18T14:11:46Z</time>
      </trkpt>
      <trkpt lat="50.00256" lon="1.28468">
        <ele>82</ele>
        <time>2020-06-18T14:11:47Z</time>
      </trkpt>
      <trkpt lat="50.0026" lon="1.28474">
        <ele>82</ele>
        <time>2020-06-18T14:11:48Z</time>
      </trkpt>
      <trkpt lat="50.00262" lon="1.28479">
        <ele>82</ele>
        <time>2020-06-18T14:11:49Z</time>
      </trkpt>
      <trkpt lat="50.00265" lon="1.28485">
        <ele>82</ele>
        <time>2020-06-18T14:11:50Z</time>
      </trkpt>
      <trkpt lat="50.00268" lon="1.28492">
        <ele>82</ele>
        <time>2020-06-18T14:11:51Z</time>
      </trkpt>
      <trkpt lat="50.00273" lon="1.28501">
        <ele>82</ele>
        <time>2020-06-18T14:11:52Z</time>
      </trkpt>
      <trkpt lat="50.00276" lon="1.28509">
        <ele>82</ele>
        <time>2020-06-18T14:11:53Z</time>
      </trkpt>
      <trkpt lat="50.0028" lon="1.28518">
        <ele>82</ele>
        <time>2020-06-18T14:11:54Z</time>
      </trkpt>
      <trkpt lat="50.00285" lon="1.28526">
        <ele>82</ele>
        <time>2020-06-18T14:11:55Z</time>
      </trkpt>
      <trkpt lat="50.00289" lon="1.28534">
        <ele>81.9</ele>
        <time>2020-06-18T14:11:56Z</time>
      </trkpt>
      <trkpt lat="50.00293" lon="1.28543">
        <ele>81.9</ele>
        <time>2020-06-18T14:11:57Z</time>
      </trkpt>
      <trkpt lat="50.00296" lon="1.2855">
        <ele>81.9</ele>
        <time>2020-06-18T14:11:58Z</time>
      </trkpt>
      <trkpt lat="50.00298" lon="1.28557">
        <ele>82</ele>
        <time>2020-06-18T14:11:59Z</time>
      </trkpt>
      <trkpt lat="50.003" lon="1.28564">
        <ele>82</ele>
        <time>2020-06-18T14:12:00Z</time>
      </trkpt>
      <trkpt lat="50.00304" lon="1.28572">
        <ele>82</ele>
        <time>2020-06-18T14:12:01Z</time>
      </trkpt>
      <trkpt lat="50.00306" lon="1.2858">
        <ele>82.1</ele>
        <time>2020-06-18T14:12:02Z</time>
      </trkpt>
      <trkpt lat="50.00309" lon="1.28588">
        <ele>82.2</ele>
        <time>2020-06-18T14:12:03Z</time>
      </trkpt>
      <trkpt lat="50.00311" lon="1.28597">
        <ele>82.2</ele>
        <time>2020-06-18T14:12:04Z</time>
      </trkpt>
      <trkpt lat="50.00314" lon="1.28607">
        <ele>82.1</ele>
        <time>2020-06-18T14:12:05Z</time>
      </trkpt>
      <trkpt lat="50.00316" lon="1.28616">
        <ele>82.1</ele>
        <time>2020-06-18T14:12:06Z</time>
      </trkpt>
      <trkpt lat="50.00318" lon="1.28626">
        <ele>82</ele>
        <time>2020-06-18T14:12:07Z</time>
      </trkpt>
      <trkpt lat="50.0032" lon="1.28635">
        <ele>81.9</ele>
        <time>2020-06-18T14:12:08Z</time>
      </trkpt>
      <trkpt lat="50.00322" lon="1.28644">
        <ele>81.9</ele>
        <time>2020-06-18T14:12:09Z</time>
      </trkpt>
      <trkpt lat="50.00324" lon="1.28654">
        <ele>81.9</ele>
        <time>2020-06-18T14:12:10Z</time>
      </trkpt>
      <trkpt lat="50.00325" lon="1.28662">
        <ele>81.9</ele>
        <time>2020-06-18T14:12:11Z</time>
      </trkpt>
      <trkpt lat="50.00327" lon="1.2867">
        <ele>81.8</ele>
        <time>2020-06-18T14:12:12Z</time>
      </trkpt>
      <trkpt lat="50.0033" lon="1.28679">
        <ele>81.8</ele>
        <time>2020-06-18T14:12:13Z</time>
      </trkpt>
      <trkpt lat="50.00332" lon="1.28688">
        <ele>81.8</ele>
        <time>2020-06-18T14:12:14Z</time>
      </trkpt>
      <trkpt lat="50.00334" lon="1.28696">
        <ele>81.8</ele>
        <time>2020-06-18T14:12:15Z</time>
      </trkpt>
      <trkpt lat="50.00337" lon="1.28703">
        <ele>81.8</ele>
        <time>2020-06-18T14:12:16Z</time>
      </trkpt>
      <trkpt lat="50.00339" lon="1.2871">
        <ele>81.8</ele>
        <time>2020-06-18T14:12:17Z</time>
      </trkpt>
      <trkpt lat="50.00342" lon="1.28717">
        <ele>81.8</ele>
        <time>2020-06-18T14:12:18Z</time>
      </trkpt>
      <trkpt lat="50.00345" lon="1.28724">
        <ele>81.7</ele>
        <time>2020-06-18T14:12:19Z</time>
      </trkpt>
      <trkpt lat="50.00349" lon="1.28731">
        <ele>81.7</ele>
        <time>2020-06-18T14:12:20Z</time>
      </trkpt>
      <trkpt lat="50.00353" lon="1.28738">
        <ele>81.7</ele>
        <time>2020-06-18T14:12:21Z</time>
      </trkpt>
      <trkpt lat="50.00357" lon="1.28745">
        <ele>81.8</ele>
        <time>2020-06-18T14:12:22Z</time>
      </trkpt>
      <trkpt lat="50.00362" lon="1.28753">
        <ele>81.8</ele>
        <time>2020-06-18T14:12:23Z</time>
      </trkpt>
      <trkpt lat="50.00366" lon="1.28761">
        <ele>81.8</ele>
        <time>2020-06-18T14:12:24Z</time>
      </trkpt>
      <trkpt lat="50.0037" lon="1.28767">
        <ele>81.9</ele>
        <time>2020-06-18T14:12:25Z</time>
      </trkpt>
      <trkpt lat="50.00373" lon="1.28774">
        <ele>81.9</ele>
        <time>2020-06-18T14:12:26Z</time>
      </trkpt>
      <trkpt lat="50.00376" lon="1.2878">
        <ele>81.9</ele>
        <time>2020-06-18T14:12:27Z</time>
      </trkpt>
      <trkpt lat="50.00378" lon="1.28786">
        <ele>81.9</ele>
        <time>2020-06-18T14:12:28Z</time>
      </trkpt>
      <trkpt lat="50.00379" lon="1.28791">
        <ele>81.9</ele>
        <time>2020-06-18T14:12:29Z</time>
      </trkpt>
      <trkpt lat="50.00379" lon="1.28798">
        <ele>81.9</ele>
        <time>2020-06-18T14:12:30Z</time>
      </trkpt>
      <trkpt lat="50.00378" lon="1.28805">
        <ele>81.8</ele>
        <time>2020-06-18T14:12:31Z</time>
      </trkpt>
      <trkpt lat="50.00377" lon="1.28813">
        <ele>81.7</ele>
        <time>2020-06-18T14:12:32Z</time>
      </trkpt>
      <trkpt lat="50.00376" lon="1.28822">
        <ele>81.7</ele>
        <time>2020-06-18T14:12:33Z</time>
      </trkpt>
      <trkpt lat="50.00375" lon="1.28831">
        <ele>81.7</ele>
        <time>2020-06-18T14:12:34Z</time>
      </trkpt>
      <trkpt lat="50.00374" lon="1.28838">
        <ele>81.8</ele>
        <time>2020-06-18T14:12:35Z</time>
      </trkpt>
      <trkpt lat="50.00373" lon="1.28845">
        <ele>81.8</ele>
        <time>2020-06-18T14:12:36Z</time>
      </trkpt>
      <trkpt lat="50.00372" lon="1.2885">
        <ele>81.7</ele>
        <time>2020-06-18T14:12:37Z</time>
      </trkpt>
      <trkpt lat="50.00372" lon="1.28855">
        <ele>81.6</ele>
        <time>2020-06-18T14:12:38Z</time>
      </trkpt>
      <trkpt lat="50.00371" lon="1.2886">
        <ele>81.4</ele>
        <time>2020-06-18T14:12:39Z</time>
      </trkpt>
      <trkpt lat="50.00372" lon="1.28866">
        <ele>81.1</ele>
        <time>2020-06-18T14:12:40Z</time>
      </trkpt>
      <trkpt lat="50.00375" lon="1.28873">
        <ele>80.9</ele>
        <time>2020-06-18T14:12:41Z</time>
      </trkpt>
      <trkpt lat="50.00379" lon="1.28877">
        <ele>80.8</ele>
        <time>2020-06-18T14:12:42Z</time>
      </trkpt>
      <trkpt lat="50.00383" lon="1.28881">
        <ele>80.6</ele>
        <time>2020-06-18T14:12:43Z</time>
      </trkpt>
      <trkpt lat="50.00387" lon="1.28885">
        <ele>80.5</ele>
        <time>2020-06-18T14:12:44Z</time>
      </trkpt>
      <trkpt lat="50.00391" lon="1.2889">
        <ele>80.4</ele>
        <time>2020-06-18T14:12:45Z</time>
      </trkpt>
      <trkpt lat="50.00396" lon="1.28895">
        <ele>80.3</ele>
        <time>2020-06-18T14:12:46Z</time>
      </trkpt>
      <trkpt lat="50.00401" lon="1.28901">
        <ele>80.1</ele>
        <time>2020-06-18T14:12:47Z</time>
      </trkpt>
      <trkpt lat="50.00405" lon="1.28907">
        <ele>80</ele>
        <time>2020-06-18T14:12:48Z</time>
      </trkpt>
      <trkpt lat="50.0041" lon="1.28911">
        <ele>79.9</ele>
        <time>2020-06-18T14:12:49Z</time>
      </trkpt>
      <trkpt lat="50.00415" lon="1.28916">
        <ele>79.9</ele>
        <time>2020-06-18T14:12:50Z</time>
      </trkpt>
      <trkpt lat="50.0042" lon="1.2892">
        <ele>79.8</ele>
        <time>2020-06-18T14:12:51Z</time>
      </trkpt>
      <trkpt lat="50.00424" lon="1.28924">
        <ele>79.8</ele>
        <time>2020-06-18T14:12:52Z</time>
      </trkpt>
      <trkpt lat="50.00429" lon="1.28929">
        <ele>79.8</ele>
        <time>2020-06-18T14:12:53Z</time>
      </trkpt>
      <trkpt lat="50.00434" lon="1.28934">
        <ele>79.8</ele>
        <time>2020-06-18T14:12:54Z</time>
      </trkpt>
      <trkpt lat="50.00438" lon="1.2894">
        <ele>79.8</ele>
        <time>2020-06-18T14:12:55Z</time>
      </trkpt>
      <trkpt lat="50.00442" lon="1.28944">
        <ele>79.7</ele>
        <time>2020-06-18T14:12:56Z</time>
      </trkpt>
      <trkpt lat="50.00447" lon="1.28949">
        <ele>79.6</ele>
        <time>2020-06-18T14:12:57Z</time>
      </trkpt>
      <trkpt lat="50.00452" lon="1.28955">
        <ele>79.5</ele>
        <time>2020-06-18T14:12:58Z</time>
      </trkpt>
      <trkpt lat="50.00458" lon="1.28961">
        <ele>79.4</ele>
        <time>2020-06-18T14:12:59Z</time>
      </trkpt>
      <trkpt lat="50.00462" lon="1.28966">
        <ele>79.3</ele>
        <time>2020-06-18T14:13:00Z</time>
      </trkpt>
      <trkpt lat="50.00467" lon="1.28971">
        <ele>79.1</ele>
        <time>2020-06-18T14:13:01Z</time>
      </trkpt>
      <trkpt lat="50.00472" lon="1.28976">
        <ele>79</ele>
        <time>2020-06-18T14:13:02Z</time>
      </trkpt>
      <trkpt lat="50.00478" lon="1.28982">
        <ele>78.9</ele>
        <time>2020-06-18T14:13:03Z</time>
      </trkpt>
      <trkpt lat="50.00482" lon="1.28986">
        <ele>78.8</ele>
        <time>2020-06-18T14:13:04Z</time>
      </trkpt>
      <trkpt lat="50.00488" lon="1.28991">
        <ele>78.8</ele>
        <time>2020-06-18T14:13:05Z</time>
      </trkpt>
      <trkpt lat="50.00493" lon="1.28997">
        <ele>78.6</ele>
        <time>2020-06-18T14:13:06Z</time>
      </trkpt>
      <trkpt lat="50.00499" lon="1.29004">
        <ele>78.5</ele>
        <time>2020-06-18T14:13:07Z</time>
      </trkpt>
      <trkpt lat="50.00505" lon="1.29011">
        <ele>78.4</ele>
        <time>2020-06-18T14:13:08Z</time>
      </trkpt>
      <trkpt lat="50.00511" lon="1.29017">
        <ele>78.4</ele>
        <time>2020-06-18T14:13:09Z</time>
      </trkpt>
      <trkpt lat="50.00516" lon="1.29022">
        <ele>78.3</ele>
        <time>2020-06-18T14:13:10Z</time>
      </trkpt>
      <trkpt lat="50.00523" lon="1.29029">
        <ele>78.3</ele>
        <time>2020-06-18T14:13:11Z</time>
      </trkpt>
      <trkpt lat="50.00528" lon="1.29035">
        <ele>78.2</ele>
        <time>2020-06-18T14:13:12Z</time>
      </trkpt>
      <trkpt lat="50.00533" lon="1.29041">
        <ele>78.1</ele>
        <time>2020-06-18T14:13:13Z</time>
      </trkpt>
      <trkpt lat="50.00538" lon="1.29047">
        <ele>78</ele>
        <time>2020-06-18T14:13:14Z</time>
      </trkpt>
      <trkpt lat="50.00542" lon="1.29052">
        <ele>77.9</ele>
        <time>2020-06-18T14:13:15Z</time>
      </trkpt>
      <trkpt lat="50.00547" lon="1.29058">
        <ele>77.8</ele>
        <time>2020-06-18T14:13:16Z</time>
      </trkpt>
      <trkpt lat="50.00552" lon="1.29064">
        <ele>77.7</ele>
        <time>2020-06-18T14:13:17Z</time>
      </trkpt>
      <trkpt lat="50.00557" lon="1.29069">
        <ele>77.7</ele>
        <time>2020-06-18T14:13:18Z</time>
      </trkpt>
      <trkpt lat="50.00562" lon="1.29075">
        <ele>77.6</ele>
        <time>2020-06-18T14:13:19Z</time>
      </trkpt>
      <trkpt lat="50.00568" lon="1.29082">
        <ele>77.5</ele>
        <time>2020-06-18T14:13:20Z</time>
      </trkpt>
      <trkpt lat="50.00573" lon="1.29088">
        <ele>77.4</ele>
        <time>2020-06-18T14:13:21Z</time>
      </trkpt>
      <trkpt lat="50.00578" lon="1.29093">
        <ele>77.3</ele>
        <time>2020-06-18T14:13:22Z</time>
      </trkpt>
      <trkpt lat="50.00583" lon="1.291">
        <ele>77.2</ele>
        <time>2020-06-18T14:13:23Z</time>
      </trkpt>
      <trkpt lat="50.00589" lon="1.29106">
        <ele>77.1</ele>
        <time>2020-06-18T14:13:24Z</time>
      </trkpt>
      <trkpt lat="50.00595" lon="1.29113">
        <ele>77</ele>
        <time>2020-06-18T14:13:25Z</time>
      </trkpt>
      <trkpt lat="50.00601" lon="1.29118">
        <ele>76.9</ele>
        <time>2020-06-18T14:13:26Z</time>
      </trkpt>
      <trkpt lat="50.00607" lon="1.29125">
        <ele>76.8</ele>
        <time>2020-06-18T14:13:27Z</time>
      </trkpt>
      <trkpt lat="50.00613" lon="1.29131">
        <ele>76.8</ele>
        <time>2020-06-18T14:13:28Z</time>
      </trkpt>
      <trkpt lat="50.00619" lon="1.29138">
        <ele>76.9</ele>
        <time>2020-06-18T14:13:29Z</time>
      </trkpt>
      <trkpt lat="50.00626" lon="1.29145">
        <ele>77.5</ele>
        <time>2020-06-18T14:13:30Z</time>
      </trkpt>
      <trkpt lat="50.00631" lon="1.29151">
        <ele>77.6</ele>
        <time>2020-06-18T14:13:31Z</time>
      </trkpt>
      <trkpt lat="50.00637" lon="1.29155">
        <ele>77.6</ele>
        <time>2020-06-18T14:13:32Z</time>
      </trkpt>
      <trkpt lat="50.00643" lon="1.29162">
        <ele>77.5</ele>
        <time>2020-06-18T14:13:33Z</time>
      </trkpt>
      <trkpt lat="50.00649" lon="1.29168">
        <ele>77.4</ele>
        <time>2020-06-18T14:13:34Z</time>
      </trkpt>
      <trkpt lat="50.00656" lon="1.29175">
        <ele>77.2</ele>
        <time>2020-06-18T14:13:35Z</time>
      </trkpt>
      <trkpt lat="50.00662" lon="1.29182">
        <ele>77.1</ele>
        <time>2020-06-18T14:13:36Z</time>
      </trkpt>
      <trkpt lat="50.00668" lon="1.29189">
        <ele>77</ele>
        <time>2020-06-18T14:13:37Z</time>
      </trkpt>
      <trkpt lat="50.00674" lon="1.29195">
        <ele>76.9</ele>
        <time>2020-06-18T14:13:38Z</time>
      </trkpt>
      <trkpt lat="50.00679" lon="1.292">
        <ele>76.8</ele>
        <time>2020-06-18T14:13:39Z</time>
      </trkpt>
      <trkpt lat="50.00685" lon="1.29207">
        <ele>76.7</ele>
        <time>2020-06-18T14:13:40Z</time>
      </trkpt>
      <trkpt lat="50.00691" lon="1.29213">
        <ele>76.6</ele>
        <time>2020-06-18T14:13:41Z</time>
      </trkpt>
      <trkpt lat="50.00696" lon="1.29221">
        <ele>76.6</ele>
        <time>2020-06-18T14:13:42Z</time>
      </trkpt>
      <trkpt lat="50.00702" lon="1.29228">
        <ele>76.5</ele>
        <time>2020-06-18T14:13:43Z</time>
      </trkpt>
      <trkpt lat="50.00709" lon="1.29235">
        <ele>76.4</ele>
        <time>2020-06-18T14:13:44Z</time>
      </trkpt>
      <trkpt lat="50.00714" lon="1.29242">
        <ele>76.3</ele>
        <time>2020-06-18T14:13:45Z</time>
      </trkpt>
      <trkpt lat="50.00719" lon="1.29249">
        <ele>76.2</ele>
        <time>2020-06-18T14:13:46Z</time>
      </trkpt>
      <trkpt lat="50.00724" lon="1.29255">
        <ele>76.1</ele>
        <time>2020-06-18T14:13:47Z</time>
      </trkpt>
      <trkpt lat="50.0073" lon="1.29261">
        <ele>76</ele>
        <time>2020-06-18T14:13:48Z</time>
      </trkpt>
      <trkpt lat="50.00735" lon="1.29268">
        <ele>75.9</ele>
        <time>2020-06-18T14:13:49Z</time>
      </trkpt>
      <trkpt lat="50.00739" lon="1.29275">
        <ele>75.8</ele>
        <time>2020-06-18T14:13:50Z</time>
      </trkpt>
      <trkpt lat="50.00744" lon="1.29282">
        <ele>75.6</ele>
        <time>2020-06-18T14:13:51Z</time>
      </trkpt>
      <trkpt lat="50.00749" lon="1.29288">
        <ele>75.5</ele>
        <time>2020-06-18T14:13:52Z</time>
      </trkpt>
      <trkpt lat="50.00753" lon="1.29294">
        <ele>75.5</ele>
        <time>2020-06-18T14:13:53Z</time>
      </trkpt>
      <trkpt lat="50.00757" lon="1.29298">
        <ele>75.4</ele>
        <time>2020-06-18T14:13:54Z</time>
      </trkpt>
      <trkpt lat="50.00762" lon="1.29304">
        <ele>75.4</ele>
        <time>2020-06-18T14:13:55Z</time>
      </trkpt>
      <trkpt lat="50.00766" lon="1.29309">
        <ele>75.3</ele>
        <time>2020-06-18T14:13:56Z</time>
      </trkpt>
      <trkpt lat="50.0077" lon="1.29315">
        <ele>75.3</ele>
        <time>2020-06-18T14:13:57Z</time>
      </trkpt>
      <trkpt lat="50.00775" lon="1.2932">
        <ele>75.2</ele>
        <time>2020-06-18T14:13:58Z</time>
      </trkpt>
      <trkpt lat="50.00779" lon="1.29326">
        <ele>75.1</ele>
        <time>2020-06-18T14:13:59Z</time>
      </trkpt>
      <trkpt lat="50.00783" lon="1.29332">
        <ele>75</ele>
        <time>2020-06-18T14:14:00Z</time>
      </trkpt>
      <trkpt lat="50.00786" lon="1.29338">
        <ele>74.9</ele>
        <time>2020-06-18T14:14:01Z</time>
      </trkpt>
      <trkpt lat="50.00789" lon="1.29343">
        <ele>74.8</ele>
        <time>2020-06-18T14:14:02Z</time>
      </trkpt>
      <trkpt lat="50.00792" lon="1.29347">
        <ele>74.8</ele>
        <time>2020-06-18T14:14:03Z</time>
      </trkpt>
      <trkpt lat="50.00795" lon="1.2935">
        <ele>74.7</ele>
        <time>2020-06-18T14:14:04Z</time>
      </trkpt>
      <trkpt lat="50.00797" lon="1.29353">
        <ele>74.6</ele>
        <time>2020-06-18T14:14:05Z</time>
      </trkpt>
      <trkpt lat="50.00799" lon="1.29356">
        <ele>74.5</ele>
        <time>2020-06-18T14:14:06Z</time>
      </trkpt>
      <trkpt lat="50.008" lon="1.29357">
        <ele>74.5</ele>
        <time>2020-06-18T14:14:07Z</time>
      </trkpt>
      <trkpt lat="50.00803" lon="1.2936">
        <ele>74.4</ele>
        <time>2020-06-18T14:14:08Z</time>
      </trkpt>
      <trkpt lat="50.00805" lon="1.29362">
        <ele>74.4</ele>
        <time>2020-06-18T14:14:09Z</time>
      </trkpt>
      <trkpt lat="50.00808" lon="1.29364">
        <ele>74.3</ele>
        <time>2020-06-18T14:14:10Z</time>
      </trkpt>
      <trkpt lat="50.00811" lon="1.29367">
        <ele>74.2</ele>
        <time>2020-06-18T14:14:11Z</time>
      </trkpt>
      <trkpt lat="50.00814" lon="1.29371">
        <ele>74.1</ele>
        <time>2020-06-18T14:14:12Z</time>
      </trkpt>
      <trkpt lat="50.00817" lon="1.29374">
        <ele>74</ele>
        <time>2020-06-18T14:14:13Z</time>
      </trkpt>
      <trkpt lat="50.0082" lon="1.29379">
        <ele>73.9</ele>
        <time>2020-06-18T14:14:14Z</time>
      </trkpt>
      <trkpt lat="50.00823" lon="1.29383">
        <ele>73.8</ele>
        <time>2020-06-18T14:14:15Z</time>
      </trkpt>
      <trkpt lat="50.00826" lon="1.29389">
        <ele>73.7</ele>
        <time>2020-06-18T14:14:16Z</time>
      </trkpt>
      <trkpt lat="50.0083" lon="1.29395">
        <ele>73.6</ele>
        <time>2020-06-18T14:14:17Z</time>
      </trkpt>
      <trkpt lat="50.00833" lon="1.29402">
        <ele>73.4</ele>
        <time>2020-06-18T14:14:18Z</time>
      </trkpt>
      <trkpt lat="50.00836" lon="1.29408">
        <ele>73.3</ele>
        <time>2020-06-18T14:14:19Z</time>
      </trkpt>
      <trkpt lat="50.00838" lon="1.29415">
        <ele>73.1</ele>
        <time>2020-06-18T14:14:20Z</time>
      </trkpt>
      <trkpt lat="50.00842" lon="1.29421">
        <ele>72.9</ele>
        <time>2020-06-18T14:14:21Z</time>
      </trkpt>
      <trkpt lat="50.00846" lon="1.29427">
        <ele>72.6</ele>
        <time>2020-06-18T14:14:22Z</time>
      </trkpt>
      <trkpt lat="50.00848" lon="1.29431">
        <ele>72.5</ele>
        <time>2020-06-18T14:14:23Z</time>
      </trkpt>
      <trkpt lat="50.00853" lon="1.29438">
        <ele>72.2</ele>
        <time>2020-06-18T14:14:24Z</time>
      </trkpt>
      <trkpt lat="50.00857" lon="1.29446">
        <ele>71.9</ele>
        <time>2020-06-18T14:14:25Z</time>
      </trkpt>
      <trkpt lat="50.0086" lon="1.29452">
        <ele>71.7</ele>
        <time>2020-06-18T14:14:26Z</time>
      </trkpt>
      <trkpt lat="50.00864" lon="1.29459">
        <ele>71.5</ele>
        <time>2020-06-18T14:14:27Z</time>
      </trkpt>
      <trkpt lat="50.00867" lon="1.29466">
        <ele>71.2</ele>
        <time>2020-06-18T14:14:28Z</time>
      </trkpt>
      <trkpt lat="50.00871" lon="1.29472">
        <ele>71</ele>
        <time>2020-06-18T14:14:29Z</time>
      </trkpt>
      <trkpt lat="50.00875" lon="1.2948">
        <ele>70.7</ele>
        <time>2020-06-18T14:14:30Z</time>
      </trkpt>
      <trkpt lat="50.00879" lon="1.29486">
        <ele>70.4</ele>
        <time>2020-06-18T14:14:31Z</time>
      </trkpt>
      <trkpt lat="50.00884" lon="1.29496">
        <ele>70</ele>
        <time>2020-06-18T14:14:32Z</time>
      </trkpt>
      <trkpt lat="50.00889" lon="1.29504">
        <ele>69.6</ele>
        <time>2020-06-18T14:14:33Z</time>
      </trkpt>
      <trkpt lat="50.00893" lon="1.29512">
        <ele>69.1</ele>
        <time>2020-06-18T14:14:34Z</time>
      </trkpt>
      <trkpt lat="50.00898" lon="1.2952">
        <ele>68.7</ele>
        <time>2020-06-18T14:14:35Z</time>
      </trkpt>
      <trkpt lat="50.00902" lon="1.29527">
        <ele>68.3</ele>
        <time>2020-06-18T14:14:36Z</time>
      </trkpt>
      <trkpt lat="50.00906" lon="1.29535">
        <ele>67.8</ele>
        <time>2020-06-18T14:14:37Z</time>
      </trkpt>
      <trkpt lat="50.0091" lon="1.29545">
        <ele>67.3</ele>
        <time>2020-06-18T14:14:38Z</time>
      </trkpt>
      <trkpt lat="50.00915" lon="1.29557">
        <ele>66.8</ele>
        <time>2020-06-18T14:14:39Z</time>
      </trkpt>
      <trkpt lat="50.0092" lon="1.29567">
        <ele>66.3</ele>
        <time>2020-06-18T14:14:40Z</time>
      </trkpt>
      <trkpt lat="50.00925" lon="1.29576">
        <ele>65.8</ele>
        <time>2020-06-18T14:14:41Z</time>
      </trkpt>
      <trkpt lat="50.0093" lon="1.29585">
        <ele>65.3</ele>
        <time>2020-06-18T14:14:42Z</time>
      </trkpt>
      <trkpt lat="50.00936" lon="1.29594">
        <ele>64.8</ele>
        <time>2020-06-18T14:14:43Z</time>
      </trkpt>
      <trkpt lat="50.00941" lon="1.29602">
        <ele>64.3</ele>
        <time>2020-06-18T14:14:44Z</time>
      </trkpt>
      <trkpt lat="50.00946" lon="1.29611">
        <ele>63.7</ele>
        <time>2020-06-18T14:14:45Z</time>
      </trkpt>
      <trkpt lat="50.00952" lon="1.29622">
        <ele>63.1</ele>
        <time>2020-06-18T14:14:46Z</time>
      </trkpt>
      <trkpt lat="50.00958" lon="1.29634">
        <ele>62.4</ele>
        <time>2020-06-18T14:14:47Z</time>
      </trkpt>
      <trkpt lat="50.00963" lon="1.29645">
        <ele>61.7</ele>
        <time>2020-06-18T14:14:48Z</time>
      </trkpt>
      <trkpt lat="50.00969" lon="1.29656">
        <ele>60.9</ele>
        <time>2020-06-18T14:14:49Z</time>
      </trkpt>
      <trkpt lat="50.00975" lon="1.29668">
        <ele>60.1</ele>
        <time>2020-06-18T14:14:50Z</time>
      </trkpt>
      <trkpt lat="50.0098" lon="1.2968">
        <ele>59.5</ele>
        <time>2020-06-18T14:14:51Z</time>
      </trkpt>
      <trkpt lat="50.00986" lon="1.29692">
        <ele>58.8</ele>
        <time>2020-06-18T14:14:52Z</time>
      </trkpt>
      <trkpt lat="50.00992" lon="1.29704">
        <ele>58.1</ele>
        <time>2020-06-18T14:14:53Z</time>
      </trkpt>
      <trkpt lat="50.00997" lon="1.29716">
        <ele>57.4</ele>
        <time>2020-06-18T14:14:54Z</time>
      </trkpt>
      <trkpt lat="50.01003" lon="1.29728">
        <ele>56.6</ele>
        <time>2020-06-18T14:14:55Z</time>
      </trkpt>
      <trkpt lat="50.01009" lon="1.2974">
        <ele>55.9</ele>
        <time>2020-06-18T14:14:56Z</time>
      </trkpt>
      <trkpt lat="50.01015" lon="1.29752">
        <ele>55.1</ele>
        <time>2020-06-18T14:14:57Z</time>
      </trkpt>
      <trkpt lat="50.01021" lon="1.29763">
        <ele>54.4</ele>
        <time>2020-06-18T14:14:58Z</time>
      </trkpt>
      <trkpt lat="50.01028" lon="1.29774">
        <ele>53.8</ele>
        <time>2020-06-18T14:14:59Z</time>
      </trkpt>
      <trkpt lat="50.01034" lon="1.29784">
        <ele>53.2</ele>
        <time>2020-06-18T14:15:00Z</time>
      </trkpt>
      <trkpt lat="50.01039" lon="1.29795">
        <ele>52.5</ele>
        <time>2020-06-18T14:15:01Z</time>
      </trkpt>
      <trkpt lat="50.01045" lon="1.29805">
        <ele>51.9</ele>
        <time>2020-06-18T14:15:02Z</time>
      </trkpt>
      <trkpt lat="50.01051" lon="1.29815">
        <ele>51.3</ele>
        <time>2020-06-18T14:15:03Z</time>
      </trkpt>
      <trkpt lat="50.01056" lon="1.29824">
        <ele>50.8</ele>
        <time>2020-06-18T14:15:04Z</time>
      </trkpt>
      <trkpt lat="50.01062" lon="1.29832">
        <ele>50.3</ele>
        <time>2020-06-18T14:15:05Z</time>
      </trkpt>
      <trkpt lat="50.01067" lon="1.2984">
        <ele>49.7</ele>
        <time>2020-06-18T14:15:06Z</time>
      </trkpt>
      <trkpt lat="50.01072" lon="1.29849">
        <ele>49.2</ele>
        <time>2020-06-18T14:15:07Z</time>
      </trkpt>
      <trkpt lat="50.01078" lon="1.29856">
        <ele>48.8</ele>
        <time>2020-06-18T14:15:08Z</time>
      </trkpt>
      <trkpt lat="50.01083" lon="1.29864">
        <ele>48.2</ele>
        <time>2020-06-18T14:15:09Z</time>
      </trkpt>
      <trkpt lat="50.01088" lon="1.29873">
        <ele>47.6</ele>
        <time>2020-06-18T14:15:10Z</time>
      </trkpt>
      <trkpt lat="50.01094" lon="1.29882">
        <ele>47.1</ele>
        <time>2020-06-18T14:15:11Z</time>
      </trkpt>
      <trkpt lat="50.011" lon="1.29891">
        <ele>46.5</ele>
        <time>2020-06-18T14:15:12Z</time>
      </trkpt>
      <trkpt lat="50.01106" lon="1.29899">
        <ele>45.9</ele>
        <time>2020-06-18T14:15:13Z</time>
      </trkpt>
      <trkpt lat="50.01111" lon="1.29908">
        <ele>45.3</ele>
        <time>2020-06-18T14:15:14Z</time>
      </trkpt>
      <trkpt lat="50.01117" lon="1.29918">
        <ele>44.7</ele>
        <time>2020-06-18T14:15:15Z</time>
      </trkpt>
      <trkpt lat="50.01123" lon="1.29928">
        <ele>44</ele>
        <time>2020-06-18T14:15:16Z</time>
      </trkpt>
      <trkpt lat="50.01129" lon="1.29938">
        <ele>43.2</ele>
        <time>2020-06-18T14:15:17Z</time>
      </trkpt>
      <trkpt lat="50.01135" lon="1.29948">
        <ele>42.3</ele>
        <time>2020-06-18T14:15:18Z</time>
      </trkpt>
      <trkpt lat="50.0114" lon="1.29959">
        <ele>41.7</ele>
        <time>2020-06-18T14:15:19Z</time>
      </trkpt>
      <trkpt lat="50.01146" lon="1.2997">
        <ele>41.1</ele>
        <time>2020-06-18T14:15:20Z</time>
      </trkpt>
      <trkpt lat="50.01152" lon="1.2998">
        <ele>40.5</ele>
        <time>2020-06-18T14:15:21Z</time>
      </trkpt>
      <trkpt lat="50.01157" lon="1.29989">
        <ele>40</ele>
        <time>2020-06-18T14:15:22Z</time>
      </trkpt>
      <trkpt lat="50.01162" lon="1.29998">
        <ele>39.5</ele>
        <time>2020-06-18T14:15:23Z</time>
      </trkpt>
      <trkpt lat="50.01167" lon="1.30008">
        <ele>38.9</ele>
        <time>2020-06-18T14:15:24Z</time>
      </trkpt>
      <trkpt lat="50.01172" lon="1.30019">
        <ele>38.2</ele>
        <time>2020-06-18T14:15:25Z</time>
      </trkpt>
      <trkpt lat="50.01177" lon="1.30028">
        <ele>37.6</ele>
        <time>2020-06-18T14:15:26Z</time>
      </trkpt>
      <trkpt lat="50.01182" lon="1.30037">
        <ele>37.1</ele>
        <time>2020-06-18T14:15:27Z</time>
      </trkpt>
      <trkpt lat="50.01187" lon="1.30045">
        <ele>36.6</ele>
        <time>2020-06-18T14:15:28Z</time>
      </trkpt>
      <trkpt lat="50.01193" lon="1.30054">
        <ele>36.1</ele>
        <time>2020-06-18T14:15:29Z</time>
      </trkpt>
      <trkpt lat="50.01198" lon="1.30063">
        <ele>35.6</ele>
        <time>2020-06-18T14:15:30Z</time>
      </trkpt>
      <trkpt lat="50.01204" lon="1.30072">
        <ele>35.1</ele>
        <time>2020-06-18T14:15:31Z</time>
      </trkpt>
      <trkpt lat="50.01209" lon="1.30081">
        <ele>34.5</ele>
        <time>2020-06-18T14:15:32Z</time>
      </trkpt>
      <trkpt lat="50.01214" lon="1.3009">
        <ele>34</ele>
        <time>2020-06-18T14:15:33Z</time>
      </trkpt>
      <trkpt lat="50.01219" lon="1.30099">
        <ele>33.5</ele>
        <time>2020-06-18T14:15:34Z</time>
      </trkpt>
      <trkpt lat="50.01224" lon="1.30108">
        <ele>33</ele>
        <time>2020-06-18T14:15:35Z</time>
      </trkpt>
      <trkpt lat="50.01229" lon="1.30117">
        <ele>32.5</ele>
        <time>2020-06-18T14:15:36Z</time>
      </trkpt>
      <trkpt lat="50.01234" lon="1.30126">
        <ele>32</ele>
        <time>2020-06-18T14:15:37Z</time>
      </trkpt>
      <trkpt lat="50.01238" lon="1.30136">
        <ele>31.5</ele>
        <time>2020-06-18T14:15:38Z</time>
      </trkpt>
      <trkpt lat="50.01243" lon="1.30146">
        <ele>31.1</ele>
        <time>2020-06-18T14:15:39Z</time>
      </trkpt>
      <trkpt lat="50.01248" lon="1.30155">
        <ele>30.6</ele>
        <time>2020-06-18T14:15:40Z</time>
      </trkpt>
      <trkpt lat="50.01253" lon="1.30165">
        <ele>30.1</ele>
        <time>2020-06-18T14:15:41Z</time>
      </trkpt>
      <trkpt lat="50.01258" lon="1.30175">
        <ele>29.6</ele>
        <time>2020-06-18T14:15:42Z</time>
      </trkpt>
      <trkpt lat="50.01263" lon="1.30185">
        <ele>29.2</ele>
        <time>2020-06-18T14:15:43Z</time>
      </trkpt>
      <trkpt lat="50.01268" lon="1.30196">
        <ele>28.9</ele>
        <time>2020-06-18T14:15:44Z</time>
      </trkpt>
      <trkpt lat="50.01272" lon="1.30206">
        <ele>28.5</ele>
        <time>2020-06-18T14:15:45Z</time>
      </trkpt>
      <trkpt lat="50.01276" lon="1.30216">
        <ele>28.2</ele>
        <time>2020-06-18T14:15:46Z</time>
      </trkpt>
      <trkpt lat="50.01279" lon="1.30225">
        <ele>28</ele>
        <time>2020-06-18T14:15:47Z</time>
      </trkpt>
      <trkpt lat="50.01283" lon="1.30235">
        <ele>27.8</ele>
        <time>2020-06-18T14:15:48Z</time>
      </trkpt>
      <trkpt lat="50.01286" lon="1.30244">
        <ele>27.5</ele>
        <time>2020-06-18T14:15:49Z</time>
      </trkpt>
      <trkpt lat="50.0129" lon="1.30253">
        <ele>27.3</ele>
        <time>2020-06-18T14:15:50Z</time>
      </trkpt>
      <trkpt lat="50.01293" lon="1.30262">
        <ele>27.1</ele>
        <time>2020-06-18T14:15:51Z</time>
      </trkpt>
      <trkpt lat="50.01297" lon="1.30271">
        <ele>26.9</ele>
        <time>2020-06-18T14:15:52Z</time>
      </trkpt>
      <trkpt lat="50.013" lon="1.3028">
        <ele>26.6</ele>
        <time>2020-06-18T14:15:53Z</time>
      </trkpt>
      <trkpt lat="50.01301" lon="1.30293">
        <ele>26.3</ele>
        <time>2020-06-18T14:15:54Z</time>
      </trkpt>
      <trkpt lat="50.013" lon="1.30305">
        <ele>26</ele>
        <time>2020-06-18T14:15:55Z</time>
      </trkpt>
      <trkpt lat="50.01299" lon="1.30318">
        <ele>25.6</ele>
        <time>2020-06-18T14:15:56Z</time>
      </trkpt>
      <trkpt lat="50.01298" lon="1.30331">
        <ele>25.4</ele>
        <time>2020-06-18T14:15:57Z</time>
      </trkpt>
      <trkpt lat="50.01297" lon="1.30344">
        <ele>25.1</ele>
        <time>2020-06-18T14:15:58Z</time>
      </trkpt>
      <trkpt lat="50.01296" lon="1.30357">
        <ele>24.8</ele>
        <time>2020-06-18T14:15:59Z</time>
      </trkpt>
      <trkpt lat="50.01295" lon="1.3037">
        <ele>24.6</ele>
        <time>2020-06-18T14:16:00Z</time>
      </trkpt>
      <trkpt lat="50.01293" lon="1.30383">
        <ele>24.3</ele>
        <time>2020-06-18T14:16:01Z</time>
      </trkpt>
      <trkpt lat="50.01292" lon="1.30396">
        <ele>24</ele>
        <time>2020-06-18T14:16:02Z</time>
      </trkpt>
      <trkpt lat="50.0129" lon="1.30407">
        <ele>23.8</ele>
        <time>2020-06-18T14:16:03Z</time>
      </trkpt>
      <trkpt lat="50.01288" lon="1.30419">
        <ele>23.5</ele>
        <time>2020-06-18T14:16:04Z</time>
      </trkpt>
      <trkpt lat="50.01287" lon="1.30429">
        <ele>23.3</ele>
        <time>2020-06-18T14:16:05Z</time>
      </trkpt>
      <trkpt lat="50.01286" lon="1.30437">
        <ele>23.1</ele>
        <time>2020-06-18T14:16:06Z</time>
      </trkpt>
      <trkpt lat="50.01285" lon="1.30444">
        <ele>23</ele>
        <time>2020-06-18T14:16:07Z</time>
      </trkpt>
      <trkpt lat="50.01284" lon="1.3045">
        <ele>22.9</ele>
        <time>2020-06-18T14:16:08Z</time>
      </trkpt>
      <trkpt lat="50.01283" lon="1.30455">
        <ele>22.8</ele>
        <time>2020-06-18T14:16:09Z</time>
      </trkpt>
      <trkpt lat="50.01281" lon="1.30459">
        <ele>22.7</ele>
        <time>2020-06-18T14:16:10Z</time>
      </trkpt>
      <trkpt lat="50.01279" lon="1.30462">
        <ele>22.7</ele>
        <time>2020-06-18T14:16:11Z</time>
      </trkpt>
      <trkpt lat="50.01278" lon="1.30463">
        <ele>22.7</ele>
        <time>2020-06-18T14:16:12Z</time>
      </trkpt>
      <trkpt lat="50.01276" lon="1.30467">
        <ele>22.6</ele>
        <time>2020-06-18T14:16:13Z</time>
      </trkpt>
      <trkpt lat="50.01276" lon="1.30467">
        <ele>22.6</ele>
        <time>2020-06-18T14:16:14Z</time>
      </trkpt>
      <trkpt lat="50.01274" lon="1.30468">
        <ele>22.6</ele>
        <time>2020-06-18T14:16:15Z</time>
      </trkpt>
      <trkpt lat="50.01275" lon="1.30469">
        <ele>22.5</ele>
        <time>2020-06-18T14:16:16Z</time>
      </trkpt>
      <trkpt lat="50.01275" lon="1.30471">
        <ele>22.5</ele>
        <time>2020-06-18T14:16:17Z</time>
      </trkpt>
      <trkpt lat="50.01276" lon="1.30472">
        <ele>22.5</ele>
        <time>2020-06-18T14:16:18Z</time>
      </trkpt>
      <trkpt lat="50.01276" lon="1.30472">
        <ele>22.5</ele>
        <time>2020-06-18T14:16:19Z</time>
      </trkpt>
      <trkpt lat="50.01275" lon="1.30472">
        <ele>22.5</ele>
        <time>2020-06-18T14:16:20Z</time>
      </trkpt>
      <trkpt lat="50.01274" lon="1.30472">
        <ele>22.5</ele>
        <time>2020-06-18T14:16:21Z</time>
      </trkpt>
      <trkpt lat="50.01274" lon="1.30472">
        <ele>22.5</ele>
        <time>2020-06-18T14:16:22Z</time>
      </trkpt>
      <trkpt lat="50.01275" lon="1.30473">
        <ele>22.4</ele>
        <time>2020-06-18T14:16:23Z</time>
      </trkpt>
      <trkpt lat="50.01275" lon="1.30474">
        <ele>22.4</ele>
        <time>2020-06-18T14:16:24Z</time>
      </trkpt>
      <trkpt lat="50.01274" lon="1.30474">
        <ele>22.4</ele>
        <time>2020-06-18T14:16:25Z</time>
      </trkpt>
      <trkpt lat="50.01274" lon="1.30474">
        <ele>22.4</ele>
        <time>2020-06-18T14:16:26Z</time>
      </trkpt>
      <trkpt lat="50.01273" lon="1.30473">
        <ele>22.4</ele>
        <time>2020-06-18T14:16:27Z</time>
      </trkpt>
      <trkpt lat="50.01266" lon="1.30475">
        <ele>22.2</ele>
        <time>2020-06-18T14:16:39Z</time>
      </trkpt>
      <trkpt lat="50.01265" lon="1.30477">
        <ele>22.2</ele>
        <time>2020-06-18T14:16:40Z</time>
      </trkpt>
      <trkpt lat="50.01265" lon="1.30481">
        <ele>22.1</ele>
        <time>2020-06-18T14:16:41Z</time>
      </trkpt>
      <trkpt lat="50.01266" lon="1.30483">
        <ele>22.1</ele>
        <time>2020-06-18T14:16:42Z</time>
      </trkpt>
      <trkpt lat="50.01266" lon="1.30485">
        <ele>22</ele>
        <time>2020-06-18T14:16:43Z</time>
      </trkpt>
      <trkpt lat="50.01266" lon="1.30486">
        <ele>22</ele>
        <time>2020-06-18T14:16:44Z</time>
      </trkpt>
      <trkpt lat="50.01266" lon="1.30487">
        <ele>22</ele>
        <time>2020-06-18T14:16:45Z</time>
      </trkpt>
      <trkpt lat="50.01266" lon="1.30488">
        <ele>22</ele>
        <time>2020-06-18T14:16:46Z</time>
      </trkpt>
      <trkpt lat="50.01266" lon="1.30489">
        <ele>22</ele>
        <time>2020-06-18T14:16:47Z</time>
      </trkpt>
      <trkpt lat="50.01266" lon="1.30489">
        <ele>21.9</ele>
        <time>2020-06-18T14:16:48Z</time>
      </trkpt>
      <trkpt lat="50.01265" lon="1.30494">
        <ele>21.8</ele>
        <time>2020-06-18T14:16:49Z</time>
      </trkpt>
      <trkpt lat="50.01264" lon="1.30496">
        <ele>21.8</ele>
        <time>2020-06-18T14:16:50Z</time>
      </trkpt>
      <trkpt lat="50.01263" lon="1.305">
        <ele>21.7</ele>
        <time>2020-06-18T14:16:51Z</time>
      </trkpt>
      <trkpt lat="50.01262" lon="1.30505">
        <ele>21.5</ele>
        <time>2020-06-18T14:16:52Z</time>
      </trkpt>
      <trkpt lat="50.01261" lon="1.30509">
        <ele>21.4</ele>
        <time>2020-06-18T14:16:53Z</time>
      </trkpt>
      <trkpt lat="50.01262" lon="1.30515">
        <ele>21.3</ele>
        <time>2020-06-18T14:16:54Z</time>
      </trkpt>
      <trkpt lat="50.01262" lon="1.30521">
        <ele>21.2</ele>
        <time>2020-06-18T14:16:55Z</time>
      </trkpt>
      <trkpt lat="50.01263" lon="1.30528">
        <ele>21</ele>
        <time>2020-06-18T14:16:56Z</time>
      </trkpt>
      <trkpt lat="50.01264" lon="1.30534">
        <ele>20.9</ele>
        <time>2020-06-18T14:16:57Z</time>
      </trkpt>
      <trkpt lat="50.01266" lon="1.30541">
        <ele>20.8</ele>
        <time>2020-06-18T14:16:58Z</time>
      </trkpt>
      <trkpt lat="50.01267" lon="1.30548">
        <ele>20.6</ele>
        <time>2020-06-18T14:16:59Z</time>
      </trkpt>
      <trkpt lat="50.01269" lon="1.30557">
        <ele>20.5</ele>
        <time>2020-06-18T14:17:00Z</time>
      </trkpt>
      <trkpt lat="50.01271" lon="1.30566">
        <ele>20.3</ele>
        <time>2020-06-18T14:17:01Z</time>
      </trkpt>
      <trkpt lat="50.01272" lon="1.30573">
        <ele>20.1</ele>
        <time>2020-06-18T14:17:02Z</time>
      </trkpt>
      <trkpt lat="50.01274" lon="1.30581">
        <ele>20</ele>
        <time>2020-06-18T14:17:03Z</time>
      </trkpt>
      <trkpt lat="50.01276" lon="1.30591">
        <ele>19.8</ele>
        <time>2020-06-18T14:17:04Z</time>
      </trkpt>
      <trkpt lat="50.01279" lon="1.30601">
        <ele>19.6</ele>
        <time>2020-06-18T14:17:05Z</time>
      </trkpt>
      <trkpt lat="50.01282" lon="1.30611">
        <ele>19.4</ele>
        <time>2020-06-18T14:17:06Z</time>
      </trkpt>
      <trkpt lat="50.01284" lon="1.30619">
        <ele>19.2</ele>
        <time>2020-06-18T14:17:07Z</time>
      </trkpt>
      <trkpt lat="50.01286" lon="1.30626">
        <ele>19.1</ele>
        <time>2020-06-18T14:17:08Z</time>
      </trkpt>
      <trkpt lat="50.01288" lon="1.30633">
        <ele>18.9</ele>
        <time>2020-06-18T14:17:09Z</time>
      </trkpt>
      <trkpt lat="50.01289" lon="1.3064">
        <ele>18.8</ele>
        <time>2020-06-18T14:17:10Z</time>
      </trkpt>
      <trkpt lat="50.01291" lon="1.30648">
        <ele>18.6</ele>
        <time>2020-06-18T14:17:11Z</time>
      </trkpt>
      <trkpt lat="50.01293" lon="1.30657">
        <ele>18.5</ele>
        <time>2020-06-18T14:17:12Z</time>
      </trkpt>
      <trkpt lat="50.01295" lon="1.30664">
        <ele>18.3</ele>
        <time>2020-06-18T14:17:13Z</time>
      </trkpt>
      <trkpt lat="50.01298" lon="1.30674">
        <ele>18.2</ele>
        <time>2020-06-18T14:17:14Z</time>
      </trkpt>
      <trkpt lat="50.013" lon="1.30681">
        <ele>18</ele>
        <time>2020-06-18T14:17:15Z</time>
      </trkpt>
      <trkpt lat="50.01302" lon="1.30688">
        <ele>17.9</ele>
        <time>2020-06-18T14:17:16Z</time>
      </trkpt>
      <trkpt lat="50.01305" lon="1.30696">
        <ele>17.7</ele>
        <time>2020-06-18T14:17:17Z</time>
      </trkpt>
      <trkpt lat="50.01308" lon="1.30704">
        <ele>17.5</ele>
        <time>2020-06-18T14:17:18Z</time>
      </trkpt>
      <trkpt lat="50.01311" lon="1.30711">
        <ele>17.4</ele>
        <time>2020-06-18T14:17:19Z</time>
      </trkpt>
      <trkpt lat="50.01314" lon="1.3072">
        <ele>17.2</ele>
        <time>2020-06-18T14:17:20Z</time>
      </trkpt>
      <trkpt lat="50.01317" lon="1.30729">
        <ele>17</ele>
        <time>2020-06-18T14:17:21Z</time>
      </trkpt>
      <trkpt lat="50.0132" lon="1.30735">
        <ele>16.9</ele>
        <time>2020-06-18T14:17:22Z</time>
      </trkpt>
      <trkpt lat="50.01323" lon="1.30743">
        <ele>16.7</ele>
        <time>2020-06-18T14:17:23Z</time>
      </trkpt>
      <trkpt lat="50.01326" lon="1.30752">
        <ele>16.5</ele>
        <time>2020-06-18T14:17:24Z</time>
      </trkpt>
      <trkpt lat="50.0133" lon="1.30762">
        <ele>16.3</ele>
        <time>2020-06-18T14:17:25Z</time>
      </trkpt>
      <trkpt lat="50.01333" lon="1.30773">
        <ele>16.1</ele>
        <time>2020-06-18T14:17:26Z</time>
      </trkpt>
      <trkpt lat="50.01336" lon="1.30782">
        <ele>16</ele>
        <time>2020-06-18T14:17:27Z</time>
      </trkpt>
      <trkpt lat="50.01339" lon="1.30794">
        <ele>15.7</ele>
        <time>2020-06-18T14:17:28Z</time>
      </trkpt>
      <trkpt lat="50.01341" lon="1.30803">
        <ele>15.6</ele>
        <time>2020-06-18T14:17:29Z</time>
      </trkpt>
      <trkpt lat="50.01343" lon="1.30812">
        <ele>15.4</ele>
        <time>2020-06-18T14:17:30Z</time>
      </trkpt>
      <trkpt lat="50.01347" lon="1.30823">
        <ele>15.2</ele>
        <time>2020-06-18T14:17:31Z</time>
      </trkpt>
      <trkpt lat="50.0135" lon="1.30832">
        <ele>15</ele>
        <time>2020-06-18T14:17:32Z</time>
      </trkpt>
      <trkpt lat="50.01352" lon="1.30842">
        <ele>14.8</ele>
        <time>2020-06-18T14:17:33Z</time>
      </trkpt>
      <trkpt lat="50.01355" lon="1.30851">
        <ele>14.7</ele>
        <time>2020-06-18T14:17:34Z</time>
      </trkpt>
      <trkpt lat="50.01358" lon="1.3086">
        <ele>14.5</ele>
        <time>2020-06-18T14:17:35Z</time>
      </trkpt>
      <trkpt lat="50.01361" lon="1.3087">
        <ele>14.3</ele>
        <time>2020-06-18T14:17:36Z</time>
      </trkpt>
      <trkpt lat="50.01363" lon="1.30878">
        <ele>14.1</ele>
        <time>2020-06-18T14:17:37Z</time>
      </trkpt>
      <trkpt lat="50.01366" lon="1.30889">
        <ele>14</ele>
        <time>2020-06-18T14:17:38Z</time>
      </trkpt>
      <trkpt lat="50.01369" lon="1.30897">
        <ele>13.8</ele>
        <time>2020-06-18T14:17:39Z</time>
      </trkpt>
      <trkpt lat="50.01372" lon="1.30906">
        <ele>13.7</ele>
        <time>2020-06-18T14:17:40Z</time>
      </trkpt>
      <trkpt lat="50.01373" lon="1.3091">
        <ele>13.6</ele>
        <time>2020-06-18T14:17:41Z</time>
      </trkpt>
      <trkpt lat="50.01374" lon="1.30917">
        <ele>13.5</ele>
        <time>2020-06-18T14:17:42Z</time>
      </trkpt>
      <trkpt lat="50.01375" lon="1.30922">
        <ele>13.5</ele>
        <time>2020-06-18T14:17:43Z</time>
      </trkpt>
      <trkpt lat="50.01374" lon="1.30928">
        <ele>13.4</ele>
        <time>2020-06-18T14:17:44Z</time>
      </trkpt>
      <trkpt lat="50.01372" lon="1.30932">
        <ele>13.3</ele>
        <time>2020-06-18T14:17:45Z</time>
      </trkpt>
      <trkpt lat="50.01369" lon="1.30937">
        <ele>13.2</ele>
        <time>2020-06-18T14:17:46Z</time>
      </trkpt>
      <trkpt lat="50.01368" lon="1.30942">
        <ele>13.1</ele>
        <time>2020-06-18T14:17:47Z</time>
      </trkpt>
      <trkpt lat="50.01366" lon="1.30948">
        <ele>13</ele>
        <time>2020-06-18T14:17:48Z</time>
      </trkpt>
      <trkpt lat="50.01367" lon="1.30954">
        <ele>12.9</ele>
        <time>2020-06-18T14:17:49Z</time>
      </trkpt>
      <trkpt lat="50.01369" lon="1.30958">
        <ele>12.8</ele>
        <time>2020-06-18T14:17:50Z</time>
      </trkpt>
      <trkpt lat="50.01372" lon="1.30963">
        <ele>12.7</ele>
        <time>2020-06-18T14:17:51Z</time>
      </trkpt>
      <trkpt lat="50.01375" lon="1.30968">
        <ele>12.6</ele>
        <time>2020-06-18T14:17:52Z</time>
      </trkpt>
      <trkpt lat="50.01378" lon="1.30975">
        <ele>12.5</ele>
        <time>2020-06-18T14:17:53Z</time>
      </trkpt>
      <trkpt lat="50.01381" lon="1.30984">
        <ele>12.4</ele>
        <time>2020-06-18T14:17:54Z</time>
      </trkpt>
      <trkpt lat="50.01385" lon="1.30992">
        <ele>12.3</ele>
        <time>2020-06-18T14:17:55Z</time>
      </trkpt>
      <trkpt lat="50.01388" lon="1.30998">
        <ele>12.2</ele>
        <time>2020-06-18T14:17:56Z</time>
      </trkpt>
      <trkpt lat="50.01391" lon="1.31004">
        <ele>12.1</ele>
        <time>2020-06-18T14:17:57Z</time>
      </trkpt>
      <trkpt lat="50.01396" lon="1.31011">
        <ele>12.1</ele>
        <time>2020-06-18T14:17:58Z</time>
      </trkpt>
      <trkpt lat="50.01399" lon="1.31018">
        <ele>12</ele>
        <time>2020-06-18T14:17:59Z</time>
      </trkpt>
      <trkpt lat="50.01404" lon="1.31025">
        <ele>11.8</ele>
        <time>2020-06-18T14:18:00Z</time>
      </trkpt>
      <trkpt lat="50.01409" lon="1.31033">
        <ele>11.6</ele>
        <time>2020-06-18T14:18:01Z</time>
      </trkpt>
      <trkpt lat="50.01414" lon="1.3104">
        <ele>11.4</ele>
        <time>2020-06-18T14:18:02Z</time>
      </trkpt>
      <trkpt lat="50.01419" lon="1.31048">
        <ele>11.3</ele>
        <time>2020-06-18T14:18:03Z</time>
      </trkpt>
      <trkpt lat="50.01423" lon="1.31056">
        <ele>11.1</ele>
        <time>2020-06-18T14:18:04Z</time>
      </trkpt>
      <trkpt lat="50.01428" lon="1.31065">
        <ele>11</ele>
        <time>2020-06-18T14:18:05Z</time>
      </trkpt>
      <trkpt lat="50.01432" lon="1.31073">
        <ele>10.8</ele>
        <time>2020-06-18T14:18:06Z</time>
      </trkpt>
      <trkpt lat="50.01437" lon="1.31082">
        <ele>10.6</ele>
        <time>2020-06-18T14:18:07Z</time>
      </trkpt>
      <trkpt lat="50.01441" lon="1.31091">
        <ele>10.5</ele>
        <time>2020-06-18T14:18:08Z</time>
      </trkpt>
      <trkpt lat="50.01446" lon="1.311">
        <ele>10.5</ele>
        <time>2020-06-18T14:18:09Z</time>
      </trkpt>
      <trkpt lat="50.0145" lon="1.31109">
        <ele>10.4</ele>
        <time>2020-06-18T14:18:10Z</time>
      </trkpt>
      <trkpt lat="50.01454" lon="1.31118">
        <ele>10.3</ele>
        <time>2020-06-18T14:18:11Z</time>
      </trkpt>
      <trkpt lat="50.01458" lon="1.31126">
        <ele>10.2</ele>
        <time>2020-06-18T14:18:12Z</time>
      </trkpt>
      <trkpt lat="50.01462" lon="1.31133">
        <ele>10.2</ele>
        <time>2020-06-18T14:18:13Z</time>
      </trkpt>
      <trkpt lat="50.01465" lon="1.31141">
        <ele>10.1</ele>
        <time>2020-06-18T14:18:14Z</time>
      </trkpt>
      <trkpt lat="50.01468" lon="1.31149">
        <ele>10</ele>
        <time>2020-06-18T14:18:15Z</time>
      </trkpt>
      <trkpt lat="50.01471" lon="1.31158">
        <ele>10</ele>
        <time>2020-06-18T14:18:16Z</time>
      </trkpt>
      <trkpt lat="50.01472" lon="1.31166">
        <ele>9.9</ele>
        <time>2020-06-18T14:18:17Z</time>
      </trkpt>
      <trkpt lat="50.01473" lon="1.31175">
        <ele>9.9</ele>
        <time>2020-06-18T14:18:18Z</time>
      </trkpt>
      <trkpt lat="50.01475" lon="1.31183">
        <ele>9.9</ele>
        <time>2020-06-18T14:18:19Z</time>
      </trkpt>
      <trkpt lat="50.01478" lon="1.3119">
        <ele>9.9</ele>
        <time>2020-06-18T14:18:20Z</time>
      </trkpt>
      <trkpt lat="50.0148" lon="1.31198">
        <ele>9.9</ele>
        <time>2020-06-18T14:18:21Z</time>
      </trkpt>
      <trkpt lat="50.01481" lon="1.31206">
        <ele>9.9</ele>
        <time>2020-06-18T14:18:22Z</time>
      </trkpt>
      <trkpt lat="50.01483" lon="1.31215">
        <ele>9.8</ele>
        <time>2020-06-18T14:18:23Z</time>
      </trkpt>
      <trkpt lat="50.01486" lon="1.31224">
        <ele>9.8</ele>
        <time>2020-06-18T14:18:24Z</time>
      </trkpt>
      <trkpt lat="50.01487" lon="1.31233">
        <ele>9.7</ele>
        <time>2020-06-18T14:18:25Z</time>
      </trkpt>
      <trkpt lat="50.01489" lon="1.31243">
        <ele>9.7</ele>
        <time>2020-06-18T14:18:26Z</time>
      </trkpt>
      <trkpt lat="50.0149" lon="1.31252">
        <ele>9.6</ele>
        <time>2020-06-18T14:18:27Z</time>
      </trkpt>
      <trkpt lat="50.01491" lon="1.31261">
        <ele>9.6</ele>
        <time>2020-06-18T14:18:28Z</time>
      </trkpt>
      <trkpt lat="50.01491" lon="1.31272">
        <ele>9.5</ele>
        <time>2020-06-18T14:18:29Z</time>
      </trkpt>
      <trkpt lat="50.01494" lon="1.31285">
        <ele>9.4</ele>
        <time>2020-06-18T14:18:30Z</time>
      </trkpt>
      <trkpt lat="50.01495" lon="1.31295">
        <ele>9.4</ele>
        <time>2020-06-18T14:18:31Z</time>
      </trkpt>
      <trkpt lat="50.01495" lon="1.31305">
        <ele>9.3</ele>
        <time>2020-06-18T14:18:32Z</time>
      </trkpt>
      <trkpt lat="50.01497" lon="1.31313">
        <ele>9.3</ele>
        <time>2020-06-18T14:18:33Z</time>
      </trkpt>
      <trkpt lat="50.01498" lon="1.31322">
        <ele>9.2</ele>
        <time>2020-06-18T14:18:34Z</time>
      </trkpt>
      <trkpt lat="50.01501" lon="1.31331">
        <ele>9.2</ele>
        <time>2020-06-18T14:18:35Z</time>
      </trkpt>
      <trkpt lat="50.01504" lon="1.3134">
        <ele>9.1</ele>
        <time>2020-06-18T14:18:36Z</time>
      </trkpt>
      <trkpt lat="50.01506" lon="1.31349">
        <ele>9.1</ele>
        <time>2020-06-18T14:18:37Z</time>
      </trkpt>
      <trkpt lat="50.01509" lon="1.31357">
        <ele>9.1</ele>
        <time>2020-06-18T14:18:38Z</time>
      </trkpt>
      <trkpt lat="50.01511" lon="1.31367">
        <ele>9.1</ele>
        <time>2020-06-18T14:18:39Z</time>
      </trkpt>
      <trkpt lat="50.01512" lon="1.31376">
        <ele>9.1</ele>
        <time>2020-06-18T14:18:40Z</time>
      </trkpt>
      <trkpt lat="50.01515" lon="1.31385">
        <ele>9.1</ele>
        <time>2020-06-18T14:18:41Z</time>
      </trkpt>
      <trkpt lat="50.01516" lon="1.31394">
        <ele>9.1</ele>
        <time>2020-06-18T14:18:42Z</time>
      </trkpt>
      <trkpt lat="50.01517" lon="1.31403">
        <ele>9.1</ele>
        <time>2020-06-18T14:18:43Z</time>
      </trkpt>
      <trkpt lat="50.01519" lon="1.31414">
        <ele>9</ele>
        <time>2020-06-18T14:18:44Z</time>
      </trkpt>
      <trkpt lat="50.01521" lon="1.31421">
        <ele>9</ele>
        <time>2020-06-18T14:18:45Z</time>
      </trkpt>
      <trkpt lat="50.01522" lon="1.31428">
        <ele>9</ele>
        <time>2020-06-18T14:18:46Z</time>
      </trkpt>
      <trkpt lat="50.01523" lon="1.31435">
        <ele>9</ele>
        <time>2020-06-18T14:18:47Z</time>
      </trkpt>
      <trkpt lat="50.01526" lon="1.31444">
        <ele>9</ele>
        <time>2020-06-18T14:18:48Z</time>
      </trkpt>
      <trkpt lat="50.01528" lon="1.31451">
        <ele>9</ele>
        <time>2020-06-18T14:18:49Z</time>
      </trkpt>
      <trkpt lat="50.0153" lon="1.3146">
        <ele>9</ele>
        <time>2020-06-18T14:18:50Z</time>
      </trkpt>
      <trkpt lat="50.01533" lon="1.3147">
        <ele>9</ele>
        <time>2020-06-18T14:18:51Z</time>
      </trkpt>
      <trkpt lat="50.01537" lon="1.31482">
        <ele>9</ele>
        <time>2020-06-18T14:18:52Z</time>
      </trkpt>
      <trkpt lat="50.0154" lon="1.31489">
        <ele>9</ele>
        <time>2020-06-18T14:18:53Z</time>
      </trkpt>
      <trkpt lat="50.01542" lon="1.31496">
        <ele>9.1</ele>
        <time>2020-06-18T14:18:54Z</time>
      </trkpt>
      <trkpt lat="50.01545" lon="1.31504">
        <ele>9.1</ele>
        <time>2020-06-18T14:18:55Z</time>
      </trkpt>
      <trkpt lat="50.01549" lon="1.31512">
        <ele>9.2</ele>
        <time>2020-06-18T14:18:56Z</time>
      </trkpt>
      <trkpt lat="50.01552" lon="1.31521">
        <ele>9.3</ele>
        <time>2020-06-18T14:18:57Z</time>
      </trkpt>
      <trkpt lat="50.01554" lon="1.31531">
        <ele>9.4</ele>
        <time>2020-06-18T14:18:58Z</time>
      </trkpt>
      <trkpt lat="50.01557" lon="1.3154">
        <ele>9.5</ele>
        <time>2020-06-18T14:18:59Z</time>
      </trkpt>
      <trkpt lat="50.01558" lon="1.31549">
        <ele>9.6</ele>
        <time>2020-06-18T14:19:00Z</time>
      </trkpt>
      <trkpt lat="50.01559" lon="1.31558">
        <ele>9.7</ele>
        <time>2020-06-18T14:19:01Z</time>
      </trkpt>
      <trkpt lat="50.0156" lon="1.31568">
        <ele>9.8</ele>
        <time>2020-06-18T14:19:02Z</time>
      </trkpt>
      <trkpt lat="50.01563" lon="1.31576">
        <ele>9.7</ele>
        <time>2020-06-18T14:19:03Z</time>
      </trkpt>
      <trkpt lat="50.01566" lon="1.31584">
        <ele>9.7</ele>
        <time>2020-06-18T14:19:04Z</time>
      </trkpt>
      <trkpt lat="50.01568" lon="1.31591">
        <ele>9.7</ele>
        <time>2020-06-18T14:19:05Z</time>
      </trkpt>
      <trkpt lat="50.0157" lon="1.31599">
        <ele>9.6</ele>
        <time>2020-06-18T14:19:06Z</time>
      </trkpt>
      <trkpt lat="50.01574" lon="1.31608">
        <ele>9.6</ele>
        <time>2020-06-18T14:19:07Z</time>
      </trkpt>
      <trkpt lat="50.01577" lon="1.31616">
        <ele>9.6</ele>
        <time>2020-06-18T14:19:08Z</time>
      </trkpt>
      <trkpt lat="50.01582" lon="1.31626">
        <ele>9.7</ele>
        <time>2020-06-18T14:19:09Z</time>
      </trkpt>
      <trkpt lat="50.01585" lon="1.31633">
        <ele>9.7</ele>
        <time>2020-06-18T14:19:10Z</time>
      </trkpt>
      <trkpt lat="50.01589" lon="1.31639">
        <ele>9.7</ele>
        <time>2020-06-18T14:19:11Z</time>
      </trkpt>
      <trkpt lat="50.01593" lon="1.31646">
        <ele>9.6</ele>
        <time>2020-06-18T14:19:12Z</time>
      </trkpt>
      <trkpt lat="50.01596" lon="1.31651">
        <ele>9.6</ele>
        <time>2020-06-18T14:19:13Z</time>
      </trkpt>
      <trkpt lat="50.01599" lon="1.31656">
        <ele>9.6</ele>
        <time>2020-06-18T14:19:14Z</time>
      </trkpt>
      <trkpt lat="50.01605" lon="1.31663">
        <ele>9.5</ele>
        <time>2020-06-18T14:19:15Z</time>
      </trkpt>
      <trkpt lat="50.01609" lon="1.31669">
        <ele>9.4</ele>
        <time>2020-06-18T14:19:16Z</time>
      </trkpt>
      <trkpt lat="50.01612" lon="1.31677">
        <ele>9.2</ele>
        <time>2020-06-18T14:19:17Z</time>
      </trkpt>
      <trkpt lat="50.01615" lon="1.31683">
        <ele>9.2</ele>
        <time>2020-06-18T14:19:18Z</time>
      </trkpt>
      <trkpt lat="50.01618" lon="1.31691">
        <ele>9.1</ele>
        <time>2020-06-18T14:19:19Z</time>
      </trkpt>
      <trkpt lat="50.01621" lon="1.31699">
        <ele>9.1</ele>
        <time>2020-06-18T14:19:20Z</time>
      </trkpt>
      <trkpt lat="50.01623" lon="1.31706">
        <ele>9.1</ele>
        <time>2020-06-18T14:19:21Z</time>
      </trkpt>
      <trkpt lat="50.01626" lon="1.31715">
        <ele>9</ele>
        <time>2020-06-18T14:19:22Z</time>
      </trkpt>
      <trkpt lat="50.01628" lon="1.3172">
        <ele>9</ele>
        <time>2020-06-18T14:19:23Z</time>
      </trkpt>
      <trkpt lat="50.01631" lon="1.31726">
        <ele>9</ele>
        <time>2020-06-18T14:19:24Z</time>
      </trkpt>
      <trkpt lat="50.01633" lon="1.31733">
        <ele>8.9</ele>
        <time>2020-06-18T14:19:25Z</time>
      </trkpt>
      <trkpt lat="50.01635" lon="1.3174">
        <ele>8.9</ele>
        <time>2020-06-18T14:19:26Z</time>
      </trkpt>
      <trkpt lat="50.01637" lon="1.31745">
        <ele>8.9</ele>
        <time>2020-06-18T14:19:27Z</time>
      </trkpt>
      <trkpt lat="50.01638" lon="1.31751">
        <ele>8.9</ele>
        <time>2020-06-18T14:19:28Z</time>
      </trkpt>
      <trkpt lat="50.01638" lon="1.31758">
        <ele>8.9</ele>
        <time>2020-06-18T14:19:29Z</time>
      </trkpt>
      <trkpt lat="50.01639" lon="1.31765">
        <ele>8.8</ele>
        <time>2020-06-18T14:19:30Z</time>
      </trkpt>
      <trkpt lat="50.01641" lon="1.31772">
        <ele>8.8</ele>
        <time>2020-06-18T14:19:31Z</time>
      </trkpt>
      <trkpt lat="50.01642" lon="1.3178">
        <ele>8.8</ele>
        <time>2020-06-18T14:19:32Z</time>
      </trkpt>
      <trkpt lat="50.01643" lon="1.31788">
        <ele>8.8</ele>
        <time>2020-06-18T14:19:33Z</time>
      </trkpt>
      <trkpt lat="50.01645" lon="1.31797">
        <ele>8.9</ele>
        <time>2020-06-18T14:19:34Z</time>
      </trkpt>
      <trkpt lat="50.01647" lon="1.31807">
        <ele>8.9</ele>
        <time>2020-06-18T14:19:35Z</time>
      </trkpt>
      <trkpt lat="50.01649" lon="1.31815">
        <ele>9</ele>
        <time>2020-06-18T14:19:36Z</time>
      </trkpt>
      <trkpt lat="50.0165" lon="1.31824">
        <ele>9.1</ele>
        <time>2020-06-18T14:19:37Z</time>
      </trkpt>
      <trkpt lat="50.01652" lon="1.31833">
        <ele>9.2</ele>
        <time>2020-06-18T14:19:38Z</time>
      </trkpt>
      <trkpt lat="50.01654" lon="1.31841">
        <ele>9.3</ele>
        <time>2020-06-18T14:19:39Z</time>
      </trkpt>
      <trkpt lat="50.01655" lon="1.31849">
        <ele>9.4</ele>
        <time>2020-06-18T14:19:40Z</time>
      </trkpt>
      <trkpt lat="50.01656" lon="1.31856">
        <ele>9.4</ele>
        <time>2020-06-18T14:19:41Z</time>
      </trkpt>
      <trkpt lat="50.01656" lon="1.3186">
        <ele>9.5</ele>
        <time>2020-06-18T14:19:42Z</time>
      </trkpt>
      <trkpt lat="50.01657" lon="1.31865">
        <ele>9.5</ele>
        <time>2020-06-18T14:19:43Z</time>
      </trkpt>
      <trkpt lat="50.01659" lon="1.31871">
        <ele>9.6</ele>
        <time>2020-06-18T14:19:44Z</time>
      </trkpt>
      <trkpt lat="50.01661" lon="1.31876">
        <ele>9.7</ele>
        <time>2020-06-18T14:19:45Z</time>
      </trkpt>
      <trkpt lat="50.01663" lon="1.31882">
        <ele>9.8</ele>
        <time>2020-06-18T14:19:46Z</time>
      </trkpt>
      <trkpt lat="50.01664" lon="1.31886">
        <ele>9.9</ele>
        <time>2020-06-18T14:19:47Z</time>
      </trkpt>
      <trkpt lat="50.01665" lon="1.3189">
        <ele>10</ele>
        <time>2020-06-18T14:19:48Z</time>
      </trkpt>
      <trkpt lat="50.01666" lon="1.31896">
        <ele>10.1</ele>
        <time>2020-06-18T14:19:49Z</time>
      </trkpt>
      <trkpt lat="50.01667" lon="1.31902">
        <ele>10.2</ele>
        <time>2020-06-18T14:19:50Z</time>
      </trkpt>
      <trkpt lat="50.01669" lon="1.31909">
        <ele>10.3</ele>
        <time>2020-06-18T14:19:51Z</time>
      </trkpt>
      <trkpt lat="50.0167" lon="1.31915">
        <ele>10.5</ele>
        <time>2020-06-18T14:19:52Z</time>
      </trkpt>
      <trkpt lat="50.0167" lon="1.31921">
        <ele>10.6</ele>
        <time>2020-06-18T14:19:53Z</time>
      </trkpt>
      <trkpt lat="50.01671" lon="1.31927">
        <ele>10.9</ele>
        <time>2020-06-18T14:19:54Z</time>
      </trkpt>
      <trkpt lat="50.01673" lon="1.31932">
        <ele>11.1</ele>
        <time>2020-06-18T14:19:55Z</time>
      </trkpt>
      <trkpt lat="50.01676" lon="1.31939">
        <ele>11.3</ele>
        <time>2020-06-18T14:19:56Z</time>
      </trkpt>
      <trkpt lat="50.01676" lon="1.31944">
        <ele>11.5</ele>
        <time>2020-06-18T14:19:57Z</time>
      </trkpt>
      <trkpt lat="50.01678" lon="1.3195">
        <ele>11.7</ele>
        <time>2020-06-18T14:19:58Z</time>
      </trkpt>
      <trkpt lat="50.01679" lon="1.31952">
        <ele>11.8</ele>
        <time>2020-06-18T14:19:59Z</time>
      </trkpt>
      <trkpt lat="50.01678" lon="1.31956">
        <ele>12</ele>
        <time>2020-06-18T14:20:00Z</time>
      </trkpt>
      <trkpt lat="50.01678" lon="1.31961">
        <ele>12</ele>
        <time>2020-06-18T14:20:01Z</time>
      </trkpt>
      <trkpt lat="50.01679" lon="1.31966">
        <ele>12</ele>
        <time>2020-06-18T14:20:02Z</time>
      </trkpt>
      <trkpt lat="50.01679" lon="1.31967">
        <ele>12</ele>
        <time>2020-06-18T14:20:03Z</time>
      </trkpt>
      <trkpt lat="50.0168" lon="1.31972">
        <ele>12</ele>
        <time>2020-06-18T14:20:04Z</time>
      </trkpt>
      <trkpt lat="50.01681" lon="1.31974">
        <ele>12.1</ele>
        <time>2020-06-18T14:20:05Z</time>
      </trkpt>
      <trkpt lat="50.01682" lon="1.31977">
        <ele>12.1</ele>
        <time>2020-06-18T14:20:06Z</time>
      </trkpt>
      <trkpt lat="50.01685" lon="1.31981">
        <ele>12.2</ele>
        <time>2020-06-18T14:20:07Z</time>
      </trkpt>
      <trkpt lat="50.01686" lon="1.31983">
        <ele>12.2</ele>
        <time>2020-06-18T14:20:08Z</time>
      </trkpt>
      <trkpt lat="50.01688" lon="1.31987">
        <ele>12.3</ele>
        <time>2020-06-18T14:20:09Z</time>
      </trkpt>
      <trkpt lat="50.01689" lon="1.31988">
        <ele>12.3</ele>
        <time>2020-06-18T14:20:10Z</time>
      </trkpt>
      <trkpt lat="50.01692" lon="1.31991">
        <ele>12.5</ele>
        <time>2020-06-18T14:20:11Z</time>
      </trkpt>
      <trkpt lat="50.01694" lon="1.31992">
        <ele>12.5</ele>
        <time>2020-06-18T14:20:12Z</time>
      </trkpt>
      <trkpt lat="50.01697" lon="1.31994">
        <ele>12.6</ele>
        <time>2020-06-18T14:20:13Z</time>
      </trkpt>
      <trkpt lat="50.01699" lon="1.31996">
        <ele>12.7</ele>
        <time>2020-06-18T14:20:14Z</time>
      </trkpt>
      <trkpt lat="50.01702" lon="1.31998">
        <ele>12.8</ele>
        <time>2020-06-18T14:20:15Z</time>
      </trkpt>
      <trkpt lat="50.01707" lon="1.32001">
        <ele>12.9</ele>
        <time>2020-06-18T14:20:16Z</time>
      </trkpt>
      <trkpt lat="50.0171" lon="1.32003">
        <ele>13</ele>
        <time>2020-06-18T14:20:17Z</time>
      </trkpt>
      <trkpt lat="50.01713" lon="1.32006">
        <ele>13.1</ele>
        <time>2020-06-18T14:20:18Z</time>
      </trkpt>
      <trkpt lat="50.01716" lon="1.32009">
        <ele>13.2</ele>
        <time>2020-06-18T14:20:19Z</time>
      </trkpt>
      <trkpt lat="50.0172" lon="1.32011">
        <ele>13.4</ele>
        <time>2020-06-18T14:20:20Z</time>
      </trkpt>
      <trkpt lat="50.01723" lon="1.32012">
        <ele>13.5</ele>
        <time>2020-06-18T14:20:21Z</time>
      </trkpt>
      <trkpt lat="50.01727" lon="1.32013">
        <ele>13.6</ele>
        <time>2020-06-18T14:20:22Z</time>
      </trkpt>
      <trkpt lat="50.0173" lon="1.32015">
        <ele>13.7</ele>
        <time>2020-06-18T14:20:23Z</time>
      </trkpt>
      <trkpt lat="50.01734" lon="1.32018">
        <ele>13.8</ele>
        <time>2020-06-18T14:20:24Z</time>
      </trkpt>
      <trkpt lat="50.01739" lon="1.3202">
        <ele>14</ele>
        <time>2020-06-18T14:20:25Z</time>
      </trkpt>
      <trkpt lat="50.01742" lon="1.32021">
        <ele>14.1</ele>
        <time>2020-06-18T14:20:26Z</time>
      </trkpt>
      <trkpt lat="50.01745" lon="1.32024">
        <ele>14.2</ele>
        <time>2020-06-18T14:20:27Z</time>
      </trkpt>
      <trkpt lat="50.01748" lon="1.32027">
        <ele>14.3</ele>
        <time>2020-06-18T14:20:28Z</time>
      </trkpt>
      <trkpt lat="50.01752" lon="1.32029">
        <ele>14.4</ele>
        <time>2020-06-18T14:20:29Z</time>
      </trkpt>
      <trkpt lat="50.01754" lon="1.3203">
        <ele>14.5</ele>
        <time>2020-06-18T14:20:30Z</time>
      </trkpt>
      <trkpt lat="50.01758" lon="1.32032">
        <ele>14.6</ele>
        <time>2020-06-18T14:20:31Z</time>
      </trkpt>
      <trkpt lat="50.0176" lon="1.32035">
        <ele>14.7</ele>
        <time>2020-06-18T14:20:32Z</time>
      </trkpt>
      <trkpt lat="50.01763" lon="1.32036">
        <ele>14.9</ele>
        <time>2020-06-18T14:20:33Z</time>
      </trkpt>
      <trkpt lat="50.01764" lon="1.32037">
        <ele>14.9</ele>
        <time>2020-06-18T14:20:34Z</time>
      </trkpt>
      <trkpt lat="50.01767" lon="1.32038">
        <ele>15</ele>
        <time>2020-06-18T14:20:35Z</time>
      </trkpt>
      <trkpt lat="50.0177" lon="1.32039">
        <ele>15.1</ele>
        <time>2020-06-18T14:20:36Z</time>
      </trkpt>
      <trkpt lat="50.01772" lon="1.32039">
        <ele>15.1</ele>
        <time>2020-06-18T14:20:37Z</time>
      </trkpt>
      <trkpt lat="50.01772" lon="1.32039">
        <ele>15.1</ele>
        <time>2020-06-18T14:20:38Z</time>
      </trkpt>
      <trkpt lat="50.01772" lon="1.32039">
        <ele>15.1</ele>
        <time>2020-06-18T14:20:39Z</time>
      </trkpt>
      <trkpt lat="50.01773" lon="1.32039">
        <ele>15.1</ele>
        <time>2020-06-18T14:20:40Z</time>
      </trkpt>
      <trkpt lat="50.01773" lon="1.32038">
        <ele>15.1</ele>
        <time>2020-06-18T14:20:41Z</time>
      </trkpt>
      <trkpt lat="50.01773" lon="1.32038">
        <ele>15.1</ele>
        <time>2020-06-18T14:20:42Z</time>
      </trkpt>
      <trkpt lat="50.01773" lon="1.32038">
        <ele>15.1</ele>
        <time>2020-06-18T14:20:43Z</time>
      </trkpt>
      <trkpt lat="50.01774" lon="1.32038">
        <ele>15.1</ele>
        <time>2020-06-18T14:20:44Z</time>
      </trkpt>
      <trkpt lat="50.01774" lon="1.32038">
        <ele>15.1</ele>
        <time>2020-06-18T14:20:45Z</time>
      </trkpt>
      <trkpt lat="50.01774" lon="1.32038">
        <ele>15.1</ele>
        <time>2020-06-18T14:20:46Z</time>
      </trkpt>
      <trkpt lat="50.01775" lon="1.32037">
        <ele>15</ele>
        <time>2020-06-18T14:20:47Z</time>
      </trkpt>
      <trkpt lat="50.01773" lon="1.32027">
        <ele>14.9</ele>
        <time>2020-06-18T14:20:56Z</time>
      </trkpt>
      <trkpt lat="50.01772" lon="1.32026">
        <ele>14.9</ele>
        <time>2020-06-18T14:20:57Z</time>
      </trkpt>
      <trkpt lat="50.0177" lon="1.32023">
        <ele>14.9</ele>
        <time>2020-06-18T14:20:58Z</time>
      </trkpt>
      <trkpt lat="50.01769" lon="1.32023">
        <ele>14.9</ele>
        <time>2020-06-18T14:20:59Z</time>
      </trkpt>
      <trkpt lat="50.01766" lon="1.3202">
        <ele>14.8</ele>
        <time>2020-06-18T14:21:00Z</time>
      </trkpt>
      <trkpt lat="50.01765" lon="1.32019">
        <ele>14.8</ele>
        <time>2020-06-18T14:21:01Z</time>
      </trkpt>
      <trkpt lat="50.01763" lon="1.32017">
        <ele>14.6</ele>
        <time>2020-06-18T14:21:02Z</time>
      </trkpt>
      <trkpt lat="50.01759" lon="1.32015">
        <ele>14.5</ele>
        <time>2020-06-18T14:21:03Z</time>
      </trkpt>
      <trkpt lat="50.01758" lon="1.32014">
        <ele>14.4</ele>
        <time>2020-06-18T14:21:04Z</time>
      </trkpt>
      <trkpt lat="50.01754" lon="1.32012">
        <ele>14.3</ele>
        <time>2020-06-18T14:21:05Z</time>
      </trkpt>
      <trkpt lat="50.0175" lon="1.32009">
        <ele>14.2</ele>
        <time>2020-06-18T14:21:06Z</time>
      </trkpt>
      <trkpt lat="50.01747" lon="1.32009">
        <ele>14.1</ele>
        <time>2020-06-18T14:21:07Z</time>
      </trkpt>
      <trkpt lat="50.01743" lon="1.32008">
        <ele>14</ele>
        <time>2020-06-18T14:21:08Z</time>
      </trkpt>
      <trkpt lat="50.0174" lon="1.32007">
        <ele>13.9</ele>
        <time>2020-06-18T14:21:09Z</time>
      </trkpt>
      <trkpt lat="50.01737" lon="1.32005">
        <ele>13.8</ele>
        <time>2020-06-18T14:21:10Z</time>
      </trkpt>
      <trkpt lat="50.01734" lon="1.32003">
        <ele>13.6</ele>
        <time>2020-06-18T14:21:11Z</time>
      </trkpt>
      <trkpt lat="50.01731" lon="1.32001">
        <ele>13.5</ele>
        <time>2020-06-18T14:21:12Z</time>
      </trkpt>
      <trkpt lat="50.01727" lon="1.32">
        <ele>13.4</ele>
        <time>2020-06-18T14:21:13Z</time>
      </trkpt>
      <trkpt lat="50.01724" lon="1.31999">
        <ele>13.3</ele>
        <time>2020-06-18T14:21:14Z</time>
      </trkpt>
      <trkpt lat="50.01721" lon="1.31998">
        <ele>13.2</ele>
        <time>2020-06-18T14:21:15Z</time>
      </trkpt>
      <trkpt lat="50.01718" lon="1.31996">
        <ele>13.1</ele>
        <time>2020-06-18T14:21:16Z</time>
      </trkpt>
      <trkpt lat="50.01716" lon="1.31994">
        <ele>13</ele>
        <time>2020-06-18T14:21:17Z</time>
      </trkpt>
      <trkpt lat="50.01714" lon="1.31992">
        <ele>12.9</ele>
        <time>2020-06-18T14:21:18Z</time>
      </trkpt>
      <trkpt lat="50.01711" lon="1.3199">
        <ele>12.8</ele>
        <time>2020-06-18T14:21:19Z</time>
      </trkpt>
      <trkpt lat="50.01708" lon="1.31989">
        <ele>12.7</ele>
        <time>2020-06-18T14:21:20Z</time>
      </trkpt>
      <trkpt lat="50.01704" lon="1.31986">
        <ele>12.6</ele>
        <time>2020-06-18T14:21:21Z</time>
      </trkpt>
      <trkpt lat="50.01702" lon="1.31984">
        <ele>12.5</ele>
        <time>2020-06-18T14:21:22Z</time>
      </trkpt>
      <trkpt lat="50.017" lon="1.31982">
        <ele>12.5</ele>
        <time>2020-06-18T14:21:23Z</time>
      </trkpt>
      <trkpt lat="50.01697" lon="1.31976">
        <ele>12.4</ele>
        <time>2020-06-18T14:21:24Z</time>
      </trkpt>
      <trkpt lat="50.01697" lon="1.31974">
        <ele>12.3</ele>
        <time>2020-06-18T14:21:25Z</time>
      </trkpt>
      <trkpt lat="50.01694" lon="1.3197">
        <ele>12.2</ele>
        <time>2020-06-18T14:21:26Z</time>
      </trkpt>
      <trkpt lat="50.01692" lon="1.3197">
        <ele>12.2</ele>
        <time>2020-06-18T14:21:27Z</time>
      </trkpt>
      <trkpt lat="50.01689" lon="1.31969">
        <ele>12.1</ele>
        <time>2020-06-18T14:21:28Z</time>
      </trkpt>
      <trkpt lat="50.01686" lon="1.31969">
        <ele>12.1</ele>
        <time>2020-06-18T14:21:29Z</time>
      </trkpt>
      <trkpt lat="50.01683" lon="1.31968">
        <ele>12</ele>
        <time>2020-06-18T14:21:30Z</time>
      </trkpt>
      <trkpt lat="50.01682" lon="1.31968">
        <ele>12</ele>
        <time>2020-06-18T14:21:31Z</time>
      </trkpt>
      <trkpt lat="50.01679" lon="1.31966">
        <ele>12</ele>
        <time>2020-06-18T14:21:32Z</time>
      </trkpt>
      <trkpt lat="50.01678" lon="1.31964">
        <ele>12</ele>
        <time>2020-06-18T14:21:33Z</time>
      </trkpt>
      <trkpt lat="50.01675" lon="1.31961">
        <ele>12.1</ele>
        <time>2020-06-18T14:21:34Z</time>
      </trkpt>
      <trkpt lat="50.01673" lon="1.3196">
        <ele>12.1</ele>
        <time>2020-06-18T14:21:35Z</time>
      </trkpt>
      <trkpt lat="50.01672" lon="1.31961">
        <ele>12.1</ele>
        <time>2020-06-18T14:21:36Z</time>
      </trkpt>
      <trkpt lat="50.01671" lon="1.31961">
        <ele>12.1</ele>
        <time>2020-06-18T14:21:37Z</time>
      </trkpt>
      <trkpt lat="50.0167" lon="1.31961">
        <ele>12.1</ele>
        <time>2020-06-18T14:21:38Z</time>
      </trkpt>
      <trkpt lat="50.01669" lon="1.31962">
        <ele>12.1</ele>
        <time>2020-06-18T14:21:39Z</time>
      </trkpt>
      <trkpt lat="50.01667" lon="1.31962">
        <ele>12.1</ele>
        <time>2020-06-18T14:21:40Z</time>
      </trkpt>
      <trkpt lat="50.01666" lon="1.31963">
        <ele>12.1</ele>
        <time>2020-06-18T14:21:41Z</time>
      </trkpt>
      <trkpt lat="50.01665" lon="1.31962">
        <ele>12.1</ele>
        <time>2020-06-18T14:21:42Z</time>
      </trkpt>
      <trkpt lat="50.01664" lon="1.31965">
        <ele>12.2</ele>
        <time>2020-06-18T14:21:43Z</time>
      </trkpt>
      <trkpt lat="50.01664" lon="1.31966">
        <ele>12.2</ele>
        <time>2020-06-18T14:21:44Z</time>
      </trkpt>
      <trkpt lat="50.01664" lon="1.31967">
        <ele>12.2</ele>
        <time>2020-06-18T14:21:45Z</time>
      </trkpt>
      <trkpt lat="50.01664" lon="1.31968">
        <ele>12.2</ele>
        <time>2020-06-18T14:21:46Z</time>
      </trkpt>
      <trkpt lat="50.01664" lon="1.31969">
        <ele>12.2</ele>
        <time>2020-06-18T14:21:47Z</time>
      </trkpt>
      <trkpt lat="50.01665" lon="1.3197">
        <ele>12.2</ele>
        <time>2020-06-18T14:21:48Z</time>
      </trkpt>
      <trkpt lat="50.01665" lon="1.31971">
        <ele>12.2</ele>
        <time>2020-06-18T14:21:49Z</time>
      </trkpt>
      <trkpt lat="50.01664" lon="1.31973">
        <ele>12.4</ele>
        <time>2020-06-18T14:21:50Z</time>
      </trkpt>
      <trkpt lat="50.01663" lon="1.31974">
        <ele>12.5</ele>
        <time>2020-06-18T14:21:51Z</time>
      </trkpt>
      <trkpt lat="50.01663" lon="1.31975">
        <ele>12.5</ele>
        <time>2020-06-18T14:21:52Z</time>
      </trkpt>
      <trkpt lat="50.01662" lon="1.31975">
        <ele>12.6</ele>
        <time>2020-06-18T14:21:53Z</time>
      </trkpt>
      <trkpt lat="50.0166" lon="1.31976">
        <ele>12.7</ele>
        <time>2020-06-18T14:21:54Z</time>
      </trkpt>
      <trkpt lat="50.01659" lon="1.31978">
        <ele>12.8</ele>
        <time>2020-06-18T14:21:55Z</time>
      </trkpt>
      <trkpt lat="50.01657" lon="1.31982">
        <ele>13</ele>
        <time>2020-06-18T14:21:56Z</time>
      </trkpt>
      <trkpt lat="50.01657" lon="1.31984">
        <ele>13.1</ele>
        <time>2020-06-18T14:21:57Z</time>
      </trkpt>
      <trkpt lat="50.01654" lon="1.31988">
        <ele>13.4</ele>
        <time>2020-06-18T14:21:58Z</time>
      </trkpt>
      <trkpt lat="50.01653" lon="1.31989">
        <ele>13.5</ele>
        <time>2020-06-18T14:21:59Z</time>
      </trkpt>
      <trkpt lat="50.01649" lon="1.31992">
        <ele>13.8</ele>
        <time>2020-06-18T14:22:00Z</time>
      </trkpt>
      <trkpt lat="50.01647" lon="1.31993">
        <ele>13.9</ele>
        <time>2020-06-18T14:22:01Z</time>
      </trkpt>
      <trkpt lat="50.01645" lon="1.31996">
        <ele>14.2</ele>
        <time>2020-06-18T14:22:02Z</time>
      </trkpt>
      <trkpt lat="50.01642" lon="1.31999">
        <ele>14.5</ele>
        <time>2020-06-18T14:22:03Z</time>
      </trkpt>
      <trkpt lat="50.01641" lon="1.32">
        <ele>14.6</ele>
        <time>2020-06-18T14:22:04Z</time>
      </trkpt>
      <trkpt lat="50.01638" lon="1.32004">
        <ele>14.8</ele>
        <time>2020-06-18T14:22:05Z</time>
      </trkpt>
      <trkpt lat="50.01635" lon="1.32007">
        <ele>15.1</ele>
        <time>2020-06-18T14:22:06Z</time>
      </trkpt>
      <trkpt lat="50.01632" lon="1.32009">
        <ele>15.3</ele>
        <time>2020-06-18T14:22:07Z</time>
      </trkpt>
      <trkpt lat="50.0163" lon="1.32011">
        <ele>15.5</ele>
        <time>2020-06-18T14:22:08Z</time>
      </trkpt>
      <trkpt lat="50.01627" lon="1.32013">
        <ele>15.7</ele>
        <time>2020-06-18T14:22:09Z</time>
      </trkpt>
      <trkpt lat="50.01624" lon="1.32015">
        <ele>15.9</ele>
        <time>2020-06-18T14:22:10Z</time>
      </trkpt>
      <trkpt lat="50.0162" lon="1.32019">
        <ele>16.2</ele>
        <time>2020-06-18T14:22:11Z</time>
      </trkpt>
      <trkpt lat="50.01619" lon="1.3202">
        <ele>16.3</ele>
        <time>2020-06-18T14:22:12Z</time>
      </trkpt>
      <trkpt lat="50.01616" lon="1.32023">
        <ele>16.6</ele>
        <time>2020-06-18T14:22:13Z</time>
      </trkpt>
      <trkpt lat="50.01613" lon="1.32027">
        <ele>16.9</ele>
        <time>2020-06-18T14:22:14Z</time>
      </trkpt>
      <trkpt lat="50.01612" lon="1.32028">
        <ele>17</ele>
        <time>2020-06-18T14:22:15Z</time>
      </trkpt>
      <trkpt lat="50.01609" lon="1.3203">
        <ele>17.2</ele>
        <time>2020-06-18T14:22:16Z</time>
      </trkpt>
      <trkpt lat="50.01605" lon="1.32032">
        <ele>17.6</ele>
        <time>2020-06-18T14:22:17Z</time>
      </trkpt>
      <trkpt lat="50.01604" lon="1.32033">
        <ele>17.7</ele>
        <time>2020-06-18T14:22:18Z</time>
      </trkpt>
      <trkpt lat="50.01601" lon="1.32036">
        <ele>18</ele>
        <time>2020-06-18T14:22:19Z</time>
      </trkpt>
      <trkpt lat="50.01598" lon="1.32038">
        <ele>18.3</ele>
        <time>2020-06-18T14:22:20Z</time>
      </trkpt>
      <trkpt lat="50.01595" lon="1.32041">
        <ele>18.6</ele>
        <time>2020-06-18T14:22:21Z</time>
      </trkpt>
      <trkpt lat="50.01592" lon="1.32043">
        <ele>18.8</ele>
        <time>2020-06-18T14:22:22Z</time>
      </trkpt>
      <trkpt lat="50.0159" lon="1.32046">
        <ele>19.1</ele>
        <time>2020-06-18T14:22:23Z</time>
      </trkpt>
      <trkpt lat="50.01587" lon="1.32048">
        <ele>19.4</ele>
        <time>2020-06-18T14:22:24Z</time>
      </trkpt>
      <trkpt lat="50.01585" lon="1.32051">
        <ele>19.6</ele>
        <time>2020-06-18T14:22:25Z</time>
      </trkpt>
      <trkpt lat="50.01582" lon="1.32053">
        <ele>19.9</ele>
        <time>2020-06-18T14:22:26Z</time>
      </trkpt>
      <trkpt lat="50.0158" lon="1.32054">
        <ele>20</ele>
        <time>2020-06-18T14:22:27Z</time>
      </trkpt>
      <trkpt lat="50.01578" lon="1.32057">
        <ele>20.2</ele>
        <time>2020-06-18T14:22:28Z</time>
      </trkpt>
      <trkpt lat="50.01575" lon="1.32059">
        <ele>20.5</ele>
        <time>2020-06-18T14:22:29Z</time>
      </trkpt>
      <trkpt lat="50.01573" lon="1.3206">
        <ele>20.7</ele>
        <time>2020-06-18T14:22:30Z</time>
      </trkpt>
      <trkpt lat="50.0157" lon="1.32063">
        <ele>20.9</ele>
        <time>2020-06-18T14:22:31Z</time>
      </trkpt>
      <trkpt lat="50.01568" lon="1.32065">
        <ele>21.2</ele>
        <time>2020-06-18T14:22:32Z</time>
      </trkpt>
      <trkpt lat="50.01564" lon="1.32068">
        <ele>21.5</ele>
        <time>2020-06-18T14:22:33Z</time>
      </trkpt>
      <trkpt lat="50.01563" lon="1.32069">
        <ele>21.6</ele>
        <time>2020-06-18T14:22:34Z</time>
      </trkpt>
      <trkpt lat="50.01559" lon="1.32071">
        <ele>21.9</ele>
        <time>2020-06-18T14:22:35Z</time>
      </trkpt>
      <trkpt lat="50.01558" lon="1.32072">
        <ele>22</ele>
        <time>2020-06-18T14:22:36Z</time>
      </trkpt>
      <trkpt lat="50.01555" lon="1.32074">
        <ele>22.3</ele>
        <time>2020-06-18T14:22:37Z</time>
      </trkpt>
      <trkpt lat="50.01552" lon="1.32077">
        <ele>22.6</ele>
        <time>2020-06-18T14:22:38Z</time>
      </trkpt>
      <trkpt lat="50.01551" lon="1.32079">
        <ele>22.7</ele>
        <time>2020-06-18T14:22:39Z</time>
      </trkpt>
      <trkpt lat="50.01548" lon="1.32081">
        <ele>23</ele>
        <time>2020-06-18T14:22:40Z</time>
      </trkpt>
      <trkpt lat="50.01545" lon="1.32083">
        <ele>23.2</ele>
        <time>2020-06-18T14:22:41Z</time>
      </trkpt>
      <trkpt lat="50.01542" lon="1.32086">
        <ele>23.5</ele>
        <time>2020-06-18T14:22:42Z</time>
      </trkpt>
      <trkpt lat="50.01539" lon="1.32087">
        <ele>23.8</ele>
        <time>2020-06-18T14:22:43Z</time>
      </trkpt>
      <trkpt lat="50.01537" lon="1.32089">
        <ele>24</ele>
        <time>2020-06-18T14:22:44Z</time>
      </trkpt>
      <trkpt lat="50.01533" lon="1.32093">
        <ele>24.3</ele>
        <time>2020-06-18T14:22:45Z</time>
      </trkpt>
      <trkpt lat="50.01532" lon="1.32094">
        <ele>24.4</ele>
        <time>2020-06-18T14:22:46Z</time>
      </trkpt>
      <trkpt lat="50.01529" lon="1.32096">
        <ele>24.7</ele>
        <time>2020-06-18T14:22:47Z</time>
      </trkpt>
      <trkpt lat="50.01528" lon="1.32096">
        <ele>24.8</ele>
        <time>2020-06-18T14:22:48Z</time>
      </trkpt>
      <trkpt lat="50.01525" lon="1.32098">
        <ele>25</ele>
        <time>2020-06-18T14:22:49Z</time>
      </trkpt>
      <trkpt lat="50.01522" lon="1.32101">
        <ele>25.2</ele>
        <time>2020-06-18T14:22:50Z</time>
      </trkpt>
      <trkpt lat="50.0152" lon="1.32102">
        <ele>25.3</ele>
        <time>2020-06-18T14:22:51Z</time>
      </trkpt>
      <trkpt lat="50.01518" lon="1.32104">
        <ele>25.5</ele>
        <time>2020-06-18T14:22:52Z</time>
      </trkpt>
      <trkpt lat="50.01515" lon="1.32107">
        <ele>25.8</ele>
        <time>2020-06-18T14:22:53Z</time>
      </trkpt>
      <trkpt lat="50.01514" lon="1.32107">
        <ele>25.9</ele>
        <time>2020-06-18T14:22:54Z</time>
      </trkpt>
      <trkpt lat="50.01511" lon="1.32109">
        <ele>26.1</ele>
        <time>2020-06-18T14:22:55Z</time>
      </trkpt>
      <trkpt lat="50.0151" lon="1.3211">
        <ele>26.2</ele>
        <time>2020-06-18T14:22:56Z</time>
      </trkpt>
      <trkpt lat="50.01506" lon="1.32112">
        <ele>26.5</ele>
        <time>2020-06-18T14:22:57Z</time>
      </trkpt>
      <trkpt lat="50.01505" lon="1.32113">
        <ele>26.6</ele>
        <time>2020-06-18T14:22:58Z</time>
      </trkpt>
      <trkpt lat="50.01502" lon="1.32117">
        <ele>26.9</ele>
        <time>2020-06-18T14:22:59Z</time>
      </trkpt>
      <trkpt lat="50.015" lon="1.32119">
        <ele>27</ele>
        <time>2020-06-18T14:23:00Z</time>
      </trkpt>
      <trkpt lat="50.01497" lon="1.32122">
        <ele>27.3</ele>
        <time>2020-06-18T14:23:01Z</time>
      </trkpt>
      <trkpt lat="50.01496" lon="1.32123">
        <ele>27.4</ele>
        <time>2020-06-18T14:23:02Z</time>
      </trkpt>
      <trkpt lat="50.01494" lon="1.32126">
        <ele>27.6</ele>
        <time>2020-06-18T14:23:03Z</time>
      </trkpt>
      <trkpt lat="50.01491" lon="1.32129">
        <ele>27.9</ele>
        <time>2020-06-18T14:23:04Z</time>
      </trkpt>
      <trkpt lat="50.01489" lon="1.3213">
        <ele>28</ele>
        <time>2020-06-18T14:23:05Z</time>
      </trkpt>
      <trkpt lat="50.01486" lon="1.32133">
        <ele>28.3</ele>
        <time>2020-06-18T14:23:06Z</time>
      </trkpt>
      <trkpt lat="50.01485" lon="1.32134">
        <ele>28.3</ele>
        <time>2020-06-18T14:23:07Z</time>
      </trkpt>
      <trkpt lat="50.01482" lon="1.32137">
        <ele>28.6</ele>
        <time>2020-06-18T14:23:08Z</time>
      </trkpt>
      <trkpt lat="50.0148" lon="1.32138">
        <ele>28.7</ele>
        <time>2020-06-18T14:23:09Z</time>
      </trkpt>
      <trkpt lat="50.01477" lon="1.3214">
        <ele>28.9</ele>
        <time>2020-06-18T14:23:10Z</time>
      </trkpt>
      <trkpt lat="50.01476" lon="1.3214">
        <ele>29</ele>
        <time>2020-06-18T14:23:11Z</time>
      </trkpt>
      <trkpt lat="50.01473" lon="1.32142">
        <ele>29.3</ele>
        <time>2020-06-18T14:23:12Z</time>
      </trkpt>
      <trkpt lat="50.01471" lon="1.32143">
        <ele>29.4</ele>
        <time>2020-06-18T14:23:13Z</time>
      </trkpt>
      <trkpt lat="50.01468" lon="1.32147">
        <ele>29.6</ele>
        <time>2020-06-18T14:23:14Z</time>
      </trkpt>
      <trkpt lat="50.01467" lon="1.32148">
        <ele>29.7</ele>
        <time>2020-06-18T14:23:15Z</time>
      </trkpt>
      <trkpt lat="50.01464" lon="1.32151">
        <ele>30</ele>
        <time>2020-06-18T14:23:16Z</time>
      </trkpt>
      <trkpt lat="50.01462" lon="1.32151">
        <ele>30.1</ele>
        <time>2020-06-18T14:23:17Z</time>
      </trkpt>
      <trkpt lat="50.01459" lon="1.32153">
        <ele>30.4</ele>
        <time>2020-06-18T14:23:18Z</time>
      </trkpt>
      <trkpt lat="50.01458" lon="1.32154">
        <ele>30.4</ele>
        <time>2020-06-18T14:23:19Z</time>
      </trkpt>
      <trkpt lat="50.01455" lon="1.32157">
        <ele>30.7</ele>
        <time>2020-06-18T14:23:20Z</time>
      </trkpt>
      <trkpt lat="50.01453" lon="1.32158">
        <ele>30.8</ele>
        <time>2020-06-18T14:23:21Z</time>
      </trkpt>
      <trkpt lat="50.0145" lon="1.3216">
        <ele>31</ele>
        <time>2020-06-18T14:23:22Z</time>
      </trkpt>
      <trkpt lat="50.01447" lon="1.32163">
        <ele>31.3</ele>
        <time>2020-06-18T14:23:23Z</time>
      </trkpt>
      <trkpt lat="50.01446" lon="1.32164">
        <ele>31.4</ele>
        <time>2020-06-18T14:23:24Z</time>
      </trkpt>
      <trkpt lat="50.01443" lon="1.32166">
        <ele>31.6</ele>
        <time>2020-06-18T14:23:25Z</time>
      </trkpt>
      <trkpt lat="50.01442" lon="1.32167">
        <ele>31.7</ele>
        <time>2020-06-18T14:23:26Z</time>
      </trkpt>
      <trkpt lat="50.01439" lon="1.32168">
        <ele>31.9</ele>
        <time>2020-06-18T14:23:27Z</time>
      </trkpt>
      <trkpt lat="50.01437" lon="1.32171">
        <ele>32</ele>
        <time>2020-06-18T14:23:28Z</time>
      </trkpt>
      <trkpt lat="50.01434" lon="1.32173">
        <ele>32.3</ele>
        <time>2020-06-18T14:23:29Z</time>
      </trkpt>
      <trkpt lat="50.01433" lon="1.32174">
        <ele>32.4</ele>
        <time>2020-06-18T14:23:30Z</time>
      </trkpt>
      <trkpt lat="50.0143" lon="1.32178">
        <ele>32.6</ele>
        <time>2020-06-18T14:23:31Z</time>
      </trkpt>
      <trkpt lat="50.01428" lon="1.32179">
        <ele>32.7</ele>
        <time>2020-06-18T14:23:32Z</time>
      </trkpt>
      <trkpt lat="50.01426" lon="1.32182">
        <ele>32.9</ele>
        <time>2020-06-18T14:23:33Z</time>
      </trkpt>
      <trkpt lat="50.01424" lon="1.32185">
        <ele>33.1</ele>
        <time>2020-06-18T14:23:34Z</time>
      </trkpt>
      <trkpt lat="50.01422" lon="1.32188">
        <ele>33.2</ele>
        <time>2020-06-18T14:23:35Z</time>
      </trkpt>
      <trkpt lat="50.01419" lon="1.32192">
        <ele>33.5</ele>
        <time>2020-06-18T14:23:36Z</time>
      </trkpt>
      <trkpt lat="50.01417" lon="1.32193">
        <ele>33.6</ele>
        <time>2020-06-18T14:23:37Z</time>
      </trkpt>
      <trkpt lat="50.01415" lon="1.32195">
        <ele>33.7</ele>
        <time>2020-06-18T14:23:38Z</time>
      </trkpt>
      <trkpt lat="50.01411" lon="1.32197">
        <ele>34</ele>
        <time>2020-06-18T14:23:39Z</time>
      </trkpt>
      <trkpt lat="50.0141" lon="1.32198">
        <ele>34.1</ele>
        <time>2020-06-18T14:23:40Z</time>
      </trkpt>
      <trkpt lat="50.01407" lon="1.322">
        <ele>34.2</ele>
        <time>2020-06-18T14:23:41Z</time>
      </trkpt>
      <trkpt lat="50.01405" lon="1.32203">
        <ele>34.4</ele>
        <time>2020-06-18T14:23:42Z</time>
      </trkpt>
      <trkpt lat="50.01402" lon="1.32205">
        <ele>34.6</ele>
        <time>2020-06-18T14:23:43Z</time>
      </trkpt>
      <trkpt lat="50.01399" lon="1.32209">
        <ele>34.7</ele>
        <time>2020-06-18T14:23:44Z</time>
      </trkpt>
      <trkpt lat="50.01398" lon="1.3221">
        <ele>34.8</ele>
        <time>2020-06-18T14:23:45Z</time>
      </trkpt>
      <trkpt lat="50.01395" lon="1.32212">
        <ele>34.9</ele>
        <time>2020-06-18T14:23:46Z</time>
      </trkpt>
      <trkpt lat="50.01392" lon="1.32214">
        <ele>35.1</ele>
        <time>2020-06-18T14:23:47Z</time>
      </trkpt>
      <trkpt lat="50.01391" lon="1.32215">
        <ele>35.2</ele>
        <time>2020-06-18T14:23:48Z</time>
      </trkpt>
      <trkpt lat="50.01388" lon="1.32216">
        <ele>35.3</ele>
        <time>2020-06-18T14:23:49Z</time>
      </trkpt>
      <trkpt lat="50.01385" lon="1.32218">
        <ele>35.5</ele>
        <time>2020-06-18T14:23:50Z</time>
      </trkpt>
      <trkpt lat="50.01382" lon="1.3222">
        <ele>35.6</ele>
        <time>2020-06-18T14:23:51Z</time>
      </trkpt>
      <trkpt lat="50.01378" lon="1.32222">
        <ele>35.8</ele>
        <time>2020-06-18T14:23:52Z</time>
      </trkpt>
      <trkpt lat="50.01374" lon="1.32224">
        <ele>35.9</ele>
        <time>2020-06-18T14:23:53Z</time>
      </trkpt>
      <trkpt lat="50.01371" lon="1.32225">
        <ele>35.9</ele>
        <time>2020-06-18T14:23:54Z</time>
      </trkpt>
      <trkpt lat="50.01367" lon="1.32227">
        <ele>35.9</ele>
        <time>2020-06-18T14:23:55Z</time>
      </trkpt>
      <trkpt lat="50.01363" lon="1.32229">
        <ele>35.9</ele>
        <time>2020-06-18T14:23:56Z</time>
      </trkpt>
      <trkpt lat="50.01359" lon="1.32233">
        <ele>35.8</ele>
        <time>2020-06-18T14:23:57Z</time>
      </trkpt>
      <trkpt lat="50.01356" lon="1.32236">
        <ele>35.8</ele>
        <time>2020-06-18T14:23:58Z</time>
      </trkpt>
      <trkpt lat="50.01352" lon="1.32239">
        <ele>35.7</ele>
        <time>2020-06-18T14:23:59Z</time>
      </trkpt>
      <trkpt lat="50.01348" lon="1.32241">
        <ele>35.5</ele>
        <time>2020-06-18T14:24:00Z</time>
      </trkpt>
      <trkpt lat="50.01345" lon="1.32243">
        <ele>35.4</ele>
        <time>2020-06-18T14:24:01Z</time>
      </trkpt>
      <trkpt lat="50.01341" lon="1.32246">
        <ele>35.3</ele>
        <time>2020-06-18T14:24:02Z</time>
      </trkpt>
      <trkpt lat="50.01338" lon="1.32249">
        <ele>35.1</ele>
        <time>2020-06-18T14:24:03Z</time>
      </trkpt>
      <trkpt lat="50.01334" lon="1.32254">
        <ele>35</ele>
        <time>2020-06-18T14:24:04Z</time>
      </trkpt>
      <trkpt lat="50.01331" lon="1.32258">
        <ele>34.8</ele>
        <time>2020-06-18T14:24:05Z</time>
      </trkpt>
      <trkpt lat="50.01327" lon="1.32264">
        <ele>34.6</ele>
        <time>2020-06-18T14:24:06Z</time>
      </trkpt>
      <trkpt lat="50.01323" lon="1.32269">
        <ele>34.3</ele>
        <time>2020-06-18T14:24:07Z</time>
      </trkpt>
      <trkpt lat="50.01318" lon="1.32275">
        <ele>34.1</ele>
        <time>2020-06-18T14:24:08Z</time>
      </trkpt>
      <trkpt lat="50.01313" lon="1.3228">
        <ele>33.9</ele>
        <time>2020-06-18T14:24:09Z</time>
      </trkpt>
      <trkpt lat="50.01308" lon="1.32285">
        <ele>33.7</ele>
        <time>2020-06-18T14:24:10Z</time>
      </trkpt>
      <trkpt lat="50.01304" lon="1.32291">
        <ele>33.6</ele>
        <time>2020-06-18T14:24:11Z</time>
      </trkpt>
      <trkpt lat="50.013" lon="1.32297">
        <ele>33.5</ele>
        <time>2020-06-18T14:24:12Z</time>
      </trkpt>
      <trkpt lat="50.01295" lon="1.32303">
        <ele>34</ele>
        <time>2020-06-18T14:24:13Z</time>
      </trkpt>
      <trkpt lat="50.0129" lon="1.32308">
        <ele>34.3</ele>
        <time>2020-06-18T14:24:14Z</time>
      </trkpt>
      <trkpt lat="50.01286" lon="1.32314">
        <ele>34.6</ele>
        <time>2020-06-18T14:24:15Z</time>
      </trkpt>
      <trkpt lat="50.01283" lon="1.32321">
        <ele>34.9</ele>
        <time>2020-06-18T14:24:16Z</time>
      </trkpt>
      <trkpt lat="50.01279" lon="1.32327">
        <ele>35.4</ele>
        <time>2020-06-18T14:24:17Z</time>
      </trkpt>
      <trkpt lat="50.01276" lon="1.32333">
        <ele>35.8</ele>
        <time>2020-06-18T14:24:18Z</time>
      </trkpt>
      <trkpt lat="50.01273" lon="1.32337">
        <ele>36.2</ele>
        <time>2020-06-18T14:24:19Z</time>
      </trkpt>
      <trkpt lat="50.01271" lon="1.32341">
        <ele>36.6</ele>
        <time>2020-06-18T14:24:20Z</time>
      </trkpt>
      <trkpt lat="50.01269" lon="1.32345">
        <ele>37</ele>
        <time>2020-06-18T14:24:21Z</time>
      </trkpt>
      <trkpt lat="50.01267" lon="1.3235">
        <ele>37.5</ele>
        <time>2020-06-18T14:24:22Z</time>
      </trkpt>
      <trkpt lat="50.01267" lon="1.32355">
        <ele>37.9</ele>
        <time>2020-06-18T14:24:23Z</time>
      </trkpt>
      <trkpt lat="50.01267" lon="1.32358">
        <ele>38.2</ele>
        <time>2020-06-18T14:24:24Z</time>
      </trkpt>
      <trkpt lat="50.01266" lon="1.32359">
        <ele>38.3</ele>
        <time>2020-06-18T14:24:25Z</time>
      </trkpt>
      <trkpt lat="50.01265" lon="1.32362">
        <ele>38.6</ele>
        <time>2020-06-18T14:24:26Z</time>
      </trkpt>
      <trkpt lat="50.01265" lon="1.32363">
        <ele>38.7</ele>
        <time>2020-06-18T14:24:27Z</time>
      </trkpt>
      <trkpt lat="50.01264" lon="1.32364">
        <ele>38.8</ele>
        <time>2020-06-18T14:24:28Z</time>
      </trkpt>
      <trkpt lat="50.01265" lon="1.32366">
        <ele>38.9</ele>
        <time>2020-06-18T14:24:29Z</time>
      </trkpt>
      <trkpt lat="50.01265" lon="1.32369">
        <ele>39.1</ele>
        <time>2020-06-18T14:24:30Z</time>
      </trkpt>
      <trkpt lat="50.01263" lon="1.32371">
        <ele>39.4</ele>
        <time>2020-06-18T14:24:31Z</time>
      </trkpt>
      <trkpt lat="50.01262" lon="1.32371">
        <ele>39.5</ele>
        <time>2020-06-18T14:24:32Z</time>
      </trkpt>
      <trkpt lat="50.01261" lon="1.32372">
        <ele>39.6</ele>
        <time>2020-06-18T14:24:33Z</time>
      </trkpt>
      <trkpt lat="50.0126" lon="1.32374">
        <ele>39.8</ele>
        <time>2020-06-18T14:24:34Z</time>
      </trkpt>
      <trkpt lat="50.01258" lon="1.32375">
        <ele>40</ele>
        <time>2020-06-18T14:24:35Z</time>
      </trkpt>
      <trkpt lat="50.01257" lon="1.32379">
        <ele>40.4</ele>
        <time>2020-06-18T14:24:36Z</time>
      </trkpt>
      <trkpt lat="50.01257" lon="1.3238">
        <ele>40.5</ele>
        <time>2020-06-18T14:24:37Z</time>
      </trkpt>
      <trkpt lat="50.01257" lon="1.32383">
        <ele>40.7</ele>
        <time>2020-06-18T14:24:38Z</time>
      </trkpt>
      <trkpt lat="50.01257" lon="1.32385">
        <ele>40.9</ele>
        <time>2020-06-18T14:24:39Z</time>
      </trkpt>
      <trkpt lat="50.01256" lon="1.32387">
        <ele>41</ele>
        <time>2020-06-18T14:24:40Z</time>
      </trkpt>
      <trkpt lat="50.01255" lon="1.32389">
        <ele>41.2</ele>
        <time>2020-06-18T14:24:41Z</time>
      </trkpt>
      <trkpt lat="50.01253" lon="1.32391">
        <ele>41.6</ele>
        <time>2020-06-18T14:24:42Z</time>
      </trkpt>
      <trkpt lat="50.01252" lon="1.32392">
        <ele>41.7</ele>
        <time>2020-06-18T14:24:43Z</time>
      </trkpt>
      <trkpt lat="50.01251" lon="1.32396">
        <ele>42</ele>
        <time>2020-06-18T14:24:44Z</time>
      </trkpt>
      <trkpt lat="50.01251" lon="1.32398">
        <ele>42.1</ele>
        <time>2020-06-18T14:24:45Z</time>
      </trkpt>
      <trkpt lat="50.0125" lon="1.324">
        <ele>42.3</ele>
        <time>2020-06-18T14:24:46Z</time>
      </trkpt>
      <trkpt lat="50.0125" lon="1.32403">
        <ele>42.5</ele>
        <time>2020-06-18T14:24:47Z</time>
      </trkpt>
      <trkpt lat="50.01249" lon="1.32407">
        <ele>42.9</ele>
        <time>2020-06-18T14:24:48Z</time>
      </trkpt>
      <trkpt lat="50.01248" lon="1.32408">
        <ele>43</ele>
        <time>2020-06-18T14:24:49Z</time>
      </trkpt>
      <trkpt lat="50.01247" lon="1.32411">
        <ele>43.3</ele>
        <time>2020-06-18T14:24:50Z</time>
      </trkpt>
      <trkpt lat="50.01247" lon="1.32413">
        <ele>43.4</ele>
        <time>2020-06-18T14:24:51Z</time>
      </trkpt>
      <trkpt lat="50.01246" lon="1.32415">
        <ele>43.6</ele>
        <time>2020-06-18T14:24:52Z</time>
      </trkpt>
      <trkpt lat="50.01246" lon="1.32418">
        <ele>43.8</ele>
        <time>2020-06-18T14:24:53Z</time>
      </trkpt>
      <trkpt lat="50.01244" lon="1.32423">
        <ele>44.2</ele>
        <time>2020-06-18T14:24:54Z</time>
      </trkpt>
      <trkpt lat="50.01244" lon="1.32424">
        <ele>44.3</ele>
        <time>2020-06-18T14:24:55Z</time>
      </trkpt>
      <trkpt lat="50.01242" lon="1.32429">
        <ele>44.8</ele>
        <time>2020-06-18T14:24:56Z</time>
      </trkpt>
      <trkpt lat="50.01241" lon="1.3243">
        <ele>44.9</ele>
        <time>2020-06-18T14:24:57Z</time>
      </trkpt>
      <trkpt lat="50.0124" lon="1.32432">
        <ele>45.1</ele>
        <time>2020-06-18T14:24:58Z</time>
      </trkpt>
      <trkpt lat="50.0124" lon="1.32434">
        <ele>45.3</ele>
        <time>2020-06-18T14:24:59Z</time>
      </trkpt>
      <trkpt lat="50.0124" lon="1.32438">
        <ele>45.6</ele>
        <time>2020-06-18T14:25:00Z</time>
      </trkpt>
      <trkpt lat="50.0124" lon="1.32439">
        <ele>45.7</ele>
        <time>2020-06-18T14:25:01Z</time>
      </trkpt>
      <trkpt lat="50.0124" lon="1.32441">
        <ele>45.8</ele>
        <time>2020-06-18T14:25:02Z</time>
      </trkpt>
      <trkpt lat="50.01239" lon="1.32443">
        <ele>46</ele>
        <time>2020-06-18T14:25:03Z</time>
      </trkpt>
      <trkpt lat="50.01238" lon="1.32445">
        <ele>46.2</ele>
        <time>2020-06-18T14:25:04Z</time>
      </trkpt>
      <trkpt lat="50.01237" lon="1.32448">
        <ele>46.5</ele>
        <time>2020-06-18T14:25:05Z</time>
      </trkpt>
      <trkpt lat="50.01236" lon="1.32449">
        <ele>46.6</ele>
        <time>2020-06-18T14:25:06Z</time>
      </trkpt>
      <trkpt lat="50.01235" lon="1.32451">
        <ele>46.8</ele>
        <time>2020-06-18T14:25:07Z</time>
      </trkpt>
      <trkpt lat="50.01235" lon="1.32454">
        <ele>47.1</ele>
        <time>2020-06-18T14:25:08Z</time>
      </trkpt>
      <trkpt lat="50.01233" lon="1.32457">
        <ele>47.4</ele>
        <time>2020-06-18T14:25:09Z</time>
      </trkpt>
      <trkpt lat="50.01232" lon="1.32458">
        <ele>47.5</ele>
        <time>2020-06-18T14:25:10Z</time>
      </trkpt>
      <trkpt lat="50.01231" lon="1.3246">
        <ele>47.7</ele>
        <time>2020-06-18T14:25:11Z</time>
      </trkpt>
      <trkpt lat="50.01231" lon="1.32463">
        <ele>47.9</ele>
        <time>2020-06-18T14:25:12Z</time>
      </trkpt>
      <trkpt lat="50.01231" lon="1.32466">
        <ele>48.2</ele>
        <time>2020-06-18T14:25:13Z</time>
      </trkpt>
      <trkpt lat="50.01231" lon="1.32468">
        <ele>48.3</ele>
        <time>2020-06-18T14:25:14Z</time>
      </trkpt>
      <trkpt lat="50.01231" lon="1.3247">
        <ele>48.5</ele>
        <time>2020-06-18T14:25:15Z</time>
      </trkpt>
      <trkpt lat="50.0123" lon="1.32474">
        <ele>48.8</ele>
        <time>2020-06-18T14:25:16Z</time>
      </trkpt>
      <trkpt lat="50.0123" lon="1.32475">
        <ele>48.9</ele>
        <time>2020-06-18T14:25:17Z</time>
      </trkpt>
      <trkpt lat="50.01229" lon="1.32477">
        <ele>49.1</ele>
        <time>2020-06-18T14:25:18Z</time>
      </trkpt>
      <trkpt lat="50.01229" lon="1.3248">
        <ele>49.3</ele>
        <time>2020-06-18T14:25:19Z</time>
      </trkpt>
      <trkpt lat="50.01228" lon="1.32486">
        <ele>49.7</ele>
        <time>2020-06-18T14:25:20Z</time>
      </trkpt>
      <trkpt lat="50.01227" lon="1.32487">
        <ele>49.8</ele>
        <time>2020-06-18T14:25:21Z</time>
      </trkpt>
      <trkpt lat="50.01226" lon="1.32492">
        <ele>50.2</ele>
        <time>2020-06-18T14:25:22Z</time>
      </trkpt>
      <trkpt lat="50.01226" lon="1.32494">
        <ele>50.3</ele>
        <time>2020-06-18T14:25:23Z</time>
      </trkpt>
      <trkpt lat="50.01225" lon="1.32499">
        <ele>50.7</ele>
        <time>2020-06-18T14:25:24Z</time>
      </trkpt>
      <trkpt lat="50.01225" lon="1.32501">
        <ele>50.8</ele>
        <time>2020-06-18T14:25:25Z</time>
      </trkpt>
      <trkpt lat="50.01225" lon="1.32503">
        <ele>51</ele>
        <time>2020-06-18T14:25:26Z</time>
      </trkpt>
      <trkpt lat="50.01224" lon="1.32506">
        <ele>51.2</ele>
        <time>2020-06-18T14:25:27Z</time>
      </trkpt>
      <trkpt lat="50.01223" lon="1.32511">
        <ele>51.5</ele>
        <time>2020-06-18T14:25:28Z</time>
      </trkpt>
      <trkpt lat="50.01223" lon="1.32512">
        <ele>51.6</ele>
        <time>2020-06-18T14:25:29Z</time>
      </trkpt>
      <trkpt lat="50.01223" lon="1.32515">
        <ele>51.9</ele>
        <time>2020-06-18T14:25:30Z</time>
      </trkpt>
      <trkpt lat="50.01222" lon="1.32517">
        <ele>52</ele>
        <time>2020-06-18T14:25:31Z</time>
      </trkpt>
      <trkpt lat="50.01221" lon="1.32522">
        <ele>52.4</ele>
        <time>2020-06-18T14:25:32Z</time>
      </trkpt>
      <trkpt lat="50.01221" lon="1.32524">
        <ele>52.5</ele>
        <time>2020-06-18T14:25:33Z</time>
      </trkpt>
      <trkpt lat="50.01221" lon="1.32528">
        <ele>52.8</ele>
        <time>2020-06-18T14:25:34Z</time>
      </trkpt>
      <trkpt lat="50.0122" lon="1.32529">
        <ele>53</ele>
        <time>2020-06-18T14:25:35Z</time>
      </trkpt>
      <trkpt lat="50.01218" lon="1.32534">
        <ele>53.4</ele>
        <time>2020-06-18T14:25:36Z</time>
      </trkpt>
      <trkpt lat="50.01218" lon="1.32536">
        <ele>53.5</ele>
        <time>2020-06-18T14:25:37Z</time>
      </trkpt>
      <trkpt lat="50.01217" lon="1.32542">
        <ele>53.9</ele>
        <time>2020-06-18T14:25:38Z</time>
      </trkpt>
      <trkpt lat="50.01216" lon="1.32544">
        <ele>54.1</ele>
        <time>2020-06-18T14:25:39Z</time>
      </trkpt>
      <trkpt lat="50.01215" lon="1.32548">
        <ele>54.4</ele>
        <time>2020-06-18T14:25:40Z</time>
      </trkpt>
      <trkpt lat="50.01215" lon="1.3255">
        <ele>54.5</ele>
        <time>2020-06-18T14:25:41Z</time>
      </trkpt>
      <trkpt lat="50.01215" lon="1.32555">
        <ele>54.9</ele>
        <time>2020-06-18T14:25:42Z</time>
      </trkpt>
      <trkpt lat="50.01214" lon="1.32557">
        <ele>55.1</ele>
        <time>2020-06-18T14:25:43Z</time>
      </trkpt>
      <trkpt lat="50.01214" lon="1.32562">
        <ele>55.4</ele>
        <time>2020-06-18T14:25:44Z</time>
      </trkpt>
      <trkpt lat="50.01214" lon="1.32564">
        <ele>55.5</ele>
        <time>2020-06-18T14:25:45Z</time>
      </trkpt>
      <trkpt lat="50.01215" lon="1.32566">
        <ele>55.7</ele>
        <time>2020-06-18T14:25:46Z</time>
      </trkpt>
      <trkpt lat="50.01214" lon="1.32569">
        <ele>55.9</ele>
        <time>2020-06-18T14:25:47Z</time>
      </trkpt>
      <trkpt lat="50.01214" lon="1.32574">
        <ele>56.2</ele>
        <time>2020-06-18T14:25:48Z</time>
      </trkpt>
      <trkpt lat="50.01213" lon="1.32575">
        <ele>56.3</ele>
        <time>2020-06-18T14:25:49Z</time>
      </trkpt>
      <trkpt lat="50.01212" lon="1.3258">
        <ele>56.6</ele>
        <time>2020-06-18T14:25:50Z</time>
      </trkpt>
      <trkpt lat="50.01212" lon="1.32582">
        <ele>56.7</ele>
        <time>2020-06-18T14:25:51Z</time>
      </trkpt>
      <trkpt lat="50.01212" lon="1.32585">
        <ele>56.9</ele>
        <time>2020-06-18T14:25:52Z</time>
      </trkpt>
      <trkpt lat="50.01211" lon="1.32587">
        <ele>57</ele>
        <time>2020-06-18T14:25:53Z</time>
      </trkpt>
      <trkpt lat="50.01211" lon="1.3259">
        <ele>57.1</ele>
        <time>2020-06-18T14:25:54Z</time>
      </trkpt>
      <trkpt lat="50.0121" lon="1.32593">
        <ele>57.2</ele>
        <time>2020-06-18T14:25:55Z</time>
      </trkpt>
      <trkpt lat="50.01209" lon="1.32594">
        <ele>57.4</ele>
        <time>2020-06-18T14:25:56Z</time>
      </trkpt>
      <trkpt lat="50.01209" lon="1.32597">
        <ele>57.7</ele>
        <time>2020-06-18T14:25:57Z</time>
      </trkpt>
      <trkpt lat="50.01208" lon="1.32602">
        <ele>58</ele>
        <time>2020-06-18T14:25:58Z</time>
      </trkpt>
      <trkpt lat="50.01208" lon="1.32604">
        <ele>58.1</ele>
        <time>2020-06-18T14:25:59Z</time>
      </trkpt>
      <trkpt lat="50.01207" lon="1.32608">
        <ele>58.5</ele>
        <time>2020-06-18T14:26:00Z</time>
      </trkpt>
      <trkpt lat="50.01207" lon="1.3261">
        <ele>58.7</ele>
        <time>2020-06-18T14:26:01Z</time>
      </trkpt>
      <trkpt lat="50.01205" lon="1.32612">
        <ele>58.9</ele>
        <time>2020-06-18T14:26:02Z</time>
      </trkpt>
      <trkpt lat="50.01205" lon="1.32614">
        <ele>59</ele>
        <time>2020-06-18T14:26:03Z</time>
      </trkpt>
      <trkpt lat="50.01206" lon="1.32617">
        <ele>59.2</ele>
        <time>2020-06-18T14:26:04Z</time>
      </trkpt>
      <trkpt lat="50.01206" lon="1.32619">
        <ele>59.4</ele>
        <time>2020-06-18T14:26:05Z</time>
      </trkpt>
      <trkpt lat="50.01205" lon="1.32621">
        <ele>59.5</ele>
        <time>2020-06-18T14:26:06Z</time>
      </trkpt>
      <trkpt lat="50.01204" lon="1.32623">
        <ele>59.8</ele>
        <time>2020-06-18T14:26:07Z</time>
      </trkpt>
      <trkpt lat="50.01204" lon="1.32628">
        <ele>60.1</ele>
        <time>2020-06-18T14:26:08Z</time>
      </trkpt>
      <trkpt lat="50.01203" lon="1.32629">
        <ele>60.2</ele>
        <time>2020-06-18T14:26:09Z</time>
      </trkpt>
      <trkpt lat="50.01203" lon="1.32631">
        <ele>60.4</ele>
        <time>2020-06-18T14:26:10Z</time>
      </trkpt>
      <trkpt lat="50.01202" lon="1.32634">
        <ele>60.6</ele>
        <time>2020-06-18T14:26:11Z</time>
      </trkpt>
      <trkpt lat="50.012" lon="1.32638">
        <ele>61</ele>
        <time>2020-06-18T14:26:12Z</time>
      </trkpt>
      <trkpt lat="50.012" lon="1.32639">
        <ele>61.1</ele>
        <time>2020-06-18T14:26:13Z</time>
      </trkpt>
      <trkpt lat="50.01199" lon="1.32642">
        <ele>61.3</ele>
        <time>2020-06-18T14:26:14Z</time>
      </trkpt>
      <trkpt lat="50.01198" lon="1.32645">
        <ele>61.5</ele>
        <time>2020-06-18T14:26:15Z</time>
      </trkpt>
      <trkpt lat="50.01197" lon="1.3265">
        <ele>61.9</ele>
        <time>2020-06-18T14:26:16Z</time>
      </trkpt>
      <trkpt lat="50.01197" lon="1.32651">
        <ele>62</ele>
        <time>2020-06-18T14:26:17Z</time>
      </trkpt>
      <trkpt lat="50.01196" lon="1.32657">
        <ele>62.4</ele>
        <time>2020-06-18T14:26:18Z</time>
      </trkpt>
      <trkpt lat="50.01196" lon="1.32658">
        <ele>62.5</ele>
        <time>2020-06-18T14:26:19Z</time>
      </trkpt>
      <trkpt lat="50.01196" lon="1.32664">
        <ele>62.9</ele>
        <time>2020-06-18T14:26:20Z</time>
      </trkpt>
      <trkpt lat="50.01195" lon="1.32665">
        <ele>63</ele>
        <time>2020-06-18T14:26:21Z</time>
      </trkpt>
      <trkpt lat="50.01194" lon="1.32669">
        <ele>63.3</ele>
        <time>2020-06-18T14:26:22Z</time>
      </trkpt>
      <trkpt lat="50.01192" lon="1.32675">
        <ele>63.7</ele>
        <time>2020-06-18T14:26:23Z</time>
      </trkpt>
      <trkpt lat="50.01191" lon="1.32676">
        <ele>63.9</ele>
        <time>2020-06-18T14:26:24Z</time>
      </trkpt>
      <trkpt lat="50.01189" lon="1.3268">
        <ele>64.1</ele>
        <time>2020-06-18T14:26:25Z</time>
      </trkpt>
      <trkpt lat="50.01188" lon="1.32685">
        <ele>64.4</ele>
        <time>2020-06-18T14:26:26Z</time>
      </trkpt>
      <trkpt lat="50.01188" lon="1.32687">
        <ele>64.5</ele>
        <time>2020-06-18T14:26:27Z</time>
      </trkpt>
      <trkpt lat="50.01186" lon="1.32692">
        <ele>64.9</ele>
        <time>2020-06-18T14:26:28Z</time>
      </trkpt>
      <trkpt lat="50.01185" lon="1.32694">
        <ele>65</ele>
        <time>2020-06-18T14:26:29Z</time>
      </trkpt>
      <trkpt lat="50.01184" lon="1.32698">
        <ele>65.2</ele>
        <time>2020-06-18T14:26:30Z</time>
      </trkpt>
      <trkpt lat="50.01182" lon="1.32702">
        <ele>65.5</ele>
        <time>2020-06-18T14:26:31Z</time>
      </trkpt>
      <trkpt lat="50.0118" lon="1.32706">
        <ele>65.7</ele>
        <time>2020-06-18T14:26:32Z</time>
      </trkpt>
      <trkpt lat="50.01178" lon="1.32711">
        <ele>66</ele>
        <time>2020-06-18T14:26:33Z</time>
      </trkpt>
      <trkpt lat="50.01177" lon="1.32713">
        <ele>66.1</ele>
        <time>2020-06-18T14:26:34Z</time>
      </trkpt>
      <trkpt lat="50.01176" lon="1.32717">
        <ele>66.3</ele>
        <time>2020-06-18T14:26:35Z</time>
      </trkpt>
      <trkpt lat="50.01175" lon="1.32723">
        <ele>66.6</ele>
        <time>2020-06-18T14:26:36Z</time>
      </trkpt>
      <trkpt lat="50.01174" lon="1.32724">
        <ele>66.7</ele>
        <time>2020-06-18T14:26:37Z</time>
      </trkpt>
      <trkpt lat="50.01173" lon="1.32729">
        <ele>66.9</ele>
        <time>2020-06-18T14:26:38Z</time>
      </trkpt>
      <trkpt lat="50.01172" lon="1.32731">
        <ele>67</ele>
        <time>2020-06-18T14:26:39Z</time>
      </trkpt>
      <trkpt lat="50.01171" lon="1.32735">
        <ele>67.2</ele>
        <time>2020-06-18T14:26:40Z</time>
      </trkpt>
      <trkpt lat="50.0117" lon="1.3274">
        <ele>67.4</ele>
        <time>2020-06-18T14:26:41Z</time>
      </trkpt>
      <trkpt lat="50.0117" lon="1.32742">
        <ele>67.5</ele>
        <time>2020-06-18T14:26:42Z</time>
      </trkpt>
      <trkpt lat="50.01168" lon="1.32747">
        <ele>67.7</ele>
        <time>2020-06-18T14:26:43Z</time>
      </trkpt>
      <trkpt lat="50.01168" lon="1.32749">
        <ele>67.7</ele>
        <time>2020-06-18T14:26:44Z</time>
      </trkpt>
      <trkpt lat="50.01167" lon="1.32754">
        <ele>68</ele>
        <time>2020-06-18T14:26:45Z</time>
      </trkpt>
      <trkpt lat="50.01166" lon="1.32756">
        <ele>68</ele>
        <time>2020-06-18T14:26:46Z</time>
      </trkpt>
      <trkpt lat="50.01165" lon="1.32761">
        <ele>68.3</ele>
        <time>2020-06-18T14:26:47Z</time>
      </trkpt>
      <trkpt lat="50.01164" lon="1.32763">
        <ele>68.3</ele>
        <time>2020-06-18T14:26:48Z</time>
      </trkpt>
      <trkpt lat="50.01163" lon="1.32768">
        <ele>68.6</ele>
        <time>2020-06-18T14:26:49Z</time>
      </trkpt>
      <trkpt lat="50.01163" lon="1.3277">
        <ele>68.7</ele>
        <time>2020-06-18T14:26:50Z</time>
      </trkpt>
      <trkpt lat="50.01161" lon="1.32775">
        <ele>68.9</ele>
        <time>2020-06-18T14:26:51Z</time>
      </trkpt>
      <trkpt lat="50.01161" lon="1.32776">
        <ele>69</ele>
        <time>2020-06-18T14:26:52Z</time>
      </trkpt>
      <trkpt lat="50.01159" lon="1.32781">
        <ele>69.3</ele>
        <time>2020-06-18T14:26:53Z</time>
      </trkpt>
      <trkpt lat="50.01159" lon="1.32783">
        <ele>69.3</ele>
        <time>2020-06-18T14:26:54Z</time>
      </trkpt>
      <trkpt lat="50.01158" lon="1.32788">
        <ele>69.5</ele>
        <time>2020-06-18T14:26:55Z</time>
      </trkpt>
      <trkpt lat="50.01158" lon="1.3279">
        <ele>69.6</ele>
        <time>2020-06-18T14:26:56Z</time>
      </trkpt>
      <trkpt lat="50.01155" lon="1.32795">
        <ele>69.8</ele>
        <time>2020-06-18T14:26:57Z</time>
      </trkpt>
      <trkpt lat="50.01155" lon="1.32797">
        <ele>69.9</ele>
        <time>2020-06-18T14:26:58Z</time>
      </trkpt>
      <trkpt lat="50.01153" lon="1.32801">
        <ele>70.1</ele>
        <time>2020-06-18T14:26:59Z</time>
      </trkpt>
      <trkpt lat="50.01152" lon="1.32803">
        <ele>70.1</ele>
        <time>2020-06-18T14:27:00Z</time>
      </trkpt>
      <trkpt lat="50.0115" lon="1.32808">
        <ele>70.3</ele>
        <time>2020-06-18T14:27:01Z</time>
      </trkpt>
      <trkpt lat="50.01148" lon="1.32811">
        <ele>70.4</ele>
        <time>2020-06-18T14:27:02Z</time>
      </trkpt>
      <trkpt lat="50.01146" lon="1.32816">
        <ele>70.6</ele>
        <time>2020-06-18T14:27:03Z</time>
      </trkpt>
      <trkpt lat="50.01145" lon="1.32818">
        <ele>70.7</ele>
        <time>2020-06-18T14:27:04Z</time>
      </trkpt>
      <trkpt lat="50.01144" lon="1.32823">
        <ele>70.9</ele>
        <time>2020-06-18T14:27:05Z</time>
      </trkpt>
      <trkpt lat="50.01143" lon="1.32827">
        <ele>71</ele>
        <time>2020-06-18T14:27:06Z</time>
      </trkpt>
      <trkpt lat="50.01142" lon="1.32832">
        <ele>71.2</ele>
        <time>2020-06-18T14:27:07Z</time>
      </trkpt>
      <trkpt lat="50.0114" lon="1.32836">
        <ele>71.3</ele>
        <time>2020-06-18T14:27:08Z</time>
      </trkpt>
      <trkpt lat="50.01139" lon="1.3284">
        <ele>71.5</ele>
        <time>2020-06-18T14:27:09Z</time>
      </trkpt>
      <trkpt lat="50.01138" lon="1.32845">
        <ele>71.6</ele>
        <time>2020-06-18T14:27:10Z</time>
      </trkpt>
      <trkpt lat="50.01136" lon="1.32849">
        <ele>71.7</ele>
        <time>2020-06-18T14:27:11Z</time>
      </trkpt>
      <trkpt lat="50.01135" lon="1.32854">
        <ele>71.9</ele>
        <time>2020-06-18T14:27:12Z</time>
      </trkpt>
      <trkpt lat="50.01134" lon="1.32858">
        <ele>72</ele>
        <time>2020-06-18T14:27:13Z</time>
      </trkpt>
      <trkpt lat="50.01133" lon="1.32862">
        <ele>72.1</ele>
        <time>2020-06-18T14:27:14Z</time>
      </trkpt>
      <trkpt lat="50.01131" lon="1.32868">
        <ele>72.3</ele>
        <time>2020-06-18T14:27:15Z</time>
      </trkpt>
      <trkpt lat="50.0113" lon="1.3287">
        <ele>72.4</ele>
        <time>2020-06-18T14:27:16Z</time>
      </trkpt>
      <trkpt lat="50.01129" lon="1.32874">
        <ele>72.5</ele>
        <time>2020-06-18T14:27:17Z</time>
      </trkpt>
      <trkpt lat="50.01128" lon="1.32878">
        <ele>72.6</ele>
        <time>2020-06-18T14:27:18Z</time>
      </trkpt>
      <trkpt lat="50.01126" lon="1.32883">
        <ele>72.7</ele>
        <time>2020-06-18T14:27:19Z</time>
      </trkpt>
      <trkpt lat="50.01125" lon="1.32888">
        <ele>72.8</ele>
        <time>2020-06-18T14:27:20Z</time>
      </trkpt>
      <trkpt lat="50.01124" lon="1.32894">
        <ele>72.9</ele>
        <time>2020-06-18T14:27:21Z</time>
      </trkpt>
      <trkpt lat="50.01123" lon="1.32896">
        <ele>72.9</ele>
        <time>2020-06-18T14:27:22Z</time>
      </trkpt>
      <trkpt lat="50.01122" lon="1.32901">
        <ele>73</ele>
        <time>2020-06-18T14:27:23Z</time>
      </trkpt>
      <trkpt lat="50.01121" lon="1.32905">
        <ele>73.1</ele>
        <time>2020-06-18T14:27:24Z</time>
      </trkpt>
      <trkpt lat="50.01119" lon="1.3291">
        <ele>73.2</ele>
        <time>2020-06-18T14:27:25Z</time>
      </trkpt>
      <trkpt lat="50.01119" lon="1.32915">
        <ele>73.3</ele>
        <time>2020-06-18T14:27:26Z</time>
      </trkpt>
      <trkpt lat="50.01117" lon="1.32921">
        <ele>73.4</ele>
        <time>2020-06-18T14:27:27Z</time>
      </trkpt>
      <trkpt lat="50.01116" lon="1.32926">
        <ele>73.5</ele>
        <time>2020-06-18T14:27:28Z</time>
      </trkpt>
      <trkpt lat="50.01114" lon="1.32931">
        <ele>73.6</ele>
        <time>2020-06-18T14:27:29Z</time>
      </trkpt>
      <trkpt lat="50.01112" lon="1.32937">
        <ele>73.7</ele>
        <time>2020-06-18T14:27:30Z</time>
      </trkpt>
      <trkpt lat="50.0111" lon="1.32944">
        <ele>73.8</ele>
        <time>2020-06-18T14:27:31Z</time>
      </trkpt>
      <trkpt lat="50.0111" lon="1.3295">
        <ele>73.9</ele>
        <time>2020-06-18T14:27:32Z</time>
      </trkpt>
      <trkpt lat="50.01108" lon="1.32956">
        <ele>74</ele>
        <time>2020-06-18T14:27:33Z</time>
      </trkpt>
      <trkpt lat="50.01107" lon="1.32961">
        <ele>74</ele>
        <time>2020-06-18T14:27:34Z</time>
      </trkpt>
      <trkpt lat="50.01106" lon="1.32967">
        <ele>74.1</ele>
        <time>2020-06-18T14:27:35Z</time>
      </trkpt>
      <trkpt lat="50.01105" lon="1.32972">
        <ele>74.1</ele>
        <time>2020-06-18T14:27:36Z</time>
      </trkpt>
      <trkpt lat="50.01105" lon="1.32977">
        <ele>74.1</ele>
        <time>2020-06-18T14:27:37Z</time>
      </trkpt>
      <trkpt lat="50.01105" lon="1.32982">
        <ele>74.2</ele>
        <time>2020-06-18T14:27:38Z</time>
      </trkpt>
      <trkpt lat="50.01105" lon="1.32986">
        <ele>74.2</ele>
        <time>2020-06-18T14:27:39Z</time>
      </trkpt>
      <trkpt lat="50.01106" lon="1.32991">
        <ele>74.2</ele>
        <time>2020-06-18T14:27:40Z</time>
      </trkpt>
      <trkpt lat="50.01107" lon="1.32995">
        <ele>74.2</ele>
        <time>2020-06-18T14:27:41Z</time>
      </trkpt>
      <trkpt lat="50.01107" lon="1.33001">
        <ele>74.3</ele>
        <time>2020-06-18T14:27:42Z</time>
      </trkpt>
      <trkpt lat="50.01108" lon="1.33006">
        <ele>74.3</ele>
        <time>2020-06-18T14:27:43Z</time>
      </trkpt>
      <trkpt lat="50.01109" lon="1.33011">
        <ele>74.3</ele>
        <time>2020-06-18T14:27:44Z</time>
      </trkpt>
      <trkpt lat="50.0111" lon="1.33016">
        <ele>74.3</ele>
        <time>2020-06-18T14:27:45Z</time>
      </trkpt>
      <trkpt lat="50.01111" lon="1.33021">
        <ele>74.3</ele>
        <time>2020-06-18T14:27:46Z</time>
      </trkpt>
      <trkpt lat="50.01112" lon="1.33027">
        <ele>74.3</ele>
        <time>2020-06-18T14:27:47Z</time>
      </trkpt>
      <trkpt lat="50.01113" lon="1.33032">
        <ele>74.3</ele>
        <time>2020-06-18T14:27:48Z</time>
      </trkpt>
      <trkpt lat="50.01114" lon="1.33037">
        <ele>74.3</ele>
        <time>2020-06-18T14:27:49Z</time>
      </trkpt>
      <trkpt lat="50.01116" lon="1.33042">
        <ele>74.3</ele>
        <time>2020-06-18T14:27:50Z</time>
      </trkpt>
      <trkpt lat="50.01118" lon="1.33047">
        <ele>74.3</ele>
        <time>2020-06-18T14:27:51Z</time>
      </trkpt>
      <trkpt lat="50.01119" lon="1.33052">
        <ele>74.3</ele>
        <time>2020-06-18T14:27:52Z</time>
      </trkpt>
      <trkpt lat="50.0112" lon="1.33057">
        <ele>74.3</ele>
        <time>2020-06-18T14:27:53Z</time>
      </trkpt>
      <trkpt lat="50.01121" lon="1.33062">
        <ele>74.4</ele>
        <time>2020-06-18T14:27:54Z</time>
      </trkpt>
      <trkpt lat="50.01122" lon="1.33067">
        <ele>74.5</ele>
        <time>2020-06-18T14:27:55Z</time>
      </trkpt>
      <trkpt lat="50.01124" lon="1.33072">
        <ele>74.5</ele>
        <time>2020-06-18T14:27:56Z</time>
      </trkpt>
      <trkpt lat="50.01125" lon="1.33076">
        <ele>74.6</ele>
        <time>2020-06-18T14:27:57Z</time>
      </trkpt>
      <trkpt lat="50.01126" lon="1.33081">
        <ele>74.6</ele>
        <time>2020-06-18T14:27:58Z</time>
      </trkpt>
      <trkpt lat="50.01127" lon="1.33085">
        <ele>74.6</ele>
        <time>2020-06-18T14:27:59Z</time>
      </trkpt>
      <trkpt lat="50.01128" lon="1.33091">
        <ele>74.7</ele>
        <time>2020-06-18T14:28:00Z</time>
      </trkpt>
      <trkpt lat="50.0113" lon="1.33096">
        <ele>74.7</ele>
        <time>2020-06-18T14:28:01Z</time>
      </trkpt>
      <trkpt lat="50.01131" lon="1.33102">
        <ele>74.8</ele>
        <time>2020-06-18T14:28:02Z</time>
      </trkpt>
      <trkpt lat="50.01132" lon="1.33107">
        <ele>74.8</ele>
        <time>2020-06-18T14:28:03Z</time>
      </trkpt>
      <trkpt lat="50.01134" lon="1.33112">
        <ele>74.8</ele>
        <time>2020-06-18T14:28:04Z</time>
      </trkpt>
      <trkpt lat="50.01135" lon="1.33117">
        <ele>74.8</ele>
        <time>2020-06-18T14:28:05Z</time>
      </trkpt>
      <trkpt lat="50.01137" lon="1.33123">
        <ele>74.8</ele>
        <time>2020-06-18T14:28:06Z</time>
      </trkpt>
      <trkpt lat="50.01139" lon="1.33129">
        <ele>74.9</ele>
        <time>2020-06-18T14:28:07Z</time>
      </trkpt>
      <trkpt lat="50.0114" lon="1.33134">
        <ele>74.9</ele>
        <time>2020-06-18T14:28:08Z</time>
      </trkpt>
      <trkpt lat="50.01142" lon="1.3314">
        <ele>74.9</ele>
        <time>2020-06-18T14:28:09Z</time>
      </trkpt>
      <trkpt lat="50.01144" lon="1.33147">
        <ele>74.9</ele>
        <time>2020-06-18T14:28:10Z</time>
      </trkpt>
      <trkpt lat="50.01145" lon="1.33154">
        <ele>74.9</ele>
        <time>2020-06-18T14:28:11Z</time>
      </trkpt>
      <trkpt lat="50.01147" lon="1.3316">
        <ele>74.9</ele>
        <time>2020-06-18T14:28:12Z</time>
      </trkpt>
      <trkpt lat="50.01148" lon="1.33165">
        <ele>74.9</ele>
        <time>2020-06-18T14:28:13Z</time>
      </trkpt>
      <trkpt lat="50.0115" lon="1.33171">
        <ele>74.8</ele>
        <time>2020-06-18T14:28:14Z</time>
      </trkpt>
      <trkpt lat="50.01151" lon="1.33177">
        <ele>74.8</ele>
        <time>2020-06-18T14:28:15Z</time>
      </trkpt>
      <trkpt lat="50.01152" lon="1.33183">
        <ele>74.9</ele>
        <time>2020-06-18T14:28:16Z</time>
      </trkpt>
      <trkpt lat="50.01154" lon="1.33188">
        <ele>74.9</ele>
        <time>2020-06-18T14:28:17Z</time>
      </trkpt>
      <trkpt lat="50.01155" lon="1.33194">
        <ele>74.9</ele>
        <time>2020-06-18T14:28:18Z</time>
      </trkpt>
      <trkpt lat="50.01156" lon="1.332">
        <ele>74.9</ele>
        <time>2020-06-18T14:28:19Z</time>
      </trkpt>
      <trkpt lat="50.01157" lon="1.33205">
        <ele>75</ele>
        <time>2020-06-18T14:28:20Z</time>
      </trkpt>
      <trkpt lat="50.01158" lon="1.33211">
        <ele>75</ele>
        <time>2020-06-18T14:28:21Z</time>
      </trkpt>
      <trkpt lat="50.0116" lon="1.33217">
        <ele>75.1</ele>
        <time>2020-06-18T14:28:22Z</time>
      </trkpt>
      <trkpt lat="50.01161" lon="1.33222">
        <ele>75.1</ele>
        <time>2020-06-18T14:28:23Z</time>
      </trkpt>
      <trkpt lat="50.01163" lon="1.33228">
        <ele>75.2</ele>
        <time>2020-06-18T14:28:24Z</time>
      </trkpt>
      <trkpt lat="50.01165" lon="1.33234">
        <ele>75.3</ele>
        <time>2020-06-18T14:28:25Z</time>
      </trkpt>
      <trkpt lat="50.01166" lon="1.33239">
        <ele>75.4</ele>
        <time>2020-06-18T14:28:26Z</time>
      </trkpt>
      <trkpt lat="50.01168" lon="1.33245">
        <ele>75.5</ele>
        <time>2020-06-18T14:28:27Z</time>
      </trkpt>
      <trkpt lat="50.0117" lon="1.33251">
        <ele>75.6</ele>
        <time>2020-06-18T14:28:28Z</time>
      </trkpt>
      <trkpt lat="50.01171" lon="1.33257">
        <ele>75.6</ele>
        <time>2020-06-18T14:28:29Z</time>
      </trkpt>
      <trkpt lat="50.01172" lon="1.33263">
        <ele>75.7</ele>
        <time>2020-06-18T14:28:30Z</time>
      </trkpt>
      <trkpt lat="50.01174" lon="1.33268">
        <ele>75.7</ele>
        <time>2020-06-18T14:28:31Z</time>
      </trkpt>
      <trkpt lat="50.01175" lon="1.33273">
        <ele>75.8</ele>
        <time>2020-06-18T14:28:32Z</time>
      </trkpt>
      <trkpt lat="50.01176" lon="1.33278">
        <ele>75.8</ele>
        <time>2020-06-18T14:28:33Z</time>
      </trkpt>
      <trkpt lat="50.01178" lon="1.33283">
        <ele>75.8</ele>
        <time>2020-06-18T14:28:34Z</time>
      </trkpt>
      <trkpt lat="50.01179" lon="1.33288">
        <ele>75.9</ele>
        <time>2020-06-18T14:28:35Z</time>
      </trkpt>
      <trkpt lat="50.01181" lon="1.33294">
        <ele>75.9</ele>
        <time>2020-06-18T14:28:36Z</time>
      </trkpt>
      <trkpt lat="50.01182" lon="1.333">
        <ele>75.9</ele>
        <time>2020-06-18T14:28:37Z</time>
      </trkpt>
      <trkpt lat="50.01183" lon="1.33306">
        <ele>75.9</ele>
        <time>2020-06-18T14:28:38Z</time>
      </trkpt>
      <trkpt lat="50.01184" lon="1.33312">
        <ele>75.9</ele>
        <time>2020-06-18T14:28:39Z</time>
      </trkpt>
      <trkpt lat="50.01185" lon="1.33318">
        <ele>76</ele>
        <time>2020-06-18T14:28:40Z</time>
      </trkpt>
      <trkpt lat="50.01187" lon="1.33324">
        <ele>76</ele>
        <time>2020-06-18T14:28:41Z</time>
      </trkpt>
      <trkpt lat="50.01189" lon="1.3333">
        <ele>76.1</ele>
        <time>2020-06-18T14:28:42Z</time>
      </trkpt>
      <trkpt lat="50.01191" lon="1.33337">
        <ele>76.2</ele>
        <time>2020-06-18T14:28:43Z</time>
      </trkpt>
      <trkpt lat="50.01193" lon="1.33343">
        <ele>76.2</ele>
        <time>2020-06-18T14:28:44Z</time>
      </trkpt>
      <trkpt lat="50.01194" lon="1.33351">
        <ele>76.3</ele>
        <time>2020-06-18T14:28:45Z</time>
      </trkpt>
      <trkpt lat="50.01197" lon="1.33358">
        <ele>76.3</ele>
        <time>2020-06-18T14:28:46Z</time>
      </trkpt>
      <trkpt lat="50.01198" lon="1.33365">
        <ele>76.3</ele>
        <time>2020-06-18T14:28:47Z</time>
      </trkpt>
      <trkpt lat="50.012" lon="1.33373">
        <ele>76.4</ele>
        <time>2020-06-18T14:28:48Z</time>
      </trkpt>
      <trkpt lat="50.01201" lon="1.3338">
        <ele>76.5</ele>
        <time>2020-06-18T14:28:49Z</time>
      </trkpt>
      <trkpt lat="50.01202" lon="1.33388">
        <ele>76.6</ele>
        <time>2020-06-18T14:28:50Z</time>
      </trkpt>
      <trkpt lat="50.01203" lon="1.33395">
        <ele>76.7</ele>
        <time>2020-06-18T14:28:51Z</time>
      </trkpt>
      <trkpt lat="50.01205" lon="1.33402">
        <ele>76.7</ele>
        <time>2020-06-18T14:28:52Z</time>
      </trkpt>
      <trkpt lat="50.01207" lon="1.33408">
        <ele>76.8</ele>
        <time>2020-06-18T14:28:53Z</time>
      </trkpt>
      <trkpt lat="50.01209" lon="1.33414">
        <ele>76.9</ele>
        <time>2020-06-18T14:28:54Z</time>
      </trkpt>
      <trkpt lat="50.01211" lon="1.33421">
        <ele>76.9</ele>
        <time>2020-06-18T14:28:55Z</time>
      </trkpt>
      <trkpt lat="50.01212" lon="1.33427">
        <ele>76.9</ele>
        <time>2020-06-18T14:28:56Z</time>
      </trkpt>
      <trkpt lat="50.01215" lon="1.33433">
        <ele>77</ele>
        <time>2020-06-18T14:28:57Z</time>
      </trkpt>
      <trkpt lat="50.01217" lon="1.3344">
        <ele>77</ele>
        <time>2020-06-18T14:28:58Z</time>
      </trkpt>
      <trkpt lat="50.01219" lon="1.33447">
        <ele>77</ele>
        <time>2020-06-18T14:28:59Z</time>
      </trkpt>
      <trkpt lat="50.01221" lon="1.33454">
        <ele>77</ele>
        <time>2020-06-18T14:29:00Z</time>
      </trkpt>
      <trkpt lat="50.01222" lon="1.3346">
        <ele>77</ele>
        <time>2020-06-18T14:29:01Z</time>
      </trkpt>
      <trkpt lat="50.01224" lon="1.33467">
        <ele>77</ele>
        <time>2020-06-18T14:29:02Z</time>
      </trkpt>
      <trkpt lat="50.01226" lon="1.33474">
        <ele>77.1</ele>
        <time>2020-06-18T14:29:03Z</time>
      </trkpt>
      <trkpt lat="50.01227" lon="1.33481">
        <ele>77.1</ele>
        <time>2020-06-18T14:29:04Z</time>
      </trkpt>
      <trkpt lat="50.01228" lon="1.33488">
        <ele>77.2</ele>
        <time>2020-06-18T14:29:05Z</time>
      </trkpt>
      <trkpt lat="50.0123" lon="1.33495">
        <ele>77.3</ele>
        <time>2020-06-18T14:29:06Z</time>
      </trkpt>
      <trkpt lat="50.01231" lon="1.33502">
        <ele>77.4</ele>
        <time>2020-06-18T14:29:07Z</time>
      </trkpt>
      <trkpt lat="50.01232" lon="1.33509">
        <ele>77.5</ele>
        <time>2020-06-18T14:29:08Z</time>
      </trkpt>
      <trkpt lat="50.01234" lon="1.33516">
        <ele>77.7</ele>
        <time>2020-06-18T14:29:09Z</time>
      </trkpt>
      <trkpt lat="50.01236" lon="1.33524">
        <ele>77.7</ele>
        <time>2020-06-18T14:29:10Z</time>
      </trkpt>
      <trkpt lat="50.01238" lon="1.33532">
        <ele>77.8</ele>
        <time>2020-06-18T14:29:11Z</time>
      </trkpt>
      <trkpt lat="50.0124" lon="1.33539">
        <ele>77.8</ele>
        <time>2020-06-18T14:29:12Z</time>
      </trkpt>
      <trkpt lat="50.01242" lon="1.33545">
        <ele>77.8</ele>
        <time>2020-06-18T14:29:13Z</time>
      </trkpt>
      <trkpt lat="50.01244" lon="1.33552">
        <ele>77.9</ele>
        <time>2020-06-18T14:29:14Z</time>
      </trkpt>
      <trkpt lat="50.01247" lon="1.33559">
        <ele>77.9</ele>
        <time>2020-06-18T14:29:15Z</time>
      </trkpt>
      <trkpt lat="50.01249" lon="1.33567">
        <ele>77.9</ele>
        <time>2020-06-18T14:29:16Z</time>
      </trkpt>
      <trkpt lat="50.01252" lon="1.33574">
        <ele>78</ele>
        <time>2020-06-18T14:29:17Z</time>
      </trkpt>
      <trkpt lat="50.01254" lon="1.33582">
        <ele>78</ele>
        <time>2020-06-18T14:29:18Z</time>
      </trkpt>
      <trkpt lat="50.01255" lon="1.3359">
        <ele>78</ele>
        <time>2020-06-18T14:29:19Z</time>
      </trkpt>
      <trkpt lat="50.01257" lon="1.33597">
        <ele>78</ele>
        <time>2020-06-18T14:29:20Z</time>
      </trkpt>
      <trkpt lat="50.01258" lon="1.33604">
        <ele>78</ele>
        <time>2020-06-18T14:29:21Z</time>
      </trkpt>
      <trkpt lat="50.0126" lon="1.33612">
        <ele>77.8</ele>
        <time>2020-06-18T14:29:22Z</time>
      </trkpt>
      <trkpt lat="50.01262" lon="1.33619">
        <ele>77.5</ele>
        <time>2020-06-18T14:29:23Z</time>
      </trkpt>
      <trkpt lat="50.01264" lon="1.33626">
        <ele>77.3</ele>
        <time>2020-06-18T14:29:24Z</time>
      </trkpt>
      <trkpt lat="50.01265" lon="1.33634">
        <ele>77.4</ele>
        <time>2020-06-18T14:29:25Z</time>
      </trkpt>
      <trkpt lat="50.01267" lon="1.3364">
        <ele>77.4</ele>
        <time>2020-06-18T14:29:26Z</time>
      </trkpt>
      <trkpt lat="50.01269" lon="1.33645">
        <ele>77.4</ele>
        <time>2020-06-18T14:29:27Z</time>
      </trkpt>
      <trkpt lat="50.0127" lon="1.33652">
        <ele>77.4</ele>
        <time>2020-06-18T14:29:28Z</time>
      </trkpt>
      <trkpt lat="50.01272" lon="1.33659">
        <ele>77.4</ele>
        <time>2020-06-18T14:29:29Z</time>
      </trkpt>
      <trkpt lat="50.01274" lon="1.33667">
        <ele>77.4</ele>
        <time>2020-06-18T14:29:30Z</time>
      </trkpt>
      <trkpt lat="50.01275" lon="1.33674">
        <ele>77.4</ele>
        <time>2020-06-18T14:29:31Z</time>
      </trkpt>
      <trkpt lat="50.01278" lon="1.33681">
        <ele>77.4</ele>
        <time>2020-06-18T14:29:32Z</time>
      </trkpt>
      <trkpt lat="50.01279" lon="1.33689">
        <ele>77.5</ele>
        <time>2020-06-18T14:29:33Z</time>
      </trkpt>
      <trkpt lat="50.0128" lon="1.33695">
        <ele>77.5</ele>
        <time>2020-06-18T14:29:34Z</time>
      </trkpt>
      <trkpt lat="50.01281" lon="1.33701">
        <ele>77.5</ele>
        <time>2020-06-18T14:29:35Z</time>
      </trkpt>
      <trkpt lat="50.01283" lon="1.33707">
        <ele>77.5</ele>
        <time>2020-06-18T14:29:36Z</time>
      </trkpt>
      <trkpt lat="50.01286" lon="1.33715">
        <ele>77.5</ele>
        <time>2020-06-18T14:29:37Z</time>
      </trkpt>
      <trkpt lat="50.01288" lon="1.33723">
        <ele>77.6</ele>
        <time>2020-06-18T14:29:38Z</time>
      </trkpt>
      <trkpt lat="50.01289" lon="1.3373">
        <ele>77.6</ele>
        <time>2020-06-18T14:29:39Z</time>
      </trkpt>
      <trkpt lat="50.01291" lon="1.33735">
        <ele>77.7</ele>
        <time>2020-06-18T14:29:40Z</time>
      </trkpt>
      <trkpt lat="50.01293" lon="1.3374">
        <ele>77.7</ele>
        <time>2020-06-18T14:29:41Z</time>
      </trkpt>
      <trkpt lat="50.01294" lon="1.33745">
        <ele>77.7</ele>
        <time>2020-06-18T14:29:42Z</time>
      </trkpt>
      <trkpt lat="50.01295" lon="1.3375">
        <ele>77.8</ele>
        <time>2020-06-18T14:29:43Z</time>
      </trkpt>
      <trkpt lat="50.01297" lon="1.33756">
        <ele>77.8</ele>
        <time>2020-06-18T14:29:44Z</time>
      </trkpt>
      <trkpt lat="50.01298" lon="1.33761">
        <ele>77.7</ele>
        <time>2020-06-18T14:29:45Z</time>
      </trkpt>
      <trkpt lat="50.013" lon="1.33766">
        <ele>77.6</ele>
        <time>2020-06-18T14:29:46Z</time>
      </trkpt>
      <trkpt lat="50.01301" lon="1.33772">
        <ele>77.6</ele>
        <time>2020-06-18T14:29:47Z</time>
      </trkpt>
      <trkpt lat="50.01302" lon="1.33777">
        <ele>77.5</ele>
        <time>2020-06-18T14:29:48Z</time>
      </trkpt>
      <trkpt lat="50.01305" lon="1.33784">
        <ele>77.5</ele>
        <time>2020-06-18T14:29:49Z</time>
      </trkpt>
      <trkpt lat="50.01307" lon="1.3379">
        <ele>77.4</ele>
        <time>2020-06-18T14:29:50Z</time>
      </trkpt>
      <trkpt lat="50.01309" lon="1.33796">
        <ele>77.4</ele>
        <time>2020-06-18T14:29:51Z</time>
      </trkpt>
      <trkpt lat="50.0131" lon="1.33803">
        <ele>77.4</ele>
        <time>2020-06-18T14:29:52Z</time>
      </trkpt>
      <trkpt lat="50.01311" lon="1.3381">
        <ele>77.5</ele>
        <time>2020-06-18T14:29:53Z</time>
      </trkpt>
      <trkpt lat="50.01312" lon="1.33815">
        <ele>77.5</ele>
        <time>2020-06-18T14:29:54Z</time>
      </trkpt>
      <trkpt lat="50.01314" lon="1.3382">
        <ele>77.5</ele>
        <time>2020-06-18T14:29:55Z</time>
      </trkpt>
      <trkpt lat="50.01316" lon="1.33825">
        <ele>77.6</ele>
        <time>2020-06-18T14:29:56Z</time>
      </trkpt>
      <trkpt lat="50.01318" lon="1.33831">
        <ele>77.6</ele>
        <time>2020-06-18T14:29:57Z</time>
      </trkpt>
      <trkpt lat="50.01319" lon="1.33837">
        <ele>77.6</ele>
        <time>2020-06-18T14:29:58Z</time>
      </trkpt>
      <trkpt lat="50.0132" lon="1.33842">
        <ele>77.7</ele>
        <time>2020-06-18T14:29:59Z</time>
      </trkpt>
      <trkpt lat="50.01321" lon="1.33848">
        <ele>77.7</ele>
        <time>2020-06-18T14:30:00Z</time>
      </trkpt>
      <trkpt lat="50.01323" lon="1.33853">
        <ele>77.8</ele>
        <time>2020-06-18T14:30:01Z</time>
      </trkpt>
      <trkpt lat="50.01324" lon="1.33857">
        <ele>77.8</ele>
        <time>2020-06-18T14:30:02Z</time>
      </trkpt>
      <trkpt lat="50.01324" lon="1.33862">
        <ele>77.8</ele>
        <time>2020-06-18T14:30:03Z</time>
      </trkpt>
      <trkpt lat="50.01325" lon="1.33867">
        <ele>77.8</ele>
        <time>2020-06-18T14:30:04Z</time>
      </trkpt>
      <trkpt lat="50.01326" lon="1.33872">
        <ele>77.9</ele>
        <time>2020-06-18T14:30:05Z</time>
      </trkpt>
      <trkpt lat="50.01327" lon="1.33878">
        <ele>77.9</ele>
        <time>2020-06-18T14:30:06Z</time>
      </trkpt>
      <trkpt lat="50.01328" lon="1.33881">
        <ele>77.9</ele>
        <time>2020-06-18T14:30:07Z</time>
      </trkpt>
      <trkpt lat="50.0133" lon="1.33886">
        <ele>77.8</ele>
        <time>2020-06-18T14:30:08Z</time>
      </trkpt>
      <trkpt lat="50.01331" lon="1.33891">
        <ele>77.8</ele>
        <time>2020-06-18T14:30:09Z</time>
      </trkpt>
      <trkpt lat="50.01332" lon="1.33896">
        <ele>77.8</ele>
        <time>2020-06-18T14:30:10Z</time>
      </trkpt>
      <trkpt lat="50.01333" lon="1.33901">
        <ele>77.8</ele>
        <time>2020-06-18T14:30:11Z</time>
      </trkpt>
      <trkpt lat="50.01334" lon="1.33906">
        <ele>77.8</ele>
        <time>2020-06-18T14:30:12Z</time>
      </trkpt>
      <trkpt lat="50.01335" lon="1.33913">
        <ele>77.7</ele>
        <time>2020-06-18T14:30:13Z</time>
      </trkpt>
      <trkpt lat="50.01336" lon="1.33918">
        <ele>77.7</ele>
        <time>2020-06-18T14:30:14Z</time>
      </trkpt>
      <trkpt lat="50.01337" lon="1.33924">
        <ele>77.7</ele>
        <time>2020-06-18T14:30:15Z</time>
      </trkpt>
      <trkpt lat="50.01339" lon="1.33931">
        <ele>77.7</ele>
        <time>2020-06-18T14:30:16Z</time>
      </trkpt>
      <trkpt lat="50.0134" lon="1.33936">
        <ele>77.7</ele>
        <time>2020-06-18T14:30:17Z</time>
      </trkpt>
      <trkpt lat="50.01342" lon="1.3394">
        <ele>77.7</ele>
        <time>2020-06-18T14:30:18Z</time>
      </trkpt>
      <trkpt lat="50.01343" lon="1.33945">
        <ele>77.7</ele>
        <time>2020-06-18T14:30:19Z</time>
      </trkpt>
      <trkpt lat="50.01344" lon="1.3395">
        <ele>77.7</ele>
        <time>2020-06-18T14:30:20Z</time>
      </trkpt>
      <trkpt lat="50.01345" lon="1.33954">
        <ele>77.7</ele>
        <time>2020-06-18T14:30:21Z</time>
      </trkpt>
      <trkpt lat="50.01346" lon="1.33959">
        <ele>77.7</ele>
        <time>2020-06-18T14:30:22Z</time>
      </trkpt>
      <trkpt lat="50.01348" lon="1.33964">
        <ele>77.7</ele>
        <time>2020-06-18T14:30:23Z</time>
      </trkpt>
      <trkpt lat="50.01349" lon="1.33969">
        <ele>77.7</ele>
        <time>2020-06-18T14:30:24Z</time>
      </trkpt>
      <trkpt lat="50.0135" lon="1.33973">
        <ele>77.7</ele>
        <time>2020-06-18T14:30:25Z</time>
      </trkpt>
      <trkpt lat="50.01351" lon="1.33978">
        <ele>77.7</ele>
        <time>2020-06-18T14:30:26Z</time>
      </trkpt>
      <trkpt lat="50.01354" lon="1.33984">
        <ele>77.7</ele>
        <time>2020-06-18T14:30:27Z</time>
      </trkpt>
      <trkpt lat="50.01355" lon="1.33988">
        <ele>77.7</ele>
        <time>2020-06-18T14:30:28Z</time>
      </trkpt>
      <trkpt lat="50.01356" lon="1.33992">
        <ele>77.7</ele>
        <time>2020-06-18T14:30:29Z</time>
      </trkpt>
      <trkpt lat="50.01358" lon="1.33997">
        <ele>77.6</ele>
        <time>2020-06-18T14:30:30Z</time>
      </trkpt>
      <trkpt lat="50.01359" lon="1.34002">
        <ele>77.6</ele>
        <time>2020-06-18T14:30:31Z</time>
      </trkpt>
      <trkpt lat="50.01359" lon="1.34004">
        <ele>77.6</ele>
        <time>2020-06-18T14:30:32Z</time>
      </trkpt>
      <trkpt lat="50.01362" lon="1.3401">
        <ele>77.6</ele>
        <time>2020-06-18T14:30:33Z</time>
      </trkpt>
      <trkpt lat="50.01362" lon="1.34012">
        <ele>77.6</ele>
        <time>2020-06-18T14:30:34Z</time>
      </trkpt>
      <trkpt lat="50.01364" lon="1.34017">
        <ele>77.5</ele>
        <time>2020-06-18T14:30:35Z</time>
      </trkpt>
      <trkpt lat="50.01365" lon="1.34022">
        <ele>77.5</ele>
        <time>2020-06-18T14:30:36Z</time>
      </trkpt>
      <trkpt lat="50.01366" lon="1.34028">
        <ele>77.5</ele>
        <time>2020-06-18T14:30:37Z</time>
      </trkpt>
      <trkpt lat="50.01367" lon="1.34032">
        <ele>77.5</ele>
        <time>2020-06-18T14:30:38Z</time>
      </trkpt>
      <trkpt lat="50.01367" lon="1.34038">
        <ele>77.5</ele>
        <time>2020-06-18T14:30:39Z</time>
      </trkpt>
      <trkpt lat="50.01368" lon="1.34044">
        <ele>77.5</ele>
        <time>2020-06-18T14:30:40Z</time>
      </trkpt>
      <trkpt lat="50.01369" lon="1.34049">
        <ele>77.5</ele>
        <time>2020-06-18T14:30:41Z</time>
      </trkpt>
      <trkpt lat="50.0137" lon="1.34054">
        <ele>77.5</ele>
        <time>2020-06-18T14:30:42Z</time>
      </trkpt>
      <trkpt lat="50.01372" lon="1.34059">
        <ele>77.5</ele>
        <time>2020-06-18T14:30:43Z</time>
      </trkpt>
      <trkpt lat="50.01373" lon="1.34064">
        <ele>77.4</ele>
        <time>2020-06-18T14:30:44Z</time>
      </trkpt>
      <trkpt lat="50.01374" lon="1.34068">
        <ele>77.4</ele>
        <time>2020-06-18T14:30:45Z</time>
      </trkpt>
      <trkpt lat="50.01375" lon="1.34072">
        <ele>77.4</ele>
        <time>2020-06-18T14:30:46Z</time>
      </trkpt>
      <trkpt lat="50.01377" lon="1.34078">
        <ele>77.4</ele>
        <time>2020-06-18T14:30:47Z</time>
      </trkpt>
      <trkpt lat="50.01378" lon="1.34079">
        <ele>77.4</ele>
        <time>2020-06-18T14:30:48Z</time>
      </trkpt>
      <trkpt lat="50.01379" lon="1.34084">
        <ele>77.4</ele>
        <time>2020-06-18T14:30:49Z</time>
      </trkpt>
      <trkpt lat="50.0138" lon="1.3409">
        <ele>77.3</ele>
        <time>2020-06-18T14:30:50Z</time>
      </trkpt>
      <trkpt lat="50.0138" lon="1.34092">
        <ele>77.3</ele>
        <time>2020-06-18T14:30:51Z</time>
      </trkpt>
      <trkpt lat="50.01381" lon="1.34097">
        <ele>77.3</ele>
        <time>2020-06-18T14:30:52Z</time>
      </trkpt>
      <trkpt lat="50.01383" lon="1.34102">
        <ele>77.3</ele>
        <time>2020-06-18T14:30:53Z</time>
      </trkpt>
      <trkpt lat="50.01384" lon="1.34107">
        <ele>77.3</ele>
        <time>2020-06-18T14:30:54Z</time>
      </trkpt>
      <trkpt lat="50.01385" lon="1.34113">
        <ele>77.2</ele>
        <time>2020-06-18T14:30:55Z</time>
      </trkpt>
      <trkpt lat="50.01387" lon="1.34119">
        <ele>77.2</ele>
        <time>2020-06-18T14:30:56Z</time>
      </trkpt>
      <trkpt lat="50.01388" lon="1.34125">
        <ele>77.1</ele>
        <time>2020-06-18T14:30:57Z</time>
      </trkpt>
      <trkpt lat="50.0139" lon="1.34131">
        <ele>77.1</ele>
        <time>2020-06-18T14:30:58Z</time>
      </trkpt>
      <trkpt lat="50.01392" lon="1.34137">
        <ele>77</ele>
        <time>2020-06-18T14:30:59Z</time>
      </trkpt>
      <trkpt lat="50.01393" lon="1.34143">
        <ele>77</ele>
        <time>2020-06-18T14:31:00Z</time>
      </trkpt>
      <trkpt lat="50.01394" lon="1.34148">
        <ele>76.9</ele>
        <time>2020-06-18T14:31:01Z</time>
      </trkpt>
      <trkpt lat="50.01396" lon="1.34154">
        <ele>76.9</ele>
        <time>2020-06-18T14:31:02Z</time>
      </trkpt>
      <trkpt lat="50.01396" lon="1.34159">
        <ele>76.9</ele>
        <time>2020-06-18T14:31:03Z</time>
      </trkpt>
      <trkpt lat="50.01397" lon="1.34164">
        <ele>76.8</ele>
        <time>2020-06-18T14:31:04Z</time>
      </trkpt>
      <trkpt lat="50.01399" lon="1.34169">
        <ele>76.8</ele>
        <time>2020-06-18T14:31:05Z</time>
      </trkpt>
      <trkpt lat="50.01399" lon="1.34174">
        <ele>76.8</ele>
        <time>2020-06-18T14:31:06Z</time>
      </trkpt>
      <trkpt lat="50.014" lon="1.34179">
        <ele>76.8</ele>
        <time>2020-06-18T14:31:07Z</time>
      </trkpt>
      <trkpt lat="50.01402" lon="1.34185">
        <ele>76.8</ele>
        <time>2020-06-18T14:31:08Z</time>
      </trkpt>
      <trkpt lat="50.01403" lon="1.3419">
        <ele>76.7</ele>
        <time>2020-06-18T14:31:09Z</time>
      </trkpt>
      <trkpt lat="50.01405" lon="1.34196">
        <ele>76.7</ele>
        <time>2020-06-18T14:31:10Z</time>
      </trkpt>
      <trkpt lat="50.01406" lon="1.34202">
        <ele>76.7</ele>
        <time>2020-06-18T14:31:11Z</time>
      </trkpt>
      <trkpt lat="50.01408" lon="1.34208">
        <ele>76.7</ele>
        <time>2020-06-18T14:31:12Z</time>
      </trkpt>
      <trkpt lat="50.01409" lon="1.34214">
        <ele>76.7</ele>
        <time>2020-06-18T14:31:13Z</time>
      </trkpt>
      <trkpt lat="50.01411" lon="1.3422">
        <ele>76.7</ele>
        <time>2020-06-18T14:31:14Z</time>
      </trkpt>
      <trkpt lat="50.01412" lon="1.34226">
        <ele>76.7</ele>
        <time>2020-06-18T14:31:15Z</time>
      </trkpt>
      <trkpt lat="50.01413" lon="1.34231">
        <ele>76.7</ele>
        <time>2020-06-18T14:31:16Z</time>
      </trkpt>
      <trkpt lat="50.01415" lon="1.34235">
        <ele>76.7</ele>
        <time>2020-06-18T14:31:17Z</time>
      </trkpt>
      <trkpt lat="50.01416" lon="1.3424">
        <ele>76.7</ele>
        <time>2020-06-18T14:31:18Z</time>
      </trkpt>
      <trkpt lat="50.01417" lon="1.34245">
        <ele>76.7</ele>
        <time>2020-06-18T14:31:19Z</time>
      </trkpt>
      <trkpt lat="50.01418" lon="1.3425">
        <ele>76.7</ele>
        <time>2020-06-18T14:31:20Z</time>
      </trkpt>
      <trkpt lat="50.01419" lon="1.34257">
        <ele>76.7</ele>
        <time>2020-06-18T14:31:21Z</time>
      </trkpt>
      <trkpt lat="50.01421" lon="1.34262">
        <ele>76.7</ele>
        <time>2020-06-18T14:31:22Z</time>
      </trkpt>
      <trkpt lat="50.01423" lon="1.34267">
        <ele>76.8</ele>
        <time>2020-06-18T14:31:23Z</time>
      </trkpt>
      <trkpt lat="50.01424" lon="1.34271">
        <ele>76.8</ele>
        <time>2020-06-18T14:31:24Z</time>
      </trkpt>
      <trkpt lat="50.01425" lon="1.34276">
        <ele>76.8</ele>
        <time>2020-06-18T14:31:25Z</time>
      </trkpt>
      <trkpt lat="50.01426" lon="1.3428">
        <ele>76.8</ele>
        <time>2020-06-18T14:31:26Z</time>
      </trkpt>
      <trkpt lat="50.01427" lon="1.34284">
        <ele>76.8</ele>
        <time>2020-06-18T14:31:27Z</time>
      </trkpt>
      <trkpt lat="50.01428" lon="1.3429">
        <ele>76.8</ele>
        <time>2020-06-18T14:31:28Z</time>
      </trkpt>
      <trkpt lat="50.01429" lon="1.34295">
        <ele>76.8</ele>
        <time>2020-06-18T14:31:29Z</time>
      </trkpt>
      <trkpt lat="50.0143" lon="1.343">
        <ele>76.8</ele>
        <time>2020-06-18T14:31:30Z</time>
      </trkpt>
      <trkpt lat="50.0143" lon="1.34305">
        <ele>76.8</ele>
        <time>2020-06-18T14:31:31Z</time>
      </trkpt>
      <trkpt lat="50.01431" lon="1.34311">
        <ele>76.8</ele>
        <time>2020-06-18T14:31:32Z</time>
      </trkpt>
      <trkpt lat="50.01432" lon="1.34316">
        <ele>76.8</ele>
        <time>2020-06-18T14:31:33Z</time>
      </trkpt>
      <trkpt lat="50.01433" lon="1.34321">
        <ele>76.7</ele>
        <time>2020-06-18T14:31:34Z</time>
      </trkpt>
      <trkpt lat="50.01435" lon="1.34327">
        <ele>76.7</ele>
        <time>2020-06-18T14:31:35Z</time>
      </trkpt>
      <trkpt lat="50.01436" lon="1.34334">
        <ele>76.7</ele>
        <time>2020-06-18T14:31:36Z</time>
      </trkpt>
      <trkpt lat="50.01437" lon="1.3434">
        <ele>76.7</ele>
        <time>2020-06-18T14:31:37Z</time>
      </trkpt>
      <trkpt lat="50.01438" lon="1.34347">
        <ele>76.7</ele>
        <time>2020-06-18T14:31:38Z</time>
      </trkpt>
      <trkpt lat="50.01438" lon="1.34353">
        <ele>76.7</ele>
        <time>2020-06-18T14:31:39Z</time>
      </trkpt>
      <trkpt lat="50.01441" lon="1.3436">
        <ele>76.8</ele>
        <time>2020-06-18T14:31:40Z</time>
      </trkpt>
      <trkpt lat="50.01443" lon="1.34366">
        <ele>76.8</ele>
        <time>2020-06-18T14:31:41Z</time>
      </trkpt>
      <trkpt lat="50.01445" lon="1.34372">
        <ele>76.8</ele>
        <time>2020-06-18T14:31:42Z</time>
      </trkpt>
      <trkpt lat="50.01447" lon="1.34377">
        <ele>76.8</ele>
        <time>2020-06-18T14:31:43Z</time>
      </trkpt>
      <trkpt lat="50.01449" lon="1.34384">
        <ele>76.7</ele>
        <time>2020-06-18T14:31:44Z</time>
      </trkpt>
      <trkpt lat="50.01452" lon="1.3439">
        <ele>76.7</ele>
        <time>2020-06-18T14:31:45Z</time>
      </trkpt>
      <trkpt lat="50.01454" lon="1.34396">
        <ele>76.7</ele>
        <time>2020-06-18T14:31:46Z</time>
      </trkpt>
      <trkpt lat="50.01455" lon="1.34402">
        <ele>76.7</ele>
        <time>2020-06-18T14:31:47Z</time>
      </trkpt>
      <trkpt lat="50.01457" lon="1.34408">
        <ele>76.7</ele>
        <time>2020-06-18T14:31:48Z</time>
      </trkpt>
      <trkpt lat="50.01458" lon="1.34414">
        <ele>76.7</ele>
        <time>2020-06-18T14:31:49Z</time>
      </trkpt>
      <trkpt lat="50.0146" lon="1.3442">
        <ele>76.7</ele>
        <time>2020-06-18T14:31:50Z</time>
      </trkpt>
      <trkpt lat="50.01462" lon="1.34425">
        <ele>76.6</ele>
        <time>2020-06-18T14:31:51Z</time>
      </trkpt>
      <trkpt lat="50.01464" lon="1.34431">
        <ele>76.6</ele>
        <time>2020-06-18T14:31:52Z</time>
      </trkpt>
      <trkpt lat="50.01465" lon="1.34436">
        <ele>76.6</ele>
        <time>2020-06-18T14:31:53Z</time>
      </trkpt>
      <trkpt lat="50.01466" lon="1.34442">
        <ele>76.6</ele>
        <time>2020-06-18T14:31:54Z</time>
      </trkpt>
      <trkpt lat="50.01468" lon="1.34448">
        <ele>76.5</ele>
        <time>2020-06-18T14:31:55Z</time>
      </trkpt>
      <trkpt lat="50.0147" lon="1.34454">
        <ele>76.5</ele>
        <time>2020-06-18T14:31:56Z</time>
      </trkpt>
      <trkpt lat="50.01471" lon="1.3446">
        <ele>76.5</ele>
        <time>2020-06-18T14:31:57Z</time>
      </trkpt>
      <trkpt lat="50.01473" lon="1.34466">
        <ele>76.5</ele>
        <time>2020-06-18T14:31:58Z</time>
      </trkpt>
      <trkpt lat="50.01474" lon="1.34473">
        <ele>76.5</ele>
        <time>2020-06-18T14:31:59Z</time>
      </trkpt>
      <trkpt lat="50.01475" lon="1.34479">
        <ele>76.5</ele>
        <time>2020-06-18T14:32:00Z</time>
      </trkpt>
      <trkpt lat="50.0148" lon="1.34486">
        <ele>76.5</ele>
        <time>2020-06-18T14:32:01Z</time>
      </trkpt>
      <trkpt lat="50.01483" lon="1.34492">
        <ele>76.5</ele>
        <time>2020-06-18T14:32:02Z</time>
      </trkpt>
      <trkpt lat="50.01484" lon="1.345">
        <ele>76.5</ele>
        <time>2020-06-18T14:32:03Z</time>
      </trkpt>
      <trkpt lat="50.01485" lon="1.34508">
        <ele>76.4</ele>
        <time>2020-06-18T14:32:04Z</time>
      </trkpt>
      <trkpt lat="50.01487" lon="1.34514">
        <ele>76.4</ele>
        <time>2020-06-18T14:32:05Z</time>
      </trkpt>
      <trkpt lat="50.01488" lon="1.3452">
        <ele>76.4</ele>
        <time>2020-06-18T14:32:06Z</time>
      </trkpt>
      <trkpt lat="50.01491" lon="1.34526">
        <ele>76.4</ele>
        <time>2020-06-18T14:32:07Z</time>
      </trkpt>
      <trkpt lat="50.01493" lon="1.34533">
        <ele>76.3</ele>
        <time>2020-06-18T14:32:08Z</time>
      </trkpt>
      <trkpt lat="50.01494" lon="1.34538">
        <ele>76.3</ele>
        <time>2020-06-18T14:32:09Z</time>
      </trkpt>
      <trkpt lat="50.01495" lon="1.34545">
        <ele>76.3</ele>
        <time>2020-06-18T14:32:10Z</time>
      </trkpt>
      <trkpt lat="50.01496" lon="1.34553">
        <ele>76.2</ele>
        <time>2020-06-18T14:32:11Z</time>
      </trkpt>
      <trkpt lat="50.01496" lon="1.3456">
        <ele>76.2</ele>
        <time>2020-06-18T14:32:12Z</time>
      </trkpt>
      <trkpt lat="50.01496" lon="1.34567">
        <ele>76.2</ele>
        <time>2020-06-18T14:32:13Z</time>
      </trkpt>
      <trkpt lat="50.01497" lon="1.34573">
        <ele>76.1</ele>
        <time>2020-06-18T14:32:14Z</time>
      </trkpt>
      <trkpt lat="50.01499" lon="1.34579">
        <ele>76.1</ele>
        <time>2020-06-18T14:32:15Z</time>
      </trkpt>
      <trkpt lat="50.01501" lon="1.34584">
        <ele>76.1</ele>
        <time>2020-06-18T14:32:16Z</time>
      </trkpt>
      <trkpt lat="50.01502" lon="1.34589">
        <ele>76.1</ele>
        <time>2020-06-18T14:32:17Z</time>
      </trkpt>
      <trkpt lat="50.01502" lon="1.34592">
        <ele>76.1</ele>
        <time>2020-06-18T14:32:18Z</time>
      </trkpt>
      <trkpt lat="50.01502" lon="1.34593">
        <ele>76.1</ele>
        <time>2020-06-18T14:32:19Z</time>
      </trkpt>
      <trkpt lat="50.01502" lon="1.34592">
        <ele>76.1</ele>
        <time>2020-06-18T14:32:20Z</time>
      </trkpt>
      <trkpt lat="50.01502" lon="1.34592">
        <ele>76.1</ele>
        <time>2020-06-18T14:32:21Z</time>
      </trkpt>
      <trkpt lat="50.01503" lon="1.34593">
        <ele>76.1</ele>
        <time>2020-06-18T14:32:22Z</time>
      </trkpt>
      <trkpt lat="50.01503" lon="1.34593">
        <ele>76.1</ele>
        <time>2020-06-18T14:32:23Z</time>
      </trkpt>
      <trkpt lat="50.01503" lon="1.34593">
        <ele>76.1</ele>
        <time>2020-06-18T14:32:24Z</time>
      </trkpt>
      <trkpt lat="50.01503" lon="1.34593">
        <ele>76.1</ele>
        <time>2020-06-18T14:32:25Z</time>
      </trkpt>
      <trkpt lat="50.01503" lon="1.34593">
        <ele>76.1</ele>
        <time>2020-06-18T14:32:26Z</time>
      </trkpt>
      <trkpt lat="50.01502" lon="1.34592">
        <ele>76.1</ele>
        <time>2020-06-18T14:32:27Z</time>
      </trkpt>
      <trkpt lat="50.01502" lon="1.34589">
        <ele>76.1</ele>
        <time>2020-06-18T14:32:28Z</time>
      </trkpt>
      <trkpt lat="50.01502" lon="1.34586">
        <ele>76.1</ele>
        <time>2020-06-18T14:32:29Z</time>
      </trkpt>
      <trkpt lat="50.01501" lon="1.34583">
        <ele>76.1</ele>
        <time>2020-06-18T14:32:30Z</time>
      </trkpt>
      <trkpt lat="50.01501" lon="1.34582">
        <ele>76.1</ele>
        <time>2020-06-18T14:32:31Z</time>
      </trkpt>
      <trkpt lat="50.015" lon="1.34582">
        <ele>76.1</ele>
        <time>2020-06-18T14:32:32Z</time>
      </trkpt>
      <trkpt lat="50.01499" lon="1.34579">
        <ele>76.1</ele>
        <time>2020-06-18T14:32:33Z</time>
      </trkpt>
      <trkpt lat="50.01497" lon="1.34579">
        <ele>76.1</ele>
        <time>2020-06-18T14:32:34Z</time>
      </trkpt>
      <trkpt lat="50.01497" lon="1.3458">
        <ele>76.1</ele>
        <time>2020-06-18T14:32:35Z</time>
      </trkpt>
      <trkpt lat="50.01497" lon="1.34581">
        <ele>76.1</ele>
        <time>2020-06-18T14:32:36Z</time>
      </trkpt>
      <trkpt lat="50.01497" lon="1.34581">
        <ele>76.1</ele>
        <time>2020-06-18T14:32:37Z</time>
      </trkpt>
      <trkpt lat="50.01497" lon="1.34582">
        <ele>76.1</ele>
        <time>2020-06-18T14:32:38Z</time>
      </trkpt>
      <trkpt lat="50.01497" lon="1.34583">
        <ele>76.1</ele>
        <time>2020-06-18T14:32:39Z</time>
      </trkpt>
      <trkpt lat="50.01497" lon="1.34584">
        <ele>76.1</ele>
        <time>2020-06-18T14:32:40Z</time>
      </trkpt>
      <trkpt lat="50.01497" lon="1.34584">
        <ele>76.1</ele>
        <time>2020-06-18T14:33:08Z</time>
      </trkpt>
      <trkpt lat="50.01497" lon="1.34585">
        <ele>76.1</ele>
        <time>2020-06-18T14:33:09Z</time>
      </trkpt>
      <trkpt lat="50.01497" lon="1.34586">
        <ele>76.1</ele>
        <time>2020-06-18T14:33:10Z</time>
      </trkpt>
      <trkpt lat="50.01496" lon="1.34587">
        <ele>76.1</ele>
        <time>2020-06-18T14:33:11Z</time>
      </trkpt>
      <trkpt lat="50.01496" lon="1.34588">
        <ele>76.1</ele>
        <time>2020-06-18T14:33:12Z</time>
      </trkpt>
      <trkpt lat="50.01496" lon="1.34588">
        <ele>76.1</ele>
        <time>2020-06-18T14:33:13Z</time>
      </trkpt>
      <trkpt lat="50.01495" lon="1.34588">
        <ele>76.1</ele>
        <time>2020-06-18T14:33:14Z</time>
      </trkpt>
      <trkpt lat="50.01496" lon="1.34591">
        <ele>76.1</ele>
        <time>2020-06-18T14:33:15Z</time>
      </trkpt>
      <trkpt lat="50.01496" lon="1.34593">
        <ele>76.1</ele>
        <time>2020-06-18T14:33:16Z</time>
      </trkpt>
      <trkpt lat="50.01496" lon="1.34595">
        <ele>76.1</ele>
        <time>2020-06-18T14:33:17Z</time>
      </trkpt>
      <trkpt lat="50.01498" lon="1.346">
        <ele>76.1</ele>
        <time>2020-06-18T14:33:18Z</time>
      </trkpt>
      <trkpt lat="50.01498" lon="1.34602">
        <ele>76</ele>
        <time>2020-06-18T14:33:19Z</time>
      </trkpt>
      <trkpt lat="50.01501" lon="1.34606">
        <ele>76</ele>
        <time>2020-06-18T14:33:20Z</time>
      </trkpt>
      <trkpt lat="50.01502" lon="1.34607">
        <ele>76</ele>
        <time>2020-06-18T14:33:21Z</time>
      </trkpt>
      <trkpt lat="50.01503" lon="1.34611">
        <ele>76</ele>
        <time>2020-06-18T14:33:22Z</time>
      </trkpt>
      <trkpt lat="50.01505" lon="1.34615">
        <ele>76</ele>
        <time>2020-06-18T14:33:23Z</time>
      </trkpt>
      <trkpt lat="50.01507" lon="1.3462">
        <ele>76.1</ele>
        <time>2020-06-18T14:33:24Z</time>
      </trkpt>
      <trkpt lat="50.0151" lon="1.34625">
        <ele>76.1</ele>
        <time>2020-06-18T14:33:25Z</time>
      </trkpt>
      <trkpt lat="50.01512" lon="1.34629">
        <ele>76.1</ele>
        <time>2020-06-18T14:33:26Z</time>
      </trkpt>
      <trkpt lat="50.01514" lon="1.34633">
        <ele>76.1</ele>
        <time>2020-06-18T14:33:27Z</time>
      </trkpt>
      <trkpt lat="50.01517" lon="1.34638">
        <ele>76.1</ele>
        <time>2020-06-18T14:33:28Z</time>
      </trkpt>
      <trkpt lat="50.01519" lon="1.34644">
        <ele>76.1</ele>
        <time>2020-06-18T14:33:29Z</time>
      </trkpt>
      <trkpt lat="50.01522" lon="1.3465">
        <ele>76.1</ele>
        <time>2020-06-18T14:33:30Z</time>
      </trkpt>
      <trkpt lat="50.01524" lon="1.34657">
        <ele>76.1</ele>
        <time>2020-06-18T14:33:31Z</time>
      </trkpt>
      <trkpt lat="50.01527" lon="1.34662">
        <ele>76</ele>
        <time>2020-06-18T14:33:32Z</time>
      </trkpt>
      <trkpt lat="50.01529" lon="1.34669">
        <ele>76</ele>
        <time>2020-06-18T14:33:33Z</time>
      </trkpt>
      <trkpt lat="50.01532" lon="1.34675">
        <ele>76</ele>
        <time>2020-06-18T14:33:34Z</time>
      </trkpt>
      <trkpt lat="50.01535" lon="1.34683">
        <ele>76</ele>
        <time>2020-06-18T14:33:35Z</time>
      </trkpt>
      <trkpt lat="50.01537" lon="1.3469">
        <ele>76</ele>
        <time>2020-06-18T14:33:36Z</time>
      </trkpt>
      <trkpt lat="50.01538" lon="1.34697">
        <ele>76</ele>
        <time>2020-06-18T14:33:37Z</time>
      </trkpt>
      <trkpt lat="50.0154" lon="1.34705">
        <ele>75.9</ele>
        <time>2020-06-18T14:33:38Z</time>
      </trkpt>
      <trkpt lat="50.01543" lon="1.34713">
        <ele>75.9</ele>
        <time>2020-06-18T14:33:39Z</time>
      </trkpt>
      <trkpt lat="50.01545" lon="1.34721">
        <ele>75.9</ele>
        <time>2020-06-18T14:33:40Z</time>
      </trkpt>
      <trkpt lat="50.01546" lon="1.3473">
        <ele>75.9</ele>
        <time>2020-06-18T14:33:41Z</time>
      </trkpt>
      <trkpt lat="50.01547" lon="1.34738">
        <ele>75.8</ele>
        <time>2020-06-18T14:33:42Z</time>
      </trkpt>
      <trkpt lat="50.01549" lon="1.34749">
        <ele>75.8</ele>
        <time>2020-06-18T14:33:43Z</time>
      </trkpt>
      <trkpt lat="50.01551" lon="1.34757">
        <ele>75.8</ele>
        <time>2020-06-18T14:33:44Z</time>
      </trkpt>
      <trkpt lat="50.01552" lon="1.34765">
        <ele>75.8</ele>
        <time>2020-06-18T14:33:45Z</time>
      </trkpt>
      <trkpt lat="50.01552" lon="1.34773">
        <ele>75.7</ele>
        <time>2020-06-18T14:33:46Z</time>
      </trkpt>
      <trkpt lat="50.01553" lon="1.34783">
        <ele>75.7</ele>
        <time>2020-06-18T14:33:47Z</time>
      </trkpt>
      <trkpt lat="50.01554" lon="1.34792">
        <ele>75.7</ele>
        <time>2020-06-18T14:33:48Z</time>
      </trkpt>
      <trkpt lat="50.01555" lon="1.34802">
        <ele>75.7</ele>
        <time>2020-06-18T14:33:49Z</time>
      </trkpt>
      <trkpt lat="50.01557" lon="1.34812">
        <ele>75.7</ele>
        <time>2020-06-18T14:33:50Z</time>
      </trkpt>
      <trkpt lat="50.0156" lon="1.34822">
        <ele>75.7</ele>
        <time>2020-06-18T14:33:51Z</time>
      </trkpt>
      <trkpt lat="50.01562" lon="1.34831">
        <ele>75.7</ele>
        <time>2020-06-18T14:33:52Z</time>
      </trkpt>
      <trkpt lat="50.01564" lon="1.34841">
        <ele>75.6</ele>
        <time>2020-06-18T14:33:53Z</time>
      </trkpt>
      <trkpt lat="50.01567" lon="1.34853">
        <ele>75.5</ele>
        <time>2020-06-18T14:33:54Z</time>
      </trkpt>
      <trkpt lat="50.0157" lon="1.34863">
        <ele>75.5</ele>
        <time>2020-06-18T14:33:55Z</time>
      </trkpt>
      <trkpt lat="50.01573" lon="1.34874">
        <ele>75.4</ele>
        <time>2020-06-18T14:33:56Z</time>
      </trkpt>
      <trkpt lat="50.01575" lon="1.34884">
        <ele>75.4</ele>
        <time>2020-06-18T14:33:57Z</time>
      </trkpt>
      <trkpt lat="50.01578" lon="1.34895">
        <ele>75.4</ele>
        <time>2020-06-18T14:33:58Z</time>
      </trkpt>
      <trkpt lat="50.0158" lon="1.34906">
        <ele>75.4</ele>
        <time>2020-06-18T14:33:59Z</time>
      </trkpt>
      <trkpt lat="50.01583" lon="1.34917">
        <ele>75.4</ele>
        <time>2020-06-18T14:34:00Z</time>
      </trkpt>
      <trkpt lat="50.01586" lon="1.34928">
        <ele>75.4</ele>
        <time>2020-06-18T14:34:01Z</time>
      </trkpt>
      <trkpt lat="50.01589" lon="1.34939">
        <ele>75.4</ele>
        <time>2020-06-18T14:34:02Z</time>
      </trkpt>
      <trkpt lat="50.01591" lon="1.3495">
        <ele>75.4</ele>
        <time>2020-06-18T14:34:03Z</time>
      </trkpt>
      <trkpt lat="50.01593" lon="1.34961">
        <ele>75.3</ele>
        <time>2020-06-18T14:34:04Z</time>
      </trkpt>
      <trkpt lat="50.01595" lon="1.34972">
        <ele>75.3</ele>
        <time>2020-06-18T14:34:05Z</time>
      </trkpt>
      <trkpt lat="50.01597" lon="1.34984">
        <ele>75.2</ele>
        <time>2020-06-18T14:34:06Z</time>
      </trkpt>
      <trkpt lat="50.01599" lon="1.34996">
        <ele>75.2</ele>
        <time>2020-06-18T14:34:07Z</time>
      </trkpt>
      <trkpt lat="50.01602" lon="1.35007">
        <ele>75.3</ele>
        <time>2020-06-18T14:34:08Z</time>
      </trkpt>
      <trkpt lat="50.01605" lon="1.35019">
        <ele>75.4</ele>
        <time>2020-06-18T14:34:09Z</time>
      </trkpt>
      <trkpt lat="50.01608" lon="1.3503">
        <ele>75.4</ele>
        <time>2020-06-18T14:34:10Z</time>
      </trkpt>
      <trkpt lat="50.01611" lon="1.35042">
        <ele>75.4</ele>
        <time>2020-06-18T14:34:11Z</time>
      </trkpt>
      <trkpt lat="50.01615" lon="1.35054">
        <ele>75.4</ele>
        <time>2020-06-18T14:34:12Z</time>
      </trkpt>
      <trkpt lat="50.01618" lon="1.35065">
        <ele>75.3</ele>
        <time>2020-06-18T14:34:13Z</time>
      </trkpt>
      <trkpt lat="50.01622" lon="1.35077">
        <ele>75.3</ele>
        <time>2020-06-18T14:34:14Z</time>
      </trkpt>
      <trkpt lat="50.01626" lon="1.35089">
        <ele>75.3</ele>
        <time>2020-06-18T14:34:15Z</time>
      </trkpt>
      <trkpt lat="50.01629" lon="1.351">
        <ele>75.3</ele>
        <time>2020-06-18T14:34:16Z</time>
      </trkpt>
      <trkpt lat="50.01632" lon="1.35112">
        <ele>75.3</ele>
        <time>2020-06-18T14:34:17Z</time>
      </trkpt>
      <trkpt lat="50.01635" lon="1.35125">
        <ele>75.2</ele>
        <time>2020-06-18T14:34:18Z</time>
      </trkpt>
      <trkpt lat="50.01638" lon="1.35136">
        <ele>75.2</ele>
        <time>2020-06-18T14:34:19Z</time>
      </trkpt>
      <trkpt lat="50.01641" lon="1.35147">
        <ele>75.1</ele>
        <time>2020-06-18T14:34:20Z</time>
      </trkpt>
      <trkpt lat="50.01644" lon="1.35159">
        <ele>75</ele>
        <time>2020-06-18T14:34:21Z</time>
      </trkpt>
      <trkpt lat="50.01647" lon="1.3517">
        <ele>75</ele>
        <time>2020-06-18T14:34:22Z</time>
      </trkpt>
      <trkpt lat="50.0165" lon="1.35182">
        <ele>74.9</ele>
        <time>2020-06-18T14:34:23Z</time>
      </trkpt>
      <trkpt lat="50.01653" lon="1.35193">
        <ele>74.8</ele>
        <time>2020-06-18T14:34:24Z</time>
      </trkpt>
      <trkpt lat="50.01655" lon="1.35204">
        <ele>74.7</ele>
        <time>2020-06-18T14:34:25Z</time>
      </trkpt>
      <trkpt lat="50.01658" lon="1.35215">
        <ele>74.7</ele>
        <time>2020-06-18T14:34:26Z</time>
      </trkpt>
      <trkpt lat="50.01661" lon="1.35226">
        <ele>74.6</ele>
        <time>2020-06-18T14:34:27Z</time>
      </trkpt>
      <trkpt lat="50.01663" lon="1.35236">
        <ele>74.6</ele>
        <time>2020-06-18T14:34:28Z</time>
      </trkpt>
      <trkpt lat="50.01666" lon="1.35246">
        <ele>74.5</ele>
        <time>2020-06-18T14:34:29Z</time>
      </trkpt>
      <trkpt lat="50.01669" lon="1.35257">
        <ele>74.5</ele>
        <time>2020-06-18T14:34:30Z</time>
      </trkpt>
      <trkpt lat="50.01672" lon="1.35267">
        <ele>74.4</ele>
        <time>2020-06-18T14:34:31Z</time>
      </trkpt>
      <trkpt lat="50.01674" lon="1.35278">
        <ele>74.5</ele>
        <time>2020-06-18T14:34:32Z</time>
      </trkpt>
      <trkpt lat="50.01676" lon="1.35289">
        <ele>74.5</ele>
        <time>2020-06-18T14:34:33Z</time>
      </trkpt>
      <trkpt lat="50.01679" lon="1.35299">
        <ele>74.6</ele>
        <time>2020-06-18T14:34:34Z</time>
      </trkpt>
      <trkpt lat="50.01682" lon="1.35309">
        <ele>74.6</ele>
        <time>2020-06-18T14:34:35Z</time>
      </trkpt>
      <trkpt lat="50.01684" lon="1.35319">
        <ele>74.6</ele>
        <time>2020-06-18T14:34:36Z</time>
      </trkpt>
      <trkpt lat="50.01687" lon="1.35329">
        <ele>74.5</ele>
        <time>2020-06-18T14:34:37Z</time>
      </trkpt>
      <trkpt lat="50.01689" lon="1.35339">
        <ele>74.3</ele>
        <time>2020-06-18T14:34:38Z</time>
      </trkpt>
      <trkpt lat="50.01691" lon="1.35348">
        <ele>74.2</ele>
        <time>2020-06-18T14:34:39Z</time>
      </trkpt>
      <trkpt lat="50.01693" lon="1.35358">
        <ele>74.1</ele>
        <time>2020-06-18T14:34:40Z</time>
      </trkpt>
      <trkpt lat="50.01696" lon="1.35368">
        <ele>74</ele>
        <time>2020-06-18T14:34:41Z</time>
      </trkpt>
      <trkpt lat="50.01698" lon="1.35378">
        <ele>74</ele>
        <time>2020-06-18T14:34:42Z</time>
      </trkpt>
      <trkpt lat="50.017" lon="1.35388">
        <ele>74</ele>
        <time>2020-06-18T14:34:43Z</time>
      </trkpt>
      <trkpt lat="50.01703" lon="1.35398">
        <ele>74.1</ele>
        <time>2020-06-18T14:34:44Z</time>
      </trkpt>
      <trkpt lat="50.01705" lon="1.35408">
        <ele>74.1</ele>
        <time>2020-06-18T14:34:45Z</time>
      </trkpt>
      <trkpt lat="50.01707" lon="1.35418">
        <ele>74.1</ele>
        <time>2020-06-18T14:34:46Z</time>
      </trkpt>
      <trkpt lat="50.0171" lon="1.35428">
        <ele>74.1</ele>
        <time>2020-06-18T14:34:47Z</time>
      </trkpt>
      <trkpt lat="50.01713" lon="1.35438">
        <ele>74</ele>
        <time>2020-06-18T14:34:48Z</time>
      </trkpt>
      <trkpt lat="50.01716" lon="1.35449">
        <ele>73.9</ele>
        <time>2020-06-18T14:34:49Z</time>
      </trkpt>
      <trkpt lat="50.01719" lon="1.35459">
        <ele>73.8</ele>
        <time>2020-06-18T14:34:50Z</time>
      </trkpt>
      <trkpt lat="50.01721" lon="1.35469">
        <ele>73.7</ele>
        <time>2020-06-18T14:34:51Z</time>
      </trkpt>
      <trkpt lat="50.01723" lon="1.3548">
        <ele>73.6</ele>
        <time>2020-06-18T14:34:52Z</time>
      </trkpt>
      <trkpt lat="50.01725" lon="1.3549">
        <ele>73.6</ele>
        <time>2020-06-18T14:34:53Z</time>
      </trkpt>
      <trkpt lat="50.01728" lon="1.355">
        <ele>73.6</ele>
        <time>2020-06-18T14:34:54Z</time>
      </trkpt>
      <trkpt lat="50.0173" lon="1.3551">
        <ele>73.5</ele>
        <time>2020-06-18T14:34:55Z</time>
      </trkpt>
      <trkpt lat="50.01733" lon="1.35519">
        <ele>73.5</ele>
        <time>2020-06-18T14:34:56Z</time>
      </trkpt>
      <trkpt lat="50.01735" lon="1.35529">
        <ele>73.4</ele>
        <time>2020-06-18T14:34:57Z</time>
      </trkpt>
      <trkpt lat="50.01737" lon="1.35537">
        <ele>73.4</ele>
        <time>2020-06-18T14:34:58Z</time>
      </trkpt>
      <trkpt lat="50.0174" lon="1.35546">
        <ele>73.4</ele>
        <time>2020-06-18T14:34:59Z</time>
      </trkpt>
      <trkpt lat="50.01742" lon="1.35555">
        <ele>73.5</ele>
        <time>2020-06-18T14:35:00Z</time>
      </trkpt>
      <trkpt lat="50.01744" lon="1.35564">
        <ele>73.5</ele>
        <time>2020-06-18T14:35:01Z</time>
      </trkpt>
      <trkpt lat="50.01746" lon="1.35573">
        <ele>73.5</ele>
        <time>2020-06-18T14:35:02Z</time>
      </trkpt>
      <trkpt lat="50.01749" lon="1.35582">
        <ele>73.6</ele>
        <time>2020-06-18T14:35:03Z</time>
      </trkpt>
      <trkpt lat="50.01751" lon="1.35591">
        <ele>73.6</ele>
        <time>2020-06-18T14:35:04Z</time>
      </trkpt>
      <trkpt lat="50.01753" lon="1.356">
        <ele>73.6</ele>
        <time>2020-06-18T14:35:05Z</time>
      </trkpt>
      <trkpt lat="50.01755" lon="1.35609">
        <ele>73.5</ele>
        <time>2020-06-18T14:35:06Z</time>
      </trkpt>
      <trkpt lat="50.01757" lon="1.35618">
        <ele>73.5</ele>
        <time>2020-06-18T14:35:07Z</time>
      </trkpt>
      <trkpt lat="50.01759" lon="1.35627">
        <ele>73.5</ele>
        <time>2020-06-18T14:35:08Z</time>
      </trkpt>
      <trkpt lat="50.01761" lon="1.35635">
        <ele>73.5</ele>
        <time>2020-06-18T14:35:09Z</time>
      </trkpt>
      <trkpt lat="50.01763" lon="1.35644">
        <ele>73.4</ele>
        <time>2020-06-18T14:35:10Z</time>
      </trkpt>
      <trkpt lat="50.01765" lon="1.35654">
        <ele>73.4</ele>
        <time>2020-06-18T14:35:11Z</time>
      </trkpt>
      <trkpt lat="50.01767" lon="1.35664">
        <ele>73.4</ele>
        <time>2020-06-18T14:35:12Z</time>
      </trkpt>
      <trkpt lat="50.0177" lon="1.35673">
        <ele>73.3</ele>
        <time>2020-06-18T14:35:13Z</time>
      </trkpt>
      <trkpt lat="50.01773" lon="1.35682">
        <ele>73.3</ele>
        <time>2020-06-18T14:35:14Z</time>
      </trkpt>
      <trkpt lat="50.01776" lon="1.35692">
        <ele>73.2</ele>
        <time>2020-06-18T14:35:15Z</time>
      </trkpt>
      <trkpt lat="50.01778" lon="1.35702">
        <ele>73.1</ele>
        <time>2020-06-18T14:35:16Z</time>
      </trkpt>
      <trkpt lat="50.0178" lon="1.35713">
        <ele>73</ele>
        <time>2020-06-18T14:35:17Z</time>
      </trkpt>
      <trkpt lat="50.01782" lon="1.35723">
        <ele>72.9</ele>
        <time>2020-06-18T14:35:18Z</time>
      </trkpt>
      <trkpt lat="50.01784" lon="1.35733">
        <ele>72.9</ele>
        <time>2020-06-18T14:35:19Z</time>
      </trkpt>
      <trkpt lat="50.01786" lon="1.35743">
        <ele>72.9</ele>
        <time>2020-06-18T14:35:20Z</time>
      </trkpt>
      <trkpt lat="50.01789" lon="1.35752">
        <ele>72.9</ele>
        <time>2020-06-18T14:35:21Z</time>
      </trkpt>
      <trkpt lat="50.01791" lon="1.3576">
        <ele>73</ele>
        <time>2020-06-18T14:35:22Z</time>
      </trkpt>
      <trkpt lat="50.01794" lon="1.35768">
        <ele>73</ele>
        <time>2020-06-18T14:35:23Z</time>
      </trkpt>
      <trkpt lat="50.01795" lon="1.35774">
        <ele>73</ele>
        <time>2020-06-18T14:35:24Z</time>
      </trkpt>
      <trkpt lat="50.01797" lon="1.35784">
        <ele>73.1</ele>
        <time>2020-06-18T14:35:25Z</time>
      </trkpt>
      <trkpt lat="50.01799" lon="1.3579">
        <ele>73.1</ele>
        <time>2020-06-18T14:35:26Z</time>
      </trkpt>
      <trkpt lat="50.01801" lon="1.35797">
        <ele>73.1</ele>
        <time>2020-06-18T14:35:27Z</time>
      </trkpt>
      <trkpt lat="50.01802" lon="1.35804">
        <ele>73.2</ele>
        <time>2020-06-18T14:35:28Z</time>
      </trkpt>
      <trkpt lat="50.01804" lon="1.3581">
        <ele>73.2</ele>
        <time>2020-06-18T14:35:29Z</time>
      </trkpt>
      <trkpt lat="50.01806" lon="1.35817">
        <ele>73.2</ele>
        <time>2020-06-18T14:35:30Z</time>
      </trkpt>
      <trkpt lat="50.01807" lon="1.35824">
        <ele>73.3</ele>
        <time>2020-06-18T14:35:31Z</time>
      </trkpt>
      <trkpt lat="50.01809" lon="1.35831">
        <ele>73.3</ele>
        <time>2020-06-18T14:35:32Z</time>
      </trkpt>
      <trkpt lat="50.01811" lon="1.35838">
        <ele>73.4</ele>
        <time>2020-06-18T14:35:33Z</time>
      </trkpt>
      <trkpt lat="50.01813" lon="1.35845">
        <ele>73.4</ele>
        <time>2020-06-18T14:35:34Z</time>
      </trkpt>
      <trkpt lat="50.01816" lon="1.35853">
        <ele>73.5</ele>
        <time>2020-06-18T14:35:35Z</time>
      </trkpt>
      <trkpt lat="50.01817" lon="1.35859">
        <ele>73.6</ele>
        <time>2020-06-18T14:35:36Z</time>
      </trkpt>
      <trkpt lat="50.01819" lon="1.35866">
        <ele>73.7</ele>
        <time>2020-06-18T14:35:37Z</time>
      </trkpt>
      <trkpt lat="50.0182" lon="1.35874">
        <ele>73.8</ele>
        <time>2020-06-18T14:35:38Z</time>
      </trkpt>
      <trkpt lat="50.01822" lon="1.35882">
        <ele>74</ele>
        <time>2020-06-18T14:35:39Z</time>
      </trkpt>
      <trkpt lat="50.01824" lon="1.3589">
        <ele>74.1</ele>
        <time>2020-06-18T14:35:40Z</time>
      </trkpt>
      <trkpt lat="50.01825" lon="1.35896">
        <ele>74.1</ele>
        <time>2020-06-18T14:35:41Z</time>
      </trkpt>
      <trkpt lat="50.01827" lon="1.35903">
        <ele>74.1</ele>
        <time>2020-06-18T14:35:42Z</time>
      </trkpt>
      <trkpt lat="50.01829" lon="1.35908">
        <ele>74.1</ele>
        <time>2020-06-18T14:35:43Z</time>
      </trkpt>
      <trkpt lat="50.01831" lon="1.35912">
        <ele>74.1</ele>
        <time>2020-06-18T14:35:44Z</time>
      </trkpt>
      <trkpt lat="50.01833" lon="1.35916">
        <ele>74.1</ele>
        <time>2020-06-18T14:35:45Z</time>
      </trkpt>
      <trkpt lat="50.01834" lon="1.3592">
        <ele>74</ele>
        <time>2020-06-18T14:35:46Z</time>
      </trkpt>
      <trkpt lat="50.01836" lon="1.35924">
        <ele>74</ele>
        <time>2020-06-18T14:35:47Z</time>
      </trkpt>
      <trkpt lat="50.01838" lon="1.35926">
        <ele>74</ele>
        <time>2020-06-18T14:35:48Z</time>
      </trkpt>
      <trkpt lat="50.01842" lon="1.3593">
        <ele>74</ele>
        <time>2020-06-18T14:35:49Z</time>
      </trkpt>
      <trkpt lat="50.01845" lon="1.35934">
        <ele>73.9</ele>
        <time>2020-06-18T14:35:50Z</time>
      </trkpt>
      <trkpt lat="50.01848" lon="1.35939">
        <ele>73.9</ele>
        <time>2020-06-18T14:35:51Z</time>
      </trkpt>
      <trkpt lat="50.0185" lon="1.35945">
        <ele>73.8</ele>
        <time>2020-06-18T14:35:52Z</time>
      </trkpt>
      <trkpt lat="50.01851" lon="1.35952">
        <ele>73.9</ele>
        <time>2020-06-18T14:35:53Z</time>
      </trkpt>
      <trkpt lat="50.01851" lon="1.35959">
        <ele>73.9</ele>
        <time>2020-06-18T14:35:54Z</time>
      </trkpt>
      <trkpt lat="50.01851" lon="1.35967">
        <ele>74</ele>
        <time>2020-06-18T14:35:55Z</time>
      </trkpt>
      <trkpt lat="50.01851" lon="1.35976">
        <ele>74.1</ele>
        <time>2020-06-18T14:35:56Z</time>
      </trkpt>
      <trkpt lat="50.01851" lon="1.35984">
        <ele>74.2</ele>
        <time>2020-06-18T14:35:57Z</time>
      </trkpt>
      <trkpt lat="50.01852" lon="1.35992">
        <ele>74.3</ele>
        <time>2020-06-18T14:35:58Z</time>
      </trkpt>
      <trkpt lat="50.01853" lon="1.36">
        <ele>74.4</ele>
        <time>2020-06-18T14:35:59Z</time>
      </trkpt>
      <trkpt lat="50.01853" lon="1.36009">
        <ele>74.5</ele>
        <time>2020-06-18T14:36:00Z</time>
      </trkpt>
      <trkpt lat="50.01854" lon="1.36018">
        <ele>74.6</ele>
        <time>2020-06-18T14:36:01Z</time>
      </trkpt>
      <trkpt lat="50.01855" lon="1.36028">
        <ele>74.6</ele>
        <time>2020-06-18T14:36:02Z</time>
      </trkpt>
      <trkpt lat="50.01856" lon="1.36038">
        <ele>74.7</ele>
        <time>2020-06-18T14:36:03Z</time>
      </trkpt>
      <trkpt lat="50.01858" lon="1.36048">
        <ele>74.8</ele>
        <time>2020-06-18T14:36:04Z</time>
      </trkpt>
      <trkpt lat="50.01861" lon="1.36059">
        <ele>74.9</ele>
        <time>2020-06-18T14:36:05Z</time>
      </trkpt>
      <trkpt lat="50.01863" lon="1.3607">
        <ele>75</ele>
        <time>2020-06-18T14:36:06Z</time>
      </trkpt>
      <trkpt lat="50.01866" lon="1.3608">
        <ele>75.1</ele>
        <time>2020-06-18T14:36:07Z</time>
      </trkpt>
      <trkpt lat="50.01868" lon="1.3609">
        <ele>75.2</ele>
        <time>2020-06-18T14:36:08Z</time>
      </trkpt>
      <trkpt lat="50.0187" lon="1.36101">
        <ele>75.3</ele>
        <time>2020-06-18T14:36:09Z</time>
      </trkpt>
      <trkpt lat="50.01873" lon="1.3611">
        <ele>75.3</ele>
        <time>2020-06-18T14:36:10Z</time>
      </trkpt>
      <trkpt lat="50.01875" lon="1.36119">
        <ele>75.4</ele>
        <time>2020-06-18T14:36:11Z</time>
      </trkpt>
      <trkpt lat="50.01877" lon="1.36129">
        <ele>75.5</ele>
        <time>2020-06-18T14:36:12Z</time>
      </trkpt>
      <trkpt lat="50.01879" lon="1.36137">
        <ele>75.6</ele>
        <time>2020-06-18T14:36:13Z</time>
      </trkpt>
      <trkpt lat="50.01882" lon="1.36148">
        <ele>75.7</ele>
        <time>2020-06-18T14:36:14Z</time>
      </trkpt>
      <trkpt lat="50.01884" lon="1.36159">
        <ele>75.8</ele>
        <time>2020-06-18T14:36:15Z</time>
      </trkpt>
      <trkpt lat="50.01887" lon="1.3617">
        <ele>75.7</ele>
        <time>2020-06-18T14:36:16Z</time>
      </trkpt>
      <trkpt lat="50.01889" lon="1.36181">
        <ele>75.7</ele>
        <time>2020-06-18T14:36:17Z</time>
      </trkpt>
      <trkpt lat="50.01891" lon="1.36191">
        <ele>75.6</ele>
        <time>2020-06-18T14:36:18Z</time>
      </trkpt>
      <trkpt lat="50.01894" lon="1.36202">
        <ele>75.7</ele>
        <time>2020-06-18T14:36:19Z</time>
      </trkpt>
      <trkpt lat="50.01896" lon="1.36212">
        <ele>75.7</ele>
        <time>2020-06-18T14:36:20Z</time>
      </trkpt>
      <trkpt lat="50.01899" lon="1.36221">
        <ele>75.8</ele>
        <time>2020-06-18T14:36:21Z</time>
      </trkpt>
      <trkpt lat="50.01901" lon="1.36229">
        <ele>75.8</ele>
        <time>2020-06-18T14:36:22Z</time>
      </trkpt>
      <trkpt lat="50.01903" lon="1.36239">
        <ele>75.9</ele>
        <time>2020-06-18T14:36:23Z</time>
      </trkpt>
      <trkpt lat="50.01905" lon="1.36248">
        <ele>76</ele>
        <time>2020-06-18T14:36:24Z</time>
      </trkpt>
      <trkpt lat="50.01907" lon="1.36257">
        <ele>76.1</ele>
        <time>2020-06-18T14:36:25Z</time>
      </trkpt>
      <trkpt lat="50.0191" lon="1.36265">
        <ele>76.2</ele>
        <time>2020-06-18T14:36:26Z</time>
      </trkpt>
      <trkpt lat="50.01911" lon="1.36273">
        <ele>76.3</ele>
        <time>2020-06-18T14:36:27Z</time>
      </trkpt>
      <trkpt lat="50.01913" lon="1.3628">
        <ele>76.4</ele>
        <time>2020-06-18T14:36:28Z</time>
      </trkpt>
      <trkpt lat="50.01915" lon="1.36289">
        <ele>76.5</ele>
        <time>2020-06-18T14:36:29Z</time>
      </trkpt>
      <trkpt lat="50.01918" lon="1.36299">
        <ele>76.6</ele>
        <time>2020-06-18T14:36:30Z</time>
      </trkpt>
      <trkpt lat="50.0192" lon="1.36309">
        <ele>76.7</ele>
        <time>2020-06-18T14:36:31Z</time>
      </trkpt>
      <trkpt lat="50.01923" lon="1.36318">
        <ele>76.8</ele>
        <time>2020-06-18T14:36:32Z</time>
      </trkpt>
      <trkpt lat="50.01925" lon="1.36327">
        <ele>76.8</ele>
        <time>2020-06-18T14:36:33Z</time>
      </trkpt>
      <trkpt lat="50.01927" lon="1.36336">
        <ele>76.9</ele>
        <time>2020-06-18T14:36:34Z</time>
      </trkpt>
      <trkpt lat="50.0193" lon="1.36345">
        <ele>77</ele>
        <time>2020-06-18T14:36:35Z</time>
      </trkpt>
      <trkpt lat="50.01931" lon="1.36351">
        <ele>77</ele>
        <time>2020-06-18T14:36:36Z</time>
      </trkpt>
      <trkpt lat="50.01934" lon="1.3636">
        <ele>77.1</ele>
        <time>2020-06-18T14:36:37Z</time>
      </trkpt>
      <trkpt lat="50.01937" lon="1.36369">
        <ele>77.2</ele>
        <time>2020-06-18T14:36:38Z</time>
      </trkpt>
      <trkpt lat="50.01939" lon="1.36378">
        <ele>77.3</ele>
        <time>2020-06-18T14:36:39Z</time>
      </trkpt>
      <trkpt lat="50.01942" lon="1.36387">
        <ele>77.4</ele>
        <time>2020-06-18T14:36:40Z</time>
      </trkpt>
      <trkpt lat="50.01944" lon="1.36395">
        <ele>77.5</ele>
        <time>2020-06-18T14:36:41Z</time>
      </trkpt>
      <trkpt lat="50.01946" lon="1.36402">
        <ele>77.6</ele>
        <time>2020-06-18T14:36:42Z</time>
      </trkpt>
      <trkpt lat="50.01949" lon="1.36411">
        <ele>77.6</ele>
        <time>2020-06-18T14:36:43Z</time>
      </trkpt>
      <trkpt lat="50.0195" lon="1.36419">
        <ele>77.7</ele>
        <time>2020-06-18T14:36:44Z</time>
      </trkpt>
      <trkpt lat="50.01952" lon="1.36428">
        <ele>77.8</ele>
        <time>2020-06-18T14:36:45Z</time>
      </trkpt>
      <trkpt lat="50.01954" lon="1.36436">
        <ele>77.8</ele>
        <time>2020-06-18T14:36:46Z</time>
      </trkpt>
      <trkpt lat="50.01956" lon="1.36444">
        <ele>77.9</ele>
        <time>2020-06-18T14:36:47Z</time>
      </trkpt>
      <trkpt lat="50.01959" lon="1.36453">
        <ele>78</ele>
        <time>2020-06-18T14:36:48Z</time>
      </trkpt>
      <trkpt lat="50.01961" lon="1.36461">
        <ele>78.2</ele>
        <time>2020-06-18T14:36:49Z</time>
      </trkpt>
      <trkpt lat="50.01964" lon="1.36468">
        <ele>78.3</ele>
        <time>2020-06-18T14:36:50Z</time>
      </trkpt>
      <trkpt lat="50.01966" lon="1.36476">
        <ele>78.4</ele>
        <time>2020-06-18T14:36:51Z</time>
      </trkpt>
      <trkpt lat="50.01968" lon="1.36486">
        <ele>78.5</ele>
        <time>2020-06-18T14:36:52Z</time>
      </trkpt>
      <trkpt lat="50.0197" lon="1.36493">
        <ele>78.6</ele>
        <time>2020-06-18T14:36:53Z</time>
      </trkpt>
      <trkpt lat="50.01972" lon="1.365">
        <ele>78.7</ele>
        <time>2020-06-18T14:36:54Z</time>
      </trkpt>
      <trkpt lat="50.01974" lon="1.36509">
        <ele>78.8</ele>
        <time>2020-06-18T14:36:55Z</time>
      </trkpt>
      <trkpt lat="50.01976" lon="1.36516">
        <ele>78.8</ele>
        <time>2020-06-18T14:36:56Z</time>
      </trkpt>
      <trkpt lat="50.01978" lon="1.36523">
        <ele>78.9</ele>
        <time>2020-06-18T14:36:57Z</time>
      </trkpt>
      <trkpt lat="50.01979" lon="1.36531">
        <ele>79</ele>
        <time>2020-06-18T14:36:58Z</time>
      </trkpt>
      <trkpt lat="50.01982" lon="1.3654">
        <ele>79.1</ele>
        <time>2020-06-18T14:36:59Z</time>
      </trkpt>
      <trkpt lat="50.01984" lon="1.36548">
        <ele>79.2</ele>
        <time>2020-06-18T14:37:00Z</time>
      </trkpt>
      <trkpt lat="50.01986" lon="1.36556">
        <ele>79.3</ele>
        <time>2020-06-18T14:37:01Z</time>
      </trkpt>
      <trkpt lat="50.01988" lon="1.36564">
        <ele>79.3</ele>
        <time>2020-06-18T14:37:02Z</time>
      </trkpt>
      <trkpt lat="50.0199" lon="1.36571">
        <ele>79.4</ele>
        <time>2020-06-18T14:37:03Z</time>
      </trkpt>
      <trkpt lat="50.01992" lon="1.3658">
        <ele>79.5</ele>
        <time>2020-06-18T14:37:04Z</time>
      </trkpt>
      <trkpt lat="50.01994" lon="1.36588">
        <ele>79.6</ele>
        <time>2020-06-18T14:37:05Z</time>
      </trkpt>
      <trkpt lat="50.01996" lon="1.36594">
        <ele>79.7</ele>
        <time>2020-06-18T14:37:06Z</time>
      </trkpt>
      <trkpt lat="50.01996" lon="1.36599">
        <ele>79.8</ele>
        <time>2020-06-18T14:37:07Z</time>
      </trkpt>
      <trkpt lat="50.01998" lon="1.36605">
        <ele>79.8</ele>
        <time>2020-06-18T14:37:08Z</time>
      </trkpt>
      <trkpt lat="50.02" lon="1.3661">
        <ele>79.9</ele>
        <time>2020-06-18T14:37:09Z</time>
      </trkpt>
      <trkpt lat="50.02002" lon="1.36617">
        <ele>80</ele>
        <time>2020-06-18T14:37:10Z</time>
      </trkpt>
      <trkpt lat="50.02003" lon="1.36623">
        <ele>80.1</ele>
        <time>2020-06-18T14:37:11Z</time>
      </trkpt>
      <trkpt lat="50.02004" lon="1.36628">
        <ele>80.1</ele>
        <time>2020-06-18T14:37:12Z</time>
      </trkpt>
      <trkpt lat="50.02006" lon="1.36634">
        <ele>80.2</ele>
        <time>2020-06-18T14:37:13Z</time>
      </trkpt>
      <trkpt lat="50.02008" lon="1.3664">
        <ele>80.3</ele>
        <time>2020-06-18T14:37:14Z</time>
      </trkpt>
      <trkpt lat="50.0201" lon="1.36646">
        <ele>80.4</ele>
        <time>2020-06-18T14:37:15Z</time>
      </trkpt>
      <trkpt lat="50.02012" lon="1.36652">
        <ele>80.4</ele>
        <time>2020-06-18T14:37:16Z</time>
      </trkpt>
      <trkpt lat="50.02014" lon="1.36658">
        <ele>80.5</ele>
        <time>2020-06-18T14:37:17Z</time>
      </trkpt>
      <trkpt lat="50.02015" lon="1.36663">
        <ele>80.5</ele>
        <time>2020-06-18T14:37:18Z</time>
      </trkpt>
      <trkpt lat="50.02017" lon="1.36669">
        <ele>80.6</ele>
        <time>2020-06-18T14:37:19Z</time>
      </trkpt>
      <trkpt lat="50.02018" lon="1.36675">
        <ele>80.7</ele>
        <time>2020-06-18T14:37:20Z</time>
      </trkpt>
      <trkpt lat="50.0202" lon="1.36682">
        <ele>80.7</ele>
        <time>2020-06-18T14:37:21Z</time>
      </trkpt>
      <trkpt lat="50.02022" lon="1.36689">
        <ele>80.8</ele>
        <time>2020-06-18T14:37:22Z</time>
      </trkpt>
      <trkpt lat="50.02024" lon="1.36697">
        <ele>80.9</ele>
        <time>2020-06-18T14:37:23Z</time>
      </trkpt>
      <trkpt lat="50.02026" lon="1.36706">
        <ele>81</ele>
        <time>2020-06-18T14:37:24Z</time>
      </trkpt>
      <trkpt lat="50.02028" lon="1.36714">
        <ele>81.1</ele>
        <time>2020-06-18T14:37:25Z</time>
      </trkpt>
      <trkpt lat="50.0203" lon="1.36723">
        <ele>81.2</ele>
        <time>2020-06-18T14:37:26Z</time>
      </trkpt>
      <trkpt lat="50.02032" lon="1.36732">
        <ele>81.3</ele>
        <time>2020-06-18T14:37:27Z</time>
      </trkpt>
      <trkpt lat="50.02034" lon="1.36741">
        <ele>81.4</ele>
        <time>2020-06-18T14:37:28Z</time>
      </trkpt>
      <trkpt lat="50.02036" lon="1.36749">
        <ele>81.5</ele>
        <time>2020-06-18T14:37:29Z</time>
      </trkpt>
      <trkpt lat="50.02038" lon="1.36756">
        <ele>81.6</ele>
        <time>2020-06-18T14:37:30Z</time>
      </trkpt>
      <trkpt lat="50.0204" lon="1.36766">
        <ele>81.7</ele>
        <time>2020-06-18T14:37:31Z</time>
      </trkpt>
      <trkpt lat="50.02042" lon="1.36775">
        <ele>81.9</ele>
        <time>2020-06-18T14:37:32Z</time>
      </trkpt>
      <trkpt lat="50.02044" lon="1.36783">
        <ele>82</ele>
        <time>2020-06-18T14:37:33Z</time>
      </trkpt>
      <trkpt lat="50.02046" lon="1.36792">
        <ele>82.1</ele>
        <time>2020-06-18T14:37:34Z</time>
      </trkpt>
      <trkpt lat="50.02048" lon="1.36801">
        <ele>82.2</ele>
        <time>2020-06-18T14:37:35Z</time>
      </trkpt>
      <trkpt lat="50.0205" lon="1.36809">
        <ele>82.2</ele>
        <time>2020-06-18T14:37:36Z</time>
      </trkpt>
      <trkpt lat="50.02053" lon="1.36817">
        <ele>82.3</ele>
        <time>2020-06-18T14:37:37Z</time>
      </trkpt>
      <trkpt lat="50.02055" lon="1.36825">
        <ele>82.4</ele>
        <time>2020-06-18T14:37:38Z</time>
      </trkpt>
      <trkpt lat="50.02057" lon="1.36833">
        <ele>82.5</ele>
        <time>2020-06-18T14:37:39Z</time>
      </trkpt>
      <trkpt lat="50.02059" lon="1.36842">
        <ele>82.7</ele>
        <time>2020-06-18T14:37:40Z</time>
      </trkpt>
      <trkpt lat="50.02061" lon="1.3685">
        <ele>82.8</ele>
        <time>2020-06-18T14:37:41Z</time>
      </trkpt>
      <trkpt lat="50.02063" lon="1.36858">
        <ele>82.9</ele>
        <time>2020-06-18T14:37:42Z</time>
      </trkpt>
      <trkpt lat="50.02065" lon="1.36866">
        <ele>83</ele>
        <time>2020-06-18T14:37:43Z</time>
      </trkpt>
      <trkpt lat="50.02067" lon="1.36873">
        <ele>83.1</ele>
        <time>2020-06-18T14:37:44Z</time>
      </trkpt>
      <trkpt lat="50.0207" lon="1.3688">
        <ele>83.2</ele>
        <time>2020-06-18T14:37:45Z</time>
      </trkpt>
      <trkpt lat="50.02072" lon="1.36888">
        <ele>83.3</ele>
        <time>2020-06-18T14:37:46Z</time>
      </trkpt>
      <trkpt lat="50.02075" lon="1.36898">
        <ele>83.4</ele>
        <time>2020-06-18T14:37:47Z</time>
      </trkpt>
      <trkpt lat="50.02077" lon="1.36906">
        <ele>83.5</ele>
        <time>2020-06-18T14:37:48Z</time>
      </trkpt>
      <trkpt lat="50.0208" lon="1.36914">
        <ele>83.6</ele>
        <time>2020-06-18T14:37:49Z</time>
      </trkpt>
      <trkpt lat="50.02083" lon="1.36923">
        <ele>83.6</ele>
        <time>2020-06-18T14:37:50Z</time>
      </trkpt>
      <trkpt lat="50.02084" lon="1.36931">
        <ele>83.7</ele>
        <time>2020-06-18T14:37:51Z</time>
      </trkpt>
      <trkpt lat="50.02086" lon="1.36939">
        <ele>83.7</ele>
        <time>2020-06-18T14:37:52Z</time>
      </trkpt>
      <trkpt lat="50.02087" lon="1.36948">
        <ele>83.8</ele>
        <time>2020-06-18T14:37:53Z</time>
      </trkpt>
      <trkpt lat="50.02088" lon="1.36956">
        <ele>83.8</ele>
        <time>2020-06-18T14:37:54Z</time>
      </trkpt>
      <trkpt lat="50.0209" lon="1.36964">
        <ele>83.9</ele>
        <time>2020-06-18T14:37:55Z</time>
      </trkpt>
      <trkpt lat="50.02092" lon="1.36972">
        <ele>84</ele>
        <time>2020-06-18T14:37:56Z</time>
      </trkpt>
      <trkpt lat="50.02094" lon="1.3698">
        <ele>84.1</ele>
        <time>2020-06-18T14:37:57Z</time>
      </trkpt>
      <trkpt lat="50.02096" lon="1.36988">
        <ele>84.1</ele>
        <time>2020-06-18T14:37:58Z</time>
      </trkpt>
      <trkpt lat="50.02098" lon="1.36998">
        <ele>84.2</ele>
        <time>2020-06-18T14:37:59Z</time>
      </trkpt>
      <trkpt lat="50.021" lon="1.37007">
        <ele>84.3</ele>
        <time>2020-06-18T14:38:00Z</time>
      </trkpt>
      <trkpt lat="50.02102" lon="1.37016">
        <ele>84.4</ele>
        <time>2020-06-18T14:38:01Z</time>
      </trkpt>
      <trkpt lat="50.02104" lon="1.37025">
        <ele>84.5</ele>
        <time>2020-06-18T14:38:02Z</time>
      </trkpt>
      <trkpt lat="50.02107" lon="1.37034">
        <ele>84.6</ele>
        <time>2020-06-18T14:38:03Z</time>
      </trkpt>
      <trkpt lat="50.02109" lon="1.37044">
        <ele>84.6</ele>
        <time>2020-06-18T14:38:04Z</time>
      </trkpt>
      <trkpt lat="50.02112" lon="1.37053">
        <ele>84.2</ele>
        <time>2020-06-18T14:38:05Z</time>
      </trkpt>
      <trkpt lat="50.02114" lon="1.37062">
        <ele>83.7</ele>
        <time>2020-06-18T14:38:06Z</time>
      </trkpt>
      <trkpt lat="50.02116" lon="1.37072">
        <ele>83.7</ele>
        <time>2020-06-18T14:38:07Z</time>
      </trkpt>
      <trkpt lat="50.02118" lon="1.37081">
        <ele>83.7</ele>
        <time>2020-06-18T14:38:08Z</time>
      </trkpt>
      <trkpt lat="50.02121" lon="1.37089">
        <ele>83.8</ele>
        <time>2020-06-18T14:38:09Z</time>
      </trkpt>
      <trkpt lat="50.02123" lon="1.37096">
        <ele>83.8</ele>
        <time>2020-06-18T14:38:10Z</time>
      </trkpt>
      <trkpt lat="50.02126" lon="1.37105">
        <ele>83.8</ele>
        <time>2020-06-18T14:38:11Z</time>
      </trkpt>
      <trkpt lat="50.02127" lon="1.37113">
        <ele>83.8</ele>
        <time>2020-06-18T14:38:12Z</time>
      </trkpt>
      <trkpt lat="50.02129" lon="1.37122">
        <ele>83.8</ele>
        <time>2020-06-18T14:38:13Z</time>
      </trkpt>
      <trkpt lat="50.02132" lon="1.3713">
        <ele>83.8</ele>
        <time>2020-06-18T14:38:14Z</time>
      </trkpt>
      <trkpt lat="50.02134" lon="1.37139">
        <ele>83.8</ele>
        <time>2020-06-18T14:38:15Z</time>
      </trkpt>
      <trkpt lat="50.02137" lon="1.37147">
        <ele>83.8</ele>
        <time>2020-06-18T14:38:16Z</time>
      </trkpt>
      <trkpt lat="50.02139" lon="1.37157">
        <ele>83.8</ele>
        <time>2020-06-18T14:38:17Z</time>
      </trkpt>
      <trkpt lat="50.02141" lon="1.37167">
        <ele>83.8</ele>
        <time>2020-06-18T14:38:18Z</time>
      </trkpt>
      <trkpt lat="50.02143" lon="1.37177">
        <ele>83.8</ele>
        <time>2020-06-18T14:38:19Z</time>
      </trkpt>
      <trkpt lat="50.02145" lon="1.37185">
        <ele>83.9</ele>
        <time>2020-06-18T14:38:20Z</time>
      </trkpt>
      <trkpt lat="50.02147" lon="1.37195">
        <ele>83.9</ele>
        <time>2020-06-18T14:38:21Z</time>
      </trkpt>
      <trkpt lat="50.02149" lon="1.37205">
        <ele>83.9</ele>
        <time>2020-06-18T14:38:22Z</time>
      </trkpt>
      <trkpt lat="50.02151" lon="1.37214">
        <ele>83.9</ele>
        <time>2020-06-18T14:38:23Z</time>
      </trkpt>
      <trkpt lat="50.02154" lon="1.37224">
        <ele>84</ele>
        <time>2020-06-18T14:38:24Z</time>
      </trkpt>
      <trkpt lat="50.02156" lon="1.37234">
        <ele>84</ele>
        <time>2020-06-18T14:38:25Z</time>
      </trkpt>
      <trkpt lat="50.02158" lon="1.37243">
        <ele>83.9</ele>
        <time>2020-06-18T14:38:26Z</time>
      </trkpt>
      <trkpt lat="50.02161" lon="1.37253">
        <ele>83.9</ele>
        <time>2020-06-18T14:38:27Z</time>
      </trkpt>
      <trkpt lat="50.02163" lon="1.37263">
        <ele>83.8</ele>
        <time>2020-06-18T14:38:28Z</time>
      </trkpt>
      <trkpt lat="50.02166" lon="1.37273">
        <ele>83.8</ele>
        <time>2020-06-18T14:38:29Z</time>
      </trkpt>
      <trkpt lat="50.02168" lon="1.37282">
        <ele>83.8</ele>
        <time>2020-06-18T14:38:30Z</time>
      </trkpt>
      <trkpt lat="50.02171" lon="1.37292">
        <ele>83.8</ele>
        <time>2020-06-18T14:38:31Z</time>
      </trkpt>
      <trkpt lat="50.02173" lon="1.37301">
        <ele>83.8</ele>
        <time>2020-06-18T14:38:32Z</time>
      </trkpt>
      <trkpt lat="50.02175" lon="1.37312">
        <ele>83.8</ele>
        <time>2020-06-18T14:38:33Z</time>
      </trkpt>
      <trkpt lat="50.02178" lon="1.37323">
        <ele>83.7</ele>
        <time>2020-06-18T14:38:34Z</time>
      </trkpt>
      <trkpt lat="50.0218" lon="1.37332">
        <ele>83.7</ele>
        <time>2020-06-18T14:38:35Z</time>
      </trkpt>
      <trkpt lat="50.02182" lon="1.3734">
        <ele>83.7</ele>
        <time>2020-06-18T14:38:36Z</time>
      </trkpt>
      <trkpt lat="50.02184" lon="1.37349">
        <ele>83.7</ele>
        <time>2020-06-18T14:38:37Z</time>
      </trkpt>
      <trkpt lat="50.02187" lon="1.37359">
        <ele>83.7</ele>
        <time>2020-06-18T14:38:38Z</time>
      </trkpt>
      <trkpt lat="50.0219" lon="1.37368">
        <ele>83.6</ele>
        <time>2020-06-18T14:38:39Z</time>
      </trkpt>
      <trkpt lat="50.02192" lon="1.37378">
        <ele>83.6</ele>
        <time>2020-06-18T14:38:40Z</time>
      </trkpt>
      <trkpt lat="50.02195" lon="1.37388">
        <ele>83.6</ele>
        <time>2020-06-18T14:38:41Z</time>
      </trkpt>
      <trkpt lat="50.02197" lon="1.37397">
        <ele>83.6</ele>
        <time>2020-06-18T14:38:42Z</time>
      </trkpt>
      <trkpt lat="50.022" lon="1.37406">
        <ele>83.6</ele>
        <time>2020-06-18T14:38:43Z</time>
      </trkpt>
      <trkpt lat="50.02202" lon="1.37417">
        <ele>83.6</ele>
        <time>2020-06-18T14:38:44Z</time>
      </trkpt>
      <trkpt lat="50.02205" lon="1.37427">
        <ele>83.6</ele>
        <time>2020-06-18T14:38:45Z</time>
      </trkpt>
      <trkpt lat="50.02207" lon="1.37437">
        <ele>83.6</ele>
        <time>2020-06-18T14:38:46Z</time>
      </trkpt>
      <trkpt lat="50.02209" lon="1.37446">
        <ele>83.6</ele>
        <time>2020-06-18T14:38:47Z</time>
      </trkpt>
      <trkpt lat="50.02212" lon="1.37456">
        <ele>83.6</ele>
        <time>2020-06-18T14:38:48Z</time>
      </trkpt>
      <trkpt lat="50.02215" lon="1.37465">
        <ele>83.6</ele>
        <time>2020-06-18T14:38:49Z</time>
      </trkpt>
      <trkpt lat="50.02218" lon="1.37475">
        <ele>83.7</ele>
        <time>2020-06-18T14:38:50Z</time>
      </trkpt>
      <trkpt lat="50.0222" lon="1.37485">
        <ele>83.7</ele>
        <time>2020-06-18T14:38:51Z</time>
      </trkpt>
      <trkpt lat="50.02222" lon="1.37494">
        <ele>83.7</ele>
        <time>2020-06-18T14:38:52Z</time>
      </trkpt>
      <trkpt lat="50.02225" lon="1.37503">
        <ele>83.7</ele>
        <time>2020-06-18T14:38:53Z</time>
      </trkpt>
      <trkpt lat="50.02227" lon="1.37513">
        <ele>83.7</ele>
        <time>2020-06-18T14:38:54Z</time>
      </trkpt>
      <trkpt lat="50.02229" lon="1.37522">
        <ele>83.6</ele>
        <time>2020-06-18T14:38:55Z</time>
      </trkpt>
      <trkpt lat="50.02232" lon="1.37532">
        <ele>83.6</ele>
        <time>2020-06-18T14:38:56Z</time>
      </trkpt>
      <trkpt lat="50.02234" lon="1.37543">
        <ele>83.6</ele>
        <time>2020-06-18T14:38:57Z</time>
      </trkpt>
      <trkpt lat="50.02236" lon="1.37553">
        <ele>83.6</ele>
        <time>2020-06-18T14:38:58Z</time>
      </trkpt>
      <trkpt lat="50.02238" lon="1.37563">
        <ele>83.6</ele>
        <time>2020-06-18T14:38:59Z</time>
      </trkpt>
      <trkpt lat="50.0224" lon="1.37572">
        <ele>83.6</ele>
        <time>2020-06-18T14:39:00Z</time>
      </trkpt>
      <trkpt lat="50.02243" lon="1.37582">
        <ele>83.6</ele>
        <time>2020-06-18T14:39:01Z</time>
      </trkpt>
      <trkpt lat="50.02245" lon="1.37591">
        <ele>83.6</ele>
        <time>2020-06-18T14:39:02Z</time>
      </trkpt>
      <trkpt lat="50.02248" lon="1.37602">
        <ele>83.6</ele>
        <time>2020-06-18T14:39:03Z</time>
      </trkpt>
      <trkpt lat="50.0225" lon="1.37612">
        <ele>83.6</ele>
        <time>2020-06-18T14:39:04Z</time>
      </trkpt>
      <trkpt lat="50.02252" lon="1.37622">
        <ele>83.7</ele>
        <time>2020-06-18T14:39:05Z</time>
      </trkpt>
      <trkpt lat="50.02255" lon="1.37631">
        <ele>83.7</ele>
        <time>2020-06-18T14:39:06Z</time>
      </trkpt>
      <trkpt lat="50.02257" lon="1.37642">
        <ele>83.7</ele>
        <time>2020-06-18T14:39:07Z</time>
      </trkpt>
      <trkpt lat="50.0226" lon="1.37652">
        <ele>83.7</ele>
        <time>2020-06-18T14:39:08Z</time>
      </trkpt>
      <trkpt lat="50.02262" lon="1.37663">
        <ele>83.7</ele>
        <time>2020-06-18T14:39:09Z</time>
      </trkpt>
      <trkpt lat="50.02265" lon="1.37673">
        <ele>83.7</ele>
        <time>2020-06-18T14:39:10Z</time>
      </trkpt>
      <trkpt lat="50.02268" lon="1.37684">
        <ele>83.8</ele>
        <time>2020-06-18T14:39:11Z</time>
      </trkpt>
      <trkpt lat="50.02271" lon="1.37694">
        <ele>83.8</ele>
        <time>2020-06-18T14:39:12Z</time>
      </trkpt>
      <trkpt lat="50.02273" lon="1.37703">
        <ele>83.9</ele>
        <time>2020-06-18T14:39:13Z</time>
      </trkpt>
      <trkpt lat="50.02276" lon="1.37713">
        <ele>83.9</ele>
        <time>2020-06-18T14:39:14Z</time>
      </trkpt>
      <trkpt lat="50.02279" lon="1.37722">
        <ele>83.9</ele>
        <time>2020-06-18T14:39:15Z</time>
      </trkpt>
      <trkpt lat="50.02281" lon="1.37732">
        <ele>84</ele>
        <time>2020-06-18T14:39:16Z</time>
      </trkpt>
      <trkpt lat="50.02284" lon="1.37741">
        <ele>84</ele>
        <time>2020-06-18T14:39:17Z</time>
      </trkpt>
      <trkpt lat="50.02286" lon="1.37751">
        <ele>84</ele>
        <time>2020-06-18T14:39:18Z</time>
      </trkpt>
      <trkpt lat="50.02289" lon="1.37761">
        <ele>84.1</ele>
        <time>2020-06-18T14:39:19Z</time>
      </trkpt>
      <trkpt lat="50.02291" lon="1.37771">
        <ele>84.1</ele>
        <time>2020-06-18T14:39:20Z</time>
      </trkpt>
      <trkpt lat="50.02294" lon="1.3778">
        <ele>84.1</ele>
        <time>2020-06-18T14:39:21Z</time>
      </trkpt>
      <trkpt lat="50.02296" lon="1.37789">
        <ele>84.1</ele>
        <time>2020-06-18T14:39:22Z</time>
      </trkpt>
      <trkpt lat="50.02298" lon="1.37798">
        <ele>84.2</ele>
        <time>2020-06-18T14:39:23Z</time>
      </trkpt>
      <trkpt lat="50.02301" lon="1.37806">
        <ele>84.2</ele>
        <time>2020-06-18T14:39:24Z</time>
      </trkpt>
      <trkpt lat="50.02303" lon="1.37815">
        <ele>84.2</ele>
        <time>2020-06-18T14:39:25Z</time>
      </trkpt>
      <trkpt lat="50.02305" lon="1.37824">
        <ele>84.3</ele>
        <time>2020-06-18T14:39:26Z</time>
      </trkpt>
      <trkpt lat="50.02308" lon="1.37832">
        <ele>84.3</ele>
        <time>2020-06-18T14:39:27Z</time>
      </trkpt>
      <trkpt lat="50.0231" lon="1.37841">
        <ele>84.4</ele>
        <time>2020-06-18T14:39:28Z</time>
      </trkpt>
      <trkpt lat="50.02312" lon="1.3785">
        <ele>84.4</ele>
        <time>2020-06-18T14:39:29Z</time>
      </trkpt>
      <trkpt lat="50.02314" lon="1.37859">
        <ele>84.4</ele>
        <time>2020-06-18T14:39:30Z</time>
      </trkpt>
      <trkpt lat="50.02317" lon="1.37868">
        <ele>84.5</ele>
        <time>2020-06-18T14:39:31Z</time>
      </trkpt>
      <trkpt lat="50.02319" lon="1.37877">
        <ele>84.6</ele>
        <time>2020-06-18T14:39:32Z</time>
      </trkpt>
      <trkpt lat="50.02321" lon="1.37887">
        <ele>84.6</ele>
        <time>2020-06-18T14:39:33Z</time>
      </trkpt>
      <trkpt lat="50.02323" lon="1.37896">
        <ele>84.7</ele>
        <time>2020-06-18T14:39:34Z</time>
      </trkpt>
      <trkpt lat="50.02325" lon="1.37906">
        <ele>84.7</ele>
        <time>2020-06-18T14:39:35Z</time>
      </trkpt>
      <trkpt lat="50.02327" lon="1.37916">
        <ele>84.8</ele>
        <time>2020-06-18T14:39:36Z</time>
      </trkpt>
      <trkpt lat="50.02329" lon="1.37926">
        <ele>84.9</ele>
        <time>2020-06-18T14:39:37Z</time>
      </trkpt>
      <trkpt lat="50.02331" lon="1.37933">
        <ele>85</ele>
        <time>2020-06-18T14:39:38Z</time>
      </trkpt>
      <trkpt lat="50.02333" lon="1.37942">
        <ele>85.1</ele>
        <time>2020-06-18T14:39:39Z</time>
      </trkpt>
      <trkpt lat="50.02334" lon="1.3795">
        <ele>85.2</ele>
        <time>2020-06-18T14:39:40Z</time>
      </trkpt>
      <trkpt lat="50.02336" lon="1.37959">
        <ele>85.3</ele>
        <time>2020-06-18T14:39:41Z</time>
      </trkpt>
      <trkpt lat="50.02338" lon="1.37969">
        <ele>85.4</ele>
        <time>2020-06-18T14:39:42Z</time>
      </trkpt>
      <trkpt lat="50.0234" lon="1.37978">
        <ele>85.4</ele>
        <time>2020-06-18T14:39:43Z</time>
      </trkpt>
      <trkpt lat="50.02343" lon="1.37988">
        <ele>85.4</ele>
        <time>2020-06-18T14:39:44Z</time>
      </trkpt>
      <trkpt lat="50.02344" lon="1.37997">
        <ele>85.4</ele>
        <time>2020-06-18T14:39:45Z</time>
      </trkpt>
      <trkpt lat="50.02346" lon="1.38007">
        <ele>85.4</ele>
        <time>2020-06-18T14:39:46Z</time>
      </trkpt>
      <trkpt lat="50.02348" lon="1.38016">
        <ele>85.5</ele>
        <time>2020-06-18T14:39:47Z</time>
      </trkpt>
      <trkpt lat="50.02351" lon="1.38025">
        <ele>85.5</ele>
        <time>2020-06-18T14:39:48Z</time>
      </trkpt>
      <trkpt lat="50.02353" lon="1.38034">
        <ele>85.5</ele>
        <time>2020-06-18T14:39:49Z</time>
      </trkpt>
      <trkpt lat="50.02355" lon="1.38044">
        <ele>85.6</ele>
        <time>2020-06-18T14:39:50Z</time>
      </trkpt>
      <trkpt lat="50.02358" lon="1.38053">
        <ele>85.7</ele>
        <time>2020-06-18T14:39:51Z</time>
      </trkpt>
      <trkpt lat="50.0236" lon="1.38062">
        <ele>85.7</ele>
        <time>2020-06-18T14:39:52Z</time>
      </trkpt>
      <trkpt lat="50.02362" lon="1.38071">
        <ele>85.7</ele>
        <time>2020-06-18T14:39:53Z</time>
      </trkpt>
      <trkpt lat="50.02364" lon="1.38081">
        <ele>85.6</ele>
        <time>2020-06-18T14:39:54Z</time>
      </trkpt>
      <trkpt lat="50.02367" lon="1.3809">
        <ele>85.4</ele>
        <time>2020-06-18T14:39:55Z</time>
      </trkpt>
      <trkpt lat="50.02369" lon="1.38099">
        <ele>85.3</ele>
        <time>2020-06-18T14:39:56Z</time>
      </trkpt>
      <trkpt lat="50.02372" lon="1.38108">
        <ele>85.2</ele>
        <time>2020-06-18T14:39:57Z</time>
      </trkpt>
      <trkpt lat="50.02374" lon="1.38118">
        <ele>85.2</ele>
        <time>2020-06-18T14:39:58Z</time>
      </trkpt>
      <trkpt lat="50.02376" lon="1.38128">
        <ele>85.2</ele>
        <time>2020-06-18T14:39:59Z</time>
      </trkpt>
      <trkpt lat="50.02378" lon="1.38138">
        <ele>85.2</ele>
        <time>2020-06-18T14:40:00Z</time>
      </trkpt>
      <trkpt lat="50.02381" lon="1.38146">
        <ele>85.2</ele>
        <time>2020-06-18T14:40:01Z</time>
      </trkpt>
      <trkpt lat="50.02383" lon="1.38155">
        <ele>85.2</ele>
        <time>2020-06-18T14:40:02Z</time>
      </trkpt>
      <trkpt lat="50.02385" lon="1.38164">
        <ele>85.3</ele>
        <time>2020-06-18T14:40:03Z</time>
      </trkpt>
      <trkpt lat="50.02387" lon="1.38172">
        <ele>85.4</ele>
        <time>2020-06-18T14:40:04Z</time>
      </trkpt>
      <trkpt lat="50.0239" lon="1.38181">
        <ele>85.5</ele>
        <time>2020-06-18T14:40:05Z</time>
      </trkpt>
      <trkpt lat="50.02392" lon="1.38189">
        <ele>85.5</ele>
        <time>2020-06-18T14:40:06Z</time>
      </trkpt>
      <trkpt lat="50.02394" lon="1.38197">
        <ele>85.5</ele>
        <time>2020-06-18T14:40:07Z</time>
      </trkpt>
      <trkpt lat="50.02397" lon="1.38207">
        <ele>85.5</ele>
        <time>2020-06-18T14:40:08Z</time>
      </trkpt>
      <trkpt lat="50.02399" lon="1.38216">
        <ele>85.6</ele>
        <time>2020-06-18T14:40:09Z</time>
      </trkpt>
      <trkpt lat="50.02401" lon="1.38226">
        <ele>85.6</ele>
        <time>2020-06-18T14:40:10Z</time>
      </trkpt>
      <trkpt lat="50.02404" lon="1.38235">
        <ele>85.6</ele>
        <time>2020-06-18T14:40:11Z</time>
      </trkpt>
      <trkpt lat="50.02406" lon="1.38245">
        <ele>85.6</ele>
        <time>2020-06-18T14:40:12Z</time>
      </trkpt>
      <trkpt lat="50.02408" lon="1.38254">
        <ele>85.6</ele>
        <time>2020-06-18T14:40:13Z</time>
      </trkpt>
      <trkpt lat="50.02411" lon="1.38264">
        <ele>85.7</ele>
        <time>2020-06-18T14:40:14Z</time>
      </trkpt>
      <trkpt lat="50.02413" lon="1.38273">
        <ele>85.8</ele>
        <time>2020-06-18T14:40:15Z</time>
      </trkpt>
      <trkpt lat="50.02415" lon="1.38281">
        <ele>85.9</ele>
        <time>2020-06-18T14:40:16Z</time>
      </trkpt>
      <trkpt lat="50.02417" lon="1.3829">
        <ele>86.1</ele>
        <time>2020-06-18T14:40:17Z</time>
      </trkpt>
      <trkpt lat="50.02419" lon="1.38299">
        <ele>86.2</ele>
        <time>2020-06-18T14:40:18Z</time>
      </trkpt>
      <trkpt lat="50.02422" lon="1.38308">
        <ele>86.3</ele>
        <time>2020-06-18T14:40:19Z</time>
      </trkpt>
      <trkpt lat="50.02423" lon="1.38317">
        <ele>86.3</ele>
        <time>2020-06-18T14:40:20Z</time>
      </trkpt>
      <trkpt lat="50.02426" lon="1.38326">
        <ele>86.3</ele>
        <time>2020-06-18T14:40:21Z</time>
      </trkpt>
      <trkpt lat="50.02429" lon="1.38337">
        <ele>86.4</ele>
        <time>2020-06-18T14:40:22Z</time>
      </trkpt>
      <trkpt lat="50.02431" lon="1.38346">
        <ele>86.4</ele>
        <time>2020-06-18T14:40:23Z</time>
      </trkpt>
      <trkpt lat="50.02433" lon="1.38356">
        <ele>86.5</ele>
        <time>2020-06-18T14:40:24Z</time>
      </trkpt>
      <trkpt lat="50.02435" lon="1.38365">
        <ele>86.6</ele>
        <time>2020-06-18T14:40:25Z</time>
      </trkpt>
      <trkpt lat="50.02437" lon="1.38373">
        <ele>86.6</ele>
        <time>2020-06-18T14:40:26Z</time>
      </trkpt>
      <trkpt lat="50.02439" lon="1.38383">
        <ele>86.7</ele>
        <time>2020-06-18T14:40:27Z</time>
      </trkpt>
      <trkpt lat="50.02441" lon="1.38392">
        <ele>86.7</ele>
        <time>2020-06-18T14:40:28Z</time>
      </trkpt>
      <trkpt lat="50.02443" lon="1.38401">
        <ele>86.8</ele>
        <time>2020-06-18T14:40:29Z</time>
      </trkpt>
      <trkpt lat="50.02446" lon="1.3841">
        <ele>86.8</ele>
        <time>2020-06-18T14:40:30Z</time>
      </trkpt>
      <trkpt lat="50.02448" lon="1.3842">
        <ele>86.8</ele>
        <time>2020-06-18T14:40:31Z</time>
      </trkpt>
      <trkpt lat="50.0245" lon="1.38428">
        <ele>86.9</ele>
        <time>2020-06-18T14:40:32Z</time>
      </trkpt>
      <trkpt lat="50.02452" lon="1.38436">
        <ele>86.9</ele>
        <time>2020-06-18T14:40:33Z</time>
      </trkpt>
      <trkpt lat="50.02454" lon="1.38445">
        <ele>87</ele>
        <time>2020-06-18T14:40:34Z</time>
      </trkpt>
      <trkpt lat="50.02456" lon="1.38454">
        <ele>87</ele>
        <time>2020-06-18T14:40:35Z</time>
      </trkpt>
      <trkpt lat="50.02459" lon="1.38464">
        <ele>87.1</ele>
        <time>2020-06-18T14:40:36Z</time>
      </trkpt>
      <trkpt lat="50.02461" lon="1.38473">
        <ele>87.2</ele>
        <time>2020-06-18T14:40:37Z</time>
      </trkpt>
      <trkpt lat="50.02463" lon="1.38482">
        <ele>87.3</ele>
        <time>2020-06-18T14:40:38Z</time>
      </trkpt>
      <trkpt lat="50.02466" lon="1.38491">
        <ele>87.4</ele>
        <time>2020-06-18T14:40:39Z</time>
      </trkpt>
      <trkpt lat="50.02468" lon="1.38499">
        <ele>87.5</ele>
        <time>2020-06-18T14:40:40Z</time>
      </trkpt>
      <trkpt lat="50.0247" lon="1.38507">
        <ele>87.5</ele>
        <time>2020-06-18T14:40:41Z</time>
      </trkpt>
      <trkpt lat="50.02471" lon="1.38516">
        <ele>87.5</ele>
        <time>2020-06-18T14:40:42Z</time>
      </trkpt>
      <trkpt lat="50.02473" lon="1.38525">
        <ele>87.6</ele>
        <time>2020-06-18T14:40:43Z</time>
      </trkpt>
      <trkpt lat="50.02475" lon="1.38533">
        <ele>87.6</ele>
        <time>2020-06-18T14:40:44Z</time>
      </trkpt>
      <trkpt lat="50.02477" lon="1.38541">
        <ele>87.7</ele>
        <time>2020-06-18T14:40:45Z</time>
      </trkpt>
      <trkpt lat="50.02479" lon="1.38549">
        <ele>87.8</ele>
        <time>2020-06-18T14:40:46Z</time>
      </trkpt>
      <trkpt lat="50.02481" lon="1.38557">
        <ele>87.8</ele>
        <time>2020-06-18T14:40:47Z</time>
      </trkpt>
      <trkpt lat="50.02483" lon="1.38566">
        <ele>87.9</ele>
        <time>2020-06-18T14:40:48Z</time>
      </trkpt>
      <trkpt lat="50.02485" lon="1.38574">
        <ele>88</ele>
        <time>2020-06-18T14:40:49Z</time>
      </trkpt>
      <trkpt lat="50.02487" lon="1.38582">
        <ele>88.1</ele>
        <time>2020-06-18T14:40:50Z</time>
      </trkpt>
      <trkpt lat="50.02489" lon="1.3859">
        <ele>88.2</ele>
        <time>2020-06-18T14:40:51Z</time>
      </trkpt>
      <trkpt lat="50.0249" lon="1.38599">
        <ele>88.2</ele>
        <time>2020-06-18T14:40:52Z</time>
      </trkpt>
      <trkpt lat="50.02491" lon="1.38608">
        <ele>88.3</ele>
        <time>2020-06-18T14:40:53Z</time>
      </trkpt>
      <trkpt lat="50.02493" lon="1.38617">
        <ele>88.4</ele>
        <time>2020-06-18T14:40:54Z</time>
      </trkpt>
      <trkpt lat="50.02495" lon="1.38626">
        <ele>88.3</ele>
        <time>2020-06-18T14:40:55Z</time>
      </trkpt>
      <trkpt lat="50.02497" lon="1.38635">
        <ele>88.2</ele>
        <time>2020-06-18T14:40:56Z</time>
      </trkpt>
      <trkpt lat="50.02499" lon="1.38645">
        <ele>88</ele>
        <time>2020-06-18T14:40:57Z</time>
      </trkpt>
      <trkpt lat="50.02502" lon="1.38653">
        <ele>88</ele>
        <time>2020-06-18T14:40:58Z</time>
      </trkpt>
      <trkpt lat="50.02505" lon="1.38662">
        <ele>87.9</ele>
        <time>2020-06-18T14:40:59Z</time>
      </trkpt>
      <trkpt lat="50.02507" lon="1.38671">
        <ele>87.8</ele>
        <time>2020-06-18T14:41:00Z</time>
      </trkpt>
      <trkpt lat="50.0251" lon="1.3868">
        <ele>87.8</ele>
        <time>2020-06-18T14:41:01Z</time>
      </trkpt>
      <trkpt lat="50.02512" lon="1.3869">
        <ele>87.7</ele>
        <time>2020-06-18T14:41:02Z</time>
      </trkpt>
      <trkpt lat="50.02515" lon="1.38699">
        <ele>87.7</ele>
        <time>2020-06-18T14:41:03Z</time>
      </trkpt>
      <trkpt lat="50.02518" lon="1.38708">
        <ele>87.6</ele>
        <time>2020-06-18T14:41:04Z</time>
      </trkpt>
      <trkpt lat="50.02523" lon="1.38715">
        <ele>87.6</ele>
        <time>2020-06-18T14:41:05Z</time>
      </trkpt>
      <trkpt lat="50.02527" lon="1.38723">
        <ele>87.6</ele>
        <time>2020-06-18T14:41:06Z</time>
      </trkpt>
      <trkpt lat="50.02532" lon="1.38732">
        <ele>87.5</ele>
        <time>2020-06-18T14:41:07Z</time>
      </trkpt>
      <trkpt lat="50.02536" lon="1.3874">
        <ele>87.5</ele>
        <time>2020-06-18T14:41:08Z</time>
      </trkpt>
      <trkpt lat="50.0254" lon="1.38748">
        <ele>87.5</ele>
        <time>2020-06-18T14:41:09Z</time>
      </trkpt>
      <trkpt lat="50.02545" lon="1.38756">
        <ele>87.4</ele>
        <time>2020-06-18T14:41:10Z</time>
      </trkpt>
      <trkpt lat="50.02548" lon="1.38765">
        <ele>87.3</ele>
        <time>2020-06-18T14:41:11Z</time>
      </trkpt>
      <trkpt lat="50.02553" lon="1.38773">
        <ele>87.2</ele>
        <time>2020-06-18T14:41:12Z</time>
      </trkpt>
      <trkpt lat="50.02557" lon="1.38781">
        <ele>87.2</ele>
        <time>2020-06-18T14:41:13Z</time>
      </trkpt>
      <trkpt lat="50.02561" lon="1.38789">
        <ele>87.1</ele>
        <time>2020-06-18T14:41:14Z</time>
      </trkpt>
      <trkpt lat="50.02566" lon="1.38797">
        <ele>87</ele>
        <time>2020-06-18T14:41:15Z</time>
      </trkpt>
      <trkpt lat="50.02571" lon="1.38805">
        <ele>86.9</ele>
        <time>2020-06-18T14:41:16Z</time>
      </trkpt>
      <trkpt lat="50.02575" lon="1.38812">
        <ele>86.9</ele>
        <time>2020-06-18T14:41:17Z</time>
      </trkpt>
      <trkpt lat="50.02579" lon="1.38821">
        <ele>86.8</ele>
        <time>2020-06-18T14:41:18Z</time>
      </trkpt>
      <trkpt lat="50.02584" lon="1.38827">
        <ele>86.8</ele>
        <time>2020-06-18T14:41:19Z</time>
      </trkpt>
      <trkpt lat="50.02587" lon="1.38835">
        <ele>86.8</ele>
        <time>2020-06-18T14:41:20Z</time>
      </trkpt>
      <trkpt lat="50.02591" lon="1.38843">
        <ele>86.7</ele>
        <time>2020-06-18T14:41:21Z</time>
      </trkpt>
      <trkpt lat="50.02596" lon="1.3885">
        <ele>86.7</ele>
        <time>2020-06-18T14:41:22Z</time>
      </trkpt>
      <trkpt lat="50.026" lon="1.38857">
        <ele>86.7</ele>
        <time>2020-06-18T14:41:23Z</time>
      </trkpt>
      <trkpt lat="50.02603" lon="1.38864">
        <ele>86.7</ele>
        <time>2020-06-18T14:41:24Z</time>
      </trkpt>
      <trkpt lat="50.02607" lon="1.38869">
        <ele>86.6</ele>
        <time>2020-06-18T14:41:25Z</time>
      </trkpt>
      <trkpt lat="50.02611" lon="1.38874">
        <ele>86.6</ele>
        <time>2020-06-18T14:41:26Z</time>
      </trkpt>
      <trkpt lat="50.02614" lon="1.38878">
        <ele>86.6</ele>
        <time>2020-06-18T14:41:27Z</time>
      </trkpt>
      <trkpt lat="50.02616" lon="1.38882">
        <ele>86.6</ele>
        <time>2020-06-18T14:41:28Z</time>
      </trkpt>
      <trkpt lat="50.02618" lon="1.38886">
        <ele>86.6</ele>
        <time>2020-06-18T14:41:29Z</time>
      </trkpt>
      <trkpt lat="50.02619" lon="1.38887">
        <ele>86.6</ele>
        <time>2020-06-18T14:41:30Z</time>
      </trkpt>
      <trkpt lat="50.02621" lon="1.3889">
        <ele>86.6</ele>
        <time>2020-06-18T14:41:31Z</time>
      </trkpt>
      <trkpt lat="50.02623" lon="1.38893">
        <ele>86.6</ele>
        <time>2020-06-18T14:41:32Z</time>
      </trkpt>
      <trkpt lat="50.02624" lon="1.38895">
        <ele>86.6</ele>
        <time>2020-06-18T14:41:33Z</time>
      </trkpt>
      <trkpt lat="50.02624" lon="1.38899">
        <ele>86.6</ele>
        <time>2020-06-18T14:41:34Z</time>
      </trkpt>
      <trkpt lat="50.02625" lon="1.389">
        <ele>86.7</ele>
        <time>2020-06-18T14:41:35Z</time>
      </trkpt>
      <trkpt lat="50.02626" lon="1.38905">
        <ele>86.7</ele>
        <time>2020-06-18T14:41:36Z</time>
      </trkpt>
      <trkpt lat="50.02628" lon="1.38912">
        <ele>86.7</ele>
        <time>2020-06-18T14:41:37Z</time>
      </trkpt>
      <trkpt lat="50.02629" lon="1.38918">
        <ele>86.8</ele>
        <time>2020-06-18T14:41:38Z</time>
      </trkpt>
      <trkpt lat="50.02632" lon="1.38925">
        <ele>86.8</ele>
        <time>2020-06-18T14:41:39Z</time>
      </trkpt>
      <trkpt lat="50.02635" lon="1.3893">
        <ele>86.7</ele>
        <time>2020-06-18T14:41:40Z</time>
      </trkpt>
      <trkpt lat="50.02639" lon="1.38936">
        <ele>86.7</ele>
        <time>2020-06-18T14:41:41Z</time>
      </trkpt>
      <trkpt lat="50.02643" lon="1.38943">
        <ele>86.6</ele>
        <time>2020-06-18T14:41:42Z</time>
      </trkpt>
      <trkpt lat="50.02647" lon="1.3895">
        <ele>86.5</ele>
        <time>2020-06-18T14:41:43Z</time>
      </trkpt>
      <trkpt lat="50.02651" lon="1.38958">
        <ele>86.4</ele>
        <time>2020-06-18T14:41:44Z</time>
      </trkpt>
      <trkpt lat="50.02656" lon="1.38966">
        <ele>86.2</ele>
        <time>2020-06-18T14:41:45Z</time>
      </trkpt>
      <trkpt lat="50.02661" lon="1.38976">
        <ele>86</ele>
        <time>2020-06-18T14:41:46Z</time>
      </trkpt>
      <trkpt lat="50.02665" lon="1.38985">
        <ele>85.8</ele>
        <time>2020-06-18T14:41:47Z</time>
      </trkpt>
      <trkpt lat="50.0267" lon="1.38993">
        <ele>85.7</ele>
        <time>2020-06-18T14:41:48Z</time>
      </trkpt>
      <trkpt lat="50.02674" lon="1.39001">
        <ele>85.6</ele>
        <time>2020-06-18T14:41:49Z</time>
      </trkpt>
      <trkpt lat="50.02679" lon="1.3901">
        <ele>85.6</ele>
        <time>2020-06-18T14:41:50Z</time>
      </trkpt>
      <trkpt lat="50.02683" lon="1.39019">
        <ele>85.5</ele>
        <time>2020-06-18T14:41:51Z</time>
      </trkpt>
      <trkpt lat="50.02687" lon="1.39027">
        <ele>85.5</ele>
        <time>2020-06-18T14:41:52Z</time>
      </trkpt>
      <trkpt lat="50.02692" lon="1.39036">
        <ele>85.4</ele>
        <time>2020-06-18T14:41:53Z</time>
      </trkpt>
      <trkpt lat="50.02697" lon="1.39045">
        <ele>85.4</ele>
        <time>2020-06-18T14:41:54Z</time>
      </trkpt>
      <trkpt lat="50.02701" lon="1.39055">
        <ele>85.4</ele>
        <time>2020-06-18T14:41:55Z</time>
      </trkpt>
      <trkpt lat="50.02705" lon="1.39063">
        <ele>85.4</ele>
        <time>2020-06-18T14:41:56Z</time>
      </trkpt>
      <trkpt lat="50.02709" lon="1.39071">
        <ele>85.4</ele>
        <time>2020-06-18T14:41:57Z</time>
      </trkpt>
      <trkpt lat="50.02713" lon="1.39079">
        <ele>85.4</ele>
        <time>2020-06-18T14:41:58Z</time>
      </trkpt>
      <trkpt lat="50.02718" lon="1.39087">
        <ele>85.4</ele>
        <time>2020-06-18T14:41:59Z</time>
      </trkpt>
      <trkpt lat="50.02722" lon="1.39096">
        <ele>85.4</ele>
        <time>2020-06-18T14:42:00Z</time>
      </trkpt>
      <trkpt lat="50.02727" lon="1.39105">
        <ele>85.4</ele>
        <time>2020-06-18T14:42:01Z</time>
      </trkpt>
      <trkpt lat="50.02731" lon="1.39113">
        <ele>85.3</ele>
        <time>2020-06-18T14:42:02Z</time>
      </trkpt>
      <trkpt lat="50.02736" lon="1.39121">
        <ele>85.3</ele>
        <time>2020-06-18T14:42:03Z</time>
      </trkpt>
      <trkpt lat="50.0274" lon="1.39128">
        <ele>85.2</ele>
        <time>2020-06-18T14:42:04Z</time>
      </trkpt>
      <trkpt lat="50.02745" lon="1.39137">
        <ele>85.1</ele>
        <time>2020-06-18T14:42:05Z</time>
      </trkpt>
      <trkpt lat="50.02749" lon="1.39146">
        <ele>85.1</ele>
        <time>2020-06-18T14:42:06Z</time>
      </trkpt>
      <trkpt lat="50.02753" lon="1.39155">
        <ele>85</ele>
        <time>2020-06-18T14:42:07Z</time>
      </trkpt>
      <trkpt lat="50.02758" lon="1.39164">
        <ele>85</ele>
        <time>2020-06-18T14:42:08Z</time>
      </trkpt>
      <trkpt lat="50.02762" lon="1.39173">
        <ele>84.9</ele>
        <time>2020-06-18T14:42:09Z</time>
      </trkpt>
      <trkpt lat="50.02766" lon="1.39181">
        <ele>84.9</ele>
        <time>2020-06-18T14:42:10Z</time>
      </trkpt>
      <trkpt lat="50.0277" lon="1.39189">
        <ele>84.9</ele>
        <time>2020-06-18T14:42:11Z</time>
      </trkpt>
      <trkpt lat="50.02775" lon="1.39197">
        <ele>84.8</ele>
        <time>2020-06-18T14:42:12Z</time>
      </trkpt>
      <trkpt lat="50.0278" lon="1.39206">
        <ele>84.8</ele>
        <time>2020-06-18T14:42:13Z</time>
      </trkpt>
      <trkpt lat="50.02785" lon="1.39214">
        <ele>84.8</ele>
        <time>2020-06-18T14:42:14Z</time>
      </trkpt>
      <trkpt lat="50.02789" lon="1.39222">
        <ele>84.8</ele>
        <time>2020-06-18T14:42:15Z</time>
      </trkpt>
      <trkpt lat="50.02793" lon="1.3923">
        <ele>84.8</ele>
        <time>2020-06-18T14:42:16Z</time>
      </trkpt>
      <trkpt lat="50.02798" lon="1.39239">
        <ele>84.9</ele>
        <time>2020-06-18T14:42:17Z</time>
      </trkpt>
      <trkpt lat="50.02802" lon="1.39248">
        <ele>84.9</ele>
        <time>2020-06-18T14:42:18Z</time>
      </trkpt>
      <trkpt lat="50.02807" lon="1.39256">
        <ele>84.8</ele>
        <time>2020-06-18T14:42:19Z</time>
      </trkpt>
      <trkpt lat="50.02811" lon="1.39265">
        <ele>84.8</ele>
        <time>2020-06-18T14:42:20Z</time>
      </trkpt>
      <trkpt lat="50.02816" lon="1.39274">
        <ele>84.7</ele>
        <time>2020-06-18T14:42:21Z</time>
      </trkpt>
      <trkpt lat="50.0282" lon="1.39282">
        <ele>84.6</ele>
        <time>2020-06-18T14:42:22Z</time>
      </trkpt>
      <trkpt lat="50.02825" lon="1.39292">
        <ele>84.6</ele>
        <time>2020-06-18T14:42:23Z</time>
      </trkpt>
      <trkpt lat="50.0283" lon="1.393">
        <ele>84.6</ele>
        <time>2020-06-18T14:42:24Z</time>
      </trkpt>
      <trkpt lat="50.02834" lon="1.39309">
        <ele>84.6</ele>
        <time>2020-06-18T14:42:25Z</time>
      </trkpt>
      <trkpt lat="50.02838" lon="1.39317">
        <ele>84.6</ele>
        <time>2020-06-18T14:42:26Z</time>
      </trkpt>
      <trkpt lat="50.02842" lon="1.39325">
        <ele>84.5</ele>
        <time>2020-06-18T14:42:27Z</time>
      </trkpt>
      <trkpt lat="50.02847" lon="1.39334">
        <ele>84.5</ele>
        <time>2020-06-18T14:42:28Z</time>
      </trkpt>
      <trkpt lat="50.02851" lon="1.39343">
        <ele>84.5</ele>
        <time>2020-06-18T14:42:29Z</time>
      </trkpt>
      <trkpt lat="50.02855" lon="1.39351">
        <ele>84.4</ele>
        <time>2020-06-18T14:42:30Z</time>
      </trkpt>
      <trkpt lat="50.0286" lon="1.39359">
        <ele>84.4</ele>
        <time>2020-06-18T14:42:31Z</time>
      </trkpt>
      <trkpt lat="50.02864" lon="1.39367">
        <ele>84.4</ele>
        <time>2020-06-18T14:42:32Z</time>
      </trkpt>
      <trkpt lat="50.02868" lon="1.39376">
        <ele>84.4</ele>
        <time>2020-06-18T14:42:33Z</time>
      </trkpt>
      <trkpt lat="50.02872" lon="1.39384">
        <ele>84.4</ele>
        <time>2020-06-18T14:42:34Z</time>
      </trkpt>
      <trkpt lat="50.02876" lon="1.39393">
        <ele>84.4</ele>
        <time>2020-06-18T14:42:35Z</time>
      </trkpt>
      <trkpt lat="50.02879" lon="1.39402">
        <ele>84.4</ele>
        <time>2020-06-18T14:42:36Z</time>
      </trkpt>
      <trkpt lat="50.02883" lon="1.39411">
        <ele>84.5</ele>
        <time>2020-06-18T14:42:37Z</time>
      </trkpt>
      <trkpt lat="50.02886" lon="1.39419">
        <ele>84.5</ele>
        <time>2020-06-18T14:42:38Z</time>
      </trkpt>
      <trkpt lat="50.0289" lon="1.39428">
        <ele>84.5</ele>
        <time>2020-06-18T14:42:39Z</time>
      </trkpt>
      <trkpt lat="50.02894" lon="1.39436">
        <ele>84.5</ele>
        <time>2020-06-18T14:42:40Z</time>
      </trkpt>
      <trkpt lat="50.02898" lon="1.39443">
        <ele>84.5</ele>
        <time>2020-06-18T14:42:41Z</time>
      </trkpt>
      <trkpt lat="50.02902" lon="1.3945">
        <ele>84.6</ele>
        <time>2020-06-18T14:42:42Z</time>
      </trkpt>
      <trkpt lat="50.02907" lon="1.39457">
        <ele>84.6</ele>
        <time>2020-06-18T14:42:43Z</time>
      </trkpt>
      <trkpt lat="50.02911" lon="1.39466">
        <ele>84.6</ele>
        <time>2020-06-18T14:42:44Z</time>
      </trkpt>
      <trkpt lat="50.02915" lon="1.39473">
        <ele>84.6</ele>
        <time>2020-06-18T14:42:45Z</time>
      </trkpt>
      <trkpt lat="50.0292" lon="1.39481">
        <ele>84.6</ele>
        <time>2020-06-18T14:42:46Z</time>
      </trkpt>
      <trkpt lat="50.02924" lon="1.39489">
        <ele>84.7</ele>
        <time>2020-06-18T14:42:47Z</time>
      </trkpt>
      <trkpt lat="50.02928" lon="1.39497">
        <ele>84.7</ele>
        <time>2020-06-18T14:42:48Z</time>
      </trkpt>
      <trkpt lat="50.02933" lon="1.39505">
        <ele>84.7</ele>
        <time>2020-06-18T14:42:49Z</time>
      </trkpt>
      <trkpt lat="50.02938" lon="1.39513">
        <ele>84.8</ele>
        <time>2020-06-18T14:42:50Z</time>
      </trkpt>
      <trkpt lat="50.02942" lon="1.39522">
        <ele>84.8</ele>
        <time>2020-06-18T14:42:51Z</time>
      </trkpt>
      <trkpt lat="50.02946" lon="1.39532">
        <ele>84.8</ele>
        <time>2020-06-18T14:42:52Z</time>
      </trkpt>
      <trkpt lat="50.0295" lon="1.3954">
        <ele>84.9</ele>
        <time>2020-06-18T14:42:53Z</time>
      </trkpt>
      <trkpt lat="50.02953" lon="1.39547">
        <ele>84.9</ele>
        <time>2020-06-18T14:42:54Z</time>
      </trkpt>
      <trkpt lat="50.02956" lon="1.39555">
        <ele>84.9</ele>
        <time>2020-06-18T14:42:55Z</time>
      </trkpt>
      <trkpt lat="50.0296" lon="1.39563">
        <ele>84.9</ele>
        <time>2020-06-18T14:42:56Z</time>
      </trkpt>
      <trkpt lat="50.02964" lon="1.39571">
        <ele>84.9</ele>
        <time>2020-06-18T14:42:57Z</time>
      </trkpt>
      <trkpt lat="50.02967" lon="1.39579">
        <ele>84.9</ele>
        <time>2020-06-18T14:42:58Z</time>
      </trkpt>
      <trkpt lat="50.02973" lon="1.39585">
        <ele>84.9</ele>
        <time>2020-06-18T14:42:59Z</time>
      </trkpt>
      <trkpt lat="50.02977" lon="1.39594">
        <ele>84.9</ele>
        <time>2020-06-18T14:43:00Z</time>
      </trkpt>
      <trkpt lat="50.02981" lon="1.39602">
        <ele>84.9</ele>
        <time>2020-06-18T14:43:01Z</time>
      </trkpt>
      <trkpt lat="50.02985" lon="1.39611">
        <ele>84.9</ele>
        <time>2020-06-18T14:43:02Z</time>
      </trkpt>
      <trkpt lat="50.02989" lon="1.39618">
        <ele>85</ele>
        <time>2020-06-18T14:43:03Z</time>
      </trkpt>
      <trkpt lat="50.02994" lon="1.39626">
        <ele>85</ele>
        <time>2020-06-18T14:43:04Z</time>
      </trkpt>
      <trkpt lat="50.02997" lon="1.39636">
        <ele>85</ele>
        <time>2020-06-18T14:43:05Z</time>
      </trkpt>
      <trkpt lat="50.03001" lon="1.39644">
        <ele>85.1</ele>
        <time>2020-06-18T14:43:06Z</time>
      </trkpt>
      <trkpt lat="50.03004" lon="1.39651">
        <ele>85.1</ele>
        <time>2020-06-18T14:43:07Z</time>
      </trkpt>
      <trkpt lat="50.03008" lon="1.39658">
        <ele>85.1</ele>
        <time>2020-06-18T14:43:08Z</time>
      </trkpt>
      <trkpt lat="50.03013" lon="1.39666">
        <ele>85.2</ele>
        <time>2020-06-18T14:43:09Z</time>
      </trkpt>
      <trkpt lat="50.03017" lon="1.39674">
        <ele>85.2</ele>
        <time>2020-06-18T14:43:10Z</time>
      </trkpt>
      <trkpt lat="50.03021" lon="1.39682">
        <ele>85.2</ele>
        <time>2020-06-18T14:43:11Z</time>
      </trkpt>
      <trkpt lat="50.03026" lon="1.39691">
        <ele>85.2</ele>
        <time>2020-06-18T14:43:12Z</time>
      </trkpt>
      <trkpt lat="50.0303" lon="1.39698">
        <ele>85.2</ele>
        <time>2020-06-18T14:43:13Z</time>
      </trkpt>
      <trkpt lat="50.03035" lon="1.39705">
        <ele>85.2</ele>
        <time>2020-06-18T14:43:14Z</time>
      </trkpt>
      <trkpt lat="50.03039" lon="1.39713">
        <ele>85.3</ele>
        <time>2020-06-18T14:43:15Z</time>
      </trkpt>
      <trkpt lat="50.03043" lon="1.39722">
        <ele>85.3</ele>
        <time>2020-06-18T14:43:16Z</time>
      </trkpt>
      <trkpt lat="50.03048" lon="1.39729">
        <ele>85.3</ele>
        <time>2020-06-18T14:43:17Z</time>
      </trkpt>
      <trkpt lat="50.03052" lon="1.39738">
        <ele>85.3</ele>
        <time>2020-06-18T14:43:18Z</time>
      </trkpt>
      <trkpt lat="50.03056" lon="1.39745">
        <ele>85.3</ele>
        <time>2020-06-18T14:43:19Z</time>
      </trkpt>
      <trkpt lat="50.03059" lon="1.39753">
        <ele>85.3</ele>
        <time>2020-06-18T14:43:20Z</time>
      </trkpt>
      <trkpt lat="50.03063" lon="1.39762">
        <ele>85.4</ele>
        <time>2020-06-18T14:43:21Z</time>
      </trkpt>
      <trkpt lat="50.03068" lon="1.3977">
        <ele>85.4</ele>
        <time>2020-06-18T14:43:22Z</time>
      </trkpt>
      <trkpt lat="50.03072" lon="1.39778">
        <ele>85.4</ele>
        <time>2020-06-18T14:43:23Z</time>
      </trkpt>
      <trkpt lat="50.03076" lon="1.39786">
        <ele>85.4</ele>
        <time>2020-06-18T14:43:24Z</time>
      </trkpt>
      <trkpt lat="50.0308" lon="1.39793">
        <ele>85.4</ele>
        <time>2020-06-18T14:43:25Z</time>
      </trkpt>
      <trkpt lat="50.03084" lon="1.39801">
        <ele>85.4</ele>
        <time>2020-06-18T14:43:26Z</time>
      </trkpt>
      <trkpt lat="50.03088" lon="1.39808">
        <ele>85.4</ele>
        <time>2020-06-18T14:43:27Z</time>
      </trkpt>
      <trkpt lat="50.03092" lon="1.39817">
        <ele>85.4</ele>
        <time>2020-06-18T14:43:28Z</time>
      </trkpt>
      <trkpt lat="50.03097" lon="1.39825">
        <ele>85.4</ele>
        <time>2020-06-18T14:43:29Z</time>
      </trkpt>
      <trkpt lat="50.03101" lon="1.39832">
        <ele>85.4</ele>
        <time>2020-06-18T14:43:30Z</time>
      </trkpt>
      <trkpt lat="50.03105" lon="1.3984">
        <ele>85.4</ele>
        <time>2020-06-18T14:43:31Z</time>
      </trkpt>
      <trkpt lat="50.03109" lon="1.39848">
        <ele>85.4</ele>
        <time>2020-06-18T14:43:32Z</time>
      </trkpt>
      <trkpt lat="50.03113" lon="1.39856">
        <ele>85.5</ele>
        <time>2020-06-18T14:43:33Z</time>
      </trkpt>
      <trkpt lat="50.03116" lon="1.39864">
        <ele>85.5</ele>
        <time>2020-06-18T14:43:34Z</time>
      </trkpt>
      <trkpt lat="50.0312" lon="1.39872">
        <ele>85.5</ele>
        <time>2020-06-18T14:43:35Z</time>
      </trkpt>
      <trkpt lat="50.03124" lon="1.39879">
        <ele>85.5</ele>
        <time>2020-06-18T14:43:36Z</time>
      </trkpt>
      <trkpt lat="50.03128" lon="1.39888">
        <ele>85.5</ele>
        <time>2020-06-18T14:43:37Z</time>
      </trkpt>
      <trkpt lat="50.03131" lon="1.39895">
        <ele>85.5</ele>
        <time>2020-06-18T14:43:38Z</time>
      </trkpt>
      <trkpt lat="50.03135" lon="1.39902">
        <ele>85.6</ele>
        <time>2020-06-18T14:43:39Z</time>
      </trkpt>
      <trkpt lat="50.0314" lon="1.3991">
        <ele>85.6</ele>
        <time>2020-06-18T14:43:40Z</time>
      </trkpt>
      <trkpt lat="50.03143" lon="1.39917">
        <ele>85.6</ele>
        <time>2020-06-18T14:43:41Z</time>
      </trkpt>
      <trkpt lat="50.03146" lon="1.39925">
        <ele>85.6</ele>
        <time>2020-06-18T14:43:42Z</time>
      </trkpt>
      <trkpt lat="50.0315" lon="1.39932">
        <ele>85.6</ele>
        <time>2020-06-18T14:43:43Z</time>
      </trkpt>
      <trkpt lat="50.03154" lon="1.39941">
        <ele>85.6</ele>
        <time>2020-06-18T14:43:44Z</time>
      </trkpt>
      <trkpt lat="50.03158" lon="1.39948">
        <ele>85.7</ele>
        <time>2020-06-18T14:43:45Z</time>
      </trkpt>
      <trkpt lat="50.03161" lon="1.39953">
        <ele>85.7</ele>
        <time>2020-06-18T14:43:46Z</time>
      </trkpt>
      <trkpt lat="50.03164" lon="1.39961">
        <ele>85.8</ele>
        <time>2020-06-18T14:43:47Z</time>
      </trkpt>
      <trkpt lat="50.03168" lon="1.39967">
        <ele>85.9</ele>
        <time>2020-06-18T14:43:48Z</time>
      </trkpt>
      <trkpt lat="50.03172" lon="1.39974">
        <ele>85.9</ele>
        <time>2020-06-18T14:43:49Z</time>
      </trkpt>
      <trkpt lat="50.03175" lon="1.39982">
        <ele>86</ele>
        <time>2020-06-18T14:43:50Z</time>
      </trkpt>
      <trkpt lat="50.03178" lon="1.39989">
        <ele>86.1</ele>
        <time>2020-06-18T14:43:51Z</time>
      </trkpt>
      <trkpt lat="50.03181" lon="1.39995">
        <ele>86.1</ele>
        <time>2020-06-18T14:43:52Z</time>
      </trkpt>
      <trkpt lat="50.03185" lon="1.4">
        <ele>86.2</ele>
        <time>2020-06-18T14:43:53Z</time>
      </trkpt>
      <trkpt lat="50.03188" lon="1.40004">
        <ele>86.2</ele>
        <time>2020-06-18T14:43:54Z</time>
      </trkpt>
      <trkpt lat="50.0319" lon="1.40008">
        <ele>86.2</ele>
        <time>2020-06-18T14:43:55Z</time>
      </trkpt>
      <trkpt lat="50.03193" lon="1.40012">
        <ele>86.2</ele>
        <time>2020-06-18T14:43:56Z</time>
      </trkpt>
      <trkpt lat="50.03196" lon="1.40017">
        <ele>86.2</ele>
        <time>2020-06-18T14:43:57Z</time>
      </trkpt>
      <trkpt lat="50.03197" lon="1.40023">
        <ele>86.2</ele>
        <time>2020-06-18T14:43:58Z</time>
      </trkpt>
      <trkpt lat="50.03198" lon="1.40028">
        <ele>86.1</ele>
        <time>2020-06-18T14:43:59Z</time>
      </trkpt>
      <trkpt lat="50.03198" lon="1.40033">
        <ele>86.1</ele>
        <time>2020-06-18T14:44:00Z</time>
      </trkpt>
      <trkpt lat="50.03197" lon="1.40039">
        <ele>86.2</ele>
        <time>2020-06-18T14:44:01Z</time>
      </trkpt>
      <trkpt lat="50.03197" lon="1.40047">
        <ele>86.2</ele>
        <time>2020-06-18T14:44:02Z</time>
      </trkpt>
      <trkpt lat="50.03197" lon="1.40054">
        <ele>86.2</ele>
        <time>2020-06-18T14:44:03Z</time>
      </trkpt>
      <trkpt lat="50.03198" lon="1.40061">
        <ele>86.2</ele>
        <time>2020-06-18T14:44:04Z</time>
      </trkpt>
      <trkpt lat="50.03201" lon="1.40068">
        <ele>86.3</ele>
        <time>2020-06-18T14:44:05Z</time>
      </trkpt>
      <trkpt lat="50.03205" lon="1.40075">
        <ele>86.2</ele>
        <time>2020-06-18T14:44:06Z</time>
      </trkpt>
      <trkpt lat="50.03208" lon="1.4008">
        <ele>86.2</ele>
        <time>2020-06-18T14:44:07Z</time>
      </trkpt>
      <trkpt lat="50.0321" lon="1.40084">
        <ele>86.2</ele>
        <time>2020-06-18T14:44:08Z</time>
      </trkpt>
      <trkpt lat="50.03214" lon="1.40089">
        <ele>86.2</ele>
        <time>2020-06-18T14:44:09Z</time>
      </trkpt>
      <trkpt lat="50.03218" lon="1.40093">
        <ele>86.2</ele>
        <time>2020-06-18T14:44:10Z</time>
      </trkpt>
      <trkpt lat="50.03225" lon="1.40094">
        <ele>86.2</ele>
        <time>2020-06-18T14:44:11Z</time>
      </trkpt>
      <trkpt lat="50.03231" lon="1.40095">
        <ele>86.2</ele>
        <time>2020-06-18T14:44:12Z</time>
      </trkpt>
      <trkpt lat="50.03236" lon="1.40097">
        <ele>86.2</ele>
        <time>2020-06-18T14:44:13Z</time>
      </trkpt>
      <trkpt lat="50.0324" lon="1.401">
        <ele>86.3</ele>
        <time>2020-06-18T14:44:14Z</time>
      </trkpt>
      <trkpt lat="50.03244" lon="1.40105">
        <ele>86.3</ele>
        <time>2020-06-18T14:44:15Z</time>
      </trkpt>
      <trkpt lat="50.03248" lon="1.40113">
        <ele>86.3</ele>
        <time>2020-06-18T14:44:16Z</time>
      </trkpt>
      <trkpt lat="50.03251" lon="1.40121">
        <ele>86.4</ele>
        <time>2020-06-18T14:44:17Z</time>
      </trkpt>
      <trkpt lat="50.03255" lon="1.40128">
        <ele>86.4</ele>
        <time>2020-06-18T14:44:18Z</time>
      </trkpt>
      <trkpt lat="50.03256" lon="1.40134">
        <ele>86.3</ele>
        <time>2020-06-18T14:44:19Z</time>
      </trkpt>
      <trkpt lat="50.03259" lon="1.40139">
        <ele>86.3</ele>
        <time>2020-06-18T14:44:20Z</time>
      </trkpt>
      <trkpt lat="50.0326" lon="1.40144">
        <ele>86.3</ele>
        <time>2020-06-18T14:44:21Z</time>
      </trkpt>
      <trkpt lat="50.03261" lon="1.40146">
        <ele>86.2</ele>
        <time>2020-06-18T14:44:22Z</time>
      </trkpt>
      <trkpt lat="50.03261" lon="1.40148">
        <ele>86.2</ele>
        <time>2020-06-18T14:44:23Z</time>
      </trkpt>
      <trkpt lat="50.03261" lon="1.40148">
        <ele>86.2</ele>
        <time>2020-06-18T14:44:24Z</time>
      </trkpt>
      <trkpt lat="50.0326" lon="1.40147">
        <ele>86.2</ele>
        <time>2020-06-18T14:44:25Z</time>
      </trkpt>
      <trkpt lat="50.0326" lon="1.40145">
        <ele>86.2</ele>
        <time>2020-06-18T14:44:26Z</time>
      </trkpt>
      <trkpt lat="50.0326" lon="1.40145">
        <ele>86.2</ele>
        <time>2020-06-18T14:44:27Z</time>
      </trkpt>
      <trkpt lat="50.03261" lon="1.40145">
        <ele>86.2</ele>
        <time>2020-06-18T14:44:28Z</time>
      </trkpt>
      <trkpt lat="50.03261" lon="1.40144">
        <ele>86.2</ele>
        <time>2020-06-18T14:44:29Z</time>
      </trkpt>
      <trkpt lat="50.03261" lon="1.40144">
        <ele>86.2</ele>
        <time>2020-06-18T14:44:30Z</time>
      </trkpt>
      <trkpt lat="50.03261" lon="1.40146">
        <ele>86.2</ele>
        <time>2020-06-18T14:44:31Z</time>
      </trkpt>
      <trkpt lat="50.03262" lon="1.40149">
        <ele>86.1</ele>
        <time>2020-06-18T14:44:32Z</time>
      </trkpt>
      <trkpt lat="50.03263" lon="1.40151">
        <ele>86.1</ele>
        <time>2020-06-18T14:44:33Z</time>
      </trkpt>
      <trkpt lat="50.03264" lon="1.40154">
        <ele>86.1</ele>
        <time>2020-06-18T14:44:34Z</time>
      </trkpt>
      <trkpt lat="50.03265" lon="1.40157">
        <ele>86.1</ele>
        <time>2020-06-18T14:51:06Z</time>
      </trkpt>
      <trkpt lat="50.03266" lon="1.40159">
        <ele>86.1</ele>
        <time>2020-06-18T14:51:07Z</time>
      </trkpt>
      <trkpt lat="50.03267" lon="1.40162">
        <ele>86.1</ele>
        <time>2020-06-18T14:51:08Z</time>
      </trkpt>
      <trkpt lat="50.03271" lon="1.40167">
        <ele>86</ele>
        <time>2020-06-18T14:51:09Z</time>
      </trkpt>
      <trkpt lat="50.03271" lon="1.40169">
        <ele>86</ele>
        <time>2020-06-18T14:51:10Z</time>
      </trkpt>
      <trkpt lat="50.03274" lon="1.40173">
        <ele>86</ele>
        <time>2020-06-18T14:51:11Z</time>
      </trkpt>
      <trkpt lat="50.03277" lon="1.40177">
        <ele>86</ele>
        <time>2020-06-18T14:51:12Z</time>
      </trkpt>
      <trkpt lat="50.03279" lon="1.40182">
        <ele>86</ele>
        <time>2020-06-18T14:51:13Z</time>
      </trkpt>
      <trkpt lat="50.03281" lon="1.40187">
        <ele>86</ele>
        <time>2020-06-18T14:51:14Z</time>
      </trkpt>
      <trkpt lat="50.03284" lon="1.40191">
        <ele>86</ele>
        <time>2020-06-18T14:51:15Z</time>
      </trkpt>
      <trkpt lat="50.03286" lon="1.40198">
        <ele>86</ele>
        <time>2020-06-18T14:51:16Z</time>
      </trkpt>
      <trkpt lat="50.03289" lon="1.40203">
        <ele>86</ele>
        <time>2020-06-18T14:51:17Z</time>
      </trkpt>
      <trkpt lat="50.03293" lon="1.40208">
        <ele>86.1</ele>
        <time>2020-06-18T14:51:18Z</time>
      </trkpt>
      <trkpt lat="50.03296" lon="1.40214">
        <ele>86.1</ele>
        <time>2020-06-18T14:51:19Z</time>
      </trkpt>
      <trkpt lat="50.033" lon="1.4022">
        <ele>86.1</ele>
        <time>2020-06-18T14:51:20Z</time>
      </trkpt>
      <trkpt lat="50.03303" lon="1.40228">
        <ele>86.1</ele>
        <time>2020-06-18T14:51:21Z</time>
      </trkpt>
      <trkpt lat="50.03306" lon="1.40236">
        <ele>86.2</ele>
        <time>2020-06-18T14:51:22Z</time>
      </trkpt>
      <trkpt lat="50.0331" lon="1.40243">
        <ele>86.2</ele>
        <time>2020-06-18T14:51:23Z</time>
      </trkpt>
      <trkpt lat="50.03313" lon="1.4025">
        <ele>86.2</ele>
        <time>2020-06-18T14:51:24Z</time>
      </trkpt>
      <trkpt lat="50.03316" lon="1.40256">
        <ele>86.3</ele>
        <time>2020-06-18T14:51:25Z</time>
      </trkpt>
      <trkpt lat="50.0332" lon="1.40263">
        <ele>86.4</ele>
        <time>2020-06-18T14:51:26Z</time>
      </trkpt>
      <trkpt lat="50.03324" lon="1.4027">
        <ele>86.4</ele>
        <time>2020-06-18T14:51:27Z</time>
      </trkpt>
      <trkpt lat="50.03328" lon="1.40277">
        <ele>86.5</ele>
        <time>2020-06-18T14:51:28Z</time>
      </trkpt>
      <trkpt lat="50.03332" lon="1.40286">
        <ele>86.5</ele>
        <time>2020-06-18T14:51:29Z</time>
      </trkpt>
      <trkpt lat="50.03337" lon="1.40294">
        <ele>86.6</ele>
        <time>2020-06-18T14:51:30Z</time>
      </trkpt>
      <trkpt lat="50.03341" lon="1.40301">
        <ele>86.6</ele>
        <time>2020-06-18T14:51:31Z</time>
      </trkpt>
      <trkpt lat="50.03345" lon="1.40309">
        <ele>86.6</ele>
        <time>2020-06-18T14:51:32Z</time>
      </trkpt>
      <trkpt lat="50.03349" lon="1.40317">
        <ele>86.5</ele>
        <time>2020-06-18T14:51:33Z</time>
      </trkpt>
      <trkpt lat="50.03353" lon="1.40325">
        <ele>86.4</ele>
        <time>2020-06-18T14:51:34Z</time>
      </trkpt>
      <trkpt lat="50.03357" lon="1.40333">
        <ele>86.4</ele>
        <time>2020-06-18T14:51:35Z</time>
      </trkpt>
      <trkpt lat="50.0336" lon="1.4034">
        <ele>86.4</ele>
        <time>2020-06-18T14:51:36Z</time>
      </trkpt>
      <trkpt lat="50.03364" lon="1.40349">
        <ele>86.4</ele>
        <time>2020-06-18T14:51:37Z</time>
      </trkpt>
      <trkpt lat="50.03368" lon="1.40357">
        <ele>86.3</ele>
        <time>2020-06-18T14:51:38Z</time>
      </trkpt>
      <trkpt lat="50.03373" lon="1.40365">
        <ele>86.3</ele>
        <time>2020-06-18T14:51:39Z</time>
      </trkpt>
      <trkpt lat="50.03377" lon="1.40374">
        <ele>86.2</ele>
        <time>2020-06-18T14:51:40Z</time>
      </trkpt>
      <trkpt lat="50.03381" lon="1.40383">
        <ele>86.1</ele>
        <time>2020-06-18T14:51:41Z</time>
      </trkpt>
      <trkpt lat="50.03385" lon="1.40391">
        <ele>86.1</ele>
        <time>2020-06-18T14:51:42Z</time>
      </trkpt>
      <trkpt lat="50.03389" lon="1.404">
        <ele>86</ele>
        <time>2020-06-18T14:51:43Z</time>
      </trkpt>
      <trkpt lat="50.03394" lon="1.40409">
        <ele>85.9</ele>
        <time>2020-06-18T14:51:44Z</time>
      </trkpt>
      <trkpt lat="50.03398" lon="1.40418">
        <ele>85.8</ele>
        <time>2020-06-18T14:51:45Z</time>
      </trkpt>
      <trkpt lat="50.03402" lon="1.40427">
        <ele>85.7</ele>
        <time>2020-06-18T14:51:46Z</time>
      </trkpt>
      <trkpt lat="50.03406" lon="1.40435">
        <ele>85.7</ele>
        <time>2020-06-18T14:51:47Z</time>
      </trkpt>
      <trkpt lat="50.0341" lon="1.40442">
        <ele>85.6</ele>
        <time>2020-06-18T14:51:48Z</time>
      </trkpt>
      <trkpt lat="50.03414" lon="1.40451">
        <ele>85.5</ele>
        <time>2020-06-18T14:51:49Z</time>
      </trkpt>
      <trkpt lat="50.03419" lon="1.40459">
        <ele>85.5</ele>
        <time>2020-06-18T14:51:50Z</time>
      </trkpt>
      <trkpt lat="50.03423" lon="1.40467">
        <ele>85.4</ele>
        <time>2020-06-18T14:51:51Z</time>
      </trkpt>
      <trkpt lat="50.03428" lon="1.40476">
        <ele>85.4</ele>
        <time>2020-06-18T14:51:52Z</time>
      </trkpt>
      <trkpt lat="50.03431" lon="1.40484">
        <ele>85.3</ele>
        <time>2020-06-18T14:51:53Z</time>
      </trkpt>
      <trkpt lat="50.03435" lon="1.40492">
        <ele>85.3</ele>
        <time>2020-06-18T14:51:54Z</time>
      </trkpt>
      <trkpt lat="50.03439" lon="1.405">
        <ele>85.2</ele>
        <time>2020-06-18T14:51:55Z</time>
      </trkpt>
      <trkpt lat="50.03443" lon="1.40508">
        <ele>85.2</ele>
        <time>2020-06-18T14:51:56Z</time>
      </trkpt>
      <trkpt lat="50.03447" lon="1.40516">
        <ele>85.1</ele>
        <time>2020-06-18T14:51:57Z</time>
      </trkpt>
      <trkpt lat="50.0345" lon="1.40523">
        <ele>85.1</ele>
        <time>2020-06-18T14:51:58Z</time>
      </trkpt>
      <trkpt lat="50.03454" lon="1.40531">
        <ele>85</ele>
        <time>2020-06-18T14:51:59Z</time>
      </trkpt>
      <trkpt lat="50.03458" lon="1.40538">
        <ele>85</ele>
        <time>2020-06-18T14:52:00Z</time>
      </trkpt>
      <trkpt lat="50.03461" lon="1.40545">
        <ele>84.9</ele>
        <time>2020-06-18T14:52:01Z</time>
      </trkpt>
      <trkpt lat="50.03465" lon="1.40553">
        <ele>84.9</ele>
        <time>2020-06-18T14:52:02Z</time>
      </trkpt>
      <trkpt lat="50.03468" lon="1.4056">
        <ele>84.8</ele>
        <time>2020-06-18T14:52:03Z</time>
      </trkpt>
      <trkpt lat="50.03472" lon="1.40567">
        <ele>84.8</ele>
        <time>2020-06-18T14:52:04Z</time>
      </trkpt>
      <trkpt lat="50.03475" lon="1.40573">
        <ele>84.7</ele>
        <time>2020-06-18T14:52:05Z</time>
      </trkpt>
      <trkpt lat="50.03479" lon="1.40579">
        <ele>84.7</ele>
        <time>2020-06-18T14:52:06Z</time>
      </trkpt>
      <trkpt lat="50.03482" lon="1.40586">
        <ele>84.7</ele>
        <time>2020-06-18T14:52:07Z</time>
      </trkpt>
      <trkpt lat="50.03485" lon="1.40591">
        <ele>84.7</ele>
        <time>2020-06-18T14:52:08Z</time>
      </trkpt>
      <trkpt lat="50.03488" lon="1.40597">
        <ele>84.7</ele>
        <time>2020-06-18T14:52:09Z</time>
      </trkpt>
      <trkpt lat="50.03491" lon="1.40604">
        <ele>84.7</ele>
        <time>2020-06-18T14:52:10Z</time>
      </trkpt>
      <trkpt lat="50.03494" lon="1.40609">
        <ele>84.7</ele>
        <time>2020-06-18T14:52:11Z</time>
      </trkpt>
      <trkpt lat="50.03496" lon="1.40615">
        <ele>84.7</ele>
        <time>2020-06-18T14:52:12Z</time>
      </trkpt>
      <trkpt lat="50.03499" lon="1.4062">
        <ele>84.7</ele>
        <time>2020-06-18T14:52:13Z</time>
      </trkpt>
      <trkpt lat="50.035" lon="1.40623">
        <ele>84.7</ele>
        <time>2020-06-18T14:52:14Z</time>
      </trkpt>
      <trkpt lat="50.03501" lon="1.40623">
        <ele>84.7</ele>
        <time>2020-06-18T14:52:15Z</time>
      </trkpt>
      <trkpt lat="50.03501" lon="1.40623">
        <ele>84.7</ele>
        <time>2020-06-18T14:52:16Z</time>
      </trkpt>
      <trkpt lat="50.03501" lon="1.40622">
        <ele>84.7</ele>
        <time>2020-06-18T14:52:17Z</time>
      </trkpt>
      <trkpt lat="50.03501" lon="1.40621">
        <ele>84.7</ele>
        <time>2020-06-18T14:52:18Z</time>
      </trkpt>
      <trkpt lat="50.03501" lon="1.40621">
        <ele>84.7</ele>
        <time>2020-06-18T14:52:19Z</time>
      </trkpt>
      <trkpt lat="50.03502" lon="1.40621">
        <ele>84.7</ele>
        <time>2020-06-18T14:52:20Z</time>
      </trkpt>
      <trkpt lat="50.03502" lon="1.4062">
        <ele>84.7</ele>
        <time>2020-06-18T14:52:21Z</time>
      </trkpt>
      <trkpt lat="50.03503" lon="1.4062">
        <ele>84.7</ele>
        <time>2020-06-18T14:52:22Z</time>
      </trkpt>
      <trkpt lat="50.03503" lon="1.4062">
        <ele>84.7</ele>
        <time>2020-06-18T14:52:23Z</time>
      </trkpt>
      <trkpt lat="50.03504" lon="1.40621">
        <ele>84.7</ele>
        <time>2020-06-18T14:52:24Z</time>
      </trkpt>
      <trkpt lat="50.03504" lon="1.40621">
        <ele>84.7</ele>
        <time>2020-06-18T14:52:25Z</time>
      </trkpt>
      <trkpt lat="50.03505" lon="1.40622">
        <ele>84.7</ele>
        <time>2020-06-18T14:52:26Z</time>
      </trkpt>
      <trkpt lat="50.03506" lon="1.40622">
        <ele>84.7</ele>
        <time>2020-06-18T14:52:27Z</time>
      </trkpt>
      <trkpt lat="50.03506" lon="1.40623">
        <ele>84.7</ele>
        <time>2020-06-18T14:52:28Z</time>
      </trkpt>
      <trkpt lat="50.03507" lon="1.40623">
        <ele>84.7</ele>
        <time>2020-06-18T14:52:29Z</time>
      </trkpt>
      <trkpt lat="50.03507" lon="1.40624">
        <ele>84.7</ele>
        <time>2020-06-18T14:52:30Z</time>
      </trkpt>
      <trkpt lat="50.03508" lon="1.40624">
        <ele>84.7</ele>
        <time>2020-06-18T14:52:31Z</time>
      </trkpt>
      <trkpt lat="50.03508" lon="1.40625">
        <ele>84.7</ele>
        <time>2020-06-18T14:52:32Z</time>
      </trkpt>
      <trkpt lat="50.03509" lon="1.40625">
        <ele>84.7</ele>
        <time>2020-06-18T14:52:33Z</time>
      </trkpt>
      <trkpt lat="50.0351" lon="1.40626">
        <ele>84.7</ele>
        <time>2020-06-18T14:52:53Z</time>
      </trkpt>
      <trkpt lat="50.0351" lon="1.40626">
        <ele>84.7</ele>
        <time>2020-06-18T14:52:54Z</time>
      </trkpt>
      <trkpt lat="50.03512" lon="1.4063">
        <ele>84.7</ele>
        <time>2020-06-18T14:52:55Z</time>
      </trkpt>
      <trkpt lat="50.03514" lon="1.40634">
        <ele>84.7</ele>
        <time>2020-06-18T14:52:56Z</time>
      </trkpt>
      <trkpt lat="50.03517" lon="1.40639">
        <ele>84.7</ele>
        <time>2020-06-18T14:52:57Z</time>
      </trkpt>
      <trkpt lat="50.03519" lon="1.40644">
        <ele>84.7</ele>
        <time>2020-06-18T14:52:58Z</time>
      </trkpt>
      <trkpt lat="50.03522" lon="1.40649">
        <ele>84.6</ele>
        <time>2020-06-18T14:52:59Z</time>
      </trkpt>
      <trkpt lat="50.03524" lon="1.40655">
        <ele>84.6</ele>
        <time>2020-06-18T14:53:00Z</time>
      </trkpt>
      <trkpt lat="50.03527" lon="1.40661">
        <ele>84.6</ele>
        <time>2020-06-18T14:53:01Z</time>
      </trkpt>
      <trkpt lat="50.0353" lon="1.40667">
        <ele>84.6</ele>
        <time>2020-06-18T14:53:02Z</time>
      </trkpt>
      <trkpt lat="50.03533" lon="1.40673">
        <ele>84.6</ele>
        <time>2020-06-18T14:53:03Z</time>
      </trkpt>
      <trkpt lat="50.03537" lon="1.40679">
        <ele>84.5</ele>
        <time>2020-06-18T14:53:04Z</time>
      </trkpt>
      <trkpt lat="50.0354" lon="1.40685">
        <ele>84.5</ele>
        <time>2020-06-18T14:53:05Z</time>
      </trkpt>
      <trkpt lat="50.03544" lon="1.40692">
        <ele>84.5</ele>
        <time>2020-06-18T14:53:06Z</time>
      </trkpt>
      <trkpt lat="50.03547" lon="1.40699">
        <ele>84.5</ele>
        <time>2020-06-18T14:53:07Z</time>
      </trkpt>
      <trkpt lat="50.03551" lon="1.40706">
        <ele>84.5</ele>
        <time>2020-06-18T14:53:08Z</time>
      </trkpt>
      <trkpt lat="50.03554" lon="1.40714">
        <ele>84.5</ele>
        <time>2020-06-18T14:53:09Z</time>
      </trkpt>
      <trkpt lat="50.03557" lon="1.40721">
        <ele>84.5</ele>
        <time>2020-06-18T14:53:10Z</time>
      </trkpt>
      <trkpt lat="50.03561" lon="1.40728">
        <ele>84.5</ele>
        <time>2020-06-18T14:53:11Z</time>
      </trkpt>
      <trkpt lat="50.03564" lon="1.40735">
        <ele>84.4</ele>
        <time>2020-06-18T14:53:12Z</time>
      </trkpt>
      <trkpt lat="50.03567" lon="1.40742">
        <ele>84.4</ele>
        <time>2020-06-18T14:53:13Z</time>
      </trkpt>
      <trkpt lat="50.0357" lon="1.4075">
        <ele>84.4</ele>
        <time>2020-06-18T14:53:14Z</time>
      </trkpt>
      <trkpt lat="50.03573" lon="1.40757">
        <ele>84.4</ele>
        <time>2020-06-18T14:53:15Z</time>
      </trkpt>
      <trkpt lat="50.03576" lon="1.40764">
        <ele>84.3</ele>
        <time>2020-06-18T14:53:16Z</time>
      </trkpt>
      <trkpt lat="50.0358" lon="1.40771">
        <ele>84.2</ele>
        <time>2020-06-18T14:53:17Z</time>
      </trkpt>
      <trkpt lat="50.03583" lon="1.40778">
        <ele>84.1</ele>
        <time>2020-06-18T14:53:18Z</time>
      </trkpt>
      <trkpt lat="50.03586" lon="1.40786">
        <ele>84</ele>
        <time>2020-06-18T14:53:19Z</time>
      </trkpt>
      <trkpt lat="50.0359" lon="1.40793">
        <ele>83.9</ele>
        <time>2020-06-18T14:53:20Z</time>
      </trkpt>
      <trkpt lat="50.03594" lon="1.40801">
        <ele>83.7</ele>
        <time>2020-06-18T14:53:21Z</time>
      </trkpt>
      <trkpt lat="50.03598" lon="1.40809">
        <ele>83.6</ele>
        <time>2020-06-18T14:53:22Z</time>
      </trkpt>
      <trkpt lat="50.03602" lon="1.40818">
        <ele>83.5</ele>
        <time>2020-06-18T14:53:23Z</time>
      </trkpt>
      <trkpt lat="50.03606" lon="1.40826">
        <ele>83.4</ele>
        <time>2020-06-18T14:53:24Z</time>
      </trkpt>
      <trkpt lat="50.0361" lon="1.40834">
        <ele>83.3</ele>
        <time>2020-06-18T14:53:25Z</time>
      </trkpt>
      <trkpt lat="50.03614" lon="1.40842">
        <ele>83.1</ele>
        <time>2020-06-18T14:53:26Z</time>
      </trkpt>
      <trkpt lat="50.03618" lon="1.40849">
        <ele>83</ele>
        <time>2020-06-18T14:53:27Z</time>
      </trkpt>
      <trkpt lat="50.03622" lon="1.40857">
        <ele>82.9</ele>
        <time>2020-06-18T14:53:28Z</time>
      </trkpt>
      <trkpt lat="50.03626" lon="1.40865">
        <ele>82.8</ele>
        <time>2020-06-18T14:53:29Z</time>
      </trkpt>
      <trkpt lat="50.03629" lon="1.40873">
        <ele>82.7</ele>
        <time>2020-06-18T14:53:30Z</time>
      </trkpt>
      <trkpt lat="50.03633" lon="1.40881">
        <ele>82.6</ele>
        <time>2020-06-18T14:53:31Z</time>
      </trkpt>
      <trkpt lat="50.03637" lon="1.40888">
        <ele>82.4</ele>
        <time>2020-06-18T14:53:32Z</time>
      </trkpt>
      <trkpt lat="50.03641" lon="1.40895">
        <ele>82.3</ele>
        <time>2020-06-18T14:53:33Z</time>
      </trkpt>
      <trkpt lat="50.03645" lon="1.40903">
        <ele>82.2</ele>
        <time>2020-06-18T14:53:34Z</time>
      </trkpt>
      <trkpt lat="50.03649" lon="1.4091">
        <ele>82</ele>
        <time>2020-06-18T14:53:35Z</time>
      </trkpt>
      <trkpt lat="50.03652" lon="1.40917">
        <ele>81.9</ele>
        <time>2020-06-18T14:53:36Z</time>
      </trkpt>
      <trkpt lat="50.03655" lon="1.40924">
        <ele>81.7</ele>
        <time>2020-06-18T14:53:37Z</time>
      </trkpt>
      <trkpt lat="50.03658" lon="1.4093">
        <ele>81.6</ele>
        <time>2020-06-18T14:53:38Z</time>
      </trkpt>
      <trkpt lat="50.03661" lon="1.40937">
        <ele>81.5</ele>
        <time>2020-06-18T14:53:39Z</time>
      </trkpt>
      <trkpt lat="50.03665" lon="1.40944">
        <ele>81.4</ele>
        <time>2020-06-18T14:53:40Z</time>
      </trkpt>
      <trkpt lat="50.03668" lon="1.40951">
        <ele>81.3</ele>
        <time>2020-06-18T14:53:41Z</time>
      </trkpt>
      <trkpt lat="50.03672" lon="1.40958">
        <ele>81.1</ele>
        <time>2020-06-18T14:53:42Z</time>
      </trkpt>
      <trkpt lat="50.03675" lon="1.40965">
        <ele>81</ele>
        <time>2020-06-18T14:53:43Z</time>
      </trkpt>
      <trkpt lat="50.03679" lon="1.40972">
        <ele>80.9</ele>
        <time>2020-06-18T14:53:44Z</time>
      </trkpt>
      <trkpt lat="50.03683" lon="1.40979">
        <ele>80.8</ele>
        <time>2020-06-18T14:53:45Z</time>
      </trkpt>
      <trkpt lat="50.03687" lon="1.40987">
        <ele>80.6</ele>
        <time>2020-06-18T14:53:46Z</time>
      </trkpt>
      <trkpt lat="50.03691" lon="1.40994">
        <ele>80.5</ele>
        <time>2020-06-18T14:53:47Z</time>
      </trkpt>
      <trkpt lat="50.03695" lon="1.41002">
        <ele>80.4</ele>
        <time>2020-06-18T14:53:48Z</time>
      </trkpt>
      <trkpt lat="50.037" lon="1.4101">
        <ele>80.2</ele>
        <time>2020-06-18T14:53:49Z</time>
      </trkpt>
      <trkpt lat="50.03704" lon="1.41018">
        <ele>80</ele>
        <time>2020-06-18T14:53:50Z</time>
      </trkpt>
      <trkpt lat="50.03708" lon="1.41026">
        <ele>79.8</ele>
        <time>2020-06-18T14:53:51Z</time>
      </trkpt>
      <trkpt lat="50.03713" lon="1.41035">
        <ele>79.7</ele>
        <time>2020-06-18T14:53:52Z</time>
      </trkpt>
      <trkpt lat="50.03717" lon="1.41043">
        <ele>79.5</ele>
        <time>2020-06-18T14:53:53Z</time>
      </trkpt>
      <trkpt lat="50.03721" lon="1.41052">
        <ele>79.3</ele>
        <time>2020-06-18T14:53:54Z</time>
      </trkpt>
      <trkpt lat="50.03726" lon="1.41061">
        <ele>79.1</ele>
        <time>2020-06-18T14:53:55Z</time>
      </trkpt>
      <trkpt lat="50.0373" lon="1.4107">
        <ele>78.8</ele>
        <time>2020-06-18T14:53:56Z</time>
      </trkpt>
      <trkpt lat="50.03735" lon="1.41079">
        <ele>78.6</ele>
        <time>2020-06-18T14:53:57Z</time>
      </trkpt>
      <trkpt lat="50.03739" lon="1.41087">
        <ele>78.3</ele>
        <time>2020-06-18T14:53:58Z</time>
      </trkpt>
      <trkpt lat="50.03744" lon="1.41097">
        <ele>78.1</ele>
        <time>2020-06-18T14:53:59Z</time>
      </trkpt>
      <trkpt lat="50.03749" lon="1.41106">
        <ele>77.8</ele>
        <time>2020-06-18T14:54:00Z</time>
      </trkpt>
      <trkpt lat="50.03753" lon="1.41115">
        <ele>77.5</ele>
        <time>2020-06-18T14:54:01Z</time>
      </trkpt>
      <trkpt lat="50.03758" lon="1.41123">
        <ele>76.9</ele>
        <time>2020-06-18T14:54:02Z</time>
      </trkpt>
      <trkpt lat="50.03763" lon="1.41132">
        <ele>76.5</ele>
        <time>2020-06-18T14:54:03Z</time>
      </trkpt>
      <trkpt lat="50.03768" lon="1.41142">
        <ele>76.1</ele>
        <time>2020-06-18T14:54:04Z</time>
      </trkpt>
      <trkpt lat="50.03773" lon="1.41151">
        <ele>75.7</ele>
        <time>2020-06-18T14:54:05Z</time>
      </trkpt>
      <trkpt lat="50.03779" lon="1.4116">
        <ele>75.2</ele>
        <time>2020-06-18T14:54:06Z</time>
      </trkpt>
      <trkpt lat="50.03785" lon="1.41169">
        <ele>74.7</ele>
        <time>2020-06-18T14:54:07Z</time>
      </trkpt>
      <trkpt lat="50.0379" lon="1.41178">
        <ele>74.2</ele>
        <time>2020-06-18T14:54:08Z</time>
      </trkpt>
      <trkpt lat="50.03796" lon="1.41188">
        <ele>73.6</ele>
        <time>2020-06-18T14:54:09Z</time>
      </trkpt>
      <trkpt lat="50.03803" lon="1.41198">
        <ele>72.9</ele>
        <time>2020-06-18T14:54:10Z</time>
      </trkpt>
      <trkpt lat="50.03809" lon="1.41208">
        <ele>72.3</ele>
        <time>2020-06-18T14:54:11Z</time>
      </trkpt>
      <trkpt lat="50.03815" lon="1.41217">
        <ele>71.6</ele>
        <time>2020-06-18T14:54:12Z</time>
      </trkpt>
      <trkpt lat="50.03821" lon="1.41227">
        <ele>71</ele>
        <time>2020-06-18T14:54:13Z</time>
      </trkpt>
      <trkpt lat="50.03827" lon="1.41237">
        <ele>70.3</ele>
        <time>2020-06-18T14:54:14Z</time>
      </trkpt>
      <trkpt lat="50.03834" lon="1.41247">
        <ele>69.6</ele>
        <time>2020-06-18T14:54:15Z</time>
      </trkpt>
      <trkpt lat="50.0384" lon="1.41258">
        <ele>68.9</ele>
        <time>2020-06-18T14:54:16Z</time>
      </trkpt>
      <trkpt lat="50.03847" lon="1.41269">
        <ele>68.2</ele>
        <time>2020-06-18T14:54:17Z</time>
      </trkpt>
      <trkpt lat="50.03853" lon="1.41279">
        <ele>67.4</ele>
        <time>2020-06-18T14:54:18Z</time>
      </trkpt>
      <trkpt lat="50.0386" lon="1.4129">
        <ele>66.8</ele>
        <time>2020-06-18T14:54:19Z</time>
      </trkpt>
      <trkpt lat="50.03867" lon="1.41301">
        <ele>66.1</ele>
        <time>2020-06-18T14:54:20Z</time>
      </trkpt>
      <trkpt lat="50.03874" lon="1.41312">
        <ele>65.4</ele>
        <time>2020-06-18T14:54:21Z</time>
      </trkpt>
      <trkpt lat="50.0388" lon="1.41323">
        <ele>64.7</ele>
        <time>2020-06-18T14:54:22Z</time>
      </trkpt>
      <trkpt lat="50.03887" lon="1.41334">
        <ele>64</ele>
        <time>2020-06-18T14:54:23Z</time>
      </trkpt>
      <trkpt lat="50.03894" lon="1.41345">
        <ele>63.3</ele>
        <time>2020-06-18T14:54:24Z</time>
      </trkpt>
      <trkpt lat="50.03901" lon="1.41356">
        <ele>62.5</ele>
        <time>2020-06-18T14:54:25Z</time>
      </trkpt>
      <trkpt lat="50.03907" lon="1.41368">
        <ele>61.8</ele>
        <time>2020-06-18T14:54:26Z</time>
      </trkpt>
      <trkpt lat="50.03914" lon="1.41379">
        <ele>61.1</ele>
        <time>2020-06-18T14:54:27Z</time>
      </trkpt>
      <trkpt lat="50.03921" lon="1.41389">
        <ele>60.5</ele>
        <time>2020-06-18T14:54:28Z</time>
      </trkpt>
      <trkpt lat="50.03927" lon="1.414">
        <ele>59.8</ele>
        <time>2020-06-18T14:54:29Z</time>
      </trkpt>
      <trkpt lat="50.03934" lon="1.41411">
        <ele>59.2</ele>
        <time>2020-06-18T14:54:30Z</time>
      </trkpt>
      <trkpt lat="50.0394" lon="1.41422">
        <ele>58.6</ele>
        <time>2020-06-18T14:54:31Z</time>
      </trkpt>
      <trkpt lat="50.03947" lon="1.41432">
        <ele>58</ele>
        <time>2020-06-18T14:54:32Z</time>
      </trkpt>
      <trkpt lat="50.03954" lon="1.41442">
        <ele>57.4</ele>
        <time>2020-06-18T14:54:33Z</time>
      </trkpt>
      <trkpt lat="50.0396" lon="1.41452">
        <ele>56.9</ele>
        <time>2020-06-18T14:54:34Z</time>
      </trkpt>
      <trkpt lat="50.03966" lon="1.41463">
        <ele>56.3</ele>
        <time>2020-06-18T14:54:35Z</time>
      </trkpt>
      <trkpt lat="50.03973" lon="1.41474">
        <ele>55.7</ele>
        <time>2020-06-18T14:54:36Z</time>
      </trkpt>
      <trkpt lat="50.03979" lon="1.41485">
        <ele>55.1</ele>
        <time>2020-06-18T14:54:37Z</time>
      </trkpt>
      <trkpt lat="50.03986" lon="1.41496">
        <ele>54.4</ele>
        <time>2020-06-18T14:54:38Z</time>
      </trkpt>
      <trkpt lat="50.03993" lon="1.41507">
        <ele>53.7</ele>
        <time>2020-06-18T14:54:39Z</time>
      </trkpt>
      <trkpt lat="50.03999" lon="1.41518">
        <ele>53</ele>
        <time>2020-06-18T14:54:40Z</time>
      </trkpt>
      <trkpt lat="50.04006" lon="1.41529">
        <ele>52.4</ele>
        <time>2020-06-18T14:54:41Z</time>
      </trkpt>
      <trkpt lat="50.04013" lon="1.4154">
        <ele>51.8</ele>
        <time>2020-06-18T14:54:42Z</time>
      </trkpt>
      <trkpt lat="50.04019" lon="1.41551">
        <ele>51.2</ele>
        <time>2020-06-18T14:54:43Z</time>
      </trkpt>
      <trkpt lat="50.04026" lon="1.41562">
        <ele>50.6</ele>
        <time>2020-06-18T14:54:44Z</time>
      </trkpt>
      <trkpt lat="50.04033" lon="1.41573">
        <ele>49.9</ele>
        <time>2020-06-18T14:54:45Z</time>
      </trkpt>
      <trkpt lat="50.0404" lon="1.41585">
        <ele>49.3</ele>
        <time>2020-06-18T14:54:46Z</time>
      </trkpt>
      <trkpt lat="50.04047" lon="1.41596">
        <ele>48.6</ele>
        <time>2020-06-18T14:54:47Z</time>
      </trkpt>
      <trkpt lat="50.04053" lon="1.41608">
        <ele>48</ele>
        <time>2020-06-18T14:54:48Z</time>
      </trkpt>
      <trkpt lat="50.04061" lon="1.41619">
        <ele>47.3</ele>
        <time>2020-06-18T14:54:49Z</time>
      </trkpt>
      <trkpt lat="50.04068" lon="1.4163">
        <ele>46.6</ele>
        <time>2020-06-18T14:54:50Z</time>
      </trkpt>
      <trkpt lat="50.04075" lon="1.41641">
        <ele>45.9</ele>
        <time>2020-06-18T14:54:51Z</time>
      </trkpt>
      <trkpt lat="50.04082" lon="1.41652">
        <ele>45.2</ele>
        <time>2020-06-18T14:54:52Z</time>
      </trkpt>
      <trkpt lat="50.04088" lon="1.41663">
        <ele>44.6</ele>
        <time>2020-06-18T14:54:53Z</time>
      </trkpt>
      <trkpt lat="50.04095" lon="1.41674">
        <ele>43.9</ele>
        <time>2020-06-18T14:54:54Z</time>
      </trkpt>
      <trkpt lat="50.04102" lon="1.41684">
        <ele>43.3</ele>
        <time>2020-06-18T14:54:55Z</time>
      </trkpt>
      <trkpt lat="50.04109" lon="1.41694">
        <ele>42.6</ele>
        <time>2020-06-18T14:54:56Z</time>
      </trkpt>
      <trkpt lat="50.04116" lon="1.41704">
        <ele>41.9</ele>
        <time>2020-06-18T14:54:57Z</time>
      </trkpt>
      <trkpt lat="50.04122" lon="1.41716">
        <ele>41.3</ele>
        <time>2020-06-18T14:54:58Z</time>
      </trkpt>
      <trkpt lat="50.04128" lon="1.41727">
        <ele>40.6</ele>
        <time>2020-06-18T14:54:59Z</time>
      </trkpt>
      <trkpt lat="50.04134" lon="1.41737">
        <ele>40</ele>
        <time>2020-06-18T14:55:00Z</time>
      </trkpt>
      <trkpt lat="50.0414" lon="1.41748">
        <ele>39.4</ele>
        <time>2020-06-18T14:55:01Z</time>
      </trkpt>
      <trkpt lat="50.04147" lon="1.41758">
        <ele>38.8</ele>
        <time>2020-06-18T14:55:02Z</time>
      </trkpt>
      <trkpt lat="50.04153" lon="1.41768">
        <ele>38.2</ele>
        <time>2020-06-18T14:55:03Z</time>
      </trkpt>
      <trkpt lat="50.0416" lon="1.41779">
        <ele>37.6</ele>
        <time>2020-06-18T14:55:04Z</time>
      </trkpt>
      <trkpt lat="50.04165" lon="1.41789">
        <ele>37</ele>
        <time>2020-06-18T14:55:05Z</time>
      </trkpt>
      <trkpt lat="50.04171" lon="1.41799">
        <ele>36.4</ele>
        <time>2020-06-18T14:55:06Z</time>
      </trkpt>
      <trkpt lat="50.04177" lon="1.41808">
        <ele>35.8</ele>
        <time>2020-06-18T14:55:07Z</time>
      </trkpt>
      <trkpt lat="50.04182" lon="1.41817">
        <ele>35.3</ele>
        <time>2020-06-18T14:55:08Z</time>
      </trkpt>
      <trkpt lat="50.04188" lon="1.41827">
        <ele>34.7</ele>
        <time>2020-06-18T14:55:09Z</time>
      </trkpt>
      <trkpt lat="50.04194" lon="1.41837">
        <ele>34.1</ele>
        <time>2020-06-18T14:55:10Z</time>
      </trkpt>
      <trkpt lat="50.042" lon="1.41846">
        <ele>33.5</ele>
        <time>2020-06-18T14:55:11Z</time>
      </trkpt>
      <trkpt lat="50.04206" lon="1.41855">
        <ele>33</ele>
        <time>2020-06-18T14:55:12Z</time>
      </trkpt>
      <trkpt lat="50.04211" lon="1.41863">
        <ele>32.4</ele>
        <time>2020-06-18T14:55:13Z</time>
      </trkpt>
      <trkpt lat="50.04217" lon="1.41872">
        <ele>32.4</ele>
        <time>2020-06-18T14:55:14Z</time>
      </trkpt>
      <trkpt lat="50.04223" lon="1.41881">
        <ele>32.3</ele>
        <time>2020-06-18T14:55:15Z</time>
      </trkpt>
      <trkpt lat="50.04229" lon="1.41889">
        <ele>31.4</ele>
        <time>2020-06-18T14:55:16Z</time>
      </trkpt>
      <trkpt lat="50.04236" lon="1.41896">
        <ele>30.7</ele>
        <time>2020-06-18T14:55:17Z</time>
      </trkpt>
      <trkpt lat="50.04242" lon="1.41903">
        <ele>30.1</ele>
        <time>2020-06-18T14:55:18Z</time>
      </trkpt>
      <trkpt lat="50.04249" lon="1.41911">
        <ele>29.5</ele>
        <time>2020-06-18T14:55:19Z</time>
      </trkpt>
      <trkpt lat="50.04256" lon="1.41917">
        <ele>28.8</ele>
        <time>2020-06-18T14:55:20Z</time>
      </trkpt>
      <trkpt lat="50.04263" lon="1.41923">
        <ele>27.7</ele>
        <time>2020-06-18T14:55:21Z</time>
      </trkpt>
      <trkpt lat="50.04269" lon="1.41929">
        <ele>27.3</ele>
        <time>2020-06-18T14:55:22Z</time>
      </trkpt>
      <trkpt lat="50.04275" lon="1.41934">
        <ele>26.9</ele>
        <time>2020-06-18T14:55:23Z</time>
      </trkpt>
      <trkpt lat="50.04281" lon="1.4194">
        <ele>26.6</ele>
        <time>2020-06-18T14:55:24Z</time>
      </trkpt>
      <trkpt lat="50.04287" lon="1.41945">
        <ele>26.2</ele>
        <time>2020-06-18T14:55:25Z</time>
      </trkpt>
      <trkpt lat="50.04292" lon="1.4195">
        <ele>25.9</ele>
        <time>2020-06-18T14:55:26Z</time>
      </trkpt>
      <trkpt lat="50.04298" lon="1.41954">
        <ele>25.6</ele>
        <time>2020-06-18T14:55:27Z</time>
      </trkpt>
      <trkpt lat="50.04303" lon="1.41957">
        <ele>25.4</ele>
        <time>2020-06-18T14:55:28Z</time>
      </trkpt>
      <trkpt lat="50.04307" lon="1.41961">
        <ele>25.1</ele>
        <time>2020-06-18T14:55:29Z</time>
      </trkpt>
      <trkpt lat="50.04311" lon="1.41969">
        <ele>24.8</ele>
        <time>2020-06-18T14:55:30Z</time>
      </trkpt>
      <trkpt lat="50.04316" lon="1.41972">
        <ele>24.6</ele>
        <time>2020-06-18T14:55:31Z</time>
      </trkpt>
      <trkpt lat="50.0432" lon="1.41975">
        <ele>24.4</ele>
        <time>2020-06-18T14:55:32Z</time>
      </trkpt>
      <trkpt lat="50.04323" lon="1.4198">
        <ele>24.3</ele>
        <time>2020-06-18T14:55:33Z</time>
      </trkpt>
      <trkpt lat="50.04326" lon="1.41983">
        <ele>24.2</ele>
        <time>2020-06-18T14:55:34Z</time>
      </trkpt>
      <trkpt lat="50.04328" lon="1.41987">
        <ele>24.2</ele>
        <time>2020-06-18T14:55:35Z</time>
      </trkpt>
      <trkpt lat="50.04331" lon="1.41992">
        <ele>23.6</ele>
        <time>2020-06-18T14:55:36Z</time>
      </trkpt>
      <trkpt lat="50.04332" lon="1.41999">
        <ele>23.4</ele>
        <time>2020-06-18T14:55:37Z</time>
      </trkpt>
      <trkpt lat="50.04335" lon="1.42006">
        <ele>23.3</ele>
        <time>2020-06-18T14:55:38Z</time>
      </trkpt>
      <trkpt lat="50.04337" lon="1.42013">
        <ele>22.6</ele>
        <time>2020-06-18T14:55:39Z</time>
      </trkpt>
      <trkpt lat="50.04339" lon="1.42021">
        <ele>22.3</ele>
        <time>2020-06-18T14:55:40Z</time>
      </trkpt>
      <trkpt lat="50.04341" lon="1.42029">
        <ele>21.9</ele>
        <time>2020-06-18T14:55:41Z</time>
      </trkpt>
      <trkpt lat="50.04343" lon="1.42038">
        <ele>21.5</ele>
        <time>2020-06-18T14:55:42Z</time>
      </trkpt>
      <trkpt lat="50.04345" lon="1.42046">
        <ele>21.1</ele>
        <time>2020-06-18T14:55:43Z</time>
      </trkpt>
      <trkpt lat="50.04347" lon="1.42056">
        <ele>20.7</ele>
        <time>2020-06-18T14:55:44Z</time>
      </trkpt>
      <trkpt lat="50.0435" lon="1.42066">
        <ele>20.3</ele>
        <time>2020-06-18T14:55:45Z</time>
      </trkpt>
      <trkpt lat="50.04353" lon="1.42077">
        <ele>20</ele>
        <time>2020-06-18T14:55:46Z</time>
      </trkpt>
      <trkpt lat="50.04356" lon="1.42088">
        <ele>19.7</ele>
        <time>2020-06-18T14:55:47Z</time>
      </trkpt>
      <trkpt lat="50.04359" lon="1.42099">
        <ele>19.2</ele>
        <time>2020-06-18T14:55:48Z</time>
      </trkpt>
      <trkpt lat="50.04363" lon="1.42111">
        <ele>18.8</ele>
        <time>2020-06-18T14:55:49Z</time>
      </trkpt>
      <trkpt lat="50.04366" lon="1.42123">
        <ele>18.3</ele>
        <time>2020-06-18T14:55:50Z</time>
      </trkpt>
      <trkpt lat="50.0437" lon="1.42135">
        <ele>17.9</ele>
        <time>2020-06-18T14:55:51Z</time>
      </trkpt>
      <trkpt lat="50.04374" lon="1.42146">
        <ele>17.5</ele>
        <time>2020-06-18T14:55:52Z</time>
      </trkpt>
      <trkpt lat="50.04378" lon="1.42158">
        <ele>17.2</ele>
        <time>2020-06-18T14:55:53Z</time>
      </trkpt>
      <trkpt lat="50.04383" lon="1.42169">
        <ele>16.8</ele>
        <time>2020-06-18T14:55:54Z</time>
      </trkpt>
      <trkpt lat="50.04387" lon="1.42181">
        <ele>16.4</ele>
        <time>2020-06-18T14:55:55Z</time>
      </trkpt>
      <trkpt lat="50.04392" lon="1.42193">
        <ele>16</ele>
        <time>2020-06-18T14:55:56Z</time>
      </trkpt>
      <trkpt lat="50.04396" lon="1.42205">
        <ele>15.5</ele>
        <time>2020-06-18T14:55:57Z</time>
      </trkpt>
      <trkpt lat="50.04401" lon="1.42217">
        <ele>15.1</ele>
        <time>2020-06-18T14:55:58Z</time>
      </trkpt>
      <trkpt lat="50.04406" lon="1.42229">
        <ele>14.7</ele>
        <time>2020-06-18T14:55:59Z</time>
      </trkpt>
      <trkpt lat="50.04411" lon="1.42241">
        <ele>14.4</ele>
        <time>2020-06-18T14:56:00Z</time>
      </trkpt>
      <trkpt lat="50.04416" lon="1.42254">
        <ele>14</ele>
        <time>2020-06-18T14:56:01Z</time>
      </trkpt>
      <trkpt lat="50.04421" lon="1.42265">
        <ele>13.6</ele>
        <time>2020-06-18T14:56:02Z</time>
      </trkpt>
      <trkpt lat="50.04426" lon="1.42277">
        <ele>13.3</ele>
        <time>2020-06-18T14:56:03Z</time>
      </trkpt>
      <trkpt lat="50.04431" lon="1.42288">
        <ele>12.9</ele>
        <time>2020-06-18T14:56:04Z</time>
      </trkpt>
      <trkpt lat="50.04435" lon="1.42299">
        <ele>12.7</ele>
        <time>2020-06-18T14:56:05Z</time>
      </trkpt>
      <trkpt lat="50.0444" lon="1.42309">
        <ele>12.5</ele>
        <time>2020-06-18T14:56:06Z</time>
      </trkpt>
      <trkpt lat="50.04445" lon="1.4232">
        <ele>12.3</ele>
        <time>2020-06-18T14:56:07Z</time>
      </trkpt>
      <trkpt lat="50.0445" lon="1.42331">
        <ele>12.1</ele>
        <time>2020-06-18T14:56:08Z</time>
      </trkpt>
      <trkpt lat="50.04454" lon="1.42342">
        <ele>11.8</ele>
        <time>2020-06-18T14:56:09Z</time>
      </trkpt>
      <trkpt lat="50.04459" lon="1.4235">
        <ele>11.8</ele>
        <time>2020-06-18T14:56:10Z</time>
      </trkpt>
      <trkpt lat="50.04465" lon="1.42356">
        <ele>11.7</ele>
        <time>2020-06-18T14:56:11Z</time>
      </trkpt>
      <trkpt lat="50.04472" lon="1.4236">
        <ele>11.7</ele>
        <time>2020-06-18T14:56:12Z</time>
      </trkpt>
      <trkpt lat="50.04479" lon="1.42363">
        <ele>11.6</ele>
        <time>2020-06-18T14:56:13Z</time>
      </trkpt>
      <trkpt lat="50.04486" lon="1.42366">
        <ele>11.5</ele>
        <time>2020-06-18T14:56:14Z</time>
      </trkpt>
      <trkpt lat="50.04494" lon="1.42368">
        <ele>11.5</ele>
        <time>2020-06-18T14:56:15Z</time>
      </trkpt>
      <trkpt lat="50.04501" lon="1.42371">
        <ele>11.5</ele>
        <time>2020-06-18T14:56:16Z</time>
      </trkpt>
      <trkpt lat="50.04509" lon="1.42373">
        <ele>11.4</ele>
        <time>2020-06-18T14:56:17Z</time>
      </trkpt>
      <trkpt lat="50.04516" lon="1.42375">
        <ele>11.3</ele>
        <time>2020-06-18T14:56:18Z</time>
      </trkpt>
      <trkpt lat="50.04524" lon="1.42378">
        <ele>11.3</ele>
        <time>2020-06-18T14:56:19Z</time>
      </trkpt>
      <trkpt lat="50.04532" lon="1.42379">
        <ele>11.2</ele>
        <time>2020-06-18T14:56:20Z</time>
      </trkpt>
      <trkpt lat="50.0454" lon="1.4238">
        <ele>11.1</ele>
        <time>2020-06-18T14:56:21Z</time>
      </trkpt>
      <trkpt lat="50.04548" lon="1.42382">
        <ele>10.9</ele>
        <time>2020-06-18T14:56:22Z</time>
      </trkpt>
      <trkpt lat="50.04556" lon="1.42384">
        <ele>10.8</ele>
        <time>2020-06-18T14:56:23Z</time>
      </trkpt>
      <trkpt lat="50.04564" lon="1.42385">
        <ele>10.7</ele>
        <time>2020-06-18T14:56:24Z</time>
      </trkpt>
      <trkpt lat="50.04572" lon="1.42387">
        <ele>10.6</ele>
        <time>2020-06-18T14:56:25Z</time>
      </trkpt>
      <trkpt lat="50.0458" lon="1.42388">
        <ele>10.6</ele>
        <time>2020-06-18T14:56:26Z</time>
      </trkpt>
      <trkpt lat="50.04587" lon="1.42389">
        <ele>10.5</ele>
        <time>2020-06-18T14:56:27Z</time>
      </trkpt>
      <trkpt lat="50.04595" lon="1.4239">
        <ele>10.5</ele>
        <time>2020-06-18T14:56:28Z</time>
      </trkpt>
      <trkpt lat="50.04602" lon="1.42391">
        <ele>10.4</ele>
        <time>2020-06-18T14:56:29Z</time>
      </trkpt>
      <trkpt lat="50.0461" lon="1.42392">
        <ele>10.3</ele>
        <time>2020-06-18T14:56:30Z</time>
      </trkpt>
      <trkpt lat="50.04617" lon="1.42392">
        <ele>10.3</ele>
        <time>2020-06-18T14:56:31Z</time>
      </trkpt>
      <trkpt lat="50.04623" lon="1.42392">
        <ele>10.3</ele>
        <time>2020-06-18T14:56:32Z</time>
      </trkpt>
      <trkpt lat="50.0463" lon="1.42393">
        <ele>10.3</ele>
        <time>2020-06-18T14:56:33Z</time>
      </trkpt>
      <trkpt lat="50.04637" lon="1.42394">
        <ele>10.3</ele>
        <time>2020-06-18T14:56:34Z</time>
      </trkpt>
      <trkpt lat="50.04643" lon="1.42396">
        <ele>10.3</ele>
        <time>2020-06-18T14:56:35Z</time>
      </trkpt>
      <trkpt lat="50.04649" lon="1.42397">
        <ele>10.3</ele>
        <time>2020-06-18T14:56:36Z</time>
      </trkpt>
      <trkpt lat="50.04653" lon="1.424">
        <ele>10.3</ele>
        <time>2020-06-18T14:56:37Z</time>
      </trkpt>
      <trkpt lat="50.04658" lon="1.424">
        <ele>10.3</ele>
        <time>2020-06-18T14:56:38Z</time>
      </trkpt>
      <trkpt lat="50.04661" lon="1.42402">
        <ele>10.4</ele>
        <time>2020-06-18T14:56:39Z</time>
      </trkpt>
      <trkpt lat="50.04664" lon="1.42402">
        <ele>10.4</ele>
        <time>2020-06-18T14:56:40Z</time>
      </trkpt>
      <trkpt lat="50.04668" lon="1.42403">
        <ele>10.4</ele>
        <time>2020-06-18T14:56:41Z</time>
      </trkpt>
      <trkpt lat="50.04672" lon="1.42403">
        <ele>10.4</ele>
        <time>2020-06-18T14:56:42Z</time>
      </trkpt>
      <trkpt lat="50.04676" lon="1.42404">
        <ele>10.4</ele>
        <time>2020-06-18T14:56:43Z</time>
      </trkpt>
      <trkpt lat="50.0468" lon="1.42406">
        <ele>10.3</ele>
        <time>2020-06-18T14:56:44Z</time>
      </trkpt>
      <trkpt lat="50.04684" lon="1.42407">
        <ele>10.3</ele>
        <time>2020-06-18T14:56:45Z</time>
      </trkpt>
      <trkpt lat="50.04689" lon="1.42409">
        <ele>10.2</ele>
        <time>2020-06-18T14:56:46Z</time>
      </trkpt>
      <trkpt lat="50.04694" lon="1.42408">
        <ele>10.1</ele>
        <time>2020-06-18T14:56:47Z</time>
      </trkpt>
      <trkpt lat="50.047" lon="1.42409">
        <ele>10.2</ele>
        <time>2020-06-18T14:56:48Z</time>
      </trkpt>
      <trkpt lat="50.04707" lon="1.42411">
        <ele>10</ele>
        <time>2020-06-18T14:56:49Z</time>
      </trkpt>
      <trkpt lat="50.04713" lon="1.42413">
        <ele>9.9</ele>
        <time>2020-06-18T14:56:50Z</time>
      </trkpt>
      <trkpt lat="50.0472" lon="1.42417">
        <ele>9.7</ele>
        <time>2020-06-18T14:56:51Z</time>
      </trkpt>
      <trkpt lat="50.04727" lon="1.4242">
        <ele>9.5</ele>
        <time>2020-06-18T14:56:52Z</time>
      </trkpt>
      <trkpt lat="50.04734" lon="1.42422">
        <ele>9.3</ele>
        <time>2020-06-18T14:56:53Z</time>
      </trkpt>
      <trkpt lat="50.04741" lon="1.42422">
        <ele>9.1</ele>
        <time>2020-06-18T14:56:54Z</time>
      </trkpt>
      <trkpt lat="50.04748" lon="1.42423">
        <ele>8.9</ele>
        <time>2020-06-18T14:56:55Z</time>
      </trkpt>
      <trkpt lat="50.04755" lon="1.42422">
        <ele>8.7</ele>
        <time>2020-06-18T14:56:56Z</time>
      </trkpt>
      <trkpt lat="50.04762" lon="1.42422">
        <ele>8.4</ele>
        <time>2020-06-18T14:56:57Z</time>
      </trkpt>
      <trkpt lat="50.04769" lon="1.42423">
        <ele>8.2</ele>
        <time>2020-06-18T14:56:58Z</time>
      </trkpt>
      <trkpt lat="50.04776" lon="1.42427">
        <ele>7.9</ele>
        <time>2020-06-18T14:56:59Z</time>
      </trkpt>
      <trkpt lat="50.04783" lon="1.42428">
        <ele>7.8</ele>
        <time>2020-06-18T14:57:00Z</time>
      </trkpt>
      <trkpt lat="50.0479" lon="1.4243">
        <ele>7.6</ele>
        <time>2020-06-18T14:57:01Z</time>
      </trkpt>
      <trkpt lat="50.04796" lon="1.42431">
        <ele>7.5</ele>
        <time>2020-06-18T14:57:02Z</time>
      </trkpt>
      <trkpt lat="50.04802" lon="1.42433">
        <ele>7.3</ele>
        <time>2020-06-18T14:57:03Z</time>
      </trkpt>
      <trkpt lat="50.04808" lon="1.42436">
        <ele>7.3</ele>
        <time>2020-06-18T14:57:04Z</time>
      </trkpt>
      <trkpt lat="50.04814" lon="1.42439">
        <ele>7.2</ele>
        <time>2020-06-18T14:57:05Z</time>
      </trkpt>
      <trkpt lat="50.04819" lon="1.42442">
        <ele>7.2</ele>
        <time>2020-06-18T14:57:06Z</time>
      </trkpt>
      <trkpt lat="50.04824" lon="1.42445">
        <ele>7.1</ele>
        <time>2020-06-18T14:57:07Z</time>
      </trkpt>
      <trkpt lat="50.04828" lon="1.42443">
        <ele>7</ele>
        <time>2020-06-18T14:57:08Z</time>
      </trkpt>
      <trkpt lat="50.04833" lon="1.42443">
        <ele>7</ele>
        <time>2020-06-18T14:57:09Z</time>
      </trkpt>
      <trkpt lat="50.04839" lon="1.42443">
        <ele>7</ele>
        <time>2020-06-18T14:57:10Z</time>
      </trkpt>
      <trkpt lat="50.04844" lon="1.42444">
        <ele>6.9</ele>
        <time>2020-06-18T14:57:11Z</time>
      </trkpt>
      <trkpt lat="50.04849" lon="1.42445">
        <ele>6.9</ele>
        <time>2020-06-18T14:57:12Z</time>
      </trkpt>
      <trkpt lat="50.04854" lon="1.42447">
        <ele>6.9</ele>
        <time>2020-06-18T14:57:13Z</time>
      </trkpt>
      <trkpt lat="50.04858" lon="1.42448">
        <ele>6.9</ele>
        <time>2020-06-18T14:57:14Z</time>
      </trkpt>
      <trkpt lat="50.04862" lon="1.4245">
        <ele>6.8</ele>
        <time>2020-06-18T14:57:15Z</time>
      </trkpt>
      <trkpt lat="50.04867" lon="1.42453">
        <ele>6.8</ele>
        <time>2020-06-18T14:57:16Z</time>
      </trkpt>
      <trkpt lat="50.04873" lon="1.42455">
        <ele>6.8</ele>
        <time>2020-06-18T14:57:17Z</time>
      </trkpt>
      <trkpt lat="50.04879" lon="1.42454">
        <ele>6.8</ele>
        <time>2020-06-18T14:57:18Z</time>
      </trkpt>
      <trkpt lat="50.04885" lon="1.42455">
        <ele>6.7</ele>
        <time>2020-06-18T14:57:19Z</time>
      </trkpt>
      <trkpt lat="50.04891" lon="1.42454">
        <ele>6.7</ele>
        <time>2020-06-18T14:57:20Z</time>
      </trkpt>
      <trkpt lat="50.04897" lon="1.42455">
        <ele>6.6</ele>
        <time>2020-06-18T14:57:21Z</time>
      </trkpt>
      <trkpt lat="50.04904" lon="1.42454">
        <ele>6.6</ele>
        <time>2020-06-18T14:57:22Z</time>
      </trkpt>
      <trkpt lat="50.04911" lon="1.42455">
        <ele>6.5</ele>
        <time>2020-06-18T14:57:23Z</time>
      </trkpt>
      <trkpt lat="50.04918" lon="1.42455">
        <ele>6.4</ele>
        <time>2020-06-18T14:57:24Z</time>
      </trkpt>
      <trkpt lat="50.04924" lon="1.42455">
        <ele>6.4</ele>
        <time>2020-06-18T14:57:25Z</time>
      </trkpt>
      <trkpt lat="50.04931" lon="1.42454">
        <ele>6.3</ele>
        <time>2020-06-18T14:57:26Z</time>
      </trkpt>
      <trkpt lat="50.04937" lon="1.42453">
        <ele>6.3</ele>
        <time>2020-06-18T14:57:27Z</time>
      </trkpt>
      <trkpt lat="50.04943" lon="1.4245">
        <ele>6.3</ele>
        <time>2020-06-18T14:57:28Z</time>
      </trkpt>
      <trkpt lat="50.04949" lon="1.42448">
        <ele>6.3</ele>
        <time>2020-06-18T14:57:29Z</time>
      </trkpt>
      <trkpt lat="50.04958" lon="1.42455">
        <ele>6.3</ele>
        <time>2020-06-18T14:57:30Z</time>
      </trkpt>
      <trkpt lat="50.04964" lon="1.42452">
        <ele>6.4</ele>
        <time>2020-06-18T14:57:31Z</time>
      </trkpt>
      <trkpt lat="50.04968" lon="1.42444">
        <ele>6.4</ele>
        <time>2020-06-18T14:57:32Z</time>
      </trkpt>
      <trkpt lat="50.04973" lon="1.42437">
        <ele>6.4</ele>
        <time>2020-06-18T14:57:33Z</time>
      </trkpt>
      <trkpt lat="50.04978" lon="1.42431">
        <ele>6.4</ele>
        <time>2020-06-18T14:57:34Z</time>
      </trkpt>
      <trkpt lat="50.04984" lon="1.42427">
        <ele>6.4</ele>
        <time>2020-06-18T14:57:35Z</time>
      </trkpt>
      <trkpt lat="50.04989" lon="1.42419">
        <ele>6.4</ele>
        <time>2020-06-18T14:57:36Z</time>
      </trkpt>
      <trkpt lat="50.04995" lon="1.42413">
        <ele>6.4</ele>
        <time>2020-06-18T14:57:37Z</time>
      </trkpt>
      <trkpt lat="50.05001" lon="1.42407">
        <ele>6.4</ele>
        <time>2020-06-18T14:57:38Z</time>
      </trkpt>
      <trkpt lat="50.05006" lon="1.424">
        <ele>6.4</ele>
        <time>2020-06-18T14:57:39Z</time>
      </trkpt>
      <trkpt lat="50.05011" lon="1.42392">
        <ele>6.4</ele>
        <time>2020-06-18T14:57:40Z</time>
      </trkpt>
      <trkpt lat="50.05017" lon="1.42386">
        <ele>6.4</ele>
        <time>2020-06-18T14:57:41Z</time>
      </trkpt>
      <trkpt lat="50.05021" lon="1.42379">
        <ele>6.4</ele>
        <time>2020-06-18T14:57:42Z</time>
      </trkpt>
      <trkpt lat="50.05026" lon="1.42372">
        <ele>6.4</ele>
        <time>2020-06-18T14:57:43Z</time>
      </trkpt>
      <trkpt lat="50.05032" lon="1.42368">
        <ele>6.4</ele>
        <time>2020-06-18T14:57:44Z</time>
      </trkpt>
      <trkpt lat="50.05038" lon="1.42364">
        <ele>6.4</ele>
        <time>2020-06-18T14:57:45Z</time>
      </trkpt>
      <trkpt lat="50.05044" lon="1.42358">
        <ele>6.5</ele>
        <time>2020-06-18T14:57:46Z</time>
      </trkpt>
      <trkpt lat="50.05049" lon="1.42353">
        <ele>6.5</ele>
        <time>2020-06-18T14:57:47Z</time>
      </trkpt>
      <trkpt lat="50.05054" lon="1.42347">
        <ele>6.5</ele>
        <time>2020-06-18T14:57:48Z</time>
      </trkpt>
      <trkpt lat="50.0506" lon="1.42342">
        <ele>6.6</ele>
        <time>2020-06-18T14:57:49Z</time>
      </trkpt>
      <trkpt lat="50.05065" lon="1.42338">
        <ele>6.6</ele>
        <time>2020-06-18T14:57:50Z</time>
      </trkpt>
      <trkpt lat="50.0507" lon="1.42333">
        <ele>6.7</ele>
        <time>2020-06-18T14:57:51Z</time>
      </trkpt>
      <trkpt lat="50.05075" lon="1.42329">
        <ele>6.7</ele>
        <time>2020-06-18T14:57:52Z</time>
      </trkpt>
      <trkpt lat="50.05079" lon="1.42323">
        <ele>6.6</ele>
        <time>2020-06-18T14:57:53Z</time>
      </trkpt>
      <trkpt lat="50.05084" lon="1.42316">
        <ele>6.6</ele>
        <time>2020-06-18T14:57:54Z</time>
      </trkpt>
      <trkpt lat="50.05088" lon="1.42311">
        <ele>6.6</ele>
        <time>2020-06-18T14:57:55Z</time>
      </trkpt>
      <trkpt lat="50.05092" lon="1.42305">
        <ele>6.6</ele>
        <time>2020-06-18T14:57:56Z</time>
      </trkpt>
      <trkpt lat="50.05097" lon="1.42301">
        <ele>6.6</ele>
        <time>2020-06-18T14:57:57Z</time>
      </trkpt>
      <trkpt lat="50.05102" lon="1.42295">
        <ele>6.6</ele>
        <time>2020-06-18T14:57:58Z</time>
      </trkpt>
      <trkpt lat="50.05107" lon="1.4229">
        <ele>6.6</ele>
        <time>2020-06-18T14:57:59Z</time>
      </trkpt>
      <trkpt lat="50.05111" lon="1.42285">
        <ele>6.6</ele>
        <time>2020-06-18T14:58:00Z</time>
      </trkpt>
      <trkpt lat="50.05115" lon="1.42279">
        <ele>6.5</ele>
        <time>2020-06-18T14:58:01Z</time>
      </trkpt>
      <trkpt lat="50.05118" lon="1.42274">
        <ele>6.5</ele>
        <time>2020-06-18T14:58:02Z</time>
      </trkpt>
      <trkpt lat="50.05122" lon="1.42268">
        <ele>6.5</ele>
        <time>2020-06-18T14:58:03Z</time>
      </trkpt>
      <trkpt lat="50.05125" lon="1.42261">
        <ele>6.5</ele>
        <time>2020-06-18T14:58:04Z</time>
      </trkpt>
      <trkpt lat="50.05129" lon="1.42256">
        <ele>6.5</ele>
        <time>2020-06-18T14:58:05Z</time>
      </trkpt>
      <trkpt lat="50.05134" lon="1.4225">
        <ele>6.5</ele>
        <time>2020-06-18T14:58:06Z</time>
      </trkpt>
      <trkpt lat="50.05138" lon="1.42245">
        <ele>6.5</ele>
        <time>2020-06-18T14:58:07Z</time>
      </trkpt>
      <trkpt lat="50.05144" lon="1.42241">
        <ele>6.5</ele>
        <time>2020-06-18T14:58:08Z</time>
      </trkpt>
      <trkpt lat="50.05149" lon="1.42237">
        <ele>6.5</ele>
        <time>2020-06-18T14:58:09Z</time>
      </trkpt>
      <trkpt lat="50.05154" lon="1.42234">
        <ele>6.5</ele>
        <time>2020-06-18T14:58:10Z</time>
      </trkpt>
      <trkpt lat="50.05159" lon="1.42229">
        <ele>6.5</ele>
        <time>2020-06-18T14:58:11Z</time>
      </trkpt>
      <trkpt lat="50.05163" lon="1.42223">
        <ele>6.6</ele>
        <time>2020-06-18T14:58:12Z</time>
      </trkpt>
      <trkpt lat="50.05167" lon="1.42215">
        <ele>6.6</ele>
        <time>2020-06-18T14:58:13Z</time>
      </trkpt>
      <trkpt lat="50.05171" lon="1.42208">
        <ele>6.7</ele>
        <time>2020-06-18T14:58:14Z</time>
      </trkpt>
      <trkpt lat="50.05174" lon="1.42201">
        <ele>6.8</ele>
        <time>2020-06-18T14:58:15Z</time>
      </trkpt>
      <trkpt lat="50.05178" lon="1.42195">
        <ele>6.8</ele>
        <time>2020-06-18T14:58:16Z</time>
      </trkpt>
      <trkpt lat="50.05181" lon="1.42188">
        <ele>6.9</ele>
        <time>2020-06-18T14:58:17Z</time>
      </trkpt>
      <trkpt lat="50.05186" lon="1.42183">
        <ele>6.9</ele>
        <time>2020-06-18T14:58:18Z</time>
      </trkpt>
      <trkpt lat="50.05189" lon="1.42178">
        <ele>7</ele>
        <time>2020-06-18T14:58:19Z</time>
      </trkpt>
      <trkpt lat="50.05193" lon="1.42173">
        <ele>7.1</ele>
        <time>2020-06-18T14:58:20Z</time>
      </trkpt>
      <trkpt lat="50.05196" lon="1.42168">
        <ele>7.2</ele>
        <time>2020-06-18T14:58:21Z</time>
      </trkpt>
      <trkpt lat="50.05201" lon="1.42165">
        <ele>7.3</ele>
        <time>2020-06-18T14:58:22Z</time>
      </trkpt>
      <trkpt lat="50.05205" lon="1.42162">
        <ele>7.4</ele>
        <time>2020-06-18T14:58:23Z</time>
      </trkpt>
      <trkpt lat="50.05208" lon="1.42158">
        <ele>7.6</ele>
        <time>2020-06-18T14:58:24Z</time>
      </trkpt>
      <trkpt lat="50.05212" lon="1.42154">
        <ele>7.7</ele>
        <time>2020-06-18T14:58:25Z</time>
      </trkpt>
      <trkpt lat="50.05216" lon="1.42153">
        <ele>7.9</ele>
        <time>2020-06-18T14:58:26Z</time>
      </trkpt>
      <trkpt lat="50.05221" lon="1.42153">
        <ele>8</ele>
        <time>2020-06-18T14:58:27Z</time>
      </trkpt>
      <trkpt lat="50.05225" lon="1.42154">
        <ele>8.1</ele>
        <time>2020-06-18T14:58:28Z</time>
      </trkpt>
      <trkpt lat="50.0523" lon="1.42155">
        <ele>8.3</ele>
        <time>2020-06-18T14:58:29Z</time>
      </trkpt>
      <trkpt lat="50.05234" lon="1.42154">
        <ele>8.4</ele>
        <time>2020-06-18T14:58:30Z</time>
      </trkpt>
      <trkpt lat="50.05238" lon="1.42153">
        <ele>8.5</ele>
        <time>2020-06-18T14:58:31Z</time>
      </trkpt>
      <trkpt lat="50.05241" lon="1.42152">
        <ele>8.6</ele>
        <time>2020-06-18T14:58:32Z</time>
      </trkpt>
      <trkpt lat="50.05244" lon="1.42153">
        <ele>8.7</ele>
        <time>2020-06-18T14:58:33Z</time>
      </trkpt>
      <trkpt lat="50.05248" lon="1.42155">
        <ele>8.8</ele>
        <time>2020-06-18T14:58:34Z</time>
      </trkpt>
      <trkpt lat="50.05251" lon="1.42156">
        <ele>9</ele>
        <time>2020-06-18T14:58:35Z</time>
      </trkpt>
      <trkpt lat="50.05255" lon="1.42158">
        <ele>9.1</ele>
        <time>2020-06-18T14:58:36Z</time>
      </trkpt>
      <trkpt lat="50.05258" lon="1.4216">
        <ele>9.2</ele>
        <time>2020-06-18T14:58:37Z</time>
      </trkpt>
      <trkpt lat="50.05262" lon="1.42162">
        <ele>9.3</ele>
        <time>2020-06-18T14:58:38Z</time>
      </trkpt>
      <trkpt lat="50.05265" lon="1.42165">
        <ele>9.4</ele>
        <time>2020-06-18T14:58:39Z</time>
      </trkpt>
      <trkpt lat="50.0527" lon="1.42166">
        <ele>9.6</ele>
        <time>2020-06-18T14:58:40Z</time>
      </trkpt>
      <trkpt lat="50.05274" lon="1.42173">
        <ele>9.8</ele>
        <time>2020-06-18T14:58:41Z</time>
      </trkpt>
      <trkpt lat="50.05278" lon="1.42177">
        <ele>9.9</ele>
        <time>2020-06-18T14:58:42Z</time>
      </trkpt>
      <trkpt lat="50.05281" lon="1.42181">
        <ele>10</ele>
        <time>2020-06-18T14:58:43Z</time>
      </trkpt>
      <trkpt lat="50.05285" lon="1.42183">
        <ele>10.1</ele>
        <time>2020-06-18T14:58:44Z</time>
      </trkpt>
      <trkpt lat="50.05289" lon="1.42183">
        <ele>10.2</ele>
        <time>2020-06-18T14:58:45Z</time>
      </trkpt>
      <trkpt lat="50.0529" lon="1.42183">
        <ele>10.2</ele>
        <time>2020-06-18T14:58:46Z</time>
      </trkpt>
      <trkpt lat="50.05295" lon="1.42185">
        <ele>10.2</ele>
        <time>2020-06-18T14:58:47Z</time>
      </trkpt>
      <trkpt lat="50.053" lon="1.42186">
        <ele>10.2</ele>
        <time>2020-06-18T14:58:48Z</time>
      </trkpt>
      <trkpt lat="50.05304" lon="1.42187">
        <ele>10.2</ele>
        <time>2020-06-18T14:58:49Z</time>
      </trkpt>
      <trkpt lat="50.0531" lon="1.42189">
        <ele>10.2</ele>
        <time>2020-06-18T14:58:50Z</time>
      </trkpt>
      <trkpt lat="50.05315" lon="1.42191">
        <ele>10.1</ele>
        <time>2020-06-18T14:58:51Z</time>
      </trkpt>
      <trkpt lat="50.0532" lon="1.42194">
        <ele>10.1</ele>
        <time>2020-06-18T14:58:52Z</time>
      </trkpt>
      <trkpt lat="50.05322" lon="1.42194">
        <ele>10</ele>
        <time>2020-06-18T14:58:53Z</time>
      </trkpt>
      <trkpt lat="50.05326" lon="1.42196">
        <ele>9.9</ele>
        <time>2020-06-18T14:58:54Z</time>
      </trkpt>
      <trkpt lat="50.05331" lon="1.42198">
        <ele>9.8</ele>
        <time>2020-06-18T14:58:55Z</time>
      </trkpt>
      <trkpt lat="50.05337" lon="1.42202">
        <ele>9.6</ele>
        <time>2020-06-18T14:58:56Z</time>
      </trkpt>
      <trkpt lat="50.05344" lon="1.42205">
        <ele>9.4</ele>
        <time>2020-06-18T14:58:57Z</time>
      </trkpt>
      <trkpt lat="50.0535" lon="1.42209">
        <ele>9.1</ele>
        <time>2020-06-18T14:58:58Z</time>
      </trkpt>
      <trkpt lat="50.05357" lon="1.42213">
        <ele>8.8</ele>
        <time>2020-06-18T14:58:59Z</time>
      </trkpt>
      <trkpt lat="50.05363" lon="1.42216">
        <ele>8.6</ele>
        <time>2020-06-18T14:59:00Z</time>
      </trkpt>
      <trkpt lat="50.05369" lon="1.42219">
        <ele>8.3</ele>
        <time>2020-06-18T14:59:01Z</time>
      </trkpt>
      <trkpt lat="50.05374" lon="1.42221">
        <ele>8.1</ele>
        <time>2020-06-18T14:59:02Z</time>
      </trkpt>
      <trkpt lat="50.05377" lon="1.42224">
        <ele>7.9</ele>
        <time>2020-06-18T14:59:03Z</time>
      </trkpt>
      <trkpt lat="50.05381" lon="1.42226">
        <ele>7.7</ele>
        <time>2020-06-18T14:59:04Z</time>
      </trkpt>
      <trkpt lat="50.05384" lon="1.42228">
        <ele>7.6</ele>
        <time>2020-06-18T14:59:05Z</time>
      </trkpt>
      <trkpt lat="50.05388" lon="1.42229">
        <ele>7.4</ele>
        <time>2020-06-18T14:59:06Z</time>
      </trkpt>
      <trkpt lat="50.05391" lon="1.42232">
        <ele>7.3</ele>
        <time>2020-06-18T14:59:07Z</time>
      </trkpt>
      <trkpt lat="50.05392" lon="1.42233">
        <ele>7.3</ele>
        <time>2020-06-18T14:59:08Z</time>
      </trkpt>
      <trkpt lat="50.05394" lon="1.42233">
        <ele>7.2</ele>
        <time>2020-06-18T14:59:09Z</time>
      </trkpt>
      <trkpt lat="50.05395" lon="1.42233">
        <ele>7.1</ele>
        <time>2020-06-18T14:59:10Z</time>
      </trkpt>
      <trkpt lat="50.05396" lon="1.42234">
        <ele>7.1</ele>
        <time>2020-06-18T14:59:11Z</time>
      </trkpt>
      <trkpt lat="50.05398" lon="1.42237">
        <ele>7</ele>
        <time>2020-06-18T14:59:12Z</time>
      </trkpt>
      <trkpt lat="50.05399" lon="1.42238">
        <ele>7</ele>
        <time>2020-06-18T14:59:13Z</time>
      </trkpt>
      <trkpt lat="50.054" lon="1.42239">
        <ele>6.9</ele>
        <time>2020-06-18T14:59:14Z</time>
      </trkpt>
      <trkpt lat="50.05404" lon="1.42241">
        <ele>6.8</ele>
        <time>2020-06-18T14:59:15Z</time>
      </trkpt>
      <trkpt lat="50.05407" lon="1.42243">
        <ele>6.7</ele>
        <time>2020-06-18T14:59:16Z</time>
      </trkpt>
      <trkpt lat="50.05411" lon="1.42251">
        <ele>6.5</ele>
        <time>2020-06-18T14:59:17Z</time>
      </trkpt>
      <trkpt lat="50.05416" lon="1.42259">
        <ele>6.3</ele>
        <time>2020-06-18T14:59:18Z</time>
      </trkpt>
      <trkpt lat="50.0542" lon="1.42263">
        <ele>6.3</ele>
        <time>2020-06-18T14:59:19Z</time>
      </trkpt>
      <trkpt lat="50.05424" lon="1.42266">
        <ele>6.2</ele>
        <time>2020-06-18T14:59:20Z</time>
      </trkpt>
      <trkpt lat="50.0543" lon="1.4227">
        <ele>6.1</ele>
        <time>2020-06-18T14:59:21Z</time>
      </trkpt>
      <trkpt lat="50.05435" lon="1.42273">
        <ele>6</ele>
        <time>2020-06-18T14:59:22Z</time>
      </trkpt>
      <trkpt lat="50.05439" lon="1.42276">
        <ele>5.9</ele>
        <time>2020-06-18T14:59:23Z</time>
      </trkpt>
      <trkpt lat="50.05444" lon="1.42278">
        <ele>5.9</ele>
        <time>2020-06-18T14:59:24Z</time>
      </trkpt>
      <trkpt lat="50.05448" lon="1.4228">
        <ele>5.8</ele>
        <time>2020-06-18T14:59:25Z</time>
      </trkpt>
      <trkpt lat="50.05454" lon="1.42284">
        <ele>5.8</ele>
        <time>2020-06-18T14:59:26Z</time>
      </trkpt>
      <trkpt lat="50.0546" lon="1.42288">
        <ele>5.7</ele>
        <time>2020-06-18T14:59:27Z</time>
      </trkpt>
      <trkpt lat="50.05464" lon="1.42292">
        <ele>5.7</ele>
        <time>2020-06-18T14:59:28Z</time>
      </trkpt>
      <trkpt lat="50.05469" lon="1.42296">
        <ele>5.7</ele>
        <time>2020-06-18T14:59:29Z</time>
      </trkpt>
      <trkpt lat="50.05473" lon="1.42299">
        <ele>5.7</ele>
        <time>2020-06-18T14:59:30Z</time>
      </trkpt>
      <trkpt lat="50.05477" lon="1.42304">
        <ele>5.7</ele>
        <time>2020-06-18T14:59:31Z</time>
      </trkpt>
      <trkpt lat="50.05483" lon="1.42308">
        <ele>5.8</ele>
        <time>2020-06-18T14:59:32Z</time>
      </trkpt>
      <trkpt lat="50.05487" lon="1.42312">
        <ele>5.8</ele>
        <time>2020-06-18T14:59:33Z</time>
      </trkpt>
      <trkpt lat="50.05492" lon="1.42316">
        <ele>5.8</ele>
        <time>2020-06-18T14:59:34Z</time>
      </trkpt>
      <trkpt lat="50.05497" lon="1.42321">
        <ele>5.9</ele>
        <time>2020-06-18T14:59:35Z</time>
      </trkpt>
      <trkpt lat="50.05502" lon="1.42324">
        <ele>5.9</ele>
        <time>2020-06-18T14:59:36Z</time>
      </trkpt>
      <trkpt lat="50.05506" lon="1.42328">
        <ele>6</ele>
        <time>2020-06-18T14:59:37Z</time>
      </trkpt>
      <trkpt lat="50.0551" lon="1.42334">
        <ele>6</ele>
        <time>2020-06-18T14:59:38Z</time>
      </trkpt>
      <trkpt lat="50.05513" lon="1.42337">
        <ele>6.1</ele>
        <time>2020-06-18T14:59:39Z</time>
      </trkpt>
      <trkpt lat="50.05518" lon="1.4234">
        <ele>6.1</ele>
        <time>2020-06-18T14:59:40Z</time>
      </trkpt>
      <trkpt lat="50.05522" lon="1.42344">
        <ele>6.2</ele>
        <time>2020-06-18T14:59:41Z</time>
      </trkpt>
      <trkpt lat="50.05525" lon="1.42346">
        <ele>6.2</ele>
        <time>2020-06-18T14:59:42Z</time>
      </trkpt>
      <trkpt lat="50.05528" lon="1.42352">
        <ele>6.2</ele>
        <time>2020-06-18T14:59:43Z</time>
      </trkpt>
      <trkpt lat="50.05534" lon="1.42355">
        <ele>6.3</ele>
        <time>2020-06-18T14:59:44Z</time>
      </trkpt>
      <trkpt lat="50.05539" lon="1.42359">
        <ele>6.3</ele>
        <time>2020-06-18T14:59:45Z</time>
      </trkpt>
      <trkpt lat="50.05544" lon="1.42364">
        <ele>6.4</ele>
        <time>2020-06-18T14:59:46Z</time>
      </trkpt>
      <trkpt lat="50.05548" lon="1.42369">
        <ele>6.4</ele>
        <time>2020-06-18T14:59:47Z</time>
      </trkpt>
      <trkpt lat="50.05553" lon="1.42374">
        <ele>6.4</ele>
        <time>2020-06-18T14:59:48Z</time>
      </trkpt>
      <trkpt lat="50.05558" lon="1.42378">
        <ele>6.5</ele>
        <time>2020-06-18T14:59:49Z</time>
      </trkpt>
      <trkpt lat="50.05563" lon="1.42382">
        <ele>6.5</ele>
        <time>2020-06-18T14:59:50Z</time>
      </trkpt>
      <trkpt lat="50.05567" lon="1.42385">
        <ele>6.6</ele>
        <time>2020-06-18T14:59:51Z</time>
      </trkpt>
      <trkpt lat="50.05573" lon="1.4239">
        <ele>6.7</ele>
        <time>2020-06-18T14:59:52Z</time>
      </trkpt>
      <trkpt lat="50.05578" lon="1.42394">
        <ele>6.8</ele>
        <time>2020-06-18T14:59:53Z</time>
      </trkpt>
      <trkpt lat="50.05583" lon="1.42398">
        <ele>6.8</ele>
        <time>2020-06-18T14:59:54Z</time>
      </trkpt>
      <trkpt lat="50.05588" lon="1.42401">
        <ele>6.9</ele>
        <time>2020-06-18T14:59:55Z</time>
      </trkpt>
      <trkpt lat="50.05593" lon="1.42404">
        <ele>7</ele>
        <time>2020-06-18T14:59:56Z</time>
      </trkpt>
      <trkpt lat="50.05596" lon="1.42406">
        <ele>7.1</ele>
        <time>2020-06-18T14:59:57Z</time>
      </trkpt>
      <trkpt lat="50.05599" lon="1.42409">
        <ele>7.1</ele>
        <time>2020-06-18T14:59:58Z</time>
      </trkpt>
      <trkpt lat="50.05601" lon="1.42412">
        <ele>7.2</ele>
        <time>2020-06-18T14:59:59Z</time>
      </trkpt>
      <trkpt lat="50.05604" lon="1.42414">
        <ele>7.2</ele>
        <time>2020-06-18T15:00:00Z</time>
      </trkpt>
      <trkpt lat="50.05606" lon="1.42419">
        <ele>7.3</ele>
        <time>2020-06-18T15:00:01Z</time>
      </trkpt>
      <trkpt lat="50.05607" lon="1.42422">
        <ele>7.5</ele>
        <time>2020-06-18T15:00:02Z</time>
      </trkpt>
      <trkpt lat="50.05607" lon="1.42423">
        <ele>7.5</ele>
        <time>2020-06-18T15:00:03Z</time>
      </trkpt>
      <trkpt lat="50.05607" lon="1.42425">
        <ele>7.5</ele>
        <time>2020-06-18T15:00:04Z</time>
      </trkpt>
      <trkpt lat="50.05607" lon="1.42429">
        <ele>7.6</ele>
        <time>2020-06-18T15:00:05Z</time>
      </trkpt>
      <trkpt lat="50.05607" lon="1.42431">
        <ele>7.6</ele>
        <time>2020-06-18T15:00:06Z</time>
      </trkpt>
      <trkpt lat="50.05608" lon="1.42436">
        <ele>7.7</ele>
        <time>2020-06-18T15:00:07Z</time>
      </trkpt>
      <trkpt lat="50.05609" lon="1.4244">
        <ele>7.7</ele>
        <time>2020-06-18T15:00:08Z</time>
      </trkpt>
      <trkpt lat="50.05612" lon="1.42443">
        <ele>7.8</ele>
        <time>2020-06-18T15:00:09Z</time>
      </trkpt>
      <trkpt lat="50.05614" lon="1.42444">
        <ele>7.9</ele>
        <time>2020-06-18T15:00:10Z</time>
      </trkpt>
      <trkpt lat="50.05618" lon="1.42443">
        <ele>7.9</ele>
        <time>2020-06-18T15:00:11Z</time>
      </trkpt>
      <trkpt lat="50.05622" lon="1.42441">
        <ele>7.8</ele>
        <time>2020-06-18T15:00:12Z</time>
      </trkpt>
      <trkpt lat="50.05625" lon="1.42438">
        <ele>7.8</ele>
        <time>2020-06-18T15:00:13Z</time>
      </trkpt>
      <trkpt lat="50.05628" lon="1.42437">
        <ele>7.8</ele>
        <time>2020-06-18T15:00:14Z</time>
      </trkpt>
      <trkpt lat="50.05633" lon="1.42437">
        <ele>7.8</ele>
        <time>2020-06-18T15:00:15Z</time>
      </trkpt>
      <trkpt lat="50.05637" lon="1.42438">
        <ele>7.8</ele>
        <time>2020-06-18T15:00:16Z</time>
      </trkpt>
      <trkpt lat="50.05643" lon="1.4244">
        <ele>7.8</ele>
        <time>2020-06-18T15:00:17Z</time>
      </trkpt>
      <trkpt lat="50.05648" lon="1.42443">
        <ele>7.8</ele>
        <time>2020-06-18T15:00:18Z</time>
      </trkpt>
      <trkpt lat="50.05652" lon="1.42445">
        <ele>7.8</ele>
        <time>2020-06-18T15:00:19Z</time>
      </trkpt>
      <trkpt lat="50.05657" lon="1.42447">
        <ele>7.8</ele>
        <time>2020-06-18T15:00:20Z</time>
      </trkpt>
      <trkpt lat="50.05662" lon="1.42448">
        <ele>7.8</ele>
        <time>2020-06-18T15:00:21Z</time>
      </trkpt>
      <trkpt lat="50.05667" lon="1.42448">
        <ele>7.9</ele>
        <time>2020-06-18T15:00:22Z</time>
      </trkpt>
      <trkpt lat="50.05672" lon="1.42449">
        <ele>7.9</ele>
        <time>2020-06-18T15:00:23Z</time>
      </trkpt>
      <trkpt lat="50.05676" lon="1.4245">
        <ele>7.9</ele>
        <time>2020-06-18T15:00:24Z</time>
      </trkpt>
      <trkpt lat="50.05681" lon="1.42451">
        <ele>8</ele>
        <time>2020-06-18T15:00:25Z</time>
      </trkpt>
      <trkpt lat="50.05686" lon="1.42451">
        <ele>8.1</ele>
        <time>2020-06-18T15:00:26Z</time>
      </trkpt>
      <trkpt lat="50.05692" lon="1.4245">
        <ele>8.2</ele>
        <time>2020-06-18T15:00:27Z</time>
      </trkpt>
      <trkpt lat="50.05697" lon="1.4245">
        <ele>8.3</ele>
        <time>2020-06-18T15:00:28Z</time>
      </trkpt>
      <trkpt lat="50.05702" lon="1.4245">
        <ele>8.4</ele>
        <time>2020-06-18T15:00:29Z</time>
      </trkpt>
      <trkpt lat="50.05708" lon="1.42451">
        <ele>8.5</ele>
        <time>2020-06-18T15:00:30Z</time>
      </trkpt>
      <trkpt lat="50.05713" lon="1.42451">
        <ele>8.5</ele>
        <time>2020-06-18T15:00:31Z</time>
      </trkpt>
      <trkpt lat="50.05718" lon="1.42451">
        <ele>8.6</ele>
        <time>2020-06-18T15:00:32Z</time>
      </trkpt>
      <trkpt lat="50.05723" lon="1.4245">
        <ele>8.6</ele>
        <time>2020-06-18T15:00:33Z</time>
      </trkpt>
      <trkpt lat="50.05727" lon="1.4245">
        <ele>8.7</ele>
        <time>2020-06-18T15:00:34Z</time>
      </trkpt>
      <trkpt lat="50.05734" lon="1.4245">
        <ele>8.8</ele>
        <time>2020-06-18T15:00:35Z</time>
      </trkpt>
      <trkpt lat="50.05739" lon="1.4245">
        <ele>8.9</ele>
        <time>2020-06-18T15:00:36Z</time>
      </trkpt>
      <trkpt lat="50.05745" lon="1.42451">
        <ele>9.1</ele>
        <time>2020-06-18T15:00:37Z</time>
      </trkpt>
      <trkpt lat="50.0575" lon="1.42452">
        <ele>9.2</ele>
        <time>2020-06-18T15:00:38Z</time>
      </trkpt>
      <trkpt lat="50.05756" lon="1.4245">
        <ele>9.4</ele>
        <time>2020-06-18T15:00:39Z</time>
      </trkpt>
      <trkpt lat="50.0576" lon="1.42451">
        <ele>9.5</ele>
        <time>2020-06-18T15:00:40Z</time>
      </trkpt>
      <trkpt lat="50.05764" lon="1.42451">
        <ele>9.6</ele>
        <time>2020-06-18T15:00:41Z</time>
      </trkpt>
      <trkpt lat="50.05768" lon="1.42452">
        <ele>9.7</ele>
        <time>2020-06-18T15:00:42Z</time>
      </trkpt>
      <trkpt lat="50.05772" lon="1.42455">
        <ele>9.8</ele>
        <time>2020-06-18T15:00:43Z</time>
      </trkpt>
      <trkpt lat="50.05776" lon="1.42455">
        <ele>9.9</ele>
        <time>2020-06-18T15:00:44Z</time>
      </trkpt>
      <trkpt lat="50.0578" lon="1.42456">
        <ele>10.1</ele>
        <time>2020-06-18T15:00:45Z</time>
      </trkpt>
      <trkpt lat="50.05785" lon="1.42456">
        <ele>10.2</ele>
        <time>2020-06-18T15:00:46Z</time>
      </trkpt>
      <trkpt lat="50.05789" lon="1.42457">
        <ele>10.4</ele>
        <time>2020-06-18T15:00:47Z</time>
      </trkpt>
      <trkpt lat="50.05793" lon="1.42458">
        <ele>10.6</ele>
        <time>2020-06-18T15:00:48Z</time>
      </trkpt>
      <trkpt lat="50.05796" lon="1.42459">
        <ele>10.8</ele>
        <time>2020-06-18T15:00:49Z</time>
      </trkpt>
      <trkpt lat="50.05799" lon="1.42459">
        <ele>10.9</ele>
        <time>2020-06-18T15:00:50Z</time>
      </trkpt>
      <trkpt lat="50.05802" lon="1.42459">
        <ele>11.1</ele>
        <time>2020-06-18T15:00:51Z</time>
      </trkpt>
      <trkpt lat="50.05807" lon="1.4246">
        <ele>11.2</ele>
        <time>2020-06-18T15:00:52Z</time>
      </trkpt>
      <trkpt lat="50.05808" lon="1.4246">
        <ele>11.3</ele>
        <time>2020-06-18T15:00:53Z</time>
      </trkpt>
      <trkpt lat="50.05812" lon="1.42459">
        <ele>11.4</ele>
        <time>2020-06-18T15:00:54Z</time>
      </trkpt>
      <trkpt lat="50.05816" lon="1.4246">
        <ele>11.6</ele>
        <time>2020-06-18T15:00:55Z</time>
      </trkpt>
      <trkpt lat="50.05818" lon="1.4246">
        <ele>11.6</ele>
        <time>2020-06-18T15:00:56Z</time>
      </trkpt>
      <trkpt lat="50.05823" lon="1.4246">
        <ele>11.8</ele>
        <time>2020-06-18T15:00:57Z</time>
      </trkpt>
      <trkpt lat="50.05827" lon="1.42459">
        <ele>11.9</ele>
        <time>2020-06-18T15:00:58Z</time>
      </trkpt>
      <trkpt lat="50.05831" lon="1.42459">
        <ele>12</ele>
        <time>2020-06-18T15:00:59Z</time>
      </trkpt>
      <trkpt lat="50.05837" lon="1.42459">
        <ele>12.1</ele>
        <time>2020-06-18T15:01:00Z</time>
      </trkpt>
      <trkpt lat="50.0584" lon="1.4246">
        <ele>12.2</ele>
        <time>2020-06-18T15:01:01Z</time>
      </trkpt>
      <trkpt lat="50.05845" lon="1.42459">
        <ele>12.3</ele>
        <time>2020-06-18T15:01:02Z</time>
      </trkpt>
      <trkpt lat="50.05849" lon="1.42458">
        <ele>12.4</ele>
        <time>2020-06-18T15:01:03Z</time>
      </trkpt>
      <trkpt lat="50.05853" lon="1.42458">
        <ele>12.5</ele>
        <time>2020-06-18T15:01:04Z</time>
      </trkpt>
      <trkpt lat="50.05857" lon="1.42458">
        <ele>12.6</ele>
        <time>2020-06-18T15:01:05Z</time>
      </trkpt>
      <trkpt lat="50.0586" lon="1.42458">
        <ele>12.6</ele>
        <time>2020-06-18T15:01:06Z</time>
      </trkpt>
      <trkpt lat="50.05864" lon="1.42457">
        <ele>12.7</ele>
        <time>2020-06-18T15:01:07Z</time>
      </trkpt>
      <trkpt lat="50.05868" lon="1.42457">
        <ele>12.8</ele>
        <time>2020-06-18T15:01:08Z</time>
      </trkpt>
      <trkpt lat="50.05872" lon="1.42457">
        <ele>12.9</ele>
        <time>2020-06-18T15:01:09Z</time>
      </trkpt>
      <trkpt lat="50.05877" lon="1.42455">
        <ele>13.1</ele>
        <time>2020-06-18T15:01:10Z</time>
      </trkpt>
      <trkpt lat="50.0588" lon="1.42454">
        <ele>13.2</ele>
        <time>2020-06-18T15:01:11Z</time>
      </trkpt>
      <trkpt lat="50.05884" lon="1.42452">
        <ele>13.3</ele>
        <time>2020-06-18T15:01:12Z</time>
      </trkpt>
      <trkpt lat="50.05888" lon="1.4245">
        <ele>13.4</ele>
        <time>2020-06-18T15:01:13Z</time>
      </trkpt>
      <trkpt lat="50.05893" lon="1.4245">
        <ele>13.6</ele>
        <time>2020-06-18T15:01:14Z</time>
      </trkpt>
      <trkpt lat="50.05896" lon="1.42449">
        <ele>13.7</ele>
        <time>2020-06-18T15:01:15Z</time>
      </trkpt>
      <trkpt lat="50.05899" lon="1.42447">
        <ele>13.8</ele>
        <time>2020-06-18T15:01:16Z</time>
      </trkpt>
      <trkpt lat="50.05903" lon="1.42447">
        <ele>13.9</ele>
        <time>2020-06-18T15:01:17Z</time>
      </trkpt>
      <trkpt lat="50.05907" lon="1.42446">
        <ele>14.1</ele>
        <time>2020-06-18T15:01:18Z</time>
      </trkpt>
      <trkpt lat="50.05912" lon="1.42445">
        <ele>14.2</ele>
        <time>2020-06-18T15:01:19Z</time>
      </trkpt>
      <trkpt lat="50.05915" lon="1.42444">
        <ele>14.3</ele>
        <time>2020-06-18T15:01:20Z</time>
      </trkpt>
      <trkpt lat="50.05919" lon="1.42442">
        <ele>14.5</ele>
        <time>2020-06-18T15:01:21Z</time>
      </trkpt>
      <trkpt lat="50.05923" lon="1.42441">
        <ele>14.6</ele>
        <time>2020-06-18T15:01:22Z</time>
      </trkpt>
      <trkpt lat="50.05929" lon="1.42441">
        <ele>14.8</ele>
        <time>2020-06-18T15:01:23Z</time>
      </trkpt>
      <trkpt lat="50.05934" lon="1.4244">
        <ele>15</ele>
        <time>2020-06-18T15:01:24Z</time>
      </trkpt>
      <trkpt lat="50.05938" lon="1.42439">
        <ele>15.1</ele>
        <time>2020-06-18T15:01:25Z</time>
      </trkpt>
      <trkpt lat="50.05942" lon="1.42436">
        <ele>15.3</ele>
        <time>2020-06-18T15:01:26Z</time>
      </trkpt>
      <trkpt lat="50.05946" lon="1.42436">
        <ele>15.4</ele>
        <time>2020-06-18T15:01:27Z</time>
      </trkpt>
      <trkpt lat="50.05948" lon="1.42435">
        <ele>15.5</ele>
        <time>2020-06-18T15:01:28Z</time>
      </trkpt>
      <trkpt lat="50.05951" lon="1.42434">
        <ele>15.6</ele>
        <time>2020-06-18T15:01:29Z</time>
      </trkpt>
      <trkpt lat="50.05956" lon="1.42434">
        <ele>15.8</ele>
        <time>2020-06-18T15:01:30Z</time>
      </trkpt>
      <trkpt lat="50.05957" lon="1.42433">
        <ele>15.8</ele>
        <time>2020-06-18T15:01:31Z</time>
      </trkpt>
      <trkpt lat="50.0596" lon="1.42433">
        <ele>16</ele>
        <time>2020-06-18T15:01:32Z</time>
      </trkpt>
      <trkpt lat="50.05964" lon="1.42432">
        <ele>16.1</ele>
        <time>2020-06-18T15:01:33Z</time>
      </trkpt>
      <trkpt lat="50.05968" lon="1.42431">
        <ele>16.3</ele>
        <time>2020-06-18T15:01:34Z</time>
      </trkpt>
      <trkpt lat="50.05972" lon="1.4243">
        <ele>16.4</ele>
        <time>2020-06-18T15:01:35Z</time>
      </trkpt>
      <trkpt lat="50.05976" lon="1.42428">
        <ele>16.6</ele>
        <time>2020-06-18T15:01:36Z</time>
      </trkpt>
      <trkpt lat="50.05979" lon="1.42428">
        <ele>16.7</ele>
        <time>2020-06-18T15:01:37Z</time>
      </trkpt>
      <trkpt lat="50.05982" lon="1.42427">
        <ele>16.8</ele>
        <time>2020-06-18T15:01:38Z</time>
      </trkpt>
      <trkpt lat="50.05985" lon="1.42426">
        <ele>16.9</ele>
        <time>2020-06-18T15:01:39Z</time>
      </trkpt>
      <trkpt lat="50.05988" lon="1.42425">
        <ele>17.1</ele>
        <time>2020-06-18T15:01:40Z</time>
      </trkpt>
      <trkpt lat="50.05994" lon="1.42424">
        <ele>17.3</ele>
        <time>2020-06-18T15:01:41Z</time>
      </trkpt>
      <trkpt lat="50.05997" lon="1.42423">
        <ele>17.4</ele>
        <time>2020-06-18T15:01:42Z</time>
      </trkpt>
      <trkpt lat="50.06001" lon="1.42422">
        <ele>17.6</ele>
        <time>2020-06-18T15:01:43Z</time>
      </trkpt>
      <trkpt lat="50.06006" lon="1.42421">
        <ele>17.8</ele>
        <time>2020-06-18T15:01:44Z</time>
      </trkpt>
      <trkpt lat="50.06011" lon="1.4242">
        <ele>17.9</ele>
        <time>2020-06-18T15:01:45Z</time>
      </trkpt>
      <trkpt lat="50.06015" lon="1.4242">
        <ele>18.1</ele>
        <time>2020-06-18T15:01:46Z</time>
      </trkpt>
      <trkpt lat="50.06018" lon="1.42419">
        <ele>18.2</ele>
        <time>2020-06-18T15:01:47Z</time>
      </trkpt>
      <trkpt lat="50.06024" lon="1.4242">
        <ele>18.4</ele>
        <time>2020-06-18T15:01:48Z</time>
      </trkpt>
      <trkpt lat="50.06027" lon="1.42419">
        <ele>18.5</ele>
        <time>2020-06-18T15:01:49Z</time>
      </trkpt>
      <trkpt lat="50.0603" lon="1.42419">
        <ele>18.6</ele>
        <time>2020-06-18T15:01:50Z</time>
      </trkpt>
      <trkpt lat="50.06034" lon="1.42419">
        <ele>18.7</ele>
        <time>2020-06-18T15:01:51Z</time>
      </trkpt>
      <trkpt lat="50.06038" lon="1.42419">
        <ele>18.9</ele>
        <time>2020-06-18T15:01:52Z</time>
      </trkpt>
      <trkpt lat="50.06041" lon="1.42419">
        <ele>19.1</ele>
        <time>2020-06-18T15:01:53Z</time>
      </trkpt>
      <trkpt lat="50.06045" lon="1.4242">
        <ele>19.3</ele>
        <time>2020-06-18T15:01:54Z</time>
      </trkpt>
      <trkpt lat="50.06049" lon="1.4242">
        <ele>19.4</ele>
        <time>2020-06-18T15:01:55Z</time>
      </trkpt>
      <trkpt lat="50.06052" lon="1.42421">
        <ele>19.6</ele>
        <time>2020-06-18T15:01:56Z</time>
      </trkpt>
      <trkpt lat="50.06056" lon="1.42422">
        <ele>19.7</ele>
        <time>2020-06-18T15:01:57Z</time>
      </trkpt>
      <trkpt lat="50.0606" lon="1.42423">
        <ele>20</ele>
        <time>2020-06-18T15:01:58Z</time>
      </trkpt>
      <trkpt lat="50.06065" lon="1.42424">
        <ele>20.2</ele>
        <time>2020-06-18T15:01:59Z</time>
      </trkpt>
      <trkpt lat="50.06069" lon="1.42426">
        <ele>20.4</ele>
        <time>2020-06-18T15:02:00Z</time>
      </trkpt>
      <trkpt lat="50.06073" lon="1.42426">
        <ele>20.6</ele>
        <time>2020-06-18T15:02:01Z</time>
      </trkpt>
      <trkpt lat="50.06078" lon="1.42426">
        <ele>20.9</ele>
        <time>2020-06-18T15:02:02Z</time>
      </trkpt>
      <trkpt lat="50.06082" lon="1.42426">
        <ele>21.1</ele>
        <time>2020-06-18T15:02:03Z</time>
      </trkpt>
      <trkpt lat="50.06085" lon="1.42427">
        <ele>21.2</ele>
        <time>2020-06-18T15:02:04Z</time>
      </trkpt>
      <trkpt lat="50.0609" lon="1.42429">
        <ele>21.4</ele>
        <time>2020-06-18T15:02:05Z</time>
      </trkpt>
      <trkpt lat="50.06094" lon="1.42429">
        <ele>21.6</ele>
        <time>2020-06-18T15:02:06Z</time>
      </trkpt>
      <trkpt lat="50.06098" lon="1.4243">
        <ele>21.8</ele>
        <time>2020-06-18T15:02:07Z</time>
      </trkpt>
      <trkpt lat="50.06102" lon="1.42431">
        <ele>22</ele>
        <time>2020-06-18T15:02:08Z</time>
      </trkpt>
      <trkpt lat="50.06106" lon="1.42432">
        <ele>22.2</ele>
        <time>2020-06-18T15:02:09Z</time>
      </trkpt>
      <trkpt lat="50.06109" lon="1.42433">
        <ele>22.4</ele>
        <time>2020-06-18T15:02:10Z</time>
      </trkpt>
      <trkpt lat="50.06112" lon="1.42434">
        <ele>22.5</ele>
        <time>2020-06-18T15:02:11Z</time>
      </trkpt>
      <trkpt lat="50.06116" lon="1.42435">
        <ele>22.7</ele>
        <time>2020-06-18T15:02:12Z</time>
      </trkpt>
      <trkpt lat="50.06119" lon="1.42436">
        <ele>22.9</ele>
        <time>2020-06-18T15:02:13Z</time>
      </trkpt>
      <trkpt lat="50.06122" lon="1.42438">
        <ele>23.1</ele>
        <time>2020-06-18T15:02:14Z</time>
      </trkpt>
      <trkpt lat="50.06126" lon="1.4244">
        <ele>23.3</ele>
        <time>2020-06-18T15:02:15Z</time>
      </trkpt>
      <trkpt lat="50.0613" lon="1.42443">
        <ele>23.5</ele>
        <time>2020-06-18T15:02:16Z</time>
      </trkpt>
      <trkpt lat="50.06134" lon="1.42446">
        <ele>23.7</ele>
        <time>2020-06-18T15:02:17Z</time>
      </trkpt>
      <trkpt lat="50.06139" lon="1.4245">
        <ele>24</ele>
        <time>2020-06-18T15:02:18Z</time>
      </trkpt>
      <trkpt lat="50.06143" lon="1.42452">
        <ele>24.4</ele>
        <time>2020-06-18T15:02:19Z</time>
      </trkpt>
      <trkpt lat="50.06147" lon="1.42455">
        <ele>24.7</ele>
        <time>2020-06-18T15:02:20Z</time>
      </trkpt>
      <trkpt lat="50.0615" lon="1.42456">
        <ele>25</ele>
        <time>2020-06-18T15:02:21Z</time>
      </trkpt>
      <trkpt lat="50.06154" lon="1.42457">
        <ele>25.3</ele>
        <time>2020-06-18T15:02:22Z</time>
      </trkpt>
      <trkpt lat="50.06159" lon="1.42459">
        <ele>25.7</ele>
        <time>2020-06-18T15:02:23Z</time>
      </trkpt>
      <trkpt lat="50.06162" lon="1.42463">
        <ele>25.9</ele>
        <time>2020-06-18T15:02:24Z</time>
      </trkpt>
      <trkpt lat="50.06167" lon="1.42468">
        <ele>26.3</ele>
        <time>2020-06-18T15:02:25Z</time>
      </trkpt>
      <trkpt lat="50.06172" lon="1.4247">
        <ele>26.5</ele>
        <time>2020-06-18T15:02:26Z</time>
      </trkpt>
      <trkpt lat="50.06176" lon="1.42472">
        <ele>26.6</ele>
        <time>2020-06-18T15:02:27Z</time>
      </trkpt>
      <trkpt lat="50.06179" lon="1.42474">
        <ele>26.8</ele>
        <time>2020-06-18T15:02:28Z</time>
      </trkpt>
      <trkpt lat="50.06182" lon="1.42477">
        <ele>26.9</ele>
        <time>2020-06-18T15:02:29Z</time>
      </trkpt>
      <trkpt lat="50.06185" lon="1.42481">
        <ele>27.1</ele>
        <time>2020-06-18T15:02:30Z</time>
      </trkpt>
      <trkpt lat="50.06189" lon="1.42484">
        <ele>27.3</ele>
        <time>2020-06-18T15:02:31Z</time>
      </trkpt>
      <trkpt lat="50.06193" lon="1.42487">
        <ele>27.6</ele>
        <time>2020-06-18T15:02:32Z</time>
      </trkpt>
      <trkpt lat="50.06196" lon="1.42491">
        <ele>27.9</ele>
        <time>2020-06-18T15:02:33Z</time>
      </trkpt>
      <trkpt lat="50.06199" lon="1.42495">
        <ele>28.1</ele>
        <time>2020-06-18T15:02:34Z</time>
      </trkpt>
      <trkpt lat="50.06202" lon="1.425">
        <ele>28.4</ele>
        <time>2020-06-18T15:02:35Z</time>
      </trkpt>
      <trkpt lat="50.06204" lon="1.42504">
        <ele>28.6</ele>
        <time>2020-06-18T15:02:36Z</time>
      </trkpt>
      <trkpt lat="50.06208" lon="1.42507">
        <ele>28.8</ele>
        <time>2020-06-18T15:02:37Z</time>
      </trkpt>
      <trkpt lat="50.0621" lon="1.42511">
        <ele>29</ele>
        <time>2020-06-18T15:02:38Z</time>
      </trkpt>
      <trkpt lat="50.06213" lon="1.42515">
        <ele>29.2</ele>
        <time>2020-06-18T15:02:39Z</time>
      </trkpt>
      <trkpt lat="50.06216" lon="1.42519">
        <ele>29.5</ele>
        <time>2020-06-18T15:02:40Z</time>
      </trkpt>
      <trkpt lat="50.06218" lon="1.42521">
        <ele>29.6</ele>
        <time>2020-06-18T15:02:41Z</time>
      </trkpt>
      <trkpt lat="50.06221" lon="1.42526">
        <ele>29.8</ele>
        <time>2020-06-18T15:02:42Z</time>
      </trkpt>
      <trkpt lat="50.06224" lon="1.42532">
        <ele>30</ele>
        <time>2020-06-18T15:02:43Z</time>
      </trkpt>
      <trkpt lat="50.06227" lon="1.42537">
        <ele>30.3</ele>
        <time>2020-06-18T15:02:44Z</time>
      </trkpt>
      <trkpt lat="50.0623" lon="1.42543">
        <ele>30.4</ele>
        <time>2020-06-18T15:02:45Z</time>
      </trkpt>
      <trkpt lat="50.06232" lon="1.42547">
        <ele>30.7</ele>
        <time>2020-06-18T15:02:46Z</time>
      </trkpt>
      <trkpt lat="50.06235" lon="1.42553">
        <ele>30.9</ele>
        <time>2020-06-18T15:02:47Z</time>
      </trkpt>
      <trkpt lat="50.06237" lon="1.42557">
        <ele>31.1</ele>
        <time>2020-06-18T15:02:48Z</time>
      </trkpt>
      <trkpt lat="50.0624" lon="1.42563">
        <ele>31.4</ele>
        <time>2020-06-18T15:02:49Z</time>
      </trkpt>
      <trkpt lat="50.06243" lon="1.42568">
        <ele>31.6</ele>
        <time>2020-06-18T15:02:50Z</time>
      </trkpt>
      <trkpt lat="50.06245" lon="1.42574">
        <ele>31.9</ele>
        <time>2020-06-18T15:02:51Z</time>
      </trkpt>
      <trkpt lat="50.06248" lon="1.42579">
        <ele>31.7</ele>
        <time>2020-06-18T15:02:52Z</time>
      </trkpt>
      <trkpt lat="50.06251" lon="1.42584">
        <ele>31.6</ele>
        <time>2020-06-18T15:02:53Z</time>
      </trkpt>
      <trkpt lat="50.06254" lon="1.42591">
        <ele>31.5</ele>
        <time>2020-06-18T15:02:54Z</time>
      </trkpt>
      <trkpt lat="50.06256" lon="1.42596">
        <ele>31.4</ele>
        <time>2020-06-18T15:02:55Z</time>
      </trkpt>
      <trkpt lat="50.06258" lon="1.42603">
        <ele>31.3</ele>
        <time>2020-06-18T15:02:56Z</time>
      </trkpt>
      <trkpt lat="50.06261" lon="1.42609">
        <ele>31.2</ele>
        <time>2020-06-18T15:02:57Z</time>
      </trkpt>
      <trkpt lat="50.06264" lon="1.42614">
        <ele>31.1</ele>
        <time>2020-06-18T15:02:58Z</time>
      </trkpt>
      <trkpt lat="50.06266" lon="1.42621">
        <ele>31.1</ele>
        <time>2020-06-18T15:02:59Z</time>
      </trkpt>
      <trkpt lat="50.06268" lon="1.42626">
        <ele>31</ele>
        <time>2020-06-18T15:03:00Z</time>
      </trkpt>
      <trkpt lat="50.0627" lon="1.42632">
        <ele>30.9</ele>
        <time>2020-06-18T15:03:01Z</time>
      </trkpt>
      <trkpt lat="50.06272" lon="1.42638">
        <ele>30.9</ele>
        <time>2020-06-18T15:03:02Z</time>
      </trkpt>
      <trkpt lat="50.06274" lon="1.42642">
        <ele>30.9</ele>
        <time>2020-06-18T15:03:03Z</time>
      </trkpt>
      <trkpt lat="50.06276" lon="1.42649">
        <ele>30.9</ele>
        <time>2020-06-18T15:03:04Z</time>
      </trkpt>
      <trkpt lat="50.06278" lon="1.42656">
        <ele>30.9</ele>
        <time>2020-06-18T15:03:05Z</time>
      </trkpt>
      <trkpt lat="50.06281" lon="1.42663">
        <ele>30.9</ele>
        <time>2020-06-18T15:03:06Z</time>
      </trkpt>
      <trkpt lat="50.06283" lon="1.42669">
        <ele>31</ele>
        <time>2020-06-18T15:03:07Z</time>
      </trkpt>
      <trkpt lat="50.06284" lon="1.42674">
        <ele>31</ele>
        <time>2020-06-18T15:03:08Z</time>
      </trkpt>
      <trkpt lat="50.06287" lon="1.42681">
        <ele>31</ele>
        <time>2020-06-18T15:03:09Z</time>
      </trkpt>
      <trkpt lat="50.06288" lon="1.42684">
        <ele>31</ele>
        <time>2020-06-18T15:03:10Z</time>
      </trkpt>
      <trkpt lat="50.06289" lon="1.42691">
        <ele>31</ele>
        <time>2020-06-18T15:03:11Z</time>
      </trkpt>
      <trkpt lat="50.0629" lon="1.42693">
        <ele>31</ele>
        <time>2020-06-18T15:03:12Z</time>
      </trkpt>
      <trkpt lat="50.06292" lon="1.42697">
        <ele>30.9</ele>
        <time>2020-06-18T15:03:13Z</time>
      </trkpt>
      <trkpt lat="50.06294" lon="1.42704">
        <ele>31</ele>
        <time>2020-06-18T15:03:14Z</time>
      </trkpt>
      <trkpt lat="50.06294" lon="1.42705">
        <ele>31.1</ele>
        <time>2020-06-18T15:03:15Z</time>
      </trkpt>
      <trkpt lat="50.06294" lon="1.42706">
        <ele>31.1</ele>
        <time>2020-06-18T15:03:16Z</time>
      </trkpt>
      <trkpt lat="50.06295" lon="1.42709">
        <ele>31.2</ele>
        <time>2020-06-18T15:03:17Z</time>
      </trkpt>
      <trkpt lat="50.06295" lon="1.42711">
        <ele>31.2</ele>
        <time>2020-06-18T15:03:18Z</time>
      </trkpt>
      <trkpt lat="50.06296" lon="1.42713">
        <ele>31.3</ele>
        <time>2020-06-18T15:03:19Z</time>
      </trkpt>
      <trkpt lat="50.06297" lon="1.42715">
        <ele>31.3</ele>
        <time>2020-06-18T15:03:20Z</time>
      </trkpt>
      <trkpt lat="50.06297" lon="1.42715">
        <ele>31.3</ele>
        <time>2020-06-18T15:03:21Z</time>
      </trkpt>
      <trkpt lat="50.06297" lon="1.42716">
        <ele>31.3</ele>
        <time>2020-06-18T15:03:22Z</time>
      </trkpt>
      <trkpt lat="50.06296" lon="1.42715">
        <ele>31.4</ele>
        <time>2020-06-18T15:03:23Z</time>
      </trkpt>
      <trkpt lat="50.06296" lon="1.42718">
        <ele>31.4</ele>
        <time>2020-06-18T15:03:24Z</time>
      </trkpt>
      <trkpt lat="50.06296" lon="1.42718">
        <ele>31.5</ele>
        <time>2020-06-18T15:03:25Z</time>
      </trkpt>
      <trkpt lat="50.06296" lon="1.4272">
        <ele>31.5</ele>
        <time>2020-06-18T15:03:26Z</time>
      </trkpt>
      <trkpt lat="50.06296" lon="1.42719">
        <ele>31.5</ele>
        <time>2020-06-18T15:03:27Z</time>
      </trkpt>
      <trkpt lat="50.06296" lon="1.42721">
        <ele>31.6</ele>
        <time>2020-06-18T15:03:28Z</time>
      </trkpt>
      <trkpt lat="50.06296" lon="1.42721">
        <ele>31.6</ele>
        <time>2020-06-18T15:03:29Z</time>
      </trkpt>
      <trkpt lat="50.06296" lon="1.42722">
        <ele>31.6</ele>
        <time>2020-06-18T15:03:30Z</time>
      </trkpt>
      <trkpt lat="50.06296" lon="1.42721">
        <ele>31.6</ele>
        <time>2020-06-18T15:03:31Z</time>
      </trkpt>
      <trkpt lat="50.06295" lon="1.4272">
        <ele>31.6</ele>
        <time>2020-06-18T15:03:32Z</time>
      </trkpt>
      <trkpt lat="50.06295" lon="1.42721">
        <ele>31.6</ele>
        <time>2020-06-18T15:03:33Z</time>
      </trkpt>
      <trkpt lat="50.06295" lon="1.42722">
        <ele>31.7</ele>
        <time>2020-06-18T15:03:34Z</time>
      </trkpt>
      <trkpt lat="50.06295" lon="1.42722">
        <ele>31.7</ele>
        <time>2020-06-18T15:03:35Z</time>
      </trkpt>
      <trkpt lat="50.06295" lon="1.42723">
        <ele>31.7</ele>
        <time>2020-06-18T15:03:36Z</time>
      </trkpt>
      <trkpt lat="50.06295" lon="1.42722">
        <ele>31.7</ele>
        <time>2020-06-18T15:03:37Z</time>
      </trkpt>
      <trkpt lat="50.06295" lon="1.42722">
        <ele>31.7</ele>
        <time>2020-06-18T15:03:38Z</time>
      </trkpt>
      <trkpt lat="50.06295" lon="1.42722">
        <ele>31.7</ele>
        <time>2020-06-18T15:03:39Z</time>
      </trkpt>
      <trkpt lat="50.06298" lon="1.42726">
        <ele>31.8</ele>
        <time>2020-06-18T15:03:56Z</time>
      </trkpt>
      <trkpt lat="50.063" lon="1.42727">
        <ele>31.9</ele>
        <time>2020-06-18T15:03:57Z</time>
      </trkpt>
      <trkpt lat="50.06302" lon="1.4273">
        <ele>31.9</ele>
        <time>2020-06-18T15:03:58Z</time>
      </trkpt>
      <trkpt lat="50.06304" lon="1.42732">
        <ele>32</ele>
        <time>2020-06-18T15:03:59Z</time>
      </trkpt>
      <trkpt lat="50.06305" lon="1.42731">
        <ele>32</ele>
        <time>2020-06-18T15:04:00Z</time>
      </trkpt>
      <trkpt lat="50.06305" lon="1.4273">
        <ele>32</ele>
        <time>2020-06-18T15:04:01Z</time>
      </trkpt>
      <trkpt lat="50.06305" lon="1.42728">
        <ele>32.1</ele>
        <time>2020-06-18T15:04:02Z</time>
      </trkpt>
      <trkpt lat="50.06305" lon="1.42727">
        <ele>31.9</ele>
        <time>2020-06-18T15:04:03Z</time>
      </trkpt>
      <trkpt lat="50.06305" lon="1.42726">
        <ele>31.8</ele>
        <time>2020-06-18T15:04:04Z</time>
      </trkpt>
      <trkpt lat="50.06305" lon="1.42724">
        <ele>31.8</ele>
        <time>2020-06-18T15:04:05Z</time>
      </trkpt>
      <trkpt lat="50.06305" lon="1.42723">
        <ele>31.6</ele>
        <time>2020-06-18T15:04:06Z</time>
      </trkpt>
      <trkpt lat="50.06305" lon="1.42721">
        <ele>31.5</ele>
        <time>2020-06-18T15:04:07Z</time>
      </trkpt>
      <trkpt lat="50.06305" lon="1.4272">
        <ele>31.5</ele>
        <time>2020-06-18T15:04:08Z</time>
      </trkpt>
      <trkpt lat="50.06306" lon="1.42718">
        <ele>31.3</ele>
        <time>2020-06-18T15:04:09Z</time>
      </trkpt>
      <trkpt lat="50.06306" lon="1.42717">
        <ele>31.3</ele>
        <time>2020-06-18T15:04:10Z</time>
      </trkpt>
      <trkpt lat="50.06306" lon="1.42716">
        <ele>31.2</ele>
        <time>2020-06-18T15:04:11Z</time>
      </trkpt>
      <trkpt lat="50.06306" lon="1.42714">
        <ele>31</ele>
        <time>2020-06-18T15:04:12Z</time>
      </trkpt>
      <trkpt lat="50.06306" lon="1.42713">
        <ele>31</ele>
        <time>2020-06-18T15:04:53Z</time>
      </trkpt>
      <trkpt lat="50.06306" lon="1.42711">
        <ele>30.9</ele>
        <time>2020-06-18T15:04:54Z</time>
      </trkpt>
      <trkpt lat="50.06306" lon="1.42703">
        <ele>30.5</ele>
        <time>2020-06-18T15:04:55Z</time>
      </trkpt>
      <trkpt lat="50.06306" lon="1.42696">
        <ele>30.2</ele>
        <time>2020-06-18T15:04:56Z</time>
      </trkpt>
      <trkpt lat="50.06307" lon="1.4269">
        <ele>30</ele>
        <time>2020-06-18T15:04:57Z</time>
      </trkpt>
      <trkpt lat="50.06307" lon="1.42684">
        <ele>29.7</ele>
        <time>2020-06-18T15:04:58Z</time>
      </trkpt>
      <trkpt lat="50.06307" lon="1.42678">
        <ele>29.5</ele>
        <time>2020-06-18T15:04:59Z</time>
      </trkpt>
      <trkpt lat="50.06307" lon="1.42674">
        <ele>29.3</ele>
        <time>2020-06-18T15:05:00Z</time>
      </trkpt>
      <trkpt lat="50.06308" lon="1.42668">
        <ele>29.1</ele>
        <time>2020-06-18T15:05:01Z</time>
      </trkpt>
      <trkpt lat="50.06308" lon="1.42666">
        <ele>29</ele>
        <time>2020-06-18T15:05:02Z</time>
      </trkpt>
      <trkpt lat="50.06307" lon="1.42662">
        <ele>28.8</ele>
        <time>2020-06-18T15:05:03Z</time>
      </trkpt>
      <trkpt lat="50.06306" lon="1.42656">
        <ele>28.6</ele>
        <time>2020-06-18T15:05:04Z</time>
      </trkpt>
      <trkpt lat="50.06306" lon="1.42655">
        <ele>28.5</ele>
        <time>2020-06-18T15:05:05Z</time>
      </trkpt>
      <trkpt lat="50.06305" lon="1.42651">
        <ele>28.3</ele>
        <time>2020-06-18T15:05:06Z</time>
      </trkpt>
      <trkpt lat="50.06305" lon="1.42646">
        <ele>28.1</ele>
        <time>2020-06-18T15:05:07Z</time>
      </trkpt>
      <trkpt lat="50.06305" lon="1.42645">
        <ele>28.1</ele>
        <time>2020-06-18T15:05:08Z</time>
      </trkpt>
      <trkpt lat="50.06305" lon="1.42641">
        <ele>27.9</ele>
        <time>2020-06-18T15:05:09Z</time>
      </trkpt>
      <trkpt lat="50.06305" lon="1.42639">
        <ele>27.9</ele>
        <time>2020-06-18T15:05:10Z</time>
      </trkpt>
      <trkpt lat="50.06304" lon="1.42634">
        <ele>27.6</ele>
        <time>2020-06-18T15:05:11Z</time>
      </trkpt>
      <trkpt lat="50.06303" lon="1.42632">
        <ele>27.6</ele>
        <time>2020-06-18T15:05:12Z</time>
      </trkpt>
      <trkpt lat="50.06301" lon="1.42628">
        <ele>27.3</ele>
        <time>2020-06-18T15:05:13Z</time>
      </trkpt>
      <trkpt lat="50.06301" lon="1.42626">
        <ele>27.3</ele>
        <time>2020-06-18T15:05:14Z</time>
      </trkpt>
      <trkpt lat="50.06301" lon="1.42623">
        <ele>27.2</ele>
        <time>2020-06-18T15:05:15Z</time>
      </trkpt>
      <trkpt lat="50.063" lon="1.42621">
        <ele>27.1</ele>
        <time>2020-06-18T15:05:16Z</time>
      </trkpt>
      <trkpt lat="50.06298" lon="1.42616">
        <ele>26.8</ele>
        <time>2020-06-18T15:05:17Z</time>
      </trkpt>
      <trkpt lat="50.06298" lon="1.42614">
        <ele>26.8</ele>
        <time>2020-06-18T15:05:18Z</time>
      </trkpt>
      <trkpt lat="50.06295" lon="1.42609">
        <ele>26.5</ele>
        <time>2020-06-18T15:05:19Z</time>
      </trkpt>
      <trkpt lat="50.06295" lon="1.42607">
        <ele>26.4</ele>
        <time>2020-06-18T15:05:20Z</time>
      </trkpt>
      <trkpt lat="50.06294" lon="1.42601">
        <ele>26.2</ele>
        <time>2020-06-18T15:05:21Z</time>
      </trkpt>
      <trkpt lat="50.06292" lon="1.42595">
        <ele>25.9</ele>
        <time>2020-06-18T15:05:22Z</time>
      </trkpt>
      <trkpt lat="50.0629" lon="1.42589">
        <ele>25.6</ele>
        <time>2020-06-18T15:05:23Z</time>
      </trkpt>
      <trkpt lat="50.06287" lon="1.42582">
        <ele>25.3</ele>
        <time>2020-06-18T15:05:24Z</time>
      </trkpt>
      <trkpt lat="50.06285" lon="1.42575">
        <ele>25</ele>
        <time>2020-06-18T15:05:25Z</time>
      </trkpt>
      <trkpt lat="50.06283" lon="1.42568">
        <ele>24.7</ele>
        <time>2020-06-18T15:05:26Z</time>
      </trkpt>
      <trkpt lat="50.0628" lon="1.42562">
        <ele>24.4</ele>
        <time>2020-06-18T15:05:27Z</time>
      </trkpt>
      <trkpt lat="50.06278" lon="1.42556">
        <ele>24.1</ele>
        <time>2020-06-18T15:05:28Z</time>
      </trkpt>
      <trkpt lat="50.06276" lon="1.42551">
        <ele>23.9</ele>
        <time>2020-06-18T15:05:29Z</time>
      </trkpt>
      <trkpt lat="50.06274" lon="1.42547">
        <ele>23.7</ele>
        <time>2020-06-18T15:05:30Z</time>
      </trkpt>
      <trkpt lat="50.06273" lon="1.42543">
        <ele>23.5</ele>
        <time>2020-06-18T15:05:31Z</time>
      </trkpt>
      <trkpt lat="50.06271" lon="1.42537">
        <ele>23.2</ele>
        <time>2020-06-18T15:05:32Z</time>
      </trkpt>
      <trkpt lat="50.0627" lon="1.42535">
        <ele>23.1</ele>
        <time>2020-06-18T15:05:33Z</time>
      </trkpt>
      <trkpt lat="50.06268" lon="1.4253">
        <ele>22.9</ele>
        <time>2020-06-18T15:05:34Z</time>
      </trkpt>
      <trkpt lat="50.06266" lon="1.42525">
        <ele>22.6</ele>
        <time>2020-06-18T15:05:35Z</time>
      </trkpt>
      <trkpt lat="50.06264" lon="1.4252">
        <ele>22.4</ele>
        <time>2020-06-18T15:05:36Z</time>
      </trkpt>
      <trkpt lat="50.06262" lon="1.42515">
        <ele>22.2</ele>
        <time>2020-06-18T15:05:37Z</time>
      </trkpt>
      <trkpt lat="50.0626" lon="1.42511">
        <ele>21.9</ele>
        <time>2020-06-18T15:05:38Z</time>
      </trkpt>
      <trkpt lat="50.06258" lon="1.42507">
        <ele>21.8</ele>
        <time>2020-06-18T15:05:39Z</time>
      </trkpt>
      <trkpt lat="50.06257" lon="1.42503">
        <ele>21.6</ele>
        <time>2020-06-18T15:05:40Z</time>
      </trkpt>
      <trkpt lat="50.06255" lon="1.42499">
        <ele>21.4</ele>
        <time>2020-06-18T15:05:41Z</time>
      </trkpt>
      <trkpt lat="50.06253" lon="1.42495">
        <ele>21.2</ele>
        <time>2020-06-18T15:05:42Z</time>
      </trkpt>
      <trkpt lat="50.06251" lon="1.42491">
        <ele>21</ele>
        <time>2020-06-18T15:05:43Z</time>
      </trkpt>
      <trkpt lat="50.06249" lon="1.42487">
        <ele>20.8</ele>
        <time>2020-06-18T15:05:44Z</time>
      </trkpt>
      <trkpt lat="50.06247" lon="1.42483">
        <ele>20.6</ele>
        <time>2020-06-18T15:05:45Z</time>
      </trkpt>
      <trkpt lat="50.06245" lon="1.42479">
        <ele>20.4</ele>
        <time>2020-06-18T15:05:46Z</time>
      </trkpt>
      <trkpt lat="50.06243" lon="1.42476">
        <ele>20.2</ele>
        <time>2020-06-18T15:05:47Z</time>
      </trkpt>
      <trkpt lat="50.06242" lon="1.42475">
        <ele>20.1</ele>
        <time>2020-06-18T15:05:48Z</time>
      </trkpt>
      <trkpt lat="50.0624" lon="1.42471">
        <ele>19.9</ele>
        <time>2020-06-18T15:05:49Z</time>
      </trkpt>
      <trkpt lat="50.0624" lon="1.42469">
        <ele>19.8</ele>
        <time>2020-06-18T15:05:50Z</time>
      </trkpt>
      <trkpt lat="50.06238" lon="1.42465">
        <ele>19.7</ele>
        <time>2020-06-18T15:05:51Z</time>
      </trkpt>
      <trkpt lat="50.06236" lon="1.4246">
        <ele>19.4</ele>
        <time>2020-06-18T15:05:52Z</time>
      </trkpt>
      <trkpt lat="50.06236" lon="1.42459">
        <ele>19.4</ele>
        <time>2020-06-18T15:05:53Z</time>
      </trkpt>
      <trkpt lat="50.06232" lon="1.42455">
        <ele>19.1</ele>
        <time>2020-06-18T15:05:54Z</time>
      </trkpt>
      <trkpt lat="50.06231" lon="1.42453">
        <ele>19</ele>
        <time>2020-06-18T15:05:55Z</time>
      </trkpt>
      <trkpt lat="50.06229" lon="1.42449">
        <ele>18.8</ele>
        <time>2020-06-18T15:05:56Z</time>
      </trkpt>
      <trkpt lat="50.06228" lon="1.42447">
        <ele>18.7</ele>
        <time>2020-06-18T15:05:57Z</time>
      </trkpt>
      <trkpt lat="50.06226" lon="1.42443">
        <ele>18.5</ele>
        <time>2020-06-18T15:05:58Z</time>
      </trkpt>
      <trkpt lat="50.06225" lon="1.42442">
        <ele>18.4</ele>
        <time>2020-06-18T15:05:59Z</time>
      </trkpt>
      <trkpt lat="50.06223" lon="1.42439">
        <ele>18.2</ele>
        <time>2020-06-18T15:06:00Z</time>
      </trkpt>
      <trkpt lat="50.0622" lon="1.42436">
        <ele>18</ele>
        <time>2020-06-18T15:06:01Z</time>
      </trkpt>
      <trkpt lat="50.06219" lon="1.42435">
        <ele>17.9</ele>
        <time>2020-06-18T15:06:02Z</time>
      </trkpt>
      <trkpt lat="50.06217" lon="1.4243">
        <ele>17.7</ele>
        <time>2020-06-18T15:06:03Z</time>
      </trkpt>
      <trkpt lat="50.06216" lon="1.42429">
        <ele>17.6</ele>
        <time>2020-06-18T15:06:04Z</time>
      </trkpt>
      <trkpt lat="50.06215" lon="1.42425">
        <ele>17.5</ele>
        <time>2020-06-18T15:06:05Z</time>
      </trkpt>
      <trkpt lat="50.06215" lon="1.42423">
        <ele>17.4</ele>
        <time>2020-06-18T15:06:06Z</time>
      </trkpt>
      <trkpt lat="50.06215" lon="1.42422">
        <ele>17.3</ele>
        <time>2020-06-18T15:06:07Z</time>
      </trkpt>
      <trkpt lat="50.06216" lon="1.42423">
        <ele>17.3</ele>
        <time>2020-06-18T15:06:08Z</time>
      </trkpt>
      <trkpt lat="50.06218" lon="1.42422">
        <ele>17.2</ele>
        <time>2020-06-18T15:06:09Z</time>
      </trkpt>
      <trkpt lat="50.06219" lon="1.42422">
        <ele>17.1</ele>
        <time>2020-06-18T15:06:10Z</time>
      </trkpt>
      <trkpt lat="50.06221" lon="1.42424">
        <ele>17</ele>
        <time>2020-06-18T15:06:11Z</time>
      </trkpt>
      <trkpt lat="50.06222" lon="1.42426">
        <ele>16.4</ele>
        <time>2020-06-18T15:06:12Z</time>
      </trkpt>
      <trkpt lat="50.06224" lon="1.42427">
        <ele>16.4</ele>
        <time>2020-06-18T15:06:13Z</time>
      </trkpt>
      <trkpt lat="50.06225" lon="1.42428">
        <ele>16.4</ele>
        <time>2020-06-18T15:06:14Z</time>
      </trkpt>
      <trkpt lat="50.06227" lon="1.42432">
        <ele>16.5</ele>
        <time>2020-06-18T15:06:15Z</time>
      </trkpt>
      <trkpt lat="50.06228" lon="1.42433">
        <ele>16.5</ele>
        <time>2020-06-18T15:06:16Z</time>
      </trkpt>
      <trkpt lat="50.06231" lon="1.42436">
        <ele>16.6</ele>
        <time>2020-06-18T15:06:17Z</time>
      </trkpt>
      <trkpt lat="50.06232" lon="1.42436">
        <ele>16.7</ele>
        <time>2020-06-18T15:06:18Z</time>
      </trkpt>
      <trkpt lat="50.06235" lon="1.42439">
        <ele>16.8</ele>
        <time>2020-06-18T15:06:19Z</time>
      </trkpt>
      <trkpt lat="50.06237" lon="1.42442">
        <ele>16.9</ele>
        <time>2020-06-18T15:06:20Z</time>
      </trkpt>
      <trkpt lat="50.06238" lon="1.42443">
        <ele>16.9</ele>
        <time>2020-06-18T15:06:21Z</time>
      </trkpt>
      <trkpt lat="50.06241" lon="1.42446">
        <ele>17</ele>
        <time>2020-06-18T15:06:22Z</time>
      </trkpt>
      <trkpt lat="50.06244" lon="1.4245">
        <ele>17.1</ele>
        <time>2020-06-18T15:06:23Z</time>
      </trkpt>
      <trkpt lat="50.06247" lon="1.42453">
        <ele>17.2</ele>
        <time>2020-06-18T15:06:24Z</time>
      </trkpt>
      <trkpt lat="50.06249" lon="1.42456">
        <ele>17.2</ele>
        <time>2020-06-18T15:06:25Z</time>
      </trkpt>
      <trkpt lat="50.06252" lon="1.42458">
        <ele>17.3</ele>
        <time>2020-06-18T15:06:26Z</time>
      </trkpt>
      <trkpt lat="50.06256" lon="1.42462">
        <ele>17.4</ele>
        <time>2020-06-18T15:06:27Z</time>
      </trkpt>
      <trkpt lat="50.06257" lon="1.42463">
        <ele>17.5</ele>
        <time>2020-06-18T15:06:28Z</time>
      </trkpt>
      <trkpt lat="50.0626" lon="1.42468">
        <ele>17.6</ele>
        <time>2020-06-18T15:06:29Z</time>
      </trkpt>
      <trkpt lat="50.06262" lon="1.42472">
        <ele>17.7</ele>
        <time>2020-06-18T15:06:30Z</time>
      </trkpt>
      <trkpt lat="50.06264" lon="1.42475">
        <ele>17.7</ele>
        <time>2020-06-18T15:06:31Z</time>
      </trkpt>
      <trkpt lat="50.06267" lon="1.42479">
        <ele>17.8</ele>
        <time>2020-06-18T15:06:32Z</time>
      </trkpt>
      <trkpt lat="50.0627" lon="1.42482">
        <ele>17.9</ele>
        <time>2020-06-18T15:06:33Z</time>
      </trkpt>
      <trkpt lat="50.06273" lon="1.42485">
        <ele>18</ele>
        <time>2020-06-18T15:06:34Z</time>
      </trkpt>
      <trkpt lat="50.06276" lon="1.42489">
        <ele>18.2</ele>
        <time>2020-06-18T15:06:35Z</time>
      </trkpt>
      <trkpt lat="50.06278" lon="1.42492">
        <ele>18.3</ele>
        <time>2020-06-18T15:06:36Z</time>
      </trkpt>
      <trkpt lat="50.06281" lon="1.42497">
        <ele>18.4</ele>
        <time>2020-06-18T15:06:37Z</time>
      </trkpt>
      <trkpt lat="50.06282" lon="1.42498">
        <ele>18.5</ele>
        <time>2020-06-18T15:06:38Z</time>
      </trkpt>
      <trkpt lat="50.06285" lon="1.42503">
        <ele>18.6</ele>
        <time>2020-06-18T15:06:39Z</time>
      </trkpt>
      <trkpt lat="50.06286" lon="1.42505">
        <ele>18.7</ele>
        <time>2020-06-18T15:06:40Z</time>
      </trkpt>
      <trkpt lat="50.06289" lon="1.42511">
        <ele>18.8</ele>
        <time>2020-06-18T15:06:41Z</time>
      </trkpt>
      <trkpt lat="50.06293" lon="1.42516">
        <ele>18.9</ele>
        <time>2020-06-18T15:06:42Z</time>
      </trkpt>
      <trkpt lat="50.06296" lon="1.42521">
        <ele>19</ele>
        <time>2020-06-18T15:06:43Z</time>
      </trkpt>
      <trkpt lat="50.063" lon="1.42526">
        <ele>19.1</ele>
        <time>2020-06-18T15:06:44Z</time>
      </trkpt>
      <trkpt lat="50.06301" lon="1.42532">
        <ele>19.2</ele>
        <time>2020-06-18T15:06:45Z</time>
      </trkpt>
      <trkpt lat="50.06304" lon="1.42537">
        <ele>19.3</ele>
        <time>2020-06-18T15:06:46Z</time>
      </trkpt>
      <trkpt lat="50.06307" lon="1.42542">
        <ele>19.4</ele>
        <time>2020-06-18T15:06:47Z</time>
      </trkpt>
      <trkpt lat="50.06309" lon="1.42546">
        <ele>19.5</ele>
        <time>2020-06-18T15:06:48Z</time>
      </trkpt>
      <trkpt lat="50.06312" lon="1.4255">
        <ele>19.6</ele>
        <time>2020-06-18T15:06:49Z</time>
      </trkpt>
      <trkpt lat="50.06314" lon="1.42555">
        <ele>19.7</ele>
        <time>2020-06-18T15:06:50Z</time>
      </trkpt>
      <trkpt lat="50.06316" lon="1.42559">
        <ele>19.7</ele>
        <time>2020-06-18T15:06:51Z</time>
      </trkpt>
      <trkpt lat="50.06319" lon="1.42564">
        <ele>19.8</ele>
        <time>2020-06-18T15:06:52Z</time>
      </trkpt>
      <trkpt lat="50.06321" lon="1.42569">
        <ele>19.9</ele>
        <time>2020-06-18T15:06:53Z</time>
      </trkpt>
      <trkpt lat="50.06323" lon="1.42574">
        <ele>20</ele>
        <time>2020-06-18T15:06:54Z</time>
      </trkpt>
      <trkpt lat="50.06326" lon="1.42578">
        <ele>20.1</ele>
        <time>2020-06-18T15:06:55Z</time>
      </trkpt>
      <trkpt lat="50.06329" lon="1.42584">
        <ele>20.2</ele>
        <time>2020-06-18T15:06:56Z</time>
      </trkpt>
      <trkpt lat="50.06331" lon="1.42588">
        <ele>20.3</ele>
        <time>2020-06-18T15:06:57Z</time>
      </trkpt>
      <trkpt lat="50.06334" lon="1.42594">
        <ele>20.4</ele>
        <time>2020-06-18T15:06:58Z</time>
      </trkpt>
      <trkpt lat="50.06335" lon="1.42602">
        <ele>20.6</ele>
        <time>2020-06-18T15:06:59Z</time>
      </trkpt>
      <trkpt lat="50.06336" lon="1.42606">
        <ele>20.7</ele>
        <time>2020-06-18T15:07:00Z</time>
      </trkpt>
      <trkpt lat="50.06338" lon="1.42611">
        <ele>20.8</ele>
        <time>2020-06-18T15:07:01Z</time>
      </trkpt>
      <trkpt lat="50.0634" lon="1.42617">
        <ele>21</ele>
        <time>2020-06-18T15:07:02Z</time>
      </trkpt>
      <trkpt lat="50.06342" lon="1.42622">
        <ele>21.1</ele>
        <time>2020-06-18T15:07:03Z</time>
      </trkpt>
      <trkpt lat="50.06345" lon="1.42628">
        <ele>21.3</ele>
        <time>2020-06-18T15:07:04Z</time>
      </trkpt>
      <trkpt lat="50.06348" lon="1.42633">
        <ele>21.4</ele>
        <time>2020-06-18T15:07:05Z</time>
      </trkpt>
      <trkpt lat="50.0635" lon="1.42637">
        <ele>21.6</ele>
        <time>2020-06-18T15:07:06Z</time>
      </trkpt>
      <trkpt lat="50.06352" lon="1.42641">
        <ele>21.7</ele>
        <time>2020-06-18T15:07:07Z</time>
      </trkpt>
      <trkpt lat="50.06354" lon="1.42648">
        <ele>21.8</ele>
        <time>2020-06-18T15:07:08Z</time>
      </trkpt>
      <trkpt lat="50.06357" lon="1.42653">
        <ele>21.9</ele>
        <time>2020-06-18T15:07:09Z</time>
      </trkpt>
      <trkpt lat="50.0636" lon="1.42656">
        <ele>22</ele>
        <time>2020-06-18T15:07:10Z</time>
      </trkpt>
      <trkpt lat="50.06363" lon="1.42658">
        <ele>22.1</ele>
        <time>2020-06-18T15:07:11Z</time>
      </trkpt>
      <trkpt lat="50.06366" lon="1.4266">
        <ele>22.2</ele>
        <time>2020-06-18T15:07:12Z</time>
      </trkpt>
      <trkpt lat="50.06369" lon="1.42662">
        <ele>22.4</ele>
        <time>2020-06-18T15:07:13Z</time>
      </trkpt>
      <trkpt lat="50.06371" lon="1.42665">
        <ele>22.5</ele>
        <time>2020-06-18T15:07:14Z</time>
      </trkpt>
      <trkpt lat="50.06375" lon="1.42669">
        <ele>22.6</ele>
        <time>2020-06-18T15:07:15Z</time>
      </trkpt>
      <trkpt lat="50.06376" lon="1.4267">
        <ele>22.6</ele>
        <time>2020-06-18T15:07:16Z</time>
      </trkpt>
      <trkpt lat="50.06379" lon="1.42672">
        <ele>22.8</ele>
        <time>2020-06-18T15:07:17Z</time>
      </trkpt>
      <trkpt lat="50.06382" lon="1.42675">
        <ele>22.9</ele>
        <time>2020-06-18T15:07:18Z</time>
      </trkpt>
      <trkpt lat="50.06386" lon="1.42677">
        <ele>23</ele>
        <time>2020-06-18T15:07:19Z</time>
      </trkpt>
      <trkpt lat="50.0639" lon="1.4268">
        <ele>23.2</ele>
        <time>2020-06-18T15:07:20Z</time>
      </trkpt>
      <trkpt lat="50.06394" lon="1.42682">
        <ele>23.4</ele>
        <time>2020-06-18T15:07:21Z</time>
      </trkpt>
      <trkpt lat="50.06397" lon="1.42686">
        <ele>23.5</ele>
        <time>2020-06-18T15:07:22Z</time>
      </trkpt>
      <trkpt lat="50.064" lon="1.4269">
        <ele>23.7</ele>
        <time>2020-06-18T15:07:23Z</time>
      </trkpt>
      <trkpt lat="50.06403" lon="1.42692">
        <ele>23.8</ele>
        <time>2020-06-18T15:07:24Z</time>
      </trkpt>
      <trkpt lat="50.06406" lon="1.42695">
        <ele>24</ele>
        <time>2020-06-18T15:07:25Z</time>
      </trkpt>
      <trkpt lat="50.06409" lon="1.42698">
        <ele>24.1</ele>
        <time>2020-06-18T15:07:26Z</time>
      </trkpt>
      <trkpt lat="50.06413" lon="1.42701">
        <ele>24.3</ele>
        <time>2020-06-18T15:07:27Z</time>
      </trkpt>
      <trkpt lat="50.06416" lon="1.42704">
        <ele>24.5</ele>
        <time>2020-06-18T15:07:28Z</time>
      </trkpt>
      <trkpt lat="50.06418" lon="1.42707">
        <ele>24.7</ele>
        <time>2020-06-18T15:07:29Z</time>
      </trkpt>
      <trkpt lat="50.06421" lon="1.4271">
        <ele>24.9</ele>
        <time>2020-06-18T15:07:30Z</time>
      </trkpt>
      <trkpt lat="50.06424" lon="1.42713">
        <ele>25.1</ele>
        <time>2020-06-18T15:07:31Z</time>
      </trkpt>
      <trkpt lat="50.06427" lon="1.42716">
        <ele>25.3</ele>
        <time>2020-06-18T15:07:32Z</time>
      </trkpt>
      <trkpt lat="50.06429" lon="1.4272">
        <ele>25.5</ele>
        <time>2020-06-18T15:07:33Z</time>
      </trkpt>
      <trkpt lat="50.06431" lon="1.42722">
        <ele>25.6</ele>
        <time>2020-06-18T15:07:34Z</time>
      </trkpt>
      <trkpt lat="50.06434" lon="1.42725">
        <ele>25.8</ele>
        <time>2020-06-18T15:07:35Z</time>
      </trkpt>
      <trkpt lat="50.06436" lon="1.42727">
        <ele>26</ele>
        <time>2020-06-18T15:07:36Z</time>
      </trkpt>
      <trkpt lat="50.06439" lon="1.4273">
        <ele>26.2</ele>
        <time>2020-06-18T15:07:37Z</time>
      </trkpt>
      <trkpt lat="50.06441" lon="1.42733">
        <ele>26.4</ele>
        <time>2020-06-18T15:07:38Z</time>
      </trkpt>
      <trkpt lat="50.06444" lon="1.42737">
        <ele>26.7</ele>
        <time>2020-06-18T15:07:39Z</time>
      </trkpt>
      <trkpt lat="50.06445" lon="1.42738">
        <ele>26.8</ele>
        <time>2020-06-18T15:07:40Z</time>
      </trkpt>
      <trkpt lat="50.06447" lon="1.42742">
        <ele>27</ele>
        <time>2020-06-18T15:07:41Z</time>
      </trkpt>
      <trkpt lat="50.06448" lon="1.42744">
        <ele>27.1</ele>
        <time>2020-06-18T15:07:42Z</time>
      </trkpt>
      <trkpt lat="50.0645" lon="1.42747">
        <ele>27.4</ele>
        <time>2020-06-18T15:07:43Z</time>
      </trkpt>
      <trkpt lat="50.06452" lon="1.42749">
        <ele>27.6</ele>
        <time>2020-06-18T15:07:44Z</time>
      </trkpt>
      <trkpt lat="50.06453" lon="1.4275">
        <ele>27.6</ele>
        <time>2020-06-18T15:07:45Z</time>
      </trkpt>
      <trkpt lat="50.06457" lon="1.42752">
        <ele>27.9</ele>
        <time>2020-06-18T15:07:46Z</time>
      </trkpt>
      <trkpt lat="50.06458" lon="1.42754">
        <ele>28.1</ele>
        <time>2020-06-18T15:07:47Z</time>
      </trkpt>
      <trkpt lat="50.0646" lon="1.42758">
        <ele>28.3</ele>
        <time>2020-06-18T15:07:48Z</time>
      </trkpt>
      <trkpt lat="50.06463" lon="1.42761">
        <ele>28.6</ele>
        <time>2020-06-18T15:07:49Z</time>
      </trkpt>
      <trkpt lat="50.06466" lon="1.42764">
        <ele>28.9</ele>
        <time>2020-06-18T15:07:50Z</time>
      </trkpt>
      <trkpt lat="50.06469" lon="1.42765">
        <ele>29.1</ele>
        <time>2020-06-18T15:07:51Z</time>
      </trkpt>
      <trkpt lat="50.06471" lon="1.42768">
        <ele>29.3</ele>
        <time>2020-06-18T15:07:52Z</time>
      </trkpt>
      <trkpt lat="50.06474" lon="1.42772">
        <ele>29.6</ele>
        <time>2020-06-18T15:07:53Z</time>
      </trkpt>
      <trkpt lat="50.06477" lon="1.42776">
        <ele>29.9</ele>
        <time>2020-06-18T15:07:54Z</time>
      </trkpt>
      <trkpt lat="50.06479" lon="1.4278">
        <ele>30.1</ele>
        <time>2020-06-18T15:07:55Z</time>
      </trkpt>
      <trkpt lat="50.06482" lon="1.42783">
        <ele>30.4</ele>
        <time>2020-06-18T15:07:56Z</time>
      </trkpt>
      <trkpt lat="50.06484" lon="1.42786">
        <ele>30.6</ele>
        <time>2020-06-18T15:07:57Z</time>
      </trkpt>
      <trkpt lat="50.06486" lon="1.42791">
        <ele>30.8</ele>
        <time>2020-06-18T15:07:58Z</time>
      </trkpt>
      <trkpt lat="50.06489" lon="1.42795">
        <ele>31</ele>
        <time>2020-06-18T15:07:59Z</time>
      </trkpt>
      <trkpt lat="50.06492" lon="1.428">
        <ele>31.3</ele>
        <time>2020-06-18T15:08:00Z</time>
      </trkpt>
      <trkpt lat="50.06494" lon="1.42804">
        <ele>31.5</ele>
        <time>2020-06-18T15:08:01Z</time>
      </trkpt>
      <trkpt lat="50.06497" lon="1.42807">
        <ele>31.7</ele>
        <time>2020-06-18T15:08:02Z</time>
      </trkpt>
      <trkpt lat="50.06499" lon="1.42809">
        <ele>31.8</ele>
        <time>2020-06-18T15:08:03Z</time>
      </trkpt>
      <trkpt lat="50.065" lon="1.4281">
        <ele>31.9</ele>
        <time>2020-06-18T15:08:04Z</time>
      </trkpt>
      <trkpt lat="50.06502" lon="1.42812">
        <ele>32</ele>
        <time>2020-06-18T15:08:05Z</time>
      </trkpt>
      <trkpt lat="50.06503" lon="1.42814">
        <ele>32.1</ele>
        <time>2020-06-18T15:08:06Z</time>
      </trkpt>
      <trkpt lat="50.06506" lon="1.42818">
        <ele>32.3</ele>
        <time>2020-06-18T15:08:07Z</time>
      </trkpt>
      <trkpt lat="50.06508" lon="1.42822">
        <ele>32.4</ele>
        <time>2020-06-18T15:08:08Z</time>
      </trkpt>
      <trkpt lat="50.0651" lon="1.42825">
        <ele>32.6</ele>
        <time>2020-06-18T15:08:09Z</time>
      </trkpt>
      <trkpt lat="50.06512" lon="1.42829">
        <ele>32.7</ele>
        <time>2020-06-18T15:08:10Z</time>
      </trkpt>
      <trkpt lat="50.06515" lon="1.42836">
        <ele>32.9</ele>
        <time>2020-06-18T15:08:11Z</time>
      </trkpt>
      <trkpt lat="50.06518" lon="1.42842">
        <ele>33.1</ele>
        <time>2020-06-18T15:08:12Z</time>
      </trkpt>
      <trkpt lat="50.0652" lon="1.42847">
        <ele>33.2</ele>
        <time>2020-06-18T15:08:13Z</time>
      </trkpt>
      <trkpt lat="50.06523" lon="1.42852">
        <ele>33.4</ele>
        <time>2020-06-18T15:08:14Z</time>
      </trkpt>
      <trkpt lat="50.06525" lon="1.42857">
        <ele>33.5</ele>
        <time>2020-06-18T15:08:15Z</time>
      </trkpt>
      <trkpt lat="50.06526" lon="1.42859">
        <ele>33.5</ele>
        <time>2020-06-18T15:08:16Z</time>
      </trkpt>
      <trkpt lat="50.06528" lon="1.42862">
        <ele>33.6</ele>
        <time>2020-06-18T15:08:17Z</time>
      </trkpt>
      <trkpt lat="50.0653" lon="1.42869">
        <ele>33.8</ele>
        <time>2020-06-18T15:08:18Z</time>
      </trkpt>
      <trkpt lat="50.06532" lon="1.42876">
        <ele>33.9</ele>
        <time>2020-06-18T15:08:19Z</time>
      </trkpt>
      <trkpt lat="50.06535" lon="1.42881">
        <ele>34.1</ele>
        <time>2020-06-18T15:08:20Z</time>
      </trkpt>
      <trkpt lat="50.06537" lon="1.42887">
        <ele>34.2</ele>
        <time>2020-06-18T15:08:21Z</time>
      </trkpt>
      <trkpt lat="50.06539" lon="1.42893">
        <ele>34.3</ele>
        <time>2020-06-18T15:08:22Z</time>
      </trkpt>
      <trkpt lat="50.06542" lon="1.42897">
        <ele>34.4</ele>
        <time>2020-06-18T15:08:23Z</time>
      </trkpt>
      <trkpt lat="50.06545" lon="1.42902">
        <ele>34.6</ele>
        <time>2020-06-18T15:08:24Z</time>
      </trkpt>
      <trkpt lat="50.06547" lon="1.42906">
        <ele>34.6</ele>
        <time>2020-06-18T15:08:25Z</time>
      </trkpt>
      <trkpt lat="50.0655" lon="1.42912">
        <ele>34.7</ele>
        <time>2020-06-18T15:08:26Z</time>
      </trkpt>
      <trkpt lat="50.06553" lon="1.42918">
        <ele>34.9</ele>
        <time>2020-06-18T15:08:27Z</time>
      </trkpt>
      <trkpt lat="50.06556" lon="1.42924">
        <ele>35</ele>
        <time>2020-06-18T15:08:28Z</time>
      </trkpt>
      <trkpt lat="50.06558" lon="1.42929">
        <ele>35.1</ele>
        <time>2020-06-18T15:08:29Z</time>
      </trkpt>
      <trkpt lat="50.0656" lon="1.42934">
        <ele>35.2</ele>
        <time>2020-06-18T15:08:30Z</time>
      </trkpt>
      <trkpt lat="50.06563" lon="1.42938">
        <ele>35.3</ele>
        <time>2020-06-18T15:08:31Z</time>
      </trkpt>
      <trkpt lat="50.06566" lon="1.42943">
        <ele>35.4</ele>
        <time>2020-06-18T15:08:32Z</time>
      </trkpt>
      <trkpt lat="50.06569" lon="1.42948">
        <ele>35.5</ele>
        <time>2020-06-18T15:08:33Z</time>
      </trkpt>
      <trkpt lat="50.06572" lon="1.42953">
        <ele>35.6</ele>
        <time>2020-06-18T15:08:34Z</time>
      </trkpt>
      <trkpt lat="50.06574" lon="1.4296">
        <ele>35.8</ele>
        <time>2020-06-18T15:08:35Z</time>
      </trkpt>
      <trkpt lat="50.06577" lon="1.42966">
        <ele>35.9</ele>
        <time>2020-06-18T15:08:36Z</time>
      </trkpt>
      <trkpt lat="50.06581" lon="1.42971">
        <ele>36</ele>
        <time>2020-06-18T15:08:37Z</time>
      </trkpt>
      <trkpt lat="50.06584" lon="1.42976">
        <ele>36.1</ele>
        <time>2020-06-18T15:08:38Z</time>
      </trkpt>
      <trkpt lat="50.06587" lon="1.42983">
        <ele>36.2</ele>
        <time>2020-06-18T15:08:39Z</time>
      </trkpt>
      <trkpt lat="50.06589" lon="1.42988">
        <ele>36.3</ele>
        <time>2020-06-18T15:08:40Z</time>
      </trkpt>
      <trkpt lat="50.06592" lon="1.42994">
        <ele>36.4</ele>
        <time>2020-06-18T15:08:41Z</time>
      </trkpt>
      <trkpt lat="50.06594" lon="1.42998">
        <ele>36.4</ele>
        <time>2020-06-18T15:08:42Z</time>
      </trkpt>
      <trkpt lat="50.06598" lon="1.43004">
        <ele>36.5</ele>
        <time>2020-06-18T15:08:43Z</time>
      </trkpt>
      <trkpt lat="50.06601" lon="1.43009">
        <ele>36.6</ele>
        <time>2020-06-18T15:08:44Z</time>
      </trkpt>
      <trkpt lat="50.06604" lon="1.43014">
        <ele>36.7</ele>
        <time>2020-06-18T15:08:45Z</time>
      </trkpt>
      <trkpt lat="50.06606" lon="1.43021">
        <ele>36.8</ele>
        <time>2020-06-18T15:08:46Z</time>
      </trkpt>
      <trkpt lat="50.06609" lon="1.43027">
        <ele>36.9</ele>
        <time>2020-06-18T15:08:47Z</time>
      </trkpt>
      <trkpt lat="50.06612" lon="1.43032">
        <ele>37</ele>
        <time>2020-06-18T15:08:48Z</time>
      </trkpt>
      <trkpt lat="50.06615" lon="1.43038">
        <ele>37.1</ele>
        <time>2020-06-18T15:08:49Z</time>
      </trkpt>
      <trkpt lat="50.06618" lon="1.43044">
        <ele>37.2</ele>
        <time>2020-06-18T15:08:50Z</time>
      </trkpt>
      <trkpt lat="50.06621" lon="1.4305">
        <ele>37.3</ele>
        <time>2020-06-18T15:08:51Z</time>
      </trkpt>
      <trkpt lat="50.06624" lon="1.43056">
        <ele>37.4</ele>
        <time>2020-06-18T15:08:52Z</time>
      </trkpt>
      <trkpt lat="50.06627" lon="1.43061">
        <ele>37.4</ele>
        <time>2020-06-18T15:08:53Z</time>
      </trkpt>
      <trkpt lat="50.06631" lon="1.43067">
        <ele>37.5</ele>
        <time>2020-06-18T15:08:54Z</time>
      </trkpt>
      <trkpt lat="50.06634" lon="1.43072">
        <ele>37.6</ele>
        <time>2020-06-18T15:08:55Z</time>
      </trkpt>
      <trkpt lat="50.06636" lon="1.43077">
        <ele>37.6</ele>
        <time>2020-06-18T15:08:56Z</time>
      </trkpt>
      <trkpt lat="50.0664" lon="1.43084">
        <ele>37.7</ele>
        <time>2020-06-18T15:08:57Z</time>
      </trkpt>
      <trkpt lat="50.06642" lon="1.43089">
        <ele>37.8</ele>
        <time>2020-06-18T15:08:58Z</time>
      </trkpt>
      <trkpt lat="50.06645" lon="1.43094">
        <ele>37.8</ele>
        <time>2020-06-18T15:08:59Z</time>
      </trkpt>
      <trkpt lat="50.06648" lon="1.43101">
        <ele>37.9</ele>
        <time>2020-06-18T15:09:00Z</time>
      </trkpt>
      <trkpt lat="50.06651" lon="1.43106">
        <ele>38</ele>
        <time>2020-06-18T15:09:01Z</time>
      </trkpt>
      <trkpt lat="50.06653" lon="1.43112">
        <ele>38</ele>
        <time>2020-06-18T15:09:02Z</time>
      </trkpt>
      <trkpt lat="50.06656" lon="1.43118">
        <ele>38.1</ele>
        <time>2020-06-18T15:09:03Z</time>
      </trkpt>
      <trkpt lat="50.06658" lon="1.43124">
        <ele>38.2</ele>
        <time>2020-06-18T15:09:04Z</time>
      </trkpt>
      <trkpt lat="50.0666" lon="1.4313">
        <ele>38.2</ele>
        <time>2020-06-18T15:09:05Z</time>
      </trkpt>
      <trkpt lat="50.06663" lon="1.43136">
        <ele>38.3</ele>
        <time>2020-06-18T15:09:06Z</time>
      </trkpt>
      <trkpt lat="50.06666" lon="1.4314">
        <ele>38.4</ele>
        <time>2020-06-18T15:09:07Z</time>
      </trkpt>
      <trkpt lat="50.06668" lon="1.43146">
        <ele>38.4</ele>
        <time>2020-06-18T15:09:08Z</time>
      </trkpt>
      <trkpt lat="50.06671" lon="1.43152">
        <ele>38.5</ele>
        <time>2020-06-18T15:09:09Z</time>
      </trkpt>
      <trkpt lat="50.06673" lon="1.43157">
        <ele>38.6</ele>
        <time>2020-06-18T15:09:10Z</time>
      </trkpt>
      <trkpt lat="50.06676" lon="1.43163">
        <ele>38.6</ele>
        <time>2020-06-18T15:09:11Z</time>
      </trkpt>
      <trkpt lat="50.06679" lon="1.43168">
        <ele>38.7</ele>
        <time>2020-06-18T15:09:12Z</time>
      </trkpt>
      <trkpt lat="50.06681" lon="1.43175">
        <ele>38.8</ele>
        <time>2020-06-18T15:09:13Z</time>
      </trkpt>
      <trkpt lat="50.06683" lon="1.43182">
        <ele>38.8</ele>
        <time>2020-06-18T15:09:14Z</time>
      </trkpt>
      <trkpt lat="50.06685" lon="1.43187">
        <ele>38.9</ele>
        <time>2020-06-18T15:09:15Z</time>
      </trkpt>
      <trkpt lat="50.06687" lon="1.43192">
        <ele>38.9</ele>
        <time>2020-06-18T15:09:16Z</time>
      </trkpt>
      <trkpt lat="50.0669" lon="1.43197">
        <ele>39</ele>
        <time>2020-06-18T15:09:17Z</time>
      </trkpt>
      <trkpt lat="50.06694" lon="1.43204">
        <ele>39</ele>
        <time>2020-06-18T15:09:18Z</time>
      </trkpt>
      <trkpt lat="50.06697" lon="1.43211">
        <ele>39.1</ele>
        <time>2020-06-18T15:09:19Z</time>
      </trkpt>
      <trkpt lat="50.06699" lon="1.43216">
        <ele>39.2</ele>
        <time>2020-06-18T15:09:20Z</time>
      </trkpt>
      <trkpt lat="50.06702" lon="1.43222">
        <ele>39.3</ele>
        <time>2020-06-18T15:09:21Z</time>
      </trkpt>
      <trkpt lat="50.06705" lon="1.43226">
        <ele>39.4</ele>
        <time>2020-06-18T15:09:22Z</time>
      </trkpt>
      <trkpt lat="50.06707" lon="1.43232">
        <ele>39.5</ele>
        <time>2020-06-18T15:09:23Z</time>
      </trkpt>
      <trkpt lat="50.0671" lon="1.43238">
        <ele>39.7</ele>
        <time>2020-06-18T15:09:24Z</time>
      </trkpt>
      <trkpt lat="50.06713" lon="1.43244">
        <ele>39.8</ele>
        <time>2020-06-18T15:09:25Z</time>
      </trkpt>
      <trkpt lat="50.06715" lon="1.4325">
        <ele>39.9</ele>
        <time>2020-06-18T15:09:26Z</time>
      </trkpt>
      <trkpt lat="50.06718" lon="1.43257">
        <ele>40</ele>
        <time>2020-06-18T15:09:27Z</time>
      </trkpt>
      <trkpt lat="50.06721" lon="1.43262">
        <ele>40.1</ele>
        <time>2020-06-18T15:09:28Z</time>
      </trkpt>
      <trkpt lat="50.06723" lon="1.43269">
        <ele>40.1</ele>
        <time>2020-06-18T15:09:29Z</time>
      </trkpt>
      <trkpt lat="50.06727" lon="1.43276">
        <ele>40.2</ele>
        <time>2020-06-18T15:09:30Z</time>
      </trkpt>
      <trkpt lat="50.0673" lon="1.43283">
        <ele>40.3</ele>
        <time>2020-06-18T15:09:31Z</time>
      </trkpt>
      <trkpt lat="50.06733" lon="1.43289">
        <ele>40.3</ele>
        <time>2020-06-18T15:09:32Z</time>
      </trkpt>
      <trkpt lat="50.06736" lon="1.43296">
        <ele>40.4</ele>
        <time>2020-06-18T15:09:33Z</time>
      </trkpt>
      <trkpt lat="50.06739" lon="1.43302">
        <ele>40.4</ele>
        <time>2020-06-18T15:09:34Z</time>
      </trkpt>
      <trkpt lat="50.06742" lon="1.43311">
        <ele>40.5</ele>
        <time>2020-06-18T15:09:35Z</time>
      </trkpt>
      <trkpt lat="50.06744" lon="1.43317">
        <ele>40.6</ele>
        <time>2020-06-18T15:09:36Z</time>
      </trkpt>
      <trkpt lat="50.06747" lon="1.43325">
        <ele>40.8</ele>
        <time>2020-06-18T15:09:37Z</time>
      </trkpt>
      <trkpt lat="50.06749" lon="1.43332">
        <ele>40.8</ele>
        <time>2020-06-18T15:09:38Z</time>
      </trkpt>
      <trkpt lat="50.06752" lon="1.43338">
        <ele>40.9</ele>
        <time>2020-06-18T15:09:39Z</time>
      </trkpt>
      <trkpt lat="50.06754" lon="1.43345">
        <ele>41</ele>
        <time>2020-06-18T15:09:40Z</time>
      </trkpt>
      <trkpt lat="50.06756" lon="1.43351">
        <ele>41</ele>
        <time>2020-06-18T15:09:41Z</time>
      </trkpt>
      <trkpt lat="50.06759" lon="1.43358">
        <ele>41.1</ele>
        <time>2020-06-18T15:09:42Z</time>
      </trkpt>
      <trkpt lat="50.06761" lon="1.43365">
        <ele>41.2</ele>
        <time>2020-06-18T15:09:43Z</time>
      </trkpt>
      <trkpt lat="50.06764" lon="1.43371">
        <ele>41.2</ele>
        <time>2020-06-18T15:09:44Z</time>
      </trkpt>
      <trkpt lat="50.06766" lon="1.43377">
        <ele>41.3</ele>
        <time>2020-06-18T15:09:45Z</time>
      </trkpt>
      <trkpt lat="50.06769" lon="1.43385">
        <ele>41.4</ele>
        <time>2020-06-18T15:09:46Z</time>
      </trkpt>
      <trkpt lat="50.06772" lon="1.43394">
        <ele>41.5</ele>
        <time>2020-06-18T15:09:47Z</time>
      </trkpt>
      <trkpt lat="50.06774" lon="1.43402">
        <ele>41.6</ele>
        <time>2020-06-18T15:09:48Z</time>
      </trkpt>
      <trkpt lat="50.06776" lon="1.43411">
        <ele>41.8</ele>
        <time>2020-06-18T15:09:49Z</time>
      </trkpt>
      <trkpt lat="50.06778" lon="1.43418">
        <ele>41.9</ele>
        <time>2020-06-18T15:09:50Z</time>
      </trkpt>
      <trkpt lat="50.06781" lon="1.43427">
        <ele>42.1</ele>
        <time>2020-06-18T15:09:51Z</time>
      </trkpt>
      <trkpt lat="50.06783" lon="1.43435">
        <ele>42.2</ele>
        <time>2020-06-18T15:09:52Z</time>
      </trkpt>
      <trkpt lat="50.06785" lon="1.43443">
        <ele>42.3</ele>
        <time>2020-06-18T15:09:53Z</time>
      </trkpt>
      <trkpt lat="50.06787" lon="1.43451">
        <ele>42.4</ele>
        <time>2020-06-18T15:09:54Z</time>
      </trkpt>
      <trkpt lat="50.06788" lon="1.43458">
        <ele>42.5</ele>
        <time>2020-06-18T15:09:55Z</time>
      </trkpt>
      <trkpt lat="50.0679" lon="1.43465">
        <ele>42.5</ele>
        <time>2020-06-18T15:09:56Z</time>
      </trkpt>
      <trkpt lat="50.06792" lon="1.43472">
        <ele>42.6</ele>
        <time>2020-06-18T15:09:57Z</time>
      </trkpt>
      <trkpt lat="50.06794" lon="1.4348">
        <ele>42.7</ele>
        <time>2020-06-18T15:09:58Z</time>
      </trkpt>
      <trkpt lat="50.06795" lon="1.43487">
        <ele>42.7</ele>
        <time>2020-06-18T15:09:59Z</time>
      </trkpt>
      <trkpt lat="50.06798" lon="1.43494">
        <ele>42.8</ele>
        <time>2020-06-18T15:10:00Z</time>
      </trkpt>
      <trkpt lat="50.06801" lon="1.43502">
        <ele>42.9</ele>
        <time>2020-06-18T15:10:01Z</time>
      </trkpt>
      <trkpt lat="50.06803" lon="1.43509">
        <ele>42.9</ele>
        <time>2020-06-18T15:10:02Z</time>
      </trkpt>
      <trkpt lat="50.06805" lon="1.43517">
        <ele>43</ele>
        <time>2020-06-18T15:10:03Z</time>
      </trkpt>
      <trkpt lat="50.06807" lon="1.43525">
        <ele>43.1</ele>
        <time>2020-06-18T15:10:04Z</time>
      </trkpt>
      <trkpt lat="50.06808" lon="1.43532">
        <ele>43.2</ele>
        <time>2020-06-18T15:10:05Z</time>
      </trkpt>
      <trkpt lat="50.06809" lon="1.43539">
        <ele>43.3</ele>
        <time>2020-06-18T15:10:06Z</time>
      </trkpt>
      <trkpt lat="50.0681" lon="1.43545">
        <ele>43.4</ele>
        <time>2020-06-18T15:10:07Z</time>
      </trkpt>
      <trkpt lat="50.06812" lon="1.43552">
        <ele>43.5</ele>
        <time>2020-06-18T15:10:08Z</time>
      </trkpt>
      <trkpt lat="50.06813" lon="1.43559">
        <ele>43.7</ele>
        <time>2020-06-18T15:10:09Z</time>
      </trkpt>
      <trkpt lat="50.06816" lon="1.43565">
        <ele>43.8</ele>
        <time>2020-06-18T15:10:10Z</time>
      </trkpt>
      <trkpt lat="50.06817" lon="1.43572">
        <ele>43.9</ele>
        <time>2020-06-18T15:10:11Z</time>
      </trkpt>
      <trkpt lat="50.06819" lon="1.43579">
        <ele>44</ele>
        <time>2020-06-18T15:10:12Z</time>
      </trkpt>
      <trkpt lat="50.0682" lon="1.43586">
        <ele>44.1</ele>
        <time>2020-06-18T15:10:13Z</time>
      </trkpt>
      <trkpt lat="50.06822" lon="1.43593">
        <ele>44.3</ele>
        <time>2020-06-18T15:10:14Z</time>
      </trkpt>
      <trkpt lat="50.06823" lon="1.43599">
        <ele>44.4</ele>
        <time>2020-06-18T15:10:15Z</time>
      </trkpt>
      <trkpt lat="50.06825" lon="1.43606">
        <ele>44.5</ele>
        <time>2020-06-18T15:10:16Z</time>
      </trkpt>
      <trkpt lat="50.06826" lon="1.43612">
        <ele>44.7</ele>
        <time>2020-06-18T15:10:17Z</time>
      </trkpt>
      <trkpt lat="50.06828" lon="1.43618">
        <ele>44.8</ele>
        <time>2020-06-18T15:10:18Z</time>
      </trkpt>
      <trkpt lat="50.0683" lon="1.43625">
        <ele>45</ele>
        <time>2020-06-18T15:10:19Z</time>
      </trkpt>
      <trkpt lat="50.06831" lon="1.43633">
        <ele>45.2</ele>
        <time>2020-06-18T15:10:20Z</time>
      </trkpt>
      <trkpt lat="50.06832" lon="1.4364">
        <ele>45.4</ele>
        <time>2020-06-18T15:10:21Z</time>
      </trkpt>
      <trkpt lat="50.06833" lon="1.43646">
        <ele>45.6</ele>
        <time>2020-06-18T15:10:22Z</time>
      </trkpt>
      <trkpt lat="50.06834" lon="1.43652">
        <ele>45.8</ele>
        <time>2020-06-18T15:10:23Z</time>
      </trkpt>
      <trkpt lat="50.06835" lon="1.43658">
        <ele>45.9</ele>
        <time>2020-06-18T15:10:24Z</time>
      </trkpt>
      <trkpt lat="50.06837" lon="1.43663">
        <ele>46</ele>
        <time>2020-06-18T15:10:25Z</time>
      </trkpt>
      <trkpt lat="50.06838" lon="1.4367">
        <ele>46.2</ele>
        <time>2020-06-18T15:10:26Z</time>
      </trkpt>
      <trkpt lat="50.0684" lon="1.43677">
        <ele>46.4</ele>
        <time>2020-06-18T15:10:27Z</time>
      </trkpt>
      <trkpt lat="50.06841" lon="1.43683">
        <ele>46.5</ele>
        <time>2020-06-18T15:10:28Z</time>
      </trkpt>
      <trkpt lat="50.06842" lon="1.43689">
        <ele>46.7</ele>
        <time>2020-06-18T15:10:29Z</time>
      </trkpt>
      <trkpt lat="50.06844" lon="1.43697">
        <ele>46.8</ele>
        <time>2020-06-18T15:10:30Z</time>
      </trkpt>
      <trkpt lat="50.06846" lon="1.43703">
        <ele>47</ele>
        <time>2020-06-18T15:10:31Z</time>
      </trkpt>
      <trkpt lat="50.06847" lon="1.4371">
        <ele>47.2</ele>
        <time>2020-06-18T15:10:32Z</time>
      </trkpt>
      <trkpt lat="50.06847" lon="1.43719">
        <ele>47.3</ele>
        <time>2020-06-18T15:10:33Z</time>
      </trkpt>
      <trkpt lat="50.06849" lon="1.43726">
        <ele>47.5</ele>
        <time>2020-06-18T15:10:34Z</time>
      </trkpt>
      <trkpt lat="50.06849" lon="1.43733">
        <ele>47.6</ele>
        <time>2020-06-18T15:10:35Z</time>
      </trkpt>
      <trkpt lat="50.06851" lon="1.43739">
        <ele>47.7</ele>
        <time>2020-06-18T15:10:36Z</time>
      </trkpt>
      <trkpt lat="50.06852" lon="1.43747">
        <ele>47.9</ele>
        <time>2020-06-18T15:10:37Z</time>
      </trkpt>
      <trkpt lat="50.06854" lon="1.43755">
        <ele>48</ele>
        <time>2020-06-18T15:10:38Z</time>
      </trkpt>
      <trkpt lat="50.06855" lon="1.43763">
        <ele>48.1</ele>
        <time>2020-06-18T15:10:39Z</time>
      </trkpt>
      <trkpt lat="50.06856" lon="1.4377">
        <ele>48.1</ele>
        <time>2020-06-18T15:10:40Z</time>
      </trkpt>
      <trkpt lat="50.06856" lon="1.43777">
        <ele>48.2</ele>
        <time>2020-06-18T15:10:41Z</time>
      </trkpt>
      <trkpt lat="50.06857" lon="1.43785">
        <ele>48.3</ele>
        <time>2020-06-18T15:10:42Z</time>
      </trkpt>
      <trkpt lat="50.06858" lon="1.43792">
        <ele>48.4</ele>
        <time>2020-06-18T15:10:43Z</time>
      </trkpt>
      <trkpt lat="50.0686" lon="1.43799">
        <ele>48.4</ele>
        <time>2020-06-18T15:10:44Z</time>
      </trkpt>
      <trkpt lat="50.0686" lon="1.43807">
        <ele>48.5</ele>
        <time>2020-06-18T15:10:45Z</time>
      </trkpt>
      <trkpt lat="50.0686" lon="1.43814">
        <ele>48.6</ele>
        <time>2020-06-18T15:10:46Z</time>
      </trkpt>
      <trkpt lat="50.0686" lon="1.43821">
        <ele>48.6</ele>
        <time>2020-06-18T15:10:47Z</time>
      </trkpt>
      <trkpt lat="50.06859" lon="1.43827">
        <ele>48.7</ele>
        <time>2020-06-18T15:10:48Z</time>
      </trkpt>
      <trkpt lat="50.06858" lon="1.43833">
        <ele>48.7</ele>
        <time>2020-06-18T15:10:49Z</time>
      </trkpt>
      <trkpt lat="50.06859" lon="1.43839">
        <ele>48.8</ele>
        <time>2020-06-18T15:10:50Z</time>
      </trkpt>
      <trkpt lat="50.06859" lon="1.43846">
        <ele>48.9</ele>
        <time>2020-06-18T15:10:51Z</time>
      </trkpt>
      <trkpt lat="50.06858" lon="1.43851">
        <ele>49</ele>
        <time>2020-06-18T15:10:52Z</time>
      </trkpt>
      <trkpt lat="50.06858" lon="1.43858">
        <ele>49.1</ele>
        <time>2020-06-18T15:10:53Z</time>
      </trkpt>
      <trkpt lat="50.06858" lon="1.43864">
        <ele>49.2</ele>
        <time>2020-06-18T15:10:54Z</time>
      </trkpt>
      <trkpt lat="50.06857" lon="1.4387">
        <ele>49.3</ele>
        <time>2020-06-18T15:10:55Z</time>
      </trkpt>
      <trkpt lat="50.06856" lon="1.43877">
        <ele>49.4</ele>
        <time>2020-06-18T15:10:56Z</time>
      </trkpt>
      <trkpt lat="50.06855" lon="1.43884">
        <ele>49.6</ele>
        <time>2020-06-18T15:10:57Z</time>
      </trkpt>
      <trkpt lat="50.06854" lon="1.43891">
        <ele>49.8</ele>
        <time>2020-06-18T15:10:58Z</time>
      </trkpt>
      <trkpt lat="50.06853" lon="1.43898">
        <ele>50</ele>
        <time>2020-06-18T15:10:59Z</time>
      </trkpt>
      <trkpt lat="50.06852" lon="1.43906">
        <ele>50.2</ele>
        <time>2020-06-18T15:11:00Z</time>
      </trkpt>
      <trkpt lat="50.06851" lon="1.43914">
        <ele>50.3</ele>
        <time>2020-06-18T15:11:01Z</time>
      </trkpt>
      <trkpt lat="50.06851" lon="1.43921">
        <ele>50.5</ele>
        <time>2020-06-18T15:11:02Z</time>
      </trkpt>
      <trkpt lat="50.06851" lon="1.43928">
        <ele>50.7</ele>
        <time>2020-06-18T15:11:03Z</time>
      </trkpt>
      <trkpt lat="50.06851" lon="1.43934">
        <ele>50.8</ele>
        <time>2020-06-18T15:11:04Z</time>
      </trkpt>
      <trkpt lat="50.06851" lon="1.43941">
        <ele>51</ele>
        <time>2020-06-18T15:11:05Z</time>
      </trkpt>
      <trkpt lat="50.06851" lon="1.43949">
        <ele>51.2</ele>
        <time>2020-06-18T15:11:06Z</time>
      </trkpt>
      <trkpt lat="50.06851" lon="1.43957">
        <ele>51.4</ele>
        <time>2020-06-18T15:11:07Z</time>
      </trkpt>
      <trkpt lat="50.0685" lon="1.43964">
        <ele>51.6</ele>
        <time>2020-06-18T15:11:08Z</time>
      </trkpt>
      <trkpt lat="50.06851" lon="1.43971">
        <ele>51.8</ele>
        <time>2020-06-18T15:11:09Z</time>
      </trkpt>
      <trkpt lat="50.06852" lon="1.43978">
        <ele>51.9</ele>
        <time>2020-06-18T15:11:10Z</time>
      </trkpt>
      <trkpt lat="50.06852" lon="1.43987">
        <ele>52.1</ele>
        <time>2020-06-18T15:11:11Z</time>
      </trkpt>
      <trkpt lat="50.06851" lon="1.43994">
        <ele>52.3</ele>
        <time>2020-06-18T15:11:12Z</time>
      </trkpt>
      <trkpt lat="50.06852" lon="1.44">
        <ele>52.5</ele>
        <time>2020-06-18T15:11:13Z</time>
      </trkpt>
      <trkpt lat="50.06851" lon="1.44006">
        <ele>52.6</ele>
        <time>2020-06-18T15:11:14Z</time>
      </trkpt>
      <trkpt lat="50.0685" lon="1.44014">
        <ele>52.8</ele>
        <time>2020-06-18T15:11:15Z</time>
      </trkpt>
      <trkpt lat="50.06849" lon="1.44021">
        <ele>53</ele>
        <time>2020-06-18T15:11:16Z</time>
      </trkpt>
      <trkpt lat="50.0685" lon="1.44028">
        <ele>53.2</ele>
        <time>2020-06-18T15:11:17Z</time>
      </trkpt>
      <trkpt lat="50.0685" lon="1.44036">
        <ele>53.4</ele>
        <time>2020-06-18T15:11:18Z</time>
      </trkpt>
      <trkpt lat="50.0685" lon="1.44043">
        <ele>53.6</ele>
        <time>2020-06-18T15:11:19Z</time>
      </trkpt>
      <trkpt lat="50.06848" lon="1.44049">
        <ele>53.8</ele>
        <time>2020-06-18T15:11:20Z</time>
      </trkpt>
      <trkpt lat="50.06848" lon="1.44056">
        <ele>53.9</ele>
        <time>2020-06-18T15:11:21Z</time>
      </trkpt>
      <trkpt lat="50.06848" lon="1.44061">
        <ele>54.1</ele>
        <time>2020-06-18T15:11:22Z</time>
      </trkpt>
      <trkpt lat="50.06848" lon="1.44067">
        <ele>54.3</ele>
        <time>2020-06-18T15:11:23Z</time>
      </trkpt>
      <trkpt lat="50.06847" lon="1.44073">
        <ele>54.4</ele>
        <time>2020-06-18T15:11:24Z</time>
      </trkpt>
      <trkpt lat="50.06846" lon="1.44078">
        <ele>54.6</ele>
        <time>2020-06-18T15:11:25Z</time>
      </trkpt>
      <trkpt lat="50.06846" lon="1.44085">
        <ele>54.7</ele>
        <time>2020-06-18T15:11:26Z</time>
      </trkpt>
      <trkpt lat="50.06845" lon="1.44093">
        <ele>55</ele>
        <time>2020-06-18T15:11:27Z</time>
      </trkpt>
      <trkpt lat="50.06844" lon="1.44099">
        <ele>55.1</ele>
        <time>2020-06-18T15:11:28Z</time>
      </trkpt>
      <trkpt lat="50.06843" lon="1.44106">
        <ele>55.3</ele>
        <time>2020-06-18T15:11:29Z</time>
      </trkpt>
      <trkpt lat="50.06842" lon="1.44111">
        <ele>55.5</ele>
        <time>2020-06-18T15:11:30Z</time>
      </trkpt>
      <trkpt lat="50.06842" lon="1.44118">
        <ele>55.7</ele>
        <time>2020-06-18T15:11:31Z</time>
      </trkpt>
      <trkpt lat="50.06841" lon="1.44124">
        <ele>55.9</ele>
        <time>2020-06-18T15:11:32Z</time>
      </trkpt>
      <trkpt lat="50.0684" lon="1.4413">
        <ele>56.1</ele>
        <time>2020-06-18T15:11:33Z</time>
      </trkpt>
      <trkpt lat="50.06839" lon="1.44137">
        <ele>56.3</ele>
        <time>2020-06-18T15:11:34Z</time>
      </trkpt>
      <trkpt lat="50.06839" lon="1.44143">
        <ele>56.4</ele>
        <time>2020-06-18T15:11:35Z</time>
      </trkpt>
      <trkpt lat="50.06838" lon="1.4415">
        <ele>56.6</ele>
        <time>2020-06-18T15:11:36Z</time>
      </trkpt>
      <trkpt lat="50.06837" lon="1.44158">
        <ele>56.7</ele>
        <time>2020-06-18T15:11:37Z</time>
      </trkpt>
      <trkpt lat="50.06837" lon="1.44166">
        <ele>56.9</ele>
        <time>2020-06-18T15:11:38Z</time>
      </trkpt>
      <trkpt lat="50.06837" lon="1.44174">
        <ele>57.1</ele>
        <time>2020-06-18T15:11:39Z</time>
      </trkpt>
      <trkpt lat="50.06835" lon="1.44182">
        <ele>57.3</ele>
        <time>2020-06-18T15:11:40Z</time>
      </trkpt>
      <trkpt lat="50.06834" lon="1.44191">
        <ele>57.6</ele>
        <time>2020-06-18T15:11:41Z</time>
      </trkpt>
      <trkpt lat="50.06833" lon="1.44197">
        <ele>57.7</ele>
        <time>2020-06-18T15:11:42Z</time>
      </trkpt>
      <trkpt lat="50.06832" lon="1.44203">
        <ele>57.9</ele>
        <time>2020-06-18T15:11:43Z</time>
      </trkpt>
      <trkpt lat="50.06831" lon="1.44212">
        <ele>58.2</ele>
        <time>2020-06-18T15:11:44Z</time>
      </trkpt>
      <trkpt lat="50.06829" lon="1.44218">
        <ele>58.4</ele>
        <time>2020-06-18T15:11:45Z</time>
      </trkpt>
      <trkpt lat="50.06828" lon="1.44223">
        <ele>58.6</ele>
        <time>2020-06-18T15:11:46Z</time>
      </trkpt>
      <trkpt lat="50.06826" lon="1.4423">
        <ele>58.8</ele>
        <time>2020-06-18T15:11:47Z</time>
      </trkpt>
      <trkpt lat="50.06826" lon="1.44238">
        <ele>59</ele>
        <time>2020-06-18T15:11:48Z</time>
      </trkpt>
      <trkpt lat="50.06825" lon="1.44245">
        <ele>59.2</ele>
        <time>2020-06-18T15:11:49Z</time>
      </trkpt>
      <trkpt lat="50.06824" lon="1.44252">
        <ele>59.4</ele>
        <time>2020-06-18T15:11:50Z</time>
      </trkpt>
      <trkpt lat="50.06824" lon="1.4426">
        <ele>59.5</ele>
        <time>2020-06-18T15:11:51Z</time>
      </trkpt>
      <trkpt lat="50.06823" lon="1.44267">
        <ele>59.7</ele>
        <time>2020-06-18T15:11:52Z</time>
      </trkpt>
      <trkpt lat="50.06822" lon="1.44273">
        <ele>59.8</ele>
        <time>2020-06-18T15:11:53Z</time>
      </trkpt>
      <trkpt lat="50.06822" lon="1.44281">
        <ele>60</ele>
        <time>2020-06-18T15:11:54Z</time>
      </trkpt>
      <trkpt lat="50.06821" lon="1.44288">
        <ele>60.2</ele>
        <time>2020-06-18T15:11:55Z</time>
      </trkpt>
      <trkpt lat="50.0682" lon="1.44295">
        <ele>60.4</ele>
        <time>2020-06-18T15:11:56Z</time>
      </trkpt>
      <trkpt lat="50.06819" lon="1.44303">
        <ele>60.6</ele>
        <time>2020-06-18T15:11:57Z</time>
      </trkpt>
      <trkpt lat="50.06819" lon="1.44309">
        <ele>60.7</ele>
        <time>2020-06-18T15:11:58Z</time>
      </trkpt>
      <trkpt lat="50.06818" lon="1.44316">
        <ele>60.9</ele>
        <time>2020-06-18T15:11:59Z</time>
      </trkpt>
      <trkpt lat="50.06817" lon="1.44323">
        <ele>61.1</ele>
        <time>2020-06-18T15:12:00Z</time>
      </trkpt>
      <trkpt lat="50.06816" lon="1.4433">
        <ele>61.2</ele>
        <time>2020-06-18T15:12:01Z</time>
      </trkpt>
      <trkpt lat="50.06814" lon="1.44338">
        <ele>61.4</ele>
        <time>2020-06-18T15:12:02Z</time>
      </trkpt>
      <trkpt lat="50.06813" lon="1.44345">
        <ele>61.6</ele>
        <time>2020-06-18T15:12:03Z</time>
      </trkpt>
      <trkpt lat="50.06812" lon="1.44353">
        <ele>61.8</ele>
        <time>2020-06-18T15:12:04Z</time>
      </trkpt>
      <trkpt lat="50.06811" lon="1.4436">
        <ele>61.9</ele>
        <time>2020-06-18T15:12:05Z</time>
      </trkpt>
      <trkpt lat="50.0681" lon="1.44368">
        <ele>62.1</ele>
        <time>2020-06-18T15:12:06Z</time>
      </trkpt>
      <trkpt lat="50.0681" lon="1.44376">
        <ele>62.2</ele>
        <time>2020-06-18T15:12:07Z</time>
      </trkpt>
      <trkpt lat="50.06809" lon="1.44383">
        <ele>62.4</ele>
        <time>2020-06-18T15:12:08Z</time>
      </trkpt>
      <trkpt lat="50.06808" lon="1.4439">
        <ele>62.5</ele>
        <time>2020-06-18T15:12:09Z</time>
      </trkpt>
      <trkpt lat="50.06807" lon="1.44397">
        <ele>62.5</ele>
        <time>2020-06-18T15:12:10Z</time>
      </trkpt>
      <trkpt lat="50.06806" lon="1.44404">
        <ele>62.6</ele>
        <time>2020-06-18T15:12:11Z</time>
      </trkpt>
      <trkpt lat="50.06805" lon="1.44411">
        <ele>62.7</ele>
        <time>2020-06-18T15:12:12Z</time>
      </trkpt>
      <trkpt lat="50.06804" lon="1.44418">
        <ele>62.7</ele>
        <time>2020-06-18T15:12:13Z</time>
      </trkpt>
      <trkpt lat="50.06804" lon="1.44424">
        <ele>62.8</ele>
        <time>2020-06-18T15:12:14Z</time>
      </trkpt>
      <trkpt lat="50.06804" lon="1.44432">
        <ele>62.9</ele>
        <time>2020-06-18T15:12:15Z</time>
      </trkpt>
      <trkpt lat="50.06803" lon="1.4444">
        <ele>62.9</ele>
        <time>2020-06-18T15:12:16Z</time>
      </trkpt>
      <trkpt lat="50.06802" lon="1.44445">
        <ele>63</ele>
        <time>2020-06-18T15:12:17Z</time>
      </trkpt>
      <trkpt lat="50.06801" lon="1.44451">
        <ele>63</ele>
        <time>2020-06-18T15:12:18Z</time>
      </trkpt>
      <trkpt lat="50.06799" lon="1.44457">
        <ele>63</ele>
        <time>2020-06-18T15:12:19Z</time>
      </trkpt>
      <trkpt lat="50.06799" lon="1.44463">
        <ele>63.1</ele>
        <time>2020-06-18T15:12:20Z</time>
      </trkpt>
      <trkpt lat="50.06799" lon="1.4447">
        <ele>63.1</ele>
        <time>2020-06-18T15:12:21Z</time>
      </trkpt>
      <trkpt lat="50.068" lon="1.44478">
        <ele>63.2</ele>
        <time>2020-06-18T15:12:22Z</time>
      </trkpt>
      <trkpt lat="50.06799" lon="1.44486">
        <ele>63.3</ele>
        <time>2020-06-18T15:12:23Z</time>
      </trkpt>
      <trkpt lat="50.06799" lon="1.44493">
        <ele>63.3</ele>
        <time>2020-06-18T15:12:24Z</time>
      </trkpt>
      <trkpt lat="50.068" lon="1.445">
        <ele>63.4</ele>
        <time>2020-06-18T15:12:25Z</time>
      </trkpt>
      <trkpt lat="50.06799" lon="1.44507">
        <ele>63.4</ele>
        <time>2020-06-18T15:12:26Z</time>
      </trkpt>
      <trkpt lat="50.06798" lon="1.44515">
        <ele>63.5</ele>
        <time>2020-06-18T15:12:27Z</time>
      </trkpt>
      <trkpt lat="50.06799" lon="1.44524">
        <ele>63.6</ele>
        <time>2020-06-18T15:12:28Z</time>
      </trkpt>
      <trkpt lat="50.06799" lon="1.44532">
        <ele>63.7</ele>
        <time>2020-06-18T15:12:29Z</time>
      </trkpt>
      <trkpt lat="50.06799" lon="1.44541">
        <ele>63.8</ele>
        <time>2020-06-18T15:12:30Z</time>
      </trkpt>
      <trkpt lat="50.068" lon="1.44552">
        <ele>63.9</ele>
        <time>2020-06-18T15:12:31Z</time>
      </trkpt>
      <trkpt lat="50.06802" lon="1.44561">
        <ele>64</ele>
        <time>2020-06-18T15:12:32Z</time>
      </trkpt>
      <trkpt lat="50.06804" lon="1.44567">
        <ele>64.1</ele>
        <time>2020-06-18T15:12:33Z</time>
      </trkpt>
      <trkpt lat="50.06805" lon="1.44575">
        <ele>64.2</ele>
        <time>2020-06-18T15:12:34Z</time>
      </trkpt>
      <trkpt lat="50.06806" lon="1.44582">
        <ele>64.3</ele>
        <time>2020-06-18T15:12:35Z</time>
      </trkpt>
      <trkpt lat="50.06809" lon="1.44591">
        <ele>64.4</ele>
        <time>2020-06-18T15:12:36Z</time>
      </trkpt>
      <trkpt lat="50.0681" lon="1.44597">
        <ele>64.5</ele>
        <time>2020-06-18T15:12:37Z</time>
      </trkpt>
      <trkpt lat="50.06811" lon="1.44604">
        <ele>64.6</ele>
        <time>2020-06-18T15:12:38Z</time>
      </trkpt>
      <trkpt lat="50.06812" lon="1.44611">
        <ele>64.7</ele>
        <time>2020-06-18T15:12:39Z</time>
      </trkpt>
      <trkpt lat="50.06813" lon="1.44618">
        <ele>64.9</ele>
        <time>2020-06-18T15:12:40Z</time>
      </trkpt>
      <trkpt lat="50.06814" lon="1.44626">
        <ele>65</ele>
        <time>2020-06-18T15:12:41Z</time>
      </trkpt>
      <trkpt lat="50.06816" lon="1.44632">
        <ele>65.2</ele>
        <time>2020-06-18T15:12:42Z</time>
      </trkpt>
      <trkpt lat="50.06818" lon="1.44637">
        <ele>65.3</ele>
        <time>2020-06-18T15:12:43Z</time>
      </trkpt>
      <trkpt lat="50.06822" lon="1.44643">
        <ele>65.5</ele>
        <time>2020-06-18T15:12:44Z</time>
      </trkpt>
      <trkpt lat="50.06825" lon="1.4465">
        <ele>65.7</ele>
        <time>2020-06-18T15:12:45Z</time>
      </trkpt>
      <trkpt lat="50.06827" lon="1.44656">
        <ele>65.9</ele>
        <time>2020-06-18T15:12:46Z</time>
      </trkpt>
      <trkpt lat="50.06829" lon="1.44661">
        <ele>66.1</ele>
        <time>2020-06-18T15:12:47Z</time>
      </trkpt>
      <trkpt lat="50.06831" lon="1.44668">
        <ele>66.3</ele>
        <time>2020-06-18T15:12:48Z</time>
      </trkpt>
      <trkpt lat="50.06832" lon="1.44674">
        <ele>66.5</ele>
        <time>2020-06-18T15:12:49Z</time>
      </trkpt>
      <trkpt lat="50.06833" lon="1.4468">
        <ele>66.7</ele>
        <time>2020-06-18T15:12:50Z</time>
      </trkpt>
      <trkpt lat="50.06834" lon="1.44682">
        <ele>66.8</ele>
        <time>2020-06-18T15:12:51Z</time>
      </trkpt>
      <trkpt lat="50.06835" lon="1.44688">
        <ele>67</ele>
        <time>2020-06-18T15:12:52Z</time>
      </trkpt>
      <trkpt lat="50.06837" lon="1.44692">
        <ele>67.2</ele>
        <time>2020-06-18T15:12:53Z</time>
      </trkpt>
      <trkpt lat="50.06839" lon="1.44699">
        <ele>67.4</ele>
        <time>2020-06-18T15:12:54Z</time>
      </trkpt>
      <trkpt lat="50.0684" lon="1.44704">
        <ele>67.6</ele>
        <time>2020-06-18T15:12:55Z</time>
      </trkpt>
      <trkpt lat="50.06842" lon="1.44713">
        <ele>67.9</ele>
        <time>2020-06-18T15:12:56Z</time>
      </trkpt>
      <trkpt lat="50.06843" lon="1.44718">
        <ele>68</ele>
        <time>2020-06-18T15:12:57Z</time>
      </trkpt>
      <trkpt lat="50.06845" lon="1.44724">
        <ele>68.2</ele>
        <time>2020-06-18T15:12:58Z</time>
      </trkpt>
      <trkpt lat="50.06847" lon="1.44731">
        <ele>68.5</ele>
        <time>2020-06-18T15:12:59Z</time>
      </trkpt>
      <trkpt lat="50.0685" lon="1.44738">
        <ele>68.8</ele>
        <time>2020-06-18T15:13:00Z</time>
      </trkpt>
      <trkpt lat="50.06852" lon="1.44745">
        <ele>69</ele>
        <time>2020-06-18T15:13:01Z</time>
      </trkpt>
      <trkpt lat="50.06854" lon="1.44752">
        <ele>69.2</ele>
        <time>2020-06-18T15:13:02Z</time>
      </trkpt>
      <trkpt lat="50.06855" lon="1.44756">
        <ele>69.5</ele>
        <time>2020-06-18T15:13:03Z</time>
      </trkpt>
      <trkpt lat="50.06857" lon="1.44761">
        <ele>69.7</ele>
        <time>2020-06-18T15:13:04Z</time>
      </trkpt>
      <trkpt lat="50.06859" lon="1.44766">
        <ele>70</ele>
        <time>2020-06-18T15:13:05Z</time>
      </trkpt>
      <trkpt lat="50.06861" lon="1.44771">
        <ele>70.2</ele>
        <time>2020-06-18T15:13:06Z</time>
      </trkpt>
      <trkpt lat="50.06863" lon="1.44777">
        <ele>70.5</ele>
        <time>2020-06-18T15:13:07Z</time>
      </trkpt>
      <trkpt lat="50.06865" lon="1.44784">
        <ele>70.7</ele>
        <time>2020-06-18T15:13:08Z</time>
      </trkpt>
      <trkpt lat="50.06868" lon="1.4479">
        <ele>70.9</ele>
        <time>2020-06-18T15:13:09Z</time>
      </trkpt>
      <trkpt lat="50.06869" lon="1.44796">
        <ele>71.1</ele>
        <time>2020-06-18T15:13:10Z</time>
      </trkpt>
      <trkpt lat="50.0687" lon="1.44803">
        <ele>71.4</ele>
        <time>2020-06-18T15:13:11Z</time>
      </trkpt>
      <trkpt lat="50.06872" lon="1.44809">
        <ele>71.6</ele>
        <time>2020-06-18T15:13:12Z</time>
      </trkpt>
      <trkpt lat="50.06874" lon="1.44815">
        <ele>71.9</ele>
        <time>2020-06-18T15:13:13Z</time>
      </trkpt>
      <trkpt lat="50.06876" lon="1.4482">
        <ele>72.1</ele>
        <time>2020-06-18T15:13:14Z</time>
      </trkpt>
      <trkpt lat="50.06877" lon="1.44827">
        <ele>72.3</ele>
        <time>2020-06-18T15:13:15Z</time>
      </trkpt>
      <trkpt lat="50.06879" lon="1.44834">
        <ele>72.5</ele>
        <time>2020-06-18T15:13:16Z</time>
      </trkpt>
      <trkpt lat="50.06881" lon="1.4484">
        <ele>72.8</ele>
        <time>2020-06-18T15:13:17Z</time>
      </trkpt>
      <trkpt lat="50.06883" lon="1.44847">
        <ele>73</ele>
        <time>2020-06-18T15:13:18Z</time>
      </trkpt>
      <trkpt lat="50.06886" lon="1.44854">
        <ele>73.3</ele>
        <time>2020-06-18T15:13:19Z</time>
      </trkpt>
      <trkpt lat="50.06888" lon="1.44859">
        <ele>73.4</ele>
        <time>2020-06-18T15:13:20Z</time>
      </trkpt>
      <trkpt lat="50.06889" lon="1.44863">
        <ele>73.6</ele>
        <time>2020-06-18T15:13:21Z</time>
      </trkpt>
      <trkpt lat="50.0689" lon="1.44868">
        <ele>73.7</ele>
        <time>2020-06-18T15:13:22Z</time>
      </trkpt>
      <trkpt lat="50.06892" lon="1.44872">
        <ele>73.8</ele>
        <time>2020-06-18T15:13:23Z</time>
      </trkpt>
      <trkpt lat="50.06893" lon="1.44876">
        <ele>73.9</ele>
        <time>2020-06-18T15:13:24Z</time>
      </trkpt>
      <trkpt lat="50.06895" lon="1.44881">
        <ele>74.1</ele>
        <time>2020-06-18T15:13:25Z</time>
      </trkpt>
      <trkpt lat="50.06896" lon="1.44885">
        <ele>74.2</ele>
        <time>2020-06-18T15:13:26Z</time>
      </trkpt>
      <trkpt lat="50.06898" lon="1.44891">
        <ele>74.4</ele>
        <time>2020-06-18T15:13:27Z</time>
      </trkpt>
      <trkpt lat="50.069" lon="1.44895">
        <ele>74.5</ele>
        <time>2020-06-18T15:13:28Z</time>
      </trkpt>
      <trkpt lat="50.06902" lon="1.44901">
        <ele>74.6</ele>
        <time>2020-06-18T15:13:29Z</time>
      </trkpt>
      <trkpt lat="50.06905" lon="1.44908">
        <ele>74.8</ele>
        <time>2020-06-18T15:13:30Z</time>
      </trkpt>
      <trkpt lat="50.06907" lon="1.44913">
        <ele>74.9</ele>
        <time>2020-06-18T15:13:31Z</time>
      </trkpt>
      <trkpt lat="50.0691" lon="1.44918">
        <ele>75</ele>
        <time>2020-06-18T15:13:32Z</time>
      </trkpt>
      <trkpt lat="50.06913" lon="1.44922">
        <ele>75.1</ele>
        <time>2020-06-18T15:13:33Z</time>
      </trkpt>
      <trkpt lat="50.06915" lon="1.44926">
        <ele>75.2</ele>
        <time>2020-06-18T15:13:34Z</time>
      </trkpt>
      <trkpt lat="50.06918" lon="1.4493">
        <ele>75.3</ele>
        <time>2020-06-18T15:13:35Z</time>
      </trkpt>
      <trkpt lat="50.06921" lon="1.44934">
        <ele>75.4</ele>
        <time>2020-06-18T15:13:36Z</time>
      </trkpt>
      <trkpt lat="50.06923" lon="1.44937">
        <ele>75.4</ele>
        <time>2020-06-18T15:13:37Z</time>
      </trkpt>
      <trkpt lat="50.06925" lon="1.4494">
        <ele>75.5</ele>
        <time>2020-06-18T15:13:38Z</time>
      </trkpt>
      <trkpt lat="50.06928" lon="1.44943">
        <ele>75.6</ele>
        <time>2020-06-18T15:13:39Z</time>
      </trkpt>
      <trkpt lat="50.06932" lon="1.44946">
        <ele>75.7</ele>
        <time>2020-06-18T15:13:40Z</time>
      </trkpt>
      <trkpt lat="50.06935" lon="1.4495">
        <ele>75.8</ele>
        <time>2020-06-18T15:13:41Z</time>
      </trkpt>
      <trkpt lat="50.06939" lon="1.44954">
        <ele>75.9</ele>
        <time>2020-06-18T15:13:42Z</time>
      </trkpt>
      <trkpt lat="50.06944" lon="1.44957">
        <ele>76</ele>
        <time>2020-06-18T15:13:43Z</time>
      </trkpt>
      <trkpt lat="50.06948" lon="1.44961">
        <ele>76.1</ele>
        <time>2020-06-18T15:13:44Z</time>
      </trkpt>
      <trkpt lat="50.06952" lon="1.44964">
        <ele>76.2</ele>
        <time>2020-06-18T15:13:45Z</time>
      </trkpt>
      <trkpt lat="50.06957" lon="1.44967">
        <ele>76.3</ele>
        <time>2020-06-18T15:13:46Z</time>
      </trkpt>
      <trkpt lat="50.06961" lon="1.4497">
        <ele>76.4</ele>
        <time>2020-06-18T15:13:47Z</time>
      </trkpt>
      <trkpt lat="50.06966" lon="1.44974">
        <ele>76.5</ele>
        <time>2020-06-18T15:13:48Z</time>
      </trkpt>
      <trkpt lat="50.06971" lon="1.44977">
        <ele>76.6</ele>
        <time>2020-06-18T15:13:49Z</time>
      </trkpt>
      <trkpt lat="50.06975" lon="1.4498">
        <ele>76.7</ele>
        <time>2020-06-18T15:13:50Z</time>
      </trkpt>
      <trkpt lat="50.0698" lon="1.44984">
        <ele>76.8</ele>
        <time>2020-06-18T15:13:51Z</time>
      </trkpt>
      <trkpt lat="50.06984" lon="1.44987">
        <ele>76.8</ele>
        <time>2020-06-18T15:13:52Z</time>
      </trkpt>
      <trkpt lat="50.06989" lon="1.44992">
        <ele>76.9</ele>
        <time>2020-06-18T15:13:53Z</time>
      </trkpt>
      <trkpt lat="50.06993" lon="1.44996">
        <ele>77</ele>
        <time>2020-06-18T15:13:54Z</time>
      </trkpt>
      <trkpt lat="50.06997" lon="1.45001">
        <ele>77</ele>
        <time>2020-06-18T15:13:55Z</time>
      </trkpt>
      <trkpt lat="50.07001" lon="1.45006">
        <ele>77.1</ele>
        <time>2020-06-18T15:13:56Z</time>
      </trkpt>
      <trkpt lat="50.07005" lon="1.45011">
        <ele>77.2</ele>
        <time>2020-06-18T15:13:57Z</time>
      </trkpt>
      <trkpt lat="50.07009" lon="1.45016">
        <ele>77.3</ele>
        <time>2020-06-18T15:13:58Z</time>
      </trkpt>
      <trkpt lat="50.07013" lon="1.45022">
        <ele>77.3</ele>
        <time>2020-06-18T15:13:59Z</time>
      </trkpt>
      <trkpt lat="50.07016" lon="1.45027">
        <ele>77.4</ele>
        <time>2020-06-18T15:14:00Z</time>
      </trkpt>
      <trkpt lat="50.0702" lon="1.45034">
        <ele>77.5</ele>
        <time>2020-06-18T15:14:01Z</time>
      </trkpt>
      <trkpt lat="50.07024" lon="1.45041">
        <ele>77.6</ele>
        <time>2020-06-18T15:14:02Z</time>
      </trkpt>
      <trkpt lat="50.07027" lon="1.45047">
        <ele>77.7</ele>
        <time>2020-06-18T15:14:03Z</time>
      </trkpt>
      <trkpt lat="50.07029" lon="1.45052">
        <ele>77.8</ele>
        <time>2020-06-18T15:14:04Z</time>
      </trkpt>
      <trkpt lat="50.07031" lon="1.45057">
        <ele>77.8</ele>
        <time>2020-06-18T15:14:05Z</time>
      </trkpt>
      <trkpt lat="50.07034" lon="1.45062">
        <ele>77.9</ele>
        <time>2020-06-18T15:14:06Z</time>
      </trkpt>
      <trkpt lat="50.07038" lon="1.45069">
        <ele>78.1</ele>
        <time>2020-06-18T15:14:07Z</time>
      </trkpt>
      <trkpt lat="50.07041" lon="1.45075">
        <ele>78.2</ele>
        <time>2020-06-18T15:14:08Z</time>
      </trkpt>
      <trkpt lat="50.07044" lon="1.45082">
        <ele>78.4</ele>
        <time>2020-06-18T15:14:09Z</time>
      </trkpt>
      <trkpt lat="50.07046" lon="1.45089">
        <ele>78.6</ele>
        <time>2020-06-18T15:14:10Z</time>
      </trkpt>
      <trkpt lat="50.07049" lon="1.45095">
        <ele>78.7</ele>
        <time>2020-06-18T15:14:11Z</time>
      </trkpt>
      <trkpt lat="50.07051" lon="1.45101">
        <ele>78.9</ele>
        <time>2020-06-18T15:14:12Z</time>
      </trkpt>
      <trkpt lat="50.07054" lon="1.45106">
        <ele>79.1</ele>
        <time>2020-06-18T15:14:13Z</time>
      </trkpt>
      <trkpt lat="50.07056" lon="1.45111">
        <ele>79.2</ele>
        <time>2020-06-18T15:14:14Z</time>
      </trkpt>
      <trkpt lat="50.07059" lon="1.45117">
        <ele>79.4</ele>
        <time>2020-06-18T15:14:15Z</time>
      </trkpt>
      <trkpt lat="50.07062" lon="1.45122">
        <ele>79.5</ele>
        <time>2020-06-18T15:14:16Z</time>
      </trkpt>
      <trkpt lat="50.07065" lon="1.45126">
        <ele>79.7</ele>
        <time>2020-06-18T15:14:17Z</time>
      </trkpt>
      <trkpt lat="50.07068" lon="1.45132">
        <ele>79.9</ele>
        <time>2020-06-18T15:14:18Z</time>
      </trkpt>
      <trkpt lat="50.07071" lon="1.45137">
        <ele>80.1</ele>
        <time>2020-06-18T15:14:19Z</time>
      </trkpt>
      <trkpt lat="50.07074" lon="1.45142">
        <ele>80.2</ele>
        <time>2020-06-18T15:14:20Z</time>
      </trkpt>
      <trkpt lat="50.07076" lon="1.45149">
        <ele>80.4</ele>
        <time>2020-06-18T15:14:21Z</time>
      </trkpt>
      <trkpt lat="50.0708" lon="1.45155">
        <ele>80.7</ele>
        <time>2020-06-18T15:14:22Z</time>
      </trkpt>
      <trkpt lat="50.07083" lon="1.4516">
        <ele>80.9</ele>
        <time>2020-06-18T15:14:23Z</time>
      </trkpt>
      <trkpt lat="50.07086" lon="1.45166">
        <ele>81.1</ele>
        <time>2020-06-18T15:14:24Z</time>
      </trkpt>
      <trkpt lat="50.07088" lon="1.45171">
        <ele>81.3</ele>
        <time>2020-06-18T15:14:25Z</time>
      </trkpt>
      <trkpt lat="50.07091" lon="1.45176">
        <ele>81.4</ele>
        <time>2020-06-18T15:14:26Z</time>
      </trkpt>
      <trkpt lat="50.07094" lon="1.45181">
        <ele>81.7</ele>
        <time>2020-06-18T15:14:27Z</time>
      </trkpt>
      <trkpt lat="50.07096" lon="1.45186">
        <ele>81.8</ele>
        <time>2020-06-18T15:14:28Z</time>
      </trkpt>
      <trkpt lat="50.07099" lon="1.45189">
        <ele>82</ele>
        <time>2020-06-18T15:14:29Z</time>
      </trkpt>
      <trkpt lat="50.07102" lon="1.45192">
        <ele>82.1</ele>
        <time>2020-06-18T15:14:30Z</time>
      </trkpt>
      <trkpt lat="50.07105" lon="1.45197">
        <ele>82.3</ele>
        <time>2020-06-18T15:14:31Z</time>
      </trkpt>
      <trkpt lat="50.07105" lon="1.45204">
        <ele>82.5</ele>
        <time>2020-06-18T15:14:32Z</time>
      </trkpt>
      <trkpt lat="50.07108" lon="1.45209">
        <ele>82.7</ele>
        <time>2020-06-18T15:14:33Z</time>
      </trkpt>
      <trkpt lat="50.0711" lon="1.45215">
        <ele>82.9</ele>
        <time>2020-06-18T15:14:34Z</time>
      </trkpt>
      <trkpt lat="50.07112" lon="1.4522">
        <ele>83</ele>
        <time>2020-06-18T15:14:35Z</time>
      </trkpt>
      <trkpt lat="50.07115" lon="1.45226">
        <ele>83.3</ele>
        <time>2020-06-18T15:14:36Z</time>
      </trkpt>
      <trkpt lat="50.07117" lon="1.45231">
        <ele>83.4</ele>
        <time>2020-06-18T15:14:37Z</time>
      </trkpt>
      <trkpt lat="50.07119" lon="1.45236">
        <ele>83.6</ele>
        <time>2020-06-18T15:14:38Z</time>
      </trkpt>
      <trkpt lat="50.0712" lon="1.45241">
        <ele>83.8</ele>
        <time>2020-06-18T15:14:39Z</time>
      </trkpt>
      <trkpt lat="50.07121" lon="1.45247">
        <ele>83.9</ele>
        <time>2020-06-18T15:14:40Z</time>
      </trkpt>
      <trkpt lat="50.07122" lon="1.45251">
        <ele>84.1</ele>
        <time>2020-06-18T15:14:41Z</time>
      </trkpt>
      <trkpt lat="50.07124" lon="1.45257">
        <ele>84.2</ele>
        <time>2020-06-18T15:14:42Z</time>
      </trkpt>
      <trkpt lat="50.07127" lon="1.45264">
        <ele>84.5</ele>
        <time>2020-06-18T15:14:43Z</time>
      </trkpt>
      <trkpt lat="50.07128" lon="1.45268">
        <ele>84.6</ele>
        <time>2020-06-18T15:14:44Z</time>
      </trkpt>
      <trkpt lat="50.0713" lon="1.45272">
        <ele>84.8</ele>
        <time>2020-06-18T15:14:45Z</time>
      </trkpt>
      <trkpt lat="50.0713" lon="1.45274">
        <ele>84.9</ele>
        <time>2020-06-18T15:14:46Z</time>
      </trkpt>
      <trkpt lat="50.07134" lon="1.45279">
        <ele>85.1</ele>
        <time>2020-06-18T15:14:47Z</time>
      </trkpt>
      <trkpt lat="50.07135" lon="1.45283">
        <ele>85.2</ele>
        <time>2020-06-18T15:14:48Z</time>
      </trkpt>
      <trkpt lat="50.07137" lon="1.45286">
        <ele>85.4</ele>
        <time>2020-06-18T15:14:49Z</time>
      </trkpt>
      <trkpt lat="50.07139" lon="1.45291">
        <ele>85.5</ele>
        <time>2020-06-18T15:14:50Z</time>
      </trkpt>
      <trkpt lat="50.07141" lon="1.45296">
        <ele>85.7</ele>
        <time>2020-06-18T15:14:51Z</time>
      </trkpt>
      <trkpt lat="50.07142" lon="1.45298">
        <ele>85.8</ele>
        <time>2020-06-18T15:14:52Z</time>
      </trkpt>
      <trkpt lat="50.07143" lon="1.45302">
        <ele>85.9</ele>
        <time>2020-06-18T15:14:53Z</time>
      </trkpt>
      <trkpt lat="50.07144" lon="1.45307">
        <ele>86.1</ele>
        <time>2020-06-18T15:14:54Z</time>
      </trkpt>
      <trkpt lat="50.07146" lon="1.45311">
        <ele>86.3</ele>
        <time>2020-06-18T15:14:55Z</time>
      </trkpt>
      <trkpt lat="50.07148" lon="1.45315">
        <ele>86.4</ele>
        <time>2020-06-18T15:14:56Z</time>
      </trkpt>
      <trkpt lat="50.07151" lon="1.45319">
        <ele>86.6</ele>
        <time>2020-06-18T15:14:57Z</time>
      </trkpt>
      <trkpt lat="50.07153" lon="1.45324">
        <ele>86.7</ele>
        <time>2020-06-18T15:14:58Z</time>
      </trkpt>
      <trkpt lat="50.07155" lon="1.45328">
        <ele>86.9</ele>
        <time>2020-06-18T15:14:59Z</time>
      </trkpt>
      <trkpt lat="50.07155" lon="1.45334">
        <ele>87.1</ele>
        <time>2020-06-18T15:15:00Z</time>
      </trkpt>
      <trkpt lat="50.07157" lon="1.45339">
        <ele>87.3</ele>
        <time>2020-06-18T15:15:01Z</time>
      </trkpt>
      <trkpt lat="50.07159" lon="1.45342">
        <ele>87.4</ele>
        <time>2020-06-18T15:15:02Z</time>
      </trkpt>
      <trkpt lat="50.07161" lon="1.45346">
        <ele>87.6</ele>
        <time>2020-06-18T15:15:03Z</time>
      </trkpt>
      <trkpt lat="50.07163" lon="1.4535">
        <ele>87.8</ele>
        <time>2020-06-18T15:15:04Z</time>
      </trkpt>
      <trkpt lat="50.07165" lon="1.45354">
        <ele>87.9</ele>
        <time>2020-06-18T15:15:05Z</time>
      </trkpt>
      <trkpt lat="50.07166" lon="1.45357">
        <ele>88.1</ele>
        <time>2020-06-18T15:15:06Z</time>
      </trkpt>
      <trkpt lat="50.07168" lon="1.45361">
        <ele>88.2</ele>
        <time>2020-06-18T15:15:07Z</time>
      </trkpt>
      <trkpt lat="50.07171" lon="1.45365">
        <ele>88.4</ele>
        <time>2020-06-18T15:15:08Z</time>
      </trkpt>
      <trkpt lat="50.07173" lon="1.45369">
        <ele>88.6</ele>
        <time>2020-06-18T15:15:09Z</time>
      </trkpt>
      <trkpt lat="50.07175" lon="1.45374">
        <ele>88.8</ele>
        <time>2020-06-18T15:15:10Z</time>
      </trkpt>
      <trkpt lat="50.07176" lon="1.45377">
        <ele>88.8</ele>
        <time>2020-06-18T15:15:11Z</time>
      </trkpt>
      <trkpt lat="50.07178" lon="1.4538">
        <ele>89</ele>
        <time>2020-06-18T15:15:12Z</time>
      </trkpt>
      <trkpt lat="50.0718" lon="1.45383">
        <ele>89.1</ele>
        <time>2020-06-18T15:15:13Z</time>
      </trkpt>
      <trkpt lat="50.07182" lon="1.45387">
        <ele>89.3</ele>
        <time>2020-06-18T15:15:14Z</time>
      </trkpt>
      <trkpt lat="50.07184" lon="1.45392">
        <ele>89.4</ele>
        <time>2020-06-18T15:15:15Z</time>
      </trkpt>
      <trkpt lat="50.07185" lon="1.45399">
        <ele>89.7</ele>
        <time>2020-06-18T15:15:16Z</time>
      </trkpt>
      <trkpt lat="50.07187" lon="1.45402">
        <ele>89.8</ele>
        <time>2020-06-18T15:15:17Z</time>
      </trkpt>
      <trkpt lat="50.07189" lon="1.45406">
        <ele>89.9</ele>
        <time>2020-06-18T15:15:18Z</time>
      </trkpt>
      <trkpt lat="50.07191" lon="1.4541">
        <ele>90.2</ele>
        <time>2020-06-18T15:15:19Z</time>
      </trkpt>
      <trkpt lat="50.07193" lon="1.45414">
        <ele>90.4</ele>
        <time>2020-06-18T15:15:20Z</time>
      </trkpt>
      <trkpt lat="50.07196" lon="1.45417">
        <ele>90.6</ele>
        <time>2020-06-18T15:15:21Z</time>
      </trkpt>
      <trkpt lat="50.07198" lon="1.45421">
        <ele>90.8</ele>
        <time>2020-06-18T15:15:22Z</time>
      </trkpt>
      <trkpt lat="50.07202" lon="1.45425">
        <ele>91.1</ele>
        <time>2020-06-18T15:15:23Z</time>
      </trkpt>
      <trkpt lat="50.07205" lon="1.45431">
        <ele>91.3</ele>
        <time>2020-06-18T15:15:24Z</time>
      </trkpt>
      <trkpt lat="50.07207" lon="1.45435">
        <ele>91.5</ele>
        <time>2020-06-18T15:15:25Z</time>
      </trkpt>
      <trkpt lat="50.0721" lon="1.45441">
        <ele>91.8</ele>
        <time>2020-06-18T15:15:26Z</time>
      </trkpt>
      <trkpt lat="50.07212" lon="1.45446">
        <ele>92</ele>
        <time>2020-06-18T15:15:27Z</time>
      </trkpt>
      <trkpt lat="50.07213" lon="1.45448">
        <ele>92.2</ele>
        <time>2020-06-18T15:15:28Z</time>
      </trkpt>
      <trkpt lat="50.07215" lon="1.45453">
        <ele>92.4</ele>
        <time>2020-06-18T15:15:29Z</time>
      </trkpt>
      <trkpt lat="50.07217" lon="1.45457">
        <ele>92.6</ele>
        <time>2020-06-18T15:15:30Z</time>
      </trkpt>
      <trkpt lat="50.0722" lon="1.45462">
        <ele>92.9</ele>
        <time>2020-06-18T15:15:31Z</time>
      </trkpt>
      <trkpt lat="50.07223" lon="1.45466">
        <ele>93.1</ele>
        <time>2020-06-18T15:15:32Z</time>
      </trkpt>
      <trkpt lat="50.07225" lon="1.45471">
        <ele>93.4</ele>
        <time>2020-06-18T15:15:33Z</time>
      </trkpt>
      <trkpt lat="50.07225" lon="1.45472">
        <ele>93.4</ele>
        <time>2020-06-18T15:15:34Z</time>
      </trkpt>
      <trkpt lat="50.07228" lon="1.45477">
        <ele>93.5</ele>
        <time>2020-06-18T15:15:35Z</time>
      </trkpt>
      <trkpt lat="50.07231" lon="1.4548">
        <ele>93.5</ele>
        <time>2020-06-18T15:15:36Z</time>
      </trkpt>
      <trkpt lat="50.07234" lon="1.45485">
        <ele>93.6</ele>
        <time>2020-06-18T15:15:37Z</time>
      </trkpt>
      <trkpt lat="50.07236" lon="1.45489">
        <ele>93.6</ele>
        <time>2020-06-18T15:15:38Z</time>
      </trkpt>
      <trkpt lat="50.07239" lon="1.45492">
        <ele>93.7</ele>
        <time>2020-06-18T15:15:39Z</time>
      </trkpt>
      <trkpt lat="50.07242" lon="1.45497">
        <ele>93.8</ele>
        <time>2020-06-18T15:15:40Z</time>
      </trkpt>
      <trkpt lat="50.07244" lon="1.455">
        <ele>93.9</ele>
        <time>2020-06-18T15:15:41Z</time>
      </trkpt>
      <trkpt lat="50.07247" lon="1.45504">
        <ele>94</ele>
        <time>2020-06-18T15:15:42Z</time>
      </trkpt>
      <trkpt lat="50.0725" lon="1.45509">
        <ele>94</ele>
        <time>2020-06-18T15:15:43Z</time>
      </trkpt>
      <trkpt lat="50.07251" lon="1.45514">
        <ele>94.1</ele>
        <time>2020-06-18T15:15:44Z</time>
      </trkpt>
      <trkpt lat="50.07253" lon="1.45518">
        <ele>94.2</ele>
        <time>2020-06-18T15:15:45Z</time>
      </trkpt>
      <trkpt lat="50.07255" lon="1.45523">
        <ele>94.3</ele>
        <time>2020-06-18T15:15:46Z</time>
      </trkpt>
      <trkpt lat="50.07258" lon="1.45528">
        <ele>94.4</ele>
        <time>2020-06-18T15:15:47Z</time>
      </trkpt>
      <trkpt lat="50.0726" lon="1.45532">
        <ele>94.5</ele>
        <time>2020-06-18T15:15:48Z</time>
      </trkpt>
      <trkpt lat="50.07263" lon="1.45535">
        <ele>94.6</ele>
        <time>2020-06-18T15:15:49Z</time>
      </trkpt>
      <trkpt lat="50.07266" lon="1.45539">
        <ele>94.7</ele>
        <time>2020-06-18T15:15:50Z</time>
      </trkpt>
      <trkpt lat="50.07269" lon="1.45542">
        <ele>94.7</ele>
        <time>2020-06-18T15:15:51Z</time>
      </trkpt>
      <trkpt lat="50.07271" lon="1.45547">
        <ele>94.8</ele>
        <time>2020-06-18T15:15:52Z</time>
      </trkpt>
      <trkpt lat="50.07274" lon="1.4555">
        <ele>94.9</ele>
        <time>2020-06-18T15:15:53Z</time>
      </trkpt>
      <trkpt lat="50.07277" lon="1.45553">
        <ele>95</ele>
        <time>2020-06-18T15:15:54Z</time>
      </trkpt>
      <trkpt lat="50.0728" lon="1.45557">
        <ele>95.1</ele>
        <time>2020-06-18T15:15:55Z</time>
      </trkpt>
      <trkpt lat="50.07283" lon="1.4556">
        <ele>95.3</ele>
        <time>2020-06-18T15:15:56Z</time>
      </trkpt>
      <trkpt lat="50.07286" lon="1.45564">
        <ele>95.4</ele>
        <time>2020-06-18T15:15:57Z</time>
      </trkpt>
      <trkpt lat="50.07289" lon="1.45568">
        <ele>95.5</ele>
        <time>2020-06-18T15:15:58Z</time>
      </trkpt>
      <trkpt lat="50.07292" lon="1.45572">
        <ele>95.6</ele>
        <time>2020-06-18T15:15:59Z</time>
      </trkpt>
      <trkpt lat="50.07295" lon="1.45574">
        <ele>95.6</ele>
        <time>2020-06-18T15:16:00Z</time>
      </trkpt>
      <trkpt lat="50.07298" lon="1.45579">
        <ele>95.8</ele>
        <time>2020-06-18T15:16:01Z</time>
      </trkpt>
      <trkpt lat="50.073" lon="1.45582">
        <ele>95.8</ele>
        <time>2020-06-18T15:16:02Z</time>
      </trkpt>
      <trkpt lat="50.07302" lon="1.45588">
        <ele>95.9</ele>
        <time>2020-06-18T15:16:03Z</time>
      </trkpt>
      <trkpt lat="50.07305" lon="1.45593">
        <ele>96</ele>
        <time>2020-06-18T15:16:04Z</time>
      </trkpt>
      <trkpt lat="50.07308" lon="1.45597">
        <ele>96.1</ele>
        <time>2020-06-18T15:16:05Z</time>
      </trkpt>
      <trkpt lat="50.07311" lon="1.45603">
        <ele>96.3</ele>
        <time>2020-06-18T15:16:06Z</time>
      </trkpt>
      <trkpt lat="50.07313" lon="1.4561">
        <ele>96.4</ele>
        <time>2020-06-18T15:16:07Z</time>
      </trkpt>
      <trkpt lat="50.07316" lon="1.45615">
        <ele>96.6</ele>
        <time>2020-06-18T15:16:08Z</time>
      </trkpt>
      <trkpt lat="50.07319" lon="1.4562">
        <ele>96.8</ele>
        <time>2020-06-18T15:16:09Z</time>
      </trkpt>
      <trkpt lat="50.07322" lon="1.45626">
        <ele>96.9</ele>
        <time>2020-06-18T15:16:10Z</time>
      </trkpt>
      <trkpt lat="50.07326" lon="1.4563">
        <ele>97.1</ele>
        <time>2020-06-18T15:16:11Z</time>
      </trkpt>
      <trkpt lat="50.07329" lon="1.45633">
        <ele>97.2</ele>
        <time>2020-06-18T15:16:12Z</time>
      </trkpt>
      <trkpt lat="50.07333" lon="1.45638">
        <ele>97.4</ele>
        <time>2020-06-18T15:16:13Z</time>
      </trkpt>
      <trkpt lat="50.07336" lon="1.45642">
        <ele>97.5</ele>
        <time>2020-06-18T15:16:14Z</time>
      </trkpt>
      <trkpt lat="50.07339" lon="1.45645">
        <ele>97.6</ele>
        <time>2020-06-18T15:16:15Z</time>
      </trkpt>
      <trkpt lat="50.07343" lon="1.45649">
        <ele>97.7</ele>
        <time>2020-06-18T15:16:16Z</time>
      </trkpt>
      <trkpt lat="50.07347" lon="1.45653">
        <ele>97.9</ele>
        <time>2020-06-18T15:16:17Z</time>
      </trkpt>
      <trkpt lat="50.07351" lon="1.45657">
        <ele>98</ele>
        <time>2020-06-18T15:16:18Z</time>
      </trkpt>
      <trkpt lat="50.07354" lon="1.45661">
        <ele>98.1</ele>
        <time>2020-06-18T15:16:19Z</time>
      </trkpt>
      <trkpt lat="50.07357" lon="1.45664">
        <ele>98.2</ele>
        <time>2020-06-18T15:16:20Z</time>
      </trkpt>
      <trkpt lat="50.07358" lon="1.45671">
        <ele>98.4</ele>
        <time>2020-06-18T15:16:21Z</time>
      </trkpt>
      <trkpt lat="50.07361" lon="1.45674">
        <ele>98.5</ele>
        <time>2020-06-18T15:16:22Z</time>
      </trkpt>
      <trkpt lat="50.07364" lon="1.45678">
        <ele>98.6</ele>
        <time>2020-06-18T15:16:23Z</time>
      </trkpt>
      <trkpt lat="50.07368" lon="1.45682">
        <ele>98.8</ele>
        <time>2020-06-18T15:16:24Z</time>
      </trkpt>
      <trkpt lat="50.07372" lon="1.45688">
        <ele>98.9</ele>
        <time>2020-06-18T15:16:25Z</time>
      </trkpt>
      <trkpt lat="50.07374" lon="1.45694">
        <ele>99.1</ele>
        <time>2020-06-18T15:16:26Z</time>
      </trkpt>
      <trkpt lat="50.07378" lon="1.45697">
        <ele>99.1</ele>
        <time>2020-06-18T15:16:27Z</time>
      </trkpt>
      <trkpt lat="50.07381" lon="1.45701">
        <ele>99.2</ele>
        <time>2020-06-18T15:16:28Z</time>
      </trkpt>
      <trkpt lat="50.07384" lon="1.45705">
        <ele>99.3</ele>
        <time>2020-06-18T15:16:29Z</time>
      </trkpt>
      <trkpt lat="50.07387" lon="1.45708">
        <ele>99.3</ele>
        <time>2020-06-18T15:16:30Z</time>
      </trkpt>
      <trkpt lat="50.07391" lon="1.45713">
        <ele>99.4</ele>
        <time>2020-06-18T15:16:31Z</time>
      </trkpt>
      <trkpt lat="50.07394" lon="1.45717">
        <ele>99.5</ele>
        <time>2020-06-18T15:16:32Z</time>
      </trkpt>
      <trkpt lat="50.07399" lon="1.45725">
        <ele>99.6</ele>
        <time>2020-06-18T15:16:33Z</time>
      </trkpt>
      <trkpt lat="50.07403" lon="1.45731">
        <ele>99.6</ele>
        <time>2020-06-18T15:16:34Z</time>
      </trkpt>
      <trkpt lat="50.07406" lon="1.45736">
        <ele>99.7</ele>
        <time>2020-06-18T15:16:35Z</time>
      </trkpt>
      <trkpt lat="50.07411" lon="1.45741">
        <ele>99.8</ele>
        <time>2020-06-18T15:16:36Z</time>
      </trkpt>
      <trkpt lat="50.07414" lon="1.45746">
        <ele>100</ele>
        <time>2020-06-18T15:16:37Z</time>
      </trkpt>
      <trkpt lat="50.07418" lon="1.4575">
        <ele>100.1</ele>
        <time>2020-06-18T15:16:38Z</time>
      </trkpt>
      <trkpt lat="50.07421" lon="1.45755">
        <ele>100.2</ele>
        <time>2020-06-18T15:16:39Z</time>
      </trkpt>
      <trkpt lat="50.07425" lon="1.45759">
        <ele>100.4</ele>
        <time>2020-06-18T15:16:40Z</time>
      </trkpt>
      <trkpt lat="50.07429" lon="1.45764">
        <ele>100.5</ele>
        <time>2020-06-18T15:16:41Z</time>
      </trkpt>
      <trkpt lat="50.07432" lon="1.45768">
        <ele>100.6</ele>
        <time>2020-06-18T15:16:42Z</time>
      </trkpt>
      <trkpt lat="50.07436" lon="1.45773">
        <ele>100.7</ele>
        <time>2020-06-18T15:16:43Z</time>
      </trkpt>
      <trkpt lat="50.0744" lon="1.45777">
        <ele>100.8</ele>
        <time>2020-06-18T15:16:44Z</time>
      </trkpt>
      <trkpt lat="50.07443" lon="1.45782">
        <ele>100.9</ele>
        <time>2020-06-18T15:16:45Z</time>
      </trkpt>
      <trkpt lat="50.07446" lon="1.45787">
        <ele>101</ele>
        <time>2020-06-18T15:16:46Z</time>
      </trkpt>
      <trkpt lat="50.07448" lon="1.45795">
        <ele>101.2</ele>
        <time>2020-06-18T15:16:47Z</time>
      </trkpt>
      <trkpt lat="50.07451" lon="1.458">
        <ele>101.3</ele>
        <time>2020-06-18T15:16:48Z</time>
      </trkpt>
      <trkpt lat="50.07455" lon="1.45806">
        <ele>101.4</ele>
        <time>2020-06-18T15:16:49Z</time>
      </trkpt>
      <trkpt lat="50.07459" lon="1.45811">
        <ele>101.5</ele>
        <time>2020-06-18T15:16:50Z</time>
      </trkpt>
      <trkpt lat="50.07462" lon="1.45814">
        <ele>101.6</ele>
        <time>2020-06-18T15:16:51Z</time>
      </trkpt>
      <trkpt lat="50.07467" lon="1.45817">
        <ele>101.7</ele>
        <time>2020-06-18T15:16:52Z</time>
      </trkpt>
      <trkpt lat="50.07471" lon="1.45821">
        <ele>101.8</ele>
        <time>2020-06-18T15:16:53Z</time>
      </trkpt>
      <trkpt lat="50.07476" lon="1.45825">
        <ele>101.9</ele>
        <time>2020-06-18T15:16:54Z</time>
      </trkpt>
      <trkpt lat="50.07479" lon="1.45829">
        <ele>101.9</ele>
        <time>2020-06-18T15:16:55Z</time>
      </trkpt>
      <trkpt lat="50.07482" lon="1.45833">
        <ele>102</ele>
        <time>2020-06-18T15:16:56Z</time>
      </trkpt>
      <trkpt lat="50.07485" lon="1.45836">
        <ele>102.1</ele>
        <time>2020-06-18T15:16:57Z</time>
      </trkpt>
      <trkpt lat="50.07488" lon="1.4584">
        <ele>102.1</ele>
        <time>2020-06-18T15:16:58Z</time>
      </trkpt>
      <trkpt lat="50.07492" lon="1.45845">
        <ele>102.2</ele>
        <time>2020-06-18T15:16:59Z</time>
      </trkpt>
      <trkpt lat="50.07496" lon="1.4585">
        <ele>102.3</ele>
        <time>2020-06-18T15:17:00Z</time>
      </trkpt>
      <trkpt lat="50.075" lon="1.45854">
        <ele>102.4</ele>
        <time>2020-06-18T15:17:01Z</time>
      </trkpt>
      <trkpt lat="50.07504" lon="1.45859">
        <ele>102.4</ele>
        <time>2020-06-18T15:17:02Z</time>
      </trkpt>
      <trkpt lat="50.07507" lon="1.45864">
        <ele>102.6</ele>
        <time>2020-06-18T15:17:03Z</time>
      </trkpt>
      <trkpt lat="50.07511" lon="1.4587">
        <ele>102.7</ele>
        <time>2020-06-18T15:17:04Z</time>
      </trkpt>
      <trkpt lat="50.07516" lon="1.45872">
        <ele>102.8</ele>
        <time>2020-06-18T15:17:05Z</time>
      </trkpt>
      <trkpt lat="50.0752" lon="1.45876">
        <ele>102.9</ele>
        <time>2020-06-18T15:17:06Z</time>
      </trkpt>
      <trkpt lat="50.07524" lon="1.45881">
        <ele>103</ele>
        <time>2020-06-18T15:17:07Z</time>
      </trkpt>
      <trkpt lat="50.07527" lon="1.45885">
        <ele>103.1</ele>
        <time>2020-06-18T15:17:08Z</time>
      </trkpt>
      <trkpt lat="50.07532" lon="1.45889">
        <ele>103.2</ele>
        <time>2020-06-18T15:17:09Z</time>
      </trkpt>
      <trkpt lat="50.07536" lon="1.45892">
        <ele>103.2</ele>
        <time>2020-06-18T15:17:10Z</time>
      </trkpt>
      <trkpt lat="50.0754" lon="1.45896">
        <ele>103.3</ele>
        <time>2020-06-18T15:17:11Z</time>
      </trkpt>
      <trkpt lat="50.07544" lon="1.459">
        <ele>103.3</ele>
        <time>2020-06-18T15:17:12Z</time>
      </trkpt>
      <trkpt lat="50.07548" lon="1.45905">
        <ele>103.3</ele>
        <time>2020-06-18T15:17:13Z</time>
      </trkpt>
      <trkpt lat="50.07551" lon="1.45908">
        <ele>103.4</ele>
        <time>2020-06-18T15:17:14Z</time>
      </trkpt>
      <trkpt lat="50.07555" lon="1.45913">
        <ele>103.4</ele>
        <time>2020-06-18T15:17:15Z</time>
      </trkpt>
      <trkpt lat="50.07558" lon="1.45919">
        <ele>103.4</ele>
        <time>2020-06-18T15:17:16Z</time>
      </trkpt>
      <trkpt lat="50.07561" lon="1.45923">
        <ele>103.5</ele>
        <time>2020-06-18T15:17:17Z</time>
      </trkpt>
      <trkpt lat="50.07565" lon="1.45929">
        <ele>103.5</ele>
        <time>2020-06-18T15:17:18Z</time>
      </trkpt>
      <trkpt lat="50.07569" lon="1.45933">
        <ele>103.6</ele>
        <time>2020-06-18T15:17:19Z</time>
      </trkpt>
      <trkpt lat="50.07573" lon="1.4594">
        <ele>103.6</ele>
        <time>2020-06-18T15:17:20Z</time>
      </trkpt>
      <trkpt lat="50.07577" lon="1.45946">
        <ele>103.7</ele>
        <time>2020-06-18T15:17:21Z</time>
      </trkpt>
      <trkpt lat="50.07581" lon="1.45951">
        <ele>103.8</ele>
        <time>2020-06-18T15:17:22Z</time>
      </trkpt>
      <trkpt lat="50.07586" lon="1.45955">
        <ele>103.9</ele>
        <time>2020-06-18T15:17:23Z</time>
      </trkpt>
      <trkpt lat="50.0759" lon="1.4596">
        <ele>103.9</ele>
        <time>2020-06-18T15:17:24Z</time>
      </trkpt>
      <trkpt lat="50.07594" lon="1.45963">
        <ele>103.9</ele>
        <time>2020-06-18T15:17:25Z</time>
      </trkpt>
      <trkpt lat="50.07598" lon="1.45967">
        <ele>103.9</ele>
        <time>2020-06-18T15:17:26Z</time>
      </trkpt>
      <trkpt lat="50.07602" lon="1.45971">
        <ele>103.9</ele>
        <time>2020-06-18T15:17:27Z</time>
      </trkpt>
      <trkpt lat="50.07605" lon="1.45974">
        <ele>104</ele>
        <time>2020-06-18T15:17:28Z</time>
      </trkpt>
      <trkpt lat="50.07609" lon="1.45979">
        <ele>104</ele>
        <time>2020-06-18T15:17:29Z</time>
      </trkpt>
      <trkpt lat="50.07614" lon="1.45983">
        <ele>104</ele>
        <time>2020-06-18T15:17:30Z</time>
      </trkpt>
      <trkpt lat="50.07617" lon="1.45984">
        <ele>104</ele>
        <time>2020-06-18T15:17:31Z</time>
      </trkpt>
      <trkpt lat="50.07618" lon="1.45985">
        <ele>104</ele>
        <time>2020-06-18T15:17:32Z</time>
      </trkpt>
      <trkpt lat="50.07619" lon="1.45984">
        <ele>104</ele>
        <time>2020-06-18T15:17:33Z</time>
      </trkpt>
      <trkpt lat="50.07619" lon="1.45986">
        <ele>104</ele>
        <time>2020-06-18T15:17:34Z</time>
      </trkpt>
      <trkpt lat="50.07618" lon="1.45985">
        <ele>104</ele>
        <time>2020-06-18T15:17:35Z</time>
      </trkpt>
      <trkpt lat="50.07618" lon="1.45985">
        <ele>104</ele>
        <time>2020-06-18T15:17:36Z</time>
      </trkpt>
      <trkpt lat="50.07617" lon="1.45987">
        <ele>104</ele>
        <time>2020-06-18T15:17:37Z</time>
      </trkpt>
      <trkpt lat="50.07616" lon="1.45986">
        <ele>104</ele>
        <time>2020-06-18T15:17:38Z</time>
      </trkpt>
      <trkpt lat="50.07616" lon="1.45987">
        <ele>104</ele>
        <time>2020-06-18T15:17:39Z</time>
      </trkpt>
      <trkpt lat="50.07616" lon="1.45986">
        <ele>104</ele>
        <time>2020-06-18T15:17:40Z</time>
      </trkpt>
      <trkpt lat="50.07616" lon="1.45986">
        <ele>104</ele>
        <time>2020-06-18T15:17:41Z</time>
      </trkpt>
      <trkpt lat="50.07616" lon="1.45986">
        <ele>104</ele>
        <time>2020-06-18T15:17:42Z</time>
      </trkpt>
      <trkpt lat="50.07616" lon="1.45986">
        <ele>104</ele>
        <time>2020-06-18T15:17:43Z</time>
      </trkpt>
      <trkpt lat="50.07616" lon="1.45986">
        <ele>104</ele>
        <time>2020-06-18T15:17:44Z</time>
      </trkpt>
      <trkpt lat="50.07623" lon="1.4599">
        <ele>104.1</ele>
        <time>2020-06-18T15:18:09Z</time>
      </trkpt>
      <trkpt lat="50.07626" lon="1.45991">
        <ele>104.1</ele>
        <time>2020-06-18T15:18:10Z</time>
      </trkpt>
      <trkpt lat="50.0763" lon="1.45994">
        <ele>104.1</ele>
        <time>2020-06-18T15:18:11Z</time>
      </trkpt>
      <trkpt lat="50.07634" lon="1.45995">
        <ele>104.1</ele>
        <time>2020-06-18T15:18:12Z</time>
      </trkpt>
      <trkpt lat="50.07637" lon="1.45997">
        <ele>104.2</ele>
        <time>2020-06-18T15:18:13Z</time>
      </trkpt>
      <trkpt lat="50.07641" lon="1.46">
        <ele>104.2</ele>
        <time>2020-06-18T15:18:14Z</time>
      </trkpt>
      <trkpt lat="50.07645" lon="1.46004">
        <ele>104.2</ele>
        <time>2020-06-18T15:18:15Z</time>
      </trkpt>
      <trkpt lat="50.07648" lon="1.46007">
        <ele>104.3</ele>
        <time>2020-06-18T15:18:16Z</time>
      </trkpt>
      <trkpt lat="50.07651" lon="1.46011">
        <ele>104.3</ele>
        <time>2020-06-18T15:18:17Z</time>
      </trkpt>
      <trkpt lat="50.07656" lon="1.46015">
        <ele>104.3</ele>
        <time>2020-06-18T15:18:18Z</time>
      </trkpt>
      <trkpt lat="50.0766" lon="1.46019">
        <ele>104.4</ele>
        <time>2020-06-18T15:18:19Z</time>
      </trkpt>
      <trkpt lat="50.07665" lon="1.46023">
        <ele>104.4</ele>
        <time>2020-06-18T15:18:20Z</time>
      </trkpt>
      <trkpt lat="50.0767" lon="1.46027">
        <ele>104.5</ele>
        <time>2020-06-18T15:18:21Z</time>
      </trkpt>
      <trkpt lat="50.07674" lon="1.46032">
        <ele>104.5</ele>
        <time>2020-06-18T15:18:22Z</time>
      </trkpt>
      <trkpt lat="50.07679" lon="1.46038">
        <ele>104.5</ele>
        <time>2020-06-18T15:18:23Z</time>
      </trkpt>
      <trkpt lat="50.07683" lon="1.46042">
        <ele>104.5</ele>
        <time>2020-06-18T15:18:24Z</time>
      </trkpt>
      <trkpt lat="50.07687" lon="1.46045">
        <ele>104.6</ele>
        <time>2020-06-18T15:18:25Z</time>
      </trkpt>
      <trkpt lat="50.07691" lon="1.46049">
        <ele>104.6</ele>
        <time>2020-06-18T15:18:26Z</time>
      </trkpt>
      <trkpt lat="50.07696" lon="1.46053">
        <ele>104.6</ele>
        <time>2020-06-18T15:18:27Z</time>
      </trkpt>
      <trkpt lat="50.077" lon="1.46057">
        <ele>104.7</ele>
        <time>2020-06-18T15:18:28Z</time>
      </trkpt>
      <trkpt lat="50.07705" lon="1.46061">
        <ele>104.7</ele>
        <time>2020-06-18T15:18:29Z</time>
      </trkpt>
      <trkpt lat="50.07709" lon="1.46066">
        <ele>104.7</ele>
        <time>2020-06-18T15:18:30Z</time>
      </trkpt>
      <trkpt lat="50.07712" lon="1.46072">
        <ele>104.8</ele>
        <time>2020-06-18T15:18:31Z</time>
      </trkpt>
      <trkpt lat="50.07716" lon="1.46077">
        <ele>104.8</ele>
        <time>2020-06-18T15:18:32Z</time>
      </trkpt>
      <trkpt lat="50.0772" lon="1.46082">
        <ele>104.8</ele>
        <time>2020-06-18T15:18:33Z</time>
      </trkpt>
      <trkpt lat="50.07724" lon="1.46086">
        <ele>104.8</ele>
        <time>2020-06-18T15:18:34Z</time>
      </trkpt>
      <trkpt lat="50.07729" lon="1.4609">
        <ele>104.8</ele>
        <time>2020-06-18T15:18:35Z</time>
      </trkpt>
      <trkpt lat="50.07733" lon="1.46095">
        <ele>104.9</ele>
        <time>2020-06-18T15:18:36Z</time>
      </trkpt>
      <trkpt lat="50.07738" lon="1.461">
        <ele>104.9</ele>
        <time>2020-06-18T15:18:37Z</time>
      </trkpt>
      <trkpt lat="50.07742" lon="1.46105">
        <ele>104.9</ele>
        <time>2020-06-18T15:18:38Z</time>
      </trkpt>
      <trkpt lat="50.07747" lon="1.46109">
        <ele>104.9</ele>
        <time>2020-06-18T15:18:39Z</time>
      </trkpt>
      <trkpt lat="50.07751" lon="1.46114">
        <ele>104.9</ele>
        <time>2020-06-18T15:18:40Z</time>
      </trkpt>
      <trkpt lat="50.07755" lon="1.46119">
        <ele>104.8</ele>
        <time>2020-06-18T15:18:41Z</time>
      </trkpt>
      <trkpt lat="50.0776" lon="1.46123">
        <ele>104.8</ele>
        <time>2020-06-18T15:18:42Z</time>
      </trkpt>
      <trkpt lat="50.07764" lon="1.46126">
        <ele>104.7</ele>
        <time>2020-06-18T15:18:43Z</time>
      </trkpt>
      <trkpt lat="50.07768" lon="1.46128">
        <ele>104.7</ele>
        <time>2020-06-18T15:18:44Z</time>
      </trkpt>
      <trkpt lat="50.07773" lon="1.46132">
        <ele>104.6</ele>
        <time>2020-06-18T15:18:45Z</time>
      </trkpt>
      <trkpt lat="50.07777" lon="1.46138">
        <ele>104.6</ele>
        <time>2020-06-18T15:18:46Z</time>
      </trkpt>
      <trkpt lat="50.07782" lon="1.46142">
        <ele>104.5</ele>
        <time>2020-06-18T15:18:47Z</time>
      </trkpt>
      <trkpt lat="50.07787" lon="1.46148">
        <ele>104.5</ele>
        <time>2020-06-18T15:18:48Z</time>
      </trkpt>
      <trkpt lat="50.07791" lon="1.46154">
        <ele>104.4</ele>
        <time>2020-06-18T15:18:49Z</time>
      </trkpt>
      <trkpt lat="50.07797" lon="1.46159">
        <ele>104.4</ele>
        <time>2020-06-18T15:18:50Z</time>
      </trkpt>
      <trkpt lat="50.07802" lon="1.46165">
        <ele>104.4</ele>
        <time>2020-06-18T15:18:51Z</time>
      </trkpt>
      <trkpt lat="50.07806" lon="1.4617">
        <ele>104.3</ele>
        <time>2020-06-18T15:18:52Z</time>
      </trkpt>
      <trkpt lat="50.07811" lon="1.46177">
        <ele>104.2</ele>
        <time>2020-06-18T15:18:53Z</time>
      </trkpt>
      <trkpt lat="50.07815" lon="1.46183">
        <ele>104.2</ele>
        <time>2020-06-18T15:18:54Z</time>
      </trkpt>
      <trkpt lat="50.07819" lon="1.46188">
        <ele>104.1</ele>
        <time>2020-06-18T15:18:55Z</time>
      </trkpt>
      <trkpt lat="50.07824" lon="1.46193">
        <ele>104.1</ele>
        <time>2020-06-18T15:18:56Z</time>
      </trkpt>
      <trkpt lat="50.07829" lon="1.462">
        <ele>104.1</ele>
        <time>2020-06-18T15:18:57Z</time>
      </trkpt>
      <trkpt lat="50.07834" lon="1.46206">
        <ele>104</ele>
        <time>2020-06-18T15:18:58Z</time>
      </trkpt>
      <trkpt lat="50.07839" lon="1.46211">
        <ele>104</ele>
        <time>2020-06-18T15:18:59Z</time>
      </trkpt>
      <trkpt lat="50.07843" lon="1.46217">
        <ele>103.9</ele>
        <time>2020-06-18T15:19:00Z</time>
      </trkpt>
      <trkpt lat="50.07848" lon="1.46223">
        <ele>103.9</ele>
        <time>2020-06-18T15:19:01Z</time>
      </trkpt>
      <trkpt lat="50.07854" lon="1.46229">
        <ele>103.8</ele>
        <time>2020-06-18T15:19:02Z</time>
      </trkpt>
      <trkpt lat="50.07859" lon="1.46236">
        <ele>103.8</ele>
        <time>2020-06-18T15:19:03Z</time>
      </trkpt>
      <trkpt lat="50.07865" lon="1.46243">
        <ele>103.8</ele>
        <time>2020-06-18T15:19:04Z</time>
      </trkpt>
      <trkpt lat="50.07869" lon="1.46249">
        <ele>103.8</ele>
        <time>2020-06-18T15:19:05Z</time>
      </trkpt>
      <trkpt lat="50.07874" lon="1.46254">
        <ele>103.8</ele>
        <time>2020-06-18T15:19:06Z</time>
      </trkpt>
      <trkpt lat="50.07878" lon="1.46258">
        <ele>103.8</ele>
        <time>2020-06-18T15:19:07Z</time>
      </trkpt>
      <trkpt lat="50.07883" lon="1.46265">
        <ele>103.7</ele>
        <time>2020-06-18T15:19:08Z</time>
      </trkpt>
      <trkpt lat="50.07889" lon="1.4627">
        <ele>103.7</ele>
        <time>2020-06-18T15:19:09Z</time>
      </trkpt>
      <trkpt lat="50.07894" lon="1.46276">
        <ele>103.7</ele>
        <time>2020-06-18T15:19:10Z</time>
      </trkpt>
      <trkpt lat="50.07899" lon="1.46283">
        <ele>103.5</ele>
        <time>2020-06-18T15:19:11Z</time>
      </trkpt>
      <trkpt lat="50.07903" lon="1.46289">
        <ele>103.5</ele>
        <time>2020-06-18T15:19:12Z</time>
      </trkpt>
      <trkpt lat="50.07907" lon="1.46296">
        <ele>103.5</ele>
        <time>2020-06-18T15:19:13Z</time>
      </trkpt>
      <trkpt lat="50.07911" lon="1.46302">
        <ele>103.4</ele>
        <time>2020-06-18T15:19:14Z</time>
      </trkpt>
      <trkpt lat="50.07918" lon="1.46307">
        <ele>103.4</ele>
        <time>2020-06-18T15:19:15Z</time>
      </trkpt>
      <trkpt lat="50.07923" lon="1.46313">
        <ele>103.4</ele>
        <time>2020-06-18T15:19:16Z</time>
      </trkpt>
      <trkpt lat="50.07928" lon="1.46319">
        <ele>103.3</ele>
        <time>2020-06-18T15:19:17Z</time>
      </trkpt>
      <trkpt lat="50.07933" lon="1.46326">
        <ele>103.3</ele>
        <time>2020-06-18T15:19:18Z</time>
      </trkpt>
      <trkpt lat="50.07937" lon="1.46333">
        <ele>103.2</ele>
        <time>2020-06-18T15:19:19Z</time>
      </trkpt>
      <trkpt lat="50.07941" lon="1.4634">
        <ele>103.2</ele>
        <time>2020-06-18T15:19:20Z</time>
      </trkpt>
      <trkpt lat="50.07946" lon="1.46346">
        <ele>103.1</ele>
        <time>2020-06-18T15:19:21Z</time>
      </trkpt>
      <trkpt lat="50.07952" lon="1.46353">
        <ele>103.1</ele>
        <time>2020-06-18T15:19:22Z</time>
      </trkpt>
      <trkpt lat="50.07957" lon="1.4636">
        <ele>103</ele>
        <time>2020-06-18T15:19:23Z</time>
      </trkpt>
      <trkpt lat="50.07963" lon="1.46367">
        <ele>102.9</ele>
        <time>2020-06-18T15:19:24Z</time>
      </trkpt>
      <trkpt lat="50.07967" lon="1.46373">
        <ele>102.8</ele>
        <time>2020-06-18T15:19:25Z</time>
      </trkpt>
      <trkpt lat="50.07972" lon="1.4638">
        <ele>102.7</ele>
        <time>2020-06-18T15:19:26Z</time>
      </trkpt>
      <trkpt lat="50.07977" lon="1.46386">
        <ele>102.7</ele>
        <time>2020-06-18T15:19:27Z</time>
      </trkpt>
      <trkpt lat="50.07982" lon="1.46392">
        <ele>102.6</ele>
        <time>2020-06-18T15:19:28Z</time>
      </trkpt>
      <trkpt lat="50.07987" lon="1.46399">
        <ele>102.5</ele>
        <time>2020-06-18T15:19:29Z</time>
      </trkpt>
      <trkpt lat="50.07992" lon="1.46405">
        <ele>102.5</ele>
        <time>2020-06-18T15:19:30Z</time>
      </trkpt>
      <trkpt lat="50.07997" lon="1.46411">
        <ele>102.4</ele>
        <time>2020-06-18T15:19:31Z</time>
      </trkpt>
      <trkpt lat="50.08001" lon="1.46417">
        <ele>102.3</ele>
        <time>2020-06-18T15:19:32Z</time>
      </trkpt>
      <trkpt lat="50.08006" lon="1.46423">
        <ele>102.3</ele>
        <time>2020-06-18T15:19:33Z</time>
      </trkpt>
      <trkpt lat="50.08011" lon="1.46428">
        <ele>102.2</ele>
        <time>2020-06-18T15:19:34Z</time>
      </trkpt>
      <trkpt lat="50.08016" lon="1.46434">
        <ele>102.2</ele>
        <time>2020-06-18T15:19:35Z</time>
      </trkpt>
      <trkpt lat="50.08021" lon="1.4644">
        <ele>102.1</ele>
        <time>2020-06-18T15:19:36Z</time>
      </trkpt>
      <trkpt lat="50.08026" lon="1.46446">
        <ele>102.1</ele>
        <time>2020-06-18T15:19:37Z</time>
      </trkpt>
      <trkpt lat="50.08031" lon="1.46452">
        <ele>102</ele>
        <time>2020-06-18T15:19:38Z</time>
      </trkpt>
      <trkpt lat="50.08036" lon="1.46457">
        <ele>102</ele>
        <time>2020-06-18T15:19:39Z</time>
      </trkpt>
      <trkpt lat="50.08041" lon="1.46463">
        <ele>101.9</ele>
        <time>2020-06-18T15:19:40Z</time>
      </trkpt>
      <trkpt lat="50.08046" lon="1.46468">
        <ele>101.9</ele>
        <time>2020-06-18T15:19:41Z</time>
      </trkpt>
      <trkpt lat="50.08051" lon="1.46474">
        <ele>101.8</ele>
        <time>2020-06-18T15:19:42Z</time>
      </trkpt>
      <trkpt lat="50.08055" lon="1.46478">
        <ele>101.8</ele>
        <time>2020-06-18T15:19:43Z</time>
      </trkpt>
      <trkpt lat="50.0806" lon="1.46484">
        <ele>101.7</ele>
        <time>2020-06-18T15:19:44Z</time>
      </trkpt>
      <trkpt lat="50.08065" lon="1.46489">
        <ele>101.7</ele>
        <time>2020-06-18T15:19:45Z</time>
      </trkpt>
      <trkpt lat="50.0807" lon="1.46493">
        <ele>101.6</ele>
        <time>2020-06-18T15:19:46Z</time>
      </trkpt>
      <trkpt lat="50.08074" lon="1.46499">
        <ele>101.6</ele>
        <time>2020-06-18T15:19:47Z</time>
      </trkpt>
      <trkpt lat="50.08079" lon="1.46504">
        <ele>101.6</ele>
        <time>2020-06-18T15:19:48Z</time>
      </trkpt>
      <trkpt lat="50.08084" lon="1.46508">
        <ele>101.5</ele>
        <time>2020-06-18T15:19:49Z</time>
      </trkpt>
      <trkpt lat="50.08089" lon="1.46513">
        <ele>101.5</ele>
        <time>2020-06-18T15:19:50Z</time>
      </trkpt>
      <trkpt lat="50.08094" lon="1.46517">
        <ele>101.5</ele>
        <time>2020-06-18T15:19:51Z</time>
      </trkpt>
      <trkpt lat="50.08099" lon="1.4652">
        <ele>101.5</ele>
        <time>2020-06-18T15:19:52Z</time>
      </trkpt>
      <trkpt lat="50.08104" lon="1.46524">
        <ele>101.5</ele>
        <time>2020-06-18T15:19:53Z</time>
      </trkpt>
      <trkpt lat="50.08109" lon="1.46528">
        <ele>101.5</ele>
        <time>2020-06-18T15:19:54Z</time>
      </trkpt>
      <trkpt lat="50.08113" lon="1.46533">
        <ele>101.4</ele>
        <time>2020-06-18T15:19:55Z</time>
      </trkpt>
      <trkpt lat="50.08117" lon="1.46539">
        <ele>101.3</ele>
        <time>2020-06-18T15:19:56Z</time>
      </trkpt>
      <trkpt lat="50.0812" lon="1.46545">
        <ele>101.2</ele>
        <time>2020-06-18T15:19:57Z</time>
      </trkpt>
      <trkpt lat="50.08125" lon="1.46549">
        <ele>101.1</ele>
        <time>2020-06-18T15:19:58Z</time>
      </trkpt>
      <trkpt lat="50.0813" lon="1.46554">
        <ele>101</ele>
        <time>2020-06-18T15:19:59Z</time>
      </trkpt>
      <trkpt lat="50.08135" lon="1.46561">
        <ele>101</ele>
        <time>2020-06-18T15:20:00Z</time>
      </trkpt>
      <trkpt lat="50.0814" lon="1.46568">
        <ele>100.9</ele>
        <time>2020-06-18T15:20:01Z</time>
      </trkpt>
      <trkpt lat="50.08144" lon="1.46575">
        <ele>100.8</ele>
        <time>2020-06-18T15:20:02Z</time>
      </trkpt>
      <trkpt lat="50.08149" lon="1.46583">
        <ele>100.7</ele>
        <time>2020-06-18T15:20:03Z</time>
      </trkpt>
      <trkpt lat="50.08153" lon="1.46591">
        <ele>100.7</ele>
        <time>2020-06-18T15:20:04Z</time>
      </trkpt>
      <trkpt lat="50.08157" lon="1.46599">
        <ele>100.6</ele>
        <time>2020-06-18T15:20:05Z</time>
      </trkpt>
      <trkpt lat="50.08161" lon="1.46606">
        <ele>100.5</ele>
        <time>2020-06-18T15:20:06Z</time>
      </trkpt>
      <trkpt lat="50.08165" lon="1.46613">
        <ele>100.5</ele>
        <time>2020-06-18T15:20:07Z</time>
      </trkpt>
      <trkpt lat="50.08169" lon="1.46621">
        <ele>100.4</ele>
        <time>2020-06-18T15:20:08Z</time>
      </trkpt>
      <trkpt lat="50.08173" lon="1.46628">
        <ele>100.3</ele>
        <time>2020-06-18T15:20:09Z</time>
      </trkpt>
      <trkpt lat="50.08177" lon="1.46635">
        <ele>100.2</ele>
        <time>2020-06-18T15:20:10Z</time>
      </trkpt>
      <trkpt lat="50.08181" lon="1.46641">
        <ele>100.1</ele>
        <time>2020-06-18T15:20:11Z</time>
      </trkpt>
      <trkpt lat="50.08185" lon="1.46648">
        <ele>100</ele>
        <time>2020-06-18T15:20:12Z</time>
      </trkpt>
      <trkpt lat="50.0819" lon="1.46654">
        <ele>100</ele>
        <time>2020-06-18T15:20:13Z</time>
      </trkpt>
      <trkpt lat="50.08194" lon="1.4666">
        <ele>99.9</ele>
        <time>2020-06-18T15:20:14Z</time>
      </trkpt>
      <trkpt lat="50.08197" lon="1.46668">
        <ele>99.8</ele>
        <time>2020-06-18T15:20:15Z</time>
      </trkpt>
      <trkpt lat="50.08201" lon="1.46675">
        <ele>99.8</ele>
        <time>2020-06-18T15:20:16Z</time>
      </trkpt>
      <trkpt lat="50.08204" lon="1.46682">
        <ele>99.7</ele>
        <time>2020-06-18T15:20:17Z</time>
      </trkpt>
      <trkpt lat="50.08209" lon="1.46688">
        <ele>99.6</ele>
        <time>2020-06-18T15:20:18Z</time>
      </trkpt>
      <trkpt lat="50.08213" lon="1.46695">
        <ele>99.5</ele>
        <time>2020-06-18T15:20:19Z</time>
      </trkpt>
      <trkpt lat="50.08218" lon="1.46702">
        <ele>99.5</ele>
        <time>2020-06-18T15:20:20Z</time>
      </trkpt>
      <trkpt lat="50.08222" lon="1.4671">
        <ele>99.4</ele>
        <time>2020-06-18T15:20:21Z</time>
      </trkpt>
      <trkpt lat="50.08226" lon="1.46718">
        <ele>99.3</ele>
        <time>2020-06-18T15:20:22Z</time>
      </trkpt>
      <trkpt lat="50.0823" lon="1.46725">
        <ele>99.2</ele>
        <time>2020-06-18T15:20:23Z</time>
      </trkpt>
      <trkpt lat="50.08235" lon="1.46732">
        <ele>99.2</ele>
        <time>2020-06-18T15:20:24Z</time>
      </trkpt>
      <trkpt lat="50.0824" lon="1.4674">
        <ele>99.1</ele>
        <time>2020-06-18T15:20:25Z</time>
      </trkpt>
      <trkpt lat="50.08244" lon="1.46748">
        <ele>99.1</ele>
        <time>2020-06-18T15:20:26Z</time>
      </trkpt>
      <trkpt lat="50.08248" lon="1.46756">
        <ele>99</ele>
        <time>2020-06-18T15:20:27Z</time>
      </trkpt>
      <trkpt lat="50.08252" lon="1.46764">
        <ele>99</ele>
        <time>2020-06-18T15:20:28Z</time>
      </trkpt>
      <trkpt lat="50.08257" lon="1.46772">
        <ele>98.9</ele>
        <time>2020-06-18T15:20:29Z</time>
      </trkpt>
      <trkpt lat="50.08261" lon="1.4678">
        <ele>98.9</ele>
        <time>2020-06-18T15:20:30Z</time>
      </trkpt>
      <trkpt lat="50.08265" lon="1.46787">
        <ele>98.9</ele>
        <time>2020-06-18T15:20:31Z</time>
      </trkpt>
      <trkpt lat="50.08269" lon="1.46795">
        <ele>98.8</ele>
        <time>2020-06-18T15:20:32Z</time>
      </trkpt>
      <trkpt lat="50.08273" lon="1.46804">
        <ele>98.8</ele>
        <time>2020-06-18T15:20:33Z</time>
      </trkpt>
      <trkpt lat="50.08278" lon="1.46811">
        <ele>98.7</ele>
        <time>2020-06-18T15:20:34Z</time>
      </trkpt>
      <trkpt lat="50.08283" lon="1.46819">
        <ele>98.6</ele>
        <time>2020-06-18T15:20:35Z</time>
      </trkpt>
      <trkpt lat="50.08288" lon="1.46827">
        <ele>98.5</ele>
        <time>2020-06-18T15:20:36Z</time>
      </trkpt>
      <trkpt lat="50.08292" lon="1.46835">
        <ele>98.5</ele>
        <time>2020-06-18T15:20:37Z</time>
      </trkpt>
      <trkpt lat="50.08297" lon="1.46843">
        <ele>98.4</ele>
        <time>2020-06-18T15:20:38Z</time>
      </trkpt>
      <trkpt lat="50.08301" lon="1.46851">
        <ele>98.3</ele>
        <time>2020-06-18T15:20:39Z</time>
      </trkpt>
      <trkpt lat="50.08306" lon="1.46859">
        <ele>98.2</ele>
        <time>2020-06-18T15:20:40Z</time>
      </trkpt>
      <trkpt lat="50.0831" lon="1.46867">
        <ele>98.2</ele>
        <time>2020-06-18T15:20:41Z</time>
      </trkpt>
      <trkpt lat="50.08314" lon="1.46876">
        <ele>98.1</ele>
        <time>2020-06-18T15:20:42Z</time>
      </trkpt>
      <trkpt lat="50.08319" lon="1.46884">
        <ele>98.1</ele>
        <time>2020-06-18T15:20:43Z</time>
      </trkpt>
      <trkpt lat="50.08324" lon="1.46891">
        <ele>98</ele>
        <time>2020-06-18T15:20:44Z</time>
      </trkpt>
      <trkpt lat="50.08329" lon="1.469">
        <ele>97.9</ele>
        <time>2020-06-18T15:20:45Z</time>
      </trkpt>
      <trkpt lat="50.08334" lon="1.46908">
        <ele>97.8</ele>
        <time>2020-06-18T15:20:46Z</time>
      </trkpt>
      <trkpt lat="50.08338" lon="1.46915">
        <ele>97.8</ele>
        <time>2020-06-18T15:20:47Z</time>
      </trkpt>
      <trkpt lat="50.08343" lon="1.46923">
        <ele>97.7</ele>
        <time>2020-06-18T15:20:48Z</time>
      </trkpt>
      <trkpt lat="50.08348" lon="1.46931">
        <ele>97.7</ele>
        <time>2020-06-18T15:20:49Z</time>
      </trkpt>
      <trkpt lat="50.08353" lon="1.46939">
        <ele>97.6</ele>
        <time>2020-06-18T15:20:50Z</time>
      </trkpt>
      <trkpt lat="50.08358" lon="1.46947">
        <ele>97.6</ele>
        <time>2020-06-18T15:20:51Z</time>
      </trkpt>
      <trkpt lat="50.08363" lon="1.46954">
        <ele>97.5</ele>
        <time>2020-06-18T15:20:52Z</time>
      </trkpt>
      <trkpt lat="50.08368" lon="1.46962">
        <ele>97.4</ele>
        <time>2020-06-18T15:20:53Z</time>
      </trkpt>
      <trkpt lat="50.08373" lon="1.46971">
        <ele>97.3</ele>
        <time>2020-06-18T15:20:54Z</time>
      </trkpt>
      <trkpt lat="50.08377" lon="1.46979">
        <ele>97.2</ele>
        <time>2020-06-18T15:20:55Z</time>
      </trkpt>
      <trkpt lat="50.08382" lon="1.46987">
        <ele>97.1</ele>
        <time>2020-06-18T15:20:56Z</time>
      </trkpt>
      <trkpt lat="50.08387" lon="1.46995">
        <ele>97</ele>
        <time>2020-06-18T15:20:57Z</time>
      </trkpt>
      <trkpt lat="50.08392" lon="1.47003">
        <ele>96.9</ele>
        <time>2020-06-18T15:20:58Z</time>
      </trkpt>
      <trkpt lat="50.08396" lon="1.47011">
        <ele>96.9</ele>
        <time>2020-06-18T15:20:59Z</time>
      </trkpt>
      <trkpt lat="50.08401" lon="1.47019">
        <ele>96.8</ele>
        <time>2020-06-18T15:21:00Z</time>
      </trkpt>
      <trkpt lat="50.08406" lon="1.47027">
        <ele>96.7</ele>
        <time>2020-06-18T15:21:01Z</time>
      </trkpt>
      <trkpt lat="50.0841" lon="1.47035">
        <ele>96.7</ele>
        <time>2020-06-18T15:21:02Z</time>
      </trkpt>
      <trkpt lat="50.08415" lon="1.47042">
        <ele>96.6</ele>
        <time>2020-06-18T15:21:03Z</time>
      </trkpt>
      <trkpt lat="50.08419" lon="1.4705">
        <ele>96.6</ele>
        <time>2020-06-18T15:21:04Z</time>
      </trkpt>
      <trkpt lat="50.08424" lon="1.47057">
        <ele>96.5</ele>
        <time>2020-06-18T15:21:05Z</time>
      </trkpt>
      <trkpt lat="50.08429" lon="1.47064">
        <ele>96.5</ele>
        <time>2020-06-18T15:21:06Z</time>
      </trkpt>
      <trkpt lat="50.08433" lon="1.4707">
        <ele>96.4</ele>
        <time>2020-06-18T15:21:07Z</time>
      </trkpt>
      <trkpt lat="50.08439" lon="1.47076">
        <ele>96.4</ele>
        <time>2020-06-18T15:21:08Z</time>
      </trkpt>
      <trkpt lat="50.08444" lon="1.47082">
        <ele>96.3</ele>
        <time>2020-06-18T15:21:09Z</time>
      </trkpt>
      <trkpt lat="50.08449" lon="1.47088">
        <ele>96.3</ele>
        <time>2020-06-18T15:21:10Z</time>
      </trkpt>
      <trkpt lat="50.08455" lon="1.47094">
        <ele>96.2</ele>
        <time>2020-06-18T15:21:11Z</time>
      </trkpt>
      <trkpt lat="50.0846" lon="1.47101">
        <ele>96.2</ele>
        <time>2020-06-18T15:21:12Z</time>
      </trkpt>
      <trkpt lat="50.08467" lon="1.47106">
        <ele>96.2</ele>
        <time>2020-06-18T15:21:13Z</time>
      </trkpt>
      <trkpt lat="50.08473" lon="1.47111">
        <ele>96.1</ele>
        <time>2020-06-18T15:21:14Z</time>
      </trkpt>
      <trkpt lat="50.08479" lon="1.47115">
        <ele>96.1</ele>
        <time>2020-06-18T15:21:15Z</time>
      </trkpt>
      <trkpt lat="50.08485" lon="1.4712">
        <ele>96.1</ele>
        <time>2020-06-18T15:21:16Z</time>
      </trkpt>
      <trkpt lat="50.08491" lon="1.47125">
        <ele>96.1</ele>
        <time>2020-06-18T15:21:17Z</time>
      </trkpt>
      <trkpt lat="50.08498" lon="1.4713">
        <ele>96</ele>
        <time>2020-06-18T15:21:18Z</time>
      </trkpt>
      <trkpt lat="50.08504" lon="1.47136">
        <ele>96</ele>
        <time>2020-06-18T15:21:19Z</time>
      </trkpt>
      <trkpt lat="50.0851" lon="1.47142">
        <ele>96</ele>
        <time>2020-06-18T15:21:20Z</time>
      </trkpt>
      <trkpt lat="50.08515" lon="1.47148">
        <ele>95.9</ele>
        <time>2020-06-18T15:21:21Z</time>
      </trkpt>
      <trkpt lat="50.08521" lon="1.47155">
        <ele>95.9</ele>
        <time>2020-06-18T15:21:22Z</time>
      </trkpt>
      <trkpt lat="50.08528" lon="1.47161">
        <ele>95.9</ele>
        <time>2020-06-18T15:21:23Z</time>
      </trkpt>
      <trkpt lat="50.08533" lon="1.47168">
        <ele>95.9</ele>
        <time>2020-06-18T15:21:24Z</time>
      </trkpt>
      <trkpt lat="50.08539" lon="1.47175">
        <ele>95.8</ele>
        <time>2020-06-18T15:21:25Z</time>
      </trkpt>
      <trkpt lat="50.08544" lon="1.47182">
        <ele>95.8</ele>
        <time>2020-06-18T15:21:26Z</time>
      </trkpt>
      <trkpt lat="50.08549" lon="1.4719">
        <ele>95.7</ele>
        <time>2020-06-18T15:21:27Z</time>
      </trkpt>
      <trkpt lat="50.08554" lon="1.47197">
        <ele>95.7</ele>
        <time>2020-06-18T15:21:28Z</time>
      </trkpt>
      <trkpt lat="50.08559" lon="1.47204">
        <ele>95.7</ele>
        <time>2020-06-18T15:21:29Z</time>
      </trkpt>
      <trkpt lat="50.08564" lon="1.47211">
        <ele>95.7</ele>
        <time>2020-06-18T15:21:30Z</time>
      </trkpt>
      <trkpt lat="50.08568" lon="1.47217">
        <ele>95.7</ele>
        <time>2020-06-18T15:21:31Z</time>
      </trkpt>
      <trkpt lat="50.08573" lon="1.47224">
        <ele>95.7</ele>
        <time>2020-06-18T15:21:32Z</time>
      </trkpt>
      <trkpt lat="50.08578" lon="1.47231">
        <ele>95.7</ele>
        <time>2020-06-18T15:21:33Z</time>
      </trkpt>
      <trkpt lat="50.08583" lon="1.47238">
        <ele>95.6</ele>
        <time>2020-06-18T15:21:34Z</time>
      </trkpt>
      <trkpt lat="50.08588" lon="1.47244">
        <ele>95.5</ele>
        <time>2020-06-18T15:21:35Z</time>
      </trkpt>
      <trkpt lat="50.08594" lon="1.4725">
        <ele>95.4</ele>
        <time>2020-06-18T15:21:36Z</time>
      </trkpt>
      <trkpt lat="50.08599" lon="1.47256">
        <ele>95.3</ele>
        <time>2020-06-18T15:21:37Z</time>
      </trkpt>
      <trkpt lat="50.08605" lon="1.47261">
        <ele>95.2</ele>
        <time>2020-06-18T15:21:38Z</time>
      </trkpt>
      <trkpt lat="50.08611" lon="1.47267">
        <ele>95.1</ele>
        <time>2020-06-18T15:21:39Z</time>
      </trkpt>
      <trkpt lat="50.08617" lon="1.47273">
        <ele>95</ele>
        <time>2020-06-18T15:21:40Z</time>
      </trkpt>
      <trkpt lat="50.08623" lon="1.47278">
        <ele>95</ele>
        <time>2020-06-18T15:21:41Z</time>
      </trkpt>
      <trkpt lat="50.08628" lon="1.47285">
        <ele>94.9</ele>
        <time>2020-06-18T15:21:42Z</time>
      </trkpt>
      <trkpt lat="50.08634" lon="1.47291">
        <ele>94.9</ele>
        <time>2020-06-18T15:21:43Z</time>
      </trkpt>
      <trkpt lat="50.0864" lon="1.47296">
        <ele>94.9</ele>
        <time>2020-06-18T15:21:44Z</time>
      </trkpt>
      <trkpt lat="50.08646" lon="1.47302">
        <ele>94.8</ele>
        <time>2020-06-18T15:21:45Z</time>
      </trkpt>
      <trkpt lat="50.08652" lon="1.47307">
        <ele>94.8</ele>
        <time>2020-06-18T15:21:46Z</time>
      </trkpt>
      <trkpt lat="50.08658" lon="1.47313">
        <ele>94.7</ele>
        <time>2020-06-18T15:21:47Z</time>
      </trkpt>
      <trkpt lat="50.08664" lon="1.4732">
        <ele>94.7</ele>
        <time>2020-06-18T15:21:48Z</time>
      </trkpt>
      <trkpt lat="50.0867" lon="1.47326">
        <ele>94.6</ele>
        <time>2020-06-18T15:21:49Z</time>
      </trkpt>
      <trkpt lat="50.08676" lon="1.47331">
        <ele>94.6</ele>
        <time>2020-06-18T15:21:50Z</time>
      </trkpt>
      <trkpt lat="50.08682" lon="1.47337">
        <ele>94.5</ele>
        <time>2020-06-18T15:21:51Z</time>
      </trkpt>
      <trkpt lat="50.08688" lon="1.47342">
        <ele>94.5</ele>
        <time>2020-06-18T15:21:52Z</time>
      </trkpt>
      <trkpt lat="50.08694" lon="1.47346">
        <ele>94.4</ele>
        <time>2020-06-18T15:21:53Z</time>
      </trkpt>
      <trkpt lat="50.08701" lon="1.47349">
        <ele>94.3</ele>
        <time>2020-06-18T15:21:54Z</time>
      </trkpt>
      <trkpt lat="50.08707" lon="1.47353">
        <ele>94.3</ele>
        <time>2020-06-18T15:21:55Z</time>
      </trkpt>
      <trkpt lat="50.08714" lon="1.47354">
        <ele>94.2</ele>
        <time>2020-06-18T15:21:56Z</time>
      </trkpt>
      <trkpt lat="50.08721" lon="1.47356">
        <ele>94.1</ele>
        <time>2020-06-18T15:21:57Z</time>
      </trkpt>
      <trkpt lat="50.08727" lon="1.47359">
        <ele>94</ele>
        <time>2020-06-18T15:21:58Z</time>
      </trkpt>
      <trkpt lat="50.08734" lon="1.47362">
        <ele>93.9</ele>
        <time>2020-06-18T15:21:59Z</time>
      </trkpt>
      <trkpt lat="50.08741" lon="1.47365">
        <ele>93.8</ele>
        <time>2020-06-18T15:22:00Z</time>
      </trkpt>
      <trkpt lat="50.08748" lon="1.47368">
        <ele>93.8</ele>
        <time>2020-06-18T15:22:01Z</time>
      </trkpt>
      <trkpt lat="50.08754" lon="1.47371">
        <ele>93.7</ele>
        <time>2020-06-18T15:22:02Z</time>
      </trkpt>
      <trkpt lat="50.08761" lon="1.47375">
        <ele>93.7</ele>
        <time>2020-06-18T15:22:03Z</time>
      </trkpt>
      <trkpt lat="50.08768" lon="1.47378">
        <ele>93.6</ele>
        <time>2020-06-18T15:22:04Z</time>
      </trkpt>
      <trkpt lat="50.08774" lon="1.47383">
        <ele>93.5</ele>
        <time>2020-06-18T15:22:05Z</time>
      </trkpt>
      <trkpt lat="50.08781" lon="1.47387">
        <ele>93.4</ele>
        <time>2020-06-18T15:22:06Z</time>
      </trkpt>
      <trkpt lat="50.08788" lon="1.47392">
        <ele>93.4</ele>
        <time>2020-06-18T15:22:07Z</time>
      </trkpt>
      <trkpt lat="50.08795" lon="1.47396">
        <ele>93.2</ele>
        <time>2020-06-18T15:22:08Z</time>
      </trkpt>
      <trkpt lat="50.08802" lon="1.47401">
        <ele>93.1</ele>
        <time>2020-06-18T15:22:09Z</time>
      </trkpt>
      <trkpt lat="50.08808" lon="1.47406">
        <ele>93</ele>
        <time>2020-06-18T15:22:10Z</time>
      </trkpt>
      <trkpt lat="50.08815" lon="1.47411">
        <ele>92.9</ele>
        <time>2020-06-18T15:22:11Z</time>
      </trkpt>
      <trkpt lat="50.08821" lon="1.47415">
        <ele>92.8</ele>
        <time>2020-06-18T15:22:12Z</time>
      </trkpt>
      <trkpt lat="50.08828" lon="1.47419">
        <ele>92.7</ele>
        <time>2020-06-18T15:22:13Z</time>
      </trkpt>
      <trkpt lat="50.08834" lon="1.47423">
        <ele>92.7</ele>
        <time>2020-06-18T15:22:14Z</time>
      </trkpt>
      <trkpt lat="50.0884" lon="1.47427">
        <ele>92.6</ele>
        <time>2020-06-18T15:22:15Z</time>
      </trkpt>
      <trkpt lat="50.08847" lon="1.47431">
        <ele>92.6</ele>
        <time>2020-06-18T15:22:16Z</time>
      </trkpt>
      <trkpt lat="50.08853" lon="1.47434">
        <ele>92.6</ele>
        <time>2020-06-18T15:22:17Z</time>
      </trkpt>
      <trkpt lat="50.08859" lon="1.47437">
        <ele>92.6</ele>
        <time>2020-06-18T15:22:18Z</time>
      </trkpt>
      <trkpt lat="50.08865" lon="1.4744">
        <ele>92.5</ele>
        <time>2020-06-18T15:22:19Z</time>
      </trkpt>
      <trkpt lat="50.08871" lon="1.47444">
        <ele>92.5</ele>
        <time>2020-06-18T15:22:20Z</time>
      </trkpt>
      <trkpt lat="50.08876" lon="1.47448">
        <ele>92.4</ele>
        <time>2020-06-18T15:22:21Z</time>
      </trkpt>
      <trkpt lat="50.08881" lon="1.47453">
        <ele>92.4</ele>
        <time>2020-06-18T15:22:22Z</time>
      </trkpt>
      <trkpt lat="50.08887" lon="1.47456">
        <ele>92.3</ele>
        <time>2020-06-18T15:22:23Z</time>
      </trkpt>
      <trkpt lat="50.08892" lon="1.47461">
        <ele>92.3</ele>
        <time>2020-06-18T15:22:24Z</time>
      </trkpt>
      <trkpt lat="50.08897" lon="1.47466">
        <ele>92.3</ele>
        <time>2020-06-18T15:22:25Z</time>
      </trkpt>
      <trkpt lat="50.08902" lon="1.47468">
        <ele>92.3</ele>
        <time>2020-06-18T15:22:26Z</time>
      </trkpt>
      <trkpt lat="50.08906" lon="1.47471">
        <ele>92.3</ele>
        <time>2020-06-18T15:22:27Z</time>
      </trkpt>
      <trkpt lat="50.0891" lon="1.47474">
        <ele>92.3</ele>
        <time>2020-06-18T15:22:28Z</time>
      </trkpt>
      <trkpt lat="50.08914" lon="1.47476">
        <ele>92.3</ele>
        <time>2020-06-18T15:22:29Z</time>
      </trkpt>
      <trkpt lat="50.08916" lon="1.47477">
        <ele>92.3</ele>
        <time>2020-06-18T15:22:30Z</time>
      </trkpt>
      <trkpt lat="50.08918" lon="1.47477">
        <ele>92.3</ele>
        <time>2020-06-18T15:22:31Z</time>
      </trkpt>
      <trkpt lat="50.0892" lon="1.47478">
        <ele>92.3</ele>
        <time>2020-06-18T15:22:32Z</time>
      </trkpt>
      <trkpt lat="50.0892" lon="1.47479">
        <ele>92.3</ele>
        <time>2020-06-18T15:22:33Z</time>
      </trkpt>
      <trkpt lat="50.0892" lon="1.47479">
        <ele>92.3</ele>
        <time>2020-06-18T15:22:34Z</time>
      </trkpt>
      <trkpt lat="50.08921" lon="1.47479">
        <ele>92.3</ele>
        <time>2020-06-18T15:22:35Z</time>
      </trkpt>
      <trkpt lat="50.08921" lon="1.47479">
        <ele>92.3</ele>
        <time>2020-06-18T15:22:36Z</time>
      </trkpt>
      <trkpt lat="50.08921" lon="1.47479">
        <ele>92.2</ele>
        <time>2020-06-18T15:22:37Z</time>
      </trkpt>
      <trkpt lat="50.08922" lon="1.47479">
        <ele>92.2</ele>
        <time>2020-06-18T15:22:38Z</time>
      </trkpt>
      <trkpt lat="50.08922" lon="1.4748">
        <ele>92.2</ele>
        <time>2020-06-18T15:22:39Z</time>
      </trkpt>
      <trkpt lat="50.08922" lon="1.4748">
        <ele>92.2</ele>
        <time>2020-06-18T15:22:40Z</time>
      </trkpt>
      <trkpt lat="50.08923" lon="1.4748">
        <ele>92.2</ele>
        <time>2020-06-18T15:22:41Z</time>
      </trkpt>
      <trkpt lat="50.08923" lon="1.4748">
        <ele>92.2</ele>
        <time>2020-06-18T15:22:42Z</time>
      </trkpt>
      <trkpt lat="50.08923" lon="1.4748">
        <ele>92.2</ele>
        <time>2020-06-18T15:22:43Z</time>
      </trkpt>
      <trkpt lat="50.08923" lon="1.4748">
        <ele>92.2</ele>
        <time>2020-06-18T15:22:44Z</time>
      </trkpt>
      <trkpt lat="50.08926" lon="1.47482">
        <ele>92.2</ele>
        <time>2020-06-18T15:22:45Z</time>
      </trkpt>
      <trkpt lat="50.08927" lon="1.47482">
        <ele>92.2</ele>
        <time>2020-06-18T15:22:46Z</time>
      </trkpt>
      <trkpt lat="50.0893" lon="1.47484">
        <ele>92.1</ele>
        <time>2020-06-18T15:22:47Z</time>
      </trkpt>
      <trkpt lat="50.08931" lon="1.47485">
        <ele>92.1</ele>
        <time>2020-06-18T15:22:48Z</time>
      </trkpt>
      <trkpt lat="50.08935" lon="1.47488">
        <ele>92</ele>
        <time>2020-06-18T15:22:49Z</time>
      </trkpt>
      <trkpt lat="50.08936" lon="1.47489">
        <ele>92</ele>
        <time>2020-06-18T15:22:50Z</time>
      </trkpt>
      <trkpt lat="50.0894" lon="1.47492">
        <ele>91.9</ele>
        <time>2020-06-18T15:22:51Z</time>
      </trkpt>
      <trkpt lat="50.08943" lon="1.47494">
        <ele>91.9</ele>
        <time>2020-06-18T15:22:52Z</time>
      </trkpt>
      <trkpt lat="50.08947" lon="1.47496">
        <ele>91.8</ele>
        <time>2020-06-18T15:22:53Z</time>
      </trkpt>
      <trkpt lat="50.08951" lon="1.47499">
        <ele>91.8</ele>
        <time>2020-06-18T15:22:54Z</time>
      </trkpt>
      <trkpt lat="50.08955" lon="1.47501">
        <ele>91.7</ele>
        <time>2020-06-18T15:22:55Z</time>
      </trkpt>
      <trkpt lat="50.08959" lon="1.47503">
        <ele>91.7</ele>
        <time>2020-06-18T15:22:56Z</time>
      </trkpt>
      <trkpt lat="50.08964" lon="1.47507">
        <ele>91.7</ele>
        <time>2020-06-18T15:22:57Z</time>
      </trkpt>
      <trkpt lat="50.08969" lon="1.47508">
        <ele>91.7</ele>
        <time>2020-06-18T15:22:58Z</time>
      </trkpt>
      <trkpt lat="50.08975" lon="1.4751">
        <ele>91.7</ele>
        <time>2020-06-18T15:22:59Z</time>
      </trkpt>
      <trkpt lat="50.0898" lon="1.47515">
        <ele>91.8</ele>
        <time>2020-06-18T15:23:00Z</time>
      </trkpt>
      <trkpt lat="50.08986" lon="1.47516">
        <ele>91.8</ele>
        <time>2020-06-18T15:23:01Z</time>
      </trkpt>
      <trkpt lat="50.08992" lon="1.47517">
        <ele>91.8</ele>
        <time>2020-06-18T15:23:02Z</time>
      </trkpt>
      <trkpt lat="50.08998" lon="1.47518">
        <ele>91.8</ele>
        <time>2020-06-18T15:23:03Z</time>
      </trkpt>
      <trkpt lat="50.09004" lon="1.4752">
        <ele>91.8</ele>
        <time>2020-06-18T15:23:04Z</time>
      </trkpt>
      <trkpt lat="50.0901" lon="1.4752">
        <ele>91.9</ele>
        <time>2020-06-18T15:23:05Z</time>
      </trkpt>
      <trkpt lat="50.09016" lon="1.47522">
        <ele>91.9</ele>
        <time>2020-06-18T15:23:06Z</time>
      </trkpt>
      <trkpt lat="50.09022" lon="1.47524">
        <ele>92</ele>
        <time>2020-06-18T15:23:07Z</time>
      </trkpt>
      <trkpt lat="50.09028" lon="1.47527">
        <ele>92.1</ele>
        <time>2020-06-18T15:23:08Z</time>
      </trkpt>
      <trkpt lat="50.09034" lon="1.47527">
        <ele>92.2</ele>
        <time>2020-06-18T15:23:09Z</time>
      </trkpt>
      <trkpt lat="50.0904" lon="1.47529">
        <ele>92.2</ele>
        <time>2020-06-18T15:23:10Z</time>
      </trkpt>
      <trkpt lat="50.09046" lon="1.4753">
        <ele>92.3</ele>
        <time>2020-06-18T15:23:11Z</time>
      </trkpt>
      <trkpt lat="50.09052" lon="1.47533">
        <ele>92.4</ele>
        <time>2020-06-18T15:23:12Z</time>
      </trkpt>
      <trkpt lat="50.09058" lon="1.47537">
        <ele>92.5</ele>
        <time>2020-06-18T15:23:13Z</time>
      </trkpt>
      <trkpt lat="50.09064" lon="1.47538">
        <ele>92.6</ele>
        <time>2020-06-18T15:23:14Z</time>
      </trkpt>
      <trkpt lat="50.09069" lon="1.47542">
        <ele>92.7</ele>
        <time>2020-06-18T15:23:15Z</time>
      </trkpt>
      <trkpt lat="50.09075" lon="1.47543">
        <ele>92.7</ele>
        <time>2020-06-18T15:23:16Z</time>
      </trkpt>
      <trkpt lat="50.09081" lon="1.47545">
        <ele>92.6</ele>
        <time>2020-06-18T15:23:17Z</time>
      </trkpt>
      <trkpt lat="50.09086" lon="1.4755">
        <ele>92.6</ele>
        <time>2020-06-18T15:23:18Z</time>
      </trkpt>
      <trkpt lat="50.09091" lon="1.47553">
        <ele>92.6</ele>
        <time>2020-06-18T15:23:19Z</time>
      </trkpt>
      <trkpt lat="50.09096" lon="1.47556">
        <ele>92.6</ele>
        <time>2020-06-18T15:23:20Z</time>
      </trkpt>
      <trkpt lat="50.09101" lon="1.4756">
        <ele>92.7</ele>
        <time>2020-06-18T15:23:21Z</time>
      </trkpt>
      <trkpt lat="50.09106" lon="1.47565">
        <ele>92.7</ele>
        <time>2020-06-18T15:23:22Z</time>
      </trkpt>
      <trkpt lat="50.0911" lon="1.47571">
        <ele>92.8</ele>
        <time>2020-06-18T15:23:23Z</time>
      </trkpt>
      <trkpt lat="50.09115" lon="1.47575">
        <ele>92.8</ele>
        <time>2020-06-18T15:23:24Z</time>
      </trkpt>
      <trkpt lat="50.09119" lon="1.4758">
        <ele>92.9</ele>
        <time>2020-06-18T15:23:25Z</time>
      </trkpt>
      <trkpt lat="50.09124" lon="1.47586">
        <ele>93</ele>
        <time>2020-06-18T15:23:26Z</time>
      </trkpt>
      <trkpt lat="50.09129" lon="1.47592">
        <ele>93.1</ele>
        <time>2020-06-18T15:23:27Z</time>
      </trkpt>
      <trkpt lat="50.09135" lon="1.47596">
        <ele>93.1</ele>
        <time>2020-06-18T15:23:28Z</time>
      </trkpt>
      <trkpt lat="50.0914" lon="1.47601">
        <ele>93.2</ele>
        <time>2020-06-18T15:23:29Z</time>
      </trkpt>
      <trkpt lat="50.09145" lon="1.47607">
        <ele>93.2</ele>
        <time>2020-06-18T15:23:30Z</time>
      </trkpt>
      <trkpt lat="50.09149" lon="1.47613">
        <ele>93.3</ele>
        <time>2020-06-18T15:23:31Z</time>
      </trkpt>
      <trkpt lat="50.09154" lon="1.47618">
        <ele>93.3</ele>
        <time>2020-06-18T15:23:32Z</time>
      </trkpt>
      <trkpt lat="50.09158" lon="1.47624">
        <ele>93.4</ele>
        <time>2020-06-18T15:23:33Z</time>
      </trkpt>
      <trkpt lat="50.09163" lon="1.4763">
        <ele>93.4</ele>
        <time>2020-06-18T15:23:34Z</time>
      </trkpt>
      <trkpt lat="50.09168" lon="1.47635">
        <ele>93.4</ele>
        <time>2020-06-18T15:23:35Z</time>
      </trkpt>
      <trkpt lat="50.09172" lon="1.4764">
        <ele>93.5</ele>
        <time>2020-06-18T15:23:36Z</time>
      </trkpt>
      <trkpt lat="50.09176" lon="1.47648">
        <ele>93.5</ele>
        <time>2020-06-18T15:23:37Z</time>
      </trkpt>
      <trkpt lat="50.09181" lon="1.47654">
        <ele>93.6</ele>
        <time>2020-06-18T15:23:38Z</time>
      </trkpt>
      <trkpt lat="50.09187" lon="1.47661">
        <ele>93.6</ele>
        <time>2020-06-18T15:23:39Z</time>
      </trkpt>
      <trkpt lat="50.09191" lon="1.47667">
        <ele>93.7</ele>
        <time>2020-06-18T15:23:40Z</time>
      </trkpt>
      <trkpt lat="50.09195" lon="1.47673">
        <ele>93.7</ele>
        <time>2020-06-18T15:23:41Z</time>
      </trkpt>
      <trkpt lat="50.09199" lon="1.47679">
        <ele>93.8</ele>
        <time>2020-06-18T15:23:42Z</time>
      </trkpt>
      <trkpt lat="50.09203" lon="1.47684">
        <ele>93.8</ele>
        <time>2020-06-18T15:23:43Z</time>
      </trkpt>
      <trkpt lat="50.09207" lon="1.47693">
        <ele>93.9</ele>
        <time>2020-06-18T15:23:44Z</time>
      </trkpt>
      <trkpt lat="50.0921" lon="1.47699">
        <ele>93.9</ele>
        <time>2020-06-18T15:23:45Z</time>
      </trkpt>
      <trkpt lat="50.09214" lon="1.47705">
        <ele>94</ele>
        <time>2020-06-18T15:23:46Z</time>
      </trkpt>
      <trkpt lat="50.09218" lon="1.47716">
        <ele>94.1</ele>
        <time>2020-06-18T15:23:47Z</time>
      </trkpt>
      <trkpt lat="50.09221" lon="1.47722">
        <ele>94.1</ele>
        <time>2020-06-18T15:23:48Z</time>
      </trkpt>
      <trkpt lat="50.09224" lon="1.47729">
        <ele>94.1</ele>
        <time>2020-06-18T15:23:49Z</time>
      </trkpt>
      <trkpt lat="50.09228" lon="1.47737">
        <ele>94.2</ele>
        <time>2020-06-18T15:23:50Z</time>
      </trkpt>
      <trkpt lat="50.09232" lon="1.47748">
        <ele>94.2</ele>
        <time>2020-06-18T15:23:51Z</time>
      </trkpt>
      <trkpt lat="50.09235" lon="1.47755">
        <ele>94.2</ele>
        <time>2020-06-18T15:23:52Z</time>
      </trkpt>
      <trkpt lat="50.09238" lon="1.47763">
        <ele>94.2</ele>
        <time>2020-06-18T15:23:53Z</time>
      </trkpt>
      <trkpt lat="50.09241" lon="1.47769">
        <ele>94.3</ele>
        <time>2020-06-18T15:23:54Z</time>
      </trkpt>
      <trkpt lat="50.09245" lon="1.47776">
        <ele>94.3</ele>
        <time>2020-06-18T15:23:55Z</time>
      </trkpt>
      <trkpt lat="50.09248" lon="1.47783">
        <ele>94.3</ele>
        <time>2020-06-18T15:23:56Z</time>
      </trkpt>
      <trkpt lat="50.09252" lon="1.47791">
        <ele>94.4</ele>
        <time>2020-06-18T15:23:57Z</time>
      </trkpt>
      <trkpt lat="50.09256" lon="1.47799">
        <ele>94.4</ele>
        <time>2020-06-18T15:23:58Z</time>
      </trkpt>
      <trkpt lat="50.0926" lon="1.47807">
        <ele>94.4</ele>
        <time>2020-06-18T15:23:59Z</time>
      </trkpt>
      <trkpt lat="50.09263" lon="1.47813">
        <ele>94.5</ele>
        <time>2020-06-18T15:24:00Z</time>
      </trkpt>
      <trkpt lat="50.09266" lon="1.4782">
        <ele>94.5</ele>
        <time>2020-06-18T15:24:01Z</time>
      </trkpt>
      <trkpt lat="50.09269" lon="1.47828">
        <ele>94.5</ele>
        <time>2020-06-18T15:24:02Z</time>
      </trkpt>
      <trkpt lat="50.09271" lon="1.47834">
        <ele>94.5</ele>
        <time>2020-06-18T15:24:03Z</time>
      </trkpt>
      <trkpt lat="50.09274" lon="1.47842">
        <ele>94.5</ele>
        <time>2020-06-18T15:24:04Z</time>
      </trkpt>
      <trkpt lat="50.09278" lon="1.4785">
        <ele>94.4</ele>
        <time>2020-06-18T15:24:05Z</time>
      </trkpt>
      <trkpt lat="50.09282" lon="1.47859">
        <ele>94.3</ele>
        <time>2020-06-18T15:24:06Z</time>
      </trkpt>
      <trkpt lat="50.09284" lon="1.47864">
        <ele>94.2</ele>
        <time>2020-06-18T15:24:07Z</time>
      </trkpt>
      <trkpt lat="50.09288" lon="1.47874">
        <ele>94.1</ele>
        <time>2020-06-18T15:24:08Z</time>
      </trkpt>
      <trkpt lat="50.09292" lon="1.47882">
        <ele>94</ele>
        <time>2020-06-18T15:24:09Z</time>
      </trkpt>
      <trkpt lat="50.09296" lon="1.47893">
        <ele>93.8</ele>
        <time>2020-06-18T15:24:10Z</time>
      </trkpt>
      <trkpt lat="50.093" lon="1.47903">
        <ele>93.7</ele>
        <time>2020-06-18T15:24:11Z</time>
      </trkpt>
      <trkpt lat="50.09305" lon="1.47913">
        <ele>93.6</ele>
        <time>2020-06-18T15:24:12Z</time>
      </trkpt>
      <trkpt lat="50.09309" lon="1.47923">
        <ele>93.5</ele>
        <time>2020-06-18T15:24:13Z</time>
      </trkpt>
      <trkpt lat="50.09312" lon="1.47931">
        <ele>93.3</ele>
        <time>2020-06-18T15:24:14Z</time>
      </trkpt>
      <trkpt lat="50.09315" lon="1.47939">
        <ele>93.2</ele>
        <time>2020-06-18T15:24:15Z</time>
      </trkpt>
      <trkpt lat="50.09318" lon="1.47948">
        <ele>93</ele>
        <time>2020-06-18T15:24:16Z</time>
      </trkpt>
      <trkpt lat="50.09321" lon="1.47957">
        <ele>92.9</ele>
        <time>2020-06-18T15:24:17Z</time>
      </trkpt>
      <trkpt lat="50.09324" lon="1.47965">
        <ele>92.7</ele>
        <time>2020-06-18T15:24:18Z</time>
      </trkpt>
      <trkpt lat="50.09327" lon="1.47973">
        <ele>92.6</ele>
        <time>2020-06-18T15:24:19Z</time>
      </trkpt>
      <trkpt lat="50.09331" lon="1.47981">
        <ele>92.4</ele>
        <time>2020-06-18T15:24:20Z</time>
      </trkpt>
      <trkpt lat="50.09334" lon="1.4799">
        <ele>92.3</ele>
        <time>2020-06-18T15:24:21Z</time>
      </trkpt>
      <trkpt lat="50.09337" lon="1.47999">
        <ele>92.1</ele>
        <time>2020-06-18T15:24:22Z</time>
      </trkpt>
      <trkpt lat="50.09341" lon="1.48008">
        <ele>91.9</ele>
        <time>2020-06-18T15:24:23Z</time>
      </trkpt>
      <trkpt lat="50.09345" lon="1.48017">
        <ele>91.6</ele>
        <time>2020-06-18T15:24:24Z</time>
      </trkpt>
      <trkpt lat="50.09348" lon="1.48025">
        <ele>91.3</ele>
        <time>2020-06-18T15:24:25Z</time>
      </trkpt>
      <trkpt lat="50.09352" lon="1.48033">
        <ele>91.1</ele>
        <time>2020-06-18T15:24:26Z</time>
      </trkpt>
      <trkpt lat="50.09357" lon="1.48042">
        <ele>90.8</ele>
        <time>2020-06-18T15:24:27Z</time>
      </trkpt>
      <trkpt lat="50.0936" lon="1.48051">
        <ele>90.6</ele>
        <time>2020-06-18T15:24:28Z</time>
      </trkpt>
      <trkpt lat="50.09364" lon="1.4806">
        <ele>90.3</ele>
        <time>2020-06-18T15:24:29Z</time>
      </trkpt>
      <trkpt lat="50.09368" lon="1.48069">
        <ele>90.1</ele>
        <time>2020-06-18T15:24:30Z</time>
      </trkpt>
      <trkpt lat="50.09372" lon="1.48077">
        <ele>89.9</ele>
        <time>2020-06-18T15:24:31Z</time>
      </trkpt>
      <trkpt lat="50.09376" lon="1.48086">
        <ele>89.7</ele>
        <time>2020-06-18T15:24:32Z</time>
      </trkpt>
      <trkpt lat="50.09381" lon="1.48094">
        <ele>89.5</ele>
        <time>2020-06-18T15:24:33Z</time>
      </trkpt>
      <trkpt lat="50.09385" lon="1.48102">
        <ele>89.3</ele>
        <time>2020-06-18T15:24:34Z</time>
      </trkpt>
      <trkpt lat="50.09389" lon="1.4811">
        <ele>89.2</ele>
        <time>2020-06-18T15:24:35Z</time>
      </trkpt>
      <trkpt lat="50.09393" lon="1.48118">
        <ele>89</ele>
        <time>2020-06-18T15:24:36Z</time>
      </trkpt>
      <trkpt lat="50.09397" lon="1.48126">
        <ele>88.9</ele>
        <time>2020-06-18T15:24:37Z</time>
      </trkpt>
      <trkpt lat="50.09401" lon="1.48135">
        <ele>88.7</ele>
        <time>2020-06-18T15:24:38Z</time>
      </trkpt>
      <trkpt lat="50.09405" lon="1.48143">
        <ele>88.6</ele>
        <time>2020-06-18T15:24:39Z</time>
      </trkpt>
      <trkpt lat="50.09409" lon="1.48151">
        <ele>88.4</ele>
        <time>2020-06-18T15:24:40Z</time>
      </trkpt>
      <trkpt lat="50.09413" lon="1.48159">
        <ele>88.2</ele>
        <time>2020-06-18T15:24:41Z</time>
      </trkpt>
      <trkpt lat="50.09417" lon="1.48167">
        <ele>88</ele>
        <time>2020-06-18T15:24:42Z</time>
      </trkpt>
      <trkpt lat="50.09421" lon="1.48175">
        <ele>87.9</ele>
        <time>2020-06-18T15:24:43Z</time>
      </trkpt>
      <trkpt lat="50.09425" lon="1.48183">
        <ele>87.7</ele>
        <time>2020-06-18T15:24:44Z</time>
      </trkpt>
      <trkpt lat="50.09429" lon="1.48191">
        <ele>87.5</ele>
        <time>2020-06-18T15:24:45Z</time>
      </trkpt>
      <trkpt lat="50.09433" lon="1.482">
        <ele>87.4</ele>
        <time>2020-06-18T15:24:46Z</time>
      </trkpt>
      <trkpt lat="50.09437" lon="1.48208">
        <ele>87.2</ele>
        <time>2020-06-18T15:24:47Z</time>
      </trkpt>
      <trkpt lat="50.09441" lon="1.48216">
        <ele>87</ele>
        <time>2020-06-18T15:24:48Z</time>
      </trkpt>
      <trkpt lat="50.09445" lon="1.48225">
        <ele>86.8</ele>
        <time>2020-06-18T15:24:49Z</time>
      </trkpt>
      <trkpt lat="50.09449" lon="1.48234">
        <ele>86.6</ele>
        <time>2020-06-18T15:24:50Z</time>
      </trkpt>
      <trkpt lat="50.09453" lon="1.48242">
        <ele>86.4</ele>
        <time>2020-06-18T15:24:51Z</time>
      </trkpt>
      <trkpt lat="50.09457" lon="1.48251">
        <ele>86.2</ele>
        <time>2020-06-18T15:24:52Z</time>
      </trkpt>
      <trkpt lat="50.09461" lon="1.4826">
        <ele>86.1</ele>
        <time>2020-06-18T15:24:53Z</time>
      </trkpt>
      <trkpt lat="50.09465" lon="1.48268">
        <ele>85.9</ele>
        <time>2020-06-18T15:24:54Z</time>
      </trkpt>
      <trkpt lat="50.09469" lon="1.48277">
        <ele>85.8</ele>
        <time>2020-06-18T15:24:55Z</time>
      </trkpt>
      <trkpt lat="50.09473" lon="1.48286">
        <ele>85.7</ele>
        <time>2020-06-18T15:24:56Z</time>
      </trkpt>
      <trkpt lat="50.09478" lon="1.48294">
        <ele>85.5</ele>
        <time>2020-06-18T15:24:57Z</time>
      </trkpt>
      <trkpt lat="50.09482" lon="1.48303">
        <ele>85.4</ele>
        <time>2020-06-18T15:24:58Z</time>
      </trkpt>
      <trkpt lat="50.09486" lon="1.48312">
        <ele>85.3</ele>
        <time>2020-06-18T15:24:59Z</time>
      </trkpt>
      <trkpt lat="50.09489" lon="1.48321">
        <ele>85.2</ele>
        <time>2020-06-18T15:25:00Z</time>
      </trkpt>
      <trkpt lat="50.09493" lon="1.4833">
        <ele>85.1</ele>
        <time>2020-06-18T15:25:01Z</time>
      </trkpt>
      <trkpt lat="50.09496" lon="1.4834">
        <ele>84.9</ele>
        <time>2020-06-18T15:25:02Z</time>
      </trkpt>
      <trkpt lat="50.095" lon="1.48349">
        <ele>84.8</ele>
        <time>2020-06-18T15:25:03Z</time>
      </trkpt>
      <trkpt lat="50.09503" lon="1.48358">
        <ele>84.7</ele>
        <time>2020-06-18T15:25:04Z</time>
      </trkpt>
      <trkpt lat="50.09507" lon="1.48366">
        <ele>84.6</ele>
        <time>2020-06-18T15:25:05Z</time>
      </trkpt>
      <trkpt lat="50.09509" lon="1.48375">
        <ele>84.5</ele>
        <time>2020-06-18T15:25:06Z</time>
      </trkpt>
      <trkpt lat="50.09512" lon="1.48385">
        <ele>84.4</ele>
        <time>2020-06-18T15:25:07Z</time>
      </trkpt>
      <trkpt lat="50.09514" lon="1.48394">
        <ele>84.3</ele>
        <time>2020-06-18T15:25:08Z</time>
      </trkpt>
      <trkpt lat="50.09517" lon="1.48404">
        <ele>84.2</ele>
        <time>2020-06-18T15:25:09Z</time>
      </trkpt>
      <trkpt lat="50.09518" lon="1.48414">
        <ele>84.1</ele>
        <time>2020-06-18T15:25:10Z</time>
      </trkpt>
      <trkpt lat="50.0952" lon="1.48424">
        <ele>84</ele>
        <time>2020-06-18T15:25:11Z</time>
      </trkpt>
      <trkpt lat="50.09522" lon="1.48435">
        <ele>83.9</ele>
        <time>2020-06-18T15:25:12Z</time>
      </trkpt>
      <trkpt lat="50.09523" lon="1.48446">
        <ele>83.8</ele>
        <time>2020-06-18T15:25:13Z</time>
      </trkpt>
      <trkpt lat="50.09524" lon="1.48457">
        <ele>83.7</ele>
        <time>2020-06-18T15:25:14Z</time>
      </trkpt>
      <trkpt lat="50.09524" lon="1.48467">
        <ele>83.7</ele>
        <time>2020-06-18T15:25:15Z</time>
      </trkpt>
      <trkpt lat="50.09525" lon="1.48478">
        <ele>83.6</ele>
        <time>2020-06-18T15:25:16Z</time>
      </trkpt>
      <trkpt lat="50.09527" lon="1.48488">
        <ele>83.5</ele>
        <time>2020-06-18T15:25:17Z</time>
      </trkpt>
      <trkpt lat="50.09528" lon="1.48499">
        <ele>83.4</ele>
        <time>2020-06-18T15:25:18Z</time>
      </trkpt>
      <trkpt lat="50.09529" lon="1.48509">
        <ele>83.2</ele>
        <time>2020-06-18T15:25:19Z</time>
      </trkpt>
      <trkpt lat="50.0953" lon="1.48519">
        <ele>83.1</ele>
        <time>2020-06-18T15:25:20Z</time>
      </trkpt>
      <trkpt lat="50.09532" lon="1.48529">
        <ele>83</ele>
        <time>2020-06-18T15:25:21Z</time>
      </trkpt>
      <trkpt lat="50.09535" lon="1.48539">
        <ele>82.9</ele>
        <time>2020-06-18T15:25:22Z</time>
      </trkpt>
      <trkpt lat="50.09537" lon="1.48549">
        <ele>82.8</ele>
        <time>2020-06-18T15:25:23Z</time>
      </trkpt>
      <trkpt lat="50.09541" lon="1.48558">
        <ele>82.7</ele>
        <time>2020-06-18T15:25:24Z</time>
      </trkpt>
      <trkpt lat="50.09545" lon="1.48567">
        <ele>82.7</ele>
        <time>2020-06-18T15:25:25Z</time>
      </trkpt>
      <trkpt lat="50.09549" lon="1.48575">
        <ele>82.6</ele>
        <time>2020-06-18T15:25:26Z</time>
      </trkpt>
      <trkpt lat="50.09554" lon="1.48584">
        <ele>82.5</ele>
        <time>2020-06-18T15:25:27Z</time>
      </trkpt>
      <trkpt lat="50.09558" lon="1.48593">
        <ele>82.5</ele>
        <time>2020-06-18T15:25:28Z</time>
      </trkpt>
      <trkpt lat="50.09562" lon="1.48603">
        <ele>82.4</ele>
        <time>2020-06-18T15:25:29Z</time>
      </trkpt>
      <trkpt lat="50.09565" lon="1.48612">
        <ele>82.3</ele>
        <time>2020-06-18T15:25:30Z</time>
      </trkpt>
      <trkpt lat="50.09569" lon="1.48621">
        <ele>82.2</ele>
        <time>2020-06-18T15:25:31Z</time>
      </trkpt>
      <trkpt lat="50.09573" lon="1.4863">
        <ele>82.1</ele>
        <time>2020-06-18T15:25:32Z</time>
      </trkpt>
      <trkpt lat="50.09577" lon="1.48638">
        <ele>82</ele>
        <time>2020-06-18T15:25:33Z</time>
      </trkpt>
      <trkpt lat="50.09581" lon="1.48647">
        <ele>81.9</ele>
        <time>2020-06-18T15:25:34Z</time>
      </trkpt>
      <trkpt lat="50.09585" lon="1.48655">
        <ele>81.8</ele>
        <time>2020-06-18T15:25:35Z</time>
      </trkpt>
      <trkpt lat="50.09589" lon="1.48663">
        <ele>81.7</ele>
        <time>2020-06-18T15:25:36Z</time>
      </trkpt>
      <trkpt lat="50.09594" lon="1.48672">
        <ele>81.6</ele>
        <time>2020-06-18T15:25:37Z</time>
      </trkpt>
      <trkpt lat="50.09598" lon="1.4868">
        <ele>81.5</ele>
        <time>2020-06-18T15:25:38Z</time>
      </trkpt>
      <trkpt lat="50.09603" lon="1.48689">
        <ele>81.3</ele>
        <time>2020-06-18T15:25:39Z</time>
      </trkpt>
      <trkpt lat="50.09608" lon="1.48697">
        <ele>81.2</ele>
        <time>2020-06-18T15:25:40Z</time>
      </trkpt>
      <trkpt lat="50.09613" lon="1.48704">
        <ele>81</ele>
        <time>2020-06-18T15:25:41Z</time>
      </trkpt>
      <trkpt lat="50.09618" lon="1.48712">
        <ele>80.7</ele>
        <time>2020-06-18T15:25:42Z</time>
      </trkpt>
      <trkpt lat="50.09623" lon="1.4872">
        <ele>80.5</ele>
        <time>2020-06-18T15:25:43Z</time>
      </trkpt>
      <trkpt lat="50.09628" lon="1.48728">
        <ele>80.2</ele>
        <time>2020-06-18T15:25:44Z</time>
      </trkpt>
      <trkpt lat="50.09633" lon="1.48736">
        <ele>80</ele>
        <time>2020-06-18T15:25:45Z</time>
      </trkpt>
      <trkpt lat="50.09639" lon="1.48743">
        <ele>79.8</ele>
        <time>2020-06-18T15:25:46Z</time>
      </trkpt>
      <trkpt lat="50.09645" lon="1.4875">
        <ele>79.6</ele>
        <time>2020-06-18T15:25:47Z</time>
      </trkpt>
      <trkpt lat="50.0965" lon="1.48755">
        <ele>79.4</ele>
        <time>2020-06-18T15:25:48Z</time>
      </trkpt>
      <trkpt lat="50.09656" lon="1.48761">
        <ele>79.2</ele>
        <time>2020-06-18T15:25:49Z</time>
      </trkpt>
      <trkpt lat="50.09661" lon="1.48767">
        <ele>79.1</ele>
        <time>2020-06-18T15:25:50Z</time>
      </trkpt>
      <trkpt lat="50.09667" lon="1.48773">
        <ele>79</ele>
        <time>2020-06-18T15:25:51Z</time>
      </trkpt>
      <trkpt lat="50.09673" lon="1.48778">
        <ele>78.9</ele>
        <time>2020-06-18T15:25:52Z</time>
      </trkpt>
      <trkpt lat="50.09679" lon="1.48784">
        <ele>78.8</ele>
        <time>2020-06-18T15:25:53Z</time>
      </trkpt>
      <trkpt lat="50.09685" lon="1.48789">
        <ele>78.7</ele>
        <time>2020-06-18T15:25:54Z</time>
      </trkpt>
      <trkpt lat="50.09692" lon="1.48794">
        <ele>78.6</ele>
        <time>2020-06-18T15:25:55Z</time>
      </trkpt>
      <trkpt lat="50.09698" lon="1.48799">
        <ele>78.5</ele>
        <time>2020-06-18T15:25:56Z</time>
      </trkpt>
      <trkpt lat="50.09704" lon="1.48804">
        <ele>78.3</ele>
        <time>2020-06-18T15:25:57Z</time>
      </trkpt>
      <trkpt lat="50.09709" lon="1.4881">
        <ele>78.2</ele>
        <time>2020-06-18T15:25:58Z</time>
      </trkpt>
      <trkpt lat="50.09715" lon="1.48816">
        <ele>78.1</ele>
        <time>2020-06-18T15:25:59Z</time>
      </trkpt>
      <trkpt lat="50.0972" lon="1.48822">
        <ele>78</ele>
        <time>2020-06-18T15:26:00Z</time>
      </trkpt>
      <trkpt lat="50.09725" lon="1.48829">
        <ele>77.9</ele>
        <time>2020-06-18T15:26:01Z</time>
      </trkpt>
      <trkpt lat="50.0973" lon="1.48836">
        <ele>77.9</ele>
        <time>2020-06-18T15:26:02Z</time>
      </trkpt>
      <trkpt lat="50.09734" lon="1.48843">
        <ele>77.8</ele>
        <time>2020-06-18T15:26:03Z</time>
      </trkpt>
      <trkpt lat="50.09738" lon="1.4885">
        <ele>77.8</ele>
        <time>2020-06-18T15:26:04Z</time>
      </trkpt>
      <trkpt lat="50.09743" lon="1.48858">
        <ele>77.7</ele>
        <time>2020-06-18T15:26:05Z</time>
      </trkpt>
      <trkpt lat="50.09747" lon="1.48866">
        <ele>77.6</ele>
        <time>2020-06-18T15:26:06Z</time>
      </trkpt>
      <trkpt lat="50.09751" lon="1.48874">
        <ele>77.6</ele>
        <time>2020-06-18T15:26:07Z</time>
      </trkpt>
      <trkpt lat="50.09755" lon="1.48883">
        <ele>77.5</ele>
        <time>2020-06-18T15:26:08Z</time>
      </trkpt>
      <trkpt lat="50.09758" lon="1.48891">
        <ele>77.4</ele>
        <time>2020-06-18T15:26:09Z</time>
      </trkpt>
      <trkpt lat="50.09762" lon="1.48899">
        <ele>77.3</ele>
        <time>2020-06-18T15:26:10Z</time>
      </trkpt>
      <trkpt lat="50.09766" lon="1.48908">
        <ele>77.2</ele>
        <time>2020-06-18T15:26:11Z</time>
      </trkpt>
      <trkpt lat="50.0977" lon="1.48917">
        <ele>77.1</ele>
        <time>2020-06-18T15:26:12Z</time>
      </trkpt>
      <trkpt lat="50.09774" lon="1.48926">
        <ele>77.1</ele>
        <time>2020-06-18T15:26:13Z</time>
      </trkpt>
      <trkpt lat="50.09778" lon="1.48934">
        <ele>77</ele>
        <time>2020-06-18T15:26:14Z</time>
      </trkpt>
      <trkpt lat="50.09782" lon="1.48944">
        <ele>77</ele>
        <time>2020-06-18T15:26:15Z</time>
      </trkpt>
      <trkpt lat="50.09786" lon="1.48953">
        <ele>76.9</ele>
        <time>2020-06-18T15:26:16Z</time>
      </trkpt>
      <trkpt lat="50.09791" lon="1.48961">
        <ele>76.8</ele>
        <time>2020-06-18T15:26:17Z</time>
      </trkpt>
      <trkpt lat="50.09796" lon="1.4897">
        <ele>76.8</ele>
        <time>2020-06-18T15:26:18Z</time>
      </trkpt>
      <trkpt lat="50.09801" lon="1.4898">
        <ele>76.7</ele>
        <time>2020-06-18T15:26:19Z</time>
      </trkpt>
      <trkpt lat="50.09806" lon="1.48989">
        <ele>76.7</ele>
        <time>2020-06-18T15:26:20Z</time>
      </trkpt>
      <trkpt lat="50.0981" lon="1.48998">
        <ele>76.6</ele>
        <time>2020-06-18T15:26:21Z</time>
      </trkpt>
      <trkpt lat="50.09814" lon="1.49006">
        <ele>76.5</ele>
        <time>2020-06-18T15:26:22Z</time>
      </trkpt>
      <trkpt lat="50.09817" lon="1.49014">
        <ele>76.5</ele>
        <time>2020-06-18T15:26:23Z</time>
      </trkpt>
      <trkpt lat="50.09822" lon="1.49022">
        <ele>76.4</ele>
        <time>2020-06-18T15:26:24Z</time>
      </trkpt>
      <trkpt lat="50.09826" lon="1.49031">
        <ele>76.4</ele>
        <time>2020-06-18T15:26:25Z</time>
      </trkpt>
      <trkpt lat="50.09831" lon="1.49039">
        <ele>76.4</ele>
        <time>2020-06-18T15:26:26Z</time>
      </trkpt>
      <trkpt lat="50.09836" lon="1.49047">
        <ele>76.3</ele>
        <time>2020-06-18T15:26:27Z</time>
      </trkpt>
      <trkpt lat="50.09841" lon="1.49055">
        <ele>76.2</ele>
        <time>2020-06-18T15:26:28Z</time>
      </trkpt>
      <trkpt lat="50.09848" lon="1.49063">
        <ele>76.1</ele>
        <time>2020-06-18T15:26:29Z</time>
      </trkpt>
      <trkpt lat="50.09853" lon="1.49071">
        <ele>76</ele>
        <time>2020-06-18T15:26:30Z</time>
      </trkpt>
      <trkpt lat="50.09857" lon="1.49078">
        <ele>76</ele>
        <time>2020-06-18T15:26:31Z</time>
      </trkpt>
      <trkpt lat="50.09862" lon="1.49085">
        <ele>75.9</ele>
        <time>2020-06-18T15:26:32Z</time>
      </trkpt>
      <trkpt lat="50.09866" lon="1.49093">
        <ele>75.9</ele>
        <time>2020-06-18T15:26:33Z</time>
      </trkpt>
      <trkpt lat="50.09869" lon="1.49102">
        <ele>75.8</ele>
        <time>2020-06-18T15:26:34Z</time>
      </trkpt>
      <trkpt lat="50.09873" lon="1.49109">
        <ele>75.7</ele>
        <time>2020-06-18T15:26:35Z</time>
      </trkpt>
      <trkpt lat="50.09877" lon="1.4912">
        <ele>75.6</ele>
        <time>2020-06-18T15:26:36Z</time>
      </trkpt>
      <trkpt lat="50.09881" lon="1.4913">
        <ele>75.5</ele>
        <time>2020-06-18T15:26:37Z</time>
      </trkpt>
      <trkpt lat="50.09885" lon="1.49142">
        <ele>75.5</ele>
        <time>2020-06-18T15:26:38Z</time>
      </trkpt>
      <trkpt lat="50.09889" lon="1.49152">
        <ele>75.4</ele>
        <time>2020-06-18T15:26:39Z</time>
      </trkpt>
      <trkpt lat="50.09892" lon="1.49161">
        <ele>75.3</ele>
        <time>2020-06-18T15:26:40Z</time>
      </trkpt>
      <trkpt lat="50.09895" lon="1.49171">
        <ele>75.2</ele>
        <time>2020-06-18T15:26:41Z</time>
      </trkpt>
      <trkpt lat="50.09897" lon="1.4918">
        <ele>75.1</ele>
        <time>2020-06-18T15:26:42Z</time>
      </trkpt>
      <trkpt lat="50.099" lon="1.4919">
        <ele>74.9</ele>
        <time>2020-06-18T15:26:43Z</time>
      </trkpt>
      <trkpt lat="50.09902" lon="1.49202">
        <ele>74.8</ele>
        <time>2020-06-18T15:26:44Z</time>
      </trkpt>
      <trkpt lat="50.09904" lon="1.49211">
        <ele>74.6</ele>
        <time>2020-06-18T15:26:45Z</time>
      </trkpt>
      <trkpt lat="50.09907" lon="1.49221">
        <ele>74.5</ele>
        <time>2020-06-18T15:26:46Z</time>
      </trkpt>
      <trkpt lat="50.0991" lon="1.49232">
        <ele>74.3</ele>
        <time>2020-06-18T15:26:47Z</time>
      </trkpt>
      <trkpt lat="50.09911" lon="1.49245">
        <ele>74.1</ele>
        <time>2020-06-18T15:26:48Z</time>
      </trkpt>
      <trkpt lat="50.09914" lon="1.49255">
        <ele>73.9</ele>
        <time>2020-06-18T15:26:49Z</time>
      </trkpt>
      <trkpt lat="50.09917" lon="1.49265">
        <ele>73.7</ele>
        <time>2020-06-18T15:26:50Z</time>
      </trkpt>
      <trkpt lat="50.09921" lon="1.49275">
        <ele>73.5</ele>
        <time>2020-06-18T15:26:51Z</time>
      </trkpt>
      <trkpt lat="50.09924" lon="1.49285">
        <ele>73.3</ele>
        <time>2020-06-18T15:26:52Z</time>
      </trkpt>
      <trkpt lat="50.09927" lon="1.49295">
        <ele>73.1</ele>
        <time>2020-06-18T15:26:53Z</time>
      </trkpt>
      <trkpt lat="50.0993" lon="1.49304">
        <ele>72.9</ele>
        <time>2020-06-18T15:26:54Z</time>
      </trkpt>
      <trkpt lat="50.09934" lon="1.49313">
        <ele>72.8</ele>
        <time>2020-06-18T15:26:55Z</time>
      </trkpt>
      <trkpt lat="50.09937" lon="1.49323">
        <ele>72.6</ele>
        <time>2020-06-18T15:26:56Z</time>
      </trkpt>
      <trkpt lat="50.0994" lon="1.49332">
        <ele>72.5</ele>
        <time>2020-06-18T15:26:57Z</time>
      </trkpt>
      <trkpt lat="50.09943" lon="1.49341">
        <ele>72.4</ele>
        <time>2020-06-18T15:26:58Z</time>
      </trkpt>
      <trkpt lat="50.09947" lon="1.49351">
        <ele>72.3</ele>
        <time>2020-06-18T15:26:59Z</time>
      </trkpt>
      <trkpt lat="50.0995" lon="1.49361">
        <ele>72.2</ele>
        <time>2020-06-18T15:27:00Z</time>
      </trkpt>
      <trkpt lat="50.09954" lon="1.49371">
        <ele>72</ele>
        <time>2020-06-18T15:27:01Z</time>
      </trkpt>
      <trkpt lat="50.09957" lon="1.4938">
        <ele>71.8</ele>
        <time>2020-06-18T15:27:02Z</time>
      </trkpt>
      <trkpt lat="50.0996" lon="1.4939">
        <ele>71.6</ele>
        <time>2020-06-18T15:27:03Z</time>
      </trkpt>
      <trkpt lat="50.09964" lon="1.49399">
        <ele>71.4</ele>
        <time>2020-06-18T15:27:04Z</time>
      </trkpt>
      <trkpt lat="50.09967" lon="1.49409">
        <ele>71.3</ele>
        <time>2020-06-18T15:27:05Z</time>
      </trkpt>
      <trkpt lat="50.0997" lon="1.49417">
        <ele>71.1</ele>
        <time>2020-06-18T15:27:06Z</time>
      </trkpt>
      <trkpt lat="50.09973" lon="1.49426">
        <ele>70.9</ele>
        <time>2020-06-18T15:27:07Z</time>
      </trkpt>
      <trkpt lat="50.09977" lon="1.49434">
        <ele>70.7</ele>
        <time>2020-06-18T15:27:08Z</time>
      </trkpt>
      <trkpt lat="50.09981" lon="1.49443">
        <ele>70.4</ele>
        <time>2020-06-18T15:27:09Z</time>
      </trkpt>
      <trkpt lat="50.09984" lon="1.49452">
        <ele>70.2</ele>
        <time>2020-06-18T15:27:10Z</time>
      </trkpt>
      <trkpt lat="50.09988" lon="1.4946">
        <ele>69.9</ele>
        <time>2020-06-18T15:27:11Z</time>
      </trkpt>
      <trkpt lat="50.09992" lon="1.49469">
        <ele>69.7</ele>
        <time>2020-06-18T15:27:12Z</time>
      </trkpt>
      <trkpt lat="50.09995" lon="1.49478">
        <ele>69.4</ele>
        <time>2020-06-18T15:27:13Z</time>
      </trkpt>
      <trkpt lat="50.09998" lon="1.49489">
        <ele>69.2</ele>
        <time>2020-06-18T15:27:14Z</time>
      </trkpt>
      <trkpt lat="50.10001" lon="1.49499">
        <ele>68.9</ele>
        <time>2020-06-18T15:27:15Z</time>
      </trkpt>
      <trkpt lat="50.10004" lon="1.49509">
        <ele>68.7</ele>
        <time>2020-06-18T15:27:16Z</time>
      </trkpt>
      <trkpt lat="50.10007" lon="1.49518">
        <ele>68.4</ele>
        <time>2020-06-18T15:27:17Z</time>
      </trkpt>
      <trkpt lat="50.1001" lon="1.49528">
        <ele>68.2</ele>
        <time>2020-06-18T15:27:18Z</time>
      </trkpt>
      <trkpt lat="50.10013" lon="1.49538">
        <ele>67.9</ele>
        <time>2020-06-18T15:27:19Z</time>
      </trkpt>
      <trkpt lat="50.10016" lon="1.49548">
        <ele>67.6</ele>
        <time>2020-06-18T15:27:20Z</time>
      </trkpt>
      <trkpt lat="50.1002" lon="1.49558">
        <ele>67.4</ele>
        <time>2020-06-18T15:27:21Z</time>
      </trkpt>
      <trkpt lat="50.10024" lon="1.49567">
        <ele>67.1</ele>
        <time>2020-06-18T15:27:22Z</time>
      </trkpt>
      <trkpt lat="50.10028" lon="1.49577">
        <ele>66.8</ele>
        <time>2020-06-18T15:27:23Z</time>
      </trkpt>
      <trkpt lat="50.10032" lon="1.49587">
        <ele>66.6</ele>
        <time>2020-06-18T15:27:24Z</time>
      </trkpt>
      <trkpt lat="50.10036" lon="1.49597">
        <ele>66.3</ele>
        <time>2020-06-18T15:27:25Z</time>
      </trkpt>
      <trkpt lat="50.1004" lon="1.49607">
        <ele>66.1</ele>
        <time>2020-06-18T15:27:26Z</time>
      </trkpt>
      <trkpt lat="50.10044" lon="1.49617">
        <ele>65.8</ele>
        <time>2020-06-18T15:27:27Z</time>
      </trkpt>
      <trkpt lat="50.10049" lon="1.49627">
        <ele>65.5</ele>
        <time>2020-06-18T15:27:28Z</time>
      </trkpt>
      <trkpt lat="50.10053" lon="1.49637">
        <ele>65.2</ele>
        <time>2020-06-18T15:27:29Z</time>
      </trkpt>
      <trkpt lat="50.10058" lon="1.49647">
        <ele>64.8</ele>
        <time>2020-06-18T15:27:30Z</time>
      </trkpt>
      <trkpt lat="50.10063" lon="1.49658">
        <ele>64.5</ele>
        <time>2020-06-18T15:27:31Z</time>
      </trkpt>
      <trkpt lat="50.10067" lon="1.49668">
        <ele>64.2</ele>
        <time>2020-06-18T15:27:32Z</time>
      </trkpt>
      <trkpt lat="50.10072" lon="1.49678">
        <ele>64</ele>
        <time>2020-06-18T15:27:33Z</time>
      </trkpt>
      <trkpt lat="50.10077" lon="1.49688">
        <ele>63.7</ele>
        <time>2020-06-18T15:27:34Z</time>
      </trkpt>
      <trkpt lat="50.10081" lon="1.49698">
        <ele>63.5</ele>
        <time>2020-06-18T15:27:35Z</time>
      </trkpt>
      <trkpt lat="50.10086" lon="1.49708">
        <ele>63.2</ele>
        <time>2020-06-18T15:27:36Z</time>
      </trkpt>
      <trkpt lat="50.1009" lon="1.49718">
        <ele>62.9</ele>
        <time>2020-06-18T15:27:37Z</time>
      </trkpt>
      <trkpt lat="50.10095" lon="1.49727">
        <ele>62.7</ele>
        <time>2020-06-18T15:27:38Z</time>
      </trkpt>
      <trkpt lat="50.101" lon="1.49737">
        <ele>62.4</ele>
        <time>2020-06-18T15:27:39Z</time>
      </trkpt>
      <trkpt lat="50.10104" lon="1.49748">
        <ele>62.1</ele>
        <time>2020-06-18T15:27:40Z</time>
      </trkpt>
      <trkpt lat="50.10109" lon="1.49759">
        <ele>61.8</ele>
        <time>2020-06-18T15:27:41Z</time>
      </trkpt>
      <trkpt lat="50.10113" lon="1.49769">
        <ele>61.4</ele>
        <time>2020-06-18T15:27:42Z</time>
      </trkpt>
      <trkpt lat="50.10117" lon="1.49779">
        <ele>61.1</ele>
        <time>2020-06-18T15:27:43Z</time>
      </trkpt>
      <trkpt lat="50.10121" lon="1.49789">
        <ele>60.7</ele>
        <time>2020-06-18T15:27:44Z</time>
      </trkpt>
      <trkpt lat="50.10125" lon="1.498">
        <ele>59.3</ele>
        <time>2020-06-18T15:27:45Z</time>
      </trkpt>
      <trkpt lat="50.10128" lon="1.4981">
        <ele>59</ele>
        <time>2020-06-18T15:27:46Z</time>
      </trkpt>
      <trkpt lat="50.10132" lon="1.4982">
        <ele>58.7</ele>
        <time>2020-06-18T15:27:47Z</time>
      </trkpt>
      <trkpt lat="50.10134" lon="1.49831">
        <ele>58.4</ele>
        <time>2020-06-18T15:27:48Z</time>
      </trkpt>
      <trkpt lat="50.10136" lon="1.49842">
        <ele>58.1</ele>
        <time>2020-06-18T15:27:49Z</time>
      </trkpt>
      <trkpt lat="50.10137" lon="1.49854">
        <ele>57.8</ele>
        <time>2020-06-18T15:27:50Z</time>
      </trkpt>
      <trkpt lat="50.10138" lon="1.49867">
        <ele>57.4</ele>
        <time>2020-06-18T15:27:51Z</time>
      </trkpt>
      <trkpt lat="50.10139" lon="1.4988">
        <ele>57.1</ele>
        <time>2020-06-18T15:27:52Z</time>
      </trkpt>
      <trkpt lat="50.10139" lon="1.49892">
        <ele>56.7</ele>
        <time>2020-06-18T15:27:53Z</time>
      </trkpt>
      <trkpt lat="50.10139" lon="1.49904">
        <ele>56.4</ele>
        <time>2020-06-18T15:27:54Z</time>
      </trkpt>
      <trkpt lat="50.10139" lon="1.49917">
        <ele>56.1</ele>
        <time>2020-06-18T15:27:55Z</time>
      </trkpt>
      <trkpt lat="50.10139" lon="1.4993">
        <ele>55.8</ele>
        <time>2020-06-18T15:27:56Z</time>
      </trkpt>
      <trkpt lat="50.1014" lon="1.49943">
        <ele>55.6</ele>
        <time>2020-06-18T15:27:57Z</time>
      </trkpt>
      <trkpt lat="50.1014" lon="1.49956">
        <ele>55.4</ele>
        <time>2020-06-18T15:27:58Z</time>
      </trkpt>
      <trkpt lat="50.10141" lon="1.49969">
        <ele>55.2</ele>
        <time>2020-06-18T15:27:59Z</time>
      </trkpt>
      <trkpt lat="50.10143" lon="1.49982">
        <ele>55</ele>
        <time>2020-06-18T15:28:00Z</time>
      </trkpt>
      <trkpt lat="50.10145" lon="1.49994">
        <ele>54.9</ele>
        <time>2020-06-18T15:28:01Z</time>
      </trkpt>
      <trkpt lat="50.10149" lon="1.50004">
        <ele>54.9</ele>
        <time>2020-06-18T15:28:02Z</time>
      </trkpt>
      <trkpt lat="50.10153" lon="1.50013">
        <ele>54.9</ele>
        <time>2020-06-18T15:28:03Z</time>
      </trkpt>
      <trkpt lat="50.10157" lon="1.50023">
        <ele>54.9</ele>
        <time>2020-06-18T15:28:04Z</time>
      </trkpt>
      <trkpt lat="50.10161" lon="1.50033">
        <ele>54.8</ele>
        <time>2020-06-18T15:28:05Z</time>
      </trkpt>
      <trkpt lat="50.10165" lon="1.50043">
        <ele>54.8</ele>
        <time>2020-06-18T15:28:06Z</time>
      </trkpt>
      <trkpt lat="50.10169" lon="1.50052">
        <ele>54.8</ele>
        <time>2020-06-18T15:28:07Z</time>
      </trkpt>
      <trkpt lat="50.10172" lon="1.50061">
        <ele>54.8</ele>
        <time>2020-06-18T15:28:08Z</time>
      </trkpt>
      <trkpt lat="50.10175" lon="1.50071">
        <ele>54.8</ele>
        <time>2020-06-18T15:28:09Z</time>
      </trkpt>
      <trkpt lat="50.10178" lon="1.50079">
        <ele>54.9</ele>
        <time>2020-06-18T15:28:10Z</time>
      </trkpt>
      <trkpt lat="50.10182" lon="1.50088">
        <ele>54.9</ele>
        <time>2020-06-18T15:28:11Z</time>
      </trkpt>
      <trkpt lat="50.10185" lon="1.50097">
        <ele>54.9</ele>
        <time>2020-06-18T15:28:12Z</time>
      </trkpt>
      <trkpt lat="50.10188" lon="1.50106">
        <ele>55</ele>
        <time>2020-06-18T15:28:13Z</time>
      </trkpt>
      <trkpt lat="50.1019" lon="1.50116">
        <ele>55.1</ele>
        <time>2020-06-18T15:28:14Z</time>
      </trkpt>
      <trkpt lat="50.10192" lon="1.50126">
        <ele>55.2</ele>
        <time>2020-06-18T15:28:15Z</time>
      </trkpt>
      <trkpt lat="50.10194" lon="1.50136">
        <ele>55.3</ele>
        <time>2020-06-18T15:28:16Z</time>
      </trkpt>
      <trkpt lat="50.10195" lon="1.50145">
        <ele>55.5</ele>
        <time>2020-06-18T15:28:17Z</time>
      </trkpt>
      <trkpt lat="50.10197" lon="1.50154">
        <ele>55.8</ele>
        <time>2020-06-18T15:28:18Z</time>
      </trkpt>
      <trkpt lat="50.10199" lon="1.50162">
        <ele>56</ele>
        <time>2020-06-18T15:28:19Z</time>
      </trkpt>
      <trkpt lat="50.10201" lon="1.5017">
        <ele>56.3</ele>
        <time>2020-06-18T15:28:20Z</time>
      </trkpt>
      <trkpt lat="50.10203" lon="1.50178">
        <ele>56.6</ele>
        <time>2020-06-18T15:28:21Z</time>
      </trkpt>
      <trkpt lat="50.10205" lon="1.50185">
        <ele>56.8</ele>
        <time>2020-06-18T15:28:22Z</time>
      </trkpt>
      <trkpt lat="50.10207" lon="1.50193">
        <ele>57.1</ele>
        <time>2020-06-18T15:28:23Z</time>
      </trkpt>
      <trkpt lat="50.10209" lon="1.50199">
        <ele>57.4</ele>
        <time>2020-06-18T15:28:24Z</time>
      </trkpt>
      <trkpt lat="50.10211" lon="1.50206">
        <ele>57.7</ele>
        <time>2020-06-18T15:28:25Z</time>
      </trkpt>
      <trkpt lat="50.10212" lon="1.50214">
        <ele>58</ele>
        <time>2020-06-18T15:28:26Z</time>
      </trkpt>
      <trkpt lat="50.10214" lon="1.50221">
        <ele>58.3</ele>
        <time>2020-06-18T15:28:27Z</time>
      </trkpt>
      <trkpt lat="50.10215" lon="1.50228">
        <ele>58.6</ele>
        <time>2020-06-18T15:28:28Z</time>
      </trkpt>
      <trkpt lat="50.10217" lon="1.50235">
        <ele>58.9</ele>
        <time>2020-06-18T15:28:29Z</time>
      </trkpt>
      <trkpt lat="50.10219" lon="1.50241">
        <ele>59.1</ele>
        <time>2020-06-18T15:28:30Z</time>
      </trkpt>
      <trkpt lat="50.10221" lon="1.50247">
        <ele>59.4</ele>
        <time>2020-06-18T15:28:31Z</time>
      </trkpt>
      <trkpt lat="50.10223" lon="1.50254">
        <ele>59.7</ele>
        <time>2020-06-18T15:28:32Z</time>
      </trkpt>
      <trkpt lat="50.10224" lon="1.50262">
        <ele>59.9</ele>
        <time>2020-06-18T15:28:33Z</time>
      </trkpt>
      <trkpt lat="50.10225" lon="1.50269">
        <ele>60.2</ele>
        <time>2020-06-18T15:28:34Z</time>
      </trkpt>
      <trkpt lat="50.10226" lon="1.50276">
        <ele>60.5</ele>
        <time>2020-06-18T15:28:35Z</time>
      </trkpt>
      <trkpt lat="50.10228" lon="1.50282">
        <ele>60.6</ele>
        <time>2020-06-18T15:28:36Z</time>
      </trkpt>
      <trkpt lat="50.10229" lon="1.50287">
        <ele>60.8</ele>
        <time>2020-06-18T15:28:37Z</time>
      </trkpt>
      <trkpt lat="50.1023" lon="1.50293">
        <ele>61</ele>
        <time>2020-06-18T15:28:38Z</time>
      </trkpt>
      <trkpt lat="50.1023" lon="1.50299">
        <ele>61.1</ele>
        <time>2020-06-18T15:28:39Z</time>
      </trkpt>
      <trkpt lat="50.10231" lon="1.50306">
        <ele>61.3</ele>
        <time>2020-06-18T15:28:40Z</time>
      </trkpt>
      <trkpt lat="50.10233" lon="1.50313">
        <ele>61.5</ele>
        <time>2020-06-18T15:28:41Z</time>
      </trkpt>
      <trkpt lat="50.10235" lon="1.5032">
        <ele>61.6</ele>
        <time>2020-06-18T15:28:42Z</time>
      </trkpt>
      <trkpt lat="50.10237" lon="1.50325">
        <ele>61.7</ele>
        <time>2020-06-18T15:28:43Z</time>
      </trkpt>
      <trkpt lat="50.10237" lon="1.50332">
        <ele>61.9</ele>
        <time>2020-06-18T15:28:44Z</time>
      </trkpt>
      <trkpt lat="50.10238" lon="1.50335">
        <ele>62</ele>
        <time>2020-06-18T15:28:45Z</time>
      </trkpt>
      <trkpt lat="50.1024" lon="1.50341">
        <ele>62.1</ele>
        <time>2020-06-18T15:28:46Z</time>
      </trkpt>
      <trkpt lat="50.10241" lon="1.50347">
        <ele>62.2</ele>
        <time>2020-06-18T15:28:47Z</time>
      </trkpt>
      <trkpt lat="50.10243" lon="1.50352">
        <ele>62.3</ele>
        <time>2020-06-18T15:28:48Z</time>
      </trkpt>
      <trkpt lat="50.10245" lon="1.50358">
        <ele>62.4</ele>
        <time>2020-06-18T15:28:49Z</time>
      </trkpt>
      <trkpt lat="50.10246" lon="1.50364">
        <ele>62.5</ele>
        <time>2020-06-18T15:28:50Z</time>
      </trkpt>
      <trkpt lat="50.10248" lon="1.5037">
        <ele>62.5</ele>
        <time>2020-06-18T15:28:51Z</time>
      </trkpt>
      <trkpt lat="50.10249" lon="1.50377">
        <ele>62.6</ele>
        <time>2020-06-18T15:28:52Z</time>
      </trkpt>
      <trkpt lat="50.1025" lon="1.50384">
        <ele>62.6</ele>
        <time>2020-06-18T15:28:53Z</time>
      </trkpt>
      <trkpt lat="50.1025" lon="1.50391">
        <ele>62.6</ele>
        <time>2020-06-18T15:28:54Z</time>
      </trkpt>
      <trkpt lat="50.1025" lon="1.50398">
        <ele>62.6</ele>
        <time>2020-06-18T15:28:55Z</time>
      </trkpt>
      <trkpt lat="50.10252" lon="1.50405">
        <ele>62.6</ele>
        <time>2020-06-18T15:28:56Z</time>
      </trkpt>
      <trkpt lat="50.10252" lon="1.50414">
        <ele>62.6</ele>
        <time>2020-06-18T15:28:57Z</time>
      </trkpt>
      <trkpt lat="50.10253" lon="1.50422">
        <ele>62.6</ele>
        <time>2020-06-18T15:28:58Z</time>
      </trkpt>
      <trkpt lat="50.10254" lon="1.5043">
        <ele>62.6</ele>
        <time>2020-06-18T15:28:59Z</time>
      </trkpt>
      <trkpt lat="50.10255" lon="1.50439">
        <ele>62.6</ele>
        <time>2020-06-18T15:29:00Z</time>
      </trkpt>
      <trkpt lat="50.10256" lon="1.50448">
        <ele>62.6</ele>
        <time>2020-06-18T15:29:01Z</time>
      </trkpt>
      <trkpt lat="50.10256" lon="1.50458">
        <ele>62.6</ele>
        <time>2020-06-18T15:29:02Z</time>
      </trkpt>
      <trkpt lat="50.10257" lon="1.50465">
        <ele>62.6</ele>
        <time>2020-06-18T15:29:03Z</time>
      </trkpt>
      <trkpt lat="50.10258" lon="1.50473">
        <ele>62.6</ele>
        <time>2020-06-18T15:29:04Z</time>
      </trkpt>
      <trkpt lat="50.10259" lon="1.50482">
        <ele>62.6</ele>
        <time>2020-06-18T15:29:05Z</time>
      </trkpt>
      <trkpt lat="50.10259" lon="1.5049">
        <ele>62.6</ele>
        <time>2020-06-18T15:29:06Z</time>
      </trkpt>
      <trkpt lat="50.1026" lon="1.505">
        <ele>62.6</ele>
        <time>2020-06-18T15:29:07Z</time>
      </trkpt>
      <trkpt lat="50.10261" lon="1.50508">
        <ele>62.6</ele>
        <time>2020-06-18T15:29:08Z</time>
      </trkpt>
      <trkpt lat="50.10262" lon="1.50516">
        <ele>62.6</ele>
        <time>2020-06-18T15:29:09Z</time>
      </trkpt>
      <trkpt lat="50.10263" lon="1.50524">
        <ele>62.5</ele>
        <time>2020-06-18T15:29:10Z</time>
      </trkpt>
      <trkpt lat="50.10263" lon="1.50531">
        <ele>62.5</ele>
        <time>2020-06-18T15:29:11Z</time>
      </trkpt>
      <trkpt lat="50.10263" lon="1.50538">
        <ele>62.5</ele>
        <time>2020-06-18T15:29:12Z</time>
      </trkpt>
      <trkpt lat="50.10264" lon="1.50548">
        <ele>62.5</ele>
        <time>2020-06-18T15:29:13Z</time>
      </trkpt>
      <trkpt lat="50.10266" lon="1.50557">
        <ele>62.5</ele>
        <time>2020-06-18T15:29:14Z</time>
      </trkpt>
      <trkpt lat="50.10267" lon="1.50568">
        <ele>62.4</ele>
        <time>2020-06-18T15:29:15Z</time>
      </trkpt>
      <trkpt lat="50.10269" lon="1.50578">
        <ele>62.4</ele>
        <time>2020-06-18T15:29:16Z</time>
      </trkpt>
      <trkpt lat="50.1027" lon="1.50588">
        <ele>62.3</ele>
        <time>2020-06-18T15:29:17Z</time>
      </trkpt>
      <trkpt lat="50.10271" lon="1.50598">
        <ele>62.2</ele>
        <time>2020-06-18T15:29:18Z</time>
      </trkpt>
      <trkpt lat="50.10273" lon="1.50609">
        <ele>62.2</ele>
        <time>2020-06-18T15:29:19Z</time>
      </trkpt>
      <trkpt lat="50.10274" lon="1.50618">
        <ele>62.2</ele>
        <time>2020-06-18T15:29:20Z</time>
      </trkpt>
      <trkpt lat="50.10276" lon="1.50628">
        <ele>62.1</ele>
        <time>2020-06-18T15:29:21Z</time>
      </trkpt>
      <trkpt lat="50.10278" lon="1.50638">
        <ele>62.1</ele>
        <time>2020-06-18T15:29:22Z</time>
      </trkpt>
      <trkpt lat="50.1028" lon="1.50648">
        <ele>62</ele>
        <time>2020-06-18T15:29:23Z</time>
      </trkpt>
      <trkpt lat="50.10281" lon="1.50657">
        <ele>61.9</ele>
        <time>2020-06-18T15:29:24Z</time>
      </trkpt>
      <trkpt lat="50.10282" lon="1.50667">
        <ele>61.9</ele>
        <time>2020-06-18T15:29:25Z</time>
      </trkpt>
      <trkpt lat="50.10284" lon="1.50675">
        <ele>61.8</ele>
        <time>2020-06-18T15:29:26Z</time>
      </trkpt>
      <trkpt lat="50.10285" lon="1.50684">
        <ele>61.8</ele>
        <time>2020-06-18T15:29:27Z</time>
      </trkpt>
      <trkpt lat="50.10286" lon="1.50691">
        <ele>61.7</ele>
        <time>2020-06-18T15:29:28Z</time>
      </trkpt>
      <trkpt lat="50.10287" lon="1.50701">
        <ele>61.7</ele>
        <time>2020-06-18T15:29:29Z</time>
      </trkpt>
      <trkpt lat="50.10289" lon="1.5071">
        <ele>61.7</ele>
        <time>2020-06-18T15:29:30Z</time>
      </trkpt>
      <trkpt lat="50.1029" lon="1.50717">
        <ele>61.6</ele>
        <time>2020-06-18T15:29:31Z</time>
      </trkpt>
      <trkpt lat="50.10291" lon="1.50726">
        <ele>61.6</ele>
        <time>2020-06-18T15:29:32Z</time>
      </trkpt>
      <trkpt lat="50.10293" lon="1.50735">
        <ele>61.6</ele>
        <time>2020-06-18T15:29:33Z</time>
      </trkpt>
      <trkpt lat="50.10294" lon="1.50744">
        <ele>61.6</ele>
        <time>2020-06-18T15:29:34Z</time>
      </trkpt>
      <trkpt lat="50.10296" lon="1.50752">
        <ele>61.5</ele>
        <time>2020-06-18T15:29:35Z</time>
      </trkpt>
      <trkpt lat="50.10297" lon="1.5076">
        <ele>61.5</ele>
        <time>2020-06-18T15:29:36Z</time>
      </trkpt>
      <trkpt lat="50.10299" lon="1.50768">
        <ele>61.5</ele>
        <time>2020-06-18T15:29:37Z</time>
      </trkpt>
      <trkpt lat="50.103" lon="1.50776">
        <ele>61.4</ele>
        <time>2020-06-18T15:29:38Z</time>
      </trkpt>
      <trkpt lat="50.10302" lon="1.50785">
        <ele>61.4</ele>
        <time>2020-06-18T15:29:39Z</time>
      </trkpt>
      <trkpt lat="50.10304" lon="1.50794">
        <ele>61.4</ele>
        <time>2020-06-18T15:29:40Z</time>
      </trkpt>
      <trkpt lat="50.10305" lon="1.50803">
        <ele>61.4</ele>
        <time>2020-06-18T15:29:41Z</time>
      </trkpt>
      <trkpt lat="50.10306" lon="1.5081">
        <ele>61.4</ele>
        <time>2020-06-18T15:29:42Z</time>
      </trkpt>
      <trkpt lat="50.10307" lon="1.50819">
        <ele>61.4</ele>
        <time>2020-06-18T15:29:43Z</time>
      </trkpt>
      <trkpt lat="50.10307" lon="1.50827">
        <ele>61.4</ele>
        <time>2020-06-18T15:29:44Z</time>
      </trkpt>
      <trkpt lat="50.10308" lon="1.50835">
        <ele>61.5</ele>
        <time>2020-06-18T15:29:45Z</time>
      </trkpt>
      <trkpt lat="50.1031" lon="1.50844">
        <ele>61.5</ele>
        <time>2020-06-18T15:29:46Z</time>
      </trkpt>
      <trkpt lat="50.10311" lon="1.50852">
        <ele>61.5</ele>
        <time>2020-06-18T15:29:47Z</time>
      </trkpt>
      <trkpt lat="50.10314" lon="1.50862">
        <ele>61.6</ele>
        <time>2020-06-18T15:29:48Z</time>
      </trkpt>
      <trkpt lat="50.10316" lon="1.50871">
        <ele>61.6</ele>
        <time>2020-06-18T15:29:49Z</time>
      </trkpt>
      <trkpt lat="50.10317" lon="1.50881">
        <ele>61.6</ele>
        <time>2020-06-18T15:29:50Z</time>
      </trkpt>
      <trkpt lat="50.10319" lon="1.5089">
        <ele>61.6</ele>
        <time>2020-06-18T15:29:51Z</time>
      </trkpt>
      <trkpt lat="50.1032" lon="1.50898">
        <ele>61.6</ele>
        <time>2020-06-18T15:29:52Z</time>
      </trkpt>
      <trkpt lat="50.10321" lon="1.50906">
        <ele>61.6</ele>
        <time>2020-06-18T15:29:53Z</time>
      </trkpt>
      <trkpt lat="50.10323" lon="1.50914">
        <ele>61.6</ele>
        <time>2020-06-18T15:29:54Z</time>
      </trkpt>
      <trkpt lat="50.10325" lon="1.50923">
        <ele>61.6</ele>
        <time>2020-06-18T15:29:55Z</time>
      </trkpt>
      <trkpt lat="50.10326" lon="1.5093">
        <ele>61.6</ele>
        <time>2020-06-18T15:29:56Z</time>
      </trkpt>
      <trkpt lat="50.10328" lon="1.50938">
        <ele>61.5</ele>
        <time>2020-06-18T15:29:57Z</time>
      </trkpt>
      <trkpt lat="50.1033" lon="1.50948">
        <ele>61.4</ele>
        <time>2020-06-18T15:29:58Z</time>
      </trkpt>
      <trkpt lat="50.10332" lon="1.50958">
        <ele>61.4</ele>
        <time>2020-06-18T15:29:59Z</time>
      </trkpt>
      <trkpt lat="50.10334" lon="1.50967">
        <ele>61.3</ele>
        <time>2020-06-18T15:30:00Z</time>
      </trkpt>
      <trkpt lat="50.10336" lon="1.50976">
        <ele>61.3</ele>
        <time>2020-06-18T15:30:01Z</time>
      </trkpt>
      <trkpt lat="50.10338" lon="1.50985">
        <ele>61.2</ele>
        <time>2020-06-18T15:30:02Z</time>
      </trkpt>
      <trkpt lat="50.1034" lon="1.50994">
        <ele>61.2</ele>
        <time>2020-06-18T15:30:03Z</time>
      </trkpt>
      <trkpt lat="50.10341" lon="1.51003">
        <ele>61.2</ele>
        <time>2020-06-18T15:30:04Z</time>
      </trkpt>
      <trkpt lat="50.10343" lon="1.51012">
        <ele>61.1</ele>
        <time>2020-06-18T15:30:05Z</time>
      </trkpt>
      <trkpt lat="50.10345" lon="1.51024">
        <ele>61.1</ele>
        <time>2020-06-18T15:30:06Z</time>
      </trkpt>
      <trkpt lat="50.10347" lon="1.51033">
        <ele>61.1</ele>
        <time>2020-06-18T15:30:07Z</time>
      </trkpt>
      <trkpt lat="50.10348" lon="1.5104">
        <ele>61.1</ele>
        <time>2020-06-18T15:30:08Z</time>
      </trkpt>
      <trkpt lat="50.1035" lon="1.51049">
        <ele>61.1</ele>
        <time>2020-06-18T15:30:09Z</time>
      </trkpt>
      <trkpt lat="50.10352" lon="1.51058">
        <ele>61</ele>
        <time>2020-06-18T15:30:10Z</time>
      </trkpt>
      <trkpt lat="50.10353" lon="1.51071">
        <ele>61</ele>
        <time>2020-06-18T15:30:11Z</time>
      </trkpt>
      <trkpt lat="50.10355" lon="1.51082">
        <ele>61</ele>
        <time>2020-06-18T15:30:12Z</time>
      </trkpt>
      <trkpt lat="50.10357" lon="1.51092">
        <ele>61</ele>
        <time>2020-06-18T15:30:13Z</time>
      </trkpt>
      <trkpt lat="50.10359" lon="1.51104">
        <ele>61</ele>
        <time>2020-06-18T15:30:14Z</time>
      </trkpt>
      <trkpt lat="50.10362" lon="1.51114">
        <ele>61</ele>
        <time>2020-06-18T15:30:15Z</time>
      </trkpt>
      <trkpt lat="50.10364" lon="1.51124">
        <ele>61.1</ele>
        <time>2020-06-18T15:30:16Z</time>
      </trkpt>
      <trkpt lat="50.10366" lon="1.51132">
        <ele>61.1</ele>
        <time>2020-06-18T15:30:17Z</time>
      </trkpt>
      <trkpt lat="50.10368" lon="1.51141">
        <ele>61.1</ele>
        <time>2020-06-18T15:30:18Z</time>
      </trkpt>
      <trkpt lat="50.1037" lon="1.51152">
        <ele>61.1</ele>
        <time>2020-06-18T15:30:19Z</time>
      </trkpt>
      <trkpt lat="50.10372" lon="1.51161">
        <ele>61.2</ele>
        <time>2020-06-18T15:30:20Z</time>
      </trkpt>
      <trkpt lat="50.10374" lon="1.51171">
        <ele>61.2</ele>
        <time>2020-06-18T15:30:21Z</time>
      </trkpt>
      <trkpt lat="50.10375" lon="1.5118">
        <ele>61.2</ele>
        <time>2020-06-18T15:30:22Z</time>
      </trkpt>
      <trkpt lat="50.10377" lon="1.5119">
        <ele>61.2</ele>
        <time>2020-06-18T15:30:23Z</time>
      </trkpt>
      <trkpt lat="50.10379" lon="1.51199">
        <ele>61.3</ele>
        <time>2020-06-18T15:30:24Z</time>
      </trkpt>
      <trkpt lat="50.10381" lon="1.51206">
        <ele>61.3</ele>
        <time>2020-06-18T15:30:25Z</time>
      </trkpt>
      <trkpt lat="50.10383" lon="1.51214">
        <ele>61.4</ele>
        <time>2020-06-18T15:30:26Z</time>
      </trkpt>
      <trkpt lat="50.10385" lon="1.51221">
        <ele>61.4</ele>
        <time>2020-06-18T15:30:27Z</time>
      </trkpt>
      <trkpt lat="50.10388" lon="1.51228">
        <ele>61.5</ele>
        <time>2020-06-18T15:30:28Z</time>
      </trkpt>
      <trkpt lat="50.1039" lon="1.51239">
        <ele>61.6</ele>
        <time>2020-06-18T15:30:29Z</time>
      </trkpt>
      <trkpt lat="50.10392" lon="1.51248">
        <ele>61.7</ele>
        <time>2020-06-18T15:30:30Z</time>
      </trkpt>
      <trkpt lat="50.10393" lon="1.51256">
        <ele>61.7</ele>
        <time>2020-06-18T15:30:31Z</time>
      </trkpt>
      <trkpt lat="50.10395" lon="1.51264">
        <ele>61.7</ele>
        <time>2020-06-18T15:30:32Z</time>
      </trkpt>
      <trkpt lat="50.10396" lon="1.51271">
        <ele>61.7</ele>
        <time>2020-06-18T15:30:33Z</time>
      </trkpt>
      <trkpt lat="50.10398" lon="1.51278">
        <ele>61.7</ele>
        <time>2020-06-18T15:30:34Z</time>
      </trkpt>
      <trkpt lat="50.104" lon="1.51289">
        <ele>61.7</ele>
        <time>2020-06-18T15:30:35Z</time>
      </trkpt>
      <trkpt lat="50.10403" lon="1.51297">
        <ele>61.7</ele>
        <time>2020-06-18T15:30:36Z</time>
      </trkpt>
      <trkpt lat="50.10404" lon="1.51306">
        <ele>61.7</ele>
        <time>2020-06-18T15:30:37Z</time>
      </trkpt>
      <trkpt lat="50.10405" lon="1.51314">
        <ele>61.6</ele>
        <time>2020-06-18T15:30:38Z</time>
      </trkpt>
      <trkpt lat="50.10406" lon="1.51324">
        <ele>61.6</ele>
        <time>2020-06-18T15:30:39Z</time>
      </trkpt>
      <trkpt lat="50.10406" lon="1.51335">
        <ele>61.4</ele>
        <time>2020-06-18T15:30:40Z</time>
      </trkpt>
      <trkpt lat="50.10407" lon="1.51345">
        <ele>60.9</ele>
        <time>2020-06-18T15:30:41Z</time>
      </trkpt>
      <trkpt lat="50.10407" lon="1.51355">
        <ele>60.9</ele>
        <time>2020-06-18T15:30:42Z</time>
      </trkpt>
      <trkpt lat="50.10407" lon="1.51365">
        <ele>60.9</ele>
        <time>2020-06-18T15:30:43Z</time>
      </trkpt>
      <trkpt lat="50.10406" lon="1.51373">
        <ele>60.9</ele>
        <time>2020-06-18T15:30:44Z</time>
      </trkpt>
      <trkpt lat="50.10406" lon="1.51383">
        <ele>60.9</ele>
        <time>2020-06-18T15:30:45Z</time>
      </trkpt>
      <trkpt lat="50.10406" lon="1.51393">
        <ele>60.9</ele>
        <time>2020-06-18T15:30:46Z</time>
      </trkpt>
      <trkpt lat="50.10406" lon="1.51403">
        <ele>60.9</ele>
        <time>2020-06-18T15:30:47Z</time>
      </trkpt>
      <trkpt lat="50.10406" lon="1.51414">
        <ele>60.9</ele>
        <time>2020-06-18T15:30:48Z</time>
      </trkpt>
      <trkpt lat="50.10406" lon="1.51423">
        <ele>60.9</ele>
        <time>2020-06-18T15:30:49Z</time>
      </trkpt>
      <trkpt lat="50.10406" lon="1.51432">
        <ele>60.9</ele>
        <time>2020-06-18T15:30:50Z</time>
      </trkpt>
      <trkpt lat="50.10406" lon="1.51442">
        <ele>60.9</ele>
        <time>2020-06-18T15:30:51Z</time>
      </trkpt>
      <trkpt lat="50.10407" lon="1.51451">
        <ele>60.9</ele>
        <time>2020-06-18T15:30:52Z</time>
      </trkpt>
      <trkpt lat="50.10407" lon="1.51461">
        <ele>60.9</ele>
        <time>2020-06-18T15:30:53Z</time>
      </trkpt>
      <trkpt lat="50.10408" lon="1.51471">
        <ele>60.8</ele>
        <time>2020-06-18T15:30:54Z</time>
      </trkpt>
      <trkpt lat="50.10408" lon="1.51481">
        <ele>60.8</ele>
        <time>2020-06-18T15:30:55Z</time>
      </trkpt>
      <trkpt lat="50.10408" lon="1.51491">
        <ele>60.8</ele>
        <time>2020-06-18T15:30:56Z</time>
      </trkpt>
      <trkpt lat="50.10409" lon="1.51502">
        <ele>60.7</ele>
        <time>2020-06-18T15:30:57Z</time>
      </trkpt>
      <trkpt lat="50.1041" lon="1.51512">
        <ele>60.6</ele>
        <time>2020-06-18T15:30:58Z</time>
      </trkpt>
      <trkpt lat="50.10411" lon="1.51521">
        <ele>60.6</ele>
        <time>2020-06-18T15:30:59Z</time>
      </trkpt>
      <trkpt lat="50.10413" lon="1.5153">
        <ele>60.6</ele>
        <time>2020-06-18T15:31:00Z</time>
      </trkpt>
      <trkpt lat="50.10414" lon="1.51538">
        <ele>60.5</ele>
        <time>2020-06-18T15:31:01Z</time>
      </trkpt>
      <trkpt lat="50.10414" lon="1.51546">
        <ele>60.5</ele>
        <time>2020-06-18T15:31:02Z</time>
      </trkpt>
      <trkpt lat="50.10415" lon="1.51554">
        <ele>60.4</ele>
        <time>2020-06-18T15:31:03Z</time>
      </trkpt>
      <trkpt lat="50.10415" lon="1.5156">
        <ele>60.4</ele>
        <time>2020-06-18T15:31:04Z</time>
      </trkpt>
      <trkpt lat="50.10417" lon="1.5157">
        <ele>60.4</ele>
        <time>2020-06-18T15:31:05Z</time>
      </trkpt>
      <trkpt lat="50.10417" lon="1.5158">
        <ele>60.3</ele>
        <time>2020-06-18T15:31:06Z</time>
      </trkpt>
      <trkpt lat="50.10418" lon="1.5159">
        <ele>60.3</ele>
        <time>2020-06-18T15:31:07Z</time>
      </trkpt>
      <trkpt lat="50.10419" lon="1.516">
        <ele>60.2</ele>
        <time>2020-06-18T15:31:08Z</time>
      </trkpt>
      <trkpt lat="50.1042" lon="1.51611">
        <ele>60.1</ele>
        <time>2020-06-18T15:31:09Z</time>
      </trkpt>
      <trkpt lat="50.10421" lon="1.51622">
        <ele>60.1</ele>
        <time>2020-06-18T15:31:10Z</time>
      </trkpt>
      <trkpt lat="50.10421" lon="1.51632">
        <ele>60.1</ele>
        <time>2020-06-18T15:31:11Z</time>
      </trkpt>
      <trkpt lat="50.10422" lon="1.51643">
        <ele>60.1</ele>
        <time>2020-06-18T15:31:12Z</time>
      </trkpt>
      <trkpt lat="50.10423" lon="1.51652">
        <ele>60.1</ele>
        <time>2020-06-18T15:31:13Z</time>
      </trkpt>
      <trkpt lat="50.10423" lon="1.51663">
        <ele>60</ele>
        <time>2020-06-18T15:31:14Z</time>
      </trkpt>
      <trkpt lat="50.10424" lon="1.51674">
        <ele>59.9</ele>
        <time>2020-06-18T15:31:15Z</time>
      </trkpt>
      <trkpt lat="50.10425" lon="1.51683">
        <ele>59.8</ele>
        <time>2020-06-18T15:31:16Z</time>
      </trkpt>
      <trkpt lat="50.10426" lon="1.51694">
        <ele>59.8</ele>
        <time>2020-06-18T15:31:17Z</time>
      </trkpt>
      <trkpt lat="50.10427" lon="1.51704">
        <ele>59.7</ele>
        <time>2020-06-18T15:31:18Z</time>
      </trkpt>
      <trkpt lat="50.10428" lon="1.51715">
        <ele>59.6</ele>
        <time>2020-06-18T15:31:19Z</time>
      </trkpt>
      <trkpt lat="50.10428" lon="1.51725">
        <ele>59.5</ele>
        <time>2020-06-18T15:31:20Z</time>
      </trkpt>
      <trkpt lat="50.10428" lon="1.51736">
        <ele>59.5</ele>
        <time>2020-06-18T15:31:21Z</time>
      </trkpt>
      <trkpt lat="50.10426" lon="1.51746">
        <ele>59.4</ele>
        <time>2020-06-18T15:31:22Z</time>
      </trkpt>
      <trkpt lat="50.10422" lon="1.51755">
        <ele>59.2</ele>
        <time>2020-06-18T15:31:23Z</time>
      </trkpt>
      <trkpt lat="50.10418" lon="1.51763">
        <ele>59.2</ele>
        <time>2020-06-18T15:31:24Z</time>
      </trkpt>
      <trkpt lat="50.10413" lon="1.51769">
        <ele>59.2</ele>
        <time>2020-06-18T15:31:25Z</time>
      </trkpt>
      <trkpt lat="50.10408" lon="1.51774">
        <ele>59.2</ele>
        <time>2020-06-18T15:31:26Z</time>
      </trkpt>
      <trkpt lat="50.10403" lon="1.51779">
        <ele>59.2</ele>
        <time>2020-06-18T15:31:27Z</time>
      </trkpt>
      <trkpt lat="50.10398" lon="1.51783">
        <ele>59.2</ele>
        <time>2020-06-18T15:31:28Z</time>
      </trkpt>
      <trkpt lat="50.10393" lon="1.51789">
        <ele>59.2</ele>
        <time>2020-06-18T15:31:29Z</time>
      </trkpt>
      <trkpt lat="50.10389" lon="1.51793">
        <ele>59.2</ele>
        <time>2020-06-18T15:31:30Z</time>
      </trkpt>
      <trkpt lat="50.10384" lon="1.51798">
        <ele>59.2</ele>
        <time>2020-06-18T15:31:31Z</time>
      </trkpt>
      <trkpt lat="50.1038" lon="1.51803">
        <ele>59.2</ele>
        <time>2020-06-18T15:31:32Z</time>
      </trkpt>
      <trkpt lat="50.10375" lon="1.51808">
        <ele>59.2</ele>
        <time>2020-06-18T15:31:33Z</time>
      </trkpt>
      <trkpt lat="50.1037" lon="1.51812">
        <ele>59.2</ele>
        <time>2020-06-18T15:31:34Z</time>
      </trkpt>
      <trkpt lat="50.10365" lon="1.51816">
        <ele>59.2</ele>
        <time>2020-06-18T15:31:35Z</time>
      </trkpt>
      <trkpt lat="50.10359" lon="1.51821">
        <ele>59.2</ele>
        <time>2020-06-18T15:31:36Z</time>
      </trkpt>
      <trkpt lat="50.10354" lon="1.51826">
        <ele>59.2</ele>
        <time>2020-06-18T15:31:37Z</time>
      </trkpt>
      <trkpt lat="50.10348" lon="1.51832">
        <ele>59.2</ele>
        <time>2020-06-18T15:31:38Z</time>
      </trkpt>
      <trkpt lat="50.10343" lon="1.51838">
        <ele>59.3</ele>
        <time>2020-06-18T15:31:39Z</time>
      </trkpt>
      <trkpt lat="50.10337" lon="1.51843">
        <ele>59.3</ele>
        <time>2020-06-18T15:31:40Z</time>
      </trkpt>
      <trkpt lat="50.10332" lon="1.51848">
        <ele>59.3</ele>
        <time>2020-06-18T15:31:41Z</time>
      </trkpt>
      <trkpt lat="50.10327" lon="1.51854">
        <ele>59.4</ele>
        <time>2020-06-18T15:31:42Z</time>
      </trkpt>
      <trkpt lat="50.10321" lon="1.51859">
        <ele>59.6</ele>
        <time>2020-06-18T15:31:43Z</time>
      </trkpt>
      <trkpt lat="50.10316" lon="1.51864">
        <ele>59.8</ele>
        <time>2020-06-18T15:31:44Z</time>
      </trkpt>
      <trkpt lat="50.1031" lon="1.51868">
        <ele>59.9</ele>
        <time>2020-06-18T15:31:45Z</time>
      </trkpt>
      <trkpt lat="50.10305" lon="1.51872">
        <ele>60</ele>
        <time>2020-06-18T15:31:46Z</time>
      </trkpt>
      <trkpt lat="50.103" lon="1.51877">
        <ele>60.1</ele>
        <time>2020-06-18T15:31:47Z</time>
      </trkpt>
      <trkpt lat="50.10294" lon="1.51881">
        <ele>60.2</ele>
        <time>2020-06-18T15:31:48Z</time>
      </trkpt>
      <trkpt lat="50.10289" lon="1.51886">
        <ele>60.2</ele>
        <time>2020-06-18T15:31:49Z</time>
      </trkpt>
      <trkpt lat="50.10285" lon="1.51891">
        <ele>60.2</ele>
        <time>2020-06-18T15:31:50Z</time>
      </trkpt>
      <trkpt lat="50.1028" lon="1.51896">
        <ele>60.3</ele>
        <time>2020-06-18T15:31:51Z</time>
      </trkpt>
      <trkpt lat="50.10275" lon="1.51899">
        <ele>60.4</ele>
        <time>2020-06-18T15:31:52Z</time>
      </trkpt>
      <trkpt lat="50.1027" lon="1.51902">
        <ele>60.4</ele>
        <time>2020-06-18T15:31:53Z</time>
      </trkpt>
      <trkpt lat="50.10266" lon="1.51906">
        <ele>60.5</ele>
        <time>2020-06-18T15:31:54Z</time>
      </trkpt>
      <trkpt lat="50.10262" lon="1.5191">
        <ele>60.6</ele>
        <time>2020-06-18T15:31:55Z</time>
      </trkpt>
      <trkpt lat="50.10258" lon="1.51912">
        <ele>60.6</ele>
        <time>2020-06-18T15:31:56Z</time>
      </trkpt>
      <trkpt lat="50.10254" lon="1.51915">
        <ele>60.7</ele>
        <time>2020-06-18T15:31:57Z</time>
      </trkpt>
      <trkpt lat="50.1025" lon="1.51919">
        <ele>60.8</ele>
        <time>2020-06-18T15:31:58Z</time>
      </trkpt>
      <trkpt lat="50.10247" lon="1.51923">
        <ele>60.8</ele>
        <time>2020-06-18T15:31:59Z</time>
      </trkpt>
      <trkpt lat="50.10244" lon="1.51926">
        <ele>60.9</ele>
        <time>2020-06-18T15:32:00Z</time>
      </trkpt>
      <trkpt lat="50.10241" lon="1.5193">
        <ele>60.9</ele>
        <time>2020-06-18T15:32:01Z</time>
      </trkpt>
      <trkpt lat="50.10238" lon="1.51933">
        <ele>61</ele>
        <time>2020-06-18T15:32:02Z</time>
      </trkpt>
      <trkpt lat="50.10234" lon="1.51936">
        <ele>61.1</ele>
        <time>2020-06-18T15:32:03Z</time>
      </trkpt>
      <trkpt lat="50.1023" lon="1.51939">
        <ele>61.2</ele>
        <time>2020-06-18T15:32:04Z</time>
      </trkpt>
      <trkpt lat="50.10227" lon="1.51942">
        <ele>61.3</ele>
        <time>2020-06-18T15:32:05Z</time>
      </trkpt>
      <trkpt lat="50.10224" lon="1.51947">
        <ele>61.4</ele>
        <time>2020-06-18T15:32:06Z</time>
      </trkpt>
      <trkpt lat="50.10221" lon="1.51951">
        <ele>61.5</ele>
        <time>2020-06-18T15:32:07Z</time>
      </trkpt>
      <trkpt lat="50.10218" lon="1.51955">
        <ele>61.6</ele>
        <time>2020-06-18T15:32:08Z</time>
      </trkpt>
      <trkpt lat="50.10217" lon="1.5196">
        <ele>61.7</ele>
        <time>2020-06-18T15:32:09Z</time>
      </trkpt>
      <trkpt lat="50.10217" lon="1.51962">
        <ele>61.8</ele>
        <time>2020-06-18T15:32:10Z</time>
      </trkpt>
      <trkpt lat="50.10216" lon="1.51968">
        <ele>61.9</ele>
        <time>2020-06-18T15:32:11Z</time>
      </trkpt>
      <trkpt lat="50.10215" lon="1.5197">
        <ele>61.9</ele>
        <time>2020-06-18T15:32:12Z</time>
      </trkpt>
      <trkpt lat="50.10218" lon="1.51973">
        <ele>61.9</ele>
        <time>2020-06-18T15:32:13Z</time>
      </trkpt>
      <trkpt lat="50.1022" lon="1.51974">
        <ele>61.9</ele>
        <time>2020-06-18T15:32:14Z</time>
      </trkpt>
      <trkpt lat="50.10223" lon="1.51976">
        <ele>61.8</ele>
        <time>2020-06-18T15:32:15Z</time>
      </trkpt>
      <trkpt lat="50.10227" lon="1.51978">
        <ele>61.8</ele>
        <time>2020-06-18T15:32:16Z</time>
      </trkpt>
      <trkpt lat="50.10231" lon="1.5198">
        <ele>61.7</ele>
        <time>2020-06-18T15:32:17Z</time>
      </trkpt>
      <trkpt lat="50.10235" lon="1.51982">
        <ele>61.7</ele>
        <time>2020-06-18T15:32:18Z</time>
      </trkpt>
      <trkpt lat="50.1024" lon="1.51985">
        <ele>61.6</ele>
        <time>2020-06-18T15:32:19Z</time>
      </trkpt>
      <trkpt lat="50.10244" lon="1.51988">
        <ele>61.5</ele>
        <time>2020-06-18T15:32:20Z</time>
      </trkpt>
      <trkpt lat="50.10249" lon="1.5199">
        <ele>61.5</ele>
        <time>2020-06-18T15:32:21Z</time>
      </trkpt>
      <trkpt lat="50.10254" lon="1.51993">
        <ele>61.4</ele>
        <time>2020-06-18T15:32:22Z</time>
      </trkpt>
      <trkpt lat="50.10259" lon="1.51995">
        <ele>61.4</ele>
        <time>2020-06-18T15:32:23Z</time>
      </trkpt>
      <trkpt lat="50.10264" lon="1.51997">
        <ele>61.3</ele>
        <time>2020-06-18T15:32:24Z</time>
      </trkpt>
      <trkpt lat="50.10268" lon="1.52008">
        <ele>61.2</ele>
        <time>2020-06-18T15:32:25Z</time>
      </trkpt>
      <trkpt lat="50.10273" lon="1.52013">
        <ele>61.2</ele>
        <time>2020-06-18T15:32:26Z</time>
      </trkpt>
      <trkpt lat="50.1028" lon="1.52015">
        <ele>61.1</ele>
        <time>2020-06-18T15:32:27Z</time>
      </trkpt>
      <trkpt lat="50.10286" lon="1.52018">
        <ele>61</ele>
        <time>2020-06-18T15:32:28Z</time>
      </trkpt>
      <trkpt lat="50.10292" lon="1.52021">
        <ele>60.9</ele>
        <time>2020-06-18T15:32:29Z</time>
      </trkpt>
      <trkpt lat="50.10299" lon="1.52025">
        <ele>60.8</ele>
        <time>2020-06-18T15:32:30Z</time>
      </trkpt>
      <trkpt lat="50.10307" lon="1.52029">
        <ele>60.7</ele>
        <time>2020-06-18T15:32:31Z</time>
      </trkpt>
      <trkpt lat="50.10315" lon="1.52034">
        <ele>60.6</ele>
        <time>2020-06-18T15:32:32Z</time>
      </trkpt>
      <trkpt lat="50.10321" lon="1.52038">
        <ele>60.5</ele>
        <time>2020-06-18T15:32:33Z</time>
      </trkpt>
      <trkpt lat="50.10328" lon="1.52043">
        <ele>60.4</ele>
        <time>2020-06-18T15:32:34Z</time>
      </trkpt>
      <trkpt lat="50.10334" lon="1.52048">
        <ele>60.4</ele>
        <time>2020-06-18T15:32:35Z</time>
      </trkpt>
      <trkpt lat="50.1034" lon="1.52053">
        <ele>60.3</ele>
        <time>2020-06-18T15:32:36Z</time>
      </trkpt>
      <trkpt lat="50.10347" lon="1.52059">
        <ele>60.3</ele>
        <time>2020-06-18T15:32:37Z</time>
      </trkpt>
      <trkpt lat="50.10354" lon="1.52063">
        <ele>60.2</ele>
        <time>2020-06-18T15:32:38Z</time>
      </trkpt>
      <trkpt lat="50.1036" lon="1.52069">
        <ele>60.2</ele>
        <time>2020-06-18T15:32:39Z</time>
      </trkpt>
      <trkpt lat="50.10366" lon="1.52076">
        <ele>60.1</ele>
        <time>2020-06-18T15:32:40Z</time>
      </trkpt>
      <trkpt lat="50.10371" lon="1.52082">
        <ele>60</ele>
        <time>2020-06-18T15:32:41Z</time>
      </trkpt>
      <trkpt lat="50.10377" lon="1.52086">
        <ele>59.9</ele>
        <time>2020-06-18T15:32:42Z</time>
      </trkpt>
      <trkpt lat="50.10384" lon="1.52091">
        <ele>59.8</ele>
        <time>2020-06-18T15:32:43Z</time>
      </trkpt>
      <trkpt lat="50.1039" lon="1.52097">
        <ele>59.7</ele>
        <time>2020-06-18T15:32:44Z</time>
      </trkpt>
      <trkpt lat="50.10396" lon="1.52102">
        <ele>59.6</ele>
        <time>2020-06-18T15:32:45Z</time>
      </trkpt>
      <trkpt lat="50.10402" lon="1.52107">
        <ele>59.5</ele>
        <time>2020-06-18T15:32:46Z</time>
      </trkpt>
      <trkpt lat="50.10408" lon="1.52112">
        <ele>59.5</ele>
        <time>2020-06-18T15:32:47Z</time>
      </trkpt>
      <trkpt lat="50.10414" lon="1.52118">
        <ele>59.5</ele>
        <time>2020-06-18T15:32:48Z</time>
      </trkpt>
      <trkpt lat="50.10419" lon="1.52125">
        <ele>59.6</ele>
        <time>2020-06-18T15:32:49Z</time>
      </trkpt>
      <trkpt lat="50.10425" lon="1.52131">
        <ele>59.6</ele>
        <time>2020-06-18T15:32:50Z</time>
      </trkpt>
      <trkpt lat="50.1043" lon="1.52139">
        <ele>59.6</ele>
        <time>2020-06-18T15:32:51Z</time>
      </trkpt>
      <trkpt lat="50.10435" lon="1.52146">
        <ele>59.6</ele>
        <time>2020-06-18T15:32:52Z</time>
      </trkpt>
      <trkpt lat="50.10441" lon="1.52153">
        <ele>59.4</ele>
        <time>2020-06-18T15:32:53Z</time>
      </trkpt>
      <trkpt lat="50.10445" lon="1.52162">
        <ele>59.3</ele>
        <time>2020-06-18T15:32:54Z</time>
      </trkpt>
      <trkpt lat="50.1045" lon="1.52171">
        <ele>59.2</ele>
        <time>2020-06-18T15:32:55Z</time>
      </trkpt>
      <trkpt lat="50.10454" lon="1.5218">
        <ele>59.1</ele>
        <time>2020-06-18T15:32:56Z</time>
      </trkpt>
      <trkpt lat="50.10459" lon="1.52188">
        <ele>59.1</ele>
        <time>2020-06-18T15:32:57Z</time>
      </trkpt>
      <trkpt lat="50.10464" lon="1.52196">
        <ele>59</ele>
        <time>2020-06-18T15:32:58Z</time>
      </trkpt>
      <trkpt lat="50.10469" lon="1.52205">
        <ele>59</ele>
        <time>2020-06-18T15:32:59Z</time>
      </trkpt>
      <trkpt lat="50.10474" lon="1.52213">
        <ele>58.9</ele>
        <time>2020-06-18T15:33:00Z</time>
      </trkpt>
      <trkpt lat="50.10479" lon="1.52221">
        <ele>58.9</ele>
        <time>2020-06-18T15:33:01Z</time>
      </trkpt>
      <trkpt lat="50.10482" lon="1.52231">
        <ele>58.8</ele>
        <time>2020-06-18T15:33:02Z</time>
      </trkpt>
      <trkpt lat="50.10485" lon="1.52242">
        <ele>58.7</ele>
        <time>2020-06-18T15:33:03Z</time>
      </trkpt>
      <trkpt lat="50.10488" lon="1.52252">
        <ele>58.7</ele>
        <time>2020-06-18T15:33:04Z</time>
      </trkpt>
      <trkpt lat="50.10492" lon="1.52261">
        <ele>58.6</ele>
        <time>2020-06-18T15:33:05Z</time>
      </trkpt>
      <trkpt lat="50.10496" lon="1.52271">
        <ele>58.6</ele>
        <time>2020-06-18T15:33:06Z</time>
      </trkpt>
      <trkpt lat="50.10498" lon="1.52281">
        <ele>58.6</ele>
        <time>2020-06-18T15:33:07Z</time>
      </trkpt>
      <trkpt lat="50.10501" lon="1.52292">
        <ele>58.7</ele>
        <time>2020-06-18T15:33:08Z</time>
      </trkpt>
      <trkpt lat="50.10505" lon="1.52302">
        <ele>58.7</ele>
        <time>2020-06-18T15:33:09Z</time>
      </trkpt>
      <trkpt lat="50.10508" lon="1.52312">
        <ele>58.8</ele>
        <time>2020-06-18T15:33:10Z</time>
      </trkpt>
      <trkpt lat="50.10511" lon="1.52322">
        <ele>58.9</ele>
        <time>2020-06-18T15:33:11Z</time>
      </trkpt>
      <trkpt lat="50.10514" lon="1.52333">
        <ele>58.9</ele>
        <time>2020-06-18T15:33:12Z</time>
      </trkpt>
      <trkpt lat="50.10518" lon="1.52343">
        <ele>58.9</ele>
        <time>2020-06-18T15:33:13Z</time>
      </trkpt>
      <trkpt lat="50.10521" lon="1.52353">
        <ele>59</ele>
        <time>2020-06-18T15:33:14Z</time>
      </trkpt>
      <trkpt lat="50.10524" lon="1.52363">
        <ele>59</ele>
        <time>2020-06-18T15:33:15Z</time>
      </trkpt>
      <trkpt lat="50.10527" lon="1.52372">
        <ele>59</ele>
        <time>2020-06-18T15:33:16Z</time>
      </trkpt>
      <trkpt lat="50.1053" lon="1.52382">
        <ele>59.1</ele>
        <time>2020-06-18T15:33:17Z</time>
      </trkpt>
      <trkpt lat="50.10534" lon="1.52391">
        <ele>59.1</ele>
        <time>2020-06-18T15:33:18Z</time>
      </trkpt>
      <trkpt lat="50.10538" lon="1.52401">
        <ele>59</ele>
        <time>2020-06-18T15:33:19Z</time>
      </trkpt>
      <trkpt lat="50.10542" lon="1.5241">
        <ele>58.9</ele>
        <time>2020-06-18T15:33:20Z</time>
      </trkpt>
      <trkpt lat="50.10545" lon="1.5242">
        <ele>58.9</ele>
        <time>2020-06-18T15:33:21Z</time>
      </trkpt>
      <trkpt lat="50.10549" lon="1.5243">
        <ele>58.8</ele>
        <time>2020-06-18T15:33:22Z</time>
      </trkpt>
      <trkpt lat="50.10552" lon="1.5244">
        <ele>58.7</ele>
        <time>2020-06-18T15:33:23Z</time>
      </trkpt>
      <trkpt lat="50.10555" lon="1.5245">
        <ele>58.7</ele>
        <time>2020-06-18T15:33:24Z</time>
      </trkpt>
      <trkpt lat="50.10558" lon="1.52461">
        <ele>58.6</ele>
        <time>2020-06-18T15:33:25Z</time>
      </trkpt>
      <trkpt lat="50.10561" lon="1.52471">
        <ele>58.6</ele>
        <time>2020-06-18T15:33:26Z</time>
      </trkpt>
      <trkpt lat="50.10564" lon="1.52481">
        <ele>58.6</ele>
        <time>2020-06-18T15:33:27Z</time>
      </trkpt>
      <trkpt lat="50.10568" lon="1.52491">
        <ele>58.5</ele>
        <time>2020-06-18T15:33:28Z</time>
      </trkpt>
      <trkpt lat="50.1057" lon="1.52501">
        <ele>58.5</ele>
        <time>2020-06-18T15:33:29Z</time>
      </trkpt>
      <trkpt lat="50.10573" lon="1.5251">
        <ele>58.5</ele>
        <time>2020-06-18T15:33:30Z</time>
      </trkpt>
      <trkpt lat="50.10576" lon="1.5252">
        <ele>58.4</ele>
        <time>2020-06-18T15:33:31Z</time>
      </trkpt>
      <trkpt lat="50.10579" lon="1.52529">
        <ele>58.4</ele>
        <time>2020-06-18T15:33:32Z</time>
      </trkpt>
      <trkpt lat="50.10581" lon="1.52538">
        <ele>58.4</ele>
        <time>2020-06-18T15:33:33Z</time>
      </trkpt>
      <trkpt lat="50.10584" lon="1.52547">
        <ele>58.3</ele>
        <time>2020-06-18T15:33:34Z</time>
      </trkpt>
      <trkpt lat="50.10587" lon="1.52557">
        <ele>58.3</ele>
        <time>2020-06-18T15:33:35Z</time>
      </trkpt>
      <trkpt lat="50.10589" lon="1.52567">
        <ele>58.2</ele>
        <time>2020-06-18T15:33:36Z</time>
      </trkpt>
      <trkpt lat="50.10592" lon="1.52577">
        <ele>58.2</ele>
        <time>2020-06-18T15:33:37Z</time>
      </trkpt>
      <trkpt lat="50.10594" lon="1.52587">
        <ele>58.2</ele>
        <time>2020-06-18T15:33:38Z</time>
      </trkpt>
      <trkpt lat="50.10596" lon="1.52597">
        <ele>58.2</ele>
        <time>2020-06-18T15:33:39Z</time>
      </trkpt>
      <trkpt lat="50.10597" lon="1.52608">
        <ele>58.2</ele>
        <time>2020-06-18T15:33:40Z</time>
      </trkpt>
      <trkpt lat="50.10599" lon="1.52618">
        <ele>58.3</ele>
        <time>2020-06-18T15:33:41Z</time>
      </trkpt>
      <trkpt lat="50.10599" lon="1.52629">
        <ele>58.3</ele>
        <time>2020-06-18T15:33:42Z</time>
      </trkpt>
      <trkpt lat="50.10599" lon="1.52641">
        <ele>58.3</ele>
        <time>2020-06-18T15:33:43Z</time>
      </trkpt>
      <trkpt lat="50.106" lon="1.52651">
        <ele>58.3</ele>
        <time>2020-06-18T15:33:44Z</time>
      </trkpt>
      <trkpt lat="50.10601" lon="1.52662">
        <ele>58.4</ele>
        <time>2020-06-18T15:33:45Z</time>
      </trkpt>
      <trkpt lat="50.10602" lon="1.52673">
        <ele>58.5</ele>
        <time>2020-06-18T15:33:46Z</time>
      </trkpt>
      <trkpt lat="50.10603" lon="1.52684">
        <ele>58.5</ele>
        <time>2020-06-18T15:33:47Z</time>
      </trkpt>
      <trkpt lat="50.10604" lon="1.52694">
        <ele>58.6</ele>
        <time>2020-06-18T15:33:48Z</time>
      </trkpt>
      <trkpt lat="50.10606" lon="1.52705">
        <ele>58.7</ele>
        <time>2020-06-18T15:33:49Z</time>
      </trkpt>
      <trkpt lat="50.10607" lon="1.52715">
        <ele>58.8</ele>
        <time>2020-06-18T15:33:50Z</time>
      </trkpt>
      <trkpt lat="50.10608" lon="1.52725">
        <ele>58.9</ele>
        <time>2020-06-18T15:33:51Z</time>
      </trkpt>
      <trkpt lat="50.10609" lon="1.52735">
        <ele>59</ele>
        <time>2020-06-18T15:33:52Z</time>
      </trkpt>
      <trkpt lat="50.1061" lon="1.52744">
        <ele>59.1</ele>
        <time>2020-06-18T15:33:53Z</time>
      </trkpt>
      <trkpt lat="50.10611" lon="1.52753">
        <ele>59.2</ele>
        <time>2020-06-18T15:33:54Z</time>
      </trkpt>
      <trkpt lat="50.10611" lon="1.52762">
        <ele>59.3</ele>
        <time>2020-06-18T15:33:55Z</time>
      </trkpt>
      <trkpt lat="50.10613" lon="1.5277">
        <ele>59.3</ele>
        <time>2020-06-18T15:33:56Z</time>
      </trkpt>
      <trkpt lat="50.10614" lon="1.52779">
        <ele>59.3</ele>
        <time>2020-06-18T15:33:57Z</time>
      </trkpt>
      <trkpt lat="50.10616" lon="1.52785">
        <ele>59.3</ele>
        <time>2020-06-18T15:33:58Z</time>
      </trkpt>
      <trkpt lat="50.10617" lon="1.52791">
        <ele>59.2</ele>
        <time>2020-06-18T15:33:59Z</time>
      </trkpt>
      <trkpt lat="50.10619" lon="1.52795">
        <ele>59.1</ele>
        <time>2020-06-18T15:34:00Z</time>
      </trkpt>
      <trkpt lat="50.10622" lon="1.52801">
        <ele>59</ele>
        <time>2020-06-18T15:34:01Z</time>
      </trkpt>
      <trkpt lat="50.10622" lon="1.52808">
        <ele>58.9</ele>
        <time>2020-06-18T15:34:02Z</time>
      </trkpt>
      <trkpt lat="50.10624" lon="1.52816">
        <ele>58.8</ele>
        <time>2020-06-18T15:34:03Z</time>
      </trkpt>
      <trkpt lat="50.10626" lon="1.52824">
        <ele>58.7</ele>
        <time>2020-06-18T15:34:04Z</time>
      </trkpt>
      <trkpt lat="50.10627" lon="1.52833">
        <ele>58.6</ele>
        <time>2020-06-18T15:34:05Z</time>
      </trkpt>
      <trkpt lat="50.1063" lon="1.52841">
        <ele>58.6</ele>
        <time>2020-06-18T15:34:06Z</time>
      </trkpt>
      <trkpt lat="50.10632" lon="1.5285">
        <ele>58.5</ele>
        <time>2020-06-18T15:34:07Z</time>
      </trkpt>
      <trkpt lat="50.10633" lon="1.52859">
        <ele>58.5</ele>
        <time>2020-06-18T15:34:08Z</time>
      </trkpt>
      <trkpt lat="50.10634" lon="1.52868">
        <ele>58.5</ele>
        <time>2020-06-18T15:34:09Z</time>
      </trkpt>
      <trkpt lat="50.10637" lon="1.52877">
        <ele>58.5</ele>
        <time>2020-06-18T15:34:10Z</time>
      </trkpt>
      <trkpt lat="50.10639" lon="1.52885">
        <ele>58.6</ele>
        <time>2020-06-18T15:34:11Z</time>
      </trkpt>
      <trkpt lat="50.10643" lon="1.5289">
        <ele>58.6</ele>
        <time>2020-06-18T15:34:12Z</time>
      </trkpt>
      <trkpt lat="50.10648" lon="1.52893">
        <ele>58.6</ele>
        <time>2020-06-18T15:34:13Z</time>
      </trkpt>
      <trkpt lat="50.10654" lon="1.52895">
        <ele>58.6</ele>
        <time>2020-06-18T15:34:14Z</time>
      </trkpt>
      <trkpt lat="50.1066" lon="1.52896">
        <ele>58.6</ele>
        <time>2020-06-18T15:34:15Z</time>
      </trkpt>
      <trkpt lat="50.10666" lon="1.52897">
        <ele>58.6</ele>
        <time>2020-06-18T15:34:16Z</time>
      </trkpt>
      <trkpt lat="50.10671" lon="1.52899">
        <ele>58.6</ele>
        <time>2020-06-18T15:34:17Z</time>
      </trkpt>
      <trkpt lat="50.10676" lon="1.529">
        <ele>58.7</ele>
        <time>2020-06-18T15:34:18Z</time>
      </trkpt>
      <trkpt lat="50.10682" lon="1.52902">
        <ele>58.7</ele>
        <time>2020-06-18T15:34:19Z</time>
      </trkpt>
      <trkpt lat="50.10687" lon="1.52904">
        <ele>58.7</ele>
        <time>2020-06-18T15:34:20Z</time>
      </trkpt>
      <trkpt lat="50.10691" lon="1.52906">
        <ele>58.8</ele>
        <time>2020-06-18T15:34:21Z</time>
      </trkpt>
      <trkpt lat="50.10696" lon="1.52907">
        <ele>58.8</ele>
        <time>2020-06-18T15:34:22Z</time>
      </trkpt>
      <trkpt lat="50.10701" lon="1.52908">
        <ele>58.8</ele>
        <time>2020-06-18T15:34:23Z</time>
      </trkpt>
      <trkpt lat="50.10706" lon="1.52909">
        <ele>58.9</ele>
        <time>2020-06-18T15:34:24Z</time>
      </trkpt>
      <trkpt lat="50.1071" lon="1.52912">
        <ele>58.9</ele>
        <time>2020-06-18T15:34:25Z</time>
      </trkpt>
      <trkpt lat="50.10715" lon="1.52915">
        <ele>58.9</ele>
        <time>2020-06-18T15:34:26Z</time>
      </trkpt>
      <trkpt lat="50.10719" lon="1.52922">
        <ele>58.9</ele>
        <time>2020-06-18T15:34:27Z</time>
      </trkpt>
      <trkpt lat="50.10724" lon="1.52928">
        <ele>59</ele>
        <time>2020-06-18T15:34:28Z</time>
      </trkpt>
      <trkpt lat="50.10728" lon="1.52936">
        <ele>59</ele>
        <time>2020-06-18T15:34:29Z</time>
      </trkpt>
      <trkpt lat="50.10732" lon="1.52942">
        <ele>59</ele>
        <time>2020-06-18T15:34:30Z</time>
      </trkpt>
      <trkpt lat="50.10736" lon="1.52949">
        <ele>59</ele>
        <time>2020-06-18T15:34:31Z</time>
      </trkpt>
      <trkpt lat="50.1074" lon="1.52956">
        <ele>59</ele>
        <time>2020-06-18T15:34:32Z</time>
      </trkpt>
      <trkpt lat="50.10744" lon="1.52962">
        <ele>59</ele>
        <time>2020-06-18T15:34:33Z</time>
      </trkpt>
      <trkpt lat="50.10749" lon="1.5297">
        <ele>59</ele>
        <time>2020-06-18T15:34:34Z</time>
      </trkpt>
      <trkpt lat="50.10754" lon="1.52977">
        <ele>58.9</ele>
        <time>2020-06-18T15:34:35Z</time>
      </trkpt>
      <trkpt lat="50.10759" lon="1.52984">
        <ele>58.9</ele>
        <time>2020-06-18T15:34:36Z</time>
      </trkpt>
      <trkpt lat="50.10764" lon="1.52991">
        <ele>58.9</ele>
        <time>2020-06-18T15:34:37Z</time>
      </trkpt>
      <trkpt lat="50.10769" lon="1.52999">
        <ele>58.9</ele>
        <time>2020-06-18T15:34:38Z</time>
      </trkpt>
      <trkpt lat="50.10773" lon="1.53007">
        <ele>58.8</ele>
        <time>2020-06-18T15:34:39Z</time>
      </trkpt>
      <trkpt lat="50.10778" lon="1.53015">
        <ele>58.8</ele>
        <time>2020-06-18T15:34:40Z</time>
      </trkpt>
      <trkpt lat="50.10783" lon="1.53023">
        <ele>58.8</ele>
        <time>2020-06-18T15:34:41Z</time>
      </trkpt>
      <trkpt lat="50.10788" lon="1.53031">
        <ele>58.8</ele>
        <time>2020-06-18T15:34:42Z</time>
      </trkpt>
      <trkpt lat="50.10792" lon="1.5304">
        <ele>58.8</ele>
        <time>2020-06-18T15:34:43Z</time>
      </trkpt>
      <trkpt lat="50.10797" lon="1.53048">
        <ele>58.7</ele>
        <time>2020-06-18T15:34:44Z</time>
      </trkpt>
      <trkpt lat="50.10801" lon="1.53057">
        <ele>58.7</ele>
        <time>2020-06-18T15:34:45Z</time>
      </trkpt>
      <trkpt lat="50.10806" lon="1.53065">
        <ele>58.6</ele>
        <time>2020-06-18T15:34:46Z</time>
      </trkpt>
      <trkpt lat="50.10811" lon="1.53073">
        <ele>58.6</ele>
        <time>2020-06-18T15:34:47Z</time>
      </trkpt>
      <trkpt lat="50.10816" lon="1.53082">
        <ele>58.6</ele>
        <time>2020-06-18T15:34:48Z</time>
      </trkpt>
      <trkpt lat="50.10821" lon="1.5309">
        <ele>58.6</ele>
        <time>2020-06-18T15:34:49Z</time>
      </trkpt>
      <trkpt lat="50.10825" lon="1.53098">
        <ele>58.6</ele>
        <time>2020-06-18T15:34:50Z</time>
      </trkpt>
      <trkpt lat="50.1083" lon="1.53106">
        <ele>58.5</ele>
        <time>2020-06-18T15:34:51Z</time>
      </trkpt>
      <trkpt lat="50.10835" lon="1.53115">
        <ele>58.5</ele>
        <time>2020-06-18T15:34:52Z</time>
      </trkpt>
      <trkpt lat="50.1084" lon="1.53124">
        <ele>58.5</ele>
        <time>2020-06-18T15:34:53Z</time>
      </trkpt>
      <trkpt lat="50.10844" lon="1.53132">
        <ele>58.5</ele>
        <time>2020-06-18T15:34:54Z</time>
      </trkpt>
      <trkpt lat="50.10849" lon="1.53141">
        <ele>58.4</ele>
        <time>2020-06-18T15:34:55Z</time>
      </trkpt>
      <trkpt lat="50.10853" lon="1.53149">
        <ele>58.4</ele>
        <time>2020-06-18T15:34:56Z</time>
      </trkpt>
      <trkpt lat="50.10858" lon="1.53156">
        <ele>58.4</ele>
        <time>2020-06-18T15:34:57Z</time>
      </trkpt>
      <trkpt lat="50.10862" lon="1.53163">
        <ele>58.3</ele>
        <time>2020-06-18T15:34:58Z</time>
      </trkpt>
      <trkpt lat="50.10866" lon="1.53171">
        <ele>58.3</ele>
        <time>2020-06-18T15:34:59Z</time>
      </trkpt>
      <trkpt lat="50.10871" lon="1.53175">
        <ele>58.2</ele>
        <time>2020-06-18T15:35:00Z</time>
      </trkpt>
      <trkpt lat="50.10877" lon="1.53176">
        <ele>58.1</ele>
        <time>2020-06-18T15:35:01Z</time>
      </trkpt>
      <trkpt lat="50.10883" lon="1.53173">
        <ele>58</ele>
        <time>2020-06-18T15:35:02Z</time>
      </trkpt>
      <trkpt lat="50.10889" lon="1.53167">
        <ele>57.8</ele>
        <time>2020-06-18T15:35:03Z</time>
      </trkpt>
      <trkpt lat="50.10894" lon="1.5316">
        <ele>57.7</ele>
        <time>2020-06-18T15:35:04Z</time>
      </trkpt>
      <trkpt lat="50.10899" lon="1.53153">
        <ele>57.6</ele>
        <time>2020-06-18T15:35:05Z</time>
      </trkpt>
      <trkpt lat="50.10905" lon="1.53146">
        <ele>57.5</ele>
        <time>2020-06-18T15:35:06Z</time>
      </trkpt>
      <trkpt lat="50.1091" lon="1.53139">
        <ele>57.5</ele>
        <time>2020-06-18T15:35:07Z</time>
      </trkpt>
      <trkpt lat="50.10915" lon="1.53132">
        <ele>57.5</ele>
        <time>2020-06-18T15:35:08Z</time>
      </trkpt>
      <trkpt lat="50.1092" lon="1.53126">
        <ele>57.4</ele>
        <time>2020-06-18T15:35:09Z</time>
      </trkpt>
      <trkpt lat="50.10926" lon="1.53121">
        <ele>57.4</ele>
        <time>2020-06-18T15:35:10Z</time>
      </trkpt>
      <trkpt lat="50.10933" lon="1.53121">
        <ele>57.4</ele>
        <time>2020-06-18T15:35:11Z</time>
      </trkpt>
      <trkpt lat="50.1094" lon="1.53124">
        <ele>57.3</ele>
        <time>2020-06-18T15:35:12Z</time>
      </trkpt>
      <trkpt lat="50.10946" lon="1.53129">
        <ele>57.3</ele>
        <time>2020-06-18T15:35:13Z</time>
      </trkpt>
      <trkpt lat="50.10952" lon="1.53136">
        <ele>57.3</ele>
        <time>2020-06-18T15:35:14Z</time>
      </trkpt>
      <trkpt lat="50.10959" lon="1.53141">
        <ele>57.2</ele>
        <time>2020-06-18T15:35:15Z</time>
      </trkpt>
      <trkpt lat="50.10965" lon="1.53147">
        <ele>57.2</ele>
        <time>2020-06-18T15:35:16Z</time>
      </trkpt>
      <trkpt lat="50.10972" lon="1.53152">
        <ele>57.1</ele>
        <time>2020-06-18T15:35:17Z</time>
      </trkpt>
      <trkpt lat="50.10979" lon="1.53157">
        <ele>57.1</ele>
        <time>2020-06-18T15:35:18Z</time>
      </trkpt>
      <trkpt lat="50.10985" lon="1.53161">
        <ele>57</ele>
        <time>2020-06-18T15:35:19Z</time>
      </trkpt>
      <trkpt lat="50.10993" lon="1.53164">
        <ele>57</ele>
        <time>2020-06-18T15:35:20Z</time>
      </trkpt>
      <trkpt lat="50.11" lon="1.53168">
        <ele>56.9</ele>
        <time>2020-06-18T15:35:21Z</time>
      </trkpt>
      <trkpt lat="50.11007" lon="1.53171">
        <ele>56.9</ele>
        <time>2020-06-18T15:35:22Z</time>
      </trkpt>
      <trkpt lat="50.11015" lon="1.53174">
        <ele>56.8</ele>
        <time>2020-06-18T15:35:23Z</time>
      </trkpt>
      <trkpt lat="50.11022" lon="1.53177">
        <ele>56.8</ele>
        <time>2020-06-18T15:35:24Z</time>
      </trkpt>
      <trkpt lat="50.11029" lon="1.5318">
        <ele>56.7</ele>
        <time>2020-06-18T15:35:25Z</time>
      </trkpt>
      <trkpt lat="50.11037" lon="1.53183">
        <ele>56.6</ele>
        <time>2020-06-18T15:35:26Z</time>
      </trkpt>
      <trkpt lat="50.11044" lon="1.53185">
        <ele>56.6</ele>
        <time>2020-06-18T15:35:27Z</time>
      </trkpt>
      <trkpt lat="50.11052" lon="1.53186">
        <ele>56.5</ele>
        <time>2020-06-18T15:35:28Z</time>
      </trkpt>
      <trkpt lat="50.1106" lon="1.53188">
        <ele>56.4</ele>
        <time>2020-06-18T15:35:29Z</time>
      </trkpt>
      <trkpt lat="50.11067" lon="1.5319">
        <ele>56.4</ele>
        <time>2020-06-18T15:35:30Z</time>
      </trkpt>
      <trkpt lat="50.11074" lon="1.53191">
        <ele>56.3</ele>
        <time>2020-06-18T15:35:31Z</time>
      </trkpt>
      <trkpt lat="50.11081" lon="1.53192">
        <ele>56.3</ele>
        <time>2020-06-18T15:35:32Z</time>
      </trkpt>
      <trkpt lat="50.11088" lon="1.53192">
        <ele>56.3</ele>
        <time>2020-06-18T15:35:33Z</time>
      </trkpt>
      <trkpt lat="50.11095" lon="1.53193">
        <ele>56.2</ele>
        <time>2020-06-18T15:35:34Z</time>
      </trkpt>
      <trkpt lat="50.11103" lon="1.53193">
        <ele>56.2</ele>
        <time>2020-06-18T15:35:35Z</time>
      </trkpt>
      <trkpt lat="50.1111" lon="1.53193">
        <ele>56.2</ele>
        <time>2020-06-18T15:35:36Z</time>
      </trkpt>
      <trkpt lat="50.11117" lon="1.53195">
        <ele>56.2</ele>
        <time>2020-06-18T15:35:37Z</time>
      </trkpt>
      <trkpt lat="50.11124" lon="1.53196">
        <ele>56.3</ele>
        <time>2020-06-18T15:35:38Z</time>
      </trkpt>
      <trkpt lat="50.11131" lon="1.53197">
        <ele>56.3</ele>
        <time>2020-06-18T15:35:39Z</time>
      </trkpt>
      <trkpt lat="50.11138" lon="1.53198">
        <ele>56.4</ele>
        <time>2020-06-18T15:35:40Z</time>
      </trkpt>
      <trkpt lat="50.11145" lon="1.532">
        <ele>56.5</ele>
        <time>2020-06-18T15:35:41Z</time>
      </trkpt>
      <trkpt lat="50.11152" lon="1.53202">
        <ele>56.5</ele>
        <time>2020-06-18T15:35:42Z</time>
      </trkpt>
      <trkpt lat="50.11158" lon="1.53205">
        <ele>56.6</ele>
        <time>2020-06-18T15:35:43Z</time>
      </trkpt>
      <trkpt lat="50.11165" lon="1.53206">
        <ele>56.7</ele>
        <time>2020-06-18T15:35:44Z</time>
      </trkpt>
      <trkpt lat="50.11171" lon="1.53208">
        <ele>56.8</ele>
        <time>2020-06-18T15:35:45Z</time>
      </trkpt>
      <trkpt lat="50.11178" lon="1.53209">
        <ele>57</ele>
        <time>2020-06-18T15:35:46Z</time>
      </trkpt>
      <trkpt lat="50.11185" lon="1.53211">
        <ele>57.1</ele>
        <time>2020-06-18T15:35:47Z</time>
      </trkpt>
      <trkpt lat="50.11191" lon="1.53212">
        <ele>57.3</ele>
        <time>2020-06-18T15:35:48Z</time>
      </trkpt>
      <trkpt lat="50.11198" lon="1.53214">
        <ele>57.3</ele>
        <time>2020-06-18T15:35:49Z</time>
      </trkpt>
      <trkpt lat="50.11204" lon="1.53216">
        <ele>57.3</ele>
        <time>2020-06-18T15:35:50Z</time>
      </trkpt>
      <trkpt lat="50.11211" lon="1.53217">
        <ele>57.3</ele>
        <time>2020-06-18T15:35:51Z</time>
      </trkpt>
      <trkpt lat="50.11218" lon="1.5322">
        <ele>57.3</ele>
        <time>2020-06-18T15:35:52Z</time>
      </trkpt>
      <trkpt lat="50.11224" lon="1.53225">
        <ele>57.4</ele>
        <time>2020-06-18T15:35:53Z</time>
      </trkpt>
      <trkpt lat="50.11231" lon="1.53229">
        <ele>57.5</ele>
        <time>2020-06-18T15:35:54Z</time>
      </trkpt>
      <trkpt lat="50.11237" lon="1.53233">
        <ele>57.5</ele>
        <time>2020-06-18T15:35:55Z</time>
      </trkpt>
      <trkpt lat="50.11243" lon="1.53237">
        <ele>57.6</ele>
        <time>2020-06-18T15:35:56Z</time>
      </trkpt>
      <trkpt lat="50.1125" lon="1.53242">
        <ele>57.7</ele>
        <time>2020-06-18T15:35:57Z</time>
      </trkpt>
      <trkpt lat="50.11256" lon="1.53248">
        <ele>57.8</ele>
        <time>2020-06-18T15:35:58Z</time>
      </trkpt>
      <trkpt lat="50.11263" lon="1.53252">
        <ele>57.9</ele>
        <time>2020-06-18T15:35:59Z</time>
      </trkpt>
      <trkpt lat="50.11269" lon="1.53257">
        <ele>57.9</ele>
        <time>2020-06-18T15:36:00Z</time>
      </trkpt>
      <trkpt lat="50.11275" lon="1.53263">
        <ele>58</ele>
        <time>2020-06-18T15:36:01Z</time>
      </trkpt>
      <trkpt lat="50.11281" lon="1.53269">
        <ele>58</ele>
        <time>2020-06-18T15:36:02Z</time>
      </trkpt>
      <trkpt lat="50.11287" lon="1.53275">
        <ele>58.1</ele>
        <time>2020-06-18T15:36:03Z</time>
      </trkpt>
      <trkpt lat="50.11294" lon="1.53282">
        <ele>58.2</ele>
        <time>2020-06-18T15:36:04Z</time>
      </trkpt>
      <trkpt lat="50.113" lon="1.53288">
        <ele>58.3</ele>
        <time>2020-06-18T15:36:05Z</time>
      </trkpt>
      <trkpt lat="50.11305" lon="1.53293">
        <ele>58.4</ele>
        <time>2020-06-18T15:36:06Z</time>
      </trkpt>
      <trkpt lat="50.11311" lon="1.53299">
        <ele>58.5</ele>
        <time>2020-06-18T15:36:07Z</time>
      </trkpt>
      <trkpt lat="50.11316" lon="1.53305">
        <ele>58.6</ele>
        <time>2020-06-18T15:36:08Z</time>
      </trkpt>
      <trkpt lat="50.11322" lon="1.53311">
        <ele>58.7</ele>
        <time>2020-06-18T15:36:09Z</time>
      </trkpt>
      <trkpt lat="50.11327" lon="1.53316">
        <ele>58.8</ele>
        <time>2020-06-18T15:36:10Z</time>
      </trkpt>
      <trkpt lat="50.11333" lon="1.53321">
        <ele>58.8</ele>
        <time>2020-06-18T15:36:11Z</time>
      </trkpt>
      <trkpt lat="50.11338" lon="1.53327">
        <ele>58.9</ele>
        <time>2020-06-18T15:36:12Z</time>
      </trkpt>
      <trkpt lat="50.11344" lon="1.53332">
        <ele>59</ele>
        <time>2020-06-18T15:36:13Z</time>
      </trkpt>
      <trkpt lat="50.1135" lon="1.53337">
        <ele>59</ele>
        <time>2020-06-18T15:36:14Z</time>
      </trkpt>
      <trkpt lat="50.11355" lon="1.53343">
        <ele>59.1</ele>
        <time>2020-06-18T15:36:15Z</time>
      </trkpt>
      <trkpt lat="50.11361" lon="1.53348">
        <ele>59.1</ele>
        <time>2020-06-18T15:36:16Z</time>
      </trkpt>
      <trkpt lat="50.11366" lon="1.53354">
        <ele>59.2</ele>
        <time>2020-06-18T15:36:17Z</time>
      </trkpt>
      <trkpt lat="50.11371" lon="1.5336">
        <ele>59.2</ele>
        <time>2020-06-18T15:36:18Z</time>
      </trkpt>
      <trkpt lat="50.11377" lon="1.53365">
        <ele>59.3</ele>
        <time>2020-06-18T15:36:19Z</time>
      </trkpt>
      <trkpt lat="50.11382" lon="1.53371">
        <ele>59.3</ele>
        <time>2020-06-18T15:36:20Z</time>
      </trkpt>
      <trkpt lat="50.11387" lon="1.53377">
        <ele>59.4</ele>
        <time>2020-06-18T15:36:21Z</time>
      </trkpt>
      <trkpt lat="50.11392" lon="1.53383">
        <ele>59.4</ele>
        <time>2020-06-18T15:36:22Z</time>
      </trkpt>
      <trkpt lat="50.11397" lon="1.5339">
        <ele>59.4</ele>
        <time>2020-06-18T15:36:23Z</time>
      </trkpt>
      <trkpt lat="50.11401" lon="1.53396">
        <ele>59.4</ele>
        <time>2020-06-18T15:36:24Z</time>
      </trkpt>
      <trkpt lat="50.11406" lon="1.53403">
        <ele>59.4</ele>
        <time>2020-06-18T15:36:25Z</time>
      </trkpt>
      <trkpt lat="50.1141" lon="1.53411">
        <ele>59.5</ele>
        <time>2020-06-18T15:36:26Z</time>
      </trkpt>
      <trkpt lat="50.11413" lon="1.5342">
        <ele>59.5</ele>
        <time>2020-06-18T15:36:27Z</time>
      </trkpt>
      <trkpt lat="50.11416" lon="1.53429">
        <ele>59.6</ele>
        <time>2020-06-18T15:36:28Z</time>
      </trkpt>
      <trkpt lat="50.11418" lon="1.53438">
        <ele>59.6</ele>
        <time>2020-06-18T15:36:29Z</time>
      </trkpt>
      <trkpt lat="50.1142" lon="1.53447">
        <ele>59.6</ele>
        <time>2020-06-18T15:36:30Z</time>
      </trkpt>
      <trkpt lat="50.11422" lon="1.53456">
        <ele>59.7</ele>
        <time>2020-06-18T15:36:31Z</time>
      </trkpt>
      <trkpt lat="50.11424" lon="1.53466">
        <ele>59.7</ele>
        <time>2020-06-18T15:36:32Z</time>
      </trkpt>
      <trkpt lat="50.11427" lon="1.53475">
        <ele>59.7</ele>
        <time>2020-06-18T15:36:33Z</time>
      </trkpt>
      <trkpt lat="50.11429" lon="1.53484">
        <ele>59.7</ele>
        <time>2020-06-18T15:36:34Z</time>
      </trkpt>
      <trkpt lat="50.11431" lon="1.53494">
        <ele>59.7</ele>
        <time>2020-06-18T15:36:35Z</time>
      </trkpt>
      <trkpt lat="50.11433" lon="1.53504">
        <ele>59.8</ele>
        <time>2020-06-18T15:36:36Z</time>
      </trkpt>
      <trkpt lat="50.11435" lon="1.53514">
        <ele>59.8</ele>
        <time>2020-06-18T15:36:37Z</time>
      </trkpt>
      <trkpt lat="50.11437" lon="1.53523">
        <ele>59.8</ele>
        <time>2020-06-18T15:36:38Z</time>
      </trkpt>
      <trkpt lat="50.11438" lon="1.53533">
        <ele>59.8</ele>
        <time>2020-06-18T15:36:39Z</time>
      </trkpt>
      <trkpt lat="50.1144" lon="1.53543">
        <ele>59.8</ele>
        <time>2020-06-18T15:36:40Z</time>
      </trkpt>
      <trkpt lat="50.11442" lon="1.53553">
        <ele>59.8</ele>
        <time>2020-06-18T15:36:41Z</time>
      </trkpt>
      <trkpt lat="50.11444" lon="1.53563">
        <ele>59.8</ele>
        <time>2020-06-18T15:36:42Z</time>
      </trkpt>
      <trkpt lat="50.11446" lon="1.53573">
        <ele>59.8</ele>
        <time>2020-06-18T15:36:43Z</time>
      </trkpt>
      <trkpt lat="50.11448" lon="1.53583">
        <ele>59.8</ele>
        <time>2020-06-18T15:36:44Z</time>
      </trkpt>
      <trkpt lat="50.1145" lon="1.53593">
        <ele>59.7</ele>
        <time>2020-06-18T15:36:45Z</time>
      </trkpt>
      <trkpt lat="50.11451" lon="1.53603">
        <ele>59.7</ele>
        <time>2020-06-18T15:36:46Z</time>
      </trkpt>
      <trkpt lat="50.11452" lon="1.53613">
        <ele>59.7</ele>
        <time>2020-06-18T15:36:47Z</time>
      </trkpt>
      <trkpt lat="50.11454" lon="1.53623">
        <ele>59.6</ele>
        <time>2020-06-18T15:36:48Z</time>
      </trkpt>
      <trkpt lat="50.11457" lon="1.53633">
        <ele>59.6</ele>
        <time>2020-06-18T15:36:49Z</time>
      </trkpt>
      <trkpt lat="50.11458" lon="1.53643">
        <ele>59.6</ele>
        <time>2020-06-18T15:36:50Z</time>
      </trkpt>
      <trkpt lat="50.1146" lon="1.53653">
        <ele>59.5</ele>
        <time>2020-06-18T15:36:51Z</time>
      </trkpt>
      <trkpt lat="50.11461" lon="1.53664">
        <ele>59.5</ele>
        <time>2020-06-18T15:36:52Z</time>
      </trkpt>
      <trkpt lat="50.11463" lon="1.53674">
        <ele>59.4</ele>
        <time>2020-06-18T15:36:53Z</time>
      </trkpt>
      <trkpt lat="50.11465" lon="1.53684">
        <ele>59.4</ele>
        <time>2020-06-18T15:36:54Z</time>
      </trkpt>
      <trkpt lat="50.11467" lon="1.53695">
        <ele>59.4</ele>
        <time>2020-06-18T15:36:55Z</time>
      </trkpt>
      <trkpt lat="50.11468" lon="1.53704">
        <ele>59.4</ele>
        <time>2020-06-18T15:36:56Z</time>
      </trkpt>
      <trkpt lat="50.11471" lon="1.53714">
        <ele>59.4</ele>
        <time>2020-06-18T15:36:57Z</time>
      </trkpt>
      <trkpt lat="50.11473" lon="1.53725">
        <ele>59.4</ele>
        <time>2020-06-18T15:36:58Z</time>
      </trkpt>
      <trkpt lat="50.11475" lon="1.53737">
        <ele>59.5</ele>
        <time>2020-06-18T15:36:59Z</time>
      </trkpt>
      <trkpt lat="50.11478" lon="1.53746">
        <ele>59.5</ele>
        <time>2020-06-18T15:37:00Z</time>
      </trkpt>
      <trkpt lat="50.11481" lon="1.53755">
        <ele>59.5</ele>
        <time>2020-06-18T15:37:01Z</time>
      </trkpt>
      <trkpt lat="50.11484" lon="1.53765">
        <ele>59.6</ele>
        <time>2020-06-18T15:37:02Z</time>
      </trkpt>
      <trkpt lat="50.11487" lon="1.53773">
        <ele>59.6</ele>
        <time>2020-06-18T15:37:03Z</time>
      </trkpt>
      <trkpt lat="50.1149" lon="1.53782">
        <ele>59.6</ele>
        <time>2020-06-18T15:37:04Z</time>
      </trkpt>
      <trkpt lat="50.11493" lon="1.5379">
        <ele>59.4</ele>
        <time>2020-06-18T15:37:05Z</time>
      </trkpt>
      <trkpt lat="50.11497" lon="1.53798">
        <ele>59.1</ele>
        <time>2020-06-18T15:37:06Z</time>
      </trkpt>
      <trkpt lat="50.11501" lon="1.53807">
        <ele>58.9</ele>
        <time>2020-06-18T15:37:07Z</time>
      </trkpt>
      <trkpt lat="50.11505" lon="1.53816">
        <ele>58.8</ele>
        <time>2020-06-18T15:37:08Z</time>
      </trkpt>
      <trkpt lat="50.11509" lon="1.53824">
        <ele>58.7</ele>
        <time>2020-06-18T15:37:09Z</time>
      </trkpt>
      <trkpt lat="50.11514" lon="1.53833">
        <ele>58.6</ele>
        <time>2020-06-18T15:37:10Z</time>
      </trkpt>
      <trkpt lat="50.11518" lon="1.53842">
        <ele>58.5</ele>
        <time>2020-06-18T15:37:11Z</time>
      </trkpt>
      <trkpt lat="50.11523" lon="1.53851">
        <ele>58.5</ele>
        <time>2020-06-18T15:37:12Z</time>
      </trkpt>
      <trkpt lat="50.11527" lon="1.5386">
        <ele>58.4</ele>
        <time>2020-06-18T15:37:13Z</time>
      </trkpt>
      <trkpt lat="50.11531" lon="1.53868">
        <ele>58.4</ele>
        <time>2020-06-18T15:37:14Z</time>
      </trkpt>
      <trkpt lat="50.11534" lon="1.53877">
        <ele>58.4</ele>
        <time>2020-06-18T15:37:15Z</time>
      </trkpt>
      <trkpt lat="50.11538" lon="1.53885">
        <ele>58.4</ele>
        <time>2020-06-18T15:37:16Z</time>
      </trkpt>
      <trkpt lat="50.11542" lon="1.53894">
        <ele>58.4</ele>
        <time>2020-06-18T15:37:17Z</time>
      </trkpt>
      <trkpt lat="50.11546" lon="1.53902">
        <ele>58.3</ele>
        <time>2020-06-18T15:37:18Z</time>
      </trkpt>
      <trkpt lat="50.1155" lon="1.53911">
        <ele>58.3</ele>
        <time>2020-06-18T15:37:19Z</time>
      </trkpt>
      <trkpt lat="50.11555" lon="1.53918">
        <ele>58.2</ele>
        <time>2020-06-18T15:37:20Z</time>
      </trkpt>
      <trkpt lat="50.11559" lon="1.53927">
        <ele>58.2</ele>
        <time>2020-06-18T15:37:21Z</time>
      </trkpt>
      <trkpt lat="50.11563" lon="1.53934">
        <ele>58.1</ele>
        <time>2020-06-18T15:37:22Z</time>
      </trkpt>
      <trkpt lat="50.11568" lon="1.53943">
        <ele>58.1</ele>
        <time>2020-06-18T15:37:23Z</time>
      </trkpt>
      <trkpt lat="50.11572" lon="1.53952">
        <ele>58</ele>
        <time>2020-06-18T15:37:24Z</time>
      </trkpt>
      <trkpt lat="50.11576" lon="1.53961">
        <ele>58</ele>
        <time>2020-06-18T15:37:25Z</time>
      </trkpt>
      <trkpt lat="50.1158" lon="1.5397">
        <ele>57.9</ele>
        <time>2020-06-18T15:37:26Z</time>
      </trkpt>
      <trkpt lat="50.11584" lon="1.53979">
        <ele>57.9</ele>
        <time>2020-06-18T15:37:27Z</time>
      </trkpt>
      <trkpt lat="50.11588" lon="1.53988">
        <ele>57.8</ele>
        <time>2020-06-18T15:37:28Z</time>
      </trkpt>
      <trkpt lat="50.11591" lon="1.53997">
        <ele>57.8</ele>
        <time>2020-06-18T15:37:29Z</time>
      </trkpt>
      <trkpt lat="50.11595" lon="1.54005">
        <ele>57.8</ele>
        <time>2020-06-18T15:37:30Z</time>
      </trkpt>
      <trkpt lat="50.11599" lon="1.54014">
        <ele>57.7</ele>
        <time>2020-06-18T15:37:31Z</time>
      </trkpt>
      <trkpt lat="50.11602" lon="1.54022">
        <ele>57.7</ele>
        <time>2020-06-18T15:37:32Z</time>
      </trkpt>
      <trkpt lat="50.11605" lon="1.54032">
        <ele>57.7</ele>
        <time>2020-06-18T15:37:33Z</time>
      </trkpt>
      <trkpt lat="50.11609" lon="1.54041">
        <ele>57.6</ele>
        <time>2020-06-18T15:37:34Z</time>
      </trkpt>
      <trkpt lat="50.11612" lon="1.5405">
        <ele>57.6</ele>
        <time>2020-06-18T15:37:35Z</time>
      </trkpt>
      <trkpt lat="50.11616" lon="1.54059">
        <ele>57.6</ele>
        <time>2020-06-18T15:37:36Z</time>
      </trkpt>
      <trkpt lat="50.11619" lon="1.54068">
        <ele>57.6</ele>
        <time>2020-06-18T15:37:37Z</time>
      </trkpt>
      <trkpt lat="50.11622" lon="1.54077">
        <ele>57.6</ele>
        <time>2020-06-18T15:37:38Z</time>
      </trkpt>
      <trkpt lat="50.11625" lon="1.54086">
        <ele>57.5</ele>
        <time>2020-06-18T15:37:39Z</time>
      </trkpt>
      <trkpt lat="50.11629" lon="1.54095">
        <ele>57.5</ele>
        <time>2020-06-18T15:37:40Z</time>
      </trkpt>
      <trkpt lat="50.11633" lon="1.54104">
        <ele>57.5</ele>
        <time>2020-06-18T15:37:41Z</time>
      </trkpt>
      <trkpt lat="50.11637" lon="1.54112">
        <ele>57.5</ele>
        <time>2020-06-18T15:37:42Z</time>
      </trkpt>
      <trkpt lat="50.11642" lon="1.54122">
        <ele>57.5</ele>
        <time>2020-06-18T15:37:43Z</time>
      </trkpt>
      <trkpt lat="50.11646" lon="1.54131">
        <ele>57.5</ele>
        <time>2020-06-18T15:37:44Z</time>
      </trkpt>
      <trkpt lat="50.11649" lon="1.5414">
        <ele>57.5</ele>
        <time>2020-06-18T15:37:45Z</time>
      </trkpt>
      <trkpt lat="50.11653" lon="1.5415">
        <ele>57.4</ele>
        <time>2020-06-18T15:37:46Z</time>
      </trkpt>
      <trkpt lat="50.11656" lon="1.54159">
        <ele>57.4</ele>
        <time>2020-06-18T15:37:47Z</time>
      </trkpt>
      <trkpt lat="50.11661" lon="1.54168">
        <ele>57.4</ele>
        <time>2020-06-18T15:37:48Z</time>
      </trkpt>
      <trkpt lat="50.11665" lon="1.54176">
        <ele>57.3</ele>
        <time>2020-06-18T15:37:49Z</time>
      </trkpt>
      <trkpt lat="50.1167" lon="1.54185">
        <ele>57.3</ele>
        <time>2020-06-18T15:37:50Z</time>
      </trkpt>
      <trkpt lat="50.11674" lon="1.54194">
        <ele>57.2</ele>
        <time>2020-06-18T15:37:51Z</time>
      </trkpt>
      <trkpt lat="50.11678" lon="1.54204">
        <ele>57.2</ele>
        <time>2020-06-18T15:37:52Z</time>
      </trkpt>
      <trkpt lat="50.11682" lon="1.54213">
        <ele>57.2</ele>
        <time>2020-06-18T15:37:53Z</time>
      </trkpt>
      <trkpt lat="50.11686" lon="1.54223">
        <ele>57.2</ele>
        <time>2020-06-18T15:37:54Z</time>
      </trkpt>
      <trkpt lat="50.11689" lon="1.54232">
        <ele>57.1</ele>
        <time>2020-06-18T15:37:55Z</time>
      </trkpt>
      <trkpt lat="50.11693" lon="1.54242">
        <ele>57.1</ele>
        <time>2020-06-18T15:37:56Z</time>
      </trkpt>
      <trkpt lat="50.11697" lon="1.54252">
        <ele>57.1</ele>
        <time>2020-06-18T15:37:57Z</time>
      </trkpt>
      <trkpt lat="50.117" lon="1.54262">
        <ele>57</ele>
        <time>2020-06-18T15:37:58Z</time>
      </trkpt>
      <trkpt lat="50.11703" lon="1.54272">
        <ele>56.9</ele>
        <time>2020-06-18T15:37:59Z</time>
      </trkpt>
      <trkpt lat="50.11707" lon="1.54283">
        <ele>56.9</ele>
        <time>2020-06-18T15:38:00Z</time>
      </trkpt>
      <trkpt lat="50.11709" lon="1.54293">
        <ele>56.8</ele>
        <time>2020-06-18T15:38:01Z</time>
      </trkpt>
      <trkpt lat="50.11713" lon="1.54304">
        <ele>56.8</ele>
        <time>2020-06-18T15:38:02Z</time>
      </trkpt>
      <trkpt lat="50.11716" lon="1.54315">
        <ele>56.7</ele>
        <time>2020-06-18T15:38:03Z</time>
      </trkpt>
      <trkpt lat="50.11719" lon="1.54326">
        <ele>56.7</ele>
        <time>2020-06-18T15:38:04Z</time>
      </trkpt>
      <trkpt lat="50.11721" lon="1.54336">
        <ele>56.7</ele>
        <time>2020-06-18T15:38:05Z</time>
      </trkpt>
      <trkpt lat="50.11723" lon="1.54347">
        <ele>56.7</ele>
        <time>2020-06-18T15:38:06Z</time>
      </trkpt>
      <trkpt lat="50.11726" lon="1.54356">
        <ele>56.6</ele>
        <time>2020-06-18T15:38:07Z</time>
      </trkpt>
      <trkpt lat="50.11728" lon="1.54367">
        <ele>56.6</ele>
        <time>2020-06-18T15:38:08Z</time>
      </trkpt>
      <trkpt lat="50.1173" lon="1.54377">
        <ele>56.6</ele>
        <time>2020-06-18T15:38:09Z</time>
      </trkpt>
      <trkpt lat="50.11732" lon="1.54386">
        <ele>56.6</ele>
        <time>2020-06-18T15:38:10Z</time>
      </trkpt>
      <trkpt lat="50.11734" lon="1.54395">
        <ele>56.5</ele>
        <time>2020-06-18T15:38:11Z</time>
      </trkpt>
      <trkpt lat="50.11736" lon="1.54404">
        <ele>56.5</ele>
        <time>2020-06-18T15:38:12Z</time>
      </trkpt>
      <trkpt lat="50.11737" lon="1.54412">
        <ele>56.4</ele>
        <time>2020-06-18T15:38:13Z</time>
      </trkpt>
      <trkpt lat="50.11738" lon="1.54421">
        <ele>56.4</ele>
        <time>2020-06-18T15:38:14Z</time>
      </trkpt>
      <trkpt lat="50.1174" lon="1.5443">
        <ele>56.4</ele>
        <time>2020-06-18T15:38:15Z</time>
      </trkpt>
      <trkpt lat="50.11742" lon="1.54438">
        <ele>56.4</ele>
        <time>2020-06-18T15:38:16Z</time>
      </trkpt>
      <trkpt lat="50.11744" lon="1.54446">
        <ele>56.5</ele>
        <time>2020-06-18T15:38:17Z</time>
      </trkpt>
      <trkpt lat="50.11746" lon="1.54456">
        <ele>56.5</ele>
        <time>2020-06-18T15:38:18Z</time>
      </trkpt>
      <trkpt lat="50.11748" lon="1.54465">
        <ele>56.5</ele>
        <time>2020-06-18T15:38:19Z</time>
      </trkpt>
      <trkpt lat="50.11749" lon="1.54474">
        <ele>56.4</ele>
        <time>2020-06-18T15:38:20Z</time>
      </trkpt>
      <trkpt lat="50.1175" lon="1.54484">
        <ele>56.4</ele>
        <time>2020-06-18T15:38:21Z</time>
      </trkpt>
      <trkpt lat="50.11752" lon="1.54493">
        <ele>56.3</ele>
        <time>2020-06-18T15:38:22Z</time>
      </trkpt>
      <trkpt lat="50.11754" lon="1.54503">
        <ele>56.2</ele>
        <time>2020-06-18T15:38:23Z</time>
      </trkpt>
      <trkpt lat="50.11756" lon="1.54513">
        <ele>56.1</ele>
        <time>2020-06-18T15:38:24Z</time>
      </trkpt>
      <trkpt lat="50.11757" lon="1.54522">
        <ele>56.1</ele>
        <time>2020-06-18T15:38:25Z</time>
      </trkpt>
      <trkpt lat="50.11758" lon="1.54531">
        <ele>56</ele>
        <time>2020-06-18T15:38:26Z</time>
      </trkpt>
      <trkpt lat="50.11759" lon="1.5454">
        <ele>55.9</ele>
        <time>2020-06-18T15:38:27Z</time>
      </trkpt>
      <trkpt lat="50.11759" lon="1.54549">
        <ele>55.8</ele>
        <time>2020-06-18T15:38:28Z</time>
      </trkpt>
      <trkpt lat="50.11761" lon="1.5456">
        <ele>55.7</ele>
        <time>2020-06-18T15:38:29Z</time>
      </trkpt>
      <trkpt lat="50.11763" lon="1.5457">
        <ele>55.5</ele>
        <time>2020-06-18T15:38:30Z</time>
      </trkpt>
      <trkpt lat="50.11765" lon="1.54581">
        <ele>55.4</ele>
        <time>2020-06-18T15:38:31Z</time>
      </trkpt>
      <trkpt lat="50.11765" lon="1.54591">
        <ele>55.3</ele>
        <time>2020-06-18T15:38:32Z</time>
      </trkpt>
      <trkpt lat="50.11766" lon="1.54598">
        <ele>55.3</ele>
        <time>2020-06-18T15:38:33Z</time>
      </trkpt>
      <trkpt lat="50.11765" lon="1.54606">
        <ele>55.2</ele>
        <time>2020-06-18T15:38:34Z</time>
      </trkpt>
      <trkpt lat="50.11766" lon="1.54613">
        <ele>55.1</ele>
        <time>2020-06-18T15:38:35Z</time>
      </trkpt>
      <trkpt lat="50.11766" lon="1.54618">
        <ele>55</ele>
        <time>2020-06-18T15:38:36Z</time>
      </trkpt>
      <trkpt lat="50.11767" lon="1.54628">
        <ele>54.9</ele>
        <time>2020-06-18T15:38:37Z</time>
      </trkpt>
      <trkpt lat="50.11769" lon="1.54636">
        <ele>54.8</ele>
        <time>2020-06-18T15:38:38Z</time>
      </trkpt>
      <trkpt lat="50.11769" lon="1.54645">
        <ele>54.7</ele>
        <time>2020-06-18T15:38:39Z</time>
      </trkpt>
      <trkpt lat="50.11769" lon="1.54655">
        <ele>54.5</ele>
        <time>2020-06-18T15:38:40Z</time>
      </trkpt>
      <trkpt lat="50.11766" lon="1.54667">
        <ele>54.4</ele>
        <time>2020-06-18T15:38:41Z</time>
      </trkpt>
      <trkpt lat="50.11764" lon="1.54677">
        <ele>54.3</ele>
        <time>2020-06-18T15:38:42Z</time>
      </trkpt>
      <trkpt lat="50.11762" lon="1.54689">
        <ele>54.2</ele>
        <time>2020-06-18T15:38:43Z</time>
      </trkpt>
      <trkpt lat="50.11761" lon="1.547">
        <ele>54.1</ele>
        <time>2020-06-18T15:38:44Z</time>
      </trkpt>
      <trkpt lat="50.1176" lon="1.54711">
        <ele>54</ele>
        <time>2020-06-18T15:38:45Z</time>
      </trkpt>
      <trkpt lat="50.11761" lon="1.5472">
        <ele>53.9</ele>
        <time>2020-06-18T15:38:46Z</time>
      </trkpt>
      <trkpt lat="50.11764" lon="1.54729">
        <ele>53.8</ele>
        <time>2020-06-18T15:38:47Z</time>
      </trkpt>
      <trkpt lat="50.11765" lon="1.54738">
        <ele>53.7</ele>
        <time>2020-06-18T15:38:48Z</time>
      </trkpt>
      <trkpt lat="50.11766" lon="1.54746">
        <ele>53.6</ele>
        <time>2020-06-18T15:38:49Z</time>
      </trkpt>
      <trkpt lat="50.11769" lon="1.54753">
        <ele>53.5</ele>
        <time>2020-06-18T15:38:50Z</time>
      </trkpt>
      <trkpt lat="50.1177" lon="1.5476">
        <ele>53.4</ele>
        <time>2020-06-18T15:38:51Z</time>
      </trkpt>
      <trkpt lat="50.11772" lon="1.54768">
        <ele>53.3</ele>
        <time>2020-06-18T15:38:52Z</time>
      </trkpt>
      <trkpt lat="50.11775" lon="1.54774">
        <ele>53.2</ele>
        <time>2020-06-18T15:38:53Z</time>
      </trkpt>
      <trkpt lat="50.11778" lon="1.54778">
        <ele>53.2</ele>
        <time>2020-06-18T15:38:54Z</time>
      </trkpt>
      <trkpt lat="50.11784" lon="1.54779">
        <ele>53.1</ele>
        <time>2020-06-18T15:38:55Z</time>
      </trkpt>
      <trkpt lat="50.11791" lon="1.54784">
        <ele>53.1</ele>
        <time>2020-06-18T15:38:56Z</time>
      </trkpt>
      <trkpt lat="50.11796" lon="1.54789">
        <ele>53</ele>
        <time>2020-06-18T15:38:57Z</time>
      </trkpt>
      <trkpt lat="50.11802" lon="1.54793">
        <ele>52.9</ele>
        <time>2020-06-18T15:38:58Z</time>
      </trkpt>
      <trkpt lat="50.11808" lon="1.54797">
        <ele>52.9</ele>
        <time>2020-06-18T15:38:59Z</time>
      </trkpt>
      <trkpt lat="50.11815" lon="1.54802">
        <ele>52.8</ele>
        <time>2020-06-18T15:39:00Z</time>
      </trkpt>
      <trkpt lat="50.11821" lon="1.54807">
        <ele>52.8</ele>
        <time>2020-06-18T15:39:01Z</time>
      </trkpt>
      <trkpt lat="50.11827" lon="1.5481">
        <ele>52.8</ele>
        <time>2020-06-18T15:39:02Z</time>
      </trkpt>
      <trkpt lat="50.11832" lon="1.54814">
        <ele>52.7</ele>
        <time>2020-06-18T15:39:03Z</time>
      </trkpt>
      <trkpt lat="50.11837" lon="1.54818">
        <ele>52.7</ele>
        <time>2020-06-18T15:39:04Z</time>
      </trkpt>
      <trkpt lat="50.11842" lon="1.54823">
        <ele>52.6</ele>
        <time>2020-06-18T15:39:05Z</time>
      </trkpt>
      <trkpt lat="50.11848" lon="1.54828">
        <ele>52.5</ele>
        <time>2020-06-18T15:39:06Z</time>
      </trkpt>
      <trkpt lat="50.11853" lon="1.54832">
        <ele>52.5</ele>
        <time>2020-06-18T15:39:07Z</time>
      </trkpt>
      <trkpt lat="50.11858" lon="1.54838">
        <ele>52.4</ele>
        <time>2020-06-18T15:39:08Z</time>
      </trkpt>
      <trkpt lat="50.11863" lon="1.54842">
        <ele>52.3</ele>
        <time>2020-06-18T15:39:09Z</time>
      </trkpt>
      <trkpt lat="50.11868" lon="1.54849">
        <ele>52.3</ele>
        <time>2020-06-18T15:39:10Z</time>
      </trkpt>
      <trkpt lat="50.11873" lon="1.54855">
        <ele>52.2</ele>
        <time>2020-06-18T15:39:11Z</time>
      </trkpt>
      <trkpt lat="50.11878" lon="1.54861">
        <ele>52.2</ele>
        <time>2020-06-18T15:39:12Z</time>
      </trkpt>
      <trkpt lat="50.11884" lon="1.54868">
        <ele>52.1</ele>
        <time>2020-06-18T15:39:13Z</time>
      </trkpt>
      <trkpt lat="50.1189" lon="1.54873">
        <ele>52.1</ele>
        <time>2020-06-18T15:39:14Z</time>
      </trkpt>
      <trkpt lat="50.11895" lon="1.54878">
        <ele>52.1</ele>
        <time>2020-06-18T15:39:15Z</time>
      </trkpt>
      <trkpt lat="50.11901" lon="1.54884">
        <ele>52.1</ele>
        <time>2020-06-18T15:39:16Z</time>
      </trkpt>
      <trkpt lat="50.11908" lon="1.54891">
        <ele>52</ele>
        <time>2020-06-18T15:39:17Z</time>
      </trkpt>
      <trkpt lat="50.11914" lon="1.54896">
        <ele>52</ele>
        <time>2020-06-18T15:39:18Z</time>
      </trkpt>
      <trkpt lat="50.11919" lon="1.54902">
        <ele>51.9</ele>
        <time>2020-06-18T15:39:19Z</time>
      </trkpt>
      <trkpt lat="50.11924" lon="1.54906">
        <ele>51.9</ele>
        <time>2020-06-18T15:39:20Z</time>
      </trkpt>
      <trkpt lat="50.1193" lon="1.54911">
        <ele>51.8</ele>
        <time>2020-06-18T15:39:21Z</time>
      </trkpt>
      <trkpt lat="50.11935" lon="1.54916">
        <ele>51.8</ele>
        <time>2020-06-18T15:39:22Z</time>
      </trkpt>
      <trkpt lat="50.1194" lon="1.5492">
        <ele>51.7</ele>
        <time>2020-06-18T15:39:23Z</time>
      </trkpt>
      <trkpt lat="50.11945" lon="1.54924">
        <ele>51.6</ele>
        <time>2020-06-18T15:39:24Z</time>
      </trkpt>
      <trkpt lat="50.1195" lon="1.54929">
        <ele>51.4</ele>
        <time>2020-06-18T15:39:25Z</time>
      </trkpt>
      <trkpt lat="50.11955" lon="1.54932">
        <ele>51.3</ele>
        <time>2020-06-18T15:39:26Z</time>
      </trkpt>
      <trkpt lat="50.1196" lon="1.54937">
        <ele>51.2</ele>
        <time>2020-06-18T15:39:27Z</time>
      </trkpt>
      <trkpt lat="50.11964" lon="1.54941">
        <ele>51.1</ele>
        <time>2020-06-18T15:39:28Z</time>
      </trkpt>
      <trkpt lat="50.11968" lon="1.54945">
        <ele>51</ele>
        <time>2020-06-18T15:39:29Z</time>
      </trkpt>
      <trkpt lat="50.11973" lon="1.54949">
        <ele>50.9</ele>
        <time>2020-06-18T15:39:30Z</time>
      </trkpt>
      <trkpt lat="50.11978" lon="1.54956">
        <ele>50.8</ele>
        <time>2020-06-18T15:39:31Z</time>
      </trkpt>
      <trkpt lat="50.11983" lon="1.5496">
        <ele>50.7</ele>
        <time>2020-06-18T15:39:32Z</time>
      </trkpt>
      <trkpt lat="50.11987" lon="1.54965">
        <ele>50.6</ele>
        <time>2020-06-18T15:39:33Z</time>
      </trkpt>
      <trkpt lat="50.11992" lon="1.54971">
        <ele>50.5</ele>
        <time>2020-06-18T15:39:34Z</time>
      </trkpt>
      <trkpt lat="50.11993" lon="1.5498">
        <ele>50.5</ele>
        <time>2020-06-18T15:39:35Z</time>
      </trkpt>
      <trkpt lat="50.11993" lon="1.54989">
        <ele>50.3</ele>
        <time>2020-06-18T15:39:36Z</time>
      </trkpt>
      <trkpt lat="50.11992" lon="1.54999">
        <ele>50.2</ele>
        <time>2020-06-18T15:39:37Z</time>
      </trkpt>
      <trkpt lat="50.11991" lon="1.5501">
        <ele>50.1</ele>
        <time>2020-06-18T15:39:38Z</time>
      </trkpt>
      <trkpt lat="50.1199" lon="1.5502">
        <ele>50</ele>
        <time>2020-06-18T15:39:39Z</time>
      </trkpt>
      <trkpt lat="50.1199" lon="1.5503">
        <ele>49.9</ele>
        <time>2020-06-18T15:39:40Z</time>
      </trkpt>
      <trkpt lat="50.1199" lon="1.55041">
        <ele>49.8</ele>
        <time>2020-06-18T15:39:41Z</time>
      </trkpt>
      <trkpt lat="50.1199" lon="1.55051">
        <ele>49.7</ele>
        <time>2020-06-18T15:39:42Z</time>
      </trkpt>
      <trkpt lat="50.11991" lon="1.55061">
        <ele>49.7</ele>
        <time>2020-06-18T15:39:43Z</time>
      </trkpt>
      <trkpt lat="50.11992" lon="1.5507">
        <ele>49.6</ele>
        <time>2020-06-18T15:39:44Z</time>
      </trkpt>
      <trkpt lat="50.11993" lon="1.55083">
        <ele>49.6</ele>
        <time>2020-06-18T15:39:45Z</time>
      </trkpt>
      <trkpt lat="50.11995" lon="1.55095">
        <ele>49.6</ele>
        <time>2020-06-18T15:39:46Z</time>
      </trkpt>
      <trkpt lat="50.11997" lon="1.55106">
        <ele>49.5</ele>
        <time>2020-06-18T15:39:47Z</time>
      </trkpt>
      <trkpt lat="50.11999" lon="1.55116">
        <ele>49.5</ele>
        <time>2020-06-18T15:39:48Z</time>
      </trkpt>
      <trkpt lat="50.11999" lon="1.55128">
        <ele>49.5</ele>
        <time>2020-06-18T15:39:49Z</time>
      </trkpt>
      <trkpt lat="50.12" lon="1.55139">
        <ele>49.5</ele>
        <time>2020-06-18T15:39:50Z</time>
      </trkpt>
      <trkpt lat="50.12002" lon="1.55149">
        <ele>49.6</ele>
        <time>2020-06-18T15:39:51Z</time>
      </trkpt>
      <trkpt lat="50.12004" lon="1.55159">
        <ele>49.6</ele>
        <time>2020-06-18T15:39:52Z</time>
      </trkpt>
      <trkpt lat="50.12006" lon="1.55169">
        <ele>49.7</ele>
        <time>2020-06-18T15:39:53Z</time>
      </trkpt>
      <trkpt lat="50.12008" lon="1.55178">
        <ele>49.8</ele>
        <time>2020-06-18T15:39:54Z</time>
      </trkpt>
      <trkpt lat="50.1201" lon="1.55187">
        <ele>49.7</ele>
        <time>2020-06-18T15:39:55Z</time>
      </trkpt>
      <trkpt lat="50.12014" lon="1.55194">
        <ele>49.6</ele>
        <time>2020-06-18T15:39:56Z</time>
      </trkpt>
      <trkpt lat="50.12019" lon="1.552">
        <ele>49.5</ele>
        <time>2020-06-18T15:39:57Z</time>
      </trkpt>
      <trkpt lat="50.12024" lon="1.55205">
        <ele>49.4</ele>
        <time>2020-06-18T15:39:58Z</time>
      </trkpt>
      <trkpt lat="50.12029" lon="1.5521">
        <ele>49.3</ele>
        <time>2020-06-18T15:39:59Z</time>
      </trkpt>
      <trkpt lat="50.12034" lon="1.55215">
        <ele>49.2</ele>
        <time>2020-06-18T15:40:00Z</time>
      </trkpt>
      <trkpt lat="50.12038" lon="1.55222">
        <ele>49.1</ele>
        <time>2020-06-18T15:40:01Z</time>
      </trkpt>
      <trkpt lat="50.12043" lon="1.55228">
        <ele>49</ele>
        <time>2020-06-18T15:40:02Z</time>
      </trkpt>
      <trkpt lat="50.12049" lon="1.55234">
        <ele>48.8</ele>
        <time>2020-06-18T15:40:03Z</time>
      </trkpt>
      <trkpt lat="50.12053" lon="1.55241">
        <ele>48.7</ele>
        <time>2020-06-18T15:40:04Z</time>
      </trkpt>
      <trkpt lat="50.12059" lon="1.55247">
        <ele>48.6</ele>
        <time>2020-06-18T15:40:05Z</time>
      </trkpt>
      <trkpt lat="50.12064" lon="1.55252">
        <ele>48.6</ele>
        <time>2020-06-18T15:40:06Z</time>
      </trkpt>
      <trkpt lat="50.12069" lon="1.55258">
        <ele>48.5</ele>
        <time>2020-06-18T15:40:07Z</time>
      </trkpt>
      <trkpt lat="50.12075" lon="1.55262">
        <ele>48.4</ele>
        <time>2020-06-18T15:40:08Z</time>
      </trkpt>
      <trkpt lat="50.12081" lon="1.55266">
        <ele>48.4</ele>
        <time>2020-06-18T15:40:09Z</time>
      </trkpt>
      <trkpt lat="50.12086" lon="1.5527">
        <ele>48.3</ele>
        <time>2020-06-18T15:40:10Z</time>
      </trkpt>
      <trkpt lat="50.12092" lon="1.55275">
        <ele>48.2</ele>
        <time>2020-06-18T15:40:11Z</time>
      </trkpt>
      <trkpt lat="50.12098" lon="1.55279">
        <ele>48.1</ele>
        <time>2020-06-18T15:40:12Z</time>
      </trkpt>
      <trkpt lat="50.12104" lon="1.55283">
        <ele>47.9</ele>
        <time>2020-06-18T15:40:13Z</time>
      </trkpt>
      <trkpt lat="50.1211" lon="1.55287">
        <ele>47.8</ele>
        <time>2020-06-18T15:40:14Z</time>
      </trkpt>
      <trkpt lat="50.12116" lon="1.5529">
        <ele>47.7</ele>
        <time>2020-06-18T15:40:15Z</time>
      </trkpt>
      <trkpt lat="50.12122" lon="1.55293">
        <ele>47.6</ele>
        <time>2020-06-18T15:40:16Z</time>
      </trkpt>
      <trkpt lat="50.12128" lon="1.55296">
        <ele>47.4</ele>
        <time>2020-06-18T15:40:17Z</time>
      </trkpt>
      <trkpt lat="50.12134" lon="1.553">
        <ele>47.3</ele>
        <time>2020-06-18T15:40:18Z</time>
      </trkpt>
      <trkpt lat="50.12141" lon="1.55301">
        <ele>47.1</ele>
        <time>2020-06-18T15:40:19Z</time>
      </trkpt>
      <trkpt lat="50.12148" lon="1.55304">
        <ele>46.9</ele>
        <time>2020-06-18T15:40:20Z</time>
      </trkpt>
      <trkpt lat="50.12155" lon="1.55305">
        <ele>46.6</ele>
        <time>2020-06-18T15:40:21Z</time>
      </trkpt>
      <trkpt lat="50.12162" lon="1.55307">
        <ele>46.5</ele>
        <time>2020-06-18T15:40:22Z</time>
      </trkpt>
      <trkpt lat="50.12169" lon="1.55309">
        <ele>46.3</ele>
        <time>2020-06-18T15:40:23Z</time>
      </trkpt>
      <trkpt lat="50.12175" lon="1.55311">
        <ele>46.2</ele>
        <time>2020-06-18T15:40:24Z</time>
      </trkpt>
      <trkpt lat="50.12182" lon="1.55314">
        <ele>46.1</ele>
        <time>2020-06-18T15:40:25Z</time>
      </trkpt>
      <trkpt lat="50.12189" lon="1.55317">
        <ele>46</ele>
        <time>2020-06-18T15:40:26Z</time>
      </trkpt>
      <trkpt lat="50.12196" lon="1.55321">
        <ele>45.9</ele>
        <time>2020-06-18T15:40:27Z</time>
      </trkpt>
      <trkpt lat="50.12202" lon="1.55325">
        <ele>45.7</ele>
        <time>2020-06-18T15:40:28Z</time>
      </trkpt>
      <trkpt lat="50.12209" lon="1.55329">
        <ele>45.5</ele>
        <time>2020-06-18T15:40:29Z</time>
      </trkpt>
      <trkpt lat="50.12215" lon="1.55334">
        <ele>45.4</ele>
        <time>2020-06-18T15:40:30Z</time>
      </trkpt>
      <trkpt lat="50.12221" lon="1.55339">
        <ele>45.3</ele>
        <time>2020-06-18T15:40:31Z</time>
      </trkpt>
      <trkpt lat="50.12226" lon="1.55346">
        <ele>45.2</ele>
        <time>2020-06-18T15:40:32Z</time>
      </trkpt>
      <trkpt lat="50.12231" lon="1.55351">
        <ele>45.2</ele>
        <time>2020-06-18T15:40:33Z</time>
      </trkpt>
      <trkpt lat="50.12237" lon="1.55356">
        <ele>45.1</ele>
        <time>2020-06-18T15:40:34Z</time>
      </trkpt>
      <trkpt lat="50.12242" lon="1.55362">
        <ele>44.9</ele>
        <time>2020-06-18T15:40:35Z</time>
      </trkpt>
      <trkpt lat="50.12247" lon="1.55368">
        <ele>44.8</ele>
        <time>2020-06-18T15:40:36Z</time>
      </trkpt>
      <trkpt lat="50.12252" lon="1.55372">
        <ele>44.7</ele>
        <time>2020-06-18T15:40:37Z</time>
      </trkpt>
      <trkpt lat="50.12255" lon="1.55376">
        <ele>44.6</ele>
        <time>2020-06-18T15:40:38Z</time>
      </trkpt>
      <trkpt lat="50.12257" lon="1.55378">
        <ele>44.5</ele>
        <time>2020-06-18T15:40:39Z</time>
      </trkpt>
      <trkpt lat="50.12259" lon="1.55379">
        <ele>44.5</ele>
        <time>2020-06-18T15:40:40Z</time>
      </trkpt>
      <trkpt lat="50.12259" lon="1.55379">
        <ele>44.5</ele>
        <time>2020-06-18T15:40:41Z</time>
      </trkpt>
      <trkpt lat="50.12258" lon="1.55379">
        <ele>44.5</ele>
        <time>2020-06-18T15:40:42Z</time>
      </trkpt>
      <trkpt lat="50.12258" lon="1.55379">
        <ele>44.5</ele>
        <time>2020-06-18T15:40:43Z</time>
      </trkpt>
      <trkpt lat="50.12258" lon="1.55378">
        <ele>44.4</ele>
        <time>2020-06-18T15:40:44Z</time>
      </trkpt>
      <trkpt lat="50.12259" lon="1.55378">
        <ele>44.4</ele>
        <time>2020-06-18T15:40:45Z</time>
      </trkpt>
      <trkpt lat="50.1226" lon="1.55378">
        <ele>44.4</ele>
        <time>2020-06-18T15:40:46Z</time>
      </trkpt>
      <trkpt lat="50.12261" lon="1.55377">
        <ele>44.4</ele>
        <time>2020-06-18T15:40:47Z</time>
      </trkpt>
      <trkpt lat="50.12262" lon="1.55378">
        <ele>44.4</ele>
        <time>2020-06-18T15:40:48Z</time>
      </trkpt>
      <trkpt lat="50.12263" lon="1.55378">
        <ele>44.4</ele>
        <time>2020-06-18T15:40:49Z</time>
      </trkpt>
      <trkpt lat="50.12263" lon="1.55379">
        <ele>44.3</ele>
        <time>2020-06-18T15:40:50Z</time>
      </trkpt>
      <trkpt lat="50.12264" lon="1.55379">
        <ele>44.3</ele>
        <time>2020-06-18T15:40:51Z</time>
      </trkpt>
      <trkpt lat="50.12265" lon="1.5538">
        <ele>44.3</ele>
        <time>2020-06-18T15:40:52Z</time>
      </trkpt>
      <trkpt lat="50.12265" lon="1.5538">
        <ele>44.3</ele>
        <time>2020-06-18T15:40:53Z</time>
      </trkpt>
      <trkpt lat="50.12266" lon="1.55381">
        <ele>44.3</ele>
        <time>2020-06-18T15:40:54Z</time>
      </trkpt>
      <trkpt lat="50.12267" lon="1.55382">
        <ele>44.2</ele>
        <time>2020-06-18T15:40:55Z</time>
      </trkpt>
      <trkpt lat="50.12267" lon="1.55382">
        <ele>44.2</ele>
        <time>2020-06-18T15:40:56Z</time>
      </trkpt>
      <trkpt lat="50.12268" lon="1.55383">
        <ele>44.2</ele>
        <time>2020-06-18T15:40:57Z</time>
      </trkpt>
      <trkpt lat="50.12269" lon="1.55383">
        <ele>44.2</ele>
        <time>2020-06-18T15:41:15Z</time>
      </trkpt>
      <trkpt lat="50.1227" lon="1.55384">
        <ele>44.2</ele>
        <time>2020-06-18T15:41:16Z</time>
      </trkpt>
      <trkpt lat="50.12272" lon="1.55387">
        <ele>44.1</ele>
        <time>2020-06-18T15:41:17Z</time>
      </trkpt>
      <trkpt lat="50.12274" lon="1.55391">
        <ele>44</ele>
        <time>2020-06-18T15:41:18Z</time>
      </trkpt>
      <trkpt lat="50.12276" lon="1.55396">
        <ele>43.9</ele>
        <time>2020-06-18T15:41:19Z</time>
      </trkpt>
      <trkpt lat="50.12279" lon="1.55401">
        <ele>43.7</ele>
        <time>2020-06-18T15:41:20Z</time>
      </trkpt>
      <trkpt lat="50.12283" lon="1.55405">
        <ele>43.6</ele>
        <time>2020-06-18T15:41:21Z</time>
      </trkpt>
      <trkpt lat="50.12288" lon="1.55409">
        <ele>43.4</ele>
        <time>2020-06-18T15:41:22Z</time>
      </trkpt>
      <trkpt lat="50.12292" lon="1.55413">
        <ele>43.2</ele>
        <time>2020-06-18T15:41:23Z</time>
      </trkpt>
      <trkpt lat="50.12296" lon="1.55418">
        <ele>43</ele>
        <time>2020-06-18T15:41:24Z</time>
      </trkpt>
      <trkpt lat="50.123" lon="1.55424">
        <ele>42.8</ele>
        <time>2020-06-18T15:41:25Z</time>
      </trkpt>
      <trkpt lat="50.12305" lon="1.55428">
        <ele>42.6</ele>
        <time>2020-06-18T15:41:26Z</time>
      </trkpt>
      <trkpt lat="50.1231" lon="1.55433">
        <ele>42.5</ele>
        <time>2020-06-18T15:41:27Z</time>
      </trkpt>
      <trkpt lat="50.12315" lon="1.55438">
        <ele>42.3</ele>
        <time>2020-06-18T15:41:28Z</time>
      </trkpt>
      <trkpt lat="50.12319" lon="1.55443">
        <ele>42.1</ele>
        <time>2020-06-18T15:41:29Z</time>
      </trkpt>
      <trkpt lat="50.12324" lon="1.55448">
        <ele>42</ele>
        <time>2020-06-18T15:41:30Z</time>
      </trkpt>
      <trkpt lat="50.12328" lon="1.55453">
        <ele>41.9</ele>
        <time>2020-06-18T15:41:31Z</time>
      </trkpt>
      <trkpt lat="50.12333" lon="1.55459">
        <ele>41.8</ele>
        <time>2020-06-18T15:41:32Z</time>
      </trkpt>
      <trkpt lat="50.12338" lon="1.55465">
        <ele>41.7</ele>
        <time>2020-06-18T15:41:33Z</time>
      </trkpt>
      <trkpt lat="50.12343" lon="1.55471">
        <ele>41.6</ele>
        <time>2020-06-18T15:41:34Z</time>
      </trkpt>
      <trkpt lat="50.12349" lon="1.55478">
        <ele>41.4</ele>
        <time>2020-06-18T15:41:35Z</time>
      </trkpt>
      <trkpt lat="50.12354" lon="1.55483">
        <ele>41.3</ele>
        <time>2020-06-18T15:41:36Z</time>
      </trkpt>
      <trkpt lat="50.1236" lon="1.55489">
        <ele>41.1</ele>
        <time>2020-06-18T15:41:37Z</time>
      </trkpt>
      <trkpt lat="50.12365" lon="1.55496">
        <ele>41</ele>
        <time>2020-06-18T15:41:38Z</time>
      </trkpt>
      <trkpt lat="50.12371" lon="1.55502">
        <ele>40.9</ele>
        <time>2020-06-18T15:41:39Z</time>
      </trkpt>
      <trkpt lat="50.12376" lon="1.55509">
        <ele>40.8</ele>
        <time>2020-06-18T15:41:40Z</time>
      </trkpt>
      <trkpt lat="50.12382" lon="1.55516">
        <ele>40.6</ele>
        <time>2020-06-18T15:41:41Z</time>
      </trkpt>
      <trkpt lat="50.12388" lon="1.55522">
        <ele>40.5</ele>
        <time>2020-06-18T15:41:42Z</time>
      </trkpt>
      <trkpt lat="50.12393" lon="1.55529">
        <ele>40.3</ele>
        <time>2020-06-18T15:41:43Z</time>
      </trkpt>
      <trkpt lat="50.12398" lon="1.55537">
        <ele>40.2</ele>
        <time>2020-06-18T15:41:44Z</time>
      </trkpt>
      <trkpt lat="50.12404" lon="1.55544">
        <ele>40.1</ele>
        <time>2020-06-18T15:41:45Z</time>
      </trkpt>
      <trkpt lat="50.12409" lon="1.5555">
        <ele>39.9</ele>
        <time>2020-06-18T15:41:46Z</time>
      </trkpt>
      <trkpt lat="50.12414" lon="1.55557">
        <ele>39.8</ele>
        <time>2020-06-18T15:41:47Z</time>
      </trkpt>
      <trkpt lat="50.1242" lon="1.55563">
        <ele>39.8</ele>
        <time>2020-06-18T15:41:48Z</time>
      </trkpt>
      <trkpt lat="50.12425" lon="1.55569">
        <ele>39.7</ele>
        <time>2020-06-18T15:41:49Z</time>
      </trkpt>
      <trkpt lat="50.1243" lon="1.55575">
        <ele>39.6</ele>
        <time>2020-06-18T15:41:50Z</time>
      </trkpt>
      <trkpt lat="50.12435" lon="1.55581">
        <ele>39.5</ele>
        <time>2020-06-18T15:41:51Z</time>
      </trkpt>
      <trkpt lat="50.1244" lon="1.55587">
        <ele>39.4</ele>
        <time>2020-06-18T15:41:52Z</time>
      </trkpt>
      <trkpt lat="50.12445" lon="1.55593">
        <ele>39.4</ele>
        <time>2020-06-18T15:41:53Z</time>
      </trkpt>
      <trkpt lat="50.12451" lon="1.55599">
        <ele>39.3</ele>
        <time>2020-06-18T15:41:54Z</time>
      </trkpt>
      <trkpt lat="50.12456" lon="1.55604">
        <ele>39.2</ele>
        <time>2020-06-18T15:41:55Z</time>
      </trkpt>
      <trkpt lat="50.12461" lon="1.5561">
        <ele>39.1</ele>
        <time>2020-06-18T15:41:56Z</time>
      </trkpt>
      <trkpt lat="50.12466" lon="1.55616">
        <ele>39</ele>
        <time>2020-06-18T15:41:57Z</time>
      </trkpt>
      <trkpt lat="50.12471" lon="1.55621">
        <ele>39</ele>
        <time>2020-06-18T15:41:58Z</time>
      </trkpt>
      <trkpt lat="50.12476" lon="1.55626">
        <ele>38.9</ele>
        <time>2020-06-18T15:41:59Z</time>
      </trkpt>
      <trkpt lat="50.12482" lon="1.55632">
        <ele>38.8</ele>
        <time>2020-06-18T15:42:00Z</time>
      </trkpt>
      <trkpt lat="50.12488" lon="1.55637">
        <ele>38.7</ele>
        <time>2020-06-18T15:42:01Z</time>
      </trkpt>
      <trkpt lat="50.12493" lon="1.55642">
        <ele>38.6</ele>
        <time>2020-06-18T15:42:02Z</time>
      </trkpt>
      <trkpt lat="50.12499" lon="1.55647">
        <ele>38.5</ele>
        <time>2020-06-18T15:42:03Z</time>
      </trkpt>
      <trkpt lat="50.12504" lon="1.55652">
        <ele>38.4</ele>
        <time>2020-06-18T15:42:04Z</time>
      </trkpt>
      <trkpt lat="50.12509" lon="1.55658">
        <ele>38.3</ele>
        <time>2020-06-18T15:42:05Z</time>
      </trkpt>
      <trkpt lat="50.12514" lon="1.55663">
        <ele>38.2</ele>
        <time>2020-06-18T15:42:06Z</time>
      </trkpt>
      <trkpt lat="50.1252" lon="1.55668">
        <ele>38</ele>
        <time>2020-06-18T15:42:07Z</time>
      </trkpt>
      <trkpt lat="50.12525" lon="1.55673">
        <ele>37.9</ele>
        <time>2020-06-18T15:42:08Z</time>
      </trkpt>
      <trkpt lat="50.1253" lon="1.55678">
        <ele>37.8</ele>
        <time>2020-06-18T15:42:09Z</time>
      </trkpt>
      <trkpt lat="50.12535" lon="1.55684">
        <ele>37.6</ele>
        <time>2020-06-18T15:42:10Z</time>
      </trkpt>
      <trkpt lat="50.1254" lon="1.5569">
        <ele>37.4</ele>
        <time>2020-06-18T15:42:11Z</time>
      </trkpt>
      <trkpt lat="50.12545" lon="1.55696">
        <ele>37.1</ele>
        <time>2020-06-18T15:42:12Z</time>
      </trkpt>
      <trkpt lat="50.1255" lon="1.55702">
        <ele>36.8</ele>
        <time>2020-06-18T15:42:13Z</time>
      </trkpt>
      <trkpt lat="50.12555" lon="1.55707">
        <ele>36.6</ele>
        <time>2020-06-18T15:42:14Z</time>
      </trkpt>
      <trkpt lat="50.1256" lon="1.55714">
        <ele>36.4</ele>
        <time>2020-06-18T15:42:15Z</time>
      </trkpt>
      <trkpt lat="50.12565" lon="1.5572">
        <ele>36.1</ele>
        <time>2020-06-18T15:42:16Z</time>
      </trkpt>
      <trkpt lat="50.1257" lon="1.55727">
        <ele>35.9</ele>
        <time>2020-06-18T15:42:17Z</time>
      </trkpt>
      <trkpt lat="50.12575" lon="1.55733">
        <ele>35.7</ele>
        <time>2020-06-18T15:42:18Z</time>
      </trkpt>
      <trkpt lat="50.1258" lon="1.5574">
        <ele>35.6</ele>
        <time>2020-06-18T15:42:19Z</time>
      </trkpt>
      <trkpt lat="50.12584" lon="1.55748">
        <ele>35.4</ele>
        <time>2020-06-18T15:42:20Z</time>
      </trkpt>
      <trkpt lat="50.12589" lon="1.55755">
        <ele>35.2</ele>
        <time>2020-06-18T15:42:21Z</time>
      </trkpt>
      <trkpt lat="50.12593" lon="1.55763">
        <ele>35</ele>
        <time>2020-06-18T15:42:22Z</time>
      </trkpt>
      <trkpt lat="50.12598" lon="1.5577">
        <ele>34.8</ele>
        <time>2020-06-18T15:42:23Z</time>
      </trkpt>
      <trkpt lat="50.12602" lon="1.55779">
        <ele>34.6</ele>
        <time>2020-06-18T15:42:24Z</time>
      </trkpt>
      <trkpt lat="50.12607" lon="1.55787">
        <ele>34.4</ele>
        <time>2020-06-18T15:42:25Z</time>
      </trkpt>
      <trkpt lat="50.12611" lon="1.55796">
        <ele>34.3</ele>
        <time>2020-06-18T15:42:26Z</time>
      </trkpt>
      <trkpt lat="50.12615" lon="1.55804">
        <ele>34.1</ele>
        <time>2020-06-18T15:42:27Z</time>
      </trkpt>
      <trkpt lat="50.12619" lon="1.55813">
        <ele>33.8</ele>
        <time>2020-06-18T15:42:28Z</time>
      </trkpt>
      <trkpt lat="50.12623" lon="1.55821">
        <ele>33.6</ele>
        <time>2020-06-18T15:42:29Z</time>
      </trkpt>
      <trkpt lat="50.12627" lon="1.5583">
        <ele>33.4</ele>
        <time>2020-06-18T15:42:30Z</time>
      </trkpt>
      <trkpt lat="50.12632" lon="1.55839">
        <ele>33.3</ele>
        <time>2020-06-18T15:42:31Z</time>
      </trkpt>
      <trkpt lat="50.12635" lon="1.55848">
        <ele>33.1</ele>
        <time>2020-06-18T15:42:32Z</time>
      </trkpt>
      <trkpt lat="50.1264" lon="1.55857">
        <ele>33</ele>
        <time>2020-06-18T15:42:33Z</time>
      </trkpt>
      <trkpt lat="50.12644" lon="1.55866">
        <ele>32.8</ele>
        <time>2020-06-18T15:42:34Z</time>
      </trkpt>
      <trkpt lat="50.12648" lon="1.55874">
        <ele>32.6</ele>
        <time>2020-06-18T15:42:35Z</time>
      </trkpt>
      <trkpt lat="50.12652" lon="1.55883">
        <ele>32.5</ele>
        <time>2020-06-18T15:42:36Z</time>
      </trkpt>
      <trkpt lat="50.12657" lon="1.55892">
        <ele>32.3</ele>
        <time>2020-06-18T15:42:37Z</time>
      </trkpt>
      <trkpt lat="50.12661" lon="1.55899">
        <ele>32.2</ele>
        <time>2020-06-18T15:42:38Z</time>
      </trkpt>
      <trkpt lat="50.12665" lon="1.55909">
        <ele>32.1</ele>
        <time>2020-06-18T15:42:39Z</time>
      </trkpt>
      <trkpt lat="50.12669" lon="1.55918">
        <ele>31.9</ele>
        <time>2020-06-18T15:42:40Z</time>
      </trkpt>
      <trkpt lat="50.12673" lon="1.55927">
        <ele>31.8</ele>
        <time>2020-06-18T15:42:41Z</time>
      </trkpt>
      <trkpt lat="50.12677" lon="1.55936">
        <ele>31.7</ele>
        <time>2020-06-18T15:42:42Z</time>
      </trkpt>
      <trkpt lat="50.1268" lon="1.55946">
        <ele>31.5</ele>
        <time>2020-06-18T15:42:43Z</time>
      </trkpt>
      <trkpt lat="50.12684" lon="1.55955">
        <ele>31.4</ele>
        <time>2020-06-18T15:42:44Z</time>
      </trkpt>
      <trkpt lat="50.12689" lon="1.55964">
        <ele>31.3</ele>
        <time>2020-06-18T15:42:45Z</time>
      </trkpt>
      <trkpt lat="50.12692" lon="1.55973">
        <ele>31.2</ele>
        <time>2020-06-18T15:42:46Z</time>
      </trkpt>
      <trkpt lat="50.12696" lon="1.55982">
        <ele>31</ele>
        <time>2020-06-18T15:42:47Z</time>
      </trkpt>
      <trkpt lat="50.127" lon="1.55991">
        <ele>30.9</ele>
        <time>2020-06-18T15:42:48Z</time>
      </trkpt>
      <trkpt lat="50.12703" lon="1.56001">
        <ele>30.8</ele>
        <time>2020-06-18T15:42:49Z</time>
      </trkpt>
      <trkpt lat="50.12706" lon="1.5601">
        <ele>30.7</ele>
        <time>2020-06-18T15:42:50Z</time>
      </trkpt>
      <trkpt lat="50.1271" lon="1.56019">
        <ele>30.6</ele>
        <time>2020-06-18T15:42:51Z</time>
      </trkpt>
      <trkpt lat="50.12712" lon="1.56029">
        <ele>30.5</ele>
        <time>2020-06-18T15:42:52Z</time>
      </trkpt>
      <trkpt lat="50.12714" lon="1.56039">
        <ele>30.5</ele>
        <time>2020-06-18T15:42:53Z</time>
      </trkpt>
      <trkpt lat="50.12716" lon="1.56049">
        <ele>30.4</ele>
        <time>2020-06-18T15:42:54Z</time>
      </trkpt>
      <trkpt lat="50.12716" lon="1.56059">
        <ele>30.4</ele>
        <time>2020-06-18T15:42:55Z</time>
      </trkpt>
      <trkpt lat="50.12717" lon="1.56069">
        <ele>30.2</ele>
        <time>2020-06-18T15:42:56Z</time>
      </trkpt>
      <trkpt lat="50.12718" lon="1.56079">
        <ele>30.3</ele>
        <time>2020-06-18T15:42:57Z</time>
      </trkpt>
      <trkpt lat="50.12717" lon="1.56089">
        <ele>30.3</ele>
        <time>2020-06-18T15:42:58Z</time>
      </trkpt>
      <trkpt lat="50.12717" lon="1.56099">
        <ele>30.3</ele>
        <time>2020-06-18T15:42:59Z</time>
      </trkpt>
      <trkpt lat="50.12717" lon="1.56109">
        <ele>30.3</ele>
        <time>2020-06-18T15:43:00Z</time>
      </trkpt>
      <trkpt lat="50.12717" lon="1.56118">
        <ele>30.2</ele>
        <time>2020-06-18T15:43:01Z</time>
      </trkpt>
      <trkpt lat="50.12716" lon="1.56128">
        <ele>30.2</ele>
        <time>2020-06-18T15:43:02Z</time>
      </trkpt>
      <trkpt lat="50.12716" lon="1.56137">
        <ele>30.2</ele>
        <time>2020-06-18T15:43:03Z</time>
      </trkpt>
      <trkpt lat="50.12715" lon="1.56146">
        <ele>30.2</ele>
        <time>2020-06-18T15:43:04Z</time>
      </trkpt>
      <trkpt lat="50.12715" lon="1.56156">
        <ele>30.2</ele>
        <time>2020-06-18T15:43:05Z</time>
      </trkpt>
      <trkpt lat="50.12715" lon="1.56165">
        <ele>30.2</ele>
        <time>2020-06-18T15:43:06Z</time>
      </trkpt>
      <trkpt lat="50.12715" lon="1.56174">
        <ele>30.2</ele>
        <time>2020-06-18T15:43:07Z</time>
      </trkpt>
      <trkpt lat="50.12715" lon="1.56183">
        <ele>30.2</ele>
        <time>2020-06-18T15:43:08Z</time>
      </trkpt>
      <trkpt lat="50.12716" lon="1.56191">
        <ele>30.2</ele>
        <time>2020-06-18T15:43:09Z</time>
      </trkpt>
      <trkpt lat="50.12718" lon="1.56199">
        <ele>30.2</ele>
        <time>2020-06-18T15:43:10Z</time>
      </trkpt>
      <trkpt lat="50.12721" lon="1.56206">
        <ele>30.1</ele>
        <time>2020-06-18T15:43:11Z</time>
      </trkpt>
      <trkpt lat="50.12725" lon="1.56212">
        <ele>30.1</ele>
        <time>2020-06-18T15:43:12Z</time>
      </trkpt>
      <trkpt lat="50.1273" lon="1.56218">
        <ele>30.1</ele>
        <time>2020-06-18T15:43:13Z</time>
      </trkpt>
      <trkpt lat="50.12736" lon="1.56223">
        <ele>30.2</ele>
        <time>2020-06-18T15:43:14Z</time>
      </trkpt>
      <trkpt lat="50.12741" lon="1.56228">
        <ele>30.2</ele>
        <time>2020-06-18T15:43:15Z</time>
      </trkpt>
      <trkpt lat="50.12746" lon="1.56233">
        <ele>30.3</ele>
        <time>2020-06-18T15:43:16Z</time>
      </trkpt>
      <trkpt lat="50.12752" lon="1.56239">
        <ele>30.4</ele>
        <time>2020-06-18T15:43:17Z</time>
      </trkpt>
      <trkpt lat="50.12757" lon="1.56244">
        <ele>30.5</ele>
        <time>2020-06-18T15:43:18Z</time>
      </trkpt>
      <trkpt lat="50.12763" lon="1.56249">
        <ele>30.6</ele>
        <time>2020-06-18T15:43:19Z</time>
      </trkpt>
      <trkpt lat="50.12768" lon="1.56256">
        <ele>30.7</ele>
        <time>2020-06-18T15:43:20Z</time>
      </trkpt>
      <trkpt lat="50.12773" lon="1.56261">
        <ele>30.9</ele>
        <time>2020-06-18T15:43:21Z</time>
      </trkpt>
      <trkpt lat="50.12777" lon="1.56268">
        <ele>31</ele>
        <time>2020-06-18T15:43:22Z</time>
      </trkpt>
      <trkpt lat="50.12783" lon="1.56273">
        <ele>31.1</ele>
        <time>2020-06-18T15:43:23Z</time>
      </trkpt>
      <trkpt lat="50.12788" lon="1.56279">
        <ele>31.2</ele>
        <time>2020-06-18T15:43:24Z</time>
      </trkpt>
      <trkpt lat="50.12793" lon="1.56286">
        <ele>31.4</ele>
        <time>2020-06-18T15:43:25Z</time>
      </trkpt>
      <trkpt lat="50.12798" lon="1.56293">
        <ele>31.5</ele>
        <time>2020-06-18T15:43:26Z</time>
      </trkpt>
      <trkpt lat="50.12802" lon="1.563">
        <ele>31.7</ele>
        <time>2020-06-18T15:43:27Z</time>
      </trkpt>
      <trkpt lat="50.12807" lon="1.56307">
        <ele>31.9</ele>
        <time>2020-06-18T15:43:28Z</time>
      </trkpt>
      <trkpt lat="50.12811" lon="1.56314">
        <ele>32.1</ele>
        <time>2020-06-18T15:43:29Z</time>
      </trkpt>
      <trkpt lat="50.12815" lon="1.56321">
        <ele>32.3</ele>
        <time>2020-06-18T15:43:30Z</time>
      </trkpt>
      <trkpt lat="50.1282" lon="1.56328">
        <ele>32.6</ele>
        <time>2020-06-18T15:43:31Z</time>
      </trkpt>
      <trkpt lat="50.12825" lon="1.56333">
        <ele>32.8</ele>
        <time>2020-06-18T15:43:32Z</time>
      </trkpt>
      <trkpt lat="50.12829" lon="1.56339">
        <ele>33.1</ele>
        <time>2020-06-18T15:43:33Z</time>
      </trkpt>
      <trkpt lat="50.12834" lon="1.56345">
        <ele>33.3</ele>
        <time>2020-06-18T15:43:34Z</time>
      </trkpt>
      <trkpt lat="50.12838" lon="1.5635">
        <ele>33.6</ele>
        <time>2020-06-18T15:43:35Z</time>
      </trkpt>
      <trkpt lat="50.12842" lon="1.56355">
        <ele>33.8</ele>
        <time>2020-06-18T15:43:36Z</time>
      </trkpt>
      <trkpt lat="50.12845" lon="1.5636">
        <ele>34.1</ele>
        <time>2020-06-18T15:43:37Z</time>
      </trkpt>
      <trkpt lat="50.12849" lon="1.56364">
        <ele>34.3</ele>
        <time>2020-06-18T15:43:38Z</time>
      </trkpt>
      <trkpt lat="50.12852" lon="1.56369">
        <ele>34.5</ele>
        <time>2020-06-18T15:43:39Z</time>
      </trkpt>
      <trkpt lat="50.12856" lon="1.56373">
        <ele>34.8</ele>
        <time>2020-06-18T15:43:40Z</time>
      </trkpt>
      <trkpt lat="50.12861" lon="1.56381">
        <ele>35.2</ele>
        <time>2020-06-18T15:43:41Z</time>
      </trkpt>
      <trkpt lat="50.12864" lon="1.56385">
        <ele>35.4</ele>
        <time>2020-06-18T15:43:42Z</time>
      </trkpt>
      <trkpt lat="50.12867" lon="1.56389">
        <ele>35.6</ele>
        <time>2020-06-18T15:43:43Z</time>
      </trkpt>
      <trkpt lat="50.12871" lon="1.56394">
        <ele>35.9</ele>
        <time>2020-06-18T15:43:44Z</time>
      </trkpt>
      <trkpt lat="50.12874" lon="1.56398">
        <ele>36.1</ele>
        <time>2020-06-18T15:43:45Z</time>
      </trkpt>
      <trkpt lat="50.12876" lon="1.56402">
        <ele>36.3</ele>
        <time>2020-06-18T15:43:46Z</time>
      </trkpt>
      <trkpt lat="50.1288" lon="1.56407">
        <ele>36.6</ele>
        <time>2020-06-18T15:43:47Z</time>
      </trkpt>
      <trkpt lat="50.12884" lon="1.56412">
        <ele>36.9</ele>
        <time>2020-06-18T15:43:48Z</time>
      </trkpt>
      <trkpt lat="50.12887" lon="1.56416">
        <ele>37.1</ele>
        <time>2020-06-18T15:43:49Z</time>
      </trkpt>
      <trkpt lat="50.12891" lon="1.5642">
        <ele>37.5</ele>
        <time>2020-06-18T15:43:50Z</time>
      </trkpt>
      <trkpt lat="50.12895" lon="1.56424">
        <ele>37.8</ele>
        <time>2020-06-18T15:43:51Z</time>
      </trkpt>
      <trkpt lat="50.12899" lon="1.56428">
        <ele>38.1</ele>
        <time>2020-06-18T15:43:52Z</time>
      </trkpt>
      <trkpt lat="50.12902" lon="1.56431">
        <ele>38.3</ele>
        <time>2020-06-18T15:43:53Z</time>
      </trkpt>
      <trkpt lat="50.12904" lon="1.56434">
        <ele>38.5</ele>
        <time>2020-06-18T15:43:54Z</time>
      </trkpt>
      <trkpt lat="50.12906" lon="1.56438">
        <ele>38.6</ele>
        <time>2020-06-18T15:43:55Z</time>
      </trkpt>
      <trkpt lat="50.12907" lon="1.56438">
        <ele>38.7</ele>
        <time>2020-06-18T15:43:56Z</time>
      </trkpt>
      <trkpt lat="50.1291" lon="1.5644">
        <ele>39.1</ele>
        <time>2020-06-18T15:43:57Z</time>
      </trkpt>
      <trkpt lat="50.1291" lon="1.56441">
        <ele>39.2</ele>
        <time>2020-06-18T15:43:58Z</time>
      </trkpt>
      <trkpt lat="50.12911" lon="1.56441">
        <ele>39.3</ele>
        <time>2020-06-18T15:43:59Z</time>
      </trkpt>
      <trkpt lat="50.12912" lon="1.56444">
        <ele>39.4</ele>
        <time>2020-06-18T15:44:00Z</time>
      </trkpt>
      <trkpt lat="50.12913" lon="1.56446">
        <ele>39.6</ele>
        <time>2020-06-18T15:44:01Z</time>
      </trkpt>
      <trkpt lat="50.12913" lon="1.56449">
        <ele>39.7</ele>
        <time>2020-06-18T15:44:02Z</time>
      </trkpt>
      <trkpt lat="50.12914" lon="1.56454">
        <ele>40</ele>
        <time>2020-06-18T15:44:03Z</time>
      </trkpt>
      <trkpt lat="50.12915" lon="1.56456">
        <ele>40.1</ele>
        <time>2020-06-18T15:44:04Z</time>
      </trkpt>
      <trkpt lat="50.12917" lon="1.56461">
        <ele>40.4</ele>
        <time>2020-06-18T15:44:05Z</time>
      </trkpt>
      <trkpt lat="50.12919" lon="1.56465">
        <ele>40.6</ele>
        <time>2020-06-18T15:44:06Z</time>
      </trkpt>
      <trkpt lat="50.1292" lon="1.5647">
        <ele>40.9</ele>
        <time>2020-06-18T15:44:07Z</time>
      </trkpt>
      <trkpt lat="50.12921" lon="1.56475">
        <ele>41.1</ele>
        <time>2020-06-18T15:44:08Z</time>
      </trkpt>
      <trkpt lat="50.12924" lon="1.5648">
        <ele>41.4</ele>
        <time>2020-06-18T15:44:09Z</time>
      </trkpt>
      <trkpt lat="50.12926" lon="1.56486">
        <ele>41.8</ele>
        <time>2020-06-18T15:44:10Z</time>
      </trkpt>
      <trkpt lat="50.12927" lon="1.5649">
        <ele>42</ele>
        <time>2020-06-18T15:44:11Z</time>
      </trkpt>
      <trkpt lat="50.12929" lon="1.56494">
        <ele>42.3</ele>
        <time>2020-06-18T15:44:12Z</time>
      </trkpt>
      <trkpt lat="50.12931" lon="1.56497">
        <ele>42.5</ele>
        <time>2020-06-18T15:44:13Z</time>
      </trkpt>
      <trkpt lat="50.12933" lon="1.56502">
        <ele>42.8</ele>
        <time>2020-06-18T15:44:14Z</time>
      </trkpt>
      <trkpt lat="50.12934" lon="1.56507">
        <ele>43.1</ele>
        <time>2020-06-18T15:44:15Z</time>
      </trkpt>
      <trkpt lat="50.12935" lon="1.56512">
        <ele>43.3</ele>
        <time>2020-06-18T15:44:16Z</time>
      </trkpt>
      <trkpt lat="50.12936" lon="1.56517">
        <ele>43.6</ele>
        <time>2020-06-18T15:44:17Z</time>
      </trkpt>
      <trkpt lat="50.12939" lon="1.56522">
        <ele>43.9</ele>
        <time>2020-06-18T15:44:18Z</time>
      </trkpt>
      <trkpt lat="50.1294" lon="1.56525">
        <ele>44</ele>
        <time>2020-06-18T15:44:19Z</time>
      </trkpt>
      <trkpt lat="50.12941" lon="1.56529">
        <ele>44.3</ele>
        <time>2020-06-18T15:44:20Z</time>
      </trkpt>
      <trkpt lat="50.12943" lon="1.56532">
        <ele>44.5</ele>
        <time>2020-06-18T15:44:21Z</time>
      </trkpt>
      <trkpt lat="50.12945" lon="1.56537">
        <ele>44.8</ele>
        <time>2020-06-18T15:44:22Z</time>
      </trkpt>
      <trkpt lat="50.12948" lon="1.56542">
        <ele>45.1</ele>
        <time>2020-06-18T15:44:23Z</time>
      </trkpt>
      <trkpt lat="50.12948" lon="1.56546">
        <ele>45.3</ele>
        <time>2020-06-18T15:44:24Z</time>
      </trkpt>
      <trkpt lat="50.12948" lon="1.56551">
        <ele>45.5</ele>
        <time>2020-06-18T15:44:25Z</time>
      </trkpt>
      <trkpt lat="50.12949" lon="1.56554">
        <ele>45.6</ele>
        <time>2020-06-18T15:44:26Z</time>
      </trkpt>
      <trkpt lat="50.1295" lon="1.56561">
        <ele>45.9</ele>
        <time>2020-06-18T15:44:27Z</time>
      </trkpt>
      <trkpt lat="50.1295" lon="1.56564">
        <ele>46</ele>
        <time>2020-06-18T15:44:28Z</time>
      </trkpt>
      <trkpt lat="50.12951" lon="1.56568">
        <ele>46.1</ele>
        <time>2020-06-18T15:44:29Z</time>
      </trkpt>
      <trkpt lat="50.12952" lon="1.56574">
        <ele>46.4</ele>
        <time>2020-06-18T15:44:30Z</time>
      </trkpt>
      <trkpt lat="50.12952" lon="1.56578">
        <ele>46.6</ele>
        <time>2020-06-18T15:44:31Z</time>
      </trkpt>
      <trkpt lat="50.12952" lon="1.56579">
        <ele>46.7</ele>
        <time>2020-06-18T15:44:32Z</time>
      </trkpt>
      <trkpt lat="50.12955" lon="1.56583">
        <ele>47</ele>
        <time>2020-06-18T15:44:33Z</time>
      </trkpt>
      <trkpt lat="50.12956" lon="1.56585">
        <ele>47.1</ele>
        <time>2020-06-18T15:44:34Z</time>
      </trkpt>
      <trkpt lat="50.12958" lon="1.56588">
        <ele>47.3</ele>
        <time>2020-06-18T15:44:35Z</time>
      </trkpt>
      <trkpt lat="50.1296" lon="1.56592">
        <ele>47.4</ele>
        <time>2020-06-18T15:44:36Z</time>
      </trkpt>
      <trkpt lat="50.12963" lon="1.56598">
        <ele>47.7</ele>
        <time>2020-06-18T15:44:37Z</time>
      </trkpt>
      <trkpt lat="50.12964" lon="1.566">
        <ele>47.8</ele>
        <time>2020-06-18T15:44:38Z</time>
      </trkpt>
      <trkpt lat="50.12966" lon="1.56605">
        <ele>47.9</ele>
        <time>2020-06-18T15:44:39Z</time>
      </trkpt>
      <trkpt lat="50.12968" lon="1.56609">
        <ele>48.1</ele>
        <time>2020-06-18T15:44:40Z</time>
      </trkpt>
      <trkpt lat="50.12971" lon="1.56614">
        <ele>48.2</ele>
        <time>2020-06-18T15:44:41Z</time>
      </trkpt>
      <trkpt lat="50.12973" lon="1.56618">
        <ele>48.3</ele>
        <time>2020-06-18T15:44:42Z</time>
      </trkpt>
      <trkpt lat="50.12974" lon="1.56622">
        <ele>48.5</ele>
        <time>2020-06-18T15:44:43Z</time>
      </trkpt>
      <trkpt lat="50.12977" lon="1.56628">
        <ele>48.6</ele>
        <time>2020-06-18T15:44:44Z</time>
      </trkpt>
      <trkpt lat="50.12979" lon="1.56634">
        <ele>48.8</ele>
        <time>2020-06-18T15:44:45Z</time>
      </trkpt>
      <trkpt lat="50.12981" lon="1.56638">
        <ele>48.9</ele>
        <time>2020-06-18T15:44:46Z</time>
      </trkpt>
      <trkpt lat="50.12984" lon="1.56643">
        <ele>49</ele>
        <time>2020-06-18T15:44:47Z</time>
      </trkpt>
      <trkpt lat="50.12987" lon="1.56648">
        <ele>49.1</ele>
        <time>2020-06-18T15:44:48Z</time>
      </trkpt>
      <trkpt lat="50.1299" lon="1.56654">
        <ele>49.2</ele>
        <time>2020-06-18T15:44:49Z</time>
      </trkpt>
      <trkpt lat="50.12994" lon="1.5666">
        <ele>49.3</ele>
        <time>2020-06-18T15:44:50Z</time>
      </trkpt>
      <trkpt lat="50.12996" lon="1.56664">
        <ele>49.4</ele>
        <time>2020-06-18T15:44:51Z</time>
      </trkpt>
      <trkpt lat="50.12999" lon="1.5667">
        <ele>49.5</ele>
        <time>2020-06-18T15:44:52Z</time>
      </trkpt>
      <trkpt lat="50.13002" lon="1.56676">
        <ele>49.5</ele>
        <time>2020-06-18T15:44:53Z</time>
      </trkpt>
      <trkpt lat="50.13004" lon="1.56681">
        <ele>49.6</ele>
        <time>2020-06-18T15:44:54Z</time>
      </trkpt>
      <trkpt lat="50.13007" lon="1.56686">
        <ele>49.7</ele>
        <time>2020-06-18T15:44:55Z</time>
      </trkpt>
      <trkpt lat="50.13009" lon="1.5669">
        <ele>49.7</ele>
        <time>2020-06-18T15:44:56Z</time>
      </trkpt>
      <trkpt lat="50.13012" lon="1.56694">
        <ele>49.8</ele>
        <time>2020-06-18T15:44:57Z</time>
      </trkpt>
      <trkpt lat="50.13014" lon="1.56699">
        <ele>49.8</ele>
        <time>2020-06-18T15:44:58Z</time>
      </trkpt>
      <trkpt lat="50.13018" lon="1.56704">
        <ele>49.9</ele>
        <time>2020-06-18T15:44:59Z</time>
      </trkpt>
      <trkpt lat="50.13021" lon="1.5671">
        <ele>49.9</ele>
        <time>2020-06-18T15:45:00Z</time>
      </trkpt>
      <trkpt lat="50.13023" lon="1.56714">
        <ele>50</ele>
        <time>2020-06-18T15:45:01Z</time>
      </trkpt>
      <trkpt lat="50.13027" lon="1.5672">
        <ele>50</ele>
        <time>2020-06-18T15:45:02Z</time>
      </trkpt>
      <trkpt lat="50.13031" lon="1.56725">
        <ele>50.1</ele>
        <time>2020-06-18T15:45:03Z</time>
      </trkpt>
      <trkpt lat="50.13034" lon="1.56729">
        <ele>50.1</ele>
        <time>2020-06-18T15:45:04Z</time>
      </trkpt>
      <trkpt lat="50.13038" lon="1.56734">
        <ele>50.1</ele>
        <time>2020-06-18T15:45:05Z</time>
      </trkpt>
      <trkpt lat="50.13041" lon="1.56738">
        <ele>50.1</ele>
        <time>2020-06-18T15:45:06Z</time>
      </trkpt>
      <trkpt lat="50.13046" lon="1.56745">
        <ele>50.2</ele>
        <time>2020-06-18T15:45:07Z</time>
      </trkpt>
      <trkpt lat="50.1305" lon="1.5675">
        <ele>50.2</ele>
        <time>2020-06-18T15:45:08Z</time>
      </trkpt>
      <trkpt lat="50.13054" lon="1.56753">
        <ele>50.1</ele>
        <time>2020-06-18T15:45:09Z</time>
      </trkpt>
      <trkpt lat="50.13057" lon="1.56758">
        <ele>50.1</ele>
        <time>2020-06-18T15:45:10Z</time>
      </trkpt>
      <trkpt lat="50.13062" lon="1.56765">
        <ele>50.1</ele>
        <time>2020-06-18T15:45:11Z</time>
      </trkpt>
      <trkpt lat="50.13066" lon="1.56771">
        <ele>50.1</ele>
        <time>2020-06-18T15:45:12Z</time>
      </trkpt>
      <trkpt lat="50.13071" lon="1.56779">
        <ele>50.1</ele>
        <time>2020-06-18T15:45:13Z</time>
      </trkpt>
      <trkpt lat="50.13076" lon="1.56785">
        <ele>50</ele>
        <time>2020-06-18T15:45:14Z</time>
      </trkpt>
      <trkpt lat="50.13079" lon="1.56791">
        <ele>50</ele>
        <time>2020-06-18T15:45:15Z</time>
      </trkpt>
      <trkpt lat="50.13083" lon="1.56795">
        <ele>50</ele>
        <time>2020-06-18T15:45:16Z</time>
      </trkpt>
      <trkpt lat="50.13087" lon="1.56799">
        <ele>50</ele>
        <time>2020-06-18T15:45:17Z</time>
      </trkpt>
      <trkpt lat="50.13091" lon="1.56803">
        <ele>49.9</ele>
        <time>2020-06-18T15:45:18Z</time>
      </trkpt>
      <trkpt lat="50.13096" lon="1.56808">
        <ele>49.9</ele>
        <time>2020-06-18T15:45:19Z</time>
      </trkpt>
      <trkpt lat="50.13102" lon="1.5681">
        <ele>49.9</ele>
        <time>2020-06-18T15:45:20Z</time>
      </trkpt>
      <trkpt lat="50.13107" lon="1.56812">
        <ele>49.9</ele>
        <time>2020-06-18T15:45:21Z</time>
      </trkpt>
      <trkpt lat="50.13113" lon="1.56815">
        <ele>49.8</ele>
        <time>2020-06-18T15:45:22Z</time>
      </trkpt>
      <trkpt lat="50.13119" lon="1.56817">
        <ele>49.8</ele>
        <time>2020-06-18T15:45:23Z</time>
      </trkpt>
      <trkpt lat="50.13123" lon="1.56819">
        <ele>49.8</ele>
        <time>2020-06-18T15:45:24Z</time>
      </trkpt>
      <trkpt lat="50.1313" lon="1.56822">
        <ele>49.7</ele>
        <time>2020-06-18T15:45:25Z</time>
      </trkpt>
      <trkpt lat="50.13136" lon="1.56825">
        <ele>49.6</ele>
        <time>2020-06-18T15:45:26Z</time>
      </trkpt>
      <trkpt lat="50.13143" lon="1.56827">
        <ele>49.6</ele>
        <time>2020-06-18T15:45:27Z</time>
      </trkpt>
      <trkpt lat="50.13149" lon="1.56828">
        <ele>49.5</ele>
        <time>2020-06-18T15:45:28Z</time>
      </trkpt>
      <trkpt lat="50.13155" lon="1.56831">
        <ele>49.5</ele>
        <time>2020-06-18T15:45:29Z</time>
      </trkpt>
      <trkpt lat="50.13162" lon="1.56832">
        <ele>49.4</ele>
        <time>2020-06-18T15:45:30Z</time>
      </trkpt>
      <trkpt lat="50.13169" lon="1.56833">
        <ele>49.3</ele>
        <time>2020-06-18T15:45:31Z</time>
      </trkpt>
      <trkpt lat="50.13175" lon="1.56833">
        <ele>49.2</ele>
        <time>2020-06-18T15:45:32Z</time>
      </trkpt>
      <trkpt lat="50.13182" lon="1.56833">
        <ele>49.1</ele>
        <time>2020-06-18T15:45:33Z</time>
      </trkpt>
      <trkpt lat="50.13189" lon="1.56833">
        <ele>49.1</ele>
        <time>2020-06-18T15:45:34Z</time>
      </trkpt>
      <trkpt lat="50.13195" lon="1.56832">
        <ele>49</ele>
        <time>2020-06-18T15:45:35Z</time>
      </trkpt>
      <trkpt lat="50.13201" lon="1.56832">
        <ele>48.9</ele>
        <time>2020-06-18T15:45:36Z</time>
      </trkpt>
      <trkpt lat="50.13207" lon="1.56832">
        <ele>48.9</ele>
        <time>2020-06-18T15:45:37Z</time>
      </trkpt>
      <trkpt lat="50.13213" lon="1.56834">
        <ele>48.8</ele>
        <time>2020-06-18T15:45:38Z</time>
      </trkpt>
      <trkpt lat="50.13218" lon="1.56835">
        <ele>48.8</ele>
        <time>2020-06-18T15:45:39Z</time>
      </trkpt>
      <trkpt lat="50.13223" lon="1.56835">
        <ele>48.7</ele>
        <time>2020-06-18T15:45:40Z</time>
      </trkpt>
      <trkpt lat="50.13228" lon="1.56837">
        <ele>48.7</ele>
        <time>2020-06-18T15:45:41Z</time>
      </trkpt>
      <trkpt lat="50.13234" lon="1.56839">
        <ele>48.6</ele>
        <time>2020-06-18T15:45:42Z</time>
      </trkpt>
      <trkpt lat="50.1324" lon="1.56842">
        <ele>48.6</ele>
        <time>2020-06-18T15:45:43Z</time>
      </trkpt>
      <trkpt lat="50.13245" lon="1.56844">
        <ele>48.5</ele>
        <time>2020-06-18T15:45:44Z</time>
      </trkpt>
      <trkpt lat="50.1325" lon="1.56848">
        <ele>48.5</ele>
        <time>2020-06-18T15:45:45Z</time>
      </trkpt>
      <trkpt lat="50.13255" lon="1.56854">
        <ele>48.4</ele>
        <time>2020-06-18T15:45:46Z</time>
      </trkpt>
      <trkpt lat="50.13259" lon="1.56859">
        <ele>48.4</ele>
        <time>2020-06-18T15:45:47Z</time>
      </trkpt>
      <trkpt lat="50.13263" lon="1.56863">
        <ele>48.3</ele>
        <time>2020-06-18T15:45:48Z</time>
      </trkpt>
      <trkpt lat="50.13267" lon="1.56869">
        <ele>48.2</ele>
        <time>2020-06-18T15:45:49Z</time>
      </trkpt>
      <trkpt lat="50.13271" lon="1.56873">
        <ele>48.1</ele>
        <time>2020-06-18T15:45:50Z</time>
      </trkpt>
      <trkpt lat="50.13276" lon="1.56879">
        <ele>48.1</ele>
        <time>2020-06-18T15:45:51Z</time>
      </trkpt>
      <trkpt lat="50.1328" lon="1.56884">
        <ele>48</ele>
        <time>2020-06-18T15:45:52Z</time>
      </trkpt>
      <trkpt lat="50.13283" lon="1.56892">
        <ele>48</ele>
        <time>2020-06-18T15:45:53Z</time>
      </trkpt>
      <trkpt lat="50.13286" lon="1.56899">
        <ele>48</ele>
        <time>2020-06-18T15:45:54Z</time>
      </trkpt>
      <trkpt lat="50.13289" lon="1.56907">
        <ele>47.9</ele>
        <time>2020-06-18T15:45:55Z</time>
      </trkpt>
      <trkpt lat="50.13293" lon="1.56915">
        <ele>47.9</ele>
        <time>2020-06-18T15:45:56Z</time>
      </trkpt>
      <trkpt lat="50.13297" lon="1.56923">
        <ele>47.8</ele>
        <time>2020-06-18T15:45:57Z</time>
      </trkpt>
      <trkpt lat="50.13301" lon="1.56932">
        <ele>47.8</ele>
        <time>2020-06-18T15:45:58Z</time>
      </trkpt>
      <trkpt lat="50.13304" lon="1.56939">
        <ele>47.8</ele>
        <time>2020-06-18T15:45:59Z</time>
      </trkpt>
      <trkpt lat="50.13309" lon="1.56947">
        <ele>47.7</ele>
        <time>2020-06-18T15:46:00Z</time>
      </trkpt>
      <trkpt lat="50.13313" lon="1.56954">
        <ele>47.7</ele>
        <time>2020-06-18T15:46:01Z</time>
      </trkpt>
      <trkpt lat="50.13318" lon="1.56961">
        <ele>47.7</ele>
        <time>2020-06-18T15:46:02Z</time>
      </trkpt>
      <trkpt lat="50.13322" lon="1.56968">
        <ele>47.6</ele>
        <time>2020-06-18T15:46:03Z</time>
      </trkpt>
      <trkpt lat="50.13326" lon="1.56975">
        <ele>47.6</ele>
        <time>2020-06-18T15:46:04Z</time>
      </trkpt>
      <trkpt lat="50.1333" lon="1.56983">
        <ele>47.6</ele>
        <time>2020-06-18T15:46:05Z</time>
      </trkpt>
      <trkpt lat="50.13334" lon="1.56992">
        <ele>47.6</ele>
        <time>2020-06-18T15:46:06Z</time>
      </trkpt>
      <trkpt lat="50.13338" lon="1.56999">
        <ele>47.5</ele>
        <time>2020-06-18T15:46:07Z</time>
      </trkpt>
      <trkpt lat="50.13342" lon="1.57007">
        <ele>47.5</ele>
        <time>2020-06-18T15:46:08Z</time>
      </trkpt>
      <trkpt lat="50.13347" lon="1.57014">
        <ele>47.4</ele>
        <time>2020-06-18T15:46:09Z</time>
      </trkpt>
      <trkpt lat="50.13351" lon="1.57022">
        <ele>47.4</ele>
        <time>2020-06-18T15:46:10Z</time>
      </trkpt>
      <trkpt lat="50.13355" lon="1.5703">
        <ele>47.3</ele>
        <time>2020-06-18T15:46:11Z</time>
      </trkpt>
      <trkpt lat="50.13359" lon="1.57037">
        <ele>47.3</ele>
        <time>2020-06-18T15:46:12Z</time>
      </trkpt>
      <trkpt lat="50.13363" lon="1.57043">
        <ele>47.2</ele>
        <time>2020-06-18T15:46:13Z</time>
      </trkpt>
      <trkpt lat="50.13367" lon="1.5705">
        <ele>47.2</ele>
        <time>2020-06-18T15:46:14Z</time>
      </trkpt>
      <trkpt lat="50.1337" lon="1.57055">
        <ele>47.1</ele>
        <time>2020-06-18T15:46:15Z</time>
      </trkpt>
      <trkpt lat="50.13374" lon="1.57061">
        <ele>47.1</ele>
        <time>2020-06-18T15:46:16Z</time>
      </trkpt>
      <trkpt lat="50.13379" lon="1.57068">
        <ele>47</ele>
        <time>2020-06-18T15:46:17Z</time>
      </trkpt>
      <trkpt lat="50.13383" lon="1.57075">
        <ele>47</ele>
        <time>2020-06-18T15:46:18Z</time>
      </trkpt>
      <trkpt lat="50.13388" lon="1.57082">
        <ele>46.9</ele>
        <time>2020-06-18T15:46:19Z</time>
      </trkpt>
      <trkpt lat="50.13392" lon="1.57088">
        <ele>46.9</ele>
        <time>2020-06-18T15:46:20Z</time>
      </trkpt>
      <trkpt lat="50.13397" lon="1.57094">
        <ele>46.8</ele>
        <time>2020-06-18T15:46:21Z</time>
      </trkpt>
      <trkpt lat="50.13401" lon="1.57099">
        <ele>46.7</ele>
        <time>2020-06-18T15:46:22Z</time>
      </trkpt>
      <trkpt lat="50.13406" lon="1.57105">
        <ele>46.7</ele>
        <time>2020-06-18T15:46:23Z</time>
      </trkpt>
      <trkpt lat="50.13412" lon="1.57111">
        <ele>46.6</ele>
        <time>2020-06-18T15:46:24Z</time>
      </trkpt>
      <trkpt lat="50.13417" lon="1.57116">
        <ele>46.5</ele>
        <time>2020-06-18T15:46:25Z</time>
      </trkpt>
      <trkpt lat="50.13422" lon="1.57122">
        <ele>46.4</ele>
        <time>2020-06-18T15:46:26Z</time>
      </trkpt>
      <trkpt lat="50.13427" lon="1.57128">
        <ele>46.3</ele>
        <time>2020-06-18T15:46:27Z</time>
      </trkpt>
      <trkpt lat="50.13433" lon="1.57134">
        <ele>46.2</ele>
        <time>2020-06-18T15:46:28Z</time>
      </trkpt>
      <trkpt lat="50.13439" lon="1.57141">
        <ele>46.1</ele>
        <time>2020-06-18T15:46:29Z</time>
      </trkpt>
      <trkpt lat="50.13445" lon="1.57147">
        <ele>46</ele>
        <time>2020-06-18T15:46:30Z</time>
      </trkpt>
      <trkpt lat="50.13451" lon="1.57153">
        <ele>45.9</ele>
        <time>2020-06-18T15:46:31Z</time>
      </trkpt>
      <trkpt lat="50.13457" lon="1.57159">
        <ele>45.8</ele>
        <time>2020-06-18T15:46:32Z</time>
      </trkpt>
      <trkpt lat="50.13462" lon="1.57165">
        <ele>45.8</ele>
        <time>2020-06-18T15:46:33Z</time>
      </trkpt>
      <trkpt lat="50.13467" lon="1.5717">
        <ele>45.7</ele>
        <time>2020-06-18T15:46:34Z</time>
      </trkpt>
      <trkpt lat="50.13473" lon="1.57177">
        <ele>45.6</ele>
        <time>2020-06-18T15:46:35Z</time>
      </trkpt>
      <trkpt lat="50.13479" lon="1.57182">
        <ele>45.5</ele>
        <time>2020-06-18T15:46:36Z</time>
      </trkpt>
      <trkpt lat="50.13485" lon="1.57188">
        <ele>45.4</ele>
        <time>2020-06-18T15:46:37Z</time>
      </trkpt>
      <trkpt lat="50.1349" lon="1.57194">
        <ele>45.3</ele>
        <time>2020-06-18T15:46:38Z</time>
      </trkpt>
      <trkpt lat="50.13496" lon="1.572">
        <ele>45.2</ele>
        <time>2020-06-18T15:46:39Z</time>
      </trkpt>
      <trkpt lat="50.13502" lon="1.57206">
        <ele>45.1</ele>
        <time>2020-06-18T15:46:40Z</time>
      </trkpt>
      <trkpt lat="50.13507" lon="1.57213">
        <ele>45</ele>
        <time>2020-06-18T15:46:41Z</time>
      </trkpt>
      <trkpt lat="50.13513" lon="1.57219">
        <ele>44.9</ele>
        <time>2020-06-18T15:46:42Z</time>
      </trkpt>
      <trkpt lat="50.13518" lon="1.57226">
        <ele>44.7</ele>
        <time>2020-06-18T15:46:43Z</time>
      </trkpt>
      <trkpt lat="50.13524" lon="1.57232">
        <ele>44.6</ele>
        <time>2020-06-18T15:46:44Z</time>
      </trkpt>
      <trkpt lat="50.13529" lon="1.57239">
        <ele>44.5</ele>
        <time>2020-06-18T15:46:45Z</time>
      </trkpt>
      <trkpt lat="50.13535" lon="1.57246">
        <ele>44.4</ele>
        <time>2020-06-18T15:46:46Z</time>
      </trkpt>
      <trkpt lat="50.1354" lon="1.57252">
        <ele>44.3</ele>
        <time>2020-06-18T15:46:47Z</time>
      </trkpt>
      <trkpt lat="50.13546" lon="1.57259">
        <ele>44.2</ele>
        <time>2020-06-18T15:46:48Z</time>
      </trkpt>
      <trkpt lat="50.13552" lon="1.57266">
        <ele>44.1</ele>
        <time>2020-06-18T15:46:49Z</time>
      </trkpt>
      <trkpt lat="50.13557" lon="1.57273">
        <ele>44</ele>
        <time>2020-06-18T15:46:50Z</time>
      </trkpt>
      <trkpt lat="50.13563" lon="1.57279">
        <ele>43.8</ele>
        <time>2020-06-18T15:46:51Z</time>
      </trkpt>
      <trkpt lat="50.13568" lon="1.57287">
        <ele>43.7</ele>
        <time>2020-06-18T15:46:52Z</time>
      </trkpt>
      <trkpt lat="50.13573" lon="1.57294">
        <ele>43.7</ele>
        <time>2020-06-18T15:46:53Z</time>
      </trkpt>
      <trkpt lat="50.13578" lon="1.57301">
        <ele>43.6</ele>
        <time>2020-06-18T15:46:54Z</time>
      </trkpt>
      <trkpt lat="50.13583" lon="1.57309">
        <ele>43.5</ele>
        <time>2020-06-18T15:46:55Z</time>
      </trkpt>
      <trkpt lat="50.13588" lon="1.57317">
        <ele>43.5</ele>
        <time>2020-06-18T15:46:56Z</time>
      </trkpt>
      <trkpt lat="50.13592" lon="1.57325">
        <ele>43.4</ele>
        <time>2020-06-18T15:46:57Z</time>
      </trkpt>
      <trkpt lat="50.13597" lon="1.57334">
        <ele>43.3</ele>
        <time>2020-06-18T15:46:58Z</time>
      </trkpt>
      <trkpt lat="50.13601" lon="1.57343">
        <ele>42.9</ele>
        <time>2020-06-18T15:46:59Z</time>
      </trkpt>
      <trkpt lat="50.13606" lon="1.57351">
        <ele>42.1</ele>
        <time>2020-06-18T15:47:00Z</time>
      </trkpt>
      <trkpt lat="50.1361" lon="1.5736">
        <ele>41.9</ele>
        <time>2020-06-18T15:47:01Z</time>
      </trkpt>
      <trkpt lat="50.13614" lon="1.5737">
        <ele>41.8</ele>
        <time>2020-06-18T15:47:02Z</time>
      </trkpt>
      <trkpt lat="50.13617" lon="1.57381">
        <ele>41.7</ele>
        <time>2020-06-18T15:47:03Z</time>
      </trkpt>
      <trkpt lat="50.1362" lon="1.57391">
        <ele>41.5</ele>
        <time>2020-06-18T15:47:04Z</time>
      </trkpt>
      <trkpt lat="50.13623" lon="1.57402">
        <ele>41.4</ele>
        <time>2020-06-18T15:47:05Z</time>
      </trkpt>
      <trkpt lat="50.13626" lon="1.57412">
        <ele>41.3</ele>
        <time>2020-06-18T15:47:06Z</time>
      </trkpt>
      <trkpt lat="50.13629" lon="1.57423">
        <ele>41.2</ele>
        <time>2020-06-18T15:47:07Z</time>
      </trkpt>
      <trkpt lat="50.13631" lon="1.57434">
        <ele>41.2</ele>
        <time>2020-06-18T15:47:08Z</time>
      </trkpt>
      <trkpt lat="50.13634" lon="1.57445">
        <ele>41.1</ele>
        <time>2020-06-18T15:47:09Z</time>
      </trkpt>
      <trkpt lat="50.13637" lon="1.57456">
        <ele>41</ele>
        <time>2020-06-18T15:47:10Z</time>
      </trkpt>
      <trkpt lat="50.1364" lon="1.57467">
        <ele>40.9</ele>
        <time>2020-06-18T15:47:11Z</time>
      </trkpt>
      <trkpt lat="50.13642" lon="1.57478">
        <ele>40.8</ele>
        <time>2020-06-18T15:47:12Z</time>
      </trkpt>
      <trkpt lat="50.13645" lon="1.57489">
        <ele>40.7</ele>
        <time>2020-06-18T15:47:13Z</time>
      </trkpt>
      <trkpt lat="50.13648" lon="1.575">
        <ele>40.6</ele>
        <time>2020-06-18T15:47:14Z</time>
      </trkpt>
      <trkpt lat="50.13651" lon="1.5751">
        <ele>40.5</ele>
        <time>2020-06-18T15:47:15Z</time>
      </trkpt>
      <trkpt lat="50.13654" lon="1.57521">
        <ele>40.4</ele>
        <time>2020-06-18T15:47:16Z</time>
      </trkpt>
      <trkpt lat="50.13658" lon="1.57531">
        <ele>40.3</ele>
        <time>2020-06-18T15:47:17Z</time>
      </trkpt>
      <trkpt lat="50.13661" lon="1.57541">
        <ele>40.3</ele>
        <time>2020-06-18T15:47:18Z</time>
      </trkpt>
      <trkpt lat="50.13664" lon="1.57551">
        <ele>40.2</ele>
        <time>2020-06-18T15:47:19Z</time>
      </trkpt>
      <trkpt lat="50.13667" lon="1.57561">
        <ele>40.1</ele>
        <time>2020-06-18T15:47:20Z</time>
      </trkpt>
      <trkpt lat="50.13669" lon="1.57571">
        <ele>40</ele>
        <time>2020-06-18T15:47:21Z</time>
      </trkpt>
      <trkpt lat="50.13672" lon="1.57581">
        <ele>39.9</ele>
        <time>2020-06-18T15:47:22Z</time>
      </trkpt>
      <trkpt lat="50.13675" lon="1.5759">
        <ele>39.9</ele>
        <time>2020-06-18T15:47:23Z</time>
      </trkpt>
      <trkpt lat="50.13678" lon="1.57599">
        <ele>39.8</ele>
        <time>2020-06-18T15:47:24Z</time>
      </trkpt>
      <trkpt lat="50.1368" lon="1.57609">
        <ele>39.7</ele>
        <time>2020-06-18T15:47:25Z</time>
      </trkpt>
      <trkpt lat="50.13682" lon="1.57618">
        <ele>39.6</ele>
        <time>2020-06-18T15:47:26Z</time>
      </trkpt>
      <trkpt lat="50.13685" lon="1.57628">
        <ele>39.5</ele>
        <time>2020-06-18T15:47:27Z</time>
      </trkpt>
      <trkpt lat="50.13687" lon="1.57637">
        <ele>39.5</ele>
        <time>2020-06-18T15:47:28Z</time>
      </trkpt>
      <trkpt lat="50.1369" lon="1.57647">
        <ele>39.4</ele>
        <time>2020-06-18T15:47:29Z</time>
      </trkpt>
      <trkpt lat="50.13693" lon="1.57656">
        <ele>39.4</ele>
        <time>2020-06-18T15:47:30Z</time>
      </trkpt>
      <trkpt lat="50.13695" lon="1.57665">
        <ele>39.4</ele>
        <time>2020-06-18T15:47:31Z</time>
      </trkpt>
      <trkpt lat="50.13698" lon="1.57675">
        <ele>39.3</ele>
        <time>2020-06-18T15:47:32Z</time>
      </trkpt>
      <trkpt lat="50.137" lon="1.57684">
        <ele>39.3</ele>
        <time>2020-06-18T15:47:33Z</time>
      </trkpt>
      <trkpt lat="50.13704" lon="1.57694">
        <ele>39.3</ele>
        <time>2020-06-18T15:47:34Z</time>
      </trkpt>
      <trkpt lat="50.13707" lon="1.57703">
        <ele>39.2</ele>
        <time>2020-06-18T15:47:35Z</time>
      </trkpt>
      <trkpt lat="50.13709" lon="1.57713">
        <ele>39.2</ele>
        <time>2020-06-18T15:47:36Z</time>
      </trkpt>
      <trkpt lat="50.13711" lon="1.57722">
        <ele>39.1</ele>
        <time>2020-06-18T15:47:37Z</time>
      </trkpt>
      <trkpt lat="50.13714" lon="1.57731">
        <ele>39.1</ele>
        <time>2020-06-18T15:47:38Z</time>
      </trkpt>
      <trkpt lat="50.13716" lon="1.57741">
        <ele>39.1</ele>
        <time>2020-06-18T15:47:39Z</time>
      </trkpt>
      <trkpt lat="50.13718" lon="1.5775">
        <ele>39.1</ele>
        <time>2020-06-18T15:47:40Z</time>
      </trkpt>
      <trkpt lat="50.13719" lon="1.57759">
        <ele>39.1</ele>
        <time>2020-06-18T15:47:41Z</time>
      </trkpt>
      <trkpt lat="50.1372" lon="1.57768">
        <ele>39</ele>
        <time>2020-06-18T15:47:42Z</time>
      </trkpt>
      <trkpt lat="50.13722" lon="1.57777">
        <ele>39</ele>
        <time>2020-06-18T15:47:43Z</time>
      </trkpt>
      <trkpt lat="50.13723" lon="1.57786">
        <ele>39</ele>
        <time>2020-06-18T15:47:44Z</time>
      </trkpt>
      <trkpt lat="50.13723" lon="1.57795">
        <ele>39.1</ele>
        <time>2020-06-18T15:47:45Z</time>
      </trkpt>
      <trkpt lat="50.13724" lon="1.57804">
        <ele>39.1</ele>
        <time>2020-06-18T15:47:46Z</time>
      </trkpt>
      <trkpt lat="50.13726" lon="1.57812">
        <ele>39.1</ele>
        <time>2020-06-18T15:47:47Z</time>
      </trkpt>
      <trkpt lat="50.13727" lon="1.57821">
        <ele>39.2</ele>
        <time>2020-06-18T15:47:48Z</time>
      </trkpt>
      <trkpt lat="50.13729" lon="1.5783">
        <ele>39.2</ele>
        <time>2020-06-18T15:47:49Z</time>
      </trkpt>
      <trkpt lat="50.1373" lon="1.5784">
        <ele>39.2</ele>
        <time>2020-06-18T15:47:50Z</time>
      </trkpt>
      <trkpt lat="50.13731" lon="1.57849">
        <ele>39.3</ele>
        <time>2020-06-18T15:47:51Z</time>
      </trkpt>
      <trkpt lat="50.13733" lon="1.57859">
        <ele>39.3</ele>
        <time>2020-06-18T15:47:52Z</time>
      </trkpt>
      <trkpt lat="50.13734" lon="1.57868">
        <ele>39.2</ele>
        <time>2020-06-18T15:47:53Z</time>
      </trkpt>
      <trkpt lat="50.13738" lon="1.57876">
        <ele>39.1</ele>
        <time>2020-06-18T15:47:54Z</time>
      </trkpt>
      <trkpt lat="50.13741" lon="1.57884">
        <ele>39</ele>
        <time>2020-06-18T15:47:55Z</time>
      </trkpt>
      <trkpt lat="50.13746" lon="1.57891">
        <ele>38.9</ele>
        <time>2020-06-18T15:47:56Z</time>
      </trkpt>
      <trkpt lat="50.1375" lon="1.57898">
        <ele>38.9</ele>
        <time>2020-06-18T15:47:57Z</time>
      </trkpt>
      <trkpt lat="50.13754" lon="1.57904">
        <ele>38.8</ele>
        <time>2020-06-18T15:47:58Z</time>
      </trkpt>
      <trkpt lat="50.13759" lon="1.57912">
        <ele>38.7</ele>
        <time>2020-06-18T15:47:59Z</time>
      </trkpt>
      <trkpt lat="50.13763" lon="1.57918">
        <ele>38.6</ele>
        <time>2020-06-18T15:48:00Z</time>
      </trkpt>
      <trkpt lat="50.13768" lon="1.57924">
        <ele>38.6</ele>
        <time>2020-06-18T15:48:01Z</time>
      </trkpt>
      <trkpt lat="50.13773" lon="1.57929">
        <ele>38.5</ele>
        <time>2020-06-18T15:48:02Z</time>
      </trkpt>
      <trkpt lat="50.13778" lon="1.57935">
        <ele>38.5</ele>
        <time>2020-06-18T15:48:03Z</time>
      </trkpt>
      <trkpt lat="50.13782" lon="1.57942">
        <ele>38.4</ele>
        <time>2020-06-18T15:48:04Z</time>
      </trkpt>
      <trkpt lat="50.13786" lon="1.57949">
        <ele>38.4</ele>
        <time>2020-06-18T15:48:05Z</time>
      </trkpt>
      <trkpt lat="50.1379" lon="1.57956">
        <ele>38.3</ele>
        <time>2020-06-18T15:48:06Z</time>
      </trkpt>
      <trkpt lat="50.13794" lon="1.57964">
        <ele>38.2</ele>
        <time>2020-06-18T15:48:07Z</time>
      </trkpt>
      <trkpt lat="50.13798" lon="1.57972">
        <ele>38.2</ele>
        <time>2020-06-18T15:48:08Z</time>
      </trkpt>
      <trkpt lat="50.13801" lon="1.5798">
        <ele>38.1</ele>
        <time>2020-06-18T15:48:09Z</time>
      </trkpt>
      <trkpt lat="50.13805" lon="1.57989">
        <ele>38.1</ele>
        <time>2020-06-18T15:48:10Z</time>
      </trkpt>
      <trkpt lat="50.13808" lon="1.57998">
        <ele>38</ele>
        <time>2020-06-18T15:48:11Z</time>
      </trkpt>
      <trkpt lat="50.1381" lon="1.58007">
        <ele>38</ele>
        <time>2020-06-18T15:48:12Z</time>
      </trkpt>
      <trkpt lat="50.13813" lon="1.58013">
        <ele>38</ele>
        <time>2020-06-18T15:48:13Z</time>
      </trkpt>
      <trkpt lat="50.13813" lon="1.58018">
        <ele>38</ele>
        <time>2020-06-18T15:48:14Z</time>
      </trkpt>
      <trkpt lat="50.13814" lon="1.58021">
        <ele>38</ele>
        <time>2020-06-18T15:48:15Z</time>
      </trkpt>
      <trkpt lat="50.13814" lon="1.58021">
        <ele>38</ele>
        <time>2020-06-18T15:48:16Z</time>
      </trkpt>
      <trkpt lat="50.13813" lon="1.58021">
        <ele>38</ele>
        <time>2020-06-18T15:48:17Z</time>
      </trkpt>
      <trkpt lat="50.13813" lon="1.5802">
        <ele>37.9</ele>
        <time>2020-06-18T15:48:18Z</time>
      </trkpt>
      <trkpt lat="50.13813" lon="1.5802">
        <ele>37.9</ele>
        <time>2020-06-18T15:48:19Z</time>
      </trkpt>
      <trkpt lat="50.13812" lon="1.58022">
        <ele>37.9</ele>
        <time>2020-06-18T15:48:20Z</time>
      </trkpt>
      <trkpt lat="50.13811" lon="1.58022">
        <ele>37.9</ele>
        <time>2020-06-18T15:48:21Z</time>
      </trkpt>
      <trkpt lat="50.1381" lon="1.58022">
        <ele>37.9</ele>
        <time>2020-06-18T15:48:22Z</time>
      </trkpt>
      <trkpt lat="50.1381" lon="1.58021">
        <ele>37.9</ele>
        <time>2020-06-18T15:48:23Z</time>
      </trkpt>
      <trkpt lat="50.13809" lon="1.5802">
        <ele>37.9</ele>
        <time>2020-06-18T15:48:24Z</time>
      </trkpt>
      <trkpt lat="50.13808" lon="1.58019">
        <ele>37.9</ele>
        <time>2020-06-18T15:48:25Z</time>
      </trkpt>
      <trkpt lat="50.13808" lon="1.58017">
        <ele>37.9</ele>
        <time>2020-06-18T15:48:26Z</time>
      </trkpt>
      <trkpt lat="50.13809" lon="1.58017">
        <ele>37.9</ele>
        <time>2020-06-18T15:48:27Z</time>
      </trkpt>
      <trkpt lat="50.13809" lon="1.58016">
        <ele>37.9</ele>
        <time>2020-06-18T15:48:28Z</time>
      </trkpt>
      <trkpt lat="50.13809" lon="1.58015">
        <ele>37.9</ele>
        <time>2020-06-18T15:48:29Z</time>
      </trkpt>
      <trkpt lat="50.1381" lon="1.58014">
        <ele>37.9</ele>
        <time>2020-06-18T15:48:30Z</time>
      </trkpt>
      <trkpt lat="50.1381" lon="1.58014">
        <ele>37.9</ele>
        <time>2020-06-18T15:48:31Z</time>
      </trkpt>
      <trkpt lat="50.1381" lon="1.58013">
        <ele>37.8</ele>
        <time>2020-06-18T15:48:32Z</time>
      </trkpt>
      <trkpt lat="50.1381" lon="1.58012">
        <ele>37.8</ele>
        <time>2020-06-18T15:48:33Z</time>
      </trkpt>
      <trkpt lat="50.13811" lon="1.58012">
        <ele>37.8</ele>
        <time>2020-06-18T15:48:34Z</time>
      </trkpt>
      <trkpt lat="50.13811" lon="1.58011">
        <ele>37.8</ele>
        <time>2020-06-18T15:48:35Z</time>
      </trkpt>
      <trkpt lat="50.13811" lon="1.5801">
        <ele>37.8</ele>
        <time>2020-06-18T15:48:36Z</time>
      </trkpt>
      <trkpt lat="50.13812" lon="1.58009">
        <ele>37.8</ele>
        <time>2020-06-18T15:54:54Z</time>
      </trkpt>
      <trkpt lat="50.13812" lon="1.58009">
        <ele>37.8</ele>
        <time>2020-06-18T15:54:55Z</time>
      </trkpt>
      <trkpt lat="50.13814" lon="1.58013">
        <ele>37.8</ele>
        <time>2020-06-18T15:54:56Z</time>
      </trkpt>
      <trkpt lat="50.13815" lon="1.58015">
        <ele>37.8</ele>
        <time>2020-06-18T15:54:57Z</time>
      </trkpt>
      <trkpt lat="50.13816" lon="1.58018">
        <ele>37.7</ele>
        <time>2020-06-18T15:54:58Z</time>
      </trkpt>
      <trkpt lat="50.13818" lon="1.58022">
        <ele>37.7</ele>
        <time>2020-06-18T15:54:59Z</time>
      </trkpt>
      <trkpt lat="50.13819" lon="1.58028">
        <ele>37.7</ele>
        <time>2020-06-18T15:55:00Z</time>
      </trkpt>
      <trkpt lat="50.13821" lon="1.58033">
        <ele>37.6</ele>
        <time>2020-06-18T15:55:01Z</time>
      </trkpt>
      <trkpt lat="50.13823" lon="1.58038">
        <ele>37.6</ele>
        <time>2020-06-18T15:55:02Z</time>
      </trkpt>
      <trkpt lat="50.13824" lon="1.58043">
        <ele>37.6</ele>
        <time>2020-06-18T15:55:03Z</time>
      </trkpt>
      <trkpt lat="50.13825" lon="1.58049">
        <ele>37.5</ele>
        <time>2020-06-18T15:55:04Z</time>
      </trkpt>
      <trkpt lat="50.13827" lon="1.58054">
        <ele>37.5</ele>
        <time>2020-06-18T15:55:05Z</time>
      </trkpt>
      <trkpt lat="50.13828" lon="1.58058">
        <ele>37.5</ele>
        <time>2020-06-18T15:55:06Z</time>
      </trkpt>
      <trkpt lat="50.1383" lon="1.58063">
        <ele>37.5</ele>
        <time>2020-06-18T15:55:07Z</time>
      </trkpt>
      <trkpt lat="50.13832" lon="1.58069">
        <ele>37.4</ele>
        <time>2020-06-18T15:55:08Z</time>
      </trkpt>
      <trkpt lat="50.13835" lon="1.58074">
        <ele>37.4</ele>
        <time>2020-06-18T15:55:09Z</time>
      </trkpt>
      <trkpt lat="50.13838" lon="1.58078">
        <ele>37.3</ele>
        <time>2020-06-18T15:55:10Z</time>
      </trkpt>
      <trkpt lat="50.13841" lon="1.58082">
        <ele>37.3</ele>
        <time>2020-06-18T15:55:11Z</time>
      </trkpt>
      <trkpt lat="50.13845" lon="1.58086">
        <ele>37.3</ele>
        <time>2020-06-18T15:55:12Z</time>
      </trkpt>
      <trkpt lat="50.13848" lon="1.5809">
        <ele>37.2</ele>
        <time>2020-06-18T15:55:13Z</time>
      </trkpt>
      <trkpt lat="50.13852" lon="1.58094">
        <ele>37.2</ele>
        <time>2020-06-18T15:55:14Z</time>
      </trkpt>
      <trkpt lat="50.13857" lon="1.58098">
        <ele>37.1</ele>
        <time>2020-06-18T15:55:15Z</time>
      </trkpt>
      <trkpt lat="50.13862" lon="1.58102">
        <ele>37.1</ele>
        <time>2020-06-18T15:55:16Z</time>
      </trkpt>
      <trkpt lat="50.13868" lon="1.58105">
        <ele>37</ele>
        <time>2020-06-18T15:55:17Z</time>
      </trkpt>
      <trkpt lat="50.13873" lon="1.58108">
        <ele>36.9</ele>
        <time>2020-06-18T15:55:18Z</time>
      </trkpt>
      <trkpt lat="50.13879" lon="1.5811">
        <ele>36.9</ele>
        <time>2020-06-18T15:55:19Z</time>
      </trkpt>
      <trkpt lat="50.13886" lon="1.58112">
        <ele>36.8</ele>
        <time>2020-06-18T15:55:20Z</time>
      </trkpt>
      <trkpt lat="50.13891" lon="1.58114">
        <ele>36.8</ele>
        <time>2020-06-18T15:55:21Z</time>
      </trkpt>
      <trkpt lat="50.13897" lon="1.58116">
        <ele>36.8</ele>
        <time>2020-06-18T15:55:22Z</time>
      </trkpt>
      <trkpt lat="50.13902" lon="1.58117">
        <ele>36.8</ele>
        <time>2020-06-18T15:55:23Z</time>
      </trkpt>
      <trkpt lat="50.13907" lon="1.58118">
        <ele>36.9</ele>
        <time>2020-06-18T15:55:24Z</time>
      </trkpt>
      <trkpt lat="50.13912" lon="1.5812">
        <ele>36.9</ele>
        <time>2020-06-18T15:55:25Z</time>
      </trkpt>
      <trkpt lat="50.13918" lon="1.58122">
        <ele>36.9</ele>
        <time>2020-06-18T15:55:26Z</time>
      </trkpt>
      <trkpt lat="50.13924" lon="1.58125">
        <ele>36.9</ele>
        <time>2020-06-18T15:55:27Z</time>
      </trkpt>
      <trkpt lat="50.1393" lon="1.58131">
        <ele>36.8</ele>
        <time>2020-06-18T15:55:28Z</time>
      </trkpt>
      <trkpt lat="50.13936" lon="1.58136">
        <ele>36.8</ele>
        <time>2020-06-18T15:55:29Z</time>
      </trkpt>
      <trkpt lat="50.13941" lon="1.58143">
        <ele>36.7</ele>
        <time>2020-06-18T15:55:30Z</time>
      </trkpt>
      <trkpt lat="50.13945" lon="1.58148">
        <ele>36.7</ele>
        <time>2020-06-18T15:55:31Z</time>
      </trkpt>
      <trkpt lat="50.13949" lon="1.58152">
        <ele>36.6</ele>
        <time>2020-06-18T15:55:32Z</time>
      </trkpt>
      <trkpt lat="50.13954" lon="1.58158">
        <ele>36.6</ele>
        <time>2020-06-18T15:55:33Z</time>
      </trkpt>
      <trkpt lat="50.13958" lon="1.58163">
        <ele>36.5</ele>
        <time>2020-06-18T15:55:34Z</time>
      </trkpt>
      <trkpt lat="50.13964" lon="1.58169">
        <ele>36.4</ele>
        <time>2020-06-18T15:55:35Z</time>
      </trkpt>
      <trkpt lat="50.13969" lon="1.58174">
        <ele>36.4</ele>
        <time>2020-06-18T15:55:36Z</time>
      </trkpt>
      <trkpt lat="50.13974" lon="1.58178">
        <ele>36.4</ele>
        <time>2020-06-18T15:55:37Z</time>
      </trkpt>
      <trkpt lat="50.13979" lon="1.58183">
        <ele>36.3</ele>
        <time>2020-06-18T15:55:38Z</time>
      </trkpt>
      <trkpt lat="50.13985" lon="1.58188">
        <ele>36.3</ele>
        <time>2020-06-18T15:55:39Z</time>
      </trkpt>
      <trkpt lat="50.13991" lon="1.58194">
        <ele>36.3</ele>
        <time>2020-06-18T15:55:40Z</time>
      </trkpt>
      <trkpt lat="50.13995" lon="1.58197">
        <ele>36.2</ele>
        <time>2020-06-18T15:55:41Z</time>
      </trkpt>
      <trkpt lat="50.13999" lon="1.582">
        <ele>36.1</ele>
        <time>2020-06-18T15:55:42Z</time>
      </trkpt>
      <trkpt lat="50.14008" lon="1.58202">
        <ele>35.9</ele>
        <time>2020-06-18T15:55:43Z</time>
      </trkpt>
      <trkpt lat="50.14014" lon="1.58204">
        <ele>35.8</ele>
        <time>2020-06-18T15:55:44Z</time>
      </trkpt>
      <trkpt lat="50.1402" lon="1.58207">
        <ele>35.7</ele>
        <time>2020-06-18T15:55:45Z</time>
      </trkpt>
      <trkpt lat="50.14027" lon="1.58209">
        <ele>35.6</ele>
        <time>2020-06-18T15:55:46Z</time>
      </trkpt>
      <trkpt lat="50.14034" lon="1.58211">
        <ele>35.5</ele>
        <time>2020-06-18T15:55:47Z</time>
      </trkpt>
      <trkpt lat="50.1404" lon="1.58214">
        <ele>35.5</ele>
        <time>2020-06-18T15:55:48Z</time>
      </trkpt>
      <trkpt lat="50.14047" lon="1.58218">
        <ele>35.4</ele>
        <time>2020-06-18T15:55:49Z</time>
      </trkpt>
      <trkpt lat="50.14053" lon="1.58222">
        <ele>35.4</ele>
        <time>2020-06-18T15:55:50Z</time>
      </trkpt>
      <trkpt lat="50.1406" lon="1.58227">
        <ele>35.3</ele>
        <time>2020-06-18T15:55:51Z</time>
      </trkpt>
      <trkpt lat="50.14065" lon="1.58231">
        <ele>35.3</ele>
        <time>2020-06-18T15:55:52Z</time>
      </trkpt>
      <trkpt lat="50.14071" lon="1.58236">
        <ele>35.3</ele>
        <time>2020-06-18T15:55:53Z</time>
      </trkpt>
      <trkpt lat="50.14076" lon="1.5824">
        <ele>35.3</ele>
        <time>2020-06-18T15:55:54Z</time>
      </trkpt>
      <trkpt lat="50.1408" lon="1.58243">
        <ele>35.3</ele>
        <time>2020-06-18T15:55:55Z</time>
      </trkpt>
      <trkpt lat="50.14084" lon="1.58247">
        <ele>35.3</ele>
        <time>2020-06-18T15:55:56Z</time>
      </trkpt>
      <trkpt lat="50.1409" lon="1.58251">
        <ele>35.3</ele>
        <time>2020-06-18T15:55:57Z</time>
      </trkpt>
      <trkpt lat="50.14094" lon="1.58255">
        <ele>35.3</ele>
        <time>2020-06-18T15:55:58Z</time>
      </trkpt>
      <trkpt lat="50.141" lon="1.58259">
        <ele>35.3</ele>
        <time>2020-06-18T15:55:59Z</time>
      </trkpt>
      <trkpt lat="50.14107" lon="1.58263">
        <ele>35.3</ele>
        <time>2020-06-18T15:56:00Z</time>
      </trkpt>
      <trkpt lat="50.14114" lon="1.58269">
        <ele>35.3</ele>
        <time>2020-06-18T15:56:01Z</time>
      </trkpt>
      <trkpt lat="50.1412" lon="1.58273">
        <ele>35.3</ele>
        <time>2020-06-18T15:56:02Z</time>
      </trkpt>
      <trkpt lat="50.14126" lon="1.58278">
        <ele>35.3</ele>
        <time>2020-06-18T15:56:03Z</time>
      </trkpt>
      <trkpt lat="50.14132" lon="1.5828">
        <ele>35.3</ele>
        <time>2020-06-18T15:56:04Z</time>
      </trkpt>
      <trkpt lat="50.14138" lon="1.58283">
        <ele>35.3</ele>
        <time>2020-06-18T15:56:05Z</time>
      </trkpt>
      <trkpt lat="50.14145" lon="1.58285">
        <ele>35.2</ele>
        <time>2020-06-18T15:56:06Z</time>
      </trkpt>
      <trkpt lat="50.14152" lon="1.58288">
        <ele>35.1</ele>
        <time>2020-06-18T15:56:07Z</time>
      </trkpt>
      <trkpt lat="50.14158" lon="1.58291">
        <ele>34.7</ele>
        <time>2020-06-18T15:56:08Z</time>
      </trkpt>
      <trkpt lat="50.14166" lon="1.58294">
        <ele>34.7</ele>
        <time>2020-06-18T15:56:09Z</time>
      </trkpt>
      <trkpt lat="50.14173" lon="1.58297">
        <ele>34.6</ele>
        <time>2020-06-18T15:56:10Z</time>
      </trkpt>
      <trkpt lat="50.1418" lon="1.58301">
        <ele>34.6</ele>
        <time>2020-06-18T15:56:11Z</time>
      </trkpt>
      <trkpt lat="50.14187" lon="1.58304">
        <ele>34.5</ele>
        <time>2020-06-18T15:56:12Z</time>
      </trkpt>
      <trkpt lat="50.14194" lon="1.58308">
        <ele>34.3</ele>
        <time>2020-06-18T15:56:13Z</time>
      </trkpt>
      <trkpt lat="50.142" lon="1.58313">
        <ele>34.1</ele>
        <time>2020-06-18T15:56:14Z</time>
      </trkpt>
      <trkpt lat="50.14207" lon="1.58317">
        <ele>33.9</ele>
        <time>2020-06-18T15:56:15Z</time>
      </trkpt>
      <trkpt lat="50.14214" lon="1.58322">
        <ele>33.8</ele>
        <time>2020-06-18T15:56:16Z</time>
      </trkpt>
      <trkpt lat="50.14221" lon="1.58327">
        <ele>33.8</ele>
        <time>2020-06-18T15:56:17Z</time>
      </trkpt>
      <trkpt lat="50.14227" lon="1.58333">
        <ele>33.7</ele>
        <time>2020-06-18T15:56:18Z</time>
      </trkpt>
      <trkpt lat="50.14234" lon="1.58339">
        <ele>33.6</ele>
        <time>2020-06-18T15:56:19Z</time>
      </trkpt>
      <trkpt lat="50.1424" lon="1.58345">
        <ele>33.6</ele>
        <time>2020-06-18T15:56:20Z</time>
      </trkpt>
      <trkpt lat="50.14247" lon="1.5835">
        <ele>33.5</ele>
        <time>2020-06-18T15:56:21Z</time>
      </trkpt>
      <trkpt lat="50.14254" lon="1.58356">
        <ele>33.3</ele>
        <time>2020-06-18T15:56:22Z</time>
      </trkpt>
      <trkpt lat="50.14261" lon="1.58361">
        <ele>33.2</ele>
        <time>2020-06-18T15:56:23Z</time>
      </trkpt>
      <trkpt lat="50.14267" lon="1.58366">
        <ele>33.1</ele>
        <time>2020-06-18T15:56:24Z</time>
      </trkpt>
      <trkpt lat="50.14274" lon="1.5837">
        <ele>33</ele>
        <time>2020-06-18T15:56:25Z</time>
      </trkpt>
      <trkpt lat="50.14281" lon="1.58375">
        <ele>33</ele>
        <time>2020-06-18T15:56:26Z</time>
      </trkpt>
      <trkpt lat="50.14287" lon="1.5838">
        <ele>32.9</ele>
        <time>2020-06-18T15:56:27Z</time>
      </trkpt>
      <trkpt lat="50.14294" lon="1.58384">
        <ele>32.8</ele>
        <time>2020-06-18T15:56:28Z</time>
      </trkpt>
      <trkpt lat="50.143" lon="1.58389">
        <ele>32.7</ele>
        <time>2020-06-18T15:56:29Z</time>
      </trkpt>
      <trkpt lat="50.14307" lon="1.58393">
        <ele>32.6</ele>
        <time>2020-06-18T15:56:30Z</time>
      </trkpt>
      <trkpt lat="50.14314" lon="1.58397">
        <ele>32.5</ele>
        <time>2020-06-18T15:56:31Z</time>
      </trkpt>
      <trkpt lat="50.1432" lon="1.58401">
        <ele>32.4</ele>
        <time>2020-06-18T15:56:32Z</time>
      </trkpt>
      <trkpt lat="50.14326" lon="1.58406">
        <ele>32.4</ele>
        <time>2020-06-18T15:56:33Z</time>
      </trkpt>
      <trkpt lat="50.14333" lon="1.58409">
        <ele>32.3</ele>
        <time>2020-06-18T15:56:34Z</time>
      </trkpt>
      <trkpt lat="50.1434" lon="1.58413">
        <ele>32.2</ele>
        <time>2020-06-18T15:56:35Z</time>
      </trkpt>
      <trkpt lat="50.14346" lon="1.58417">
        <ele>32.2</ele>
        <time>2020-06-18T15:56:36Z</time>
      </trkpt>
      <trkpt lat="50.14352" lon="1.58421">
        <ele>32.2</ele>
        <time>2020-06-18T15:56:37Z</time>
      </trkpt>
      <trkpt lat="50.14359" lon="1.58425">
        <ele>32.1</ele>
        <time>2020-06-18T15:56:38Z</time>
      </trkpt>
      <trkpt lat="50.14366" lon="1.58429">
        <ele>32.1</ele>
        <time>2020-06-18T15:56:39Z</time>
      </trkpt>
      <trkpt lat="50.14372" lon="1.58432">
        <ele>32</ele>
        <time>2020-06-18T15:56:40Z</time>
      </trkpt>
      <trkpt lat="50.14379" lon="1.58436">
        <ele>31.9</ele>
        <time>2020-06-18T15:56:41Z</time>
      </trkpt>
      <trkpt lat="50.14386" lon="1.5844">
        <ele>31.8</ele>
        <time>2020-06-18T15:56:42Z</time>
      </trkpt>
      <trkpt lat="50.14392" lon="1.58444">
        <ele>31.7</ele>
        <time>2020-06-18T15:56:43Z</time>
      </trkpt>
      <trkpt lat="50.14399" lon="1.58447">
        <ele>31.6</ele>
        <time>2020-06-18T15:56:44Z</time>
      </trkpt>
      <trkpt lat="50.14406" lon="1.5845">
        <ele>31.5</ele>
        <time>2020-06-18T15:56:45Z</time>
      </trkpt>
      <trkpt lat="50.14413" lon="1.58454">
        <ele>31.4</ele>
        <time>2020-06-18T15:56:46Z</time>
      </trkpt>
      <trkpt lat="50.1442" lon="1.58457">
        <ele>31.3</ele>
        <time>2020-06-18T15:56:47Z</time>
      </trkpt>
      <trkpt lat="50.14427" lon="1.5846">
        <ele>31.2</ele>
        <time>2020-06-18T15:56:48Z</time>
      </trkpt>
      <trkpt lat="50.14434" lon="1.58463">
        <ele>31.2</ele>
        <time>2020-06-18T15:56:49Z</time>
      </trkpt>
      <trkpt lat="50.14441" lon="1.58465">
        <ele>31.1</ele>
        <time>2020-06-18T15:56:50Z</time>
      </trkpt>
      <trkpt lat="50.14448" lon="1.58467">
        <ele>31.1</ele>
        <time>2020-06-18T15:56:51Z</time>
      </trkpt>
      <trkpt lat="50.14455" lon="1.58468">
        <ele>31</ele>
        <time>2020-06-18T15:56:52Z</time>
      </trkpt>
      <trkpt lat="50.14462" lon="1.58469">
        <ele>31</ele>
        <time>2020-06-18T15:56:53Z</time>
      </trkpt>
      <trkpt lat="50.14469" lon="1.5847">
        <ele>30.9</ele>
        <time>2020-06-18T15:56:54Z</time>
      </trkpt>
      <trkpt lat="50.14475" lon="1.58472">
        <ele>30.8</ele>
        <time>2020-06-18T15:56:55Z</time>
      </trkpt>
      <trkpt lat="50.14482" lon="1.58473">
        <ele>30.7</ele>
        <time>2020-06-18T15:56:56Z</time>
      </trkpt>
      <trkpt lat="50.14489" lon="1.58474">
        <ele>30.6</ele>
        <time>2020-06-18T15:56:57Z</time>
      </trkpt>
      <trkpt lat="50.14495" lon="1.58475">
        <ele>30.5</ele>
        <time>2020-06-18T15:56:58Z</time>
      </trkpt>
      <trkpt lat="50.14502" lon="1.58476">
        <ele>30.4</ele>
        <time>2020-06-18T15:56:59Z</time>
      </trkpt>
      <trkpt lat="50.14509" lon="1.58477">
        <ele>30.4</ele>
        <time>2020-06-18T15:57:00Z</time>
      </trkpt>
      <trkpt lat="50.14516" lon="1.58478">
        <ele>30.3</ele>
        <time>2020-06-18T15:57:01Z</time>
      </trkpt>
      <trkpt lat="50.14523" lon="1.58478">
        <ele>30.3</ele>
        <time>2020-06-18T15:57:02Z</time>
      </trkpt>
      <trkpt lat="50.1453" lon="1.58479">
        <ele>30.2</ele>
        <time>2020-06-18T15:57:03Z</time>
      </trkpt>
      <trkpt lat="50.14537" lon="1.58481">
        <ele>30.1</ele>
        <time>2020-06-18T15:57:04Z</time>
      </trkpt>
      <trkpt lat="50.14544" lon="1.58483">
        <ele>30.1</ele>
        <time>2020-06-18T15:57:05Z</time>
      </trkpt>
      <trkpt lat="50.14551" lon="1.58485">
        <ele>30</ele>
        <time>2020-06-18T15:57:06Z</time>
      </trkpt>
      <trkpt lat="50.14558" lon="1.58487">
        <ele>29.9</ele>
        <time>2020-06-18T15:57:07Z</time>
      </trkpt>
      <trkpt lat="50.14566" lon="1.58488">
        <ele>29.8</ele>
        <time>2020-06-18T15:57:08Z</time>
      </trkpt>
      <trkpt lat="50.14573" lon="1.5849">
        <ele>29.7</ele>
        <time>2020-06-18T15:57:09Z</time>
      </trkpt>
      <trkpt lat="50.1458" lon="1.58492">
        <ele>29.6</ele>
        <time>2020-06-18T15:57:10Z</time>
      </trkpt>
      <trkpt lat="50.14587" lon="1.58493">
        <ele>29.5</ele>
        <time>2020-06-18T15:57:11Z</time>
      </trkpt>
      <trkpt lat="50.14594" lon="1.58495">
        <ele>29.4</ele>
        <time>2020-06-18T15:57:12Z</time>
      </trkpt>
      <trkpt lat="50.146" lon="1.58497">
        <ele>29.3</ele>
        <time>2020-06-18T15:57:13Z</time>
      </trkpt>
      <trkpt lat="50.14607" lon="1.58499">
        <ele>29.3</ele>
        <time>2020-06-18T15:57:14Z</time>
      </trkpt>
      <trkpt lat="50.14614" lon="1.58501">
        <ele>29.2</ele>
        <time>2020-06-18T15:57:15Z</time>
      </trkpt>
      <trkpt lat="50.14621" lon="1.58504">
        <ele>29.2</ele>
        <time>2020-06-18T15:57:16Z</time>
      </trkpt>
      <trkpt lat="50.14628" lon="1.58506">
        <ele>29.1</ele>
        <time>2020-06-18T15:57:17Z</time>
      </trkpt>
      <trkpt lat="50.14635" lon="1.58508">
        <ele>29</ele>
        <time>2020-06-18T15:57:18Z</time>
      </trkpt>
      <trkpt lat="50.14643" lon="1.58511">
        <ele>29</ele>
        <time>2020-06-18T15:57:19Z</time>
      </trkpt>
      <trkpt lat="50.1465" lon="1.58513">
        <ele>28.9</ele>
        <time>2020-06-18T15:57:20Z</time>
      </trkpt>
      <trkpt lat="50.14657" lon="1.58515">
        <ele>28.8</ele>
        <time>2020-06-18T15:57:21Z</time>
      </trkpt>
      <trkpt lat="50.14665" lon="1.58518">
        <ele>28.7</ele>
        <time>2020-06-18T15:57:22Z</time>
      </trkpt>
      <trkpt lat="50.14672" lon="1.5852">
        <ele>28.7</ele>
        <time>2020-06-18T15:57:23Z</time>
      </trkpt>
      <trkpt lat="50.14679" lon="1.58522">
        <ele>28.6</ele>
        <time>2020-06-18T15:57:24Z</time>
      </trkpt>
      <trkpt lat="50.14686" lon="1.58525">
        <ele>28.5</ele>
        <time>2020-06-18T15:57:25Z</time>
      </trkpt>
      <trkpt lat="50.14693" lon="1.58527">
        <ele>28.5</ele>
        <time>2020-06-18T15:57:26Z</time>
      </trkpt>
      <trkpt lat="50.147" lon="1.58529">
        <ele>28.4</ele>
        <time>2020-06-18T15:57:27Z</time>
      </trkpt>
      <trkpt lat="50.14707" lon="1.58531">
        <ele>28.3</ele>
        <time>2020-06-18T15:57:28Z</time>
      </trkpt>
      <trkpt lat="50.14714" lon="1.58534">
        <ele>28.3</ele>
        <time>2020-06-18T15:57:29Z</time>
      </trkpt>
      <trkpt lat="50.14721" lon="1.58536">
        <ele>28.2</ele>
        <time>2020-06-18T15:57:30Z</time>
      </trkpt>
      <trkpt lat="50.14728" lon="1.58538">
        <ele>28.1</ele>
        <time>2020-06-18T15:57:31Z</time>
      </trkpt>
      <trkpt lat="50.14735" lon="1.5854">
        <ele>28.1</ele>
        <time>2020-06-18T15:57:32Z</time>
      </trkpt>
      <trkpt lat="50.14742" lon="1.58542">
        <ele>28</ele>
        <time>2020-06-18T15:57:33Z</time>
      </trkpt>
      <trkpt lat="50.14749" lon="1.58545">
        <ele>27.9</ele>
        <time>2020-06-18T15:57:34Z</time>
      </trkpt>
      <trkpt lat="50.14756" lon="1.58547">
        <ele>27.8</ele>
        <time>2020-06-18T15:57:35Z</time>
      </trkpt>
      <trkpt lat="50.14763" lon="1.58549">
        <ele>27.8</ele>
        <time>2020-06-18T15:57:36Z</time>
      </trkpt>
      <trkpt lat="50.14771" lon="1.58551">
        <ele>27.7</ele>
        <time>2020-06-18T15:57:37Z</time>
      </trkpt>
      <trkpt lat="50.14778" lon="1.58553">
        <ele>27.6</ele>
        <time>2020-06-18T15:57:38Z</time>
      </trkpt>
      <trkpt lat="50.14785" lon="1.58556">
        <ele>27.5</ele>
        <time>2020-06-18T15:57:39Z</time>
      </trkpt>
      <trkpt lat="50.14792" lon="1.58558">
        <ele>27.4</ele>
        <time>2020-06-18T15:57:40Z</time>
      </trkpt>
      <trkpt lat="50.148" lon="1.5856">
        <ele>27.3</ele>
        <time>2020-06-18T15:57:41Z</time>
      </trkpt>
      <trkpt lat="50.14807" lon="1.58562">
        <ele>27.2</ele>
        <time>2020-06-18T15:57:42Z</time>
      </trkpt>
      <trkpt lat="50.14814" lon="1.58564">
        <ele>27.1</ele>
        <time>2020-06-18T15:57:43Z</time>
      </trkpt>
      <trkpt lat="50.14822" lon="1.58566">
        <ele>26.9</ele>
        <time>2020-06-18T15:57:44Z</time>
      </trkpt>
      <trkpt lat="50.1483" lon="1.58568">
        <ele>26.8</ele>
        <time>2020-06-18T15:57:45Z</time>
      </trkpt>
      <trkpt lat="50.14837" lon="1.58571">
        <ele>26.6</ele>
        <time>2020-06-18T15:57:46Z</time>
      </trkpt>
      <trkpt lat="50.14844" lon="1.58573">
        <ele>26.5</ele>
        <time>2020-06-18T15:57:47Z</time>
      </trkpt>
      <trkpt lat="50.14852" lon="1.58575">
        <ele>26.3</ele>
        <time>2020-06-18T15:57:48Z</time>
      </trkpt>
      <trkpt lat="50.14859" lon="1.58578">
        <ele>26.2</ele>
        <time>2020-06-18T15:57:49Z</time>
      </trkpt>
      <trkpt lat="50.14867" lon="1.5858">
        <ele>26.1</ele>
        <time>2020-06-18T15:57:50Z</time>
      </trkpt>
      <trkpt lat="50.14875" lon="1.58582">
        <ele>26</ele>
        <time>2020-06-18T15:57:51Z</time>
      </trkpt>
      <trkpt lat="50.14882" lon="1.58584">
        <ele>25.8</ele>
        <time>2020-06-18T15:57:52Z</time>
      </trkpt>
      <trkpt lat="50.1489" lon="1.58586">
        <ele>25.7</ele>
        <time>2020-06-18T15:57:53Z</time>
      </trkpt>
      <trkpt lat="50.14897" lon="1.58589">
        <ele>25.5</ele>
        <time>2020-06-18T15:57:54Z</time>
      </trkpt>
      <trkpt lat="50.14905" lon="1.58591">
        <ele>25.4</ele>
        <time>2020-06-18T15:57:55Z</time>
      </trkpt>
      <trkpt lat="50.14912" lon="1.58594">
        <ele>25.2</ele>
        <time>2020-06-18T15:57:56Z</time>
      </trkpt>
      <trkpt lat="50.1492" lon="1.58596">
        <ele>25.1</ele>
        <time>2020-06-18T15:57:57Z</time>
      </trkpt>
      <trkpt lat="50.14928" lon="1.58597">
        <ele>24.9</ele>
        <time>2020-06-18T15:57:58Z</time>
      </trkpt>
      <trkpt lat="50.14935" lon="1.58599">
        <ele>24.8</ele>
        <time>2020-06-18T15:57:59Z</time>
      </trkpt>
      <trkpt lat="50.14943" lon="1.58601">
        <ele>24.6</ele>
        <time>2020-06-18T15:58:00Z</time>
      </trkpt>
      <trkpt lat="50.14951" lon="1.58604">
        <ele>24.5</ele>
        <time>2020-06-18T15:58:01Z</time>
      </trkpt>
      <trkpt lat="50.14958" lon="1.58606">
        <ele>24.4</ele>
        <time>2020-06-18T15:58:02Z</time>
      </trkpt>
      <trkpt lat="50.14966" lon="1.58608">
        <ele>24.2</ele>
        <time>2020-06-18T15:58:03Z</time>
      </trkpt>
      <trkpt lat="50.14974" lon="1.5861">
        <ele>24.1</ele>
        <time>2020-06-18T15:58:04Z</time>
      </trkpt>
      <trkpt lat="50.14981" lon="1.58613">
        <ele>23.9</ele>
        <time>2020-06-18T15:58:05Z</time>
      </trkpt>
      <trkpt lat="50.14989" lon="1.58616">
        <ele>23.8</ele>
        <time>2020-06-18T15:58:06Z</time>
      </trkpt>
      <trkpt lat="50.14997" lon="1.58618">
        <ele>23.6</ele>
        <time>2020-06-18T15:58:07Z</time>
      </trkpt>
      <trkpt lat="50.15005" lon="1.5862">
        <ele>23.5</ele>
        <time>2020-06-18T15:58:08Z</time>
      </trkpt>
      <trkpt lat="50.15013" lon="1.58623">
        <ele>23.5</ele>
        <time>2020-06-18T15:58:09Z</time>
      </trkpt>
      <trkpt lat="50.1502" lon="1.58625">
        <ele>23.4</ele>
        <time>2020-06-18T15:58:10Z</time>
      </trkpt>
      <trkpt lat="50.15028" lon="1.58628">
        <ele>23.3</ele>
        <time>2020-06-18T15:58:11Z</time>
      </trkpt>
      <trkpt lat="50.15036" lon="1.5863">
        <ele>23</ele>
        <time>2020-06-18T15:58:12Z</time>
      </trkpt>
      <trkpt lat="50.15044" lon="1.58632">
        <ele>22.6</ele>
        <time>2020-06-18T15:58:13Z</time>
      </trkpt>
      <trkpt lat="50.15051" lon="1.58635">
        <ele>22.5</ele>
        <time>2020-06-18T15:58:14Z</time>
      </trkpt>
      <trkpt lat="50.15059" lon="1.58638">
        <ele>22.5</ele>
        <time>2020-06-18T15:58:15Z</time>
      </trkpt>
      <trkpt lat="50.15066" lon="1.58641">
        <ele>22.3</ele>
        <time>2020-06-18T15:58:16Z</time>
      </trkpt>
      <trkpt lat="50.15072" lon="1.58645">
        <ele>22.2</ele>
        <time>2020-06-18T15:58:17Z</time>
      </trkpt>
      <trkpt lat="50.15079" lon="1.5865">
        <ele>22.1</ele>
        <time>2020-06-18T15:58:18Z</time>
      </trkpt>
      <trkpt lat="50.15086" lon="1.58655">
        <ele>21.8</ele>
        <time>2020-06-18T15:58:19Z</time>
      </trkpt>
      <trkpt lat="50.15092" lon="1.5866">
        <ele>21.6</ele>
        <time>2020-06-18T15:58:20Z</time>
      </trkpt>
      <trkpt lat="50.15099" lon="1.58666">
        <ele>21.4</ele>
        <time>2020-06-18T15:58:21Z</time>
      </trkpt>
      <trkpt lat="50.15105" lon="1.58672">
        <ele>21.2</ele>
        <time>2020-06-18T15:58:22Z</time>
      </trkpt>
      <trkpt lat="50.15111" lon="1.58679">
        <ele>21</ele>
        <time>2020-06-18T15:58:23Z</time>
      </trkpt>
      <trkpt lat="50.15117" lon="1.58686">
        <ele>20.8</ele>
        <time>2020-06-18T15:58:24Z</time>
      </trkpt>
      <trkpt lat="50.15124" lon="1.58693">
        <ele>20.7</ele>
        <time>2020-06-18T15:58:25Z</time>
      </trkpt>
      <trkpt lat="50.15129" lon="1.587">
        <ele>20.5</ele>
        <time>2020-06-18T15:58:26Z</time>
      </trkpt>
      <trkpt lat="50.15135" lon="1.58707">
        <ele>20.3</ele>
        <time>2020-06-18T15:58:27Z</time>
      </trkpt>
      <trkpt lat="50.15141" lon="1.58715">
        <ele>20.2</ele>
        <time>2020-06-18T15:58:28Z</time>
      </trkpt>
      <trkpt lat="50.15147" lon="1.58723">
        <ele>20.1</ele>
        <time>2020-06-18T15:58:29Z</time>
      </trkpt>
      <trkpt lat="50.15154" lon="1.58731">
        <ele>19.9</ele>
        <time>2020-06-18T15:58:30Z</time>
      </trkpt>
      <trkpt lat="50.1516" lon="1.58739">
        <ele>19.7</ele>
        <time>2020-06-18T15:58:31Z</time>
      </trkpt>
      <trkpt lat="50.15166" lon="1.58747">
        <ele>19.5</ele>
        <time>2020-06-18T15:58:32Z</time>
      </trkpt>
      <trkpt lat="50.15172" lon="1.58756">
        <ele>19.4</ele>
        <time>2020-06-18T15:58:33Z</time>
      </trkpt>
      <trkpt lat="50.15179" lon="1.58764">
        <ele>19.2</ele>
        <time>2020-06-18T15:58:34Z</time>
      </trkpt>
      <trkpt lat="50.15185" lon="1.58771">
        <ele>19.1</ele>
        <time>2020-06-18T15:58:35Z</time>
      </trkpt>
      <trkpt lat="50.15191" lon="1.58779">
        <ele>18.9</ele>
        <time>2020-06-18T15:58:36Z</time>
      </trkpt>
      <trkpt lat="50.15197" lon="1.58786">
        <ele>18.7</ele>
        <time>2020-06-18T15:58:37Z</time>
      </trkpt>
      <trkpt lat="50.15203" lon="1.58794">
        <ele>18.4</ele>
        <time>2020-06-18T15:58:38Z</time>
      </trkpt>
      <trkpt lat="50.15209" lon="1.58801">
        <ele>18.2</ele>
        <time>2020-06-18T15:58:39Z</time>
      </trkpt>
      <trkpt lat="50.15215" lon="1.58809">
        <ele>18.1</ele>
        <time>2020-06-18T15:58:40Z</time>
      </trkpt>
      <trkpt lat="50.15221" lon="1.58816">
        <ele>18</ele>
        <time>2020-06-18T15:58:41Z</time>
      </trkpt>
      <trkpt lat="50.15227" lon="1.58824">
        <ele>17.8</ele>
        <time>2020-06-18T15:58:42Z</time>
      </trkpt>
      <trkpt lat="50.15233" lon="1.58831">
        <ele>17.6</ele>
        <time>2020-06-18T15:58:43Z</time>
      </trkpt>
      <trkpt lat="50.15239" lon="1.58838">
        <ele>17.4</ele>
        <time>2020-06-18T15:58:44Z</time>
      </trkpt>
      <trkpt lat="50.15245" lon="1.58846">
        <ele>17.2</ele>
        <time>2020-06-18T15:58:45Z</time>
      </trkpt>
      <trkpt lat="50.15251" lon="1.58853">
        <ele>17</ele>
        <time>2020-06-18T15:58:46Z</time>
      </trkpt>
      <trkpt lat="50.15258" lon="1.58861">
        <ele>16.8</ele>
        <time>2020-06-18T15:58:47Z</time>
      </trkpt>
      <trkpt lat="50.15265" lon="1.58868">
        <ele>16.6</ele>
        <time>2020-06-18T15:58:48Z</time>
      </trkpt>
      <trkpt lat="50.15272" lon="1.58875">
        <ele>16.4</ele>
        <time>2020-06-18T15:58:49Z</time>
      </trkpt>
      <trkpt lat="50.15279" lon="1.58881">
        <ele>16.3</ele>
        <time>2020-06-18T15:58:50Z</time>
      </trkpt>
      <trkpt lat="50.15286" lon="1.58887">
        <ele>16.2</ele>
        <time>2020-06-18T15:58:51Z</time>
      </trkpt>
      <trkpt lat="50.15293" lon="1.58891">
        <ele>16.2</ele>
        <time>2020-06-18T15:58:52Z</time>
      </trkpt>
      <trkpt lat="50.15301" lon="1.58893">
        <ele>15.8</ele>
        <time>2020-06-18T15:58:53Z</time>
      </trkpt>
      <trkpt lat="50.15309" lon="1.58894">
        <ele>15.5</ele>
        <time>2020-06-18T15:58:54Z</time>
      </trkpt>
      <trkpt lat="50.15317" lon="1.58894">
        <ele>15.3</ele>
        <time>2020-06-18T15:58:55Z</time>
      </trkpt>
      <trkpt lat="50.15325" lon="1.58894">
        <ele>15.1</ele>
        <time>2020-06-18T15:58:56Z</time>
      </trkpt>
      <trkpt lat="50.15332" lon="1.58893">
        <ele>15</ele>
        <time>2020-06-18T15:58:57Z</time>
      </trkpt>
      <trkpt lat="50.1534" lon="1.58892">
        <ele>14.9</ele>
        <time>2020-06-18T15:58:58Z</time>
      </trkpt>
      <trkpt lat="50.15347" lon="1.58891">
        <ele>14.8</ele>
        <time>2020-06-18T15:58:59Z</time>
      </trkpt>
      <trkpt lat="50.15355" lon="1.58889">
        <ele>14.7</ele>
        <time>2020-06-18T15:59:00Z</time>
      </trkpt>
      <trkpt lat="50.15362" lon="1.58888">
        <ele>14.7</ele>
        <time>2020-06-18T15:59:01Z</time>
      </trkpt>
      <trkpt lat="50.1537" lon="1.58887">
        <ele>14.6</ele>
        <time>2020-06-18T15:59:02Z</time>
      </trkpt>
      <trkpt lat="50.15378" lon="1.58886">
        <ele>14.5</ele>
        <time>2020-06-18T15:59:03Z</time>
      </trkpt>
      <trkpt lat="50.15385" lon="1.58885">
        <ele>14.4</ele>
        <time>2020-06-18T15:59:04Z</time>
      </trkpt>
      <trkpt lat="50.15393" lon="1.58883">
        <ele>14.3</ele>
        <time>2020-06-18T15:59:05Z</time>
      </trkpt>
      <trkpt lat="50.154" lon="1.58882">
        <ele>14.2</ele>
        <time>2020-06-18T15:59:06Z</time>
      </trkpt>
      <trkpt lat="50.15408" lon="1.5888">
        <ele>14.2</ele>
        <time>2020-06-18T15:59:07Z</time>
      </trkpt>
      <trkpt lat="50.15415" lon="1.58878">
        <ele>14.2</ele>
        <time>2020-06-18T15:59:08Z</time>
      </trkpt>
      <trkpt lat="50.15423" lon="1.58878">
        <ele>14.2</ele>
        <time>2020-06-18T15:59:09Z</time>
      </trkpt>
      <trkpt lat="50.15431" lon="1.58878">
        <ele>14.1</ele>
        <time>2020-06-18T15:59:10Z</time>
      </trkpt>
      <trkpt lat="50.15438" lon="1.58876">
        <ele>14.1</ele>
        <time>2020-06-18T15:59:11Z</time>
      </trkpt>
      <trkpt lat="50.15446" lon="1.58876">
        <ele>14.1</ele>
        <time>2020-06-18T15:59:12Z</time>
      </trkpt>
      <trkpt lat="50.15454" lon="1.58874">
        <ele>14</ele>
        <time>2020-06-18T15:59:13Z</time>
      </trkpt>
      <trkpt lat="50.15461" lon="1.58873">
        <ele>14</ele>
        <time>2020-06-18T15:59:14Z</time>
      </trkpt>
      <trkpt lat="50.15469" lon="1.58873">
        <ele>13.9</ele>
        <time>2020-06-18T15:59:15Z</time>
      </trkpt>
      <trkpt lat="50.15476" lon="1.58872">
        <ele>13.8</ele>
        <time>2020-06-18T15:59:16Z</time>
      </trkpt>
      <trkpt lat="50.15483" lon="1.5887">
        <ele>13.8</ele>
        <time>2020-06-18T15:59:17Z</time>
      </trkpt>
      <trkpt lat="50.15491" lon="1.58869">
        <ele>13.7</ele>
        <time>2020-06-18T15:59:18Z</time>
      </trkpt>
      <trkpt lat="50.15498" lon="1.58867">
        <ele>13.7</ele>
        <time>2020-06-18T15:59:19Z</time>
      </trkpt>
      <trkpt lat="50.15505" lon="1.58867">
        <ele>13.7</ele>
        <time>2020-06-18T15:59:20Z</time>
      </trkpt>
      <trkpt lat="50.15512" lon="1.58866">
        <ele>13.6</ele>
        <time>2020-06-18T15:59:21Z</time>
      </trkpt>
      <trkpt lat="50.15519" lon="1.58864">
        <ele>13.6</ele>
        <time>2020-06-18T15:59:22Z</time>
      </trkpt>
      <trkpt lat="50.15527" lon="1.58863">
        <ele>13.5</ele>
        <time>2020-06-18T15:59:23Z</time>
      </trkpt>
      <trkpt lat="50.15534" lon="1.58862">
        <ele>13.5</ele>
        <time>2020-06-18T15:59:24Z</time>
      </trkpt>
      <trkpt lat="50.15541" lon="1.58861">
        <ele>13.5</ele>
        <time>2020-06-18T15:59:25Z</time>
      </trkpt>
      <trkpt lat="50.15547" lon="1.58859">
        <ele>13.5</ele>
        <time>2020-06-18T15:59:26Z</time>
      </trkpt>
      <trkpt lat="50.15554" lon="1.58858">
        <ele>13.5</ele>
        <time>2020-06-18T15:59:27Z</time>
      </trkpt>
      <trkpt lat="50.15561" lon="1.58858">
        <ele>13.5</ele>
        <time>2020-06-18T15:59:28Z</time>
      </trkpt>
      <trkpt lat="50.15568" lon="1.58856">
        <ele>13.5</ele>
        <time>2020-06-18T15:59:29Z</time>
      </trkpt>
      <trkpt lat="50.15575" lon="1.58855">
        <ele>13.5</ele>
        <time>2020-06-18T15:59:30Z</time>
      </trkpt>
      <trkpt lat="50.15582" lon="1.58854">
        <ele>13.5</ele>
        <time>2020-06-18T15:59:31Z</time>
      </trkpt>
      <trkpt lat="50.15589" lon="1.58853">
        <ele>13.4</ele>
        <time>2020-06-18T15:59:32Z</time>
      </trkpt>
      <trkpt lat="50.15596" lon="1.58852">
        <ele>13.4</ele>
        <time>2020-06-18T15:59:33Z</time>
      </trkpt>
      <trkpt lat="50.15603" lon="1.58851">
        <ele>13.3</ele>
        <time>2020-06-18T15:59:34Z</time>
      </trkpt>
      <trkpt lat="50.15611" lon="1.5885">
        <ele>13.3</ele>
        <time>2020-06-18T15:59:35Z</time>
      </trkpt>
      <trkpt lat="50.15618" lon="1.58849">
        <ele>13.3</ele>
        <time>2020-06-18T15:59:36Z</time>
      </trkpt>
      <trkpt lat="50.15625" lon="1.58847">
        <ele>13.3</ele>
        <time>2020-06-18T15:59:37Z</time>
      </trkpt>
      <trkpt lat="50.15632" lon="1.58847">
        <ele>13.2</ele>
        <time>2020-06-18T15:59:38Z</time>
      </trkpt>
      <trkpt lat="50.1564" lon="1.58845">
        <ele>13.2</ele>
        <time>2020-06-18T15:59:39Z</time>
      </trkpt>
      <trkpt lat="50.15647" lon="1.58844">
        <ele>13.2</ele>
        <time>2020-06-18T15:59:40Z</time>
      </trkpt>
      <trkpt lat="50.15655" lon="1.58843">
        <ele>13.1</ele>
        <time>2020-06-18T15:59:41Z</time>
      </trkpt>
      <trkpt lat="50.15662" lon="1.58843">
        <ele>13.1</ele>
        <time>2020-06-18T15:59:42Z</time>
      </trkpt>
      <trkpt lat="50.15669" lon="1.58842">
        <ele>13.1</ele>
        <time>2020-06-18T15:59:43Z</time>
      </trkpt>
      <trkpt lat="50.15677" lon="1.5884">
        <ele>13</ele>
        <time>2020-06-18T15:59:44Z</time>
      </trkpt>
      <trkpt lat="50.15684" lon="1.5884">
        <ele>13</ele>
        <time>2020-06-18T15:59:45Z</time>
      </trkpt>
      <trkpt lat="50.15691" lon="1.58839">
        <ele>13</ele>
        <time>2020-06-18T15:59:46Z</time>
      </trkpt>
      <trkpt lat="50.15698" lon="1.58838">
        <ele>13</ele>
        <time>2020-06-18T15:59:47Z</time>
      </trkpt>
      <trkpt lat="50.15705" lon="1.58837">
        <ele>13</ele>
        <time>2020-06-18T15:59:48Z</time>
      </trkpt>
      <trkpt lat="50.15712" lon="1.58836">
        <ele>12.8</ele>
        <time>2020-06-18T15:59:49Z</time>
      </trkpt>
      <trkpt lat="50.15719" lon="1.58835">
        <ele>12.6</ele>
        <time>2020-06-18T15:59:50Z</time>
      </trkpt>
      <trkpt lat="50.15726" lon="1.58835">
        <ele>11.9</ele>
        <time>2020-06-18T15:59:51Z</time>
      </trkpt>
      <trkpt lat="50.15733" lon="1.58833">
        <ele>11.2</ele>
        <time>2020-06-18T15:59:52Z</time>
      </trkpt>
      <trkpt lat="50.1574" lon="1.58832">
        <ele>11</ele>
        <time>2020-06-18T15:59:53Z</time>
      </trkpt>
      <trkpt lat="50.15747" lon="1.5883">
        <ele>10.9</ele>
        <time>2020-06-18T15:59:54Z</time>
      </trkpt>
      <trkpt lat="50.15754" lon="1.58829">
        <ele>10.8</ele>
        <time>2020-06-18T15:59:55Z</time>
      </trkpt>
      <trkpt lat="50.15761" lon="1.58827">
        <ele>10.7</ele>
        <time>2020-06-18T15:59:56Z</time>
      </trkpt>
      <trkpt lat="50.15769" lon="1.58826">
        <ele>10.5</ele>
        <time>2020-06-18T15:59:57Z</time>
      </trkpt>
      <trkpt lat="50.15776" lon="1.58824">
        <ele>10.4</ele>
        <time>2020-06-18T15:59:58Z</time>
      </trkpt>
      <trkpt lat="50.15784" lon="1.58824">
        <ele>10.3</ele>
        <time>2020-06-18T15:59:59Z</time>
      </trkpt>
      <trkpt lat="50.15792" lon="1.58826">
        <ele>10.2</ele>
        <time>2020-06-18T16:00:00Z</time>
      </trkpt>
      <trkpt lat="50.15799" lon="1.58826">
        <ele>10.2</ele>
        <time>2020-06-18T16:00:01Z</time>
      </trkpt>
      <trkpt lat="50.15806" lon="1.58825">
        <ele>10.2</ele>
        <time>2020-06-18T16:00:02Z</time>
      </trkpt>
      <trkpt lat="50.15813" lon="1.58823">
        <ele>10.1</ele>
        <time>2020-06-18T16:00:03Z</time>
      </trkpt>
      <trkpt lat="50.1582" lon="1.58822">
        <ele>10.1</ele>
        <time>2020-06-18T16:00:04Z</time>
      </trkpt>
      <trkpt lat="50.15827" lon="1.5882">
        <ele>10.1</ele>
        <time>2020-06-18T16:00:05Z</time>
      </trkpt>
      <trkpt lat="50.15834" lon="1.58818">
        <ele>10</ele>
        <time>2020-06-18T16:00:06Z</time>
      </trkpt>
      <trkpt lat="50.15841" lon="1.58818">
        <ele>10</ele>
        <time>2020-06-18T16:00:07Z</time>
      </trkpt>
      <trkpt lat="50.15848" lon="1.58817">
        <ele>10</ele>
        <time>2020-06-18T16:00:08Z</time>
      </trkpt>
      <trkpt lat="50.15855" lon="1.58816">
        <ele>10.1</ele>
        <time>2020-06-18T16:00:09Z</time>
      </trkpt>
      <trkpt lat="50.15862" lon="1.58815">
        <ele>10.2</ele>
        <time>2020-06-18T16:00:10Z</time>
      </trkpt>
      <trkpt lat="50.15868" lon="1.58815">
        <ele>10.1</ele>
        <time>2020-06-18T16:00:11Z</time>
      </trkpt>
      <trkpt lat="50.15875" lon="1.58813">
        <ele>10.1</ele>
        <time>2020-06-18T16:00:12Z</time>
      </trkpt>
      <trkpt lat="50.15882" lon="1.58812">
        <ele>10.1</ele>
        <time>2020-06-18T16:00:13Z</time>
      </trkpt>
      <trkpt lat="50.15889" lon="1.58812">
        <ele>10</ele>
        <time>2020-06-18T16:00:14Z</time>
      </trkpt>
      <trkpt lat="50.15897" lon="1.5881">
        <ele>9.9</ele>
        <time>2020-06-18T16:00:15Z</time>
      </trkpt>
      <trkpt lat="50.15904" lon="1.58808">
        <ele>9.8</ele>
        <time>2020-06-18T16:00:16Z</time>
      </trkpt>
      <trkpt lat="50.15911" lon="1.58806">
        <ele>9.7</ele>
        <time>2020-06-18T16:00:17Z</time>
      </trkpt>
      <trkpt lat="50.15918" lon="1.58804">
        <ele>9.5</ele>
        <time>2020-06-18T16:00:18Z</time>
      </trkpt>
      <trkpt lat="50.15925" lon="1.58803">
        <ele>9.3</ele>
        <time>2020-06-18T16:00:19Z</time>
      </trkpt>
      <trkpt lat="50.15933" lon="1.58801">
        <ele>9.2</ele>
        <time>2020-06-18T16:00:20Z</time>
      </trkpt>
      <trkpt lat="50.1594" lon="1.588">
        <ele>9.1</ele>
        <time>2020-06-18T16:00:21Z</time>
      </trkpt>
      <trkpt lat="50.15948" lon="1.588">
        <ele>9</ele>
        <time>2020-06-18T16:00:22Z</time>
      </trkpt>
      <trkpt lat="50.15955" lon="1.58798">
        <ele>8.9</ele>
        <time>2020-06-18T16:00:23Z</time>
      </trkpt>
      <trkpt lat="50.15962" lon="1.58795">
        <ele>8.8</ele>
        <time>2020-06-18T16:00:24Z</time>
      </trkpt>
      <trkpt lat="50.15969" lon="1.58794">
        <ele>8.7</ele>
        <time>2020-06-18T16:00:25Z</time>
      </trkpt>
      <trkpt lat="50.15976" lon="1.58794">
        <ele>8.6</ele>
        <time>2020-06-18T16:00:26Z</time>
      </trkpt>
      <trkpt lat="50.15984" lon="1.58794">
        <ele>8.5</ele>
        <time>2020-06-18T16:00:27Z</time>
      </trkpt>
      <trkpt lat="50.15991" lon="1.58793">
        <ele>8.5</ele>
        <time>2020-06-18T16:00:28Z</time>
      </trkpt>
      <trkpt lat="50.15998" lon="1.58792">
        <ele>8.4</ele>
        <time>2020-06-18T16:00:29Z</time>
      </trkpt>
      <trkpt lat="50.16005" lon="1.58791">
        <ele>8.3</ele>
        <time>2020-06-18T16:00:30Z</time>
      </trkpt>
      <trkpt lat="50.16012" lon="1.58791">
        <ele>8.2</ele>
        <time>2020-06-18T16:00:31Z</time>
      </trkpt>
      <trkpt lat="50.1602" lon="1.58788">
        <ele>8.2</ele>
        <time>2020-06-18T16:00:32Z</time>
      </trkpt>
      <trkpt lat="50.16027" lon="1.58787">
        <ele>8.1</ele>
        <time>2020-06-18T16:00:33Z</time>
      </trkpt>
      <trkpt lat="50.16035" lon="1.58787">
        <ele>8.1</ele>
        <time>2020-06-18T16:00:34Z</time>
      </trkpt>
      <trkpt lat="50.16042" lon="1.58786">
        <ele>8.1</ele>
        <time>2020-06-18T16:00:35Z</time>
      </trkpt>
      <trkpt lat="50.1605" lon="1.58785">
        <ele>8</ele>
        <time>2020-06-18T16:00:36Z</time>
      </trkpt>
      <trkpt lat="50.16057" lon="1.58783">
        <ele>8</ele>
        <time>2020-06-18T16:00:37Z</time>
      </trkpt>
      <trkpt lat="50.16064" lon="1.58782">
        <ele>7.9</ele>
        <time>2020-06-18T16:00:38Z</time>
      </trkpt>
      <trkpt lat="50.16072" lon="1.58781">
        <ele>7.9</ele>
        <time>2020-06-18T16:00:39Z</time>
      </trkpt>
      <trkpt lat="50.16079" lon="1.5878">
        <ele>7.8</ele>
        <time>2020-06-18T16:00:40Z</time>
      </trkpt>
      <trkpt lat="50.16086" lon="1.58779">
        <ele>7.7</ele>
        <time>2020-06-18T16:00:41Z</time>
      </trkpt>
      <trkpt lat="50.16093" lon="1.58779">
        <ele>7.7</ele>
        <time>2020-06-18T16:00:42Z</time>
      </trkpt>
      <trkpt lat="50.16101" lon="1.58777">
        <ele>7.7</ele>
        <time>2020-06-18T16:00:43Z</time>
      </trkpt>
      <trkpt lat="50.16108" lon="1.58775">
        <ele>7.5</ele>
        <time>2020-06-18T16:00:44Z</time>
      </trkpt>
      <trkpt lat="50.16115" lon="1.58774">
        <ele>7.1</ele>
        <time>2020-06-18T16:00:45Z</time>
      </trkpt>
      <trkpt lat="50.16123" lon="1.58773">
        <ele>6.8</ele>
        <time>2020-06-18T16:00:46Z</time>
      </trkpt>
      <trkpt lat="50.1613" lon="1.58772">
        <ele>6.7</ele>
        <time>2020-06-18T16:00:47Z</time>
      </trkpt>
      <trkpt lat="50.16137" lon="1.5877">
        <ele>6.6</ele>
        <time>2020-06-18T16:00:48Z</time>
      </trkpt>
      <trkpt lat="50.16144" lon="1.58769">
        <ele>6.5</ele>
        <time>2020-06-18T16:00:49Z</time>
      </trkpt>
      <trkpt lat="50.16152" lon="1.58768">
        <ele>6.5</ele>
        <time>2020-06-18T16:00:50Z</time>
      </trkpt>
      <trkpt lat="50.1616" lon="1.58767">
        <ele>6.4</ele>
        <time>2020-06-18T16:00:51Z</time>
      </trkpt>
      <trkpt lat="50.16167" lon="1.58767">
        <ele>6.4</ele>
        <time>2020-06-18T16:00:52Z</time>
      </trkpt>
      <trkpt lat="50.16174" lon="1.58765">
        <ele>6.3</ele>
        <time>2020-06-18T16:00:53Z</time>
      </trkpt>
      <trkpt lat="50.16182" lon="1.58763">
        <ele>6.2</ele>
        <time>2020-06-18T16:00:54Z</time>
      </trkpt>
      <trkpt lat="50.16189" lon="1.58762">
        <ele>6.2</ele>
        <time>2020-06-18T16:00:55Z</time>
      </trkpt>
      <trkpt lat="50.16197" lon="1.58761">
        <ele>6.2</ele>
        <time>2020-06-18T16:00:56Z</time>
      </trkpt>
      <trkpt lat="50.16204" lon="1.5876">
        <ele>6.2</ele>
        <time>2020-06-18T16:00:57Z</time>
      </trkpt>
      <trkpt lat="50.16211" lon="1.5876">
        <ele>6.3</ele>
        <time>2020-06-18T16:00:58Z</time>
      </trkpt>
      <trkpt lat="50.16218" lon="1.58761">
        <ele>6.3</ele>
        <time>2020-06-18T16:00:59Z</time>
      </trkpt>
      <trkpt lat="50.16224" lon="1.58763">
        <ele>6.3</ele>
        <time>2020-06-18T16:01:00Z</time>
      </trkpt>
      <trkpt lat="50.16229" lon="1.58767">
        <ele>6.3</ele>
        <time>2020-06-18T16:01:01Z</time>
      </trkpt>
      <trkpt lat="50.16233" lon="1.58773">
        <ele>6.3</ele>
        <time>2020-06-18T16:01:02Z</time>
      </trkpt>
      <trkpt lat="50.16234" lon="1.58782">
        <ele>6.3</ele>
        <time>2020-06-18T16:01:03Z</time>
      </trkpt>
      <trkpt lat="50.16236" lon="1.58792">
        <ele>6.3</ele>
        <time>2020-06-18T16:01:04Z</time>
      </trkpt>
      <trkpt lat="50.16238" lon="1.58802">
        <ele>6.3</ele>
        <time>2020-06-18T16:01:05Z</time>
      </trkpt>
      <trkpt lat="50.1624" lon="1.58812">
        <ele>6.3</ele>
        <time>2020-06-18T16:01:06Z</time>
      </trkpt>
      <trkpt lat="50.16241" lon="1.58822">
        <ele>6.1</ele>
        <time>2020-06-18T16:01:07Z</time>
      </trkpt>
      <trkpt lat="50.16243" lon="1.58832">
        <ele>6.1</ele>
        <time>2020-06-18T16:01:08Z</time>
      </trkpt>
      <trkpt lat="50.16245" lon="1.58843">
        <ele>6.1</ele>
        <time>2020-06-18T16:01:09Z</time>
      </trkpt>
      <trkpt lat="50.16247" lon="1.58853">
        <ele>6.1</ele>
        <time>2020-06-18T16:01:10Z</time>
      </trkpt>
      <trkpt lat="50.16248" lon="1.58864">
        <ele>6.2</ele>
        <time>2020-06-18T16:01:11Z</time>
      </trkpt>
      <trkpt lat="50.16249" lon="1.58875">
        <ele>6.3</ele>
        <time>2020-06-18T16:01:12Z</time>
      </trkpt>
      <trkpt lat="50.16251" lon="1.58885">
        <ele>6.3</ele>
        <time>2020-06-18T16:01:13Z</time>
      </trkpt>
      <trkpt lat="50.16251" lon="1.58897">
        <ele>6.4</ele>
        <time>2020-06-18T16:01:14Z</time>
      </trkpt>
      <trkpt lat="50.16254" lon="1.58907">
        <ele>6.5</ele>
        <time>2020-06-18T16:01:15Z</time>
      </trkpt>
      <trkpt lat="50.16256" lon="1.58917">
        <ele>6.5</ele>
        <time>2020-06-18T16:01:16Z</time>
      </trkpt>
      <trkpt lat="50.16256" lon="1.58928">
        <ele>6.6</ele>
        <time>2020-06-18T16:01:17Z</time>
      </trkpt>
      <trkpt lat="50.16257" lon="1.58939">
        <ele>6.8</ele>
        <time>2020-06-18T16:01:18Z</time>
      </trkpt>
      <trkpt lat="50.16259" lon="1.58949">
        <ele>6.9</ele>
        <time>2020-06-18T16:01:19Z</time>
      </trkpt>
      <trkpt lat="50.16261" lon="1.5896">
        <ele>7</ele>
        <time>2020-06-18T16:01:20Z</time>
      </trkpt>
      <trkpt lat="50.16263" lon="1.5897">
        <ele>7.1</ele>
        <time>2020-06-18T16:01:21Z</time>
      </trkpt>
      <trkpt lat="50.16265" lon="1.58981">
        <ele>7.1</ele>
        <time>2020-06-18T16:01:22Z</time>
      </trkpt>
      <trkpt lat="50.16267" lon="1.58991">
        <ele>7.2</ele>
        <time>2020-06-18T16:01:23Z</time>
      </trkpt>
      <trkpt lat="50.16269" lon="1.59002">
        <ele>7.3</ele>
        <time>2020-06-18T16:01:24Z</time>
      </trkpt>
      <trkpt lat="50.16271" lon="1.59012">
        <ele>7.5</ele>
        <time>2020-06-18T16:01:25Z</time>
      </trkpt>
      <trkpt lat="50.16273" lon="1.59023">
        <ele>7.6</ele>
        <time>2020-06-18T16:01:26Z</time>
      </trkpt>
      <trkpt lat="50.16275" lon="1.59033">
        <ele>7.7</ele>
        <time>2020-06-18T16:01:27Z</time>
      </trkpt>
      <trkpt lat="50.16277" lon="1.59044">
        <ele>7.8</ele>
        <time>2020-06-18T16:01:28Z</time>
      </trkpt>
      <trkpt lat="50.1628" lon="1.59054">
        <ele>7.9</ele>
        <time>2020-06-18T16:01:29Z</time>
      </trkpt>
      <trkpt lat="50.16283" lon="1.59063">
        <ele>7.9</ele>
        <time>2020-06-18T16:01:30Z</time>
      </trkpt>
      <trkpt lat="50.16286" lon="1.59073">
        <ele>8</ele>
        <time>2020-06-18T16:01:31Z</time>
      </trkpt>
      <trkpt lat="50.16289" lon="1.59083">
        <ele>8.1</ele>
        <time>2020-06-18T16:01:32Z</time>
      </trkpt>
      <trkpt lat="50.16292" lon="1.59093">
        <ele>8.2</ele>
        <time>2020-06-18T16:01:33Z</time>
      </trkpt>
      <trkpt lat="50.16294" lon="1.59104">
        <ele>8.3</ele>
        <time>2020-06-18T16:01:34Z</time>
      </trkpt>
      <trkpt lat="50.16297" lon="1.59114">
        <ele>8.4</ele>
        <time>2020-06-18T16:01:35Z</time>
      </trkpt>
      <trkpt lat="50.16301" lon="1.59123">
        <ele>8.5</ele>
        <time>2020-06-18T16:01:36Z</time>
      </trkpt>
      <trkpt lat="50.16305" lon="1.59133">
        <ele>8.5</ele>
        <time>2020-06-18T16:01:37Z</time>
      </trkpt>
      <trkpt lat="50.16308" lon="1.59143">
        <ele>8.6</ele>
        <time>2020-06-18T16:01:38Z</time>
      </trkpt>
      <trkpt lat="50.16312" lon="1.59154">
        <ele>8.6</ele>
        <time>2020-06-18T16:01:39Z</time>
      </trkpt>
      <trkpt lat="50.16315" lon="1.59164">
        <ele>8.7</ele>
        <time>2020-06-18T16:01:40Z</time>
      </trkpt>
      <trkpt lat="50.16319" lon="1.59173">
        <ele>8.8</ele>
        <time>2020-06-18T16:01:41Z</time>
      </trkpt>
      <trkpt lat="50.16323" lon="1.59183">
        <ele>8.8</ele>
        <time>2020-06-18T16:01:42Z</time>
      </trkpt>
      <trkpt lat="50.16327" lon="1.59193">
        <ele>8.8</ele>
        <time>2020-06-18T16:01:43Z</time>
      </trkpt>
      <trkpt lat="50.1633" lon="1.59203">
        <ele>8.6</ele>
        <time>2020-06-18T16:01:44Z</time>
      </trkpt>
      <trkpt lat="50.16334" lon="1.59213">
        <ele>8.5</ele>
        <time>2020-06-18T16:01:45Z</time>
      </trkpt>
      <trkpt lat="50.16337" lon="1.59223">
        <ele>8.4</ele>
        <time>2020-06-18T16:01:46Z</time>
      </trkpt>
      <trkpt lat="50.16341" lon="1.59233">
        <ele>8.4</ele>
        <time>2020-06-18T16:01:47Z</time>
      </trkpt>
      <trkpt lat="50.16344" lon="1.59243">
        <ele>8.3</ele>
        <time>2020-06-18T16:01:48Z</time>
      </trkpt>
      <trkpt lat="50.16347" lon="1.59254">
        <ele>8.2</ele>
        <time>2020-06-18T16:01:49Z</time>
      </trkpt>
      <trkpt lat="50.16351" lon="1.59263">
        <ele>8.2</ele>
        <time>2020-06-18T16:01:50Z</time>
      </trkpt>
      <trkpt lat="50.16355" lon="1.59273">
        <ele>8.2</ele>
        <time>2020-06-18T16:01:51Z</time>
      </trkpt>
      <trkpt lat="50.16359" lon="1.59283">
        <ele>8.1</ele>
        <time>2020-06-18T16:01:52Z</time>
      </trkpt>
      <trkpt lat="50.16363" lon="1.59294">
        <ele>8.2</ele>
        <time>2020-06-18T16:01:53Z</time>
      </trkpt>
      <trkpt lat="50.16366" lon="1.59304">
        <ele>8.2</ele>
        <time>2020-06-18T16:01:54Z</time>
      </trkpt>
      <trkpt lat="50.1637" lon="1.59314">
        <ele>8</ele>
        <time>2020-06-18T16:01:55Z</time>
      </trkpt>
      <trkpt lat="50.16373" lon="1.59324">
        <ele>7.9</ele>
        <time>2020-06-18T16:01:56Z</time>
      </trkpt>
      <trkpt lat="50.16377" lon="1.59334">
        <ele>7.8</ele>
        <time>2020-06-18T16:01:57Z</time>
      </trkpt>
      <trkpt lat="50.16381" lon="1.59344">
        <ele>7.7</ele>
        <time>2020-06-18T16:01:58Z</time>
      </trkpt>
      <trkpt lat="50.16385" lon="1.59354">
        <ele>7.7</ele>
        <time>2020-06-18T16:01:59Z</time>
      </trkpt>
      <trkpt lat="50.16389" lon="1.59365">
        <ele>7.6</ele>
        <time>2020-06-18T16:02:00Z</time>
      </trkpt>
      <trkpt lat="50.16393" lon="1.59375">
        <ele>7.6</ele>
        <time>2020-06-18T16:02:01Z</time>
      </trkpt>
      <trkpt lat="50.16396" lon="1.59385">
        <ele>7.6</ele>
        <time>2020-06-18T16:02:02Z</time>
      </trkpt>
      <trkpt lat="50.164" lon="1.59395">
        <ele>7.5</ele>
        <time>2020-06-18T16:02:03Z</time>
      </trkpt>
      <trkpt lat="50.16404" lon="1.59405">
        <ele>7.5</ele>
        <time>2020-06-18T16:02:04Z</time>
      </trkpt>
      <trkpt lat="50.16408" lon="1.59416">
        <ele>7.5</ele>
        <time>2020-06-18T16:02:05Z</time>
      </trkpt>
      <trkpt lat="50.16412" lon="1.59426">
        <ele>7.5</ele>
        <time>2020-06-18T16:02:06Z</time>
      </trkpt>
      <trkpt lat="50.16416" lon="1.59436">
        <ele>7.5</ele>
        <time>2020-06-18T16:02:07Z</time>
      </trkpt>
      <trkpt lat="50.16419" lon="1.59447">
        <ele>7.4</ele>
        <time>2020-06-18T16:02:08Z</time>
      </trkpt>
      <trkpt lat="50.16423" lon="1.59457">
        <ele>7.3</ele>
        <time>2020-06-18T16:02:09Z</time>
      </trkpt>
      <trkpt lat="50.16428" lon="1.59467">
        <ele>7.2</ele>
        <time>2020-06-18T16:02:10Z</time>
      </trkpt>
      <trkpt lat="50.16432" lon="1.59477">
        <ele>7.1</ele>
        <time>2020-06-18T16:02:11Z</time>
      </trkpt>
      <trkpt lat="50.16437" lon="1.59487">
        <ele>7.1</ele>
        <time>2020-06-18T16:02:12Z</time>
      </trkpt>
      <trkpt lat="50.16441" lon="1.59497">
        <ele>7</ele>
        <time>2020-06-18T16:02:13Z</time>
      </trkpt>
      <trkpt lat="50.16446" lon="1.59506">
        <ele>7</ele>
        <time>2020-06-18T16:02:14Z</time>
      </trkpt>
      <trkpt lat="50.16451" lon="1.59517">
        <ele>6.9</ele>
        <time>2020-06-18T16:02:15Z</time>
      </trkpt>
      <trkpt lat="50.16456" lon="1.59526">
        <ele>6.8</ele>
        <time>2020-06-18T16:02:16Z</time>
      </trkpt>
      <trkpt lat="50.16462" lon="1.59535">
        <ele>6.7</ele>
        <time>2020-06-18T16:02:17Z</time>
      </trkpt>
      <trkpt lat="50.16468" lon="1.59544">
        <ele>6.7</ele>
        <time>2020-06-18T16:02:18Z</time>
      </trkpt>
      <trkpt lat="50.16473" lon="1.59554">
        <ele>6.7</ele>
        <time>2020-06-18T16:02:19Z</time>
      </trkpt>
      <trkpt lat="50.16478" lon="1.59562">
        <ele>6.7</ele>
        <time>2020-06-18T16:02:20Z</time>
      </trkpt>
      <trkpt lat="50.16484" lon="1.59571">
        <ele>6.6</ele>
        <time>2020-06-18T16:02:21Z</time>
      </trkpt>
      <trkpt lat="50.16489" lon="1.5958">
        <ele>6.7</ele>
        <time>2020-06-18T16:02:22Z</time>
      </trkpt>
      <trkpt lat="50.16494" lon="1.59588">
        <ele>6.8</ele>
        <time>2020-06-18T16:02:23Z</time>
      </trkpt>
      <trkpt lat="50.16499" lon="1.59597">
        <ele>7</ele>
        <time>2020-06-18T16:02:24Z</time>
      </trkpt>
      <trkpt lat="50.16505" lon="1.59605">
        <ele>6.9</ele>
        <time>2020-06-18T16:02:25Z</time>
      </trkpt>
      <trkpt lat="50.16511" lon="1.59612">
        <ele>6.8</ele>
        <time>2020-06-18T16:02:26Z</time>
      </trkpt>
      <trkpt lat="50.16517" lon="1.5962">
        <ele>6.8</ele>
        <time>2020-06-18T16:02:27Z</time>
      </trkpt>
      <trkpt lat="50.16522" lon="1.59628">
        <ele>6.8</ele>
        <time>2020-06-18T16:02:28Z</time>
      </trkpt>
      <trkpt lat="50.16528" lon="1.59635">
        <ele>6.9</ele>
        <time>2020-06-18T16:02:29Z</time>
      </trkpt>
      <trkpt lat="50.16534" lon="1.59643">
        <ele>6.9</ele>
        <time>2020-06-18T16:02:30Z</time>
      </trkpt>
      <trkpt lat="50.16539" lon="1.5965">
        <ele>7</ele>
        <time>2020-06-18T16:02:31Z</time>
      </trkpt>
      <trkpt lat="50.16544" lon="1.59658">
        <ele>7.1</ele>
        <time>2020-06-18T16:02:32Z</time>
      </trkpt>
      <trkpt lat="50.1655" lon="1.59665">
        <ele>7.2</ele>
        <time>2020-06-18T16:02:33Z</time>
      </trkpt>
      <trkpt lat="50.16556" lon="1.59672">
        <ele>7.4</ele>
        <time>2020-06-18T16:02:34Z</time>
      </trkpt>
      <trkpt lat="50.16561" lon="1.59679">
        <ele>7.5</ele>
        <time>2020-06-18T16:02:35Z</time>
      </trkpt>
      <trkpt lat="50.16567" lon="1.59686">
        <ele>7.6</ele>
        <time>2020-06-18T16:02:36Z</time>
      </trkpt>
      <trkpt lat="50.16572" lon="1.59692">
        <ele>7.8</ele>
        <time>2020-06-18T16:02:37Z</time>
      </trkpt>
      <trkpt lat="50.16577" lon="1.59699">
        <ele>7.9</ele>
        <time>2020-06-18T16:02:38Z</time>
      </trkpt>
      <trkpt lat="50.16583" lon="1.59706">
        <ele>8</ele>
        <time>2020-06-18T16:02:39Z</time>
      </trkpt>
      <trkpt lat="50.16588" lon="1.59712">
        <ele>8.1</ele>
        <time>2020-06-18T16:02:40Z</time>
      </trkpt>
      <trkpt lat="50.16594" lon="1.59718">
        <ele>8.2</ele>
        <time>2020-06-18T16:02:41Z</time>
      </trkpt>
      <trkpt lat="50.16599" lon="1.59725">
        <ele>8.3</ele>
        <time>2020-06-18T16:02:42Z</time>
      </trkpt>
      <trkpt lat="50.16604" lon="1.59732">
        <ele>8.4</ele>
        <time>2020-06-18T16:02:43Z</time>
      </trkpt>
      <trkpt lat="50.16609" lon="1.59739">
        <ele>8.6</ele>
        <time>2020-06-18T16:02:44Z</time>
      </trkpt>
      <trkpt lat="50.16615" lon="1.59745">
        <ele>8.7</ele>
        <time>2020-06-18T16:02:45Z</time>
      </trkpt>
      <trkpt lat="50.1662" lon="1.59751">
        <ele>8.8</ele>
        <time>2020-06-18T16:02:46Z</time>
      </trkpt>
      <trkpt lat="50.16626" lon="1.59758">
        <ele>8.9</ele>
        <time>2020-06-18T16:02:47Z</time>
      </trkpt>
      <trkpt lat="50.16631" lon="1.59764">
        <ele>9</ele>
        <time>2020-06-18T16:02:48Z</time>
      </trkpt>
      <trkpt lat="50.16636" lon="1.59771">
        <ele>9.1</ele>
        <time>2020-06-18T16:02:49Z</time>
      </trkpt>
      <trkpt lat="50.16641" lon="1.59777">
        <ele>9.1</ele>
        <time>2020-06-18T16:02:50Z</time>
      </trkpt>
      <trkpt lat="50.16647" lon="1.59784">
        <ele>9.3</ele>
        <time>2020-06-18T16:02:51Z</time>
      </trkpt>
      <trkpt lat="50.16651" lon="1.59791">
        <ele>9.4</ele>
        <time>2020-06-18T16:02:52Z</time>
      </trkpt>
      <trkpt lat="50.16657" lon="1.59796">
        <ele>9.5</ele>
        <time>2020-06-18T16:02:53Z</time>
      </trkpt>
      <trkpt lat="50.16661" lon="1.59802">
        <ele>9.6</ele>
        <time>2020-06-18T16:02:54Z</time>
      </trkpt>
      <trkpt lat="50.16666" lon="1.59809">
        <ele>9.7</ele>
        <time>2020-06-18T16:02:55Z</time>
      </trkpt>
      <trkpt lat="50.16671" lon="1.59814">
        <ele>9.8</ele>
        <time>2020-06-18T16:02:56Z</time>
      </trkpt>
      <trkpt lat="50.16676" lon="1.59821">
        <ele>9.9</ele>
        <time>2020-06-18T16:02:57Z</time>
      </trkpt>
      <trkpt lat="50.16681" lon="1.59827">
        <ele>10</ele>
        <time>2020-06-18T16:02:58Z</time>
      </trkpt>
      <trkpt lat="50.16685" lon="1.59833">
        <ele>10</ele>
        <time>2020-06-18T16:02:59Z</time>
      </trkpt>
      <trkpt lat="50.16689" lon="1.59839">
        <ele>10.1</ele>
        <time>2020-06-18T16:03:00Z</time>
      </trkpt>
      <trkpt lat="50.16694" lon="1.59844">
        <ele>10.2</ele>
        <time>2020-06-18T16:03:01Z</time>
      </trkpt>
      <trkpt lat="50.16699" lon="1.5985">
        <ele>10.3</ele>
        <time>2020-06-18T16:03:02Z</time>
      </trkpt>
      <trkpt lat="50.16704" lon="1.59855">
        <ele>10.4</ele>
        <time>2020-06-18T16:03:03Z</time>
      </trkpt>
      <trkpt lat="50.16708" lon="1.5986">
        <ele>10.6</ele>
        <time>2020-06-18T16:03:04Z</time>
      </trkpt>
      <trkpt lat="50.16713" lon="1.59865">
        <ele>10.7</ele>
        <time>2020-06-18T16:03:05Z</time>
      </trkpt>
      <trkpt lat="50.16716" lon="1.59871">
        <ele>10.8</ele>
        <time>2020-06-18T16:03:06Z</time>
      </trkpt>
      <trkpt lat="50.16721" lon="1.59876">
        <ele>10.9</ele>
        <time>2020-06-18T16:03:07Z</time>
      </trkpt>
      <trkpt lat="50.16725" lon="1.59881">
        <ele>10.9</ele>
        <time>2020-06-18T16:03:08Z</time>
      </trkpt>
      <trkpt lat="50.16728" lon="1.59886">
        <ele>10.9</ele>
        <time>2020-06-18T16:03:09Z</time>
      </trkpt>
      <trkpt lat="50.16732" lon="1.59891">
        <ele>11</ele>
        <time>2020-06-18T16:03:10Z</time>
      </trkpt>
      <trkpt lat="50.16736" lon="1.59896">
        <ele>11</ele>
        <time>2020-06-18T16:03:11Z</time>
      </trkpt>
      <trkpt lat="50.16741" lon="1.59901">
        <ele>11</ele>
        <time>2020-06-18T16:03:12Z</time>
      </trkpt>
      <trkpt lat="50.16745" lon="1.59909">
        <ele>11.1</ele>
        <time>2020-06-18T16:03:13Z</time>
      </trkpt>
      <trkpt lat="50.1675" lon="1.59916">
        <ele>11.1</ele>
        <time>2020-06-18T16:03:14Z</time>
      </trkpt>
      <trkpt lat="50.16755" lon="1.59922">
        <ele>11.1</ele>
        <time>2020-06-18T16:03:15Z</time>
      </trkpt>
      <trkpt lat="50.1676" lon="1.59929">
        <ele>11.1</ele>
        <time>2020-06-18T16:03:16Z</time>
      </trkpt>
      <trkpt lat="50.16764" lon="1.59935">
        <ele>11.1</ele>
        <time>2020-06-18T16:03:17Z</time>
      </trkpt>
      <trkpt lat="50.16768" lon="1.5994">
        <ele>11.1</ele>
        <time>2020-06-18T16:03:18Z</time>
      </trkpt>
      <trkpt lat="50.16772" lon="1.59944">
        <ele>11.1</ele>
        <time>2020-06-18T16:03:19Z</time>
      </trkpt>
      <trkpt lat="50.16777" lon="1.5995">
        <ele>11</ele>
        <time>2020-06-18T16:03:20Z</time>
      </trkpt>
      <trkpt lat="50.16782" lon="1.59956">
        <ele>10.9</ele>
        <time>2020-06-18T16:03:21Z</time>
      </trkpt>
      <trkpt lat="50.16787" lon="1.59963">
        <ele>10.9</ele>
        <time>2020-06-18T16:03:22Z</time>
      </trkpt>
      <trkpt lat="50.16792" lon="1.59969">
        <ele>10.8</ele>
        <time>2020-06-18T16:03:23Z</time>
      </trkpt>
      <trkpt lat="50.16796" lon="1.59974">
        <ele>10.7</ele>
        <time>2020-06-18T16:03:24Z</time>
      </trkpt>
      <trkpt lat="50.16801" lon="1.5998">
        <ele>10.7</ele>
        <time>2020-06-18T16:03:25Z</time>
      </trkpt>
      <trkpt lat="50.16806" lon="1.59987">
        <ele>10.6</ele>
        <time>2020-06-18T16:03:26Z</time>
      </trkpt>
      <trkpt lat="50.16812" lon="1.59993">
        <ele>10.6</ele>
        <time>2020-06-18T16:03:27Z</time>
      </trkpt>
      <trkpt lat="50.16816" lon="1.59999">
        <ele>10.6</ele>
        <time>2020-06-18T16:03:28Z</time>
      </trkpt>
      <trkpt lat="50.16821" lon="1.60005">
        <ele>10.6</ele>
        <time>2020-06-18T16:03:29Z</time>
      </trkpt>
      <trkpt lat="50.16826" lon="1.60011">
        <ele>10.6</ele>
        <time>2020-06-18T16:03:30Z</time>
      </trkpt>
      <trkpt lat="50.1683" lon="1.60017">
        <ele>10.5</ele>
        <time>2020-06-18T16:03:31Z</time>
      </trkpt>
      <trkpt lat="50.16834" lon="1.60024">
        <ele>10.5</ele>
        <time>2020-06-18T16:03:32Z</time>
      </trkpt>
      <trkpt lat="50.16839" lon="1.6003">
        <ele>10.5</ele>
        <time>2020-06-18T16:03:33Z</time>
      </trkpt>
      <trkpt lat="50.16844" lon="1.60037">
        <ele>10.4</ele>
        <time>2020-06-18T16:03:34Z</time>
      </trkpt>
      <trkpt lat="50.16849" lon="1.60043">
        <ele>10.4</ele>
        <time>2020-06-18T16:03:35Z</time>
      </trkpt>
      <trkpt lat="50.16854" lon="1.6005">
        <ele>10.3</ele>
        <time>2020-06-18T16:03:36Z</time>
      </trkpt>
      <trkpt lat="50.16858" lon="1.60056">
        <ele>10.3</ele>
        <time>2020-06-18T16:03:37Z</time>
      </trkpt>
      <trkpt lat="50.16863" lon="1.60063">
        <ele>10.3</ele>
        <time>2020-06-18T16:03:38Z</time>
      </trkpt>
      <trkpt lat="50.16868" lon="1.60069">
        <ele>10.2</ele>
        <time>2020-06-18T16:03:39Z</time>
      </trkpt>
      <trkpt lat="50.16873" lon="1.60076">
        <ele>10.1</ele>
        <time>2020-06-18T16:03:40Z</time>
      </trkpt>
      <trkpt lat="50.16878" lon="1.60083">
        <ele>10.1</ele>
        <time>2020-06-18T16:03:41Z</time>
      </trkpt>
      <trkpt lat="50.16882" lon="1.6009">
        <ele>10</ele>
        <time>2020-06-18T16:03:42Z</time>
      </trkpt>
      <trkpt lat="50.16887" lon="1.60097">
        <ele>10</ele>
        <time>2020-06-18T16:03:43Z</time>
      </trkpt>
      <trkpt lat="50.16892" lon="1.60105">
        <ele>9.9</ele>
        <time>2020-06-18T16:03:44Z</time>
      </trkpt>
      <trkpt lat="50.16897" lon="1.60112">
        <ele>9.9</ele>
        <time>2020-06-18T16:03:45Z</time>
      </trkpt>
      <trkpt lat="50.16902" lon="1.60119">
        <ele>9.8</ele>
        <time>2020-06-18T16:03:46Z</time>
      </trkpt>
      <trkpt lat="50.16907" lon="1.60127">
        <ele>9.8</ele>
        <time>2020-06-18T16:03:47Z</time>
      </trkpt>
      <trkpt lat="50.16912" lon="1.60134">
        <ele>9.7</ele>
        <time>2020-06-18T16:03:48Z</time>
      </trkpt>
      <trkpt lat="50.16917" lon="1.60142">
        <ele>9.7</ele>
        <time>2020-06-18T16:03:49Z</time>
      </trkpt>
      <trkpt lat="50.16922" lon="1.6015">
        <ele>9.7</ele>
        <time>2020-06-18T16:03:50Z</time>
      </trkpt>
      <trkpt lat="50.16927" lon="1.60158">
        <ele>9.6</ele>
        <time>2020-06-18T16:03:51Z</time>
      </trkpt>
      <trkpt lat="50.16933" lon="1.60165">
        <ele>9.6</ele>
        <time>2020-06-18T16:03:52Z</time>
      </trkpt>
      <trkpt lat="50.16938" lon="1.60173">
        <ele>9.6</ele>
        <time>2020-06-18T16:03:53Z</time>
      </trkpt>
      <trkpt lat="50.16943" lon="1.60181">
        <ele>9.6</ele>
        <time>2020-06-18T16:03:54Z</time>
      </trkpt>
      <trkpt lat="50.16949" lon="1.60189">
        <ele>9.5</ele>
        <time>2020-06-18T16:03:55Z</time>
      </trkpt>
      <trkpt lat="50.16954" lon="1.60197">
        <ele>9.4</ele>
        <time>2020-06-18T16:03:56Z</time>
      </trkpt>
      <trkpt lat="50.1696" lon="1.60205">
        <ele>9.4</ele>
        <time>2020-06-18T16:03:57Z</time>
      </trkpt>
      <trkpt lat="50.16965" lon="1.60213">
        <ele>9.3</ele>
        <time>2020-06-18T16:03:58Z</time>
      </trkpt>
      <trkpt lat="50.1697" lon="1.60221">
        <ele>9.3</ele>
        <time>2020-06-18T16:03:59Z</time>
      </trkpt>
      <trkpt lat="50.16975" lon="1.60229">
        <ele>9.3</ele>
        <time>2020-06-18T16:04:00Z</time>
      </trkpt>
      <trkpt lat="50.1698" lon="1.60237">
        <ele>9.2</ele>
        <time>2020-06-18T16:04:01Z</time>
      </trkpt>
      <trkpt lat="50.16985" lon="1.60245">
        <ele>9.2</ele>
        <time>2020-06-18T16:04:02Z</time>
      </trkpt>
      <trkpt lat="50.1699" lon="1.60253">
        <ele>9.2</ele>
        <time>2020-06-18T16:04:03Z</time>
      </trkpt>
      <trkpt lat="50.16995" lon="1.60261">
        <ele>9.1</ele>
        <time>2020-06-18T16:04:04Z</time>
      </trkpt>
      <trkpt lat="50.17" lon="1.60269">
        <ele>9.1</ele>
        <time>2020-06-18T16:04:05Z</time>
      </trkpt>
      <trkpt lat="50.17005" lon="1.60277">
        <ele>9.1</ele>
        <time>2020-06-18T16:04:06Z</time>
      </trkpt>
      <trkpt lat="50.1701" lon="1.60284">
        <ele>9</ele>
        <time>2020-06-18T16:04:07Z</time>
      </trkpt>
      <trkpt lat="50.17015" lon="1.60292">
        <ele>9</ele>
        <time>2020-06-18T16:04:08Z</time>
      </trkpt>
      <trkpt lat="50.1702" lon="1.603">
        <ele>8.9</ele>
        <time>2020-06-18T16:04:09Z</time>
      </trkpt>
      <trkpt lat="50.17026" lon="1.60309">
        <ele>8.9</ele>
        <time>2020-06-18T16:04:10Z</time>
      </trkpt>
      <trkpt lat="50.17031" lon="1.60317">
        <ele>8.8</ele>
        <time>2020-06-18T16:04:11Z</time>
      </trkpt>
      <trkpt lat="50.17036" lon="1.60324">
        <ele>8.8</ele>
        <time>2020-06-18T16:04:12Z</time>
      </trkpt>
      <trkpt lat="50.17041" lon="1.60332">
        <ele>8.7</ele>
        <time>2020-06-18T16:04:13Z</time>
      </trkpt>
      <trkpt lat="50.17046" lon="1.6034">
        <ele>8.7</ele>
        <time>2020-06-18T16:04:14Z</time>
      </trkpt>
      <trkpt lat="50.17051" lon="1.60348">
        <ele>8.7</ele>
        <time>2020-06-18T16:04:15Z</time>
      </trkpt>
      <trkpt lat="50.17056" lon="1.60357">
        <ele>8.7</ele>
        <time>2020-06-18T16:04:16Z</time>
      </trkpt>
      <trkpt lat="50.17062" lon="1.60365">
        <ele>8.6</ele>
        <time>2020-06-18T16:04:17Z</time>
      </trkpt>
      <trkpt lat="50.17067" lon="1.60373">
        <ele>8.5</ele>
        <time>2020-06-18T16:04:18Z</time>
      </trkpt>
      <trkpt lat="50.17072" lon="1.60381">
        <ele>8.4</ele>
        <time>2020-06-18T16:04:19Z</time>
      </trkpt>
      <trkpt lat="50.17078" lon="1.60389">
        <ele>8.3</ele>
        <time>2020-06-18T16:04:20Z</time>
      </trkpt>
      <trkpt lat="50.17083" lon="1.60398">
        <ele>8.3</ele>
        <time>2020-06-18T16:04:21Z</time>
      </trkpt>
      <trkpt lat="50.17089" lon="1.60406">
        <ele>8.3</ele>
        <time>2020-06-18T16:04:22Z</time>
      </trkpt>
      <trkpt lat="50.17094" lon="1.60415">
        <ele>8.3</ele>
        <time>2020-06-18T16:04:23Z</time>
      </trkpt>
      <trkpt lat="50.17099" lon="1.60424">
        <ele>8.3</ele>
        <time>2020-06-18T16:04:24Z</time>
      </trkpt>
      <trkpt lat="50.17104" lon="1.60432">
        <ele>8.4</ele>
        <time>2020-06-18T16:04:25Z</time>
      </trkpt>
      <trkpt lat="50.1711" lon="1.60441">
        <ele>8.6</ele>
        <time>2020-06-18T16:04:26Z</time>
      </trkpt>
      <trkpt lat="50.17115" lon="1.6045">
        <ele>8.7</ele>
        <time>2020-06-18T16:04:27Z</time>
      </trkpt>
      <trkpt lat="50.1712" lon="1.60459">
        <ele>8.7</ele>
        <time>2020-06-18T16:04:28Z</time>
      </trkpt>
      <trkpt lat="50.17125" lon="1.60467">
        <ele>8.6</ele>
        <time>2020-06-18T16:04:29Z</time>
      </trkpt>
      <trkpt lat="50.1713" lon="1.60476">
        <ele>8.6</ele>
        <time>2020-06-18T16:04:30Z</time>
      </trkpt>
      <trkpt lat="50.17136" lon="1.60485">
        <ele>8.5</ele>
        <time>2020-06-18T16:04:31Z</time>
      </trkpt>
      <trkpt lat="50.17141" lon="1.60493">
        <ele>8.5</ele>
        <time>2020-06-18T16:04:32Z</time>
      </trkpt>
      <trkpt lat="50.17147" lon="1.60502">
        <ele>8.5</ele>
        <time>2020-06-18T16:04:33Z</time>
      </trkpt>
      <trkpt lat="50.17152" lon="1.6051">
        <ele>8.5</ele>
        <time>2020-06-18T16:04:34Z</time>
      </trkpt>
      <trkpt lat="50.17157" lon="1.60518">
        <ele>8.5</ele>
        <time>2020-06-18T16:04:35Z</time>
      </trkpt>
      <trkpt lat="50.17162" lon="1.60527">
        <ele>8.4</ele>
        <time>2020-06-18T16:04:36Z</time>
      </trkpt>
      <trkpt lat="50.17167" lon="1.60536">
        <ele>8.4</ele>
        <time>2020-06-18T16:04:37Z</time>
      </trkpt>
      <trkpt lat="50.17172" lon="1.60545">
        <ele>8.4</ele>
        <time>2020-06-18T16:04:38Z</time>
      </trkpt>
      <trkpt lat="50.17177" lon="1.60554">
        <ele>8.3</ele>
        <time>2020-06-18T16:04:39Z</time>
      </trkpt>
      <trkpt lat="50.17182" lon="1.60563">
        <ele>8.3</ele>
        <time>2020-06-18T16:04:40Z</time>
      </trkpt>
      <trkpt lat="50.17188" lon="1.60571">
        <ele>8.3</ele>
        <time>2020-06-18T16:04:41Z</time>
      </trkpt>
      <trkpt lat="50.17193" lon="1.6058">
        <ele>8.3</ele>
        <time>2020-06-18T16:04:42Z</time>
      </trkpt>
      <trkpt lat="50.17199" lon="1.60589">
        <ele>8.3</ele>
        <time>2020-06-18T16:04:43Z</time>
      </trkpt>
      <trkpt lat="50.17204" lon="1.60598">
        <ele>8.3</ele>
        <time>2020-06-18T16:04:44Z</time>
      </trkpt>
      <trkpt lat="50.17209" lon="1.60607">
        <ele>8.2</ele>
        <time>2020-06-18T16:04:45Z</time>
      </trkpt>
      <trkpt lat="50.17214" lon="1.60616">
        <ele>8.2</ele>
        <time>2020-06-18T16:04:46Z</time>
      </trkpt>
      <trkpt lat="50.1722" lon="1.60625">
        <ele>8.2</ele>
        <time>2020-06-18T16:04:47Z</time>
      </trkpt>
      <trkpt lat="50.17225" lon="1.60634">
        <ele>8.2</ele>
        <time>2020-06-18T16:04:48Z</time>
      </trkpt>
      <trkpt lat="50.17231" lon="1.60643">
        <ele>8.2</ele>
        <time>2020-06-18T16:04:49Z</time>
      </trkpt>
      <trkpt lat="50.17237" lon="1.60652">
        <ele>8.2</ele>
        <time>2020-06-18T16:04:50Z</time>
      </trkpt>
      <trkpt lat="50.17242" lon="1.60661">
        <ele>8.2</ele>
        <time>2020-06-18T16:04:51Z</time>
      </trkpt>
      <trkpt lat="50.17248" lon="1.60669">
        <ele>8.3</ele>
        <time>2020-06-18T16:04:52Z</time>
      </trkpt>
      <trkpt lat="50.17253" lon="1.60678">
        <ele>8.3</ele>
        <time>2020-06-18T16:04:53Z</time>
      </trkpt>
      <trkpt lat="50.17258" lon="1.60688">
        <ele>8.3</ele>
        <time>2020-06-18T16:04:54Z</time>
      </trkpt>
      <trkpt lat="50.17263" lon="1.60697">
        <ele>8.3</ele>
        <time>2020-06-18T16:04:55Z</time>
      </trkpt>
      <trkpt lat="50.17269" lon="1.60707">
        <ele>8.3</ele>
        <time>2020-06-18T16:04:56Z</time>
      </trkpt>
      <trkpt lat="50.17274" lon="1.60716">
        <ele>8.3</ele>
        <time>2020-06-18T16:04:57Z</time>
      </trkpt>
      <trkpt lat="50.17279" lon="1.60725">
        <ele>8.3</ele>
        <time>2020-06-18T16:04:58Z</time>
      </trkpt>
      <trkpt lat="50.17284" lon="1.60734">
        <ele>8.3</ele>
        <time>2020-06-18T16:04:59Z</time>
      </trkpt>
      <trkpt lat="50.1729" lon="1.60743">
        <ele>8.3</ele>
        <time>2020-06-18T16:05:00Z</time>
      </trkpt>
      <trkpt lat="50.17295" lon="1.60751">
        <ele>8.3</ele>
        <time>2020-06-18T16:05:01Z</time>
      </trkpt>
      <trkpt lat="50.17301" lon="1.6076">
        <ele>8.4</ele>
        <time>2020-06-18T16:05:02Z</time>
      </trkpt>
      <trkpt lat="50.17306" lon="1.60769">
        <ele>8.4</ele>
        <time>2020-06-18T16:05:03Z</time>
      </trkpt>
      <trkpt lat="50.17311" lon="1.60778">
        <ele>8.4</ele>
        <time>2020-06-18T16:05:04Z</time>
      </trkpt>
      <trkpt lat="50.17317" lon="1.60787">
        <ele>8.5</ele>
        <time>2020-06-18T16:05:05Z</time>
      </trkpt>
      <trkpt lat="50.17322" lon="1.60796">
        <ele>8.5</ele>
        <time>2020-06-18T16:05:06Z</time>
      </trkpt>
      <trkpt lat="50.17327" lon="1.60804">
        <ele>8.6</ele>
        <time>2020-06-18T16:05:07Z</time>
      </trkpt>
      <trkpt lat="50.17332" lon="1.60813">
        <ele>8.6</ele>
        <time>2020-06-18T16:05:08Z</time>
      </trkpt>
      <trkpt lat="50.17337" lon="1.60821">
        <ele>8.7</ele>
        <time>2020-06-18T16:05:09Z</time>
      </trkpt>
      <trkpt lat="50.17342" lon="1.6083">
        <ele>8.8</ele>
        <time>2020-06-18T16:05:10Z</time>
      </trkpt>
      <trkpt lat="50.17347" lon="1.60838">
        <ele>9</ele>
        <time>2020-06-18T16:05:11Z</time>
      </trkpt>
      <trkpt lat="50.17352" lon="1.60847">
        <ele>9.1</ele>
        <time>2020-06-18T16:05:12Z</time>
      </trkpt>
      <trkpt lat="50.17357" lon="1.60856">
        <ele>9.1</ele>
        <time>2020-06-18T16:05:13Z</time>
      </trkpt>
      <trkpt lat="50.17362" lon="1.60864">
        <ele>9.2</ele>
        <time>2020-06-18T16:05:14Z</time>
      </trkpt>
      <trkpt lat="50.17366" lon="1.60873">
        <ele>9.3</ele>
        <time>2020-06-18T16:05:15Z</time>
      </trkpt>
      <trkpt lat="50.17372" lon="1.60881">
        <ele>9.4</ele>
        <time>2020-06-18T16:05:16Z</time>
      </trkpt>
      <trkpt lat="50.17376" lon="1.60889">
        <ele>9.5</ele>
        <time>2020-06-18T16:05:17Z</time>
      </trkpt>
      <trkpt lat="50.17381" lon="1.60896">
        <ele>9.6</ele>
        <time>2020-06-18T16:05:18Z</time>
      </trkpt>
      <trkpt lat="50.17386" lon="1.60904">
        <ele>9.7</ele>
        <time>2020-06-18T16:05:19Z</time>
      </trkpt>
      <trkpt lat="50.17391" lon="1.60912">
        <ele>9.9</ele>
        <time>2020-06-18T16:05:20Z</time>
      </trkpt>
      <trkpt lat="50.17396" lon="1.6092">
        <ele>10.1</ele>
        <time>2020-06-18T16:05:21Z</time>
      </trkpt>
      <trkpt lat="50.17401" lon="1.60928">
        <ele>10.3</ele>
        <time>2020-06-18T16:05:22Z</time>
      </trkpt>
      <trkpt lat="50.17406" lon="1.60936">
        <ele>10.5</ele>
        <time>2020-06-18T16:05:23Z</time>
      </trkpt>
      <trkpt lat="50.17411" lon="1.60944">
        <ele>10.6</ele>
        <time>2020-06-18T16:05:24Z</time>
      </trkpt>
      <trkpt lat="50.17416" lon="1.60951">
        <ele>10.7</ele>
        <time>2020-06-18T16:05:25Z</time>
      </trkpt>
      <trkpt lat="50.17421" lon="1.60959">
        <ele>10.8</ele>
        <time>2020-06-18T16:05:26Z</time>
      </trkpt>
      <trkpt lat="50.17426" lon="1.60966">
        <ele>10.9</ele>
        <time>2020-06-18T16:05:27Z</time>
      </trkpt>
      <trkpt lat="50.17431" lon="1.60974">
        <ele>11</ele>
        <time>2020-06-18T16:05:28Z</time>
      </trkpt>
      <trkpt lat="50.17435" lon="1.60982">
        <ele>11.1</ele>
        <time>2020-06-18T16:05:29Z</time>
      </trkpt>
      <trkpt lat="50.1744" lon="1.60989">
        <ele>11.2</ele>
        <time>2020-06-18T16:05:30Z</time>
      </trkpt>
      <trkpt lat="50.17445" lon="1.60997">
        <ele>11.3</ele>
        <time>2020-06-18T16:05:31Z</time>
      </trkpt>
      <trkpt lat="50.17449" lon="1.61004">
        <ele>11.5</ele>
        <time>2020-06-18T16:05:32Z</time>
      </trkpt>
      <trkpt lat="50.17454" lon="1.61011">
        <ele>11.6</ele>
        <time>2020-06-18T16:05:33Z</time>
      </trkpt>
      <trkpt lat="50.17458" lon="1.61018">
        <ele>11.7</ele>
        <time>2020-06-18T16:05:34Z</time>
      </trkpt>
      <trkpt lat="50.17462" lon="1.61025">
        <ele>11.8</ele>
        <time>2020-06-18T16:05:35Z</time>
      </trkpt>
      <trkpt lat="50.17467" lon="1.61033">
        <ele>12</ele>
        <time>2020-06-18T16:05:36Z</time>
      </trkpt>
      <trkpt lat="50.17471" lon="1.6104">
        <ele>12.2</ele>
        <time>2020-06-18T16:05:37Z</time>
      </trkpt>
      <trkpt lat="50.17476" lon="1.61047">
        <ele>12.4</ele>
        <time>2020-06-18T16:05:38Z</time>
      </trkpt>
      <trkpt lat="50.1748" lon="1.61054">
        <ele>12.5</ele>
        <time>2020-06-18T16:05:39Z</time>
      </trkpt>
      <trkpt lat="50.17485" lon="1.61061">
        <ele>12.6</ele>
        <time>2020-06-18T16:05:40Z</time>
      </trkpt>
      <trkpt lat="50.17489" lon="1.61069">
        <ele>12.7</ele>
        <time>2020-06-18T16:05:41Z</time>
      </trkpt>
      <trkpt lat="50.17494" lon="1.61075">
        <ele>12.8</ele>
        <time>2020-06-18T16:05:42Z</time>
      </trkpt>
      <trkpt lat="50.17498" lon="1.61083">
        <ele>12.9</ele>
        <time>2020-06-18T16:05:43Z</time>
      </trkpt>
      <trkpt lat="50.17502" lon="1.61089">
        <ele>13</ele>
        <time>2020-06-18T16:05:44Z</time>
      </trkpt>
      <trkpt lat="50.17507" lon="1.61096">
        <ele>13.2</ele>
        <time>2020-06-18T16:05:45Z</time>
      </trkpt>
      <trkpt lat="50.17512" lon="1.61103">
        <ele>13.3</ele>
        <time>2020-06-18T16:05:46Z</time>
      </trkpt>
      <trkpt lat="50.17516" lon="1.6111">
        <ele>13.5</ele>
        <time>2020-06-18T16:05:47Z</time>
      </trkpt>
      <trkpt lat="50.1752" lon="1.61116">
        <ele>13.7</ele>
        <time>2020-06-18T16:05:48Z</time>
      </trkpt>
      <trkpt lat="50.17524" lon="1.61123">
        <ele>13.9</ele>
        <time>2020-06-18T16:05:49Z</time>
      </trkpt>
      <trkpt lat="50.17528" lon="1.6113">
        <ele>14.1</ele>
        <time>2020-06-18T16:05:50Z</time>
      </trkpt>
      <trkpt lat="50.17532" lon="1.61136">
        <ele>14.4</ele>
        <time>2020-06-18T16:05:51Z</time>
      </trkpt>
      <trkpt lat="50.17536" lon="1.61143">
        <ele>14.6</ele>
        <time>2020-06-18T16:05:52Z</time>
      </trkpt>
      <trkpt lat="50.1754" lon="1.6115">
        <ele>14.9</ele>
        <time>2020-06-18T16:05:53Z</time>
      </trkpt>
      <trkpt lat="50.17543" lon="1.61156">
        <ele>15</ele>
        <time>2020-06-18T16:05:54Z</time>
      </trkpt>
      <trkpt lat="50.17547" lon="1.61163">
        <ele>15.2</ele>
        <time>2020-06-18T16:05:55Z</time>
      </trkpt>
      <trkpt lat="50.17551" lon="1.61169">
        <ele>15.3</ele>
        <time>2020-06-18T16:05:56Z</time>
      </trkpt>
      <trkpt lat="50.17555" lon="1.61176">
        <ele>15.4</ele>
        <time>2020-06-18T16:05:57Z</time>
      </trkpt>
      <trkpt lat="50.17559" lon="1.61183">
        <ele>15.5</ele>
        <time>2020-06-18T16:05:58Z</time>
      </trkpt>
      <trkpt lat="50.17562" lon="1.6119">
        <ele>15.7</ele>
        <time>2020-06-18T16:05:59Z</time>
      </trkpt>
      <trkpt lat="50.17566" lon="1.61197">
        <ele>15.8</ele>
        <time>2020-06-18T16:06:00Z</time>
      </trkpt>
      <trkpt lat="50.1757" lon="1.61203">
        <ele>15.9</ele>
        <time>2020-06-18T16:06:01Z</time>
      </trkpt>
      <trkpt lat="50.17574" lon="1.61209">
        <ele>16.1</ele>
        <time>2020-06-18T16:06:02Z</time>
      </trkpt>
      <trkpt lat="50.17579" lon="1.61215">
        <ele>16.3</ele>
        <time>2020-06-18T16:06:03Z</time>
      </trkpt>
      <trkpt lat="50.17583" lon="1.61222">
        <ele>16.4</ele>
        <time>2020-06-18T16:06:04Z</time>
      </trkpt>
      <trkpt lat="50.17587" lon="1.61228">
        <ele>16.6</ele>
        <time>2020-06-18T16:06:05Z</time>
      </trkpt>
      <trkpt lat="50.17591" lon="1.61235">
        <ele>16.8</ele>
        <time>2020-06-18T16:06:06Z</time>
      </trkpt>
      <trkpt lat="50.17596" lon="1.6124">
        <ele>16.9</ele>
        <time>2020-06-18T16:06:07Z</time>
      </trkpt>
      <trkpt lat="50.176" lon="1.61246">
        <ele>17</ele>
        <time>2020-06-18T16:06:08Z</time>
      </trkpt>
      <trkpt lat="50.17604" lon="1.61253">
        <ele>17.1</ele>
        <time>2020-06-18T16:06:09Z</time>
      </trkpt>
      <trkpt lat="50.17607" lon="1.61259">
        <ele>17.2</ele>
        <time>2020-06-18T16:06:10Z</time>
      </trkpt>
      <trkpt lat="50.1761" lon="1.61265">
        <ele>17.3</ele>
        <time>2020-06-18T16:06:11Z</time>
      </trkpt>
      <trkpt lat="50.17614" lon="1.61271">
        <ele>17.4</ele>
        <time>2020-06-18T16:06:12Z</time>
      </trkpt>
      <trkpt lat="50.17617" lon="1.61275">
        <ele>17.4</ele>
        <time>2020-06-18T16:06:13Z</time>
      </trkpt>
      <trkpt lat="50.17619" lon="1.6128">
        <ele>17.5</ele>
        <time>2020-06-18T16:06:14Z</time>
      </trkpt>
      <trkpt lat="50.17622" lon="1.61284">
        <ele>17.6</ele>
        <time>2020-06-18T16:06:15Z</time>
      </trkpt>
      <trkpt lat="50.17624" lon="1.61288">
        <ele>17.7</ele>
        <time>2020-06-18T16:06:16Z</time>
      </trkpt>
      <trkpt lat="50.17627" lon="1.61294">
        <ele>17.8</ele>
        <time>2020-06-18T16:06:17Z</time>
      </trkpt>
      <trkpt lat="50.17628" lon="1.61299">
        <ele>17.9</ele>
        <time>2020-06-18T16:06:18Z</time>
      </trkpt>
      <trkpt lat="50.17631" lon="1.61304">
        <ele>18</ele>
        <time>2020-06-18T16:06:19Z</time>
      </trkpt>
      <trkpt lat="50.17633" lon="1.61308">
        <ele>18</ele>
        <time>2020-06-18T16:06:20Z</time>
      </trkpt>
      <trkpt lat="50.17633" lon="1.61311">
        <ele>18</ele>
        <time>2020-06-18T16:06:21Z</time>
      </trkpt>
      <trkpt lat="50.17633" lon="1.61313">
        <ele>18.1</ele>
        <time>2020-06-18T16:06:22Z</time>
      </trkpt>
      <trkpt lat="50.17631" lon="1.61316">
        <ele>18.1</ele>
        <time>2020-06-18T16:06:23Z</time>
      </trkpt>
      <trkpt lat="50.17629" lon="1.61317">
        <ele>18.1</ele>
        <time>2020-06-18T16:06:24Z</time>
      </trkpt>
      <trkpt lat="50.17626" lon="1.61318">
        <ele>18.2</ele>
        <time>2020-06-18T16:06:25Z</time>
      </trkpt>
      <trkpt lat="50.17623" lon="1.61322">
        <ele>18.1</ele>
        <time>2020-06-18T16:06:26Z</time>
      </trkpt>
      <trkpt lat="50.1762" lon="1.61327">
        <ele>18.1</ele>
        <time>2020-06-18T16:06:27Z</time>
      </trkpt>
      <trkpt lat="50.17618" lon="1.61332">
        <ele>18.1</ele>
        <time>2020-06-18T16:06:28Z</time>
      </trkpt>
      <trkpt lat="50.17617" lon="1.61338">
        <ele>18</ele>
        <time>2020-06-18T16:06:29Z</time>
      </trkpt>
      <trkpt lat="50.17616" lon="1.61346">
        <ele>18</ele>
        <time>2020-06-18T16:06:30Z</time>
      </trkpt>
      <trkpt lat="50.17616" lon="1.61354">
        <ele>18</ele>
        <time>2020-06-18T16:06:31Z</time>
      </trkpt>
      <trkpt lat="50.17618" lon="1.61359">
        <ele>18.1</ele>
        <time>2020-06-18T16:06:32Z</time>
      </trkpt>
      <trkpt lat="50.17618" lon="1.61364">
        <ele>18.1</ele>
        <time>2020-06-18T16:06:33Z</time>
      </trkpt>
      <trkpt lat="50.17618" lon="1.61372">
        <ele>18.1</ele>
        <time>2020-06-18T16:06:34Z</time>
      </trkpt>
      <trkpt lat="50.17618" lon="1.6138">
        <ele>18.2</ele>
        <time>2020-06-18T16:06:35Z</time>
      </trkpt>
      <trkpt lat="50.17618" lon="1.61387">
        <ele>18.2</ele>
        <time>2020-06-18T16:06:36Z</time>
      </trkpt>
      <trkpt lat="50.17617" lon="1.61393">
        <ele>18.3</ele>
        <time>2020-06-18T16:06:37Z</time>
      </trkpt>
      <trkpt lat="50.17614" lon="1.61398">
        <ele>18.3</ele>
        <time>2020-06-18T16:06:38Z</time>
      </trkpt>
      <trkpt lat="50.17612" lon="1.61402">
        <ele>18.4</ele>
        <time>2020-06-18T16:06:39Z</time>
      </trkpt>
      <trkpt lat="50.1761" lon="1.61409">
        <ele>18.4</ele>
        <time>2020-06-18T16:06:40Z</time>
      </trkpt>
      <trkpt lat="50.17607" lon="1.61416">
        <ele>18.5</ele>
        <time>2020-06-18T16:06:41Z</time>
      </trkpt>
      <trkpt lat="50.17605" lon="1.61423">
        <ele>18.6</ele>
        <time>2020-06-18T16:06:42Z</time>
      </trkpt>
      <trkpt lat="50.17602" lon="1.61431">
        <ele>18.6</ele>
        <time>2020-06-18T16:06:43Z</time>
      </trkpt>
      <trkpt lat="50.176" lon="1.61438">
        <ele>18.7</ele>
        <time>2020-06-18T16:06:44Z</time>
      </trkpt>
      <trkpt lat="50.17597" lon="1.61446">
        <ele>18.8</ele>
        <time>2020-06-18T16:06:45Z</time>
      </trkpt>
      <trkpt lat="50.17593" lon="1.61456">
        <ele>18.8</ele>
        <time>2020-06-18T16:06:46Z</time>
      </trkpt>
      <trkpt lat="50.17591" lon="1.61464">
        <ele>18.9</ele>
        <time>2020-06-18T16:06:47Z</time>
      </trkpt>
      <trkpt lat="50.17588" lon="1.61471">
        <ele>18.9</ele>
        <time>2020-06-18T16:06:48Z</time>
      </trkpt>
      <trkpt lat="50.17586" lon="1.61479">
        <ele>18.9</ele>
        <time>2020-06-18T16:06:49Z</time>
      </trkpt>
      <trkpt lat="50.17583" lon="1.61487">
        <ele>18.9</ele>
        <time>2020-06-18T16:06:50Z</time>
      </trkpt>
      <trkpt lat="50.17581" lon="1.61495">
        <ele>18.9</ele>
        <time>2020-06-18T16:06:51Z</time>
      </trkpt>
      <trkpt lat="50.17578" lon="1.61503">
        <ele>18.9</ele>
        <time>2020-06-18T16:06:52Z</time>
      </trkpt>
      <trkpt lat="50.17575" lon="1.61511">
        <ele>18.9</ele>
        <time>2020-06-18T16:06:53Z</time>
      </trkpt>
      <trkpt lat="50.17572" lon="1.61519">
        <ele>18.9</ele>
        <time>2020-06-18T16:06:54Z</time>
      </trkpt>
      <trkpt lat="50.17569" lon="1.61526">
        <ele>18.9</ele>
        <time>2020-06-18T16:06:55Z</time>
      </trkpt>
      <trkpt lat="50.17567" lon="1.61536">
        <ele>18.9</ele>
        <time>2020-06-18T16:06:56Z</time>
      </trkpt>
      <trkpt lat="50.17564" lon="1.61546">
        <ele>18.8</ele>
        <time>2020-06-18T16:06:57Z</time>
      </trkpt>
      <trkpt lat="50.17561" lon="1.61555">
        <ele>18.8</ele>
        <time>2020-06-18T16:06:58Z</time>
      </trkpt>
      <trkpt lat="50.17559" lon="1.61563">
        <ele>18.8</ele>
        <time>2020-06-18T16:06:59Z</time>
      </trkpt>
      <trkpt lat="50.17555" lon="1.61572">
        <ele>18.8</ele>
        <time>2020-06-18T16:07:00Z</time>
      </trkpt>
      <trkpt lat="50.17552" lon="1.6158">
        <ele>18.8</ele>
        <time>2020-06-18T16:07:01Z</time>
      </trkpt>
      <trkpt lat="50.17549" lon="1.6159">
        <ele>18.8</ele>
        <time>2020-06-18T16:07:02Z</time>
      </trkpt>
      <trkpt lat="50.17546" lon="1.61598">
        <ele>18.8</ele>
        <time>2020-06-18T16:07:03Z</time>
      </trkpt>
      <trkpt lat="50.17544" lon="1.61605">
        <ele>18.8</ele>
        <time>2020-06-18T16:07:04Z</time>
      </trkpt>
      <trkpt lat="50.17541" lon="1.61615">
        <ele>18.8</ele>
        <time>2020-06-18T16:07:05Z</time>
      </trkpt>
      <trkpt lat="50.17538" lon="1.61626">
        <ele>18.8</ele>
        <time>2020-06-18T16:07:06Z</time>
      </trkpt>
      <trkpt lat="50.17534" lon="1.61637">
        <ele>18.8</ele>
        <time>2020-06-18T16:07:07Z</time>
      </trkpt>
      <trkpt lat="50.1753" lon="1.61647">
        <ele>18.8</ele>
        <time>2020-06-18T16:07:08Z</time>
      </trkpt>
      <trkpt lat="50.17527" lon="1.61656">
        <ele>18.9</ele>
        <time>2020-06-18T16:07:09Z</time>
      </trkpt>
      <trkpt lat="50.17523" lon="1.61667">
        <ele>18.9</ele>
        <time>2020-06-18T16:07:10Z</time>
      </trkpt>
      <trkpt lat="50.1752" lon="1.61677">
        <ele>18.9</ele>
        <time>2020-06-18T16:07:11Z</time>
      </trkpt>
      <trkpt lat="50.17516" lon="1.61686">
        <ele>18.9</ele>
        <time>2020-06-18T16:07:12Z</time>
      </trkpt>
      <trkpt lat="50.17513" lon="1.61696">
        <ele>18.9</ele>
        <time>2020-06-18T16:07:13Z</time>
      </trkpt>
      <trkpt lat="50.1751" lon="1.61705">
        <ele>18.9</ele>
        <time>2020-06-18T16:07:14Z</time>
      </trkpt>
      <trkpt lat="50.17507" lon="1.61714">
        <ele>18.9</ele>
        <time>2020-06-18T16:07:15Z</time>
      </trkpt>
      <trkpt lat="50.17503" lon="1.61723">
        <ele>19</ele>
        <time>2020-06-18T16:07:16Z</time>
      </trkpt>
      <trkpt lat="50.175" lon="1.61732">
        <ele>19</ele>
        <time>2020-06-18T16:07:17Z</time>
      </trkpt>
      <trkpt lat="50.17497" lon="1.61741">
        <ele>19</ele>
        <time>2020-06-18T16:07:18Z</time>
      </trkpt>
      <trkpt lat="50.17494" lon="1.61749">
        <ele>19.1</ele>
        <time>2020-06-18T16:07:19Z</time>
      </trkpt>
      <trkpt lat="50.17491" lon="1.61758">
        <ele>19.1</ele>
        <time>2020-06-18T16:07:20Z</time>
      </trkpt>
      <trkpt lat="50.17489" lon="1.61767">
        <ele>19.1</ele>
        <time>2020-06-18T16:07:21Z</time>
      </trkpt>
      <trkpt lat="50.17486" lon="1.61775">
        <ele>19.1</ele>
        <time>2020-06-18T16:07:22Z</time>
      </trkpt>
      <trkpt lat="50.17483" lon="1.61783">
        <ele>19.1</ele>
        <time>2020-06-18T16:07:23Z</time>
      </trkpt>
      <trkpt lat="50.1748" lon="1.61791">
        <ele>19.1</ele>
        <time>2020-06-18T16:07:24Z</time>
      </trkpt>
      <trkpt lat="50.17477" lon="1.61799">
        <ele>19.1</ele>
        <time>2020-06-18T16:07:25Z</time>
      </trkpt>
      <trkpt lat="50.17474" lon="1.61808">
        <ele>19.1</ele>
        <time>2020-06-18T16:07:26Z</time>
      </trkpt>
      <trkpt lat="50.1747" lon="1.61817">
        <ele>19.1</ele>
        <time>2020-06-18T16:07:27Z</time>
      </trkpt>
      <trkpt lat="50.17467" lon="1.61826">
        <ele>19.1</ele>
        <time>2020-06-18T16:07:28Z</time>
      </trkpt>
      <trkpt lat="50.17463" lon="1.61835">
        <ele>19.2</ele>
        <time>2020-06-18T16:07:29Z</time>
      </trkpt>
      <trkpt lat="50.1746" lon="1.61845">
        <ele>19.2</ele>
        <time>2020-06-18T16:07:30Z</time>
      </trkpt>
      <trkpt lat="50.17458" lon="1.61854">
        <ele>19.3</ele>
        <time>2020-06-18T16:07:31Z</time>
      </trkpt>
      <trkpt lat="50.17455" lon="1.61864">
        <ele>19.3</ele>
        <time>2020-06-18T16:07:32Z</time>
      </trkpt>
      <trkpt lat="50.17453" lon="1.61874">
        <ele>19.4</ele>
        <time>2020-06-18T16:07:33Z</time>
      </trkpt>
      <trkpt lat="50.1745" lon="1.61883">
        <ele>19.4</ele>
        <time>2020-06-18T16:07:34Z</time>
      </trkpt>
      <trkpt lat="50.17448" lon="1.61893">
        <ele>19.5</ele>
        <time>2020-06-18T16:07:35Z</time>
      </trkpt>
      <trkpt lat="50.17445" lon="1.61902">
        <ele>19.5</ele>
        <time>2020-06-18T16:07:36Z</time>
      </trkpt>
      <trkpt lat="50.17442" lon="1.61911">
        <ele>19.5</ele>
        <time>2020-06-18T16:07:37Z</time>
      </trkpt>
      <trkpt lat="50.1744" lon="1.61919">
        <ele>19.5</ele>
        <time>2020-06-18T16:07:38Z</time>
      </trkpt>
      <trkpt lat="50.17438" lon="1.61929">
        <ele>19.5</ele>
        <time>2020-06-18T16:07:39Z</time>
      </trkpt>
      <trkpt lat="50.17435" lon="1.61938">
        <ele>19.6</ele>
        <time>2020-06-18T16:07:40Z</time>
      </trkpt>
      <trkpt lat="50.17434" lon="1.61947">
        <ele>19.7</ele>
        <time>2020-06-18T16:07:41Z</time>
      </trkpt>
      <trkpt lat="50.17431" lon="1.61957">
        <ele>19.9</ele>
        <time>2020-06-18T16:07:42Z</time>
      </trkpt>
      <trkpt lat="50.17428" lon="1.61967">
        <ele>20</ele>
        <time>2020-06-18T16:07:43Z</time>
      </trkpt>
      <trkpt lat="50.17426" lon="1.61974">
        <ele>19.9</ele>
        <time>2020-06-18T16:07:44Z</time>
      </trkpt>
      <trkpt lat="50.17424" lon="1.61983">
        <ele>19.9</ele>
        <time>2020-06-18T16:07:45Z</time>
      </trkpt>
      <trkpt lat="50.17422" lon="1.61992">
        <ele>19.9</ele>
        <time>2020-06-18T16:07:46Z</time>
      </trkpt>
      <trkpt lat="50.1742" lon="1.62001">
        <ele>19.9</ele>
        <time>2020-06-18T16:07:47Z</time>
      </trkpt>
      <trkpt lat="50.17418" lon="1.6201">
        <ele>19.9</ele>
        <time>2020-06-18T16:07:48Z</time>
      </trkpt>
      <trkpt lat="50.17415" lon="1.62019">
        <ele>19.8</ele>
        <time>2020-06-18T16:07:49Z</time>
      </trkpt>
      <trkpt lat="50.17413" lon="1.62028">
        <ele>19.8</ele>
        <time>2020-06-18T16:07:50Z</time>
      </trkpt>
      <trkpt lat="50.1741" lon="1.62038">
        <ele>19.9</ele>
        <time>2020-06-18T16:07:51Z</time>
      </trkpt>
      <trkpt lat="50.17408" lon="1.62049">
        <ele>20</ele>
        <time>2020-06-18T16:07:52Z</time>
      </trkpt>
      <trkpt lat="50.17405" lon="1.62059">
        <ele>20.1</ele>
        <time>2020-06-18T16:07:53Z</time>
      </trkpt>
      <trkpt lat="50.17403" lon="1.62068">
        <ele>20.2</ele>
        <time>2020-06-18T16:07:54Z</time>
      </trkpt>
      <trkpt lat="50.17401" lon="1.62078">
        <ele>20.3</ele>
        <time>2020-06-18T16:07:55Z</time>
      </trkpt>
      <trkpt lat="50.17399" lon="1.62087">
        <ele>20.4</ele>
        <time>2020-06-18T16:07:56Z</time>
      </trkpt>
      <trkpt lat="50.17397" lon="1.62096">
        <ele>20.5</ele>
        <time>2020-06-18T16:07:57Z</time>
      </trkpt>
      <trkpt lat="50.17395" lon="1.62105">
        <ele>20.6</ele>
        <time>2020-06-18T16:07:58Z</time>
      </trkpt>
      <trkpt lat="50.17393" lon="1.62114">
        <ele>20.6</ele>
        <time>2020-06-18T16:07:59Z</time>
      </trkpt>
      <trkpt lat="50.17391" lon="1.62124">
        <ele>20.7</ele>
        <time>2020-06-18T16:08:00Z</time>
      </trkpt>
      <trkpt lat="50.17389" lon="1.62134">
        <ele>20.8</ele>
        <time>2020-06-18T16:08:01Z</time>
      </trkpt>
      <trkpt lat="50.17387" lon="1.62144">
        <ele>20.8</ele>
        <time>2020-06-18T16:08:02Z</time>
      </trkpt>
      <trkpt lat="50.17384" lon="1.62153">
        <ele>20.9</ele>
        <time>2020-06-18T16:08:03Z</time>
      </trkpt>
      <trkpt lat="50.17382" lon="1.62163">
        <ele>21</ele>
        <time>2020-06-18T16:08:04Z</time>
      </trkpt>
      <trkpt lat="50.1738" lon="1.62174">
        <ele>21.1</ele>
        <time>2020-06-18T16:08:05Z</time>
      </trkpt>
      <trkpt lat="50.17378" lon="1.62184">
        <ele>21.2</ele>
        <time>2020-06-18T16:08:06Z</time>
      </trkpt>
      <trkpt lat="50.17375" lon="1.62194">
        <ele>21.3</ele>
        <time>2020-06-18T16:08:07Z</time>
      </trkpt>
      <trkpt lat="50.17373" lon="1.62203">
        <ele>21.5</ele>
        <time>2020-06-18T16:08:08Z</time>
      </trkpt>
      <trkpt lat="50.17371" lon="1.62213">
        <ele>21.6</ele>
        <time>2020-06-18T16:08:09Z</time>
      </trkpt>
      <trkpt lat="50.17369" lon="1.62222">
        <ele>21.8</ele>
        <time>2020-06-18T16:08:10Z</time>
      </trkpt>
      <trkpt lat="50.17368" lon="1.62232">
        <ele>21.9</ele>
        <time>2020-06-18T16:08:11Z</time>
      </trkpt>
      <trkpt lat="50.17366" lon="1.62242">
        <ele>22.1</ele>
        <time>2020-06-18T16:08:12Z</time>
      </trkpt>
      <trkpt lat="50.17364" lon="1.62251">
        <ele>22.2</ele>
        <time>2020-06-18T16:08:13Z</time>
      </trkpt>
      <trkpt lat="50.17363" lon="1.62261">
        <ele>22.4</ele>
        <time>2020-06-18T16:08:14Z</time>
      </trkpt>
      <trkpt lat="50.17362" lon="1.6227">
        <ele>22.5</ele>
        <time>2020-06-18T16:08:15Z</time>
      </trkpt>
      <trkpt lat="50.1736" lon="1.62279">
        <ele>22.7</ele>
        <time>2020-06-18T16:08:16Z</time>
      </trkpt>
      <trkpt lat="50.17359" lon="1.62286">
        <ele>22.8</ele>
        <time>2020-06-18T16:08:17Z</time>
      </trkpt>
      <trkpt lat="50.17358" lon="1.62295">
        <ele>23</ele>
        <time>2020-06-18T16:08:18Z</time>
      </trkpt>
      <trkpt lat="50.17356" lon="1.62303">
        <ele>23.2</ele>
        <time>2020-06-18T16:08:19Z</time>
      </trkpt>
      <trkpt lat="50.17354" lon="1.62312">
        <ele>23.3</ele>
        <time>2020-06-18T16:08:20Z</time>
      </trkpt>
      <trkpt lat="50.17352" lon="1.62321">
        <ele>23.5</ele>
        <time>2020-06-18T16:08:21Z</time>
      </trkpt>
      <trkpt lat="50.17351" lon="1.6233">
        <ele>23.7</ele>
        <time>2020-06-18T16:08:22Z</time>
      </trkpt>
      <trkpt lat="50.1735" lon="1.62341">
        <ele>23.9</ele>
        <time>2020-06-18T16:08:23Z</time>
      </trkpt>
      <trkpt lat="50.17349" lon="1.6235">
        <ele>24.1</ele>
        <time>2020-06-18T16:08:24Z</time>
      </trkpt>
      <trkpt lat="50.17348" lon="1.62358">
        <ele>24.3</ele>
        <time>2020-06-18T16:08:25Z</time>
      </trkpt>
      <trkpt lat="50.17347" lon="1.62366">
        <ele>24.5</ele>
        <time>2020-06-18T16:08:26Z</time>
      </trkpt>
      <trkpt lat="50.17345" lon="1.62375">
        <ele>24.7</ele>
        <time>2020-06-18T16:08:27Z</time>
      </trkpt>
      <trkpt lat="50.17343" lon="1.62383">
        <ele>25</ele>
        <time>2020-06-18T16:08:28Z</time>
      </trkpt>
      <trkpt lat="50.17341" lon="1.62391">
        <ele>25.2</ele>
        <time>2020-06-18T16:08:29Z</time>
      </trkpt>
      <trkpt lat="50.1734" lon="1.62398">
        <ele>25.4</ele>
        <time>2020-06-18T16:08:30Z</time>
      </trkpt>
      <trkpt lat="50.17338" lon="1.62406">
        <ele>25.7</ele>
        <time>2020-06-18T16:08:31Z</time>
      </trkpt>
      <trkpt lat="50.17337" lon="1.62414">
        <ele>25.9</ele>
        <time>2020-06-18T16:08:32Z</time>
      </trkpt>
      <trkpt lat="50.17335" lon="1.62423">
        <ele>26.2</ele>
        <time>2020-06-18T16:08:33Z</time>
      </trkpt>
      <trkpt lat="50.17334" lon="1.6243">
        <ele>26.3</ele>
        <time>2020-06-18T16:08:34Z</time>
      </trkpt>
      <trkpt lat="50.17333" lon="1.62438">
        <ele>26.5</ele>
        <time>2020-06-18T16:08:35Z</time>
      </trkpt>
      <trkpt lat="50.17332" lon="1.62445">
        <ele>26.7</ele>
        <time>2020-06-18T16:08:36Z</time>
      </trkpt>
      <trkpt lat="50.17331" lon="1.62453">
        <ele>26.8</ele>
        <time>2020-06-18T16:08:37Z</time>
      </trkpt>
      <trkpt lat="50.1733" lon="1.6246">
        <ele>27</ele>
        <time>2020-06-18T16:08:38Z</time>
      </trkpt>
      <trkpt lat="50.17328" lon="1.62467">
        <ele>27.2</ele>
        <time>2020-06-18T16:08:39Z</time>
      </trkpt>
      <trkpt lat="50.17328" lon="1.62475">
        <ele>27.4</ele>
        <time>2020-06-18T16:08:40Z</time>
      </trkpt>
      <trkpt lat="50.17327" lon="1.62484">
        <ele>27.6</ele>
        <time>2020-06-18T16:08:41Z</time>
      </trkpt>
      <trkpt lat="50.17327" lon="1.62492">
        <ele>27.8</ele>
        <time>2020-06-18T16:08:42Z</time>
      </trkpt>
      <trkpt lat="50.17326" lon="1.62499">
        <ele>27.9</ele>
        <time>2020-06-18T16:08:43Z</time>
      </trkpt>
      <trkpt lat="50.17326" lon="1.62505">
        <ele>28</ele>
        <time>2020-06-18T16:08:44Z</time>
      </trkpt>
      <trkpt lat="50.17324" lon="1.62513">
        <ele>28.2</ele>
        <time>2020-06-18T16:08:45Z</time>
      </trkpt>
      <trkpt lat="50.17323" lon="1.62522">
        <ele>28.4</ele>
        <time>2020-06-18T16:08:46Z</time>
      </trkpt>
      <trkpt lat="50.17323" lon="1.62529">
        <ele>28.5</ele>
        <time>2020-06-18T16:08:47Z</time>
      </trkpt>
      <trkpt lat="50.17322" lon="1.62538">
        <ele>28.6</ele>
        <time>2020-06-18T16:08:48Z</time>
      </trkpt>
      <trkpt lat="50.17321" lon="1.62545">
        <ele>28.7</ele>
        <time>2020-06-18T16:08:49Z</time>
      </trkpt>
      <trkpt lat="50.17321" lon="1.62551">
        <ele>28.8</ele>
        <time>2020-06-18T16:08:50Z</time>
      </trkpt>
      <trkpt lat="50.1732" lon="1.62558">
        <ele>28.9</ele>
        <time>2020-06-18T16:08:51Z</time>
      </trkpt>
      <trkpt lat="50.1732" lon="1.62567">
        <ele>29</ele>
        <time>2020-06-18T16:08:52Z</time>
      </trkpt>
      <trkpt lat="50.17319" lon="1.62574">
        <ele>29.1</ele>
        <time>2020-06-18T16:08:53Z</time>
      </trkpt>
      <trkpt lat="50.17318" lon="1.62582">
        <ele>29.1</ele>
        <time>2020-06-18T16:08:54Z</time>
      </trkpt>
      <trkpt lat="50.17317" lon="1.62592">
        <ele>29.2</ele>
        <time>2020-06-18T16:08:55Z</time>
      </trkpt>
      <trkpt lat="50.17316" lon="1.62599">
        <ele>29.2</ele>
        <time>2020-06-18T16:08:56Z</time>
      </trkpt>
      <trkpt lat="50.17316" lon="1.62608">
        <ele>29.3</ele>
        <time>2020-06-18T16:08:57Z</time>
      </trkpt>
      <trkpt lat="50.17315" lon="1.62617">
        <ele>29.3</ele>
        <time>2020-06-18T16:08:58Z</time>
      </trkpt>
      <trkpt lat="50.17314" lon="1.62626">
        <ele>29.4</ele>
        <time>2020-06-18T16:08:59Z</time>
      </trkpt>
      <trkpt lat="50.17313" lon="1.62635">
        <ele>29.4</ele>
        <time>2020-06-18T16:09:00Z</time>
      </trkpt>
      <trkpt lat="50.17312" lon="1.62643">
        <ele>29.4</ele>
        <time>2020-06-18T16:09:01Z</time>
      </trkpt>
      <trkpt lat="50.17311" lon="1.62652">
        <ele>29.4</ele>
        <time>2020-06-18T16:09:02Z</time>
      </trkpt>
      <trkpt lat="50.1731" lon="1.62662">
        <ele>29.4</ele>
        <time>2020-06-18T16:09:03Z</time>
      </trkpt>
      <trkpt lat="50.1731" lon="1.62671">
        <ele>29.4</ele>
        <time>2020-06-18T16:09:04Z</time>
      </trkpt>
      <trkpt lat="50.17309" lon="1.6268">
        <ele>29.4</ele>
        <time>2020-06-18T16:09:05Z</time>
      </trkpt>
      <trkpt lat="50.17308" lon="1.62689">
        <ele>29.4</ele>
        <time>2020-06-18T16:09:06Z</time>
      </trkpt>
      <trkpt lat="50.17308" lon="1.62699">
        <ele>29.4</ele>
        <time>2020-06-18T16:09:07Z</time>
      </trkpt>
      <trkpt lat="50.17307" lon="1.62708">
        <ele>29.4</ele>
        <time>2020-06-18T16:09:08Z</time>
      </trkpt>
      <trkpt lat="50.17306" lon="1.62717">
        <ele>29.4</ele>
        <time>2020-06-18T16:09:09Z</time>
      </trkpt>
      <trkpt lat="50.17306" lon="1.62727">
        <ele>29.4</ele>
        <time>2020-06-18T16:09:10Z</time>
      </trkpt>
      <trkpt lat="50.17305" lon="1.62736">
        <ele>29.4</ele>
        <time>2020-06-18T16:09:11Z</time>
      </trkpt>
      <trkpt lat="50.17305" lon="1.62746">
        <ele>29.4</ele>
        <time>2020-06-18T16:09:12Z</time>
      </trkpt>
      <trkpt lat="50.17305" lon="1.62755">
        <ele>29.4</ele>
        <time>2020-06-18T16:09:13Z</time>
      </trkpt>
      <trkpt lat="50.17304" lon="1.62763">
        <ele>29.4</ele>
        <time>2020-06-18T16:09:14Z</time>
      </trkpt>
      <trkpt lat="50.17304" lon="1.62771">
        <ele>29.4</ele>
        <time>2020-06-18T16:09:15Z</time>
      </trkpt>
      <trkpt lat="50.17303" lon="1.62781">
        <ele>29.4</ele>
        <time>2020-06-18T16:09:16Z</time>
      </trkpt>
      <trkpt lat="50.17302" lon="1.62792">
        <ele>29.4</ele>
        <time>2020-06-18T16:09:17Z</time>
      </trkpt>
      <trkpt lat="50.17302" lon="1.62803">
        <ele>29.5</ele>
        <time>2020-06-18T16:09:18Z</time>
      </trkpt>
      <trkpt lat="50.17302" lon="1.62814">
        <ele>29.5</ele>
        <time>2020-06-18T16:09:19Z</time>
      </trkpt>
      <trkpt lat="50.17301" lon="1.62825">
        <ele>29.5</ele>
        <time>2020-06-18T16:09:20Z</time>
      </trkpt>
      <trkpt lat="50.17301" lon="1.62836">
        <ele>29.6</ele>
        <time>2020-06-18T16:09:21Z</time>
      </trkpt>
      <trkpt lat="50.17301" lon="1.62847">
        <ele>29.5</ele>
        <time>2020-06-18T16:09:22Z</time>
      </trkpt>
      <trkpt lat="50.173" lon="1.62859">
        <ele>29.5</ele>
        <time>2020-06-18T16:09:23Z</time>
      </trkpt>
      <trkpt lat="50.173" lon="1.62869">
        <ele>29.5</ele>
        <time>2020-06-18T16:09:24Z</time>
      </trkpt>
      <trkpt lat="50.173" lon="1.62879">
        <ele>29.5</ele>
        <time>2020-06-18T16:09:25Z</time>
      </trkpt>
      <trkpt lat="50.173" lon="1.62891">
        <ele>29.5</ele>
        <time>2020-06-18T16:09:26Z</time>
      </trkpt>
      <trkpt lat="50.173" lon="1.62901">
        <ele>29.5</ele>
        <time>2020-06-18T16:09:27Z</time>
      </trkpt>
      <trkpt lat="50.17298" lon="1.62912">
        <ele>29.4</ele>
        <time>2020-06-18T16:09:28Z</time>
      </trkpt>
      <trkpt lat="50.17298" lon="1.62922">
        <ele>29.4</ele>
        <time>2020-06-18T16:09:29Z</time>
      </trkpt>
      <trkpt lat="50.17297" lon="1.62932">
        <ele>29.4</ele>
        <time>2020-06-18T16:09:30Z</time>
      </trkpt>
      <trkpt lat="50.17297" lon="1.62942">
        <ele>29.3</ele>
        <time>2020-06-18T16:09:31Z</time>
      </trkpt>
      <trkpt lat="50.17297" lon="1.62953">
        <ele>29.3</ele>
        <time>2020-06-18T16:09:32Z</time>
      </trkpt>
      <trkpt lat="50.17298" lon="1.62964">
        <ele>29.2</ele>
        <time>2020-06-18T16:09:33Z</time>
      </trkpt>
      <trkpt lat="50.17297" lon="1.62974">
        <ele>29.2</ele>
        <time>2020-06-18T16:09:34Z</time>
      </trkpt>
      <trkpt lat="50.17298" lon="1.62984">
        <ele>29.2</ele>
        <time>2020-06-18T16:09:35Z</time>
      </trkpt>
      <trkpt lat="50.17297" lon="1.62995">
        <ele>29.1</ele>
        <time>2020-06-18T16:09:36Z</time>
      </trkpt>
      <trkpt lat="50.17298" lon="1.63006">
        <ele>29</ele>
        <time>2020-06-18T16:09:37Z</time>
      </trkpt>
      <trkpt lat="50.17298" lon="1.63018">
        <ele>28.9</ele>
        <time>2020-06-18T16:09:38Z</time>
      </trkpt>
      <trkpt lat="50.17298" lon="1.63029">
        <ele>28.8</ele>
        <time>2020-06-18T16:09:39Z</time>
      </trkpt>
      <trkpt lat="50.17298" lon="1.6304">
        <ele>28.7</ele>
        <time>2020-06-18T16:09:40Z</time>
      </trkpt>
      <trkpt lat="50.17298" lon="1.63051">
        <ele>28.6</ele>
        <time>2020-06-18T16:09:41Z</time>
      </trkpt>
      <trkpt lat="50.17298" lon="1.63063">
        <ele>28.6</ele>
        <time>2020-06-18T16:09:42Z</time>
      </trkpt>
      <trkpt lat="50.17298" lon="1.63075">
        <ele>28.5</ele>
        <time>2020-06-18T16:09:43Z</time>
      </trkpt>
      <trkpt lat="50.17298" lon="1.63086">
        <ele>28.5</ele>
        <time>2020-06-18T16:09:44Z</time>
      </trkpt>
      <trkpt lat="50.17298" lon="1.63098">
        <ele>28.5</ele>
        <time>2020-06-18T16:09:45Z</time>
      </trkpt>
      <trkpt lat="50.17298" lon="1.63109">
        <ele>28.5</ele>
        <time>2020-06-18T16:09:46Z</time>
      </trkpt>
      <trkpt lat="50.17298" lon="1.63121">
        <ele>28.5</ele>
        <time>2020-06-18T16:09:47Z</time>
      </trkpt>
      <trkpt lat="50.17298" lon="1.63132">
        <ele>28.5</ele>
        <time>2020-06-18T16:09:48Z</time>
      </trkpt>
      <trkpt lat="50.17298" lon="1.63143">
        <ele>28.4</ele>
        <time>2020-06-18T16:09:49Z</time>
      </trkpt>
      <trkpt lat="50.17298" lon="1.63154">
        <ele>28.4</ele>
        <time>2020-06-18T16:09:50Z</time>
      </trkpt>
      <trkpt lat="50.17298" lon="1.63165">
        <ele>28.3</ele>
        <time>2020-06-18T16:09:51Z</time>
      </trkpt>
      <trkpt lat="50.17297" lon="1.63177">
        <ele>28.3</ele>
        <time>2020-06-18T16:09:52Z</time>
      </trkpt>
      <trkpt lat="50.17297" lon="1.63188">
        <ele>28.3</ele>
        <time>2020-06-18T16:09:53Z</time>
      </trkpt>
      <trkpt lat="50.17297" lon="1.63199">
        <ele>28.3</ele>
        <time>2020-06-18T16:09:54Z</time>
      </trkpt>
      <trkpt lat="50.17296" lon="1.6321">
        <ele>28.3</ele>
        <time>2020-06-18T16:09:55Z</time>
      </trkpt>
      <trkpt lat="50.17295" lon="1.63221">
        <ele>28.3</ele>
        <time>2020-06-18T16:09:56Z</time>
      </trkpt>
      <trkpt lat="50.17294" lon="1.63232">
        <ele>28.2</ele>
        <time>2020-06-18T16:09:57Z</time>
      </trkpt>
      <trkpt lat="50.17294" lon="1.63243">
        <ele>28.2</ele>
        <time>2020-06-18T16:09:58Z</time>
      </trkpt>
      <trkpt lat="50.17294" lon="1.63255">
        <ele>28.1</ele>
        <time>2020-06-18T16:09:59Z</time>
      </trkpt>
      <trkpt lat="50.17294" lon="1.63266">
        <ele>28.1</ele>
        <time>2020-06-18T16:10:00Z</time>
      </trkpt>
      <trkpt lat="50.17294" lon="1.63277">
        <ele>28.1</ele>
        <time>2020-06-18T16:10:01Z</time>
      </trkpt>
      <trkpt lat="50.17294" lon="1.63288">
        <ele>28.1</ele>
        <time>2020-06-18T16:10:02Z</time>
      </trkpt>
      <trkpt lat="50.17294" lon="1.63299">
        <ele>28</ele>
        <time>2020-06-18T16:10:03Z</time>
      </trkpt>
      <trkpt lat="50.17295" lon="1.63311">
        <ele>27.9</ele>
        <time>2020-06-18T16:10:04Z</time>
      </trkpt>
      <trkpt lat="50.17295" lon="1.63322">
        <ele>27.8</ele>
        <time>2020-06-18T16:10:05Z</time>
      </trkpt>
      <trkpt lat="50.17296" lon="1.63333">
        <ele>27.7</ele>
        <time>2020-06-18T16:10:06Z</time>
      </trkpt>
      <trkpt lat="50.17296" lon="1.63345">
        <ele>27.7</ele>
        <time>2020-06-18T16:10:07Z</time>
      </trkpt>
      <trkpt lat="50.17296" lon="1.63357">
        <ele>27.6</ele>
        <time>2020-06-18T16:10:08Z</time>
      </trkpt>
      <trkpt lat="50.17296" lon="1.63368">
        <ele>27.5</ele>
        <time>2020-06-18T16:10:09Z</time>
      </trkpt>
      <trkpt lat="50.17296" lon="1.63379">
        <ele>27.5</ele>
        <time>2020-06-18T16:10:10Z</time>
      </trkpt>
      <trkpt lat="50.17296" lon="1.63391">
        <ele>27.5</ele>
        <time>2020-06-18T16:10:11Z</time>
      </trkpt>
      <trkpt lat="50.17296" lon="1.63402">
        <ele>27.5</ele>
        <time>2020-06-18T16:10:12Z</time>
      </trkpt>
      <trkpt lat="50.17296" lon="1.63413">
        <ele>27.5</ele>
        <time>2020-06-18T16:10:13Z</time>
      </trkpt>
      <trkpt lat="50.17296" lon="1.63424">
        <ele>27.5</ele>
        <time>2020-06-18T16:10:14Z</time>
      </trkpt>
      <trkpt lat="50.17296" lon="1.63435">
        <ele>27.5</ele>
        <time>2020-06-18T16:10:15Z</time>
      </trkpt>
      <trkpt lat="50.17295" lon="1.63445">
        <ele>27.5</ele>
        <time>2020-06-18T16:10:16Z</time>
      </trkpt>
      <trkpt lat="50.17296" lon="1.63456">
        <ele>27.5</ele>
        <time>2020-06-18T16:10:17Z</time>
      </trkpt>
      <trkpt lat="50.17295" lon="1.63466">
        <ele>27.5</ele>
        <time>2020-06-18T16:10:18Z</time>
      </trkpt>
      <trkpt lat="50.17295" lon="1.63476">
        <ele>27.5</ele>
        <time>2020-06-18T16:10:19Z</time>
      </trkpt>
      <trkpt lat="50.17295" lon="1.63487">
        <ele>27.4</ele>
        <time>2020-06-18T16:10:20Z</time>
      </trkpt>
      <trkpt lat="50.17294" lon="1.63497">
        <ele>27.4</ele>
        <time>2020-06-18T16:10:21Z</time>
      </trkpt>
      <trkpt lat="50.17294" lon="1.63506">
        <ele>27.4</ele>
        <time>2020-06-18T16:10:22Z</time>
      </trkpt>
      <trkpt lat="50.17294" lon="1.63516">
        <ele>27.4</ele>
        <time>2020-06-18T16:10:23Z</time>
      </trkpt>
      <trkpt lat="50.17294" lon="1.63525">
        <ele>27.5</ele>
        <time>2020-06-18T16:10:24Z</time>
      </trkpt>
      <trkpt lat="50.17294" lon="1.63535">
        <ele>27.6</ele>
        <time>2020-06-18T16:10:25Z</time>
      </trkpt>
      <trkpt lat="50.17293" lon="1.63544">
        <ele>27.6</ele>
        <time>2020-06-18T16:10:26Z</time>
      </trkpt>
      <trkpt lat="50.17294" lon="1.63552">
        <ele>27.7</ele>
        <time>2020-06-18T16:10:27Z</time>
      </trkpt>
      <trkpt lat="50.17294" lon="1.63561">
        <ele>27.8</ele>
        <time>2020-06-18T16:10:28Z</time>
      </trkpt>
      <trkpt lat="50.17294" lon="1.63569">
        <ele>27.9</ele>
        <time>2020-06-18T16:10:29Z</time>
      </trkpt>
      <trkpt lat="50.17294" lon="1.63577">
        <ele>28</ele>
        <time>2020-06-18T16:10:30Z</time>
      </trkpt>
      <trkpt lat="50.17294" lon="1.63583">
        <ele>28.1</ele>
        <time>2020-06-18T16:10:31Z</time>
      </trkpt>
      <trkpt lat="50.17293" lon="1.6359">
        <ele>28.2</ele>
        <time>2020-06-18T16:10:32Z</time>
      </trkpt>
      <trkpt lat="50.17291" lon="1.63593">
        <ele>28.3</ele>
        <time>2020-06-18T16:10:33Z</time>
      </trkpt>
      <trkpt lat="50.17288" lon="1.63595">
        <ele>28.4</ele>
        <time>2020-06-18T16:10:34Z</time>
      </trkpt>
      <trkpt lat="50.17285" lon="1.63595">
        <ele>28.4</ele>
        <time>2020-06-18T16:10:35Z</time>
      </trkpt>
      <trkpt lat="50.17282" lon="1.63597">
        <ele>28.5</ele>
        <time>2020-06-18T16:10:36Z</time>
      </trkpt>
      <trkpt lat="50.1728" lon="1.63602">
        <ele>28.5</ele>
        <time>2020-06-18T16:10:37Z</time>
      </trkpt>
      <trkpt lat="50.17279" lon="1.63604">
        <ele>28.5</ele>
        <time>2020-06-18T16:10:38Z</time>
      </trkpt>
      <trkpt lat="50.17277" lon="1.63608">
        <ele>28.4</ele>
        <time>2020-06-18T16:10:39Z</time>
      </trkpt>
      <trkpt lat="50.17275" lon="1.63614">
        <ele>28.3</ele>
        <time>2020-06-18T16:10:40Z</time>
      </trkpt>
      <trkpt lat="50.17275" lon="1.63619">
        <ele>28.2</ele>
        <time>2020-06-18T16:10:41Z</time>
      </trkpt>
      <trkpt lat="50.17275" lon="1.63625">
        <ele>28.1</ele>
        <time>2020-06-18T16:10:42Z</time>
      </trkpt>
      <trkpt lat="50.17274" lon="1.6363">
        <ele>28.1</ele>
        <time>2020-06-18T16:10:43Z</time>
      </trkpt>
      <trkpt lat="50.17274" lon="1.63635">
        <ele>28</ele>
        <time>2020-06-18T16:10:44Z</time>
      </trkpt>
      <trkpt lat="50.17274" lon="1.6364">
        <ele>28</ele>
        <time>2020-06-18T16:10:45Z</time>
      </trkpt>
      <trkpt lat="50.17275" lon="1.63646">
        <ele>27.9</ele>
        <time>2020-06-18T16:10:46Z</time>
      </trkpt>
      <trkpt lat="50.17276" lon="1.63651">
        <ele>27.8</ele>
        <time>2020-06-18T16:10:47Z</time>
      </trkpt>
      <trkpt lat="50.17277" lon="1.63655">
        <ele>27.8</ele>
        <time>2020-06-18T16:10:48Z</time>
      </trkpt>
      <trkpt lat="50.17278" lon="1.6366">
        <ele>27.8</ele>
        <time>2020-06-18T16:10:49Z</time>
      </trkpt>
      <trkpt lat="50.1728" lon="1.63664">
        <ele>27.7</ele>
        <time>2020-06-18T16:10:50Z</time>
      </trkpt>
      <trkpt lat="50.17283" lon="1.63668">
        <ele>27.7</ele>
        <time>2020-06-18T16:10:51Z</time>
      </trkpt>
      <trkpt lat="50.17286" lon="1.63672">
        <ele>27.6</ele>
        <time>2020-06-18T16:10:52Z</time>
      </trkpt>
      <trkpt lat="50.17288" lon="1.63677">
        <ele>27.6</ele>
        <time>2020-06-18T16:10:53Z</time>
      </trkpt>
      <trkpt lat="50.17289" lon="1.63683">
        <ele>27.6</ele>
        <time>2020-06-18T16:10:54Z</time>
      </trkpt>
      <trkpt lat="50.17288" lon="1.63689">
        <ele>27.5</ele>
        <time>2020-06-18T16:10:55Z</time>
      </trkpt>
      <trkpt lat="50.17288" lon="1.63695">
        <ele>27.5</ele>
        <time>2020-06-18T16:10:56Z</time>
      </trkpt>
      <trkpt lat="50.17287" lon="1.63701">
        <ele>27.4</ele>
        <time>2020-06-18T16:10:57Z</time>
      </trkpt>
      <trkpt lat="50.17287" lon="1.63708">
        <ele>27.4</ele>
        <time>2020-06-18T16:10:58Z</time>
      </trkpt>
      <trkpt lat="50.17287" lon="1.63714">
        <ele>27.3</ele>
        <time>2020-06-18T16:10:59Z</time>
      </trkpt>
      <trkpt lat="50.17287" lon="1.63721">
        <ele>27.3</ele>
        <time>2020-06-18T16:11:00Z</time>
      </trkpt>
      <trkpt lat="50.17287" lon="1.63727">
        <ele>27.3</ele>
        <time>2020-06-18T16:11:01Z</time>
      </trkpt>
      <trkpt lat="50.17287" lon="1.63734">
        <ele>27.2</ele>
        <time>2020-06-18T16:11:02Z</time>
      </trkpt>
      <trkpt lat="50.17287" lon="1.63742">
        <ele>27.2</ele>
        <time>2020-06-18T16:11:03Z</time>
      </trkpt>
      <trkpt lat="50.17288" lon="1.6375">
        <ele>27.1</ele>
        <time>2020-06-18T16:11:04Z</time>
      </trkpt>
      <trkpt lat="50.17289" lon="1.63757">
        <ele>27.1</ele>
        <time>2020-06-18T16:11:05Z</time>
      </trkpt>
      <trkpt lat="50.1729" lon="1.63766">
        <ele>27.1</ele>
        <time>2020-06-18T16:11:06Z</time>
      </trkpt>
      <trkpt lat="50.1729" lon="1.63775">
        <ele>27</ele>
        <time>2020-06-18T16:11:07Z</time>
      </trkpt>
      <trkpt lat="50.1729" lon="1.63783">
        <ele>27</ele>
        <time>2020-06-18T16:11:08Z</time>
      </trkpt>
      <trkpt lat="50.1729" lon="1.63791">
        <ele>26.9</ele>
        <time>2020-06-18T16:11:09Z</time>
      </trkpt>
      <trkpt lat="50.17291" lon="1.638">
        <ele>26.9</ele>
        <time>2020-06-18T16:11:10Z</time>
      </trkpt>
      <trkpt lat="50.17291" lon="1.63809">
        <ele>26.8</ele>
        <time>2020-06-18T16:11:11Z</time>
      </trkpt>
      <trkpt lat="50.17292" lon="1.63818">
        <ele>26.8</ele>
        <time>2020-06-18T16:11:12Z</time>
      </trkpt>
      <trkpt lat="50.17291" lon="1.63827">
        <ele>26.7</ele>
        <time>2020-06-18T16:11:13Z</time>
      </trkpt>
      <trkpt lat="50.17291" lon="1.63836">
        <ele>26.6</ele>
        <time>2020-06-18T16:11:14Z</time>
      </trkpt>
      <trkpt lat="50.17291" lon="1.63845">
        <ele>26.6</ele>
        <time>2020-06-18T16:11:15Z</time>
      </trkpt>
      <trkpt lat="50.1729" lon="1.63855">
        <ele>26.5</ele>
        <time>2020-06-18T16:11:16Z</time>
      </trkpt>
      <trkpt lat="50.17291" lon="1.63864">
        <ele>26.5</ele>
        <time>2020-06-18T16:11:17Z</time>
      </trkpt>
      <trkpt lat="50.17292" lon="1.63873">
        <ele>26.4</ele>
        <time>2020-06-18T16:11:18Z</time>
      </trkpt>
      <trkpt lat="50.17292" lon="1.63881">
        <ele>26.4</ele>
        <time>2020-06-18T16:11:19Z</time>
      </trkpt>
      <trkpt lat="50.17291" lon="1.6389">
        <ele>26.4</ele>
        <time>2020-06-18T16:11:20Z</time>
      </trkpt>
      <trkpt lat="50.17291" lon="1.63899">
        <ele>26.4</ele>
        <time>2020-06-18T16:11:21Z</time>
      </trkpt>
      <trkpt lat="50.17291" lon="1.63909">
        <ele>26.3</ele>
        <time>2020-06-18T16:11:22Z</time>
      </trkpt>
      <trkpt lat="50.17291" lon="1.63918">
        <ele>26.2</ele>
        <time>2020-06-18T16:11:23Z</time>
      </trkpt>
      <trkpt lat="50.17291" lon="1.63928">
        <ele>26.2</ele>
        <time>2020-06-18T16:11:24Z</time>
      </trkpt>
      <trkpt lat="50.17291" lon="1.63938">
        <ele>26.1</ele>
        <time>2020-06-18T16:11:25Z</time>
      </trkpt>
      <trkpt lat="50.17292" lon="1.63948">
        <ele>26</ele>
        <time>2020-06-18T16:11:26Z</time>
      </trkpt>
      <trkpt lat="50.17292" lon="1.63958">
        <ele>26</ele>
        <time>2020-06-18T16:11:27Z</time>
      </trkpt>
      <trkpt lat="50.17292" lon="1.63967">
        <ele>25.9</ele>
        <time>2020-06-18T16:11:28Z</time>
      </trkpt>
      <trkpt lat="50.17292" lon="1.63977">
        <ele>25.8</ele>
        <time>2020-06-18T16:11:29Z</time>
      </trkpt>
      <trkpt lat="50.17292" lon="1.63986">
        <ele>25.7</ele>
        <time>2020-06-18T16:11:30Z</time>
      </trkpt>
      <trkpt lat="50.17292" lon="1.63996">
        <ele>25.7</ele>
        <time>2020-06-18T16:11:31Z</time>
      </trkpt>
      <trkpt lat="50.17292" lon="1.64005">
        <ele>25.6</ele>
        <time>2020-06-18T16:11:32Z</time>
      </trkpt>
      <trkpt lat="50.17292" lon="1.64015">
        <ele>25.6</ele>
        <time>2020-06-18T16:11:33Z</time>
      </trkpt>
      <trkpt lat="50.17291" lon="1.64025">
        <ele>25.5</ele>
        <time>2020-06-18T16:11:34Z</time>
      </trkpt>
      <trkpt lat="50.1729" lon="1.64035">
        <ele>25.4</ele>
        <time>2020-06-18T16:11:35Z</time>
      </trkpt>
      <trkpt lat="50.1729" lon="1.64044">
        <ele>25.3</ele>
        <time>2020-06-18T16:11:36Z</time>
      </trkpt>
      <trkpt lat="50.1729" lon="1.64054">
        <ele>25.3</ele>
        <time>2020-06-18T16:11:37Z</time>
      </trkpt>
      <trkpt lat="50.17289" lon="1.64063">
        <ele>25.2</ele>
        <time>2020-06-18T16:11:38Z</time>
      </trkpt>
      <trkpt lat="50.17289" lon="1.64073">
        <ele>25</ele>
        <time>2020-06-18T16:11:39Z</time>
      </trkpt>
      <trkpt lat="50.17289" lon="1.64083">
        <ele>24.9</ele>
        <time>2020-06-18T16:11:40Z</time>
      </trkpt>
      <trkpt lat="50.17289" lon="1.64093">
        <ele>24.8</ele>
        <time>2020-06-18T16:11:41Z</time>
      </trkpt>
      <trkpt lat="50.17289" lon="1.64103">
        <ele>24.7</ele>
        <time>2020-06-18T16:11:42Z</time>
      </trkpt>
      <trkpt lat="50.17289" lon="1.64113">
        <ele>24.6</ele>
        <time>2020-06-18T16:11:43Z</time>
      </trkpt>
      <trkpt lat="50.17289" lon="1.64123">
        <ele>24.5</ele>
        <time>2020-06-18T16:11:44Z</time>
      </trkpt>
      <trkpt lat="50.17289" lon="1.64131">
        <ele>24.4</ele>
        <time>2020-06-18T16:11:45Z</time>
      </trkpt>
      <trkpt lat="50.17289" lon="1.6414">
        <ele>24.3</ele>
        <time>2020-06-18T16:11:46Z</time>
      </trkpt>
      <trkpt lat="50.17289" lon="1.6415">
        <ele>24.1</ele>
        <time>2020-06-18T16:11:47Z</time>
      </trkpt>
      <trkpt lat="50.1729" lon="1.64159">
        <ele>24</ele>
        <time>2020-06-18T16:11:48Z</time>
      </trkpt>
      <trkpt lat="50.1729" lon="1.64169">
        <ele>23.8</ele>
        <time>2020-06-18T16:11:49Z</time>
      </trkpt>
      <trkpt lat="50.17289" lon="1.64179">
        <ele>23.6</ele>
        <time>2020-06-18T16:11:50Z</time>
      </trkpt>
      <trkpt lat="50.17289" lon="1.6419">
        <ele>23.4</ele>
        <time>2020-06-18T16:11:51Z</time>
      </trkpt>
      <trkpt lat="50.17289" lon="1.64201">
        <ele>23.2</ele>
        <time>2020-06-18T16:11:52Z</time>
      </trkpt>
      <trkpt lat="50.17289" lon="1.64212">
        <ele>22.8</ele>
        <time>2020-06-18T16:11:53Z</time>
      </trkpt>
      <trkpt lat="50.17289" lon="1.64223">
        <ele>22.5</ele>
        <time>2020-06-18T16:11:54Z</time>
      </trkpt>
      <trkpt lat="50.1729" lon="1.64234">
        <ele>22.2</ele>
        <time>2020-06-18T16:11:55Z</time>
      </trkpt>
      <trkpt lat="50.1729" lon="1.64245">
        <ele>21.9</ele>
        <time>2020-06-18T16:11:56Z</time>
      </trkpt>
      <trkpt lat="50.1729" lon="1.64257">
        <ele>21.6</ele>
        <time>2020-06-18T16:11:57Z</time>
      </trkpt>
      <trkpt lat="50.1729" lon="1.64269">
        <ele>21.3</ele>
        <time>2020-06-18T16:11:58Z</time>
      </trkpt>
      <trkpt lat="50.1729" lon="1.64281">
        <ele>21</ele>
        <time>2020-06-18T16:11:59Z</time>
      </trkpt>
      <trkpt lat="50.1729" lon="1.64293">
        <ele>20.7</ele>
        <time>2020-06-18T16:12:00Z</time>
      </trkpt>
      <trkpt lat="50.1729" lon="1.64305">
        <ele>20.3</ele>
        <time>2020-06-18T16:12:01Z</time>
      </trkpt>
      <trkpt lat="50.1729" lon="1.64318">
        <ele>20</ele>
        <time>2020-06-18T16:12:02Z</time>
      </trkpt>
      <trkpt lat="50.1729" lon="1.64331">
        <ele>19.6</ele>
        <time>2020-06-18T16:12:03Z</time>
      </trkpt>
      <trkpt lat="50.1729" lon="1.64344">
        <ele>19.2</ele>
        <time>2020-06-18T16:12:04Z</time>
      </trkpt>
      <trkpt lat="50.17289" lon="1.64357">
        <ele>18.9</ele>
        <time>2020-06-18T16:12:05Z</time>
      </trkpt>
      <trkpt lat="50.17289" lon="1.64371">
        <ele>18.5</ele>
        <time>2020-06-18T16:12:06Z</time>
      </trkpt>
      <trkpt lat="50.17289" lon="1.64384">
        <ele>18.1</ele>
        <time>2020-06-18T16:12:07Z</time>
      </trkpt>
      <trkpt lat="50.17287" lon="1.64398">
        <ele>17.8</ele>
        <time>2020-06-18T16:12:08Z</time>
      </trkpt>
      <trkpt lat="50.17287" lon="1.64411">
        <ele>17.5</ele>
        <time>2020-06-18T16:12:09Z</time>
      </trkpt>
      <trkpt lat="50.17286" lon="1.64424">
        <ele>17.3</ele>
        <time>2020-06-18T16:12:10Z</time>
      </trkpt>
      <trkpt lat="50.17285" lon="1.64437">
        <ele>17.1</ele>
        <time>2020-06-18T16:12:11Z</time>
      </trkpt>
      <trkpt lat="50.17285" lon="1.64449">
        <ele>17</ele>
        <time>2020-06-18T16:12:12Z</time>
      </trkpt>
      <trkpt lat="50.17285" lon="1.64461">
        <ele>16.7</ele>
        <time>2020-06-18T16:12:13Z</time>
      </trkpt>
      <trkpt lat="50.17285" lon="1.64473">
        <ele>16.4</ele>
        <time>2020-06-18T16:12:14Z</time>
      </trkpt>
      <trkpt lat="50.17285" lon="1.64485">
        <ele>16</ele>
        <time>2020-06-18T16:12:15Z</time>
      </trkpt>
      <trkpt lat="50.17284" lon="1.64498">
        <ele>15.7</ele>
        <time>2020-06-18T16:12:16Z</time>
      </trkpt>
      <trkpt lat="50.17285" lon="1.6451">
        <ele>15.3</ele>
        <time>2020-06-18T16:12:17Z</time>
      </trkpt>
      <trkpt lat="50.17284" lon="1.64524">
        <ele>14.9</ele>
        <time>2020-06-18T16:12:18Z</time>
      </trkpt>
      <trkpt lat="50.17284" lon="1.64537">
        <ele>14.4</ele>
        <time>2020-06-18T16:12:19Z</time>
      </trkpt>
      <trkpt lat="50.17282" lon="1.64551">
        <ele>13.8</ele>
        <time>2020-06-18T16:12:20Z</time>
      </trkpt>
      <trkpt lat="50.17282" lon="1.64566">
        <ele>13.2</ele>
        <time>2020-06-18T16:12:21Z</time>
      </trkpt>
      <trkpt lat="50.1728" lon="1.64581">
        <ele>12.6</ele>
        <time>2020-06-18T16:12:22Z</time>
      </trkpt>
      <trkpt lat="50.17279" lon="1.64596">
        <ele>12</ele>
        <time>2020-06-18T16:12:23Z</time>
      </trkpt>
      <trkpt lat="50.17278" lon="1.64611">
        <ele>11.4</ele>
        <time>2020-06-18T16:12:24Z</time>
      </trkpt>
      <trkpt lat="50.17276" lon="1.64626">
        <ele>10.9</ele>
        <time>2020-06-18T16:12:25Z</time>
      </trkpt>
      <trkpt lat="50.17274" lon="1.64641">
        <ele>10.4</ele>
        <time>2020-06-18T16:12:26Z</time>
      </trkpt>
      <trkpt lat="50.17273" lon="1.64657">
        <ele>10</ele>
        <time>2020-06-18T16:12:27Z</time>
      </trkpt>
      <trkpt lat="50.1727" lon="1.64672">
        <ele>9.4</ele>
        <time>2020-06-18T16:12:28Z</time>
      </trkpt>
      <trkpt lat="50.17267" lon="1.64687">
        <ele>8.9</ele>
        <time>2020-06-18T16:12:29Z</time>
      </trkpt>
      <trkpt lat="50.17266" lon="1.64702">
        <ele>8.3</ele>
        <time>2020-06-18T16:12:30Z</time>
      </trkpt>
      <trkpt lat="50.17264" lon="1.64717">
        <ele>7.8</ele>
        <time>2020-06-18T16:12:31Z</time>
      </trkpt>
      <trkpt lat="50.17261" lon="1.64732">
        <ele>7.3</ele>
        <time>2020-06-18T16:12:32Z</time>
      </trkpt>
      <trkpt lat="50.17259" lon="1.64747">
        <ele>6.9</ele>
        <time>2020-06-18T16:12:33Z</time>
      </trkpt>
      <trkpt lat="50.17257" lon="1.64762">
        <ele>6.5</ele>
        <time>2020-06-18T16:12:34Z</time>
      </trkpt>
      <trkpt lat="50.17255" lon="1.64777">
        <ele>6.1</ele>
        <time>2020-06-18T16:12:35Z</time>
      </trkpt>
      <trkpt lat="50.17253" lon="1.64791">
        <ele>5.8</ele>
        <time>2020-06-18T16:12:36Z</time>
      </trkpt>
      <trkpt lat="50.17251" lon="1.64805">
        <ele>5.5</ele>
        <time>2020-06-18T16:12:37Z</time>
      </trkpt>
      <trkpt lat="50.17249" lon="1.64818">
        <ele>5.4</ele>
        <time>2020-06-18T16:12:38Z</time>
      </trkpt>
      <trkpt lat="50.17249" lon="1.64831">
        <ele>5.3</ele>
        <time>2020-06-18T16:12:39Z</time>
      </trkpt>
      <trkpt lat="50.17249" lon="1.64843">
        <ele>5.2</ele>
        <time>2020-06-18T16:12:40Z</time>
      </trkpt>
      <trkpt lat="50.17248" lon="1.64854">
        <ele>5.1</ele>
        <time>2020-06-18T16:12:41Z</time>
      </trkpt>
      <trkpt lat="50.17248" lon="1.64863">
        <ele>5</ele>
        <time>2020-06-18T16:12:42Z</time>
      </trkpt>
      <trkpt lat="50.17247" lon="1.64871">
        <ele>4.9</ele>
        <time>2020-06-18T16:12:43Z</time>
      </trkpt>
      <trkpt lat="50.17245" lon="1.64878">
        <ele>4.9</ele>
        <time>2020-06-18T16:12:44Z</time>
      </trkpt>
      <trkpt lat="50.17245" lon="1.64884">
        <ele>4.8</ele>
        <time>2020-06-18T16:12:45Z</time>
      </trkpt>
      <trkpt lat="50.17245" lon="1.64889">
        <ele>4.8</ele>
        <time>2020-06-18T16:12:46Z</time>
      </trkpt>
      <trkpt lat="50.17244" lon="1.64893">
        <ele>4.8</ele>
        <time>2020-06-18T16:12:47Z</time>
      </trkpt>
      <trkpt lat="50.17243" lon="1.64897">
        <ele>4.8</ele>
        <time>2020-06-18T16:12:48Z</time>
      </trkpt>
      <trkpt lat="50.17243" lon="1.64903">
        <ele>4.8</ele>
        <time>2020-06-18T16:12:49Z</time>
      </trkpt>
      <trkpt lat="50.17243" lon="1.64905">
        <ele>4.9</ele>
        <time>2020-06-18T16:12:50Z</time>
      </trkpt>
      <trkpt lat="50.17242" lon="1.64911">
        <ele>4.9</ele>
        <time>2020-06-18T16:12:51Z</time>
      </trkpt>
      <trkpt lat="50.17241" lon="1.64913">
        <ele>4.9</ele>
        <time>2020-06-18T16:12:52Z</time>
      </trkpt>
      <trkpt lat="50.1724" lon="1.64918">
        <ele>5</ele>
        <time>2020-06-18T16:12:53Z</time>
      </trkpt>
      <trkpt lat="50.1724" lon="1.64924">
        <ele>5.1</ele>
        <time>2020-06-18T16:12:54Z</time>
      </trkpt>
      <trkpt lat="50.17239" lon="1.6493">
        <ele>5.2</ele>
        <time>2020-06-18T16:12:55Z</time>
      </trkpt>
      <trkpt lat="50.17239" lon="1.64937">
        <ele>5.1</ele>
        <time>2020-06-18T16:12:56Z</time>
      </trkpt>
      <trkpt lat="50.1724" lon="1.64944">
        <ele>5</ele>
        <time>2020-06-18T16:12:57Z</time>
      </trkpt>
      <trkpt lat="50.1724" lon="1.64952">
        <ele>4.9</ele>
        <time>2020-06-18T16:12:58Z</time>
      </trkpt>
      <trkpt lat="50.17241" lon="1.64959">
        <ele>5</ele>
        <time>2020-06-18T16:12:59Z</time>
      </trkpt>
      <trkpt lat="50.17243" lon="1.64965">
        <ele>4.9</ele>
        <time>2020-06-18T16:13:00Z</time>
      </trkpt>
      <trkpt lat="50.17245" lon="1.64972">
        <ele>4.8</ele>
        <time>2020-06-18T16:13:01Z</time>
      </trkpt>
      <trkpt lat="50.17247" lon="1.64978">
        <ele>4.7</ele>
        <time>2020-06-18T16:13:02Z</time>
      </trkpt>
      <trkpt lat="50.17248" lon="1.64985">
        <ele>4.6</ele>
        <time>2020-06-18T16:13:03Z</time>
      </trkpt>
      <trkpt lat="50.1725" lon="1.64991">
        <ele>4.6</ele>
        <time>2020-06-18T16:13:04Z</time>
      </trkpt>
      <trkpt lat="50.1725" lon="1.64998">
        <ele>4.5</ele>
        <time>2020-06-18T16:13:05Z</time>
      </trkpt>
      <trkpt lat="50.17249" lon="1.65005">
        <ele>4.5</ele>
        <time>2020-06-18T16:13:06Z</time>
      </trkpt>
      <trkpt lat="50.17247" lon="1.65011">
        <ele>4.5</ele>
        <time>2020-06-18T16:13:07Z</time>
      </trkpt>
      <trkpt lat="50.17245" lon="1.65017">
        <ele>4.4</ele>
        <time>2020-06-18T16:13:08Z</time>
      </trkpt>
      <trkpt lat="50.17243" lon="1.65022">
        <ele>4.3</ele>
        <time>2020-06-18T16:13:09Z</time>
      </trkpt>
      <trkpt lat="50.1724" lon="1.65027">
        <ele>4.2</ele>
        <time>2020-06-18T16:13:10Z</time>
      </trkpt>
      <trkpt lat="50.17238" lon="1.65033">
        <ele>4.1</ele>
        <time>2020-06-18T16:13:11Z</time>
      </trkpt>
      <trkpt lat="50.17237" lon="1.65039">
        <ele>4</ele>
        <time>2020-06-18T16:13:12Z</time>
      </trkpt>
      <trkpt lat="50.17235" lon="1.65046">
        <ele>3.9</ele>
        <time>2020-06-18T16:13:13Z</time>
      </trkpt>
      <trkpt lat="50.17234" lon="1.65052">
        <ele>3.9</ele>
        <time>2020-06-18T16:13:14Z</time>
      </trkpt>
      <trkpt lat="50.17233" lon="1.65058">
        <ele>3.8</ele>
        <time>2020-06-18T16:13:15Z</time>
      </trkpt>
      <trkpt lat="50.17232" lon="1.65065">
        <ele>3.8</ele>
        <time>2020-06-18T16:13:16Z</time>
      </trkpt>
      <trkpt lat="50.1723" lon="1.65072">
        <ele>3.7</ele>
        <time>2020-06-18T16:13:17Z</time>
      </trkpt>
      <trkpt lat="50.17228" lon="1.65077">
        <ele>3.7</ele>
        <time>2020-06-18T16:13:18Z</time>
      </trkpt>
      <trkpt lat="50.17227" lon="1.65084">
        <ele>3.6</ele>
        <time>2020-06-18T16:13:19Z</time>
      </trkpt>
      <trkpt lat="50.17226" lon="1.6509">
        <ele>3.6</ele>
        <time>2020-06-18T16:13:20Z</time>
      </trkpt>
      <trkpt lat="50.17225" lon="1.65097">
        <ele>3.6</ele>
        <time>2020-06-18T16:13:21Z</time>
      </trkpt>
      <trkpt lat="50.17225" lon="1.65106">
        <ele>3.6</ele>
        <time>2020-06-18T16:13:22Z</time>
      </trkpt>
      <trkpt lat="50.17224" lon="1.65115">
        <ele>3.6</ele>
        <time>2020-06-18T16:13:23Z</time>
      </trkpt>
      <trkpt lat="50.17222" lon="1.65125">
        <ele>3.6</ele>
        <time>2020-06-18T16:13:24Z</time>
      </trkpt>
      <trkpt lat="50.17222" lon="1.65135">
        <ele>3.5</ele>
        <time>2020-06-18T16:13:25Z</time>
      </trkpt>
      <trkpt lat="50.1722" lon="1.65146">
        <ele>3.5</ele>
        <time>2020-06-18T16:13:26Z</time>
      </trkpt>
      <trkpt lat="50.17217" lon="1.65157">
        <ele>3.4</ele>
        <time>2020-06-18T16:13:27Z</time>
      </trkpt>
      <trkpt lat="50.17216" lon="1.65168">
        <ele>3.3</ele>
        <time>2020-06-18T16:13:28Z</time>
      </trkpt>
      <trkpt lat="50.17214" lon="1.65179">
        <ele>3.2</ele>
        <time>2020-06-18T16:13:29Z</time>
      </trkpt>
      <trkpt lat="50.17212" lon="1.6519">
        <ele>3.2</ele>
        <time>2020-06-18T16:13:30Z</time>
      </trkpt>
      <trkpt lat="50.17211" lon="1.65202">
        <ele>3.1</ele>
        <time>2020-06-18T16:13:31Z</time>
      </trkpt>
      <trkpt lat="50.1721" lon="1.65213">
        <ele>3</ele>
        <time>2020-06-18T16:13:32Z</time>
      </trkpt>
      <trkpt lat="50.17209" lon="1.65224">
        <ele>2.9</ele>
        <time>2020-06-18T16:13:33Z</time>
      </trkpt>
      <trkpt lat="50.17208" lon="1.65235">
        <ele>2.9</ele>
        <time>2020-06-18T16:13:34Z</time>
      </trkpt>
      <trkpt lat="50.17207" lon="1.65245">
        <ele>2.8</ele>
        <time>2020-06-18T16:13:35Z</time>
      </trkpt>
      <trkpt lat="50.17206" lon="1.65256">
        <ele>2.8</ele>
        <time>2020-06-18T16:13:36Z</time>
      </trkpt>
      <trkpt lat="50.17205" lon="1.65265">
        <ele>2.8</ele>
        <time>2020-06-18T16:13:37Z</time>
      </trkpt>
      <trkpt lat="50.17204" lon="1.65275">
        <ele>2.8</ele>
        <time>2020-06-18T16:13:38Z</time>
      </trkpt>
      <trkpt lat="50.17202" lon="1.65284">
        <ele>2.9</ele>
        <time>2020-06-18T16:13:39Z</time>
      </trkpt>
      <trkpt lat="50.17201" lon="1.65294">
        <ele>2.9</ele>
        <time>2020-06-18T16:13:40Z</time>
      </trkpt>
      <trkpt lat="50.17201" lon="1.65303">
        <ele>3</ele>
        <time>2020-06-18T16:13:41Z</time>
      </trkpt>
      <trkpt lat="50.172" lon="1.65312">
        <ele>3</ele>
        <time>2020-06-18T16:13:42Z</time>
      </trkpt>
      <trkpt lat="50.17201" lon="1.6532">
        <ele>3.1</ele>
        <time>2020-06-18T16:13:43Z</time>
      </trkpt>
      <trkpt lat="50.17202" lon="1.65329">
        <ele>3.1</ele>
        <time>2020-06-18T16:13:44Z</time>
      </trkpt>
      <trkpt lat="50.17202" lon="1.65336">
        <ele>3.1</ele>
        <time>2020-06-18T16:13:45Z</time>
      </trkpt>
      <trkpt lat="50.17202" lon="1.65344">
        <ele>3.1</ele>
        <time>2020-06-18T16:13:46Z</time>
      </trkpt>
      <trkpt lat="50.17201" lon="1.65353">
        <ele>3.1</ele>
        <time>2020-06-18T16:13:47Z</time>
      </trkpt>
      <trkpt lat="50.17202" lon="1.65362">
        <ele>3.1</ele>
        <time>2020-06-18T16:13:48Z</time>
      </trkpt>
      <trkpt lat="50.17202" lon="1.6537">
        <ele>3.1</ele>
        <time>2020-06-18T16:13:49Z</time>
      </trkpt>
      <trkpt lat="50.17201" lon="1.65379">
        <ele>3.1</ele>
        <time>2020-06-18T16:13:50Z</time>
      </trkpt>
      <trkpt lat="50.17201" lon="1.65388">
        <ele>3.1</ele>
        <time>2020-06-18T16:13:51Z</time>
      </trkpt>
      <trkpt lat="50.17201" lon="1.65397">
        <ele>3.1</ele>
        <time>2020-06-18T16:13:52Z</time>
      </trkpt>
      <trkpt lat="50.17201" lon="1.65406">
        <ele>3.1</ele>
        <time>2020-06-18T16:13:53Z</time>
      </trkpt>
      <trkpt lat="50.17201" lon="1.65416">
        <ele>3.1</ele>
        <time>2020-06-18T16:13:54Z</time>
      </trkpt>
      <trkpt lat="50.17202" lon="1.65425">
        <ele>3.1</ele>
        <time>2020-06-18T16:13:55Z</time>
      </trkpt>
      <trkpt lat="50.17202" lon="1.65435">
        <ele>3.2</ele>
        <time>2020-06-18T16:13:56Z</time>
      </trkpt>
      <trkpt lat="50.17204" lon="1.65444">
        <ele>3.3</ele>
        <time>2020-06-18T16:13:57Z</time>
      </trkpt>
      <trkpt lat="50.17205" lon="1.65456">
        <ele>3.3</ele>
        <time>2020-06-18T16:13:58Z</time>
      </trkpt>
      <trkpt lat="50.17205" lon="1.65466">
        <ele>3.4</ele>
        <time>2020-06-18T16:13:59Z</time>
      </trkpt>
      <trkpt lat="50.17206" lon="1.65478">
        <ele>3.5</ele>
        <time>2020-06-18T16:14:00Z</time>
      </trkpt>
      <trkpt lat="50.17206" lon="1.65487">
        <ele>3.5</ele>
        <time>2020-06-18T16:14:01Z</time>
      </trkpt>
      <trkpt lat="50.17207" lon="1.65495">
        <ele>3.6</ele>
        <time>2020-06-18T16:14:02Z</time>
      </trkpt>
      <trkpt lat="50.17208" lon="1.65506">
        <ele>3.7</ele>
        <time>2020-06-18T16:14:03Z</time>
      </trkpt>
      <trkpt lat="50.17209" lon="1.65514">
        <ele>3.7</ele>
        <time>2020-06-18T16:14:04Z</time>
      </trkpt>
      <trkpt lat="50.17211" lon="1.65526">
        <ele>3.9</ele>
        <time>2020-06-18T16:14:05Z</time>
      </trkpt>
      <trkpt lat="50.17212" lon="1.65536">
        <ele>4</ele>
        <time>2020-06-18T16:14:06Z</time>
      </trkpt>
      <trkpt lat="50.17214" lon="1.65543">
        <ele>4.1</ele>
        <time>2020-06-18T16:14:07Z</time>
      </trkpt>
      <trkpt lat="50.17215" lon="1.65552">
        <ele>4.3</ele>
        <time>2020-06-18T16:14:08Z</time>
      </trkpt>
      <trkpt lat="50.17217" lon="1.65562">
        <ele>4.6</ele>
        <time>2020-06-18T16:14:09Z</time>
      </trkpt>
      <trkpt lat="50.1722" lon="1.6557">
        <ele>4.8</ele>
        <time>2020-06-18T16:14:10Z</time>
      </trkpt>
      <trkpt lat="50.17223" lon="1.65578">
        <ele>5.1</ele>
        <time>2020-06-18T16:14:11Z</time>
      </trkpt>
      <trkpt lat="50.17225" lon="1.65588">
        <ele>5.3</ele>
        <time>2020-06-18T16:14:12Z</time>
      </trkpt>
      <trkpt lat="50.17227" lon="1.65596">
        <ele>5.4</ele>
        <time>2020-06-18T16:14:13Z</time>
      </trkpt>
      <trkpt lat="50.17231" lon="1.65604">
        <ele>5.5</ele>
        <time>2020-06-18T16:14:14Z</time>
      </trkpt>
      <trkpt lat="50.17234" lon="1.65613">
        <ele>5.5</ele>
        <time>2020-06-18T16:14:15Z</time>
      </trkpt>
      <trkpt lat="50.17237" lon="1.65622">
        <ele>5.6</ele>
        <time>2020-06-18T16:14:16Z</time>
      </trkpt>
      <trkpt lat="50.1724" lon="1.6563">
        <ele>5.7</ele>
        <time>2020-06-18T16:14:17Z</time>
      </trkpt>
      <trkpt lat="50.17243" lon="1.65638">
        <ele>5.8</ele>
        <time>2020-06-18T16:14:18Z</time>
      </trkpt>
      <trkpt lat="50.17245" lon="1.65645">
        <ele>5.8</ele>
        <time>2020-06-18T16:14:19Z</time>
      </trkpt>
      <trkpt lat="50.17248" lon="1.65652">
        <ele>5.9</ele>
        <time>2020-06-18T16:14:20Z</time>
      </trkpt>
      <trkpt lat="50.17251" lon="1.65657">
        <ele>5.9</ele>
        <time>2020-06-18T16:14:21Z</time>
      </trkpt>
      <trkpt lat="50.17254" lon="1.65664">
        <ele>6</ele>
        <time>2020-06-18T16:14:22Z</time>
      </trkpt>
      <trkpt lat="50.17257" lon="1.6567">
        <ele>6</ele>
        <time>2020-06-18T16:14:23Z</time>
      </trkpt>
      <trkpt lat="50.1726" lon="1.65676">
        <ele>6.1</ele>
        <time>2020-06-18T16:14:24Z</time>
      </trkpt>
      <trkpt lat="50.17263" lon="1.65682">
        <ele>6.1</ele>
        <time>2020-06-18T16:14:25Z</time>
      </trkpt>
      <trkpt lat="50.17266" lon="1.65688">
        <ele>6.2</ele>
        <time>2020-06-18T16:14:26Z</time>
      </trkpt>
      <trkpt lat="50.1727" lon="1.65694">
        <ele>6.3</ele>
        <time>2020-06-18T16:14:27Z</time>
      </trkpt>
      <trkpt lat="50.17274" lon="1.65701">
        <ele>6.4</ele>
        <time>2020-06-18T16:14:28Z</time>
      </trkpt>
      <trkpt lat="50.17277" lon="1.65707">
        <ele>6.4</ele>
        <time>2020-06-18T16:14:29Z</time>
      </trkpt>
      <trkpt lat="50.1728" lon="1.65713">
        <ele>6.5</ele>
        <time>2020-06-18T16:14:30Z</time>
      </trkpt>
      <trkpt lat="50.17283" lon="1.65719">
        <ele>6.5</ele>
        <time>2020-06-18T16:14:31Z</time>
      </trkpt>
      <trkpt lat="50.17286" lon="1.65723">
        <ele>6.6</ele>
        <time>2020-06-18T16:14:32Z</time>
      </trkpt>
      <trkpt lat="50.17289" lon="1.65727">
        <ele>6.6</ele>
        <time>2020-06-18T16:14:33Z</time>
      </trkpt>
      <trkpt lat="50.17292" lon="1.65733">
        <ele>6.7</ele>
        <time>2020-06-18T16:14:34Z</time>
      </trkpt>
      <trkpt lat="50.17295" lon="1.65737">
        <ele>6.7</ele>
        <time>2020-06-18T16:14:35Z</time>
      </trkpt>
      <trkpt lat="50.17298" lon="1.65743">
        <ele>6.7</ele>
        <time>2020-06-18T16:14:36Z</time>
      </trkpt>
      <trkpt lat="50.17301" lon="1.65749">
        <ele>6.8</ele>
        <time>2020-06-18T16:14:37Z</time>
      </trkpt>
      <trkpt lat="50.17304" lon="1.65755">
        <ele>6.8</ele>
        <time>2020-06-18T16:14:38Z</time>
      </trkpt>
      <trkpt lat="50.17306" lon="1.6576">
        <ele>6.8</ele>
        <time>2020-06-18T16:14:39Z</time>
      </trkpt>
      <trkpt lat="50.1731" lon="1.65767">
        <ele>6.8</ele>
        <time>2020-06-18T16:14:40Z</time>
      </trkpt>
      <trkpt lat="50.17313" lon="1.65772">
        <ele>6.8</ele>
        <time>2020-06-18T16:14:41Z</time>
      </trkpt>
      <trkpt lat="50.17315" lon="1.65776">
        <ele>6.8</ele>
        <time>2020-06-18T16:14:42Z</time>
      </trkpt>
      <trkpt lat="50.17319" lon="1.65782">
        <ele>6.8</ele>
        <time>2020-06-18T16:14:43Z</time>
      </trkpt>
      <trkpt lat="50.1732" lon="1.65786">
        <ele>6.8</ele>
        <time>2020-06-18T16:14:44Z</time>
      </trkpt>
      <trkpt lat="50.17323" lon="1.65791">
        <ele>6.8</ele>
        <time>2020-06-18T16:14:45Z</time>
      </trkpt>
      <trkpt lat="50.17325" lon="1.65796">
        <ele>6.8</ele>
        <time>2020-06-18T16:14:46Z</time>
      </trkpt>
      <trkpt lat="50.17327" lon="1.658">
        <ele>6.8</ele>
        <time>2020-06-18T16:14:47Z</time>
      </trkpt>
      <trkpt lat="50.1733" lon="1.65805">
        <ele>6.7</ele>
        <time>2020-06-18T16:14:48Z</time>
      </trkpt>
      <trkpt lat="50.17332" lon="1.6581">
        <ele>6.7</ele>
        <time>2020-06-18T16:14:49Z</time>
      </trkpt>
      <trkpt lat="50.17334" lon="1.65815">
        <ele>6.7</ele>
        <time>2020-06-18T16:14:50Z</time>
      </trkpt>
      <trkpt lat="50.17336" lon="1.65819">
        <ele>6.7</ele>
        <time>2020-06-18T16:14:51Z</time>
      </trkpt>
      <trkpt lat="50.17339" lon="1.65824">
        <ele>6.6</ele>
        <time>2020-06-18T16:14:52Z</time>
      </trkpt>
      <trkpt lat="50.17342" lon="1.6583">
        <ele>6.6</ele>
        <time>2020-06-18T16:14:53Z</time>
      </trkpt>
      <trkpt lat="50.17345" lon="1.65835">
        <ele>6.5</ele>
        <time>2020-06-18T16:14:54Z</time>
      </trkpt>
      <trkpt lat="50.17348" lon="1.65843">
        <ele>6.5</ele>
        <time>2020-06-18T16:14:55Z</time>
      </trkpt>
      <trkpt lat="50.17351" lon="1.65851">
        <ele>6.4</ele>
        <time>2020-06-18T16:14:56Z</time>
      </trkpt>
      <trkpt lat="50.17354" lon="1.65859">
        <ele>6.3</ele>
        <time>2020-06-18T16:14:57Z</time>
      </trkpt>
      <trkpt lat="50.17358" lon="1.65867">
        <ele>6.3</ele>
        <time>2020-06-18T16:14:58Z</time>
      </trkpt>
      <trkpt lat="50.17362" lon="1.65874">
        <ele>6.2</ele>
        <time>2020-06-18T16:14:59Z</time>
      </trkpt>
      <trkpt lat="50.17365" lon="1.65881">
        <ele>6.1</ele>
        <time>2020-06-18T16:15:00Z</time>
      </trkpt>
      <trkpt lat="50.17369" lon="1.65889">
        <ele>6.1</ele>
        <time>2020-06-18T16:15:01Z</time>
      </trkpt>
      <trkpt lat="50.17372" lon="1.65897">
        <ele>6</ele>
        <time>2020-06-18T16:15:02Z</time>
      </trkpt>
      <trkpt lat="50.17375" lon="1.65906">
        <ele>5.9</ele>
        <time>2020-06-18T16:15:03Z</time>
      </trkpt>
      <trkpt lat="50.17377" lon="1.65917">
        <ele>5.7</ele>
        <time>2020-06-18T16:15:04Z</time>
      </trkpt>
      <trkpt lat="50.17379" lon="1.65926">
        <ele>5.5</ele>
        <time>2020-06-18T16:15:05Z</time>
      </trkpt>
      <trkpt lat="50.1738" lon="1.65937">
        <ele>5.4</ele>
        <time>2020-06-18T16:15:06Z</time>
      </trkpt>
      <trkpt lat="50.17381" lon="1.65947">
        <ele>5.1</ele>
        <time>2020-06-18T16:15:07Z</time>
      </trkpt>
      <trkpt lat="50.17383" lon="1.65955">
        <ele>5</ele>
        <time>2020-06-18T16:15:08Z</time>
      </trkpt>
      <trkpt lat="50.17384" lon="1.65965">
        <ele>4.9</ele>
        <time>2020-06-18T16:15:09Z</time>
      </trkpt>
      <trkpt lat="50.17386" lon="1.65975">
        <ele>4.8</ele>
        <time>2020-06-18T16:15:10Z</time>
      </trkpt>
      <trkpt lat="50.17387" lon="1.65984">
        <ele>4.6</ele>
        <time>2020-06-18T16:15:11Z</time>
      </trkpt>
      <trkpt lat="50.17388" lon="1.65994">
        <ele>4.5</ele>
        <time>2020-06-18T16:15:12Z</time>
      </trkpt>
      <trkpt lat="50.17388" lon="1.66002">
        <ele>4.4</ele>
        <time>2020-06-18T16:15:13Z</time>
      </trkpt>
      <trkpt lat="50.17389" lon="1.66011">
        <ele>4.3</ele>
        <time>2020-06-18T16:15:14Z</time>
      </trkpt>
      <trkpt lat="50.17389" lon="1.66022">
        <ele>4.3</ele>
        <time>2020-06-18T16:15:15Z</time>
      </trkpt>
      <trkpt lat="50.1739" lon="1.66032">
        <ele>4.2</ele>
        <time>2020-06-18T16:15:16Z</time>
      </trkpt>
      <trkpt lat="50.1739" lon="1.66041">
        <ele>4.2</ele>
        <time>2020-06-18T16:15:17Z</time>
      </trkpt>
      <trkpt lat="50.17391" lon="1.66049">
        <ele>4.2</ele>
        <time>2020-06-18T16:15:18Z</time>
      </trkpt>
      <trkpt lat="50.17391" lon="1.66056">
        <ele>4.2</ele>
        <time>2020-06-18T16:15:19Z</time>
      </trkpt>
      <trkpt lat="50.17391" lon="1.66063">
        <ele>4.2</ele>
        <time>2020-06-18T16:15:20Z</time>
      </trkpt>
      <trkpt lat="50.1739" lon="1.6607">
        <ele>4.3</ele>
        <time>2020-06-18T16:15:21Z</time>
      </trkpt>
      <trkpt lat="50.17389" lon="1.66078">
        <ele>4.3</ele>
        <time>2020-06-18T16:15:22Z</time>
      </trkpt>
      <trkpt lat="50.17387" lon="1.66086">
        <ele>4.3</ele>
        <time>2020-06-18T16:15:23Z</time>
      </trkpt>
      <trkpt lat="50.17386" lon="1.66095">
        <ele>4.3</ele>
        <time>2020-06-18T16:15:24Z</time>
      </trkpt>
      <trkpt lat="50.17385" lon="1.66102">
        <ele>4.4</ele>
        <time>2020-06-18T16:15:25Z</time>
      </trkpt>
      <trkpt lat="50.17384" lon="1.66106">
        <ele>4.3</ele>
        <time>2020-06-18T16:15:26Z</time>
      </trkpt>
      <trkpt lat="50.17384" lon="1.66114">
        <ele>4.3</ele>
        <time>2020-06-18T16:15:27Z</time>
      </trkpt>
      <trkpt lat="50.17383" lon="1.66122">
        <ele>4.3</ele>
        <time>2020-06-18T16:15:28Z</time>
      </trkpt>
      <trkpt lat="50.17382" lon="1.6613">
        <ele>4.3</ele>
        <time>2020-06-18T16:15:29Z</time>
      </trkpt>
      <trkpt lat="50.17382" lon="1.66138">
        <ele>4.3</ele>
        <time>2020-06-18T16:15:30Z</time>
      </trkpt>
      <trkpt lat="50.17382" lon="1.66145">
        <ele>4.3</ele>
        <time>2020-06-18T16:15:31Z</time>
      </trkpt>
      <trkpt lat="50.17381" lon="1.66152">
        <ele>4.3</ele>
        <time>2020-06-18T16:15:32Z</time>
      </trkpt>
      <trkpt lat="50.17381" lon="1.66159">
        <ele>4.3</ele>
        <time>2020-06-18T16:15:33Z</time>
      </trkpt>
      <trkpt lat="50.17381" lon="1.66168">
        <ele>4.3</ele>
        <time>2020-06-18T16:15:34Z</time>
      </trkpt>
      <trkpt lat="50.17381" lon="1.66176">
        <ele>4.3</ele>
        <time>2020-06-18T16:15:35Z</time>
      </trkpt>
      <trkpt lat="50.1738" lon="1.66183">
        <ele>4.3</ele>
        <time>2020-06-18T16:15:36Z</time>
      </trkpt>
      <trkpt lat="50.1738" lon="1.66193">
        <ele>4.2</ele>
        <time>2020-06-18T16:15:37Z</time>
      </trkpt>
      <trkpt lat="50.1738" lon="1.66203">
        <ele>4.2</ele>
        <time>2020-06-18T16:15:38Z</time>
      </trkpt>
      <trkpt lat="50.1738" lon="1.66213">
        <ele>4.2</ele>
        <time>2020-06-18T16:15:39Z</time>
      </trkpt>
      <trkpt lat="50.17379" lon="1.66222">
        <ele>4.2</ele>
        <time>2020-06-18T16:15:40Z</time>
      </trkpt>
      <trkpt lat="50.17379" lon="1.66232">
        <ele>4.2</ele>
        <time>2020-06-18T16:15:41Z</time>
      </trkpt>
      <trkpt lat="50.17379" lon="1.66241">
        <ele>4.2</ele>
        <time>2020-06-18T16:15:42Z</time>
      </trkpt>
      <trkpt lat="50.17378" lon="1.6625">
        <ele>4.2</ele>
        <time>2020-06-18T16:15:43Z</time>
      </trkpt>
      <trkpt lat="50.17377" lon="1.6626">
        <ele>4.1</ele>
        <time>2020-06-18T16:15:44Z</time>
      </trkpt>
      <trkpt lat="50.17377" lon="1.66268">
        <ele>4.1</ele>
        <time>2020-06-18T16:15:45Z</time>
      </trkpt>
      <trkpt lat="50.17376" lon="1.66275">
        <ele>4.1</ele>
        <time>2020-06-18T16:15:46Z</time>
      </trkpt>
      <trkpt lat="50.17375" lon="1.66284">
        <ele>4.1</ele>
        <time>2020-06-18T16:15:47Z</time>
      </trkpt>
      <trkpt lat="50.17375" lon="1.66293">
        <ele>4.1</ele>
        <time>2020-06-18T16:15:48Z</time>
      </trkpt>
      <trkpt lat="50.17374" lon="1.66302">
        <ele>4.1</ele>
        <time>2020-06-18T16:15:49Z</time>
      </trkpt>
      <trkpt lat="50.17374" lon="1.66313">
        <ele>4.1</ele>
        <time>2020-06-18T16:15:50Z</time>
      </trkpt>
      <trkpt lat="50.17373" lon="1.66324">
        <ele>4.1</ele>
        <time>2020-06-18T16:15:51Z</time>
      </trkpt>
      <trkpt lat="50.17373" lon="1.66333">
        <ele>4.2</ele>
        <time>2020-06-18T16:15:52Z</time>
      </trkpt>
      <trkpt lat="50.17373" lon="1.66344">
        <ele>4.2</ele>
        <time>2020-06-18T16:15:53Z</time>
      </trkpt>
      <trkpt lat="50.17374" lon="1.66354">
        <ele>4.3</ele>
        <time>2020-06-18T16:15:54Z</time>
      </trkpt>
      <trkpt lat="50.17374" lon="1.66365">
        <ele>4.3</ele>
        <time>2020-06-18T16:15:55Z</time>
      </trkpt>
      <trkpt lat="50.17374" lon="1.66375">
        <ele>4.4</ele>
        <time>2020-06-18T16:15:56Z</time>
      </trkpt>
      <trkpt lat="50.17374" lon="1.66385">
        <ele>4.4</ele>
        <time>2020-06-18T16:15:57Z</time>
      </trkpt>
      <trkpt lat="50.17373" lon="1.66394">
        <ele>4.4</ele>
        <time>2020-06-18T16:15:58Z</time>
      </trkpt>
      <trkpt lat="50.17372" lon="1.66402">
        <ele>4.4</ele>
        <time>2020-06-18T16:15:59Z</time>
      </trkpt>
      <trkpt lat="50.17372" lon="1.66412">
        <ele>4.4</ele>
        <time>2020-06-18T16:16:00Z</time>
      </trkpt>
      <trkpt lat="50.17371" lon="1.66421">
        <ele>4.3</ele>
        <time>2020-06-18T16:16:01Z</time>
      </trkpt>
      <trkpt lat="50.1737" lon="1.66431">
        <ele>4.3</ele>
        <time>2020-06-18T16:16:02Z</time>
      </trkpt>
      <trkpt lat="50.17369" lon="1.66442">
        <ele>4.2</ele>
        <time>2020-06-18T16:16:03Z</time>
      </trkpt>
      <trkpt lat="50.17368" lon="1.66453">
        <ele>4.2</ele>
        <time>2020-06-18T16:16:04Z</time>
      </trkpt>
      <trkpt lat="50.17368" lon="1.66463">
        <ele>4.2</ele>
        <time>2020-06-18T16:16:05Z</time>
      </trkpt>
      <trkpt lat="50.17367" lon="1.66472">
        <ele>4.2</ele>
        <time>2020-06-18T16:16:06Z</time>
      </trkpt>
      <trkpt lat="50.17367" lon="1.66481">
        <ele>4.1</ele>
        <time>2020-06-18T16:16:07Z</time>
      </trkpt>
      <trkpt lat="50.17366" lon="1.66491">
        <ele>4.1</ele>
        <time>2020-06-18T16:16:08Z</time>
      </trkpt>
      <trkpt lat="50.17365" lon="1.66501">
        <ele>4.1</ele>
        <time>2020-06-18T16:16:09Z</time>
      </trkpt>
      <trkpt lat="50.17365" lon="1.6651">
        <ele>4.1</ele>
        <time>2020-06-18T16:16:10Z</time>
      </trkpt>
      <trkpt lat="50.17364" lon="1.6652">
        <ele>4</ele>
        <time>2020-06-18T16:16:11Z</time>
      </trkpt>
      <trkpt lat="50.17364" lon="1.66529">
        <ele>4</ele>
        <time>2020-06-18T16:16:12Z</time>
      </trkpt>
      <trkpt lat="50.17364" lon="1.66539">
        <ele>4</ele>
        <time>2020-06-18T16:16:13Z</time>
      </trkpt>
      <trkpt lat="50.17364" lon="1.66548">
        <ele>3.9</ele>
        <time>2020-06-18T16:16:14Z</time>
      </trkpt>
      <trkpt lat="50.17364" lon="1.66558">
        <ele>3.9</ele>
        <time>2020-06-18T16:16:15Z</time>
      </trkpt>
      <trkpt lat="50.17364" lon="1.66568">
        <ele>3.9</ele>
        <time>2020-06-18T16:16:16Z</time>
      </trkpt>
      <trkpt lat="50.17364" lon="1.66578">
        <ele>3.9</ele>
        <time>2020-06-18T16:16:17Z</time>
      </trkpt>
      <trkpt lat="50.17363" lon="1.66588">
        <ele>3.9</ele>
        <time>2020-06-18T16:16:18Z</time>
      </trkpt>
      <trkpt lat="50.17363" lon="1.66598">
        <ele>3.9</ele>
        <time>2020-06-18T16:16:19Z</time>
      </trkpt>
      <trkpt lat="50.17363" lon="1.66609">
        <ele>3.9</ele>
        <time>2020-06-18T16:16:20Z</time>
      </trkpt>
      <trkpt lat="50.17362" lon="1.66619">
        <ele>4</ele>
        <time>2020-06-18T16:16:21Z</time>
      </trkpt>
      <trkpt lat="50.17362" lon="1.66628">
        <ele>4</ele>
        <time>2020-06-18T16:16:22Z</time>
      </trkpt>
      <trkpt lat="50.17361" lon="1.66639">
        <ele>4</ele>
        <time>2020-06-18T16:16:23Z</time>
      </trkpt>
      <trkpt lat="50.17361" lon="1.66649">
        <ele>4</ele>
        <time>2020-06-18T16:16:24Z</time>
      </trkpt>
      <trkpt lat="50.1736" lon="1.6666">
        <ele>3.9</ele>
        <time>2020-06-18T16:16:25Z</time>
      </trkpt>
      <trkpt lat="50.1736" lon="1.66671">
        <ele>3.9</ele>
        <time>2020-06-18T16:16:26Z</time>
      </trkpt>
      <trkpt lat="50.17359" lon="1.66683">
        <ele>3.9</ele>
        <time>2020-06-18T16:16:27Z</time>
      </trkpt>
      <trkpt lat="50.17359" lon="1.66694">
        <ele>3.9</ele>
        <time>2020-06-18T16:16:28Z</time>
      </trkpt>
      <trkpt lat="50.17359" lon="1.66705">
        <ele>3.9</ele>
        <time>2020-06-18T16:16:29Z</time>
      </trkpt>
      <trkpt lat="50.17358" lon="1.66716">
        <ele>3.9</ele>
        <time>2020-06-18T16:16:30Z</time>
      </trkpt>
      <trkpt lat="50.17358" lon="1.66727">
        <ele>3.9</ele>
        <time>2020-06-18T16:16:31Z</time>
      </trkpt>
      <trkpt lat="50.17357" lon="1.66738">
        <ele>3.9</ele>
        <time>2020-06-18T16:16:32Z</time>
      </trkpt>
      <trkpt lat="50.17356" lon="1.66749">
        <ele>3.9</ele>
        <time>2020-06-18T16:16:33Z</time>
      </trkpt>
      <trkpt lat="50.17356" lon="1.6676">
        <ele>3.9</ele>
        <time>2020-06-18T16:16:34Z</time>
      </trkpt>
      <trkpt lat="50.17355" lon="1.66772">
        <ele>3.9</ele>
        <time>2020-06-18T16:16:35Z</time>
      </trkpt>
      <trkpt lat="50.17355" lon="1.66783">
        <ele>3.8</ele>
        <time>2020-06-18T16:16:36Z</time>
      </trkpt>
      <trkpt lat="50.17354" lon="1.66794">
        <ele>3.8</ele>
        <time>2020-06-18T16:16:37Z</time>
      </trkpt>
      <trkpt lat="50.17355" lon="1.66806">
        <ele>3.8</ele>
        <time>2020-06-18T16:16:38Z</time>
      </trkpt>
      <trkpt lat="50.17354" lon="1.66817">
        <ele>3.8</ele>
        <time>2020-06-18T16:16:39Z</time>
      </trkpt>
      <trkpt lat="50.17353" lon="1.66828">
        <ele>3.9</ele>
        <time>2020-06-18T16:16:40Z</time>
      </trkpt>
      <trkpt lat="50.17353" lon="1.6684">
        <ele>3.9</ele>
        <time>2020-06-18T16:16:41Z</time>
      </trkpt>
      <trkpt lat="50.17352" lon="1.66851">
        <ele>4</ele>
        <time>2020-06-18T16:16:42Z</time>
      </trkpt>
      <trkpt lat="50.17351" lon="1.66862">
        <ele>4</ele>
        <time>2020-06-18T16:16:43Z</time>
      </trkpt>
      <trkpt lat="50.17351" lon="1.66873">
        <ele>4.1</ele>
        <time>2020-06-18T16:16:44Z</time>
      </trkpt>
      <trkpt lat="50.1735" lon="1.66884">
        <ele>4.1</ele>
        <time>2020-06-18T16:16:45Z</time>
      </trkpt>
      <trkpt lat="50.17349" lon="1.66894">
        <ele>4.2</ele>
        <time>2020-06-18T16:16:46Z</time>
      </trkpt>
      <trkpt lat="50.17348" lon="1.66904">
        <ele>4.2</ele>
        <time>2020-06-18T16:16:47Z</time>
      </trkpt>
      <trkpt lat="50.17348" lon="1.66915">
        <ele>4.2</ele>
        <time>2020-06-18T16:16:48Z</time>
      </trkpt>
      <trkpt lat="50.17347" lon="1.66925">
        <ele>4.2</ele>
        <time>2020-06-18T16:16:49Z</time>
      </trkpt>
      <trkpt lat="50.17347" lon="1.66935">
        <ele>4.2</ele>
        <time>2020-06-18T16:16:50Z</time>
      </trkpt>
      <trkpt lat="50.17346" lon="1.66945">
        <ele>4.3</ele>
        <time>2020-06-18T16:16:51Z</time>
      </trkpt>
      <trkpt lat="50.17346" lon="1.66956">
        <ele>4.3</ele>
        <time>2020-06-18T16:16:52Z</time>
      </trkpt>
      <trkpt lat="50.17346" lon="1.66966">
        <ele>4.3</ele>
        <time>2020-06-18T16:16:53Z</time>
      </trkpt>
      <trkpt lat="50.17346" lon="1.66976">
        <ele>4.3</ele>
        <time>2020-06-18T16:16:54Z</time>
      </trkpt>
      <trkpt lat="50.17346" lon="1.66986">
        <ele>4.3</ele>
        <time>2020-06-18T16:16:55Z</time>
      </trkpt>
      <trkpt lat="50.17346" lon="1.66997">
        <ele>4.3</ele>
        <time>2020-06-18T16:16:56Z</time>
      </trkpt>
      <trkpt lat="50.17346" lon="1.67007">
        <ele>4.3</ele>
        <time>2020-06-18T16:16:57Z</time>
      </trkpt>
      <trkpt lat="50.17347" lon="1.67017">
        <ele>4.3</ele>
        <time>2020-06-18T16:16:58Z</time>
      </trkpt>
      <trkpt lat="50.17348" lon="1.67028">
        <ele>4.2</ele>
        <time>2020-06-18T16:16:59Z</time>
      </trkpt>
      <trkpt lat="50.17348" lon="1.67038">
        <ele>4.2</ele>
        <time>2020-06-18T16:17:00Z</time>
      </trkpt>
      <trkpt lat="50.17349" lon="1.67049">
        <ele>4.2</ele>
        <time>2020-06-18T16:17:01Z</time>
      </trkpt>
      <trkpt lat="50.17349" lon="1.6706">
        <ele>4.1</ele>
        <time>2020-06-18T16:17:02Z</time>
      </trkpt>
      <trkpt lat="50.1735" lon="1.6707">
        <ele>4.1</ele>
        <time>2020-06-18T16:17:03Z</time>
      </trkpt>
      <trkpt lat="50.17351" lon="1.67081">
        <ele>4.1</ele>
        <time>2020-06-18T16:17:04Z</time>
      </trkpt>
      <trkpt lat="50.17351" lon="1.67091">
        <ele>4.2</ele>
        <time>2020-06-18T16:17:05Z</time>
      </trkpt>
      <trkpt lat="50.17352" lon="1.67102">
        <ele>4.2</ele>
        <time>2020-06-18T16:17:06Z</time>
      </trkpt>
      <trkpt lat="50.17352" lon="1.67113">
        <ele>4.1</ele>
        <time>2020-06-18T16:17:07Z</time>
      </trkpt>
      <trkpt lat="50.17354" lon="1.67123">
        <ele>4.1</ele>
        <time>2020-06-18T16:17:08Z</time>
      </trkpt>
      <trkpt lat="50.17355" lon="1.67134">
        <ele>4.1</ele>
        <time>2020-06-18T16:17:09Z</time>
      </trkpt>
      <trkpt lat="50.17355" lon="1.67144">
        <ele>4</ele>
        <time>2020-06-18T16:17:10Z</time>
      </trkpt>
      <trkpt lat="50.17357" lon="1.67154">
        <ele>4</ele>
        <time>2020-06-18T16:17:11Z</time>
      </trkpt>
      <trkpt lat="50.17359" lon="1.67164">
        <ele>4</ele>
        <time>2020-06-18T16:17:12Z</time>
      </trkpt>
      <trkpt lat="50.1736" lon="1.67174">
        <ele>4</ele>
        <time>2020-06-18T16:17:13Z</time>
      </trkpt>
      <trkpt lat="50.17362" lon="1.67184">
        <ele>4</ele>
        <time>2020-06-18T16:17:14Z</time>
      </trkpt>
      <trkpt lat="50.17363" lon="1.67195">
        <ele>4</ele>
        <time>2020-06-18T16:17:15Z</time>
      </trkpt>
      <trkpt lat="50.17364" lon="1.67205">
        <ele>4</ele>
        <time>2020-06-18T16:17:16Z</time>
      </trkpt>
      <trkpt lat="50.17365" lon="1.67215">
        <ele>4</ele>
        <time>2020-06-18T16:17:17Z</time>
      </trkpt>
      <trkpt lat="50.17367" lon="1.67226">
        <ele>4</ele>
        <time>2020-06-18T16:17:18Z</time>
      </trkpt>
      <trkpt lat="50.17368" lon="1.67236">
        <ele>4</ele>
        <time>2020-06-18T16:17:19Z</time>
      </trkpt>
      <trkpt lat="50.17368" lon="1.67247">
        <ele>4</ele>
        <time>2020-06-18T16:17:20Z</time>
      </trkpt>
      <trkpt lat="50.17369" lon="1.67257">
        <ele>4</ele>
        <time>2020-06-18T16:17:21Z</time>
      </trkpt>
      <trkpt lat="50.1737" lon="1.67267">
        <ele>4</ele>
        <time>2020-06-18T16:17:22Z</time>
      </trkpt>
      <trkpt lat="50.17371" lon="1.67277">
        <ele>4</ele>
        <time>2020-06-18T16:17:23Z</time>
      </trkpt>
      <trkpt lat="50.17371" lon="1.67288">
        <ele>4</ele>
        <time>2020-06-18T16:17:24Z</time>
      </trkpt>
      <trkpt lat="50.17372" lon="1.67298">
        <ele>4</ele>
        <time>2020-06-18T16:17:25Z</time>
      </trkpt>
      <trkpt lat="50.17373" lon="1.67309">
        <ele>4</ele>
        <time>2020-06-18T16:17:26Z</time>
      </trkpt>
      <trkpt lat="50.17374" lon="1.67319">
        <ele>4</ele>
        <time>2020-06-18T16:17:27Z</time>
      </trkpt>
      <trkpt lat="50.17375" lon="1.67329">
        <ele>3.9</ele>
        <time>2020-06-18T16:17:28Z</time>
      </trkpt>
      <trkpt lat="50.17377" lon="1.67339">
        <ele>3.9</ele>
        <time>2020-06-18T16:17:29Z</time>
      </trkpt>
      <trkpt lat="50.17378" lon="1.67349">
        <ele>3.9</ele>
        <time>2020-06-18T16:17:30Z</time>
      </trkpt>
      <trkpt lat="50.17378" lon="1.67359">
        <ele>3.9</ele>
        <time>2020-06-18T16:17:31Z</time>
      </trkpt>
      <trkpt lat="50.17379" lon="1.6737">
        <ele>3.9</ele>
        <time>2020-06-18T16:17:32Z</time>
      </trkpt>
      <trkpt lat="50.17381" lon="1.6738">
        <ele>4</ele>
        <time>2020-06-18T16:17:33Z</time>
      </trkpt>
      <trkpt lat="50.17381" lon="1.6739">
        <ele>4</ele>
        <time>2020-06-18T16:17:34Z</time>
      </trkpt>
      <trkpt lat="50.17382" lon="1.67401">
        <ele>4</ele>
        <time>2020-06-18T16:17:35Z</time>
      </trkpt>
      <trkpt lat="50.17383" lon="1.67411">
        <ele>4</ele>
        <time>2020-06-18T16:17:36Z</time>
      </trkpt>
      <trkpt lat="50.17385" lon="1.67421">
        <ele>4</ele>
        <time>2020-06-18T16:17:37Z</time>
      </trkpt>
      <trkpt lat="50.17387" lon="1.6743">
        <ele>4</ele>
        <time>2020-06-18T16:17:38Z</time>
      </trkpt>
      <trkpt lat="50.17388" lon="1.67441">
        <ele>4</ele>
        <time>2020-06-18T16:17:39Z</time>
      </trkpt>
      <trkpt lat="50.17389" lon="1.67451">
        <ele>3.9</ele>
        <time>2020-06-18T16:17:40Z</time>
      </trkpt>
      <trkpt lat="50.1739" lon="1.67461">
        <ele>4</ele>
        <time>2020-06-18T16:17:41Z</time>
      </trkpt>
      <trkpt lat="50.17391" lon="1.67472">
        <ele>4.1</ele>
        <time>2020-06-18T16:17:42Z</time>
      </trkpt>
      <trkpt lat="50.17392" lon="1.67482">
        <ele>4.1</ele>
        <time>2020-06-18T16:17:43Z</time>
      </trkpt>
      <trkpt lat="50.17393" lon="1.67493">
        <ele>4.2</ele>
        <time>2020-06-18T16:17:44Z</time>
      </trkpt>
      <trkpt lat="50.17394" lon="1.67503">
        <ele>4.2</ele>
        <time>2020-06-18T16:17:45Z</time>
      </trkpt>
      <trkpt lat="50.17395" lon="1.67513">
        <ele>4.2</ele>
        <time>2020-06-18T16:17:46Z</time>
      </trkpt>
      <trkpt lat="50.17396" lon="1.67523">
        <ele>4.2</ele>
        <time>2020-06-18T16:17:47Z</time>
      </trkpt>
      <trkpt lat="50.17397" lon="1.67533">
        <ele>4.2</ele>
        <time>2020-06-18T16:17:48Z</time>
      </trkpt>
      <trkpt lat="50.17398" lon="1.67544">
        <ele>4.2</ele>
        <time>2020-06-18T16:17:49Z</time>
      </trkpt>
      <trkpt lat="50.17399" lon="1.67554">
        <ele>4.2</ele>
        <time>2020-06-18T16:17:50Z</time>
      </trkpt>
      <trkpt lat="50.174" lon="1.67564">
        <ele>4.1</ele>
        <time>2020-06-18T16:17:51Z</time>
      </trkpt>
      <trkpt lat="50.17402" lon="1.67575">
        <ele>4.1</ele>
        <time>2020-06-18T16:17:52Z</time>
      </trkpt>
      <trkpt lat="50.17403" lon="1.67585">
        <ele>4.1</ele>
        <time>2020-06-18T16:17:53Z</time>
      </trkpt>
      <trkpt lat="50.17403" lon="1.67596">
        <ele>4.1</ele>
        <time>2020-06-18T16:17:54Z</time>
      </trkpt>
      <trkpt lat="50.17404" lon="1.67607">
        <ele>4.1</ele>
        <time>2020-06-18T16:17:55Z</time>
      </trkpt>
      <trkpt lat="50.17405" lon="1.67617">
        <ele>4.1</ele>
        <time>2020-06-18T16:17:56Z</time>
      </trkpt>
      <trkpt lat="50.17406" lon="1.67627">
        <ele>4.1</ele>
        <time>2020-06-18T16:17:57Z</time>
      </trkpt>
      <trkpt lat="50.17408" lon="1.67637">
        <ele>4.1</ele>
        <time>2020-06-18T16:17:58Z</time>
      </trkpt>
      <trkpt lat="50.17409" lon="1.67647">
        <ele>4.1</ele>
        <time>2020-06-18T16:17:59Z</time>
      </trkpt>
      <trkpt lat="50.17411" lon="1.67658">
        <ele>4.1</ele>
        <time>2020-06-18T16:18:00Z</time>
      </trkpt>
      <trkpt lat="50.17412" lon="1.67668">
        <ele>4.1</ele>
        <time>2020-06-18T16:18:01Z</time>
      </trkpt>
      <trkpt lat="50.17413" lon="1.67678">
        <ele>4.1</ele>
        <time>2020-06-18T16:18:02Z</time>
      </trkpt>
      <trkpt lat="50.17414" lon="1.67688">
        <ele>4.1</ele>
        <time>2020-06-18T16:18:03Z</time>
      </trkpt>
      <trkpt lat="50.17414" lon="1.67699">
        <ele>4.1</ele>
        <time>2020-06-18T16:18:04Z</time>
      </trkpt>
      <trkpt lat="50.17416" lon="1.67709">
        <ele>4.1</ele>
        <time>2020-06-18T16:18:05Z</time>
      </trkpt>
      <trkpt lat="50.17417" lon="1.67719">
        <ele>4.2</ele>
        <time>2020-06-18T16:18:06Z</time>
      </trkpt>
      <trkpt lat="50.17417" lon="1.6773">
        <ele>4.2</ele>
        <time>2020-06-18T16:18:07Z</time>
      </trkpt>
      <trkpt lat="50.17418" lon="1.6774">
        <ele>4.1</ele>
        <time>2020-06-18T16:18:08Z</time>
      </trkpt>
      <trkpt lat="50.1742" lon="1.6775">
        <ele>4.1</ele>
        <time>2020-06-18T16:18:09Z</time>
      </trkpt>
      <trkpt lat="50.17421" lon="1.67761">
        <ele>4.1</ele>
        <time>2020-06-18T16:18:10Z</time>
      </trkpt>
      <trkpt lat="50.17422" lon="1.67771">
        <ele>4</ele>
        <time>2020-06-18T16:18:11Z</time>
      </trkpt>
      <trkpt lat="50.17422" lon="1.67782">
        <ele>4</ele>
        <time>2020-06-18T16:18:12Z</time>
      </trkpt>
      <trkpt lat="50.17423" lon="1.67792">
        <ele>4</ele>
        <time>2020-06-18T16:18:13Z</time>
      </trkpt>
      <trkpt lat="50.17425" lon="1.67803">
        <ele>4</ele>
        <time>2020-06-18T16:18:14Z</time>
      </trkpt>
      <trkpt lat="50.17426" lon="1.67813">
        <ele>4</ele>
        <time>2020-06-18T16:18:15Z</time>
      </trkpt>
      <trkpt lat="50.17427" lon="1.67823">
        <ele>4</ele>
        <time>2020-06-18T16:18:16Z</time>
      </trkpt>
      <trkpt lat="50.17429" lon="1.67834">
        <ele>3.9</ele>
        <time>2020-06-18T16:18:17Z</time>
      </trkpt>
      <trkpt lat="50.17429" lon="1.67844">
        <ele>3.9</ele>
        <time>2020-06-18T16:18:18Z</time>
      </trkpt>
      <trkpt lat="50.17431" lon="1.67855">
        <ele>3.8</ele>
        <time>2020-06-18T16:18:19Z</time>
      </trkpt>
      <trkpt lat="50.17432" lon="1.67865">
        <ele>3.8</ele>
        <time>2020-06-18T16:18:20Z</time>
      </trkpt>
      <trkpt lat="50.17433" lon="1.67876">
        <ele>3.8</ele>
        <time>2020-06-18T16:18:21Z</time>
      </trkpt>
      <trkpt lat="50.17434" lon="1.67887">
        <ele>3.8</ele>
        <time>2020-06-18T16:18:22Z</time>
      </trkpt>
      <trkpt lat="50.17435" lon="1.67898">
        <ele>3.8</ele>
        <time>2020-06-18T16:18:23Z</time>
      </trkpt>
      <trkpt lat="50.17436" lon="1.67909">
        <ele>3.8</ele>
        <time>2020-06-18T16:18:24Z</time>
      </trkpt>
      <trkpt lat="50.17437" lon="1.67919">
        <ele>3.7</ele>
        <time>2020-06-18T16:18:25Z</time>
      </trkpt>
      <trkpt lat="50.17438" lon="1.6793">
        <ele>3.6</ele>
        <time>2020-06-18T16:18:26Z</time>
      </trkpt>
      <trkpt lat="50.17439" lon="1.67941">
        <ele>3.5</ele>
        <time>2020-06-18T16:18:27Z</time>
      </trkpt>
      <trkpt lat="50.1744" lon="1.67952">
        <ele>3.4</ele>
        <time>2020-06-18T16:18:28Z</time>
      </trkpt>
      <trkpt lat="50.17441" lon="1.67963">
        <ele>3.4</ele>
        <time>2020-06-18T16:18:29Z</time>
      </trkpt>
      <trkpt lat="50.17442" lon="1.67974">
        <ele>3.3</ele>
        <time>2020-06-18T16:18:30Z</time>
      </trkpt>
      <trkpt lat="50.17443" lon="1.67985">
        <ele>3.4</ele>
        <time>2020-06-18T16:18:31Z</time>
      </trkpt>
      <trkpt lat="50.17445" lon="1.67995">
        <ele>3.4</ele>
        <time>2020-06-18T16:18:32Z</time>
      </trkpt>
      <trkpt lat="50.17446" lon="1.68006">
        <ele>3.4</ele>
        <time>2020-06-18T16:18:33Z</time>
      </trkpt>
      <trkpt lat="50.17448" lon="1.68017">
        <ele>3.4</ele>
        <time>2020-06-18T16:18:34Z</time>
      </trkpt>
      <trkpt lat="50.17449" lon="1.68027">
        <ele>3.4</ele>
        <time>2020-06-18T16:18:35Z</time>
      </trkpt>
      <trkpt lat="50.17449" lon="1.68038">
        <ele>3.3</ele>
        <time>2020-06-18T16:18:36Z</time>
      </trkpt>
      <trkpt lat="50.17451" lon="1.68049">
        <ele>3.3</ele>
        <time>2020-06-18T16:18:37Z</time>
      </trkpt>
      <trkpt lat="50.17452" lon="1.68059">
        <ele>3.3</ele>
        <time>2020-06-18T16:18:38Z</time>
      </trkpt>
      <trkpt lat="50.17453" lon="1.6807">
        <ele>3.3</ele>
        <time>2020-06-18T16:18:39Z</time>
      </trkpt>
      <trkpt lat="50.17454" lon="1.68081">
        <ele>3.3</ele>
        <time>2020-06-18T16:18:40Z</time>
      </trkpt>
      <trkpt lat="50.17455" lon="1.68092">
        <ele>3.3</ele>
        <time>2020-06-18T16:18:41Z</time>
      </trkpt>
      <trkpt lat="50.17456" lon="1.68102">
        <ele>3.4</ele>
        <time>2020-06-18T16:18:42Z</time>
      </trkpt>
      <trkpt lat="50.17458" lon="1.68113">
        <ele>3.4</ele>
        <time>2020-06-18T16:18:43Z</time>
      </trkpt>
      <trkpt lat="50.17458" lon="1.68124">
        <ele>3.4</ele>
        <time>2020-06-18T16:18:44Z</time>
      </trkpt>
      <trkpt lat="50.17459" lon="1.68134">
        <ele>3.4</ele>
        <time>2020-06-18T16:18:45Z</time>
      </trkpt>
      <trkpt lat="50.1746" lon="1.68144">
        <ele>3.4</ele>
        <time>2020-06-18T16:18:46Z</time>
      </trkpt>
      <trkpt lat="50.17462" lon="1.68154">
        <ele>3.5</ele>
        <time>2020-06-18T16:18:47Z</time>
      </trkpt>
      <trkpt lat="50.17463" lon="1.68165">
        <ele>3.5</ele>
        <time>2020-06-18T16:18:48Z</time>
      </trkpt>
      <trkpt lat="50.17464" lon="1.68175">
        <ele>3.5</ele>
        <time>2020-06-18T16:18:49Z</time>
      </trkpt>
      <trkpt lat="50.17466" lon="1.68186">
        <ele>3.5</ele>
        <time>2020-06-18T16:18:50Z</time>
      </trkpt>
      <trkpt lat="50.17467" lon="1.68196">
        <ele>3.6</ele>
        <time>2020-06-18T16:18:51Z</time>
      </trkpt>
      <trkpt lat="50.17467" lon="1.68206">
        <ele>3.6</ele>
        <time>2020-06-18T16:18:52Z</time>
      </trkpt>
      <trkpt lat="50.17468" lon="1.68217">
        <ele>3.6</ele>
        <time>2020-06-18T16:18:53Z</time>
      </trkpt>
      <trkpt lat="50.17468" lon="1.68227">
        <ele>3.6</ele>
        <time>2020-06-18T16:18:54Z</time>
      </trkpt>
      <trkpt lat="50.17469" lon="1.68237">
        <ele>3.6</ele>
        <time>2020-06-18T16:18:55Z</time>
      </trkpt>
      <trkpt lat="50.1747" lon="1.68248">
        <ele>3.7</ele>
        <time>2020-06-18T16:18:56Z</time>
      </trkpt>
      <trkpt lat="50.17471" lon="1.68258">
        <ele>3.8</ele>
        <time>2020-06-18T16:18:57Z</time>
      </trkpt>
      <trkpt lat="50.17473" lon="1.68268">
        <ele>3.9</ele>
        <time>2020-06-18T16:18:58Z</time>
      </trkpt>
      <trkpt lat="50.17474" lon="1.68279">
        <ele>4</ele>
        <time>2020-06-18T16:18:59Z</time>
      </trkpt>
      <trkpt lat="50.17475" lon="1.68289">
        <ele>3.9</ele>
        <time>2020-06-18T16:19:00Z</time>
      </trkpt>
      <trkpt lat="50.17476" lon="1.683">
        <ele>3.9</ele>
        <time>2020-06-18T16:19:01Z</time>
      </trkpt>
      <trkpt lat="50.17477" lon="1.6831">
        <ele>3.9</ele>
        <time>2020-06-18T16:19:02Z</time>
      </trkpt>
      <trkpt lat="50.17479" lon="1.6832">
        <ele>3.9</ele>
        <time>2020-06-18T16:19:03Z</time>
      </trkpt>
      <trkpt lat="50.17479" lon="1.68331">
        <ele>3.9</ele>
        <time>2020-06-18T16:19:04Z</time>
      </trkpt>
      <trkpt lat="50.17479" lon="1.68341">
        <ele>3.9</ele>
        <time>2020-06-18T16:19:05Z</time>
      </trkpt>
      <trkpt lat="50.1748" lon="1.68351">
        <ele>3.9</ele>
        <time>2020-06-18T16:19:06Z</time>
      </trkpt>
      <trkpt lat="50.17482" lon="1.68361">
        <ele>3.9</ele>
        <time>2020-06-18T16:19:07Z</time>
      </trkpt>
      <trkpt lat="50.17483" lon="1.68372">
        <ele>3.9</ele>
        <time>2020-06-18T16:19:08Z</time>
      </trkpt>
      <trkpt lat="50.17484" lon="1.68382">
        <ele>3.8</ele>
        <time>2020-06-18T16:19:09Z</time>
      </trkpt>
      <trkpt lat="50.17486" lon="1.68392">
        <ele>3.8</ele>
        <time>2020-06-18T16:19:10Z</time>
      </trkpt>
      <trkpt lat="50.17486" lon="1.68403">
        <ele>3.8</ele>
        <time>2020-06-18T16:19:11Z</time>
      </trkpt>
      <trkpt lat="50.17487" lon="1.68413">
        <ele>3.8</ele>
        <time>2020-06-18T16:19:12Z</time>
      </trkpt>
      <trkpt lat="50.17488" lon="1.68423">
        <ele>3.9</ele>
        <time>2020-06-18T16:19:13Z</time>
      </trkpt>
      <trkpt lat="50.1749" lon="1.68433">
        <ele>3.9</ele>
        <time>2020-06-18T16:19:14Z</time>
      </trkpt>
      <trkpt lat="50.17491" lon="1.68444">
        <ele>4</ele>
        <time>2020-06-18T16:19:15Z</time>
      </trkpt>
      <trkpt lat="50.17492" lon="1.68454">
        <ele>4.1</ele>
        <time>2020-06-18T16:19:16Z</time>
      </trkpt>
      <trkpt lat="50.17493" lon="1.68464">
        <ele>4.1</ele>
        <time>2020-06-18T16:19:17Z</time>
      </trkpt>
      <trkpt lat="50.17495" lon="1.68474">
        <ele>4.1</ele>
        <time>2020-06-18T16:19:18Z</time>
      </trkpt>
      <trkpt lat="50.17497" lon="1.68484">
        <ele>4.2</ele>
        <time>2020-06-18T16:19:19Z</time>
      </trkpt>
      <trkpt lat="50.17499" lon="1.68493">
        <ele>4.2</ele>
        <time>2020-06-18T16:19:20Z</time>
      </trkpt>
      <trkpt lat="50.175" lon="1.68503">
        <ele>4.2</ele>
        <time>2020-06-18T16:19:21Z</time>
      </trkpt>
      <trkpt lat="50.17502" lon="1.68513">
        <ele>4.2</ele>
        <time>2020-06-18T16:19:22Z</time>
      </trkpt>
      <trkpt lat="50.17504" lon="1.68523">
        <ele>4.3</ele>
        <time>2020-06-18T16:19:23Z</time>
      </trkpt>
      <trkpt lat="50.17506" lon="1.68533">
        <ele>4.3</ele>
        <time>2020-06-18T16:19:24Z</time>
      </trkpt>
      <trkpt lat="50.17508" lon="1.68543">
        <ele>4.4</ele>
        <time>2020-06-18T16:19:25Z</time>
      </trkpt>
      <trkpt lat="50.1751" lon="1.68552">
        <ele>4.4</ele>
        <time>2020-06-18T16:19:26Z</time>
      </trkpt>
      <trkpt lat="50.17513" lon="1.68562">
        <ele>4.4</ele>
        <time>2020-06-18T16:19:27Z</time>
      </trkpt>
      <trkpt lat="50.17516" lon="1.68571">
        <ele>4.4</ele>
        <time>2020-06-18T16:19:28Z</time>
      </trkpt>
      <trkpt lat="50.17519" lon="1.68581">
        <ele>4.5</ele>
        <time>2020-06-18T16:19:29Z</time>
      </trkpt>
      <trkpt lat="50.17522" lon="1.68589">
        <ele>4.4</ele>
        <time>2020-06-18T16:19:30Z</time>
      </trkpt>
      <trkpt lat="50.17524" lon="1.68598">
        <ele>4.4</ele>
        <time>2020-06-18T16:19:31Z</time>
      </trkpt>
      <trkpt lat="50.17528" lon="1.68606">
        <ele>4.4</ele>
        <time>2020-06-18T16:19:32Z</time>
      </trkpt>
      <trkpt lat="50.17531" lon="1.68615">
        <ele>4.3</ele>
        <time>2020-06-18T16:19:33Z</time>
      </trkpt>
      <trkpt lat="50.17534" lon="1.68624">
        <ele>4.3</ele>
        <time>2020-06-18T16:19:34Z</time>
      </trkpt>
      <trkpt lat="50.17537" lon="1.68633">
        <ele>4.3</ele>
        <time>2020-06-18T16:19:35Z</time>
      </trkpt>
      <trkpt lat="50.1754" lon="1.68641">
        <ele>4.2</ele>
        <time>2020-06-18T16:19:36Z</time>
      </trkpt>
      <trkpt lat="50.17543" lon="1.68649">
        <ele>4.2</ele>
        <time>2020-06-18T16:19:37Z</time>
      </trkpt>
      <trkpt lat="50.17547" lon="1.68657">
        <ele>4.2</ele>
        <time>2020-06-18T16:19:38Z</time>
      </trkpt>
      <trkpt lat="50.17551" lon="1.68665">
        <ele>4.2</ele>
        <time>2020-06-18T16:19:39Z</time>
      </trkpt>
      <trkpt lat="50.17554" lon="1.68673">
        <ele>4.3</ele>
        <time>2020-06-18T16:19:40Z</time>
      </trkpt>
      <trkpt lat="50.17557" lon="1.68682">
        <ele>4.3</ele>
        <time>2020-06-18T16:19:41Z</time>
      </trkpt>
      <trkpt lat="50.17562" lon="1.68689">
        <ele>4.4</ele>
        <time>2020-06-18T16:19:42Z</time>
      </trkpt>
      <trkpt lat="50.17567" lon="1.68696">
        <ele>4.5</ele>
        <time>2020-06-18T16:19:43Z</time>
      </trkpt>
      <trkpt lat="50.17572" lon="1.68704">
        <ele>4.5</ele>
        <time>2020-06-18T16:19:44Z</time>
      </trkpt>
      <trkpt lat="50.17577" lon="1.68711">
        <ele>4.5</ele>
        <time>2020-06-18T16:19:45Z</time>
      </trkpt>
      <trkpt lat="50.17583" lon="1.68718">
        <ele>4.5</ele>
        <time>2020-06-18T16:19:46Z</time>
      </trkpt>
      <trkpt lat="50.17588" lon="1.68725">
        <ele>4.5</ele>
        <time>2020-06-18T16:19:47Z</time>
      </trkpt>
      <trkpt lat="50.17593" lon="1.68733">
        <ele>4.5</ele>
        <time>2020-06-18T16:19:48Z</time>
      </trkpt>
      <trkpt lat="50.17598" lon="1.6874">
        <ele>4.5</ele>
        <time>2020-06-18T16:19:49Z</time>
      </trkpt>
      <trkpt lat="50.17604" lon="1.68747">
        <ele>4.5</ele>
        <time>2020-06-18T16:19:50Z</time>
      </trkpt>
      <trkpt lat="50.17609" lon="1.68754">
        <ele>4.5</ele>
        <time>2020-06-18T16:19:51Z</time>
      </trkpt>
      <trkpt lat="50.17614" lon="1.68761">
        <ele>4.5</ele>
        <time>2020-06-18T16:19:52Z</time>
      </trkpt>
      <trkpt lat="50.17619" lon="1.68768">
        <ele>4.5</ele>
        <time>2020-06-18T16:19:53Z</time>
      </trkpt>
      <trkpt lat="50.17624" lon="1.68775">
        <ele>4.5</ele>
        <time>2020-06-18T16:19:54Z</time>
      </trkpt>
      <trkpt lat="50.17629" lon="1.68782">
        <ele>4.5</ele>
        <time>2020-06-18T16:19:55Z</time>
      </trkpt>
      <trkpt lat="50.17635" lon="1.68789">
        <ele>4.5</ele>
        <time>2020-06-18T16:19:56Z</time>
      </trkpt>
      <trkpt lat="50.17641" lon="1.68796">
        <ele>4.6</ele>
        <time>2020-06-18T16:19:57Z</time>
      </trkpt>
      <trkpt lat="50.17646" lon="1.68802">
        <ele>4.6</ele>
        <time>2020-06-18T16:19:58Z</time>
      </trkpt>
      <trkpt lat="50.17652" lon="1.68809">
        <ele>4.5</ele>
        <time>2020-06-18T16:19:59Z</time>
      </trkpt>
      <trkpt lat="50.17657" lon="1.68815">
        <ele>4.5</ele>
        <time>2020-06-18T16:20:00Z</time>
      </trkpt>
      <trkpt lat="50.17662" lon="1.68822">
        <ele>4.5</ele>
        <time>2020-06-18T16:20:01Z</time>
      </trkpt>
      <trkpt lat="50.17668" lon="1.68828">
        <ele>4.4</ele>
        <time>2020-06-18T16:20:02Z</time>
      </trkpt>
      <trkpt lat="50.17673" lon="1.68835">
        <ele>4.4</ele>
        <time>2020-06-18T16:20:03Z</time>
      </trkpt>
      <trkpt lat="50.17678" lon="1.68841">
        <ele>4.4</ele>
        <time>2020-06-18T16:20:04Z</time>
      </trkpt>
      <trkpt lat="50.17684" lon="1.68848">
        <ele>4.4</ele>
        <time>2020-06-18T16:20:05Z</time>
      </trkpt>
      <trkpt lat="50.17689" lon="1.68855">
        <ele>4.3</ele>
        <time>2020-06-18T16:20:06Z</time>
      </trkpt>
      <trkpt lat="50.17694" lon="1.68861">
        <ele>4.3</ele>
        <time>2020-06-18T16:20:07Z</time>
      </trkpt>
      <trkpt lat="50.177" lon="1.68868">
        <ele>4.3</ele>
        <time>2020-06-18T16:20:08Z</time>
      </trkpt>
      <trkpt lat="50.17705" lon="1.68875">
        <ele>4.3</ele>
        <time>2020-06-18T16:20:09Z</time>
      </trkpt>
      <trkpt lat="50.17711" lon="1.68881">
        <ele>4.3</ele>
        <time>2020-06-18T16:20:10Z</time>
      </trkpt>
      <trkpt lat="50.17717" lon="1.68888">
        <ele>4.2</ele>
        <time>2020-06-18T16:20:11Z</time>
      </trkpt>
      <trkpt lat="50.17722" lon="1.68894">
        <ele>4.2</ele>
        <time>2020-06-18T16:20:12Z</time>
      </trkpt>
      <trkpt lat="50.17728" lon="1.68901">
        <ele>4.2</ele>
        <time>2020-06-18T16:20:13Z</time>
      </trkpt>
      <trkpt lat="50.17734" lon="1.68909">
        <ele>4.1</ele>
        <time>2020-06-18T16:20:14Z</time>
      </trkpt>
      <trkpt lat="50.17739" lon="1.68916">
        <ele>4.1</ele>
        <time>2020-06-18T16:20:15Z</time>
      </trkpt>
      <trkpt lat="50.17745" lon="1.68922">
        <ele>4.1</ele>
        <time>2020-06-18T16:20:16Z</time>
      </trkpt>
      <trkpt lat="50.17751" lon="1.68929">
        <ele>4.1</ele>
        <time>2020-06-18T16:20:17Z</time>
      </trkpt>
      <trkpt lat="50.17757" lon="1.68936">
        <ele>4.1</ele>
        <time>2020-06-18T16:20:18Z</time>
      </trkpt>
      <trkpt lat="50.17762" lon="1.68942">
        <ele>4.1</ele>
        <time>2020-06-18T16:20:19Z</time>
      </trkpt>
      <trkpt lat="50.17768" lon="1.68949">
        <ele>4.1</ele>
        <time>2020-06-18T16:20:20Z</time>
      </trkpt>
      <trkpt lat="50.17773" lon="1.68956">
        <ele>4.1</ele>
        <time>2020-06-18T16:20:21Z</time>
      </trkpt>
      <trkpt lat="50.17778" lon="1.68963">
        <ele>4.1</ele>
        <time>2020-06-18T16:20:22Z</time>
      </trkpt>
      <trkpt lat="50.17783" lon="1.6897">
        <ele>4.1</ele>
        <time>2020-06-18T16:20:23Z</time>
      </trkpt>
      <trkpt lat="50.17788" lon="1.68977">
        <ele>4.1</ele>
        <time>2020-06-18T16:20:24Z</time>
      </trkpt>
      <trkpt lat="50.17794" lon="1.68984">
        <ele>4.1</ele>
        <time>2020-06-18T16:20:25Z</time>
      </trkpt>
      <trkpt lat="50.17799" lon="1.68991">
        <ele>4.1</ele>
        <time>2020-06-18T16:20:26Z</time>
      </trkpt>
      <trkpt lat="50.17805" lon="1.68997">
        <ele>4.1</ele>
        <time>2020-06-18T16:20:27Z</time>
      </trkpt>
      <trkpt lat="50.1781" lon="1.69003">
        <ele>4.1</ele>
        <time>2020-06-18T16:20:28Z</time>
      </trkpt>
      <trkpt lat="50.17816" lon="1.6901">
        <ele>4.1</ele>
        <time>2020-06-18T16:20:29Z</time>
      </trkpt>
      <trkpt lat="50.17822" lon="1.69017">
        <ele>4.1</ele>
        <time>2020-06-18T16:20:30Z</time>
      </trkpt>
      <trkpt lat="50.17827" lon="1.69024">
        <ele>4.1</ele>
        <time>2020-06-18T16:20:31Z</time>
      </trkpt>
      <trkpt lat="50.17832" lon="1.69031">
        <ele>4.1</ele>
        <time>2020-06-18T16:20:32Z</time>
      </trkpt>
      <trkpt lat="50.17838" lon="1.69038">
        <ele>4</ele>
        <time>2020-06-18T16:20:33Z</time>
      </trkpt>
      <trkpt lat="50.17844" lon="1.69045">
        <ele>4</ele>
        <time>2020-06-18T16:20:34Z</time>
      </trkpt>
      <trkpt lat="50.1785" lon="1.69052">
        <ele>4</ele>
        <time>2020-06-18T16:20:35Z</time>
      </trkpt>
      <trkpt lat="50.17855" lon="1.69059">
        <ele>4</ele>
        <time>2020-06-18T16:20:36Z</time>
      </trkpt>
      <trkpt lat="50.17861" lon="1.69066">
        <ele>4</ele>
        <time>2020-06-18T16:20:37Z</time>
      </trkpt>
      <trkpt lat="50.17866" lon="1.69073">
        <ele>4</ele>
        <time>2020-06-18T16:20:38Z</time>
      </trkpt>
      <trkpt lat="50.17872" lon="1.6908">
        <ele>4</ele>
        <time>2020-06-18T16:20:39Z</time>
      </trkpt>
      <trkpt lat="50.17877" lon="1.69087">
        <ele>4</ele>
        <time>2020-06-18T16:20:40Z</time>
      </trkpt>
      <trkpt lat="50.17883" lon="1.69094">
        <ele>4.1</ele>
        <time>2020-06-18T16:20:41Z</time>
      </trkpt>
      <trkpt lat="50.17888" lon="1.69102">
        <ele>4.1</ele>
        <time>2020-06-18T16:20:42Z</time>
      </trkpt>
      <trkpt lat="50.17894" lon="1.69108">
        <ele>4.1</ele>
        <time>2020-06-18T16:20:43Z</time>
      </trkpt>
      <trkpt lat="50.179" lon="1.69114">
        <ele>4.1</ele>
        <time>2020-06-18T16:20:44Z</time>
      </trkpt>
      <trkpt lat="50.17906" lon="1.69121">
        <ele>4.2</ele>
        <time>2020-06-18T16:20:45Z</time>
      </trkpt>
      <trkpt lat="50.17912" lon="1.69127">
        <ele>4.2</ele>
        <time>2020-06-18T16:20:46Z</time>
      </trkpt>
      <trkpt lat="50.17917" lon="1.69133">
        <ele>4.2</ele>
        <time>2020-06-18T16:20:47Z</time>
      </trkpt>
      <trkpt lat="50.17923" lon="1.6914">
        <ele>4.3</ele>
        <time>2020-06-18T16:20:48Z</time>
      </trkpt>
      <trkpt lat="50.17928" lon="1.69147">
        <ele>4.3</ele>
        <time>2020-06-18T16:20:49Z</time>
      </trkpt>
      <trkpt lat="50.17934" lon="1.69153">
        <ele>4.3</ele>
        <time>2020-06-18T16:20:50Z</time>
      </trkpt>
      <trkpt lat="50.17939" lon="1.6916">
        <ele>4.3</ele>
        <time>2020-06-18T16:20:51Z</time>
      </trkpt>
      <trkpt lat="50.17944" lon="1.69167">
        <ele>4.3</ele>
        <time>2020-06-18T16:20:52Z</time>
      </trkpt>
      <trkpt lat="50.1795" lon="1.69174">
        <ele>4.3</ele>
        <time>2020-06-18T16:20:53Z</time>
      </trkpt>
      <trkpt lat="50.17955" lon="1.69181">
        <ele>4.3</ele>
        <time>2020-06-18T16:20:54Z</time>
      </trkpt>
      <trkpt lat="50.1796" lon="1.69187">
        <ele>4.2</ele>
        <time>2020-06-18T16:20:55Z</time>
      </trkpt>
      <trkpt lat="50.17965" lon="1.69195">
        <ele>4.2</ele>
        <time>2020-06-18T16:20:56Z</time>
      </trkpt>
      <trkpt lat="50.17971" lon="1.69201">
        <ele>4.2</ele>
        <time>2020-06-18T16:20:57Z</time>
      </trkpt>
      <trkpt lat="50.17976" lon="1.69208">
        <ele>4.2</ele>
        <time>2020-06-18T16:20:58Z</time>
      </trkpt>
      <trkpt lat="50.17982" lon="1.69215">
        <ele>4.2</ele>
        <time>2020-06-18T16:20:59Z</time>
      </trkpt>
      <trkpt lat="50.17988" lon="1.69221">
        <ele>4.2</ele>
        <time>2020-06-18T16:21:00Z</time>
      </trkpt>
      <trkpt lat="50.17994" lon="1.69227">
        <ele>4.2</ele>
        <time>2020-06-18T16:21:01Z</time>
      </trkpt>
      <trkpt lat="50.17999" lon="1.69234">
        <ele>4.2</ele>
        <time>2020-06-18T16:21:02Z</time>
      </trkpt>
      <trkpt lat="50.18004" lon="1.69242">
        <ele>4.2</ele>
        <time>2020-06-18T16:21:03Z</time>
      </trkpt>
      <trkpt lat="50.18009" lon="1.69249">
        <ele>4.2</ele>
        <time>2020-06-18T16:21:04Z</time>
      </trkpt>
      <trkpt lat="50.18014" lon="1.69255">
        <ele>4.2</ele>
        <time>2020-06-18T16:21:05Z</time>
      </trkpt>
      <trkpt lat="50.1802" lon="1.69262">
        <ele>4.2</ele>
        <time>2020-06-18T16:21:06Z</time>
      </trkpt>
      <trkpt lat="50.18025" lon="1.69269">
        <ele>4.2</ele>
        <time>2020-06-18T16:21:07Z</time>
      </trkpt>
      <trkpt lat="50.18029" lon="1.69276">
        <ele>4.2</ele>
        <time>2020-06-18T16:21:08Z</time>
      </trkpt>
      <trkpt lat="50.18034" lon="1.69283">
        <ele>4.1</ele>
        <time>2020-06-18T16:21:09Z</time>
      </trkpt>
      <trkpt lat="50.18039" lon="1.69291">
        <ele>4.1</ele>
        <time>2020-06-18T16:21:10Z</time>
      </trkpt>
      <trkpt lat="50.18044" lon="1.69298">
        <ele>4.1</ele>
        <time>2020-06-18T16:21:11Z</time>
      </trkpt>
      <trkpt lat="50.18049" lon="1.69306">
        <ele>4.2</ele>
        <time>2020-06-18T16:21:12Z</time>
      </trkpt>
      <trkpt lat="50.18054" lon="1.69314">
        <ele>4.2</ele>
        <time>2020-06-18T16:21:13Z</time>
      </trkpt>
      <trkpt lat="50.18059" lon="1.69322">
        <ele>4.3</ele>
        <time>2020-06-18T16:21:14Z</time>
      </trkpt>
      <trkpt lat="50.18064" lon="1.69329">
        <ele>4.3</ele>
        <time>2020-06-18T16:21:15Z</time>
      </trkpt>
      <trkpt lat="50.18069" lon="1.69337">
        <ele>4.3</ele>
        <time>2020-06-18T16:21:16Z</time>
      </trkpt>
      <trkpt lat="50.18073" lon="1.69345">
        <ele>4.2</ele>
        <time>2020-06-18T16:21:17Z</time>
      </trkpt>
      <trkpt lat="50.18078" lon="1.69353">
        <ele>4.2</ele>
        <time>2020-06-18T16:21:18Z</time>
      </trkpt>
      <trkpt lat="50.18082" lon="1.69361">
        <ele>4.3</ele>
        <time>2020-06-18T16:21:19Z</time>
      </trkpt>
      <trkpt lat="50.18086" lon="1.69369">
        <ele>4.3</ele>
        <time>2020-06-18T16:21:20Z</time>
      </trkpt>
      <trkpt lat="50.18089" lon="1.69377">
        <ele>4.3</ele>
        <time>2020-06-18T16:21:21Z</time>
      </trkpt>
      <trkpt lat="50.18093" lon="1.69385">
        <ele>4.3</ele>
        <time>2020-06-18T16:21:22Z</time>
      </trkpt>
      <trkpt lat="50.18097" lon="1.69392">
        <ele>4.3</ele>
        <time>2020-06-18T16:21:23Z</time>
      </trkpt>
      <trkpt lat="50.18101" lon="1.694">
        <ele>4.3</ele>
        <time>2020-06-18T16:21:24Z</time>
      </trkpt>
      <trkpt lat="50.18105" lon="1.69407">
        <ele>4.4</ele>
        <time>2020-06-18T16:21:25Z</time>
      </trkpt>
      <trkpt lat="50.18109" lon="1.69415">
        <ele>4.4</ele>
        <time>2020-06-18T16:21:26Z</time>
      </trkpt>
      <trkpt lat="50.18114" lon="1.69423">
        <ele>4.5</ele>
        <time>2020-06-18T16:21:27Z</time>
      </trkpt>
      <trkpt lat="50.18117" lon="1.69431">
        <ele>4.5</ele>
        <time>2020-06-18T16:21:28Z</time>
      </trkpt>
      <trkpt lat="50.1812" lon="1.69439">
        <ele>4.6</ele>
        <time>2020-06-18T16:21:29Z</time>
      </trkpt>
      <trkpt lat="50.18123" lon="1.69447">
        <ele>4.6</ele>
        <time>2020-06-18T16:21:30Z</time>
      </trkpt>
      <trkpt lat="50.18125" lon="1.69456">
        <ele>4.7</ele>
        <time>2020-06-18T16:21:31Z</time>
      </trkpt>
      <trkpt lat="50.18128" lon="1.69465">
        <ele>4.7</ele>
        <time>2020-06-18T16:21:32Z</time>
      </trkpt>
      <trkpt lat="50.18129" lon="1.69474">
        <ele>4.8</ele>
        <time>2020-06-18T16:21:33Z</time>
      </trkpt>
      <trkpt lat="50.18131" lon="1.69482">
        <ele>4.8</ele>
        <time>2020-06-18T16:21:34Z</time>
      </trkpt>
      <trkpt lat="50.18131" lon="1.69491">
        <ele>4.9</ele>
        <time>2020-06-18T16:21:35Z</time>
      </trkpt>
      <trkpt lat="50.18133" lon="1.69499">
        <ele>4.9</ele>
        <time>2020-06-18T16:21:36Z</time>
      </trkpt>
      <trkpt lat="50.18133" lon="1.69507">
        <ele>4.9</ele>
        <time>2020-06-18T16:21:37Z</time>
      </trkpt>
      <trkpt lat="50.18133" lon="1.69515">
        <ele>4.9</ele>
        <time>2020-06-18T16:21:38Z</time>
      </trkpt>
      <trkpt lat="50.18133" lon="1.69523">
        <ele>4.9</ele>
        <time>2020-06-18T16:21:39Z</time>
      </trkpt>
      <trkpt lat="50.18134" lon="1.6953">
        <ele>4.9</ele>
        <time>2020-06-18T16:21:40Z</time>
      </trkpt>
      <trkpt lat="50.18134" lon="1.69536">
        <ele>5.1</ele>
        <time>2020-06-18T16:21:41Z</time>
      </trkpt>
      <trkpt lat="50.18134" lon="1.69543">
        <ele>5.1</ele>
        <time>2020-06-18T16:21:42Z</time>
      </trkpt>
      <trkpt lat="50.18135" lon="1.69548">
        <ele>5.2</ele>
        <time>2020-06-18T16:21:43Z</time>
      </trkpt>
      <trkpt lat="50.18136" lon="1.69554">
        <ele>5.3</ele>
        <time>2020-06-18T16:21:44Z</time>
      </trkpt>
      <trkpt lat="50.18139" lon="1.69557">
        <ele>5.3</ele>
        <time>2020-06-18T16:21:45Z</time>
      </trkpt>
      <trkpt lat="50.18142" lon="1.69561">
        <ele>5.4</ele>
        <time>2020-06-18T16:21:46Z</time>
      </trkpt>
      <trkpt lat="50.18145" lon="1.69564">
        <ele>5.5</ele>
        <time>2020-06-18T16:21:47Z</time>
      </trkpt>
      <trkpt lat="50.18147" lon="1.69569">
        <ele>5.5</ele>
        <time>2020-06-18T16:21:48Z</time>
      </trkpt>
      <trkpt lat="50.18149" lon="1.69573">
        <ele>5.6</ele>
        <time>2020-06-18T16:21:49Z</time>
      </trkpt>
      <trkpt lat="50.18152" lon="1.69577">
        <ele>5.7</ele>
        <time>2020-06-18T16:21:50Z</time>
      </trkpt>
      <trkpt lat="50.18154" lon="1.69581">
        <ele>5.8</ele>
        <time>2020-06-18T16:21:51Z</time>
      </trkpt>
      <trkpt lat="50.18157" lon="1.69586">
        <ele>5.9</ele>
        <time>2020-06-18T16:21:52Z</time>
      </trkpt>
      <trkpt lat="50.18159" lon="1.6959">
        <ele>5.9</ele>
        <time>2020-06-18T16:21:53Z</time>
      </trkpt>
      <trkpt lat="50.18162" lon="1.69595">
        <ele>5.9</ele>
        <time>2020-06-18T16:21:54Z</time>
      </trkpt>
      <trkpt lat="50.18165" lon="1.69599">
        <ele>5.8</ele>
        <time>2020-06-18T16:21:55Z</time>
      </trkpt>
      <trkpt lat="50.18168" lon="1.69599">
        <ele>5.8</ele>
        <time>2020-06-18T16:21:56Z</time>
      </trkpt>
      <trkpt lat="50.18172" lon="1.69599">
        <ele>5.7</ele>
        <time>2020-06-18T16:21:57Z</time>
      </trkpt>
      <trkpt lat="50.18176" lon="1.69595">
        <ele>5.7</ele>
        <time>2020-06-18T16:21:58Z</time>
      </trkpt>
      <trkpt lat="50.1818" lon="1.69593">
        <ele>5.6</ele>
        <time>2020-06-18T16:21:59Z</time>
      </trkpt>
      <trkpt lat="50.18185" lon="1.69591">
        <ele>5.6</ele>
        <time>2020-06-18T16:22:00Z</time>
      </trkpt>
      <trkpt lat="50.1819" lon="1.69589">
        <ele>5.5</ele>
        <time>2020-06-18T16:22:01Z</time>
      </trkpt>
      <trkpt lat="50.18195" lon="1.69588">
        <ele>5.5</ele>
        <time>2020-06-18T16:22:02Z</time>
      </trkpt>
      <trkpt lat="50.182" lon="1.69587">
        <ele>5.4</ele>
        <time>2020-06-18T16:22:03Z</time>
      </trkpt>
      <trkpt lat="50.18205" lon="1.69585">
        <ele>5.4</ele>
        <time>2020-06-18T16:22:04Z</time>
      </trkpt>
      <trkpt lat="50.1821" lon="1.69584">
        <ele>5.4</ele>
        <time>2020-06-18T16:22:05Z</time>
      </trkpt>
      <trkpt lat="50.18215" lon="1.69584">
        <ele>5.4</ele>
        <time>2020-06-18T16:22:06Z</time>
      </trkpt>
      <trkpt lat="50.1822" lon="1.69585">
        <ele>5.3</ele>
        <time>2020-06-18T16:22:07Z</time>
      </trkpt>
      <trkpt lat="50.18225" lon="1.69585">
        <ele>5.2</ele>
        <time>2020-06-18T16:22:08Z</time>
      </trkpt>
      <trkpt lat="50.1823" lon="1.69586">
        <ele>5.1</ele>
        <time>2020-06-18T16:22:09Z</time>
      </trkpt>
      <trkpt lat="50.18235" lon="1.69589">
        <ele>5</ele>
        <time>2020-06-18T16:22:10Z</time>
      </trkpt>
      <trkpt lat="50.1824" lon="1.69593">
        <ele>4.9</ele>
        <time>2020-06-18T16:22:11Z</time>
      </trkpt>
      <trkpt lat="50.18245" lon="1.69596">
        <ele>4.8</ele>
        <time>2020-06-18T16:22:12Z</time>
      </trkpt>
      <trkpt lat="50.1825" lon="1.696">
        <ele>4.7</ele>
        <time>2020-06-18T16:22:13Z</time>
      </trkpt>
      <trkpt lat="50.18255" lon="1.69603">
        <ele>4.7</ele>
        <time>2020-06-18T16:22:14Z</time>
      </trkpt>
      <trkpt lat="50.1826" lon="1.69607">
        <ele>4.6</ele>
        <time>2020-06-18T16:22:15Z</time>
      </trkpt>
      <trkpt lat="50.18265" lon="1.69611">
        <ele>4.6</ele>
        <time>2020-06-18T16:22:16Z</time>
      </trkpt>
      <trkpt lat="50.1827" lon="1.69614">
        <ele>4.5</ele>
        <time>2020-06-18T16:22:17Z</time>
      </trkpt>
      <trkpt lat="50.18276" lon="1.69618">
        <ele>4.5</ele>
        <time>2020-06-18T16:22:18Z</time>
      </trkpt>
      <trkpt lat="50.18281" lon="1.69621">
        <ele>4.4</ele>
        <time>2020-06-18T16:22:19Z</time>
      </trkpt>
      <trkpt lat="50.18287" lon="1.69625">
        <ele>4.3</ele>
        <time>2020-06-18T16:22:20Z</time>
      </trkpt>
      <trkpt lat="50.18293" lon="1.6963">
        <ele>4.3</ele>
        <time>2020-06-18T16:22:21Z</time>
      </trkpt>
      <trkpt lat="50.18299" lon="1.69634">
        <ele>4.2</ele>
        <time>2020-06-18T16:22:22Z</time>
      </trkpt>
      <trkpt lat="50.18304" lon="1.69639">
        <ele>4.2</ele>
        <time>2020-06-18T16:22:23Z</time>
      </trkpt>
      <trkpt lat="50.1831" lon="1.69643">
        <ele>4.2</ele>
        <time>2020-06-18T16:22:24Z</time>
      </trkpt>
      <trkpt lat="50.18315" lon="1.69648">
        <ele>4.1</ele>
        <time>2020-06-18T16:22:25Z</time>
      </trkpt>
      <trkpt lat="50.1832" lon="1.69654">
        <ele>4.1</ele>
        <time>2020-06-18T16:22:26Z</time>
      </trkpt>
      <trkpt lat="50.18325" lon="1.69659">
        <ele>4</ele>
        <time>2020-06-18T16:22:27Z</time>
      </trkpt>
      <trkpt lat="50.18331" lon="1.69664">
        <ele>4</ele>
        <time>2020-06-18T16:22:28Z</time>
      </trkpt>
      <trkpt lat="50.18336" lon="1.69668">
        <ele>4</ele>
        <time>2020-06-18T16:22:29Z</time>
      </trkpt>
      <trkpt lat="50.18341" lon="1.69672">
        <ele>3.9</ele>
        <time>2020-06-18T16:22:30Z</time>
      </trkpt>
      <trkpt lat="50.18346" lon="1.69676">
        <ele>3.9</ele>
        <time>2020-06-18T16:22:31Z</time>
      </trkpt>
      <trkpt lat="50.1835" lon="1.69681">
        <ele>3.9</ele>
        <time>2020-06-18T16:22:32Z</time>
      </trkpt>
      <trkpt lat="50.18355" lon="1.69686">
        <ele>3.9</ele>
        <time>2020-06-18T16:22:33Z</time>
      </trkpt>
      <trkpt lat="50.1836" lon="1.6969">
        <ele>3.9</ele>
        <time>2020-06-18T16:22:34Z</time>
      </trkpt>
      <trkpt lat="50.18365" lon="1.69694">
        <ele>3.9</ele>
        <time>2020-06-18T16:22:35Z</time>
      </trkpt>
      <trkpt lat="50.1837" lon="1.697">
        <ele>3.9</ele>
        <time>2020-06-18T16:22:36Z</time>
      </trkpt>
      <trkpt lat="50.18375" lon="1.69704">
        <ele>3.9</ele>
        <time>2020-06-18T16:22:37Z</time>
      </trkpt>
      <trkpt lat="50.1838" lon="1.69709">
        <ele>3.9</ele>
        <time>2020-06-18T16:22:38Z</time>
      </trkpt>
      <trkpt lat="50.18385" lon="1.69715">
        <ele>3.9</ele>
        <time>2020-06-18T16:22:39Z</time>
      </trkpt>
      <trkpt lat="50.18391" lon="1.6972">
        <ele>3.9</ele>
        <time>2020-06-18T16:22:40Z</time>
      </trkpt>
      <trkpt lat="50.18396" lon="1.69725">
        <ele>3.9</ele>
        <time>2020-06-18T16:22:41Z</time>
      </trkpt>
      <trkpt lat="50.18402" lon="1.69731">
        <ele>3.9</ele>
        <time>2020-06-18T16:22:42Z</time>
      </trkpt>
      <trkpt lat="50.18407" lon="1.69737">
        <ele>3.9</ele>
        <time>2020-06-18T16:22:43Z</time>
      </trkpt>
      <trkpt lat="50.18412" lon="1.69744">
        <ele>3.9</ele>
        <time>2020-06-18T16:22:44Z</time>
      </trkpt>
      <trkpt lat="50.18417" lon="1.6975">
        <ele>3.9</ele>
        <time>2020-06-18T16:22:45Z</time>
      </trkpt>
      <trkpt lat="50.18422" lon="1.69756">
        <ele>3.9</ele>
        <time>2020-06-18T16:22:46Z</time>
      </trkpt>
      <trkpt lat="50.18427" lon="1.69763">
        <ele>3.9</ele>
        <time>2020-06-18T16:22:47Z</time>
      </trkpt>
      <trkpt lat="50.18432" lon="1.69768">
        <ele>4</ele>
        <time>2020-06-18T16:22:48Z</time>
      </trkpt>
      <trkpt lat="50.18437" lon="1.69775">
        <ele>4.1</ele>
        <time>2020-06-18T16:22:49Z</time>
      </trkpt>
      <trkpt lat="50.18442" lon="1.69781">
        <ele>4.1</ele>
        <time>2020-06-18T16:22:50Z</time>
      </trkpt>
      <trkpt lat="50.18447" lon="1.69787">
        <ele>4.1</ele>
        <time>2020-06-18T16:22:51Z</time>
      </trkpt>
      <trkpt lat="50.18453" lon="1.69794">
        <ele>4.1</ele>
        <time>2020-06-18T16:22:52Z</time>
      </trkpt>
      <trkpt lat="50.18458" lon="1.698">
        <ele>4.1</ele>
        <time>2020-06-18T16:22:53Z</time>
      </trkpt>
      <trkpt lat="50.18464" lon="1.69806">
        <ele>4.2</ele>
        <time>2020-06-18T16:22:54Z</time>
      </trkpt>
      <trkpt lat="50.1847" lon="1.69812">
        <ele>4.2</ele>
        <time>2020-06-18T16:22:55Z</time>
      </trkpt>
      <trkpt lat="50.18475" lon="1.69818">
        <ele>4.3</ele>
        <time>2020-06-18T16:22:56Z</time>
      </trkpt>
      <trkpt lat="50.18481" lon="1.69824">
        <ele>4.3</ele>
        <time>2020-06-18T16:22:57Z</time>
      </trkpt>
      <trkpt lat="50.18486" lon="1.69829">
        <ele>4.4</ele>
        <time>2020-06-18T16:22:58Z</time>
      </trkpt>
      <trkpt lat="50.18491" lon="1.69835">
        <ele>4.3</ele>
        <time>2020-06-18T16:22:59Z</time>
      </trkpt>
      <trkpt lat="50.18497" lon="1.69842">
        <ele>4.3</ele>
        <time>2020-06-18T16:23:00Z</time>
      </trkpt>
      <trkpt lat="50.18502" lon="1.69848">
        <ele>4.3</ele>
        <time>2020-06-18T16:23:01Z</time>
      </trkpt>
      <trkpt lat="50.18507" lon="1.69855">
        <ele>4.2</ele>
        <time>2020-06-18T16:23:02Z</time>
      </trkpt>
      <trkpt lat="50.18513" lon="1.69862">
        <ele>4.2</ele>
        <time>2020-06-18T16:23:03Z</time>
      </trkpt>
      <trkpt lat="50.18518" lon="1.69868">
        <ele>4.2</ele>
        <time>2020-06-18T16:23:04Z</time>
      </trkpt>
      <trkpt lat="50.18524" lon="1.69874">
        <ele>4.2</ele>
        <time>2020-06-18T16:23:05Z</time>
      </trkpt>
      <trkpt lat="50.18529" lon="1.69881">
        <ele>4.2</ele>
        <time>2020-06-18T16:23:06Z</time>
      </trkpt>
      <trkpt lat="50.18533" lon="1.69887">
        <ele>4.2</ele>
        <time>2020-06-18T16:23:07Z</time>
      </trkpt>
      <trkpt lat="50.18538" lon="1.69892">
        <ele>4.3</ele>
        <time>2020-06-18T16:23:08Z</time>
      </trkpt>
      <trkpt lat="50.18543" lon="1.69898">
        <ele>4.3</ele>
        <time>2020-06-18T16:23:09Z</time>
      </trkpt>
      <trkpt lat="50.18547" lon="1.69904">
        <ele>4.4</ele>
        <time>2020-06-18T16:23:10Z</time>
      </trkpt>
      <trkpt lat="50.18551" lon="1.69909">
        <ele>4.4</ele>
        <time>2020-06-18T16:23:11Z</time>
      </trkpt>
      <trkpt lat="50.18555" lon="1.69914">
        <ele>4.5</ele>
        <time>2020-06-18T16:23:12Z</time>
      </trkpt>
      <trkpt lat="50.1856" lon="1.69919">
        <ele>4.6</ele>
        <time>2020-06-18T16:23:13Z</time>
      </trkpt>
      <trkpt lat="50.18563" lon="1.69923">
        <ele>4.7</ele>
        <time>2020-06-18T16:23:14Z</time>
      </trkpt>
      <trkpt lat="50.18567" lon="1.69928">
        <ele>4.8</ele>
        <time>2020-06-18T16:23:15Z</time>
      </trkpt>
      <trkpt lat="50.18571" lon="1.69932">
        <ele>4.9</ele>
        <time>2020-06-18T16:23:16Z</time>
      </trkpt>
      <trkpt lat="50.18574" lon="1.69937">
        <ele>5</ele>
        <time>2020-06-18T16:23:17Z</time>
      </trkpt>
      <trkpt lat="50.18577" lon="1.6994">
        <ele>5.1</ele>
        <time>2020-06-18T16:23:18Z</time>
      </trkpt>
      <trkpt lat="50.18581" lon="1.69944">
        <ele>5.1</ele>
        <time>2020-06-18T16:23:19Z</time>
      </trkpt>
      <trkpt lat="50.18584" lon="1.69946">
        <ele>5.2</ele>
        <time>2020-06-18T16:23:20Z</time>
      </trkpt>
      <trkpt lat="50.18587" lon="1.69947">
        <ele>5.2</ele>
        <time>2020-06-18T16:23:21Z</time>
      </trkpt>
      <trkpt lat="50.1859" lon="1.69947">
        <ele>5.2</ele>
        <time>2020-06-18T16:23:22Z</time>
      </trkpt>
      <trkpt lat="50.18592" lon="1.69942">
        <ele>5.2</ele>
        <time>2020-06-18T16:23:23Z</time>
      </trkpt>
      <trkpt lat="50.18595" lon="1.69939">
        <ele>5.3</ele>
        <time>2020-06-18T16:23:24Z</time>
      </trkpt>
      <trkpt lat="50.18598" lon="1.69936">
        <ele>5.3</ele>
        <time>2020-06-18T16:23:25Z</time>
      </trkpt>
      <trkpt lat="50.18601" lon="1.69933">
        <ele>5.4</ele>
        <time>2020-06-18T16:23:26Z</time>
      </trkpt>
      <trkpt lat="50.18603" lon="1.6993">
        <ele>5.3</ele>
        <time>2020-06-18T16:23:27Z</time>
      </trkpt>
      <trkpt lat="50.18606" lon="1.69928">
        <ele>5.3</ele>
        <time>2020-06-18T16:23:28Z</time>
      </trkpt>
      <trkpt lat="50.18607" lon="1.69928">
        <ele>5.3</ele>
        <time>2020-06-18T16:23:29Z</time>
      </trkpt>
      <trkpt lat="50.18609" lon="1.69924">
        <ele>5.2</ele>
        <time>2020-06-18T16:23:30Z</time>
      </trkpt>
      <trkpt lat="50.1861" lon="1.69923">
        <ele>5.2</ele>
        <time>2020-06-18T16:23:31Z</time>
      </trkpt>
      <trkpt lat="50.18611" lon="1.69919">
        <ele>5.2</ele>
        <time>2020-06-18T16:23:32Z</time>
      </trkpt>
      <trkpt lat="50.18613" lon="1.69915">
        <ele>5.1</ele>
        <time>2020-06-18T16:23:33Z</time>
      </trkpt>
      <trkpt lat="50.18615" lon="1.69911">
        <ele>5.1</ele>
        <time>2020-06-18T16:23:34Z</time>
      </trkpt>
      <trkpt lat="50.18617" lon="1.69906">
        <ele>5</ele>
        <time>2020-06-18T16:23:35Z</time>
      </trkpt>
      <trkpt lat="50.1862" lon="1.69906">
        <ele>5</ele>
        <time>2020-06-18T16:23:36Z</time>
      </trkpt>
      <trkpt lat="50.18624" lon="1.69909">
        <ele>5</ele>
        <time>2020-06-18T16:23:37Z</time>
      </trkpt>
      <trkpt lat="50.18628" lon="1.69912">
        <ele>4.9</ele>
        <time>2020-06-18T16:23:38Z</time>
      </trkpt>
      <trkpt lat="50.18632" lon="1.69913">
        <ele>4.9</ele>
        <time>2020-06-18T16:23:39Z</time>
      </trkpt>
      <trkpt lat="50.18635" lon="1.69915">
        <ele>4.9</ele>
        <time>2020-06-18T16:23:40Z</time>
      </trkpt>
      <trkpt lat="50.18639" lon="1.69917">
        <ele>4.9</ele>
        <time>2020-06-18T16:23:41Z</time>
      </trkpt>
      <trkpt lat="50.18643" lon="1.69917">
        <ele>4.9</ele>
        <time>2020-06-18T16:23:42Z</time>
      </trkpt>
      <trkpt lat="50.18648" lon="1.69918">
        <ele>4.9</ele>
        <time>2020-06-18T16:23:43Z</time>
      </trkpt>
      <trkpt lat="50.18653" lon="1.69919">
        <ele>4.9</ele>
        <time>2020-06-18T16:23:44Z</time>
      </trkpt>
      <trkpt lat="50.18658" lon="1.69919">
        <ele>4.9</ele>
        <time>2020-06-18T16:23:45Z</time>
      </trkpt>
      <trkpt lat="50.18663" lon="1.69919">
        <ele>4.9</ele>
        <time>2020-06-18T16:23:46Z</time>
      </trkpt>
      <trkpt lat="50.18667" lon="1.69921">
        <ele>4.9</ele>
        <time>2020-06-18T16:23:47Z</time>
      </trkpt>
      <trkpt lat="50.18672" lon="1.69921">
        <ele>4.9</ele>
        <time>2020-06-18T16:23:48Z</time>
      </trkpt>
      <trkpt lat="50.18677" lon="1.69922">
        <ele>4.9</ele>
        <time>2020-06-18T16:23:49Z</time>
      </trkpt>
      <trkpt lat="50.18683" lon="1.69922">
        <ele>4.9</ele>
        <time>2020-06-18T16:23:50Z</time>
      </trkpt>
      <trkpt lat="50.18688" lon="1.69924">
        <ele>4.9</ele>
        <time>2020-06-18T16:23:51Z</time>
      </trkpt>
      <trkpt lat="50.18693" lon="1.69925">
        <ele>4.9</ele>
        <time>2020-06-18T16:23:52Z</time>
      </trkpt>
      <trkpt lat="50.18698" lon="1.69926">
        <ele>4.9</ele>
        <time>2020-06-18T16:23:53Z</time>
      </trkpt>
      <trkpt lat="50.18703" lon="1.69926">
        <ele>4.9</ele>
        <time>2020-06-18T16:23:54Z</time>
      </trkpt>
      <trkpt lat="50.18708" lon="1.69927">
        <ele>4.9</ele>
        <time>2020-06-18T16:23:55Z</time>
      </trkpt>
      <trkpt lat="50.18714" lon="1.69925">
        <ele>4.9</ele>
        <time>2020-06-18T16:23:56Z</time>
      </trkpt>
      <trkpt lat="50.18719" lon="1.69925">
        <ele>4.9</ele>
        <time>2020-06-18T16:23:57Z</time>
      </trkpt>
      <trkpt lat="50.18725" lon="1.69926">
        <ele>4.9</ele>
        <time>2020-06-18T16:23:58Z</time>
      </trkpt>
      <trkpt lat="50.1873" lon="1.69927">
        <ele>4.9</ele>
        <time>2020-06-18T16:23:59Z</time>
      </trkpt>
      <trkpt lat="50.18735" lon="1.69929">
        <ele>4.9</ele>
        <time>2020-06-18T16:24:00Z</time>
      </trkpt>
      <trkpt lat="50.18741" lon="1.69931">
        <ele>4.9</ele>
        <time>2020-06-18T16:24:01Z</time>
      </trkpt>
      <trkpt lat="50.18746" lon="1.69931">
        <ele>4.9</ele>
        <time>2020-06-18T16:24:02Z</time>
      </trkpt>
      <trkpt lat="50.18751" lon="1.69931">
        <ele>4.9</ele>
        <time>2020-06-18T16:24:03Z</time>
      </trkpt>
      <trkpt lat="50.18756" lon="1.69931">
        <ele>4.9</ele>
        <time>2020-06-18T16:24:04Z</time>
      </trkpt>
      <trkpt lat="50.18762" lon="1.69932">
        <ele>4.9</ele>
        <time>2020-06-18T16:24:05Z</time>
      </trkpt>
      <trkpt lat="50.18767" lon="1.69934">
        <ele>4.9</ele>
        <time>2020-06-18T16:24:06Z</time>
      </trkpt>
      <trkpt lat="50.18773" lon="1.69934">
        <ele>4.9</ele>
        <time>2020-06-18T16:24:07Z</time>
      </trkpt>
      <trkpt lat="50.18778" lon="1.69935">
        <ele>5</ele>
        <time>2020-06-18T16:24:08Z</time>
      </trkpt>
      <trkpt lat="50.18783" lon="1.69935">
        <ele>5</ele>
        <time>2020-06-18T16:24:09Z</time>
      </trkpt>
      <trkpt lat="50.18788" lon="1.69936">
        <ele>5</ele>
        <time>2020-06-18T16:24:10Z</time>
      </trkpt>
      <trkpt lat="50.18794" lon="1.69935">
        <ele>5</ele>
        <time>2020-06-18T16:24:11Z</time>
      </trkpt>
      <trkpt lat="50.18799" lon="1.69936">
        <ele>5</ele>
        <time>2020-06-18T16:24:12Z</time>
      </trkpt>
      <trkpt lat="50.18805" lon="1.69937">
        <ele>5.1</ele>
        <time>2020-06-18T16:24:13Z</time>
      </trkpt>
      <trkpt lat="50.18811" lon="1.69937">
        <ele>5.1</ele>
        <time>2020-06-18T16:24:14Z</time>
      </trkpt>
      <trkpt lat="50.18817" lon="1.69939">
        <ele>5.1</ele>
        <time>2020-06-18T16:24:15Z</time>
      </trkpt>
      <trkpt lat="50.18823" lon="1.69939">
        <ele>5.1</ele>
        <time>2020-06-18T16:24:16Z</time>
      </trkpt>
      <trkpt lat="50.18829" lon="1.6994">
        <ele>5.2</ele>
        <time>2020-06-18T16:24:17Z</time>
      </trkpt>
      <trkpt lat="50.18836" lon="1.69941">
        <ele>5.2</ele>
        <time>2020-06-18T16:24:18Z</time>
      </trkpt>
      <trkpt lat="50.18842" lon="1.69942">
        <ele>5.3</ele>
        <time>2020-06-18T16:24:19Z</time>
      </trkpt>
      <trkpt lat="50.18848" lon="1.69942">
        <ele>5.4</ele>
        <time>2020-06-18T16:24:20Z</time>
      </trkpt>
      <trkpt lat="50.18854" lon="1.69942">
        <ele>5.4</ele>
        <time>2020-06-18T16:24:21Z</time>
      </trkpt>
      <trkpt lat="50.18859" lon="1.69943">
        <ele>5.4</ele>
        <time>2020-06-18T16:24:22Z</time>
      </trkpt>
      <trkpt lat="50.18865" lon="1.69944">
        <ele>5.5</ele>
        <time>2020-06-18T16:24:23Z</time>
      </trkpt>
      <trkpt lat="50.18871" lon="1.69945">
        <ele>5.5</ele>
        <time>2020-06-18T16:24:24Z</time>
      </trkpt>
      <trkpt lat="50.18877" lon="1.69945">
        <ele>5.5</ele>
        <time>2020-06-18T16:24:25Z</time>
      </trkpt>
      <trkpt lat="50.18883" lon="1.69946">
        <ele>5.6</ele>
        <time>2020-06-18T16:24:26Z</time>
      </trkpt>
      <trkpt lat="50.18889" lon="1.69947">
        <ele>5.7</ele>
        <time>2020-06-18T16:24:27Z</time>
      </trkpt>
      <trkpt lat="50.18895" lon="1.69948">
        <ele>5.7</ele>
        <time>2020-06-18T16:24:28Z</time>
      </trkpt>
      <trkpt lat="50.18901" lon="1.69949">
        <ele>5.8</ele>
        <time>2020-06-18T16:24:29Z</time>
      </trkpt>
      <trkpt lat="50.18907" lon="1.69949">
        <ele>5.8</ele>
        <time>2020-06-18T16:24:30Z</time>
      </trkpt>
      <trkpt lat="50.18912" lon="1.6995">
        <ele>5.9</ele>
        <time>2020-06-18T16:24:31Z</time>
      </trkpt>
      <trkpt lat="50.18918" lon="1.6995">
        <ele>5.9</ele>
        <time>2020-06-18T16:24:32Z</time>
      </trkpt>
      <trkpt lat="50.18924" lon="1.69951">
        <ele>6</ele>
        <time>2020-06-18T16:24:33Z</time>
      </trkpt>
      <trkpt lat="50.1893" lon="1.69952">
        <ele>6</ele>
        <time>2020-06-18T16:24:34Z</time>
      </trkpt>
      <trkpt lat="50.18936" lon="1.69953">
        <ele>6.1</ele>
        <time>2020-06-18T16:24:35Z</time>
      </trkpt>
      <trkpt lat="50.18942" lon="1.69953">
        <ele>6.1</ele>
        <time>2020-06-18T16:24:36Z</time>
      </trkpt>
      <trkpt lat="50.18948" lon="1.69953">
        <ele>6.2</ele>
        <time>2020-06-18T16:24:37Z</time>
      </trkpt>
      <trkpt lat="50.18954" lon="1.69954">
        <ele>6.2</ele>
        <time>2020-06-18T16:24:38Z</time>
      </trkpt>
      <trkpt lat="50.1896" lon="1.69955">
        <ele>6.3</ele>
        <time>2020-06-18T16:24:39Z</time>
      </trkpt>
      <trkpt lat="50.18966" lon="1.69956">
        <ele>6.4</ele>
        <time>2020-06-18T16:24:40Z</time>
      </trkpt>
      <trkpt lat="50.18972" lon="1.69958">
        <ele>6.4</ele>
        <time>2020-06-18T16:24:41Z</time>
      </trkpt>
      <trkpt lat="50.18978" lon="1.69959">
        <ele>6.5</ele>
        <time>2020-06-18T16:24:42Z</time>
      </trkpt>
      <trkpt lat="50.18984" lon="1.6996">
        <ele>6.5</ele>
        <time>2020-06-18T16:24:43Z</time>
      </trkpt>
      <trkpt lat="50.18989" lon="1.6996">
        <ele>6.6</ele>
        <time>2020-06-18T16:24:44Z</time>
      </trkpt>
      <trkpt lat="50.18994" lon="1.6996">
        <ele>6.6</ele>
        <time>2020-06-18T16:24:45Z</time>
      </trkpt>
      <trkpt lat="50.19" lon="1.69961">
        <ele>6.6</ele>
        <time>2020-06-18T16:24:46Z</time>
      </trkpt>
      <trkpt lat="50.19006" lon="1.69963">
        <ele>6.7</ele>
        <time>2020-06-18T16:24:47Z</time>
      </trkpt>
      <trkpt lat="50.19011" lon="1.69964">
        <ele>6.7</ele>
        <time>2020-06-18T16:24:48Z</time>
      </trkpt>
      <trkpt lat="50.19017" lon="1.69964">
        <ele>6.7</ele>
        <time>2020-06-18T16:24:49Z</time>
      </trkpt>
      <trkpt lat="50.19022" lon="1.69964">
        <ele>6.7</ele>
        <time>2020-06-18T16:24:50Z</time>
      </trkpt>
      <trkpt lat="50.19027" lon="1.69964">
        <ele>6.7</ele>
        <time>2020-06-18T16:24:51Z</time>
      </trkpt>
      <trkpt lat="50.19033" lon="1.69963">
        <ele>6.7</ele>
        <time>2020-06-18T16:24:52Z</time>
      </trkpt>
      <trkpt lat="50.19039" lon="1.69963">
        <ele>6.7</ele>
        <time>2020-06-18T16:24:53Z</time>
      </trkpt>
      <trkpt lat="50.19045" lon="1.69962">
        <ele>6.7</ele>
        <time>2020-06-18T16:24:54Z</time>
      </trkpt>
      <trkpt lat="50.1905" lon="1.69963">
        <ele>6.7</ele>
        <time>2020-06-18T16:24:55Z</time>
      </trkpt>
      <trkpt lat="50.19056" lon="1.69963">
        <ele>6.7</ele>
        <time>2020-06-18T16:24:56Z</time>
      </trkpt>
      <trkpt lat="50.19062" lon="1.69964">
        <ele>6.8</ele>
        <time>2020-06-18T16:24:57Z</time>
      </trkpt>
      <trkpt lat="50.19067" lon="1.69964">
        <ele>6.8</ele>
        <time>2020-06-18T16:24:58Z</time>
      </trkpt>
      <trkpt lat="50.19073" lon="1.69964">
        <ele>6.8</ele>
        <time>2020-06-18T16:24:59Z</time>
      </trkpt>
      <trkpt lat="50.1908" lon="1.69965">
        <ele>6.8</ele>
        <time>2020-06-18T16:25:00Z</time>
      </trkpt>
      <trkpt lat="50.19086" lon="1.69966">
        <ele>6.8</ele>
        <time>2020-06-18T16:25:01Z</time>
      </trkpt>
      <trkpt lat="50.19092" lon="1.69968">
        <ele>6.9</ele>
        <time>2020-06-18T16:25:02Z</time>
      </trkpt>
      <trkpt lat="50.19098" lon="1.69968">
        <ele>6.9</ele>
        <time>2020-06-18T16:25:03Z</time>
      </trkpt>
      <trkpt lat="50.19104" lon="1.6997">
        <ele>6.9</ele>
        <time>2020-06-18T16:25:04Z</time>
      </trkpt>
      <trkpt lat="50.19111" lon="1.69971">
        <ele>7</ele>
        <time>2020-06-18T16:25:05Z</time>
      </trkpt>
      <trkpt lat="50.19118" lon="1.69972">
        <ele>7</ele>
        <time>2020-06-18T16:25:06Z</time>
      </trkpt>
      <trkpt lat="50.19124" lon="1.69973">
        <ele>7</ele>
        <time>2020-06-18T16:25:07Z</time>
      </trkpt>
      <trkpt lat="50.1913" lon="1.69973">
        <ele>7.1</ele>
        <time>2020-06-18T16:25:08Z</time>
      </trkpt>
      <trkpt lat="50.19137" lon="1.69973">
        <ele>7.1</ele>
        <time>2020-06-18T16:25:09Z</time>
      </trkpt>
      <trkpt lat="50.19143" lon="1.69974">
        <ele>7.1</ele>
        <time>2020-06-18T16:25:10Z</time>
      </trkpt>
      <trkpt lat="50.1915" lon="1.69974">
        <ele>7.2</ele>
        <time>2020-06-18T16:25:11Z</time>
      </trkpt>
      <trkpt lat="50.19156" lon="1.69975">
        <ele>7.2</ele>
        <time>2020-06-18T16:25:12Z</time>
      </trkpt>
      <trkpt lat="50.19161" lon="1.69974">
        <ele>7.3</ele>
        <time>2020-06-18T16:25:13Z</time>
      </trkpt>
      <trkpt lat="50.19166" lon="1.69974">
        <ele>7.3</ele>
        <time>2020-06-18T16:25:14Z</time>
      </trkpt>
      <trkpt lat="50.19171" lon="1.69974">
        <ele>7.4</ele>
        <time>2020-06-18T16:25:15Z</time>
      </trkpt>
      <trkpt lat="50.19176" lon="1.69977">
        <ele>7.4</ele>
        <time>2020-06-18T16:25:16Z</time>
      </trkpt>
      <trkpt lat="50.19181" lon="1.69979">
        <ele>7.3</ele>
        <time>2020-06-18T16:25:17Z</time>
      </trkpt>
      <trkpt lat="50.19186" lon="1.6998">
        <ele>7.3</ele>
        <time>2020-06-18T16:25:18Z</time>
      </trkpt>
      <trkpt lat="50.1919" lon="1.6998">
        <ele>7.3</ele>
        <time>2020-06-18T16:25:19Z</time>
      </trkpt>
      <trkpt lat="50.19194" lon="1.6998">
        <ele>7.3</ele>
        <time>2020-06-18T16:25:20Z</time>
      </trkpt>
      <trkpt lat="50.19198" lon="1.69979">
        <ele>7.3</ele>
        <time>2020-06-18T16:25:21Z</time>
      </trkpt>
      <trkpt lat="50.19203" lon="1.69978">
        <ele>7.3</ele>
        <time>2020-06-18T16:25:22Z</time>
      </trkpt>
      <trkpt lat="50.19207" lon="1.69975">
        <ele>7.3</ele>
        <time>2020-06-18T16:25:23Z</time>
      </trkpt>
      <trkpt lat="50.19211" lon="1.6997">
        <ele>7.2</ele>
        <time>2020-06-18T16:25:24Z</time>
      </trkpt>
      <trkpt lat="50.19215" lon="1.69965">
        <ele>7.2</ele>
        <time>2020-06-18T16:25:25Z</time>
      </trkpt>
      <trkpt lat="50.19219" lon="1.69962">
        <ele>7.1</ele>
        <time>2020-06-18T16:25:26Z</time>
      </trkpt>
      <trkpt lat="50.19223" lon="1.69957">
        <ele>7.1</ele>
        <time>2020-06-18T16:25:27Z</time>
      </trkpt>
      <trkpt lat="50.19228" lon="1.69956">
        <ele>7</ele>
        <time>2020-06-18T16:25:28Z</time>
      </trkpt>
      <trkpt lat="50.19233" lon="1.69953">
        <ele>6.9</ele>
        <time>2020-06-18T16:25:29Z</time>
      </trkpt>
      <trkpt lat="50.19238" lon="1.69952">
        <ele>6.9</ele>
        <time>2020-06-18T16:25:30Z</time>
      </trkpt>
      <trkpt lat="50.19243" lon="1.6995">
        <ele>6.8</ele>
        <time>2020-06-18T16:25:31Z</time>
      </trkpt>
      <trkpt lat="50.19248" lon="1.69948">
        <ele>6.8</ele>
        <time>2020-06-18T16:25:32Z</time>
      </trkpt>
      <trkpt lat="50.19253" lon="1.69946">
        <ele>6.7</ele>
        <time>2020-06-18T16:25:33Z</time>
      </trkpt>
      <trkpt lat="50.19259" lon="1.69943">
        <ele>6.7</ele>
        <time>2020-06-18T16:25:34Z</time>
      </trkpt>
      <trkpt lat="50.19264" lon="1.6994">
        <ele>6.6</ele>
        <time>2020-06-18T16:25:35Z</time>
      </trkpt>
      <trkpt lat="50.19269" lon="1.69937">
        <ele>6.6</ele>
        <time>2020-06-18T16:25:36Z</time>
      </trkpt>
      <trkpt lat="50.19275" lon="1.69935">
        <ele>6.5</ele>
        <time>2020-06-18T16:25:37Z</time>
      </trkpt>
      <trkpt lat="50.19279" lon="1.69933">
        <ele>6.5</ele>
        <time>2020-06-18T16:25:38Z</time>
      </trkpt>
      <trkpt lat="50.19285" lon="1.6993">
        <ele>6.4</ele>
        <time>2020-06-18T16:25:39Z</time>
      </trkpt>
      <trkpt lat="50.1929" lon="1.69927">
        <ele>6.2</ele>
        <time>2020-06-18T16:25:40Z</time>
      </trkpt>
      <trkpt lat="50.19295" lon="1.69924">
        <ele>6.1</ele>
        <time>2020-06-18T16:25:41Z</time>
      </trkpt>
      <trkpt lat="50.19301" lon="1.69923">
        <ele>6</ele>
        <time>2020-06-18T16:25:42Z</time>
      </trkpt>
      <trkpt lat="50.19306" lon="1.69921">
        <ele>5.9</ele>
        <time>2020-06-18T16:25:43Z</time>
      </trkpt>
      <trkpt lat="50.19312" lon="1.6992">
        <ele>5.9</ele>
        <time>2020-06-18T16:25:44Z</time>
      </trkpt>
      <trkpt lat="50.19319" lon="1.69921">
        <ele>5.8</ele>
        <time>2020-06-18T16:25:45Z</time>
      </trkpt>
      <trkpt lat="50.19324" lon="1.69916">
        <ele>5.8</ele>
        <time>2020-06-18T16:25:46Z</time>
      </trkpt>
      <trkpt lat="50.1933" lon="1.69912">
        <ele>5.7</ele>
        <time>2020-06-18T16:25:47Z</time>
      </trkpt>
      <trkpt lat="50.19335" lon="1.69907">
        <ele>5.7</ele>
        <time>2020-06-18T16:25:48Z</time>
      </trkpt>
      <trkpt lat="50.19341" lon="1.69903">
        <ele>5.7</ele>
        <time>2020-06-18T16:25:49Z</time>
      </trkpt>
      <trkpt lat="50.19347" lon="1.69899">
        <ele>5.6</ele>
        <time>2020-06-18T16:25:50Z</time>
      </trkpt>
      <trkpt lat="50.19352" lon="1.69894">
        <ele>5.6</ele>
        <time>2020-06-18T16:25:51Z</time>
      </trkpt>
      <trkpt lat="50.19358" lon="1.69889">
        <ele>5.5</ele>
        <time>2020-06-18T16:25:52Z</time>
      </trkpt>
      <trkpt lat="50.19363" lon="1.69884">
        <ele>5.4</ele>
        <time>2020-06-18T16:25:53Z</time>
      </trkpt>
      <trkpt lat="50.19369" lon="1.69879">
        <ele>5.4</ele>
        <time>2020-06-18T16:25:54Z</time>
      </trkpt>
      <trkpt lat="50.19374" lon="1.69873">
        <ele>5.3</ele>
        <time>2020-06-18T16:25:55Z</time>
      </trkpt>
      <trkpt lat="50.19379" lon="1.69868">
        <ele>5.2</ele>
        <time>2020-06-18T16:25:56Z</time>
      </trkpt>
      <trkpt lat="50.19385" lon="1.69865">
        <ele>5.2</ele>
        <time>2020-06-18T16:25:57Z</time>
      </trkpt>
      <trkpt lat="50.19392" lon="1.69862">
        <ele>5.2</ele>
        <time>2020-06-18T16:25:58Z</time>
      </trkpt>
      <trkpt lat="50.19398" lon="1.69861">
        <ele>5.2</ele>
        <time>2020-06-18T16:25:59Z</time>
      </trkpt>
      <trkpt lat="50.19404" lon="1.69858">
        <ele>5.2</ele>
        <time>2020-06-18T16:26:00Z</time>
      </trkpt>
      <trkpt lat="50.1941" lon="1.69855">
        <ele>5.2</ele>
        <time>2020-06-18T16:26:01Z</time>
      </trkpt>
      <trkpt lat="50.19416" lon="1.69854">
        <ele>5.2</ele>
        <time>2020-06-18T16:26:02Z</time>
      </trkpt>
      <trkpt lat="50.19422" lon="1.69851">
        <ele>5.2</ele>
        <time>2020-06-18T16:26:03Z</time>
      </trkpt>
      <trkpt lat="50.19428" lon="1.6985">
        <ele>5.2</ele>
        <time>2020-06-18T16:26:04Z</time>
      </trkpt>
      <trkpt lat="50.19434" lon="1.69848">
        <ele>5.1</ele>
        <time>2020-06-18T16:26:05Z</time>
      </trkpt>
      <trkpt lat="50.1944" lon="1.69845">
        <ele>5.1</ele>
        <time>2020-06-18T16:26:06Z</time>
      </trkpt>
      <trkpt lat="50.19446" lon="1.69842">
        <ele>5</ele>
        <time>2020-06-18T16:26:07Z</time>
      </trkpt>
      <trkpt lat="50.19452" lon="1.69839">
        <ele>5</ele>
        <time>2020-06-18T16:26:08Z</time>
      </trkpt>
      <trkpt lat="50.19457" lon="1.69836">
        <ele>4.9</ele>
        <time>2020-06-18T16:26:09Z</time>
      </trkpt>
      <trkpt lat="50.19463" lon="1.69832">
        <ele>4.9</ele>
        <time>2020-06-18T16:26:10Z</time>
      </trkpt>
      <trkpt lat="50.19468" lon="1.69826">
        <ele>4.8</ele>
        <time>2020-06-18T16:26:11Z</time>
      </trkpt>
      <trkpt lat="50.19474" lon="1.6982">
        <ele>4.8</ele>
        <time>2020-06-18T16:26:12Z</time>
      </trkpt>
      <trkpt lat="50.19478" lon="1.69811">
        <ele>4.8</ele>
        <time>2020-06-18T16:26:13Z</time>
      </trkpt>
      <trkpt lat="50.19483" lon="1.69802">
        <ele>4.8</ele>
        <time>2020-06-18T16:26:14Z</time>
      </trkpt>
      <trkpt lat="50.19486" lon="1.69793">
        <ele>4.9</ele>
        <time>2020-06-18T16:26:15Z</time>
      </trkpt>
      <trkpt lat="50.1949" lon="1.69785">
        <ele>4.9</ele>
        <time>2020-06-18T16:26:16Z</time>
      </trkpt>
      <trkpt lat="50.19492" lon="1.69776">
        <ele>5</ele>
        <time>2020-06-18T16:26:17Z</time>
      </trkpt>
      <trkpt lat="50.19496" lon="1.69767">
        <ele>5.1</ele>
        <time>2020-06-18T16:26:18Z</time>
      </trkpt>
      <trkpt lat="50.195" lon="1.6976">
        <ele>5.2</ele>
        <time>2020-06-18T16:26:19Z</time>
      </trkpt>
      <trkpt lat="50.19505" lon="1.69754">
        <ele>5.3</ele>
        <time>2020-06-18T16:26:20Z</time>
      </trkpt>
      <trkpt lat="50.1951" lon="1.69748">
        <ele>5.4</ele>
        <time>2020-06-18T16:26:21Z</time>
      </trkpt>
      <trkpt lat="50.19514" lon="1.69742">
        <ele>5.4</ele>
        <time>2020-06-18T16:26:22Z</time>
      </trkpt>
      <trkpt lat="50.19519" lon="1.69737">
        <ele>5.5</ele>
        <time>2020-06-18T16:26:23Z</time>
      </trkpt>
      <trkpt lat="50.19524" lon="1.69732">
        <ele>5.6</ele>
        <time>2020-06-18T16:26:24Z</time>
      </trkpt>
      <trkpt lat="50.19528" lon="1.69727">
        <ele>5.6</ele>
        <time>2020-06-18T16:26:25Z</time>
      </trkpt>
      <trkpt lat="50.19533" lon="1.69721">
        <ele>5.6</ele>
        <time>2020-06-18T16:26:26Z</time>
      </trkpt>
      <trkpt lat="50.19536" lon="1.69714">
        <ele>5.6</ele>
        <time>2020-06-18T16:26:27Z</time>
      </trkpt>
      <trkpt lat="50.1954" lon="1.69708">
        <ele>5.6</ele>
        <time>2020-06-18T16:26:28Z</time>
      </trkpt>
      <trkpt lat="50.19545" lon="1.69702">
        <ele>5.6</ele>
        <time>2020-06-18T16:26:29Z</time>
      </trkpt>
      <trkpt lat="50.19549" lon="1.69696">
        <ele>5.6</ele>
        <time>2020-06-18T16:26:30Z</time>
      </trkpt>
      <trkpt lat="50.19554" lon="1.69691">
        <ele>5.6</ele>
        <time>2020-06-18T16:26:31Z</time>
      </trkpt>
      <trkpt lat="50.19559" lon="1.69686">
        <ele>5.6</ele>
        <time>2020-06-18T16:26:32Z</time>
      </trkpt>
      <trkpt lat="50.19564" lon="1.6968">
        <ele>5.6</ele>
        <time>2020-06-18T16:26:33Z</time>
      </trkpt>
      <trkpt lat="50.19568" lon="1.69674">
        <ele>5.6</ele>
        <time>2020-06-18T16:26:34Z</time>
      </trkpt>
      <trkpt lat="50.19573" lon="1.69667">
        <ele>5.6</ele>
        <time>2020-06-18T16:26:35Z</time>
      </trkpt>
      <trkpt lat="50.19577" lon="1.69661">
        <ele>5.6</ele>
        <time>2020-06-18T16:26:36Z</time>
      </trkpt>
      <trkpt lat="50.19582" lon="1.69654">
        <ele>5.6</ele>
        <time>2020-06-18T16:26:37Z</time>
      </trkpt>
      <trkpt lat="50.19586" lon="1.69646">
        <ele>5.7</ele>
        <time>2020-06-18T16:26:38Z</time>
      </trkpt>
      <trkpt lat="50.19592" lon="1.69638">
        <ele>5.7</ele>
        <time>2020-06-18T16:26:39Z</time>
      </trkpt>
      <trkpt lat="50.19597" lon="1.69629">
        <ele>5.8</ele>
        <time>2020-06-18T16:26:40Z</time>
      </trkpt>
      <trkpt lat="50.19602" lon="1.69623">
        <ele>5.8</ele>
        <time>2020-06-18T16:26:41Z</time>
      </trkpt>
      <trkpt lat="50.19607" lon="1.69616">
        <ele>5.6</ele>
        <time>2020-06-18T16:26:42Z</time>
      </trkpt>
      <trkpt lat="50.19611" lon="1.69608">
        <ele>5.6</ele>
        <time>2020-06-18T16:26:43Z</time>
      </trkpt>
      <trkpt lat="50.19616" lon="1.696">
        <ele>5.6</ele>
        <time>2020-06-18T16:26:44Z</time>
      </trkpt>
      <trkpt lat="50.1962" lon="1.69592">
        <ele>5.5</ele>
        <time>2020-06-18T16:26:45Z</time>
      </trkpt>
      <trkpt lat="50.19625" lon="1.69584">
        <ele>5.5</ele>
        <time>2020-06-18T16:26:46Z</time>
      </trkpt>
      <trkpt lat="50.19629" lon="1.69577">
        <ele>5.4</ele>
        <time>2020-06-18T16:26:47Z</time>
      </trkpt>
      <trkpt lat="50.19633" lon="1.6957">
        <ele>5.3</ele>
        <time>2020-06-18T16:26:48Z</time>
      </trkpt>
      <trkpt lat="50.19638" lon="1.69563">
        <ele>5.3</ele>
        <time>2020-06-18T16:26:49Z</time>
      </trkpt>
      <trkpt lat="50.19642" lon="1.69555">
        <ele>5.2</ele>
        <time>2020-06-18T16:26:50Z</time>
      </trkpt>
      <trkpt lat="50.19646" lon="1.69547">
        <ele>5.2</ele>
        <time>2020-06-18T16:26:51Z</time>
      </trkpt>
      <trkpt lat="50.1965" lon="1.69539">
        <ele>5.1</ele>
        <time>2020-06-18T16:26:52Z</time>
      </trkpt>
      <trkpt lat="50.19654" lon="1.69531">
        <ele>5</ele>
        <time>2020-06-18T16:26:53Z</time>
      </trkpt>
      <trkpt lat="50.19658" lon="1.69524">
        <ele>5</ele>
        <time>2020-06-18T16:26:54Z</time>
      </trkpt>
      <trkpt lat="50.19661" lon="1.69516">
        <ele>4.9</ele>
        <time>2020-06-18T16:26:55Z</time>
      </trkpt>
      <trkpt lat="50.19664" lon="1.69509">
        <ele>4.9</ele>
        <time>2020-06-18T16:26:56Z</time>
      </trkpt>
      <trkpt lat="50.19667" lon="1.69502">
        <ele>4.9</ele>
        <time>2020-06-18T16:26:57Z</time>
      </trkpt>
      <trkpt lat="50.1967" lon="1.69493">
        <ele>4.8</ele>
        <time>2020-06-18T16:26:58Z</time>
      </trkpt>
      <trkpt lat="50.19672" lon="1.69485">
        <ele>4.8</ele>
        <time>2020-06-18T16:26:59Z</time>
      </trkpt>
      <trkpt lat="50.19675" lon="1.69476">
        <ele>4.8</ele>
        <time>2020-06-18T16:27:00Z</time>
      </trkpt>
      <trkpt lat="50.19677" lon="1.6947">
        <ele>4.8</ele>
        <time>2020-06-18T16:27:01Z</time>
      </trkpt>
      <trkpt lat="50.1968" lon="1.69465">
        <ele>4.8</ele>
        <time>2020-06-18T16:27:02Z</time>
      </trkpt>
      <trkpt lat="50.19684" lon="1.6946">
        <ele>4.8</ele>
        <time>2020-06-18T16:27:03Z</time>
      </trkpt>
      <trkpt lat="50.19687" lon="1.69454">
        <ele>4.8</ele>
        <time>2020-06-18T16:27:04Z</time>
      </trkpt>
      <trkpt lat="50.19692" lon="1.69448">
        <ele>4.8</ele>
        <time>2020-06-18T16:27:05Z</time>
      </trkpt>
      <trkpt lat="50.19697" lon="1.69442">
        <ele>4.8</ele>
        <time>2020-06-18T16:27:06Z</time>
      </trkpt>
      <trkpt lat="50.19702" lon="1.69436">
        <ele>4.8</ele>
        <time>2020-06-18T16:27:07Z</time>
      </trkpt>
      <trkpt lat="50.19707" lon="1.6943">
        <ele>4.8</ele>
        <time>2020-06-18T16:27:08Z</time>
      </trkpt>
      <trkpt lat="50.19711" lon="1.69424">
        <ele>4.9</ele>
        <time>2020-06-18T16:27:09Z</time>
      </trkpt>
      <trkpt lat="50.19716" lon="1.69417">
        <ele>4.9</ele>
        <time>2020-06-18T16:27:10Z</time>
      </trkpt>
      <trkpt lat="50.1972" lon="1.6941">
        <ele>4.9</ele>
        <time>2020-06-18T16:27:11Z</time>
      </trkpt>
      <trkpt lat="50.19725" lon="1.69403">
        <ele>4.9</ele>
        <time>2020-06-18T16:27:12Z</time>
      </trkpt>
      <trkpt lat="50.19729" lon="1.69397">
        <ele>4.9</ele>
        <time>2020-06-18T16:27:13Z</time>
      </trkpt>
      <trkpt lat="50.19733" lon="1.69389">
        <ele>4.9</ele>
        <time>2020-06-18T16:27:14Z</time>
      </trkpt>
      <trkpt lat="50.19737" lon="1.69383">
        <ele>4.9</ele>
        <time>2020-06-18T16:27:15Z</time>
      </trkpt>
      <trkpt lat="50.1974" lon="1.69376">
        <ele>5</ele>
        <time>2020-06-18T16:27:16Z</time>
      </trkpt>
      <trkpt lat="50.19744" lon="1.69368">
        <ele>5.1</ele>
        <time>2020-06-18T16:27:17Z</time>
      </trkpt>
      <trkpt lat="50.19747" lon="1.6936">
        <ele>5.1</ele>
        <time>2020-06-18T16:27:18Z</time>
      </trkpt>
      <trkpt lat="50.19751" lon="1.69352">
        <ele>5.3</ele>
        <time>2020-06-18T16:27:19Z</time>
      </trkpt>
      <trkpt lat="50.19754" lon="1.69346">
        <ele>5.4</ele>
        <time>2020-06-18T16:27:20Z</time>
      </trkpt>
      <trkpt lat="50.19757" lon="1.6934">
        <ele>5.5</ele>
        <time>2020-06-18T16:27:21Z</time>
      </trkpt>
      <trkpt lat="50.1976" lon="1.69335">
        <ele>5.6</ele>
        <time>2020-06-18T16:27:22Z</time>
      </trkpt>
      <trkpt lat="50.19763" lon="1.6933">
        <ele>5.7</ele>
        <time>2020-06-18T16:27:23Z</time>
      </trkpt>
      <trkpt lat="50.19766" lon="1.69324">
        <ele>5.8</ele>
        <time>2020-06-18T16:27:24Z</time>
      </trkpt>
      <trkpt lat="50.19768" lon="1.6932">
        <ele>5.8</ele>
        <time>2020-06-18T16:27:25Z</time>
      </trkpt>
      <trkpt lat="50.19771" lon="1.69316">
        <ele>5.8</ele>
        <time>2020-06-18T16:27:26Z</time>
      </trkpt>
      <trkpt lat="50.19773" lon="1.69311">
        <ele>6.1</ele>
        <time>2020-06-18T16:27:27Z</time>
      </trkpt>
      <trkpt lat="50.19773" lon="1.6931">
        <ele>6.1</ele>
        <time>2020-06-18T16:27:28Z</time>
      </trkpt>
      <trkpt lat="50.19775" lon="1.69308">
        <ele>6.1</ele>
        <time>2020-06-18T16:27:29Z</time>
      </trkpt>
      <trkpt lat="50.19775" lon="1.69305">
        <ele>6.1</ele>
        <time>2020-06-18T16:27:30Z</time>
      </trkpt>
      <trkpt lat="50.19777" lon="1.69304">
        <ele>6.1</ele>
        <time>2020-06-18T16:27:31Z</time>
      </trkpt>
      <trkpt lat="50.1978" lon="1.69304">
        <ele>6.1</ele>
        <time>2020-06-18T16:27:32Z</time>
      </trkpt>
      <trkpt lat="50.19784" lon="1.69306">
        <ele>5.8</ele>
        <time>2020-06-18T16:27:33Z</time>
      </trkpt>
      <trkpt lat="50.19788" lon="1.69309">
        <ele>5.7</ele>
        <time>2020-06-18T16:27:34Z</time>
      </trkpt>
      <trkpt lat="50.19792" lon="1.69312">
        <ele>5.5</ele>
        <time>2020-06-18T16:27:35Z</time>
      </trkpt>
      <trkpt lat="50.19795" lon="1.69314">
        <ele>5.3</ele>
        <time>2020-06-18T16:27:36Z</time>
      </trkpt>
      <trkpt lat="50.19798" lon="1.69315">
        <ele>5.2</ele>
        <time>2020-06-18T16:27:37Z</time>
      </trkpt>
      <trkpt lat="50.19802" lon="1.69316">
        <ele>5.1</ele>
        <time>2020-06-18T16:27:38Z</time>
      </trkpt>
      <trkpt lat="50.19807" lon="1.69317">
        <ele>5</ele>
        <time>2020-06-18T16:27:39Z</time>
      </trkpt>
      <trkpt lat="50.19813" lon="1.69319">
        <ele>4.8</ele>
        <time>2020-06-18T16:27:40Z</time>
      </trkpt>
      <trkpt lat="50.19817" lon="1.6932">
        <ele>4.8</ele>
        <time>2020-06-18T16:27:41Z</time>
      </trkpt>
      <trkpt lat="50.19821" lon="1.6932">
        <ele>4.7</ele>
        <time>2020-06-18T16:27:42Z</time>
      </trkpt>
      <trkpt lat="50.19826" lon="1.69321">
        <ele>4.6</ele>
        <time>2020-06-18T16:27:43Z</time>
      </trkpt>
      <trkpt lat="50.1983" lon="1.69322">
        <ele>4.6</ele>
        <time>2020-06-18T16:27:44Z</time>
      </trkpt>
      <trkpt lat="50.19835" lon="1.69322">
        <ele>4.5</ele>
        <time>2020-06-18T16:27:45Z</time>
      </trkpt>
      <trkpt lat="50.19838" lon="1.69322">
        <ele>4.4</ele>
        <time>2020-06-18T16:27:46Z</time>
      </trkpt>
      <trkpt lat="50.19842" lon="1.69322">
        <ele>4.4</ele>
        <time>2020-06-18T16:27:47Z</time>
      </trkpt>
      <trkpt lat="50.19846" lon="1.69323">
        <ele>4.3</ele>
        <time>2020-06-18T16:27:48Z</time>
      </trkpt>
      <trkpt lat="50.19849" lon="1.69323">
        <ele>4.3</ele>
        <time>2020-06-18T16:27:49Z</time>
      </trkpt>
      <trkpt lat="50.19853" lon="1.69324">
        <ele>4.2</ele>
        <time>2020-06-18T16:27:50Z</time>
      </trkpt>
      <trkpt lat="50.19858" lon="1.69325">
        <ele>4.2</ele>
        <time>2020-06-18T16:27:51Z</time>
      </trkpt>
      <trkpt lat="50.19863" lon="1.69326">
        <ele>4.1</ele>
        <time>2020-06-18T16:27:52Z</time>
      </trkpt>
      <trkpt lat="50.19867" lon="1.69326">
        <ele>4.1</ele>
        <time>2020-06-18T16:27:53Z</time>
      </trkpt>
      <trkpt lat="50.19874" lon="1.69327">
        <ele>4</ele>
        <time>2020-06-18T16:27:54Z</time>
      </trkpt>
      <trkpt lat="50.1988" lon="1.69327">
        <ele>4</ele>
        <time>2020-06-18T16:27:55Z</time>
      </trkpt>
      <trkpt lat="50.19886" lon="1.69328">
        <ele>4</ele>
        <time>2020-06-18T16:27:56Z</time>
      </trkpt>
      <trkpt lat="50.19892" lon="1.69329">
        <ele>3.9</ele>
        <time>2020-06-18T16:27:57Z</time>
      </trkpt>
      <trkpt lat="50.19897" lon="1.69331">
        <ele>3.9</ele>
        <time>2020-06-18T16:27:58Z</time>
      </trkpt>
      <trkpt lat="50.19904" lon="1.69332">
        <ele>3.9</ele>
        <time>2020-06-18T16:27:59Z</time>
      </trkpt>
      <trkpt lat="50.19911" lon="1.69333">
        <ele>3.8</ele>
        <time>2020-06-18T16:28:00Z</time>
      </trkpt>
      <trkpt lat="50.19916" lon="1.69335">
        <ele>3.8</ele>
        <time>2020-06-18T16:28:01Z</time>
      </trkpt>
      <trkpt lat="50.19923" lon="1.69336">
        <ele>3.8</ele>
        <time>2020-06-18T16:28:02Z</time>
      </trkpt>
      <trkpt lat="50.19931" lon="1.69336">
        <ele>3.8</ele>
        <time>2020-06-18T16:28:03Z</time>
      </trkpt>
      <trkpt lat="50.19936" lon="1.69335">
        <ele>3.8</ele>
        <time>2020-06-18T16:28:04Z</time>
      </trkpt>
      <trkpt lat="50.19941" lon="1.69336">
        <ele>3.8</ele>
        <time>2020-06-18T16:28:05Z</time>
      </trkpt>
      <trkpt lat="50.19947" lon="1.69334">
        <ele>3.8</ele>
        <time>2020-06-18T16:28:06Z</time>
      </trkpt>
      <trkpt lat="50.19953" lon="1.69332">
        <ele>3.8</ele>
        <time>2020-06-18T16:28:07Z</time>
      </trkpt>
      <trkpt lat="50.1996" lon="1.69331">
        <ele>3.8</ele>
        <time>2020-06-18T16:28:08Z</time>
      </trkpt>
      <trkpt lat="50.19966" lon="1.6933">
        <ele>3.8</ele>
        <time>2020-06-18T16:28:09Z</time>
      </trkpt>
      <trkpt lat="50.19972" lon="1.69328">
        <ele>3.8</ele>
        <time>2020-06-18T16:28:10Z</time>
      </trkpt>
      <trkpt lat="50.1998" lon="1.69327">
        <ele>3.8</ele>
        <time>2020-06-18T16:28:11Z</time>
      </trkpt>
      <trkpt lat="50.19987" lon="1.69325">
        <ele>3.8</ele>
        <time>2020-06-18T16:28:12Z</time>
      </trkpt>
      <trkpt lat="50.19993" lon="1.69324">
        <ele>3.8</ele>
        <time>2020-06-18T16:28:13Z</time>
      </trkpt>
      <trkpt lat="50.2" lon="1.69324">
        <ele>3.8</ele>
        <time>2020-06-18T16:28:14Z</time>
      </trkpt>
      <trkpt lat="50.20006" lon="1.69323">
        <ele>3.9</ele>
        <time>2020-06-18T16:28:15Z</time>
      </trkpt>
      <trkpt lat="50.20014" lon="1.69323">
        <ele>3.9</ele>
        <time>2020-06-18T16:28:16Z</time>
      </trkpt>
      <trkpt lat="50.2002" lon="1.69323">
        <ele>3.8</ele>
        <time>2020-06-18T16:28:17Z</time>
      </trkpt>
      <trkpt lat="50.20027" lon="1.69323">
        <ele>3.8</ele>
        <time>2020-06-18T16:28:18Z</time>
      </trkpt>
      <trkpt lat="50.20035" lon="1.69322">
        <ele>3.8</ele>
        <time>2020-06-18T16:28:19Z</time>
      </trkpt>
      <trkpt lat="50.2004" lon="1.69323">
        <ele>3.8</ele>
        <time>2020-06-18T16:28:20Z</time>
      </trkpt>
      <trkpt lat="50.20047" lon="1.69322">
        <ele>3.7</ele>
        <time>2020-06-18T16:28:21Z</time>
      </trkpt>
      <trkpt lat="50.20053" lon="1.69322">
        <ele>3.7</ele>
        <time>2020-06-18T16:28:22Z</time>
      </trkpt>
      <trkpt lat="50.20059" lon="1.69322">
        <ele>3.7</ele>
        <time>2020-06-18T16:28:23Z</time>
      </trkpt>
      <trkpt lat="50.20066" lon="1.69322">
        <ele>3.7</ele>
        <time>2020-06-18T16:28:24Z</time>
      </trkpt>
      <trkpt lat="50.20072" lon="1.69323">
        <ele>3.7</ele>
        <time>2020-06-18T16:28:25Z</time>
      </trkpt>
      <trkpt lat="50.20078" lon="1.69324">
        <ele>3.7</ele>
        <time>2020-06-18T16:28:26Z</time>
      </trkpt>
      <trkpt lat="50.20085" lon="1.69324">
        <ele>3.7</ele>
        <time>2020-06-18T16:28:27Z</time>
      </trkpt>
      <trkpt lat="50.20092" lon="1.69326">
        <ele>3.7</ele>
        <time>2020-06-18T16:28:28Z</time>
      </trkpt>
      <trkpt lat="50.20099" lon="1.69327">
        <ele>3.7</ele>
        <time>2020-06-18T16:28:29Z</time>
      </trkpt>
      <trkpt lat="50.20105" lon="1.69328">
        <ele>3.7</ele>
        <time>2020-06-18T16:28:30Z</time>
      </trkpt>
      <trkpt lat="50.20112" lon="1.6933">
        <ele>3.8</ele>
        <time>2020-06-18T16:28:31Z</time>
      </trkpt>
      <trkpt lat="50.20118" lon="1.69332">
        <ele>3.8</ele>
        <time>2020-06-18T16:28:32Z</time>
      </trkpt>
      <trkpt lat="50.20124" lon="1.69334">
        <ele>3.8</ele>
        <time>2020-06-18T16:28:33Z</time>
      </trkpt>
      <trkpt lat="50.2013" lon="1.69337">
        <ele>3.9</ele>
        <time>2020-06-18T16:28:34Z</time>
      </trkpt>
      <trkpt lat="50.20137" lon="1.6934">
        <ele>3.9</ele>
        <time>2020-06-18T16:28:35Z</time>
      </trkpt>
      <trkpt lat="50.20143" lon="1.69344">
        <ele>3.9</ele>
        <time>2020-06-18T16:28:36Z</time>
      </trkpt>
      <trkpt lat="50.2015" lon="1.69348">
        <ele>3.9</ele>
        <time>2020-06-18T16:28:37Z</time>
      </trkpt>
      <trkpt lat="50.20156" lon="1.69351">
        <ele>3.9</ele>
        <time>2020-06-18T16:28:38Z</time>
      </trkpt>
      <trkpt lat="50.20163" lon="1.69353">
        <ele>3.8</ele>
        <time>2020-06-18T16:28:39Z</time>
      </trkpt>
      <trkpt lat="50.20169" lon="1.69355">
        <ele>3.8</ele>
        <time>2020-06-18T16:28:40Z</time>
      </trkpt>
      <trkpt lat="50.20176" lon="1.69357">
        <ele>3.8</ele>
        <time>2020-06-18T16:28:41Z</time>
      </trkpt>
      <trkpt lat="50.20182" lon="1.69358">
        <ele>3.8</ele>
        <time>2020-06-18T16:28:42Z</time>
      </trkpt>
      <trkpt lat="50.20189" lon="1.69359">
        <ele>3.9</ele>
        <time>2020-06-18T16:28:43Z</time>
      </trkpt>
      <trkpt lat="50.20195" lon="1.6936">
        <ele>3.9</ele>
        <time>2020-06-18T16:28:44Z</time>
      </trkpt>
      <trkpt lat="50.202" lon="1.69361">
        <ele>3.9</ele>
        <time>2020-06-18T16:28:45Z</time>
      </trkpt>
      <trkpt lat="50.20206" lon="1.69362">
        <ele>4</ele>
        <time>2020-06-18T16:28:46Z</time>
      </trkpt>
      <trkpt lat="50.20211" lon="1.69364">
        <ele>4</ele>
        <time>2020-06-18T16:28:47Z</time>
      </trkpt>
      <trkpt lat="50.20216" lon="1.69364">
        <ele>4.1</ele>
        <time>2020-06-18T16:28:48Z</time>
      </trkpt>
      <trkpt lat="50.20223" lon="1.69365">
        <ele>4.1</ele>
        <time>2020-06-18T16:28:49Z</time>
      </trkpt>
      <trkpt lat="50.2023" lon="1.69368">
        <ele>4.2</ele>
        <time>2020-06-18T16:28:50Z</time>
      </trkpt>
      <trkpt lat="50.20236" lon="1.6937">
        <ele>4.2</ele>
        <time>2020-06-18T16:28:51Z</time>
      </trkpt>
      <trkpt lat="50.20241" lon="1.69371">
        <ele>4.3</ele>
        <time>2020-06-18T16:28:52Z</time>
      </trkpt>
      <trkpt lat="50.20249" lon="1.69372">
        <ele>4.4</ele>
        <time>2020-06-18T16:28:53Z</time>
      </trkpt>
      <trkpt lat="50.20255" lon="1.69372">
        <ele>4.5</ele>
        <time>2020-06-18T16:28:54Z</time>
      </trkpt>
      <trkpt lat="50.20262" lon="1.69373">
        <ele>4.8</ele>
        <time>2020-06-18T16:28:55Z</time>
      </trkpt>
      <trkpt lat="50.20268" lon="1.69372">
        <ele>4.7</ele>
        <time>2020-06-18T16:28:56Z</time>
      </trkpt>
      <trkpt lat="50.20275" lon="1.69372">
        <ele>4.6</ele>
        <time>2020-06-18T16:28:57Z</time>
      </trkpt>
      <trkpt lat="50.20281" lon="1.69371">
        <ele>4.5</ele>
        <time>2020-06-18T16:28:58Z</time>
      </trkpt>
      <trkpt lat="50.20288" lon="1.69371">
        <ele>4.5</ele>
        <time>2020-06-18T16:28:59Z</time>
      </trkpt>
      <trkpt lat="50.20293" lon="1.69371">
        <ele>4.5</ele>
        <time>2020-06-18T16:29:00Z</time>
      </trkpt>
      <trkpt lat="50.203" lon="1.6937">
        <ele>4.5</ele>
        <time>2020-06-18T16:29:01Z</time>
      </trkpt>
      <trkpt lat="50.20306" lon="1.69371">
        <ele>4.5</ele>
        <time>2020-06-18T16:29:02Z</time>
      </trkpt>
      <trkpt lat="50.20312" lon="1.69372">
        <ele>4.5</ele>
        <time>2020-06-18T16:29:03Z</time>
      </trkpt>
      <trkpt lat="50.20318" lon="1.69373">
        <ele>4.5</ele>
        <time>2020-06-18T16:29:04Z</time>
      </trkpt>
      <trkpt lat="50.20324" lon="1.69375">
        <ele>4.5</ele>
        <time>2020-06-18T16:29:05Z</time>
      </trkpt>
      <trkpt lat="50.2033" lon="1.69377">
        <ele>4.5</ele>
        <time>2020-06-18T16:29:06Z</time>
      </trkpt>
      <trkpt lat="50.20336" lon="1.69378">
        <ele>4.5</ele>
        <time>2020-06-18T16:29:07Z</time>
      </trkpt>
      <trkpt lat="50.20341" lon="1.69381">
        <ele>4.5</ele>
        <time>2020-06-18T16:29:08Z</time>
      </trkpt>
      <trkpt lat="50.20347" lon="1.69383">
        <ele>4.5</ele>
        <time>2020-06-18T16:29:09Z</time>
      </trkpt>
      <trkpt lat="50.20353" lon="1.69387">
        <ele>4.6</ele>
        <time>2020-06-18T16:29:10Z</time>
      </trkpt>
      <trkpt lat="50.20358" lon="1.69391">
        <ele>4.6</ele>
        <time>2020-06-18T16:29:11Z</time>
      </trkpt>
      <trkpt lat="50.20363" lon="1.69394">
        <ele>4.7</ele>
        <time>2020-06-18T16:29:12Z</time>
      </trkpt>
      <trkpt lat="50.20369" lon="1.69396">
        <ele>4.7</ele>
        <time>2020-06-18T16:29:13Z</time>
      </trkpt>
      <trkpt lat="50.20375" lon="1.69399">
        <ele>4.7</ele>
        <time>2020-06-18T16:29:14Z</time>
      </trkpt>
      <trkpt lat="50.20381" lon="1.69401">
        <ele>4.6</ele>
        <time>2020-06-18T16:29:15Z</time>
      </trkpt>
      <trkpt lat="50.20386" lon="1.69403">
        <ele>4.6</ele>
        <time>2020-06-18T16:29:16Z</time>
      </trkpt>
      <trkpt lat="50.20392" lon="1.69403">
        <ele>4.6</ele>
        <time>2020-06-18T16:29:17Z</time>
      </trkpt>
      <trkpt lat="50.20398" lon="1.69404">
        <ele>4.6</ele>
        <time>2020-06-18T16:29:18Z</time>
      </trkpt>
      <trkpt lat="50.20405" lon="1.69402">
        <ele>4.6</ele>
        <time>2020-06-18T16:29:19Z</time>
      </trkpt>
      <trkpt lat="50.20413" lon="1.694">
        <ele>4.5</ele>
        <time>2020-06-18T16:29:20Z</time>
      </trkpt>
      <trkpt lat="50.20418" lon="1.69397">
        <ele>4.5</ele>
        <time>2020-06-18T16:29:21Z</time>
      </trkpt>
      <trkpt lat="50.20425" lon="1.69395">
        <ele>4.5</ele>
        <time>2020-06-18T16:29:22Z</time>
      </trkpt>
      <trkpt lat="50.20431" lon="1.69393">
        <ele>4.5</ele>
        <time>2020-06-18T16:29:23Z</time>
      </trkpt>
      <trkpt lat="50.20438" lon="1.69391">
        <ele>4.4</ele>
        <time>2020-06-18T16:29:24Z</time>
      </trkpt>
      <trkpt lat="50.20443" lon="1.69388">
        <ele>4.4</ele>
        <time>2020-06-18T16:29:25Z</time>
      </trkpt>
      <trkpt lat="50.20449" lon="1.69386">
        <ele>4.4</ele>
        <time>2020-06-18T16:29:26Z</time>
      </trkpt>
      <trkpt lat="50.20455" lon="1.69384">
        <ele>4.4</ele>
        <time>2020-06-18T16:29:27Z</time>
      </trkpt>
      <trkpt lat="50.20462" lon="1.6938">
        <ele>4.3</ele>
        <time>2020-06-18T16:29:28Z</time>
      </trkpt>
      <trkpt lat="50.20469" lon="1.69375">
        <ele>4.3</ele>
        <time>2020-06-18T16:29:29Z</time>
      </trkpt>
      <trkpt lat="50.20475" lon="1.69369">
        <ele>4.3</ele>
        <time>2020-06-18T16:29:30Z</time>
      </trkpt>
      <trkpt lat="50.20481" lon="1.69365">
        <ele>4.2</ele>
        <time>2020-06-18T16:29:31Z</time>
      </trkpt>
      <trkpt lat="50.20486" lon="1.69361">
        <ele>4.2</ele>
        <time>2020-06-18T16:29:32Z</time>
      </trkpt>
      <trkpt lat="50.20492" lon="1.69356">
        <ele>4.2</ele>
        <time>2020-06-18T16:29:33Z</time>
      </trkpt>
      <trkpt lat="50.20497" lon="1.69351">
        <ele>4.2</ele>
        <time>2020-06-18T16:29:34Z</time>
      </trkpt>
      <trkpt lat="50.20502" lon="1.69345">
        <ele>4.2</ele>
        <time>2020-06-18T16:29:35Z</time>
      </trkpt>
      <trkpt lat="50.20507" lon="1.69339">
        <ele>4.2</ele>
        <time>2020-06-18T16:29:36Z</time>
      </trkpt>
      <trkpt lat="50.20512" lon="1.69333">
        <ele>4.2</ele>
        <time>2020-06-18T16:29:37Z</time>
      </trkpt>
      <trkpt lat="50.20517" lon="1.69326">
        <ele>4.2</ele>
        <time>2020-06-18T16:29:38Z</time>
      </trkpt>
      <trkpt lat="50.20523" lon="1.6932">
        <ele>4.2</ele>
        <time>2020-06-18T16:29:39Z</time>
      </trkpt>
      <trkpt lat="50.20527" lon="1.69315">
        <ele>4.2</ele>
        <time>2020-06-18T16:29:40Z</time>
      </trkpt>
      <trkpt lat="50.20533" lon="1.69309">
        <ele>4.2</ele>
        <time>2020-06-18T16:29:41Z</time>
      </trkpt>
      <trkpt lat="50.20538" lon="1.69303">
        <ele>4.2</ele>
        <time>2020-06-18T16:29:42Z</time>
      </trkpt>
      <trkpt lat="50.20542" lon="1.69298">
        <ele>4.2</ele>
        <time>2020-06-18T16:29:43Z</time>
      </trkpt>
      <trkpt lat="50.20548" lon="1.69292">
        <ele>4.2</ele>
        <time>2020-06-18T16:29:44Z</time>
      </trkpt>
      <trkpt lat="50.20554" lon="1.69286">
        <ele>4.2</ele>
        <time>2020-06-18T16:29:45Z</time>
      </trkpt>
      <trkpt lat="50.20559" lon="1.69281">
        <ele>4.1</ele>
        <time>2020-06-18T16:29:46Z</time>
      </trkpt>
      <trkpt lat="50.20565" lon="1.69278">
        <ele>4.1</ele>
        <time>2020-06-18T16:29:47Z</time>
      </trkpt>
      <trkpt lat="50.20571" lon="1.69274">
        <ele>4.2</ele>
        <time>2020-06-18T16:29:48Z</time>
      </trkpt>
      <trkpt lat="50.20576" lon="1.6927">
        <ele>4.2</ele>
        <time>2020-06-18T16:29:49Z</time>
      </trkpt>
      <trkpt lat="50.20582" lon="1.69265">
        <ele>4.2</ele>
        <time>2020-06-18T16:29:50Z</time>
      </trkpt>
      <trkpt lat="50.20588" lon="1.6926">
        <ele>4.3</ele>
        <time>2020-06-18T16:29:51Z</time>
      </trkpt>
      <trkpt lat="50.20595" lon="1.69255">
        <ele>4.5</ele>
        <time>2020-06-18T16:29:52Z</time>
      </trkpt>
      <trkpt lat="50.206" lon="1.69252">
        <ele>4.6</ele>
        <time>2020-06-18T16:29:53Z</time>
      </trkpt>
      <trkpt lat="50.20606" lon="1.69249">
        <ele>4.6</ele>
        <time>2020-06-18T16:29:54Z</time>
      </trkpt>
      <trkpt lat="50.20612" lon="1.69245">
        <ele>4.5</ele>
        <time>2020-06-18T16:29:55Z</time>
      </trkpt>
      <trkpt lat="50.20618" lon="1.69241">
        <ele>4.5</ele>
        <time>2020-06-18T16:29:56Z</time>
      </trkpt>
      <trkpt lat="50.20624" lon="1.69237">
        <ele>4.4</ele>
        <time>2020-06-18T16:29:57Z</time>
      </trkpt>
      <trkpt lat="50.20629" lon="1.69233">
        <ele>4.5</ele>
        <time>2020-06-18T16:29:58Z</time>
      </trkpt>
      <trkpt lat="50.20636" lon="1.69229">
        <ele>4.5</ele>
        <time>2020-06-18T16:29:59Z</time>
      </trkpt>
      <trkpt lat="50.20643" lon="1.69226">
        <ele>4.5</ele>
        <time>2020-06-18T16:30:00Z</time>
      </trkpt>
      <trkpt lat="50.20649" lon="1.69222">
        <ele>4.5</ele>
        <time>2020-06-18T16:30:01Z</time>
      </trkpt>
      <trkpt lat="50.20655" lon="1.69221">
        <ele>4.6</ele>
        <time>2020-06-18T16:30:02Z</time>
      </trkpt>
      <trkpt lat="50.20661" lon="1.69221">
        <ele>4.6</ele>
        <time>2020-06-18T16:30:03Z</time>
      </trkpt>
      <trkpt lat="50.20666" lon="1.69221">
        <ele>4.6</ele>
        <time>2020-06-18T16:30:04Z</time>
      </trkpt>
      <trkpt lat="50.20672" lon="1.6922">
        <ele>4.6</ele>
        <time>2020-06-18T16:30:05Z</time>
      </trkpt>
      <trkpt lat="50.20678" lon="1.69219">
        <ele>4.6</ele>
        <time>2020-06-18T16:30:06Z</time>
      </trkpt>
      <trkpt lat="50.20684" lon="1.69218">
        <ele>4.5</ele>
        <time>2020-06-18T16:30:07Z</time>
      </trkpt>
      <trkpt lat="50.2069" lon="1.69217">
        <ele>4.4</ele>
        <time>2020-06-18T16:30:08Z</time>
      </trkpt>
      <trkpt lat="50.20696" lon="1.69215">
        <ele>4.4</ele>
        <time>2020-06-18T16:30:09Z</time>
      </trkpt>
      <trkpt lat="50.20702" lon="1.69213">
        <ele>4.3</ele>
        <time>2020-06-18T16:30:10Z</time>
      </trkpt>
      <trkpt lat="50.20709" lon="1.69211">
        <ele>4.3</ele>
        <time>2020-06-18T16:30:11Z</time>
      </trkpt>
      <trkpt lat="50.20716" lon="1.69208">
        <ele>4.2</ele>
        <time>2020-06-18T16:30:12Z</time>
      </trkpt>
      <trkpt lat="50.20724" lon="1.69204">
        <ele>4.1</ele>
        <time>2020-06-18T16:30:13Z</time>
      </trkpt>
      <trkpt lat="50.2073" lon="1.69201">
        <ele>4.1</ele>
        <time>2020-06-18T16:30:14Z</time>
      </trkpt>
      <trkpt lat="50.20736" lon="1.69197">
        <ele>4.1</ele>
        <time>2020-06-18T16:30:15Z</time>
      </trkpt>
      <trkpt lat="50.20743" lon="1.69192">
        <ele>4.1</ele>
        <time>2020-06-18T16:30:16Z</time>
      </trkpt>
      <trkpt lat="50.20748" lon="1.69189">
        <ele>4.1</ele>
        <time>2020-06-18T16:30:17Z</time>
      </trkpt>
      <trkpt lat="50.20755" lon="1.69185">
        <ele>4.1</ele>
        <time>2020-06-18T16:30:18Z</time>
      </trkpt>
      <trkpt lat="50.20761" lon="1.69181">
        <ele>4.1</ele>
        <time>2020-06-18T16:30:19Z</time>
      </trkpt>
      <trkpt lat="50.20768" lon="1.69179">
        <ele>4.1</ele>
        <time>2020-06-18T16:30:20Z</time>
      </trkpt>
      <trkpt lat="50.20774" lon="1.69176">
        <ele>4.1</ele>
        <time>2020-06-18T16:30:21Z</time>
      </trkpt>
      <trkpt lat="50.20779" lon="1.69173">
        <ele>4.2</ele>
        <time>2020-06-18T16:30:22Z</time>
      </trkpt>
      <trkpt lat="50.20785" lon="1.69171">
        <ele>4.2</ele>
        <time>2020-06-18T16:30:23Z</time>
      </trkpt>
      <trkpt lat="50.20791" lon="1.69169">
        <ele>4.2</ele>
        <time>2020-06-18T16:30:24Z</time>
      </trkpt>
      <trkpt lat="50.20797" lon="1.69167">
        <ele>4.2</ele>
        <time>2020-06-18T16:30:25Z</time>
      </trkpt>
      <trkpt lat="50.20803" lon="1.69166">
        <ele>4.3</ele>
        <time>2020-06-18T16:30:26Z</time>
      </trkpt>
      <trkpt lat="50.20809" lon="1.69165">
        <ele>4.3</ele>
        <time>2020-06-18T16:30:27Z</time>
      </trkpt>
      <trkpt lat="50.20815" lon="1.69163">
        <ele>4.3</ele>
        <time>2020-06-18T16:30:28Z</time>
      </trkpt>
      <trkpt lat="50.20822" lon="1.69162">
        <ele>4.3</ele>
        <time>2020-06-18T16:30:29Z</time>
      </trkpt>
      <trkpt lat="50.20827" lon="1.69161">
        <ele>4.3</ele>
        <time>2020-06-18T16:30:30Z</time>
      </trkpt>
      <trkpt lat="50.20834" lon="1.69161">
        <ele>4.3</ele>
        <time>2020-06-18T16:30:31Z</time>
      </trkpt>
      <trkpt lat="50.2084" lon="1.6916">
        <ele>4.4</ele>
        <time>2020-06-18T16:30:32Z</time>
      </trkpt>
      <trkpt lat="50.20846" lon="1.6916">
        <ele>4.4</ele>
        <time>2020-06-18T16:30:33Z</time>
      </trkpt>
      <trkpt lat="50.20852" lon="1.69159">
        <ele>4.4</ele>
        <time>2020-06-18T16:30:34Z</time>
      </trkpt>
      <trkpt lat="50.20859" lon="1.69158">
        <ele>4.4</ele>
        <time>2020-06-18T16:30:35Z</time>
      </trkpt>
      <trkpt lat="50.20864" lon="1.69157">
        <ele>4.4</ele>
        <time>2020-06-18T16:30:36Z</time>
      </trkpt>
      <trkpt lat="50.2087" lon="1.69156">
        <ele>4.4</ele>
        <time>2020-06-18T16:30:37Z</time>
      </trkpt>
      <trkpt lat="50.20877" lon="1.69155">
        <ele>4.4</ele>
        <time>2020-06-18T16:30:38Z</time>
      </trkpt>
      <trkpt lat="50.20883" lon="1.69153">
        <ele>4.5</ele>
        <time>2020-06-18T16:30:39Z</time>
      </trkpt>
      <trkpt lat="50.20889" lon="1.69151">
        <ele>4.6</ele>
        <time>2020-06-18T16:30:40Z</time>
      </trkpt>
      <trkpt lat="50.20895" lon="1.69149">
        <ele>4.6</ele>
        <time>2020-06-18T16:30:41Z</time>
      </trkpt>
      <trkpt lat="50.20901" lon="1.69146">
        <ele>4.6</ele>
        <time>2020-06-18T16:30:42Z</time>
      </trkpt>
      <trkpt lat="50.20907" lon="1.69143">
        <ele>4.6</ele>
        <time>2020-06-18T16:30:43Z</time>
      </trkpt>
      <trkpt lat="50.20914" lon="1.69139">
        <ele>4.7</ele>
        <time>2020-06-18T16:30:44Z</time>
      </trkpt>
      <trkpt lat="50.2092" lon="1.69135">
        <ele>4.7</ele>
        <time>2020-06-18T16:30:45Z</time>
      </trkpt>
      <trkpt lat="50.20925" lon="1.69133">
        <ele>4.7</ele>
        <time>2020-06-18T16:30:46Z</time>
      </trkpt>
      <trkpt lat="50.20932" lon="1.69129">
        <ele>4.6</ele>
        <time>2020-06-18T16:30:47Z</time>
      </trkpt>
      <trkpt lat="50.20938" lon="1.69125">
        <ele>4.4</ele>
        <time>2020-06-18T16:30:48Z</time>
      </trkpt>
      <trkpt lat="50.20943" lon="1.69122">
        <ele>4.3</ele>
        <time>2020-06-18T16:30:49Z</time>
      </trkpt>
      <trkpt lat="50.20949" lon="1.69119">
        <ele>4.3</ele>
        <time>2020-06-18T16:30:50Z</time>
      </trkpt>
      <trkpt lat="50.20954" lon="1.69115">
        <ele>4.2</ele>
        <time>2020-06-18T16:30:51Z</time>
      </trkpt>
      <trkpt lat="50.2096" lon="1.69112">
        <ele>4.1</ele>
        <time>2020-06-18T16:30:52Z</time>
      </trkpt>
      <trkpt lat="50.20966" lon="1.69108">
        <ele>4.1</ele>
        <time>2020-06-18T16:30:53Z</time>
      </trkpt>
      <trkpt lat="50.20973" lon="1.69105">
        <ele>4.1</ele>
        <time>2020-06-18T16:30:54Z</time>
      </trkpt>
      <trkpt lat="50.2098" lon="1.69103">
        <ele>4.1</ele>
        <time>2020-06-18T16:30:55Z</time>
      </trkpt>
      <trkpt lat="50.20985" lon="1.69101">
        <ele>4.1</ele>
        <time>2020-06-18T16:30:56Z</time>
      </trkpt>
      <trkpt lat="50.20992" lon="1.69098">
        <ele>4</ele>
        <time>2020-06-18T16:30:57Z</time>
      </trkpt>
      <trkpt lat="50.20999" lon="1.69096">
        <ele>4</ele>
        <time>2020-06-18T16:30:58Z</time>
      </trkpt>
      <trkpt lat="50.21006" lon="1.69093">
        <ele>4.1</ele>
        <time>2020-06-18T16:30:59Z</time>
      </trkpt>
      <trkpt lat="50.21012" lon="1.6909">
        <ele>4.1</ele>
        <time>2020-06-18T16:31:00Z</time>
      </trkpt>
      <trkpt lat="50.21018" lon="1.69086">
        <ele>4.2</ele>
        <time>2020-06-18T16:31:01Z</time>
      </trkpt>
      <trkpt lat="50.21024" lon="1.69082">
        <ele>4.2</ele>
        <time>2020-06-18T16:31:02Z</time>
      </trkpt>
      <trkpt lat="50.2103" lon="1.69077">
        <ele>4.3</ele>
        <time>2020-06-18T16:31:03Z</time>
      </trkpt>
      <trkpt lat="50.21036" lon="1.69069">
        <ele>4.2</ele>
        <time>2020-06-18T16:31:04Z</time>
      </trkpt>
      <trkpt lat="50.2104" lon="1.69062">
        <ele>4.1</ele>
        <time>2020-06-18T16:31:05Z</time>
      </trkpt>
      <trkpt lat="50.21044" lon="1.69055">
        <ele>4.1</ele>
        <time>2020-06-18T16:31:06Z</time>
      </trkpt>
      <trkpt lat="50.21046" lon="1.69047">
        <ele>4.1</ele>
        <time>2020-06-18T16:31:07Z</time>
      </trkpt>
      <trkpt lat="50.21049" lon="1.69038">
        <ele>4.1</ele>
        <time>2020-06-18T16:31:08Z</time>
      </trkpt>
      <trkpt lat="50.21051" lon="1.69028">
        <ele>4.1</ele>
        <time>2020-06-18T16:31:09Z</time>
      </trkpt>
      <trkpt lat="50.21053" lon="1.6902">
        <ele>4.1</ele>
        <time>2020-06-18T16:31:10Z</time>
      </trkpt>
      <trkpt lat="50.21055" lon="1.69011">
        <ele>4.1</ele>
        <time>2020-06-18T16:31:11Z</time>
      </trkpt>
      <trkpt lat="50.21056" lon="1.69002">
        <ele>4.1</ele>
        <time>2020-06-18T16:31:12Z</time>
      </trkpt>
      <trkpt lat="50.21058" lon="1.68993">
        <ele>4.1</ele>
        <time>2020-06-18T16:31:13Z</time>
      </trkpt>
      <trkpt lat="50.2106" lon="1.68981">
        <ele>4</ele>
        <time>2020-06-18T16:31:14Z</time>
      </trkpt>
      <trkpt lat="50.21061" lon="1.68972">
        <ele>4</ele>
        <time>2020-06-18T16:31:15Z</time>
      </trkpt>
      <trkpt lat="50.21061" lon="1.68961">
        <ele>3.9</ele>
        <time>2020-06-18T16:31:16Z</time>
      </trkpt>
      <trkpt lat="50.21061" lon="1.6895">
        <ele>3.9</ele>
        <time>2020-06-18T16:31:17Z</time>
      </trkpt>
      <trkpt lat="50.21061" lon="1.68939">
        <ele>3.9</ele>
        <time>2020-06-18T16:31:18Z</time>
      </trkpt>
      <trkpt lat="50.21062" lon="1.68929">
        <ele>3.9</ele>
        <time>2020-06-18T16:31:19Z</time>
      </trkpt>
      <trkpt lat="50.21065" lon="1.68921">
        <ele>3.9</ele>
        <time>2020-06-18T16:31:20Z</time>
      </trkpt>
      <trkpt lat="50.21068" lon="1.68913">
        <ele>3.8</ele>
        <time>2020-06-18T16:31:21Z</time>
      </trkpt>
      <trkpt lat="50.21073" lon="1.68906">
        <ele>3.8</ele>
        <time>2020-06-18T16:31:22Z</time>
      </trkpt>
      <trkpt lat="50.21077" lon="1.68901">
        <ele>3.8</ele>
        <time>2020-06-18T16:31:23Z</time>
      </trkpt>
      <trkpt lat="50.21083" lon="1.68898">
        <ele>3.8</ele>
        <time>2020-06-18T16:31:24Z</time>
      </trkpt>
      <trkpt lat="50.2109" lon="1.68895">
        <ele>3.8</ele>
        <time>2020-06-18T16:31:25Z</time>
      </trkpt>
      <trkpt lat="50.21096" lon="1.68891">
        <ele>3.9</ele>
        <time>2020-06-18T16:31:26Z</time>
      </trkpt>
      <trkpt lat="50.21102" lon="1.68888">
        <ele>3.9</ele>
        <time>2020-06-18T16:31:27Z</time>
      </trkpt>
      <trkpt lat="50.21107" lon="1.68885">
        <ele>3.9</ele>
        <time>2020-06-18T16:31:28Z</time>
      </trkpt>
      <trkpt lat="50.21113" lon="1.6888">
        <ele>4</ele>
        <time>2020-06-18T16:31:29Z</time>
      </trkpt>
      <trkpt lat="50.21117" lon="1.68874">
        <ele>4</ele>
        <time>2020-06-18T16:31:30Z</time>
      </trkpt>
      <trkpt lat="50.21123" lon="1.68866">
        <ele>4</ele>
        <time>2020-06-18T16:31:31Z</time>
      </trkpt>
      <trkpt lat="50.21127" lon="1.68858">
        <ele>3.9</ele>
        <time>2020-06-18T16:31:32Z</time>
      </trkpt>
      <trkpt lat="50.2113" lon="1.68848">
        <ele>3.9</ele>
        <time>2020-06-18T16:31:33Z</time>
      </trkpt>
      <trkpt lat="50.21131" lon="1.68838">
        <ele>3.9</ele>
        <time>2020-06-18T16:31:34Z</time>
      </trkpt>
      <trkpt lat="50.21132" lon="1.68829">
        <ele>3.9</ele>
        <time>2020-06-18T16:31:35Z</time>
      </trkpt>
      <trkpt lat="50.21133" lon="1.6882">
        <ele>3.9</ele>
        <time>2020-06-18T16:31:36Z</time>
      </trkpt>
      <trkpt lat="50.21134" lon="1.68812">
        <ele>3.9</ele>
        <time>2020-06-18T16:31:37Z</time>
      </trkpt>
      <trkpt lat="50.21135" lon="1.68803">
        <ele>3.9</ele>
        <time>2020-06-18T16:31:38Z</time>
      </trkpt>
      <trkpt lat="50.21136" lon="1.68794">
        <ele>3.9</ele>
        <time>2020-06-18T16:31:39Z</time>
      </trkpt>
      <trkpt lat="50.21137" lon="1.68787">
        <ele>3.9</ele>
        <time>2020-06-18T16:31:40Z</time>
      </trkpt>
      <trkpt lat="50.21138" lon="1.68779">
        <ele>3.9</ele>
        <time>2020-06-18T16:31:41Z</time>
      </trkpt>
      <trkpt lat="50.2114" lon="1.68772">
        <ele>4</ele>
        <time>2020-06-18T16:31:42Z</time>
      </trkpt>
      <trkpt lat="50.21142" lon="1.68765">
        <ele>4</ele>
        <time>2020-06-18T16:31:43Z</time>
      </trkpt>
      <trkpt lat="50.21145" lon="1.68758">
        <ele>4</ele>
        <time>2020-06-18T16:31:44Z</time>
      </trkpt>
      <trkpt lat="50.21148" lon="1.68751">
        <ele>4.1</ele>
        <time>2020-06-18T16:31:45Z</time>
      </trkpt>
      <trkpt lat="50.2115" lon="1.68745">
        <ele>4.1</ele>
        <time>2020-06-18T16:31:46Z</time>
      </trkpt>
      <trkpt lat="50.21154" lon="1.6874">
        <ele>4.1</ele>
        <time>2020-06-18T16:31:47Z</time>
      </trkpt>
      <trkpt lat="50.21159" lon="1.68736">
        <ele>4.2</ele>
        <time>2020-06-18T16:31:48Z</time>
      </trkpt>
      <trkpt lat="50.21164" lon="1.68733">
        <ele>4.3</ele>
        <time>2020-06-18T16:31:49Z</time>
      </trkpt>
      <trkpt lat="50.21171" lon="1.68731">
        <ele>4.3</ele>
        <time>2020-06-18T16:31:50Z</time>
      </trkpt>
      <trkpt lat="50.21177" lon="1.68728">
        <ele>4.3</ele>
        <time>2020-06-18T16:31:51Z</time>
      </trkpt>
      <trkpt lat="50.21182" lon="1.68727">
        <ele>4.3</ele>
        <time>2020-06-18T16:31:52Z</time>
      </trkpt>
      <trkpt lat="50.2119" lon="1.68726">
        <ele>4.2</ele>
        <time>2020-06-18T16:31:53Z</time>
      </trkpt>
      <trkpt lat="50.21196" lon="1.68726">
        <ele>4.2</ele>
        <time>2020-06-18T16:31:54Z</time>
      </trkpt>
      <trkpt lat="50.21202" lon="1.68725">
        <ele>4.2</ele>
        <time>2020-06-18T16:31:55Z</time>
      </trkpt>
      <trkpt lat="50.21208" lon="1.68725">
        <ele>4.1</ele>
        <time>2020-06-18T16:31:56Z</time>
      </trkpt>
      <trkpt lat="50.21214" lon="1.68724">
        <ele>4.1</ele>
        <time>2020-06-18T16:31:57Z</time>
      </trkpt>
      <trkpt lat="50.2122" lon="1.68723">
        <ele>4.1</ele>
        <time>2020-06-18T16:31:58Z</time>
      </trkpt>
      <trkpt lat="50.21226" lon="1.68723">
        <ele>4</ele>
        <time>2020-06-18T16:31:59Z</time>
      </trkpt>
      <trkpt lat="50.21232" lon="1.68722">
        <ele>4</ele>
        <time>2020-06-18T16:32:00Z</time>
      </trkpt>
      <trkpt lat="50.21238" lon="1.68721">
        <ele>3.9</ele>
        <time>2020-06-18T16:32:01Z</time>
      </trkpt>
      <trkpt lat="50.21243" lon="1.68721">
        <ele>3.9</ele>
        <time>2020-06-18T16:32:02Z</time>
      </trkpt>
      <trkpt lat="50.21249" lon="1.6872">
        <ele>3.9</ele>
        <time>2020-06-18T16:32:03Z</time>
      </trkpt>
      <trkpt lat="50.21255" lon="1.6872">
        <ele>3.9</ele>
        <time>2020-06-18T16:32:04Z</time>
      </trkpt>
      <trkpt lat="50.21262" lon="1.6872">
        <ele>3.9</ele>
        <time>2020-06-18T16:32:05Z</time>
      </trkpt>
      <trkpt lat="50.21268" lon="1.68719">
        <ele>3.9</ele>
        <time>2020-06-18T16:32:06Z</time>
      </trkpt>
      <trkpt lat="50.21275" lon="1.68719">
        <ele>3.9</ele>
        <time>2020-06-18T16:32:07Z</time>
      </trkpt>
      <trkpt lat="50.2128" lon="1.68718">
        <ele>3.9</ele>
        <time>2020-06-18T16:32:08Z</time>
      </trkpt>
      <trkpt lat="50.21286" lon="1.68717">
        <ele>3.9</ele>
        <time>2020-06-18T16:32:09Z</time>
      </trkpt>
      <trkpt lat="50.21292" lon="1.68716">
        <ele>3.9</ele>
        <time>2020-06-18T16:32:10Z</time>
      </trkpt>
      <trkpt lat="50.21299" lon="1.68714">
        <ele>3.9</ele>
        <time>2020-06-18T16:32:11Z</time>
      </trkpt>
      <trkpt lat="50.21305" lon="1.68713">
        <ele>4</ele>
        <time>2020-06-18T16:32:12Z</time>
      </trkpt>
      <trkpt lat="50.21311" lon="1.68712">
        <ele>4</ele>
        <time>2020-06-18T16:32:13Z</time>
      </trkpt>
      <trkpt lat="50.21317" lon="1.68711">
        <ele>4.1</ele>
        <time>2020-06-18T16:32:14Z</time>
      </trkpt>
      <trkpt lat="50.21323" lon="1.68709">
        <ele>4.1</ele>
        <time>2020-06-18T16:32:15Z</time>
      </trkpt>
      <trkpt lat="50.21329" lon="1.68707">
        <ele>4.2</ele>
        <time>2020-06-18T16:32:16Z</time>
      </trkpt>
      <trkpt lat="50.21334" lon="1.68704">
        <ele>4.2</ele>
        <time>2020-06-18T16:32:17Z</time>
      </trkpt>
      <trkpt lat="50.21341" lon="1.687">
        <ele>4.2</ele>
        <time>2020-06-18T16:32:18Z</time>
      </trkpt>
      <trkpt lat="50.21348" lon="1.68696">
        <ele>4.2</ele>
        <time>2020-06-18T16:32:19Z</time>
      </trkpt>
      <trkpt lat="50.21354" lon="1.68691">
        <ele>4.2</ele>
        <time>2020-06-18T16:32:20Z</time>
      </trkpt>
      <trkpt lat="50.2136" lon="1.68687">
        <ele>4.2</ele>
        <time>2020-06-18T16:32:21Z</time>
      </trkpt>
      <trkpt lat="50.21366" lon="1.68683">
        <ele>4.2</ele>
        <time>2020-06-18T16:32:22Z</time>
      </trkpt>
      <trkpt lat="50.21372" lon="1.68678">
        <ele>4.2</ele>
        <time>2020-06-18T16:32:23Z</time>
      </trkpt>
      <trkpt lat="50.21377" lon="1.68673">
        <ele>4.1</ele>
        <time>2020-06-18T16:32:24Z</time>
      </trkpt>
      <trkpt lat="50.21383" lon="1.68668">
        <ele>4.1</ele>
        <time>2020-06-18T16:32:25Z</time>
      </trkpt>
      <trkpt lat="50.21389" lon="1.68662">
        <ele>4.1</ele>
        <time>2020-06-18T16:32:26Z</time>
      </trkpt>
      <trkpt lat="50.21394" lon="1.68657">
        <ele>4</ele>
        <time>2020-06-18T16:32:27Z</time>
      </trkpt>
      <trkpt lat="50.21399" lon="1.68653">
        <ele>4</ele>
        <time>2020-06-18T16:32:28Z</time>
      </trkpt>
      <trkpt lat="50.21404" lon="1.68649">
        <ele>4</ele>
        <time>2020-06-18T16:32:29Z</time>
      </trkpt>
      <trkpt lat="50.21409" lon="1.68645">
        <ele>4</ele>
        <time>2020-06-18T16:32:30Z</time>
      </trkpt>
      <trkpt lat="50.21415" lon="1.6864">
        <ele>4</ele>
        <time>2020-06-18T16:32:31Z</time>
      </trkpt>
      <trkpt lat="50.2142" lon="1.68636">
        <ele>4</ele>
        <time>2020-06-18T16:32:32Z</time>
      </trkpt>
      <trkpt lat="50.21425" lon="1.68632">
        <ele>4</ele>
        <time>2020-06-18T16:32:33Z</time>
      </trkpt>
      <trkpt lat="50.21431" lon="1.68626">
        <ele>3.9</ele>
        <time>2020-06-18T16:32:34Z</time>
      </trkpt>
      <trkpt lat="50.21437" lon="1.68621">
        <ele>3.9</ele>
        <time>2020-06-18T16:32:35Z</time>
      </trkpt>
      <trkpt lat="50.21442" lon="1.68617">
        <ele>3.9</ele>
        <time>2020-06-18T16:32:36Z</time>
      </trkpt>
      <trkpt lat="50.21447" lon="1.68613">
        <ele>3.9</ele>
        <time>2020-06-18T16:32:37Z</time>
      </trkpt>
      <trkpt lat="50.21452" lon="1.68608">
        <ele>3.9</ele>
        <time>2020-06-18T16:32:38Z</time>
      </trkpt>
      <trkpt lat="50.21458" lon="1.68604">
        <ele>3.9</ele>
        <time>2020-06-18T16:32:39Z</time>
      </trkpt>
      <trkpt lat="50.21463" lon="1.686">
        <ele>3.9</ele>
        <time>2020-06-18T16:32:40Z</time>
      </trkpt>
      <trkpt lat="50.21469" lon="1.68596">
        <ele>3.9</ele>
        <time>2020-06-18T16:32:41Z</time>
      </trkpt>
      <trkpt lat="50.21474" lon="1.68592">
        <ele>3.9</ele>
        <time>2020-06-18T16:32:42Z</time>
      </trkpt>
      <trkpt lat="50.2148" lon="1.68588">
        <ele>3.9</ele>
        <time>2020-06-18T16:32:43Z</time>
      </trkpt>
      <trkpt lat="50.21485" lon="1.68585">
        <ele>3.9</ele>
        <time>2020-06-18T16:32:44Z</time>
      </trkpt>
      <trkpt lat="50.21491" lon="1.6858">
        <ele>3.9</ele>
        <time>2020-06-18T16:32:45Z</time>
      </trkpt>
      <trkpt lat="50.21497" lon="1.68576">
        <ele>3.9</ele>
        <time>2020-06-18T16:32:46Z</time>
      </trkpt>
      <trkpt lat="50.21503" lon="1.68572">
        <ele>3.9</ele>
        <time>2020-06-18T16:32:47Z</time>
      </trkpt>
      <trkpt lat="50.21509" lon="1.68568">
        <ele>3.9</ele>
        <time>2020-06-18T16:32:48Z</time>
      </trkpt>
      <trkpt lat="50.21515" lon="1.68563">
        <ele>3.9</ele>
        <time>2020-06-18T16:32:49Z</time>
      </trkpt>
      <trkpt lat="50.2152" lon="1.68561">
        <ele>3.9</ele>
        <time>2020-06-18T16:32:50Z</time>
      </trkpt>
      <trkpt lat="50.21526" lon="1.68556">
        <ele>3.9</ele>
        <time>2020-06-18T16:32:51Z</time>
      </trkpt>
      <trkpt lat="50.2153" lon="1.68553">
        <ele>4</ele>
        <time>2020-06-18T16:32:52Z</time>
      </trkpt>
      <trkpt lat="50.21536" lon="1.68549">
        <ele>4</ele>
        <time>2020-06-18T16:32:53Z</time>
      </trkpt>
      <trkpt lat="50.21541" lon="1.68545">
        <ele>4.1</ele>
        <time>2020-06-18T16:32:54Z</time>
      </trkpt>
      <trkpt lat="50.21546" lon="1.6854">
        <ele>4.2</ele>
        <time>2020-06-18T16:32:55Z</time>
      </trkpt>
      <trkpt lat="50.21552" lon="1.68536">
        <ele>4.1</ele>
        <time>2020-06-18T16:32:56Z</time>
      </trkpt>
      <trkpt lat="50.21557" lon="1.68532">
        <ele>4</ele>
        <time>2020-06-18T16:32:57Z</time>
      </trkpt>
      <trkpt lat="50.21562" lon="1.68529">
        <ele>4</ele>
        <time>2020-06-18T16:32:58Z</time>
      </trkpt>
      <trkpt lat="50.21567" lon="1.68526">
        <ele>4</ele>
        <time>2020-06-18T16:32:59Z</time>
      </trkpt>
      <trkpt lat="50.21573" lon="1.68523">
        <ele>4</ele>
        <time>2020-06-18T16:33:00Z</time>
      </trkpt>
      <trkpt lat="50.21579" lon="1.68521">
        <ele>4</ele>
        <time>2020-06-18T16:33:01Z</time>
      </trkpt>
      <trkpt lat="50.21585" lon="1.68518">
        <ele>4</ele>
        <time>2020-06-18T16:33:02Z</time>
      </trkpt>
      <trkpt lat="50.21591" lon="1.68515">
        <ele>4</ele>
        <time>2020-06-18T16:33:03Z</time>
      </trkpt>
      <trkpt lat="50.21597" lon="1.68512">
        <ele>4</ele>
        <time>2020-06-18T16:33:04Z</time>
      </trkpt>
      <trkpt lat="50.21603" lon="1.68511">
        <ele>4</ele>
        <time>2020-06-18T16:33:05Z</time>
      </trkpt>
      <trkpt lat="50.21609" lon="1.6851">
        <ele>4</ele>
        <time>2020-06-18T16:33:06Z</time>
      </trkpt>
      <trkpt lat="50.21616" lon="1.68509">
        <ele>4</ele>
        <time>2020-06-18T16:33:07Z</time>
      </trkpt>
      <trkpt lat="50.21623" lon="1.68509">
        <ele>4</ele>
        <time>2020-06-18T16:33:08Z</time>
      </trkpt>
      <trkpt lat="50.21629" lon="1.68509">
        <ele>4.1</ele>
        <time>2020-06-18T16:33:09Z</time>
      </trkpt>
      <trkpt lat="50.21636" lon="1.68509">
        <ele>4.1</ele>
        <time>2020-06-18T16:33:10Z</time>
      </trkpt>
      <trkpt lat="50.21642" lon="1.68509">
        <ele>4.2</ele>
        <time>2020-06-18T16:33:11Z</time>
      </trkpt>
      <trkpt lat="50.21648" lon="1.68509">
        <ele>4.2</ele>
        <time>2020-06-18T16:33:12Z</time>
      </trkpt>
      <trkpt lat="50.21654" lon="1.68509">
        <ele>4.2</ele>
        <time>2020-06-18T16:33:13Z</time>
      </trkpt>
      <trkpt lat="50.21661" lon="1.68508">
        <ele>4.2</ele>
        <time>2020-06-18T16:33:14Z</time>
      </trkpt>
      <trkpt lat="50.21667" lon="1.68507">
        <ele>4.2</ele>
        <time>2020-06-18T16:33:15Z</time>
      </trkpt>
      <trkpt lat="50.21673" lon="1.68506">
        <ele>4.2</ele>
        <time>2020-06-18T16:33:16Z</time>
      </trkpt>
      <trkpt lat="50.2168" lon="1.68505">
        <ele>4.2</ele>
        <time>2020-06-18T16:33:17Z</time>
      </trkpt>
      <trkpt lat="50.21686" lon="1.68505">
        <ele>4.1</ele>
        <time>2020-06-18T16:33:18Z</time>
      </trkpt>
      <trkpt lat="50.21692" lon="1.68504">
        <ele>4.1</ele>
        <time>2020-06-18T16:33:19Z</time>
      </trkpt>
      <trkpt lat="50.21699" lon="1.68503">
        <ele>4.1</ele>
        <time>2020-06-18T16:33:20Z</time>
      </trkpt>
      <trkpt lat="50.21705" lon="1.68503">
        <ele>4.1</ele>
        <time>2020-06-18T16:33:21Z</time>
      </trkpt>
      <trkpt lat="50.21711" lon="1.68502">
        <ele>4.2</ele>
        <time>2020-06-18T16:33:22Z</time>
      </trkpt>
      <trkpt lat="50.21717" lon="1.68502">
        <ele>4.2</ele>
        <time>2020-06-18T16:33:23Z</time>
      </trkpt>
      <trkpt lat="50.21724" lon="1.68501">
        <ele>4.2</ele>
        <time>2020-06-18T16:33:24Z</time>
      </trkpt>
      <trkpt lat="50.2173" lon="1.68501">
        <ele>4.2</ele>
        <time>2020-06-18T16:33:25Z</time>
      </trkpt>
      <trkpt lat="50.21736" lon="1.685">
        <ele>4.1</ele>
        <time>2020-06-18T16:33:26Z</time>
      </trkpt>
      <trkpt lat="50.21742" lon="1.685">
        <ele>4.1</ele>
        <time>2020-06-18T16:33:27Z</time>
      </trkpt>
      <trkpt lat="50.21748" lon="1.685">
        <ele>4</ele>
        <time>2020-06-18T16:33:28Z</time>
      </trkpt>
      <trkpt lat="50.21755" lon="1.685">
        <ele>4</ele>
        <time>2020-06-18T16:33:29Z</time>
      </trkpt>
      <trkpt lat="50.2176" lon="1.685">
        <ele>4</ele>
        <time>2020-06-18T16:33:30Z</time>
      </trkpt>
      <trkpt lat="50.21767" lon="1.685">
        <ele>4</ele>
        <time>2020-06-18T16:33:31Z</time>
      </trkpt>
      <trkpt lat="50.21773" lon="1.68501">
        <ele>3.9</ele>
        <time>2020-06-18T16:33:32Z</time>
      </trkpt>
      <trkpt lat="50.21779" lon="1.68503">
        <ele>3.9</ele>
        <time>2020-06-18T16:33:33Z</time>
      </trkpt>
      <trkpt lat="50.21785" lon="1.68505">
        <ele>3.9</ele>
        <time>2020-06-18T16:33:34Z</time>
      </trkpt>
      <trkpt lat="50.21791" lon="1.68508">
        <ele>3.9</ele>
        <time>2020-06-18T16:33:35Z</time>
      </trkpt>
      <trkpt lat="50.21797" lon="1.68509">
        <ele>3.9</ele>
        <time>2020-06-18T16:33:36Z</time>
      </trkpt>
      <trkpt lat="50.21802" lon="1.68511">
        <ele>3.9</ele>
        <time>2020-06-18T16:33:37Z</time>
      </trkpt>
      <trkpt lat="50.21809" lon="1.68515">
        <ele>3.9</ele>
        <time>2020-06-18T16:33:38Z</time>
      </trkpt>
      <trkpt lat="50.21815" lon="1.68517">
        <ele>3.9</ele>
        <time>2020-06-18T16:33:39Z</time>
      </trkpt>
      <trkpt lat="50.21821" lon="1.68518">
        <ele>3.9</ele>
        <time>2020-06-18T16:33:40Z</time>
      </trkpt>
      <trkpt lat="50.21827" lon="1.68521">
        <ele>4</ele>
        <time>2020-06-18T16:33:41Z</time>
      </trkpt>
      <trkpt lat="50.21833" lon="1.68523">
        <ele>4</ele>
        <time>2020-06-18T16:33:42Z</time>
      </trkpt>
      <trkpt lat="50.21838" lon="1.68524">
        <ele>4</ele>
        <time>2020-06-18T16:33:43Z</time>
      </trkpt>
      <trkpt lat="50.21843" lon="1.68525">
        <ele>4.1</ele>
        <time>2020-06-18T16:33:44Z</time>
      </trkpt>
      <trkpt lat="50.21849" lon="1.68528">
        <ele>4.1</ele>
        <time>2020-06-18T16:33:45Z</time>
      </trkpt>
      <trkpt lat="50.21855" lon="1.6853">
        <ele>4.1</ele>
        <time>2020-06-18T16:33:46Z</time>
      </trkpt>
      <trkpt lat="50.21859" lon="1.68532">
        <ele>4.1</ele>
        <time>2020-06-18T16:33:47Z</time>
      </trkpt>
      <trkpt lat="50.21864" lon="1.68533">
        <ele>4.1</ele>
        <time>2020-06-18T16:33:48Z</time>
      </trkpt>
      <trkpt lat="50.21868" lon="1.68535">
        <ele>4.1</ele>
        <time>2020-06-18T16:33:49Z</time>
      </trkpt>
      <trkpt lat="50.21873" lon="1.68538">
        <ele>4.2</ele>
        <time>2020-06-18T16:33:50Z</time>
      </trkpt>
      <trkpt lat="50.21879" lon="1.6854">
        <ele>4.2</ele>
        <time>2020-06-18T16:33:51Z</time>
      </trkpt>
      <trkpt lat="50.21883" lon="1.68541">
        <ele>4.2</ele>
        <time>2020-06-18T16:33:52Z</time>
      </trkpt>
      <trkpt lat="50.21888" lon="1.68542">
        <ele>4.2</ele>
        <time>2020-06-18T16:33:53Z</time>
      </trkpt>
      <trkpt lat="50.21894" lon="1.68543">
        <ele>4.2</ele>
        <time>2020-06-18T16:33:54Z</time>
      </trkpt>
      <trkpt lat="50.21899" lon="1.68544">
        <ele>4.2</ele>
        <time>2020-06-18T16:33:55Z</time>
      </trkpt>
      <trkpt lat="50.21906" lon="1.68545">
        <ele>4.1</ele>
        <time>2020-06-18T16:33:56Z</time>
      </trkpt>
      <trkpt lat="50.21911" lon="1.68545">
        <ele>4.1</ele>
        <time>2020-06-18T16:33:57Z</time>
      </trkpt>
      <trkpt lat="50.21915" lon="1.68544">
        <ele>4.1</ele>
        <time>2020-06-18T16:33:58Z</time>
      </trkpt>
      <trkpt lat="50.21921" lon="1.68541">
        <ele>4.1</ele>
        <time>2020-06-18T16:33:59Z</time>
      </trkpt>
      <trkpt lat="50.21927" lon="1.68538">
        <ele>4.1</ele>
        <time>2020-06-18T16:34:00Z</time>
      </trkpt>
      <trkpt lat="50.21933" lon="1.68534">
        <ele>4.1</ele>
        <time>2020-06-18T16:34:01Z</time>
      </trkpt>
      <trkpt lat="50.21938" lon="1.6853">
        <ele>4.1</ele>
        <time>2020-06-18T16:34:02Z</time>
      </trkpt>
      <trkpt lat="50.21943" lon="1.68526">
        <ele>4.1</ele>
        <time>2020-06-18T16:34:03Z</time>
      </trkpt>
      <trkpt lat="50.2195" lon="1.68521">
        <ele>4.1</ele>
        <time>2020-06-18T16:34:04Z</time>
      </trkpt>
      <trkpt lat="50.21956" lon="1.68516">
        <ele>4.1</ele>
        <time>2020-06-18T16:34:05Z</time>
      </trkpt>
      <trkpt lat="50.21961" lon="1.68512">
        <ele>4.1</ele>
        <time>2020-06-18T16:34:06Z</time>
      </trkpt>
      <trkpt lat="50.21966" lon="1.68507">
        <ele>4.1</ele>
        <time>2020-06-18T16:34:07Z</time>
      </trkpt>
      <trkpt lat="50.21971" lon="1.68503">
        <ele>4.1</ele>
        <time>2020-06-18T16:34:08Z</time>
      </trkpt>
      <trkpt lat="50.21976" lon="1.68499">
        <ele>4.1</ele>
        <time>2020-06-18T16:34:09Z</time>
      </trkpt>
      <trkpt lat="50.21982" lon="1.68495">
        <ele>4.1</ele>
        <time>2020-06-18T16:34:10Z</time>
      </trkpt>
      <trkpt lat="50.21987" lon="1.68492">
        <ele>4.1</ele>
        <time>2020-06-18T16:34:11Z</time>
      </trkpt>
      <trkpt lat="50.21993" lon="1.68487">
        <ele>4.2</ele>
        <time>2020-06-18T16:34:12Z</time>
      </trkpt>
      <trkpt lat="50.21999" lon="1.68483">
        <ele>4.2</ele>
        <time>2020-06-18T16:34:13Z</time>
      </trkpt>
      <trkpt lat="50.22005" lon="1.68479">
        <ele>4.2</ele>
        <time>2020-06-18T16:34:14Z</time>
      </trkpt>
      <trkpt lat="50.22011" lon="1.68474">
        <ele>4.2</ele>
        <time>2020-06-18T16:34:15Z</time>
      </trkpt>
      <trkpt lat="50.22017" lon="1.68471">
        <ele>4.2</ele>
        <time>2020-06-18T16:34:16Z</time>
      </trkpt>
      <trkpt lat="50.22023" lon="1.68467">
        <ele>4.2</ele>
        <time>2020-06-18T16:34:17Z</time>
      </trkpt>
      <trkpt lat="50.22028" lon="1.68466">
        <ele>4.2</ele>
        <time>2020-06-18T16:34:18Z</time>
      </trkpt>
      <trkpt lat="50.22033" lon="1.68464">
        <ele>4.2</ele>
        <time>2020-06-18T16:34:19Z</time>
      </trkpt>
      <trkpt lat="50.22039" lon="1.68462">
        <ele>4.1</ele>
        <time>2020-06-18T16:34:20Z</time>
      </trkpt>
      <trkpt lat="50.22046" lon="1.6846">
        <ele>4.2</ele>
        <time>2020-06-18T16:34:21Z</time>
      </trkpt>
      <trkpt lat="50.22052" lon="1.68458">
        <ele>4.3</ele>
        <time>2020-06-18T16:34:22Z</time>
      </trkpt>
      <trkpt lat="50.22059" lon="1.68455">
        <ele>4.3</ele>
        <time>2020-06-18T16:34:23Z</time>
      </trkpt>
      <trkpt lat="50.22066" lon="1.68453">
        <ele>4.4</ele>
        <time>2020-06-18T16:34:24Z</time>
      </trkpt>
      <trkpt lat="50.22073" lon="1.68451">
        <ele>4.4</ele>
        <time>2020-06-18T16:34:25Z</time>
      </trkpt>
      <trkpt lat="50.22079" lon="1.68449">
        <ele>4.4</ele>
        <time>2020-06-18T16:34:26Z</time>
      </trkpt>
      <trkpt lat="50.22086" lon="1.68448">
        <ele>4.4</ele>
        <time>2020-06-18T16:34:27Z</time>
      </trkpt>
      <trkpt lat="50.22092" lon="1.68445">
        <ele>4.4</ele>
        <time>2020-06-18T16:34:28Z</time>
      </trkpt>
      <trkpt lat="50.22098" lon="1.68442">
        <ele>4.4</ele>
        <time>2020-06-18T16:34:29Z</time>
      </trkpt>
      <trkpt lat="50.22105" lon="1.68439">
        <ele>4.3</ele>
        <time>2020-06-18T16:34:30Z</time>
      </trkpt>
      <trkpt lat="50.22112" lon="1.68438">
        <ele>4.3</ele>
        <time>2020-06-18T16:34:31Z</time>
      </trkpt>
      <trkpt lat="50.22119" lon="1.68435">
        <ele>4.2</ele>
        <time>2020-06-18T16:34:32Z</time>
      </trkpt>
      <trkpt lat="50.22126" lon="1.68433">
        <ele>4.2</ele>
        <time>2020-06-18T16:34:33Z</time>
      </trkpt>
      <trkpt lat="50.22133" lon="1.6843">
        <ele>4.2</ele>
        <time>2020-06-18T16:34:34Z</time>
      </trkpt>
      <trkpt lat="50.22139" lon="1.68426">
        <ele>4.2</ele>
        <time>2020-06-18T16:34:35Z</time>
      </trkpt>
      <trkpt lat="50.22145" lon="1.68423">
        <ele>4.1</ele>
        <time>2020-06-18T16:34:36Z</time>
      </trkpt>
      <trkpt lat="50.2215" lon="1.68421">
        <ele>4.1</ele>
        <time>2020-06-18T16:34:37Z</time>
      </trkpt>
      <trkpt lat="50.22156" lon="1.68418">
        <ele>4.1</ele>
        <time>2020-06-18T16:34:38Z</time>
      </trkpt>
      <trkpt lat="50.22162" lon="1.68417">
        <ele>4.1</ele>
        <time>2020-06-18T16:34:39Z</time>
      </trkpt>
      <trkpt lat="50.22168" lon="1.68416">
        <ele>4.1</ele>
        <time>2020-06-18T16:34:40Z</time>
      </trkpt>
      <trkpt lat="50.22172" lon="1.68413">
        <ele>4.1</ele>
        <time>2020-06-18T16:34:41Z</time>
      </trkpt>
      <trkpt lat="50.22177" lon="1.68412">
        <ele>4.1</ele>
        <time>2020-06-18T16:34:42Z</time>
      </trkpt>
      <trkpt lat="50.2218" lon="1.6841">
        <ele>4.1</ele>
        <time>2020-06-18T16:34:43Z</time>
      </trkpt>
      <trkpt lat="50.22185" lon="1.68409">
        <ele>4.1</ele>
        <time>2020-06-18T16:34:44Z</time>
      </trkpt>
      <trkpt lat="50.22191" lon="1.68407">
        <ele>4.2</ele>
        <time>2020-06-18T16:34:45Z</time>
      </trkpt>
      <trkpt lat="50.22196" lon="1.68406">
        <ele>4.2</ele>
        <time>2020-06-18T16:34:46Z</time>
      </trkpt>
      <trkpt lat="50.22201" lon="1.68405">
        <ele>4.2</ele>
        <time>2020-06-18T16:34:47Z</time>
      </trkpt>
      <trkpt lat="50.22205" lon="1.68404">
        <ele>4.2</ele>
        <time>2020-06-18T16:34:48Z</time>
      </trkpt>
      <trkpt lat="50.2221" lon="1.68402">
        <ele>4.2</ele>
        <time>2020-06-18T16:34:49Z</time>
      </trkpt>
      <trkpt lat="50.22213" lon="1.68401">
        <ele>4.2</ele>
        <time>2020-06-18T16:34:50Z</time>
      </trkpt>
      <trkpt lat="50.22218" lon="1.68399">
        <ele>4.2</ele>
        <time>2020-06-18T16:34:51Z</time>
      </trkpt>
      <trkpt lat="50.22224" lon="1.68396">
        <ele>4.2</ele>
        <time>2020-06-18T16:34:52Z</time>
      </trkpt>
      <trkpt lat="50.2223" lon="1.68394">
        <ele>4.2</ele>
        <time>2020-06-18T16:34:53Z</time>
      </trkpt>
      <trkpt lat="50.22235" lon="1.68392">
        <ele>4.2</ele>
        <time>2020-06-18T16:34:54Z</time>
      </trkpt>
      <trkpt lat="50.22241" lon="1.68389">
        <ele>4.2</ele>
        <time>2020-06-18T16:34:55Z</time>
      </trkpt>
      <trkpt lat="50.22248" lon="1.68386">
        <ele>4.1</ele>
        <time>2020-06-18T16:34:56Z</time>
      </trkpt>
      <trkpt lat="50.22254" lon="1.68384">
        <ele>4.1</ele>
        <time>2020-06-18T16:34:57Z</time>
      </trkpt>
      <trkpt lat="50.2226" lon="1.68382">
        <ele>4.1</ele>
        <time>2020-06-18T16:34:58Z</time>
      </trkpt>
      <trkpt lat="50.22267" lon="1.68381">
        <ele>4.1</ele>
        <time>2020-06-18T16:34:59Z</time>
      </trkpt>
      <trkpt lat="50.22273" lon="1.6838">
        <ele>4.1</ele>
        <time>2020-06-18T16:35:00Z</time>
      </trkpt>
      <trkpt lat="50.2228" lon="1.68379">
        <ele>4.1</ele>
        <time>2020-06-18T16:35:01Z</time>
      </trkpt>
      <trkpt lat="50.22287" lon="1.68378">
        <ele>4</ele>
        <time>2020-06-18T16:35:02Z</time>
      </trkpt>
      <trkpt lat="50.22294" lon="1.68378">
        <ele>4</ele>
        <time>2020-06-18T16:35:03Z</time>
      </trkpt>
      <trkpt lat="50.22301" lon="1.68378">
        <ele>4</ele>
        <time>2020-06-18T16:35:04Z</time>
      </trkpt>
      <trkpt lat="50.22308" lon="1.68379">
        <ele>4</ele>
        <time>2020-06-18T16:35:05Z</time>
      </trkpt>
      <trkpt lat="50.22316" lon="1.68379">
        <ele>4</ele>
        <time>2020-06-18T16:35:06Z</time>
      </trkpt>
      <trkpt lat="50.22323" lon="1.68379">
        <ele>4</ele>
        <time>2020-06-18T16:35:07Z</time>
      </trkpt>
      <trkpt lat="50.2233" lon="1.6838">
        <ele>4.1</ele>
        <time>2020-06-18T16:35:08Z</time>
      </trkpt>
      <trkpt lat="50.22337" lon="1.68381">
        <ele>4.2</ele>
        <time>2020-06-18T16:35:09Z</time>
      </trkpt>
      <trkpt lat="50.22344" lon="1.68382">
        <ele>4.3</ele>
        <time>2020-06-18T16:35:10Z</time>
      </trkpt>
      <trkpt lat="50.22351" lon="1.68383">
        <ele>4.3</ele>
        <time>2020-06-18T16:35:11Z</time>
      </trkpt>
      <trkpt lat="50.22358" lon="1.68383">
        <ele>4.3</ele>
        <time>2020-06-18T16:35:12Z</time>
      </trkpt>
      <trkpt lat="50.22364" lon="1.68384">
        <ele>4.3</ele>
        <time>2020-06-18T16:35:13Z</time>
      </trkpt>
      <trkpt lat="50.22371" lon="1.68384">
        <ele>4.3</ele>
        <time>2020-06-18T16:35:14Z</time>
      </trkpt>
      <trkpt lat="50.22378" lon="1.68385">
        <ele>4.3</ele>
        <time>2020-06-18T16:35:15Z</time>
      </trkpt>
      <trkpt lat="50.22384" lon="1.68386">
        <ele>4.3</ele>
        <time>2020-06-18T16:35:16Z</time>
      </trkpt>
      <trkpt lat="50.22391" lon="1.68386">
        <ele>4.3</ele>
        <time>2020-06-18T16:35:17Z</time>
      </trkpt>
      <trkpt lat="50.22398" lon="1.68386">
        <ele>4.2</ele>
        <time>2020-06-18T16:35:18Z</time>
      </trkpt>
      <trkpt lat="50.22405" lon="1.68388">
        <ele>4.1</ele>
        <time>2020-06-18T16:35:19Z</time>
      </trkpt>
      <trkpt lat="50.22412" lon="1.68389">
        <ele>4</ele>
        <time>2020-06-18T16:35:20Z</time>
      </trkpt>
      <trkpt lat="50.22419" lon="1.68389">
        <ele>3.9</ele>
        <time>2020-06-18T16:35:21Z</time>
      </trkpt>
      <trkpt lat="50.22426" lon="1.68389">
        <ele>3.9</ele>
        <time>2020-06-18T16:35:22Z</time>
      </trkpt>
      <trkpt lat="50.22432" lon="1.68389">
        <ele>3.8</ele>
        <time>2020-06-18T16:35:23Z</time>
      </trkpt>
      <trkpt lat="50.22439" lon="1.6839">
        <ele>3.8</ele>
        <time>2020-06-18T16:35:24Z</time>
      </trkpt>
      <trkpt lat="50.22446" lon="1.6839">
        <ele>3.8</ele>
        <time>2020-06-18T16:35:25Z</time>
      </trkpt>
      <trkpt lat="50.22453" lon="1.6839">
        <ele>3.8</ele>
        <time>2020-06-18T16:35:26Z</time>
      </trkpt>
      <trkpt lat="50.2246" lon="1.68391">
        <ele>3.7</ele>
        <time>2020-06-18T16:35:27Z</time>
      </trkpt>
      <trkpt lat="50.22466" lon="1.68391">
        <ele>3.7</ele>
        <time>2020-06-18T16:35:28Z</time>
      </trkpt>
      <trkpt lat="50.22473" lon="1.68392">
        <ele>3.7</ele>
        <time>2020-06-18T16:35:29Z</time>
      </trkpt>
      <trkpt lat="50.2248" lon="1.68393">
        <ele>3.7</ele>
        <time>2020-06-18T16:35:30Z</time>
      </trkpt>
      <trkpt lat="50.22487" lon="1.68393">
        <ele>3.7</ele>
        <time>2020-06-18T16:35:31Z</time>
      </trkpt>
      <trkpt lat="50.22494" lon="1.68392">
        <ele>3.7</ele>
        <time>2020-06-18T16:35:32Z</time>
      </trkpt>
      <trkpt lat="50.22501" lon="1.68393">
        <ele>3.7</ele>
        <time>2020-06-18T16:35:33Z</time>
      </trkpt>
      <trkpt lat="50.22508" lon="1.68393">
        <ele>3.7</ele>
        <time>2020-06-18T16:35:34Z</time>
      </trkpt>
      <trkpt lat="50.22515" lon="1.68393">
        <ele>3.8</ele>
        <time>2020-06-18T16:35:35Z</time>
      </trkpt>
      <trkpt lat="50.22522" lon="1.68394">
        <ele>3.8</ele>
        <time>2020-06-18T16:35:36Z</time>
      </trkpt>
      <trkpt lat="50.22529" lon="1.68395">
        <ele>3.8</ele>
        <time>2020-06-18T16:35:37Z</time>
      </trkpt>
      <trkpt lat="50.22536" lon="1.68395">
        <ele>3.8</ele>
        <time>2020-06-18T16:35:38Z</time>
      </trkpt>
      <trkpt lat="50.22543" lon="1.68396">
        <ele>3.8</ele>
        <time>2020-06-18T16:35:39Z</time>
      </trkpt>
      <trkpt lat="50.2255" lon="1.68396">
        <ele>3.8</ele>
        <time>2020-06-18T16:35:40Z</time>
      </trkpt>
      <trkpt lat="50.22557" lon="1.68397">
        <ele>3.7</ele>
        <time>2020-06-18T16:35:41Z</time>
      </trkpt>
      <trkpt lat="50.22564" lon="1.68397">
        <ele>3.7</ele>
        <time>2020-06-18T16:35:42Z</time>
      </trkpt>
      <trkpt lat="50.22571" lon="1.68398">
        <ele>3.7</ele>
        <time>2020-06-18T16:35:43Z</time>
      </trkpt>
      <trkpt lat="50.22578" lon="1.68399">
        <ele>3.7</ele>
        <time>2020-06-18T16:35:44Z</time>
      </trkpt>
      <trkpt lat="50.22585" lon="1.68399">
        <ele>3.7</ele>
        <time>2020-06-18T16:35:45Z</time>
      </trkpt>
      <trkpt lat="50.22592" lon="1.68399">
        <ele>3.7</ele>
        <time>2020-06-18T16:35:46Z</time>
      </trkpt>
      <trkpt lat="50.22599" lon="1.68399">
        <ele>3.7</ele>
        <time>2020-06-18T16:35:47Z</time>
      </trkpt>
      <trkpt lat="50.22606" lon="1.68399">
        <ele>3.7</ele>
        <time>2020-06-18T16:35:48Z</time>
      </trkpt>
      <trkpt lat="50.22613" lon="1.68398">
        <ele>3.7</ele>
        <time>2020-06-18T16:35:49Z</time>
      </trkpt>
      <trkpt lat="50.22619" lon="1.68398">
        <ele>3.7</ele>
        <time>2020-06-18T16:35:50Z</time>
      </trkpt>
      <trkpt lat="50.22626" lon="1.68397">
        <ele>3.7</ele>
        <time>2020-06-18T16:35:51Z</time>
      </trkpt>
      <trkpt lat="50.22632" lon="1.68396">
        <ele>3.7</ele>
        <time>2020-06-18T16:35:52Z</time>
      </trkpt>
      <trkpt lat="50.22638" lon="1.68395">
        <ele>3.7</ele>
        <time>2020-06-18T16:35:53Z</time>
      </trkpt>
      <trkpt lat="50.22645" lon="1.68393">
        <ele>3.7</ele>
        <time>2020-06-18T16:35:54Z</time>
      </trkpt>
      <trkpt lat="50.22651" lon="1.6839">
        <ele>3.7</ele>
        <time>2020-06-18T16:35:55Z</time>
      </trkpt>
      <trkpt lat="50.22657" lon="1.68388">
        <ele>3.6</ele>
        <time>2020-06-18T16:35:56Z</time>
      </trkpt>
      <trkpt lat="50.22662" lon="1.68385">
        <ele>3.6</ele>
        <time>2020-06-18T16:35:57Z</time>
      </trkpt>
      <trkpt lat="50.22668" lon="1.68382">
        <ele>3.6</ele>
        <time>2020-06-18T16:35:58Z</time>
      </trkpt>
      <trkpt lat="50.22672" lon="1.68378">
        <ele>3.6</ele>
        <time>2020-06-18T16:35:59Z</time>
      </trkpt>
      <trkpt lat="50.22678" lon="1.68374">
        <ele>3.6</ele>
        <time>2020-06-18T16:36:00Z</time>
      </trkpt>
      <trkpt lat="50.22684" lon="1.6837">
        <ele>3.6</ele>
        <time>2020-06-18T16:36:01Z</time>
      </trkpt>
      <trkpt lat="50.22689" lon="1.68365">
        <ele>3.6</ele>
        <time>2020-06-18T16:36:02Z</time>
      </trkpt>
      <trkpt lat="50.22694" lon="1.68359">
        <ele>3.6</ele>
        <time>2020-06-18T16:36:03Z</time>
      </trkpt>
      <trkpt lat="50.22699" lon="1.68353">
        <ele>3.6</ele>
        <time>2020-06-18T16:36:04Z</time>
      </trkpt>
      <trkpt lat="50.22703" lon="1.68346">
        <ele>3.6</ele>
        <time>2020-06-18T16:36:05Z</time>
      </trkpt>
      <trkpt lat="50.22708" lon="1.68341">
        <ele>3.7</ele>
        <time>2020-06-18T16:36:06Z</time>
      </trkpt>
      <trkpt lat="50.22711" lon="1.68336">
        <ele>3.7</ele>
        <time>2020-06-18T16:36:07Z</time>
      </trkpt>
      <trkpt lat="50.22714" lon="1.6833">
        <ele>3.7</ele>
        <time>2020-06-18T16:36:08Z</time>
      </trkpt>
      <trkpt lat="50.22718" lon="1.68324">
        <ele>3.7</ele>
        <time>2020-06-18T16:36:09Z</time>
      </trkpt>
      <trkpt lat="50.22722" lon="1.68318">
        <ele>3.8</ele>
        <time>2020-06-18T16:36:10Z</time>
      </trkpt>
      <trkpt lat="50.22725" lon="1.68312">
        <ele>3.8</ele>
        <time>2020-06-18T16:36:11Z</time>
      </trkpt>
      <trkpt lat="50.22728" lon="1.68304">
        <ele>3.8</ele>
        <time>2020-06-18T16:36:12Z</time>
      </trkpt>
      <trkpt lat="50.2273" lon="1.68298">
        <ele>3.8</ele>
        <time>2020-06-18T16:36:13Z</time>
      </trkpt>
      <trkpt lat="50.22732" lon="1.68292">
        <ele>3.8</ele>
        <time>2020-06-18T16:36:14Z</time>
      </trkpt>
      <trkpt lat="50.22734" lon="1.68286">
        <ele>3.8</ele>
        <time>2020-06-18T16:36:15Z</time>
      </trkpt>
      <trkpt lat="50.22736" lon="1.68279">
        <ele>3.8</ele>
        <time>2020-06-18T16:36:16Z</time>
      </trkpt>
      <trkpt lat="50.22737" lon="1.68273">
        <ele>3.7</ele>
        <time>2020-06-18T16:36:17Z</time>
      </trkpt>
      <trkpt lat="50.22737" lon="1.68266">
        <ele>3.7</ele>
        <time>2020-06-18T16:36:18Z</time>
      </trkpt>
      <trkpt lat="50.22735" lon="1.68259">
        <ele>3.7</ele>
        <time>2020-06-18T16:36:19Z</time>
      </trkpt>
      <trkpt lat="50.22733" lon="1.68252">
        <ele>3.7</ele>
        <time>2020-06-18T16:36:20Z</time>
      </trkpt>
      <trkpt lat="50.22731" lon="1.68247">
        <ele>3.7</ele>
        <time>2020-06-18T16:36:21Z</time>
      </trkpt>
      <trkpt lat="50.22729" lon="1.68239">
        <ele>3.7</ele>
        <time>2020-06-18T16:36:22Z</time>
      </trkpt>
      <trkpt lat="50.22727" lon="1.68233">
        <ele>3.7</ele>
        <time>2020-06-18T16:36:23Z</time>
      </trkpt>
      <trkpt lat="50.22725" lon="1.68227">
        <ele>3.7</ele>
        <time>2020-06-18T16:36:24Z</time>
      </trkpt>
      <trkpt lat="50.22723" lon="1.68222">
        <ele>3.6</ele>
        <time>2020-06-18T16:36:25Z</time>
      </trkpt>
      <trkpt lat="50.22722" lon="1.68217">
        <ele>3.6</ele>
        <time>2020-06-18T16:36:26Z</time>
      </trkpt>
      <trkpt lat="50.22721" lon="1.68212">
        <ele>3.6</ele>
        <time>2020-06-18T16:36:27Z</time>
      </trkpt>
      <trkpt lat="50.22719" lon="1.68208">
        <ele>3.6</ele>
        <time>2020-06-18T16:36:28Z</time>
      </trkpt>
      <trkpt lat="50.22717" lon="1.68202">
        <ele>3.6</ele>
        <time>2020-06-18T16:36:29Z</time>
      </trkpt>
      <trkpt lat="50.22717" lon="1.68198">
        <ele>3.6</ele>
        <time>2020-06-18T16:36:30Z</time>
      </trkpt>
      <trkpt lat="50.22716" lon="1.68193">
        <ele>3.6</ele>
        <time>2020-06-18T16:36:31Z</time>
      </trkpt>
      <trkpt lat="50.22716" lon="1.68188">
        <ele>3.5</ele>
        <time>2020-06-18T16:36:32Z</time>
      </trkpt>
      <trkpt lat="50.22715" lon="1.68183">
        <ele>3.5</ele>
        <time>2020-06-18T16:36:33Z</time>
      </trkpt>
      <trkpt lat="50.22713" lon="1.68177">
        <ele>3.5</ele>
        <time>2020-06-18T16:36:34Z</time>
      </trkpt>
      <trkpt lat="50.22711" lon="1.68168">
        <ele>3.5</ele>
        <time>2020-06-18T16:36:35Z</time>
      </trkpt>
      <trkpt lat="50.22709" lon="1.68161">
        <ele>3.5</ele>
        <time>2020-06-18T16:36:36Z</time>
      </trkpt>
      <trkpt lat="50.22708" lon="1.68155">
        <ele>3.5</ele>
        <time>2020-06-18T16:36:37Z</time>
      </trkpt>
      <trkpt lat="50.22707" lon="1.68146">
        <ele>3.5</ele>
        <time>2020-06-18T16:36:38Z</time>
      </trkpt>
      <trkpt lat="50.22705" lon="1.68139">
        <ele>3.5</ele>
        <time>2020-06-18T16:36:39Z</time>
      </trkpt>
      <trkpt lat="50.22705" lon="1.68134">
        <ele>3.5</ele>
        <time>2020-06-18T16:36:40Z</time>
      </trkpt>
      <trkpt lat="50.22704" lon="1.68126">
        <ele>3.5</ele>
        <time>2020-06-18T16:36:41Z</time>
      </trkpt>
      <trkpt lat="50.22703" lon="1.68119">
        <ele>3.5</ele>
        <time>2020-06-18T16:36:42Z</time>
      </trkpt>
      <trkpt lat="50.22702" lon="1.68112">
        <ele>3.5</ele>
        <time>2020-06-18T16:36:43Z</time>
      </trkpt>
      <trkpt lat="50.22701" lon="1.68105">
        <ele>3.5</ele>
        <time>2020-06-18T16:36:44Z</time>
      </trkpt>
      <trkpt lat="50.22699" lon="1.68096">
        <ele>3.5</ele>
        <time>2020-06-18T16:36:45Z</time>
      </trkpt>
      <trkpt lat="50.22699" lon="1.68089">
        <ele>3.5</ele>
        <time>2020-06-18T16:36:46Z</time>
      </trkpt>
      <trkpt lat="50.22699" lon="1.68082">
        <ele>3.5</ele>
        <time>2020-06-18T16:36:47Z</time>
      </trkpt>
      <trkpt lat="50.22699" lon="1.68075">
        <ele>3.4</ele>
        <time>2020-06-18T16:36:48Z</time>
      </trkpt>
      <trkpt lat="50.227" lon="1.68067">
        <ele>3.3</ele>
        <time>2020-06-18T16:36:49Z</time>
      </trkpt>
      <trkpt lat="50.22703" lon="1.68059">
        <ele>3.3</ele>
        <time>2020-06-18T16:36:50Z</time>
      </trkpt>
      <trkpt lat="50.22707" lon="1.68055">
        <ele>3.2</ele>
        <time>2020-06-18T16:36:51Z</time>
      </trkpt>
      <trkpt lat="50.22713" lon="1.6805">
        <ele>3.2</ele>
        <time>2020-06-18T16:36:52Z</time>
      </trkpt>
      <trkpt lat="50.22718" lon="1.68046">
        <ele>3.2</ele>
        <time>2020-06-18T16:36:53Z</time>
      </trkpt>
      <trkpt lat="50.22723" lon="1.68042">
        <ele>3.2</ele>
        <time>2020-06-18T16:36:54Z</time>
      </trkpt>
      <trkpt lat="50.22729" lon="1.6804">
        <ele>3.2</ele>
        <time>2020-06-18T16:36:55Z</time>
      </trkpt>
      <trkpt lat="50.22735" lon="1.68037">
        <ele>3.2</ele>
        <time>2020-06-18T16:36:56Z</time>
      </trkpt>
      <trkpt lat="50.22741" lon="1.68034">
        <ele>3.2</ele>
        <time>2020-06-18T16:36:57Z</time>
      </trkpt>
      <trkpt lat="50.22746" lon="1.68031">
        <ele>3.2</ele>
        <time>2020-06-18T16:36:58Z</time>
      </trkpt>
      <trkpt lat="50.22752" lon="1.68028">
        <ele>3.2</ele>
        <time>2020-06-18T16:36:59Z</time>
      </trkpt>
      <trkpt lat="50.22758" lon="1.68023">
        <ele>3.2</ele>
        <time>2020-06-18T16:37:00Z</time>
      </trkpt>
      <trkpt lat="50.22764" lon="1.68019">
        <ele>3.2</ele>
        <time>2020-06-18T16:37:01Z</time>
      </trkpt>
      <trkpt lat="50.2277" lon="1.68016">
        <ele>3.2</ele>
        <time>2020-06-18T16:37:02Z</time>
      </trkpt>
      <trkpt lat="50.22776" lon="1.68013">
        <ele>3.2</ele>
        <time>2020-06-18T16:37:03Z</time>
      </trkpt>
      <trkpt lat="50.22783" lon="1.68008">
        <ele>3.2</ele>
        <time>2020-06-18T16:37:04Z</time>
      </trkpt>
      <trkpt lat="50.22789" lon="1.68004">
        <ele>3.2</ele>
        <time>2020-06-18T16:37:05Z</time>
      </trkpt>
      <trkpt lat="50.22796" lon="1.68">
        <ele>3.3</ele>
        <time>2020-06-18T16:37:06Z</time>
      </trkpt>
      <trkpt lat="50.22803" lon="1.67995">
        <ele>3.3</ele>
        <time>2020-06-18T16:37:07Z</time>
      </trkpt>
      <trkpt lat="50.2281" lon="1.6799">
        <ele>3.3</ele>
        <time>2020-06-18T16:37:08Z</time>
      </trkpt>
      <trkpt lat="50.22817" lon="1.67983">
        <ele>3.3</ele>
        <time>2020-06-18T16:37:09Z</time>
      </trkpt>
      <trkpt lat="50.22823" lon="1.67975">
        <ele>3.4</ele>
        <time>2020-06-18T16:37:10Z</time>
      </trkpt>
      <trkpt lat="50.22829" lon="1.67967">
        <ele>3.4</ele>
        <time>2020-06-18T16:37:11Z</time>
      </trkpt>
      <trkpt lat="50.22833" lon="1.67957">
        <ele>3.4</ele>
        <time>2020-06-18T16:37:12Z</time>
      </trkpt>
      <trkpt lat="50.22837" lon="1.67948">
        <ele>3.4</ele>
        <time>2020-06-18T16:37:13Z</time>
      </trkpt>
      <trkpt lat="50.2284" lon="1.67937">
        <ele>3.4</ele>
        <time>2020-06-18T16:37:14Z</time>
      </trkpt>
      <trkpt lat="50.22844" lon="1.67928">
        <ele>3.5</ele>
        <time>2020-06-18T16:37:15Z</time>
      </trkpt>
      <trkpt lat="50.22847" lon="1.67919">
        <ele>3.5</ele>
        <time>2020-06-18T16:37:16Z</time>
      </trkpt>
      <trkpt lat="50.22851" lon="1.67909">
        <ele>3.5</ele>
        <time>2020-06-18T16:37:17Z</time>
      </trkpt>
      <trkpt lat="50.22854" lon="1.679">
        <ele>3.5</ele>
        <time>2020-06-18T16:37:18Z</time>
      </trkpt>
      <trkpt lat="50.22858" lon="1.67891">
        <ele>3.5</ele>
        <time>2020-06-18T16:37:19Z</time>
      </trkpt>
      <trkpt lat="50.22862" lon="1.67882">
        <ele>3.5</ele>
        <time>2020-06-18T16:37:20Z</time>
      </trkpt>
      <trkpt lat="50.22866" lon="1.67873">
        <ele>3.5</ele>
        <time>2020-06-18T16:37:21Z</time>
      </trkpt>
      <trkpt lat="50.2287" lon="1.67865">
        <ele>3.5</ele>
        <time>2020-06-18T16:37:22Z</time>
      </trkpt>
      <trkpt lat="50.22874" lon="1.67856">
        <ele>3.5</ele>
        <time>2020-06-18T16:37:23Z</time>
      </trkpt>
      <trkpt lat="50.22879" lon="1.67847">
        <ele>3.6</ele>
        <time>2020-06-18T16:37:24Z</time>
      </trkpt>
      <trkpt lat="50.22883" lon="1.67839">
        <ele>3.6</ele>
        <time>2020-06-18T16:37:25Z</time>
      </trkpt>
      <trkpt lat="50.22888" lon="1.6783">
        <ele>3.6</ele>
        <time>2020-06-18T16:37:26Z</time>
      </trkpt>
      <trkpt lat="50.22892" lon="1.67822">
        <ele>3.6</ele>
        <time>2020-06-18T16:37:27Z</time>
      </trkpt>
      <trkpt lat="50.22896" lon="1.67814">
        <ele>3.7</ele>
        <time>2020-06-18T16:37:28Z</time>
      </trkpt>
      <trkpt lat="50.22901" lon="1.67806">
        <ele>3.7</ele>
        <time>2020-06-18T16:37:29Z</time>
      </trkpt>
      <trkpt lat="50.22905" lon="1.67797">
        <ele>3.7</ele>
        <time>2020-06-18T16:37:30Z</time>
      </trkpt>
      <trkpt lat="50.2291" lon="1.67789">
        <ele>3.7</ele>
        <time>2020-06-18T16:37:31Z</time>
      </trkpt>
      <trkpt lat="50.22915" lon="1.67781">
        <ele>3.7</ele>
        <time>2020-06-18T16:37:32Z</time>
      </trkpt>
      <trkpt lat="50.22919" lon="1.67772">
        <ele>3.6</ele>
        <time>2020-06-18T16:37:33Z</time>
      </trkpt>
      <trkpt lat="50.22923" lon="1.67762">
        <ele>3.6</ele>
        <time>2020-06-18T16:37:34Z</time>
      </trkpt>
      <trkpt lat="50.22927" lon="1.67753">
        <ele>3.6</ele>
        <time>2020-06-18T16:37:35Z</time>
      </trkpt>
      <trkpt lat="50.22931" lon="1.67744">
        <ele>3.6</ele>
        <time>2020-06-18T16:37:36Z</time>
      </trkpt>
      <trkpt lat="50.22934" lon="1.67734">
        <ele>3.6</ele>
        <time>2020-06-18T16:37:37Z</time>
      </trkpt>
      <trkpt lat="50.22938" lon="1.67725">
        <ele>3.5</ele>
        <time>2020-06-18T16:37:38Z</time>
      </trkpt>
      <trkpt lat="50.22942" lon="1.67715">
        <ele>3.5</ele>
        <time>2020-06-18T16:37:39Z</time>
      </trkpt>
      <trkpt lat="50.22946" lon="1.67706">
        <ele>3.5</ele>
        <time>2020-06-18T16:37:40Z</time>
      </trkpt>
      <trkpt lat="50.2295" lon="1.67697">
        <ele>3.5</ele>
        <time>2020-06-18T16:37:41Z</time>
      </trkpt>
      <trkpt lat="50.22953" lon="1.67687">
        <ele>3.5</ele>
        <time>2020-06-18T16:37:42Z</time>
      </trkpt>
      <trkpt lat="50.22956" lon="1.67677">
        <ele>3.7</ele>
        <time>2020-06-18T16:37:43Z</time>
      </trkpt>
      <trkpt lat="50.2296" lon="1.67668">
        <ele>3.9</ele>
        <time>2020-06-18T16:37:44Z</time>
      </trkpt>
      <trkpt lat="50.22964" lon="1.67658">
        <ele>4.1</ele>
        <time>2020-06-18T16:37:45Z</time>
      </trkpt>
      <trkpt lat="50.22968" lon="1.67649">
        <ele>4.1</ele>
        <time>2020-06-18T16:37:46Z</time>
      </trkpt>
      <trkpt lat="50.22972" lon="1.6764">
        <ele>4.1</ele>
        <time>2020-06-18T16:37:47Z</time>
      </trkpt>
      <trkpt lat="50.22976" lon="1.67631">
        <ele>4.1</ele>
        <time>2020-06-18T16:37:48Z</time>
      </trkpt>
      <trkpt lat="50.2298" lon="1.67622">
        <ele>4.1</ele>
        <time>2020-06-18T16:37:49Z</time>
      </trkpt>
      <trkpt lat="50.22984" lon="1.67613">
        <ele>4</ele>
        <time>2020-06-18T16:37:50Z</time>
      </trkpt>
      <trkpt lat="50.22988" lon="1.67605">
        <ele>4</ele>
        <time>2020-06-18T16:37:51Z</time>
      </trkpt>
      <trkpt lat="50.22992" lon="1.67596">
        <ele>4</ele>
        <time>2020-06-18T16:37:52Z</time>
      </trkpt>
      <trkpt lat="50.22997" lon="1.67588">
        <ele>4</ele>
        <time>2020-06-18T16:37:53Z</time>
      </trkpt>
      <trkpt lat="50.23002" lon="1.6758">
        <ele>4</ele>
        <time>2020-06-18T16:37:54Z</time>
      </trkpt>
      <trkpt lat="50.23006" lon="1.67572">
        <ele>4</ele>
        <time>2020-06-18T16:37:55Z</time>
      </trkpt>
      <trkpt lat="50.23011" lon="1.67563">
        <ele>4</ele>
        <time>2020-06-18T16:37:56Z</time>
      </trkpt>
      <trkpt lat="50.23016" lon="1.67554">
        <ele>4.1</ele>
        <time>2020-06-18T16:37:57Z</time>
      </trkpt>
      <trkpt lat="50.23021" lon="1.67546">
        <ele>4.1</ele>
        <time>2020-06-18T16:37:58Z</time>
      </trkpt>
      <trkpt lat="50.23025" lon="1.67537">
        <ele>4.1</ele>
        <time>2020-06-18T16:37:59Z</time>
      </trkpt>
      <trkpt lat="50.23028" lon="1.67528">
        <ele>4.1</ele>
        <time>2020-06-18T16:38:00Z</time>
      </trkpt>
      <trkpt lat="50.23032" lon="1.67518">
        <ele>4.1</ele>
        <time>2020-06-18T16:38:01Z</time>
      </trkpt>
      <trkpt lat="50.23034" lon="1.67508">
        <ele>4.2</ele>
        <time>2020-06-18T16:38:02Z</time>
      </trkpt>
      <trkpt lat="50.23036" lon="1.67497">
        <ele>4.1</ele>
        <time>2020-06-18T16:38:03Z</time>
      </trkpt>
      <trkpt lat="50.23038" lon="1.67486">
        <ele>4.1</ele>
        <time>2020-06-18T16:38:04Z</time>
      </trkpt>
      <trkpt lat="50.23039" lon="1.67475">
        <ele>4.1</ele>
        <time>2020-06-18T16:38:05Z</time>
      </trkpt>
      <trkpt lat="50.2304" lon="1.67464">
        <ele>4.1</ele>
        <time>2020-06-18T16:38:06Z</time>
      </trkpt>
      <trkpt lat="50.23041" lon="1.67452">
        <ele>4.1</ele>
        <time>2020-06-18T16:38:07Z</time>
      </trkpt>
      <trkpt lat="50.23043" lon="1.67442">
        <ele>4.1</ele>
        <time>2020-06-18T16:38:08Z</time>
      </trkpt>
      <trkpt lat="50.23045" lon="1.67431">
        <ele>4.1</ele>
        <time>2020-06-18T16:38:09Z</time>
      </trkpt>
      <trkpt lat="50.23046" lon="1.67421">
        <ele>4</ele>
        <time>2020-06-18T16:38:10Z</time>
      </trkpt>
      <trkpt lat="50.23048" lon="1.6741">
        <ele>4</ele>
        <time>2020-06-18T16:38:11Z</time>
      </trkpt>
      <trkpt lat="50.23049" lon="1.67399">
        <ele>3.9</ele>
        <time>2020-06-18T16:38:12Z</time>
      </trkpt>
      <trkpt lat="50.23051" lon="1.67389">
        <ele>3.9</ele>
        <time>2020-06-18T16:38:13Z</time>
      </trkpt>
      <trkpt lat="50.23054" lon="1.67379">
        <ele>3.9</ele>
        <time>2020-06-18T16:38:14Z</time>
      </trkpt>
      <trkpt lat="50.23057" lon="1.67369">
        <ele>3.9</ele>
        <time>2020-06-18T16:38:15Z</time>
      </trkpt>
      <trkpt lat="50.2306" lon="1.67359">
        <ele>3.9</ele>
        <time>2020-06-18T16:38:16Z</time>
      </trkpt>
      <trkpt lat="50.23064" lon="1.67348">
        <ele>3.8</ele>
        <time>2020-06-18T16:38:17Z</time>
      </trkpt>
      <trkpt lat="50.23067" lon="1.67339">
        <ele>3.8</ele>
        <time>2020-06-18T16:38:18Z</time>
      </trkpt>
      <trkpt lat="50.23072" lon="1.6733">
        <ele>3.8</ele>
        <time>2020-06-18T16:38:19Z</time>
      </trkpt>
      <trkpt lat="50.23076" lon="1.67322">
        <ele>3.8</ele>
        <time>2020-06-18T16:38:20Z</time>
      </trkpt>
      <trkpt lat="50.2308" lon="1.67313">
        <ele>3.8</ele>
        <time>2020-06-18T16:38:21Z</time>
      </trkpt>
      <trkpt lat="50.23085" lon="1.67305">
        <ele>3.7</ele>
        <time>2020-06-18T16:38:22Z</time>
      </trkpt>
      <trkpt lat="50.2309" lon="1.67297">
        <ele>3.7</ele>
        <time>2020-06-18T16:38:23Z</time>
      </trkpt>
      <trkpt lat="50.23095" lon="1.6729">
        <ele>3.7</ele>
        <time>2020-06-18T16:38:24Z</time>
      </trkpt>
      <trkpt lat="50.231" lon="1.67282">
        <ele>3.7</ele>
        <time>2020-06-18T16:38:25Z</time>
      </trkpt>
      <trkpt lat="50.23106" lon="1.67275">
        <ele>3.7</ele>
        <time>2020-06-18T16:38:26Z</time>
      </trkpt>
      <trkpt lat="50.23112" lon="1.67268">
        <ele>3.8</ele>
        <time>2020-06-18T16:38:27Z</time>
      </trkpt>
      <trkpt lat="50.23118" lon="1.67262">
        <ele>3.8</ele>
        <time>2020-06-18T16:38:28Z</time>
      </trkpt>
      <trkpt lat="50.23123" lon="1.67255">
        <ele>3.8</ele>
        <time>2020-06-18T16:38:29Z</time>
      </trkpt>
      <trkpt lat="50.23129" lon="1.67248">
        <ele>3.7</ele>
        <time>2020-06-18T16:38:30Z</time>
      </trkpt>
      <trkpt lat="50.23135" lon="1.67242">
        <ele>3.7</ele>
        <time>2020-06-18T16:38:31Z</time>
      </trkpt>
      <trkpt lat="50.23141" lon="1.67236">
        <ele>3.7</ele>
        <time>2020-06-18T16:38:32Z</time>
      </trkpt>
      <trkpt lat="50.23147" lon="1.67229">
        <ele>3.8</ele>
        <time>2020-06-18T16:38:33Z</time>
      </trkpt>
      <trkpt lat="50.23153" lon="1.67223">
        <ele>3.8</ele>
        <time>2020-06-18T16:38:34Z</time>
      </trkpt>
      <trkpt lat="50.23158" lon="1.67217">
        <ele>3.8</ele>
        <time>2020-06-18T16:38:35Z</time>
      </trkpt>
      <trkpt lat="50.23164" lon="1.6721">
        <ele>3.8</ele>
        <time>2020-06-18T16:38:36Z</time>
      </trkpt>
      <trkpt lat="50.23169" lon="1.67203">
        <ele>3.9</ele>
        <time>2020-06-18T16:38:37Z</time>
      </trkpt>
      <trkpt lat="50.23175" lon="1.67197">
        <ele>3.9</ele>
        <time>2020-06-18T16:38:38Z</time>
      </trkpt>
      <trkpt lat="50.23181" lon="1.67191">
        <ele>4</ele>
        <time>2020-06-18T16:38:39Z</time>
      </trkpt>
      <trkpt lat="50.23187" lon="1.67185">
        <ele>4</ele>
        <time>2020-06-18T16:38:40Z</time>
      </trkpt>
      <trkpt lat="50.23193" lon="1.67179">
        <ele>4</ele>
        <time>2020-06-18T16:38:41Z</time>
      </trkpt>
      <trkpt lat="50.232" lon="1.67174">
        <ele>3.9</ele>
        <time>2020-06-18T16:38:42Z</time>
      </trkpt>
      <trkpt lat="50.23206" lon="1.67169">
        <ele>3.9</ele>
        <time>2020-06-18T16:38:43Z</time>
      </trkpt>
      <trkpt lat="50.23212" lon="1.67164">
        <ele>3.9</ele>
        <time>2020-06-18T16:38:44Z</time>
      </trkpt>
      <trkpt lat="50.23218" lon="1.67158">
        <ele>3.9</ele>
        <time>2020-06-18T16:38:45Z</time>
      </trkpt>
      <trkpt lat="50.23224" lon="1.67153">
        <ele>3.9</ele>
        <time>2020-06-18T16:38:46Z</time>
      </trkpt>
      <trkpt lat="50.2323" lon="1.67147">
        <ele>3.9</ele>
        <time>2020-06-18T16:38:47Z</time>
      </trkpt>
      <trkpt lat="50.23236" lon="1.67142">
        <ele>3.9</ele>
        <time>2020-06-18T16:38:48Z</time>
      </trkpt>
      <trkpt lat="50.23242" lon="1.67137">
        <ele>3.8</ele>
        <time>2020-06-18T16:38:49Z</time>
      </trkpt>
      <trkpt lat="50.23249" lon="1.67132">
        <ele>3.8</ele>
        <time>2020-06-18T16:38:50Z</time>
      </trkpt>
      <trkpt lat="50.23255" lon="1.67127">
        <ele>3.8</ele>
        <time>2020-06-18T16:38:51Z</time>
      </trkpt>
      <trkpt lat="50.23261" lon="1.67122">
        <ele>3.8</ele>
        <time>2020-06-18T16:38:52Z</time>
      </trkpt>
      <trkpt lat="50.23268" lon="1.67116">
        <ele>3.8</ele>
        <time>2020-06-18T16:38:53Z</time>
      </trkpt>
      <trkpt lat="50.23274" lon="1.67111">
        <ele>3.8</ele>
        <time>2020-06-18T16:38:54Z</time>
      </trkpt>
      <trkpt lat="50.23281" lon="1.67106">
        <ele>3.8</ele>
        <time>2020-06-18T16:38:55Z</time>
      </trkpt>
      <trkpt lat="50.23287" lon="1.671">
        <ele>3.8</ele>
        <time>2020-06-18T16:38:56Z</time>
      </trkpt>
      <trkpt lat="50.23293" lon="1.67095">
        <ele>3.8</ele>
        <time>2020-06-18T16:38:57Z</time>
      </trkpt>
      <trkpt lat="50.233" lon="1.67089">
        <ele>3.8</ele>
        <time>2020-06-18T16:38:58Z</time>
      </trkpt>
      <trkpt lat="50.23306" lon="1.67083">
        <ele>3.8</ele>
        <time>2020-06-18T16:38:59Z</time>
      </trkpt>
      <trkpt lat="50.23313" lon="1.67077">
        <ele>3.8</ele>
        <time>2020-06-18T16:39:00Z</time>
      </trkpt>
      <trkpt lat="50.23319" lon="1.67071">
        <ele>3.8</ele>
        <time>2020-06-18T16:39:01Z</time>
      </trkpt>
      <trkpt lat="50.23325" lon="1.67066">
        <ele>3.8</ele>
        <time>2020-06-18T16:39:02Z</time>
      </trkpt>
      <trkpt lat="50.23332" lon="1.6706">
        <ele>3.7</ele>
        <time>2020-06-18T16:39:03Z</time>
      </trkpt>
      <trkpt lat="50.23338" lon="1.67054">
        <ele>3.7</ele>
        <time>2020-06-18T16:39:04Z</time>
      </trkpt>
      <trkpt lat="50.23344" lon="1.67049">
        <ele>3.7</ele>
        <time>2020-06-18T16:39:05Z</time>
      </trkpt>
      <trkpt lat="50.23351" lon="1.67043">
        <ele>3.7</ele>
        <time>2020-06-18T16:39:06Z</time>
      </trkpt>
      <trkpt lat="50.23357" lon="1.67038">
        <ele>3.7</ele>
        <time>2020-06-18T16:39:07Z</time>
      </trkpt>
      <trkpt lat="50.23363" lon="1.67032">
        <ele>3.6</ele>
        <time>2020-06-18T16:39:08Z</time>
      </trkpt>
      <trkpt lat="50.2337" lon="1.67027">
        <ele>3.6</ele>
        <time>2020-06-18T16:39:09Z</time>
      </trkpt>
      <trkpt lat="50.23376" lon="1.67021">
        <ele>3.6</ele>
        <time>2020-06-18T16:39:10Z</time>
      </trkpt>
      <trkpt lat="50.23382" lon="1.67016">
        <ele>3.6</ele>
        <time>2020-06-18T16:39:11Z</time>
      </trkpt>
      <trkpt lat="50.23389" lon="1.6701">
        <ele>3.6</ele>
        <time>2020-06-18T16:39:12Z</time>
      </trkpt>
      <trkpt lat="50.23395" lon="1.67004">
        <ele>3.5</ele>
        <time>2020-06-18T16:39:13Z</time>
      </trkpt>
      <trkpt lat="50.23401" lon="1.66999">
        <ele>3.5</ele>
        <time>2020-06-18T16:39:14Z</time>
      </trkpt>
      <trkpt lat="50.23407" lon="1.66994">
        <ele>3.5</ele>
        <time>2020-06-18T16:39:15Z</time>
      </trkpt>
      <trkpt lat="50.23413" lon="1.66988">
        <ele>3.5</ele>
        <time>2020-06-18T16:39:16Z</time>
      </trkpt>
      <trkpt lat="50.23419" lon="1.66983">
        <ele>3.5</ele>
        <time>2020-06-18T16:39:17Z</time>
      </trkpt>
      <trkpt lat="50.23425" lon="1.66977">
        <ele>3.5</ele>
        <time>2020-06-18T16:39:18Z</time>
      </trkpt>
      <trkpt lat="50.23431" lon="1.66971">
        <ele>3.4</ele>
        <time>2020-06-18T16:39:19Z</time>
      </trkpt>
      <trkpt lat="50.23437" lon="1.66965">
        <ele>3.5</ele>
        <time>2020-06-18T16:39:20Z</time>
      </trkpt>
      <trkpt lat="50.23443" lon="1.66958">
        <ele>3.5</ele>
        <time>2020-06-18T16:39:21Z</time>
      </trkpt>
      <trkpt lat="50.23448" lon="1.66951">
        <ele>3.5</ele>
        <time>2020-06-18T16:39:22Z</time>
      </trkpt>
      <trkpt lat="50.23453" lon="1.66943">
        <ele>3.6</ele>
        <time>2020-06-18T16:39:23Z</time>
      </trkpt>
      <trkpt lat="50.23458" lon="1.66936">
        <ele>3.7</ele>
        <time>2020-06-18T16:39:24Z</time>
      </trkpt>
      <trkpt lat="50.23463" lon="1.66929">
        <ele>3.6</ele>
        <time>2020-06-18T16:39:25Z</time>
      </trkpt>
      <trkpt lat="50.23469" lon="1.66923">
        <ele>3.6</ele>
        <time>2020-06-18T16:39:26Z</time>
      </trkpt>
      <trkpt lat="50.23476" lon="1.66919">
        <ele>3.6</ele>
        <time>2020-06-18T16:39:27Z</time>
      </trkpt>
      <trkpt lat="50.23482" lon="1.66916">
        <ele>3.6</ele>
        <time>2020-06-18T16:39:28Z</time>
      </trkpt>
      <trkpt lat="50.23489" lon="1.66915">
        <ele>3.6</ele>
        <time>2020-06-18T16:39:29Z</time>
      </trkpt>
      <trkpt lat="50.23496" lon="1.66913">
        <ele>3.6</ele>
        <time>2020-06-18T16:39:30Z</time>
      </trkpt>
      <trkpt lat="50.23502" lon="1.66915">
        <ele>3.6</ele>
        <time>2020-06-18T16:39:31Z</time>
      </trkpt>
      <trkpt lat="50.23509" lon="1.66918">
        <ele>3.6</ele>
        <time>2020-06-18T16:39:32Z</time>
      </trkpt>
      <trkpt lat="50.23515" lon="1.66921">
        <ele>3.6</ele>
        <time>2020-06-18T16:39:33Z</time>
      </trkpt>
      <trkpt lat="50.23521" lon="1.66925">
        <ele>3.6</ele>
        <time>2020-06-18T16:39:34Z</time>
      </trkpt>
      <trkpt lat="50.23528" lon="1.66929">
        <ele>3.6</ele>
        <time>2020-06-18T16:39:35Z</time>
      </trkpt>
      <trkpt lat="50.23534" lon="1.66933">
        <ele>3.6</ele>
        <time>2020-06-18T16:39:36Z</time>
      </trkpt>
      <trkpt lat="50.23541" lon="1.66937">
        <ele>3.6</ele>
        <time>2020-06-18T16:39:37Z</time>
      </trkpt>
      <trkpt lat="50.23547" lon="1.66941">
        <ele>3.6</ele>
        <time>2020-06-18T16:39:38Z</time>
      </trkpt>
      <trkpt lat="50.23554" lon="1.66944">
        <ele>3.6</ele>
        <time>2020-06-18T16:39:39Z</time>
      </trkpt>
      <trkpt lat="50.23561" lon="1.66947">
        <ele>3.6</ele>
        <time>2020-06-18T16:39:40Z</time>
      </trkpt>
      <trkpt lat="50.23567" lon="1.66951">
        <ele>3.6</ele>
        <time>2020-06-18T16:39:41Z</time>
      </trkpt>
      <trkpt lat="50.23574" lon="1.66954">
        <ele>3.6</ele>
        <time>2020-06-18T16:39:42Z</time>
      </trkpt>
      <trkpt lat="50.23581" lon="1.66958">
        <ele>3.6</ele>
        <time>2020-06-18T16:39:43Z</time>
      </trkpt>
      <trkpt lat="50.23588" lon="1.66962">
        <ele>3.6</ele>
        <time>2020-06-18T16:39:44Z</time>
      </trkpt>
      <trkpt lat="50.23595" lon="1.66965">
        <ele>3.6</ele>
        <time>2020-06-18T16:39:45Z</time>
      </trkpt>
      <trkpt lat="50.23602" lon="1.66968">
        <ele>3.6</ele>
        <time>2020-06-18T16:39:46Z</time>
      </trkpt>
      <trkpt lat="50.23609" lon="1.66973">
        <ele>3.6</ele>
        <time>2020-06-18T16:39:47Z</time>
      </trkpt>
      <trkpt lat="50.23616" lon="1.66976">
        <ele>3.6</ele>
        <time>2020-06-18T16:39:48Z</time>
      </trkpt>
      <trkpt lat="50.23623" lon="1.6698">
        <ele>3.6</ele>
        <time>2020-06-18T16:39:49Z</time>
      </trkpt>
      <trkpt lat="50.2363" lon="1.66984">
        <ele>3.6</ele>
        <time>2020-06-18T16:39:50Z</time>
      </trkpt>
      <trkpt lat="50.23636" lon="1.66987">
        <ele>3.6</ele>
        <time>2020-06-18T16:39:51Z</time>
      </trkpt>
      <trkpt lat="50.23643" lon="1.66991">
        <ele>3.6</ele>
        <time>2020-06-18T16:39:52Z</time>
      </trkpt>
      <trkpt lat="50.2365" lon="1.66995">
        <ele>3.6</ele>
        <time>2020-06-18T16:39:53Z</time>
      </trkpt>
      <trkpt lat="50.23656" lon="1.66999">
        <ele>3.6</ele>
        <time>2020-06-18T16:39:54Z</time>
      </trkpt>
      <trkpt lat="50.23663" lon="1.67001">
        <ele>3.6</ele>
        <time>2020-06-18T16:39:55Z</time>
      </trkpt>
      <trkpt lat="50.23669" lon="1.67004">
        <ele>3.6</ele>
        <time>2020-06-18T16:39:56Z</time>
      </trkpt>
      <trkpt lat="50.23675" lon="1.67007">
        <ele>3.6</ele>
        <time>2020-06-18T16:39:57Z</time>
      </trkpt>
      <trkpt lat="50.23681" lon="1.67009">
        <ele>3.7</ele>
        <time>2020-06-18T16:39:58Z</time>
      </trkpt>
      <trkpt lat="50.23686" lon="1.67012">
        <ele>3.7</ele>
        <time>2020-06-18T16:39:59Z</time>
      </trkpt>
      <trkpt lat="50.23692" lon="1.67014">
        <ele>3.7</ele>
        <time>2020-06-18T16:40:00Z</time>
      </trkpt>
      <trkpt lat="50.23698" lon="1.67016">
        <ele>3.7</ele>
        <time>2020-06-18T16:40:01Z</time>
      </trkpt>
      <trkpt lat="50.23703" lon="1.67018">
        <ele>3.7</ele>
        <time>2020-06-18T16:40:02Z</time>
      </trkpt>
      <trkpt lat="50.23708" lon="1.67018">
        <ele>3.7</ele>
        <time>2020-06-18T16:40:03Z</time>
      </trkpt>
      <trkpt lat="50.23714" lon="1.67016">
        <ele>3.7</ele>
        <time>2020-06-18T16:40:04Z</time>
      </trkpt>
      <trkpt lat="50.23719" lon="1.67013">
        <ele>3.7</ele>
        <time>2020-06-18T16:40:05Z</time>
      </trkpt>
      <trkpt lat="50.23724" lon="1.67007">
        <ele>3.7</ele>
        <time>2020-06-18T16:40:06Z</time>
      </trkpt>
      <trkpt lat="50.23728" lon="1.66998">
        <ele>3.7</ele>
        <time>2020-06-18T16:40:07Z</time>
      </trkpt>
      <trkpt lat="50.23731" lon="1.6699">
        <ele>3.7</ele>
        <time>2020-06-18T16:40:08Z</time>
      </trkpt>
      <trkpt lat="50.23734" lon="1.66981">
        <ele>3.7</ele>
        <time>2020-06-18T16:40:09Z</time>
      </trkpt>
      <trkpt lat="50.23736" lon="1.66972">
        <ele>3.7</ele>
        <time>2020-06-18T16:40:10Z</time>
      </trkpt>
      <trkpt lat="50.23738" lon="1.66962">
        <ele>3.7</ele>
        <time>2020-06-18T16:40:11Z</time>
      </trkpt>
      <trkpt lat="50.2374" lon="1.66952">
        <ele>3.7</ele>
        <time>2020-06-18T16:40:12Z</time>
      </trkpt>
      <trkpt lat="50.23742" lon="1.66943">
        <ele>3.7</ele>
        <time>2020-06-18T16:40:13Z</time>
      </trkpt>
      <trkpt lat="50.23744" lon="1.66933">
        <ele>3.7</ele>
        <time>2020-06-18T16:40:14Z</time>
      </trkpt>
      <trkpt lat="50.23747" lon="1.66923">
        <ele>3.7</ele>
        <time>2020-06-18T16:40:15Z</time>
      </trkpt>
      <trkpt lat="50.23749" lon="1.66913">
        <ele>3.7</ele>
        <time>2020-06-18T16:40:16Z</time>
      </trkpt>
      <trkpt lat="50.2375" lon="1.66903">
        <ele>3.7</ele>
        <time>2020-06-18T16:40:17Z</time>
      </trkpt>
      <trkpt lat="50.23752" lon="1.66893">
        <ele>3.8</ele>
        <time>2020-06-18T16:40:18Z</time>
      </trkpt>
      <trkpt lat="50.23754" lon="1.66883">
        <ele>3.8</ele>
        <time>2020-06-18T16:40:19Z</time>
      </trkpt>
      <trkpt lat="50.23755" lon="1.66872">
        <ele>3.9</ele>
        <time>2020-06-18T16:40:20Z</time>
      </trkpt>
      <trkpt lat="50.23757" lon="1.66862">
        <ele>3.9</ele>
        <time>2020-06-18T16:40:21Z</time>
      </trkpt>
      <trkpt lat="50.23758" lon="1.66852">
        <ele>4</ele>
        <time>2020-06-18T16:40:22Z</time>
      </trkpt>
      <trkpt lat="50.23759" lon="1.66841">
        <ele>4.1</ele>
        <time>2020-06-18T16:40:23Z</time>
      </trkpt>
      <trkpt lat="50.23759" lon="1.6683">
        <ele>4.1</ele>
        <time>2020-06-18T16:40:24Z</time>
      </trkpt>
      <trkpt lat="50.2376" lon="1.6682">
        <ele>4</ele>
        <time>2020-06-18T16:40:25Z</time>
      </trkpt>
      <trkpt lat="50.2376" lon="1.66809">
        <ele>3.9</ele>
        <time>2020-06-18T16:40:26Z</time>
      </trkpt>
      <trkpt lat="50.2376" lon="1.66799">
        <ele>3.8</ele>
        <time>2020-06-18T16:40:27Z</time>
      </trkpt>
      <trkpt lat="50.23759" lon="1.66788">
        <ele>3.8</ele>
        <time>2020-06-18T16:40:28Z</time>
      </trkpt>
      <trkpt lat="50.23758" lon="1.66778">
        <ele>3.8</ele>
        <time>2020-06-18T16:40:29Z</time>
      </trkpt>
      <trkpt lat="50.23756" lon="1.66768">
        <ele>3.7</ele>
        <time>2020-06-18T16:40:30Z</time>
      </trkpt>
      <trkpt lat="50.23753" lon="1.66757">
        <ele>3.7</ele>
        <time>2020-06-18T16:40:31Z</time>
      </trkpt>
      <trkpt lat="50.23752" lon="1.66747">
        <ele>3.7</ele>
        <time>2020-06-18T16:40:32Z</time>
      </trkpt>
      <trkpt lat="50.2375" lon="1.66736">
        <ele>3.6</ele>
        <time>2020-06-18T16:40:33Z</time>
      </trkpt>
      <trkpt lat="50.23748" lon="1.66725">
        <ele>3.6</ele>
        <time>2020-06-18T16:40:34Z</time>
      </trkpt>
      <trkpt lat="50.23746" lon="1.66714">
        <ele>3.6</ele>
        <time>2020-06-18T16:40:35Z</time>
      </trkpt>
      <trkpt lat="50.23744" lon="1.66704">
        <ele>3.5</ele>
        <time>2020-06-18T16:40:36Z</time>
      </trkpt>
      <trkpt lat="50.23743" lon="1.66693">
        <ele>3.5</ele>
        <time>2020-06-18T16:40:37Z</time>
      </trkpt>
      <trkpt lat="50.23741" lon="1.66682">
        <ele>3.5</ele>
        <time>2020-06-18T16:40:38Z</time>
      </trkpt>
      <trkpt lat="50.23739" lon="1.66671">
        <ele>3.5</ele>
        <time>2020-06-18T16:40:39Z</time>
      </trkpt>
      <trkpt lat="50.23739" lon="1.66661">
        <ele>3.6</ele>
        <time>2020-06-18T16:40:40Z</time>
      </trkpt>
      <trkpt lat="50.23738" lon="1.6665">
        <ele>3.6</ele>
        <time>2020-06-18T16:40:41Z</time>
      </trkpt>
      <trkpt lat="50.23738" lon="1.66639">
        <ele>3.6</ele>
        <time>2020-06-18T16:40:42Z</time>
      </trkpt>
      <trkpt lat="50.23739" lon="1.66629">
        <ele>3.7</ele>
        <time>2020-06-18T16:40:43Z</time>
      </trkpt>
      <trkpt lat="50.2374" lon="1.66618">
        <ele>3.7</ele>
        <time>2020-06-18T16:40:44Z</time>
      </trkpt>
      <trkpt lat="50.23741" lon="1.66608">
        <ele>3.7</ele>
        <time>2020-06-18T16:40:45Z</time>
      </trkpt>
      <trkpt lat="50.23744" lon="1.66598">
        <ele>3.7</ele>
        <time>2020-06-18T16:40:46Z</time>
      </trkpt>
      <trkpt lat="50.23748" lon="1.66589">
        <ele>3.7</ele>
        <time>2020-06-18T16:40:47Z</time>
      </trkpt>
      <trkpt lat="50.23751" lon="1.6658">
        <ele>3.7</ele>
        <time>2020-06-18T16:40:48Z</time>
      </trkpt>
      <trkpt lat="50.23754" lon="1.66571">
        <ele>3.8</ele>
        <time>2020-06-18T16:40:49Z</time>
      </trkpt>
      <trkpt lat="50.23758" lon="1.66563">
        <ele>3.8</ele>
        <time>2020-06-18T16:40:50Z</time>
      </trkpt>
      <trkpt lat="50.23762" lon="1.66554">
        <ele>3.8</ele>
        <time>2020-06-18T16:40:51Z</time>
      </trkpt>
      <trkpt lat="50.23765" lon="1.66545">
        <ele>3.8</ele>
        <time>2020-06-18T16:40:52Z</time>
      </trkpt>
      <trkpt lat="50.23769" lon="1.66536">
        <ele>3.8</ele>
        <time>2020-06-18T16:40:53Z</time>
      </trkpt>
      <trkpt lat="50.23772" lon="1.66528">
        <ele>3.8</ele>
        <time>2020-06-18T16:40:54Z</time>
      </trkpt>
      <trkpt lat="50.23776" lon="1.6652">
        <ele>3.8</ele>
        <time>2020-06-18T16:40:55Z</time>
      </trkpt>
      <trkpt lat="50.23779" lon="1.66511">
        <ele>3.8</ele>
        <time>2020-06-18T16:40:56Z</time>
      </trkpt>
      <trkpt lat="50.23782" lon="1.66503">
        <ele>3.8</ele>
        <time>2020-06-18T16:40:57Z</time>
      </trkpt>
      <trkpt lat="50.23785" lon="1.66495">
        <ele>3.9</ele>
        <time>2020-06-18T16:40:58Z</time>
      </trkpt>
      <trkpt lat="50.23788" lon="1.66488">
        <ele>3.9</ele>
        <time>2020-06-18T16:40:59Z</time>
      </trkpt>
      <trkpt lat="50.23791" lon="1.6648">
        <ele>3.9</ele>
        <time>2020-06-18T16:41:00Z</time>
      </trkpt>
      <trkpt lat="50.23794" lon="1.66473">
        <ele>3.9</ele>
        <time>2020-06-18T16:41:01Z</time>
      </trkpt>
      <trkpt lat="50.23797" lon="1.66465">
        <ele>3.9</ele>
        <time>2020-06-18T16:41:02Z</time>
      </trkpt>
      <trkpt lat="50.238" lon="1.66457">
        <ele>3.9</ele>
        <time>2020-06-18T16:41:03Z</time>
      </trkpt>
      <trkpt lat="50.23804" lon="1.6645">
        <ele>3.9</ele>
        <time>2020-06-18T16:41:04Z</time>
      </trkpt>
      <trkpt lat="50.23808" lon="1.66443">
        <ele>3.9</ele>
        <time>2020-06-18T16:41:05Z</time>
      </trkpt>
      <trkpt lat="50.2381" lon="1.66435">
        <ele>3.9</ele>
        <time>2020-06-18T16:41:06Z</time>
      </trkpt>
      <trkpt lat="50.23812" lon="1.66427">
        <ele>3.9</ele>
        <time>2020-06-18T16:41:07Z</time>
      </trkpt>
      <trkpt lat="50.23814" lon="1.66419">
        <ele>4</ele>
        <time>2020-06-18T16:41:08Z</time>
      </trkpt>
      <trkpt lat="50.23815" lon="1.6641">
        <ele>4</ele>
        <time>2020-06-18T16:41:09Z</time>
      </trkpt>
      <trkpt lat="50.23813" lon="1.66401">
        <ele>4</ele>
        <time>2020-06-18T16:41:10Z</time>
      </trkpt>
      <trkpt lat="50.23811" lon="1.66393">
        <ele>4</ele>
        <time>2020-06-18T16:41:11Z</time>
      </trkpt>
      <trkpt lat="50.23809" lon="1.66384">
        <ele>4</ele>
        <time>2020-06-18T16:41:12Z</time>
      </trkpt>
      <trkpt lat="50.23807" lon="1.66376">
        <ele>4</ele>
        <time>2020-06-18T16:41:13Z</time>
      </trkpt>
      <trkpt lat="50.23806" lon="1.66367">
        <ele>4</ele>
        <time>2020-06-18T16:41:14Z</time>
      </trkpt>
      <trkpt lat="50.23804" lon="1.66358">
        <ele>4</ele>
        <time>2020-06-18T16:41:15Z</time>
      </trkpt>
      <trkpt lat="50.23802" lon="1.66348">
        <ele>4</ele>
        <time>2020-06-18T16:41:16Z</time>
      </trkpt>
      <trkpt lat="50.238" lon="1.6634">
        <ele>4</ele>
        <time>2020-06-18T16:41:17Z</time>
      </trkpt>
      <trkpt lat="50.23799" lon="1.66331">
        <ele>4</ele>
        <time>2020-06-18T16:41:18Z</time>
      </trkpt>
      <trkpt lat="50.23798" lon="1.66322">
        <ele>4</ele>
        <time>2020-06-18T16:41:19Z</time>
      </trkpt>
      <trkpt lat="50.23796" lon="1.66313">
        <ele>4</ele>
        <time>2020-06-18T16:41:20Z</time>
      </trkpt>
      <trkpt lat="50.23794" lon="1.66305">
        <ele>4</ele>
        <time>2020-06-18T16:41:21Z</time>
      </trkpt>
      <trkpt lat="50.23791" lon="1.66297">
        <ele>4</ele>
        <time>2020-06-18T16:41:22Z</time>
      </trkpt>
      <trkpt lat="50.23788" lon="1.6629">
        <ele>4.1</ele>
        <time>2020-06-18T16:41:23Z</time>
      </trkpt>
      <trkpt lat="50.23786" lon="1.66282">
        <ele>4.1</ele>
        <time>2020-06-18T16:41:24Z</time>
      </trkpt>
      <trkpt lat="50.23785" lon="1.66274">
        <ele>4</ele>
        <time>2020-06-18T16:41:25Z</time>
      </trkpt>
      <trkpt lat="50.23783" lon="1.66266">
        <ele>4</ele>
        <time>2020-06-18T16:41:26Z</time>
      </trkpt>
      <trkpt lat="50.23781" lon="1.66258">
        <ele>4</ele>
        <time>2020-06-18T16:41:27Z</time>
      </trkpt>
      <trkpt lat="50.2378" lon="1.66251">
        <ele>4</ele>
        <time>2020-06-18T16:41:28Z</time>
      </trkpt>
      <trkpt lat="50.23781" lon="1.66243">
        <ele>4</ele>
        <time>2020-06-18T16:41:29Z</time>
      </trkpt>
      <trkpt lat="50.23782" lon="1.66237">
        <ele>3.9</ele>
        <time>2020-06-18T16:41:30Z</time>
      </trkpt>
      <trkpt lat="50.23782" lon="1.6623">
        <ele>4</ele>
        <time>2020-06-18T16:41:31Z</time>
      </trkpt>
      <trkpt lat="50.23782" lon="1.66224">
        <ele>4</ele>
        <time>2020-06-18T16:41:32Z</time>
      </trkpt>
      <trkpt lat="50.23782" lon="1.66218">
        <ele>4.1</ele>
        <time>2020-06-18T16:41:33Z</time>
      </trkpt>
      <trkpt lat="50.23781" lon="1.66212">
        <ele>4.1</ele>
        <time>2020-06-18T16:41:34Z</time>
      </trkpt>
      <trkpt lat="50.2378" lon="1.66206">
        <ele>4.2</ele>
        <time>2020-06-18T16:41:35Z</time>
      </trkpt>
      <trkpt lat="50.2378" lon="1.662">
        <ele>4.3</ele>
        <time>2020-06-18T16:41:36Z</time>
      </trkpt>
      <trkpt lat="50.23781" lon="1.66196">
        <ele>4.3</ele>
        <time>2020-06-18T16:41:37Z</time>
      </trkpt>
      <trkpt lat="50.23784" lon="1.66193">
        <ele>4.3</ele>
        <time>2020-06-18T16:41:38Z</time>
      </trkpt>
      <trkpt lat="50.23785" lon="1.66193">
        <ele>4.3</ele>
        <time>2020-06-18T16:41:39Z</time>
      </trkpt>
      <trkpt lat="50.23789" lon="1.66195">
        <ele>4.2</ele>
        <time>2020-06-18T16:41:40Z</time>
      </trkpt>
      <trkpt lat="50.23791" lon="1.66199">
        <ele>4.2</ele>
        <time>2020-06-18T16:41:41Z</time>
      </trkpt>
      <trkpt lat="50.23795" lon="1.66203">
        <ele>4.2</ele>
        <time>2020-06-18T16:41:42Z</time>
      </trkpt>
      <trkpt lat="50.23799" lon="1.66207">
        <ele>4.2</ele>
        <time>2020-06-18T16:41:43Z</time>
      </trkpt>
      <trkpt lat="50.23804" lon="1.66213">
        <ele>4.1</ele>
        <time>2020-06-18T16:41:44Z</time>
      </trkpt>
      <trkpt lat="50.23808" lon="1.66218">
        <ele>4.1</ele>
        <time>2020-06-18T16:41:45Z</time>
      </trkpt>
      <trkpt lat="50.23812" lon="1.66223">
        <ele>4.1</ele>
        <time>2020-06-18T16:41:46Z</time>
      </trkpt>
      <trkpt lat="50.23817" lon="1.66225">
        <ele>4.1</ele>
        <time>2020-06-18T16:41:47Z</time>
      </trkpt>
      <trkpt lat="50.23823" lon="1.66226">
        <ele>4</ele>
        <time>2020-06-18T16:41:48Z</time>
      </trkpt>
      <trkpt lat="50.23828" lon="1.66227">
        <ele>3.9</ele>
        <time>2020-06-18T16:41:49Z</time>
      </trkpt>
      <trkpt lat="50.23833" lon="1.66228">
        <ele>3.9</ele>
        <time>2020-06-18T16:41:50Z</time>
      </trkpt>
      <trkpt lat="50.23838" lon="1.66231">
        <ele>3.8</ele>
        <time>2020-06-18T16:41:51Z</time>
      </trkpt>
      <trkpt lat="50.23841" lon="1.66232">
        <ele>3.8</ele>
        <time>2020-06-18T16:41:52Z</time>
      </trkpt>
      <trkpt lat="50.23846" lon="1.66234">
        <ele>3.8</ele>
        <time>2020-06-18T16:41:53Z</time>
      </trkpt>
      <trkpt lat="50.2385" lon="1.66232">
        <ele>3.7</ele>
        <time>2020-06-18T16:41:54Z</time>
      </trkpt>
      <trkpt lat="50.23855" lon="1.6623">
        <ele>3.7</ele>
        <time>2020-06-18T16:41:55Z</time>
      </trkpt>
      <trkpt lat="50.23859" lon="1.66228">
        <ele>3.7</ele>
        <time>2020-06-18T16:41:56Z</time>
      </trkpt>
      <trkpt lat="50.23862" lon="1.66225">
        <ele>3.7</ele>
        <time>2020-06-18T16:41:57Z</time>
      </trkpt>
      <trkpt lat="50.23865" lon="1.66225">
        <ele>3.7</ele>
        <time>2020-06-18T16:41:58Z</time>
      </trkpt>
      <trkpt lat="50.23868" lon="1.66224">
        <ele>3.7</ele>
        <time>2020-06-18T16:41:59Z</time>
      </trkpt>
      <trkpt lat="50.2387" lon="1.66222">
        <ele>3.8</ele>
        <time>2020-06-18T16:42:00Z</time>
      </trkpt>
      <trkpt lat="50.23871" lon="1.66222">
        <ele>3.8</ele>
        <time>2020-06-18T16:42:01Z</time>
      </trkpt>
      <trkpt lat="50.23871" lon="1.66222">
        <ele>3.8</ele>
        <time>2020-06-18T16:42:02Z</time>
      </trkpt>
      <trkpt lat="50.23872" lon="1.66222">
        <ele>3.8</ele>
        <time>2020-06-18T16:42:03Z</time>
      </trkpt>
      <trkpt lat="50.23873" lon="1.66223">
        <ele>3.8</ele>
        <time>2020-06-18T16:42:04Z</time>
      </trkpt>
      <trkpt lat="50.23873" lon="1.66224">
        <ele>3.8</ele>
        <time>2020-06-18T16:42:05Z</time>
      </trkpt>
      <trkpt lat="50.23874" lon="1.66226">
        <ele>3.8</ele>
        <time>2020-06-18T16:42:06Z</time>
      </trkpt>
      <trkpt lat="50.23874" lon="1.66228">
        <ele>3.8</ele>
        <time>2020-06-18T16:42:07Z</time>
      </trkpt>
      <trkpt lat="50.23875" lon="1.66232">
        <ele>3.8</ele>
        <time>2020-06-18T16:42:08Z</time>
      </trkpt>
      <trkpt lat="50.23876" lon="1.66238">
        <ele>3.8</ele>
        <time>2020-06-18T16:42:09Z</time>
      </trkpt>
      <trkpt lat="50.23879" lon="1.66243">
        <ele>3.8</ele>
        <time>2020-06-18T16:42:10Z</time>
      </trkpt>
      <trkpt lat="50.23882" lon="1.66248">
        <ele>3.8</ele>
        <time>2020-06-18T16:42:11Z</time>
      </trkpt>
      <trkpt lat="50.23886" lon="1.66253">
        <ele>3.8</ele>
        <time>2020-06-18T16:42:12Z</time>
      </trkpt>
      <trkpt lat="50.23889" lon="1.66257">
        <ele>3.8</ele>
        <time>2020-06-18T16:42:13Z</time>
      </trkpt>
      <trkpt lat="50.23893" lon="1.66262">
        <ele>3.8</ele>
        <time>2020-06-18T16:42:14Z</time>
      </trkpt>
      <trkpt lat="50.23896" lon="1.66266">
        <ele>3.8</ele>
        <time>2020-06-18T16:42:15Z</time>
      </trkpt>
      <trkpt lat="50.23899" lon="1.6627">
        <ele>3.8</ele>
        <time>2020-06-18T16:42:16Z</time>
      </trkpt>
      <trkpt lat="50.23903" lon="1.66275">
        <ele>3.8</ele>
        <time>2020-06-18T16:42:17Z</time>
      </trkpt>
      <trkpt lat="50.23906" lon="1.66279">
        <ele>3.8</ele>
        <time>2020-06-18T16:42:18Z</time>
      </trkpt>
      <trkpt lat="50.23908" lon="1.66284">
        <ele>3.8</ele>
        <time>2020-06-18T16:42:19Z</time>
      </trkpt>
      <trkpt lat="50.23911" lon="1.66289">
        <ele>3.7</ele>
        <time>2020-06-18T16:42:20Z</time>
      </trkpt>
      <trkpt lat="50.23914" lon="1.66294">
        <ele>3.8</ele>
        <time>2020-06-18T16:42:21Z</time>
      </trkpt>
      <trkpt lat="50.23916" lon="1.66301">
        <ele>3.8</ele>
        <time>2020-06-18T16:42:22Z</time>
      </trkpt>
      <trkpt lat="50.23917" lon="1.66308">
        <ele>3.8</ele>
        <time>2020-06-18T16:42:23Z</time>
      </trkpt>
      <trkpt lat="50.23916" lon="1.66315">
        <ele>3.9</ele>
        <time>2020-06-18T16:42:24Z</time>
      </trkpt>
      <trkpt lat="50.23917" lon="1.66323">
        <ele>4</ele>
        <time>2020-06-18T16:42:25Z</time>
      </trkpt>
      <trkpt lat="50.23917" lon="1.66331">
        <ele>4</ele>
        <time>2020-06-18T16:42:26Z</time>
      </trkpt>
      <trkpt lat="50.23916" lon="1.66339">
        <ele>4.1</ele>
        <time>2020-06-18T16:42:27Z</time>
      </trkpt>
      <trkpt lat="50.23916" lon="1.66347">
        <ele>4.1</ele>
        <time>2020-06-18T16:42:28Z</time>
      </trkpt>
      <trkpt lat="50.23916" lon="1.66357">
        <ele>4.2</ele>
        <time>2020-06-18T16:42:29Z</time>
      </trkpt>
      <trkpt lat="50.23916" lon="1.66365">
        <ele>4.2</ele>
        <time>2020-06-18T16:42:30Z</time>
      </trkpt>
      <trkpt lat="50.23915" lon="1.66374">
        <ele>4.3</ele>
        <time>2020-06-18T16:42:31Z</time>
      </trkpt>
      <trkpt lat="50.23915" lon="1.66383">
        <ele>4.4</ele>
        <time>2020-06-18T16:42:32Z</time>
      </trkpt>
      <trkpt lat="50.23913" lon="1.6639">
        <ele>4.4</ele>
        <time>2020-06-18T16:42:33Z</time>
      </trkpt>
      <trkpt lat="50.23908" lon="1.66394">
        <ele>4.5</ele>
        <time>2020-06-18T16:42:34Z</time>
      </trkpt>
      <trkpt lat="50.23905" lon="1.66399">
        <ele>4.6</ele>
        <time>2020-06-18T16:42:35Z</time>
      </trkpt>
      <trkpt lat="50.23901" lon="1.66405">
        <ele>4.7</ele>
        <time>2020-06-18T16:42:36Z</time>
      </trkpt>
      <trkpt lat="50.23899" lon="1.66412">
        <ele>4.8</ele>
        <time>2020-06-18T16:42:37Z</time>
      </trkpt>
      <trkpt lat="50.23896" lon="1.66418">
        <ele>5</ele>
        <time>2020-06-18T16:42:38Z</time>
      </trkpt>
      <trkpt lat="50.23893" lon="1.66425">
        <ele>5</ele>
        <time>2020-06-18T16:42:39Z</time>
      </trkpt>
      <trkpt lat="50.23892" lon="1.66432">
        <ele>5.1</ele>
        <time>2020-06-18T16:42:40Z</time>
      </trkpt>
      <trkpt lat="50.23891" lon="1.66439">
        <ele>5.1</ele>
        <time>2020-06-18T16:42:41Z</time>
      </trkpt>
      <trkpt lat="50.23892" lon="1.66447">
        <ele>5.2</ele>
        <time>2020-06-18T16:42:42Z</time>
      </trkpt>
      <trkpt lat="50.23893" lon="1.66454">
        <ele>5.2</ele>
        <time>2020-06-18T16:42:43Z</time>
      </trkpt>
      <trkpt lat="50.23893" lon="1.66461">
        <ele>5.2</ele>
        <time>2020-06-18T16:42:44Z</time>
      </trkpt>
      <trkpt lat="50.23894" lon="1.66468">
        <ele>5.2</ele>
        <time>2020-06-18T16:42:45Z</time>
      </trkpt>
      <trkpt lat="50.23895" lon="1.66474">
        <ele>5.2</ele>
        <time>2020-06-18T16:42:46Z</time>
      </trkpt>
      <trkpt lat="50.23896" lon="1.6648">
        <ele>5.2</ele>
        <time>2020-06-18T16:42:47Z</time>
      </trkpt>
      <trkpt lat="50.23898" lon="1.66487">
        <ele>5.2</ele>
        <time>2020-06-18T16:42:48Z</time>
      </trkpt>
      <trkpt lat="50.239" lon="1.66493">
        <ele>5.2</ele>
        <time>2020-06-18T16:42:49Z</time>
      </trkpt>
      <trkpt lat="50.23901" lon="1.66499">
        <ele>5.2</ele>
        <time>2020-06-18T16:42:50Z</time>
      </trkpt>
      <trkpt lat="50.23902" lon="1.66505">
        <ele>5.3</ele>
        <time>2020-06-18T16:42:51Z</time>
      </trkpt>
      <trkpt lat="50.23904" lon="1.66509">
        <ele>5.3</ele>
        <time>2020-06-18T16:42:52Z</time>
      </trkpt>
      <trkpt lat="50.23904" lon="1.66514">
        <ele>5.3</ele>
        <time>2020-06-18T16:42:53Z</time>
      </trkpt>
      <trkpt lat="50.23906" lon="1.66519">
        <ele>5.4</ele>
        <time>2020-06-18T16:42:54Z</time>
      </trkpt>
      <trkpt lat="50.23907" lon="1.66523">
        <ele>5.4</ele>
        <time>2020-06-18T16:42:55Z</time>
      </trkpt>
      <trkpt lat="50.23908" lon="1.66528">
        <ele>5.4</ele>
        <time>2020-06-18T16:42:56Z</time>
      </trkpt>
      <trkpt lat="50.23909" lon="1.6653">
        <ele>5.4</ele>
        <time>2020-06-18T16:42:57Z</time>
      </trkpt>
      <trkpt lat="50.23913" lon="1.6653">
        <ele>5.4</ele>
        <time>2020-06-18T16:42:58Z</time>
      </trkpt>
      <trkpt lat="50.23916" lon="1.66532">
        <ele>5.5</ele>
        <time>2020-06-18T16:42:59Z</time>
      </trkpt>
      <trkpt lat="50.23919" lon="1.66534">
        <ele>5.5</ele>
        <time>2020-06-18T16:43:00Z</time>
      </trkpt>
      <trkpt lat="50.23923" lon="1.66536">
        <ele>5.5</ele>
        <time>2020-06-18T16:43:01Z</time>
      </trkpt>
      <trkpt lat="50.23927" lon="1.6654">
        <ele>5.6</ele>
        <time>2020-06-18T16:43:02Z</time>
      </trkpt>
      <trkpt lat="50.2393" lon="1.66545">
        <ele>5.6</ele>
        <time>2020-06-18T16:43:03Z</time>
      </trkpt>
      <trkpt lat="50.23933" lon="1.6655">
        <ele>5.6</ele>
        <time>2020-06-18T16:43:04Z</time>
      </trkpt>
      <trkpt lat="50.23936" lon="1.66556">
        <ele>5.7</ele>
        <time>2020-06-18T16:43:05Z</time>
      </trkpt>
      <trkpt lat="50.23939" lon="1.66561">
        <ele>5.7</ele>
        <time>2020-06-18T16:43:06Z</time>
      </trkpt>
      <trkpt lat="50.23942" lon="1.66566">
        <ele>5.7</ele>
        <time>2020-06-18T16:43:07Z</time>
      </trkpt>
      <trkpt lat="50.23945" lon="1.66572">
        <ele>5.7</ele>
        <time>2020-06-18T16:43:08Z</time>
      </trkpt>
      <trkpt lat="50.23948" lon="1.66576">
        <ele>5.7</ele>
        <time>2020-06-18T16:43:09Z</time>
      </trkpt>
      <trkpt lat="50.2395" lon="1.6658">
        <ele>5.7</ele>
        <time>2020-06-18T16:43:10Z</time>
      </trkpt>
      <trkpt lat="50.23953" lon="1.66581">
        <ele>5.7</ele>
        <time>2020-06-18T16:43:11Z</time>
      </trkpt>
      <trkpt lat="50.23953" lon="1.66579">
        <ele>5.7</ele>
        <time>2020-06-18T16:43:12Z</time>
      </trkpt>
      <trkpt lat="50.23952" lon="1.66577">
        <ele>5.7</ele>
        <time>2020-06-18T16:43:13Z</time>
      </trkpt>
      <trkpt lat="50.23952" lon="1.66574">
        <ele>5.6</ele>
        <time>2020-06-18T16:43:14Z</time>
      </trkpt>
      <trkpt lat="50.23951" lon="1.6657">
        <ele>5.6</ele>
        <time>2020-06-18T16:43:15Z</time>
      </trkpt>
      <trkpt lat="50.23949" lon="1.66565">
        <ele>5.6</ele>
        <time>2020-06-18T16:43:16Z</time>
      </trkpt>
      <trkpt lat="50.23948" lon="1.66563">
        <ele>5.6</ele>
        <time>2020-06-18T16:43:17Z</time>
      </trkpt>
      <trkpt lat="50.23946" lon="1.66559">
        <ele>5.5</ele>
        <time>2020-06-18T16:43:18Z</time>
      </trkpt>
      <trkpt lat="50.23944" lon="1.66554">
        <ele>5.5</ele>
        <time>2020-06-18T16:43:19Z</time>
      </trkpt>
      <trkpt lat="50.23943" lon="1.66552">
        <ele>5.5</ele>
        <time>2020-06-18T16:43:20Z</time>
      </trkpt>
      <trkpt lat="50.2394" lon="1.66549">
        <ele>5.5</ele>
        <time>2020-06-18T16:43:21Z</time>
      </trkpt>
      <trkpt lat="50.23939" lon="1.66548">
        <ele>5.4</ele>
        <time>2020-06-18T16:43:22Z</time>
      </trkpt>
      <trkpt lat="50.23937" lon="1.66547">
        <ele>5.5</ele>
        <time>2020-06-18T16:43:23Z</time>
      </trkpt>
      <trkpt lat="50.23936" lon="1.66546">
        <ele>5.5</ele>
        <time>2020-06-18T16:43:24Z</time>
      </trkpt>
      <trkpt lat="50.23934" lon="1.66545">
        <ele>5.6</ele>
        <time>2020-06-18T16:43:25Z</time>
      </trkpt>
      <trkpt lat="50.23933" lon="1.66544">
        <ele>5.6</ele>
        <time>2020-06-18T16:43:26Z</time>
      </trkpt>
      <trkpt lat="50.23931" lon="1.6654">
        <ele>5.6</ele>
        <time>2020-06-18T16:43:27Z</time>
      </trkpt>
      <trkpt lat="50.23931" lon="1.66539">
        <ele>5.7</ele>
        <time>2020-06-18T16:43:28Z</time>
      </trkpt>
      <trkpt lat="50.23928" lon="1.66536">
        <ele>5.7</ele>
        <time>2020-06-18T16:43:29Z</time>
      </trkpt>
      <trkpt lat="50.23927" lon="1.66535">
        <ele>5.7</ele>
        <time>2020-06-18T16:43:30Z</time>
      </trkpt>
      <trkpt lat="50.23925" lon="1.66532">
        <ele>5.7</ele>
        <time>2020-06-18T16:43:31Z</time>
      </trkpt>
      <trkpt lat="50.23924" lon="1.66531">
        <ele>5.7</ele>
        <time>2020-06-18T16:43:32Z</time>
      </trkpt>
      <trkpt lat="50.23923" lon="1.66531">
        <ele>5.7</ele>
        <time>2020-06-18T16:43:33Z</time>
      </trkpt>
      <trkpt lat="50.23921" lon="1.66531">
        <ele>5.7</ele>
        <time>2020-06-18T16:43:34Z</time>
      </trkpt>
      <trkpt lat="50.23917" lon="1.6653">
        <ele>5.6</ele>
        <time>2020-06-18T16:43:35Z</time>
      </trkpt>
      <trkpt lat="50.23916" lon="1.66529">
        <ele>5.6</ele>
        <time>2020-06-18T16:43:36Z</time>
      </trkpt>
      <trkpt lat="50.23913" lon="1.66526">
        <ele>5.5</ele>
        <time>2020-06-18T16:43:37Z</time>
      </trkpt>
      <trkpt lat="50.23912" lon="1.66524">
        <ele>5.5</ele>
        <time>2020-06-18T16:43:38Z</time>
      </trkpt>
      <trkpt lat="50.23909" lon="1.66518">
        <ele>5.4</ele>
        <time>2020-06-18T16:43:39Z</time>
      </trkpt>
      <trkpt lat="50.23905" lon="1.6651">
        <ele>5.3</ele>
        <time>2020-06-18T16:43:40Z</time>
      </trkpt>
      <trkpt lat="50.23904" lon="1.66501">
        <ele>5.3</ele>
        <time>2020-06-18T16:43:41Z</time>
      </trkpt>
      <trkpt lat="50.23902" lon="1.66493">
        <ele>5.2</ele>
        <time>2020-06-18T16:43:42Z</time>
      </trkpt>
      <trkpt lat="50.239" lon="1.66484">
        <ele>5.2</ele>
        <time>2020-06-18T16:43:43Z</time>
      </trkpt>
      <trkpt lat="50.23898" lon="1.66476">
        <ele>5.2</ele>
        <time>2020-06-18T16:43:44Z</time>
      </trkpt>
      <trkpt lat="50.23896" lon="1.66467">
        <ele>5.2</ele>
        <time>2020-06-18T16:43:45Z</time>
      </trkpt>
      <trkpt lat="50.23895" lon="1.66459">
        <ele>5.2</ele>
        <time>2020-06-18T16:43:46Z</time>
      </trkpt>
      <trkpt lat="50.23894" lon="1.66451">
        <ele>5.2</ele>
        <time>2020-06-18T16:43:47Z</time>
      </trkpt>
      <trkpt lat="50.23892" lon="1.66442">
        <ele>5.1</ele>
        <time>2020-06-18T16:43:48Z</time>
      </trkpt>
      <trkpt lat="50.23891" lon="1.66434">
        <ele>5.1</ele>
        <time>2020-06-18T16:43:49Z</time>
      </trkpt>
      <trkpt lat="50.23892" lon="1.66426">
        <ele>5.1</ele>
        <time>2020-06-18T16:43:50Z</time>
      </trkpt>
      <trkpt lat="50.23895" lon="1.66416">
        <ele>5</ele>
        <time>2020-06-18T16:43:51Z</time>
      </trkpt>
      <trkpt lat="50.23898" lon="1.66409">
        <ele>4.8</ele>
        <time>2020-06-18T16:43:52Z</time>
      </trkpt>
      <trkpt lat="50.23901" lon="1.66402">
        <ele>4.7</ele>
        <time>2020-06-18T16:43:53Z</time>
      </trkpt>
      <trkpt lat="50.23904" lon="1.66397">
        <ele>4.6</ele>
        <time>2020-06-18T16:43:54Z</time>
      </trkpt>
      <trkpt lat="50.23907" lon="1.66391">
        <ele>4.5</ele>
        <time>2020-06-18T16:43:55Z</time>
      </trkpt>
      <trkpt lat="50.2391" lon="1.66384">
        <ele>4.4</ele>
        <time>2020-06-18T16:43:56Z</time>
      </trkpt>
      <trkpt lat="50.23913" lon="1.66379">
        <ele>4.3</ele>
        <time>2020-06-18T16:43:57Z</time>
      </trkpt>
      <trkpt lat="50.23915" lon="1.66372">
        <ele>4.3</ele>
        <time>2020-06-18T16:43:58Z</time>
      </trkpt>
      <trkpt lat="50.23917" lon="1.66365">
        <ele>4.2</ele>
        <time>2020-06-18T16:43:59Z</time>
      </trkpt>
      <trkpt lat="50.23917" lon="1.66356">
        <ele>4.2</ele>
        <time>2020-06-18T16:44:00Z</time>
      </trkpt>
      <trkpt lat="50.23916" lon="1.66349">
        <ele>4.1</ele>
        <time>2020-06-18T16:44:01Z</time>
      </trkpt>
      <trkpt lat="50.23916" lon="1.66341">
        <ele>4.1</ele>
        <time>2020-06-18T16:44:02Z</time>
      </trkpt>
      <trkpt lat="50.23915" lon="1.66332">
        <ele>4</ele>
        <time>2020-06-18T16:44:03Z</time>
      </trkpt>
      <trkpt lat="50.23914" lon="1.66325">
        <ele>4</ele>
        <time>2020-06-18T16:44:04Z</time>
      </trkpt>
      <trkpt lat="50.23913" lon="1.66318">
        <ele>3.9</ele>
        <time>2020-06-18T16:44:05Z</time>
      </trkpt>
      <trkpt lat="50.23913" lon="1.66313">
        <ele>3.9</ele>
        <time>2020-06-18T16:44:06Z</time>
      </trkpt>
      <trkpt lat="50.23912" lon="1.66307">
        <ele>3.8</ele>
        <time>2020-06-18T16:44:07Z</time>
      </trkpt>
      <trkpt lat="50.2391" lon="1.663">
        <ele>3.8</ele>
        <time>2020-06-18T16:44:08Z</time>
      </trkpt>
      <trkpt lat="50.23908" lon="1.66293">
        <ele>3.7</ele>
        <time>2020-06-18T16:44:09Z</time>
      </trkpt>
      <trkpt lat="50.23904" lon="1.66287">
        <ele>3.8</ele>
        <time>2020-06-18T16:44:10Z</time>
      </trkpt>
      <trkpt lat="50.239" lon="1.66281">
        <ele>3.8</ele>
        <time>2020-06-18T16:44:11Z</time>
      </trkpt>
      <trkpt lat="50.23897" lon="1.66276">
        <ele>3.8</ele>
        <time>2020-06-18T16:44:12Z</time>
      </trkpt>
      <trkpt lat="50.23894" lon="1.66271">
        <ele>3.8</ele>
        <time>2020-06-18T16:44:13Z</time>
      </trkpt>
      <trkpt lat="50.23891" lon="1.66266">
        <ele>3.8</ele>
        <time>2020-06-18T16:44:14Z</time>
      </trkpt>
      <trkpt lat="50.23888" lon="1.66262">
        <ele>3.8</ele>
        <time>2020-06-18T16:44:15Z</time>
      </trkpt>
      <trkpt lat="50.23883" lon="1.66258">
        <ele>3.8</ele>
        <time>2020-06-18T16:44:16Z</time>
      </trkpt>
      <trkpt lat="50.23879" lon="1.66253">
        <ele>3.8</ele>
        <time>2020-06-18T16:44:17Z</time>
      </trkpt>
      <trkpt lat="50.23876" lon="1.66248">
        <ele>3.8</ele>
        <time>2020-06-18T16:44:18Z</time>
      </trkpt>
      <trkpt lat="50.23872" lon="1.66243">
        <ele>3.8</ele>
        <time>2020-06-18T16:44:19Z</time>
      </trkpt>
      <trkpt lat="50.23867" lon="1.66238">
        <ele>3.8</ele>
        <time>2020-06-18T16:44:20Z</time>
      </trkpt>
      <trkpt lat="50.23863" lon="1.66234">
        <ele>3.7</ele>
        <time>2020-06-18T16:44:21Z</time>
      </trkpt>
      <trkpt lat="50.2386" lon="1.66231">
        <ele>3.7</ele>
        <time>2020-06-18T16:44:22Z</time>
      </trkpt>
      <trkpt lat="50.23856" lon="1.66228">
        <ele>3.7</ele>
        <time>2020-06-18T16:44:23Z</time>
      </trkpt>
      <trkpt lat="50.23851" lon="1.66226">
        <ele>3.7</ele>
        <time>2020-06-18T16:44:24Z</time>
      </trkpt>
      <trkpt lat="50.23845" lon="1.66225">
        <ele>3.8</ele>
        <time>2020-06-18T16:44:25Z</time>
      </trkpt>
      <trkpt lat="50.23839" lon="1.66223">
        <ele>3.8</ele>
        <time>2020-06-18T16:44:26Z</time>
      </trkpt>
      <trkpt lat="50.23833" lon="1.66222">
        <ele>3.9</ele>
        <time>2020-06-18T16:44:27Z</time>
      </trkpt>
      <trkpt lat="50.23828" lon="1.66221">
        <ele>3.9</ele>
        <time>2020-06-18T16:44:28Z</time>
      </trkpt>
      <trkpt lat="50.23823" lon="1.6622">
        <ele>4</ele>
        <time>2020-06-18T16:44:29Z</time>
      </trkpt>
      <trkpt lat="50.23819" lon="1.66221">
        <ele>4</ele>
        <time>2020-06-18T16:44:30Z</time>
      </trkpt>
      <trkpt lat="50.23813" lon="1.66221">
        <ele>4</ele>
        <time>2020-06-18T16:44:31Z</time>
      </trkpt>
      <trkpt lat="50.23809" lon="1.66221">
        <ele>4</ele>
        <time>2020-06-18T16:44:32Z</time>
      </trkpt>
      <trkpt lat="50.23803" lon="1.66221">
        <ele>4</ele>
        <time>2020-06-18T16:44:33Z</time>
      </trkpt>
      <trkpt lat="50.23798" lon="1.66221">
        <ele>3.9</ele>
        <time>2020-06-18T16:44:34Z</time>
      </trkpt>
      <trkpt lat="50.23794" lon="1.66222">
        <ele>3.9</ele>
        <time>2020-06-18T16:44:35Z</time>
      </trkpt>
      <trkpt lat="50.2379" lon="1.66223">
        <ele>3.9</ele>
        <time>2020-06-18T16:44:36Z</time>
      </trkpt>
      <trkpt lat="50.23787" lon="1.66225">
        <ele>3.9</ele>
        <time>2020-06-18T16:44:37Z</time>
      </trkpt>
      <trkpt lat="50.23786" lon="1.66227">
        <ele>3.9</ele>
        <time>2020-06-18T16:44:38Z</time>
      </trkpt>
      <trkpt lat="50.23785" lon="1.66228">
        <ele>3.9</ele>
        <time>2020-06-18T16:44:39Z</time>
      </trkpt>
      <trkpt lat="50.23785" lon="1.66229">
        <ele>3.9</ele>
        <time>2020-06-18T16:44:40Z</time>
      </trkpt>
      <trkpt lat="50.23784" lon="1.66232">
        <ele>3.9</ele>
        <time>2020-06-18T16:44:41Z</time>
      </trkpt>
      <trkpt lat="50.23783" lon="1.66238">
        <ele>3.9</ele>
        <time>2020-06-18T16:44:42Z</time>
      </trkpt>
      <trkpt lat="50.23782" lon="1.6624">
        <ele>4</ele>
        <time>2020-06-18T16:44:43Z</time>
      </trkpt>
      <trkpt lat="50.23782" lon="1.66244">
        <ele>4</ele>
        <time>2020-06-18T16:44:44Z</time>
      </trkpt>
      <trkpt lat="50.23781" lon="1.66249">
        <ele>4</ele>
        <time>2020-06-18T16:44:45Z</time>
      </trkpt>
      <trkpt lat="50.2378" lon="1.66254">
        <ele>4</ele>
        <time>2020-06-18T16:44:46Z</time>
      </trkpt>
      <trkpt lat="50.2378" lon="1.66256">
        <ele>4</ele>
        <time>2020-06-18T16:44:47Z</time>
      </trkpt>
      <trkpt lat="50.23781" lon="1.6626">
        <ele>4</ele>
        <time>2020-06-18T16:44:48Z</time>
      </trkpt>
      <trkpt lat="50.23782" lon="1.66265">
        <ele>4</ele>
        <time>2020-06-18T16:44:49Z</time>
      </trkpt>
      <trkpt lat="50.23783" lon="1.66268">
        <ele>4</ele>
        <time>2020-06-18T16:44:50Z</time>
      </trkpt>
      <trkpt lat="50.23783" lon="1.66269">
        <ele>4</ele>
        <time>2020-06-18T16:44:51Z</time>
      </trkpt>
      <trkpt lat="50.23783" lon="1.6627">
        <ele>4</ele>
        <time>2020-06-18T16:44:52Z</time>
      </trkpt>
      <trkpt lat="50.23783" lon="1.66271">
        <ele>4</ele>
        <time>2020-06-18T16:44:53Z</time>
      </trkpt>
      <trkpt lat="50.23782" lon="1.66272">
        <ele>4</ele>
        <time>2020-06-18T16:44:54Z</time>
      </trkpt>
      <trkpt lat="50.23781" lon="1.66274">
        <ele>4</ele>
        <time>2020-06-18T16:44:55Z</time>
      </trkpt>
      <trkpt lat="50.23781" lon="1.66273">
        <ele>4</ele>
        <time>2020-06-18T16:44:56Z</time>
      </trkpt>
      <trkpt lat="50.2378" lon="1.66274">
        <ele>4</ele>
        <time>2020-06-18T16:44:57Z</time>
      </trkpt>
      <trkpt lat="50.23779" lon="1.66273">
        <ele>4</ele>
        <time>2020-06-18T16:44:58Z</time>
      </trkpt>
      <trkpt lat="50.23778" lon="1.66273">
        <ele>4</ele>
        <time>2020-06-18T16:44:59Z</time>
      </trkpt>
      <trkpt lat="50.23777" lon="1.6627">
        <ele>4</ele>
        <time>2020-06-18T16:45:00Z</time>
      </trkpt>
      <trkpt lat="50.23777" lon="1.66268">
        <ele>4</ele>
        <time>2020-06-18T16:45:01Z</time>
      </trkpt>
      <trkpt lat="50.23776" lon="1.66266">
        <ele>4</ele>
        <time>2020-06-18T16:45:02Z</time>
      </trkpt>
      <trkpt lat="50.23777" lon="1.66261">
        <ele>4</ele>
        <time>2020-06-18T16:45:03Z</time>
      </trkpt>
      <trkpt lat="50.23777" lon="1.66255">
        <ele>4</ele>
        <time>2020-06-18T16:45:04Z</time>
      </trkpt>
      <trkpt lat="50.23778" lon="1.6625">
        <ele>4</ele>
        <time>2020-06-18T16:45:05Z</time>
      </trkpt>
      <trkpt lat="50.2378" lon="1.66244">
        <ele>4</ele>
        <time>2020-06-18T16:45:06Z</time>
      </trkpt>
      <trkpt lat="50.23782" lon="1.66239">
        <ele>3.9</ele>
        <time>2020-06-18T16:45:07Z</time>
      </trkpt>
      <trkpt lat="50.23784" lon="1.66234">
        <ele>3.9</ele>
        <time>2020-06-18T16:45:08Z</time>
      </trkpt>
      <trkpt lat="50.23786" lon="1.6623">
        <ele>3.9</ele>
        <time>2020-06-18T16:45:09Z</time>
      </trkpt>
      <trkpt lat="50.23789" lon="1.66228">
        <ele>3.9</ele>
        <time>2020-06-18T16:45:10Z</time>
      </trkpt>
      <trkpt lat="50.23792" lon="1.66226">
        <ele>3.9</ele>
        <time>2020-06-18T16:45:11Z</time>
      </trkpt>
      <trkpt lat="50.23795" lon="1.66225">
        <ele>3.9</ele>
        <time>2020-06-18T16:45:12Z</time>
      </trkpt>
      <trkpt lat="50.23798" lon="1.66224">
        <ele>3.9</ele>
        <time>2020-06-18T16:45:13Z</time>
      </trkpt>
      <trkpt lat="50.23802" lon="1.66222">
        <ele>3.9</ele>
        <time>2020-06-18T16:45:14Z</time>
      </trkpt>
      <trkpt lat="50.2381" lon="1.66222">
        <ele>4</ele>
        <time>2020-06-18T16:45:15Z</time>
      </trkpt>
      <trkpt lat="50.23816" lon="1.66222">
        <ele>4</ele>
        <time>2020-06-18T16:45:16Z</time>
      </trkpt>
      <trkpt lat="50.23821" lon="1.66223">
        <ele>4</ele>
        <time>2020-06-18T16:45:17Z</time>
      </trkpt>
      <trkpt lat="50.23825" lon="1.66223">
        <ele>4</ele>
        <time>2020-06-18T16:45:18Z</time>
      </trkpt>
      <trkpt lat="50.23829" lon="1.66224">
        <ele>3.9</ele>
        <time>2020-06-18T16:45:19Z</time>
      </trkpt>
      <trkpt lat="50.23833" lon="1.66225">
        <ele>3.9</ele>
        <time>2020-06-18T16:45:20Z</time>
      </trkpt>
      <trkpt lat="50.23838" lon="1.66224">
        <ele>3.8</ele>
        <time>2020-06-18T16:45:21Z</time>
      </trkpt>
      <trkpt lat="50.23842" lon="1.66225">
        <ele>3.8</ele>
        <time>2020-06-18T16:45:22Z</time>
      </trkpt>
      <trkpt lat="50.23847" lon="1.66225">
        <ele>3.8</ele>
        <time>2020-06-18T16:45:23Z</time>
      </trkpt>
      <trkpt lat="50.23851" lon="1.66226">
        <ele>3.7</ele>
        <time>2020-06-18T16:45:24Z</time>
      </trkpt>
      <trkpt lat="50.23855" lon="1.66225">
        <ele>3.7</ele>
        <time>2020-06-18T16:45:25Z</time>
      </trkpt>
      <trkpt lat="50.23859" lon="1.66226">
        <ele>3.7</ele>
        <time>2020-06-18T16:45:26Z</time>
      </trkpt>
      <trkpt lat="50.23862" lon="1.66225">
        <ele>3.8</ele>
        <time>2020-06-18T16:45:27Z</time>
      </trkpt>
      <trkpt lat="50.23867" lon="1.66222">
        <ele>3.9</ele>
        <time>2020-06-18T16:45:28Z</time>
      </trkpt>
      <trkpt lat="50.23872" lon="1.66219">
        <ele>3.9</ele>
        <time>2020-06-18T16:45:29Z</time>
      </trkpt>
      <trkpt lat="50.23878" lon="1.66214">
        <ele>3.8</ele>
        <time>2020-06-18T16:45:30Z</time>
      </trkpt>
      <trkpt lat="50.23884" lon="1.6621">
        <ele>3.8</ele>
        <time>2020-06-18T16:45:31Z</time>
      </trkpt>
      <trkpt lat="50.23887" lon="1.66206">
        <ele>3.7</ele>
        <time>2020-06-18T16:45:32Z</time>
      </trkpt>
      <trkpt lat="50.23891" lon="1.66203">
        <ele>3.7</ele>
        <time>2020-06-18T16:45:33Z</time>
      </trkpt>
      <trkpt lat="50.23896" lon="1.66199">
        <ele>3.6</ele>
        <time>2020-06-18T16:45:34Z</time>
      </trkpt>
      <trkpt lat="50.239" lon="1.66195">
        <ele>3.6</ele>
        <time>2020-06-18T16:45:35Z</time>
      </trkpt>
      <trkpt lat="50.23903" lon="1.6619">
        <ele>3.6</ele>
        <time>2020-06-18T16:45:36Z</time>
      </trkpt>
      <trkpt lat="50.23908" lon="1.66187">
        <ele>3.6</ele>
        <time>2020-06-18T16:45:37Z</time>
      </trkpt>
      <trkpt lat="50.23912" lon="1.66184">
        <ele>3.6</ele>
        <time>2020-06-18T16:45:38Z</time>
      </trkpt>
      <trkpt lat="50.23916" lon="1.66183">
        <ele>3.5</ele>
        <time>2020-06-18T16:45:39Z</time>
      </trkpt>
      <trkpt lat="50.2392" lon="1.6618">
        <ele>3.5</ele>
        <time>2020-06-18T16:45:40Z</time>
      </trkpt>
      <trkpt lat="50.23924" lon="1.66177">
        <ele>3.5</ele>
        <time>2020-06-18T16:45:41Z</time>
      </trkpt>
      <trkpt lat="50.23929" lon="1.66174">
        <ele>3.5</ele>
        <time>2020-06-18T16:45:42Z</time>
      </trkpt>
      <trkpt lat="50.23934" lon="1.66173">
        <ele>3.5</ele>
        <time>2020-06-18T16:45:43Z</time>
      </trkpt>
      <trkpt lat="50.23939" lon="1.66171">
        <ele>3.5</ele>
        <time>2020-06-18T16:45:44Z</time>
      </trkpt>
      <trkpt lat="50.23944" lon="1.66171">
        <ele>3.5</ele>
        <time>2020-06-18T16:45:45Z</time>
      </trkpt>
      <trkpt lat="50.23949" lon="1.6617">
        <ele>3.5</ele>
        <time>2020-06-18T16:45:46Z</time>
      </trkpt>
      <trkpt lat="50.23953" lon="1.66168">
        <ele>3.6</ele>
        <time>2020-06-18T16:45:47Z</time>
      </trkpt>
      <trkpt lat="50.23958" lon="1.66166">
        <ele>3.6</ele>
        <time>2020-06-18T16:45:48Z</time>
      </trkpt>
      <trkpt lat="50.23963" lon="1.66164">
        <ele>3.7</ele>
        <time>2020-06-18T16:45:49Z</time>
      </trkpt>
      <trkpt lat="50.23968" lon="1.66163">
        <ele>3.8</ele>
        <time>2020-06-18T16:45:50Z</time>
      </trkpt>
      <trkpt lat="50.23973" lon="1.6616">
        <ele>3.9</ele>
        <time>2020-06-18T16:45:51Z</time>
      </trkpt>
      <trkpt lat="50.23978" lon="1.66154">
        <ele>3.9</ele>
        <time>2020-06-18T16:45:52Z</time>
      </trkpt>
      <trkpt lat="50.23982" lon="1.6615">
        <ele>3.9</ele>
        <time>2020-06-18T16:45:53Z</time>
      </trkpt>
      <trkpt lat="50.23986" lon="1.66145">
        <ele>3.8</ele>
        <time>2020-06-18T16:45:54Z</time>
      </trkpt>
      <trkpt lat="50.2399" lon="1.66141">
        <ele>3.8</ele>
        <time>2020-06-18T16:45:55Z</time>
      </trkpt>
      <trkpt lat="50.23995" lon="1.66136">
        <ele>3.8</ele>
        <time>2020-06-18T16:45:56Z</time>
      </trkpt>
      <trkpt lat="50.23998" lon="1.66131">
        <ele>3.8</ele>
        <time>2020-06-18T16:45:57Z</time>
      </trkpt>
      <trkpt lat="50.24002" lon="1.66128">
        <ele>3.8</ele>
        <time>2020-06-18T16:45:58Z</time>
      </trkpt>
      <trkpt lat="50.24005" lon="1.66124">
        <ele>3.8</ele>
        <time>2020-06-18T16:45:59Z</time>
      </trkpt>
      <trkpt lat="50.24008" lon="1.6612">
        <ele>3.8</ele>
        <time>2020-06-18T16:46:00Z</time>
      </trkpt>
      <trkpt lat="50.24013" lon="1.66116">
        <ele>3.8</ele>
        <time>2020-06-18T16:46:01Z</time>
      </trkpt>
      <trkpt lat="50.24017" lon="1.66111">
        <ele>3.8</ele>
        <time>2020-06-18T16:46:02Z</time>
      </trkpt>
      <trkpt lat="50.24021" lon="1.66106">
        <ele>3.8</ele>
        <time>2020-06-18T16:46:03Z</time>
      </trkpt>
      <trkpt lat="50.24026" lon="1.66102">
        <ele>3.9</ele>
        <time>2020-06-18T16:46:04Z</time>
      </trkpt>
      <trkpt lat="50.2403" lon="1.66098">
        <ele>3.9</ele>
        <time>2020-06-18T16:46:05Z</time>
      </trkpt>
      <trkpt lat="50.24034" lon="1.66094">
        <ele>3.9</ele>
        <time>2020-06-18T16:46:06Z</time>
      </trkpt>
      <trkpt lat="50.24038" lon="1.66091">
        <ele>3.9</ele>
        <time>2020-06-18T16:46:07Z</time>
      </trkpt>
      <trkpt lat="50.24044" lon="1.66088">
        <ele>3.9</ele>
        <time>2020-06-18T16:46:08Z</time>
      </trkpt>
      <trkpt lat="50.24048" lon="1.66085">
        <ele>3.9</ele>
        <time>2020-06-18T16:46:09Z</time>
      </trkpt>
      <trkpt lat="50.2405" lon="1.66081">
        <ele>3.9</ele>
        <time>2020-06-18T16:46:10Z</time>
      </trkpt>
      <trkpt lat="50.24055" lon="1.66077">
        <ele>3.9</ele>
        <time>2020-06-18T16:46:11Z</time>
      </trkpt>
      <trkpt lat="50.2406" lon="1.66074">
        <ele>3.9</ele>
        <time>2020-06-18T16:46:12Z</time>
      </trkpt>
      <trkpt lat="50.24065" lon="1.6607">
        <ele>3.9</ele>
        <time>2020-06-18T16:46:13Z</time>
      </trkpt>
      <trkpt lat="50.2407" lon="1.66066">
        <ele>3.9</ele>
        <time>2020-06-18T16:46:14Z</time>
      </trkpt>
      <trkpt lat="50.24075" lon="1.66063">
        <ele>3.9</ele>
        <time>2020-06-18T16:46:15Z</time>
      </trkpt>
      <trkpt lat="50.2408" lon="1.66059">
        <ele>3.9</ele>
        <time>2020-06-18T16:46:16Z</time>
      </trkpt>
      <trkpt lat="50.24085" lon="1.66055">
        <ele>3.9</ele>
        <time>2020-06-18T16:46:17Z</time>
      </trkpt>
      <trkpt lat="50.24088" lon="1.66052">
        <ele>3.9</ele>
        <time>2020-06-18T16:46:18Z</time>
      </trkpt>
      <trkpt lat="50.24091" lon="1.6605">
        <ele>3.9</ele>
        <time>2020-06-18T16:46:19Z</time>
      </trkpt>
      <trkpt lat="50.24096" lon="1.66047">
        <ele>3.9</ele>
        <time>2020-06-18T16:46:20Z</time>
      </trkpt>
      <trkpt lat="50.241" lon="1.66043">
        <ele>3.9</ele>
        <time>2020-06-18T16:46:21Z</time>
      </trkpt>
      <trkpt lat="50.24105" lon="1.66038">
        <ele>3.9</ele>
        <time>2020-06-18T16:46:22Z</time>
      </trkpt>
      <trkpt lat="50.24109" lon="1.66034">
        <ele>3.9</ele>
        <time>2020-06-18T16:46:23Z</time>
      </trkpt>
      <trkpt lat="50.24112" lon="1.66029">
        <ele>3.9</ele>
        <time>2020-06-18T16:46:24Z</time>
      </trkpt>
      <trkpt lat="50.24117" lon="1.66024">
        <ele>3.9</ele>
        <time>2020-06-18T16:46:25Z</time>
      </trkpt>
      <trkpt lat="50.2412" lon="1.6602">
        <ele>3.8</ele>
        <time>2020-06-18T16:46:26Z</time>
      </trkpt>
      <trkpt lat="50.24124" lon="1.66015">
        <ele>3.8</ele>
        <time>2020-06-18T16:46:27Z</time>
      </trkpt>
      <trkpt lat="50.24129" lon="1.66009">
        <ele>3.8</ele>
        <time>2020-06-18T16:46:28Z</time>
      </trkpt>
      <trkpt lat="50.24133" lon="1.66002">
        <ele>3.8</ele>
        <time>2020-06-18T16:46:29Z</time>
      </trkpt>
      <trkpt lat="50.24137" lon="1.65995">
        <ele>3.7</ele>
        <time>2020-06-18T16:46:30Z</time>
      </trkpt>
      <trkpt lat="50.24142" lon="1.65986">
        <ele>3.7</ele>
        <time>2020-06-18T16:46:31Z</time>
      </trkpt>
      <trkpt lat="50.24145" lon="1.65978">
        <ele>3.7</ele>
        <time>2020-06-18T16:46:32Z</time>
      </trkpt>
      <trkpt lat="50.24148" lon="1.65971">
        <ele>3.7</ele>
        <time>2020-06-18T16:46:33Z</time>
      </trkpt>
      <trkpt lat="50.24152" lon="1.65962">
        <ele>3.8</ele>
        <time>2020-06-18T16:46:34Z</time>
      </trkpt>
      <trkpt lat="50.24155" lon="1.65956">
        <ele>3.8</ele>
        <time>2020-06-18T16:46:35Z</time>
      </trkpt>
      <trkpt lat="50.24157" lon="1.65948">
        <ele>3.9</ele>
        <time>2020-06-18T16:46:36Z</time>
      </trkpt>
      <trkpt lat="50.24159" lon="1.65939">
        <ele>3.9</ele>
        <time>2020-06-18T16:46:37Z</time>
      </trkpt>
      <trkpt lat="50.24162" lon="1.65931">
        <ele>3.9</ele>
        <time>2020-06-18T16:46:38Z</time>
      </trkpt>
      <trkpt lat="50.24163" lon="1.65922">
        <ele>3.9</ele>
        <time>2020-06-18T16:46:39Z</time>
      </trkpt>
      <trkpt lat="50.24166" lon="1.65914">
        <ele>3.9</ele>
        <time>2020-06-18T16:46:40Z</time>
      </trkpt>
      <trkpt lat="50.24168" lon="1.65906">
        <ele>3.9</ele>
        <time>2020-06-18T16:46:41Z</time>
      </trkpt>
      <trkpt lat="50.24171" lon="1.65896">
        <ele>3.9</ele>
        <time>2020-06-18T16:46:42Z</time>
      </trkpt>
      <trkpt lat="50.24172" lon="1.65887">
        <ele>3.9</ele>
        <time>2020-06-18T16:46:43Z</time>
      </trkpt>
      <trkpt lat="50.24176" lon="1.65881">
        <ele>3.9</ele>
        <time>2020-06-18T16:46:44Z</time>
      </trkpt>
      <trkpt lat="50.24177" lon="1.65874">
        <ele>3.9</ele>
        <time>2020-06-18T16:46:45Z</time>
      </trkpt>
      <trkpt lat="50.24179" lon="1.65865">
        <ele>3.9</ele>
        <time>2020-06-18T16:46:46Z</time>
      </trkpt>
      <trkpt lat="50.24181" lon="1.65856">
        <ele>3.9</ele>
        <time>2020-06-18T16:46:47Z</time>
      </trkpt>
      <trkpt lat="50.24183" lon="1.65847">
        <ele>4</ele>
        <time>2020-06-18T16:46:48Z</time>
      </trkpt>
      <trkpt lat="50.24184" lon="1.65838">
        <ele>4</ele>
        <time>2020-06-18T16:46:49Z</time>
      </trkpt>
      <trkpt lat="50.24186" lon="1.6583">
        <ele>4.1</ele>
        <time>2020-06-18T16:46:50Z</time>
      </trkpt>
      <trkpt lat="50.24188" lon="1.65821">
        <ele>4.1</ele>
        <time>2020-06-18T16:46:51Z</time>
      </trkpt>
      <trkpt lat="50.2419" lon="1.65814">
        <ele>4.1</ele>
        <time>2020-06-18T16:46:52Z</time>
      </trkpt>
      <trkpt lat="50.24192" lon="1.65806">
        <ele>4.1</ele>
        <time>2020-06-18T16:46:53Z</time>
      </trkpt>
      <trkpt lat="50.24193" lon="1.65798">
        <ele>4.1</ele>
        <time>2020-06-18T16:46:54Z</time>
      </trkpt>
      <trkpt lat="50.24195" lon="1.65789">
        <ele>4.1</ele>
        <time>2020-06-18T16:46:55Z</time>
      </trkpt>
      <trkpt lat="50.24198" lon="1.65781">
        <ele>4.1</ele>
        <time>2020-06-18T16:46:56Z</time>
      </trkpt>
      <trkpt lat="50.24201" lon="1.65773">
        <ele>4.1</ele>
        <time>2020-06-18T16:46:57Z</time>
      </trkpt>
      <trkpt lat="50.24204" lon="1.65766">
        <ele>4.2</ele>
        <time>2020-06-18T16:46:58Z</time>
      </trkpt>
      <trkpt lat="50.24209" lon="1.65761">
        <ele>4.2</ele>
        <time>2020-06-18T16:46:59Z</time>
      </trkpt>
      <trkpt lat="50.24213" lon="1.65757">
        <ele>4.2</ele>
        <time>2020-06-18T16:47:00Z</time>
      </trkpt>
      <trkpt lat="50.24218" lon="1.65752">
        <ele>4.2</ele>
        <time>2020-06-18T16:47:01Z</time>
      </trkpt>
      <trkpt lat="50.24223" lon="1.65747">
        <ele>4.2</ele>
        <time>2020-06-18T16:47:02Z</time>
      </trkpt>
      <trkpt lat="50.24228" lon="1.65741">
        <ele>4.3</ele>
        <time>2020-06-18T16:47:03Z</time>
      </trkpt>
      <trkpt lat="50.24233" lon="1.65736">
        <ele>4.4</ele>
        <time>2020-06-18T16:47:04Z</time>
      </trkpt>
      <trkpt lat="50.24239" lon="1.65733">
        <ele>4.5</ele>
        <time>2020-06-18T16:47:05Z</time>
      </trkpt>
      <trkpt lat="50.24243" lon="1.65729">
        <ele>4.5</ele>
        <time>2020-06-18T16:47:06Z</time>
      </trkpt>
      <trkpt lat="50.24247" lon="1.65724">
        <ele>4.5</ele>
        <time>2020-06-18T16:47:07Z</time>
      </trkpt>
      <trkpt lat="50.24252" lon="1.65719">
        <ele>4.4</ele>
        <time>2020-06-18T16:47:08Z</time>
      </trkpt>
      <trkpt lat="50.24257" lon="1.65714">
        <ele>4.4</ele>
        <time>2020-06-18T16:47:09Z</time>
      </trkpt>
      <trkpt lat="50.24261" lon="1.65708">
        <ele>4.4</ele>
        <time>2020-06-18T16:47:10Z</time>
      </trkpt>
      <trkpt lat="50.24265" lon="1.65705">
        <ele>4.4</ele>
        <time>2020-06-18T16:47:11Z</time>
      </trkpt>
      <trkpt lat="50.24269" lon="1.65701">
        <ele>4.4</ele>
        <time>2020-06-18T16:47:12Z</time>
      </trkpt>
      <trkpt lat="50.24275" lon="1.657">
        <ele>4.4</ele>
        <time>2020-06-18T16:47:13Z</time>
      </trkpt>
      <trkpt lat="50.24282" lon="1.65698">
        <ele>4.4</ele>
        <time>2020-06-18T16:47:14Z</time>
      </trkpt>
      <trkpt lat="50.24288" lon="1.65699">
        <ele>4.3</ele>
        <time>2020-06-18T16:47:15Z</time>
      </trkpt>
      <trkpt lat="50.24293" lon="1.65698">
        <ele>4.3</ele>
        <time>2020-06-18T16:47:16Z</time>
      </trkpt>
      <trkpt lat="50.243" lon="1.65696">
        <ele>4.2</ele>
        <time>2020-06-18T16:47:17Z</time>
      </trkpt>
      <trkpt lat="50.24307" lon="1.65694">
        <ele>4.1</ele>
        <time>2020-06-18T16:47:18Z</time>
      </trkpt>
      <trkpt lat="50.24314" lon="1.65692">
        <ele>4</ele>
        <time>2020-06-18T16:47:19Z</time>
      </trkpt>
      <trkpt lat="50.2432" lon="1.65691">
        <ele>4</ele>
        <time>2020-06-18T16:47:20Z</time>
      </trkpt>
      <trkpt lat="50.24327" lon="1.65691">
        <ele>4</ele>
        <time>2020-06-18T16:47:21Z</time>
      </trkpt>
      <trkpt lat="50.24334" lon="1.6569">
        <ele>4</ele>
        <time>2020-06-18T16:47:22Z</time>
      </trkpt>
      <trkpt lat="50.2434" lon="1.65689">
        <ele>4.1</ele>
        <time>2020-06-18T16:47:23Z</time>
      </trkpt>
      <trkpt lat="50.24345" lon="1.65688">
        <ele>4.1</ele>
        <time>2020-06-18T16:47:24Z</time>
      </trkpt>
      <trkpt lat="50.24351" lon="1.65685">
        <ele>4.1</ele>
        <time>2020-06-18T16:47:25Z</time>
      </trkpt>
      <trkpt lat="50.24357" lon="1.65684">
        <ele>4.1</ele>
        <time>2020-06-18T16:47:26Z</time>
      </trkpt>
      <trkpt lat="50.24362" lon="1.65682">
        <ele>4.1</ele>
        <time>2020-06-18T16:47:27Z</time>
      </trkpt>
      <trkpt lat="50.24368" lon="1.65681">
        <ele>4.1</ele>
        <time>2020-06-18T16:47:28Z</time>
      </trkpt>
      <trkpt lat="50.24373" lon="1.6568">
        <ele>4.1</ele>
        <time>2020-06-18T16:47:29Z</time>
      </trkpt>
      <trkpt lat="50.24379" lon="1.65679">
        <ele>4.1</ele>
        <time>2020-06-18T16:47:30Z</time>
      </trkpt>
      <trkpt lat="50.24385" lon="1.65678">
        <ele>4.1</ele>
        <time>2020-06-18T16:47:31Z</time>
      </trkpt>
      <trkpt lat="50.24391" lon="1.65677">
        <ele>4</ele>
        <time>2020-06-18T16:47:32Z</time>
      </trkpt>
      <trkpt lat="50.24396" lon="1.65675">
        <ele>4</ele>
        <time>2020-06-18T16:47:33Z</time>
      </trkpt>
      <trkpt lat="50.24404" lon="1.65674">
        <ele>4</ele>
        <time>2020-06-18T16:47:34Z</time>
      </trkpt>
      <trkpt lat="50.24409" lon="1.65672">
        <ele>4</ele>
        <time>2020-06-18T16:47:35Z</time>
      </trkpt>
      <trkpt lat="50.24415" lon="1.6567">
        <ele>4.1</ele>
        <time>2020-06-18T16:47:36Z</time>
      </trkpt>
      <trkpt lat="50.24422" lon="1.65669">
        <ele>4.1</ele>
        <time>2020-06-18T16:47:37Z</time>
      </trkpt>
      <trkpt lat="50.24429" lon="1.65669">
        <ele>4.1</ele>
        <time>2020-06-18T16:47:38Z</time>
      </trkpt>
      <trkpt lat="50.24436" lon="1.65669">
        <ele>4.1</ele>
        <time>2020-06-18T16:47:39Z</time>
      </trkpt>
      <trkpt lat="50.2444" lon="1.65669">
        <ele>4.1</ele>
        <time>2020-06-18T16:47:40Z</time>
      </trkpt>
      <trkpt lat="50.24444" lon="1.65669">
        <ele>4.1</ele>
        <time>2020-06-18T16:47:41Z</time>
      </trkpt>
      <trkpt lat="50.24449" lon="1.65668">
        <ele>4.1</ele>
        <time>2020-06-18T16:47:42Z</time>
      </trkpt>
      <trkpt lat="50.24455" lon="1.65667">
        <ele>4.1</ele>
        <time>2020-06-18T16:47:43Z</time>
      </trkpt>
      <trkpt lat="50.2446" lon="1.65668">
        <ele>4.1</ele>
        <time>2020-06-18T16:47:44Z</time>
      </trkpt>
      <trkpt lat="50.24466" lon="1.65668">
        <ele>4</ele>
        <time>2020-06-18T16:47:45Z</time>
      </trkpt>
      <trkpt lat="50.24469" lon="1.65669">
        <ele>4</ele>
        <time>2020-06-18T16:47:46Z</time>
      </trkpt>
      <trkpt lat="50.24473" lon="1.6567">
        <ele>4</ele>
        <time>2020-06-18T16:47:47Z</time>
      </trkpt>
      <trkpt lat="50.24477" lon="1.65673">
        <ele>4</ele>
        <time>2020-06-18T16:47:48Z</time>
      </trkpt>
      <trkpt lat="50.2448" lon="1.65677">
        <ele>3.9</ele>
        <time>2020-06-18T16:47:49Z</time>
      </trkpt>
      <trkpt lat="50.24483" lon="1.65682">
        <ele>3.9</ele>
        <time>2020-06-18T16:47:50Z</time>
      </trkpt>
      <trkpt lat="50.24486" lon="1.65687">
        <ele>3.9</ele>
        <time>2020-06-18T16:47:51Z</time>
      </trkpt>
      <trkpt lat="50.2449" lon="1.65691">
        <ele>3.9</ele>
        <time>2020-06-18T16:47:52Z</time>
      </trkpt>
      <trkpt lat="50.24495" lon="1.65696">
        <ele>3.9</ele>
        <time>2020-06-18T16:47:53Z</time>
      </trkpt>
      <trkpt lat="50.24499" lon="1.65701">
        <ele>3.9</ele>
        <time>2020-06-18T16:47:54Z</time>
      </trkpt>
      <trkpt lat="50.24502" lon="1.65704">
        <ele>3.9</ele>
        <time>2020-06-18T16:47:55Z</time>
      </trkpt>
      <trkpt lat="50.24506" lon="1.65708">
        <ele>3.9</ele>
        <time>2020-06-18T16:47:56Z</time>
      </trkpt>
      <trkpt lat="50.2451" lon="1.65713">
        <ele>4</ele>
        <time>2020-06-18T16:47:57Z</time>
      </trkpt>
      <trkpt lat="50.24513" lon="1.65716">
        <ele>4</ele>
        <time>2020-06-18T16:47:58Z</time>
      </trkpt>
      <trkpt lat="50.24515" lon="1.65721">
        <ele>4</ele>
        <time>2020-06-18T16:47:59Z</time>
      </trkpt>
      <trkpt lat="50.24518" lon="1.65724">
        <ele>4</ele>
        <time>2020-06-18T16:48:00Z</time>
      </trkpt>
      <trkpt lat="50.24521" lon="1.65727">
        <ele>4</ele>
        <time>2020-06-18T16:48:01Z</time>
      </trkpt>
      <trkpt lat="50.24524" lon="1.65727">
        <ele>4</ele>
        <time>2020-06-18T16:48:02Z</time>
      </trkpt>
      <trkpt lat="50.24527" lon="1.6573">
        <ele>4</ele>
        <time>2020-06-18T16:48:03Z</time>
      </trkpt>
      <trkpt lat="50.2453" lon="1.65735">
        <ele>3.9</ele>
        <time>2020-06-18T16:48:04Z</time>
      </trkpt>
      <trkpt lat="50.24534" lon="1.6574">
        <ele>3.9</ele>
        <time>2020-06-18T16:48:05Z</time>
      </trkpt>
      <trkpt lat="50.24539" lon="1.65746">
        <ele>3.9</ele>
        <time>2020-06-18T16:48:06Z</time>
      </trkpt>
      <trkpt lat="50.24543" lon="1.65753">
        <ele>3.9</ele>
        <time>2020-06-18T16:48:07Z</time>
      </trkpt>
      <trkpt lat="50.24548" lon="1.65759">
        <ele>3.9</ele>
        <time>2020-06-18T16:48:08Z</time>
      </trkpt>
      <trkpt lat="50.24554" lon="1.65765">
        <ele>4</ele>
        <time>2020-06-18T16:48:09Z</time>
      </trkpt>
      <trkpt lat="50.2456" lon="1.65771">
        <ele>4</ele>
        <time>2020-06-18T16:48:10Z</time>
      </trkpt>
      <trkpt lat="50.24566" lon="1.65779">
        <ele>4</ele>
        <time>2020-06-18T16:48:11Z</time>
      </trkpt>
      <trkpt lat="50.2457" lon="1.65784">
        <ele>4</ele>
        <time>2020-06-18T16:48:12Z</time>
      </trkpt>
      <trkpt lat="50.24575" lon="1.6579">
        <ele>4</ele>
        <time>2020-06-18T16:48:13Z</time>
      </trkpt>
      <trkpt lat="50.2458" lon="1.65796">
        <ele>4</ele>
        <time>2020-06-18T16:48:14Z</time>
      </trkpt>
      <trkpt lat="50.24584" lon="1.65801">
        <ele>4</ele>
        <time>2020-06-18T16:48:15Z</time>
      </trkpt>
      <trkpt lat="50.24588" lon="1.65805">
        <ele>4</ele>
        <time>2020-06-18T16:48:16Z</time>
      </trkpt>
      <trkpt lat="50.24592" lon="1.65808">
        <ele>4</ele>
        <time>2020-06-18T16:48:17Z</time>
      </trkpt>
      <trkpt lat="50.24596" lon="1.65812">
        <ele>4</ele>
        <time>2020-06-18T16:48:18Z</time>
      </trkpt>
      <trkpt lat="50.24601" lon="1.65816">
        <ele>4</ele>
        <time>2020-06-18T16:48:19Z</time>
      </trkpt>
      <trkpt lat="50.24605" lon="1.65819">
        <ele>4</ele>
        <time>2020-06-18T16:48:20Z</time>
      </trkpt>
      <trkpt lat="50.24609" lon="1.65822">
        <ele>4</ele>
        <time>2020-06-18T16:48:21Z</time>
      </trkpt>
      <trkpt lat="50.24612" lon="1.65824">
        <ele>4</ele>
        <time>2020-06-18T16:48:22Z</time>
      </trkpt>
      <trkpt lat="50.24617" lon="1.65827">
        <ele>4</ele>
        <time>2020-06-18T16:48:23Z</time>
      </trkpt>
      <trkpt lat="50.24622" lon="1.6583">
        <ele>4</ele>
        <time>2020-06-18T16:48:24Z</time>
      </trkpt>
      <trkpt lat="50.24628" lon="1.65832">
        <ele>4</ele>
        <time>2020-06-18T16:48:25Z</time>
      </trkpt>
      <trkpt lat="50.24634" lon="1.65833">
        <ele>4</ele>
        <time>2020-06-18T16:48:26Z</time>
      </trkpt>
      <trkpt lat="50.2464" lon="1.65834">
        <ele>4</ele>
        <time>2020-06-18T16:48:27Z</time>
      </trkpt>
      <trkpt lat="50.24645" lon="1.65834">
        <ele>4</ele>
        <time>2020-06-18T16:48:28Z</time>
      </trkpt>
      <trkpt lat="50.24649" lon="1.65832">
        <ele>4</ele>
        <time>2020-06-18T16:48:29Z</time>
      </trkpt>
      <trkpt lat="50.24653" lon="1.65832">
        <ele>4</ele>
        <time>2020-06-18T16:48:30Z</time>
      </trkpt>
      <trkpt lat="50.24658" lon="1.65831">
        <ele>4</ele>
        <time>2020-06-18T16:48:31Z</time>
      </trkpt>
      <trkpt lat="50.24663" lon="1.65831">
        <ele>4</ele>
        <time>2020-06-18T16:48:32Z</time>
      </trkpt>
      <trkpt lat="50.24668" lon="1.65831">
        <ele>4</ele>
        <time>2020-06-18T16:48:33Z</time>
      </trkpt>
      <trkpt lat="50.24674" lon="1.65832">
        <ele>4</ele>
        <time>2020-06-18T16:48:34Z</time>
      </trkpt>
      <trkpt lat="50.24679" lon="1.65832">
        <ele>4</ele>
        <time>2020-06-18T16:48:35Z</time>
      </trkpt>
      <trkpt lat="50.24685" lon="1.65833">
        <ele>4</ele>
        <time>2020-06-18T16:48:36Z</time>
      </trkpt>
      <trkpt lat="50.24691" lon="1.65834">
        <ele>4</ele>
        <time>2020-06-18T16:48:37Z</time>
      </trkpt>
      <trkpt lat="50.24697" lon="1.65835">
        <ele>4</ele>
        <time>2020-06-18T16:48:38Z</time>
      </trkpt>
      <trkpt lat="50.24703" lon="1.65836">
        <ele>4</ele>
        <time>2020-06-18T16:48:39Z</time>
      </trkpt>
      <trkpt lat="50.2471" lon="1.65836">
        <ele>4</ele>
        <time>2020-06-18T16:48:40Z</time>
      </trkpt>
      <trkpt lat="50.24715" lon="1.65836">
        <ele>4.1</ele>
        <time>2020-06-18T16:48:41Z</time>
      </trkpt>
      <trkpt lat="50.24722" lon="1.65835">
        <ele>4.1</ele>
        <time>2020-06-18T16:48:42Z</time>
      </trkpt>
      <trkpt lat="50.24728" lon="1.65835">
        <ele>4.1</ele>
        <time>2020-06-18T16:48:43Z</time>
      </trkpt>
      <trkpt lat="50.24733" lon="1.65834">
        <ele>4.1</ele>
        <time>2020-06-18T16:48:44Z</time>
      </trkpt>
      <trkpt lat="50.2474" lon="1.65834">
        <ele>4.1</ele>
        <time>2020-06-18T16:48:45Z</time>
      </trkpt>
      <trkpt lat="50.24746" lon="1.65833">
        <ele>4</ele>
        <time>2020-06-18T16:48:46Z</time>
      </trkpt>
      <trkpt lat="50.24753" lon="1.65834">
        <ele>4</ele>
        <time>2020-06-18T16:48:47Z</time>
      </trkpt>
      <trkpt lat="50.2476" lon="1.65834">
        <ele>4</ele>
        <time>2020-06-18T16:48:48Z</time>
      </trkpt>
      <trkpt lat="50.24766" lon="1.65835">
        <ele>4</ele>
        <time>2020-06-18T16:48:49Z</time>
      </trkpt>
      <trkpt lat="50.24773" lon="1.65835">
        <ele>4</ele>
        <time>2020-06-18T16:48:50Z</time>
      </trkpt>
      <trkpt lat="50.2478" lon="1.65835">
        <ele>4</ele>
        <time>2020-06-18T16:48:51Z</time>
      </trkpt>
      <trkpt lat="50.24786" lon="1.65836">
        <ele>4</ele>
        <time>2020-06-18T16:48:52Z</time>
      </trkpt>
      <trkpt lat="50.24792" lon="1.65838">
        <ele>4</ele>
        <time>2020-06-18T16:48:53Z</time>
      </trkpt>
      <trkpt lat="50.24799" lon="1.65839">
        <ele>4</ele>
        <time>2020-06-18T16:48:54Z</time>
      </trkpt>
      <trkpt lat="50.24805" lon="1.6584">
        <ele>4.1</ele>
        <time>2020-06-18T16:48:55Z</time>
      </trkpt>
      <trkpt lat="50.24812" lon="1.65841">
        <ele>4.1</ele>
        <time>2020-06-18T16:48:56Z</time>
      </trkpt>
      <trkpt lat="50.24819" lon="1.65843">
        <ele>4.1</ele>
        <time>2020-06-18T16:48:57Z</time>
      </trkpt>
      <trkpt lat="50.24825" lon="1.65844">
        <ele>4</ele>
        <time>2020-06-18T16:48:58Z</time>
      </trkpt>
      <trkpt lat="50.24833" lon="1.65845">
        <ele>4</ele>
        <time>2020-06-18T16:48:59Z</time>
      </trkpt>
      <trkpt lat="50.24839" lon="1.65846">
        <ele>4</ele>
        <time>2020-06-18T16:49:00Z</time>
      </trkpt>
      <trkpt lat="50.24846" lon="1.65847">
        <ele>4</ele>
        <time>2020-06-18T16:49:01Z</time>
      </trkpt>
      <trkpt lat="50.24853" lon="1.6585">
        <ele>4.1</ele>
        <time>2020-06-18T16:49:02Z</time>
      </trkpt>
      <trkpt lat="50.24859" lon="1.65852">
        <ele>4.1</ele>
        <time>2020-06-18T16:49:03Z</time>
      </trkpt>
      <trkpt lat="50.24866" lon="1.65854">
        <ele>4.1</ele>
        <time>2020-06-18T16:49:04Z</time>
      </trkpt>
      <trkpt lat="50.24873" lon="1.65856">
        <ele>4.1</ele>
        <time>2020-06-18T16:49:05Z</time>
      </trkpt>
      <trkpt lat="50.2488" lon="1.65858">
        <ele>4.1</ele>
        <time>2020-06-18T16:49:06Z</time>
      </trkpt>
      <trkpt lat="50.24886" lon="1.65861">
        <ele>4.1</ele>
        <time>2020-06-18T16:49:07Z</time>
      </trkpt>
      <trkpt lat="50.24892" lon="1.65864">
        <ele>4.1</ele>
        <time>2020-06-18T16:49:08Z</time>
      </trkpt>
      <trkpt lat="50.24898" lon="1.65866">
        <ele>4.1</ele>
        <time>2020-06-18T16:49:09Z</time>
      </trkpt>
      <trkpt lat="50.24905" lon="1.65869">
        <ele>4.1</ele>
        <time>2020-06-18T16:49:10Z</time>
      </trkpt>
      <trkpt lat="50.24911" lon="1.65872">
        <ele>4</ele>
        <time>2020-06-18T16:49:11Z</time>
      </trkpt>
      <trkpt lat="50.24918" lon="1.65875">
        <ele>4</ele>
        <time>2020-06-18T16:49:12Z</time>
      </trkpt>
      <trkpt lat="50.24925" lon="1.65878">
        <ele>4</ele>
        <time>2020-06-18T16:49:13Z</time>
      </trkpt>
      <trkpt lat="50.24931" lon="1.65879">
        <ele>4</ele>
        <time>2020-06-18T16:49:14Z</time>
      </trkpt>
      <trkpt lat="50.24937" lon="1.65882">
        <ele>4</ele>
        <time>2020-06-18T16:49:15Z</time>
      </trkpt>
      <trkpt lat="50.24944" lon="1.65885">
        <ele>4</ele>
        <time>2020-06-18T16:49:16Z</time>
      </trkpt>
      <trkpt lat="50.24951" lon="1.65885">
        <ele>4</ele>
        <time>2020-06-18T16:49:17Z</time>
      </trkpt>
      <trkpt lat="50.24959" lon="1.65884">
        <ele>4</ele>
        <time>2020-06-18T16:49:18Z</time>
      </trkpt>
      <trkpt lat="50.24965" lon="1.65883">
        <ele>4</ele>
        <time>2020-06-18T16:49:19Z</time>
      </trkpt>
      <trkpt lat="50.24971" lon="1.65882">
        <ele>4</ele>
        <time>2020-06-18T16:49:20Z</time>
      </trkpt>
      <trkpt lat="50.24977" lon="1.65881">
        <ele>4.1</ele>
        <time>2020-06-18T16:49:21Z</time>
      </trkpt>
      <trkpt lat="50.24984" lon="1.6588">
        <ele>4.1</ele>
        <time>2020-06-18T16:49:22Z</time>
      </trkpt>
      <trkpt lat="50.24989" lon="1.65879">
        <ele>4.1</ele>
        <time>2020-06-18T16:49:23Z</time>
      </trkpt>
      <trkpt lat="50.24994" lon="1.65877">
        <ele>4.1</ele>
        <time>2020-06-18T16:49:24Z</time>
      </trkpt>
      <trkpt lat="50.25" lon="1.65875">
        <ele>4.1</ele>
        <time>2020-06-18T16:49:25Z</time>
      </trkpt>
      <trkpt lat="50.25005" lon="1.65874">
        <ele>4</ele>
        <time>2020-06-18T16:49:26Z</time>
      </trkpt>
      <trkpt lat="50.25012" lon="1.65873">
        <ele>4</ele>
        <time>2020-06-18T16:49:27Z</time>
      </trkpt>
      <trkpt lat="50.25018" lon="1.65873">
        <ele>4</ele>
        <time>2020-06-18T16:49:28Z</time>
      </trkpt>
      <trkpt lat="50.25025" lon="1.65874">
        <ele>4</ele>
        <time>2020-06-18T16:49:29Z</time>
      </trkpt>
      <trkpt lat="50.2503" lon="1.65875">
        <ele>4</ele>
        <time>2020-06-18T16:49:30Z</time>
      </trkpt>
      <trkpt lat="50.25038" lon="1.65876">
        <ele>3.9</ele>
        <time>2020-06-18T16:49:31Z</time>
      </trkpt>
      <trkpt lat="50.25043" lon="1.65878">
        <ele>3.9</ele>
        <time>2020-06-18T16:49:32Z</time>
      </trkpt>
      <trkpt lat="50.25051" lon="1.65882">
        <ele>3.9</ele>
        <time>2020-06-18T16:49:33Z</time>
      </trkpt>
      <trkpt lat="50.25058" lon="1.65887">
        <ele>4</ele>
        <time>2020-06-18T16:49:34Z</time>
      </trkpt>
      <trkpt lat="50.25065" lon="1.65892">
        <ele>4</ele>
        <time>2020-06-18T16:49:35Z</time>
      </trkpt>
      <trkpt lat="50.25071" lon="1.65898">
        <ele>4</ele>
        <time>2020-06-18T16:49:36Z</time>
      </trkpt>
      <trkpt lat="50.25076" lon="1.65905">
        <ele>4.1</ele>
        <time>2020-06-18T16:49:37Z</time>
      </trkpt>
      <trkpt lat="50.25082" lon="1.65912">
        <ele>4.1</ele>
        <time>2020-06-18T16:49:38Z</time>
      </trkpt>
      <trkpt lat="50.25087" lon="1.65922">
        <ele>4.1</ele>
        <time>2020-06-18T16:49:39Z</time>
      </trkpt>
      <trkpt lat="50.25092" lon="1.65931">
        <ele>4.1</ele>
        <time>2020-06-18T16:49:40Z</time>
      </trkpt>
      <trkpt lat="50.25097" lon="1.65942">
        <ele>4.1</ele>
        <time>2020-06-18T16:49:41Z</time>
      </trkpt>
      <trkpt lat="50.25102" lon="1.65954">
        <ele>4</ele>
        <time>2020-06-18T16:49:42Z</time>
      </trkpt>
      <trkpt lat="50.25107" lon="1.65964">
        <ele>3.8</ele>
        <time>2020-06-18T16:49:43Z</time>
      </trkpt>
      <trkpt lat="50.25114" lon="1.65974">
        <ele>3.7</ele>
        <time>2020-06-18T16:49:44Z</time>
      </trkpt>
      <trkpt lat="50.2512" lon="1.65983">
        <ele>3.7</ele>
        <time>2020-06-18T16:49:45Z</time>
      </trkpt>
      <trkpt lat="50.25126" lon="1.65991">
        <ele>3.7</ele>
        <time>2020-06-18T16:49:46Z</time>
      </trkpt>
      <trkpt lat="50.25131" lon="1.65999">
        <ele>3.6</ele>
        <time>2020-06-18T16:49:47Z</time>
      </trkpt>
      <trkpt lat="50.25137" lon="1.66006">
        <ele>3.6</ele>
        <time>2020-06-18T16:49:48Z</time>
      </trkpt>
      <trkpt lat="50.25143" lon="1.66013">
        <ele>3.6</ele>
        <time>2020-06-18T16:49:49Z</time>
      </trkpt>
      <trkpt lat="50.25149" lon="1.6602">
        <ele>3.6</ele>
        <time>2020-06-18T16:49:50Z</time>
      </trkpt>
      <trkpt lat="50.25155" lon="1.66028">
        <ele>3.6</ele>
        <time>2020-06-18T16:49:51Z</time>
      </trkpt>
      <trkpt lat="50.25161" lon="1.66035">
        <ele>3.7</ele>
        <time>2020-06-18T16:49:52Z</time>
      </trkpt>
      <trkpt lat="50.25167" lon="1.66041">
        <ele>3.7</ele>
        <time>2020-06-18T16:49:53Z</time>
      </trkpt>
      <trkpt lat="50.25173" lon="1.66046">
        <ele>3.7</ele>
        <time>2020-06-18T16:49:54Z</time>
      </trkpt>
      <trkpt lat="50.25179" lon="1.6605">
        <ele>3.7</ele>
        <time>2020-06-18T16:49:55Z</time>
      </trkpt>
      <trkpt lat="50.25185" lon="1.66053">
        <ele>3.8</ele>
        <time>2020-06-18T16:49:56Z</time>
      </trkpt>
      <trkpt lat="50.25192" lon="1.66053">
        <ele>3.9</ele>
        <time>2020-06-18T16:49:57Z</time>
      </trkpt>
      <trkpt lat="50.25199" lon="1.66054">
        <ele>4</ele>
        <time>2020-06-18T16:49:58Z</time>
      </trkpt>
      <trkpt lat="50.25205" lon="1.66054">
        <ele>4.1</ele>
        <time>2020-06-18T16:49:59Z</time>
      </trkpt>
      <trkpt lat="50.25212" lon="1.66053">
        <ele>4.1</ele>
        <time>2020-06-18T16:50:00Z</time>
      </trkpt>
      <trkpt lat="50.25218" lon="1.66052">
        <ele>4.2</ele>
        <time>2020-06-18T16:50:01Z</time>
      </trkpt>
      <trkpt lat="50.25224" lon="1.66051">
        <ele>4.3</ele>
        <time>2020-06-18T16:50:02Z</time>
      </trkpt>
      <trkpt lat="50.2523" lon="1.6605">
        <ele>4.3</ele>
        <time>2020-06-18T16:50:03Z</time>
      </trkpt>
      <trkpt lat="50.25236" lon="1.66049">
        <ele>4.4</ele>
        <time>2020-06-18T16:50:04Z</time>
      </trkpt>
      <trkpt lat="50.25242" lon="1.66047">
        <ele>4.4</ele>
        <time>2020-06-18T16:50:05Z</time>
      </trkpt>
      <trkpt lat="50.25248" lon="1.66046">
        <ele>4.5</ele>
        <time>2020-06-18T16:50:06Z</time>
      </trkpt>
      <trkpt lat="50.25254" lon="1.66045">
        <ele>4.6</ele>
        <time>2020-06-18T16:50:07Z</time>
      </trkpt>
      <trkpt lat="50.2526" lon="1.66047">
        <ele>4.7</ele>
        <time>2020-06-18T16:50:08Z</time>
      </trkpt>
      <trkpt lat="50.25267" lon="1.66049">
        <ele>4.8</ele>
        <time>2020-06-18T16:50:09Z</time>
      </trkpt>
      <trkpt lat="50.25273" lon="1.66053">
        <ele>4.9</ele>
        <time>2020-06-18T16:50:10Z</time>
      </trkpt>
      <trkpt lat="50.25279" lon="1.66057">
        <ele>5</ele>
        <time>2020-06-18T16:50:11Z</time>
      </trkpt>
      <trkpt lat="50.25285" lon="1.6606">
        <ele>4.9</ele>
        <time>2020-06-18T16:50:12Z</time>
      </trkpt>
      <trkpt lat="50.25291" lon="1.66063">
        <ele>4.7</ele>
        <time>2020-06-18T16:50:13Z</time>
      </trkpt>
      <trkpt lat="50.25298" lon="1.66063">
        <ele>4.6</ele>
        <time>2020-06-18T16:50:14Z</time>
      </trkpt>
      <trkpt lat="50.25304" lon="1.66062">
        <ele>4.6</ele>
        <time>2020-06-18T16:50:15Z</time>
      </trkpt>
      <trkpt lat="50.2531" lon="1.66058">
        <ele>4.6</ele>
        <time>2020-06-18T16:50:16Z</time>
      </trkpt>
      <trkpt lat="50.25315" lon="1.66054">
        <ele>4.6</ele>
        <time>2020-06-18T16:50:17Z</time>
      </trkpt>
      <trkpt lat="50.2532" lon="1.6605">
        <ele>4.7</ele>
        <time>2020-06-18T16:50:18Z</time>
      </trkpt>
      <trkpt lat="50.25325" lon="1.66049">
        <ele>4.8</ele>
        <time>2020-06-18T16:50:19Z</time>
      </trkpt>
      <trkpt lat="50.25329" lon="1.66045">
        <ele>4.8</ele>
        <time>2020-06-18T16:50:20Z</time>
      </trkpt>
      <trkpt lat="50.25333" lon="1.66041">
        <ele>4.9</ele>
        <time>2020-06-18T16:50:21Z</time>
      </trkpt>
      <trkpt lat="50.25336" lon="1.66036">
        <ele>5</ele>
        <time>2020-06-18T16:50:22Z</time>
      </trkpt>
      <trkpt lat="50.2534" lon="1.66032">
        <ele>5.1</ele>
        <time>2020-06-18T16:50:23Z</time>
      </trkpt>
      <trkpt lat="50.25343" lon="1.66029">
        <ele>5.2</ele>
        <time>2020-06-18T16:50:24Z</time>
      </trkpt>
      <trkpt lat="50.25346" lon="1.66027">
        <ele>5.2</ele>
        <time>2020-06-18T16:50:25Z</time>
      </trkpt>
      <trkpt lat="50.25349" lon="1.66029">
        <ele>5.3</ele>
        <time>2020-06-18T16:50:26Z</time>
      </trkpt>
      <trkpt lat="50.2535" lon="1.6603">
        <ele>5.3</ele>
        <time>2020-06-18T16:50:27Z</time>
      </trkpt>
      <trkpt lat="50.25353" lon="1.66035">
        <ele>5.3</ele>
        <time>2020-06-18T16:50:28Z</time>
      </trkpt>
      <trkpt lat="50.25355" lon="1.66043">
        <ele>5.2</ele>
        <time>2020-06-18T16:50:29Z</time>
      </trkpt>
      <trkpt lat="50.25358" lon="1.66051">
        <ele>5.2</ele>
        <time>2020-06-18T16:50:30Z</time>
      </trkpt>
      <trkpt lat="50.25361" lon="1.66059">
        <ele>5.2</ele>
        <time>2020-06-18T16:50:31Z</time>
      </trkpt>
      <trkpt lat="50.25364" lon="1.66069">
        <ele>5.1</ele>
        <time>2020-06-18T16:50:32Z</time>
      </trkpt>
      <trkpt lat="50.25368" lon="1.66078">
        <ele>5.1</ele>
        <time>2020-06-18T16:50:33Z</time>
      </trkpt>
      <trkpt lat="50.25372" lon="1.66087">
        <ele>5.1</ele>
        <time>2020-06-18T16:50:34Z</time>
      </trkpt>
      <trkpt lat="50.25375" lon="1.66098">
        <ele>5.1</ele>
        <time>2020-06-18T16:50:35Z</time>
      </trkpt>
      <trkpt lat="50.25379" lon="1.66107">
        <ele>5.1</ele>
        <time>2020-06-18T16:50:36Z</time>
      </trkpt>
      <trkpt lat="50.25384" lon="1.66115">
        <ele>5.1</ele>
        <time>2020-06-18T16:50:37Z</time>
      </trkpt>
      <trkpt lat="50.25389" lon="1.66124">
        <ele>5.1</ele>
        <time>2020-06-18T16:50:38Z</time>
      </trkpt>
      <trkpt lat="50.25393" lon="1.66132">
        <ele>5.1</ele>
        <time>2020-06-18T16:50:39Z</time>
      </trkpt>
      <trkpt lat="50.25397" lon="1.66141">
        <ele>5.1</ele>
        <time>2020-06-18T16:50:40Z</time>
      </trkpt>
      <trkpt lat="50.254" lon="1.6615">
        <ele>5.1</ele>
        <time>2020-06-18T16:50:41Z</time>
      </trkpt>
      <trkpt lat="50.25404" lon="1.66159">
        <ele>5.1</ele>
        <time>2020-06-18T16:50:42Z</time>
      </trkpt>
      <trkpt lat="50.25408" lon="1.66168">
        <ele>5.2</ele>
        <time>2020-06-18T16:50:43Z</time>
      </trkpt>
      <trkpt lat="50.25412" lon="1.66177">
        <ele>5.2</ele>
        <time>2020-06-18T16:50:44Z</time>
      </trkpt>
      <trkpt lat="50.25417" lon="1.66186">
        <ele>5.2</ele>
        <time>2020-06-18T16:50:45Z</time>
      </trkpt>
      <trkpt lat="50.25421" lon="1.66196">
        <ele>5.3</ele>
        <time>2020-06-18T16:50:46Z</time>
      </trkpt>
      <trkpt lat="50.25425" lon="1.66206">
        <ele>5.3</ele>
        <time>2020-06-18T16:50:47Z</time>
      </trkpt>
      <trkpt lat="50.25429" lon="1.66214">
        <ele>5.4</ele>
        <time>2020-06-18T16:50:48Z</time>
      </trkpt>
      <trkpt lat="50.25433" lon="1.66223">
        <ele>5.3</ele>
        <time>2020-06-18T16:50:49Z</time>
      </trkpt>
      <trkpt lat="50.25438" lon="1.66231">
        <ele>5.3</ele>
        <time>2020-06-18T16:50:50Z</time>
      </trkpt>
      <trkpt lat="50.25442" lon="1.66241">
        <ele>5.3</ele>
        <time>2020-06-18T16:50:51Z</time>
      </trkpt>
      <trkpt lat="50.25446" lon="1.66251">
        <ele>5.3</ele>
        <time>2020-06-18T16:50:52Z</time>
      </trkpt>
      <trkpt lat="50.2545" lon="1.6626">
        <ele>5.3</ele>
        <time>2020-06-18T16:50:53Z</time>
      </trkpt>
      <trkpt lat="50.25454" lon="1.66269">
        <ele>5.3</ele>
        <time>2020-06-18T16:50:54Z</time>
      </trkpt>
      <trkpt lat="50.25458" lon="1.66279">
        <ele>5.3</ele>
        <time>2020-06-18T16:50:55Z</time>
      </trkpt>
      <trkpt lat="50.25462" lon="1.66288">
        <ele>5.3</ele>
        <time>2020-06-18T16:50:56Z</time>
      </trkpt>
      <trkpt lat="50.25466" lon="1.66297">
        <ele>5.3</ele>
        <time>2020-06-18T16:50:57Z</time>
      </trkpt>
      <trkpt lat="50.2547" lon="1.66306">
        <ele>5.3</ele>
        <time>2020-06-18T16:50:58Z</time>
      </trkpt>
      <trkpt lat="50.25473" lon="1.66315">
        <ele>5.3</ele>
        <time>2020-06-18T16:50:59Z</time>
      </trkpt>
      <trkpt lat="50.25478" lon="1.66324">
        <ele>5.3</ele>
        <time>2020-06-18T16:51:00Z</time>
      </trkpt>
      <trkpt lat="50.25482" lon="1.66333">
        <ele>5.3</ele>
        <time>2020-06-18T16:51:01Z</time>
      </trkpt>
      <trkpt lat="50.25487" lon="1.66341">
        <ele>5.3</ele>
        <time>2020-06-18T16:51:02Z</time>
      </trkpt>
      <trkpt lat="50.25491" lon="1.6635">
        <ele>5.3</ele>
        <time>2020-06-18T16:51:03Z</time>
      </trkpt>
      <trkpt lat="50.25495" lon="1.66358">
        <ele>5.3</ele>
        <time>2020-06-18T16:51:04Z</time>
      </trkpt>
      <trkpt lat="50.255" lon="1.66367">
        <ele>5.3</ele>
        <time>2020-06-18T16:51:05Z</time>
      </trkpt>
      <trkpt lat="50.25505" lon="1.66376">
        <ele>5.3</ele>
        <time>2020-06-18T16:51:06Z</time>
      </trkpt>
      <trkpt lat="50.2551" lon="1.66384">
        <ele>5.3</ele>
        <time>2020-06-18T16:51:07Z</time>
      </trkpt>
      <trkpt lat="50.25515" lon="1.66392">
        <ele>5.3</ele>
        <time>2020-06-18T16:51:08Z</time>
      </trkpt>
      <trkpt lat="50.2552" lon="1.664">
        <ele>5.4</ele>
        <time>2020-06-18T16:51:09Z</time>
      </trkpt>
      <trkpt lat="50.25525" lon="1.66409">
        <ele>5.4</ele>
        <time>2020-06-18T16:51:10Z</time>
      </trkpt>
      <trkpt lat="50.2553" lon="1.66416">
        <ele>5.3</ele>
        <time>2020-06-18T16:51:11Z</time>
      </trkpt>
      <trkpt lat="50.25537" lon="1.66423">
        <ele>5.2</ele>
        <time>2020-06-18T16:51:12Z</time>
      </trkpt>
      <trkpt lat="50.25542" lon="1.6643">
        <ele>5.1</ele>
        <time>2020-06-18T16:51:13Z</time>
      </trkpt>
      <trkpt lat="50.25548" lon="1.66438">
        <ele>5.1</ele>
        <time>2020-06-18T16:51:14Z</time>
      </trkpt>
      <trkpt lat="50.25554" lon="1.66444">
        <ele>5.1</ele>
        <time>2020-06-18T16:51:15Z</time>
      </trkpt>
      <trkpt lat="50.25559" lon="1.66451">
        <ele>5.1</ele>
        <time>2020-06-18T16:51:16Z</time>
      </trkpt>
      <trkpt lat="50.25566" lon="1.66457">
        <ele>5</ele>
        <time>2020-06-18T16:51:17Z</time>
      </trkpt>
      <trkpt lat="50.25572" lon="1.66463">
        <ele>5</ele>
        <time>2020-06-18T16:51:18Z</time>
      </trkpt>
      <trkpt lat="50.25579" lon="1.66468">
        <ele>5</ele>
        <time>2020-06-18T16:51:19Z</time>
      </trkpt>
      <trkpt lat="50.25585" lon="1.66476">
        <ele>5.1</ele>
        <time>2020-06-18T16:51:20Z</time>
      </trkpt>
      <trkpt lat="50.25592" lon="1.66481">
        <ele>5.1</ele>
        <time>2020-06-18T16:51:21Z</time>
      </trkpt>
      <trkpt lat="50.25599" lon="1.66488">
        <ele>5.1</ele>
        <time>2020-06-18T16:51:22Z</time>
      </trkpt>
      <trkpt lat="50.25606" lon="1.66494">
        <ele>5.1</ele>
        <time>2020-06-18T16:51:23Z</time>
      </trkpt>
      <trkpt lat="50.25613" lon="1.66499">
        <ele>5.1</ele>
        <time>2020-06-18T16:51:24Z</time>
      </trkpt>
      <trkpt lat="50.25621" lon="1.66505">
        <ele>5.1</ele>
        <time>2020-06-18T16:51:25Z</time>
      </trkpt>
      <trkpt lat="50.25628" lon="1.6651">
        <ele>5.1</ele>
        <time>2020-06-18T16:51:26Z</time>
      </trkpt>
      <trkpt lat="50.25636" lon="1.66515">
        <ele>5.1</ele>
        <time>2020-06-18T16:51:27Z</time>
      </trkpt>
      <trkpt lat="50.25643" lon="1.6652">
        <ele>5.1</ele>
        <time>2020-06-18T16:51:28Z</time>
      </trkpt>
      <trkpt lat="50.25651" lon="1.66526">
        <ele>5.1</ele>
        <time>2020-06-18T16:51:29Z</time>
      </trkpt>
      <trkpt lat="50.25658" lon="1.6653">
        <ele>5.1</ele>
        <time>2020-06-18T16:51:30Z</time>
      </trkpt>
      <trkpt lat="50.25666" lon="1.66535">
        <ele>5.1</ele>
        <time>2020-06-18T16:51:31Z</time>
      </trkpt>
      <trkpt lat="50.25673" lon="1.66539">
        <ele>5.1</ele>
        <time>2020-06-18T16:51:32Z</time>
      </trkpt>
      <trkpt lat="50.2568" lon="1.66544">
        <ele>5</ele>
        <time>2020-06-18T16:51:33Z</time>
      </trkpt>
      <trkpt lat="50.25687" lon="1.66548">
        <ele>5</ele>
        <time>2020-06-18T16:51:34Z</time>
      </trkpt>
      <trkpt lat="50.25694" lon="1.66552">
        <ele>5</ele>
        <time>2020-06-18T16:51:35Z</time>
      </trkpt>
      <trkpt lat="50.25701" lon="1.66557">
        <ele>5</ele>
        <time>2020-06-18T16:51:36Z</time>
      </trkpt>
      <trkpt lat="50.25709" lon="1.66561">
        <ele>5.1</ele>
        <time>2020-06-18T16:51:37Z</time>
      </trkpt>
      <trkpt lat="50.25716" lon="1.66567">
        <ele>5.1</ele>
        <time>2020-06-18T16:51:38Z</time>
      </trkpt>
      <trkpt lat="50.25723" lon="1.66572">
        <ele>5.1</ele>
        <time>2020-06-18T16:51:39Z</time>
      </trkpt>
      <trkpt lat="50.25731" lon="1.66576">
        <ele>5.1</ele>
        <time>2020-06-18T16:51:40Z</time>
      </trkpt>
      <trkpt lat="50.25738" lon="1.66582">
        <ele>5.1</ele>
        <time>2020-06-18T16:51:41Z</time>
      </trkpt>
      <trkpt lat="50.25745" lon="1.66586">
        <ele>5.1</ele>
        <time>2020-06-18T16:51:42Z</time>
      </trkpt>
      <trkpt lat="50.25752" lon="1.66592">
        <ele>5.1</ele>
        <time>2020-06-18T16:51:43Z</time>
      </trkpt>
      <trkpt lat="50.2576" lon="1.66597">
        <ele>5.1</ele>
        <time>2020-06-18T16:51:44Z</time>
      </trkpt>
      <trkpt lat="50.25767" lon="1.66601">
        <ele>5.1</ele>
        <time>2020-06-18T16:51:45Z</time>
      </trkpt>
      <trkpt lat="50.25775" lon="1.66607">
        <ele>5.1</ele>
        <time>2020-06-18T16:51:46Z</time>
      </trkpt>
      <trkpt lat="50.25782" lon="1.6661">
        <ele>5.1</ele>
        <time>2020-06-18T16:51:47Z</time>
      </trkpt>
      <trkpt lat="50.2579" lon="1.66615">
        <ele>5.1</ele>
        <time>2020-06-18T16:51:48Z</time>
      </trkpt>
      <trkpt lat="50.25798" lon="1.6662">
        <ele>5.1</ele>
        <time>2020-06-18T16:51:49Z</time>
      </trkpt>
      <trkpt lat="50.25805" lon="1.66624">
        <ele>5.1</ele>
        <time>2020-06-18T16:51:50Z</time>
      </trkpt>
      <trkpt lat="50.25812" lon="1.66629">
        <ele>5</ele>
        <time>2020-06-18T16:51:51Z</time>
      </trkpt>
      <trkpt lat="50.25819" lon="1.66634">
        <ele>5</ele>
        <time>2020-06-18T16:51:52Z</time>
      </trkpt>
      <trkpt lat="50.25826" lon="1.66639">
        <ele>5</ele>
        <time>2020-06-18T16:51:53Z</time>
      </trkpt>
      <trkpt lat="50.25833" lon="1.66644">
        <ele>5</ele>
        <time>2020-06-18T16:51:54Z</time>
      </trkpt>
      <trkpt lat="50.25841" lon="1.66649">
        <ele>4.9</ele>
        <time>2020-06-18T16:51:55Z</time>
      </trkpt>
      <trkpt lat="50.25848" lon="1.66653">
        <ele>4.9</ele>
        <time>2020-06-18T16:51:56Z</time>
      </trkpt>
      <trkpt lat="50.25856" lon="1.66659">
        <ele>4.8</ele>
        <time>2020-06-18T16:51:57Z</time>
      </trkpt>
      <trkpt lat="50.25863" lon="1.66663">
        <ele>4.8</ele>
        <time>2020-06-18T16:51:58Z</time>
      </trkpt>
      <trkpt lat="50.25871" lon="1.66668">
        <ele>4.8</ele>
        <time>2020-06-18T16:51:59Z</time>
      </trkpt>
      <trkpt lat="50.25879" lon="1.66673">
        <ele>4.8</ele>
        <time>2020-06-18T16:52:00Z</time>
      </trkpt>
      <trkpt lat="50.25887" lon="1.66678">
        <ele>4.8</ele>
        <time>2020-06-18T16:52:01Z</time>
      </trkpt>
      <trkpt lat="50.25894" lon="1.66682">
        <ele>4.7</ele>
        <time>2020-06-18T16:52:02Z</time>
      </trkpt>
      <trkpt lat="50.25902" lon="1.66687">
        <ele>4.7</ele>
        <time>2020-06-18T16:52:03Z</time>
      </trkpt>
      <trkpt lat="50.2591" lon="1.66691">
        <ele>4.6</ele>
        <time>2020-06-18T16:52:04Z</time>
      </trkpt>
      <trkpt lat="50.25917" lon="1.66696">
        <ele>4.6</ele>
        <time>2020-06-18T16:52:05Z</time>
      </trkpt>
      <trkpt lat="50.25925" lon="1.667">
        <ele>4.5</ele>
        <time>2020-06-18T16:52:06Z</time>
      </trkpt>
      <trkpt lat="50.25933" lon="1.66705">
        <ele>4.4</ele>
        <time>2020-06-18T16:52:07Z</time>
      </trkpt>
      <trkpt lat="50.25941" lon="1.66709">
        <ele>4.4</ele>
        <time>2020-06-18T16:52:08Z</time>
      </trkpt>
      <trkpt lat="50.25949" lon="1.66712">
        <ele>4.4</ele>
        <time>2020-06-18T16:52:09Z</time>
      </trkpt>
      <trkpt lat="50.25956" lon="1.66716">
        <ele>4.5</ele>
        <time>2020-06-18T16:52:10Z</time>
      </trkpt>
      <trkpt lat="50.25964" lon="1.66719">
        <ele>4.6</ele>
        <time>2020-06-18T16:52:11Z</time>
      </trkpt>
      <trkpt lat="50.25972" lon="1.66722">
        <ele>4.7</ele>
        <time>2020-06-18T16:52:12Z</time>
      </trkpt>
      <trkpt lat="50.25981" lon="1.66726">
        <ele>4.7</ele>
        <time>2020-06-18T16:52:13Z</time>
      </trkpt>
      <trkpt lat="50.25989" lon="1.66729">
        <ele>4.6</ele>
        <time>2020-06-18T16:52:14Z</time>
      </trkpt>
      <trkpt lat="50.25997" lon="1.66732">
        <ele>4.6</ele>
        <time>2020-06-18T16:52:15Z</time>
      </trkpt>
      <trkpt lat="50.26005" lon="1.66735">
        <ele>4.5</ele>
        <time>2020-06-18T16:52:16Z</time>
      </trkpt>
      <trkpt lat="50.26013" lon="1.66738">
        <ele>4.5</ele>
        <time>2020-06-18T16:52:17Z</time>
      </trkpt>
      <trkpt lat="50.26021" lon="1.66741">
        <ele>4.5</ele>
        <time>2020-06-18T16:52:18Z</time>
      </trkpt>
      <trkpt lat="50.2603" lon="1.66744">
        <ele>4.4</ele>
        <time>2020-06-18T16:52:19Z</time>
      </trkpt>
      <trkpt lat="50.26038" lon="1.66746">
        <ele>4.4</ele>
        <time>2020-06-18T16:52:20Z</time>
      </trkpt>
      <trkpt lat="50.26046" lon="1.66747">
        <ele>4.4</ele>
        <time>2020-06-18T16:52:21Z</time>
      </trkpt>
      <trkpt lat="50.26054" lon="1.66748">
        <ele>4.4</ele>
        <time>2020-06-18T16:52:22Z</time>
      </trkpt>
      <trkpt lat="50.26062" lon="1.66749">
        <ele>4.4</ele>
        <time>2020-06-18T16:52:23Z</time>
      </trkpt>
      <trkpt lat="50.26069" lon="1.66749">
        <ele>4.4</ele>
        <time>2020-06-18T16:52:24Z</time>
      </trkpt>
      <trkpt lat="50.26076" lon="1.66749">
        <ele>4.4</ele>
        <time>2020-06-18T16:52:25Z</time>
      </trkpt>
      <trkpt lat="50.26083" lon="1.6675">
        <ele>4.5</ele>
        <time>2020-06-18T16:52:26Z</time>
      </trkpt>
      <trkpt lat="50.2609" lon="1.66751">
        <ele>4.5</ele>
        <time>2020-06-18T16:52:27Z</time>
      </trkpt>
      <trkpt lat="50.26097" lon="1.66752">
        <ele>4.6</ele>
        <time>2020-06-18T16:52:28Z</time>
      </trkpt>
      <trkpt lat="50.26104" lon="1.66754">
        <ele>4.7</ele>
        <time>2020-06-18T16:52:29Z</time>
      </trkpt>
      <trkpt lat="50.26111" lon="1.66757">
        <ele>4.8</ele>
        <time>2020-06-18T16:52:30Z</time>
      </trkpt>
      <trkpt lat="50.26116" lon="1.66763">
        <ele>5</ele>
        <time>2020-06-18T16:52:31Z</time>
      </trkpt>
      <trkpt lat="50.26122" lon="1.66769">
        <ele>5.1</ele>
        <time>2020-06-18T16:52:32Z</time>
      </trkpt>
      <trkpt lat="50.26128" lon="1.66773">
        <ele>5.3</ele>
        <time>2020-06-18T16:52:33Z</time>
      </trkpt>
      <trkpt lat="50.26134" lon="1.66778">
        <ele>5.3</ele>
        <time>2020-06-18T16:52:34Z</time>
      </trkpt>
      <trkpt lat="50.2614" lon="1.66777">
        <ele>5.3</ele>
        <time>2020-06-18T16:52:35Z</time>
      </trkpt>
      <trkpt lat="50.26146" lon="1.66772">
        <ele>5.4</ele>
        <time>2020-06-18T16:52:36Z</time>
      </trkpt>
      <trkpt lat="50.26152" lon="1.66766">
        <ele>5.5</ele>
        <time>2020-06-18T16:52:37Z</time>
      </trkpt>
      <trkpt lat="50.26156" lon="1.66758">
        <ele>5.6</ele>
        <time>2020-06-18T16:52:38Z</time>
      </trkpt>
      <trkpt lat="50.26157" lon="1.66748">
        <ele>5.6</ele>
        <time>2020-06-18T16:52:39Z</time>
      </trkpt>
      <trkpt lat="50.26156" lon="1.66738">
        <ele>5.7</ele>
        <time>2020-06-18T16:52:40Z</time>
      </trkpt>
      <trkpt lat="50.26155" lon="1.66729">
        <ele>5.7</ele>
        <time>2020-06-18T16:52:41Z</time>
      </trkpt>
      <trkpt lat="50.26152" lon="1.6672">
        <ele>5.9</ele>
        <time>2020-06-18T16:52:42Z</time>
      </trkpt>
      <trkpt lat="50.26148" lon="1.66713">
        <ele>5.8</ele>
        <time>2020-06-18T16:52:43Z</time>
      </trkpt>
      <trkpt lat="50.26143" lon="1.66712">
        <ele>5.7</ele>
        <time>2020-06-18T16:52:44Z</time>
      </trkpt>
      <trkpt lat="50.26137" lon="1.66711">
        <ele>5.6</ele>
        <time>2020-06-18T16:52:45Z</time>
      </trkpt>
      <trkpt lat="50.26131" lon="1.66715">
        <ele>5.5</ele>
        <time>2020-06-18T16:52:46Z</time>
      </trkpt>
      <trkpt lat="50.26126" lon="1.6672">
        <ele>5.4</ele>
        <time>2020-06-18T16:52:47Z</time>
      </trkpt>
      <trkpt lat="50.26121" lon="1.66726">
        <ele>5.3</ele>
        <time>2020-06-18T16:52:48Z</time>
      </trkpt>
      <trkpt lat="50.26118" lon="1.66735">
        <ele>5.2</ele>
        <time>2020-06-18T16:52:49Z</time>
      </trkpt>
      <trkpt lat="50.26117" lon="1.66744">
        <ele>5</ele>
        <time>2020-06-18T16:52:50Z</time>
      </trkpt>
      <trkpt lat="50.26118" lon="1.66754">
        <ele>4.9</ele>
        <time>2020-06-18T16:52:51Z</time>
      </trkpt>
      <trkpt lat="50.26119" lon="1.66764">
        <ele>5</ele>
        <time>2020-06-18T16:52:52Z</time>
      </trkpt>
      <trkpt lat="50.26123" lon="1.66772">
        <ele>5.2</ele>
        <time>2020-06-18T16:52:53Z</time>
      </trkpt>
      <trkpt lat="50.26128" lon="1.66777">
        <ele>5.3</ele>
        <time>2020-06-18T16:52:54Z</time>
      </trkpt>
      <trkpt lat="50.26134" lon="1.66779">
        <ele>5.3</ele>
        <time>2020-06-18T16:52:55Z</time>
      </trkpt>
      <trkpt lat="50.2614" lon="1.66778">
        <ele>5.3</ele>
        <time>2020-06-18T16:52:56Z</time>
      </trkpt>
      <trkpt lat="50.26146" lon="1.66776">
        <ele>5.4</ele>
        <time>2020-06-18T16:52:57Z</time>
      </trkpt>
      <trkpt lat="50.26152" lon="1.66771">
        <ele>5.5</ele>
        <time>2020-06-18T16:52:58Z</time>
      </trkpt>
      <trkpt lat="50.26158" lon="1.66766">
        <ele>5.6</ele>
        <time>2020-06-18T16:52:59Z</time>
      </trkpt>
      <trkpt lat="50.26164" lon="1.66761">
        <ele>5.6</ele>
        <time>2020-06-18T16:53:00Z</time>
      </trkpt>
      <trkpt lat="50.26171" lon="1.66759">
        <ele>5.7</ele>
        <time>2020-06-18T16:53:01Z</time>
      </trkpt>
      <trkpt lat="50.26178" lon="1.66758">
        <ele>5.7</ele>
        <time>2020-06-18T16:53:02Z</time>
      </trkpt>
      <trkpt lat="50.26185" lon="1.66756">
        <ele>5.7</ele>
        <time>2020-06-18T16:53:03Z</time>
      </trkpt>
      <trkpt lat="50.26192" lon="1.66754">
        <ele>5.7</ele>
        <time>2020-06-18T16:53:04Z</time>
      </trkpt>
      <trkpt lat="50.26199" lon="1.66752">
        <ele>5.7</ele>
        <time>2020-06-18T16:53:05Z</time>
      </trkpt>
      <trkpt lat="50.26206" lon="1.66752">
        <ele>5.7</ele>
        <time>2020-06-18T16:53:06Z</time>
      </trkpt>
      <trkpt lat="50.26214" lon="1.66751">
        <ele>5.7</ele>
        <time>2020-06-18T16:53:07Z</time>
      </trkpt>
      <trkpt lat="50.26221" lon="1.66751">
        <ele>5.8</ele>
        <time>2020-06-18T16:53:08Z</time>
      </trkpt>
      <trkpt lat="50.26228" lon="1.6675">
        <ele>5.8</ele>
        <time>2020-06-18T16:53:09Z</time>
      </trkpt>
      <trkpt lat="50.26236" lon="1.6675">
        <ele>5.9</ele>
        <time>2020-06-18T16:53:10Z</time>
      </trkpt>
      <trkpt lat="50.26244" lon="1.66751">
        <ele>6</ele>
        <time>2020-06-18T16:53:11Z</time>
      </trkpt>
      <trkpt lat="50.26251" lon="1.66751">
        <ele>6.1</ele>
        <time>2020-06-18T16:53:12Z</time>
      </trkpt>
      <trkpt lat="50.26259" lon="1.66751">
        <ele>6.1</ele>
        <time>2020-06-18T16:53:13Z</time>
      </trkpt>
      <trkpt lat="50.26266" lon="1.66751">
        <ele>6.2</ele>
        <time>2020-06-18T16:53:14Z</time>
      </trkpt>
      <trkpt lat="50.26273" lon="1.66752">
        <ele>6.2</ele>
        <time>2020-06-18T16:53:15Z</time>
      </trkpt>
      <trkpt lat="50.2628" lon="1.66753">
        <ele>6.3</ele>
        <time>2020-06-18T16:53:16Z</time>
      </trkpt>
      <trkpt lat="50.26287" lon="1.66753">
        <ele>6.7</ele>
        <time>2020-06-18T16:53:17Z</time>
      </trkpt>
      <trkpt lat="50.26294" lon="1.66752">
        <ele>6.9</ele>
        <time>2020-06-18T16:53:18Z</time>
      </trkpt>
      <trkpt lat="50.26301" lon="1.6675">
        <ele>7</ele>
        <time>2020-06-18T16:53:19Z</time>
      </trkpt>
      <trkpt lat="50.26308" lon="1.66749">
        <ele>7.1</ele>
        <time>2020-06-18T16:53:20Z</time>
      </trkpt>
      <trkpt lat="50.26314" lon="1.66749">
        <ele>7.2</ele>
        <time>2020-06-18T16:53:21Z</time>
      </trkpt>
      <trkpt lat="50.2632" lon="1.66748">
        <ele>7.2</ele>
        <time>2020-06-18T16:53:22Z</time>
      </trkpt>
      <trkpt lat="50.26326" lon="1.66747">
        <ele>7.3</ele>
        <time>2020-06-18T16:53:23Z</time>
      </trkpt>
      <trkpt lat="50.26332" lon="1.66746">
        <ele>7.3</ele>
        <time>2020-06-18T16:53:24Z</time>
      </trkpt>
      <trkpt lat="50.26337" lon="1.66744">
        <ele>7.3</ele>
        <time>2020-06-18T16:53:25Z</time>
      </trkpt>
      <trkpt lat="50.26343" lon="1.66742">
        <ele>7.3</ele>
        <time>2020-06-18T16:53:26Z</time>
      </trkpt>
      <trkpt lat="50.26348" lon="1.6674">
        <ele>7.3</ele>
        <time>2020-06-18T16:53:27Z</time>
      </trkpt>
      <trkpt lat="50.26354" lon="1.66738">
        <ele>7.4</ele>
        <time>2020-06-18T16:53:28Z</time>
      </trkpt>
      <trkpt lat="50.2636" lon="1.66736">
        <ele>7.4</ele>
        <time>2020-06-18T16:53:29Z</time>
      </trkpt>
      <trkpt lat="50.26366" lon="1.66732">
        <ele>7.5</ele>
        <time>2020-06-18T16:53:30Z</time>
      </trkpt>
      <trkpt lat="50.26372" lon="1.66729">
        <ele>7.5</ele>
        <time>2020-06-18T16:53:31Z</time>
      </trkpt>
      <trkpt lat="50.26378" lon="1.66727">
        <ele>7.6</ele>
        <time>2020-06-18T16:53:32Z</time>
      </trkpt>
      <trkpt lat="50.26384" lon="1.66724">
        <ele>7.6</ele>
        <time>2020-06-18T16:53:33Z</time>
      </trkpt>
      <trkpt lat="50.26389" lon="1.66722">
        <ele>7.7</ele>
        <time>2020-06-18T16:53:34Z</time>
      </trkpt>
      <trkpt lat="50.26394" lon="1.6672">
        <ele>7.8</ele>
        <time>2020-06-18T16:53:35Z</time>
      </trkpt>
      <trkpt lat="50.264" lon="1.66717">
        <ele>7.8</ele>
        <time>2020-06-18T16:53:36Z</time>
      </trkpt>
      <trkpt lat="50.26405" lon="1.66715">
        <ele>7.9</ele>
        <time>2020-06-18T16:53:37Z</time>
      </trkpt>
      <trkpt lat="50.2641" lon="1.66712">
        <ele>8</ele>
        <time>2020-06-18T16:53:38Z</time>
      </trkpt>
      <trkpt lat="50.26417" lon="1.66709">
        <ele>8</ele>
        <time>2020-06-18T16:53:39Z</time>
      </trkpt>
      <trkpt lat="50.26423" lon="1.66706">
        <ele>8.1</ele>
        <time>2020-06-18T16:53:40Z</time>
      </trkpt>
      <trkpt lat="50.26428" lon="1.66704">
        <ele>8.2</ele>
        <time>2020-06-18T16:53:41Z</time>
      </trkpt>
      <trkpt lat="50.26434" lon="1.66701">
        <ele>8.2</ele>
        <time>2020-06-18T16:53:42Z</time>
      </trkpt>
      <trkpt lat="50.2644" lon="1.66698">
        <ele>8.3</ele>
        <time>2020-06-18T16:53:43Z</time>
      </trkpt>
      <trkpt lat="50.26444" lon="1.66696">
        <ele>8.3</ele>
        <time>2020-06-18T16:53:44Z</time>
      </trkpt>
      <trkpt lat="50.26452" lon="1.66692">
        <ele>8.4</ele>
        <time>2020-06-18T16:53:45Z</time>
      </trkpt>
      <trkpt lat="50.26458" lon="1.66689">
        <ele>8.4</ele>
        <time>2020-06-18T16:53:46Z</time>
      </trkpt>
      <trkpt lat="50.26464" lon="1.66687">
        <ele>8.4</ele>
        <time>2020-06-18T16:53:47Z</time>
      </trkpt>
      <trkpt lat="50.2647" lon="1.66685">
        <ele>8.5</ele>
        <time>2020-06-18T16:53:48Z</time>
      </trkpt>
      <trkpt lat="50.26477" lon="1.66683">
        <ele>8.5</ele>
        <time>2020-06-18T16:53:49Z</time>
      </trkpt>
      <trkpt lat="50.26485" lon="1.66682">
        <ele>8.5</ele>
        <time>2020-06-18T16:53:50Z</time>
      </trkpt>
      <trkpt lat="50.26493" lon="1.6668">
        <ele>8.5</ele>
        <time>2020-06-18T16:53:51Z</time>
      </trkpt>
      <trkpt lat="50.26501" lon="1.66678">
        <ele>8.5</ele>
        <time>2020-06-18T16:53:52Z</time>
      </trkpt>
      <trkpt lat="50.26506" lon="1.66676">
        <ele>8.5</ele>
        <time>2020-06-18T16:53:53Z</time>
      </trkpt>
      <trkpt lat="50.26512" lon="1.66674">
        <ele>8.5</ele>
        <time>2020-06-18T16:53:54Z</time>
      </trkpt>
      <trkpt lat="50.26519" lon="1.66672">
        <ele>8.4</ele>
        <time>2020-06-18T16:53:55Z</time>
      </trkpt>
      <trkpt lat="50.26525" lon="1.66671">
        <ele>8.4</ele>
        <time>2020-06-18T16:53:56Z</time>
      </trkpt>
      <trkpt lat="50.26531" lon="1.66669">
        <ele>8.4</ele>
        <time>2020-06-18T16:53:57Z</time>
      </trkpt>
      <trkpt lat="50.26538" lon="1.66666">
        <ele>8.4</ele>
        <time>2020-06-18T16:53:58Z</time>
      </trkpt>
      <trkpt lat="50.26544" lon="1.66665">
        <ele>8.5</ele>
        <time>2020-06-18T16:53:59Z</time>
      </trkpt>
      <trkpt lat="50.2655" lon="1.66664">
        <ele>8.5</ele>
        <time>2020-06-18T16:54:00Z</time>
      </trkpt>
      <trkpt lat="50.26556" lon="1.66666">
        <ele>8.6</ele>
        <time>2020-06-18T16:54:01Z</time>
      </trkpt>
      <trkpt lat="50.2656" lon="1.66669">
        <ele>8.6</ele>
        <time>2020-06-18T16:54:02Z</time>
      </trkpt>
      <trkpt lat="50.26563" lon="1.66675">
        <ele>8.5</ele>
        <time>2020-06-18T16:54:03Z</time>
      </trkpt>
      <trkpt lat="50.26565" lon="1.66682">
        <ele>8.5</ele>
        <time>2020-06-18T16:54:04Z</time>
      </trkpt>
      <trkpt lat="50.26568" lon="1.66689">
        <ele>8.4</ele>
        <time>2020-06-18T16:54:05Z</time>
      </trkpt>
      <trkpt lat="50.2657" lon="1.66694">
        <ele>8.4</ele>
        <time>2020-06-18T16:54:06Z</time>
      </trkpt>
      <trkpt lat="50.26573" lon="1.667">
        <ele>8.4</ele>
        <time>2020-06-18T16:54:07Z</time>
      </trkpt>
      <trkpt lat="50.26575" lon="1.66707">
        <ele>8.3</ele>
        <time>2020-06-18T16:54:08Z</time>
      </trkpt>
      <trkpt lat="50.26577" lon="1.66716">
        <ele>8.3</ele>
        <time>2020-06-18T16:54:09Z</time>
      </trkpt>
      <trkpt lat="50.2658" lon="1.66722">
        <ele>8.2</ele>
        <time>2020-06-18T16:54:10Z</time>
      </trkpt>
      <trkpt lat="50.2658" lon="1.66725">
        <ele>8.2</ele>
        <time>2020-06-18T16:54:11Z</time>
      </trkpt>
      <trkpt lat="50.26582" lon="1.66729">
        <ele>8.2</ele>
        <time>2020-06-18T16:54:12Z</time>
      </trkpt>
      <trkpt lat="50.26583" lon="1.66732">
        <ele>8.2</ele>
        <time>2020-06-18T16:54:13Z</time>
      </trkpt>
      <trkpt lat="50.26582" lon="1.66733">
        <ele>8.2</ele>
        <time>2020-06-18T16:54:14Z</time>
      </trkpt>
      <trkpt lat="50.26585" lon="1.66734">
        <ele>8.1</ele>
        <time>2020-06-18T16:54:15Z</time>
      </trkpt>
      <trkpt lat="50.26585" lon="1.66734">
        <ele>8.1</ele>
        <time>2020-06-18T16:54:16Z</time>
      </trkpt>
      <trkpt lat="50.26584" lon="1.66734">
        <ele>8.1</ele>
        <time>2020-06-18T16:54:17Z</time>
      </trkpt>
      <trkpt lat="50.26585" lon="1.66735">
        <ele>8.1</ele>
        <time>2020-06-18T16:54:18Z</time>
      </trkpt>
      <trkpt lat="50.26586" lon="1.66736">
        <ele>8.1</ele>
        <time>2020-06-18T16:54:19Z</time>
      </trkpt>
      <trkpt lat="50.26586" lon="1.66736">
        <ele>8.1</ele>
        <time>2020-06-18T16:54:20Z</time>
      </trkpt>
      <trkpt lat="50.26585" lon="1.66735">
        <ele>8.1</ele>
        <time>2020-06-18T16:54:21Z</time>
      </trkpt>
      <trkpt lat="50.26585" lon="1.66736">
        <ele>8.1</ele>
        <time>2020-06-18T16:54:22Z</time>
      </trkpt>
      <trkpt lat="50.26585" lon="1.66736">
        <ele>8.1</ele>
        <time>2020-06-18T16:54:23Z</time>
      </trkpt>
      <trkpt lat="50.26586" lon="1.66736">
        <ele>8.1</ele>
        <time>2020-06-18T16:54:24Z</time>
      </trkpt>
      <trkpt lat="50.26585" lon="1.66736">
        <ele>8.1</ele>
        <time>2020-06-18T16:54:25Z</time>
      </trkpt>
      <trkpt lat="50.26585" lon="1.66735">
        <ele>8.1</ele>
        <time>2020-06-18T16:54:26Z</time>
      </trkpt>
      <trkpt lat="50.26586" lon="1.66734">
        <ele>8.1</ele>
        <time>2020-06-18T16:54:27Z</time>
      </trkpt>
      <trkpt lat="50.26585" lon="1.66733">
        <ele>8</ele>
        <time>2020-06-18T16:54:28Z</time>
      </trkpt>
      <trkpt lat="50.26585" lon="1.66732">
        <ele>8</ele>
        <time>2020-06-18T16:54:29Z</time>
      </trkpt>
      <trkpt lat="50.26584" lon="1.66731">
        <ele>8</ele>
        <time>2020-06-18T16:54:30Z</time>
      </trkpt>
      <trkpt lat="50.26583" lon="1.66729">
        <ele>8</ele>
        <time>2020-06-18T16:54:31Z</time>
      </trkpt>
      <trkpt lat="50.26582" lon="1.66728">
        <ele>8</ele>
        <time>2020-06-18T16:54:32Z</time>
      </trkpt>
      <trkpt lat="50.26582" lon="1.66727">
        <ele>8</ele>
        <time>2020-06-18T16:54:33Z</time>
      </trkpt>
      <trkpt lat="50.26582" lon="1.66726">
        <ele>8</ele>
        <time>2020-06-18T16:54:34Z</time>
      </trkpt>
      <trkpt lat="50.26582" lon="1.66726">
        <ele>8</ele>
        <time>2020-06-18T16:54:35Z</time>
      </trkpt>
      <trkpt lat="50.26582" lon="1.66726">
        <ele>8</ele>
        <time>2020-06-18T16:54:36Z</time>
      </trkpt>
      <trkpt lat="50.26582" lon="1.66725">
        <ele>8</ele>
        <time>2020-06-18T16:54:37Z</time>
      </trkpt>
      <trkpt lat="50.26583" lon="1.66725">
        <ele>8</ele>
        <time>2020-06-18T16:54:38Z</time>
      </trkpt>
      <trkpt lat="50.26583" lon="1.66725">
        <ele>8</ele>
        <time>2020-06-18T16:54:39Z</time>
      </trkpt>
      <trkpt lat="50.26583" lon="1.66724">
        <ele>8</ele>
        <time>2020-06-18T16:54:40Z</time>
      </trkpt>
      <trkpt lat="50.26583" lon="1.66724">
        <ele>8</ele>
        <time>2020-06-18T16:56:59Z</time>
      </trkpt>
      <trkpt lat="50.26583" lon="1.66724">
        <ele>8</ele>
        <time>2020-06-18T16:57:00Z</time>
      </trkpt>
      <trkpt lat="50.26583" lon="1.66723">
        <ele>8</ele>
        <time>2020-06-18T16:57:01Z</time>
      </trkpt>
      <trkpt lat="50.26583" lon="1.66717">
        <ele>8.1</ele>
        <time>2020-06-18T16:57:02Z</time>
      </trkpt>
      <trkpt lat="50.26583" lon="1.66715">
        <ele>8.1</ele>
        <time>2020-06-18T16:57:03Z</time>
      </trkpt>
      <trkpt lat="50.26582" lon="1.6671">
        <ele>8.1</ele>
        <time>2020-06-18T16:57:04Z</time>
      </trkpt>
      <trkpt lat="50.26581" lon="1.66708">
        <ele>8.1</ele>
        <time>2020-06-18T16:57:05Z</time>
      </trkpt>
      <trkpt lat="50.26581" lon="1.66703">
        <ele>8.2</ele>
        <time>2020-06-18T16:57:06Z</time>
      </trkpt>
      <trkpt lat="50.26582" lon="1.66697">
        <ele>8.2</ele>
        <time>2020-06-18T16:57:07Z</time>
      </trkpt>
      <trkpt lat="50.26582" lon="1.66692">
        <ele>8.2</ele>
        <time>2020-06-18T16:57:08Z</time>
      </trkpt>
      <trkpt lat="50.2658" lon="1.66687">
        <ele>8.3</ele>
        <time>2020-06-18T16:57:09Z</time>
      </trkpt>
      <trkpt lat="50.26579" lon="1.66686">
        <ele>8.3</ele>
        <time>2020-06-18T16:57:10Z</time>
      </trkpt>
      <trkpt lat="50.26576" lon="1.66684">
        <ele>8.3</ele>
        <time>2020-06-18T16:57:11Z</time>
      </trkpt>
      <trkpt lat="50.26574" lon="1.66685">
        <ele>8.3</ele>
        <time>2020-06-18T16:57:12Z</time>
      </trkpt>
      <trkpt lat="50.2657" lon="1.66685">
        <ele>8.4</ele>
        <time>2020-06-18T16:57:13Z</time>
      </trkpt>
      <trkpt lat="50.26569" lon="1.66685">
        <ele>8.4</ele>
        <time>2020-06-18T16:57:14Z</time>
      </trkpt>
      <trkpt lat="50.26565" lon="1.66684">
        <ele>8.4</ele>
        <time>2020-06-18T16:57:15Z</time>
      </trkpt>
      <trkpt lat="50.26564" lon="1.66683">
        <ele>8.4</ele>
        <time>2020-06-18T16:57:16Z</time>
      </trkpt>
      <trkpt lat="50.26561" lon="1.66681">
        <ele>8.5</ele>
        <time>2020-06-18T16:57:17Z</time>
      </trkpt>
      <trkpt lat="50.2656" lon="1.6668">
        <ele>8.5</ele>
        <time>2020-06-18T16:57:18Z</time>
      </trkpt>
      <trkpt lat="50.26559" lon="1.66678">
        <ele>8.5</ele>
        <time>2020-06-18T16:57:19Z</time>
      </trkpt>
      <trkpt lat="50.26558" lon="1.66676">
        <ele>8.5</ele>
        <time>2020-06-18T16:57:20Z</time>
      </trkpt>
      <trkpt lat="50.26556" lon="1.66671">
        <ele>8.6</ele>
        <time>2020-06-18T16:57:21Z</time>
      </trkpt>
      <trkpt lat="50.26556" lon="1.6667">
        <ele>8.6</ele>
        <time>2020-06-18T16:57:22Z</time>
      </trkpt>
      <trkpt lat="50.26559" lon="1.66666">
        <ele>8.6</ele>
        <time>2020-06-18T16:57:23Z</time>
      </trkpt>
      <trkpt lat="50.2656" lon="1.66665">
        <ele>8.6</ele>
        <time>2020-06-18T16:57:24Z</time>
      </trkpt>
      <trkpt lat="50.26563" lon="1.66663">
        <ele>8.6</ele>
        <time>2020-06-18T16:57:25Z</time>
      </trkpt>
      <trkpt lat="50.26564" lon="1.66662">
        <ele>8.6</ele>
        <time>2020-06-18T16:57:26Z</time>
      </trkpt>
      <trkpt lat="50.26568" lon="1.66661">
        <ele>8.6</ele>
        <time>2020-06-18T16:57:27Z</time>
      </trkpt>
      <trkpt lat="50.2657" lon="1.66661">
        <ele>8.6</ele>
        <time>2020-06-18T16:57:28Z</time>
      </trkpt>
      <trkpt lat="50.26574" lon="1.66661">
        <ele>8.6</ele>
        <time>2020-06-18T16:57:29Z</time>
      </trkpt>
      <trkpt lat="50.26577" lon="1.6666">
        <ele>8.6</ele>
        <time>2020-06-18T16:57:30Z</time>
      </trkpt>
      <trkpt lat="50.26581" lon="1.6666">
        <ele>8.6</ele>
        <time>2020-06-18T16:57:31Z</time>
      </trkpt>
      <trkpt lat="50.26582" lon="1.6666">
        <ele>8.6</ele>
        <time>2020-06-18T16:57:32Z</time>
      </trkpt>
      <trkpt lat="50.26586" lon="1.66659">
        <ele>8.7</ele>
        <time>2020-06-18T16:57:33Z</time>
      </trkpt>
      <trkpt lat="50.26587" lon="1.66659">
        <ele>8.7</ele>
        <time>2020-06-18T16:57:34Z</time>
      </trkpt>
      <trkpt lat="50.26589" lon="1.66659">
        <ele>8.7</ele>
        <time>2020-06-18T16:57:35Z</time>
      </trkpt>
      <trkpt lat="50.26594" lon="1.6666">
        <ele>8.7</ele>
        <time>2020-06-18T16:57:36Z</time>
      </trkpt>
      <trkpt lat="50.26598" lon="1.6666">
        <ele>8.7</ele>
        <time>2020-06-18T16:57:37Z</time>
      </trkpt>
      <trkpt lat="50.26603" lon="1.6666">
        <ele>8.7</ele>
        <time>2020-06-18T16:57:38Z</time>
      </trkpt>
      <trkpt lat="50.26608" lon="1.6666">
        <ele>8.7</ele>
        <time>2020-06-18T16:57:39Z</time>
      </trkpt>
      <trkpt lat="50.26614" lon="1.66659">
        <ele>8.7</ele>
        <time>2020-06-18T16:57:40Z</time>
      </trkpt>
      <trkpt lat="50.26618" lon="1.66658">
        <ele>8.8</ele>
        <time>2020-06-18T16:57:41Z</time>
      </trkpt>
      <trkpt lat="50.26624" lon="1.66658">
        <ele>8.8</ele>
        <time>2020-06-18T16:57:42Z</time>
      </trkpt>
      <trkpt lat="50.26629" lon="1.66656">
        <ele>8.8</ele>
        <time>2020-06-18T16:57:43Z</time>
      </trkpt>
      <trkpt lat="50.26634" lon="1.66656">
        <ele>8.8</ele>
        <time>2020-06-18T16:57:44Z</time>
      </trkpt>
      <trkpt lat="50.26639" lon="1.66656">
        <ele>8.8</ele>
        <time>2020-06-18T16:57:45Z</time>
      </trkpt>
      <trkpt lat="50.26644" lon="1.66655">
        <ele>8.8</ele>
        <time>2020-06-18T16:57:46Z</time>
      </trkpt>
      <trkpt lat="50.26648" lon="1.66655">
        <ele>8.9</ele>
        <time>2020-06-18T16:57:47Z</time>
      </trkpt>
      <trkpt lat="50.26653" lon="1.66654">
        <ele>8.9</ele>
        <time>2020-06-18T16:57:48Z</time>
      </trkpt>
      <trkpt lat="50.26658" lon="1.66653">
        <ele>8.9</ele>
        <time>2020-06-18T16:57:49Z</time>
      </trkpt>
      <trkpt lat="50.26662" lon="1.66652">
        <ele>8.9</ele>
        <time>2020-06-18T16:57:50Z</time>
      </trkpt>
      <trkpt lat="50.26667" lon="1.66651">
        <ele>9</ele>
        <time>2020-06-18T16:57:51Z</time>
      </trkpt>
      <trkpt lat="50.26672" lon="1.6665">
        <ele>9</ele>
        <time>2020-06-18T16:57:52Z</time>
      </trkpt>
      <trkpt lat="50.26677" lon="1.66649">
        <ele>9</ele>
        <time>2020-06-18T16:57:53Z</time>
      </trkpt>
      <trkpt lat="50.26682" lon="1.66647">
        <ele>9</ele>
        <time>2020-06-18T16:57:54Z</time>
      </trkpt>
      <trkpt lat="50.26687" lon="1.66645">
        <ele>9</ele>
        <time>2020-06-18T16:57:55Z</time>
      </trkpt>
      <trkpt lat="50.26693" lon="1.66646">
        <ele>9</ele>
        <time>2020-06-18T16:57:56Z</time>
      </trkpt>
      <trkpt lat="50.26698" lon="1.66645">
        <ele>9</ele>
        <time>2020-06-18T16:57:57Z</time>
      </trkpt>
      <trkpt lat="50.26703" lon="1.66644">
        <ele>9</ele>
        <time>2020-06-18T16:57:58Z</time>
      </trkpt>
      <trkpt lat="50.26708" lon="1.66644">
        <ele>9</ele>
        <time>2020-06-18T16:57:59Z</time>
      </trkpt>
      <trkpt lat="50.26713" lon="1.66643">
        <ele>9</ele>
        <time>2020-06-18T16:58:00Z</time>
      </trkpt>
      <trkpt lat="50.26718" lon="1.66643">
        <ele>9</ele>
        <time>2020-06-18T16:58:01Z</time>
      </trkpt>
      <trkpt lat="50.26724" lon="1.66643">
        <ele>9</ele>
        <time>2020-06-18T16:58:02Z</time>
      </trkpt>
      <trkpt lat="50.2673" lon="1.66641">
        <ele>9</ele>
        <time>2020-06-18T16:58:03Z</time>
      </trkpt>
      <trkpt lat="50.26736" lon="1.66639">
        <ele>9</ele>
        <time>2020-06-18T16:58:04Z</time>
      </trkpt>
      <trkpt lat="50.26741" lon="1.66637">
        <ele>8.9</ele>
        <time>2020-06-18T16:58:05Z</time>
      </trkpt>
      <trkpt lat="50.26746" lon="1.66636">
        <ele>8.9</ele>
        <time>2020-06-18T16:58:06Z</time>
      </trkpt>
      <trkpt lat="50.26752" lon="1.66636">
        <ele>8.9</ele>
        <time>2020-06-18T16:58:07Z</time>
      </trkpt>
      <trkpt lat="50.26756" lon="1.66637">
        <ele>8.9</ele>
        <time>2020-06-18T16:58:08Z</time>
      </trkpt>
      <trkpt lat="50.2676" lon="1.66637">
        <ele>8.9</ele>
        <time>2020-06-18T16:58:09Z</time>
      </trkpt>
      <trkpt lat="50.26765" lon="1.66635">
        <ele>8.9</ele>
        <time>2020-06-18T16:58:10Z</time>
      </trkpt>
      <trkpt lat="50.2677" lon="1.66635">
        <ele>8.9</ele>
        <time>2020-06-18T16:58:11Z</time>
      </trkpt>
      <trkpt lat="50.26776" lon="1.66634">
        <ele>8.8</ele>
        <time>2020-06-18T16:58:12Z</time>
      </trkpt>
      <trkpt lat="50.26782" lon="1.66634">
        <ele>8.8</ele>
        <time>2020-06-18T16:58:13Z</time>
      </trkpt>
      <trkpt lat="50.26788" lon="1.66633">
        <ele>8.7</ele>
        <time>2020-06-18T16:58:14Z</time>
      </trkpt>
      <trkpt lat="50.26794" lon="1.66632">
        <ele>8.7</ele>
        <time>2020-06-18T16:58:15Z</time>
      </trkpt>
      <trkpt lat="50.26799" lon="1.66631">
        <ele>8.6</ele>
        <time>2020-06-18T16:58:16Z</time>
      </trkpt>
      <trkpt lat="50.26805" lon="1.66629">
        <ele>8.6</ele>
        <time>2020-06-18T16:58:17Z</time>
      </trkpt>
      <trkpt lat="50.26809" lon="1.66627">
        <ele>8.6</ele>
        <time>2020-06-18T16:58:18Z</time>
      </trkpt>
      <trkpt lat="50.26814" lon="1.66626">
        <ele>8.6</ele>
        <time>2020-06-18T16:58:19Z</time>
      </trkpt>
      <trkpt lat="50.26819" lon="1.66626">
        <ele>8.6</ele>
        <time>2020-06-18T16:58:20Z</time>
      </trkpt>
      <trkpt lat="50.26824" lon="1.66626">
        <ele>8.6</ele>
        <time>2020-06-18T16:58:21Z</time>
      </trkpt>
      <trkpt lat="50.26828" lon="1.66625">
        <ele>8.6</ele>
        <time>2020-06-18T16:58:22Z</time>
      </trkpt>
      <trkpt lat="50.26832" lon="1.66624">
        <ele>8.6</ele>
        <time>2020-06-18T16:58:23Z</time>
      </trkpt>
      <trkpt lat="50.26837" lon="1.66624">
        <ele>8.6</ele>
        <time>2020-06-18T16:58:24Z</time>
      </trkpt>
      <trkpt lat="50.26842" lon="1.66623">
        <ele>8.6</ele>
        <time>2020-06-18T16:58:25Z</time>
      </trkpt>
      <trkpt lat="50.26846" lon="1.66623">
        <ele>8.6</ele>
        <time>2020-06-18T16:58:26Z</time>
      </trkpt>
      <trkpt lat="50.26851" lon="1.66622">
        <ele>8.6</ele>
        <time>2020-06-18T16:58:27Z</time>
      </trkpt>
      <trkpt lat="50.26857" lon="1.6662">
        <ele>8.6</ele>
        <time>2020-06-18T16:58:28Z</time>
      </trkpt>
      <trkpt lat="50.26862" lon="1.6662">
        <ele>8.7</ele>
        <time>2020-06-18T16:58:29Z</time>
      </trkpt>
      <trkpt lat="50.26869" lon="1.66622">
        <ele>8.7</ele>
        <time>2020-06-18T16:58:30Z</time>
      </trkpt>
      <trkpt lat="50.26875" lon="1.66623">
        <ele>8.7</ele>
        <time>2020-06-18T16:58:31Z</time>
      </trkpt>
      <trkpt lat="50.26882" lon="1.66623">
        <ele>8.6</ele>
        <time>2020-06-18T16:58:32Z</time>
      </trkpt>
      <trkpt lat="50.2689" lon="1.66622">
        <ele>8.5</ele>
        <time>2020-06-18T16:58:33Z</time>
      </trkpt>
      <trkpt lat="50.26897" lon="1.66621">
        <ele>8.4</ele>
        <time>2020-06-18T16:58:34Z</time>
      </trkpt>
      <trkpt lat="50.26904" lon="1.66621">
        <ele>8.3</ele>
        <time>2020-06-18T16:58:35Z</time>
      </trkpt>
      <trkpt lat="50.26911" lon="1.6662">
        <ele>8.3</ele>
        <time>2020-06-18T16:58:36Z</time>
      </trkpt>
      <trkpt lat="50.26918" lon="1.6662">
        <ele>8.2</ele>
        <time>2020-06-18T16:58:37Z</time>
      </trkpt>
      <trkpt lat="50.26924" lon="1.6662">
        <ele>8.1</ele>
        <time>2020-06-18T16:58:38Z</time>
      </trkpt>
      <trkpt lat="50.2693" lon="1.66619">
        <ele>8.1</ele>
        <time>2020-06-18T16:58:39Z</time>
      </trkpt>
      <trkpt lat="50.26936" lon="1.66618">
        <ele>8.1</ele>
        <time>2020-06-18T16:58:40Z</time>
      </trkpt>
      <trkpt lat="50.26943" lon="1.66616">
        <ele>8.1</ele>
        <time>2020-06-18T16:58:41Z</time>
      </trkpt>
      <trkpt lat="50.2695" lon="1.66615">
        <ele>8</ele>
        <time>2020-06-18T16:58:42Z</time>
      </trkpt>
      <trkpt lat="50.26956" lon="1.66614">
        <ele>7.9</ele>
        <time>2020-06-18T16:58:43Z</time>
      </trkpt>
      <trkpt lat="50.26963" lon="1.66614">
        <ele>7.8</ele>
        <time>2020-06-18T16:58:44Z</time>
      </trkpt>
      <trkpt lat="50.26971" lon="1.66614">
        <ele>7.7</ele>
        <time>2020-06-18T16:58:45Z</time>
      </trkpt>
      <trkpt lat="50.26978" lon="1.66616">
        <ele>7.6</ele>
        <time>2020-06-18T16:58:46Z</time>
      </trkpt>
      <trkpt lat="50.26984" lon="1.66617">
        <ele>7.5</ele>
        <time>2020-06-18T16:58:47Z</time>
      </trkpt>
      <trkpt lat="50.26991" lon="1.66618">
        <ele>7.5</ele>
        <time>2020-06-18T16:58:48Z</time>
      </trkpt>
      <trkpt lat="50.26998" lon="1.6662">
        <ele>7.4</ele>
        <time>2020-06-18T16:58:49Z</time>
      </trkpt>
      <trkpt lat="50.27005" lon="1.66623">
        <ele>7.4</ele>
        <time>2020-06-18T16:58:50Z</time>
      </trkpt>
      <trkpt lat="50.27012" lon="1.66624">
        <ele>7.3</ele>
        <time>2020-06-18T16:58:51Z</time>
      </trkpt>
      <trkpt lat="50.27018" lon="1.66626">
        <ele>7.3</ele>
        <time>2020-06-18T16:58:52Z</time>
      </trkpt>
      <trkpt lat="50.27025" lon="1.66627">
        <ele>7.3</ele>
        <time>2020-06-18T16:58:53Z</time>
      </trkpt>
      <trkpt lat="50.27031" lon="1.66629">
        <ele>7.2</ele>
        <time>2020-06-18T16:58:54Z</time>
      </trkpt>
      <trkpt lat="50.27038" lon="1.6663">
        <ele>7.2</ele>
        <time>2020-06-18T16:58:55Z</time>
      </trkpt>
      <trkpt lat="50.27045" lon="1.66633">
        <ele>7.1</ele>
        <time>2020-06-18T16:58:56Z</time>
      </trkpt>
      <trkpt lat="50.27051" lon="1.66635">
        <ele>7.1</ele>
        <time>2020-06-18T16:58:57Z</time>
      </trkpt>
      <trkpt lat="50.27058" lon="1.66637">
        <ele>7.1</ele>
        <time>2020-06-18T16:58:58Z</time>
      </trkpt>
      <trkpt lat="50.27064" lon="1.66639">
        <ele>7.1</ele>
        <time>2020-06-18T16:58:59Z</time>
      </trkpt>
      <trkpt lat="50.27071" lon="1.66641">
        <ele>7.2</ele>
        <time>2020-06-18T16:59:00Z</time>
      </trkpt>
      <trkpt lat="50.27077" lon="1.66644">
        <ele>7.1</ele>
        <time>2020-06-18T16:59:01Z</time>
      </trkpt>
      <trkpt lat="50.27084" lon="1.66647">
        <ele>7.1</ele>
        <time>2020-06-18T16:59:02Z</time>
      </trkpt>
      <trkpt lat="50.27091" lon="1.66649">
        <ele>7</ele>
        <time>2020-06-18T16:59:03Z</time>
      </trkpt>
      <trkpt lat="50.27098" lon="1.6665">
        <ele>7.1</ele>
        <time>2020-06-18T16:59:04Z</time>
      </trkpt>
      <trkpt lat="50.27106" lon="1.66651">
        <ele>7.1</ele>
        <time>2020-06-18T16:59:05Z</time>
      </trkpt>
      <trkpt lat="50.27112" lon="1.66652">
        <ele>7.1</ele>
        <time>2020-06-18T16:59:06Z</time>
      </trkpt>
      <trkpt lat="50.27119" lon="1.66653">
        <ele>7.2</ele>
        <time>2020-06-18T16:59:07Z</time>
      </trkpt>
      <trkpt lat="50.27126" lon="1.66656">
        <ele>7.3</ele>
        <time>2020-06-18T16:59:08Z</time>
      </trkpt>
      <trkpt lat="50.27132" lon="1.66658">
        <ele>7.4</ele>
        <time>2020-06-18T16:59:09Z</time>
      </trkpt>
      <trkpt lat="50.27138" lon="1.6666">
        <ele>7.5</ele>
        <time>2020-06-18T16:59:10Z</time>
      </trkpt>
      <trkpt lat="50.27144" lon="1.66662">
        <ele>7.7</ele>
        <time>2020-06-18T16:59:11Z</time>
      </trkpt>
      <trkpt lat="50.27151" lon="1.66665">
        <ele>7.9</ele>
        <time>2020-06-18T16:59:12Z</time>
      </trkpt>
      <trkpt lat="50.27157" lon="1.66668">
        <ele>8.1</ele>
        <time>2020-06-18T16:59:13Z</time>
      </trkpt>
      <trkpt lat="50.27163" lon="1.66671">
        <ele>8.3</ele>
        <time>2020-06-18T16:59:14Z</time>
      </trkpt>
      <trkpt lat="50.27168" lon="1.66675">
        <ele>8.5</ele>
        <time>2020-06-18T16:59:15Z</time>
      </trkpt>
      <trkpt lat="50.27173" lon="1.66678">
        <ele>9</ele>
        <time>2020-06-18T16:59:16Z</time>
      </trkpt>
      <trkpt lat="50.27178" lon="1.66679">
        <ele>8.9</ele>
        <time>2020-06-18T16:59:17Z</time>
      </trkpt>
      <trkpt lat="50.27182" lon="1.66681">
        <ele>8.8</ele>
        <time>2020-06-18T16:59:18Z</time>
      </trkpt>
      <trkpt lat="50.27186" lon="1.66682">
        <ele>8.8</ele>
        <time>2020-06-18T16:59:19Z</time>
      </trkpt>
      <trkpt lat="50.2719" lon="1.66683">
        <ele>8.7</ele>
        <time>2020-06-18T16:59:20Z</time>
      </trkpt>
      <trkpt lat="50.27194" lon="1.66685">
        <ele>8.6</ele>
        <time>2020-06-18T16:59:21Z</time>
      </trkpt>
      <trkpt lat="50.27198" lon="1.66687">
        <ele>8.5</ele>
        <time>2020-06-18T16:59:22Z</time>
      </trkpt>
      <trkpt lat="50.27203" lon="1.66691">
        <ele>8.6</ele>
        <time>2020-06-18T16:59:23Z</time>
      </trkpt>
      <trkpt lat="50.27208" lon="1.66693">
        <ele>8.7</ele>
        <time>2020-06-18T16:59:24Z</time>
      </trkpt>
      <trkpt lat="50.27213" lon="1.66693">
        <ele>8.7</ele>
        <time>2020-06-18T16:59:25Z</time>
      </trkpt>
      <trkpt lat="50.27218" lon="1.66695">
        <ele>8.8</ele>
        <time>2020-06-18T16:59:26Z</time>
      </trkpt>
      <trkpt lat="50.27223" lon="1.66697">
        <ele>8.9</ele>
        <time>2020-06-18T16:59:27Z</time>
      </trkpt>
      <trkpt lat="50.27227" lon="1.66699">
        <ele>9</ele>
        <time>2020-06-18T16:59:28Z</time>
      </trkpt>
      <trkpt lat="50.27232" lon="1.66701">
        <ele>9.1</ele>
        <time>2020-06-18T16:59:29Z</time>
      </trkpt>
      <trkpt lat="50.27236" lon="1.66703">
        <ele>9.1</ele>
        <time>2020-06-18T16:59:30Z</time>
      </trkpt>
      <trkpt lat="50.2724" lon="1.66704">
        <ele>9.3</ele>
        <time>2020-06-18T16:59:31Z</time>
      </trkpt>
      <trkpt lat="50.27243" lon="1.66705">
        <ele>9.4</ele>
        <time>2020-06-18T16:59:32Z</time>
      </trkpt>
      <trkpt lat="50.27247" lon="1.66706">
        <ele>9.5</ele>
        <time>2020-06-18T16:59:33Z</time>
      </trkpt>
      <trkpt lat="50.27251" lon="1.66708">
        <ele>9.6</ele>
        <time>2020-06-18T16:59:34Z</time>
      </trkpt>
      <trkpt lat="50.27255" lon="1.66709">
        <ele>9.7</ele>
        <time>2020-06-18T16:59:35Z</time>
      </trkpt>
      <trkpt lat="50.27259" lon="1.6671">
        <ele>9.9</ele>
        <time>2020-06-18T16:59:36Z</time>
      </trkpt>
      <trkpt lat="50.27263" lon="1.66712">
        <ele>10</ele>
        <time>2020-06-18T16:59:37Z</time>
      </trkpt>
      <trkpt lat="50.27265" lon="1.66713">
        <ele>10.1</ele>
        <time>2020-06-18T16:59:38Z</time>
      </trkpt>
      <trkpt lat="50.27268" lon="1.66714">
        <ele>10.2</ele>
        <time>2020-06-18T16:59:39Z</time>
      </trkpt>
      <trkpt lat="50.27271" lon="1.66716">
        <ele>10.3</ele>
        <time>2020-06-18T16:59:40Z</time>
      </trkpt>
      <trkpt lat="50.27273" lon="1.66719">
        <ele>10.5</ele>
        <time>2020-06-18T16:59:41Z</time>
      </trkpt>
      <trkpt lat="50.27275" lon="1.66723">
        <ele>10.4</ele>
        <time>2020-06-18T16:59:42Z</time>
      </trkpt>
      <trkpt lat="50.27276" lon="1.66728">
        <ele>10.4</ele>
        <time>2020-06-18T16:59:43Z</time>
      </trkpt>
      <trkpt lat="50.27275" lon="1.66733">
        <ele>10.4</ele>
        <time>2020-06-18T16:59:44Z</time>
      </trkpt>
      <trkpt lat="50.27274" lon="1.66738">
        <ele>10.4</ele>
        <time>2020-06-18T16:59:45Z</time>
      </trkpt>
      <trkpt lat="50.27274" lon="1.66744">
        <ele>10.4</ele>
        <time>2020-06-18T16:59:46Z</time>
      </trkpt>
      <trkpt lat="50.27273" lon="1.6675">
        <ele>10.3</ele>
        <time>2020-06-18T16:59:47Z</time>
      </trkpt>
      <trkpt lat="50.27272" lon="1.66757">
        <ele>10.3</ele>
        <time>2020-06-18T16:59:48Z</time>
      </trkpt>
      <trkpt lat="50.27271" lon="1.66764">
        <ele>10.3</ele>
        <time>2020-06-18T16:59:49Z</time>
      </trkpt>
      <trkpt lat="50.27271" lon="1.6677">
        <ele>10.3</ele>
        <time>2020-06-18T16:59:50Z</time>
      </trkpt>
      <trkpt lat="50.27271" lon="1.66775">
        <ele>10.2</ele>
        <time>2020-06-18T16:59:51Z</time>
      </trkpt>
      <trkpt lat="50.2727" lon="1.66781">
        <ele>10.2</ele>
        <time>2020-06-18T16:59:52Z</time>
      </trkpt>
      <trkpt lat="50.2727" lon="1.66786">
        <ele>10.2</ele>
        <time>2020-06-18T16:59:53Z</time>
      </trkpt>
      <trkpt lat="50.2727" lon="1.66792">
        <ele>10.2</ele>
        <time>2020-06-18T16:59:54Z</time>
      </trkpt>
      <trkpt lat="50.2727" lon="1.66797">
        <ele>10.2</ele>
        <time>2020-06-18T16:59:55Z</time>
      </trkpt>
      <trkpt lat="50.2727" lon="1.66802">
        <ele>10.1</ele>
        <time>2020-06-18T16:59:56Z</time>
      </trkpt>
      <trkpt lat="50.27268" lon="1.66805">
        <ele>10.1</ele>
        <time>2020-06-18T16:59:57Z</time>
      </trkpt>
      <trkpt lat="50.27266" lon="1.66809">
        <ele>10.1</ele>
        <time>2020-06-18T16:59:58Z</time>
      </trkpt>
      <trkpt lat="50.27265" lon="1.66813">
        <ele>10.1</ele>
        <time>2020-06-18T16:59:59Z</time>
      </trkpt>
      <trkpt lat="50.27263" lon="1.66816">
        <ele>10.1</ele>
        <time>2020-06-18T17:00:00Z</time>
      </trkpt>
      <trkpt lat="50.27262" lon="1.66821">
        <ele>10.1</ele>
        <time>2020-06-18T17:00:01Z</time>
      </trkpt>
      <trkpt lat="50.27261" lon="1.66823">
        <ele>10.1</ele>
        <time>2020-06-18T17:00:02Z</time>
      </trkpt>
      <trkpt lat="50.2726" lon="1.66825">
        <ele>10.1</ele>
        <time>2020-06-18T17:00:03Z</time>
      </trkpt>
      <trkpt lat="50.27259" lon="1.66826">
        <ele>10.1</ele>
        <time>2020-06-18T17:00:04Z</time>
      </trkpt>
      <trkpt lat="50.27258" lon="1.66827">
        <ele>10.1</ele>
        <time>2020-06-18T17:00:05Z</time>
      </trkpt>
      <trkpt lat="50.27258" lon="1.66829">
        <ele>10.1</ele>
        <time>2020-06-18T17:00:06Z</time>
      </trkpt>
      <trkpt lat="50.27259" lon="1.66829">
        <ele>10.1</ele>
        <time>2020-06-18T17:00:07Z</time>
      </trkpt>
      <trkpt lat="50.27259" lon="1.6683">
        <ele>10.1</ele>
        <time>2020-06-18T17:00:08Z</time>
      </trkpt>
      <trkpt lat="50.27259" lon="1.66831">
        <ele>10.1</ele>
        <time>2020-06-18T17:00:09Z</time>
      </trkpt>
      <trkpt lat="50.27258" lon="1.66831">
        <ele>10.2</ele>
        <time>2020-06-18T17:00:10Z</time>
      </trkpt>
      <trkpt lat="50.27258" lon="1.66831">
        <ele>10.2</ele>
        <time>2020-06-18T17:00:11Z</time>
      </trkpt>
      <trkpt lat="50.27258" lon="1.66832">
        <ele>10.2</ele>
        <time>2020-06-18T17:00:12Z</time>
      </trkpt>
      <trkpt lat="50.27257" lon="1.66832">
        <ele>10.2</ele>
        <time>2020-06-18T17:00:13Z</time>
      </trkpt>
      <trkpt lat="50.27256" lon="1.66832">
        <ele>10.2</ele>
        <time>2020-06-18T17:00:14Z</time>
      </trkpt>
      <trkpt lat="50.27256" lon="1.66833">
        <ele>10.2</ele>
        <time>2020-06-18T17:00:15Z</time>
      </trkpt>
      <trkpt lat="50.27255" lon="1.66833">
        <ele>10.2</ele>
        <time>2020-06-18T17:00:16Z</time>
      </trkpt>
      <trkpt lat="50.27264" lon="1.66841">
        <ele>9.9</ele>
        <time>2020-06-18T17:10:40Z</time>
      </trkpt>
      <trkpt lat="50.27265" lon="1.66839">
        <ele>9.9</ele>
        <time>2020-06-18T17:10:41Z</time>
      </trkpt>
      <trkpt lat="50.27267" lon="1.6684">
        <ele>9.9</ele>
        <time>2020-06-18T17:10:42Z</time>
      </trkpt>
      <trkpt lat="50.27268" lon="1.66841">
        <ele>9.9</ele>
        <time>2020-06-18T17:10:43Z</time>
      </trkpt>
      <trkpt lat="50.27269" lon="1.66841">
        <ele>9.9</ele>
        <time>2020-06-18T17:10:44Z</time>
      </trkpt>
      <trkpt lat="50.27269" lon="1.66842">
        <ele>9.9</ele>
        <time>2020-06-18T17:10:45Z</time>
      </trkpt>
      <trkpt lat="50.27269" lon="1.66842">
        <ele>9.9</ele>
        <time>2020-06-18T17:10:46Z</time>
      </trkpt>
      <trkpt lat="50.27268" lon="1.66841">
        <ele>9.9</ele>
        <time>2020-06-18T17:10:47Z</time>
      </trkpt>
      <trkpt lat="50.27268" lon="1.66841">
        <ele>9.8</ele>
        <time>2020-06-18T17:10:48Z</time>
      </trkpt>
      <trkpt lat="50.27268" lon="1.6684">
        <ele>9.8</ele>
        <time>2020-06-18T17:10:49Z</time>
      </trkpt>
      <trkpt lat="50.27268" lon="1.6684">
        <ele>9.8</ele>
        <time>2020-06-18T17:10:50Z</time>
      </trkpt>
      <trkpt lat="50.27268" lon="1.66839">
        <ele>9.8</ele>
        <time>2020-06-18T17:10:51Z</time>
      </trkpt>
      <trkpt lat="50.27268" lon="1.66839">
        <ele>9.8</ele>
        <time>2020-06-18T17:10:52Z</time>
      </trkpt>
      <trkpt lat="50.27268" lon="1.66838">
        <ele>9.8</ele>
        <time>2020-06-18T17:10:53Z</time>
      </trkpt>
      <trkpt lat="50.27267" lon="1.66838">
        <ele>9.8</ele>
        <time>2020-06-18T17:10:54Z</time>
      </trkpt>
      <trkpt lat="50.27267" lon="1.66838">
        <ele>9.8</ele>
        <time>2020-06-18T17:10:55Z</time>
      </trkpt>
      <trkpt lat="50.27267" lon="1.66837">
        <ele>9.8</ele>
        <time>2020-06-18T17:10:56Z</time>
      </trkpt>
      <trkpt lat="50.27267" lon="1.66837">
        <ele>9.8</ele>
        <time>2020-06-18T17:10:57Z</time>
      </trkpt>
      <trkpt lat="50.27267" lon="1.66836">
        <ele>9.8</ele>
        <time>2020-06-18T17:35:06Z</time>
      </trkpt>
      <trkpt lat="50.27267" lon="1.66836">
        <ele>9.8</ele>
        <time>2020-06-18T17:35:07Z</time>
      </trkpt>
      <trkpt lat="50.27267" lon="1.66834">
        <ele>9.8</ele>
        <time>2020-06-18T17:35:08Z</time>
      </trkpt>
      <trkpt lat="50.27265" lon="1.66834">
        <ele>9.8</ele>
        <time>2020-06-18T17:35:09Z</time>
      </trkpt>
      <trkpt lat="50.27264" lon="1.66833">
        <ele>9.8</ele>
        <time>2020-06-18T17:35:10Z</time>
      </trkpt>
      <trkpt lat="50.27264" lon="1.66834">
        <ele>9.8</ele>
        <time>2020-06-18T17:35:11Z</time>
      </trkpt>
      <trkpt lat="50.27263" lon="1.66835">
        <ele>9.8</ele>
        <time>2020-06-18T17:35:12Z</time>
      </trkpt>
      <trkpt lat="50.27262" lon="1.66836">
        <ele>9.8</ele>
        <time>2020-06-18T17:35:13Z</time>
      </trkpt>
      <trkpt lat="50.27262" lon="1.66835">
        <ele>9.8</ele>
        <time>2020-06-18T17:35:14Z</time>
      </trkpt>
      <trkpt lat="50.27262" lon="1.66834">
        <ele>9.8</ele>
        <time>2020-06-18T17:35:15Z</time>
      </trkpt>
      <trkpt lat="50.27261" lon="1.66833">
        <ele>9.8</ele>
        <time>2020-06-18T17:35:16Z</time>
      </trkpt>
      <trkpt lat="50.27261" lon="1.66833">
        <ele>9.8</ele>
        <time>2020-06-18T17:35:17Z</time>
      </trkpt>
      <trkpt lat="50.27261" lon="1.66833">
        <ele>9.8</ele>
        <time>2020-06-18T17:35:18Z</time>
      </trkpt>
      <trkpt lat="50.27261" lon="1.66833">
        <ele>9.8</ele>
        <time>2020-06-18T17:35:19Z</time>
      </trkpt>
      <trkpt lat="50.27261" lon="1.66832">
        <ele>9.8</ele>
        <time>2020-06-18T17:35:20Z</time>
      </trkpt>
      <trkpt lat="50.27261" lon="1.66833">
        <ele>9.8</ele>
        <time>2020-06-18T17:35:21Z</time>
      </trkpt>
      <trkpt lat="50.27261" lon="1.66832">
        <ele>9.8</ele>
        <time>2020-06-18T17:35:22Z</time>
      </trkpt>
      <trkpt lat="50.27261" lon="1.66833">
        <ele>9.8</ele>
        <time>2020-06-18T17:35:23Z</time>
      </trkpt>
      <trkpt lat="50.27261" lon="1.66833">
        <ele>9.8</ele>
        <time>2020-06-18T17:35:24Z</time>
      </trkpt>
      <trkpt lat="50.27261" lon="1.66833">
        <ele>9.8</ele>
        <time>2020-06-18T17:37:17Z</time>
      </trkpt>
      <trkpt lat="50.27261" lon="1.66833">
        <ele>9.8</ele>
        <time>2020-06-18T17:37:18Z</time>
      </trkpt>
      <trkpt lat="50.27261" lon="1.66833">
        <ele>9.8</ele>
        <time>2020-06-18T17:37:19Z</time>
      </trkpt>
      <trkpt lat="50.27261" lon="1.66833">
        <ele>9.8</ele>
        <time>2020-06-18T17:37:20Z</time>
      </trkpt>
      <trkpt lat="50.27261" lon="1.66833">
        <ele>9.8</ele>
        <time>2020-06-18T17:37:21Z</time>
      </trkpt>
      <trkpt lat="50.27261" lon="1.66833">
        <ele>9.8</ele>
        <time>2020-06-18T17:37:22Z</time>
      </trkpt>
      <trkpt lat="50.27261" lon="1.66833">
        <ele>9.8</ele>
        <time>2020-06-18T17:37:23Z</time>
      </trkpt>
      <trkpt lat="50.27261" lon="1.66833">
        <ele>9.8</ele>
        <time>2020-06-18T17:37:24Z</time>
      </trkpt>
      <trkpt lat="50.27261" lon="1.66833">
        <ele>9.8</ele>
        <time>2020-06-18T17:37:25Z</time>
      </trkpt>
      <trkpt lat="50.27261" lon="1.66833">
        <ele>9.8</ele>
        <time>2020-06-18T17:37:26Z</time>
      </trkpt>
      <trkpt lat="50.27261" lon="1.66834">
        <ele>9.8</ele>
        <time>2020-06-18T17:37:27Z</time>
      </trkpt>
      <trkpt lat="50.2726" lon="1.66834">
        <ele>9.8</ele>
        <time>2020-06-18T17:37:28Z</time>
      </trkpt>
      <trkpt lat="50.27261" lon="1.66834">
        <ele>9.8</ele>
        <time>2020-06-18T17:37:29Z</time>
      </trkpt>
      <trkpt lat="50.2726" lon="1.66835">
        <ele>9.8</ele>
        <time>2020-06-18T17:37:30Z</time>
      </trkpt>
      <trkpt lat="50.2726" lon="1.66835">
        <ele>9.8</ele>
        <time>2020-06-18T17:37:31Z</time>
      </trkpt>
      <trkpt lat="50.27259" lon="1.66838">
        <ele>9.8</ele>
        <time>2020-06-18T17:39:25Z</time>
      </trkpt>
      <trkpt lat="50.27259" lon="1.6684">
        <ele>9.8</ele>
        <time>2020-06-18T17:39:26Z</time>
      </trkpt>
      <trkpt lat="50.27259" lon="1.66842">
        <ele>9.8</ele>
        <time>2020-06-18T17:39:27Z</time>
      </trkpt>
      <trkpt lat="50.27259" lon="1.66842">
        <ele>9.7</ele>
        <time>2020-06-18T17:39:28Z</time>
      </trkpt>
      <trkpt lat="50.27258" lon="1.66845">
        <ele>9.7</ele>
        <time>2020-06-18T17:39:29Z</time>
      </trkpt>
      <trkpt lat="50.27257" lon="1.66846">
        <ele>9.7</ele>
        <time>2020-06-18T17:39:30Z</time>
      </trkpt>
      <trkpt lat="50.27257" lon="1.66848">
        <ele>9.7</ele>
        <time>2020-06-18T17:39:31Z</time>
      </trkpt>
      <trkpt lat="50.27255" lon="1.6685">
        <ele>9.7</ele>
        <time>2020-06-18T17:39:32Z</time>
      </trkpt>
      <trkpt lat="50.27254" lon="1.66851">
        <ele>9.7</ele>
        <time>2020-06-18T17:39:33Z</time>
      </trkpt>
      <trkpt lat="50.27254" lon="1.66852">
        <ele>9.7</ele>
        <time>2020-06-18T17:39:34Z</time>
      </trkpt>
      <trkpt lat="50.27252" lon="1.66857">
        <ele>9.7</ele>
        <time>2020-06-18T17:39:35Z</time>
      </trkpt>
      <trkpt lat="50.27251" lon="1.66859">
        <ele>9.7</ele>
        <time>2020-06-18T17:39:36Z</time>
      </trkpt>
      <trkpt lat="50.2725" lon="1.66866">
        <ele>9.7</ele>
        <time>2020-06-18T17:39:37Z</time>
      </trkpt>
      <trkpt lat="50.27249" lon="1.66868">
        <ele>9.7</ele>
        <time>2020-06-18T17:39:38Z</time>
      </trkpt>
      <trkpt lat="50.27248" lon="1.66872">
        <ele>9.7</ele>
        <time>2020-06-18T17:39:39Z</time>
      </trkpt>
      <trkpt lat="50.27246" lon="1.66875">
        <ele>9.6</ele>
        <time>2020-06-18T17:39:40Z</time>
      </trkpt>
      <trkpt lat="50.27245" lon="1.66879">
        <ele>9.6</ele>
        <time>2020-06-18T17:39:41Z</time>
      </trkpt>
      <trkpt lat="50.27244" lon="1.66884">
        <ele>9.6</ele>
        <time>2020-06-18T17:39:42Z</time>
      </trkpt>
      <trkpt lat="50.27242" lon="1.66889">
        <ele>9.6</ele>
        <time>2020-06-18T17:39:43Z</time>
      </trkpt>
      <trkpt lat="50.27241" lon="1.66893">
        <ele>9.6</ele>
        <time>2020-06-18T17:39:44Z</time>
      </trkpt>
      <trkpt lat="50.27239" lon="1.66897">
        <ele>9.6</ele>
        <time>2020-06-18T17:39:45Z</time>
      </trkpt>
      <trkpt lat="50.27237" lon="1.66902">
        <ele>9.6</ele>
        <time>2020-06-18T17:39:46Z</time>
      </trkpt>
      <trkpt lat="50.27234" lon="1.66905">
        <ele>9.6</ele>
        <time>2020-06-18T17:39:47Z</time>
      </trkpt>
      <trkpt lat="50.27231" lon="1.66908">
        <ele>9.6</ele>
        <time>2020-06-18T17:39:48Z</time>
      </trkpt>
      <trkpt lat="50.27229" lon="1.66911">
        <ele>9.6</ele>
        <time>2020-06-18T17:39:49Z</time>
      </trkpt>
      <trkpt lat="50.27228" lon="1.66913">
        <ele>9.6</ele>
        <time>2020-06-18T17:39:50Z</time>
      </trkpt>
      <trkpt lat="50.27226" lon="1.66917">
        <ele>9.6</ele>
        <time>2020-06-18T17:39:51Z</time>
      </trkpt>
      <trkpt lat="50.27223" lon="1.66921">
        <ele>9.7</ele>
        <time>2020-06-18T17:39:52Z</time>
      </trkpt>
      <trkpt lat="50.27221" lon="1.66925">
        <ele>9.7</ele>
        <time>2020-06-18T17:39:53Z</time>
      </trkpt>
      <trkpt lat="50.2722" lon="1.6693">
        <ele>9.7</ele>
        <time>2020-06-18T17:39:54Z</time>
      </trkpt>
      <trkpt lat="50.27217" lon="1.66934">
        <ele>9.7</ele>
        <time>2020-06-18T17:39:55Z</time>
      </trkpt>
      <trkpt lat="50.27214" lon="1.6694">
        <ele>9.7</ele>
        <time>2020-06-18T17:39:56Z</time>
      </trkpt>
      <trkpt lat="50.27211" lon="1.66945">
        <ele>9.7</ele>
        <time>2020-06-18T17:39:57Z</time>
      </trkpt>
      <trkpt lat="50.27208" lon="1.66952">
        <ele>9.8</ele>
        <time>2020-06-18T17:39:58Z</time>
      </trkpt>
      <trkpt lat="50.27205" lon="1.66957">
        <ele>9.9</ele>
        <time>2020-06-18T17:39:59Z</time>
      </trkpt>
      <trkpt lat="50.27203" lon="1.66962">
        <ele>9.9</ele>
        <time>2020-06-18T17:40:00Z</time>
      </trkpt>
      <trkpt lat="50.27199" lon="1.66966">
        <ele>9.8</ele>
        <time>2020-06-18T17:40:01Z</time>
      </trkpt>
      <trkpt lat="50.27195" lon="1.6697">
        <ele>9.7</ele>
        <time>2020-06-18T17:40:02Z</time>
      </trkpt>
      <trkpt lat="50.27192" lon="1.66976">
        <ele>9.6</ele>
        <time>2020-06-18T17:40:03Z</time>
      </trkpt>
      <trkpt lat="50.27189" lon="1.66981">
        <ele>9.5</ele>
        <time>2020-06-18T17:40:04Z</time>
      </trkpt>
      <trkpt lat="50.27186" lon="1.66987">
        <ele>9.4</ele>
        <time>2020-06-18T17:40:05Z</time>
      </trkpt>
      <trkpt lat="50.27183" lon="1.66993">
        <ele>9.3</ele>
        <time>2020-06-18T17:40:06Z</time>
      </trkpt>
      <trkpt lat="50.2718" lon="1.67">
        <ele>9.2</ele>
        <time>2020-06-18T17:40:07Z</time>
      </trkpt>
      <trkpt lat="50.27176" lon="1.67008">
        <ele>9.1</ele>
        <time>2020-06-18T17:40:08Z</time>
      </trkpt>
      <trkpt lat="50.27172" lon="1.67014">
        <ele>9</ele>
        <time>2020-06-18T17:40:09Z</time>
      </trkpt>
      <trkpt lat="50.27168" lon="1.6702">
        <ele>8.9</ele>
        <time>2020-06-18T17:40:10Z</time>
      </trkpt>
      <trkpt lat="50.27166" lon="1.67028">
        <ele>8.9</ele>
        <time>2020-06-18T17:40:11Z</time>
      </trkpt>
      <trkpt lat="50.27163" lon="1.67035">
        <ele>8.9</ele>
        <time>2020-06-18T17:40:12Z</time>
      </trkpt>
      <trkpt lat="50.2716" lon="1.67041">
        <ele>8.9</ele>
        <time>2020-06-18T17:40:13Z</time>
      </trkpt>
      <trkpt lat="50.27158" lon="1.67048">
        <ele>8.8</ele>
        <time>2020-06-18T17:40:14Z</time>
      </trkpt>
      <trkpt lat="50.27154" lon="1.67054">
        <ele>8.8</ele>
        <time>2020-06-18T17:40:15Z</time>
      </trkpt>
      <trkpt lat="50.27151" lon="1.67059">
        <ele>8.8</ele>
        <time>2020-06-18T17:40:16Z</time>
      </trkpt>
      <trkpt lat="50.27148" lon="1.67065">
        <ele>8.7</ele>
        <time>2020-06-18T17:40:17Z</time>
      </trkpt>
      <trkpt lat="50.27146" lon="1.67072">
        <ele>8.7</ele>
        <time>2020-06-18T17:40:18Z</time>
      </trkpt>
      <trkpt lat="50.27143" lon="1.6708">
        <ele>8.7</ele>
        <time>2020-06-18T17:40:19Z</time>
      </trkpt>
      <trkpt lat="50.27139" lon="1.67086">
        <ele>8.7</ele>
        <time>2020-06-18T17:40:20Z</time>
      </trkpt>
      <trkpt lat="50.27138" lon="1.67094">
        <ele>8.7</ele>
        <time>2020-06-18T17:40:21Z</time>
      </trkpt>
      <trkpt lat="50.27134" lon="1.671">
        <ele>8.6</ele>
        <time>2020-06-18T17:40:22Z</time>
      </trkpt>
      <trkpt lat="50.27133" lon="1.67108">
        <ele>8.6</ele>
        <time>2020-06-18T17:40:23Z</time>
      </trkpt>
      <trkpt lat="50.27129" lon="1.67113">
        <ele>8.6</ele>
        <time>2020-06-18T17:40:24Z</time>
      </trkpt>
      <trkpt lat="50.27126" lon="1.67117">
        <ele>8.6</ele>
        <time>2020-06-18T17:40:25Z</time>
      </trkpt>
      <trkpt lat="50.27124" lon="1.67123">
        <ele>8.6</ele>
        <time>2020-06-18T17:40:26Z</time>
      </trkpt>
      <trkpt lat="50.27122" lon="1.67128">
        <ele>8.6</ele>
        <time>2020-06-18T17:40:27Z</time>
      </trkpt>
      <trkpt lat="50.27119" lon="1.67133">
        <ele>8.6</ele>
        <time>2020-06-18T17:40:28Z</time>
      </trkpt>
      <trkpt lat="50.27117" lon="1.67138">
        <ele>8.6</ele>
        <time>2020-06-18T17:40:29Z</time>
      </trkpt>
      <trkpt lat="50.27115" lon="1.67143">
        <ele>8.6</ele>
        <time>2020-06-18T17:40:30Z</time>
      </trkpt>
      <trkpt lat="50.27113" lon="1.67148">
        <ele>8.5</ele>
        <time>2020-06-18T17:40:31Z</time>
      </trkpt>
      <trkpt lat="50.2711" lon="1.67153">
        <ele>8.5</ele>
        <time>2020-06-18T17:40:32Z</time>
      </trkpt>
      <trkpt lat="50.27108" lon="1.67158">
        <ele>8.4</ele>
        <time>2020-06-18T17:40:33Z</time>
      </trkpt>
      <trkpt lat="50.27107" lon="1.67166">
        <ele>8.3</ele>
        <time>2020-06-18T17:40:34Z</time>
      </trkpt>
      <trkpt lat="50.27108" lon="1.67174">
        <ele>8.3</ele>
        <time>2020-06-18T17:40:35Z</time>
      </trkpt>
      <trkpt lat="50.2711" lon="1.67182">
        <ele>8.2</ele>
        <time>2020-06-18T17:40:36Z</time>
      </trkpt>
      <trkpt lat="50.27112" lon="1.67191">
        <ele>8.2</ele>
        <time>2020-06-18T17:40:37Z</time>
      </trkpt>
      <trkpt lat="50.27113" lon="1.672">
        <ele>8.2</ele>
        <time>2020-06-18T17:40:38Z</time>
      </trkpt>
      <trkpt lat="50.27114" lon="1.6721">
        <ele>8.2</ele>
        <time>2020-06-18T17:40:39Z</time>
      </trkpt>
      <trkpt lat="50.27116" lon="1.67219">
        <ele>8.2</ele>
        <time>2020-06-18T17:40:40Z</time>
      </trkpt>
      <trkpt lat="50.27117" lon="1.67229">
        <ele>8.2</ele>
        <time>2020-06-18T17:40:41Z</time>
      </trkpt>
      <trkpt lat="50.27119" lon="1.67239">
        <ele>8.1</ele>
        <time>2020-06-18T17:40:42Z</time>
      </trkpt>
      <trkpt lat="50.2712" lon="1.67249">
        <ele>8.1</ele>
        <time>2020-06-18T17:40:43Z</time>
      </trkpt>
      <trkpt lat="50.27122" lon="1.67258">
        <ele>8</ele>
        <time>2020-06-18T17:40:44Z</time>
      </trkpt>
      <trkpt lat="50.27124" lon="1.67269">
        <ele>8</ele>
        <time>2020-06-18T17:40:45Z</time>
      </trkpt>
      <trkpt lat="50.27126" lon="1.67278">
        <ele>8</ele>
        <time>2020-06-18T17:40:46Z</time>
      </trkpt>
      <trkpt lat="50.27128" lon="1.67288">
        <ele>7.9</ele>
        <time>2020-06-18T17:40:47Z</time>
      </trkpt>
      <trkpt lat="50.2713" lon="1.67297">
        <ele>7.9</ele>
        <time>2020-06-18T17:40:48Z</time>
      </trkpt>
      <trkpt lat="50.27133" lon="1.67305">
        <ele>7.9</ele>
        <time>2020-06-18T17:40:49Z</time>
      </trkpt>
      <trkpt lat="50.27136" lon="1.67315">
        <ele>7.9</ele>
        <time>2020-06-18T17:40:50Z</time>
      </trkpt>
      <trkpt lat="50.27138" lon="1.67325">
        <ele>7.9</ele>
        <time>2020-06-18T17:40:51Z</time>
      </trkpt>
      <trkpt lat="50.27139" lon="1.67336">
        <ele>7.9</ele>
        <time>2020-06-18T17:40:52Z</time>
      </trkpt>
      <trkpt lat="50.27141" lon="1.67346">
        <ele>7.9</ele>
        <time>2020-06-18T17:40:53Z</time>
      </trkpt>
      <trkpt lat="50.27143" lon="1.67355">
        <ele>7.9</ele>
        <time>2020-06-18T17:40:54Z</time>
      </trkpt>
      <trkpt lat="50.27145" lon="1.67365">
        <ele>7.9</ele>
        <time>2020-06-18T17:40:55Z</time>
      </trkpt>
      <trkpt lat="50.27146" lon="1.67373">
        <ele>7.9</ele>
        <time>2020-06-18T17:40:56Z</time>
      </trkpt>
      <trkpt lat="50.27147" lon="1.67381">
        <ele>7.9</ele>
        <time>2020-06-18T17:40:57Z</time>
      </trkpt>
      <trkpt lat="50.27148" lon="1.67389">
        <ele>7.9</ele>
        <time>2020-06-18T17:40:58Z</time>
      </trkpt>
      <trkpt lat="50.27149" lon="1.67397">
        <ele>7.9</ele>
        <time>2020-06-18T17:40:59Z</time>
      </trkpt>
      <trkpt lat="50.27151" lon="1.67405">
        <ele>8</ele>
        <time>2020-06-18T17:41:00Z</time>
      </trkpt>
      <trkpt lat="50.27152" lon="1.67413">
        <ele>8</ele>
        <time>2020-06-18T17:41:01Z</time>
      </trkpt>
      <trkpt lat="50.27152" lon="1.67418">
        <ele>8.1</ele>
        <time>2020-06-18T17:41:02Z</time>
      </trkpt>
      <trkpt lat="50.27154" lon="1.67426">
        <ele>8.1</ele>
        <time>2020-06-18T17:41:03Z</time>
      </trkpt>
      <trkpt lat="50.27154" lon="1.67435">
        <ele>8.2</ele>
        <time>2020-06-18T17:41:04Z</time>
      </trkpt>
      <trkpt lat="50.27155" lon="1.67447">
        <ele>8.3</ele>
        <time>2020-06-18T17:41:05Z</time>
      </trkpt>
      <trkpt lat="50.27156" lon="1.67458">
        <ele>8.2</ele>
        <time>2020-06-18T17:41:06Z</time>
      </trkpt>
      <trkpt lat="50.27157" lon="1.67469">
        <ele>8</ele>
        <time>2020-06-18T17:41:07Z</time>
      </trkpt>
      <trkpt lat="50.27159" lon="1.6748">
        <ele>8</ele>
        <time>2020-06-18T17:41:08Z</time>
      </trkpt>
      <trkpt lat="50.27161" lon="1.67488">
        <ele>8</ele>
        <time>2020-06-18T17:41:09Z</time>
      </trkpt>
      <trkpt lat="50.27163" lon="1.67498">
        <ele>8.1</ele>
        <time>2020-06-18T17:41:10Z</time>
      </trkpt>
      <trkpt lat="50.27165" lon="1.67509">
        <ele>8.1</ele>
        <time>2020-06-18T17:41:11Z</time>
      </trkpt>
      <trkpt lat="50.27167" lon="1.67519">
        <ele>8.1</ele>
        <time>2020-06-18T17:41:12Z</time>
      </trkpt>
      <trkpt lat="50.27169" lon="1.6753">
        <ele>8.1</ele>
        <time>2020-06-18T17:41:13Z</time>
      </trkpt>
      <trkpt lat="50.27171" lon="1.6754">
        <ele>8.1</ele>
        <time>2020-06-18T17:41:14Z</time>
      </trkpt>
      <trkpt lat="50.27173" lon="1.67551">
        <ele>8.2</ele>
        <time>2020-06-18T17:41:15Z</time>
      </trkpt>
      <trkpt lat="50.27175" lon="1.67561">
        <ele>8.2</ele>
        <time>2020-06-18T17:41:16Z</time>
      </trkpt>
      <trkpt lat="50.27177" lon="1.67571">
        <ele>8.3</ele>
        <time>2020-06-18T17:41:17Z</time>
      </trkpt>
      <trkpt lat="50.2718" lon="1.67581">
        <ele>8.2</ele>
        <time>2020-06-18T17:41:18Z</time>
      </trkpt>
      <trkpt lat="50.27182" lon="1.67591">
        <ele>8.2</ele>
        <time>2020-06-18T17:41:19Z</time>
      </trkpt>
      <trkpt lat="50.27184" lon="1.67601">
        <ele>8.2</ele>
        <time>2020-06-18T17:41:20Z</time>
      </trkpt>
      <trkpt lat="50.27186" lon="1.67612">
        <ele>8.2</ele>
        <time>2020-06-18T17:41:21Z</time>
      </trkpt>
      <trkpt lat="50.27188" lon="1.67622">
        <ele>8.3</ele>
        <time>2020-06-18T17:41:22Z</time>
      </trkpt>
      <trkpt lat="50.2719" lon="1.67632">
        <ele>8.3</ele>
        <time>2020-06-18T17:41:23Z</time>
      </trkpt>
      <trkpt lat="50.27192" lon="1.67642">
        <ele>8.3</ele>
        <time>2020-06-18T17:41:24Z</time>
      </trkpt>
      <trkpt lat="50.27194" lon="1.67652">
        <ele>8.4</ele>
        <time>2020-06-18T17:41:25Z</time>
      </trkpt>
      <trkpt lat="50.27196" lon="1.67661">
        <ele>8.4</ele>
        <time>2020-06-18T17:41:26Z</time>
      </trkpt>
      <trkpt lat="50.27198" lon="1.6767">
        <ele>8.5</ele>
        <time>2020-06-18T17:41:27Z</time>
      </trkpt>
      <trkpt lat="50.27199" lon="1.67679">
        <ele>8.5</ele>
        <time>2020-06-18T17:41:28Z</time>
      </trkpt>
      <trkpt lat="50.27202" lon="1.67688">
        <ele>8.6</ele>
        <time>2020-06-18T17:41:29Z</time>
      </trkpt>
      <trkpt lat="50.27203" lon="1.67697">
        <ele>8.7</ele>
        <time>2020-06-18T17:41:30Z</time>
      </trkpt>
      <trkpt lat="50.27205" lon="1.67707">
        <ele>8.7</ele>
        <time>2020-06-18T17:41:31Z</time>
      </trkpt>
      <trkpt lat="50.27206" lon="1.67716">
        <ele>8.8</ele>
        <time>2020-06-18T17:41:32Z</time>
      </trkpt>
      <trkpt lat="50.27208" lon="1.67725">
        <ele>8.9</ele>
        <time>2020-06-18T17:41:33Z</time>
      </trkpt>
      <trkpt lat="50.2721" lon="1.67733">
        <ele>9</ele>
        <time>2020-06-18T17:41:34Z</time>
      </trkpt>
      <trkpt lat="50.27211" lon="1.67741">
        <ele>9</ele>
        <time>2020-06-18T17:41:35Z</time>
      </trkpt>
      <trkpt lat="50.27211" lon="1.6775">
        <ele>9</ele>
        <time>2020-06-18T17:41:36Z</time>
      </trkpt>
      <trkpt lat="50.27212" lon="1.67757">
        <ele>9.1</ele>
        <time>2020-06-18T17:41:37Z</time>
      </trkpt>
      <trkpt lat="50.27213" lon="1.67764">
        <ele>9.1</ele>
        <time>2020-06-18T17:41:38Z</time>
      </trkpt>
      <trkpt lat="50.27214" lon="1.67768">
        <ele>9.1</ele>
        <time>2020-06-18T17:41:39Z</time>
      </trkpt>
      <trkpt lat="50.27216" lon="1.67771">
        <ele>9.1</ele>
        <time>2020-06-18T17:41:40Z</time>
      </trkpt>
      <trkpt lat="50.2722" lon="1.67772">
        <ele>9.1</ele>
        <time>2020-06-18T17:41:41Z</time>
      </trkpt>
      <trkpt lat="50.27222" lon="1.67771">
        <ele>9.1</ele>
        <time>2020-06-18T17:41:42Z</time>
      </trkpt>
      <trkpt lat="50.27223" lon="1.6777">
        <ele>9.1</ele>
        <time>2020-06-18T17:41:43Z</time>
      </trkpt>
      <trkpt lat="50.27223" lon="1.67768">
        <ele>9.1</ele>
        <time>2020-06-18T17:41:44Z</time>
      </trkpt>
      <trkpt lat="50.27224" lon="1.67767">
        <ele>9.1</ele>
        <time>2020-06-18T17:41:45Z</time>
      </trkpt>
      <trkpt lat="50.27224" lon="1.67765">
        <ele>9.1</ele>
        <time>2020-06-18T17:41:46Z</time>
      </trkpt>
      <trkpt lat="50.27225" lon="1.67762">
        <ele>9.1</ele>
        <time>2020-06-18T17:41:47Z</time>
      </trkpt>
      <trkpt lat="50.27225" lon="1.67761">
        <ele>9.1</ele>
        <time>2020-06-18T17:41:48Z</time>
      </trkpt>
      <trkpt lat="50.27225" lon="1.67759">
        <ele>9.1</ele>
        <time>2020-06-18T17:41:49Z</time>
      </trkpt>
      <trkpt lat="50.27224" lon="1.67764">
        <ele>9.1</ele>
        <time>2020-06-18T17:41:50Z</time>
      </trkpt>
      <trkpt lat="50.27224" lon="1.67762">
        <ele>9.1</ele>
        <time>2020-06-18T17:41:51Z</time>
      </trkpt>
      <trkpt lat="50.27223" lon="1.67761">
        <ele>9.1</ele>
        <time>2020-06-18T17:41:52Z</time>
      </trkpt>
      <trkpt lat="50.27221" lon="1.67761">
        <ele>9.1</ele>
        <time>2020-06-18T17:41:53Z</time>
      </trkpt>
      <trkpt lat="50.2722" lon="1.67758">
        <ele>9.1</ele>
        <time>2020-06-18T17:41:54Z</time>
      </trkpt>
      <trkpt lat="50.2722" lon="1.67756">
        <ele>9.1</ele>
        <time>2020-06-18T17:41:55Z</time>
      </trkpt>
      <trkpt lat="50.2722" lon="1.67751">
        <ele>9.1</ele>
        <time>2020-06-18T17:41:56Z</time>
      </trkpt>
      <trkpt lat="50.2722" lon="1.67749">
        <ele>9</ele>
        <time>2020-06-18T17:41:57Z</time>
      </trkpt>
      <trkpt lat="50.27221" lon="1.67743">
        <ele>8.9</ele>
        <time>2020-06-18T17:41:58Z</time>
      </trkpt>
      <trkpt lat="50.27222" lon="1.67737">
        <ele>8.8</ele>
        <time>2020-06-18T17:41:59Z</time>
      </trkpt>
      <trkpt lat="50.27225" lon="1.6773">
        <ele>8.7</ele>
        <time>2020-06-18T17:42:00Z</time>
      </trkpt>
      <trkpt lat="50.27228" lon="1.67725">
        <ele>8.6</ele>
        <time>2020-06-18T17:42:01Z</time>
      </trkpt>
      <trkpt lat="50.27231" lon="1.67718">
        <ele>8.5</ele>
        <time>2020-06-18T17:42:02Z</time>
      </trkpt>
      <trkpt lat="50.27235" lon="1.67711">
        <ele>8.4</ele>
        <time>2020-06-18T17:42:03Z</time>
      </trkpt>
      <trkpt lat="50.2724" lon="1.67704">
        <ele>8.2</ele>
        <time>2020-06-18T17:42:04Z</time>
      </trkpt>
      <trkpt lat="50.27244" lon="1.67697">
        <ele>8.1</ele>
        <time>2020-06-18T17:42:05Z</time>
      </trkpt>
      <trkpt lat="50.2725" lon="1.6769">
        <ele>8</ele>
        <time>2020-06-18T17:42:06Z</time>
      </trkpt>
      <trkpt lat="50.27255" lon="1.67682">
        <ele>7.9</ele>
        <time>2020-06-18T17:42:07Z</time>
      </trkpt>
      <trkpt lat="50.2726" lon="1.67674">
        <ele>7.8</ele>
        <time>2020-06-18T17:42:08Z</time>
      </trkpt>
      <trkpt lat="50.27266" lon="1.67666">
        <ele>7.7</ele>
        <time>2020-06-18T17:42:09Z</time>
      </trkpt>
      <trkpt lat="50.27273" lon="1.6766">
        <ele>7.7</ele>
        <time>2020-06-18T17:42:10Z</time>
      </trkpt>
      <trkpt lat="50.2728" lon="1.67656">
        <ele>7.7</ele>
        <time>2020-06-18T17:42:11Z</time>
      </trkpt>
      <trkpt lat="50.27287" lon="1.67652">
        <ele>7.7</ele>
        <time>2020-06-18T17:42:12Z</time>
      </trkpt>
      <trkpt lat="50.27294" lon="1.67649">
        <ele>7.7</ele>
        <time>2020-06-18T17:42:13Z</time>
      </trkpt>
      <trkpt lat="50.273" lon="1.67645">
        <ele>7.7</ele>
        <time>2020-06-18T17:42:14Z</time>
      </trkpt>
      <trkpt lat="50.27307" lon="1.67642">
        <ele>7.7</ele>
        <time>2020-06-18T17:42:15Z</time>
      </trkpt>
      <trkpt lat="50.27314" lon="1.67639">
        <ele>7.7</ele>
        <time>2020-06-18T17:42:16Z</time>
      </trkpt>
      <trkpt lat="50.27322" lon="1.67634">
        <ele>7.7</ele>
        <time>2020-06-18T17:42:17Z</time>
      </trkpt>
      <trkpt lat="50.27329" lon="1.6763">
        <ele>7.8</ele>
        <time>2020-06-18T17:42:18Z</time>
      </trkpt>
      <trkpt lat="50.27336" lon="1.67626">
        <ele>7.8</ele>
        <time>2020-06-18T17:42:19Z</time>
      </trkpt>
      <trkpt lat="50.27343" lon="1.67621">
        <ele>7.8</ele>
        <time>2020-06-18T17:42:20Z</time>
      </trkpt>
      <trkpt lat="50.2735" lon="1.67617">
        <ele>7.8</ele>
        <time>2020-06-18T17:42:21Z</time>
      </trkpt>
      <trkpt lat="50.27357" lon="1.67614">
        <ele>7.8</ele>
        <time>2020-06-18T17:42:22Z</time>
      </trkpt>
      <trkpt lat="50.27364" lon="1.6761">
        <ele>7.8</ele>
        <time>2020-06-18T17:42:23Z</time>
      </trkpt>
      <trkpt lat="50.27371" lon="1.67605">
        <ele>7.8</ele>
        <time>2020-06-18T17:42:24Z</time>
      </trkpt>
      <trkpt lat="50.27378" lon="1.67602">
        <ele>7.8</ele>
        <time>2020-06-18T17:42:25Z</time>
      </trkpt>
      <trkpt lat="50.27385" lon="1.67598">
        <ele>7.8</ele>
        <time>2020-06-18T17:42:26Z</time>
      </trkpt>
      <trkpt lat="50.27393" lon="1.67593">
        <ele>7.8</ele>
        <time>2020-06-18T17:42:27Z</time>
      </trkpt>
      <trkpt lat="50.27399" lon="1.67588">
        <ele>7.8</ele>
        <time>2020-06-18T17:42:28Z</time>
      </trkpt>
      <trkpt lat="50.27405" lon="1.67584">
        <ele>7.8</ele>
        <time>2020-06-18T17:42:29Z</time>
      </trkpt>
      <trkpt lat="50.27412" lon="1.6758">
        <ele>7.7</ele>
        <time>2020-06-18T17:42:30Z</time>
      </trkpt>
      <trkpt lat="50.27419" lon="1.67576">
        <ele>7.7</ele>
        <time>2020-06-18T17:42:31Z</time>
      </trkpt>
      <trkpt lat="50.27426" lon="1.67573">
        <ele>7.7</ele>
        <time>2020-06-18T17:42:32Z</time>
      </trkpt>
      <trkpt lat="50.27433" lon="1.67568">
        <ele>7.6</ele>
        <time>2020-06-18T17:42:33Z</time>
      </trkpt>
      <trkpt lat="50.2744" lon="1.67564">
        <ele>7.6</ele>
        <time>2020-06-18T17:42:34Z</time>
      </trkpt>
      <trkpt lat="50.27447" lon="1.6756">
        <ele>7.5</ele>
        <time>2020-06-18T17:42:35Z</time>
      </trkpt>
      <trkpt lat="50.27454" lon="1.67556">
        <ele>7.5</ele>
        <time>2020-06-18T17:42:36Z</time>
      </trkpt>
      <trkpt lat="50.27461" lon="1.67552">
        <ele>7.5</ele>
        <time>2020-06-18T17:42:37Z</time>
      </trkpt>
      <trkpt lat="50.27467" lon="1.67549">
        <ele>7.4</ele>
        <time>2020-06-18T17:42:38Z</time>
      </trkpt>
      <trkpt lat="50.27474" lon="1.67545">
        <ele>7.4</ele>
        <time>2020-06-18T17:42:39Z</time>
      </trkpt>
      <trkpt lat="50.27481" lon="1.67542">
        <ele>7.3</ele>
        <time>2020-06-18T17:42:40Z</time>
      </trkpt>
      <trkpt lat="50.27488" lon="1.67539">
        <ele>7.2</ele>
        <time>2020-06-18T17:42:41Z</time>
      </trkpt>
      <trkpt lat="50.27495" lon="1.67536">
        <ele>7.2</ele>
        <time>2020-06-18T17:42:42Z</time>
      </trkpt>
      <trkpt lat="50.27502" lon="1.67533">
        <ele>7.1</ele>
        <time>2020-06-18T17:42:43Z</time>
      </trkpt>
      <trkpt lat="50.2751" lon="1.67532">
        <ele>7.1</ele>
        <time>2020-06-18T17:42:44Z</time>
      </trkpt>
      <trkpt lat="50.27517" lon="1.67531">
        <ele>7</ele>
        <time>2020-06-18T17:42:45Z</time>
      </trkpt>
      <trkpt lat="50.27524" lon="1.6753">
        <ele>7</ele>
        <time>2020-06-18T17:42:46Z</time>
      </trkpt>
      <trkpt lat="50.27532" lon="1.67528">
        <ele>7</ele>
        <time>2020-06-18T17:42:47Z</time>
      </trkpt>
      <trkpt lat="50.27539" lon="1.67527">
        <ele>6.9</ele>
        <time>2020-06-18T17:42:48Z</time>
      </trkpt>
      <trkpt lat="50.27546" lon="1.67525">
        <ele>6.9</ele>
        <time>2020-06-18T17:42:49Z</time>
      </trkpt>
      <trkpt lat="50.27554" lon="1.67524">
        <ele>7</ele>
        <time>2020-06-18T17:42:50Z</time>
      </trkpt>
      <trkpt lat="50.27562" lon="1.67523">
        <ele>7</ele>
        <time>2020-06-18T17:42:51Z</time>
      </trkpt>
      <trkpt lat="50.27569" lon="1.67523">
        <ele>7.1</ele>
        <time>2020-06-18T17:42:52Z</time>
      </trkpt>
      <trkpt lat="50.27576" lon="1.67524">
        <ele>7.1</ele>
        <time>2020-06-18T17:42:53Z</time>
      </trkpt>
      <trkpt lat="50.27582" lon="1.67525">
        <ele>7.2</ele>
        <time>2020-06-18T17:42:54Z</time>
      </trkpt>
      <trkpt lat="50.27589" lon="1.67527">
        <ele>7.2</ele>
        <time>2020-06-18T17:42:55Z</time>
      </trkpt>
      <trkpt lat="50.27596" lon="1.67529">
        <ele>7.2</ele>
        <time>2020-06-18T17:42:56Z</time>
      </trkpt>
      <trkpt lat="50.27602" lon="1.67531">
        <ele>7.2</ele>
        <time>2020-06-18T17:42:57Z</time>
      </trkpt>
      <trkpt lat="50.27608" lon="1.67532">
        <ele>7.2</ele>
        <time>2020-06-18T17:42:58Z</time>
      </trkpt>
      <trkpt lat="50.27613" lon="1.67533">
        <ele>7.2</ele>
        <time>2020-06-18T17:42:59Z</time>
      </trkpt>
      <trkpt lat="50.27619" lon="1.67533">
        <ele>7.1</ele>
        <time>2020-06-18T17:43:00Z</time>
      </trkpt>
      <trkpt lat="50.27624" lon="1.67534">
        <ele>7.1</ele>
        <time>2020-06-18T17:43:01Z</time>
      </trkpt>
      <trkpt lat="50.2763" lon="1.67536">
        <ele>7.1</ele>
        <time>2020-06-18T17:43:02Z</time>
      </trkpt>
      <trkpt lat="50.27636" lon="1.67538">
        <ele>7.1</ele>
        <time>2020-06-18T17:43:03Z</time>
      </trkpt>
      <trkpt lat="50.27642" lon="1.67539">
        <ele>7.1</ele>
        <time>2020-06-18T17:43:04Z</time>
      </trkpt>
      <trkpt lat="50.27648" lon="1.67541">
        <ele>7</ele>
        <time>2020-06-18T17:43:05Z</time>
      </trkpt>
      <trkpt lat="50.27655" lon="1.67543">
        <ele>7</ele>
        <time>2020-06-18T17:43:06Z</time>
      </trkpt>
      <trkpt lat="50.27661" lon="1.67544">
        <ele>7</ele>
        <time>2020-06-18T17:43:07Z</time>
      </trkpt>
      <trkpt lat="50.27666" lon="1.67545">
        <ele>7</ele>
        <time>2020-06-18T17:43:08Z</time>
      </trkpt>
      <trkpt lat="50.27675" lon="1.67547">
        <ele>6.9</ele>
        <time>2020-06-18T17:43:09Z</time>
      </trkpt>
      <trkpt lat="50.27678" lon="1.67547">
        <ele>6.9</ele>
        <time>2020-06-18T17:43:10Z</time>
      </trkpt>
      <trkpt lat="50.27684" lon="1.67549">
        <ele>6.9</ele>
        <time>2020-06-18T17:43:11Z</time>
      </trkpt>
      <trkpt lat="50.2769" lon="1.67551">
        <ele>6.9</ele>
        <time>2020-06-18T17:43:12Z</time>
      </trkpt>
      <trkpt lat="50.277" lon="1.67555">
        <ele>6.9</ele>
        <time>2020-06-18T17:43:13Z</time>
      </trkpt>
      <trkpt lat="50.27703" lon="1.67556">
        <ele>6.9</ele>
        <time>2020-06-18T17:43:14Z</time>
      </trkpt>
      <trkpt lat="50.2771" lon="1.67559">
        <ele>6.9</ele>
        <time>2020-06-18T17:43:15Z</time>
      </trkpt>
      <trkpt lat="50.27716" lon="1.67561">
        <ele>6.9</ele>
        <time>2020-06-18T17:43:16Z</time>
      </trkpt>
      <trkpt lat="50.27722" lon="1.67563">
        <ele>6.9</ele>
        <time>2020-06-18T17:43:17Z</time>
      </trkpt>
      <trkpt lat="50.27729" lon="1.67564">
        <ele>6.9</ele>
        <time>2020-06-18T17:43:18Z</time>
      </trkpt>
      <trkpt lat="50.27737" lon="1.67564">
        <ele>6.9</ele>
        <time>2020-06-18T17:43:19Z</time>
      </trkpt>
      <trkpt lat="50.27743" lon="1.67565">
        <ele>6.9</ele>
        <time>2020-06-18T17:43:20Z</time>
      </trkpt>
      <trkpt lat="50.27749" lon="1.67568">
        <ele>6.9</ele>
        <time>2020-06-18T17:43:21Z</time>
      </trkpt>
      <trkpt lat="50.27756" lon="1.67572">
        <ele>6.9</ele>
        <time>2020-06-18T17:43:22Z</time>
      </trkpt>
      <trkpt lat="50.27762" lon="1.67575">
        <ele>7</ele>
        <time>2020-06-18T17:43:23Z</time>
      </trkpt>
      <trkpt lat="50.27768" lon="1.67579">
        <ele>7</ele>
        <time>2020-06-18T17:43:24Z</time>
      </trkpt>
      <trkpt lat="50.27773" lon="1.67582">
        <ele>7</ele>
        <time>2020-06-18T17:43:25Z</time>
      </trkpt>
      <trkpt lat="50.27779" lon="1.67583">
        <ele>7.1</ele>
        <time>2020-06-18T17:43:26Z</time>
      </trkpt>
      <trkpt lat="50.27785" lon="1.67586">
        <ele>7.1</ele>
        <time>2020-06-18T17:43:27Z</time>
      </trkpt>
      <trkpt lat="50.2779" lon="1.67589">
        <ele>7.1</ele>
        <time>2020-06-18T17:43:28Z</time>
      </trkpt>
      <trkpt lat="50.27795" lon="1.67593">
        <ele>7.1</ele>
        <time>2020-06-18T17:43:29Z</time>
      </trkpt>
      <trkpt lat="50.27801" lon="1.67597">
        <ele>7.1</ele>
        <time>2020-06-18T17:43:30Z</time>
      </trkpt>
      <trkpt lat="50.27806" lon="1.676">
        <ele>7.1</ele>
        <time>2020-06-18T17:43:31Z</time>
      </trkpt>
      <trkpt lat="50.27812" lon="1.67604">
        <ele>7.1</ele>
        <time>2020-06-18T17:43:32Z</time>
      </trkpt>
      <trkpt lat="50.27818" lon="1.67607">
        <ele>7.1</ele>
        <time>2020-06-18T17:43:33Z</time>
      </trkpt>
      <trkpt lat="50.27823" lon="1.67611">
        <ele>7.1</ele>
        <time>2020-06-18T17:43:34Z</time>
      </trkpt>
      <trkpt lat="50.27829" lon="1.67614">
        <ele>7.1</ele>
        <time>2020-06-18T17:43:35Z</time>
      </trkpt>
      <trkpt lat="50.27834" lon="1.67618">
        <ele>7.1</ele>
        <time>2020-06-18T17:43:36Z</time>
      </trkpt>
      <trkpt lat="50.27839" lon="1.67622">
        <ele>7.1</ele>
        <time>2020-06-18T17:43:37Z</time>
      </trkpt>
      <trkpt lat="50.27844" lon="1.67625">
        <ele>7.1</ele>
        <time>2020-06-18T17:43:38Z</time>
      </trkpt>
      <trkpt lat="50.27851" lon="1.67629">
        <ele>7.1</ele>
        <time>2020-06-18T17:43:39Z</time>
      </trkpt>
      <trkpt lat="50.27857" lon="1.67633">
        <ele>7.1</ele>
        <time>2020-06-18T17:43:40Z</time>
      </trkpt>
      <trkpt lat="50.27862" lon="1.67637">
        <ele>7.1</ele>
        <time>2020-06-18T17:43:41Z</time>
      </trkpt>
      <trkpt lat="50.27868" lon="1.67641">
        <ele>7.1</ele>
        <time>2020-06-18T17:43:42Z</time>
      </trkpt>
      <trkpt lat="50.27874" lon="1.67645">
        <ele>7.1</ele>
        <time>2020-06-18T17:43:43Z</time>
      </trkpt>
      <trkpt lat="50.2788" lon="1.67649">
        <ele>7.2</ele>
        <time>2020-06-18T17:43:44Z</time>
      </trkpt>
      <trkpt lat="50.27884" lon="1.67654">
        <ele>7.2</ele>
        <time>2020-06-18T17:43:45Z</time>
      </trkpt>
      <trkpt lat="50.2789" lon="1.6766">
        <ele>7.2</ele>
        <time>2020-06-18T17:43:46Z</time>
      </trkpt>
      <trkpt lat="50.27896" lon="1.67664">
        <ele>7.3</ele>
        <time>2020-06-18T17:43:47Z</time>
      </trkpt>
      <trkpt lat="50.27902" lon="1.67668">
        <ele>7.4</ele>
        <time>2020-06-18T17:43:48Z</time>
      </trkpt>
      <trkpt lat="50.27908" lon="1.67672">
        <ele>7.5</ele>
        <time>2020-06-18T17:43:49Z</time>
      </trkpt>
      <trkpt lat="50.27914" lon="1.67676">
        <ele>7.6</ele>
        <time>2020-06-18T17:43:50Z</time>
      </trkpt>
      <trkpt lat="50.27919" lon="1.6768">
        <ele>7.6</ele>
        <time>2020-06-18T17:43:51Z</time>
      </trkpt>
      <trkpt lat="50.27926" lon="1.67686">
        <ele>7.7</ele>
        <time>2020-06-18T17:43:52Z</time>
      </trkpt>
      <trkpt lat="50.27932" lon="1.67692">
        <ele>7.7</ele>
        <time>2020-06-18T17:43:53Z</time>
      </trkpt>
      <trkpt lat="50.27937" lon="1.67698">
        <ele>7.7</ele>
        <time>2020-06-18T17:43:54Z</time>
      </trkpt>
      <trkpt lat="50.27942" lon="1.67704">
        <ele>7.7</ele>
        <time>2020-06-18T17:43:55Z</time>
      </trkpt>
      <trkpt lat="50.27947" lon="1.67709">
        <ele>7.7</ele>
        <time>2020-06-18T17:43:56Z</time>
      </trkpt>
      <trkpt lat="50.27953" lon="1.67714">
        <ele>7.8</ele>
        <time>2020-06-18T17:43:57Z</time>
      </trkpt>
      <trkpt lat="50.2796" lon="1.6772">
        <ele>7.9</ele>
        <time>2020-06-18T17:43:58Z</time>
      </trkpt>
      <trkpt lat="50.27966" lon="1.67724">
        <ele>7.9</ele>
        <time>2020-06-18T17:43:59Z</time>
      </trkpt>
      <trkpt lat="50.27971" lon="1.67729">
        <ele>8</ele>
        <time>2020-06-18T17:44:00Z</time>
      </trkpt>
      <trkpt lat="50.27976" lon="1.67734">
        <ele>8.1</ele>
        <time>2020-06-18T17:44:01Z</time>
      </trkpt>
      <trkpt lat="50.27981" lon="1.67739">
        <ele>8.2</ele>
        <time>2020-06-18T17:44:02Z</time>
      </trkpt>
      <trkpt lat="50.27986" lon="1.67744">
        <ele>8.2</ele>
        <time>2020-06-18T17:44:03Z</time>
      </trkpt>
      <trkpt lat="50.27991" lon="1.67749">
        <ele>8.3</ele>
        <time>2020-06-18T17:44:04Z</time>
      </trkpt>
      <trkpt lat="50.27994" lon="1.67753">
        <ele>8.3</ele>
        <time>2020-06-18T17:44:05Z</time>
      </trkpt>
      <trkpt lat="50.27999" lon="1.67757">
        <ele>8.3</ele>
        <time>2020-06-18T17:44:06Z</time>
      </trkpt>
      <trkpt lat="50.28003" lon="1.6776">
        <ele>8.4</ele>
        <time>2020-06-18T17:44:07Z</time>
      </trkpt>
      <trkpt lat="50.28007" lon="1.67763">
        <ele>8.4</ele>
        <time>2020-06-18T17:44:08Z</time>
      </trkpt>
      <trkpt lat="50.28012" lon="1.67765">
        <ele>8.4</ele>
        <time>2020-06-18T17:44:09Z</time>
      </trkpt>
      <trkpt lat="50.28019" lon="1.67769">
        <ele>8.4</ele>
        <time>2020-06-18T17:44:10Z</time>
      </trkpt>
      <trkpt lat="50.28024" lon="1.67773">
        <ele>8.3</ele>
        <time>2020-06-18T17:44:11Z</time>
      </trkpt>
      <trkpt lat="50.2803" lon="1.67775">
        <ele>8.3</ele>
        <time>2020-06-18T17:44:12Z</time>
      </trkpt>
      <trkpt lat="50.28037" lon="1.67776">
        <ele>8.3</ele>
        <time>2020-06-18T17:44:13Z</time>
      </trkpt>
      <trkpt lat="50.28044" lon="1.67779">
        <ele>8.3</ele>
        <time>2020-06-18T17:44:14Z</time>
      </trkpt>
      <trkpt lat="50.28049" lon="1.67782">
        <ele>8.4</ele>
        <time>2020-06-18T17:44:15Z</time>
      </trkpt>
      <trkpt lat="50.28055" lon="1.67784">
        <ele>8.4</ele>
        <time>2020-06-18T17:44:16Z</time>
      </trkpt>
      <trkpt lat="50.28062" lon="1.67787">
        <ele>8.4</ele>
        <time>2020-06-18T17:44:17Z</time>
      </trkpt>
      <trkpt lat="50.28068" lon="1.6779">
        <ele>8.5</ele>
        <time>2020-06-18T17:44:18Z</time>
      </trkpt>
      <trkpt lat="50.28074" lon="1.67792">
        <ele>8.6</ele>
        <time>2020-06-18T17:44:19Z</time>
      </trkpt>
      <trkpt lat="50.2808" lon="1.67795">
        <ele>8.6</ele>
        <time>2020-06-18T17:44:20Z</time>
      </trkpt>
      <trkpt lat="50.28087" lon="1.67797">
        <ele>8.7</ele>
        <time>2020-06-18T17:44:21Z</time>
      </trkpt>
      <trkpt lat="50.28092" lon="1.67799">
        <ele>8.7</ele>
        <time>2020-06-18T17:44:22Z</time>
      </trkpt>
      <trkpt lat="50.28099" lon="1.67801">
        <ele>8.7</ele>
        <time>2020-06-18T17:44:23Z</time>
      </trkpt>
      <trkpt lat="50.28105" lon="1.67805">
        <ele>8.7</ele>
        <time>2020-06-18T17:44:24Z</time>
      </trkpt>
      <trkpt lat="50.28112" lon="1.67807">
        <ele>8.7</ele>
        <time>2020-06-18T17:44:25Z</time>
      </trkpt>
      <trkpt lat="50.28121" lon="1.67808">
        <ele>8.7</ele>
        <time>2020-06-18T17:44:26Z</time>
      </trkpt>
      <trkpt lat="50.28128" lon="1.67811">
        <ele>8.8</ele>
        <time>2020-06-18T17:44:27Z</time>
      </trkpt>
      <trkpt lat="50.28136" lon="1.67813">
        <ele>8.8</ele>
        <time>2020-06-18T17:44:28Z</time>
      </trkpt>
      <trkpt lat="50.28145" lon="1.67816">
        <ele>8.8</ele>
        <time>2020-06-18T17:44:29Z</time>
      </trkpt>
      <trkpt lat="50.28152" lon="1.67819">
        <ele>8.9</ele>
        <time>2020-06-18T17:44:30Z</time>
      </trkpt>
      <trkpt lat="50.2816" lon="1.67821">
        <ele>9</ele>
        <time>2020-06-18T17:44:31Z</time>
      </trkpt>
      <trkpt lat="50.28168" lon="1.67824">
        <ele>8.9</ele>
        <time>2020-06-18T17:44:32Z</time>
      </trkpt>
      <trkpt lat="50.28176" lon="1.67826">
        <ele>8.9</ele>
        <time>2020-06-18T17:44:33Z</time>
      </trkpt>
      <trkpt lat="50.28185" lon="1.67828">
        <ele>8.9</ele>
        <time>2020-06-18T17:44:34Z</time>
      </trkpt>
      <trkpt lat="50.28193" lon="1.67832">
        <ele>8.9</ele>
        <time>2020-06-18T17:44:35Z</time>
      </trkpt>
      <trkpt lat="50.28201" lon="1.67836">
        <ele>8.9</ele>
        <time>2020-06-18T17:44:36Z</time>
      </trkpt>
      <trkpt lat="50.2821" lon="1.6784">
        <ele>9</ele>
        <time>2020-06-18T17:44:37Z</time>
      </trkpt>
      <trkpt lat="50.28218" lon="1.67843">
        <ele>9.1</ele>
        <time>2020-06-18T17:44:38Z</time>
      </trkpt>
      <trkpt lat="50.28226" lon="1.67848">
        <ele>9.2</ele>
        <time>2020-06-18T17:44:39Z</time>
      </trkpt>
      <trkpt lat="50.28234" lon="1.67852">
        <ele>9.3</ele>
        <time>2020-06-18T17:44:40Z</time>
      </trkpt>
      <trkpt lat="50.28241" lon="1.67858">
        <ele>9.4</ele>
        <time>2020-06-18T17:44:41Z</time>
      </trkpt>
      <trkpt lat="50.28247" lon="1.67864">
        <ele>9.5</ele>
        <time>2020-06-18T17:44:42Z</time>
      </trkpt>
      <trkpt lat="50.28254" lon="1.6787">
        <ele>9.6</ele>
        <time>2020-06-18T17:44:43Z</time>
      </trkpt>
      <trkpt lat="50.28259" lon="1.67875">
        <ele>9.7</ele>
        <time>2020-06-18T17:44:44Z</time>
      </trkpt>
      <trkpt lat="50.28266" lon="1.6788">
        <ele>9.7</ele>
        <time>2020-06-18T17:44:45Z</time>
      </trkpt>
      <trkpt lat="50.28272" lon="1.67883">
        <ele>9.8</ele>
        <time>2020-06-18T17:44:46Z</time>
      </trkpt>
      <trkpt lat="50.28278" lon="1.67888">
        <ele>9.9</ele>
        <time>2020-06-18T17:44:47Z</time>
      </trkpt>
      <trkpt lat="50.28285" lon="1.67893">
        <ele>9.9</ele>
        <time>2020-06-18T17:44:48Z</time>
      </trkpt>
      <trkpt lat="50.28291" lon="1.67898">
        <ele>9.9</ele>
        <time>2020-06-18T17:44:49Z</time>
      </trkpt>
      <trkpt lat="50.28297" lon="1.67903">
        <ele>10</ele>
        <time>2020-06-18T17:44:50Z</time>
      </trkpt>
      <trkpt lat="50.28303" lon="1.67908">
        <ele>10</ele>
        <time>2020-06-18T17:44:51Z</time>
      </trkpt>
      <trkpt lat="50.28309" lon="1.67913">
        <ele>10</ele>
        <time>2020-06-18T17:44:52Z</time>
      </trkpt>
      <trkpt lat="50.28315" lon="1.67918">
        <ele>10</ele>
        <time>2020-06-18T17:44:53Z</time>
      </trkpt>
      <trkpt lat="50.28322" lon="1.67922">
        <ele>10</ele>
        <time>2020-06-18T17:44:54Z</time>
      </trkpt>
      <trkpt lat="50.28328" lon="1.67928">
        <ele>10</ele>
        <time>2020-06-18T17:44:55Z</time>
      </trkpt>
      <trkpt lat="50.28334" lon="1.67933">
        <ele>10</ele>
        <time>2020-06-18T17:44:56Z</time>
      </trkpt>
      <trkpt lat="50.28341" lon="1.67938">
        <ele>10</ele>
        <time>2020-06-18T17:44:57Z</time>
      </trkpt>
      <trkpt lat="50.28347" lon="1.67943">
        <ele>10.1</ele>
        <time>2020-06-18T17:44:58Z</time>
      </trkpt>
      <trkpt lat="50.28354" lon="1.67948">
        <ele>10.1</ele>
        <time>2020-06-18T17:44:59Z</time>
      </trkpt>
      <trkpt lat="50.28361" lon="1.67953">
        <ele>10.2</ele>
        <time>2020-06-18T17:45:00Z</time>
      </trkpt>
      <trkpt lat="50.28367" lon="1.67958">
        <ele>10.2</ele>
        <time>2020-06-18T17:45:01Z</time>
      </trkpt>
      <trkpt lat="50.28373" lon="1.67962">
        <ele>10.3</ele>
        <time>2020-06-18T17:45:02Z</time>
      </trkpt>
      <trkpt lat="50.2838" lon="1.67966">
        <ele>10.3</ele>
        <time>2020-06-18T17:45:03Z</time>
      </trkpt>
      <trkpt lat="50.28387" lon="1.6797">
        <ele>10.4</ele>
        <time>2020-06-18T17:45:04Z</time>
      </trkpt>
      <trkpt lat="50.28393" lon="1.67975">
        <ele>10.4</ele>
        <time>2020-06-18T17:45:05Z</time>
      </trkpt>
      <trkpt lat="50.284" lon="1.6798">
        <ele>10.4</ele>
        <time>2020-06-18T17:45:06Z</time>
      </trkpt>
      <trkpt lat="50.28406" lon="1.67985">
        <ele>10.4</ele>
        <time>2020-06-18T17:45:07Z</time>
      </trkpt>
      <trkpt lat="50.28413" lon="1.67989">
        <ele>10.5</ele>
        <time>2020-06-18T17:45:08Z</time>
      </trkpt>
      <trkpt lat="50.28419" lon="1.67994">
        <ele>10.5</ele>
        <time>2020-06-18T17:45:09Z</time>
      </trkpt>
      <trkpt lat="50.28426" lon="1.67998">
        <ele>10.6</ele>
        <time>2020-06-18T17:45:10Z</time>
      </trkpt>
      <trkpt lat="50.28432" lon="1.68001">
        <ele>10.7</ele>
        <time>2020-06-18T17:45:11Z</time>
      </trkpt>
      <trkpt lat="50.28439" lon="1.68004">
        <ele>10.7</ele>
        <time>2020-06-18T17:45:12Z</time>
      </trkpt>
      <trkpt lat="50.28445" lon="1.68007">
        <ele>10.8</ele>
        <time>2020-06-18T17:45:13Z</time>
      </trkpt>
      <trkpt lat="50.28452" lon="1.6801">
        <ele>10.8</ele>
        <time>2020-06-18T17:45:14Z</time>
      </trkpt>
      <trkpt lat="50.28459" lon="1.68013">
        <ele>10.8</ele>
        <time>2020-06-18T17:45:15Z</time>
      </trkpt>
      <trkpt lat="50.28465" lon="1.68016">
        <ele>10.9</ele>
        <time>2020-06-18T17:45:16Z</time>
      </trkpt>
      <trkpt lat="50.28472" lon="1.68018">
        <ele>10.9</ele>
        <time>2020-06-18T17:45:17Z</time>
      </trkpt>
      <trkpt lat="50.28478" lon="1.68021">
        <ele>11</ele>
        <time>2020-06-18T17:45:18Z</time>
      </trkpt>
      <trkpt lat="50.28485" lon="1.68023">
        <ele>11</ele>
        <time>2020-06-18T17:45:19Z</time>
      </trkpt>
      <trkpt lat="50.28491" lon="1.68024">
        <ele>11.1</ele>
        <time>2020-06-18T17:45:20Z</time>
      </trkpt>
      <trkpt lat="50.28498" lon="1.68027">
        <ele>11.2</ele>
        <time>2020-06-18T17:45:21Z</time>
      </trkpt>
      <trkpt lat="50.28504" lon="1.68029">
        <ele>11.3</ele>
        <time>2020-06-18T17:45:22Z</time>
      </trkpt>
      <trkpt lat="50.2851" lon="1.6803">
        <ele>11.3</ele>
        <time>2020-06-18T17:45:23Z</time>
      </trkpt>
      <trkpt lat="50.28516" lon="1.68032">
        <ele>11.4</ele>
        <time>2020-06-18T17:45:24Z</time>
      </trkpt>
      <trkpt lat="50.28522" lon="1.68035">
        <ele>11.5</ele>
        <time>2020-06-18T17:45:25Z</time>
      </trkpt>
      <trkpt lat="50.28528" lon="1.68036">
        <ele>11.6</ele>
        <time>2020-06-18T17:45:26Z</time>
      </trkpt>
      <trkpt lat="50.28534" lon="1.68038">
        <ele>11.7</ele>
        <time>2020-06-18T17:45:27Z</time>
      </trkpt>
      <trkpt lat="50.2854" lon="1.68041">
        <ele>11.7</ele>
        <time>2020-06-18T17:45:28Z</time>
      </trkpt>
      <trkpt lat="50.28546" lon="1.68043">
        <ele>11.8</ele>
        <time>2020-06-18T17:45:29Z</time>
      </trkpt>
      <trkpt lat="50.28552" lon="1.68045">
        <ele>11.8</ele>
        <time>2020-06-18T17:45:30Z</time>
      </trkpt>
      <trkpt lat="50.28558" lon="1.68047">
        <ele>11.9</ele>
        <time>2020-06-18T17:45:31Z</time>
      </trkpt>
      <trkpt lat="50.28564" lon="1.68049">
        <ele>11.9</ele>
        <time>2020-06-18T17:45:32Z</time>
      </trkpt>
      <trkpt lat="50.2857" lon="1.68051">
        <ele>12</ele>
        <time>2020-06-18T17:45:33Z</time>
      </trkpt>
      <trkpt lat="50.28576" lon="1.68054">
        <ele>12.1</ele>
        <time>2020-06-18T17:45:34Z</time>
      </trkpt>
      <trkpt lat="50.28582" lon="1.68056">
        <ele>12.1</ele>
        <time>2020-06-18T17:45:35Z</time>
      </trkpt>
      <trkpt lat="50.28587" lon="1.68059">
        <ele>12.2</ele>
        <time>2020-06-18T17:45:36Z</time>
      </trkpt>
      <trkpt lat="50.28593" lon="1.68062">
        <ele>12.2</ele>
        <time>2020-06-18T17:45:37Z</time>
      </trkpt>
      <trkpt lat="50.28599" lon="1.68063">
        <ele>12.3</ele>
        <time>2020-06-18T17:45:38Z</time>
      </trkpt>
      <trkpt lat="50.28605" lon="1.68065">
        <ele>12.3</ele>
        <time>2020-06-18T17:45:39Z</time>
      </trkpt>
      <trkpt lat="50.28611" lon="1.68067">
        <ele>12.3</ele>
        <time>2020-06-18T17:45:40Z</time>
      </trkpt>
      <trkpt lat="50.28616" lon="1.68069">
        <ele>12.3</ele>
        <time>2020-06-18T17:45:41Z</time>
      </trkpt>
      <trkpt lat="50.28622" lon="1.68071">
        <ele>12.3</ele>
        <time>2020-06-18T17:45:42Z</time>
      </trkpt>
      <trkpt lat="50.28627" lon="1.68074">
        <ele>12.4</ele>
        <time>2020-06-18T17:45:43Z</time>
      </trkpt>
      <trkpt lat="50.28632" lon="1.68075">
        <ele>12.4</ele>
        <time>2020-06-18T17:45:44Z</time>
      </trkpt>
      <trkpt lat="50.28639" lon="1.68077">
        <ele>12.5</ele>
        <time>2020-06-18T17:45:45Z</time>
      </trkpt>
      <trkpt lat="50.28644" lon="1.68079">
        <ele>12.5</ele>
        <time>2020-06-18T17:45:46Z</time>
      </trkpt>
      <trkpt lat="50.2865" lon="1.6808">
        <ele>12.5</ele>
        <time>2020-06-18T17:45:47Z</time>
      </trkpt>
      <trkpt lat="50.28658" lon="1.68083">
        <ele>12.5</ele>
        <time>2020-06-18T17:45:48Z</time>
      </trkpt>
      <trkpt lat="50.28663" lon="1.68085">
        <ele>12.5</ele>
        <time>2020-06-18T17:45:49Z</time>
      </trkpt>
      <trkpt lat="50.28669" lon="1.68087">
        <ele>12.5</ele>
        <time>2020-06-18T17:45:50Z</time>
      </trkpt>
      <trkpt lat="50.28674" lon="1.6809">
        <ele>12.5</ele>
        <time>2020-06-18T17:45:51Z</time>
      </trkpt>
      <trkpt lat="50.28679" lon="1.68092">
        <ele>12.5</ele>
        <time>2020-06-18T17:45:52Z</time>
      </trkpt>
      <trkpt lat="50.28685" lon="1.68094">
        <ele>12.5</ele>
        <time>2020-06-18T17:45:53Z</time>
      </trkpt>
      <trkpt lat="50.28691" lon="1.68096">
        <ele>12.5</ele>
        <time>2020-06-18T17:45:54Z</time>
      </trkpt>
      <trkpt lat="50.28697" lon="1.68098">
        <ele>12.5</ele>
        <time>2020-06-18T17:45:55Z</time>
      </trkpt>
      <trkpt lat="50.28703" lon="1.68101">
        <ele>12.5</ele>
        <time>2020-06-18T17:45:56Z</time>
      </trkpt>
      <trkpt lat="50.2871" lon="1.68103">
        <ele>12.5</ele>
        <time>2020-06-18T17:45:57Z</time>
      </trkpt>
      <trkpt lat="50.28717" lon="1.68106">
        <ele>12.5</ele>
        <time>2020-06-18T17:45:58Z</time>
      </trkpt>
      <trkpt lat="50.28723" lon="1.68109">
        <ele>12.5</ele>
        <time>2020-06-18T17:45:59Z</time>
      </trkpt>
      <trkpt lat="50.2873" lon="1.68111">
        <ele>12.5</ele>
        <time>2020-06-18T17:46:00Z</time>
      </trkpt>
      <trkpt lat="50.28737" lon="1.68113">
        <ele>12.5</ele>
        <time>2020-06-18T17:46:01Z</time>
      </trkpt>
      <trkpt lat="50.28744" lon="1.68115">
        <ele>12.5</ele>
        <time>2020-06-18T17:46:02Z</time>
      </trkpt>
      <trkpt lat="50.2875" lon="1.68116">
        <ele>12.5</ele>
        <time>2020-06-18T17:46:03Z</time>
      </trkpt>
      <trkpt lat="50.28756" lon="1.68117">
        <ele>12.5</ele>
        <time>2020-06-18T17:46:04Z</time>
      </trkpt>
      <trkpt lat="50.28762" lon="1.68119">
        <ele>12.4</ele>
        <time>2020-06-18T17:46:05Z</time>
      </trkpt>
      <trkpt lat="50.28768" lon="1.6812">
        <ele>12.4</ele>
        <time>2020-06-18T17:46:06Z</time>
      </trkpt>
      <trkpt lat="50.28773" lon="1.68122">
        <ele>12.4</ele>
        <time>2020-06-18T17:46:07Z</time>
      </trkpt>
      <trkpt lat="50.28777" lon="1.68123">
        <ele>12.4</ele>
        <time>2020-06-18T17:46:08Z</time>
      </trkpt>
      <trkpt lat="50.28781" lon="1.68125">
        <ele>12.4</ele>
        <time>2020-06-18T17:46:09Z</time>
      </trkpt>
      <trkpt lat="50.28787" lon="1.68128">
        <ele>12.4</ele>
        <time>2020-06-18T17:46:10Z</time>
      </trkpt>
      <trkpt lat="50.28793" lon="1.6813">
        <ele>12.4</ele>
        <time>2020-06-18T17:46:11Z</time>
      </trkpt>
      <trkpt lat="50.28799" lon="1.68133">
        <ele>12.4</ele>
        <time>2020-06-18T17:46:12Z</time>
      </trkpt>
      <trkpt lat="50.28806" lon="1.68135">
        <ele>12.4</ele>
        <time>2020-06-18T17:46:13Z</time>
      </trkpt>
      <trkpt lat="50.28811" lon="1.68138">
        <ele>12.4</ele>
        <time>2020-06-18T17:46:14Z</time>
      </trkpt>
      <trkpt lat="50.28818" lon="1.6814">
        <ele>12.4</ele>
        <time>2020-06-18T17:46:15Z</time>
      </trkpt>
      <trkpt lat="50.28824" lon="1.68142">
        <ele>12.4</ele>
        <time>2020-06-18T17:46:16Z</time>
      </trkpt>
      <trkpt lat="50.28831" lon="1.68144">
        <ele>12.4</ele>
        <time>2020-06-18T17:46:17Z</time>
      </trkpt>
      <trkpt lat="50.28838" lon="1.68147">
        <ele>12.4</ele>
        <time>2020-06-18T17:46:18Z</time>
      </trkpt>
      <trkpt lat="50.28845" lon="1.68149">
        <ele>12.3</ele>
        <time>2020-06-18T17:46:19Z</time>
      </trkpt>
      <trkpt lat="50.28851" lon="1.6815">
        <ele>12.3</ele>
        <time>2020-06-18T17:46:20Z</time>
      </trkpt>
      <trkpt lat="50.28857" lon="1.68153">
        <ele>12.3</ele>
        <time>2020-06-18T17:46:21Z</time>
      </trkpt>
      <trkpt lat="50.28863" lon="1.68155">
        <ele>12.3</ele>
        <time>2020-06-18T17:46:22Z</time>
      </trkpt>
      <trkpt lat="50.2887" lon="1.68157">
        <ele>12.3</ele>
        <time>2020-06-18T17:46:23Z</time>
      </trkpt>
      <trkpt lat="50.28876" lon="1.68159">
        <ele>12.3</ele>
        <time>2020-06-18T17:46:24Z</time>
      </trkpt>
      <trkpt lat="50.28882" lon="1.68162">
        <ele>12.3</ele>
        <time>2020-06-18T17:46:25Z</time>
      </trkpt>
      <trkpt lat="50.28889" lon="1.68164">
        <ele>12.2</ele>
        <time>2020-06-18T17:46:26Z</time>
      </trkpt>
      <trkpt lat="50.28895" lon="1.68166">
        <ele>12.2</ele>
        <time>2020-06-18T17:46:27Z</time>
      </trkpt>
      <trkpt lat="50.28901" lon="1.68167">
        <ele>12.3</ele>
        <time>2020-06-18T17:46:28Z</time>
      </trkpt>
      <trkpt lat="50.28908" lon="1.68169">
        <ele>12.3</ele>
        <time>2020-06-18T17:46:29Z</time>
      </trkpt>
      <trkpt lat="50.28915" lon="1.68172">
        <ele>12.3</ele>
        <time>2020-06-18T17:46:30Z</time>
      </trkpt>
      <trkpt lat="50.28921" lon="1.68175">
        <ele>12.3</ele>
        <time>2020-06-18T17:46:31Z</time>
      </trkpt>
      <trkpt lat="50.28926" lon="1.68178">
        <ele>12.3</ele>
        <time>2020-06-18T17:46:32Z</time>
      </trkpt>
      <trkpt lat="50.28933" lon="1.6818">
        <ele>12.3</ele>
        <time>2020-06-18T17:46:33Z</time>
      </trkpt>
      <trkpt lat="50.28938" lon="1.68182">
        <ele>12.3</ele>
        <time>2020-06-18T17:46:34Z</time>
      </trkpt>
      <trkpt lat="50.28943" lon="1.68185">
        <ele>12.3</ele>
        <time>2020-06-18T17:46:35Z</time>
      </trkpt>
      <trkpt lat="50.28948" lon="1.68187">
        <ele>12.3</ele>
        <time>2020-06-18T17:46:36Z</time>
      </trkpt>
      <trkpt lat="50.28953" lon="1.68188">
        <ele>12.3</ele>
        <time>2020-06-18T17:46:37Z</time>
      </trkpt>
      <trkpt lat="50.28958" lon="1.68189">
        <ele>12.3</ele>
        <time>2020-06-18T17:46:38Z</time>
      </trkpt>
      <trkpt lat="50.28964" lon="1.68192">
        <ele>12.4</ele>
        <time>2020-06-18T17:46:39Z</time>
      </trkpt>
      <trkpt lat="50.28969" lon="1.68195">
        <ele>12.4</ele>
        <time>2020-06-18T17:46:40Z</time>
      </trkpt>
      <trkpt lat="50.28974" lon="1.68197">
        <ele>12.4</ele>
        <time>2020-06-18T17:46:41Z</time>
      </trkpt>
      <trkpt lat="50.2898" lon="1.68199">
        <ele>12.4</ele>
        <time>2020-06-18T17:46:42Z</time>
      </trkpt>
      <trkpt lat="50.28985" lon="1.68201">
        <ele>12.5</ele>
        <time>2020-06-18T17:46:43Z</time>
      </trkpt>
      <trkpt lat="50.28989" lon="1.68203">
        <ele>12.5</ele>
        <time>2020-06-18T17:46:44Z</time>
      </trkpt>
      <trkpt lat="50.28996" lon="1.68205">
        <ele>12.5</ele>
        <time>2020-06-18T17:46:45Z</time>
      </trkpt>
      <trkpt lat="50.29002" lon="1.68206">
        <ele>12.6</ele>
        <time>2020-06-18T17:46:46Z</time>
      </trkpt>
      <trkpt lat="50.29009" lon="1.68208">
        <ele>12.5</ele>
        <time>2020-06-18T17:46:47Z</time>
      </trkpt>
      <trkpt lat="50.29015" lon="1.68209">
        <ele>12.5</ele>
        <time>2020-06-18T17:46:48Z</time>
      </trkpt>
      <trkpt lat="50.2902" lon="1.6821">
        <ele>12.5</ele>
        <time>2020-06-18T17:46:49Z</time>
      </trkpt>
      <trkpt lat="50.29026" lon="1.68212">
        <ele>12.4</ele>
        <time>2020-06-18T17:46:50Z</time>
      </trkpt>
      <trkpt lat="50.29031" lon="1.68213">
        <ele>12.4</ele>
        <time>2020-06-18T17:46:51Z</time>
      </trkpt>
      <trkpt lat="50.29036" lon="1.68215">
        <ele>12.4</ele>
        <time>2020-06-18T17:46:52Z</time>
      </trkpt>
      <trkpt lat="50.29041" lon="1.68216">
        <ele>12.4</ele>
        <time>2020-06-18T17:46:53Z</time>
      </trkpt>
      <trkpt lat="50.29047" lon="1.68217">
        <ele>12.3</ele>
        <time>2020-06-18T17:46:54Z</time>
      </trkpt>
      <trkpt lat="50.29053" lon="1.68219">
        <ele>12.3</ele>
        <time>2020-06-18T17:46:55Z</time>
      </trkpt>
      <trkpt lat="50.29059" lon="1.68221">
        <ele>12.3</ele>
        <time>2020-06-18T17:46:56Z</time>
      </trkpt>
      <trkpt lat="50.29065" lon="1.68224">
        <ele>12.3</ele>
        <time>2020-06-18T17:46:57Z</time>
      </trkpt>
      <trkpt lat="50.29071" lon="1.68226">
        <ele>12.3</ele>
        <time>2020-06-18T17:46:58Z</time>
      </trkpt>
      <trkpt lat="50.29078" lon="1.6823">
        <ele>12.2</ele>
        <time>2020-06-18T17:46:59Z</time>
      </trkpt>
      <trkpt lat="50.29084" lon="1.68232">
        <ele>12.2</ele>
        <time>2020-06-18T17:47:00Z</time>
      </trkpt>
      <trkpt lat="50.29089" lon="1.68234">
        <ele>12.2</ele>
        <time>2020-06-18T17:47:01Z</time>
      </trkpt>
      <trkpt lat="50.29095" lon="1.68236">
        <ele>12.3</ele>
        <time>2020-06-18T17:47:02Z</time>
      </trkpt>
      <trkpt lat="50.29101" lon="1.68238">
        <ele>12.3</ele>
        <time>2020-06-18T17:47:03Z</time>
      </trkpt>
      <trkpt lat="50.29106" lon="1.68241">
        <ele>12.4</ele>
        <time>2020-06-18T17:47:04Z</time>
      </trkpt>
      <trkpt lat="50.29112" lon="1.68245">
        <ele>12.5</ele>
        <time>2020-06-18T17:47:05Z</time>
      </trkpt>
      <trkpt lat="50.29118" lon="1.68247">
        <ele>12.4</ele>
        <time>2020-06-18T17:47:06Z</time>
      </trkpt>
      <trkpt lat="50.29124" lon="1.6825">
        <ele>12.4</ele>
        <time>2020-06-18T17:47:07Z</time>
      </trkpt>
      <trkpt lat="50.29132" lon="1.68254">
        <ele>12.3</ele>
        <time>2020-06-18T17:47:08Z</time>
      </trkpt>
      <trkpt lat="50.29138" lon="1.68257">
        <ele>12.2</ele>
        <time>2020-06-18T17:47:09Z</time>
      </trkpt>
      <trkpt lat="50.29144" lon="1.68261">
        <ele>12.2</ele>
        <time>2020-06-18T17:47:10Z</time>
      </trkpt>
      <trkpt lat="50.2915" lon="1.68263">
        <ele>12.1</ele>
        <time>2020-06-18T17:47:11Z</time>
      </trkpt>
      <trkpt lat="50.29156" lon="1.68266">
        <ele>12.1</ele>
        <time>2020-06-18T17:47:12Z</time>
      </trkpt>
      <trkpt lat="50.29162" lon="1.68268">
        <ele>12.1</ele>
        <time>2020-06-18T17:47:13Z</time>
      </trkpt>
      <trkpt lat="50.29168" lon="1.6827">
        <ele>12</ele>
        <time>2020-06-18T17:47:14Z</time>
      </trkpt>
      <trkpt lat="50.29175" lon="1.68273">
        <ele>12</ele>
        <time>2020-06-18T17:47:15Z</time>
      </trkpt>
      <trkpt lat="50.29183" lon="1.68276">
        <ele>12</ele>
        <time>2020-06-18T17:47:16Z</time>
      </trkpt>
      <trkpt lat="50.29189" lon="1.68278">
        <ele>12</ele>
        <time>2020-06-18T17:47:17Z</time>
      </trkpt>
      <trkpt lat="50.29196" lon="1.6828">
        <ele>12</ele>
        <time>2020-06-18T17:47:18Z</time>
      </trkpt>
      <trkpt lat="50.29203" lon="1.68282">
        <ele>12</ele>
        <time>2020-06-18T17:47:19Z</time>
      </trkpt>
      <trkpt lat="50.29209" lon="1.68286">
        <ele>12</ele>
        <time>2020-06-18T17:47:20Z</time>
      </trkpt>
      <trkpt lat="50.29216" lon="1.68288">
        <ele>12</ele>
        <time>2020-06-18T17:47:21Z</time>
      </trkpt>
      <trkpt lat="50.29221" lon="1.6829">
        <ele>12</ele>
        <time>2020-06-18T17:47:22Z</time>
      </trkpt>
      <trkpt lat="50.29227" lon="1.68294">
        <ele>11.9</ele>
        <time>2020-06-18T17:47:23Z</time>
      </trkpt>
      <trkpt lat="50.29232" lon="1.68297">
        <ele>11.9</ele>
        <time>2020-06-18T17:47:24Z</time>
      </trkpt>
      <trkpt lat="50.29238" lon="1.683">
        <ele>11.9</ele>
        <time>2020-06-18T17:47:25Z</time>
      </trkpt>
      <trkpt lat="50.29244" lon="1.68302">
        <ele>11.9</ele>
        <time>2020-06-18T17:47:26Z</time>
      </trkpt>
      <trkpt lat="50.2925" lon="1.68305">
        <ele>11.9</ele>
        <time>2020-06-18T17:47:27Z</time>
      </trkpt>
      <trkpt lat="50.29256" lon="1.68308">
        <ele>11.9</ele>
        <time>2020-06-18T17:47:28Z</time>
      </trkpt>
      <trkpt lat="50.29262" lon="1.6831">
        <ele>11.8</ele>
        <time>2020-06-18T17:47:29Z</time>
      </trkpt>
      <trkpt lat="50.29268" lon="1.68312">
        <ele>11.8</ele>
        <time>2020-06-18T17:47:30Z</time>
      </trkpt>
      <trkpt lat="50.29274" lon="1.68314">
        <ele>11.8</ele>
        <time>2020-06-18T17:47:31Z</time>
      </trkpt>
      <trkpt lat="50.29279" lon="1.68317">
        <ele>11.8</ele>
        <time>2020-06-18T17:47:32Z</time>
      </trkpt>
      <trkpt lat="50.29285" lon="1.68318">
        <ele>11.8</ele>
        <time>2020-06-18T17:47:33Z</time>
      </trkpt>
      <trkpt lat="50.29291" lon="1.68321">
        <ele>11.8</ele>
        <time>2020-06-18T17:47:34Z</time>
      </trkpt>
      <trkpt lat="50.29297" lon="1.68323">
        <ele>11.8</ele>
        <time>2020-06-18T17:47:35Z</time>
      </trkpt>
      <trkpt lat="50.29302" lon="1.68326">
        <ele>11.8</ele>
        <time>2020-06-18T17:47:36Z</time>
      </trkpt>
      <trkpt lat="50.29308" lon="1.68329">
        <ele>11.8</ele>
        <time>2020-06-18T17:47:37Z</time>
      </trkpt>
      <trkpt lat="50.29314" lon="1.68332">
        <ele>11.8</ele>
        <time>2020-06-18T17:47:38Z</time>
      </trkpt>
      <trkpt lat="50.29321" lon="1.68335">
        <ele>11.8</ele>
        <time>2020-06-18T17:47:39Z</time>
      </trkpt>
      <trkpt lat="50.29327" lon="1.68338">
        <ele>11.8</ele>
        <time>2020-06-18T17:47:40Z</time>
      </trkpt>
      <trkpt lat="50.29332" lon="1.68341">
        <ele>11.8</ele>
        <time>2020-06-18T17:47:41Z</time>
      </trkpt>
      <trkpt lat="50.29338" lon="1.68344">
        <ele>11.8</ele>
        <time>2020-06-18T17:47:42Z</time>
      </trkpt>
      <trkpt lat="50.29343" lon="1.68347">
        <ele>11.8</ele>
        <time>2020-06-18T17:47:43Z</time>
      </trkpt>
      <trkpt lat="50.29348" lon="1.6835">
        <ele>11.8</ele>
        <time>2020-06-18T17:47:44Z</time>
      </trkpt>
      <trkpt lat="50.29354" lon="1.68352">
        <ele>11.7</ele>
        <time>2020-06-18T17:47:45Z</time>
      </trkpt>
      <trkpt lat="50.2936" lon="1.68355">
        <ele>11.7</ele>
        <time>2020-06-18T17:47:46Z</time>
      </trkpt>
      <trkpt lat="50.29365" lon="1.68357">
        <ele>11.6</ele>
        <time>2020-06-18T17:47:47Z</time>
      </trkpt>
      <trkpt lat="50.29371" lon="1.6836">
        <ele>11.6</ele>
        <time>2020-06-18T17:47:48Z</time>
      </trkpt>
      <trkpt lat="50.29376" lon="1.68363">
        <ele>11.5</ele>
        <time>2020-06-18T17:47:49Z</time>
      </trkpt>
      <trkpt lat="50.29382" lon="1.68365">
        <ele>11.5</ele>
        <time>2020-06-18T17:47:50Z</time>
      </trkpt>
      <trkpt lat="50.29388" lon="1.68368">
        <ele>11.5</ele>
        <time>2020-06-18T17:47:51Z</time>
      </trkpt>
      <trkpt lat="50.29394" lon="1.6837">
        <ele>11.4</ele>
        <time>2020-06-18T17:47:52Z</time>
      </trkpt>
      <trkpt lat="50.29399" lon="1.68372">
        <ele>11.4</ele>
        <time>2020-06-18T17:47:53Z</time>
      </trkpt>
      <trkpt lat="50.29406" lon="1.68375">
        <ele>11.4</ele>
        <time>2020-06-18T17:47:54Z</time>
      </trkpt>
      <trkpt lat="50.29411" lon="1.68378">
        <ele>11.3</ele>
        <time>2020-06-18T17:47:55Z</time>
      </trkpt>
      <trkpt lat="50.29418" lon="1.68382">
        <ele>11.3</ele>
        <time>2020-06-18T17:47:56Z</time>
      </trkpt>
      <trkpt lat="50.29424" lon="1.68387">
        <ele>11.3</ele>
        <time>2020-06-18T17:47:57Z</time>
      </trkpt>
      <trkpt lat="50.29429" lon="1.68391">
        <ele>11.2</ele>
        <time>2020-06-18T17:47:58Z</time>
      </trkpt>
      <trkpt lat="50.29434" lon="1.68395">
        <ele>11.2</ele>
        <time>2020-06-18T17:47:59Z</time>
      </trkpt>
      <trkpt lat="50.2944" lon="1.68399">
        <ele>11.1</ele>
        <time>2020-06-18T17:48:00Z</time>
      </trkpt>
      <trkpt lat="50.29446" lon="1.68404">
        <ele>11.1</ele>
        <time>2020-06-18T17:48:01Z</time>
      </trkpt>
      <trkpt lat="50.29452" lon="1.68407">
        <ele>11</ele>
        <time>2020-06-18T17:48:02Z</time>
      </trkpt>
      <trkpt lat="50.29458" lon="1.68411">
        <ele>11</ele>
        <time>2020-06-18T17:48:03Z</time>
      </trkpt>
      <trkpt lat="50.29464" lon="1.68414">
        <ele>11</ele>
        <time>2020-06-18T17:48:04Z</time>
      </trkpt>
      <trkpt lat="50.2947" lon="1.68419">
        <ele>10.9</ele>
        <time>2020-06-18T17:48:05Z</time>
      </trkpt>
      <trkpt lat="50.29477" lon="1.68423">
        <ele>10.9</ele>
        <time>2020-06-18T17:48:06Z</time>
      </trkpt>
      <trkpt lat="50.29483" lon="1.68427">
        <ele>10.9</ele>
        <time>2020-06-18T17:48:07Z</time>
      </trkpt>
      <trkpt lat="50.29488" lon="1.68431">
        <ele>10.9</ele>
        <time>2020-06-18T17:48:08Z</time>
      </trkpt>
      <trkpt lat="50.29494" lon="1.68435">
        <ele>10.9</ele>
        <time>2020-06-18T17:48:09Z</time>
      </trkpt>
      <trkpt lat="50.29499" lon="1.68438">
        <ele>10.8</ele>
        <time>2020-06-18T17:48:10Z</time>
      </trkpt>
      <trkpt lat="50.29505" lon="1.68442">
        <ele>10.8</ele>
        <time>2020-06-18T17:48:11Z</time>
      </trkpt>
      <trkpt lat="50.29512" lon="1.68446">
        <ele>10.7</ele>
        <time>2020-06-18T17:48:12Z</time>
      </trkpt>
      <trkpt lat="50.2952" lon="1.68451">
        <ele>10.5</ele>
        <time>2020-06-18T17:48:13Z</time>
      </trkpt>
      <trkpt lat="50.29526" lon="1.68455">
        <ele>10.4</ele>
        <time>2020-06-18T17:48:14Z</time>
      </trkpt>
      <trkpt lat="50.29532" lon="1.68459">
        <ele>10.3</ele>
        <time>2020-06-18T17:48:15Z</time>
      </trkpt>
      <trkpt lat="50.29539" lon="1.68462">
        <ele>10.1</ele>
        <time>2020-06-18T17:48:16Z</time>
      </trkpt>
      <trkpt lat="50.29546" lon="1.68466">
        <ele>10</ele>
        <time>2020-06-18T17:48:17Z</time>
      </trkpt>
      <trkpt lat="50.29553" lon="1.6847">
        <ele>9.8</ele>
        <time>2020-06-18T17:48:18Z</time>
      </trkpt>
      <trkpt lat="50.2956" lon="1.68473">
        <ele>9.7</ele>
        <time>2020-06-18T17:48:19Z</time>
      </trkpt>
      <trkpt lat="50.29566" lon="1.68476">
        <ele>9.6</ele>
        <time>2020-06-18T17:48:20Z</time>
      </trkpt>
      <trkpt lat="50.29572" lon="1.68479">
        <ele>9.4</ele>
        <time>2020-06-18T17:48:21Z</time>
      </trkpt>
      <trkpt lat="50.29579" lon="1.68481">
        <ele>9.3</ele>
        <time>2020-06-18T17:48:22Z</time>
      </trkpt>
      <trkpt lat="50.29586" lon="1.68484">
        <ele>9.1</ele>
        <time>2020-06-18T17:48:23Z</time>
      </trkpt>
      <trkpt lat="50.29593" lon="1.68487">
        <ele>9</ele>
        <time>2020-06-18T17:48:24Z</time>
      </trkpt>
      <trkpt lat="50.296" lon="1.68489">
        <ele>8.8</ele>
        <time>2020-06-18T17:48:25Z</time>
      </trkpt>
      <trkpt lat="50.29606" lon="1.68492">
        <ele>8.6</ele>
        <time>2020-06-18T17:48:26Z</time>
      </trkpt>
      <trkpt lat="50.29613" lon="1.68496">
        <ele>8.4</ele>
        <time>2020-06-18T17:48:27Z</time>
      </trkpt>
      <trkpt lat="50.29621" lon="1.68498">
        <ele>8.3</ele>
        <time>2020-06-18T17:48:28Z</time>
      </trkpt>
      <trkpt lat="50.29627" lon="1.68501">
        <ele>8.2</ele>
        <time>2020-06-18T17:48:29Z</time>
      </trkpt>
      <trkpt lat="50.29634" lon="1.68503">
        <ele>8.1</ele>
        <time>2020-06-18T17:48:30Z</time>
      </trkpt>
      <trkpt lat="50.29641" lon="1.68505">
        <ele>8</ele>
        <time>2020-06-18T17:48:31Z</time>
      </trkpt>
      <trkpt lat="50.29647" lon="1.68507">
        <ele>7.8</ele>
        <time>2020-06-18T17:48:32Z</time>
      </trkpt>
      <trkpt lat="50.29653" lon="1.6851">
        <ele>7.7</ele>
        <time>2020-06-18T17:48:33Z</time>
      </trkpt>
      <trkpt lat="50.2966" lon="1.68512">
        <ele>7.7</ele>
        <time>2020-06-18T17:48:34Z</time>
      </trkpt>
      <trkpt lat="50.29666" lon="1.68514">
        <ele>7.6</ele>
        <time>2020-06-18T17:48:35Z</time>
      </trkpt>
      <trkpt lat="50.29672" lon="1.68516">
        <ele>7.5</ele>
        <time>2020-06-18T17:48:36Z</time>
      </trkpt>
      <trkpt lat="50.29678" lon="1.68518">
        <ele>7.4</ele>
        <time>2020-06-18T17:48:37Z</time>
      </trkpt>
      <trkpt lat="50.29684" lon="1.6852">
        <ele>7.3</ele>
        <time>2020-06-18T17:48:38Z</time>
      </trkpt>
      <trkpt lat="50.2969" lon="1.68523">
        <ele>7.1</ele>
        <time>2020-06-18T17:48:39Z</time>
      </trkpt>
      <trkpt lat="50.29696" lon="1.68525">
        <ele>7</ele>
        <time>2020-06-18T17:48:40Z</time>
      </trkpt>
      <trkpt lat="50.29702" lon="1.68528">
        <ele>6.8</ele>
        <time>2020-06-18T17:48:41Z</time>
      </trkpt>
      <trkpt lat="50.29708" lon="1.6853">
        <ele>6.6</ele>
        <time>2020-06-18T17:48:42Z</time>
      </trkpt>
      <trkpt lat="50.29715" lon="1.68533">
        <ele>6.4</ele>
        <time>2020-06-18T17:48:43Z</time>
      </trkpt>
      <trkpt lat="50.29722" lon="1.68536">
        <ele>6.2</ele>
        <time>2020-06-18T17:48:44Z</time>
      </trkpt>
      <trkpt lat="50.29729" lon="1.6854">
        <ele>6</ele>
        <time>2020-06-18T17:48:45Z</time>
      </trkpt>
      <trkpt lat="50.29736" lon="1.68544">
        <ele>5.9</ele>
        <time>2020-06-18T17:48:46Z</time>
      </trkpt>
      <trkpt lat="50.29742" lon="1.68548">
        <ele>5.7</ele>
        <time>2020-06-18T17:48:47Z</time>
      </trkpt>
      <trkpt lat="50.2975" lon="1.68552">
        <ele>5.6</ele>
        <time>2020-06-18T17:48:48Z</time>
      </trkpt>
      <trkpt lat="50.29757" lon="1.68555">
        <ele>5.5</ele>
        <time>2020-06-18T17:48:49Z</time>
      </trkpt>
      <trkpt lat="50.29764" lon="1.68558">
        <ele>5.4</ele>
        <time>2020-06-18T17:48:50Z</time>
      </trkpt>
      <trkpt lat="50.29771" lon="1.68559">
        <ele>5.3</ele>
        <time>2020-06-18T17:48:51Z</time>
      </trkpt>
      <trkpt lat="50.29778" lon="1.68561">
        <ele>5.2</ele>
        <time>2020-06-18T17:48:52Z</time>
      </trkpt>
      <trkpt lat="50.29785" lon="1.6856">
        <ele>5.1</ele>
        <time>2020-06-18T17:48:53Z</time>
      </trkpt>
      <trkpt lat="50.29793" lon="1.6856">
        <ele>5.1</ele>
        <time>2020-06-18T17:48:54Z</time>
      </trkpt>
      <trkpt lat="50.298" lon="1.68558">
        <ele>5</ele>
        <time>2020-06-18T17:48:55Z</time>
      </trkpt>
      <trkpt lat="50.29808" lon="1.68555">
        <ele>5</ele>
        <time>2020-06-18T17:48:56Z</time>
      </trkpt>
      <trkpt lat="50.29814" lon="1.68552">
        <ele>5</ele>
        <time>2020-06-18T17:48:57Z</time>
      </trkpt>
      <trkpt lat="50.2982" lon="1.68549">
        <ele>4.9</ele>
        <time>2020-06-18T17:48:58Z</time>
      </trkpt>
      <trkpt lat="50.29826" lon="1.68546">
        <ele>4.9</ele>
        <time>2020-06-18T17:48:59Z</time>
      </trkpt>
      <trkpt lat="50.29833" lon="1.68542">
        <ele>4.8</ele>
        <time>2020-06-18T17:49:00Z</time>
      </trkpt>
      <trkpt lat="50.2984" lon="1.68539">
        <ele>4.7</ele>
        <time>2020-06-18T17:49:01Z</time>
      </trkpt>
      <trkpt lat="50.29846" lon="1.68535">
        <ele>4.6</ele>
        <time>2020-06-18T17:49:02Z</time>
      </trkpt>
      <trkpt lat="50.29852" lon="1.68534">
        <ele>4.5</ele>
        <time>2020-06-18T17:49:03Z</time>
      </trkpt>
      <trkpt lat="50.29859" lon="1.68532">
        <ele>4.5</ele>
        <time>2020-06-18T17:49:04Z</time>
      </trkpt>
      <trkpt lat="50.29865" lon="1.68529">
        <ele>4.4</ele>
        <time>2020-06-18T17:49:05Z</time>
      </trkpt>
      <trkpt lat="50.29871" lon="1.68527">
        <ele>4.4</ele>
        <time>2020-06-18T17:49:06Z</time>
      </trkpt>
      <trkpt lat="50.29877" lon="1.68523">
        <ele>4.4</ele>
        <time>2020-06-18T17:49:07Z</time>
      </trkpt>
      <trkpt lat="50.29884" lon="1.68522">
        <ele>4.5</ele>
        <time>2020-06-18T17:49:08Z</time>
      </trkpt>
      <trkpt lat="50.29891" lon="1.6852">
        <ele>4.5</ele>
        <time>2020-06-18T17:49:09Z</time>
      </trkpt>
      <trkpt lat="50.29897" lon="1.68517">
        <ele>4.6</ele>
        <time>2020-06-18T17:49:10Z</time>
      </trkpt>
      <trkpt lat="50.29904" lon="1.68515">
        <ele>4.6</ele>
        <time>2020-06-18T17:49:11Z</time>
      </trkpt>
      <trkpt lat="50.29911" lon="1.68512">
        <ele>4.7</ele>
        <time>2020-06-18T17:49:12Z</time>
      </trkpt>
      <trkpt lat="50.29917" lon="1.68508">
        <ele>4.8</ele>
        <time>2020-06-18T17:49:13Z</time>
      </trkpt>
      <trkpt lat="50.29924" lon="1.68504">
        <ele>4.9</ele>
        <time>2020-06-18T17:49:14Z</time>
      </trkpt>
      <trkpt lat="50.2993" lon="1.68503">
        <ele>5.2</ele>
        <time>2020-06-18T17:49:15Z</time>
      </trkpt>
      <trkpt lat="50.29938" lon="1.68503">
        <ele>5.4</ele>
        <time>2020-06-18T17:49:16Z</time>
      </trkpt>
      <trkpt lat="50.29945" lon="1.68504">
        <ele>5.6</ele>
        <time>2020-06-18T17:49:17Z</time>
      </trkpt>
      <trkpt lat="50.29953" lon="1.68507">
        <ele>5.8</ele>
        <time>2020-06-18T17:49:18Z</time>
      </trkpt>
      <trkpt lat="50.29961" lon="1.6851">
        <ele>6.1</ele>
        <time>2020-06-18T17:49:19Z</time>
      </trkpt>
      <trkpt lat="50.29967" lon="1.68515">
        <ele>6.2</ele>
        <time>2020-06-18T17:49:20Z</time>
      </trkpt>
      <trkpt lat="50.29974" lon="1.6852">
        <ele>6.3</ele>
        <time>2020-06-18T17:49:21Z</time>
      </trkpt>
      <trkpt lat="50.29982" lon="1.68525">
        <ele>6.4</ele>
        <time>2020-06-18T17:49:22Z</time>
      </trkpt>
      <trkpt lat="50.29988" lon="1.68529">
        <ele>6.5</ele>
        <time>2020-06-18T17:49:23Z</time>
      </trkpt>
      <trkpt lat="50.29994" lon="1.68534">
        <ele>6.6</ele>
        <time>2020-06-18T17:49:24Z</time>
      </trkpt>
      <trkpt lat="50.3" lon="1.68539">
        <ele>6.7</ele>
        <time>2020-06-18T17:49:25Z</time>
      </trkpt>
      <trkpt lat="50.30006" lon="1.68544">
        <ele>6.8</ele>
        <time>2020-06-18T17:49:26Z</time>
      </trkpt>
      <trkpt lat="50.30012" lon="1.68549">
        <ele>6.9</ele>
        <time>2020-06-18T17:49:27Z</time>
      </trkpt>
      <trkpt lat="50.30018" lon="1.68554">
        <ele>7</ele>
        <time>2020-06-18T17:49:28Z</time>
      </trkpt>
      <trkpt lat="50.30024" lon="1.68559">
        <ele>7</ele>
        <time>2020-06-18T17:49:29Z</time>
      </trkpt>
      <trkpt lat="50.3003" lon="1.68564">
        <ele>7</ele>
        <time>2020-06-18T17:49:30Z</time>
      </trkpt>
      <trkpt lat="50.30037" lon="1.68568">
        <ele>7</ele>
        <time>2020-06-18T17:49:31Z</time>
      </trkpt>
      <trkpt lat="50.30043" lon="1.68573">
        <ele>7</ele>
        <time>2020-06-18T17:49:32Z</time>
      </trkpt>
      <trkpt lat="50.3005" lon="1.68578">
        <ele>7</ele>
        <time>2020-06-18T17:49:33Z</time>
      </trkpt>
      <trkpt lat="50.30057" lon="1.68584">
        <ele>6.9</ele>
        <time>2020-06-18T17:49:34Z</time>
      </trkpt>
      <trkpt lat="50.30063" lon="1.68589">
        <ele>6.9</ele>
        <time>2020-06-18T17:49:35Z</time>
      </trkpt>
      <trkpt lat="50.3007" lon="1.68594">
        <ele>6.8</ele>
        <time>2020-06-18T17:49:36Z</time>
      </trkpt>
      <trkpt lat="50.30076" lon="1.68599">
        <ele>6.7</ele>
        <time>2020-06-18T17:49:37Z</time>
      </trkpt>
      <trkpt lat="50.30082" lon="1.68606">
        <ele>6.6</ele>
        <time>2020-06-18T17:49:38Z</time>
      </trkpt>
      <trkpt lat="50.30089" lon="1.68613">
        <ele>6.5</ele>
        <time>2020-06-18T17:49:39Z</time>
      </trkpt>
      <trkpt lat="50.30095" lon="1.68619">
        <ele>6.5</ele>
        <time>2020-06-18T17:49:40Z</time>
      </trkpt>
      <trkpt lat="50.30102" lon="1.68624">
        <ele>6.5</ele>
        <time>2020-06-18T17:49:41Z</time>
      </trkpt>
      <trkpt lat="50.30109" lon="1.68629">
        <ele>6.5</ele>
        <time>2020-06-18T17:49:42Z</time>
      </trkpt>
      <trkpt lat="50.30115" lon="1.68634">
        <ele>6.5</ele>
        <time>2020-06-18T17:49:43Z</time>
      </trkpt>
      <trkpt lat="50.30122" lon="1.68638">
        <ele>6.6</ele>
        <time>2020-06-18T17:49:44Z</time>
      </trkpt>
      <trkpt lat="50.30129" lon="1.68642">
        <ele>6.7</ele>
        <time>2020-06-18T17:49:45Z</time>
      </trkpt>
      <trkpt lat="50.30136" lon="1.68645">
        <ele>6.8</ele>
        <time>2020-06-18T17:49:46Z</time>
      </trkpt>
      <trkpt lat="50.30144" lon="1.68647">
        <ele>6.8</ele>
        <time>2020-06-18T17:49:47Z</time>
      </trkpt>
      <trkpt lat="50.30151" lon="1.68649">
        <ele>6.9</ele>
        <time>2020-06-18T17:49:48Z</time>
      </trkpt>
      <trkpt lat="50.30159" lon="1.6865">
        <ele>7</ele>
        <time>2020-06-18T17:49:49Z</time>
      </trkpt>
      <trkpt lat="50.30166" lon="1.68653">
        <ele>7.1</ele>
        <time>2020-06-18T17:49:50Z</time>
      </trkpt>
      <trkpt lat="50.30173" lon="1.68653">
        <ele>7.2</ele>
        <time>2020-06-18T17:49:51Z</time>
      </trkpt>
      <trkpt lat="50.3018" lon="1.68655">
        <ele>7.3</ele>
        <time>2020-06-18T17:49:52Z</time>
      </trkpt>
      <trkpt lat="50.30187" lon="1.68657">
        <ele>7.3</ele>
        <time>2020-06-18T17:49:53Z</time>
      </trkpt>
      <trkpt lat="50.30194" lon="1.68658">
        <ele>7.4</ele>
        <time>2020-06-18T17:49:54Z</time>
      </trkpt>
      <trkpt lat="50.30201" lon="1.6866">
        <ele>7.4</ele>
        <time>2020-06-18T17:49:55Z</time>
      </trkpt>
      <trkpt lat="50.30208" lon="1.68661">
        <ele>7.4</ele>
        <time>2020-06-18T17:49:56Z</time>
      </trkpt>
      <trkpt lat="50.30214" lon="1.68662">
        <ele>7.4</ele>
        <time>2020-06-18T17:49:57Z</time>
      </trkpt>
      <trkpt lat="50.30221" lon="1.68663">
        <ele>7.5</ele>
        <time>2020-06-18T17:49:58Z</time>
      </trkpt>
      <trkpt lat="50.30228" lon="1.68665">
        <ele>7.5</ele>
        <time>2020-06-18T17:49:59Z</time>
      </trkpt>
      <trkpt lat="50.30234" lon="1.68665">
        <ele>7.6</ele>
        <time>2020-06-18T17:50:00Z</time>
      </trkpt>
      <trkpt lat="50.30241" lon="1.68666">
        <ele>7.6</ele>
        <time>2020-06-18T17:50:01Z</time>
      </trkpt>
      <trkpt lat="50.30247" lon="1.68666">
        <ele>7.7</ele>
        <time>2020-06-18T17:50:02Z</time>
      </trkpt>
      <trkpt lat="50.30254" lon="1.68666">
        <ele>7.7</ele>
        <time>2020-06-18T17:50:03Z</time>
      </trkpt>
      <trkpt lat="50.3026" lon="1.68667">
        <ele>7.8</ele>
        <time>2020-06-18T17:50:04Z</time>
      </trkpt>
      <trkpt lat="50.30266" lon="1.68668">
        <ele>7.8</ele>
        <time>2020-06-18T17:50:05Z</time>
      </trkpt>
      <trkpt lat="50.30272" lon="1.68669">
        <ele>7.8</ele>
        <time>2020-06-18T17:50:06Z</time>
      </trkpt>
      <trkpt lat="50.30278" lon="1.68671">
        <ele>7.8</ele>
        <time>2020-06-18T17:50:07Z</time>
      </trkpt>
      <trkpt lat="50.30283" lon="1.68672">
        <ele>7.8</ele>
        <time>2020-06-18T17:50:08Z</time>
      </trkpt>
      <trkpt lat="50.30289" lon="1.68675">
        <ele>7.9</ele>
        <time>2020-06-18T17:50:09Z</time>
      </trkpt>
      <trkpt lat="50.30294" lon="1.68677">
        <ele>7.9</ele>
        <time>2020-06-18T17:50:10Z</time>
      </trkpt>
      <trkpt lat="50.30299" lon="1.68677">
        <ele>7.9</ele>
        <time>2020-06-18T17:50:11Z</time>
      </trkpt>
      <trkpt lat="50.30304" lon="1.68676">
        <ele>7.9</ele>
        <time>2020-06-18T17:50:12Z</time>
      </trkpt>
      <trkpt lat="50.30309" lon="1.68677">
        <ele>7.9</ele>
        <time>2020-06-18T17:50:13Z</time>
      </trkpt>
      <trkpt lat="50.30313" lon="1.68677">
        <ele>7.9</ele>
        <time>2020-06-18T17:50:14Z</time>
      </trkpt>
      <trkpt lat="50.30317" lon="1.68678">
        <ele>8</ele>
        <time>2020-06-18T17:50:15Z</time>
      </trkpt>
      <trkpt lat="50.30322" lon="1.68677">
        <ele>8</ele>
        <time>2020-06-18T17:50:16Z</time>
      </trkpt>
      <trkpt lat="50.30326" lon="1.68678">
        <ele>8</ele>
        <time>2020-06-18T17:50:17Z</time>
      </trkpt>
      <trkpt lat="50.30331" lon="1.68678">
        <ele>8</ele>
        <time>2020-06-18T17:50:18Z</time>
      </trkpt>
      <trkpt lat="50.30337" lon="1.68678">
        <ele>8</ele>
        <time>2020-06-18T17:50:19Z</time>
      </trkpt>
      <trkpt lat="50.30342" lon="1.68678">
        <ele>8</ele>
        <time>2020-06-18T17:50:20Z</time>
      </trkpt>
      <trkpt lat="50.30347" lon="1.68678">
        <ele>8</ele>
        <time>2020-06-18T17:50:21Z</time>
      </trkpt>
      <trkpt lat="50.30353" lon="1.68677">
        <ele>8</ele>
        <time>2020-06-18T17:50:22Z</time>
      </trkpt>
      <trkpt lat="50.30359" lon="1.68676">
        <ele>8</ele>
        <time>2020-06-18T17:50:23Z</time>
      </trkpt>
      <trkpt lat="50.30365" lon="1.68676">
        <ele>7.9</ele>
        <time>2020-06-18T17:50:24Z</time>
      </trkpt>
      <trkpt lat="50.30372" lon="1.68675">
        <ele>7.9</ele>
        <time>2020-06-18T17:50:25Z</time>
      </trkpt>
      <trkpt lat="50.30379" lon="1.68674">
        <ele>7.9</ele>
        <time>2020-06-18T17:50:26Z</time>
      </trkpt>
      <trkpt lat="50.30386" lon="1.68673">
        <ele>7.8</ele>
        <time>2020-06-18T17:50:27Z</time>
      </trkpt>
      <trkpt lat="50.30393" lon="1.68673">
        <ele>7.8</ele>
        <time>2020-06-18T17:50:28Z</time>
      </trkpt>
      <trkpt lat="50.30401" lon="1.68673">
        <ele>7.8</ele>
        <time>2020-06-18T17:50:29Z</time>
      </trkpt>
      <trkpt lat="50.30408" lon="1.68672">
        <ele>7.8</ele>
        <time>2020-06-18T17:50:30Z</time>
      </trkpt>
      <trkpt lat="50.30415" lon="1.6867">
        <ele>7.8</ele>
        <time>2020-06-18T17:50:31Z</time>
      </trkpt>
      <trkpt lat="50.30423" lon="1.6867">
        <ele>7.8</ele>
        <time>2020-06-18T17:50:32Z</time>
      </trkpt>
      <trkpt lat="50.3043" lon="1.6867">
        <ele>7.9</ele>
        <time>2020-06-18T17:50:33Z</time>
      </trkpt>
      <trkpt lat="50.30437" lon="1.68669">
        <ele>7.9</ele>
        <time>2020-06-18T17:50:34Z</time>
      </trkpt>
      <trkpt lat="50.30444" lon="1.68669">
        <ele>8</ele>
        <time>2020-06-18T17:50:35Z</time>
      </trkpt>
      <trkpt lat="50.30451" lon="1.68668">
        <ele>8.1</ele>
        <time>2020-06-18T17:50:36Z</time>
      </trkpt>
      <trkpt lat="50.30458" lon="1.68667">
        <ele>8.1</ele>
        <time>2020-06-18T17:50:37Z</time>
      </trkpt>
      <trkpt lat="50.30466" lon="1.68667">
        <ele>8.2</ele>
        <time>2020-06-18T17:50:38Z</time>
      </trkpt>
      <trkpt lat="50.30473" lon="1.68667">
        <ele>8.3</ele>
        <time>2020-06-18T17:50:39Z</time>
      </trkpt>
      <trkpt lat="50.3048" lon="1.68667">
        <ele>8.3</ele>
        <time>2020-06-18T17:50:40Z</time>
      </trkpt>
      <trkpt lat="50.30487" lon="1.68666">
        <ele>8.4</ele>
        <time>2020-06-18T17:50:41Z</time>
      </trkpt>
      <trkpt lat="50.30494" lon="1.68666">
        <ele>8.4</ele>
        <time>2020-06-18T17:50:42Z</time>
      </trkpt>
      <trkpt lat="50.30501" lon="1.68665">
        <ele>8.5</ele>
        <time>2020-06-18T17:50:43Z</time>
      </trkpt>
      <trkpt lat="50.30507" lon="1.68665">
        <ele>8.5</ele>
        <time>2020-06-18T17:50:44Z</time>
      </trkpt>
      <trkpt lat="50.30514" lon="1.68665">
        <ele>8.6</ele>
        <time>2020-06-18T17:50:45Z</time>
      </trkpt>
      <trkpt lat="50.3052" lon="1.68665">
        <ele>8.6</ele>
        <time>2020-06-18T17:50:46Z</time>
      </trkpt>
      <trkpt lat="50.30527" lon="1.68665">
        <ele>8.7</ele>
        <time>2020-06-18T17:50:47Z</time>
      </trkpt>
      <trkpt lat="50.30533" lon="1.68664">
        <ele>8.7</ele>
        <time>2020-06-18T17:50:48Z</time>
      </trkpt>
      <trkpt lat="50.3054" lon="1.68664">
        <ele>8.7</ele>
        <time>2020-06-18T17:50:49Z</time>
      </trkpt>
      <trkpt lat="50.30546" lon="1.68662">
        <ele>8.8</ele>
        <time>2020-06-18T17:50:50Z</time>
      </trkpt>
      <trkpt lat="50.30553" lon="1.68661">
        <ele>8.8</ele>
        <time>2020-06-18T17:50:51Z</time>
      </trkpt>
      <trkpt lat="50.30559" lon="1.68661">
        <ele>8.8</ele>
        <time>2020-06-18T17:50:52Z</time>
      </trkpt>
      <trkpt lat="50.30566" lon="1.6866">
        <ele>8.8</ele>
        <time>2020-06-18T17:50:53Z</time>
      </trkpt>
      <trkpt lat="50.30573" lon="1.6866">
        <ele>8.8</ele>
        <time>2020-06-18T17:50:54Z</time>
      </trkpt>
      <trkpt lat="50.30579" lon="1.68659">
        <ele>8.7</ele>
        <time>2020-06-18T17:50:55Z</time>
      </trkpt>
      <trkpt lat="50.30586" lon="1.6866">
        <ele>8.7</ele>
        <time>2020-06-18T17:50:56Z</time>
      </trkpt>
      <trkpt lat="50.30593" lon="1.68659">
        <ele>8.7</ele>
        <time>2020-06-18T17:50:57Z</time>
      </trkpt>
      <trkpt lat="50.306" lon="1.6866">
        <ele>8.7</ele>
        <time>2020-06-18T17:50:58Z</time>
      </trkpt>
      <trkpt lat="50.30607" lon="1.68661">
        <ele>8.7</ele>
        <time>2020-06-18T17:50:59Z</time>
      </trkpt>
      <trkpt lat="50.30614" lon="1.68661">
        <ele>8.7</ele>
        <time>2020-06-18T17:51:00Z</time>
      </trkpt>
      <trkpt lat="50.30621" lon="1.68662">
        <ele>8.7</ele>
        <time>2020-06-18T17:51:01Z</time>
      </trkpt>
      <trkpt lat="50.30628" lon="1.68664">
        <ele>8.7</ele>
        <time>2020-06-18T17:51:02Z</time>
      </trkpt>
      <trkpt lat="50.30635" lon="1.68666">
        <ele>8.7</ele>
        <time>2020-06-18T17:51:03Z</time>
      </trkpt>
      <trkpt lat="50.30642" lon="1.68669">
        <ele>8.7</ele>
        <time>2020-06-18T17:51:04Z</time>
      </trkpt>
      <trkpt lat="50.30648" lon="1.68674">
        <ele>8.7</ele>
        <time>2020-06-18T17:51:05Z</time>
      </trkpt>
      <trkpt lat="50.30655" lon="1.68679">
        <ele>8.7</ele>
        <time>2020-06-18T17:51:06Z</time>
      </trkpt>
      <trkpt lat="50.30661" lon="1.68685">
        <ele>8.7</ele>
        <time>2020-06-18T17:51:07Z</time>
      </trkpt>
      <trkpt lat="50.30666" lon="1.68691">
        <ele>8.6</ele>
        <time>2020-06-18T17:51:08Z</time>
      </trkpt>
      <trkpt lat="50.30672" lon="1.68698">
        <ele>8.6</ele>
        <time>2020-06-18T17:51:09Z</time>
      </trkpt>
      <trkpt lat="50.30677" lon="1.68705">
        <ele>8.6</ele>
        <time>2020-06-18T17:51:10Z</time>
      </trkpt>
      <trkpt lat="50.30684" lon="1.68711">
        <ele>8.6</ele>
        <time>2020-06-18T17:51:11Z</time>
      </trkpt>
      <trkpt lat="50.30689" lon="1.68719">
        <ele>8.6</ele>
        <time>2020-06-18T17:51:12Z</time>
      </trkpt>
      <trkpt lat="50.30695" lon="1.68725">
        <ele>8.5</ele>
        <time>2020-06-18T17:51:13Z</time>
      </trkpt>
      <trkpt lat="50.30701" lon="1.68732">
        <ele>8.5</ele>
        <time>2020-06-18T17:51:14Z</time>
      </trkpt>
      <trkpt lat="50.30707" lon="1.6874">
        <ele>8.4</ele>
        <time>2020-06-18T17:51:15Z</time>
      </trkpt>
      <trkpt lat="50.30713" lon="1.68747">
        <ele>8.4</ele>
        <time>2020-06-18T17:51:16Z</time>
      </trkpt>
      <trkpt lat="50.3072" lon="1.68755">
        <ele>8.3</ele>
        <time>2020-06-18T17:51:17Z</time>
      </trkpt>
      <trkpt lat="50.30725" lon="1.68764">
        <ele>8.3</ele>
        <time>2020-06-18T17:51:18Z</time>
      </trkpt>
      <trkpt lat="50.3073" lon="1.68773">
        <ele>8.3</ele>
        <time>2020-06-18T17:51:19Z</time>
      </trkpt>
      <trkpt lat="50.30734" lon="1.68783">
        <ele>8.3</ele>
        <time>2020-06-18T17:51:20Z</time>
      </trkpt>
      <trkpt lat="50.30738" lon="1.68794">
        <ele>8.3</ele>
        <time>2020-06-18T17:51:21Z</time>
      </trkpt>
      <trkpt lat="50.30741" lon="1.68805">
        <ele>8.3</ele>
        <time>2020-06-18T17:51:22Z</time>
      </trkpt>
      <trkpt lat="50.30744" lon="1.68816">
        <ele>8.3</ele>
        <time>2020-06-18T17:51:23Z</time>
      </trkpt>
      <trkpt lat="50.30747" lon="1.68827">
        <ele>8.2</ele>
        <time>2020-06-18T17:51:24Z</time>
      </trkpt>
      <trkpt lat="50.3075" lon="1.68838">
        <ele>8.2</ele>
        <time>2020-06-18T17:51:25Z</time>
      </trkpt>
      <trkpt lat="50.30753" lon="1.68848">
        <ele>8.2</ele>
        <time>2020-06-18T17:51:26Z</time>
      </trkpt>
      <trkpt lat="50.30756" lon="1.68859">
        <ele>8.2</ele>
        <time>2020-06-18T17:51:27Z</time>
      </trkpt>
      <trkpt lat="50.3076" lon="1.68869">
        <ele>8.2</ele>
        <time>2020-06-18T17:51:28Z</time>
      </trkpt>
      <trkpt lat="50.30764" lon="1.68879">
        <ele>8.2</ele>
        <time>2020-06-18T17:51:29Z</time>
      </trkpt>
      <trkpt lat="50.30767" lon="1.68889">
        <ele>8.2</ele>
        <time>2020-06-18T17:51:30Z</time>
      </trkpt>
      <trkpt lat="50.3077" lon="1.689">
        <ele>8.2</ele>
        <time>2020-06-18T17:51:31Z</time>
      </trkpt>
      <trkpt lat="50.30774" lon="1.68909">
        <ele>8.2</ele>
        <time>2020-06-18T17:51:32Z</time>
      </trkpt>
      <trkpt lat="50.30778" lon="1.68919">
        <ele>8.2</ele>
        <time>2020-06-18T17:51:33Z</time>
      </trkpt>
      <trkpt lat="50.30782" lon="1.68929">
        <ele>8.2</ele>
        <time>2020-06-18T17:51:34Z</time>
      </trkpt>
      <trkpt lat="50.30786" lon="1.68938">
        <ele>8.3</ele>
        <time>2020-06-18T17:51:35Z</time>
      </trkpt>
      <trkpt lat="50.3079" lon="1.68947">
        <ele>8.3</ele>
        <time>2020-06-18T17:51:36Z</time>
      </trkpt>
      <trkpt lat="50.30795" lon="1.68956">
        <ele>8.3</ele>
        <time>2020-06-18T17:51:37Z</time>
      </trkpt>
      <trkpt lat="50.30799" lon="1.68965">
        <ele>8.4</ele>
        <time>2020-06-18T17:51:38Z</time>
      </trkpt>
      <trkpt lat="50.30804" lon="1.68974">
        <ele>8.4</ele>
        <time>2020-06-18T17:51:39Z</time>
      </trkpt>
      <trkpt lat="50.30808" lon="1.68984">
        <ele>8.4</ele>
        <time>2020-06-18T17:51:40Z</time>
      </trkpt>
      <trkpt lat="50.30813" lon="1.68993">
        <ele>8.5</ele>
        <time>2020-06-18T17:51:41Z</time>
      </trkpt>
      <trkpt lat="50.30818" lon="1.69001">
        <ele>8.5</ele>
        <time>2020-06-18T17:51:42Z</time>
      </trkpt>
      <trkpt lat="50.30823" lon="1.69009">
        <ele>8.5</ele>
        <time>2020-06-18T17:51:43Z</time>
      </trkpt>
      <trkpt lat="50.30827" lon="1.69018">
        <ele>8.5</ele>
        <time>2020-06-18T17:51:44Z</time>
      </trkpt>
      <trkpt lat="50.30832" lon="1.69026">
        <ele>8.5</ele>
        <time>2020-06-18T17:51:45Z</time>
      </trkpt>
      <trkpt lat="50.30837" lon="1.69034">
        <ele>8.5</ele>
        <time>2020-06-18T17:51:46Z</time>
      </trkpt>
      <trkpt lat="50.30842" lon="1.69042">
        <ele>8.5</ele>
        <time>2020-06-18T17:51:47Z</time>
      </trkpt>
      <trkpt lat="50.30847" lon="1.6905">
        <ele>8.5</ele>
        <time>2020-06-18T17:51:48Z</time>
      </trkpt>
      <trkpt lat="50.30851" lon="1.69058">
        <ele>8.5</ele>
        <time>2020-06-18T17:51:49Z</time>
      </trkpt>
      <trkpt lat="50.30856" lon="1.69066">
        <ele>8.5</ele>
        <time>2020-06-18T17:51:50Z</time>
      </trkpt>
      <trkpt lat="50.30861" lon="1.69073">
        <ele>8.5</ele>
        <time>2020-06-18T17:51:51Z</time>
      </trkpt>
      <trkpt lat="50.30865" lon="1.69081">
        <ele>8.6</ele>
        <time>2020-06-18T17:51:52Z</time>
      </trkpt>
      <trkpt lat="50.3087" lon="1.69088">
        <ele>8.6</ele>
        <time>2020-06-18T17:51:53Z</time>
      </trkpt>
      <trkpt lat="50.30874" lon="1.69096">
        <ele>8.6</ele>
        <time>2020-06-18T17:51:54Z</time>
      </trkpt>
      <trkpt lat="50.30878" lon="1.69102">
        <ele>8.6</ele>
        <time>2020-06-18T17:51:55Z</time>
      </trkpt>
      <trkpt lat="50.30883" lon="1.69109">
        <ele>8.5</ele>
        <time>2020-06-18T17:51:56Z</time>
      </trkpt>
      <trkpt lat="50.30887" lon="1.69116">
        <ele>8.5</ele>
        <time>2020-06-18T17:51:57Z</time>
      </trkpt>
      <trkpt lat="50.30892" lon="1.69122">
        <ele>8.4</ele>
        <time>2020-06-18T17:51:58Z</time>
      </trkpt>
      <trkpt lat="50.30896" lon="1.69129">
        <ele>8.4</ele>
        <time>2020-06-18T17:51:59Z</time>
      </trkpt>
      <trkpt lat="50.309" lon="1.69135">
        <ele>8.4</ele>
        <time>2020-06-18T17:52:00Z</time>
      </trkpt>
      <trkpt lat="50.30904" lon="1.69142">
        <ele>8.4</ele>
        <time>2020-06-18T17:52:01Z</time>
      </trkpt>
      <trkpt lat="50.30908" lon="1.69148">
        <ele>8.3</ele>
        <time>2020-06-18T17:52:02Z</time>
      </trkpt>
      <trkpt lat="50.30913" lon="1.69154">
        <ele>8.3</ele>
        <time>2020-06-18T17:52:03Z</time>
      </trkpt>
      <trkpt lat="50.30918" lon="1.69159">
        <ele>8.3</ele>
        <time>2020-06-18T17:52:04Z</time>
      </trkpt>
      <trkpt lat="50.30923" lon="1.69164">
        <ele>8.3</ele>
        <time>2020-06-18T17:52:05Z</time>
      </trkpt>
      <trkpt lat="50.30928" lon="1.6917">
        <ele>8.3</ele>
        <time>2020-06-18T17:52:06Z</time>
      </trkpt>
      <trkpt lat="50.30934" lon="1.69174">
        <ele>8.3</ele>
        <time>2020-06-18T17:52:07Z</time>
      </trkpt>
      <trkpt lat="50.30939" lon="1.69179">
        <ele>8.3</ele>
        <time>2020-06-18T17:52:08Z</time>
      </trkpt>
      <trkpt lat="50.30944" lon="1.69183">
        <ele>8.3</ele>
        <time>2020-06-18T17:52:09Z</time>
      </trkpt>
      <trkpt lat="50.30948" lon="1.69188">
        <ele>8.3</ele>
        <time>2020-06-18T17:52:10Z</time>
      </trkpt>
      <trkpt lat="50.30953" lon="1.69194">
        <ele>8.3</ele>
        <time>2020-06-18T17:52:11Z</time>
      </trkpt>
      <trkpt lat="50.30957" lon="1.69199">
        <ele>8.3</ele>
        <time>2020-06-18T17:52:12Z</time>
      </trkpt>
      <trkpt lat="50.30962" lon="1.69204">
        <ele>8.3</ele>
        <time>2020-06-18T17:52:13Z</time>
      </trkpt>
      <trkpt lat="50.30966" lon="1.6921">
        <ele>8.3</ele>
        <time>2020-06-18T17:52:14Z</time>
      </trkpt>
      <trkpt lat="50.30971" lon="1.69214">
        <ele>8.3</ele>
        <time>2020-06-18T17:52:15Z</time>
      </trkpt>
      <trkpt lat="50.30977" lon="1.69218">
        <ele>8.3</ele>
        <time>2020-06-18T17:52:16Z</time>
      </trkpt>
      <trkpt lat="50.30982" lon="1.69223">
        <ele>8.3</ele>
        <time>2020-06-18T17:52:17Z</time>
      </trkpt>
      <trkpt lat="50.30988" lon="1.69228">
        <ele>8.3</ele>
        <time>2020-06-18T17:52:18Z</time>
      </trkpt>
      <trkpt lat="50.30994" lon="1.69232">
        <ele>8.3</ele>
        <time>2020-06-18T17:52:19Z</time>
      </trkpt>
      <trkpt lat="50.31" lon="1.69237">
        <ele>8.3</ele>
        <time>2020-06-18T17:52:20Z</time>
      </trkpt>
      <trkpt lat="50.31006" lon="1.69243">
        <ele>8.3</ele>
        <time>2020-06-18T17:52:21Z</time>
      </trkpt>
      <trkpt lat="50.31011" lon="1.69249">
        <ele>8.3</ele>
        <time>2020-06-18T17:52:22Z</time>
      </trkpt>
      <trkpt lat="50.31017" lon="1.69254">
        <ele>8.2</ele>
        <time>2020-06-18T17:52:23Z</time>
      </trkpt>
      <trkpt lat="50.31023" lon="1.6926">
        <ele>8.2</ele>
        <time>2020-06-18T17:52:24Z</time>
      </trkpt>
      <trkpt lat="50.31028" lon="1.69266">
        <ele>8.1</ele>
        <time>2020-06-18T17:52:25Z</time>
      </trkpt>
      <trkpt lat="50.31034" lon="1.69272">
        <ele>8.1</ele>
        <time>2020-06-18T17:52:26Z</time>
      </trkpt>
      <trkpt lat="50.3104" lon="1.69277">
        <ele>8.1</ele>
        <time>2020-06-18T17:52:27Z</time>
      </trkpt>
      <trkpt lat="50.31046" lon="1.69282">
        <ele>8.1</ele>
        <time>2020-06-18T17:52:28Z</time>
      </trkpt>
      <trkpt lat="50.31052" lon="1.69287">
        <ele>8</ele>
        <time>2020-06-18T17:52:29Z</time>
      </trkpt>
      <trkpt lat="50.31059" lon="1.69291">
        <ele>8</ele>
        <time>2020-06-18T17:52:30Z</time>
      </trkpt>
      <trkpt lat="50.31065" lon="1.69295">
        <ele>8</ele>
        <time>2020-06-18T17:52:31Z</time>
      </trkpt>
      <trkpt lat="50.31072" lon="1.69299">
        <ele>8</ele>
        <time>2020-06-18T17:52:32Z</time>
      </trkpt>
      <trkpt lat="50.31079" lon="1.69303">
        <ele>7.9</ele>
        <time>2020-06-18T17:52:33Z</time>
      </trkpt>
      <trkpt lat="50.31086" lon="1.69307">
        <ele>7.9</ele>
        <time>2020-06-18T17:52:34Z</time>
      </trkpt>
      <trkpt lat="50.31093" lon="1.69311">
        <ele>7.8</ele>
        <time>2020-06-18T17:52:35Z</time>
      </trkpt>
      <trkpt lat="50.311" lon="1.69315">
        <ele>7.8</ele>
        <time>2020-06-18T17:52:36Z</time>
      </trkpt>
      <trkpt lat="50.31107" lon="1.69319">
        <ele>7.8</ele>
        <time>2020-06-18T17:52:37Z</time>
      </trkpt>
      <trkpt lat="50.31114" lon="1.69323">
        <ele>7.9</ele>
        <time>2020-06-18T17:52:38Z</time>
      </trkpt>
      <trkpt lat="50.3112" lon="1.69326">
        <ele>8</ele>
        <time>2020-06-18T17:52:39Z</time>
      </trkpt>
      <trkpt lat="50.31127" lon="1.6933">
        <ele>8</ele>
        <time>2020-06-18T17:52:40Z</time>
      </trkpt>
      <trkpt lat="50.31134" lon="1.69334">
        <ele>7.9</ele>
        <time>2020-06-18T17:52:41Z</time>
      </trkpt>
      <trkpt lat="50.31141" lon="1.69339">
        <ele>7.9</ele>
        <time>2020-06-18T17:52:42Z</time>
      </trkpt>
      <trkpt lat="50.31148" lon="1.69343">
        <ele>7.8</ele>
        <time>2020-06-18T17:52:43Z</time>
      </trkpt>
      <trkpt lat="50.31155" lon="1.69347">
        <ele>7.8</ele>
        <time>2020-06-18T17:52:44Z</time>
      </trkpt>
      <trkpt lat="50.31162" lon="1.69351">
        <ele>7.7</ele>
        <time>2020-06-18T17:52:45Z</time>
      </trkpt>
      <trkpt lat="50.3117" lon="1.69354">
        <ele>7.7</ele>
        <time>2020-06-18T17:52:46Z</time>
      </trkpt>
      <trkpt lat="50.31177" lon="1.69359">
        <ele>7.6</ele>
        <time>2020-06-18T17:52:47Z</time>
      </trkpt>
      <trkpt lat="50.31184" lon="1.69363">
        <ele>7.6</ele>
        <time>2020-06-18T17:52:48Z</time>
      </trkpt>
      <trkpt lat="50.31191" lon="1.69367">
        <ele>7.5</ele>
        <time>2020-06-18T17:52:49Z</time>
      </trkpt>
      <trkpt lat="50.31198" lon="1.69371">
        <ele>7.5</ele>
        <time>2020-06-18T17:52:50Z</time>
      </trkpt>
      <trkpt lat="50.31206" lon="1.69374">
        <ele>7.4</ele>
        <time>2020-06-18T17:52:51Z</time>
      </trkpt>
      <trkpt lat="50.31213" lon="1.69377">
        <ele>7.3</ele>
        <time>2020-06-18T17:52:52Z</time>
      </trkpt>
      <trkpt lat="50.3122" lon="1.69381">
        <ele>7.3</ele>
        <time>2020-06-18T17:52:53Z</time>
      </trkpt>
      <trkpt lat="50.31226" lon="1.69386">
        <ele>7.2</ele>
        <time>2020-06-18T17:52:54Z</time>
      </trkpt>
      <trkpt lat="50.31233" lon="1.6939">
        <ele>7.2</ele>
        <time>2020-06-18T17:52:55Z</time>
      </trkpt>
      <trkpt lat="50.3124" lon="1.69394">
        <ele>7.2</ele>
        <time>2020-06-18T17:52:56Z</time>
      </trkpt>
      <trkpt lat="50.31248" lon="1.69397">
        <ele>7.2</ele>
        <time>2020-06-18T17:52:57Z</time>
      </trkpt>
      <trkpt lat="50.31255" lon="1.69402">
        <ele>7.2</ele>
        <time>2020-06-18T17:52:58Z</time>
      </trkpt>
      <trkpt lat="50.31262" lon="1.69406">
        <ele>7.1</ele>
        <time>2020-06-18T17:52:59Z</time>
      </trkpt>
      <trkpt lat="50.31269" lon="1.6941">
        <ele>7</ele>
        <time>2020-06-18T17:53:00Z</time>
      </trkpt>
      <trkpt lat="50.31276" lon="1.69414">
        <ele>7</ele>
        <time>2020-06-18T17:53:01Z</time>
      </trkpt>
      <trkpt lat="50.31284" lon="1.69418">
        <ele>7</ele>
        <time>2020-06-18T17:53:02Z</time>
      </trkpt>
      <trkpt lat="50.31291" lon="1.69422">
        <ele>7</ele>
        <time>2020-06-18T17:53:03Z</time>
      </trkpt>
      <trkpt lat="50.31298" lon="1.69426">
        <ele>7</ele>
        <time>2020-06-18T17:53:04Z</time>
      </trkpt>
      <trkpt lat="50.31305" lon="1.69431">
        <ele>7</ele>
        <time>2020-06-18T17:53:05Z</time>
      </trkpt>
      <trkpt lat="50.31312" lon="1.69436">
        <ele>6.9</ele>
        <time>2020-06-18T17:53:06Z</time>
      </trkpt>
      <trkpt lat="50.31319" lon="1.6944">
        <ele>6.9</ele>
        <time>2020-06-18T17:53:07Z</time>
      </trkpt>
      <trkpt lat="50.31326" lon="1.69445">
        <ele>6.9</ele>
        <time>2020-06-18T17:53:08Z</time>
      </trkpt>
      <trkpt lat="50.31333" lon="1.69449">
        <ele>6.9</ele>
        <time>2020-06-18T17:53:09Z</time>
      </trkpt>
      <trkpt lat="50.3134" lon="1.69453">
        <ele>6.9</ele>
        <time>2020-06-18T17:53:10Z</time>
      </trkpt>
      <trkpt lat="50.31348" lon="1.69456">
        <ele>7</ele>
        <time>2020-06-18T17:53:11Z</time>
      </trkpt>
      <trkpt lat="50.31354" lon="1.69459">
        <ele>7</ele>
        <time>2020-06-18T17:53:12Z</time>
      </trkpt>
      <trkpt lat="50.31361" lon="1.69463">
        <ele>7.1</ele>
        <time>2020-06-18T17:53:13Z</time>
      </trkpt>
      <trkpt lat="50.31368" lon="1.69466">
        <ele>7.2</ele>
        <time>2020-06-18T17:53:14Z</time>
      </trkpt>
      <trkpt lat="50.31375" lon="1.69467">
        <ele>7.1</ele>
        <time>2020-06-18T17:53:15Z</time>
      </trkpt>
      <trkpt lat="50.31383" lon="1.69468">
        <ele>7.1</ele>
        <time>2020-06-18T17:53:16Z</time>
      </trkpt>
      <trkpt lat="50.3139" lon="1.69467">
        <ele>7</ele>
        <time>2020-06-18T17:53:17Z</time>
      </trkpt>
      <trkpt lat="50.31397" lon="1.69463">
        <ele>7</ele>
        <time>2020-06-18T17:53:18Z</time>
      </trkpt>
      <trkpt lat="50.31404" lon="1.6946">
        <ele>7</ele>
        <time>2020-06-18T17:53:19Z</time>
      </trkpt>
      <trkpt lat="50.31411" lon="1.69457">
        <ele>7</ele>
        <time>2020-06-18T17:53:20Z</time>
      </trkpt>
      <trkpt lat="50.31418" lon="1.69454">
        <ele>7</ele>
        <time>2020-06-18T17:53:21Z</time>
      </trkpt>
      <trkpt lat="50.31425" lon="1.69451">
        <ele>7.1</ele>
        <time>2020-06-18T17:53:22Z</time>
      </trkpt>
      <trkpt lat="50.31431" lon="1.69447">
        <ele>7.1</ele>
        <time>2020-06-18T17:53:23Z</time>
      </trkpt>
      <trkpt lat="50.31438" lon="1.69445">
        <ele>7.2</ele>
        <time>2020-06-18T17:53:24Z</time>
      </trkpt>
      <trkpt lat="50.31445" lon="1.69443">
        <ele>7.2</ele>
        <time>2020-06-18T17:53:25Z</time>
      </trkpt>
      <trkpt lat="50.31452" lon="1.6944">
        <ele>7.2</ele>
        <time>2020-06-18T17:53:26Z</time>
      </trkpt>
      <trkpt lat="50.31458" lon="1.69437">
        <ele>7.3</ele>
        <time>2020-06-18T17:53:27Z</time>
      </trkpt>
      <trkpt lat="50.31465" lon="1.69436">
        <ele>7.3</ele>
        <time>2020-06-18T17:53:28Z</time>
      </trkpt>
      <trkpt lat="50.31472" lon="1.69435">
        <ele>7.4</ele>
        <time>2020-06-18T17:53:29Z</time>
      </trkpt>
      <trkpt lat="50.31479" lon="1.69432">
        <ele>7.4</ele>
        <time>2020-06-18T17:53:30Z</time>
      </trkpt>
      <trkpt lat="50.31486" lon="1.6943">
        <ele>7.5</ele>
        <time>2020-06-18T17:53:31Z</time>
      </trkpt>
      <trkpt lat="50.31493" lon="1.69428">
        <ele>7.6</ele>
        <time>2020-06-18T17:53:32Z</time>
      </trkpt>
      <trkpt lat="50.315" lon="1.69425">
        <ele>7.6</ele>
        <time>2020-06-18T17:53:33Z</time>
      </trkpt>
      <trkpt lat="50.31507" lon="1.69424">
        <ele>7.7</ele>
        <time>2020-06-18T17:53:34Z</time>
      </trkpt>
      <trkpt lat="50.31514" lon="1.69423">
        <ele>7.7</ele>
        <time>2020-06-18T17:53:35Z</time>
      </trkpt>
      <trkpt lat="50.31521" lon="1.6942">
        <ele>7.8</ele>
        <time>2020-06-18T17:53:36Z</time>
      </trkpt>
      <trkpt lat="50.31529" lon="1.69419">
        <ele>7.9</ele>
        <time>2020-06-18T17:53:37Z</time>
      </trkpt>
      <trkpt lat="50.31536" lon="1.69418">
        <ele>7.9</ele>
        <time>2020-06-18T17:53:38Z</time>
      </trkpt>
      <trkpt lat="50.31543" lon="1.69418">
        <ele>8</ele>
        <time>2020-06-18T17:53:39Z</time>
      </trkpt>
      <trkpt lat="50.3155" lon="1.69417">
        <ele>8.1</ele>
        <time>2020-06-18T17:53:40Z</time>
      </trkpt>
      <trkpt lat="50.31557" lon="1.69416">
        <ele>8.1</ele>
        <time>2020-06-18T17:53:41Z</time>
      </trkpt>
      <trkpt lat="50.31564" lon="1.69416">
        <ele>8.2</ele>
        <time>2020-06-18T17:53:42Z</time>
      </trkpt>
      <trkpt lat="50.31572" lon="1.69416">
        <ele>8.2</ele>
        <time>2020-06-18T17:53:43Z</time>
      </trkpt>
      <trkpt lat="50.31579" lon="1.69417">
        <ele>8.3</ele>
        <time>2020-06-18T17:53:44Z</time>
      </trkpt>
      <trkpt lat="50.31586" lon="1.69415">
        <ele>8.4</ele>
        <time>2020-06-18T17:53:45Z</time>
      </trkpt>
      <trkpt lat="50.31593" lon="1.69415">
        <ele>8.4</ele>
        <time>2020-06-18T17:53:46Z</time>
      </trkpt>
      <trkpt lat="50.316" lon="1.69414">
        <ele>8.5</ele>
        <time>2020-06-18T17:53:47Z</time>
      </trkpt>
      <trkpt lat="50.31607" lon="1.69414">
        <ele>8.6</ele>
        <time>2020-06-18T17:53:48Z</time>
      </trkpt>
      <trkpt lat="50.31614" lon="1.69413">
        <ele>8.6</ele>
        <time>2020-06-18T17:53:49Z</time>
      </trkpt>
      <trkpt lat="50.31621" lon="1.69412">
        <ele>8.7</ele>
        <time>2020-06-18T17:53:50Z</time>
      </trkpt>
      <trkpt lat="50.31628" lon="1.69412">
        <ele>8.8</ele>
        <time>2020-06-18T17:53:51Z</time>
      </trkpt>
      <trkpt lat="50.31635" lon="1.69412">
        <ele>8.8</ele>
        <time>2020-06-18T17:53:52Z</time>
      </trkpt>
      <trkpt lat="50.31642" lon="1.69413">
        <ele>8.8</ele>
        <time>2020-06-18T17:53:53Z</time>
      </trkpt>
      <trkpt lat="50.31649" lon="1.69413">
        <ele>8.8</ele>
        <time>2020-06-18T17:53:54Z</time>
      </trkpt>
      <trkpt lat="50.31656" lon="1.69413">
        <ele>8.8</ele>
        <time>2020-06-18T17:53:55Z</time>
      </trkpt>
      <trkpt lat="50.31663" lon="1.69413">
        <ele>8.8</ele>
        <time>2020-06-18T17:53:56Z</time>
      </trkpt>
      <trkpt lat="50.3167" lon="1.69413">
        <ele>8.8</ele>
        <time>2020-06-18T17:53:57Z</time>
      </trkpt>
      <trkpt lat="50.31677" lon="1.69414">
        <ele>8.8</ele>
        <time>2020-06-18T17:53:58Z</time>
      </trkpt>
      <trkpt lat="50.31684" lon="1.69414">
        <ele>8.8</ele>
        <time>2020-06-18T17:53:59Z</time>
      </trkpt>
      <trkpt lat="50.31691" lon="1.69414">
        <ele>8.9</ele>
        <time>2020-06-18T17:54:00Z</time>
      </trkpt>
      <trkpt lat="50.31698" lon="1.69414">
        <ele>8.9</ele>
        <time>2020-06-18T17:54:01Z</time>
      </trkpt>
      <trkpt lat="50.31705" lon="1.69414">
        <ele>8.9</ele>
        <time>2020-06-18T17:54:02Z</time>
      </trkpt>
      <trkpt lat="50.31713" lon="1.69415">
        <ele>8.8</ele>
        <time>2020-06-18T17:54:03Z</time>
      </trkpt>
      <trkpt lat="50.3172" lon="1.69415">
        <ele>8.8</ele>
        <time>2020-06-18T17:54:04Z</time>
      </trkpt>
      <trkpt lat="50.31726" lon="1.69418">
        <ele>8.8</ele>
        <time>2020-06-18T17:54:05Z</time>
      </trkpt>
      <trkpt lat="50.31733" lon="1.69422">
        <ele>8.8</ele>
        <time>2020-06-18T17:54:06Z</time>
      </trkpt>
      <trkpt lat="50.31739" lon="1.69427">
        <ele>8.8</ele>
        <time>2020-06-18T17:54:07Z</time>
      </trkpt>
      <trkpt lat="50.31746" lon="1.69431">
        <ele>8.8</ele>
        <time>2020-06-18T17:54:08Z</time>
      </trkpt>
      <trkpt lat="50.31753" lon="1.69436">
        <ele>8.9</ele>
        <time>2020-06-18T17:54:09Z</time>
      </trkpt>
      <trkpt lat="50.3176" lon="1.69441">
        <ele>8.9</ele>
        <time>2020-06-18T17:54:10Z</time>
      </trkpt>
      <trkpt lat="50.31767" lon="1.69445">
        <ele>9</ele>
        <time>2020-06-18T17:54:11Z</time>
      </trkpt>
      <trkpt lat="50.31774" lon="1.6945">
        <ele>9.2</ele>
        <time>2020-06-18T17:54:12Z</time>
      </trkpt>
      <trkpt lat="50.31781" lon="1.69452">
        <ele>9.1</ele>
        <time>2020-06-18T17:54:13Z</time>
      </trkpt>
      <trkpt lat="50.31788" lon="1.69456">
        <ele>9</ele>
        <time>2020-06-18T17:54:14Z</time>
      </trkpt>
      <trkpt lat="50.31795" lon="1.69458">
        <ele>8.9</ele>
        <time>2020-06-18T17:54:15Z</time>
      </trkpt>
      <trkpt lat="50.31802" lon="1.69459">
        <ele>8.9</ele>
        <time>2020-06-18T17:54:16Z</time>
      </trkpt>
      <trkpt lat="50.3181" lon="1.6946">
        <ele>8.9</ele>
        <time>2020-06-18T17:54:17Z</time>
      </trkpt>
      <trkpt lat="50.31817" lon="1.69462">
        <ele>8.9</ele>
        <time>2020-06-18T17:54:18Z</time>
      </trkpt>
      <trkpt lat="50.31824" lon="1.69465">
        <ele>8.9</ele>
        <time>2020-06-18T17:54:19Z</time>
      </trkpt>
      <trkpt lat="50.31831" lon="1.69467">
        <ele>8.9</ele>
        <time>2020-06-18T17:54:20Z</time>
      </trkpt>
      <trkpt lat="50.31838" lon="1.69469">
        <ele>8.8</ele>
        <time>2020-06-18T17:54:21Z</time>
      </trkpt>
      <trkpt lat="50.31846" lon="1.6947">
        <ele>8.8</ele>
        <time>2020-06-18T17:54:22Z</time>
      </trkpt>
      <trkpt lat="50.31853" lon="1.69471">
        <ele>8.8</ele>
        <time>2020-06-18T17:54:23Z</time>
      </trkpt>
      <trkpt lat="50.3186" lon="1.69472">
        <ele>8.7</ele>
        <time>2020-06-18T17:54:24Z</time>
      </trkpt>
      <trkpt lat="50.31867" lon="1.69474">
        <ele>8.7</ele>
        <time>2020-06-18T17:54:25Z</time>
      </trkpt>
      <trkpt lat="50.31875" lon="1.69476">
        <ele>8.6</ele>
        <time>2020-06-18T17:54:26Z</time>
      </trkpt>
      <trkpt lat="50.31882" lon="1.69478">
        <ele>8.6</ele>
        <time>2020-06-18T17:54:27Z</time>
      </trkpt>
      <trkpt lat="50.31889" lon="1.69478">
        <ele>8.5</ele>
        <time>2020-06-18T17:54:28Z</time>
      </trkpt>
      <trkpt lat="50.31896" lon="1.69479">
        <ele>8.5</ele>
        <time>2020-06-18T17:54:29Z</time>
      </trkpt>
      <trkpt lat="50.31903" lon="1.69481">
        <ele>8.4</ele>
        <time>2020-06-18T17:54:30Z</time>
      </trkpt>
      <trkpt lat="50.31909" lon="1.69483">
        <ele>8.4</ele>
        <time>2020-06-18T17:54:31Z</time>
      </trkpt>
      <trkpt lat="50.31915" lon="1.69485">
        <ele>8.4</ele>
        <time>2020-06-18T17:54:32Z</time>
      </trkpt>
      <trkpt lat="50.31922" lon="1.69486">
        <ele>8.3</ele>
        <time>2020-06-18T17:54:33Z</time>
      </trkpt>
      <trkpt lat="50.31928" lon="1.69488">
        <ele>8.3</ele>
        <time>2020-06-18T17:54:34Z</time>
      </trkpt>
      <trkpt lat="50.31934" lon="1.69488">
        <ele>8.2</ele>
        <time>2020-06-18T17:54:35Z</time>
      </trkpt>
      <trkpt lat="50.3194" lon="1.69489">
        <ele>8.1</ele>
        <time>2020-06-18T17:54:36Z</time>
      </trkpt>
      <trkpt lat="50.31946" lon="1.69489">
        <ele>7.9</ele>
        <time>2020-06-18T17:54:37Z</time>
      </trkpt>
      <trkpt lat="50.31952" lon="1.69486">
        <ele>7.8</ele>
        <time>2020-06-18T17:54:38Z</time>
      </trkpt>
      <trkpt lat="50.31957" lon="1.69482">
        <ele>7.7</ele>
        <time>2020-06-18T17:54:39Z</time>
      </trkpt>
      <trkpt lat="50.31962" lon="1.69477">
        <ele>7.6</ele>
        <time>2020-06-18T17:54:40Z</time>
      </trkpt>
      <trkpt lat="50.31967" lon="1.69471">
        <ele>7.5</ele>
        <time>2020-06-18T17:54:41Z</time>
      </trkpt>
      <trkpt lat="50.31972" lon="1.69465">
        <ele>7.4</ele>
        <time>2020-06-18T17:54:42Z</time>
      </trkpt>
      <trkpt lat="50.31977" lon="1.69458">
        <ele>7.3</ele>
        <time>2020-06-18T17:54:43Z</time>
      </trkpt>
      <trkpt lat="50.31981" lon="1.6945">
        <ele>7.2</ele>
        <time>2020-06-18T17:54:44Z</time>
      </trkpt>
      <trkpt lat="50.31985" lon="1.69441">
        <ele>7.1</ele>
        <time>2020-06-18T17:54:45Z</time>
      </trkpt>
      <trkpt lat="50.3199" lon="1.69434">
        <ele>7</ele>
        <time>2020-06-18T17:54:46Z</time>
      </trkpt>
      <trkpt lat="50.31996" lon="1.69426">
        <ele>6.9</ele>
        <time>2020-06-18T17:54:47Z</time>
      </trkpt>
      <trkpt lat="50.32001" lon="1.69419">
        <ele>6.8</ele>
        <time>2020-06-18T17:54:48Z</time>
      </trkpt>
      <trkpt lat="50.32006" lon="1.69411">
        <ele>6.7</ele>
        <time>2020-06-18T17:54:49Z</time>
      </trkpt>
      <trkpt lat="50.32012" lon="1.69403">
        <ele>6.7</ele>
        <time>2020-06-18T17:54:50Z</time>
      </trkpt>
      <trkpt lat="50.32017" lon="1.69395">
        <ele>6.6</ele>
        <time>2020-06-18T17:54:51Z</time>
      </trkpt>
      <trkpt lat="50.32022" lon="1.69387">
        <ele>6.6</ele>
        <time>2020-06-18T17:54:52Z</time>
      </trkpt>
      <trkpt lat="50.32028" lon="1.6938">
        <ele>6.5</ele>
        <time>2020-06-18T17:54:53Z</time>
      </trkpt>
      <trkpt lat="50.32034" lon="1.69371">
        <ele>6.4</ele>
        <time>2020-06-18T17:54:54Z</time>
      </trkpt>
      <trkpt lat="50.32039" lon="1.69363">
        <ele>6.4</ele>
        <time>2020-06-18T17:54:55Z</time>
      </trkpt>
      <trkpt lat="50.32045" lon="1.69354">
        <ele>6.4</ele>
        <time>2020-06-18T17:54:56Z</time>
      </trkpt>
      <trkpt lat="50.32051" lon="1.69345">
        <ele>6.4</ele>
        <time>2020-06-18T17:54:57Z</time>
      </trkpt>
      <trkpt lat="50.32056" lon="1.69337">
        <ele>6.4</ele>
        <time>2020-06-18T17:54:58Z</time>
      </trkpt>
      <trkpt lat="50.32062" lon="1.69327">
        <ele>6.3</ele>
        <time>2020-06-18T17:54:59Z</time>
      </trkpt>
      <trkpt lat="50.32067" lon="1.69318">
        <ele>6.3</ele>
        <time>2020-06-18T17:55:00Z</time>
      </trkpt>
      <trkpt lat="50.32072" lon="1.69309">
        <ele>6.3</ele>
        <time>2020-06-18T17:55:01Z</time>
      </trkpt>
      <trkpt lat="50.32078" lon="1.693">
        <ele>6.3</ele>
        <time>2020-06-18T17:55:02Z</time>
      </trkpt>
      <trkpt lat="50.32083" lon="1.69292">
        <ele>6.3</ele>
        <time>2020-06-18T17:55:03Z</time>
      </trkpt>
      <trkpt lat="50.32089" lon="1.69283">
        <ele>6.3</ele>
        <time>2020-06-18T17:55:04Z</time>
      </trkpt>
      <trkpt lat="50.32095" lon="1.69276">
        <ele>6.3</ele>
        <time>2020-06-18T17:55:05Z</time>
      </trkpt>
      <trkpt lat="50.321" lon="1.69267">
        <ele>6.3</ele>
        <time>2020-06-18T17:55:06Z</time>
      </trkpt>
      <trkpt lat="50.32105" lon="1.69259">
        <ele>6.2</ele>
        <time>2020-06-18T17:55:07Z</time>
      </trkpt>
      <trkpt lat="50.32111" lon="1.6925">
        <ele>6.1</ele>
        <time>2020-06-18T17:55:08Z</time>
      </trkpt>
      <trkpt lat="50.32116" lon="1.69242">
        <ele>6</ele>
        <time>2020-06-18T17:55:09Z</time>
      </trkpt>
      <trkpt lat="50.32122" lon="1.69234">
        <ele>5.9</ele>
        <time>2020-06-18T17:55:10Z</time>
      </trkpt>
      <trkpt lat="50.32127" lon="1.69226">
        <ele>5.9</ele>
        <time>2020-06-18T17:55:11Z</time>
      </trkpt>
      <trkpt lat="50.32132" lon="1.69218">
        <ele>5.8</ele>
        <time>2020-06-18T17:55:12Z</time>
      </trkpt>
      <trkpt lat="50.32138" lon="1.6921">
        <ele>5.8</ele>
        <time>2020-06-18T17:55:13Z</time>
      </trkpt>
      <trkpt lat="50.32143" lon="1.69202">
        <ele>5.8</ele>
        <time>2020-06-18T17:55:14Z</time>
      </trkpt>
      <trkpt lat="50.32148" lon="1.69193">
        <ele>5.8</ele>
        <time>2020-06-18T17:55:15Z</time>
      </trkpt>
      <trkpt lat="50.32153" lon="1.69184">
        <ele>5.8</ele>
        <time>2020-06-18T17:55:16Z</time>
      </trkpt>
      <trkpt lat="50.32158" lon="1.69176">
        <ele>5.7</ele>
        <time>2020-06-18T17:55:17Z</time>
      </trkpt>
      <trkpt lat="50.32164" lon="1.69168">
        <ele>5.7</ele>
        <time>2020-06-18T17:55:18Z</time>
      </trkpt>
      <trkpt lat="50.32169" lon="1.6916">
        <ele>5.7</ele>
        <time>2020-06-18T17:55:19Z</time>
      </trkpt>
      <trkpt lat="50.32173" lon="1.6915">
        <ele>5.7</ele>
        <time>2020-06-18T17:55:20Z</time>
      </trkpt>
      <trkpt lat="50.32178" lon="1.69141">
        <ele>5.7</ele>
        <time>2020-06-18T17:55:21Z</time>
      </trkpt>
      <trkpt lat="50.32183" lon="1.69132">
        <ele>5.8</ele>
        <time>2020-06-18T17:55:22Z</time>
      </trkpt>
      <trkpt lat="50.32188" lon="1.69123">
        <ele>5.8</ele>
        <time>2020-06-18T17:55:23Z</time>
      </trkpt>
      <trkpt lat="50.32193" lon="1.69115">
        <ele>5.8</ele>
        <time>2020-06-18T17:55:24Z</time>
      </trkpt>
      <trkpt lat="50.32198" lon="1.69106">
        <ele>5.8</ele>
        <time>2020-06-18T17:55:25Z</time>
      </trkpt>
      <trkpt lat="50.32204" lon="1.69098">
        <ele>5.7</ele>
        <time>2020-06-18T17:55:26Z</time>
      </trkpt>
      <trkpt lat="50.32209" lon="1.69089">
        <ele>5.7</ele>
        <time>2020-06-18T17:55:27Z</time>
      </trkpt>
      <trkpt lat="50.32214" lon="1.69081">
        <ele>5.7</ele>
        <time>2020-06-18T17:55:28Z</time>
      </trkpt>
      <trkpt lat="50.32219" lon="1.69072">
        <ele>5.7</ele>
        <time>2020-06-18T17:55:29Z</time>
      </trkpt>
      <trkpt lat="50.32224" lon="1.69063">
        <ele>5.7</ele>
        <time>2020-06-18T17:55:30Z</time>
      </trkpt>
      <trkpt lat="50.32229" lon="1.69055">
        <ele>5.7</ele>
        <time>2020-06-18T17:55:31Z</time>
      </trkpt>
      <trkpt lat="50.32234" lon="1.69047">
        <ele>5.7</ele>
        <time>2020-06-18T17:55:32Z</time>
      </trkpt>
      <trkpt lat="50.32239" lon="1.69039">
        <ele>5.7</ele>
        <time>2020-06-18T17:55:33Z</time>
      </trkpt>
      <trkpt lat="50.32243" lon="1.6903">
        <ele>5.7</ele>
        <time>2020-06-18T17:55:34Z</time>
      </trkpt>
      <trkpt lat="50.32248" lon="1.69022">
        <ele>5.7</ele>
        <time>2020-06-18T17:55:35Z</time>
      </trkpt>
      <trkpt lat="50.32253" lon="1.69014">
        <ele>5.7</ele>
        <time>2020-06-18T17:55:36Z</time>
      </trkpt>
      <trkpt lat="50.32258" lon="1.69006">
        <ele>5.7</ele>
        <time>2020-06-18T17:55:37Z</time>
      </trkpt>
      <trkpt lat="50.32263" lon="1.68998">
        <ele>5.7</ele>
        <time>2020-06-18T17:55:38Z</time>
      </trkpt>
      <trkpt lat="50.32269" lon="1.68991">
        <ele>5.7</ele>
        <time>2020-06-18T17:55:39Z</time>
      </trkpt>
      <trkpt lat="50.32275" lon="1.68983">
        <ele>5.6</ele>
        <time>2020-06-18T17:55:40Z</time>
      </trkpt>
      <trkpt lat="50.3228" lon="1.68975">
        <ele>5.6</ele>
        <time>2020-06-18T17:55:41Z</time>
      </trkpt>
      <trkpt lat="50.32285" lon="1.68966">
        <ele>5.6</ele>
        <time>2020-06-18T17:55:42Z</time>
      </trkpt>
      <trkpt lat="50.3229" lon="1.68957">
        <ele>5.5</ele>
        <time>2020-06-18T17:55:43Z</time>
      </trkpt>
      <trkpt lat="50.32295" lon="1.68949">
        <ele>5.5</ele>
        <time>2020-06-18T17:55:44Z</time>
      </trkpt>
      <trkpt lat="50.323" lon="1.6894">
        <ele>5.5</ele>
        <time>2020-06-18T17:55:45Z</time>
      </trkpt>
      <trkpt lat="50.32304" lon="1.68931">
        <ele>5.5</ele>
        <time>2020-06-18T17:55:46Z</time>
      </trkpt>
      <trkpt lat="50.3231" lon="1.68923">
        <ele>5.5</ele>
        <time>2020-06-18T17:55:47Z</time>
      </trkpt>
      <trkpt lat="50.32314" lon="1.68915">
        <ele>5.4</ele>
        <time>2020-06-18T17:55:48Z</time>
      </trkpt>
      <trkpt lat="50.32319" lon="1.68907">
        <ele>5.4</ele>
        <time>2020-06-18T17:55:49Z</time>
      </trkpt>
      <trkpt lat="50.32325" lon="1.68898">
        <ele>5.4</ele>
        <time>2020-06-18T17:55:50Z</time>
      </trkpt>
      <trkpt lat="50.3233" lon="1.68891">
        <ele>5.4</ele>
        <time>2020-06-18T17:55:51Z</time>
      </trkpt>
      <trkpt lat="50.32335" lon="1.68883">
        <ele>5.4</ele>
        <time>2020-06-18T17:55:52Z</time>
      </trkpt>
      <trkpt lat="50.32341" lon="1.68877">
        <ele>5.4</ele>
        <time>2020-06-18T17:55:53Z</time>
      </trkpt>
      <trkpt lat="50.32347" lon="1.6887">
        <ele>5.5</ele>
        <time>2020-06-18T17:55:54Z</time>
      </trkpt>
      <trkpt lat="50.32352" lon="1.68863">
        <ele>5.5</ele>
        <time>2020-06-18T17:55:55Z</time>
      </trkpt>
      <trkpt lat="50.32358" lon="1.68856">
        <ele>5.4</ele>
        <time>2020-06-18T17:55:56Z</time>
      </trkpt>
      <trkpt lat="50.32365" lon="1.68852">
        <ele>5.4</ele>
        <time>2020-06-18T17:55:57Z</time>
      </trkpt>
      <trkpt lat="50.32372" lon="1.68849">
        <ele>5.4</ele>
        <time>2020-06-18T17:55:58Z</time>
      </trkpt>
      <trkpt lat="50.32378" lon="1.68845">
        <ele>5.4</ele>
        <time>2020-06-18T17:55:59Z</time>
      </trkpt>
      <trkpt lat="50.32384" lon="1.68842">
        <ele>5.4</ele>
        <time>2020-06-18T17:56:00Z</time>
      </trkpt>
      <trkpt lat="50.32391" lon="1.68838">
        <ele>5.3</ele>
        <time>2020-06-18T17:56:01Z</time>
      </trkpt>
      <trkpt lat="50.32397" lon="1.68835">
        <ele>5.3</ele>
        <time>2020-06-18T17:56:02Z</time>
      </trkpt>
      <trkpt lat="50.32404" lon="1.68832">
        <ele>5.3</ele>
        <time>2020-06-18T17:56:03Z</time>
      </trkpt>
      <trkpt lat="50.32411" lon="1.6883">
        <ele>5.3</ele>
        <time>2020-06-18T17:56:04Z</time>
      </trkpt>
      <trkpt lat="50.32418" lon="1.68829">
        <ele>5.3</ele>
        <time>2020-06-18T17:56:05Z</time>
      </trkpt>
      <trkpt lat="50.32425" lon="1.68826">
        <ele>5.2</ele>
        <time>2020-06-18T17:56:06Z</time>
      </trkpt>
      <trkpt lat="50.32432" lon="1.68824">
        <ele>5.2</ele>
        <time>2020-06-18T17:56:07Z</time>
      </trkpt>
      <trkpt lat="50.32439" lon="1.68821">
        <ele>5.1</ele>
        <time>2020-06-18T17:56:08Z</time>
      </trkpt>
      <trkpt lat="50.32446" lon="1.68819">
        <ele>5.1</ele>
        <time>2020-06-18T17:56:09Z</time>
      </trkpt>
      <trkpt lat="50.32453" lon="1.68818">
        <ele>5</ele>
        <time>2020-06-18T17:56:10Z</time>
      </trkpt>
      <trkpt lat="50.32459" lon="1.68817">
        <ele>5</ele>
        <time>2020-06-18T17:56:11Z</time>
      </trkpt>
      <trkpt lat="50.32466" lon="1.68818">
        <ele>4.9</ele>
        <time>2020-06-18T17:56:12Z</time>
      </trkpt>
      <trkpt lat="50.32473" lon="1.68817">
        <ele>4.9</ele>
        <time>2020-06-18T17:56:13Z</time>
      </trkpt>
      <trkpt lat="50.32479" lon="1.68818">
        <ele>4.9</ele>
        <time>2020-06-18T17:56:14Z</time>
      </trkpt>
      <trkpt lat="50.32486" lon="1.68822">
        <ele>4.8</ele>
        <time>2020-06-18T17:56:15Z</time>
      </trkpt>
      <trkpt lat="50.32493" lon="1.68829">
        <ele>4.8</ele>
        <time>2020-06-18T17:56:16Z</time>
      </trkpt>
      <trkpt lat="50.325" lon="1.68835">
        <ele>4.8</ele>
        <time>2020-06-18T17:56:17Z</time>
      </trkpt>
      <trkpt lat="50.32507" lon="1.68842">
        <ele>4.7</ele>
        <time>2020-06-18T17:56:18Z</time>
      </trkpt>
      <trkpt lat="50.32513" lon="1.68847">
        <ele>4.7</ele>
        <time>2020-06-18T17:56:19Z</time>
      </trkpt>
      <trkpt lat="50.32519" lon="1.68853">
        <ele>4.7</ele>
        <time>2020-06-18T17:56:20Z</time>
      </trkpt>
      <trkpt lat="50.32525" lon="1.68859">
        <ele>4.8</ele>
        <time>2020-06-18T17:56:21Z</time>
      </trkpt>
      <trkpt lat="50.32531" lon="1.68866">
        <ele>4.8</ele>
        <time>2020-06-18T17:56:22Z</time>
      </trkpt>
      <trkpt lat="50.32536" lon="1.68872">
        <ele>4.8</ele>
        <time>2020-06-18T17:56:23Z</time>
      </trkpt>
      <trkpt lat="50.32541" lon="1.68878">
        <ele>4.8</ele>
        <time>2020-06-18T17:56:24Z</time>
      </trkpt>
      <trkpt lat="50.32547" lon="1.68885">
        <ele>4.9</ele>
        <time>2020-06-18T17:56:25Z</time>
      </trkpt>
      <trkpt lat="50.32552" lon="1.68891">
        <ele>4.9</ele>
        <time>2020-06-18T17:56:26Z</time>
      </trkpt>
      <trkpt lat="50.32556" lon="1.68898">
        <ele>4.9</ele>
        <time>2020-06-18T17:56:27Z</time>
      </trkpt>
      <trkpt lat="50.32561" lon="1.68904">
        <ele>4.9</ele>
        <time>2020-06-18T17:56:28Z</time>
      </trkpt>
      <trkpt lat="50.32566" lon="1.68913">
        <ele>4.9</ele>
        <time>2020-06-18T17:56:29Z</time>
      </trkpt>
      <trkpt lat="50.32572" lon="1.6892">
        <ele>5</ele>
        <time>2020-06-18T17:56:30Z</time>
      </trkpt>
      <trkpt lat="50.32577" lon="1.68927">
        <ele>5</ele>
        <time>2020-06-18T17:56:31Z</time>
      </trkpt>
      <trkpt lat="50.32583" lon="1.68934">
        <ele>5</ele>
        <time>2020-06-18T17:56:32Z</time>
      </trkpt>
      <trkpt lat="50.32589" lon="1.68942">
        <ele>5</ele>
        <time>2020-06-18T17:56:33Z</time>
      </trkpt>
      <trkpt lat="50.32595" lon="1.68949">
        <ele>5.1</ele>
        <time>2020-06-18T17:56:34Z</time>
      </trkpt>
      <trkpt lat="50.32601" lon="1.68957">
        <ele>5.1</ele>
        <time>2020-06-18T17:56:35Z</time>
      </trkpt>
      <trkpt lat="50.32606" lon="1.68964">
        <ele>5.1</ele>
        <time>2020-06-18T17:56:36Z</time>
      </trkpt>
      <trkpt lat="50.32612" lon="1.6897">
        <ele>5.1</ele>
        <time>2020-06-18T17:56:37Z</time>
      </trkpt>
      <trkpt lat="50.32618" lon="1.68977">
        <ele>5.1</ele>
        <time>2020-06-18T17:56:38Z</time>
      </trkpt>
      <trkpt lat="50.32623" lon="1.68984">
        <ele>5.1</ele>
        <time>2020-06-18T17:56:39Z</time>
      </trkpt>
      <trkpt lat="50.32628" lon="1.68991">
        <ele>5.1</ele>
        <time>2020-06-18T17:56:40Z</time>
      </trkpt>
      <trkpt lat="50.32634" lon="1.68998">
        <ele>5.1</ele>
        <time>2020-06-18T17:56:41Z</time>
      </trkpt>
      <trkpt lat="50.32639" lon="1.69005">
        <ele>5.1</ele>
        <time>2020-06-18T17:56:42Z</time>
      </trkpt>
      <trkpt lat="50.32645" lon="1.69012">
        <ele>5.1</ele>
        <time>2020-06-18T17:56:43Z</time>
      </trkpt>
      <trkpt lat="50.32652" lon="1.69018">
        <ele>5.1</ele>
        <time>2020-06-18T17:56:44Z</time>
      </trkpt>
      <trkpt lat="50.3266" lon="1.69022">
        <ele>5.2</ele>
        <time>2020-06-18T17:56:45Z</time>
      </trkpt>
      <trkpt lat="50.32667" lon="1.69025">
        <ele>5.2</ele>
        <time>2020-06-18T17:56:46Z</time>
      </trkpt>
      <trkpt lat="50.32675" lon="1.69029">
        <ele>5.2</ele>
        <time>2020-06-18T17:56:47Z</time>
      </trkpt>
      <trkpt lat="50.32682" lon="1.69032">
        <ele>5.3</ele>
        <time>2020-06-18T17:56:48Z</time>
      </trkpt>
      <trkpt lat="50.3269" lon="1.69034">
        <ele>5.3</ele>
        <time>2020-06-18T17:56:49Z</time>
      </trkpt>
      <trkpt lat="50.32697" lon="1.69036">
        <ele>5.3</ele>
        <time>2020-06-18T17:56:50Z</time>
      </trkpt>
      <trkpt lat="50.32705" lon="1.69037">
        <ele>5.3</ele>
        <time>2020-06-18T17:56:51Z</time>
      </trkpt>
      <trkpt lat="50.32713" lon="1.69039">
        <ele>5.4</ele>
        <time>2020-06-18T17:56:52Z</time>
      </trkpt>
      <trkpt lat="50.3272" lon="1.69041">
        <ele>5.4</ele>
        <time>2020-06-18T17:56:53Z</time>
      </trkpt>
      <trkpt lat="50.32727" lon="1.69042">
        <ele>5.5</ele>
        <time>2020-06-18T17:56:54Z</time>
      </trkpt>
      <trkpt lat="50.32733" lon="1.69044">
        <ele>5.6</ele>
        <time>2020-06-18T17:56:55Z</time>
      </trkpt>
      <trkpt lat="50.3274" lon="1.69046">
        <ele>5.7</ele>
        <time>2020-06-18T17:56:56Z</time>
      </trkpt>
      <trkpt lat="50.32748" lon="1.69047">
        <ele>5.9</ele>
        <time>2020-06-18T17:56:57Z</time>
      </trkpt>
      <trkpt lat="50.32756" lon="1.69051">
        <ele>6.3</ele>
        <time>2020-06-18T17:56:58Z</time>
      </trkpt>
      <trkpt lat="50.32763" lon="1.69054">
        <ele>6.3</ele>
        <time>2020-06-18T17:56:59Z</time>
      </trkpt>
      <trkpt lat="50.3277" lon="1.69057">
        <ele>6.3</ele>
        <time>2020-06-18T17:57:00Z</time>
      </trkpt>
      <trkpt lat="50.32777" lon="1.69059">
        <ele>6.2</ele>
        <time>2020-06-18T17:57:01Z</time>
      </trkpt>
      <trkpt lat="50.32784" lon="1.69062">
        <ele>6.2</ele>
        <time>2020-06-18T17:57:02Z</time>
      </trkpt>
      <trkpt lat="50.32792" lon="1.69064">
        <ele>6.1</ele>
        <time>2020-06-18T17:57:03Z</time>
      </trkpt>
      <trkpt lat="50.328" lon="1.69066">
        <ele>6</ele>
        <time>2020-06-18T17:57:04Z</time>
      </trkpt>
      <trkpt lat="50.32807" lon="1.69067">
        <ele>5.9</ele>
        <time>2020-06-18T17:57:05Z</time>
      </trkpt>
      <trkpt lat="50.32815" lon="1.6907">
        <ele>5.9</ele>
        <time>2020-06-18T17:57:06Z</time>
      </trkpt>
      <trkpt lat="50.32822" lon="1.69071">
        <ele>5.9</ele>
        <time>2020-06-18T17:57:07Z</time>
      </trkpt>
      <trkpt lat="50.3283" lon="1.69072">
        <ele>5.9</ele>
        <time>2020-06-18T17:57:08Z</time>
      </trkpt>
      <trkpt lat="50.32837" lon="1.69074">
        <ele>5.9</ele>
        <time>2020-06-18T17:57:09Z</time>
      </trkpt>
      <trkpt lat="50.32845" lon="1.69076">
        <ele>5.9</ele>
        <time>2020-06-18T17:57:10Z</time>
      </trkpt>
      <trkpt lat="50.32853" lon="1.69078">
        <ele>5.9</ele>
        <time>2020-06-18T17:57:11Z</time>
      </trkpt>
      <trkpt lat="50.3286" lon="1.69078">
        <ele>5.9</ele>
        <time>2020-06-18T17:57:12Z</time>
      </trkpt>
      <trkpt lat="50.32867" lon="1.69079">
        <ele>5.9</ele>
        <time>2020-06-18T17:57:13Z</time>
      </trkpt>
      <trkpt lat="50.32874" lon="1.6908">
        <ele>6</ele>
        <time>2020-06-18T17:57:14Z</time>
      </trkpt>
      <trkpt lat="50.32881" lon="1.6908">
        <ele>6</ele>
        <time>2020-06-18T17:57:15Z</time>
      </trkpt>
      <trkpt lat="50.32888" lon="1.69081">
        <ele>5.9</ele>
        <time>2020-06-18T17:57:16Z</time>
      </trkpt>
      <trkpt lat="50.32895" lon="1.6908">
        <ele>5.9</ele>
        <time>2020-06-18T17:57:17Z</time>
      </trkpt>
      <trkpt lat="50.32902" lon="1.6908">
        <ele>5.9</ele>
        <time>2020-06-18T17:57:18Z</time>
      </trkpt>
      <trkpt lat="50.32909" lon="1.69079">
        <ele>5.9</ele>
        <time>2020-06-18T17:57:19Z</time>
      </trkpt>
      <trkpt lat="50.32917" lon="1.69079">
        <ele>5.9</ele>
        <time>2020-06-18T17:57:20Z</time>
      </trkpt>
      <trkpt lat="50.32924" lon="1.69079">
        <ele>5.8</ele>
        <time>2020-06-18T17:57:21Z</time>
      </trkpt>
      <trkpt lat="50.32931" lon="1.6908">
        <ele>5.8</ele>
        <time>2020-06-18T17:57:22Z</time>
      </trkpt>
      <trkpt lat="50.32938" lon="1.69081">
        <ele>5.8</ele>
        <time>2020-06-18T17:57:23Z</time>
      </trkpt>
      <trkpt lat="50.32945" lon="1.69082">
        <ele>5.8</ele>
        <time>2020-06-18T17:57:24Z</time>
      </trkpt>
      <trkpt lat="50.32951" lon="1.69082">
        <ele>5.8</ele>
        <time>2020-06-18T17:57:25Z</time>
      </trkpt>
      <trkpt lat="50.32958" lon="1.69082">
        <ele>5.8</ele>
        <time>2020-06-18T17:57:26Z</time>
      </trkpt>
      <trkpt lat="50.32966" lon="1.69082">
        <ele>5.7</ele>
        <time>2020-06-18T17:57:27Z</time>
      </trkpt>
      <trkpt lat="50.32973" lon="1.69083">
        <ele>5.7</ele>
        <time>2020-06-18T17:57:28Z</time>
      </trkpt>
      <trkpt lat="50.32979" lon="1.69084">
        <ele>5.7</ele>
        <time>2020-06-18T17:57:29Z</time>
      </trkpt>
      <trkpt lat="50.32986" lon="1.69085">
        <ele>5.7</ele>
        <time>2020-06-18T17:57:30Z</time>
      </trkpt>
      <trkpt lat="50.32993" lon="1.69085">
        <ele>5.7</ele>
        <time>2020-06-18T17:57:31Z</time>
      </trkpt>
      <trkpt lat="50.33" lon="1.69085">
        <ele>5.7</ele>
        <time>2020-06-18T17:57:32Z</time>
      </trkpt>
      <trkpt lat="50.33007" lon="1.69085">
        <ele>5.7</ele>
        <time>2020-06-18T17:57:33Z</time>
      </trkpt>
      <trkpt lat="50.33014" lon="1.69085">
        <ele>5.7</ele>
        <time>2020-06-18T17:57:34Z</time>
      </trkpt>
      <trkpt lat="50.33021" lon="1.69085">
        <ele>5.7</ele>
        <time>2020-06-18T17:57:35Z</time>
      </trkpt>
      <trkpt lat="50.33027" lon="1.69085">
        <ele>5.6</ele>
        <time>2020-06-18T17:57:36Z</time>
      </trkpt>
      <trkpt lat="50.33035" lon="1.69086">
        <ele>5.6</ele>
        <time>2020-06-18T17:57:37Z</time>
      </trkpt>
      <trkpt lat="50.33042" lon="1.69087">
        <ele>5.6</ele>
        <time>2020-06-18T17:57:38Z</time>
      </trkpt>
      <trkpt lat="50.33049" lon="1.69087">
        <ele>5.6</ele>
        <time>2020-06-18T17:57:39Z</time>
      </trkpt>
      <trkpt lat="50.33055" lon="1.69087">
        <ele>5.6</ele>
        <time>2020-06-18T17:57:40Z</time>
      </trkpt>
      <trkpt lat="50.33062" lon="1.69087">
        <ele>5.6</ele>
        <time>2020-06-18T17:57:41Z</time>
      </trkpt>
      <trkpt lat="50.33069" lon="1.69088">
        <ele>5.6</ele>
        <time>2020-06-18T17:57:42Z</time>
      </trkpt>
      <trkpt lat="50.33077" lon="1.69089">
        <ele>5.6</ele>
        <time>2020-06-18T17:57:43Z</time>
      </trkpt>
      <trkpt lat="50.33084" lon="1.69089">
        <ele>5.5</ele>
        <time>2020-06-18T17:57:44Z</time>
      </trkpt>
      <trkpt lat="50.33091" lon="1.6909">
        <ele>5.4</ele>
        <time>2020-06-18T17:57:45Z</time>
      </trkpt>
      <trkpt lat="50.33099" lon="1.6909">
        <ele>5.4</ele>
        <time>2020-06-18T17:57:46Z</time>
      </trkpt>
      <trkpt lat="50.33106" lon="1.69091">
        <ele>5.4</ele>
        <time>2020-06-18T17:57:47Z</time>
      </trkpt>
      <trkpt lat="50.33113" lon="1.69091">
        <ele>5.3</ele>
        <time>2020-06-18T17:57:48Z</time>
      </trkpt>
      <trkpt lat="50.33121" lon="1.69091">
        <ele>5.3</ele>
        <time>2020-06-18T17:57:49Z</time>
      </trkpt>
      <trkpt lat="50.33128" lon="1.69091">
        <ele>5.3</ele>
        <time>2020-06-18T17:57:50Z</time>
      </trkpt>
      <trkpt lat="50.33135" lon="1.69091">
        <ele>5.3</ele>
        <time>2020-06-18T17:57:51Z</time>
      </trkpt>
      <trkpt lat="50.33142" lon="1.69091">
        <ele>5.3</ele>
        <time>2020-06-18T17:57:52Z</time>
      </trkpt>
      <trkpt lat="50.33149" lon="1.69091">
        <ele>5.2</ele>
        <time>2020-06-18T17:57:53Z</time>
      </trkpt>
      <trkpt lat="50.33157" lon="1.69092">
        <ele>5.3</ele>
        <time>2020-06-18T17:57:54Z</time>
      </trkpt>
      <trkpt lat="50.33164" lon="1.69092">
        <ele>5.3</ele>
        <time>2020-06-18T17:57:55Z</time>
      </trkpt>
      <trkpt lat="50.33171" lon="1.69093">
        <ele>5.3</ele>
        <time>2020-06-18T17:57:56Z</time>
      </trkpt>
      <trkpt lat="50.33177" lon="1.69093">
        <ele>5.3</ele>
        <time>2020-06-18T17:57:57Z</time>
      </trkpt>
      <trkpt lat="50.33184" lon="1.69093">
        <ele>5.3</ele>
        <time>2020-06-18T17:57:58Z</time>
      </trkpt>
      <trkpt lat="50.3319" lon="1.69092">
        <ele>5.3</ele>
        <time>2020-06-18T17:57:59Z</time>
      </trkpt>
      <trkpt lat="50.33197" lon="1.69091">
        <ele>5.3</ele>
        <time>2020-06-18T17:58:00Z</time>
      </trkpt>
      <trkpt lat="50.33204" lon="1.69091">
        <ele>5.2</ele>
        <time>2020-06-18T17:58:01Z</time>
      </trkpt>
      <trkpt lat="50.33211" lon="1.6909">
        <ele>5.2</ele>
        <time>2020-06-18T17:58:02Z</time>
      </trkpt>
      <trkpt lat="50.33218" lon="1.69091">
        <ele>5.2</ele>
        <time>2020-06-18T17:58:03Z</time>
      </trkpt>
      <trkpt lat="50.33225" lon="1.69091">
        <ele>5.2</ele>
        <time>2020-06-18T17:58:04Z</time>
      </trkpt>
      <trkpt lat="50.33232" lon="1.69091">
        <ele>5.2</ele>
        <time>2020-06-18T17:58:05Z</time>
      </trkpt>
      <trkpt lat="50.33239" lon="1.69092">
        <ele>5.2</ele>
        <time>2020-06-18T17:58:06Z</time>
      </trkpt>
      <trkpt lat="50.33246" lon="1.69093">
        <ele>5.2</ele>
        <time>2020-06-18T17:58:07Z</time>
      </trkpt>
      <trkpt lat="50.33253" lon="1.69094">
        <ele>5.2</ele>
        <time>2020-06-18T17:58:08Z</time>
      </trkpt>
      <trkpt lat="50.3326" lon="1.69096">
        <ele>5.3</ele>
        <time>2020-06-18T17:58:09Z</time>
      </trkpt>
      <trkpt lat="50.33267" lon="1.69096">
        <ele>5.3</ele>
        <time>2020-06-18T17:58:10Z</time>
      </trkpt>
      <trkpt lat="50.33273" lon="1.69097">
        <ele>5.3</ele>
        <time>2020-06-18T17:58:11Z</time>
      </trkpt>
      <trkpt lat="50.3328" lon="1.69097">
        <ele>5.3</ele>
        <time>2020-06-18T17:58:12Z</time>
      </trkpt>
      <trkpt lat="50.33287" lon="1.69098">
        <ele>5.4</ele>
        <time>2020-06-18T17:58:13Z</time>
      </trkpt>
      <trkpt lat="50.33294" lon="1.69099">
        <ele>5.4</ele>
        <time>2020-06-18T17:58:14Z</time>
      </trkpt>
      <trkpt lat="50.33301" lon="1.69099">
        <ele>5.4</ele>
        <time>2020-06-18T17:58:15Z</time>
      </trkpt>
      <trkpt lat="50.33308" lon="1.691">
        <ele>5.3</ele>
        <time>2020-06-18T17:58:16Z</time>
      </trkpt>
      <trkpt lat="50.33315" lon="1.691">
        <ele>5.3</ele>
        <time>2020-06-18T17:58:17Z</time>
      </trkpt>
      <trkpt lat="50.33321" lon="1.69101">
        <ele>5.3</ele>
        <time>2020-06-18T17:58:18Z</time>
      </trkpt>
      <trkpt lat="50.33327" lon="1.69101">
        <ele>5.3</ele>
        <time>2020-06-18T17:58:19Z</time>
      </trkpt>
      <trkpt lat="50.33333" lon="1.69102">
        <ele>5.4</ele>
        <time>2020-06-18T17:58:20Z</time>
      </trkpt>
      <trkpt lat="50.3334" lon="1.69102">
        <ele>5.4</ele>
        <time>2020-06-18T17:58:21Z</time>
      </trkpt>
      <trkpt lat="50.33346" lon="1.69101">
        <ele>5.4</ele>
        <time>2020-06-18T17:58:22Z</time>
      </trkpt>
      <trkpt lat="50.33353" lon="1.69101">
        <ele>5.4</ele>
        <time>2020-06-18T17:58:23Z</time>
      </trkpt>
      <trkpt lat="50.33359" lon="1.69101">
        <ele>5.4</ele>
        <time>2020-06-18T17:58:24Z</time>
      </trkpt>
      <trkpt lat="50.33365" lon="1.69102">
        <ele>5.4</ele>
        <time>2020-06-18T17:58:25Z</time>
      </trkpt>
      <trkpt lat="50.33372" lon="1.69103">
        <ele>5.4</ele>
        <time>2020-06-18T17:58:26Z</time>
      </trkpt>
      <trkpt lat="50.33378" lon="1.69103">
        <ele>5.4</ele>
        <time>2020-06-18T17:58:27Z</time>
      </trkpt>
      <trkpt lat="50.33385" lon="1.69104">
        <ele>5.4</ele>
        <time>2020-06-18T17:58:28Z</time>
      </trkpt>
      <trkpt lat="50.33392" lon="1.69104">
        <ele>5.4</ele>
        <time>2020-06-18T17:58:29Z</time>
      </trkpt>
      <trkpt lat="50.33398" lon="1.69104">
        <ele>5.4</ele>
        <time>2020-06-18T17:58:30Z</time>
      </trkpt>
      <trkpt lat="50.33404" lon="1.69105">
        <ele>5.5</ele>
        <time>2020-06-18T17:58:31Z</time>
      </trkpt>
      <trkpt lat="50.3341" lon="1.69105">
        <ele>5.5</ele>
        <time>2020-06-18T17:58:32Z</time>
      </trkpt>
      <trkpt lat="50.33416" lon="1.69105">
        <ele>5.5</ele>
        <time>2020-06-18T17:58:33Z</time>
      </trkpt>
      <trkpt lat="50.33423" lon="1.69105">
        <ele>5.5</ele>
        <time>2020-06-18T17:58:34Z</time>
      </trkpt>
      <trkpt lat="50.3343" lon="1.69106">
        <ele>5.5</ele>
        <time>2020-06-18T17:58:35Z</time>
      </trkpt>
      <trkpt lat="50.33436" lon="1.69107">
        <ele>5.5</ele>
        <time>2020-06-18T17:58:36Z</time>
      </trkpt>
      <trkpt lat="50.33442" lon="1.69107">
        <ele>5.5</ele>
        <time>2020-06-18T17:58:37Z</time>
      </trkpt>
      <trkpt lat="50.33449" lon="1.69107">
        <ele>5.5</ele>
        <time>2020-06-18T17:58:38Z</time>
      </trkpt>
      <trkpt lat="50.33457" lon="1.69107">
        <ele>5.5</ele>
        <time>2020-06-18T17:58:39Z</time>
      </trkpt>
      <trkpt lat="50.33464" lon="1.69108">
        <ele>5.5</ele>
        <time>2020-06-18T17:58:40Z</time>
      </trkpt>
      <trkpt lat="50.3347" lon="1.69108">
        <ele>5.5</ele>
        <time>2020-06-18T17:58:41Z</time>
      </trkpt>
      <trkpt lat="50.33476" lon="1.69109">
        <ele>5.5</ele>
        <time>2020-06-18T17:58:42Z</time>
      </trkpt>
      <trkpt lat="50.33483" lon="1.69109">
        <ele>5.4</ele>
        <time>2020-06-18T17:58:43Z</time>
      </trkpt>
      <trkpt lat="50.33491" lon="1.69109">
        <ele>5.4</ele>
        <time>2020-06-18T17:58:44Z</time>
      </trkpt>
      <trkpt lat="50.33498" lon="1.69109">
        <ele>5.4</ele>
        <time>2020-06-18T17:58:45Z</time>
      </trkpt>
      <trkpt lat="50.33504" lon="1.69109">
        <ele>5.3</ele>
        <time>2020-06-18T17:58:46Z</time>
      </trkpt>
      <trkpt lat="50.3351" lon="1.69109">
        <ele>5.3</ele>
        <time>2020-06-18T17:58:47Z</time>
      </trkpt>
      <trkpt lat="50.33519" lon="1.69108">
        <ele>5.2</ele>
        <time>2020-06-18T17:58:48Z</time>
      </trkpt>
      <trkpt lat="50.33527" lon="1.69107">
        <ele>5.2</ele>
        <time>2020-06-18T17:58:49Z</time>
      </trkpt>
      <trkpt lat="50.33535" lon="1.69107">
        <ele>5.2</ele>
        <time>2020-06-18T17:58:50Z</time>
      </trkpt>
      <trkpt lat="50.33544" lon="1.69108">
        <ele>5.2</ele>
        <time>2020-06-18T17:58:51Z</time>
      </trkpt>
      <trkpt lat="50.33552" lon="1.69108">
        <ele>5.2</ele>
        <time>2020-06-18T17:58:52Z</time>
      </trkpt>
      <trkpt lat="50.33559" lon="1.69109">
        <ele>5.2</ele>
        <time>2020-06-18T17:58:53Z</time>
      </trkpt>
      <trkpt lat="50.33566" lon="1.69109">
        <ele>5.2</ele>
        <time>2020-06-18T17:58:54Z</time>
      </trkpt>
      <trkpt lat="50.33574" lon="1.69109">
        <ele>5.2</ele>
        <time>2020-06-18T17:58:55Z</time>
      </trkpt>
      <trkpt lat="50.33581" lon="1.69108">
        <ele>5.3</ele>
        <time>2020-06-18T17:58:56Z</time>
      </trkpt>
      <trkpt lat="50.3359" lon="1.69109">
        <ele>5.5</ele>
        <time>2020-06-18T17:58:57Z</time>
      </trkpt>
      <trkpt lat="50.33598" lon="1.6911">
        <ele>5.6</ele>
        <time>2020-06-18T17:58:58Z</time>
      </trkpt>
      <trkpt lat="50.33606" lon="1.6911">
        <ele>5.7</ele>
        <time>2020-06-18T17:58:59Z</time>
      </trkpt>
      <trkpt lat="50.33614" lon="1.69111">
        <ele>5.7</ele>
        <time>2020-06-18T17:59:00Z</time>
      </trkpt>
      <trkpt lat="50.33621" lon="1.69111">
        <ele>5.8</ele>
        <time>2020-06-18T17:59:01Z</time>
      </trkpt>
      <trkpt lat="50.33629" lon="1.69111">
        <ele>5.8</ele>
        <time>2020-06-18T17:59:02Z</time>
      </trkpt>
      <trkpt lat="50.33636" lon="1.6911">
        <ele>5.8</ele>
        <time>2020-06-18T17:59:03Z</time>
      </trkpt>
      <trkpt lat="50.33644" lon="1.69108">
        <ele>5.7</ele>
        <time>2020-06-18T17:59:04Z</time>
      </trkpt>
      <trkpt lat="50.33651" lon="1.69106">
        <ele>5.7</ele>
        <time>2020-06-18T17:59:05Z</time>
      </trkpt>
      <trkpt lat="50.33659" lon="1.69105">
        <ele>5.7</ele>
        <time>2020-06-18T17:59:06Z</time>
      </trkpt>
      <trkpt lat="50.33666" lon="1.69103">
        <ele>5.7</ele>
        <time>2020-06-18T17:59:07Z</time>
      </trkpt>
      <trkpt lat="50.33673" lon="1.69102">
        <ele>5.7</ele>
        <time>2020-06-18T17:59:08Z</time>
      </trkpt>
      <trkpt lat="50.3368" lon="1.69099">
        <ele>5.7</ele>
        <time>2020-06-18T17:59:09Z</time>
      </trkpt>
      <trkpt lat="50.33687" lon="1.69096">
        <ele>5.7</ele>
        <time>2020-06-18T17:59:10Z</time>
      </trkpt>
      <trkpt lat="50.33694" lon="1.69093">
        <ele>5.7</ele>
        <time>2020-06-18T17:59:11Z</time>
      </trkpt>
      <trkpt lat="50.33701" lon="1.6909">
        <ele>5.7</ele>
        <time>2020-06-18T17:59:12Z</time>
      </trkpt>
      <trkpt lat="50.33708" lon="1.69087">
        <ele>5.7</ele>
        <time>2020-06-18T17:59:13Z</time>
      </trkpt>
      <trkpt lat="50.33715" lon="1.69084">
        <ele>5.8</ele>
        <time>2020-06-18T17:59:14Z</time>
      </trkpt>
      <trkpt lat="50.33722" lon="1.69082">
        <ele>5.8</ele>
        <time>2020-06-18T17:59:15Z</time>
      </trkpt>
      <trkpt lat="50.33729" lon="1.69079">
        <ele>5.7</ele>
        <time>2020-06-18T17:59:16Z</time>
      </trkpt>
      <trkpt lat="50.33736" lon="1.69076">
        <ele>5.7</ele>
        <time>2020-06-18T17:59:17Z</time>
      </trkpt>
      <trkpt lat="50.33743" lon="1.69072">
        <ele>5.6</ele>
        <time>2020-06-18T17:59:18Z</time>
      </trkpt>
      <trkpt lat="50.3375" lon="1.69068">
        <ele>5.6</ele>
        <time>2020-06-18T17:59:19Z</time>
      </trkpt>
      <trkpt lat="50.33757" lon="1.69064">
        <ele>5.6</ele>
        <time>2020-06-18T17:59:20Z</time>
      </trkpt>
      <trkpt lat="50.33764" lon="1.69061">
        <ele>5.6</ele>
        <time>2020-06-18T17:59:21Z</time>
      </trkpt>
      <trkpt lat="50.33771" lon="1.69057">
        <ele>5.6</ele>
        <time>2020-06-18T17:59:22Z</time>
      </trkpt>
      <trkpt lat="50.33778" lon="1.69054">
        <ele>5.6</ele>
        <time>2020-06-18T17:59:23Z</time>
      </trkpt>
      <trkpt lat="50.33786" lon="1.69051">
        <ele>5.6</ele>
        <time>2020-06-18T17:59:24Z</time>
      </trkpt>
      <trkpt lat="50.33793" lon="1.69047">
        <ele>5.6</ele>
        <time>2020-06-18T17:59:25Z</time>
      </trkpt>
      <trkpt lat="50.338" lon="1.69045">
        <ele>5.6</ele>
        <time>2020-06-18T17:59:26Z</time>
      </trkpt>
      <trkpt lat="50.33807" lon="1.69042">
        <ele>5.6</ele>
        <time>2020-06-18T17:59:27Z</time>
      </trkpt>
      <trkpt lat="50.33815" lon="1.69039">
        <ele>5.6</ele>
        <time>2020-06-18T17:59:28Z</time>
      </trkpt>
      <trkpt lat="50.33822" lon="1.69036">
        <ele>5.6</ele>
        <time>2020-06-18T17:59:29Z</time>
      </trkpt>
      <trkpt lat="50.33829" lon="1.69034">
        <ele>5.6</ele>
        <time>2020-06-18T17:59:30Z</time>
      </trkpt>
      <trkpt lat="50.33836" lon="1.69032">
        <ele>5.6</ele>
        <time>2020-06-18T17:59:31Z</time>
      </trkpt>
      <trkpt lat="50.33842" lon="1.69029">
        <ele>5.6</ele>
        <time>2020-06-18T17:59:32Z</time>
      </trkpt>
      <trkpt lat="50.33849" lon="1.69027">
        <ele>5.6</ele>
        <time>2020-06-18T17:59:33Z</time>
      </trkpt>
      <trkpt lat="50.33856" lon="1.69024">
        <ele>5.6</ele>
        <time>2020-06-18T17:59:34Z</time>
      </trkpt>
      <trkpt lat="50.33863" lon="1.69023">
        <ele>5.5</ele>
        <time>2020-06-18T17:59:35Z</time>
      </trkpt>
      <trkpt lat="50.3387" lon="1.6902">
        <ele>5.5</ele>
        <time>2020-06-18T17:59:36Z</time>
      </trkpt>
      <trkpt lat="50.33877" lon="1.69018">
        <ele>5.4</ele>
        <time>2020-06-18T17:59:37Z</time>
      </trkpt>
      <trkpt lat="50.33884" lon="1.69016">
        <ele>5.3</ele>
        <time>2020-06-18T17:59:38Z</time>
      </trkpt>
      <trkpt lat="50.33892" lon="1.69013">
        <ele>5.2</ele>
        <time>2020-06-18T17:59:39Z</time>
      </trkpt>
      <trkpt lat="50.33899" lon="1.6901">
        <ele>5.2</ele>
        <time>2020-06-18T17:59:40Z</time>
      </trkpt>
      <trkpt lat="50.33906" lon="1.69006">
        <ele>5.1</ele>
        <time>2020-06-18T17:59:41Z</time>
      </trkpt>
      <trkpt lat="50.33913" lon="1.69001">
        <ele>5</ele>
        <time>2020-06-18T17:59:42Z</time>
      </trkpt>
      <trkpt lat="50.33919" lon="1.68996">
        <ele>4.9</ele>
        <time>2020-06-18T17:59:43Z</time>
      </trkpt>
      <trkpt lat="50.33925" lon="1.68989">
        <ele>4.8</ele>
        <time>2020-06-18T17:59:44Z</time>
      </trkpt>
      <trkpt lat="50.3393" lon="1.68981">
        <ele>4.8</ele>
        <time>2020-06-18T17:59:45Z</time>
      </trkpt>
      <trkpt lat="50.33935" lon="1.68975">
        <ele>4.7</ele>
        <time>2020-06-18T17:59:46Z</time>
      </trkpt>
      <trkpt lat="50.33939" lon="1.68969">
        <ele>4.7</ele>
        <time>2020-06-18T17:59:47Z</time>
      </trkpt>
      <trkpt lat="50.33943" lon="1.68965">
        <ele>4.6</ele>
        <time>2020-06-18T17:59:48Z</time>
      </trkpt>
      <trkpt lat="50.33946" lon="1.68963">
        <ele>4.6</ele>
        <time>2020-06-18T17:59:49Z</time>
      </trkpt>
      <trkpt lat="50.33948" lon="1.68961">
        <ele>4.6</ele>
        <time>2020-06-18T17:59:50Z</time>
      </trkpt>
      <trkpt lat="50.33949" lon="1.6896">
        <ele>4.6</ele>
        <time>2020-06-18T17:59:51Z</time>
      </trkpt>
      <trkpt lat="50.33951" lon="1.68958">
        <ele>4.6</ele>
        <time>2020-06-18T17:59:52Z</time>
      </trkpt>
      <trkpt lat="50.33951" lon="1.68957">
        <ele>4.6</ele>
        <time>2020-06-18T17:59:53Z</time>
      </trkpt>
      <trkpt lat="50.33952" lon="1.68956">
        <ele>4.6</ele>
        <time>2020-06-18T17:59:54Z</time>
      </trkpt>
      <trkpt lat="50.33955" lon="1.68954">
        <ele>4.5</ele>
        <time>2020-06-18T17:59:55Z</time>
      </trkpt>
      <trkpt lat="50.33956" lon="1.68953">
        <ele>4.5</ele>
        <time>2020-06-18T17:59:56Z</time>
      </trkpt>
      <trkpt lat="50.33957" lon="1.68948">
        <ele>4.4</ele>
        <time>2020-06-18T17:59:57Z</time>
      </trkpt>
      <trkpt lat="50.33957" lon="1.68946">
        <ele>4.4</ele>
        <time>2020-06-18T17:59:58Z</time>
      </trkpt>
      <trkpt lat="50.33958" lon="1.68941">
        <ele>4.3</ele>
        <time>2020-06-18T17:59:59Z</time>
      </trkpt>
      <trkpt lat="50.3396" lon="1.68938">
        <ele>4.3</ele>
        <time>2020-06-18T18:00:00Z</time>
      </trkpt>
      <trkpt lat="50.33962" lon="1.68935">
        <ele>4.2</ele>
        <time>2020-06-18T18:00:01Z</time>
      </trkpt>
      <trkpt lat="50.33964" lon="1.68931">
        <ele>4.2</ele>
        <time>2020-06-18T18:00:02Z</time>
      </trkpt>
      <trkpt lat="50.33966" lon="1.68928">
        <ele>4.2</ele>
        <time>2020-06-18T18:00:03Z</time>
      </trkpt>
      <trkpt lat="50.33968" lon="1.68924">
        <ele>4.1</ele>
        <time>2020-06-18T18:00:04Z</time>
      </trkpt>
      <trkpt lat="50.3397" lon="1.6892">
        <ele>4.1</ele>
        <time>2020-06-18T18:00:05Z</time>
      </trkpt>
      <trkpt lat="50.33973" lon="1.68916">
        <ele>4.1</ele>
        <time>2020-06-18T18:00:06Z</time>
      </trkpt>
      <trkpt lat="50.33975" lon="1.68912">
        <ele>4.1</ele>
        <time>2020-06-18T18:00:07Z</time>
      </trkpt>
      <trkpt lat="50.33978" lon="1.68908">
        <ele>4.1</ele>
        <time>2020-06-18T18:00:08Z</time>
      </trkpt>
      <trkpt lat="50.33981" lon="1.68904">
        <ele>4.1</ele>
        <time>2020-06-18T18:00:09Z</time>
      </trkpt>
      <trkpt lat="50.33984" lon="1.68899">
        <ele>4.1</ele>
        <time>2020-06-18T18:00:10Z</time>
      </trkpt>
      <trkpt lat="50.33987" lon="1.68895">
        <ele>4.1</ele>
        <time>2020-06-18T18:00:11Z</time>
      </trkpt>
      <trkpt lat="50.3399" lon="1.68891">
        <ele>4.1</ele>
        <time>2020-06-18T18:00:12Z</time>
      </trkpt>
      <trkpt lat="50.33993" lon="1.68887">
        <ele>4.1</ele>
        <time>2020-06-18T18:00:13Z</time>
      </trkpt>
      <trkpt lat="50.33996" lon="1.68884">
        <ele>4.1</ele>
        <time>2020-06-18T18:00:14Z</time>
      </trkpt>
      <trkpt lat="50.34" lon="1.68883">
        <ele>4.1</ele>
        <time>2020-06-18T18:00:15Z</time>
      </trkpt>
      <trkpt lat="50.34003" lon="1.68881">
        <ele>4.1</ele>
        <time>2020-06-18T18:00:16Z</time>
      </trkpt>
      <trkpt lat="50.34007" lon="1.68879">
        <ele>4.1</ele>
        <time>2020-06-18T18:00:17Z</time>
      </trkpt>
      <trkpt lat="50.3401" lon="1.68876">
        <ele>4.1</ele>
        <time>2020-06-18T18:00:18Z</time>
      </trkpt>
      <trkpt lat="50.34014" lon="1.68872">
        <ele>4.1</ele>
        <time>2020-06-18T18:00:19Z</time>
      </trkpt>
      <trkpt lat="50.34018" lon="1.68868">
        <ele>4</ele>
        <time>2020-06-18T18:00:20Z</time>
      </trkpt>
      <trkpt lat="50.34022" lon="1.68863">
        <ele>4</ele>
        <time>2020-06-18T18:00:21Z</time>
      </trkpt>
      <trkpt lat="50.34026" lon="1.68858">
        <ele>4</ele>
        <time>2020-06-18T18:00:22Z</time>
      </trkpt>
      <trkpt lat="50.34031" lon="1.68853">
        <ele>4</ele>
        <time>2020-06-18T18:00:23Z</time>
      </trkpt>
      <trkpt lat="50.34035" lon="1.68847">
        <ele>4</ele>
        <time>2020-06-18T18:00:24Z</time>
      </trkpt>
      <trkpt lat="50.3404" lon="1.68841">
        <ele>4</ele>
        <time>2020-06-18T18:00:25Z</time>
      </trkpt>
      <trkpt lat="50.34045" lon="1.68837">
        <ele>4</ele>
        <time>2020-06-18T18:00:26Z</time>
      </trkpt>
      <trkpt lat="50.34051" lon="1.68834">
        <ele>4</ele>
        <time>2020-06-18T18:00:27Z</time>
      </trkpt>
      <trkpt lat="50.34057" lon="1.68831">
        <ele>4</ele>
        <time>2020-06-18T18:00:28Z</time>
      </trkpt>
      <trkpt lat="50.34062" lon="1.68827">
        <ele>4</ele>
        <time>2020-06-18T18:00:29Z</time>
      </trkpt>
      <trkpt lat="50.34067" lon="1.68822">
        <ele>4</ele>
        <time>2020-06-18T18:00:30Z</time>
      </trkpt>
      <trkpt lat="50.34072" lon="1.68817">
        <ele>4</ele>
        <time>2020-06-18T18:00:31Z</time>
      </trkpt>
      <trkpt lat="50.34077" lon="1.68812">
        <ele>4.1</ele>
        <time>2020-06-18T18:00:32Z</time>
      </trkpt>
      <trkpt lat="50.34082" lon="1.68807">
        <ele>4.1</ele>
        <time>2020-06-18T18:00:33Z</time>
      </trkpt>
      <trkpt lat="50.34087" lon="1.68802">
        <ele>4.2</ele>
        <time>2020-06-18T18:00:34Z</time>
      </trkpt>
      <trkpt lat="50.34091" lon="1.68797">
        <ele>4.2</ele>
        <time>2020-06-18T18:00:35Z</time>
      </trkpt>
      <trkpt lat="50.34096" lon="1.6879">
        <ele>4.3</ele>
        <time>2020-06-18T18:00:36Z</time>
      </trkpt>
      <trkpt lat="50.34101" lon="1.68785">
        <ele>4.4</ele>
        <time>2020-06-18T18:00:37Z</time>
      </trkpt>
      <trkpt lat="50.34104" lon="1.6878">
        <ele>4.4</ele>
        <time>2020-06-18T18:00:38Z</time>
      </trkpt>
      <trkpt lat="50.34109" lon="1.68775">
        <ele>4.5</ele>
        <time>2020-06-18T18:00:39Z</time>
      </trkpt>
      <trkpt lat="50.34114" lon="1.68769">
        <ele>4.6</ele>
        <time>2020-06-18T18:00:40Z</time>
      </trkpt>
      <trkpt lat="50.34118" lon="1.68764">
        <ele>4.7</ele>
        <time>2020-06-18T18:00:41Z</time>
      </trkpt>
      <trkpt lat="50.34122" lon="1.68759">
        <ele>4.8</ele>
        <time>2020-06-18T18:00:42Z</time>
      </trkpt>
      <trkpt lat="50.34126" lon="1.68752">
        <ele>4.9</ele>
        <time>2020-06-18T18:00:43Z</time>
      </trkpt>
      <trkpt lat="50.34129" lon="1.68747">
        <ele>5</ele>
        <time>2020-06-18T18:00:44Z</time>
      </trkpt>
      <trkpt lat="50.34132" lon="1.68742">
        <ele>5.1</ele>
        <time>2020-06-18T18:00:45Z</time>
      </trkpt>
      <trkpt lat="50.34136" lon="1.68736">
        <ele>5.2</ele>
        <time>2020-06-18T18:00:46Z</time>
      </trkpt>
      <trkpt lat="50.3414" lon="1.68732">
        <ele>5.4</ele>
        <time>2020-06-18T18:00:47Z</time>
      </trkpt>
      <trkpt lat="50.34143" lon="1.68726">
        <ele>5.5</ele>
        <time>2020-06-18T18:00:48Z</time>
      </trkpt>
      <trkpt lat="50.34147" lon="1.6872">
        <ele>5.6</ele>
        <time>2020-06-18T18:00:49Z</time>
      </trkpt>
      <trkpt lat="50.34151" lon="1.68714">
        <ele>5.8</ele>
        <time>2020-06-18T18:00:50Z</time>
      </trkpt>
      <trkpt lat="50.34154" lon="1.68707">
        <ele>6</ele>
        <time>2020-06-18T18:00:51Z</time>
      </trkpt>
      <trkpt lat="50.34157" lon="1.68702">
        <ele>6.2</ele>
        <time>2020-06-18T18:00:52Z</time>
      </trkpt>
      <trkpt lat="50.34159" lon="1.68698">
        <ele>6.3</ele>
        <time>2020-06-18T18:00:53Z</time>
      </trkpt>
      <trkpt lat="50.34162" lon="1.68693">
        <ele>6.5</ele>
        <time>2020-06-18T18:00:54Z</time>
      </trkpt>
      <trkpt lat="50.34165" lon="1.68689">
        <ele>6.7</ele>
        <time>2020-06-18T18:00:55Z</time>
      </trkpt>
      <trkpt lat="50.34167" lon="1.68685">
        <ele>6.8</ele>
        <time>2020-06-18T18:00:56Z</time>
      </trkpt>
      <trkpt lat="50.3417" lon="1.68681">
        <ele>7</ele>
        <time>2020-06-18T18:00:57Z</time>
      </trkpt>
      <trkpt lat="50.34173" lon="1.68677">
        <ele>7.2</ele>
        <time>2020-06-18T18:00:58Z</time>
      </trkpt>
      <trkpt lat="50.34175" lon="1.68674">
        <ele>7.4</ele>
        <time>2020-06-18T18:00:59Z</time>
      </trkpt>
      <trkpt lat="50.34178" lon="1.6867">
        <ele>7.6</ele>
        <time>2020-06-18T18:01:00Z</time>
      </trkpt>
      <trkpt lat="50.34181" lon="1.68667">
        <ele>7.8</ele>
        <time>2020-06-18T18:01:01Z</time>
      </trkpt>
      <trkpt lat="50.34182" lon="1.68661">
        <ele>8</ele>
        <time>2020-06-18T18:01:02Z</time>
      </trkpt>
      <trkpt lat="50.34182" lon="1.6866">
        <ele>8.1</ele>
        <time>2020-06-18T18:01:03Z</time>
      </trkpt>
      <trkpt lat="50.34183" lon="1.68657">
        <ele>8.3</ele>
        <time>2020-06-18T18:01:04Z</time>
      </trkpt>
      <trkpt lat="50.34184" lon="1.68655">
        <ele>8.3</ele>
        <time>2020-06-18T18:01:05Z</time>
      </trkpt>
      <trkpt lat="50.34184" lon="1.68654">
        <ele>8.4</ele>
        <time>2020-06-18T18:01:06Z</time>
      </trkpt>
      <trkpt lat="50.34185" lon="1.68653">
        <ele>8.5</ele>
        <time>2020-06-18T18:01:07Z</time>
      </trkpt>
      <trkpt lat="50.34186" lon="1.68652">
        <ele>8.6</ele>
        <time>2020-06-18T18:01:08Z</time>
      </trkpt>
      <trkpt lat="50.34189" lon="1.68649">
        <ele>8.8</ele>
        <time>2020-06-18T18:01:09Z</time>
      </trkpt>
      <trkpt lat="50.34189" lon="1.68647">
        <ele>8.9</ele>
        <time>2020-06-18T18:01:10Z</time>
      </trkpt>
      <trkpt lat="50.34193" lon="1.68647">
        <ele>9.2</ele>
        <time>2020-06-18T18:01:11Z</time>
      </trkpt>
      <trkpt lat="50.34197" lon="1.68645">
        <ele>9.5</ele>
        <time>2020-06-18T18:01:12Z</time>
      </trkpt>
      <trkpt lat="50.34198" lon="1.68643">
        <ele>9.7</ele>
        <time>2020-06-18T18:01:13Z</time>
      </trkpt>
      <trkpt lat="50.342" lon="1.6864">
        <ele>9.9</ele>
        <time>2020-06-18T18:01:14Z</time>
      </trkpt>
      <trkpt lat="50.34203" lon="1.68636">
        <ele>10.2</ele>
        <time>2020-06-18T18:01:15Z</time>
      </trkpt>
      <trkpt lat="50.34204" lon="1.68634">
        <ele>10.4</ele>
        <time>2020-06-18T18:01:16Z</time>
      </trkpt>
      <trkpt lat="50.34206" lon="1.68628">
        <ele>10.7</ele>
        <time>2020-06-18T18:01:17Z</time>
      </trkpt>
      <trkpt lat="50.34207" lon="1.68626">
        <ele>10.9</ele>
        <time>2020-06-18T18:01:18Z</time>
      </trkpt>
      <trkpt lat="50.34208" lon="1.68621">
        <ele>11.2</ele>
        <time>2020-06-18T18:01:19Z</time>
      </trkpt>
      <trkpt lat="50.34209" lon="1.68619">
        <ele>11.3</ele>
        <time>2020-06-18T18:01:20Z</time>
      </trkpt>
      <trkpt lat="50.3421" lon="1.68613">
        <ele>11.7</ele>
        <time>2020-06-18T18:01:21Z</time>
      </trkpt>
      <trkpt lat="50.34211" lon="1.6861">
        <ele>11.7</ele>
        <time>2020-06-18T18:01:22Z</time>
      </trkpt>
      <trkpt lat="50.3421" lon="1.68608">
        <ele>11.8</ele>
        <time>2020-06-18T18:01:23Z</time>
      </trkpt>
      <trkpt lat="50.34209" lon="1.68607">
        <ele>11.8</ele>
        <time>2020-06-18T18:01:24Z</time>
      </trkpt>
      <trkpt lat="50.34209" lon="1.68606">
        <ele>11.9</ele>
        <time>2020-06-18T18:01:25Z</time>
      </trkpt>
      <trkpt lat="50.34208" lon="1.68604">
        <ele>11.9</ele>
        <time>2020-06-18T18:01:26Z</time>
      </trkpt>
      <trkpt lat="50.34208" lon="1.68601">
        <ele>12</ele>
        <time>2020-06-18T18:01:27Z</time>
      </trkpt>
      <trkpt lat="50.34206" lon="1.68595">
        <ele>12.2</ele>
        <time>2020-06-18T18:01:28Z</time>
      </trkpt>
      <trkpt lat="50.34205" lon="1.68593">
        <ele>12.3</ele>
        <time>2020-06-18T18:01:29Z</time>
      </trkpt>
      <trkpt lat="50.34203" lon="1.68588">
        <ele>12.4</ele>
        <time>2020-06-18T18:01:30Z</time>
      </trkpt>
      <trkpt lat="50.34202" lon="1.68587">
        <ele>12.5</ele>
        <time>2020-06-18T18:01:31Z</time>
      </trkpt>
      <trkpt lat="50.34201" lon="1.68581">
        <ele>12.6</ele>
        <time>2020-06-18T18:01:32Z</time>
      </trkpt>
      <trkpt lat="50.34201" lon="1.68579">
        <ele>12.6</ele>
        <time>2020-06-18T18:01:33Z</time>
      </trkpt>
      <trkpt lat="50.342" lon="1.68577">
        <ele>12.7</ele>
        <time>2020-06-18T18:01:34Z</time>
      </trkpt>
      <trkpt lat="50.342" lon="1.68574">
        <ele>12.8</ele>
        <time>2020-06-18T18:01:35Z</time>
      </trkpt>
      <trkpt lat="50.34201" lon="1.68571">
        <ele>13</ele>
        <time>2020-06-18T18:01:36Z</time>
      </trkpt>
      <trkpt lat="50.34201" lon="1.6857">
        <ele>13</ele>
        <time>2020-06-18T18:01:37Z</time>
      </trkpt>
      <trkpt lat="50.34202" lon="1.68569">
        <ele>13.1</ele>
        <time>2020-06-18T18:01:38Z</time>
      </trkpt>
      <trkpt lat="50.34203" lon="1.68568">
        <ele>13.2</ele>
        <time>2020-06-18T18:01:39Z</time>
      </trkpt>
      <trkpt lat="50.34203" lon="1.68568">
        <ele>13.2</ele>
        <time>2020-06-18T18:01:40Z</time>
      </trkpt>
      <trkpt lat="50.34203" lon="1.68567">
        <ele>13.3</ele>
        <time>2020-06-18T18:01:41Z</time>
      </trkpt>
      <trkpt lat="50.34204" lon="1.68564">
        <ele>13.4</ele>
        <time>2020-06-18T18:01:42Z</time>
      </trkpt>
      <trkpt lat="50.34204" lon="1.68563">
        <ele>13.4</ele>
        <time>2020-06-18T18:01:43Z</time>
      </trkpt>
      <trkpt lat="50.34204" lon="1.68563">
        <ele>13.4</ele>
        <time>2020-06-18T18:01:44Z</time>
      </trkpt>
      <trkpt lat="50.34204" lon="1.68563">
        <ele>13.5</ele>
        <time>2020-06-18T18:01:45Z</time>
      </trkpt>
      <trkpt lat="50.34203" lon="1.68563">
        <ele>13.5</ele>
        <time>2020-06-18T18:01:46Z</time>
      </trkpt>
      <trkpt lat="50.34203" lon="1.68563">
        <ele>13.5</ele>
        <time>2020-06-18T18:01:47Z</time>
      </trkpt>
      <trkpt lat="50.34203" lon="1.68563">
        <ele>13.5</ele>
        <time>2020-06-18T18:01:48Z</time>
      </trkpt>
      <trkpt lat="50.34203" lon="1.68562">
        <ele>13.6</ele>
        <time>2020-06-18T18:01:49Z</time>
      </trkpt>
      <trkpt lat="50.34203" lon="1.68562">
        <ele>13.6</ele>
        <time>2020-06-18T18:01:50Z</time>
      </trkpt>
      <trkpt lat="50.34202" lon="1.68562">
        <ele>13.6</ele>
        <time>2020-06-18T18:01:51Z</time>
      </trkpt>
      <trkpt lat="50.34202" lon="1.68563">
        <ele>13.6</ele>
        <time>2020-06-18T18:01:52Z</time>
      </trkpt>
      <trkpt lat="50.34202" lon="1.68564">
        <ele>13.7</ele>
        <time>2020-06-18T18:01:53Z</time>
      </trkpt>
      <trkpt lat="50.34206" lon="1.68556">
        <ele>14.1</ele>
        <time>2020-06-18T18:02:00Z</time>
      </trkpt>
      <trkpt lat="50.34207" lon="1.68553">
        <ele>14.2</ele>
        <time>2020-06-18T18:02:01Z</time>
      </trkpt>
      <trkpt lat="50.34209" lon="1.68549">
        <ele>14.5</ele>
        <time>2020-06-18T18:02:02Z</time>
      </trkpt>
      <trkpt lat="50.34209" lon="1.68548">
        <ele>14.5</ele>
        <time>2020-06-18T18:02:03Z</time>
      </trkpt>
      <trkpt lat="50.34211" lon="1.68544">
        <ele>14.8</ele>
        <time>2020-06-18T18:02:04Z</time>
      </trkpt>
      <trkpt lat="50.34212" lon="1.68542">
        <ele>14.8</ele>
        <time>2020-06-18T18:02:05Z</time>
      </trkpt>
      <trkpt lat="50.34214" lon="1.68537">
        <ele>15.1</ele>
        <time>2020-06-18T18:02:06Z</time>
      </trkpt>
      <trkpt lat="50.34215" lon="1.68535">
        <ele>15.2</ele>
        <time>2020-06-18T18:02:07Z</time>
      </trkpt>
      <trkpt lat="50.34216" lon="1.68531">
        <ele>15.4</ele>
        <time>2020-06-18T18:02:08Z</time>
      </trkpt>
      <trkpt lat="50.34217" lon="1.68527">
        <ele>15.6</ele>
        <time>2020-06-18T18:02:09Z</time>
      </trkpt>
      <trkpt lat="50.34219" lon="1.68523">
        <ele>15.8</ele>
        <time>2020-06-18T18:02:10Z</time>
      </trkpt>
      <trkpt lat="50.34221" lon="1.68519">
        <ele>16.1</ele>
        <time>2020-06-18T18:02:11Z</time>
      </trkpt>
      <trkpt lat="50.34223" lon="1.68513">
        <ele>16.4</ele>
        <time>2020-06-18T18:02:12Z</time>
      </trkpt>
      <trkpt lat="50.34224" lon="1.6851">
        <ele>16.5</ele>
        <time>2020-06-18T18:02:13Z</time>
      </trkpt>
      <trkpt lat="50.34225" lon="1.68506">
        <ele>16.7</ele>
        <time>2020-06-18T18:02:14Z</time>
      </trkpt>
      <trkpt lat="50.34227" lon="1.68502">
        <ele>17</ele>
        <time>2020-06-18T18:02:15Z</time>
      </trkpt>
      <trkpt lat="50.34228" lon="1.68498">
        <ele>17.2</ele>
        <time>2020-06-18T18:02:16Z</time>
      </trkpt>
      <trkpt lat="50.3423" lon="1.68493">
        <ele>17.5</ele>
        <time>2020-06-18T18:02:17Z</time>
      </trkpt>
      <trkpt lat="50.34232" lon="1.6849">
        <ele>17.7</ele>
        <time>2020-06-18T18:02:18Z</time>
      </trkpt>
      <trkpt lat="50.34235" lon="1.68486">
        <ele>17.9</ele>
        <time>2020-06-18T18:02:19Z</time>
      </trkpt>
      <trkpt lat="50.34237" lon="1.68483">
        <ele>18.1</ele>
        <time>2020-06-18T18:02:20Z</time>
      </trkpt>
      <trkpt lat="50.34239" lon="1.68479">
        <ele>18.8</ele>
        <time>2020-06-18T18:02:21Z</time>
      </trkpt>
      <trkpt lat="50.3424" lon="1.68474">
        <ele>19.2</ele>
        <time>2020-06-18T18:02:22Z</time>
      </trkpt>
      <trkpt lat="50.34242" lon="1.6847">
        <ele>19.5</ele>
        <time>2020-06-18T18:02:23Z</time>
      </trkpt>
      <trkpt lat="50.34245" lon="1.68467">
        <ele>19.8</ele>
        <time>2020-06-18T18:02:24Z</time>
      </trkpt>
      <trkpt lat="50.34247" lon="1.68463">
        <ele>20.1</ele>
        <time>2020-06-18T18:02:25Z</time>
      </trkpt>
      <trkpt lat="50.34249" lon="1.6846">
        <ele>20.3</ele>
        <time>2020-06-18T18:02:26Z</time>
      </trkpt>
      <trkpt lat="50.34251" lon="1.68456">
        <ele>20.5</ele>
        <time>2020-06-18T18:02:27Z</time>
      </trkpt>
      <trkpt lat="50.34253" lon="1.68453">
        <ele>20.7</ele>
        <time>2020-06-18T18:02:28Z</time>
      </trkpt>
      <trkpt lat="50.34256" lon="1.6845">
        <ele>20.9</ele>
        <time>2020-06-18T18:02:29Z</time>
      </trkpt>
      <trkpt lat="50.34257" lon="1.68446">
        <ele>21.1</ele>
        <time>2020-06-18T18:02:30Z</time>
      </trkpt>
      <trkpt lat="50.34259" lon="1.6844">
        <ele>21.4</ele>
        <time>2020-06-18T18:02:31Z</time>
      </trkpt>
      <trkpt lat="50.3426" lon="1.68438">
        <ele>21.5</ele>
        <time>2020-06-18T18:02:32Z</time>
      </trkpt>
      <trkpt lat="50.34262" lon="1.68434">
        <ele>21.7</ele>
        <time>2020-06-18T18:02:33Z</time>
      </trkpt>
      <trkpt lat="50.34264" lon="1.6843">
        <ele>22</ele>
        <time>2020-06-18T18:02:34Z</time>
      </trkpt>
      <trkpt lat="50.34266" lon="1.68425">
        <ele>22.2</ele>
        <time>2020-06-18T18:02:35Z</time>
      </trkpt>
      <trkpt lat="50.34267" lon="1.6842">
        <ele>22.4</ele>
        <time>2020-06-18T18:02:36Z</time>
      </trkpt>
      <trkpt lat="50.34268" lon="1.68418">
        <ele>22.5</ele>
        <time>2020-06-18T18:02:37Z</time>
      </trkpt>
      <trkpt lat="50.3427" lon="1.68412">
        <ele>22.8</ele>
        <time>2020-06-18T18:02:38Z</time>
      </trkpt>
      <trkpt lat="50.3427" lon="1.68409">
        <ele>22.9</ele>
        <time>2020-06-18T18:02:39Z</time>
      </trkpt>
      <trkpt lat="50.34272" lon="1.68405">
        <ele>23.1</ele>
        <time>2020-06-18T18:02:40Z</time>
      </trkpt>
      <trkpt lat="50.34273" lon="1.684">
        <ele>23.3</ele>
        <time>2020-06-18T18:02:41Z</time>
      </trkpt>
      <trkpt lat="50.34274" lon="1.68395">
        <ele>23.5</ele>
        <time>2020-06-18T18:02:42Z</time>
      </trkpt>
      <trkpt lat="50.34275" lon="1.68391">
        <ele>23.6</ele>
        <time>2020-06-18T18:02:43Z</time>
      </trkpt>
      <trkpt lat="50.34276" lon="1.68386">
        <ele>23.8</ele>
        <time>2020-06-18T18:02:44Z</time>
      </trkpt>
      <trkpt lat="50.34276" lon="1.6838">
        <ele>24.1</ele>
        <time>2020-06-18T18:02:45Z</time>
      </trkpt>
      <trkpt lat="50.34277" lon="1.68377">
        <ele>24.2</ele>
        <time>2020-06-18T18:02:46Z</time>
      </trkpt>
      <trkpt lat="50.34277" lon="1.68373">
        <ele>24.4</ele>
        <time>2020-06-18T18:02:47Z</time>
      </trkpt>
      <trkpt lat="50.34277" lon="1.68367">
        <ele>24.6</ele>
        <time>2020-06-18T18:02:48Z</time>
      </trkpt>
      <trkpt lat="50.34278" lon="1.68362">
        <ele>24.7</ele>
        <time>2020-06-18T18:02:49Z</time>
      </trkpt>
      <trkpt lat="50.34278" lon="1.68357">
        <ele>24.9</ele>
        <time>2020-06-18T18:02:50Z</time>
      </trkpt>
      <trkpt lat="50.34279" lon="1.68352">
        <ele>25.1</ele>
        <time>2020-06-18T18:02:51Z</time>
      </trkpt>
      <trkpt lat="50.3428" lon="1.68347">
        <ele>25.3</ele>
        <time>2020-06-18T18:02:52Z</time>
      </trkpt>
      <trkpt lat="50.3428" lon="1.68342">
        <ele>25.5</ele>
        <time>2020-06-18T18:02:53Z</time>
      </trkpt>
      <trkpt lat="50.34281" lon="1.68338">
        <ele>25.6</ele>
        <time>2020-06-18T18:02:54Z</time>
      </trkpt>
      <trkpt lat="50.34282" lon="1.68332">
        <ele>25.8</ele>
        <time>2020-06-18T18:02:55Z</time>
      </trkpt>
      <trkpt lat="50.34281" lon="1.68328">
        <ele>26</ele>
        <time>2020-06-18T18:02:56Z</time>
      </trkpt>
      <trkpt lat="50.34283" lon="1.68322">
        <ele>26.1</ele>
        <time>2020-06-18T18:02:57Z</time>
      </trkpt>
      <trkpt lat="50.34283" lon="1.6832">
        <ele>26.2</ele>
        <time>2020-06-18T18:02:58Z</time>
      </trkpt>
      <trkpt lat="50.34284" lon="1.68315">
        <ele>26.4</ele>
        <time>2020-06-18T18:02:59Z</time>
      </trkpt>
      <trkpt lat="50.34285" lon="1.68311">
        <ele>26.5</ele>
        <time>2020-06-18T18:03:00Z</time>
      </trkpt>
      <trkpt lat="50.34285" lon="1.68306">
        <ele>26.6</ele>
        <time>2020-06-18T18:03:01Z</time>
      </trkpt>
      <trkpt lat="50.34286" lon="1.68302">
        <ele>26.8</ele>
        <time>2020-06-18T18:03:02Z</time>
      </trkpt>
      <trkpt lat="50.34286" lon="1.68297">
        <ele>26.9</ele>
        <time>2020-06-18T18:03:03Z</time>
      </trkpt>
      <trkpt lat="50.34286" lon="1.68293">
        <ele>27.1</ele>
        <time>2020-06-18T18:03:04Z</time>
      </trkpt>
      <trkpt lat="50.34287" lon="1.68288">
        <ele>27.2</ele>
        <time>2020-06-18T18:03:05Z</time>
      </trkpt>
      <trkpt lat="50.34289" lon="1.68282">
        <ele>27.4</ele>
        <time>2020-06-18T18:03:06Z</time>
      </trkpt>
      <trkpt lat="50.34289" lon="1.68279">
        <ele>27.5</ele>
        <time>2020-06-18T18:03:07Z</time>
      </trkpt>
      <trkpt lat="50.34288" lon="1.68273">
        <ele>27.7</ele>
        <time>2020-06-18T18:03:08Z</time>
      </trkpt>
      <trkpt lat="50.34288" lon="1.68267">
        <ele>27.9</ele>
        <time>2020-06-18T18:03:09Z</time>
      </trkpt>
      <trkpt lat="50.34288" lon="1.68261">
        <ele>28.1</ele>
        <time>2020-06-18T18:03:10Z</time>
      </trkpt>
      <trkpt lat="50.3429" lon="1.68257">
        <ele>28.2</ele>
        <time>2020-06-18T18:03:11Z</time>
      </trkpt>
      <trkpt lat="50.34291" lon="1.68252">
        <ele>28.3</ele>
        <time>2020-06-18T18:03:12Z</time>
      </trkpt>
      <trkpt lat="50.34292" lon="1.68247">
        <ele>28.4</ele>
        <time>2020-06-18T18:03:13Z</time>
      </trkpt>
      <trkpt lat="50.34293" lon="1.68242">
        <ele>28.6</ele>
        <time>2020-06-18T18:03:14Z</time>
      </trkpt>
      <trkpt lat="50.34294" lon="1.68236">
        <ele>28.7</ele>
        <time>2020-06-18T18:03:15Z</time>
      </trkpt>
      <trkpt lat="50.34295" lon="1.6823">
        <ele>28.8</ele>
        <time>2020-06-18T18:03:16Z</time>
      </trkpt>
      <trkpt lat="50.34296" lon="1.68225">
        <ele>28.9</ele>
        <time>2020-06-18T18:03:17Z</time>
      </trkpt>
      <trkpt lat="50.34297" lon="1.6822">
        <ele>29.1</ele>
        <time>2020-06-18T18:03:18Z</time>
      </trkpt>
      <trkpt lat="50.34299" lon="1.68214">
        <ele>29.2</ele>
        <time>2020-06-18T18:03:19Z</time>
      </trkpt>
      <trkpt lat="50.343" lon="1.68209">
        <ele>29.3</ele>
        <time>2020-06-18T18:03:20Z</time>
      </trkpt>
      <trkpt lat="50.34301" lon="1.68204">
        <ele>29.4</ele>
        <time>2020-06-18T18:03:21Z</time>
      </trkpt>
      <trkpt lat="50.34302" lon="1.68198">
        <ele>29.5</ele>
        <time>2020-06-18T18:03:22Z</time>
      </trkpt>
      <trkpt lat="50.34304" lon="1.68192">
        <ele>29.6</ele>
        <time>2020-06-18T18:03:23Z</time>
      </trkpt>
      <trkpt lat="50.34305" lon="1.68186">
        <ele>29.6</ele>
        <time>2020-06-18T18:03:24Z</time>
      </trkpt>
      <trkpt lat="50.34306" lon="1.68179">
        <ele>29.7</ele>
        <time>2020-06-18T18:03:25Z</time>
      </trkpt>
      <trkpt lat="50.34306" lon="1.68175">
        <ele>29.8</ele>
        <time>2020-06-18T18:03:26Z</time>
      </trkpt>
      <trkpt lat="50.34308" lon="1.68169">
        <ele>29.8</ele>
        <time>2020-06-18T18:03:27Z</time>
      </trkpt>
      <trkpt lat="50.34309" lon="1.68163">
        <ele>29.8</ele>
        <time>2020-06-18T18:03:28Z</time>
      </trkpt>
      <trkpt lat="50.34311" lon="1.68156">
        <ele>29.9</ele>
        <time>2020-06-18T18:03:29Z</time>
      </trkpt>
      <trkpt lat="50.34313" lon="1.68148">
        <ele>29.9</ele>
        <time>2020-06-18T18:03:30Z</time>
      </trkpt>
      <trkpt lat="50.34314" lon="1.68141">
        <ele>29.9</ele>
        <time>2020-06-18T18:03:31Z</time>
      </trkpt>
      <trkpt lat="50.34316" lon="1.68134">
        <ele>30</ele>
        <time>2020-06-18T18:03:32Z</time>
      </trkpt>
      <trkpt lat="50.34318" lon="1.68127">
        <ele>30</ele>
        <time>2020-06-18T18:03:33Z</time>
      </trkpt>
      <trkpt lat="50.3432" lon="1.6812">
        <ele>30.1</ele>
        <time>2020-06-18T18:03:34Z</time>
      </trkpt>
      <trkpt lat="50.34322" lon="1.68113">
        <ele>30.1</ele>
        <time>2020-06-18T18:03:35Z</time>
      </trkpt>
      <trkpt lat="50.34324" lon="1.68105">
        <ele>30.2</ele>
        <time>2020-06-18T18:03:36Z</time>
      </trkpt>
      <trkpt lat="50.34326" lon="1.68098">
        <ele>30.2</ele>
        <time>2020-06-18T18:03:37Z</time>
      </trkpt>
      <trkpt lat="50.34328" lon="1.6809">
        <ele>30.2</ele>
        <time>2020-06-18T18:03:38Z</time>
      </trkpt>
      <trkpt lat="50.3433" lon="1.68083">
        <ele>30.3</ele>
        <time>2020-06-18T18:03:39Z</time>
      </trkpt>
      <trkpt lat="50.34332" lon="1.68076">
        <ele>30.3</ele>
        <time>2020-06-18T18:03:40Z</time>
      </trkpt>
      <trkpt lat="50.34334" lon="1.68068">
        <ele>30.3</ele>
        <time>2020-06-18T18:03:41Z</time>
      </trkpt>
      <trkpt lat="50.34337" lon="1.68061">
        <ele>30.4</ele>
        <time>2020-06-18T18:03:42Z</time>
      </trkpt>
      <trkpt lat="50.34339" lon="1.68054">
        <ele>30.4</ele>
        <time>2020-06-18T18:03:43Z</time>
      </trkpt>
      <trkpt lat="50.34341" lon="1.68046">
        <ele>30.4</ele>
        <time>2020-06-18T18:03:44Z</time>
      </trkpt>
      <trkpt lat="50.34344" lon="1.68039">
        <ele>30.4</ele>
        <time>2020-06-18T18:03:45Z</time>
      </trkpt>
      <trkpt lat="50.34346" lon="1.68031">
        <ele>30.4</ele>
        <time>2020-06-18T18:03:46Z</time>
      </trkpt>
      <trkpt lat="50.34349" lon="1.68024">
        <ele>30.4</ele>
        <time>2020-06-18T18:03:47Z</time>
      </trkpt>
      <trkpt lat="50.34352" lon="1.68016">
        <ele>30.4</ele>
        <time>2020-06-18T18:03:48Z</time>
      </trkpt>
      <trkpt lat="50.34354" lon="1.68008">
        <ele>30.4</ele>
        <time>2020-06-18T18:03:49Z</time>
      </trkpt>
      <trkpt lat="50.34357" lon="1.68001">
        <ele>30.4</ele>
        <time>2020-06-18T18:03:50Z</time>
      </trkpt>
      <trkpt lat="50.34361" lon="1.67994">
        <ele>30.5</ele>
        <time>2020-06-18T18:03:51Z</time>
      </trkpt>
      <trkpt lat="50.34363" lon="1.67987">
        <ele>30.5</ele>
        <time>2020-06-18T18:03:52Z</time>
      </trkpt>
      <trkpt lat="50.34366" lon="1.67979">
        <ele>30.5</ele>
        <time>2020-06-18T18:03:53Z</time>
      </trkpt>
      <trkpt lat="50.34369" lon="1.67972">
        <ele>30.5</ele>
        <time>2020-06-18T18:03:54Z</time>
      </trkpt>
      <trkpt lat="50.34371" lon="1.67965">
        <ele>30.5</ele>
        <time>2020-06-18T18:03:55Z</time>
      </trkpt>
      <trkpt lat="50.34374" lon="1.67959">
        <ele>30.5</ele>
        <time>2020-06-18T18:03:56Z</time>
      </trkpt>
      <trkpt lat="50.34376" lon="1.67953">
        <ele>30.5</ele>
        <time>2020-06-18T18:03:57Z</time>
      </trkpt>
      <trkpt lat="50.34379" lon="1.67949">
        <ele>30.5</ele>
        <time>2020-06-18T18:03:58Z</time>
      </trkpt>
      <trkpt lat="50.34382" lon="1.67943">
        <ele>30.6</ele>
        <time>2020-06-18T18:03:59Z</time>
      </trkpt>
      <trkpt lat="50.34384" lon="1.67938">
        <ele>30.6</ele>
        <time>2020-06-18T18:04:00Z</time>
      </trkpt>
      <trkpt lat="50.34387" lon="1.67933">
        <ele>30.6</ele>
        <time>2020-06-18T18:04:01Z</time>
      </trkpt>
      <trkpt lat="50.34389" lon="1.67926">
        <ele>30.6</ele>
        <time>2020-06-18T18:04:02Z</time>
      </trkpt>
      <trkpt lat="50.34391" lon="1.6792">
        <ele>30.6</ele>
        <time>2020-06-18T18:04:03Z</time>
      </trkpt>
      <trkpt lat="50.34394" lon="1.67914">
        <ele>30.7</ele>
        <time>2020-06-18T18:04:04Z</time>
      </trkpt>
      <trkpt lat="50.34397" lon="1.67909">
        <ele>30.7</ele>
        <time>2020-06-18T18:04:05Z</time>
      </trkpt>
      <trkpt lat="50.344" lon="1.67902">
        <ele>30.7</ele>
        <time>2020-06-18T18:04:06Z</time>
      </trkpt>
      <trkpt lat="50.34403" lon="1.67896">
        <ele>30.8</ele>
        <time>2020-06-18T18:04:07Z</time>
      </trkpt>
      <trkpt lat="50.34406" lon="1.67889">
        <ele>30.8</ele>
        <time>2020-06-18T18:04:08Z</time>
      </trkpt>
      <trkpt lat="50.34409" lon="1.67884">
        <ele>30.8</ele>
        <time>2020-06-18T18:04:09Z</time>
      </trkpt>
      <trkpt lat="50.34411" lon="1.67878">
        <ele>30.9</ele>
        <time>2020-06-18T18:04:10Z</time>
      </trkpt>
      <trkpt lat="50.34413" lon="1.67872">
        <ele>30.9</ele>
        <time>2020-06-18T18:04:11Z</time>
      </trkpt>
      <trkpt lat="50.34416" lon="1.67866">
        <ele>30.9</ele>
        <time>2020-06-18T18:04:12Z</time>
      </trkpt>
      <trkpt lat="50.34419" lon="1.67859">
        <ele>31</ele>
        <time>2020-06-18T18:04:13Z</time>
      </trkpt>
      <trkpt lat="50.34421" lon="1.67853">
        <ele>31</ele>
        <time>2020-06-18T18:04:14Z</time>
      </trkpt>
      <trkpt lat="50.34424" lon="1.67846">
        <ele>31</ele>
        <time>2020-06-18T18:04:15Z</time>
      </trkpt>
      <trkpt lat="50.34427" lon="1.67839">
        <ele>31</ele>
        <time>2020-06-18T18:04:16Z</time>
      </trkpt>
      <trkpt lat="50.3443" lon="1.67832">
        <ele>31</ele>
        <time>2020-06-18T18:04:17Z</time>
      </trkpt>
      <trkpt lat="50.34433" lon="1.67826">
        <ele>31</ele>
        <time>2020-06-18T18:04:18Z</time>
      </trkpt>
      <trkpt lat="50.34436" lon="1.67819">
        <ele>31</ele>
        <time>2020-06-18T18:04:19Z</time>
      </trkpt>
      <trkpt lat="50.34439" lon="1.67811">
        <ele>31</ele>
        <time>2020-06-18T18:04:20Z</time>
      </trkpt>
      <trkpt lat="50.34441" lon="1.67805">
        <ele>30.9</ele>
        <time>2020-06-18T18:04:21Z</time>
      </trkpt>
      <trkpt lat="50.34444" lon="1.67798">
        <ele>30.9</ele>
        <time>2020-06-18T18:04:22Z</time>
      </trkpt>
      <trkpt lat="50.34447" lon="1.67791">
        <ele>30.8</ele>
        <time>2020-06-18T18:04:23Z</time>
      </trkpt>
      <trkpt lat="50.3445" lon="1.67784">
        <ele>30.8</ele>
        <time>2020-06-18T18:04:24Z</time>
      </trkpt>
      <trkpt lat="50.34455" lon="1.67778">
        <ele>30.7</ele>
        <time>2020-06-18T18:04:25Z</time>
      </trkpt>
      <trkpt lat="50.34457" lon="1.67771">
        <ele>30.6</ele>
        <time>2020-06-18T18:04:26Z</time>
      </trkpt>
      <trkpt lat="50.3446" lon="1.67765">
        <ele>30.6</ele>
        <time>2020-06-18T18:04:27Z</time>
      </trkpt>
      <trkpt lat="50.34462" lon="1.67758">
        <ele>30.5</ele>
        <time>2020-06-18T18:04:28Z</time>
      </trkpt>
      <trkpt lat="50.34465" lon="1.67751">
        <ele>30.4</ele>
        <time>2020-06-18T18:04:29Z</time>
      </trkpt>
      <trkpt lat="50.34468" lon="1.67743">
        <ele>30.3</ele>
        <time>2020-06-18T18:04:30Z</time>
      </trkpt>
      <trkpt lat="50.34472" lon="1.67737">
        <ele>30.2</ele>
        <time>2020-06-18T18:04:31Z</time>
      </trkpt>
      <trkpt lat="50.34476" lon="1.6773">
        <ele>30.2</ele>
        <time>2020-06-18T18:04:32Z</time>
      </trkpt>
      <trkpt lat="50.3448" lon="1.67723">
        <ele>30.1</ele>
        <time>2020-06-18T18:04:33Z</time>
      </trkpt>
      <trkpt lat="50.34483" lon="1.67716">
        <ele>30</ele>
        <time>2020-06-18T18:04:34Z</time>
      </trkpt>
      <trkpt lat="50.34487" lon="1.67709">
        <ele>30</ele>
        <time>2020-06-18T18:04:35Z</time>
      </trkpt>
      <trkpt lat="50.34491" lon="1.67703">
        <ele>29.9</ele>
        <time>2020-06-18T18:04:36Z</time>
      </trkpt>
      <trkpt lat="50.34495" lon="1.67696">
        <ele>29.8</ele>
        <time>2020-06-18T18:04:37Z</time>
      </trkpt>
      <trkpt lat="50.34499" lon="1.67688">
        <ele>29.7</ele>
        <time>2020-06-18T18:04:38Z</time>
      </trkpt>
      <trkpt lat="50.34504" lon="1.67682">
        <ele>29.6</ele>
        <time>2020-06-18T18:04:39Z</time>
      </trkpt>
      <trkpt lat="50.34509" lon="1.67675">
        <ele>29.4</ele>
        <time>2020-06-18T18:04:40Z</time>
      </trkpt>
      <trkpt lat="50.34515" lon="1.6767">
        <ele>29.3</ele>
        <time>2020-06-18T18:04:41Z</time>
      </trkpt>
      <trkpt lat="50.3452" lon="1.67665">
        <ele>29.1</ele>
        <time>2020-06-18T18:04:42Z</time>
      </trkpt>
      <trkpt lat="50.34526" lon="1.67658">
        <ele>29</ele>
        <time>2020-06-18T18:04:43Z</time>
      </trkpt>
      <trkpt lat="50.3453" lon="1.67651">
        <ele>28.9</ele>
        <time>2020-06-18T18:04:44Z</time>
      </trkpt>
      <trkpt lat="50.34535" lon="1.67644">
        <ele>28.7</ele>
        <time>2020-06-18T18:04:45Z</time>
      </trkpt>
      <trkpt lat="50.3454" lon="1.67637">
        <ele>28.6</ele>
        <time>2020-06-18T18:04:46Z</time>
      </trkpt>
      <trkpt lat="50.34546" lon="1.6763">
        <ele>28.4</ele>
        <time>2020-06-18T18:04:47Z</time>
      </trkpt>
      <trkpt lat="50.3455" lon="1.67625">
        <ele>28.3</ele>
        <time>2020-06-18T18:04:48Z</time>
      </trkpt>
      <trkpt lat="50.34554" lon="1.6762">
        <ele>28.2</ele>
        <time>2020-06-18T18:04:49Z</time>
      </trkpt>
      <trkpt lat="50.34559" lon="1.67615">
        <ele>28</ele>
        <time>2020-06-18T18:04:50Z</time>
      </trkpt>
      <trkpt lat="50.34564" lon="1.6761">
        <ele>27.9</ele>
        <time>2020-06-18T18:04:51Z</time>
      </trkpt>
      <trkpt lat="50.34569" lon="1.67605">
        <ele>27.7</ele>
        <time>2020-06-18T18:04:52Z</time>
      </trkpt>
      <trkpt lat="50.34573" lon="1.676">
        <ele>27.6</ele>
        <time>2020-06-18T18:04:53Z</time>
      </trkpt>
      <trkpt lat="50.34577" lon="1.67594">
        <ele>27.4</ele>
        <time>2020-06-18T18:04:54Z</time>
      </trkpt>
      <trkpt lat="50.34582" lon="1.67589">
        <ele>27.3</ele>
        <time>2020-06-18T18:04:55Z</time>
      </trkpt>
      <trkpt lat="50.34588" lon="1.67583">
        <ele>27.2</ele>
        <time>2020-06-18T18:04:56Z</time>
      </trkpt>
      <trkpt lat="50.34593" lon="1.67577">
        <ele>27.1</ele>
        <time>2020-06-18T18:04:57Z</time>
      </trkpt>
      <trkpt lat="50.34599" lon="1.67571">
        <ele>27.1</ele>
        <time>2020-06-18T18:04:58Z</time>
      </trkpt>
      <trkpt lat="50.34604" lon="1.67566">
        <ele>27.1</ele>
        <time>2020-06-18T18:04:59Z</time>
      </trkpt>
      <trkpt lat="50.34609" lon="1.67561">
        <ele>27.1</ele>
        <time>2020-06-18T18:05:00Z</time>
      </trkpt>
      <trkpt lat="50.34614" lon="1.67556">
        <ele>27.1</ele>
        <time>2020-06-18T18:05:01Z</time>
      </trkpt>
      <trkpt lat="50.34619" lon="1.6755">
        <ele>27</ele>
        <time>2020-06-18T18:05:02Z</time>
      </trkpt>
      <trkpt lat="50.34623" lon="1.67545">
        <ele>27</ele>
        <time>2020-06-18T18:05:03Z</time>
      </trkpt>
      <trkpt lat="50.34627" lon="1.67541">
        <ele>26.9</ele>
        <time>2020-06-18T18:05:04Z</time>
      </trkpt>
      <trkpt lat="50.34632" lon="1.67535">
        <ele>26.8</ele>
        <time>2020-06-18T18:05:05Z</time>
      </trkpt>
      <trkpt lat="50.34635" lon="1.6753">
        <ele>26.8</ele>
        <time>2020-06-18T18:05:06Z</time>
      </trkpt>
      <trkpt lat="50.3464" lon="1.67525">
        <ele>26.7</ele>
        <time>2020-06-18T18:05:07Z</time>
      </trkpt>
      <trkpt lat="50.34644" lon="1.67519">
        <ele>26.6</ele>
        <time>2020-06-18T18:05:08Z</time>
      </trkpt>
      <trkpt lat="50.34648" lon="1.67514">
        <ele>26.6</ele>
        <time>2020-06-18T18:05:09Z</time>
      </trkpt>
      <trkpt lat="50.34652" lon="1.67509">
        <ele>26.6</ele>
        <time>2020-06-18T18:05:10Z</time>
      </trkpt>
      <trkpt lat="50.34656" lon="1.67503">
        <ele>26.6</ele>
        <time>2020-06-18T18:05:11Z</time>
      </trkpt>
      <trkpt lat="50.3466" lon="1.67498">
        <ele>26.6</ele>
        <time>2020-06-18T18:05:12Z</time>
      </trkpt>
      <trkpt lat="50.34664" lon="1.67492">
        <ele>26.5</ele>
        <time>2020-06-18T18:05:13Z</time>
      </trkpt>
      <trkpt lat="50.34668" lon="1.67486">
        <ele>26.5</ele>
        <time>2020-06-18T18:05:14Z</time>
      </trkpt>
      <trkpt lat="50.34672" lon="1.6748">
        <ele>26.5</ele>
        <time>2020-06-18T18:05:15Z</time>
      </trkpt>
      <trkpt lat="50.34677" lon="1.67476">
        <ele>26.5</ele>
        <time>2020-06-18T18:05:16Z</time>
      </trkpt>
      <trkpt lat="50.34682" lon="1.6747">
        <ele>26.5</ele>
        <time>2020-06-18T18:05:17Z</time>
      </trkpt>
      <trkpt lat="50.34687" lon="1.67464">
        <ele>26.5</ele>
        <time>2020-06-18T18:05:18Z</time>
      </trkpt>
      <trkpt lat="50.34692" lon="1.67459">
        <ele>26.5</ele>
        <time>2020-06-18T18:05:19Z</time>
      </trkpt>
      <trkpt lat="50.34696" lon="1.67454">
        <ele>26.6</ele>
        <time>2020-06-18T18:05:20Z</time>
      </trkpt>
      <trkpt lat="50.347" lon="1.67449">
        <ele>26.7</ele>
        <time>2020-06-18T18:05:21Z</time>
      </trkpt>
      <trkpt lat="50.34703" lon="1.67444">
        <ele>26.7</ele>
        <time>2020-06-18T18:05:22Z</time>
      </trkpt>
      <trkpt lat="50.34707" lon="1.67439">
        <ele>26.8</ele>
        <time>2020-06-18T18:05:23Z</time>
      </trkpt>
      <trkpt lat="50.34711" lon="1.67433">
        <ele>26.9</ele>
        <time>2020-06-18T18:05:24Z</time>
      </trkpt>
      <trkpt lat="50.34715" lon="1.67426">
        <ele>27</ele>
        <time>2020-06-18T18:05:25Z</time>
      </trkpt>
      <trkpt lat="50.3472" lon="1.6742">
        <ele>27.1</ele>
        <time>2020-06-18T18:05:26Z</time>
      </trkpt>
      <trkpt lat="50.34725" lon="1.67414">
        <ele>27.1</ele>
        <time>2020-06-18T18:05:27Z</time>
      </trkpt>
      <trkpt lat="50.34729" lon="1.67408">
        <ele>27.2</ele>
        <time>2020-06-18T18:05:28Z</time>
      </trkpt>
      <trkpt lat="50.34734" lon="1.67402">
        <ele>27.3</ele>
        <time>2020-06-18T18:05:29Z</time>
      </trkpt>
      <trkpt lat="50.34737" lon="1.67397">
        <ele>27.3</ele>
        <time>2020-06-18T18:05:30Z</time>
      </trkpt>
      <trkpt lat="50.34742" lon="1.67391">
        <ele>27.4</ele>
        <time>2020-06-18T18:05:31Z</time>
      </trkpt>
      <trkpt lat="50.34746" lon="1.67385">
        <ele>27.5</ele>
        <time>2020-06-18T18:05:32Z</time>
      </trkpt>
      <trkpt lat="50.34751" lon="1.67379">
        <ele>27.5</ele>
        <time>2020-06-18T18:05:33Z</time>
      </trkpt>
      <trkpt lat="50.34755" lon="1.67373">
        <ele>27.6</ele>
        <time>2020-06-18T18:05:34Z</time>
      </trkpt>
      <trkpt lat="50.34759" lon="1.67368">
        <ele>27.6</ele>
        <time>2020-06-18T18:05:35Z</time>
      </trkpt>
      <trkpt lat="50.34763" lon="1.67362">
        <ele>27.7</ele>
        <time>2020-06-18T18:05:36Z</time>
      </trkpt>
      <trkpt lat="50.34767" lon="1.67356">
        <ele>27.7</ele>
        <time>2020-06-18T18:05:37Z</time>
      </trkpt>
      <trkpt lat="50.34771" lon="1.6735">
        <ele>27.8</ele>
        <time>2020-06-18T18:05:38Z</time>
      </trkpt>
      <trkpt lat="50.34775" lon="1.67345">
        <ele>27.9</ele>
        <time>2020-06-18T18:05:39Z</time>
      </trkpt>
      <trkpt lat="50.34779" lon="1.6734">
        <ele>27.9</ele>
        <time>2020-06-18T18:05:40Z</time>
      </trkpt>
      <trkpt lat="50.34782" lon="1.67336">
        <ele>28</ele>
        <time>2020-06-18T18:05:41Z</time>
      </trkpt>
      <trkpt lat="50.34785" lon="1.67333">
        <ele>28</ele>
        <time>2020-06-18T18:05:42Z</time>
      </trkpt>
      <trkpt lat="50.34789" lon="1.67329">
        <ele>28.1</ele>
        <time>2020-06-18T18:05:43Z</time>
      </trkpt>
      <trkpt lat="50.34793" lon="1.67325">
        <ele>28.2</ele>
        <time>2020-06-18T18:05:44Z</time>
      </trkpt>
      <trkpt lat="50.34796" lon="1.67322">
        <ele>28.2</ele>
        <time>2020-06-18T18:05:45Z</time>
      </trkpt>
      <trkpt lat="50.34799" lon="1.6732">
        <ele>28.3</ele>
        <time>2020-06-18T18:05:46Z</time>
      </trkpt>
      <trkpt lat="50.34802" lon="1.67318">
        <ele>28.3</ele>
        <time>2020-06-18T18:05:47Z</time>
      </trkpt>
      <trkpt lat="50.34805" lon="1.67315">
        <ele>28.4</ele>
        <time>2020-06-18T18:05:48Z</time>
      </trkpt>
      <trkpt lat="50.34808" lon="1.67312">
        <ele>28.4</ele>
        <time>2020-06-18T18:05:49Z</time>
      </trkpt>
      <trkpt lat="50.3481" lon="1.6731">
        <ele>28.5</ele>
        <time>2020-06-18T18:05:50Z</time>
      </trkpt>
      <trkpt lat="50.34813" lon="1.67306">
        <ele>28.5</ele>
        <time>2020-06-18T18:05:51Z</time>
      </trkpt>
      <trkpt lat="50.34816" lon="1.67303">
        <ele>28.6</ele>
        <time>2020-06-18T18:05:52Z</time>
      </trkpt>
      <trkpt lat="50.3482" lon="1.67301">
        <ele>28.7</ele>
        <time>2020-06-18T18:05:53Z</time>
      </trkpt>
      <trkpt lat="50.34824" lon="1.67299">
        <ele>28.7</ele>
        <time>2020-06-18T18:05:54Z</time>
      </trkpt>
      <trkpt lat="50.34829" lon="1.67296">
        <ele>28.8</ele>
        <time>2020-06-18T18:05:55Z</time>
      </trkpt>
      <trkpt lat="50.34835" lon="1.67292">
        <ele>28.9</ele>
        <time>2020-06-18T18:05:56Z</time>
      </trkpt>
      <trkpt lat="50.3484" lon="1.67288">
        <ele>29</ele>
        <time>2020-06-18T18:05:57Z</time>
      </trkpt>
      <trkpt lat="50.34844" lon="1.67284">
        <ele>29</ele>
        <time>2020-06-18T18:05:58Z</time>
      </trkpt>
      <trkpt lat="50.34847" lon="1.67279">
        <ele>29.1</ele>
        <time>2020-06-18T18:05:59Z</time>
      </trkpt>
      <trkpt lat="50.34851" lon="1.67273">
        <ele>29.2</ele>
        <time>2020-06-18T18:06:00Z</time>
      </trkpt>
      <trkpt lat="50.34856" lon="1.67269">
        <ele>29.3</ele>
        <time>2020-06-18T18:06:01Z</time>
      </trkpt>
      <trkpt lat="50.34859" lon="1.67267">
        <ele>29.4</ele>
        <time>2020-06-18T18:06:02Z</time>
      </trkpt>
      <trkpt lat="50.34863" lon="1.67263">
        <ele>29.5</ele>
        <time>2020-06-18T18:06:03Z</time>
      </trkpt>
      <trkpt lat="50.34868" lon="1.6726">
        <ele>29.6</ele>
        <time>2020-06-18T18:06:04Z</time>
      </trkpt>
      <trkpt lat="50.34871" lon="1.67256">
        <ele>29.6</ele>
        <time>2020-06-18T18:06:05Z</time>
      </trkpt>
      <trkpt lat="50.34875" lon="1.67253">
        <ele>29.7</ele>
        <time>2020-06-18T18:06:06Z</time>
      </trkpt>
      <trkpt lat="50.34879" lon="1.67249">
        <ele>29.8</ele>
        <time>2020-06-18T18:06:07Z</time>
      </trkpt>
      <trkpt lat="50.34882" lon="1.67245">
        <ele>29.9</ele>
        <time>2020-06-18T18:06:08Z</time>
      </trkpt>
      <trkpt lat="50.34887" lon="1.67239">
        <ele>30</ele>
        <time>2020-06-18T18:06:09Z</time>
      </trkpt>
      <trkpt lat="50.34892" lon="1.67233">
        <ele>30.1</ele>
        <time>2020-06-18T18:06:10Z</time>
      </trkpt>
      <trkpt lat="50.34896" lon="1.67228">
        <ele>30.2</ele>
        <time>2020-06-18T18:06:11Z</time>
      </trkpt>
      <trkpt lat="50.349" lon="1.67224">
        <ele>30.3</ele>
        <time>2020-06-18T18:06:12Z</time>
      </trkpt>
      <trkpt lat="50.34905" lon="1.6722">
        <ele>30.4</ele>
        <time>2020-06-18T18:06:13Z</time>
      </trkpt>
      <trkpt lat="50.3491" lon="1.67216">
        <ele>30.5</ele>
        <time>2020-06-18T18:06:14Z</time>
      </trkpt>
      <trkpt lat="50.34914" lon="1.67213">
        <ele>30.5</ele>
        <time>2020-06-18T18:06:15Z</time>
      </trkpt>
      <trkpt lat="50.34919" lon="1.67209">
        <ele>30.6</ele>
        <time>2020-06-18T18:06:16Z</time>
      </trkpt>
      <trkpt lat="50.34923" lon="1.67206">
        <ele>30.7</ele>
        <time>2020-06-18T18:06:17Z</time>
      </trkpt>
      <trkpt lat="50.34927" lon="1.67203">
        <ele>30.7</ele>
        <time>2020-06-18T18:06:18Z</time>
      </trkpt>
      <trkpt lat="50.34931" lon="1.672">
        <ele>30.8</ele>
        <time>2020-06-18T18:06:19Z</time>
      </trkpt>
      <trkpt lat="50.34937" lon="1.67197">
        <ele>30.9</ele>
        <time>2020-06-18T18:06:20Z</time>
      </trkpt>
      <trkpt lat="50.34942" lon="1.67194">
        <ele>31</ele>
        <time>2020-06-18T18:06:21Z</time>
      </trkpt>
      <trkpt lat="50.34947" lon="1.6719">
        <ele>31.1</ele>
        <time>2020-06-18T18:06:22Z</time>
      </trkpt>
      <trkpt lat="50.34953" lon="1.67188">
        <ele>31.1</ele>
        <time>2020-06-18T18:06:23Z</time>
      </trkpt>
      <trkpt lat="50.34958" lon="1.67184">
        <ele>31.2</ele>
        <time>2020-06-18T18:06:24Z</time>
      </trkpt>
      <trkpt lat="50.34963" lon="1.6718">
        <ele>31.3</ele>
        <time>2020-06-18T18:06:25Z</time>
      </trkpt>
      <trkpt lat="50.34968" lon="1.67177">
        <ele>31.4</ele>
        <time>2020-06-18T18:06:26Z</time>
      </trkpt>
      <trkpt lat="50.34972" lon="1.67173">
        <ele>31.5</ele>
        <time>2020-06-18T18:06:27Z</time>
      </trkpt>
      <trkpt lat="50.34978" lon="1.67169">
        <ele>31.6</ele>
        <time>2020-06-18T18:06:28Z</time>
      </trkpt>
      <trkpt lat="50.34983" lon="1.67166">
        <ele>31.7</ele>
        <time>2020-06-18T18:06:29Z</time>
      </trkpt>
      <trkpt lat="50.34988" lon="1.67162">
        <ele>31.8</ele>
        <time>2020-06-18T18:06:30Z</time>
      </trkpt>
      <trkpt lat="50.34992" lon="1.67159">
        <ele>31.9</ele>
        <time>2020-06-18T18:06:31Z</time>
      </trkpt>
      <trkpt lat="50.34997" lon="1.67155">
        <ele>32</ele>
        <time>2020-06-18T18:06:32Z</time>
      </trkpt>
      <trkpt lat="50.35001" lon="1.67152">
        <ele>32</ele>
        <time>2020-06-18T18:06:33Z</time>
      </trkpt>
      <trkpt lat="50.35006" lon="1.67148">
        <ele>32.1</ele>
        <time>2020-06-18T18:06:34Z</time>
      </trkpt>
      <trkpt lat="50.3501" lon="1.67145">
        <ele>32.1</ele>
        <time>2020-06-18T18:06:35Z</time>
      </trkpt>
      <trkpt lat="50.35015" lon="1.67143">
        <ele>32.1</ele>
        <time>2020-06-18T18:06:36Z</time>
      </trkpt>
      <trkpt lat="50.3502" lon="1.6714">
        <ele>32.2</ele>
        <time>2020-06-18T18:06:37Z</time>
      </trkpt>
      <trkpt lat="50.35026" lon="1.67135">
        <ele>32.2</ele>
        <time>2020-06-18T18:06:38Z</time>
      </trkpt>
      <trkpt lat="50.3503" lon="1.67133">
        <ele>32.3</ele>
        <time>2020-06-18T18:06:39Z</time>
      </trkpt>
      <trkpt lat="50.35036" lon="1.67131">
        <ele>32.3</ele>
        <time>2020-06-18T18:06:40Z</time>
      </trkpt>
      <trkpt lat="50.3504" lon="1.67128">
        <ele>32.4</ele>
        <time>2020-06-18T18:06:41Z</time>
      </trkpt>
      <trkpt lat="50.35045" lon="1.67125">
        <ele>32.4</ele>
        <time>2020-06-18T18:06:42Z</time>
      </trkpt>
      <trkpt lat="50.3505" lon="1.67122">
        <ele>32.4</ele>
        <time>2020-06-18T18:06:43Z</time>
      </trkpt>
      <trkpt lat="50.35055" lon="1.67118">
        <ele>32.4</ele>
        <time>2020-06-18T18:06:44Z</time>
      </trkpt>
      <trkpt lat="50.3506" lon="1.67115">
        <ele>32.5</ele>
        <time>2020-06-18T18:06:45Z</time>
      </trkpt>
      <trkpt lat="50.35065" lon="1.67111">
        <ele>32.5</ele>
        <time>2020-06-18T18:06:46Z</time>
      </trkpt>
      <trkpt lat="50.3507" lon="1.67108">
        <ele>32.5</ele>
        <time>2020-06-18T18:06:47Z</time>
      </trkpt>
      <trkpt lat="50.35075" lon="1.67105">
        <ele>32.5</ele>
        <time>2020-06-18T18:06:48Z</time>
      </trkpt>
      <trkpt lat="50.3508" lon="1.67101">
        <ele>32.4</ele>
        <time>2020-06-18T18:06:49Z</time>
      </trkpt>
      <trkpt lat="50.35085" lon="1.67097">
        <ele>32.4</ele>
        <time>2020-06-18T18:06:50Z</time>
      </trkpt>
      <trkpt lat="50.3509" lon="1.67094">
        <ele>32.4</ele>
        <time>2020-06-18T18:06:51Z</time>
      </trkpt>
      <trkpt lat="50.35096" lon="1.6709">
        <ele>32.3</ele>
        <time>2020-06-18T18:06:52Z</time>
      </trkpt>
      <trkpt lat="50.35102" lon="1.67088">
        <ele>32.3</ele>
        <time>2020-06-18T18:06:53Z</time>
      </trkpt>
      <trkpt lat="50.35108" lon="1.67086">
        <ele>32.3</ele>
        <time>2020-06-18T18:06:54Z</time>
      </trkpt>
      <trkpt lat="50.35113" lon="1.67083">
        <ele>32.2</ele>
        <time>2020-06-18T18:06:55Z</time>
      </trkpt>
      <trkpt lat="50.35119" lon="1.67079">
        <ele>32.2</ele>
        <time>2020-06-18T18:06:56Z</time>
      </trkpt>
      <trkpt lat="50.35125" lon="1.67076">
        <ele>32.2</ele>
        <time>2020-06-18T18:06:57Z</time>
      </trkpt>
      <trkpt lat="50.35131" lon="1.67072">
        <ele>32.1</ele>
        <time>2020-06-18T18:06:58Z</time>
      </trkpt>
      <trkpt lat="50.35136" lon="1.67068">
        <ele>32.1</ele>
        <time>2020-06-18T18:06:59Z</time>
      </trkpt>
      <trkpt lat="50.35142" lon="1.67064">
        <ele>32.1</ele>
        <time>2020-06-18T18:07:00Z</time>
      </trkpt>
      <trkpt lat="50.35148" lon="1.67061">
        <ele>32.1</ele>
        <time>2020-06-18T18:07:01Z</time>
      </trkpt>
      <trkpt lat="50.35153" lon="1.67058">
        <ele>32.1</ele>
        <time>2020-06-18T18:07:02Z</time>
      </trkpt>
      <trkpt lat="50.35158" lon="1.67055">
        <ele>32.1</ele>
        <time>2020-06-18T18:07:03Z</time>
      </trkpt>
      <trkpt lat="50.35166" lon="1.67055">
        <ele>32.1</ele>
        <time>2020-06-18T18:07:04Z</time>
      </trkpt>
      <trkpt lat="50.35171" lon="1.67051">
        <ele>32</ele>
        <time>2020-06-18T18:07:05Z</time>
      </trkpt>
      <trkpt lat="50.35177" lon="1.67049">
        <ele>31.9</ele>
        <time>2020-06-18T18:07:06Z</time>
      </trkpt>
      <trkpt lat="50.35182" lon="1.67047">
        <ele>31.9</ele>
        <time>2020-06-18T18:07:07Z</time>
      </trkpt>
      <trkpt lat="50.35188" lon="1.67044">
        <ele>31.8</ele>
        <time>2020-06-18T18:07:08Z</time>
      </trkpt>
      <trkpt lat="50.35194" lon="1.67041">
        <ele>31.7</ele>
        <time>2020-06-18T18:07:09Z</time>
      </trkpt>
      <trkpt lat="50.35197" lon="1.67036">
        <ele>31.6</ele>
        <time>2020-06-18T18:07:10Z</time>
      </trkpt>
      <trkpt lat="50.35202" lon="1.67033">
        <ele>31.6</ele>
        <time>2020-06-18T18:07:11Z</time>
      </trkpt>
      <trkpt lat="50.35207" lon="1.67031">
        <ele>31.6</ele>
        <time>2020-06-18T18:07:12Z</time>
      </trkpt>
      <trkpt lat="50.35211" lon="1.67029">
        <ele>31.5</ele>
        <time>2020-06-18T18:07:13Z</time>
      </trkpt>
      <trkpt lat="50.35216" lon="1.67026">
        <ele>31.5</ele>
        <time>2020-06-18T18:07:14Z</time>
      </trkpt>
      <trkpt lat="50.35221" lon="1.67023">
        <ele>31.4</ele>
        <time>2020-06-18T18:07:15Z</time>
      </trkpt>
      <trkpt lat="50.35226" lon="1.6702">
        <ele>31.4</ele>
        <time>2020-06-18T18:07:16Z</time>
      </trkpt>
      <trkpt lat="50.35231" lon="1.67017">
        <ele>31.3</ele>
        <time>2020-06-18T18:07:17Z</time>
      </trkpt>
      <trkpt lat="50.35236" lon="1.67014">
        <ele>31.3</ele>
        <time>2020-06-18T18:07:18Z</time>
      </trkpt>
      <trkpt lat="50.35242" lon="1.6701">
        <ele>31.2</ele>
        <time>2020-06-18T18:07:19Z</time>
      </trkpt>
      <trkpt lat="50.35247" lon="1.67007">
        <ele>31.1</ele>
        <time>2020-06-18T18:07:20Z</time>
      </trkpt>
      <trkpt lat="50.35252" lon="1.67003">
        <ele>31.1</ele>
        <time>2020-06-18T18:07:21Z</time>
      </trkpt>
      <trkpt lat="50.35258" lon="1.66998">
        <ele>31</ele>
        <time>2020-06-18T18:07:22Z</time>
      </trkpt>
      <trkpt lat="50.35265" lon="1.66993">
        <ele>30.9</ele>
        <time>2020-06-18T18:07:23Z</time>
      </trkpt>
      <trkpt lat="50.35271" lon="1.66988">
        <ele>30.8</ele>
        <time>2020-06-18T18:07:24Z</time>
      </trkpt>
      <trkpt lat="50.35277" lon="1.66983">
        <ele>30.6</ele>
        <time>2020-06-18T18:07:25Z</time>
      </trkpt>
      <trkpt lat="50.35282" lon="1.66977">
        <ele>30.5</ele>
        <time>2020-06-18T18:07:26Z</time>
      </trkpt>
      <trkpt lat="50.35287" lon="1.66972">
        <ele>30.4</ele>
        <time>2020-06-18T18:07:27Z</time>
      </trkpt>
      <trkpt lat="50.35292" lon="1.66967">
        <ele>30.2</ele>
        <time>2020-06-18T18:07:28Z</time>
      </trkpt>
      <trkpt lat="50.35297" lon="1.66962">
        <ele>30</ele>
        <time>2020-06-18T18:07:29Z</time>
      </trkpt>
      <trkpt lat="50.35301" lon="1.66957">
        <ele>29.9</ele>
        <time>2020-06-18T18:07:30Z</time>
      </trkpt>
      <trkpt lat="50.35305" lon="1.66952">
        <ele>29.8</ele>
        <time>2020-06-18T18:07:31Z</time>
      </trkpt>
      <trkpt lat="50.35309" lon="1.66947">
        <ele>29.7</ele>
        <time>2020-06-18T18:07:32Z</time>
      </trkpt>
      <trkpt lat="50.35314" lon="1.66941">
        <ele>29.5</ele>
        <time>2020-06-18T18:07:33Z</time>
      </trkpt>
      <trkpt lat="50.35318" lon="1.66938">
        <ele>29.4</ele>
        <time>2020-06-18T18:07:34Z</time>
      </trkpt>
      <trkpt lat="50.35323" lon="1.66932">
        <ele>29.3</ele>
        <time>2020-06-18T18:07:35Z</time>
      </trkpt>
      <trkpt lat="50.35327" lon="1.66927">
        <ele>29.1</ele>
        <time>2020-06-18T18:07:36Z</time>
      </trkpt>
      <trkpt lat="50.3533" lon="1.66922">
        <ele>29</ele>
        <time>2020-06-18T18:07:37Z</time>
      </trkpt>
      <trkpt lat="50.35334" lon="1.66916">
        <ele>28.9</ele>
        <time>2020-06-18T18:07:38Z</time>
      </trkpt>
      <trkpt lat="50.35339" lon="1.66911">
        <ele>28.8</ele>
        <time>2020-06-18T18:07:39Z</time>
      </trkpt>
      <trkpt lat="50.35343" lon="1.66907">
        <ele>28.6</ele>
        <time>2020-06-18T18:07:40Z</time>
      </trkpt>
      <trkpt lat="50.35347" lon="1.66902">
        <ele>28.5</ele>
        <time>2020-06-18T18:07:41Z</time>
      </trkpt>
      <trkpt lat="50.35352" lon="1.66897">
        <ele>28.3</ele>
        <time>2020-06-18T18:07:42Z</time>
      </trkpt>
      <trkpt lat="50.35356" lon="1.66892">
        <ele>28.2</ele>
        <time>2020-06-18T18:07:43Z</time>
      </trkpt>
      <trkpt lat="50.3536" lon="1.66886">
        <ele>28</ele>
        <time>2020-06-18T18:07:44Z</time>
      </trkpt>
      <trkpt lat="50.35364" lon="1.66881">
        <ele>27.8</ele>
        <time>2020-06-18T18:07:45Z</time>
      </trkpt>
      <trkpt lat="50.35369" lon="1.66875">
        <ele>27.5</ele>
        <time>2020-06-18T18:07:46Z</time>
      </trkpt>
      <trkpt lat="50.35373" lon="1.66869">
        <ele>27.3</ele>
        <time>2020-06-18T18:07:47Z</time>
      </trkpt>
      <trkpt lat="50.35378" lon="1.66863">
        <ele>27.3</ele>
        <time>2020-06-18T18:07:48Z</time>
      </trkpt>
      <trkpt lat="50.35383" lon="1.66858">
        <ele>27.3</ele>
        <time>2020-06-18T18:07:49Z</time>
      </trkpt>
      <trkpt lat="50.35388" lon="1.66852">
        <ele>27.2</ele>
        <time>2020-06-18T18:07:50Z</time>
      </trkpt>
      <trkpt lat="50.35392" lon="1.66846">
        <ele>27</ele>
        <time>2020-06-18T18:07:51Z</time>
      </trkpt>
      <trkpt lat="50.35396" lon="1.6684">
        <ele>26.8</ele>
        <time>2020-06-18T18:07:52Z</time>
      </trkpt>
      <trkpt lat="50.35401" lon="1.66833">
        <ele>26.5</ele>
        <time>2020-06-18T18:07:53Z</time>
      </trkpt>
      <trkpt lat="50.35407" lon="1.66826">
        <ele>26.2</ele>
        <time>2020-06-18T18:07:54Z</time>
      </trkpt>
      <trkpt lat="50.35412" lon="1.66819">
        <ele>25.9</ele>
        <time>2020-06-18T18:07:55Z</time>
      </trkpt>
      <trkpt lat="50.35417" lon="1.66812">
        <ele>25.6</ele>
        <time>2020-06-18T18:07:56Z</time>
      </trkpt>
      <trkpt lat="50.35422" lon="1.66804">
        <ele>25.2</ele>
        <time>2020-06-18T18:07:57Z</time>
      </trkpt>
      <trkpt lat="50.35428" lon="1.66796">
        <ele>24.8</ele>
        <time>2020-06-18T18:07:58Z</time>
      </trkpt>
      <trkpt lat="50.35433" lon="1.66788">
        <ele>24.5</ele>
        <time>2020-06-18T18:07:59Z</time>
      </trkpt>
      <trkpt lat="50.35439" lon="1.66779">
        <ele>24.1</ele>
        <time>2020-06-18T18:08:00Z</time>
      </trkpt>
      <trkpt lat="50.35445" lon="1.66772">
        <ele>23.7</ele>
        <time>2020-06-18T18:08:01Z</time>
      </trkpt>
      <trkpt lat="50.35451" lon="1.66764">
        <ele>23.3</ele>
        <time>2020-06-18T18:08:02Z</time>
      </trkpt>
      <trkpt lat="50.35457" lon="1.66754">
        <ele>22.9</ele>
        <time>2020-06-18T18:08:03Z</time>
      </trkpt>
      <trkpt lat="50.35462" lon="1.66746">
        <ele>22.5</ele>
        <time>2020-06-18T18:08:04Z</time>
      </trkpt>
      <trkpt lat="50.35468" lon="1.66738">
        <ele>22.2</ele>
        <time>2020-06-18T18:08:05Z</time>
      </trkpt>
      <trkpt lat="50.35473" lon="1.66729">
        <ele>21.8</ele>
        <time>2020-06-18T18:08:06Z</time>
      </trkpt>
      <trkpt lat="50.35479" lon="1.66721">
        <ele>21.4</ele>
        <time>2020-06-18T18:08:07Z</time>
      </trkpt>
      <trkpt lat="50.35486" lon="1.66712">
        <ele>21</ele>
        <time>2020-06-18T18:08:08Z</time>
      </trkpt>
      <trkpt lat="50.35492" lon="1.66703">
        <ele>20.7</ele>
        <time>2020-06-18T18:08:09Z</time>
      </trkpt>
      <trkpt lat="50.35497" lon="1.66694">
        <ele>20.3</ele>
        <time>2020-06-18T18:08:10Z</time>
      </trkpt>
      <trkpt lat="50.35503" lon="1.66685">
        <ele>20</ele>
        <time>2020-06-18T18:08:11Z</time>
      </trkpt>
      <trkpt lat="50.35509" lon="1.66676">
        <ele>19.7</ele>
        <time>2020-06-18T18:08:12Z</time>
      </trkpt>
      <trkpt lat="50.35516" lon="1.66668">
        <ele>19.4</ele>
        <time>2020-06-18T18:08:13Z</time>
      </trkpt>
      <trkpt lat="50.35522" lon="1.66659">
        <ele>19.1</ele>
        <time>2020-06-18T18:08:14Z</time>
      </trkpt>
      <trkpt lat="50.3553" lon="1.66652">
        <ele>18.8</ele>
        <time>2020-06-18T18:08:15Z</time>
      </trkpt>
      <trkpt lat="50.35536" lon="1.66645">
        <ele>18.6</ele>
        <time>2020-06-18T18:08:16Z</time>
      </trkpt>
      <trkpt lat="50.35543" lon="1.66636">
        <ele>18.3</ele>
        <time>2020-06-18T18:08:17Z</time>
      </trkpt>
      <trkpt lat="50.35549" lon="1.6663">
        <ele>18.1</ele>
        <time>2020-06-18T18:08:18Z</time>
      </trkpt>
      <trkpt lat="50.35556" lon="1.66623">
        <ele>17.8</ele>
        <time>2020-06-18T18:08:19Z</time>
      </trkpt>
      <trkpt lat="50.35562" lon="1.66616">
        <ele>17.6</ele>
        <time>2020-06-18T18:08:20Z</time>
      </trkpt>
      <trkpt lat="50.35568" lon="1.6661">
        <ele>17.3</ele>
        <time>2020-06-18T18:08:21Z</time>
      </trkpt>
      <trkpt lat="50.35575" lon="1.66605">
        <ele>17.1</ele>
        <time>2020-06-18T18:08:22Z</time>
      </trkpt>
      <trkpt lat="50.35582" lon="1.666">
        <ele>16.9</ele>
        <time>2020-06-18T18:08:23Z</time>
      </trkpt>
      <trkpt lat="50.35589" lon="1.66595">
        <ele>16.7</ele>
        <time>2020-06-18T18:08:24Z</time>
      </trkpt>
      <trkpt lat="50.35595" lon="1.66589">
        <ele>16.5</ele>
        <time>2020-06-18T18:08:25Z</time>
      </trkpt>
      <trkpt lat="50.35602" lon="1.66585">
        <ele>16.3</ele>
        <time>2020-06-18T18:08:26Z</time>
      </trkpt>
      <trkpt lat="50.35609" lon="1.6658">
        <ele>16.1</ele>
        <time>2020-06-18T18:08:27Z</time>
      </trkpt>
      <trkpt lat="50.35616" lon="1.66577">
        <ele>15.8</ele>
        <time>2020-06-18T18:08:28Z</time>
      </trkpt>
      <trkpt lat="50.35623" lon="1.66573">
        <ele>15.6</ele>
        <time>2020-06-18T18:08:29Z</time>
      </trkpt>
      <trkpt lat="50.3563" lon="1.6657">
        <ele>15.4</ele>
        <time>2020-06-18T18:08:30Z</time>
      </trkpt>
      <trkpt lat="50.35637" lon="1.66566">
        <ele>15.2</ele>
        <time>2020-06-18T18:08:31Z</time>
      </trkpt>
      <trkpt lat="50.35644" lon="1.66563">
        <ele>15</ele>
        <time>2020-06-18T18:08:32Z</time>
      </trkpt>
      <trkpt lat="50.35651" lon="1.66559">
        <ele>14.8</ele>
        <time>2020-06-18T18:08:33Z</time>
      </trkpt>
      <trkpt lat="50.35658" lon="1.66555">
        <ele>14.6</ele>
        <time>2020-06-18T18:08:34Z</time>
      </trkpt>
      <trkpt lat="50.35665" lon="1.66552">
        <ele>14.4</ele>
        <time>2020-06-18T18:08:35Z</time>
      </trkpt>
      <trkpt lat="50.35672" lon="1.66549">
        <ele>14.2</ele>
        <time>2020-06-18T18:08:36Z</time>
      </trkpt>
      <trkpt lat="50.35679" lon="1.66546">
        <ele>14</ele>
        <time>2020-06-18T18:08:37Z</time>
      </trkpt>
      <trkpt lat="50.35686" lon="1.66543">
        <ele>13.8</ele>
        <time>2020-06-18T18:08:38Z</time>
      </trkpt>
      <trkpt lat="50.35693" lon="1.66541">
        <ele>13.6</ele>
        <time>2020-06-18T18:08:39Z</time>
      </trkpt>
      <trkpt lat="50.357" lon="1.66539">
        <ele>13.3</ele>
        <time>2020-06-18T18:08:40Z</time>
      </trkpt>
      <trkpt lat="50.35707" lon="1.66535">
        <ele>13.1</ele>
        <time>2020-06-18T18:08:41Z</time>
      </trkpt>
      <trkpt lat="50.35714" lon="1.66532">
        <ele>12.9</ele>
        <time>2020-06-18T18:08:42Z</time>
      </trkpt>
      <trkpt lat="50.35721" lon="1.66528">
        <ele>12.7</ele>
        <time>2020-06-18T18:08:43Z</time>
      </trkpt>
      <trkpt lat="50.35728" lon="1.66525">
        <ele>12.5</ele>
        <time>2020-06-18T18:08:44Z</time>
      </trkpt>
      <trkpt lat="50.35735" lon="1.66522">
        <ele>12.3</ele>
        <time>2020-06-18T18:08:45Z</time>
      </trkpt>
      <trkpt lat="50.35743" lon="1.66518">
        <ele>12.1</ele>
        <time>2020-06-18T18:08:46Z</time>
      </trkpt>
      <trkpt lat="50.3575" lon="1.66516">
        <ele>11.8</ele>
        <time>2020-06-18T18:08:47Z</time>
      </trkpt>
      <trkpt lat="50.35758" lon="1.66514">
        <ele>11.5</ele>
        <time>2020-06-18T18:08:48Z</time>
      </trkpt>
      <trkpt lat="50.35765" lon="1.66511">
        <ele>11.2</ele>
        <time>2020-06-18T18:08:49Z</time>
      </trkpt>
      <trkpt lat="50.35772" lon="1.66509">
        <ele>11</ele>
        <time>2020-06-18T18:08:50Z</time>
      </trkpt>
      <trkpt lat="50.3578" lon="1.66509">
        <ele>10.7</ele>
        <time>2020-06-18T18:08:51Z</time>
      </trkpt>
      <trkpt lat="50.35788" lon="1.66509">
        <ele>10.4</ele>
        <time>2020-06-18T18:08:52Z</time>
      </trkpt>
      <trkpt lat="50.35795" lon="1.6651">
        <ele>10.2</ele>
        <time>2020-06-18T18:08:53Z</time>
      </trkpt>
      <trkpt lat="50.35803" lon="1.6651">
        <ele>10</ele>
        <time>2020-06-18T18:08:54Z</time>
      </trkpt>
      <trkpt lat="50.3581" lon="1.66513">
        <ele>9.7</ele>
        <time>2020-06-18T18:08:55Z</time>
      </trkpt>
      <trkpt lat="50.35818" lon="1.66514">
        <ele>9.5</ele>
        <time>2020-06-18T18:08:56Z</time>
      </trkpt>
      <trkpt lat="50.35826" lon="1.66516">
        <ele>9.2</ele>
        <time>2020-06-18T18:08:57Z</time>
      </trkpt>
      <trkpt lat="50.35833" lon="1.66518">
        <ele>9</ele>
        <time>2020-06-18T18:08:58Z</time>
      </trkpt>
      <trkpt lat="50.35841" lon="1.66519">
        <ele>8.8</ele>
        <time>2020-06-18T18:08:59Z</time>
      </trkpt>
      <trkpt lat="50.3585" lon="1.6652">
        <ele>8.7</ele>
        <time>2020-06-18T18:09:00Z</time>
      </trkpt>
      <trkpt lat="50.35858" lon="1.66522">
        <ele>8.5</ele>
        <time>2020-06-18T18:09:01Z</time>
      </trkpt>
      <trkpt lat="50.35866" lon="1.66523">
        <ele>8.2</ele>
        <time>2020-06-18T18:09:02Z</time>
      </trkpt>
      <trkpt lat="50.35874" lon="1.66525">
        <ele>8</ele>
        <time>2020-06-18T18:09:03Z</time>
      </trkpt>
      <trkpt lat="50.35883" lon="1.66526">
        <ele>7.9</ele>
        <time>2020-06-18T18:09:04Z</time>
      </trkpt>
      <trkpt lat="50.35891" lon="1.66527">
        <ele>7.8</ele>
        <time>2020-06-18T18:09:05Z</time>
      </trkpt>
      <trkpt lat="50.35899" lon="1.66526">
        <ele>7.7</ele>
        <time>2020-06-18T18:09:06Z</time>
      </trkpt>
      <trkpt lat="50.35908" lon="1.66524">
        <ele>7.6</ele>
        <time>2020-06-18T18:09:07Z</time>
      </trkpt>
      <trkpt lat="50.35916" lon="1.66521">
        <ele>7.5</ele>
        <time>2020-06-18T18:09:08Z</time>
      </trkpt>
      <trkpt lat="50.35925" lon="1.66518">
        <ele>7.4</ele>
        <time>2020-06-18T18:09:09Z</time>
      </trkpt>
      <trkpt lat="50.35933" lon="1.66515">
        <ele>7.4</ele>
        <time>2020-06-18T18:09:10Z</time>
      </trkpt>
      <trkpt lat="50.35941" lon="1.66513">
        <ele>7.4</ele>
        <time>2020-06-18T18:09:11Z</time>
      </trkpt>
      <trkpt lat="50.3595" lon="1.66509">
        <ele>7.4</ele>
        <time>2020-06-18T18:09:12Z</time>
      </trkpt>
      <trkpt lat="50.35957" lon="1.66504">
        <ele>7.4</ele>
        <time>2020-06-18T18:09:13Z</time>
      </trkpt>
      <trkpt lat="50.35964" lon="1.66499">
        <ele>7.4</ele>
        <time>2020-06-18T18:09:14Z</time>
      </trkpt>
      <trkpt lat="50.35971" lon="1.66495">
        <ele>7.6</ele>
        <time>2020-06-18T18:09:15Z</time>
      </trkpt>
      <trkpt lat="50.35978" lon="1.6649">
        <ele>7.7</ele>
        <time>2020-06-18T18:09:16Z</time>
      </trkpt>
      <trkpt lat="50.35985" lon="1.66484">
        <ele>7.9</ele>
        <time>2020-06-18T18:09:17Z</time>
      </trkpt>
      <trkpt lat="50.35991" lon="1.66479">
        <ele>8.1</ele>
        <time>2020-06-18T18:09:18Z</time>
      </trkpt>
      <trkpt lat="50.35997" lon="1.66475">
        <ele>8.3</ele>
        <time>2020-06-18T18:09:19Z</time>
      </trkpt>
      <trkpt lat="50.36003" lon="1.6647">
        <ele>8.4</ele>
        <time>2020-06-18T18:09:20Z</time>
      </trkpt>
      <trkpt lat="50.36008" lon="1.66466">
        <ele>8.6</ele>
        <time>2020-06-18T18:09:21Z</time>
      </trkpt>
      <trkpt lat="50.36013" lon="1.66462">
        <ele>8.7</ele>
        <time>2020-06-18T18:09:22Z</time>
      </trkpt>
      <trkpt lat="50.36018" lon="1.66459">
        <ele>8.8</ele>
        <time>2020-06-18T18:09:23Z</time>
      </trkpt>
      <trkpt lat="50.36023" lon="1.66455">
        <ele>8.9</ele>
        <time>2020-06-18T18:09:24Z</time>
      </trkpt>
      <trkpt lat="50.36028" lon="1.66453">
        <ele>8.9</ele>
        <time>2020-06-18T18:09:25Z</time>
      </trkpt>
      <trkpt lat="50.36033" lon="1.66451">
        <ele>8.9</ele>
        <time>2020-06-18T18:09:26Z</time>
      </trkpt>
      <trkpt lat="50.36037" lon="1.66448">
        <ele>9</ele>
        <time>2020-06-18T18:09:27Z</time>
      </trkpt>
      <trkpt lat="50.36042" lon="1.66447">
        <ele>9</ele>
        <time>2020-06-18T18:09:28Z</time>
      </trkpt>
      <trkpt lat="50.36048" lon="1.66446">
        <ele>9</ele>
        <time>2020-06-18T18:09:29Z</time>
      </trkpt>
      <trkpt lat="50.36053" lon="1.66448">
        <ele>9</ele>
        <time>2020-06-18T18:09:30Z</time>
      </trkpt>
      <trkpt lat="50.36059" lon="1.6645">
        <ele>8.9</ele>
        <time>2020-06-18T18:09:31Z</time>
      </trkpt>
      <trkpt lat="50.36065" lon="1.66451">
        <ele>8.9</ele>
        <time>2020-06-18T18:09:32Z</time>
      </trkpt>
      <trkpt lat="50.36071" lon="1.66453">
        <ele>8.9</ele>
        <time>2020-06-18T18:09:33Z</time>
      </trkpt>
      <trkpt lat="50.36077" lon="1.66453">
        <ele>8.8</ele>
        <time>2020-06-18T18:09:34Z</time>
      </trkpt>
      <trkpt lat="50.36084" lon="1.66454">
        <ele>8.8</ele>
        <time>2020-06-18T18:09:35Z</time>
      </trkpt>
      <trkpt lat="50.3609" lon="1.66453">
        <ele>8.7</ele>
        <time>2020-06-18T18:09:36Z</time>
      </trkpt>
      <trkpt lat="50.36097" lon="1.66452">
        <ele>8.7</ele>
        <time>2020-06-18T18:09:37Z</time>
      </trkpt>
      <trkpt lat="50.36103" lon="1.66454">
        <ele>8.7</ele>
        <time>2020-06-18T18:09:38Z</time>
      </trkpt>
      <trkpt lat="50.36111" lon="1.66456">
        <ele>8.7</ele>
        <time>2020-06-18T18:09:39Z</time>
      </trkpt>
      <trkpt lat="50.36119" lon="1.66459">
        <ele>8.6</ele>
        <time>2020-06-18T18:09:40Z</time>
      </trkpt>
      <trkpt lat="50.36127" lon="1.6646">
        <ele>8.6</ele>
        <time>2020-06-18T18:09:41Z</time>
      </trkpt>
      <trkpt lat="50.36137" lon="1.66462">
        <ele>8.5</ele>
        <time>2020-06-18T18:09:42Z</time>
      </trkpt>
      <trkpt lat="50.36146" lon="1.66463">
        <ele>8.5</ele>
        <time>2020-06-18T18:09:43Z</time>
      </trkpt>
      <trkpt lat="50.36155" lon="1.66466">
        <ele>8.5</ele>
        <time>2020-06-18T18:09:44Z</time>
      </trkpt>
      <trkpt lat="50.36164" lon="1.66467">
        <ele>8.5</ele>
        <time>2020-06-18T18:09:45Z</time>
      </trkpt>
      <trkpt lat="50.36173" lon="1.66469">
        <ele>8.4</ele>
        <time>2020-06-18T18:09:46Z</time>
      </trkpt>
      <trkpt lat="50.36182" lon="1.6647">
        <ele>8.4</ele>
        <time>2020-06-18T18:09:47Z</time>
      </trkpt>
      <trkpt lat="50.36191" lon="1.66472">
        <ele>8.3</ele>
        <time>2020-06-18T18:09:48Z</time>
      </trkpt>
      <trkpt lat="50.362" lon="1.66473">
        <ele>8.3</ele>
        <time>2020-06-18T18:09:49Z</time>
      </trkpt>
      <trkpt lat="50.3621" lon="1.66476">
        <ele>8.3</ele>
        <time>2020-06-18T18:09:50Z</time>
      </trkpt>
      <trkpt lat="50.36218" lon="1.66479">
        <ele>8.3</ele>
        <time>2020-06-18T18:09:51Z</time>
      </trkpt>
      <trkpt lat="50.36227" lon="1.6648">
        <ele>8.4</ele>
        <time>2020-06-18T18:09:52Z</time>
      </trkpt>
      <trkpt lat="50.36236" lon="1.66481">
        <ele>8.4</ele>
        <time>2020-06-18T18:09:53Z</time>
      </trkpt>
      <trkpt lat="50.36245" lon="1.66483">
        <ele>8.4</ele>
        <time>2020-06-18T18:09:54Z</time>
      </trkpt>
      <trkpt lat="50.36253" lon="1.66484">
        <ele>8.4</ele>
        <time>2020-06-18T18:09:55Z</time>
      </trkpt>
      <trkpt lat="50.36261" lon="1.66484">
        <ele>8.4</ele>
        <time>2020-06-18T18:09:56Z</time>
      </trkpt>
      <trkpt lat="50.36269" lon="1.66485">
        <ele>8.4</ele>
        <time>2020-06-18T18:09:57Z</time>
      </trkpt>
      <trkpt lat="50.36276" lon="1.66486">
        <ele>8.5</ele>
        <time>2020-06-18T18:09:58Z</time>
      </trkpt>
      <trkpt lat="50.36283" lon="1.66487">
        <ele>8.5</ele>
        <time>2020-06-18T18:09:59Z</time>
      </trkpt>
      <trkpt lat="50.3629" lon="1.66488">
        <ele>8.6</ele>
        <time>2020-06-18T18:10:00Z</time>
      </trkpt>
      <trkpt lat="50.36297" lon="1.6649">
        <ele>8.7</ele>
        <time>2020-06-18T18:10:01Z</time>
      </trkpt>
      <trkpt lat="50.36304" lon="1.66492">
        <ele>8.8</ele>
        <time>2020-06-18T18:10:02Z</time>
      </trkpt>
      <trkpt lat="50.36311" lon="1.66493">
        <ele>8.9</ele>
        <time>2020-06-18T18:10:03Z</time>
      </trkpt>
      <trkpt lat="50.36317" lon="1.66495">
        <ele>9</ele>
        <time>2020-06-18T18:10:04Z</time>
      </trkpt>
      <trkpt lat="50.36324" lon="1.66496">
        <ele>9.2</ele>
        <time>2020-06-18T18:10:05Z</time>
      </trkpt>
      <trkpt lat="50.3633" lon="1.66496">
        <ele>9.3</ele>
        <time>2020-06-18T18:10:06Z</time>
      </trkpt>
      <trkpt lat="50.36337" lon="1.66497">
        <ele>9.4</ele>
        <time>2020-06-18T18:10:07Z</time>
      </trkpt>
      <trkpt lat="50.36343" lon="1.66497">
        <ele>9.5</ele>
        <time>2020-06-18T18:10:08Z</time>
      </trkpt>
      <trkpt lat="50.3635" lon="1.66499">
        <ele>9.6</ele>
        <time>2020-06-18T18:10:09Z</time>
      </trkpt>
      <trkpt lat="50.36355" lon="1.665">
        <ele>9.7</ele>
        <time>2020-06-18T18:10:10Z</time>
      </trkpt>
      <trkpt lat="50.36361" lon="1.66501">
        <ele>9.8</ele>
        <time>2020-06-18T18:10:11Z</time>
      </trkpt>
      <trkpt lat="50.36367" lon="1.66503">
        <ele>9.9</ele>
        <time>2020-06-18T18:10:12Z</time>
      </trkpt>
      <trkpt lat="50.36372" lon="1.66504">
        <ele>10</ele>
        <time>2020-06-18T18:10:13Z</time>
      </trkpt>
      <trkpt lat="50.36378" lon="1.66505">
        <ele>10.1</ele>
        <time>2020-06-18T18:10:14Z</time>
      </trkpt>
      <trkpt lat="50.36384" lon="1.66507">
        <ele>10.2</ele>
        <time>2020-06-18T18:10:15Z</time>
      </trkpt>
      <trkpt lat="50.3639" lon="1.66508">
        <ele>10.3</ele>
        <time>2020-06-18T18:10:16Z</time>
      </trkpt>
      <trkpt lat="50.36395" lon="1.66508">
        <ele>10.3</ele>
        <time>2020-06-18T18:10:17Z</time>
      </trkpt>
      <trkpt lat="50.36401" lon="1.66507">
        <ele>10.3</ele>
        <time>2020-06-18T18:10:18Z</time>
      </trkpt>
      <trkpt lat="50.36406" lon="1.66507">
        <ele>10.4</ele>
        <time>2020-06-18T18:10:19Z</time>
      </trkpt>
      <trkpt lat="50.36412" lon="1.66508">
        <ele>10.4</ele>
        <time>2020-06-18T18:10:20Z</time>
      </trkpt>
      <trkpt lat="50.36418" lon="1.66509">
        <ele>10.5</ele>
        <time>2020-06-18T18:10:21Z</time>
      </trkpt>
      <trkpt lat="50.36423" lon="1.6651">
        <ele>10.6</ele>
        <time>2020-06-18T18:10:22Z</time>
      </trkpt>
      <trkpt lat="50.36429" lon="1.6651">
        <ele>10.6</ele>
        <time>2020-06-18T18:10:23Z</time>
      </trkpt>
      <trkpt lat="50.36434" lon="1.6651">
        <ele>10.7</ele>
        <time>2020-06-18T18:10:24Z</time>
      </trkpt>
      <trkpt lat="50.36441" lon="1.66511">
        <ele>10.7</ele>
        <time>2020-06-18T18:10:25Z</time>
      </trkpt>
      <trkpt lat="50.36449" lon="1.66512">
        <ele>10.8</ele>
        <time>2020-06-18T18:10:26Z</time>
      </trkpt>
      <trkpt lat="50.36455" lon="1.66513">
        <ele>10.9</ele>
        <time>2020-06-18T18:10:27Z</time>
      </trkpt>
      <trkpt lat="50.36462" lon="1.66513">
        <ele>10.9</ele>
        <time>2020-06-18T18:10:28Z</time>
      </trkpt>
      <trkpt lat="50.36468" lon="1.66514">
        <ele>11</ele>
        <time>2020-06-18T18:10:29Z</time>
      </trkpt>
      <trkpt lat="50.36473" lon="1.66514">
        <ele>11</ele>
        <time>2020-06-18T18:10:30Z</time>
      </trkpt>
      <trkpt lat="50.36477" lon="1.66514">
        <ele>11.1</ele>
        <time>2020-06-18T18:10:31Z</time>
      </trkpt>
      <trkpt lat="50.36482" lon="1.66512">
        <ele>11.1</ele>
        <time>2020-06-18T18:10:32Z</time>
      </trkpt>
      <trkpt lat="50.36488" lon="1.66513">
        <ele>11.2</ele>
        <time>2020-06-18T18:10:33Z</time>
      </trkpt>
      <trkpt lat="50.36494" lon="1.66513">
        <ele>11.2</ele>
        <time>2020-06-18T18:10:34Z</time>
      </trkpt>
      <trkpt lat="50.365" lon="1.66515">
        <ele>11.3</ele>
        <time>2020-06-18T18:10:35Z</time>
      </trkpt>
      <trkpt lat="50.36505" lon="1.66516">
        <ele>11.3</ele>
        <time>2020-06-18T18:10:36Z</time>
      </trkpt>
      <trkpt lat="50.36511" lon="1.66516">
        <ele>11.4</ele>
        <time>2020-06-18T18:10:37Z</time>
      </trkpt>
      <trkpt lat="50.36517" lon="1.66516">
        <ele>11.4</ele>
        <time>2020-06-18T18:10:38Z</time>
      </trkpt>
      <trkpt lat="50.36521" lon="1.66516">
        <ele>11.4</ele>
        <time>2020-06-18T18:10:39Z</time>
      </trkpt>
      <trkpt lat="50.36525" lon="1.66515">
        <ele>11.4</ele>
        <time>2020-06-18T18:10:40Z</time>
      </trkpt>
      <trkpt lat="50.3653" lon="1.66515">
        <ele>11.5</ele>
        <time>2020-06-18T18:10:41Z</time>
      </trkpt>
      <trkpt lat="50.36535" lon="1.66513">
        <ele>11.5</ele>
        <time>2020-06-18T18:10:42Z</time>
      </trkpt>
      <trkpt lat="50.36539" lon="1.66511">
        <ele>11.6</ele>
        <time>2020-06-18T18:10:43Z</time>
      </trkpt>
      <trkpt lat="50.36542" lon="1.6651">
        <ele>11.6</ele>
        <time>2020-06-18T18:10:44Z</time>
      </trkpt>
      <trkpt lat="50.36546" lon="1.6651">
        <ele>11.6</ele>
        <time>2020-06-18T18:10:45Z</time>
      </trkpt>
      <trkpt lat="50.3655" lon="1.66507">
        <ele>11.6</ele>
        <time>2020-06-18T18:10:46Z</time>
      </trkpt>
      <trkpt lat="50.36555" lon="1.66507">
        <ele>11.6</ele>
        <time>2020-06-18T18:10:47Z</time>
      </trkpt>
      <trkpt lat="50.36558" lon="1.66507">
        <ele>11.6</ele>
        <time>2020-06-18T18:10:48Z</time>
      </trkpt>
      <trkpt lat="50.36563" lon="1.66507">
        <ele>11.6</ele>
        <time>2020-06-18T18:10:49Z</time>
      </trkpt>
      <trkpt lat="50.36567" lon="1.66507">
        <ele>11.5</ele>
        <time>2020-06-18T18:10:50Z</time>
      </trkpt>
      <trkpt lat="50.36571" lon="1.66506">
        <ele>11.5</ele>
        <time>2020-06-18T18:10:51Z</time>
      </trkpt>
      <trkpt lat="50.36575" lon="1.66505">
        <ele>11.4</ele>
        <time>2020-06-18T18:10:52Z</time>
      </trkpt>
      <trkpt lat="50.36578" lon="1.66503">
        <ele>11.4</ele>
        <time>2020-06-18T18:10:53Z</time>
      </trkpt>
      <trkpt lat="50.36583" lon="1.66502">
        <ele>11.3</ele>
        <time>2020-06-18T18:10:54Z</time>
      </trkpt>
      <trkpt lat="50.36587" lon="1.66501">
        <ele>11.2</ele>
        <time>2020-06-18T18:10:55Z</time>
      </trkpt>
      <trkpt lat="50.36592" lon="1.66501">
        <ele>11.1</ele>
        <time>2020-06-18T18:10:56Z</time>
      </trkpt>
      <trkpt lat="50.36597" lon="1.665">
        <ele>11</ele>
        <time>2020-06-18T18:10:57Z</time>
      </trkpt>
      <trkpt lat="50.36603" lon="1.665">
        <ele>10.9</ele>
        <time>2020-06-18T18:10:58Z</time>
      </trkpt>
      <trkpt lat="50.36609" lon="1.66499">
        <ele>10.8</ele>
        <time>2020-06-18T18:10:59Z</time>
      </trkpt>
      <trkpt lat="50.36614" lon="1.66498">
        <ele>10.6</ele>
        <time>2020-06-18T18:11:00Z</time>
      </trkpt>
      <trkpt lat="50.3662" lon="1.66496">
        <ele>10.5</ele>
        <time>2020-06-18T18:11:01Z</time>
      </trkpt>
      <trkpt lat="50.36626" lon="1.66496">
        <ele>10.3</ele>
        <time>2020-06-18T18:11:02Z</time>
      </trkpt>
      <trkpt lat="50.36633" lon="1.66496">
        <ele>10.2</ele>
        <time>2020-06-18T18:11:03Z</time>
      </trkpt>
      <trkpt lat="50.36639" lon="1.66497">
        <ele>10</ele>
        <time>2020-06-18T18:11:04Z</time>
      </trkpt>
      <trkpt lat="50.36644" lon="1.66496">
        <ele>9.7</ele>
        <time>2020-06-18T18:11:05Z</time>
      </trkpt>
      <trkpt lat="50.36651" lon="1.66496">
        <ele>9.4</ele>
        <time>2020-06-18T18:11:06Z</time>
      </trkpt>
      <trkpt lat="50.36659" lon="1.66496">
        <ele>9.2</ele>
        <time>2020-06-18T18:11:07Z</time>
      </trkpt>
      <trkpt lat="50.36667" lon="1.66494">
        <ele>9</ele>
        <time>2020-06-18T18:11:08Z</time>
      </trkpt>
      <trkpt lat="50.36674" lon="1.66494">
        <ele>8.8</ele>
        <time>2020-06-18T18:11:09Z</time>
      </trkpt>
      <trkpt lat="50.36681" lon="1.66494">
        <ele>8.5</ele>
        <time>2020-06-18T18:11:10Z</time>
      </trkpt>
      <trkpt lat="50.36689" lon="1.66494">
        <ele>8.3</ele>
        <time>2020-06-18T18:11:11Z</time>
      </trkpt>
      <trkpt lat="50.36697" lon="1.66494">
        <ele>8.1</ele>
        <time>2020-06-18T18:11:12Z</time>
      </trkpt>
      <trkpt lat="50.36704" lon="1.66494">
        <ele>7.9</ele>
        <time>2020-06-18T18:11:13Z</time>
      </trkpt>
      <trkpt lat="50.36711" lon="1.66494">
        <ele>7.8</ele>
        <time>2020-06-18T18:11:14Z</time>
      </trkpt>
      <trkpt lat="50.36718" lon="1.66494">
        <ele>7.6</ele>
        <time>2020-06-18T18:11:15Z</time>
      </trkpt>
      <trkpt lat="50.36725" lon="1.66493">
        <ele>7.5</ele>
        <time>2020-06-18T18:11:16Z</time>
      </trkpt>
      <trkpt lat="50.36732" lon="1.66494">
        <ele>7.3</ele>
        <time>2020-06-18T18:11:17Z</time>
      </trkpt>
      <trkpt lat="50.36739" lon="1.66494">
        <ele>7.1</ele>
        <time>2020-06-18T18:11:18Z</time>
      </trkpt>
      <trkpt lat="50.36746" lon="1.66493">
        <ele>6.9</ele>
        <time>2020-06-18T18:11:19Z</time>
      </trkpt>
      <trkpt lat="50.36753" lon="1.66493">
        <ele>6.8</ele>
        <time>2020-06-18T18:11:20Z</time>
      </trkpt>
      <trkpt lat="50.3676" lon="1.66494">
        <ele>6.6</ele>
        <time>2020-06-18T18:11:21Z</time>
      </trkpt>
      <trkpt lat="50.36767" lon="1.66493">
        <ele>6.6</ele>
        <time>2020-06-18T18:11:22Z</time>
      </trkpt>
      <trkpt lat="50.36773" lon="1.66492">
        <ele>6.5</ele>
        <time>2020-06-18T18:11:23Z</time>
      </trkpt>
      <trkpt lat="50.3678" lon="1.66491">
        <ele>6.4</ele>
        <time>2020-06-18T18:11:24Z</time>
      </trkpt>
      <trkpt lat="50.36788" lon="1.66489">
        <ele>6.4</ele>
        <time>2020-06-18T18:11:25Z</time>
      </trkpt>
      <trkpt lat="50.36795" lon="1.66487">
        <ele>6.4</ele>
        <time>2020-06-18T18:11:26Z</time>
      </trkpt>
      <trkpt lat="50.36802" lon="1.66485">
        <ele>6.3</ele>
        <time>2020-06-18T18:11:27Z</time>
      </trkpt>
      <trkpt lat="50.36809" lon="1.66483">
        <ele>6.3</ele>
        <time>2020-06-18T18:11:28Z</time>
      </trkpt>
      <trkpt lat="50.36816" lon="1.6648">
        <ele>6.3</ele>
        <time>2020-06-18T18:11:29Z</time>
      </trkpt>
      <trkpt lat="50.36823" lon="1.66477">
        <ele>6.3</ele>
        <time>2020-06-18T18:11:30Z</time>
      </trkpt>
      <trkpt lat="50.3683" lon="1.66474">
        <ele>6.2</ele>
        <time>2020-06-18T18:11:31Z</time>
      </trkpt>
      <trkpt lat="50.36837" lon="1.66472">
        <ele>6.2</ele>
        <time>2020-06-18T18:11:32Z</time>
      </trkpt>
      <trkpt lat="50.36844" lon="1.6647">
        <ele>6.2</ele>
        <time>2020-06-18T18:11:33Z</time>
      </trkpt>
      <trkpt lat="50.36851" lon="1.66468">
        <ele>6.2</ele>
        <time>2020-06-18T18:11:34Z</time>
      </trkpt>
      <trkpt lat="50.36858" lon="1.66466">
        <ele>6.2</ele>
        <time>2020-06-18T18:11:35Z</time>
      </trkpt>
      <trkpt lat="50.36866" lon="1.66463">
        <ele>6.2</ele>
        <time>2020-06-18T18:11:36Z</time>
      </trkpt>
      <trkpt lat="50.36873" lon="1.66461">
        <ele>6.2</ele>
        <time>2020-06-18T18:11:37Z</time>
      </trkpt>
      <trkpt lat="50.36881" lon="1.66459">
        <ele>6.2</ele>
        <time>2020-06-18T18:11:38Z</time>
      </trkpt>
      <trkpt lat="50.36889" lon="1.66457">
        <ele>6.2</ele>
        <time>2020-06-18T18:11:39Z</time>
      </trkpt>
      <trkpt lat="50.36896" lon="1.66454">
        <ele>6.2</ele>
        <time>2020-06-18T18:11:40Z</time>
      </trkpt>
      <trkpt lat="50.36903" lon="1.66452">
        <ele>6.2</ele>
        <time>2020-06-18T18:11:41Z</time>
      </trkpt>
      <trkpt lat="50.3691" lon="1.66451">
        <ele>6.2</ele>
        <time>2020-06-18T18:11:42Z</time>
      </trkpt>
      <trkpt lat="50.36917" lon="1.6645">
        <ele>6.2</ele>
        <time>2020-06-18T18:11:43Z</time>
      </trkpt>
      <trkpt lat="50.36924" lon="1.66448">
        <ele>6.2</ele>
        <time>2020-06-18T18:11:44Z</time>
      </trkpt>
      <trkpt lat="50.3693" lon="1.66447">
        <ele>6.1</ele>
        <time>2020-06-18T18:11:45Z</time>
      </trkpt>
      <trkpt lat="50.36937" lon="1.66445">
        <ele>6.1</ele>
        <time>2020-06-18T18:11:46Z</time>
      </trkpt>
      <trkpt lat="50.36944" lon="1.66443">
        <ele>6.1</ele>
        <time>2020-06-18T18:11:47Z</time>
      </trkpt>
      <trkpt lat="50.36951" lon="1.66441">
        <ele>6.1</ele>
        <time>2020-06-18T18:11:48Z</time>
      </trkpt>
      <trkpt lat="50.36958" lon="1.6644">
        <ele>6.2</ele>
        <time>2020-06-18T18:11:49Z</time>
      </trkpt>
      <trkpt lat="50.36965" lon="1.66439">
        <ele>6.2</ele>
        <time>2020-06-18T18:11:50Z</time>
      </trkpt>
      <trkpt lat="50.36972" lon="1.66437">
        <ele>6.2</ele>
        <time>2020-06-18T18:11:51Z</time>
      </trkpt>
      <trkpt lat="50.36978" lon="1.66436">
        <ele>6.2</ele>
        <time>2020-06-18T18:11:52Z</time>
      </trkpt>
      <trkpt lat="50.36985" lon="1.66434">
        <ele>6.3</ele>
        <time>2020-06-18T18:11:53Z</time>
      </trkpt>
      <trkpt lat="50.36992" lon="1.66433">
        <ele>6.3</ele>
        <time>2020-06-18T18:11:54Z</time>
      </trkpt>
      <trkpt lat="50.36999" lon="1.66431">
        <ele>6.3</ele>
        <time>2020-06-18T18:11:55Z</time>
      </trkpt>
      <trkpt lat="50.37006" lon="1.66429">
        <ele>6.4</ele>
        <time>2020-06-18T18:11:56Z</time>
      </trkpt>
      <trkpt lat="50.37012" lon="1.66428">
        <ele>6.4</ele>
        <time>2020-06-18T18:11:57Z</time>
      </trkpt>
      <trkpt lat="50.37018" lon="1.66426">
        <ele>6.5</ele>
        <time>2020-06-18T18:11:58Z</time>
      </trkpt>
      <trkpt lat="50.37025" lon="1.66424">
        <ele>6.5</ele>
        <time>2020-06-18T18:11:59Z</time>
      </trkpt>
      <trkpt lat="50.37031" lon="1.66424">
        <ele>6.6</ele>
        <time>2020-06-18T18:12:00Z</time>
      </trkpt>
      <trkpt lat="50.37036" lon="1.66421">
        <ele>6.7</ele>
        <time>2020-06-18T18:12:01Z</time>
      </trkpt>
      <trkpt lat="50.37041" lon="1.66419">
        <ele>6.7</ele>
        <time>2020-06-18T18:12:02Z</time>
      </trkpt>
      <trkpt lat="50.37046" lon="1.66417">
        <ele>6.8</ele>
        <time>2020-06-18T18:12:03Z</time>
      </trkpt>
      <trkpt lat="50.37051" lon="1.66415">
        <ele>6.9</ele>
        <time>2020-06-18T18:12:04Z</time>
      </trkpt>
      <trkpt lat="50.37056" lon="1.66413">
        <ele>6.9</ele>
        <time>2020-06-18T18:12:05Z</time>
      </trkpt>
      <trkpt lat="50.3706" lon="1.66412">
        <ele>6.9</ele>
        <time>2020-06-18T18:12:06Z</time>
      </trkpt>
      <trkpt lat="50.37064" lon="1.6641">
        <ele>6.9</ele>
        <time>2020-06-18T18:12:07Z</time>
      </trkpt>
      <trkpt lat="50.37068" lon="1.66408">
        <ele>6.9</ele>
        <time>2020-06-18T18:12:08Z</time>
      </trkpt>
      <trkpt lat="50.37072" lon="1.66405">
        <ele>6.9</ele>
        <time>2020-06-18T18:12:09Z</time>
      </trkpt>
      <trkpt lat="50.37076" lon="1.66403">
        <ele>7</ele>
        <time>2020-06-18T18:12:10Z</time>
      </trkpt>
      <trkpt lat="50.37079" lon="1.66401">
        <ele>6.9</ele>
        <time>2020-06-18T18:12:11Z</time>
      </trkpt>
      <trkpt lat="50.37082" lon="1.66398">
        <ele>6.8</ele>
        <time>2020-06-18T18:12:12Z</time>
      </trkpt>
      <trkpt lat="50.37085" lon="1.66395">
        <ele>6.7</ele>
        <time>2020-06-18T18:12:13Z</time>
      </trkpt>
      <trkpt lat="50.37088" lon="1.66392">
        <ele>6.6</ele>
        <time>2020-06-18T18:12:14Z</time>
      </trkpt>
      <trkpt lat="50.37092" lon="1.66391">
        <ele>6.6</ele>
        <time>2020-06-18T18:12:15Z</time>
      </trkpt>
      <trkpt lat="50.37095" lon="1.66389">
        <ele>6.5</ele>
        <time>2020-06-18T18:12:16Z</time>
      </trkpt>
      <trkpt lat="50.37098" lon="1.66388">
        <ele>6.5</ele>
        <time>2020-06-18T18:12:17Z</time>
      </trkpt>
      <trkpt lat="50.37102" lon="1.66387">
        <ele>6.4</ele>
        <time>2020-06-18T18:12:18Z</time>
      </trkpt>
      <trkpt lat="50.37105" lon="1.66383">
        <ele>6.4</ele>
        <time>2020-06-18T18:12:19Z</time>
      </trkpt>
      <trkpt lat="50.37108" lon="1.6638">
        <ele>6.3</ele>
        <time>2020-06-18T18:12:20Z</time>
      </trkpt>
      <trkpt lat="50.37111" lon="1.66376">
        <ele>6.3</ele>
        <time>2020-06-18T18:12:21Z</time>
      </trkpt>
      <trkpt lat="50.37114" lon="1.66374">
        <ele>6.3</ele>
        <time>2020-06-18T18:12:22Z</time>
      </trkpt>
      <trkpt lat="50.37117" lon="1.66373">
        <ele>6.2</ele>
        <time>2020-06-18T18:12:23Z</time>
      </trkpt>
      <trkpt lat="50.37121" lon="1.6637">
        <ele>6.2</ele>
        <time>2020-06-18T18:12:24Z</time>
      </trkpt>
      <trkpt lat="50.37125" lon="1.66368">
        <ele>6.2</ele>
        <time>2020-06-18T18:12:25Z</time>
      </trkpt>
      <trkpt lat="50.37129" lon="1.66365">
        <ele>6.3</ele>
        <time>2020-06-18T18:12:26Z</time>
      </trkpt>
      <trkpt lat="50.37134" lon="1.66362">
        <ele>6.3</ele>
        <time>2020-06-18T18:12:27Z</time>
      </trkpt>
      <trkpt lat="50.37139" lon="1.66358">
        <ele>6.3</ele>
        <time>2020-06-18T18:12:28Z</time>
      </trkpt>
      <trkpt lat="50.37143" lon="1.66354">
        <ele>6.3</ele>
        <time>2020-06-18T18:12:29Z</time>
      </trkpt>
      <trkpt lat="50.37149" lon="1.66351">
        <ele>6.3</ele>
        <time>2020-06-18T18:12:30Z</time>
      </trkpt>
      <trkpt lat="50.37154" lon="1.66348">
        <ele>6.4</ele>
        <time>2020-06-18T18:12:31Z</time>
      </trkpt>
      <trkpt lat="50.37159" lon="1.66344">
        <ele>6.4</ele>
        <time>2020-06-18T18:12:32Z</time>
      </trkpt>
      <trkpt lat="50.37164" lon="1.66341">
        <ele>6.4</ele>
        <time>2020-06-18T18:12:33Z</time>
      </trkpt>
      <trkpt lat="50.37169" lon="1.66337">
        <ele>6.5</ele>
        <time>2020-06-18T18:12:34Z</time>
      </trkpt>
      <trkpt lat="50.37174" lon="1.66334">
        <ele>6.5</ele>
        <time>2020-06-18T18:12:35Z</time>
      </trkpt>
      <trkpt lat="50.37179" lon="1.6633">
        <ele>6.5</ele>
        <time>2020-06-18T18:12:36Z</time>
      </trkpt>
      <trkpt lat="50.37184" lon="1.66325">
        <ele>6.5</ele>
        <time>2020-06-18T18:12:37Z</time>
      </trkpt>
      <trkpt lat="50.3719" lon="1.6632">
        <ele>6.6</ele>
        <time>2020-06-18T18:12:38Z</time>
      </trkpt>
      <trkpt lat="50.37195" lon="1.66313">
        <ele>6.6</ele>
        <time>2020-06-18T18:12:39Z</time>
      </trkpt>
      <trkpt lat="50.372" lon="1.66307">
        <ele>6.7</ele>
        <time>2020-06-18T18:12:40Z</time>
      </trkpt>
      <trkpt lat="50.37204" lon="1.66301">
        <ele>6.7</ele>
        <time>2020-06-18T18:12:41Z</time>
      </trkpt>
      <trkpt lat="50.37208" lon="1.66296">
        <ele>6.7</ele>
        <time>2020-06-18T18:12:42Z</time>
      </trkpt>
      <trkpt lat="50.37212" lon="1.66289">
        <ele>6.8</ele>
        <time>2020-06-18T18:12:43Z</time>
      </trkpt>
      <trkpt lat="50.37215" lon="1.66284">
        <ele>6.8</ele>
        <time>2020-06-18T18:12:44Z</time>
      </trkpt>
      <trkpt lat="50.37218" lon="1.66279">
        <ele>6.8</ele>
        <time>2020-06-18T18:12:45Z</time>
      </trkpt>
      <trkpt lat="50.37222" lon="1.66274">
        <ele>6.8</ele>
        <time>2020-06-18T18:12:46Z</time>
      </trkpt>
      <trkpt lat="50.37226" lon="1.66269">
        <ele>6.9</ele>
        <time>2020-06-18T18:12:47Z</time>
      </trkpt>
      <trkpt lat="50.3723" lon="1.66265">
        <ele>6.9</ele>
        <time>2020-06-18T18:12:48Z</time>
      </trkpt>
      <trkpt lat="50.37234" lon="1.66261">
        <ele>7</ele>
        <time>2020-06-18T18:12:49Z</time>
      </trkpt>
      <trkpt lat="50.37238" lon="1.66256">
        <ele>7</ele>
        <time>2020-06-18T18:12:50Z</time>
      </trkpt>
      <trkpt lat="50.37242" lon="1.66252">
        <ele>7.1</ele>
        <time>2020-06-18T18:12:51Z</time>
      </trkpt>
      <trkpt lat="50.37247" lon="1.66246">
        <ele>7.1</ele>
        <time>2020-06-18T18:12:52Z</time>
      </trkpt>
      <trkpt lat="50.37251" lon="1.66242">
        <ele>7.2</ele>
        <time>2020-06-18T18:12:53Z</time>
      </trkpt>
      <trkpt lat="50.37257" lon="1.66235">
        <ele>7.3</ele>
        <time>2020-06-18T18:12:54Z</time>
      </trkpt>
      <trkpt lat="50.37262" lon="1.66231">
        <ele>7.3</ele>
        <time>2020-06-18T18:12:55Z</time>
      </trkpt>
      <trkpt lat="50.37265" lon="1.66228">
        <ele>7.4</ele>
        <time>2020-06-18T18:12:56Z</time>
      </trkpt>
      <trkpt lat="50.3727" lon="1.66224">
        <ele>7.4</ele>
        <time>2020-06-18T18:12:57Z</time>
      </trkpt>
      <trkpt lat="50.37275" lon="1.6622">
        <ele>7.5</ele>
        <time>2020-06-18T18:12:58Z</time>
      </trkpt>
      <trkpt lat="50.37279" lon="1.66216">
        <ele>7.5</ele>
        <time>2020-06-18T18:12:59Z</time>
      </trkpt>
      <trkpt lat="50.37284" lon="1.66212">
        <ele>7.6</ele>
        <time>2020-06-18T18:13:00Z</time>
      </trkpt>
      <trkpt lat="50.37289" lon="1.66208">
        <ele>7.7</ele>
        <time>2020-06-18T18:13:01Z</time>
      </trkpt>
      <trkpt lat="50.37295" lon="1.66208">
        <ele>7.8</ele>
        <time>2020-06-18T18:13:02Z</time>
      </trkpt>
      <trkpt lat="50.373" lon="1.66205">
        <ele>7.9</ele>
        <time>2020-06-18T18:13:03Z</time>
      </trkpt>
      <trkpt lat="50.37305" lon="1.66201">
        <ele>8</ele>
        <time>2020-06-18T18:13:04Z</time>
      </trkpt>
      <trkpt lat="50.3731" lon="1.662">
        <ele>8.1</ele>
        <time>2020-06-18T18:13:05Z</time>
      </trkpt>
      <trkpt lat="50.37314" lon="1.66198">
        <ele>8.2</ele>
        <time>2020-06-18T18:13:06Z</time>
      </trkpt>
      <trkpt lat="50.37319" lon="1.66196">
        <ele>8.3</ele>
        <time>2020-06-18T18:13:07Z</time>
      </trkpt>
      <trkpt lat="50.37324" lon="1.66193">
        <ele>8.5</ele>
        <time>2020-06-18T18:13:08Z</time>
      </trkpt>
      <trkpt lat="50.37328" lon="1.6619">
        <ele>8.6</ele>
        <time>2020-06-18T18:13:09Z</time>
      </trkpt>
      <trkpt lat="50.37331" lon="1.66187">
        <ele>8.7</ele>
        <time>2020-06-18T18:13:10Z</time>
      </trkpt>
      <trkpt lat="50.37333" lon="1.66183">
        <ele>8.8</ele>
        <time>2020-06-18T18:13:11Z</time>
      </trkpt>
      <trkpt lat="50.37331" lon="1.66174">
        <ele>8.7</ele>
        <time>2020-06-18T18:13:12Z</time>
      </trkpt>
      <trkpt lat="50.3733" lon="1.66166">
        <ele>8.7</ele>
        <time>2020-06-18T18:13:13Z</time>
      </trkpt>
      <trkpt lat="50.37329" lon="1.6616">
        <ele>8.7</ele>
        <time>2020-06-18T18:13:14Z</time>
      </trkpt>
      <trkpt lat="50.37328" lon="1.66154">
        <ele>8.7</ele>
        <time>2020-06-18T18:13:15Z</time>
      </trkpt>
      <trkpt lat="50.37327" lon="1.66148">
        <ele>8.7</ele>
        <time>2020-06-18T18:13:16Z</time>
      </trkpt>
      <trkpt lat="50.37325" lon="1.66142">
        <ele>8.7</ele>
        <time>2020-06-18T18:13:17Z</time>
      </trkpt>
      <trkpt lat="50.37323" lon="1.66136">
        <ele>8.7</ele>
        <time>2020-06-18T18:13:18Z</time>
      </trkpt>
      <trkpt lat="50.37321" lon="1.6613">
        <ele>8.7</ele>
        <time>2020-06-18T18:13:19Z</time>
      </trkpt>
      <trkpt lat="50.3732" lon="1.66124">
        <ele>8.7</ele>
        <time>2020-06-18T18:13:20Z</time>
      </trkpt>
      <trkpt lat="50.37318" lon="1.66116">
        <ele>8.7</ele>
        <time>2020-06-18T18:13:21Z</time>
      </trkpt>
      <trkpt lat="50.37316" lon="1.66109">
        <ele>8.7</ele>
        <time>2020-06-18T18:13:22Z</time>
      </trkpt>
      <trkpt lat="50.37315" lon="1.66102">
        <ele>8.8</ele>
        <time>2020-06-18T18:13:23Z</time>
      </trkpt>
      <trkpt lat="50.37314" lon="1.66096">
        <ele>8.8</ele>
        <time>2020-06-18T18:13:24Z</time>
      </trkpt>
      <trkpt lat="50.37312" lon="1.6609">
        <ele>8.9</ele>
        <time>2020-06-18T18:13:25Z</time>
      </trkpt>
      <trkpt lat="50.37311" lon="1.66083">
        <ele>8.9</ele>
        <time>2020-06-18T18:13:26Z</time>
      </trkpt>
      <trkpt lat="50.3731" lon="1.66077">
        <ele>9</ele>
        <time>2020-06-18T18:13:27Z</time>
      </trkpt>
      <trkpt lat="50.37309" lon="1.6607">
        <ele>9.1</ele>
        <time>2020-06-18T18:13:28Z</time>
      </trkpt>
      <trkpt lat="50.37307" lon="1.66065">
        <ele>9.1</ele>
        <time>2020-06-18T18:13:29Z</time>
      </trkpt>
      <trkpt lat="50.37306" lon="1.66059">
        <ele>9.2</ele>
        <time>2020-06-18T18:13:30Z</time>
      </trkpt>
      <trkpt lat="50.37305" lon="1.66054">
        <ele>9.2</ele>
        <time>2020-06-18T18:13:31Z</time>
      </trkpt>
      <trkpt lat="50.37306" lon="1.6605">
        <ele>9.1</ele>
        <time>2020-06-18T18:13:32Z</time>
      </trkpt>
      <trkpt lat="50.37307" lon="1.66043">
        <ele>9.1</ele>
        <time>2020-06-18T18:13:33Z</time>
      </trkpt>
      <trkpt lat="50.37307" lon="1.6604">
        <ele>8.8</ele>
        <time>2020-06-18T18:13:34Z</time>
      </trkpt>
      <trkpt lat="50.37309" lon="1.66035">
        <ele>8.8</ele>
        <time>2020-06-18T18:13:35Z</time>
      </trkpt>
      <trkpt lat="50.37309" lon="1.66033">
        <ele>8.8</ele>
        <time>2020-06-18T18:13:36Z</time>
      </trkpt>
      <trkpt lat="50.37312" lon="1.66029">
        <ele>8.8</ele>
        <time>2020-06-18T18:13:37Z</time>
      </trkpt>
      <trkpt lat="50.37314" lon="1.66027">
        <ele>8.8</ele>
        <time>2020-06-18T18:13:38Z</time>
      </trkpt>
      <trkpt lat="50.37316" lon="1.66026">
        <ele>8.8</ele>
        <time>2020-06-18T18:13:39Z</time>
      </trkpt>
      <trkpt lat="50.3732" lon="1.66024">
        <ele>8.8</ele>
        <time>2020-06-18T18:13:40Z</time>
      </trkpt>
      <trkpt lat="50.37324" lon="1.66023">
        <ele>8.8</ele>
        <time>2020-06-18T18:13:41Z</time>
      </trkpt>
      <trkpt lat="50.37328" lon="1.66021">
        <ele>8.8</ele>
        <time>2020-06-18T18:13:42Z</time>
      </trkpt>
      <trkpt lat="50.37333" lon="1.6602">
        <ele>8.8</ele>
        <time>2020-06-18T18:13:43Z</time>
      </trkpt>
      <trkpt lat="50.37338" lon="1.66019">
        <ele>8.8</ele>
        <time>2020-06-18T18:13:44Z</time>
      </trkpt>
      <trkpt lat="50.37342" lon="1.66019">
        <ele>8.8</ele>
        <time>2020-06-18T18:13:45Z</time>
      </trkpt>
      <trkpt lat="50.37346" lon="1.66018">
        <ele>8.9</ele>
        <time>2020-06-18T18:13:46Z</time>
      </trkpt>
      <trkpt lat="50.37351" lon="1.66016">
        <ele>8.9</ele>
        <time>2020-06-18T18:13:47Z</time>
      </trkpt>
      <trkpt lat="50.37355" lon="1.66013">
        <ele>8.9</ele>
        <time>2020-06-18T18:13:48Z</time>
      </trkpt>
      <trkpt lat="50.3736" lon="1.66011">
        <ele>8.9</ele>
        <time>2020-06-18T18:13:49Z</time>
      </trkpt>
      <trkpt lat="50.37365" lon="1.66008">
        <ele>9</ele>
        <time>2020-06-18T18:13:50Z</time>
      </trkpt>
      <trkpt lat="50.37371" lon="1.66007">
        <ele>9</ele>
        <time>2020-06-18T18:13:51Z</time>
      </trkpt>
      <trkpt lat="50.37376" lon="1.66004">
        <ele>9</ele>
        <time>2020-06-18T18:13:52Z</time>
      </trkpt>
      <trkpt lat="50.37382" lon="1.66">
        <ele>9</ele>
        <time>2020-06-18T18:13:53Z</time>
      </trkpt>
      <trkpt lat="50.37388" lon="1.65997">
        <ele>9.1</ele>
        <time>2020-06-18T18:13:54Z</time>
      </trkpt>
      <trkpt lat="50.37395" lon="1.65994">
        <ele>9.1</ele>
        <time>2020-06-18T18:13:55Z</time>
      </trkpt>
      <trkpt lat="50.37401" lon="1.65991">
        <ele>9.2</ele>
        <time>2020-06-18T18:13:56Z</time>
      </trkpt>
      <trkpt lat="50.37408" lon="1.65989">
        <ele>9.2</ele>
        <time>2020-06-18T18:13:57Z</time>
      </trkpt>
      <trkpt lat="50.37415" lon="1.65986">
        <ele>9.2</ele>
        <time>2020-06-18T18:13:58Z</time>
      </trkpt>
      <trkpt lat="50.37421" lon="1.65984">
        <ele>9.3</ele>
        <time>2020-06-18T18:13:59Z</time>
      </trkpt>
      <trkpt lat="50.37426" lon="1.65981">
        <ele>9.3</ele>
        <time>2020-06-18T18:14:00Z</time>
      </trkpt>
      <trkpt lat="50.37431" lon="1.65979">
        <ele>9.3</ele>
        <time>2020-06-18T18:14:01Z</time>
      </trkpt>
      <trkpt lat="50.37436" lon="1.65976">
        <ele>9.3</ele>
        <time>2020-06-18T18:14:02Z</time>
      </trkpt>
      <trkpt lat="50.37441" lon="1.65974">
        <ele>9.3</ele>
        <time>2020-06-18T18:14:03Z</time>
      </trkpt>
      <trkpt lat="50.37446" lon="1.6597">
        <ele>9.3</ele>
        <time>2020-06-18T18:14:04Z</time>
      </trkpt>
      <trkpt lat="50.37452" lon="1.65968">
        <ele>9.3</ele>
        <time>2020-06-18T18:14:05Z</time>
      </trkpt>
      <trkpt lat="50.37457" lon="1.65965">
        <ele>9.3</ele>
        <time>2020-06-18T18:14:06Z</time>
      </trkpt>
      <trkpt lat="50.37463" lon="1.65963">
        <ele>9.2</ele>
        <time>2020-06-18T18:14:07Z</time>
      </trkpt>
      <trkpt lat="50.37469" lon="1.65959">
        <ele>9.2</ele>
        <time>2020-06-18T18:14:08Z</time>
      </trkpt>
      <trkpt lat="50.37474" lon="1.65956">
        <ele>9.2</ele>
        <time>2020-06-18T18:14:09Z</time>
      </trkpt>
      <trkpt lat="50.3748" lon="1.65954">
        <ele>9.1</ele>
        <time>2020-06-18T18:14:10Z</time>
      </trkpt>
      <trkpt lat="50.37486" lon="1.6595">
        <ele>9.1</ele>
        <time>2020-06-18T18:14:11Z</time>
      </trkpt>
      <trkpt lat="50.37492" lon="1.65947">
        <ele>9.1</ele>
        <time>2020-06-18T18:14:12Z</time>
      </trkpt>
      <trkpt lat="50.37497" lon="1.65944">
        <ele>9</ele>
        <time>2020-06-18T18:14:13Z</time>
      </trkpt>
      <trkpt lat="50.37503" lon="1.65942">
        <ele>9</ele>
        <time>2020-06-18T18:14:14Z</time>
      </trkpt>
      <trkpt lat="50.37509" lon="1.65939">
        <ele>8.9</ele>
        <time>2020-06-18T18:14:15Z</time>
      </trkpt>
      <trkpt lat="50.37515" lon="1.65936">
        <ele>8.8</ele>
        <time>2020-06-18T18:14:16Z</time>
      </trkpt>
      <trkpt lat="50.37522" lon="1.65933">
        <ele>8.8</ele>
        <time>2020-06-18T18:14:17Z</time>
      </trkpt>
      <trkpt lat="50.37528" lon="1.6593">
        <ele>8.7</ele>
        <time>2020-06-18T18:14:18Z</time>
      </trkpt>
      <trkpt lat="50.37534" lon="1.65926">
        <ele>8.7</ele>
        <time>2020-06-18T18:14:19Z</time>
      </trkpt>
      <trkpt lat="50.3754" lon="1.65921">
        <ele>8.7</ele>
        <time>2020-06-18T18:14:20Z</time>
      </trkpt>
      <trkpt lat="50.37546" lon="1.65915">
        <ele>8.6</ele>
        <time>2020-06-18T18:14:21Z</time>
      </trkpt>
      <trkpt lat="50.37551" lon="1.65909">
        <ele>8.5</ele>
        <time>2020-06-18T18:14:22Z</time>
      </trkpt>
      <trkpt lat="50.37557" lon="1.65903">
        <ele>8.4</ele>
        <time>2020-06-18T18:14:23Z</time>
      </trkpt>
      <trkpt lat="50.37561" lon="1.65897">
        <ele>8.3</ele>
        <time>2020-06-18T18:14:24Z</time>
      </trkpt>
      <trkpt lat="50.37566" lon="1.6589">
        <ele>8.3</ele>
        <time>2020-06-18T18:14:25Z</time>
      </trkpt>
      <trkpt lat="50.37571" lon="1.65882">
        <ele>8.2</ele>
        <time>2020-06-18T18:14:26Z</time>
      </trkpt>
      <trkpt lat="50.37577" lon="1.65873">
        <ele>8.2</ele>
        <time>2020-06-18T18:14:27Z</time>
      </trkpt>
      <trkpt lat="50.37582" lon="1.65864">
        <ele>8.1</ele>
        <time>2020-06-18T18:14:28Z</time>
      </trkpt>
      <trkpt lat="50.37588" lon="1.65855">
        <ele>8.1</ele>
        <time>2020-06-18T18:14:29Z</time>
      </trkpt>
      <trkpt lat="50.37593" lon="1.65847">
        <ele>8</ele>
        <time>2020-06-18T18:14:30Z</time>
      </trkpt>
      <trkpt lat="50.37599" lon="1.65837">
        <ele>8</ele>
        <time>2020-06-18T18:14:31Z</time>
      </trkpt>
      <trkpt lat="50.37605" lon="1.65828">
        <ele>7.9</ele>
        <time>2020-06-18T18:14:32Z</time>
      </trkpt>
      <trkpt lat="50.37611" lon="1.65817">
        <ele>7.9</ele>
        <time>2020-06-18T18:14:33Z</time>
      </trkpt>
      <trkpt lat="50.37617" lon="1.65807">
        <ele>7.8</ele>
        <time>2020-06-18T18:14:34Z</time>
      </trkpt>
      <trkpt lat="50.37622" lon="1.65798">
        <ele>7.7</ele>
        <time>2020-06-18T18:14:35Z</time>
      </trkpt>
      <trkpt lat="50.37627" lon="1.6579">
        <ele>7.7</ele>
        <time>2020-06-18T18:14:36Z</time>
      </trkpt>
      <trkpt lat="50.37633" lon="1.65782">
        <ele>7.6</ele>
        <time>2020-06-18T18:14:37Z</time>
      </trkpt>
      <trkpt lat="50.37638" lon="1.65773">
        <ele>7.5</ele>
        <time>2020-06-18T18:14:38Z</time>
      </trkpt>
      <trkpt lat="50.37643" lon="1.65765">
        <ele>7.5</ele>
        <time>2020-06-18T18:14:39Z</time>
      </trkpt>
      <trkpt lat="50.37648" lon="1.65756">
        <ele>7.4</ele>
        <time>2020-06-18T18:14:40Z</time>
      </trkpt>
      <trkpt lat="50.37653" lon="1.65748">
        <ele>7.4</ele>
        <time>2020-06-18T18:14:41Z</time>
      </trkpt>
      <trkpt lat="50.37658" lon="1.65739">
        <ele>7.3</ele>
        <time>2020-06-18T18:14:42Z</time>
      </trkpt>
      <trkpt lat="50.37663" lon="1.65731">
        <ele>7.2</ele>
        <time>2020-06-18T18:14:43Z</time>
      </trkpt>
      <trkpt lat="50.37668" lon="1.65723">
        <ele>7.2</ele>
        <time>2020-06-18T18:14:44Z</time>
      </trkpt>
      <trkpt lat="50.37673" lon="1.65714">
        <ele>7.2</ele>
        <time>2020-06-18T18:14:45Z</time>
      </trkpt>
      <trkpt lat="50.37678" lon="1.65706">
        <ele>7.2</ele>
        <time>2020-06-18T18:14:46Z</time>
      </trkpt>
      <trkpt lat="50.37683" lon="1.65698">
        <ele>7.1</ele>
        <time>2020-06-18T18:14:47Z</time>
      </trkpt>
      <trkpt lat="50.37689" lon="1.65691">
        <ele>7</ele>
        <time>2020-06-18T18:14:48Z</time>
      </trkpt>
      <trkpt lat="50.37694" lon="1.65683">
        <ele>6.9</ele>
        <time>2020-06-18T18:14:49Z</time>
      </trkpt>
      <trkpt lat="50.377" lon="1.65674">
        <ele>6.8</ele>
        <time>2020-06-18T18:14:50Z</time>
      </trkpt>
      <trkpt lat="50.37705" lon="1.65667">
        <ele>6.7</ele>
        <time>2020-06-18T18:14:51Z</time>
      </trkpt>
      <trkpt lat="50.37711" lon="1.65659">
        <ele>6.6</ele>
        <time>2020-06-18T18:14:52Z</time>
      </trkpt>
      <trkpt lat="50.37717" lon="1.65651">
        <ele>6.5</ele>
        <time>2020-06-18T18:14:53Z</time>
      </trkpt>
      <trkpt lat="50.37723" lon="1.65644">
        <ele>6.4</ele>
        <time>2020-06-18T18:14:54Z</time>
      </trkpt>
      <trkpt lat="50.37729" lon="1.65636">
        <ele>6.3</ele>
        <time>2020-06-18T18:14:55Z</time>
      </trkpt>
      <trkpt lat="50.37734" lon="1.65627">
        <ele>6.2</ele>
        <time>2020-06-18T18:14:56Z</time>
      </trkpt>
      <trkpt lat="50.3774" lon="1.65619">
        <ele>6.1</ele>
        <time>2020-06-18T18:14:57Z</time>
      </trkpt>
      <trkpt lat="50.37746" lon="1.65611">
        <ele>6</ele>
        <time>2020-06-18T18:14:58Z</time>
      </trkpt>
      <trkpt lat="50.37751" lon="1.65602">
        <ele>6</ele>
        <time>2020-06-18T18:14:59Z</time>
      </trkpt>
      <trkpt lat="50.37756" lon="1.65594">
        <ele>5.9</ele>
        <time>2020-06-18T18:15:00Z</time>
      </trkpt>
      <trkpt lat="50.37761" lon="1.65585">
        <ele>5.8</ele>
        <time>2020-06-18T18:15:01Z</time>
      </trkpt>
      <trkpt lat="50.37766" lon="1.65576">
        <ele>5.8</ele>
        <time>2020-06-18T18:15:02Z</time>
      </trkpt>
      <trkpt lat="50.3777" lon="1.65567">
        <ele>5.8</ele>
        <time>2020-06-18T18:15:03Z</time>
      </trkpt>
      <trkpt lat="50.37774" lon="1.65557">
        <ele>5.8</ele>
        <time>2020-06-18T18:15:04Z</time>
      </trkpt>
      <trkpt lat="50.37777" lon="1.65547">
        <ele>5.8</ele>
        <time>2020-06-18T18:15:05Z</time>
      </trkpt>
      <trkpt lat="50.3778" lon="1.65537">
        <ele>5.8</ele>
        <time>2020-06-18T18:15:06Z</time>
      </trkpt>
      <trkpt lat="50.37783" lon="1.65526">
        <ele>5.9</ele>
        <time>2020-06-18T18:15:07Z</time>
      </trkpt>
      <trkpt lat="50.37785" lon="1.65516">
        <ele>5.9</ele>
        <time>2020-06-18T18:15:08Z</time>
      </trkpt>
      <trkpt lat="50.37788" lon="1.65505">
        <ele>6.1</ele>
        <time>2020-06-18T18:15:09Z</time>
      </trkpt>
      <trkpt lat="50.37789" lon="1.65495">
        <ele>6.3</ele>
        <time>2020-06-18T18:15:10Z</time>
      </trkpt>
      <trkpt lat="50.37791" lon="1.65484">
        <ele>6.5</ele>
        <time>2020-06-18T18:15:11Z</time>
      </trkpt>
      <trkpt lat="50.37794" lon="1.65475">
        <ele>6.8</ele>
        <time>2020-06-18T18:15:12Z</time>
      </trkpt>
      <trkpt lat="50.37796" lon="1.65465">
        <ele>7</ele>
        <time>2020-06-18T18:15:13Z</time>
      </trkpt>
      <trkpt lat="50.37799" lon="1.65455">
        <ele>7.2</ele>
        <time>2020-06-18T18:15:14Z</time>
      </trkpt>
      <trkpt lat="50.37802" lon="1.65446">
        <ele>7.3</ele>
        <time>2020-06-18T18:15:15Z</time>
      </trkpt>
      <trkpt lat="50.37804" lon="1.65436">
        <ele>7.3</ele>
        <time>2020-06-18T18:15:16Z</time>
      </trkpt>
      <trkpt lat="50.37807" lon="1.65427">
        <ele>7.4</ele>
        <time>2020-06-18T18:15:17Z</time>
      </trkpt>
      <trkpt lat="50.3781" lon="1.65419">
        <ele>7.5</ele>
        <time>2020-06-18T18:15:18Z</time>
      </trkpt>
      <trkpt lat="50.37813" lon="1.6541">
        <ele>7.6</ele>
        <time>2020-06-18T18:15:19Z</time>
      </trkpt>
      <trkpt lat="50.37816" lon="1.65403">
        <ele>7.6</ele>
        <time>2020-06-18T18:15:20Z</time>
      </trkpt>
      <trkpt lat="50.37819" lon="1.65395">
        <ele>7.6</ele>
        <time>2020-06-18T18:15:21Z</time>
      </trkpt>
      <trkpt lat="50.37822" lon="1.65387">
        <ele>7.7</ele>
        <time>2020-06-18T18:15:22Z</time>
      </trkpt>
      <trkpt lat="50.37825" lon="1.6538">
        <ele>7.7</ele>
        <time>2020-06-18T18:15:23Z</time>
      </trkpt>
      <trkpt lat="50.37828" lon="1.65372">
        <ele>7.7</ele>
        <time>2020-06-18T18:15:24Z</time>
      </trkpt>
      <trkpt lat="50.37831" lon="1.65364">
        <ele>7.7</ele>
        <time>2020-06-18T18:15:25Z</time>
      </trkpt>
      <trkpt lat="50.37835" lon="1.65355">
        <ele>7.7</ele>
        <time>2020-06-18T18:15:26Z</time>
      </trkpt>
      <trkpt lat="50.37839" lon="1.65347">
        <ele>7.7</ele>
        <time>2020-06-18T18:15:27Z</time>
      </trkpt>
      <trkpt lat="50.37844" lon="1.65341">
        <ele>7.7</ele>
        <time>2020-06-18T18:15:28Z</time>
      </trkpt>
      <trkpt lat="50.37849" lon="1.65333">
        <ele>7.7</ele>
        <time>2020-06-18T18:15:29Z</time>
      </trkpt>
      <trkpt lat="50.37854" lon="1.65327">
        <ele>7.7</ele>
        <time>2020-06-18T18:15:30Z</time>
      </trkpt>
      <trkpt lat="50.3786" lon="1.6532">
        <ele>7.7</ele>
        <time>2020-06-18T18:15:31Z</time>
      </trkpt>
      <trkpt lat="50.37866" lon="1.65314">
        <ele>7.7</ele>
        <time>2020-06-18T18:15:32Z</time>
      </trkpt>
      <trkpt lat="50.37871" lon="1.65309">
        <ele>7.6</ele>
        <time>2020-06-18T18:15:33Z</time>
      </trkpt>
      <trkpt lat="50.37877" lon="1.65304">
        <ele>7.6</ele>
        <time>2020-06-18T18:15:34Z</time>
      </trkpt>
      <trkpt lat="50.37884" lon="1.65301">
        <ele>7.6</ele>
        <time>2020-06-18T18:15:35Z</time>
      </trkpt>
      <trkpt lat="50.37891" lon="1.65298">
        <ele>7.6</ele>
        <time>2020-06-18T18:15:36Z</time>
      </trkpt>
      <trkpt lat="50.37897" lon="1.65295">
        <ele>7.7</ele>
        <time>2020-06-18T18:15:37Z</time>
      </trkpt>
      <trkpt lat="50.37903" lon="1.65295">
        <ele>7.8</ele>
        <time>2020-06-18T18:15:38Z</time>
      </trkpt>
      <trkpt lat="50.37909" lon="1.65295">
        <ele>7.8</ele>
        <time>2020-06-18T18:15:39Z</time>
      </trkpt>
      <trkpt lat="50.37917" lon="1.65294">
        <ele>7.9</ele>
        <time>2020-06-18T18:15:40Z</time>
      </trkpt>
      <trkpt lat="50.37923" lon="1.65291">
        <ele>7.9</ele>
        <time>2020-06-18T18:15:41Z</time>
      </trkpt>
      <trkpt lat="50.37931" lon="1.6529">
        <ele>8.1</ele>
        <time>2020-06-18T18:15:42Z</time>
      </trkpt>
      <trkpt lat="50.37937" lon="1.65288">
        <ele>8.2</ele>
        <time>2020-06-18T18:15:43Z</time>
      </trkpt>
      <trkpt lat="50.37945" lon="1.65285">
        <ele>8.3</ele>
        <time>2020-06-18T18:15:44Z</time>
      </trkpt>
      <trkpt lat="50.37951" lon="1.65283">
        <ele>8.4</ele>
        <time>2020-06-18T18:15:45Z</time>
      </trkpt>
      <trkpt lat="50.37958" lon="1.65281">
        <ele>8.5</ele>
        <time>2020-06-18T18:15:46Z</time>
      </trkpt>
      <trkpt lat="50.37964" lon="1.65279">
        <ele>8.6</ele>
        <time>2020-06-18T18:15:47Z</time>
      </trkpt>
      <trkpt lat="50.37971" lon="1.65276">
        <ele>8.6</ele>
        <time>2020-06-18T18:15:48Z</time>
      </trkpt>
      <trkpt lat="50.37977" lon="1.65275">
        <ele>8.5</ele>
        <time>2020-06-18T18:15:49Z</time>
      </trkpt>
      <trkpt lat="50.37984" lon="1.65274">
        <ele>8.4</ele>
        <time>2020-06-18T18:15:50Z</time>
      </trkpt>
      <trkpt lat="50.37991" lon="1.65272">
        <ele>8.3</ele>
        <time>2020-06-18T18:15:51Z</time>
      </trkpt>
      <trkpt lat="50.37998" lon="1.6527">
        <ele>8.2</ele>
        <time>2020-06-18T18:15:52Z</time>
      </trkpt>
      <trkpt lat="50.38004" lon="1.65269">
        <ele>8.2</ele>
        <time>2020-06-18T18:15:53Z</time>
      </trkpt>
      <trkpt lat="50.38011" lon="1.65267">
        <ele>8.2</ele>
        <time>2020-06-18T18:15:54Z</time>
      </trkpt>
      <trkpt lat="50.38018" lon="1.65266">
        <ele>8.1</ele>
        <time>2020-06-18T18:15:55Z</time>
      </trkpt>
      <trkpt lat="50.38024" lon="1.65265">
        <ele>8.1</ele>
        <time>2020-06-18T18:15:56Z</time>
      </trkpt>
      <trkpt lat="50.38031" lon="1.65265">
        <ele>8</ele>
        <time>2020-06-18T18:15:57Z</time>
      </trkpt>
      <trkpt lat="50.38039" lon="1.65265">
        <ele>7.9</ele>
        <time>2020-06-18T18:15:58Z</time>
      </trkpt>
      <trkpt lat="50.38047" lon="1.65265">
        <ele>7.8</ele>
        <time>2020-06-18T18:15:59Z</time>
      </trkpt>
      <trkpt lat="50.38055" lon="1.65265">
        <ele>7.7</ele>
        <time>2020-06-18T18:16:00Z</time>
      </trkpt>
      <trkpt lat="50.38062" lon="1.65264">
        <ele>7.6</ele>
        <time>2020-06-18T18:16:01Z</time>
      </trkpt>
      <trkpt lat="50.3807" lon="1.65263">
        <ele>7.4</ele>
        <time>2020-06-18T18:16:02Z</time>
      </trkpt>
      <trkpt lat="50.38078" lon="1.65261">
        <ele>7.3</ele>
        <time>2020-06-18T18:16:03Z</time>
      </trkpt>
      <trkpt lat="50.38085" lon="1.65258">
        <ele>7.2</ele>
        <time>2020-06-18T18:16:04Z</time>
      </trkpt>
      <trkpt lat="50.38092" lon="1.65256">
        <ele>7.2</ele>
        <time>2020-06-18T18:16:05Z</time>
      </trkpt>
      <trkpt lat="50.38099" lon="1.65253">
        <ele>7.1</ele>
        <time>2020-06-18T18:16:06Z</time>
      </trkpt>
      <trkpt lat="50.38105" lon="1.6525">
        <ele>7.1</ele>
        <time>2020-06-18T18:16:07Z</time>
      </trkpt>
      <trkpt lat="50.38113" lon="1.65247">
        <ele>7</ele>
        <time>2020-06-18T18:16:08Z</time>
      </trkpt>
      <trkpt lat="50.38121" lon="1.65243">
        <ele>7</ele>
        <time>2020-06-18T18:16:09Z</time>
      </trkpt>
      <trkpt lat="50.38128" lon="1.6524">
        <ele>6.9</ele>
        <time>2020-06-18T18:16:10Z</time>
      </trkpt>
      <trkpt lat="50.38135" lon="1.65236">
        <ele>6.9</ele>
        <time>2020-06-18T18:16:11Z</time>
      </trkpt>
      <trkpt lat="50.38142" lon="1.65232">
        <ele>6.8</ele>
        <time>2020-06-18T18:16:12Z</time>
      </trkpt>
      <trkpt lat="50.3815" lon="1.65229">
        <ele>6.7</ele>
        <time>2020-06-18T18:16:13Z</time>
      </trkpt>
      <trkpt lat="50.38156" lon="1.65225">
        <ele>6.7</ele>
        <time>2020-06-18T18:16:14Z</time>
      </trkpt>
      <trkpt lat="50.38162" lon="1.6522">
        <ele>6.6</ele>
        <time>2020-06-18T18:16:15Z</time>
      </trkpt>
      <trkpt lat="50.38169" lon="1.65217">
        <ele>6.6</ele>
        <time>2020-06-18T18:16:16Z</time>
      </trkpt>
      <trkpt lat="50.38175" lon="1.65212">
        <ele>6.6</ele>
        <time>2020-06-18T18:16:17Z</time>
      </trkpt>
      <trkpt lat="50.38182" lon="1.65208">
        <ele>6.5</ele>
        <time>2020-06-18T18:16:18Z</time>
      </trkpt>
      <trkpt lat="50.38188" lon="1.65204">
        <ele>6.5</ele>
        <time>2020-06-18T18:16:19Z</time>
      </trkpt>
      <trkpt lat="50.38195" lon="1.652">
        <ele>6.4</ele>
        <time>2020-06-18T18:16:20Z</time>
      </trkpt>
      <trkpt lat="50.38201" lon="1.65197">
        <ele>6.4</ele>
        <time>2020-06-18T18:16:21Z</time>
      </trkpt>
      <trkpt lat="50.38208" lon="1.65194">
        <ele>6.3</ele>
        <time>2020-06-18T18:16:22Z</time>
      </trkpt>
      <trkpt lat="50.38214" lon="1.65192">
        <ele>6.3</ele>
        <time>2020-06-18T18:16:23Z</time>
      </trkpt>
      <trkpt lat="50.38222" lon="1.6519">
        <ele>6.4</ele>
        <time>2020-06-18T18:16:24Z</time>
      </trkpt>
      <trkpt lat="50.38229" lon="1.65188">
        <ele>6.4</ele>
        <time>2020-06-18T18:16:25Z</time>
      </trkpt>
      <trkpt lat="50.38236" lon="1.65187">
        <ele>6.4</ele>
        <time>2020-06-18T18:16:26Z</time>
      </trkpt>
      <trkpt lat="50.38244" lon="1.65186">
        <ele>6.3</ele>
        <time>2020-06-18T18:16:27Z</time>
      </trkpt>
      <trkpt lat="50.38251" lon="1.65185">
        <ele>6.3</ele>
        <time>2020-06-18T18:16:28Z</time>
      </trkpt>
      <trkpt lat="50.38258" lon="1.65184">
        <ele>6.2</ele>
        <time>2020-06-18T18:16:29Z</time>
      </trkpt>
      <trkpt lat="50.38265" lon="1.65182">
        <ele>6.2</ele>
        <time>2020-06-18T18:16:30Z</time>
      </trkpt>
      <trkpt lat="50.38272" lon="1.65181">
        <ele>6.1</ele>
        <time>2020-06-18T18:16:31Z</time>
      </trkpt>
      <trkpt lat="50.38279" lon="1.6518">
        <ele>6.1</ele>
        <time>2020-06-18T18:16:32Z</time>
      </trkpt>
      <trkpt lat="50.38286" lon="1.65178">
        <ele>6.1</ele>
        <time>2020-06-18T18:16:33Z</time>
      </trkpt>
      <trkpt lat="50.38293" lon="1.65177">
        <ele>6</ele>
        <time>2020-06-18T18:16:34Z</time>
      </trkpt>
      <trkpt lat="50.38299" lon="1.65177">
        <ele>6</ele>
        <time>2020-06-18T18:16:35Z</time>
      </trkpt>
      <trkpt lat="50.38306" lon="1.65177">
        <ele>6.1</ele>
        <time>2020-06-18T18:16:36Z</time>
      </trkpt>
      <trkpt lat="50.38313" lon="1.65176">
        <ele>6.1</ele>
        <time>2020-06-18T18:16:37Z</time>
      </trkpt>
      <trkpt lat="50.3832" lon="1.65175">
        <ele>6.1</ele>
        <time>2020-06-18T18:16:38Z</time>
      </trkpt>
      <trkpt lat="50.38327" lon="1.65174">
        <ele>6.1</ele>
        <time>2020-06-18T18:16:39Z</time>
      </trkpt>
      <trkpt lat="50.38333" lon="1.65173">
        <ele>6.1</ele>
        <time>2020-06-18T18:16:40Z</time>
      </trkpt>
      <trkpt lat="50.3834" lon="1.65173">
        <ele>6.1</ele>
        <time>2020-06-18T18:16:41Z</time>
      </trkpt>
      <trkpt lat="50.38347" lon="1.65172">
        <ele>6.1</ele>
        <time>2020-06-18T18:16:42Z</time>
      </trkpt>
      <trkpt lat="50.38353" lon="1.65171">
        <ele>6.1</ele>
        <time>2020-06-18T18:16:43Z</time>
      </trkpt>
      <trkpt lat="50.38359" lon="1.6517">
        <ele>6.1</ele>
        <time>2020-06-18T18:16:44Z</time>
      </trkpt>
      <trkpt lat="50.38365" lon="1.65169">
        <ele>6.1</ele>
        <time>2020-06-18T18:16:45Z</time>
      </trkpt>
      <trkpt lat="50.38371" lon="1.65167">
        <ele>6.1</ele>
        <time>2020-06-18T18:16:46Z</time>
      </trkpt>
      <trkpt lat="50.38378" lon="1.65167">
        <ele>6.1</ele>
        <time>2020-06-18T18:16:47Z</time>
      </trkpt>
      <trkpt lat="50.38383" lon="1.65165">
        <ele>6.2</ele>
        <time>2020-06-18T18:16:48Z</time>
      </trkpt>
      <trkpt lat="50.38389" lon="1.65164">
        <ele>6.2</ele>
        <time>2020-06-18T18:16:49Z</time>
      </trkpt>
      <trkpt lat="50.38395" lon="1.65164">
        <ele>6.2</ele>
        <time>2020-06-18T18:16:50Z</time>
      </trkpt>
      <trkpt lat="50.38401" lon="1.65164">
        <ele>6.3</ele>
        <time>2020-06-18T18:16:51Z</time>
      </trkpt>
      <trkpt lat="50.38407" lon="1.65163">
        <ele>6.3</ele>
        <time>2020-06-18T18:16:52Z</time>
      </trkpt>
      <trkpt lat="50.38413" lon="1.65162">
        <ele>6.3</ele>
        <time>2020-06-18T18:16:53Z</time>
      </trkpt>
      <trkpt lat="50.38419" lon="1.65161">
        <ele>6.3</ele>
        <time>2020-06-18T18:16:54Z</time>
      </trkpt>
      <trkpt lat="50.38425" lon="1.65162">
        <ele>6.3</ele>
        <time>2020-06-18T18:16:55Z</time>
      </trkpt>
      <trkpt lat="50.38431" lon="1.6516">
        <ele>6.4</ele>
        <time>2020-06-18T18:16:56Z</time>
      </trkpt>
      <trkpt lat="50.38437" lon="1.6516">
        <ele>6.4</ele>
        <time>2020-06-18T18:16:57Z</time>
      </trkpt>
      <trkpt lat="50.38445" lon="1.6516">
        <ele>6.4</ele>
        <time>2020-06-18T18:16:58Z</time>
      </trkpt>
      <trkpt lat="50.38451" lon="1.65158">
        <ele>6.5</ele>
        <time>2020-06-18T18:16:59Z</time>
      </trkpt>
      <trkpt lat="50.38457" lon="1.65158">
        <ele>6.5</ele>
        <time>2020-06-18T18:17:00Z</time>
      </trkpt>
      <trkpt lat="50.38463" lon="1.65157">
        <ele>6.6</ele>
        <time>2020-06-18T18:17:01Z</time>
      </trkpt>
      <trkpt lat="50.3847" lon="1.65157">
        <ele>6.7</ele>
        <time>2020-06-18T18:17:02Z</time>
      </trkpt>
      <trkpt lat="50.38476" lon="1.65155">
        <ele>6.7</ele>
        <time>2020-06-18T18:17:03Z</time>
      </trkpt>
      <trkpt lat="50.38482" lon="1.65154">
        <ele>6.8</ele>
        <time>2020-06-18T18:17:04Z</time>
      </trkpt>
      <trkpt lat="50.38489" lon="1.65152">
        <ele>6.8</ele>
        <time>2020-06-18T18:17:05Z</time>
      </trkpt>
      <trkpt lat="50.38495" lon="1.65151">
        <ele>6.9</ele>
        <time>2020-06-18T18:17:06Z</time>
      </trkpt>
      <trkpt lat="50.38502" lon="1.6515">
        <ele>7</ele>
        <time>2020-06-18T18:17:07Z</time>
      </trkpt>
      <trkpt lat="50.38509" lon="1.65148">
        <ele>7.1</ele>
        <time>2020-06-18T18:17:08Z</time>
      </trkpt>
      <trkpt lat="50.38515" lon="1.65147">
        <ele>7.1</ele>
        <time>2020-06-18T18:17:09Z</time>
      </trkpt>
      <trkpt lat="50.38522" lon="1.65146">
        <ele>7.1</ele>
        <time>2020-06-18T18:17:10Z</time>
      </trkpt>
      <trkpt lat="50.38529" lon="1.65145">
        <ele>7.1</ele>
        <time>2020-06-18T18:17:11Z</time>
      </trkpt>
      <trkpt lat="50.38535" lon="1.65144">
        <ele>7.1</ele>
        <time>2020-06-18T18:17:12Z</time>
      </trkpt>
      <trkpt lat="50.38542" lon="1.65143">
        <ele>7.1</ele>
        <time>2020-06-18T18:17:13Z</time>
      </trkpt>
      <trkpt lat="50.38549" lon="1.65143">
        <ele>7.1</ele>
        <time>2020-06-18T18:17:14Z</time>
      </trkpt>
      <trkpt lat="50.38556" lon="1.65142">
        <ele>7.1</ele>
        <time>2020-06-18T18:17:15Z</time>
      </trkpt>
      <trkpt lat="50.38563" lon="1.65141">
        <ele>7.1</ele>
        <time>2020-06-18T18:17:16Z</time>
      </trkpt>
      <trkpt lat="50.3857" lon="1.6514">
        <ele>7.1</ele>
        <time>2020-06-18T18:17:17Z</time>
      </trkpt>
      <trkpt lat="50.38577" lon="1.65139">
        <ele>7.1</ele>
        <time>2020-06-18T18:17:18Z</time>
      </trkpt>
      <trkpt lat="50.38584" lon="1.65139">
        <ele>7.1</ele>
        <time>2020-06-18T18:17:19Z</time>
      </trkpt>
      <trkpt lat="50.38591" lon="1.65139">
        <ele>7</ele>
        <time>2020-06-18T18:17:20Z</time>
      </trkpt>
      <trkpt lat="50.38598" lon="1.65138">
        <ele>7</ele>
        <time>2020-06-18T18:17:21Z</time>
      </trkpt>
      <trkpt lat="50.38605" lon="1.65138">
        <ele>7</ele>
        <time>2020-06-18T18:17:22Z</time>
      </trkpt>
      <trkpt lat="50.38612" lon="1.65138">
        <ele>7</ele>
        <time>2020-06-18T18:17:23Z</time>
      </trkpt>
      <trkpt lat="50.38619" lon="1.65138">
        <ele>6.9</ele>
        <time>2020-06-18T18:17:24Z</time>
      </trkpt>
      <trkpt lat="50.38625" lon="1.65138">
        <ele>6.9</ele>
        <time>2020-06-18T18:17:25Z</time>
      </trkpt>
      <trkpt lat="50.38632" lon="1.6514">
        <ele>6.9</ele>
        <time>2020-06-18T18:17:26Z</time>
      </trkpt>
      <trkpt lat="50.38638" lon="1.65142">
        <ele>6.8</ele>
        <time>2020-06-18T18:17:27Z</time>
      </trkpt>
      <trkpt lat="50.38644" lon="1.65143">
        <ele>6.8</ele>
        <time>2020-06-18T18:17:28Z</time>
      </trkpt>
      <trkpt lat="50.38651" lon="1.65145">
        <ele>6.7</ele>
        <time>2020-06-18T18:17:29Z</time>
      </trkpt>
      <trkpt lat="50.38657" lon="1.65146">
        <ele>6.7</ele>
        <time>2020-06-18T18:17:30Z</time>
      </trkpt>
      <trkpt lat="50.38662" lon="1.65147">
        <ele>6.6</ele>
        <time>2020-06-18T18:17:31Z</time>
      </trkpt>
      <trkpt lat="50.38668" lon="1.65148">
        <ele>6.6</ele>
        <time>2020-06-18T18:17:32Z</time>
      </trkpt>
      <trkpt lat="50.38674" lon="1.65148">
        <ele>6.6</ele>
        <time>2020-06-18T18:17:33Z</time>
      </trkpt>
      <trkpt lat="50.3868" lon="1.65149">
        <ele>6.6</ele>
        <time>2020-06-18T18:17:34Z</time>
      </trkpt>
      <trkpt lat="50.38686" lon="1.65149">
        <ele>6.6</ele>
        <time>2020-06-18T18:17:35Z</time>
      </trkpt>
      <trkpt lat="50.38691" lon="1.6515">
        <ele>6.6</ele>
        <time>2020-06-18T18:17:36Z</time>
      </trkpt>
      <trkpt lat="50.38696" lon="1.65153">
        <ele>6.5</ele>
        <time>2020-06-18T18:17:37Z</time>
      </trkpt>
      <trkpt lat="50.38701" lon="1.65156">
        <ele>6.5</ele>
        <time>2020-06-18T18:17:38Z</time>
      </trkpt>
      <trkpt lat="50.38706" lon="1.65158">
        <ele>6.5</ele>
        <time>2020-06-18T18:17:39Z</time>
      </trkpt>
      <trkpt lat="50.38711" lon="1.6516">
        <ele>6.5</ele>
        <time>2020-06-18T18:17:40Z</time>
      </trkpt>
      <trkpt lat="50.38716" lon="1.65162">
        <ele>6.5</ele>
        <time>2020-06-18T18:17:41Z</time>
      </trkpt>
      <trkpt lat="50.38722" lon="1.65162">
        <ele>6.4</ele>
        <time>2020-06-18T18:17:42Z</time>
      </trkpt>
      <trkpt lat="50.38727" lon="1.65164">
        <ele>6.4</ele>
        <time>2020-06-18T18:17:43Z</time>
      </trkpt>
      <trkpt lat="50.38733" lon="1.65165">
        <ele>6.4</ele>
        <time>2020-06-18T18:17:44Z</time>
      </trkpt>
      <trkpt lat="50.38739" lon="1.65167">
        <ele>6.4</ele>
        <time>2020-06-18T18:17:45Z</time>
      </trkpt>
      <trkpt lat="50.38746" lon="1.65168">
        <ele>6.5</ele>
        <time>2020-06-18T18:17:46Z</time>
      </trkpt>
      <trkpt lat="50.38753" lon="1.65169">
        <ele>6.5</ele>
        <time>2020-06-18T18:17:47Z</time>
      </trkpt>
      <trkpt lat="50.38761" lon="1.6517">
        <ele>6.5</ele>
        <time>2020-06-18T18:17:48Z</time>
      </trkpt>
      <trkpt lat="50.38768" lon="1.6517">
        <ele>6.5</ele>
        <time>2020-06-18T18:17:49Z</time>
      </trkpt>
      <trkpt lat="50.38775" lon="1.65169">
        <ele>6.5</ele>
        <time>2020-06-18T18:17:50Z</time>
      </trkpt>
      <trkpt lat="50.38782" lon="1.65169">
        <ele>6.6</ele>
        <time>2020-06-18T18:17:51Z</time>
      </trkpt>
      <trkpt lat="50.38788" lon="1.65167">
        <ele>6.6</ele>
        <time>2020-06-18T18:17:52Z</time>
      </trkpt>
      <trkpt lat="50.38795" lon="1.65166">
        <ele>6.7</ele>
        <time>2020-06-18T18:17:53Z</time>
      </trkpt>
      <trkpt lat="50.38802" lon="1.65164">
        <ele>6.8</ele>
        <time>2020-06-18T18:17:54Z</time>
      </trkpt>
      <trkpt lat="50.38809" lon="1.65162">
        <ele>6.8</ele>
        <time>2020-06-18T18:17:55Z</time>
      </trkpt>
      <trkpt lat="50.38816" lon="1.6516">
        <ele>6.9</ele>
        <time>2020-06-18T18:17:56Z</time>
      </trkpt>
      <trkpt lat="50.38823" lon="1.65157">
        <ele>7</ele>
        <time>2020-06-18T18:17:57Z</time>
      </trkpt>
      <trkpt lat="50.38829" lon="1.65155">
        <ele>7</ele>
        <time>2020-06-18T18:17:58Z</time>
      </trkpt>
      <trkpt lat="50.38836" lon="1.65153">
        <ele>7.1</ele>
        <time>2020-06-18T18:17:59Z</time>
      </trkpt>
      <trkpt lat="50.38842" lon="1.65151">
        <ele>7.2</ele>
        <time>2020-06-18T18:18:00Z</time>
      </trkpt>
      <trkpt lat="50.38849" lon="1.65149">
        <ele>7.4</ele>
        <time>2020-06-18T18:18:01Z</time>
      </trkpt>
      <trkpt lat="50.38856" lon="1.65146">
        <ele>7.5</ele>
        <time>2020-06-18T18:18:02Z</time>
      </trkpt>
      <trkpt lat="50.38863" lon="1.65144">
        <ele>7.6</ele>
        <time>2020-06-18T18:18:03Z</time>
      </trkpt>
      <trkpt lat="50.38869" lon="1.65142">
        <ele>7.7</ele>
        <time>2020-06-18T18:18:04Z</time>
      </trkpt>
      <trkpt lat="50.38876" lon="1.6514">
        <ele>7.8</ele>
        <time>2020-06-18T18:18:05Z</time>
      </trkpt>
      <trkpt lat="50.38882" lon="1.65138">
        <ele>7.9</ele>
        <time>2020-06-18T18:18:06Z</time>
      </trkpt>
      <trkpt lat="50.38889" lon="1.65136">
        <ele>7.9</ele>
        <time>2020-06-18T18:18:07Z</time>
      </trkpt>
      <trkpt lat="50.38895" lon="1.65134">
        <ele>8</ele>
        <time>2020-06-18T18:18:08Z</time>
      </trkpt>
      <trkpt lat="50.38902" lon="1.65134">
        <ele>8</ele>
        <time>2020-06-18T18:18:09Z</time>
      </trkpt>
      <trkpt lat="50.38909" lon="1.65133">
        <ele>8.1</ele>
        <time>2020-06-18T18:18:10Z</time>
      </trkpt>
      <trkpt lat="50.38915" lon="1.65131">
        <ele>8.1</ele>
        <time>2020-06-18T18:18:11Z</time>
      </trkpt>
      <trkpt lat="50.38922" lon="1.6513">
        <ele>8.2</ele>
        <time>2020-06-18T18:18:12Z</time>
      </trkpt>
      <trkpt lat="50.38929" lon="1.65128">
        <ele>8.3</ele>
        <time>2020-06-18T18:18:13Z</time>
      </trkpt>
      <trkpt lat="50.38936" lon="1.65127">
        <ele>8.3</ele>
        <time>2020-06-18T18:18:14Z</time>
      </trkpt>
      <trkpt lat="50.38942" lon="1.65127">
        <ele>8.3</ele>
        <time>2020-06-18T18:18:15Z</time>
      </trkpt>
      <trkpt lat="50.38949" lon="1.65126">
        <ele>8.3</ele>
        <time>2020-06-18T18:18:16Z</time>
      </trkpt>
      <trkpt lat="50.38956" lon="1.65126">
        <ele>8.4</ele>
        <time>2020-06-18T18:18:17Z</time>
      </trkpt>
      <trkpt lat="50.38963" lon="1.65125">
        <ele>8.4</ele>
        <time>2020-06-18T18:18:18Z</time>
      </trkpt>
      <trkpt lat="50.3897" lon="1.65124">
        <ele>8.4</ele>
        <time>2020-06-18T18:18:19Z</time>
      </trkpt>
      <trkpt lat="50.38977" lon="1.65123">
        <ele>8.5</ele>
        <time>2020-06-18T18:18:20Z</time>
      </trkpt>
      <trkpt lat="50.38984" lon="1.65122">
        <ele>8.5</ele>
        <time>2020-06-18T18:18:21Z</time>
      </trkpt>
      <trkpt lat="50.38991" lon="1.65121">
        <ele>8.5</ele>
        <time>2020-06-18T18:18:22Z</time>
      </trkpt>
      <trkpt lat="50.38997" lon="1.65121">
        <ele>8.6</ele>
        <time>2020-06-18T18:18:23Z</time>
      </trkpt>
      <trkpt lat="50.39004" lon="1.65119">
        <ele>8.6</ele>
        <time>2020-06-18T18:18:24Z</time>
      </trkpt>
      <trkpt lat="50.39011" lon="1.65118">
        <ele>8.6</ele>
        <time>2020-06-18T18:18:25Z</time>
      </trkpt>
      <trkpt lat="50.39018" lon="1.65118">
        <ele>8.6</ele>
        <time>2020-06-18T18:18:26Z</time>
      </trkpt>
      <trkpt lat="50.39025" lon="1.65118">
        <ele>8.6</ele>
        <time>2020-06-18T18:18:27Z</time>
      </trkpt>
      <trkpt lat="50.39032" lon="1.65117">
        <ele>8.6</ele>
        <time>2020-06-18T18:18:28Z</time>
      </trkpt>
      <trkpt lat="50.39039" lon="1.65115">
        <ele>8.6</ele>
        <time>2020-06-18T18:18:29Z</time>
      </trkpt>
      <trkpt lat="50.39046" lon="1.65113">
        <ele>8.5</ele>
        <time>2020-06-18T18:18:30Z</time>
      </trkpt>
      <trkpt lat="50.39053" lon="1.65112">
        <ele>8.5</ele>
        <time>2020-06-18T18:18:31Z</time>
      </trkpt>
      <trkpt lat="50.3906" lon="1.65112">
        <ele>8.4</ele>
        <time>2020-06-18T18:18:32Z</time>
      </trkpt>
      <trkpt lat="50.39067" lon="1.65112">
        <ele>8.4</ele>
        <time>2020-06-18T18:18:33Z</time>
      </trkpt>
      <trkpt lat="50.39074" lon="1.65111">
        <ele>8.3</ele>
        <time>2020-06-18T18:18:34Z</time>
      </trkpt>
      <trkpt lat="50.39081" lon="1.6511">
        <ele>8.2</ele>
        <time>2020-06-18T18:18:35Z</time>
      </trkpt>
      <trkpt lat="50.39089" lon="1.6511">
        <ele>8.2</ele>
        <time>2020-06-18T18:18:36Z</time>
      </trkpt>
      <trkpt lat="50.39096" lon="1.65109">
        <ele>8.1</ele>
        <time>2020-06-18T18:18:37Z</time>
      </trkpt>
      <trkpt lat="50.39104" lon="1.65109">
        <ele>8</ele>
        <time>2020-06-18T18:18:38Z</time>
      </trkpt>
      <trkpt lat="50.39111" lon="1.65109">
        <ele>8</ele>
        <time>2020-06-18T18:18:39Z</time>
      </trkpt>
      <trkpt lat="50.39119" lon="1.65109">
        <ele>8</ele>
        <time>2020-06-18T18:18:40Z</time>
      </trkpt>
      <trkpt lat="50.39127" lon="1.65108">
        <ele>7.9</ele>
        <time>2020-06-18T18:18:41Z</time>
      </trkpt>
      <trkpt lat="50.39134" lon="1.65108">
        <ele>7.8</ele>
        <time>2020-06-18T18:18:42Z</time>
      </trkpt>
      <trkpt lat="50.39142" lon="1.65109">
        <ele>7.7</ele>
        <time>2020-06-18T18:18:43Z</time>
      </trkpt>
      <trkpt lat="50.3915" lon="1.65109">
        <ele>7.6</ele>
        <time>2020-06-18T18:18:44Z</time>
      </trkpt>
      <trkpt lat="50.39158" lon="1.65109">
        <ele>7.4</ele>
        <time>2020-06-18T18:18:45Z</time>
      </trkpt>
      <trkpt lat="50.39166" lon="1.65109">
        <ele>7.3</ele>
        <time>2020-06-18T18:18:46Z</time>
      </trkpt>
      <trkpt lat="50.39175" lon="1.65109">
        <ele>7.1</ele>
        <time>2020-06-18T18:18:47Z</time>
      </trkpt>
      <trkpt lat="50.39183" lon="1.65108">
        <ele>7</ele>
        <time>2020-06-18T18:18:48Z</time>
      </trkpt>
      <trkpt lat="50.39192" lon="1.65107">
        <ele>6.8</ele>
        <time>2020-06-18T18:18:49Z</time>
      </trkpt>
      <trkpt lat="50.392" lon="1.65108">
        <ele>6.7</ele>
        <time>2020-06-18T18:18:50Z</time>
      </trkpt>
      <trkpt lat="50.39209" lon="1.65107">
        <ele>6.6</ele>
        <time>2020-06-18T18:18:51Z</time>
      </trkpt>
      <trkpt lat="50.39217" lon="1.65108">
        <ele>6.6</ele>
        <time>2020-06-18T18:18:52Z</time>
      </trkpt>
      <trkpt lat="50.39226" lon="1.65107">
        <ele>6.5</ele>
        <time>2020-06-18T18:18:53Z</time>
      </trkpt>
      <trkpt lat="50.39235" lon="1.65106">
        <ele>6.5</ele>
        <time>2020-06-18T18:18:54Z</time>
      </trkpt>
      <trkpt lat="50.39243" lon="1.65104">
        <ele>6.5</ele>
        <time>2020-06-18T18:18:55Z</time>
      </trkpt>
      <trkpt lat="50.39251" lon="1.65102">
        <ele>6.4</ele>
        <time>2020-06-18T18:18:56Z</time>
      </trkpt>
      <trkpt lat="50.3926" lon="1.651">
        <ele>6.4</ele>
        <time>2020-06-18T18:18:57Z</time>
      </trkpt>
      <trkpt lat="50.39268" lon="1.65099">
        <ele>6.4</ele>
        <time>2020-06-18T18:18:58Z</time>
      </trkpt>
      <trkpt lat="50.39277" lon="1.65096">
        <ele>6.4</ele>
        <time>2020-06-18T18:18:59Z</time>
      </trkpt>
      <trkpt lat="50.39285" lon="1.65093">
        <ele>6.5</ele>
        <time>2020-06-18T18:19:00Z</time>
      </trkpt>
      <trkpt lat="50.39294" lon="1.65091">
        <ele>6.4</ele>
        <time>2020-06-18T18:19:01Z</time>
      </trkpt>
      <trkpt lat="50.39302" lon="1.65089">
        <ele>6.3</ele>
        <time>2020-06-18T18:19:02Z</time>
      </trkpt>
      <trkpt lat="50.39311" lon="1.65087">
        <ele>6.3</ele>
        <time>2020-06-18T18:19:03Z</time>
      </trkpt>
      <trkpt lat="50.39319" lon="1.65085">
        <ele>6.3</ele>
        <time>2020-06-18T18:19:04Z</time>
      </trkpt>
      <trkpt lat="50.39327" lon="1.65084">
        <ele>6.3</ele>
        <time>2020-06-18T18:19:05Z</time>
      </trkpt>
      <trkpt lat="50.39335" lon="1.65081">
        <ele>6.4</ele>
        <time>2020-06-18T18:19:06Z</time>
      </trkpt>
      <trkpt lat="50.39343" lon="1.65078">
        <ele>6.4</ele>
        <time>2020-06-18T18:19:07Z</time>
      </trkpt>
      <trkpt lat="50.39351" lon="1.65076">
        <ele>6.5</ele>
        <time>2020-06-18T18:19:08Z</time>
      </trkpt>
      <trkpt lat="50.39359" lon="1.65074">
        <ele>6.5</ele>
        <time>2020-06-18T18:19:09Z</time>
      </trkpt>
      <trkpt lat="50.39366" lon="1.65072">
        <ele>6.5</ele>
        <time>2020-06-18T18:19:10Z</time>
      </trkpt>
      <trkpt lat="50.39374" lon="1.6507">
        <ele>6.5</ele>
        <time>2020-06-18T18:19:11Z</time>
      </trkpt>
      <trkpt lat="50.39382" lon="1.65068">
        <ele>6.6</ele>
        <time>2020-06-18T18:19:12Z</time>
      </trkpt>
      <trkpt lat="50.39389" lon="1.65067">
        <ele>6.6</ele>
        <time>2020-06-18T18:19:13Z</time>
      </trkpt>
      <trkpt lat="50.39397" lon="1.65065">
        <ele>6.6</ele>
        <time>2020-06-18T18:19:14Z</time>
      </trkpt>
      <trkpt lat="50.39405" lon="1.65063">
        <ele>6.6</ele>
        <time>2020-06-18T18:19:15Z</time>
      </trkpt>
      <trkpt lat="50.39412" lon="1.65061">
        <ele>6.6</ele>
        <time>2020-06-18T18:19:16Z</time>
      </trkpt>
      <trkpt lat="50.3942" lon="1.65059">
        <ele>6.5</ele>
        <time>2020-06-18T18:19:17Z</time>
      </trkpt>
      <trkpt lat="50.39428" lon="1.65057">
        <ele>6.5</ele>
        <time>2020-06-18T18:19:18Z</time>
      </trkpt>
      <trkpt lat="50.39435" lon="1.65055">
        <ele>6.5</ele>
        <time>2020-06-18T18:19:19Z</time>
      </trkpt>
      <trkpt lat="50.39443" lon="1.65051">
        <ele>6.5</ele>
        <time>2020-06-18T18:19:20Z</time>
      </trkpt>
      <trkpt lat="50.39451" lon="1.65049">
        <ele>6.5</ele>
        <time>2020-06-18T18:19:21Z</time>
      </trkpt>
      <trkpt lat="50.39459" lon="1.65047">
        <ele>6.6</ele>
        <time>2020-06-18T18:19:22Z</time>
      </trkpt>
      <trkpt lat="50.39467" lon="1.65046">
        <ele>6.6</ele>
        <time>2020-06-18T18:19:23Z</time>
      </trkpt>
      <trkpt lat="50.39474" lon="1.65044">
        <ele>6.6</ele>
        <time>2020-06-18T18:19:24Z</time>
      </trkpt>
      <trkpt lat="50.39482" lon="1.65042">
        <ele>6.6</ele>
        <time>2020-06-18T18:19:25Z</time>
      </trkpt>
      <trkpt lat="50.3949" lon="1.65041">
        <ele>6.5</ele>
        <time>2020-06-18T18:19:26Z</time>
      </trkpt>
      <trkpt lat="50.39497" lon="1.65038">
        <ele>6.5</ele>
        <time>2020-06-18T18:19:27Z</time>
      </trkpt>
      <trkpt lat="50.39505" lon="1.65036">
        <ele>6.5</ele>
        <time>2020-06-18T18:19:28Z</time>
      </trkpt>
      <trkpt lat="50.39513" lon="1.65031">
        <ele>6.4</ele>
        <time>2020-06-18T18:19:29Z</time>
      </trkpt>
      <trkpt lat="50.39521" lon="1.65028">
        <ele>6.4</ele>
        <time>2020-06-18T18:19:30Z</time>
      </trkpt>
      <trkpt lat="50.39529" lon="1.65026">
        <ele>6.4</ele>
        <time>2020-06-18T18:19:31Z</time>
      </trkpt>
      <trkpt lat="50.39537" lon="1.65022">
        <ele>6.5</ele>
        <time>2020-06-18T18:19:32Z</time>
      </trkpt>
      <trkpt lat="50.39545" lon="1.65019">
        <ele>6.3</ele>
        <time>2020-06-18T18:19:33Z</time>
      </trkpt>
      <trkpt lat="50.39553" lon="1.65016">
        <ele>6.3</ele>
        <time>2020-06-18T18:19:34Z</time>
      </trkpt>
      <trkpt lat="50.39561" lon="1.65013">
        <ele>6.3</ele>
        <time>2020-06-18T18:19:35Z</time>
      </trkpt>
      <trkpt lat="50.39569" lon="1.65009">
        <ele>6.3</ele>
        <time>2020-06-18T18:19:36Z</time>
      </trkpt>
      <trkpt lat="50.39578" lon="1.65006">
        <ele>6.3</ele>
        <time>2020-06-18T18:19:37Z</time>
      </trkpt>
      <trkpt lat="50.39586" lon="1.65002">
        <ele>6.4</ele>
        <time>2020-06-18T18:19:38Z</time>
      </trkpt>
      <trkpt lat="50.39594" lon="1.64998">
        <ele>6.4</ele>
        <time>2020-06-18T18:19:39Z</time>
      </trkpt>
      <trkpt lat="50.39602" lon="1.64995">
        <ele>6.5</ele>
        <time>2020-06-18T18:19:40Z</time>
      </trkpt>
      <trkpt lat="50.3961" lon="1.64991">
        <ele>6.5</ele>
        <time>2020-06-18T18:19:41Z</time>
      </trkpt>
      <trkpt lat="50.39619" lon="1.64986">
        <ele>6.5</ele>
        <time>2020-06-18T18:19:42Z</time>
      </trkpt>
      <trkpt lat="50.39627" lon="1.64983">
        <ele>6.6</ele>
        <time>2020-06-18T18:19:43Z</time>
      </trkpt>
      <trkpt lat="50.39635" lon="1.64979">
        <ele>6.6</ele>
        <time>2020-06-18T18:19:44Z</time>
      </trkpt>
      <trkpt lat="50.39643" lon="1.64975">
        <ele>6.7</ele>
        <time>2020-06-18T18:19:45Z</time>
      </trkpt>
      <trkpt lat="50.39651" lon="1.64971">
        <ele>6.8</ele>
        <time>2020-06-18T18:19:46Z</time>
      </trkpt>
      <trkpt lat="50.3966" lon="1.64967">
        <ele>6.8</ele>
        <time>2020-06-18T18:19:47Z</time>
      </trkpt>
      <trkpt lat="50.39667" lon="1.64962">
        <ele>6.8</ele>
        <time>2020-06-18T18:19:48Z</time>
      </trkpt>
      <trkpt lat="50.39675" lon="1.64958">
        <ele>6.9</ele>
        <time>2020-06-18T18:19:49Z</time>
      </trkpt>
      <trkpt lat="50.39682" lon="1.64954">
        <ele>6.9</ele>
        <time>2020-06-18T18:19:50Z</time>
      </trkpt>
      <trkpt lat="50.39689" lon="1.6495">
        <ele>6.9</ele>
        <time>2020-06-18T18:19:51Z</time>
      </trkpt>
      <trkpt lat="50.39696" lon="1.64946">
        <ele>7</ele>
        <time>2020-06-18T18:19:52Z</time>
      </trkpt>
      <trkpt lat="50.39704" lon="1.64942">
        <ele>7</ele>
        <time>2020-06-18T18:19:53Z</time>
      </trkpt>
      <trkpt lat="50.39711" lon="1.64939">
        <ele>7.1</ele>
        <time>2020-06-18T18:19:54Z</time>
      </trkpt>
      <trkpt lat="50.39718" lon="1.64936">
        <ele>7.1</ele>
        <time>2020-06-18T18:19:55Z</time>
      </trkpt>
      <trkpt lat="50.39725" lon="1.64932">
        <ele>7.1</ele>
        <time>2020-06-18T18:19:56Z</time>
      </trkpt>
      <trkpt lat="50.39732" lon="1.64929">
        <ele>7.1</ele>
        <time>2020-06-18T18:19:57Z</time>
      </trkpt>
      <trkpt lat="50.39739" lon="1.64927">
        <ele>7.1</ele>
        <time>2020-06-18T18:19:58Z</time>
      </trkpt>
      <trkpt lat="50.39745" lon="1.64925">
        <ele>7.2</ele>
        <time>2020-06-18T18:19:59Z</time>
      </trkpt>
      <trkpt lat="50.39752" lon="1.64922">
        <ele>7.2</ele>
        <time>2020-06-18T18:20:00Z</time>
      </trkpt>
      <trkpt lat="50.39759" lon="1.64919">
        <ele>7.3</ele>
        <time>2020-06-18T18:20:01Z</time>
      </trkpt>
      <trkpt lat="50.39766" lon="1.64918">
        <ele>7.3</ele>
        <time>2020-06-18T18:20:02Z</time>
      </trkpt>
      <trkpt lat="50.39773" lon="1.64916">
        <ele>7.4</ele>
        <time>2020-06-18T18:20:03Z</time>
      </trkpt>
      <trkpt lat="50.3978" lon="1.64914">
        <ele>7.4</ele>
        <time>2020-06-18T18:20:04Z</time>
      </trkpt>
      <trkpt lat="50.39787" lon="1.64912">
        <ele>7.5</ele>
        <time>2020-06-18T18:20:05Z</time>
      </trkpt>
      <trkpt lat="50.39794" lon="1.6491">
        <ele>7.6</ele>
        <time>2020-06-18T18:20:06Z</time>
      </trkpt>
      <trkpt lat="50.398" lon="1.64909">
        <ele>7.6</ele>
        <time>2020-06-18T18:20:07Z</time>
      </trkpt>
      <trkpt lat="50.39807" lon="1.64907">
        <ele>7.7</ele>
        <time>2020-06-18T18:20:08Z</time>
      </trkpt>
      <trkpt lat="50.39814" lon="1.64905">
        <ele>7.8</ele>
        <time>2020-06-18T18:20:09Z</time>
      </trkpt>
      <trkpt lat="50.39821" lon="1.64904">
        <ele>7.8</ele>
        <time>2020-06-18T18:20:10Z</time>
      </trkpt>
      <trkpt lat="50.39828" lon="1.64903">
        <ele>7.9</ele>
        <time>2020-06-18T18:20:11Z</time>
      </trkpt>
      <trkpt lat="50.39835" lon="1.64902">
        <ele>8</ele>
        <time>2020-06-18T18:20:12Z</time>
      </trkpt>
      <trkpt lat="50.39842" lon="1.64901">
        <ele>8.1</ele>
        <time>2020-06-18T18:20:13Z</time>
      </trkpt>
      <trkpt lat="50.39849" lon="1.64901">
        <ele>8.1</ele>
        <time>2020-06-18T18:20:14Z</time>
      </trkpt>
      <trkpt lat="50.39856" lon="1.649">
        <ele>8.2</ele>
        <time>2020-06-18T18:20:15Z</time>
      </trkpt>
      <trkpt lat="50.39863" lon="1.649">
        <ele>8.3</ele>
        <time>2020-06-18T18:20:16Z</time>
      </trkpt>
      <trkpt lat="50.3987" lon="1.649">
        <ele>8.3</ele>
        <time>2020-06-18T18:20:17Z</time>
      </trkpt>
      <trkpt lat="50.39877" lon="1.64899">
        <ele>8.3</ele>
        <time>2020-06-18T18:20:18Z</time>
      </trkpt>
      <trkpt lat="50.39884" lon="1.64898">
        <ele>8.4</ele>
        <time>2020-06-18T18:20:19Z</time>
      </trkpt>
      <trkpt lat="50.39891" lon="1.64897">
        <ele>8.5</ele>
        <time>2020-06-18T18:20:20Z</time>
      </trkpt>
      <trkpt lat="50.39899" lon="1.64897">
        <ele>8.6</ele>
        <time>2020-06-18T18:20:21Z</time>
      </trkpt>
      <trkpt lat="50.39906" lon="1.64896">
        <ele>8.7</ele>
        <time>2020-06-18T18:20:22Z</time>
      </trkpt>
      <trkpt lat="50.39913" lon="1.64897">
        <ele>8.8</ele>
        <time>2020-06-18T18:20:23Z</time>
      </trkpt>
      <trkpt lat="50.39921" lon="1.64898">
        <ele>8.8</ele>
        <time>2020-06-18T18:20:24Z</time>
      </trkpt>
      <trkpt lat="50.39928" lon="1.64899">
        <ele>8.9</ele>
        <time>2020-06-18T18:20:25Z</time>
      </trkpt>
      <trkpt lat="50.39935" lon="1.649">
        <ele>9</ele>
        <time>2020-06-18T18:20:26Z</time>
      </trkpt>
      <trkpt lat="50.39942" lon="1.64901">
        <ele>9</ele>
        <time>2020-06-18T18:20:27Z</time>
      </trkpt>
      <trkpt lat="50.39949" lon="1.64902">
        <ele>9</ele>
        <time>2020-06-18T18:20:28Z</time>
      </trkpt>
      <trkpt lat="50.39956" lon="1.64903">
        <ele>9</ele>
        <time>2020-06-18T18:20:29Z</time>
      </trkpt>
      <trkpt lat="50.39963" lon="1.64904">
        <ele>9</ele>
        <time>2020-06-18T18:20:30Z</time>
      </trkpt>
      <trkpt lat="50.3997" lon="1.64905">
        <ele>9</ele>
        <time>2020-06-18T18:20:31Z</time>
      </trkpt>
      <trkpt lat="50.39977" lon="1.64906">
        <ele>9.1</ele>
        <time>2020-06-18T18:20:32Z</time>
      </trkpt>
      <trkpt lat="50.39984" lon="1.64907">
        <ele>9.1</ele>
        <time>2020-06-18T18:20:33Z</time>
      </trkpt>
      <trkpt lat="50.39992" lon="1.64909">
        <ele>9.2</ele>
        <time>2020-06-18T18:20:34Z</time>
      </trkpt>
      <trkpt lat="50.39999" lon="1.64909">
        <ele>9.2</ele>
        <time>2020-06-18T18:20:35Z</time>
      </trkpt>
      <trkpt lat="50.40006" lon="1.6491">
        <ele>9.2</ele>
        <time>2020-06-18T18:20:36Z</time>
      </trkpt>
      <trkpt lat="50.40013" lon="1.64912">
        <ele>9.3</ele>
        <time>2020-06-18T18:20:37Z</time>
      </trkpt>
      <trkpt lat="50.4002" lon="1.64913">
        <ele>9.3</ele>
        <time>2020-06-18T18:20:38Z</time>
      </trkpt>
      <trkpt lat="50.40027" lon="1.64914">
        <ele>9.4</ele>
        <time>2020-06-18T18:20:39Z</time>
      </trkpt>
      <trkpt lat="50.40034" lon="1.64915">
        <ele>9.4</ele>
        <time>2020-06-18T18:20:40Z</time>
      </trkpt>
      <trkpt lat="50.40041" lon="1.64916">
        <ele>9.5</ele>
        <time>2020-06-18T18:20:41Z</time>
      </trkpt>
      <trkpt lat="50.40048" lon="1.64917">
        <ele>9.5</ele>
        <time>2020-06-18T18:20:42Z</time>
      </trkpt>
      <trkpt lat="50.40056" lon="1.64919">
        <ele>9.6</ele>
        <time>2020-06-18T18:20:43Z</time>
      </trkpt>
      <trkpt lat="50.40063" lon="1.64921">
        <ele>9.6</ele>
        <time>2020-06-18T18:20:44Z</time>
      </trkpt>
      <trkpt lat="50.40071" lon="1.64923">
        <ele>9.7</ele>
        <time>2020-06-18T18:20:45Z</time>
      </trkpt>
      <trkpt lat="50.40078" lon="1.64925">
        <ele>9.8</ele>
        <time>2020-06-18T18:20:46Z</time>
      </trkpt>
      <trkpt lat="50.40084" lon="1.64928">
        <ele>9.9</ele>
        <time>2020-06-18T18:20:47Z</time>
      </trkpt>
      <trkpt lat="50.40091" lon="1.64933">
        <ele>10</ele>
        <time>2020-06-18T18:20:48Z</time>
      </trkpt>
      <trkpt lat="50.40099" lon="1.64936">
        <ele>10.1</ele>
        <time>2020-06-18T18:20:49Z</time>
      </trkpt>
      <trkpt lat="50.40105" lon="1.64942">
        <ele>10.2</ele>
        <time>2020-06-18T18:20:50Z</time>
      </trkpt>
      <trkpt lat="50.40112" lon="1.64946">
        <ele>10.3</ele>
        <time>2020-06-18T18:20:51Z</time>
      </trkpt>
      <trkpt lat="50.40118" lon="1.64951">
        <ele>10.3</ele>
        <time>2020-06-18T18:20:52Z</time>
      </trkpt>
      <trkpt lat="50.40124" lon="1.64956">
        <ele>10.4</ele>
        <time>2020-06-18T18:20:53Z</time>
      </trkpt>
      <trkpt lat="50.4013" lon="1.64961">
        <ele>10.5</ele>
        <time>2020-06-18T18:20:54Z</time>
      </trkpt>
      <trkpt lat="50.40136" lon="1.64965">
        <ele>10.5</ele>
        <time>2020-06-18T18:20:55Z</time>
      </trkpt>
      <trkpt lat="50.40143" lon="1.64969">
        <ele>10.6</ele>
        <time>2020-06-18T18:20:56Z</time>
      </trkpt>
      <trkpt lat="50.4015" lon="1.64971">
        <ele>10.6</ele>
        <time>2020-06-18T18:20:57Z</time>
      </trkpt>
      <trkpt lat="50.40156" lon="1.64975">
        <ele>10.7</ele>
        <time>2020-06-18T18:20:58Z</time>
      </trkpt>
      <trkpt lat="50.40163" lon="1.64977">
        <ele>10.7</ele>
        <time>2020-06-18T18:20:59Z</time>
      </trkpt>
      <trkpt lat="50.4017" lon="1.64979">
        <ele>10.8</ele>
        <time>2020-06-18T18:21:00Z</time>
      </trkpt>
      <trkpt lat="50.40176" lon="1.64981">
        <ele>10.8</ele>
        <time>2020-06-18T18:21:01Z</time>
      </trkpt>
      <trkpt lat="50.40183" lon="1.64983">
        <ele>10.9</ele>
        <time>2020-06-18T18:21:02Z</time>
      </trkpt>
      <trkpt lat="50.4019" lon="1.64985">
        <ele>11</ele>
        <time>2020-06-18T18:21:03Z</time>
      </trkpt>
      <trkpt lat="50.40196" lon="1.64987">
        <ele>11</ele>
        <time>2020-06-18T18:21:04Z</time>
      </trkpt>
      <trkpt lat="50.40202" lon="1.64988">
        <ele>11</ele>
        <time>2020-06-18T18:21:05Z</time>
      </trkpt>
      <trkpt lat="50.40209" lon="1.6499">
        <ele>11.1</ele>
        <time>2020-06-18T18:21:06Z</time>
      </trkpt>
      <trkpt lat="50.40216" lon="1.64992">
        <ele>11.1</ele>
        <time>2020-06-18T18:21:07Z</time>
      </trkpt>
      <trkpt lat="50.40222" lon="1.64992">
        <ele>11.1</ele>
        <time>2020-06-18T18:21:08Z</time>
      </trkpt>
      <trkpt lat="50.40229" lon="1.64992">
        <ele>11.1</ele>
        <time>2020-06-18T18:21:09Z</time>
      </trkpt>
      <trkpt lat="50.40237" lon="1.64993">
        <ele>11.1</ele>
        <time>2020-06-18T18:21:10Z</time>
      </trkpt>
      <trkpt lat="50.40244" lon="1.64994">
        <ele>11</ele>
        <time>2020-06-18T18:21:11Z</time>
      </trkpt>
      <trkpt lat="50.40251" lon="1.64995">
        <ele>11</ele>
        <time>2020-06-18T18:21:12Z</time>
      </trkpt>
      <trkpt lat="50.40258" lon="1.64995">
        <ele>11</ele>
        <time>2020-06-18T18:21:13Z</time>
      </trkpt>
      <trkpt lat="50.40265" lon="1.64994">
        <ele>11</ele>
        <time>2020-06-18T18:21:14Z</time>
      </trkpt>
      <trkpt lat="50.40273" lon="1.64994">
        <ele>11</ele>
        <time>2020-06-18T18:21:15Z</time>
      </trkpt>
      <trkpt lat="50.4028" lon="1.64994">
        <ele>11</ele>
        <time>2020-06-18T18:21:16Z</time>
      </trkpt>
      <trkpt lat="50.40287" lon="1.64993">
        <ele>11</ele>
        <time>2020-06-18T18:21:17Z</time>
      </trkpt>
      <trkpt lat="50.40295" lon="1.64992">
        <ele>11</ele>
        <time>2020-06-18T18:21:18Z</time>
      </trkpt>
      <trkpt lat="50.40302" lon="1.64994">
        <ele>11</ele>
        <time>2020-06-18T18:21:19Z</time>
      </trkpt>
      <trkpt lat="50.40309" lon="1.64994">
        <ele>11</ele>
        <time>2020-06-18T18:21:20Z</time>
      </trkpt>
      <trkpt lat="50.40316" lon="1.64995">
        <ele>10.9</ele>
        <time>2020-06-18T18:21:21Z</time>
      </trkpt>
      <trkpt lat="50.40323" lon="1.64995">
        <ele>10.9</ele>
        <time>2020-06-18T18:21:22Z</time>
      </trkpt>
      <trkpt lat="50.4033" lon="1.64997">
        <ele>10.8</ele>
        <time>2020-06-18T18:21:23Z</time>
      </trkpt>
      <trkpt lat="50.40337" lon="1.64997">
        <ele>10.8</ele>
        <time>2020-06-18T18:21:24Z</time>
      </trkpt>
      <trkpt lat="50.40344" lon="1.65">
        <ele>10.7</ele>
        <time>2020-06-18T18:21:25Z</time>
      </trkpt>
      <trkpt lat="50.40352" lon="1.65">
        <ele>10.7</ele>
        <time>2020-06-18T18:21:26Z</time>
      </trkpt>
      <trkpt lat="50.4036" lon="1.64998">
        <ele>10.6</ele>
        <time>2020-06-18T18:21:27Z</time>
      </trkpt>
      <trkpt lat="50.40367" lon="1.64997">
        <ele>10.5</ele>
        <time>2020-06-18T18:21:28Z</time>
      </trkpt>
      <trkpt lat="50.40375" lon="1.64997">
        <ele>10.5</ele>
        <time>2020-06-18T18:21:29Z</time>
      </trkpt>
      <trkpt lat="50.40382" lon="1.64995">
        <ele>10.4</ele>
        <time>2020-06-18T18:21:30Z</time>
      </trkpt>
      <trkpt lat="50.40391" lon="1.64994">
        <ele>10.3</ele>
        <time>2020-06-18T18:21:31Z</time>
      </trkpt>
      <trkpt lat="50.40399" lon="1.6499">
        <ele>10.2</ele>
        <time>2020-06-18T18:21:32Z</time>
      </trkpt>
      <trkpt lat="50.40406" lon="1.64986">
        <ele>10.1</ele>
        <time>2020-06-18T18:21:33Z</time>
      </trkpt>
      <trkpt lat="50.40414" lon="1.64983">
        <ele>10.1</ele>
        <time>2020-06-18T18:21:34Z</time>
      </trkpt>
      <trkpt lat="50.40421" lon="1.64978">
        <ele>10.1</ele>
        <time>2020-06-18T18:21:35Z</time>
      </trkpt>
      <trkpt lat="50.40428" lon="1.64972">
        <ele>10</ele>
        <time>2020-06-18T18:21:36Z</time>
      </trkpt>
      <trkpt lat="50.40435" lon="1.64965">
        <ele>10</ele>
        <time>2020-06-18T18:21:37Z</time>
      </trkpt>
      <trkpt lat="50.40442" lon="1.64957">
        <ele>9.9</ele>
        <time>2020-06-18T18:21:38Z</time>
      </trkpt>
      <trkpt lat="50.40449" lon="1.6495">
        <ele>9.9</ele>
        <time>2020-06-18T18:21:39Z</time>
      </trkpt>
      <trkpt lat="50.40455" lon="1.64944">
        <ele>9.9</ele>
        <time>2020-06-18T18:21:40Z</time>
      </trkpt>
      <trkpt lat="50.40462" lon="1.64938">
        <ele>9.9</ele>
        <time>2020-06-18T18:21:41Z</time>
      </trkpt>
      <trkpt lat="50.40468" lon="1.64931">
        <ele>9.9</ele>
        <time>2020-06-18T18:21:42Z</time>
      </trkpt>
      <trkpt lat="50.40474" lon="1.64923">
        <ele>9.9</ele>
        <time>2020-06-18T18:21:43Z</time>
      </trkpt>
      <trkpt lat="50.40479" lon="1.64914">
        <ele>9.9</ele>
        <time>2020-06-18T18:21:44Z</time>
      </trkpt>
      <trkpt lat="50.40485" lon="1.64905">
        <ele>9.9</ele>
        <time>2020-06-18T18:21:45Z</time>
      </trkpt>
      <trkpt lat="50.40491" lon="1.64896">
        <ele>9.9</ele>
        <time>2020-06-18T18:21:46Z</time>
      </trkpt>
      <trkpt lat="50.40497" lon="1.64887">
        <ele>9.8</ele>
        <time>2020-06-18T18:21:47Z</time>
      </trkpt>
      <trkpt lat="50.40504" lon="1.64879">
        <ele>9.8</ele>
        <time>2020-06-18T18:21:48Z</time>
      </trkpt>
      <trkpt lat="50.4051" lon="1.64871">
        <ele>9.8</ele>
        <time>2020-06-18T18:21:49Z</time>
      </trkpt>
      <trkpt lat="50.40517" lon="1.64863">
        <ele>9.8</ele>
        <time>2020-06-18T18:21:50Z</time>
      </trkpt>
      <trkpt lat="50.40523" lon="1.64854">
        <ele>9.8</ele>
        <time>2020-06-18T18:21:51Z</time>
      </trkpt>
      <trkpt lat="50.40529" lon="1.64846">
        <ele>9.8</ele>
        <time>2020-06-18T18:21:52Z</time>
      </trkpt>
      <trkpt lat="50.40535" lon="1.64839">
        <ele>9.8</ele>
        <time>2020-06-18T18:21:53Z</time>
      </trkpt>
      <trkpt lat="50.40542" lon="1.6483">
        <ele>9.7</ele>
        <time>2020-06-18T18:21:54Z</time>
      </trkpt>
      <trkpt lat="50.40548" lon="1.64822">
        <ele>9.7</ele>
        <time>2020-06-18T18:21:55Z</time>
      </trkpt>
      <trkpt lat="50.40554" lon="1.64814">
        <ele>9.7</ele>
        <time>2020-06-18T18:21:56Z</time>
      </trkpt>
      <trkpt lat="50.4056" lon="1.64805">
        <ele>9.7</ele>
        <time>2020-06-18T18:21:57Z</time>
      </trkpt>
      <trkpt lat="50.40566" lon="1.64798">
        <ele>9.7</ele>
        <time>2020-06-18T18:21:58Z</time>
      </trkpt>
      <trkpt lat="50.40573" lon="1.64791">
        <ele>9.6</ele>
        <time>2020-06-18T18:21:59Z</time>
      </trkpt>
      <trkpt lat="50.4058" lon="1.64785">
        <ele>9.6</ele>
        <time>2020-06-18T18:22:00Z</time>
      </trkpt>
      <trkpt lat="50.40586" lon="1.6478">
        <ele>9.6</ele>
        <time>2020-06-18T18:22:01Z</time>
      </trkpt>
      <trkpt lat="50.40593" lon="1.64775">
        <ele>9.7</ele>
        <time>2020-06-18T18:22:02Z</time>
      </trkpt>
      <trkpt lat="50.406" lon="1.6477">
        <ele>9.8</ele>
        <time>2020-06-18T18:22:03Z</time>
      </trkpt>
      <trkpt lat="50.40607" lon="1.64765">
        <ele>9.7</ele>
        <time>2020-06-18T18:22:04Z</time>
      </trkpt>
      <trkpt lat="50.40614" lon="1.64762">
        <ele>9.7</ele>
        <time>2020-06-18T18:22:05Z</time>
      </trkpt>
      <trkpt lat="50.40621" lon="1.64758">
        <ele>9.7</ele>
        <time>2020-06-18T18:22:06Z</time>
      </trkpt>
      <trkpt lat="50.40628" lon="1.64755">
        <ele>9.7</ele>
        <time>2020-06-18T18:22:07Z</time>
      </trkpt>
      <trkpt lat="50.40636" lon="1.64753">
        <ele>9.6</ele>
        <time>2020-06-18T18:22:08Z</time>
      </trkpt>
      <trkpt lat="50.40643" lon="1.64751">
        <ele>9.6</ele>
        <time>2020-06-18T18:22:09Z</time>
      </trkpt>
      <trkpt lat="50.4065" lon="1.6475">
        <ele>9.5</ele>
        <time>2020-06-18T18:22:10Z</time>
      </trkpt>
      <trkpt lat="50.40657" lon="1.6475">
        <ele>9.5</ele>
        <time>2020-06-18T18:22:11Z</time>
      </trkpt>
      <trkpt lat="50.40664" lon="1.64751">
        <ele>9.5</ele>
        <time>2020-06-18T18:22:12Z</time>
      </trkpt>
      <trkpt lat="50.40672" lon="1.64751">
        <ele>9.5</ele>
        <time>2020-06-18T18:22:13Z</time>
      </trkpt>
      <trkpt lat="50.40679" lon="1.64753">
        <ele>9.5</ele>
        <time>2020-06-18T18:22:14Z</time>
      </trkpt>
      <trkpt lat="50.40687" lon="1.64752">
        <ele>9.4</ele>
        <time>2020-06-18T18:22:15Z</time>
      </trkpt>
      <trkpt lat="50.40694" lon="1.64752">
        <ele>9.4</ele>
        <time>2020-06-18T18:22:16Z</time>
      </trkpt>
      <trkpt lat="50.40702" lon="1.64751">
        <ele>9.4</ele>
        <time>2020-06-18T18:22:17Z</time>
      </trkpt>
      <trkpt lat="50.40709" lon="1.64749">
        <ele>9.4</ele>
        <time>2020-06-18T18:22:18Z</time>
      </trkpt>
      <trkpt lat="50.40715" lon="1.64748">
        <ele>9.3</ele>
        <time>2020-06-18T18:22:19Z</time>
      </trkpt>
      <trkpt lat="50.40722" lon="1.64747">
        <ele>9.3</ele>
        <time>2020-06-18T18:22:20Z</time>
      </trkpt>
      <trkpt lat="50.40729" lon="1.64745">
        <ele>9.3</ele>
        <time>2020-06-18T18:22:21Z</time>
      </trkpt>
      <trkpt lat="50.40737" lon="1.64745">
        <ele>9.3</ele>
        <time>2020-06-18T18:22:22Z</time>
      </trkpt>
      <trkpt lat="50.40744" lon="1.64745">
        <ele>9.4</ele>
        <time>2020-06-18T18:22:23Z</time>
      </trkpt>
      <trkpt lat="50.40751" lon="1.64745">
        <ele>9.4</ele>
        <time>2020-06-18T18:22:24Z</time>
      </trkpt>
      <trkpt lat="50.40759" lon="1.64748">
        <ele>9.5</ele>
        <time>2020-06-18T18:22:25Z</time>
      </trkpt>
      <trkpt lat="50.40765" lon="1.64754">
        <ele>9.4</ele>
        <time>2020-06-18T18:22:26Z</time>
      </trkpt>
      <trkpt lat="50.40771" lon="1.6476">
        <ele>9.5</ele>
        <time>2020-06-18T18:22:27Z</time>
      </trkpt>
      <trkpt lat="50.40777" lon="1.64767">
        <ele>9.7</ele>
        <time>2020-06-18T18:22:28Z</time>
      </trkpt>
      <trkpt lat="50.4078" lon="1.64778">
        <ele>9.8</ele>
        <time>2020-06-18T18:22:29Z</time>
      </trkpt>
      <trkpt lat="50.4078" lon="1.6479">
        <ele>9.6</ele>
        <time>2020-06-18T18:22:30Z</time>
      </trkpt>
      <trkpt lat="50.40781" lon="1.64801">
        <ele>9.5</ele>
        <time>2020-06-18T18:22:31Z</time>
      </trkpt>
      <trkpt lat="50.40782" lon="1.64812">
        <ele>9.4</ele>
        <time>2020-06-18T18:22:32Z</time>
      </trkpt>
      <trkpt lat="50.40782" lon="1.64823">
        <ele>9.4</ele>
        <time>2020-06-18T18:22:33Z</time>
      </trkpt>
      <trkpt lat="50.40783" lon="1.64833">
        <ele>9.5</ele>
        <time>2020-06-18T18:22:34Z</time>
      </trkpt>
      <trkpt lat="50.40783" lon="1.64843">
        <ele>9.5</ele>
        <time>2020-06-18T18:22:35Z</time>
      </trkpt>
      <trkpt lat="50.40783" lon="1.64853">
        <ele>9.6</ele>
        <time>2020-06-18T18:22:36Z</time>
      </trkpt>
      <trkpt lat="50.40783" lon="1.64862">
        <ele>9.6</ele>
        <time>2020-06-18T18:22:37Z</time>
      </trkpt>
      <trkpt lat="50.40783" lon="1.64872">
        <ele>9.6</ele>
        <time>2020-06-18T18:22:38Z</time>
      </trkpt>
      <trkpt lat="50.40783" lon="1.64881">
        <ele>9.6</ele>
        <time>2020-06-18T18:22:39Z</time>
      </trkpt>
      <trkpt lat="50.40783" lon="1.64891">
        <ele>9.5</ele>
        <time>2020-06-18T18:22:40Z</time>
      </trkpt>
      <trkpt lat="50.40782" lon="1.64901">
        <ele>9.5</ele>
        <time>2020-06-18T18:22:41Z</time>
      </trkpt>
      <trkpt lat="50.40782" lon="1.64912">
        <ele>9.5</ele>
        <time>2020-06-18T18:22:42Z</time>
      </trkpt>
      <trkpt lat="50.40782" lon="1.64926">
        <ele>9.4</ele>
        <time>2020-06-18T18:22:43Z</time>
      </trkpt>
      <trkpt lat="50.40783" lon="1.64938">
        <ele>9.3</ele>
        <time>2020-06-18T18:22:44Z</time>
      </trkpt>
      <trkpt lat="50.40782" lon="1.6495">
        <ele>9.1</ele>
        <time>2020-06-18T18:22:45Z</time>
      </trkpt>
      <trkpt lat="50.40782" lon="1.64965">
        <ele>8.8</ele>
        <time>2020-06-18T18:22:46Z</time>
      </trkpt>
      <trkpt lat="50.40782" lon="1.64979">
        <ele>8.6</ele>
        <time>2020-06-18T18:22:47Z</time>
      </trkpt>
      <trkpt lat="50.40783" lon="1.64994">
        <ele>8.5</ele>
        <time>2020-06-18T18:22:48Z</time>
      </trkpt>
      <trkpt lat="50.40783" lon="1.65008">
        <ele>8.3</ele>
        <time>2020-06-18T18:22:49Z</time>
      </trkpt>
      <trkpt lat="50.40783" lon="1.65022">
        <ele>8</ele>
        <time>2020-06-18T18:22:50Z</time>
      </trkpt>
      <trkpt lat="50.40784" lon="1.65037">
        <ele>7.8</ele>
        <time>2020-06-18T18:22:51Z</time>
      </trkpt>
      <trkpt lat="50.40784" lon="1.65053">
        <ele>7.7</ele>
        <time>2020-06-18T18:22:52Z</time>
      </trkpt>
      <trkpt lat="50.40784" lon="1.65068">
        <ele>7.7</ele>
        <time>2020-06-18T18:22:53Z</time>
      </trkpt>
      <trkpt lat="50.40784" lon="1.65083">
        <ele>7.8</ele>
        <time>2020-06-18T18:22:54Z</time>
      </trkpt>
      <trkpt lat="50.40784" lon="1.65098">
        <ele>8</ele>
        <time>2020-06-18T18:22:55Z</time>
      </trkpt>
      <trkpt lat="50.40784" lon="1.65112">
        <ele>8.2</ele>
        <time>2020-06-18T18:22:56Z</time>
      </trkpt>
      <trkpt lat="50.40784" lon="1.65126">
        <ele>8.8</ele>
        <time>2020-06-18T18:22:57Z</time>
      </trkpt>
      <trkpt lat="50.40785" lon="1.65139">
        <ele>9.3</ele>
        <time>2020-06-18T18:22:58Z</time>
      </trkpt>
      <trkpt lat="50.40786" lon="1.65152">
        <ele>9.8</ele>
        <time>2020-06-18T18:22:59Z</time>
      </trkpt>
      <trkpt lat="50.40786" lon="1.65165">
        <ele>10.3</ele>
        <time>2020-06-18T18:23:00Z</time>
      </trkpt>
      <trkpt lat="50.40787" lon="1.65177">
        <ele>10.8</ele>
        <time>2020-06-18T18:23:01Z</time>
      </trkpt>
      <trkpt lat="50.40788" lon="1.65189">
        <ele>11.2</ele>
        <time>2020-06-18T18:23:02Z</time>
      </trkpt>
      <trkpt lat="50.4079" lon="1.65199">
        <ele>11.6</ele>
        <time>2020-06-18T18:23:03Z</time>
      </trkpt>
      <trkpt lat="50.4079" lon="1.6521">
        <ele>12</ele>
        <time>2020-06-18T18:23:04Z</time>
      </trkpt>
      <trkpt lat="50.40792" lon="1.65219">
        <ele>12.3</ele>
        <time>2020-06-18T18:23:05Z</time>
      </trkpt>
      <trkpt lat="50.40793" lon="1.65228">
        <ele>12.6</ele>
        <time>2020-06-18T18:23:06Z</time>
      </trkpt>
      <trkpt lat="50.40794" lon="1.65237">
        <ele>12.9</ele>
        <time>2020-06-18T18:23:07Z</time>
      </trkpt>
      <trkpt lat="50.40795" lon="1.65245">
        <ele>13.2</ele>
        <time>2020-06-18T18:23:08Z</time>
      </trkpt>
      <trkpt lat="50.40797" lon="1.65252">
        <ele>13.4</ele>
        <time>2020-06-18T18:23:09Z</time>
      </trkpt>
      <trkpt lat="50.40799" lon="1.65259">
        <ele>13.6</ele>
        <time>2020-06-18T18:23:10Z</time>
      </trkpt>
      <trkpt lat="50.40802" lon="1.65265">
        <ele>14</ele>
        <time>2020-06-18T18:23:11Z</time>
      </trkpt>
      <trkpt lat="50.40804" lon="1.65271">
        <ele>14.3</ele>
        <time>2020-06-18T18:23:12Z</time>
      </trkpt>
      <trkpt lat="50.40806" lon="1.65278">
        <ele>14.6</ele>
        <time>2020-06-18T18:23:13Z</time>
      </trkpt>
      <trkpt lat="50.40809" lon="1.65283">
        <ele>14.8</ele>
        <time>2020-06-18T18:23:14Z</time>
      </trkpt>
      <trkpt lat="50.40811" lon="1.65289">
        <ele>15.1</ele>
        <time>2020-06-18T18:23:15Z</time>
      </trkpt>
      <trkpt lat="50.40813" lon="1.65294">
        <ele>15.2</ele>
        <time>2020-06-18T18:23:16Z</time>
      </trkpt>
      <trkpt lat="50.40815" lon="1.65299">
        <ele>15.3</ele>
        <time>2020-06-18T18:23:17Z</time>
      </trkpt>
      <trkpt lat="50.40817" lon="1.65303">
        <ele>15.4</ele>
        <time>2020-06-18T18:23:18Z</time>
      </trkpt>
      <trkpt lat="50.40819" lon="1.65307">
        <ele>15.5</ele>
        <time>2020-06-18T18:23:19Z</time>
      </trkpt>
      <trkpt lat="50.40821" lon="1.65312">
        <ele>15.6</ele>
        <time>2020-06-18T18:23:20Z</time>
      </trkpt>
      <trkpt lat="50.40822" lon="1.65316">
        <ele>15.7</ele>
        <time>2020-06-18T18:23:21Z</time>
      </trkpt>
      <trkpt lat="50.40824" lon="1.65321">
        <ele>15.8</ele>
        <time>2020-06-18T18:23:22Z</time>
      </trkpt>
      <trkpt lat="50.40826" lon="1.65326">
        <ele>15.9</ele>
        <time>2020-06-18T18:23:23Z</time>
      </trkpt>
      <trkpt lat="50.40829" lon="1.6533">
        <ele>16.1</ele>
        <time>2020-06-18T18:23:24Z</time>
      </trkpt>
      <trkpt lat="50.40831" lon="1.65335">
        <ele>16.3</ele>
        <time>2020-06-18T18:23:25Z</time>
      </trkpt>
      <trkpt lat="50.40833" lon="1.65338">
        <ele>16.4</ele>
        <time>2020-06-18T18:23:26Z</time>
      </trkpt>
      <trkpt lat="50.40836" lon="1.65344">
        <ele>16.6</ele>
        <time>2020-06-18T18:23:27Z</time>
      </trkpt>
      <trkpt lat="50.40838" lon="1.65347">
        <ele>16.8</ele>
        <time>2020-06-18T18:23:28Z</time>
      </trkpt>
      <trkpt lat="50.4084" lon="1.65352">
        <ele>16.9</ele>
        <time>2020-06-18T18:23:29Z</time>
      </trkpt>
      <trkpt lat="50.40842" lon="1.65357">
        <ele>17.1</ele>
        <time>2020-06-18T18:23:30Z</time>
      </trkpt>
      <trkpt lat="50.40844" lon="1.65363">
        <ele>17.3</ele>
        <time>2020-06-18T18:23:31Z</time>
      </trkpt>
      <trkpt lat="50.40844" lon="1.65366">
        <ele>17.4</ele>
        <time>2020-06-18T18:23:32Z</time>
      </trkpt>
      <trkpt lat="50.40846" lon="1.6537">
        <ele>17.6</ele>
        <time>2020-06-18T18:23:33Z</time>
      </trkpt>
      <trkpt lat="50.40847" lon="1.65375">
        <ele>18</ele>
        <time>2020-06-18T18:23:34Z</time>
      </trkpt>
      <trkpt lat="50.40848" lon="1.6538">
        <ele>18.3</ele>
        <time>2020-06-18T18:23:35Z</time>
      </trkpt>
      <trkpt lat="50.4085" lon="1.65387">
        <ele>18.5</ele>
        <time>2020-06-18T18:23:36Z</time>
      </trkpt>
      <trkpt lat="50.40852" lon="1.65392">
        <ele>18.4</ele>
        <time>2020-06-18T18:23:37Z</time>
      </trkpt>
      <trkpt lat="50.40852" lon="1.65399">
        <ele>18.2</ele>
        <time>2020-06-18T18:23:38Z</time>
      </trkpt>
      <trkpt lat="50.40851" lon="1.65406">
        <ele>18.2</ele>
        <time>2020-06-18T18:23:39Z</time>
      </trkpt>
      <trkpt lat="50.40851" lon="1.65412">
        <ele>18.2</ele>
        <time>2020-06-18T18:23:40Z</time>
      </trkpt>
      <trkpt lat="50.40852" lon="1.6542">
        <ele>18.2</ele>
        <time>2020-06-18T18:23:41Z</time>
      </trkpt>
      <trkpt lat="50.40853" lon="1.65428">
        <ele>18.1</ele>
        <time>2020-06-18T18:23:42Z</time>
      </trkpt>
      <trkpt lat="50.40854" lon="1.65434">
        <ele>18.1</ele>
        <time>2020-06-18T18:23:43Z</time>
      </trkpt>
      <trkpt lat="50.40857" lon="1.65441">
        <ele>18</ele>
        <time>2020-06-18T18:23:44Z</time>
      </trkpt>
      <trkpt lat="50.40859" lon="1.65447">
        <ele>17.9</ele>
        <time>2020-06-18T18:23:45Z</time>
      </trkpt>
      <trkpt lat="50.40862" lon="1.65452">
        <ele>17.9</ele>
        <time>2020-06-18T18:23:46Z</time>
      </trkpt>
      <trkpt lat="50.40867" lon="1.65457">
        <ele>18</ele>
        <time>2020-06-18T18:23:47Z</time>
      </trkpt>
      <trkpt lat="50.40871" lon="1.6546">
        <ele>18</ele>
        <time>2020-06-18T18:23:48Z</time>
      </trkpt>
      <trkpt lat="50.40875" lon="1.65462">
        <ele>18</ele>
        <time>2020-06-18T18:23:49Z</time>
      </trkpt>
      <trkpt lat="50.40881" lon="1.65464">
        <ele>18</ele>
        <time>2020-06-18T18:23:50Z</time>
      </trkpt>
      <trkpt lat="50.40885" lon="1.65466">
        <ele>18.1</ele>
        <time>2020-06-18T18:23:51Z</time>
      </trkpt>
      <trkpt lat="50.4089" lon="1.65467">
        <ele>18.3</ele>
        <time>2020-06-18T18:23:52Z</time>
      </trkpt>
      <trkpt lat="50.40895" lon="1.65468">
        <ele>18.4</ele>
        <time>2020-06-18T18:23:53Z</time>
      </trkpt>
      <trkpt lat="50.40899" lon="1.65467">
        <ele>18.6</ele>
        <time>2020-06-18T18:23:54Z</time>
      </trkpt>
      <trkpt lat="50.40903" lon="1.65468">
        <ele>18.7</ele>
        <time>2020-06-18T18:23:55Z</time>
      </trkpt>
      <trkpt lat="50.40907" lon="1.6547">
        <ele>18.8</ele>
        <time>2020-06-18T18:23:56Z</time>
      </trkpt>
      <trkpt lat="50.40911" lon="1.65473">
        <ele>19</ele>
        <time>2020-06-18T18:23:57Z</time>
      </trkpt>
      <trkpt lat="50.40914" lon="1.65476">
        <ele>19.1</ele>
        <time>2020-06-18T18:23:58Z</time>
      </trkpt>
      <trkpt lat="50.40916" lon="1.6548">
        <ele>19.2</ele>
        <time>2020-06-18T18:23:59Z</time>
      </trkpt>
      <trkpt lat="50.4092" lon="1.65485">
        <ele>19.4</ele>
        <time>2020-06-18T18:24:00Z</time>
      </trkpt>
      <trkpt lat="50.40923" lon="1.65489">
        <ele>19.5</ele>
        <time>2020-06-18T18:24:01Z</time>
      </trkpt>
      <trkpt lat="50.40928" lon="1.65495">
        <ele>19.7</ele>
        <time>2020-06-18T18:24:02Z</time>
      </trkpt>
      <trkpt lat="50.40932" lon="1.65501">
        <ele>21.1</ele>
        <time>2020-06-18T18:24:03Z</time>
      </trkpt>
      <trkpt lat="50.40935" lon="1.65505">
        <ele>22.4</ele>
        <time>2020-06-18T18:24:04Z</time>
      </trkpt>
      <trkpt lat="50.40939" lon="1.6551">
        <ele>23.6</ele>
        <time>2020-06-18T18:24:05Z</time>
      </trkpt>
      <trkpt lat="50.40942" lon="1.65515">
        <ele>24.4</ele>
        <time>2020-06-18T18:24:06Z</time>
      </trkpt>
      <trkpt lat="50.40945" lon="1.6552">
        <ele>25.1</ele>
        <time>2020-06-18T18:24:07Z</time>
      </trkpt>
      <trkpt lat="50.40948" lon="1.65526">
        <ele>25.6</ele>
        <time>2020-06-18T18:24:08Z</time>
      </trkpt>
      <trkpt lat="50.40951" lon="1.65532">
        <ele>26</ele>
        <time>2020-06-18T18:24:09Z</time>
      </trkpt>
      <trkpt lat="50.40954" lon="1.65536">
        <ele>26.2</ele>
        <time>2020-06-18T18:24:10Z</time>
      </trkpt>
      <trkpt lat="50.40957" lon="1.65542">
        <ele>26.5</ele>
        <time>2020-06-18T18:24:11Z</time>
      </trkpt>
      <trkpt lat="50.4096" lon="1.65547">
        <ele>26.7</ele>
        <time>2020-06-18T18:24:12Z</time>
      </trkpt>
      <trkpt lat="50.40962" lon="1.65553">
        <ele>27</ele>
        <time>2020-06-18T18:24:13Z</time>
      </trkpt>
      <trkpt lat="50.40966" lon="1.65559">
        <ele>27.2</ele>
        <time>2020-06-18T18:24:14Z</time>
      </trkpt>
      <trkpt lat="50.40969" lon="1.65564">
        <ele>27.4</ele>
        <time>2020-06-18T18:24:15Z</time>
      </trkpt>
      <trkpt lat="50.40971" lon="1.65568">
        <ele>27.6</ele>
        <time>2020-06-18T18:24:16Z</time>
      </trkpt>
      <trkpt lat="50.40973" lon="1.65572">
        <ele>27.7</ele>
        <time>2020-06-18T18:24:17Z</time>
      </trkpt>
      <trkpt lat="50.40976" lon="1.65577">
        <ele>27.9</ele>
        <time>2020-06-18T18:24:18Z</time>
      </trkpt>
      <trkpt lat="50.40979" lon="1.65582">
        <ele>28</ele>
        <time>2020-06-18T18:24:19Z</time>
      </trkpt>
      <trkpt lat="50.40981" lon="1.65585">
        <ele>28.2</ele>
        <time>2020-06-18T18:24:20Z</time>
      </trkpt>
      <trkpt lat="50.40984" lon="1.6559">
        <ele>28.3</ele>
        <time>2020-06-18T18:24:21Z</time>
      </trkpt>
      <trkpt lat="50.40987" lon="1.65595">
        <ele>28.4</ele>
        <time>2020-06-18T18:24:22Z</time>
      </trkpt>
      <trkpt lat="50.4099" lon="1.656">
        <ele>28.6</ele>
        <time>2020-06-18T18:24:23Z</time>
      </trkpt>
      <trkpt lat="50.40993" lon="1.65606">
        <ele>28.8</ele>
        <time>2020-06-18T18:24:24Z</time>
      </trkpt>
      <trkpt lat="50.40996" lon="1.65611">
        <ele>29</ele>
        <time>2020-06-18T18:24:25Z</time>
      </trkpt>
      <trkpt lat="50.40999" lon="1.65617">
        <ele>29.1</ele>
        <time>2020-06-18T18:24:26Z</time>
      </trkpt>
      <trkpt lat="50.41002" lon="1.65623">
        <ele>29.4</ele>
        <time>2020-06-18T18:24:27Z</time>
      </trkpt>
      <trkpt lat="50.41005" lon="1.6563">
        <ele>29.6</ele>
        <time>2020-06-18T18:24:28Z</time>
      </trkpt>
      <trkpt lat="50.41008" lon="1.65636">
        <ele>29.8</ele>
        <time>2020-06-18T18:24:29Z</time>
      </trkpt>
      <trkpt lat="50.41011" lon="1.65642">
        <ele>30</ele>
        <time>2020-06-18T18:24:30Z</time>
      </trkpt>
      <trkpt lat="50.41014" lon="1.65647">
        <ele>30.2</ele>
        <time>2020-06-18T18:24:31Z</time>
      </trkpt>
      <trkpt lat="50.41017" lon="1.65653">
        <ele>30.5</ele>
        <time>2020-06-18T18:24:32Z</time>
      </trkpt>
      <trkpt lat="50.41021" lon="1.65658">
        <ele>30.7</ele>
        <time>2020-06-18T18:24:33Z</time>
      </trkpt>
      <trkpt lat="50.41024" lon="1.65664">
        <ele>30.9</ele>
        <time>2020-06-18T18:24:34Z</time>
      </trkpt>
      <trkpt lat="50.41027" lon="1.65669">
        <ele>31.1</ele>
        <time>2020-06-18T18:24:35Z</time>
      </trkpt>
      <trkpt lat="50.4103" lon="1.65675">
        <ele>31.3</ele>
        <time>2020-06-18T18:24:36Z</time>
      </trkpt>
      <trkpt lat="50.41034" lon="1.65682">
        <ele>31.6</ele>
        <time>2020-06-18T18:24:37Z</time>
      </trkpt>
      <trkpt lat="50.41037" lon="1.65688">
        <ele>31.8</ele>
        <time>2020-06-18T18:24:38Z</time>
      </trkpt>
      <trkpt lat="50.4104" lon="1.65694">
        <ele>32</ele>
        <time>2020-06-18T18:24:39Z</time>
      </trkpt>
      <trkpt lat="50.41043" lon="1.65701">
        <ele>32.2</ele>
        <time>2020-06-18T18:24:40Z</time>
      </trkpt>
      <trkpt lat="50.41046" lon="1.65706">
        <ele>32.4</ele>
        <time>2020-06-18T18:24:41Z</time>
      </trkpt>
      <trkpt lat="50.41049" lon="1.65713">
        <ele>32.6</ele>
        <time>2020-06-18T18:24:42Z</time>
      </trkpt>
      <trkpt lat="50.41051" lon="1.65717">
        <ele>32.8</ele>
        <time>2020-06-18T18:24:43Z</time>
      </trkpt>
      <trkpt lat="50.41053" lon="1.65722">
        <ele>33</ele>
        <time>2020-06-18T18:24:44Z</time>
      </trkpt>
      <trkpt lat="50.41056" lon="1.65727">
        <ele>33.2</ele>
        <time>2020-06-18T18:24:45Z</time>
      </trkpt>
      <trkpt lat="50.41059" lon="1.65732">
        <ele>33.4</ele>
        <time>2020-06-18T18:24:46Z</time>
      </trkpt>
      <trkpt lat="50.41062" lon="1.65738">
        <ele>33.7</ele>
        <time>2020-06-18T18:24:47Z</time>
      </trkpt>
      <trkpt lat="50.41064" lon="1.65744">
        <ele>34</ele>
        <time>2020-06-18T18:24:48Z</time>
      </trkpt>
      <trkpt lat="50.41067" lon="1.65749">
        <ele>34.2</ele>
        <time>2020-06-18T18:24:49Z</time>
      </trkpt>
      <trkpt lat="50.4107" lon="1.65755">
        <ele>34.5</ele>
        <time>2020-06-18T18:24:50Z</time>
      </trkpt>
      <trkpt lat="50.41073" lon="1.65761">
        <ele>34.7</ele>
        <time>2020-06-18T18:24:51Z</time>
      </trkpt>
      <trkpt lat="50.41076" lon="1.65767">
        <ele>34.9</ele>
        <time>2020-06-18T18:24:52Z</time>
      </trkpt>
      <trkpt lat="50.41078" lon="1.65772">
        <ele>35.1</ele>
        <time>2020-06-18T18:24:53Z</time>
      </trkpt>
      <trkpt lat="50.41081" lon="1.65777">
        <ele>35.3</ele>
        <time>2020-06-18T18:24:54Z</time>
      </trkpt>
      <trkpt lat="50.41084" lon="1.65783">
        <ele>35.5</ele>
        <time>2020-06-18T18:24:55Z</time>
      </trkpt>
      <trkpt lat="50.41087" lon="1.65788">
        <ele>35.7</ele>
        <time>2020-06-18T18:24:56Z</time>
      </trkpt>
      <trkpt lat="50.4109" lon="1.65793">
        <ele>35.9</ele>
        <time>2020-06-18T18:24:57Z</time>
      </trkpt>
      <trkpt lat="50.41092" lon="1.65798">
        <ele>36.1</ele>
        <time>2020-06-18T18:24:58Z</time>
      </trkpt>
      <trkpt lat="50.41095" lon="1.65803">
        <ele>36.3</ele>
        <time>2020-06-18T18:24:59Z</time>
      </trkpt>
      <trkpt lat="50.41098" lon="1.65808">
        <ele>36.5</ele>
        <time>2020-06-18T18:25:00Z</time>
      </trkpt>
      <trkpt lat="50.41101" lon="1.65815">
        <ele>36.8</ele>
        <time>2020-06-18T18:25:01Z</time>
      </trkpt>
      <trkpt lat="50.41104" lon="1.6582">
        <ele>37</ele>
        <time>2020-06-18T18:25:02Z</time>
      </trkpt>
      <trkpt lat="50.41107" lon="1.65827">
        <ele>37.3</ele>
        <time>2020-06-18T18:25:03Z</time>
      </trkpt>
      <trkpt lat="50.41109" lon="1.65832">
        <ele>37.6</ele>
        <time>2020-06-18T18:25:04Z</time>
      </trkpt>
      <trkpt lat="50.41111" lon="1.65836">
        <ele>37.8</ele>
        <time>2020-06-18T18:25:05Z</time>
      </trkpt>
      <trkpt lat="50.41113" lon="1.65841">
        <ele>38</ele>
        <time>2020-06-18T18:25:06Z</time>
      </trkpt>
      <trkpt lat="50.41115" lon="1.65847">
        <ele>38.2</ele>
        <time>2020-06-18T18:25:07Z</time>
      </trkpt>
      <trkpt lat="50.41118" lon="1.65852">
        <ele>38.5</ele>
        <time>2020-06-18T18:25:08Z</time>
      </trkpt>
      <trkpt lat="50.4112" lon="1.65858">
        <ele>38.7</ele>
        <time>2020-06-18T18:25:09Z</time>
      </trkpt>
      <trkpt lat="50.41122" lon="1.65864">
        <ele>38.9</ele>
        <time>2020-06-18T18:25:10Z</time>
      </trkpt>
      <trkpt lat="50.41126" lon="1.6587">
        <ele>39.2</ele>
        <time>2020-06-18T18:25:11Z</time>
      </trkpt>
      <trkpt lat="50.41129" lon="1.65876">
        <ele>39.4</ele>
        <time>2020-06-18T18:25:12Z</time>
      </trkpt>
      <trkpt lat="50.41131" lon="1.6588">
        <ele>39.6</ele>
        <time>2020-06-18T18:25:13Z</time>
      </trkpt>
      <trkpt lat="50.41133" lon="1.65884">
        <ele>39.7</ele>
        <time>2020-06-18T18:25:14Z</time>
      </trkpt>
      <trkpt lat="50.41136" lon="1.65889">
        <ele>40</ele>
        <time>2020-06-18T18:25:15Z</time>
      </trkpt>
      <trkpt lat="50.41137" lon="1.65893">
        <ele>40.1</ele>
        <time>2020-06-18T18:25:16Z</time>
      </trkpt>
      <trkpt lat="50.41139" lon="1.65899">
        <ele>40.4</ele>
        <time>2020-06-18T18:25:17Z</time>
      </trkpt>
      <trkpt lat="50.41141" lon="1.65906">
        <ele>40.6</ele>
        <time>2020-06-18T18:25:18Z</time>
      </trkpt>
      <trkpt lat="50.41143" lon="1.65912">
        <ele>40.8</ele>
        <time>2020-06-18T18:25:19Z</time>
      </trkpt>
      <trkpt lat="50.41145" lon="1.65918">
        <ele>41</ele>
        <time>2020-06-18T18:25:20Z</time>
      </trkpt>
      <trkpt lat="50.41148" lon="1.65924">
        <ele>41.2</ele>
        <time>2020-06-18T18:25:21Z</time>
      </trkpt>
      <trkpt lat="50.4115" lon="1.6593">
        <ele>41.4</ele>
        <time>2020-06-18T18:25:22Z</time>
      </trkpt>
      <trkpt lat="50.41153" lon="1.65936">
        <ele>41.6</ele>
        <time>2020-06-18T18:25:23Z</time>
      </trkpt>
      <trkpt lat="50.41156" lon="1.65942">
        <ele>41.8</ele>
        <time>2020-06-18T18:25:24Z</time>
      </trkpt>
      <trkpt lat="50.41159" lon="1.65949">
        <ele>42</ele>
        <time>2020-06-18T18:25:25Z</time>
      </trkpt>
      <trkpt lat="50.41162" lon="1.65955">
        <ele>42.3</ele>
        <time>2020-06-18T18:25:26Z</time>
      </trkpt>
      <trkpt lat="50.41165" lon="1.65962">
        <ele>42.5</ele>
        <time>2020-06-18T18:25:27Z</time>
      </trkpt>
      <trkpt lat="50.41168" lon="1.65967">
        <ele>42.7</ele>
        <time>2020-06-18T18:25:28Z</time>
      </trkpt>
      <trkpt lat="50.41171" lon="1.65973">
        <ele>42.8</ele>
        <time>2020-06-18T18:25:29Z</time>
      </trkpt>
      <trkpt lat="50.41173" lon="1.65977">
        <ele>42.9</ele>
        <time>2020-06-18T18:25:30Z</time>
      </trkpt>
      <trkpt lat="50.41176" lon="1.65983">
        <ele>43</ele>
        <time>2020-06-18T18:25:31Z</time>
      </trkpt>
      <trkpt lat="50.41179" lon="1.65989">
        <ele>43.2</ele>
        <time>2020-06-18T18:25:32Z</time>
      </trkpt>
      <trkpt lat="50.41181" lon="1.65995">
        <ele>43.4</ele>
        <time>2020-06-18T18:25:33Z</time>
      </trkpt>
      <trkpt lat="50.41184" lon="1.66001">
        <ele>43.6</ele>
        <time>2020-06-18T18:25:34Z</time>
      </trkpt>
      <trkpt lat="50.41185" lon="1.66005">
        <ele>43.8</ele>
        <time>2020-06-18T18:25:35Z</time>
      </trkpt>
      <trkpt lat="50.41188" lon="1.66011">
        <ele>43.9</ele>
        <time>2020-06-18T18:25:36Z</time>
      </trkpt>
      <trkpt lat="50.4119" lon="1.66017">
        <ele>44.1</ele>
        <time>2020-06-18T18:25:37Z</time>
      </trkpt>
      <trkpt lat="50.41193" lon="1.66022">
        <ele>44.2</ele>
        <time>2020-06-18T18:25:38Z</time>
      </trkpt>
      <trkpt lat="50.41195" lon="1.66027">
        <ele>44.4</ele>
        <time>2020-06-18T18:25:39Z</time>
      </trkpt>
      <trkpt lat="50.41198" lon="1.66034">
        <ele>44.6</ele>
        <time>2020-06-18T18:25:40Z</time>
      </trkpt>
      <trkpt lat="50.41201" lon="1.66039">
        <ele>44.7</ele>
        <time>2020-06-18T18:25:41Z</time>
      </trkpt>
      <trkpt lat="50.41204" lon="1.66044">
        <ele>44.8</ele>
        <time>2020-06-18T18:25:42Z</time>
      </trkpt>
      <trkpt lat="50.41207" lon="1.6605">
        <ele>44.9</ele>
        <time>2020-06-18T18:25:43Z</time>
      </trkpt>
      <trkpt lat="50.41209" lon="1.66055">
        <ele>45</ele>
        <time>2020-06-18T18:25:44Z</time>
      </trkpt>
      <trkpt lat="50.41211" lon="1.66061">
        <ele>45.2</ele>
        <time>2020-06-18T18:25:45Z</time>
      </trkpt>
      <trkpt lat="50.41213" lon="1.66067">
        <ele>45.3</ele>
        <time>2020-06-18T18:25:46Z</time>
      </trkpt>
      <trkpt lat="50.41216" lon="1.66072">
        <ele>45.5</ele>
        <time>2020-06-18T18:25:47Z</time>
      </trkpt>
      <trkpt lat="50.41218" lon="1.66078">
        <ele>45.6</ele>
        <time>2020-06-18T18:25:48Z</time>
      </trkpt>
      <trkpt lat="50.41222" lon="1.66084">
        <ele>45.8</ele>
        <time>2020-06-18T18:25:49Z</time>
      </trkpt>
      <trkpt lat="50.41224" lon="1.6609">
        <ele>45.9</ele>
        <time>2020-06-18T18:25:50Z</time>
      </trkpt>
      <trkpt lat="50.41226" lon="1.66096">
        <ele>46</ele>
        <time>2020-06-18T18:25:51Z</time>
      </trkpt>
      <trkpt lat="50.41229" lon="1.66102">
        <ele>46.1</ele>
        <time>2020-06-18T18:25:52Z</time>
      </trkpt>
      <trkpt lat="50.41231" lon="1.66108">
        <ele>46.1</ele>
        <time>2020-06-18T18:25:53Z</time>
      </trkpt>
      <trkpt lat="50.41234" lon="1.66113">
        <ele>46.2</ele>
        <time>2020-06-18T18:25:54Z</time>
      </trkpt>
      <trkpt lat="50.41237" lon="1.66118">
        <ele>46.4</ele>
        <time>2020-06-18T18:25:55Z</time>
      </trkpt>
      <trkpt lat="50.41239" lon="1.66124">
        <ele>46.5</ele>
        <time>2020-06-18T18:25:56Z</time>
      </trkpt>
      <trkpt lat="50.41242" lon="1.6613">
        <ele>46.7</ele>
        <time>2020-06-18T18:25:57Z</time>
      </trkpt>
      <trkpt lat="50.41245" lon="1.66138">
        <ele>46.9</ele>
        <time>2020-06-18T18:25:58Z</time>
      </trkpt>
      <trkpt lat="50.41248" lon="1.66144">
        <ele>47.1</ele>
        <time>2020-06-18T18:25:59Z</time>
      </trkpt>
      <trkpt lat="50.41251" lon="1.66152">
        <ele>47.3</ele>
        <time>2020-06-18T18:26:00Z</time>
      </trkpt>
      <trkpt lat="50.41254" lon="1.66159">
        <ele>47.5</ele>
        <time>2020-06-18T18:26:01Z</time>
      </trkpt>
      <trkpt lat="50.41256" lon="1.66165">
        <ele>47.6</ele>
        <time>2020-06-18T18:26:02Z</time>
      </trkpt>
      <trkpt lat="50.4126" lon="1.66171">
        <ele>47.6</ele>
        <time>2020-06-18T18:26:03Z</time>
      </trkpt>
      <trkpt lat="50.41263" lon="1.66178">
        <ele>47.6</ele>
        <time>2020-06-18T18:26:04Z</time>
      </trkpt>
      <trkpt lat="50.41265" lon="1.66184">
        <ele>47.6</ele>
        <time>2020-06-18T18:26:05Z</time>
      </trkpt>
      <trkpt lat="50.41268" lon="1.6619">
        <ele>47.6</ele>
        <time>2020-06-18T18:26:06Z</time>
      </trkpt>
      <trkpt lat="50.41271" lon="1.66197">
        <ele>47.6</ele>
        <time>2020-06-18T18:26:07Z</time>
      </trkpt>
      <trkpt lat="50.41273" lon="1.66204">
        <ele>47.6</ele>
        <time>2020-06-18T18:26:08Z</time>
      </trkpt>
      <trkpt lat="50.41276" lon="1.66211">
        <ele>47.7</ele>
        <time>2020-06-18T18:26:09Z</time>
      </trkpt>
      <trkpt lat="50.41279" lon="1.66218">
        <ele>47.8</ele>
        <time>2020-06-18T18:26:10Z</time>
      </trkpt>
      <trkpt lat="50.41282" lon="1.66225">
        <ele>47.9</ele>
        <time>2020-06-18T18:26:11Z</time>
      </trkpt>
      <trkpt lat="50.41285" lon="1.6623">
        <ele>48</ele>
        <time>2020-06-18T18:26:12Z</time>
      </trkpt>
      <trkpt lat="50.41288" lon="1.66237">
        <ele>48.1</ele>
        <time>2020-06-18T18:26:13Z</time>
      </trkpt>
      <trkpt lat="50.41292" lon="1.66244">
        <ele>48.2</ele>
        <time>2020-06-18T18:26:14Z</time>
      </trkpt>
      <trkpt lat="50.41295" lon="1.66251">
        <ele>48.3</ele>
        <time>2020-06-18T18:26:15Z</time>
      </trkpt>
      <trkpt lat="50.41298" lon="1.66259">
        <ele>48.4</ele>
        <time>2020-06-18T18:26:16Z</time>
      </trkpt>
      <trkpt lat="50.41302" lon="1.66266">
        <ele>48.5</ele>
        <time>2020-06-18T18:26:17Z</time>
      </trkpt>
      <trkpt lat="50.41305" lon="1.66274">
        <ele>48.6</ele>
        <time>2020-06-18T18:26:18Z</time>
      </trkpt>
      <trkpt lat="50.41308" lon="1.66281">
        <ele>48.7</ele>
        <time>2020-06-18T18:26:19Z</time>
      </trkpt>
      <trkpt lat="50.41312" lon="1.66289">
        <ele>48.9</ele>
        <time>2020-06-18T18:26:20Z</time>
      </trkpt>
      <trkpt lat="50.41316" lon="1.66298">
        <ele>49</ele>
        <time>2020-06-18T18:26:21Z</time>
      </trkpt>
      <trkpt lat="50.41319" lon="1.66307">
        <ele>49.1</ele>
        <time>2020-06-18T18:26:22Z</time>
      </trkpt>
      <trkpt lat="50.41322" lon="1.66314">
        <ele>49.1</ele>
        <time>2020-06-18T18:26:23Z</time>
      </trkpt>
      <trkpt lat="50.41325" lon="1.66323">
        <ele>49.2</ele>
        <time>2020-06-18T18:26:24Z</time>
      </trkpt>
      <trkpt lat="50.41328" lon="1.66333">
        <ele>49.2</ele>
        <time>2020-06-18T18:26:25Z</time>
      </trkpt>
      <trkpt lat="50.41332" lon="1.66341">
        <ele>49.3</ele>
        <time>2020-06-18T18:26:26Z</time>
      </trkpt>
      <trkpt lat="50.41336" lon="1.6635">
        <ele>49.4</ele>
        <time>2020-06-18T18:26:27Z</time>
      </trkpt>
      <trkpt lat="50.41339" lon="1.66358">
        <ele>49.5</ele>
        <time>2020-06-18T18:26:28Z</time>
      </trkpt>
      <trkpt lat="50.41343" lon="1.66367">
        <ele>49.5</ele>
        <time>2020-06-18T18:26:29Z</time>
      </trkpt>
      <trkpt lat="50.41345" lon="1.66375">
        <ele>49.5</ele>
        <time>2020-06-18T18:26:30Z</time>
      </trkpt>
      <trkpt lat="50.41349" lon="1.66383">
        <ele>49.5</ele>
        <time>2020-06-18T18:26:31Z</time>
      </trkpt>
      <trkpt lat="50.41351" lon="1.66391">
        <ele>49.5</ele>
        <time>2020-06-18T18:26:32Z</time>
      </trkpt>
      <trkpt lat="50.41354" lon="1.66397">
        <ele>49.5</ele>
        <time>2020-06-18T18:26:33Z</time>
      </trkpt>
      <trkpt lat="50.41356" lon="1.66404">
        <ele>49.6</ele>
        <time>2020-06-18T18:26:34Z</time>
      </trkpt>
      <trkpt lat="50.41359" lon="1.66411">
        <ele>49.6</ele>
        <time>2020-06-18T18:26:35Z</time>
      </trkpt>
      <trkpt lat="50.41361" lon="1.6642">
        <ele>49.6</ele>
        <time>2020-06-18T18:26:36Z</time>
      </trkpt>
      <trkpt lat="50.41364" lon="1.66427">
        <ele>49.7</ele>
        <time>2020-06-18T18:26:37Z</time>
      </trkpt>
      <trkpt lat="50.41367" lon="1.66434">
        <ele>49.6</ele>
        <time>2020-06-18T18:26:38Z</time>
      </trkpt>
      <trkpt lat="50.41369" lon="1.6644">
        <ele>49.6</ele>
        <time>2020-06-18T18:26:39Z</time>
      </trkpt>
      <trkpt lat="50.4137" lon="1.66446">
        <ele>49.6</ele>
        <time>2020-06-18T18:26:40Z</time>
      </trkpt>
      <trkpt lat="50.41371" lon="1.66452">
        <ele>49.6</ele>
        <time>2020-06-18T18:26:41Z</time>
      </trkpt>
      <trkpt lat="50.41373" lon="1.66459">
        <ele>49.6</ele>
        <time>2020-06-18T18:26:42Z</time>
      </trkpt>
      <trkpt lat="50.41376" lon="1.66467">
        <ele>49.7</ele>
        <time>2020-06-18T18:26:43Z</time>
      </trkpt>
      <trkpt lat="50.41378" lon="1.66474">
        <ele>49.8</ele>
        <time>2020-06-18T18:26:44Z</time>
      </trkpt>
      <trkpt lat="50.4138" lon="1.66482">
        <ele>49.9</ele>
        <time>2020-06-18T18:26:45Z</time>
      </trkpt>
      <trkpt lat="50.41383" lon="1.6649">
        <ele>49.9</ele>
        <time>2020-06-18T18:26:46Z</time>
      </trkpt>
      <trkpt lat="50.41385" lon="1.66498">
        <ele>49.9</ele>
        <time>2020-06-18T18:26:47Z</time>
      </trkpt>
      <trkpt lat="50.41387" lon="1.66506">
        <ele>49.6</ele>
        <time>2020-06-18T18:26:48Z</time>
      </trkpt>
      <trkpt lat="50.4139" lon="1.66515">
        <ele>48.9</ele>
        <time>2020-06-18T18:26:49Z</time>
      </trkpt>
      <trkpt lat="50.41392" lon="1.66523">
        <ele>47.6</ele>
        <time>2020-06-18T18:26:50Z</time>
      </trkpt>
      <trkpt lat="50.41394" lon="1.6653">
        <ele>45.9</ele>
        <time>2020-06-18T18:26:51Z</time>
      </trkpt>
      <trkpt lat="50.41396" lon="1.66539">
        <ele>44.6</ele>
        <time>2020-06-18T18:26:52Z</time>
      </trkpt>
      <trkpt lat="50.41397" lon="1.66549">
        <ele>44.6</ele>
        <time>2020-06-18T18:26:53Z</time>
      </trkpt>
      <trkpt lat="50.41398" lon="1.66558">
        <ele>44.7</ele>
        <time>2020-06-18T18:26:54Z</time>
      </trkpt>
      <trkpt lat="50.41398" lon="1.66567">
        <ele>44.7</ele>
        <time>2020-06-18T18:26:55Z</time>
      </trkpt>
      <trkpt lat="50.41399" lon="1.66577">
        <ele>44.7</ele>
        <time>2020-06-18T18:26:56Z</time>
      </trkpt>
      <trkpt lat="50.414" lon="1.66588">
        <ele>44.7</ele>
        <time>2020-06-18T18:26:57Z</time>
      </trkpt>
      <trkpt lat="50.414" lon="1.66597">
        <ele>44.8</ele>
        <time>2020-06-18T18:26:58Z</time>
      </trkpt>
      <trkpt lat="50.41401" lon="1.66606">
        <ele>44.8</ele>
        <time>2020-06-18T18:26:59Z</time>
      </trkpt>
      <trkpt lat="50.41399" lon="1.66614">
        <ele>44.8</ele>
        <time>2020-06-18T18:27:00Z</time>
      </trkpt>
      <trkpt lat="50.41396" lon="1.66623">
        <ele>44.8</ele>
        <time>2020-06-18T18:27:01Z</time>
      </trkpt>
      <trkpt lat="50.41393" lon="1.6663">
        <ele>44.8</ele>
        <time>2020-06-18T18:27:02Z</time>
      </trkpt>
      <trkpt lat="50.41389" lon="1.66637">
        <ele>44.8</ele>
        <time>2020-06-18T18:27:03Z</time>
      </trkpt>
      <trkpt lat="50.41386" lon="1.66646">
        <ele>44.8</ele>
        <time>2020-06-18T18:27:04Z</time>
      </trkpt>
      <trkpt lat="50.41383" lon="1.66654">
        <ele>44.9</ele>
        <time>2020-06-18T18:27:05Z</time>
      </trkpt>
      <trkpt lat="50.41381" lon="1.66666">
        <ele>45.1</ele>
        <time>2020-06-18T18:27:06Z</time>
      </trkpt>
      <trkpt lat="50.41379" lon="1.66675">
        <ele>45.2</ele>
        <time>2020-06-18T18:27:07Z</time>
      </trkpt>
      <trkpt lat="50.41379" lon="1.66685">
        <ele>45.2</ele>
        <time>2020-06-18T18:27:08Z</time>
      </trkpt>
      <trkpt lat="50.41381" lon="1.66694">
        <ele>45.2</ele>
        <time>2020-06-18T18:27:09Z</time>
      </trkpt>
      <trkpt lat="50.41387" lon="1.66702">
        <ele>45.2</ele>
        <time>2020-06-18T18:27:10Z</time>
      </trkpt>
      <trkpt lat="50.41393" lon="1.66709">
        <ele>45.3</ele>
        <time>2020-06-18T18:27:11Z</time>
      </trkpt>
      <trkpt lat="50.41399" lon="1.66713">
        <ele>45.5</ele>
        <time>2020-06-18T18:27:12Z</time>
      </trkpt>
      <trkpt lat="50.41403" lon="1.66715">
        <ele>45.6</ele>
        <time>2020-06-18T18:27:13Z</time>
      </trkpt>
      <trkpt lat="50.41409" lon="1.66716">
        <ele>45.4</ele>
        <time>2020-06-18T18:27:14Z</time>
      </trkpt>
      <trkpt lat="50.41414" lon="1.66714">
        <ele>45.2</ele>
        <time>2020-06-18T18:27:15Z</time>
      </trkpt>
      <trkpt lat="50.4142" lon="1.6671">
        <ele>45.1</ele>
        <time>2020-06-18T18:27:16Z</time>
      </trkpt>
      <trkpt lat="50.41426" lon="1.66706">
        <ele>44.9</ele>
        <time>2020-06-18T18:27:17Z</time>
      </trkpt>
      <trkpt lat="50.41431" lon="1.66702">
        <ele>44.8</ele>
        <time>2020-06-18T18:27:18Z</time>
      </trkpt>
      <trkpt lat="50.41436" lon="1.66696">
        <ele>44.8</ele>
        <time>2020-06-18T18:27:19Z</time>
      </trkpt>
      <trkpt lat="50.4144" lon="1.66689">
        <ele>44.8</ele>
        <time>2020-06-18T18:27:20Z</time>
      </trkpt>
      <trkpt lat="50.41444" lon="1.66682">
        <ele>44.9</ele>
        <time>2020-06-18T18:27:21Z</time>
      </trkpt>
      <trkpt lat="50.41447" lon="1.66675">
        <ele>44.9</ele>
        <time>2020-06-18T18:27:22Z</time>
      </trkpt>
      <trkpt lat="50.41451" lon="1.66668">
        <ele>44.8</ele>
        <time>2020-06-18T18:27:23Z</time>
      </trkpt>
      <trkpt lat="50.41456" lon="1.66662">
        <ele>44.8</ele>
        <time>2020-06-18T18:27:24Z</time>
      </trkpt>
      <trkpt lat="50.41461" lon="1.66657">
        <ele>44.7</ele>
        <time>2020-06-18T18:27:25Z</time>
      </trkpt>
      <trkpt lat="50.41466" lon="1.66653">
        <ele>44.7</ele>
        <time>2020-06-18T18:27:26Z</time>
      </trkpt>
      <trkpt lat="50.4147" lon="1.66647">
        <ele>44.6</ele>
        <time>2020-06-18T18:27:27Z</time>
      </trkpt>
      <trkpt lat="50.41474" lon="1.66641">
        <ele>44.5</ele>
        <time>2020-06-18T18:27:28Z</time>
      </trkpt>
      <trkpt lat="50.41478" lon="1.66634">
        <ele>44.5</ele>
        <time>2020-06-18T18:27:29Z</time>
      </trkpt>
      <trkpt lat="50.41481" lon="1.66627">
        <ele>44.4</ele>
        <time>2020-06-18T18:27:30Z</time>
      </trkpt>
      <trkpt lat="50.41484" lon="1.6662">
        <ele>44.4</ele>
        <time>2020-06-18T18:27:31Z</time>
      </trkpt>
      <trkpt lat="50.41487" lon="1.66612">
        <ele>44.4</ele>
        <time>2020-06-18T18:27:32Z</time>
      </trkpt>
      <trkpt lat="50.41491" lon="1.66604">
        <ele>44.4</ele>
        <time>2020-06-18T18:27:33Z</time>
      </trkpt>
      <trkpt lat="50.41494" lon="1.66598">
        <ele>44.4</ele>
        <time>2020-06-18T18:27:34Z</time>
      </trkpt>
      <trkpt lat="50.41497" lon="1.66593">
        <ele>44.4</ele>
        <time>2020-06-18T18:27:35Z</time>
      </trkpt>
      <trkpt lat="50.41501" lon="1.66587">
        <ele>44.4</ele>
        <time>2020-06-18T18:27:36Z</time>
      </trkpt>
      <trkpt lat="50.41504" lon="1.66579">
        <ele>44.4</ele>
        <time>2020-06-18T18:27:37Z</time>
      </trkpt>
      <trkpt lat="50.41506" lon="1.66573">
        <ele>44.4</ele>
        <time>2020-06-18T18:27:38Z</time>
      </trkpt>
      <trkpt lat="50.41509" lon="1.66567">
        <ele>44.4</ele>
        <time>2020-06-18T18:27:39Z</time>
      </trkpt>
      <trkpt lat="50.41512" lon="1.66561">
        <ele>44.4</ele>
        <time>2020-06-18T18:27:40Z</time>
      </trkpt>
      <trkpt lat="50.41516" lon="1.66554">
        <ele>44.4</ele>
        <time>2020-06-18T18:27:41Z</time>
      </trkpt>
      <trkpt lat="50.4152" lon="1.66546">
        <ele>44.3</ele>
        <time>2020-06-18T18:27:42Z</time>
      </trkpt>
      <trkpt lat="50.41523" lon="1.66539">
        <ele>44.2</ele>
        <time>2020-06-18T18:27:43Z</time>
      </trkpt>
      <trkpt lat="50.41527" lon="1.66533">
        <ele>44.2</ele>
        <time>2020-06-18T18:27:44Z</time>
      </trkpt>
      <trkpt lat="50.4153" lon="1.66524">
        <ele>44.2</ele>
        <time>2020-06-18T18:27:45Z</time>
      </trkpt>
      <trkpt lat="50.41534" lon="1.66516">
        <ele>44.1</ele>
        <time>2020-06-18T18:27:46Z</time>
      </trkpt>
      <trkpt lat="50.41538" lon="1.66507">
        <ele>44.1</ele>
        <time>2020-06-18T18:27:47Z</time>
      </trkpt>
      <trkpt lat="50.41542" lon="1.66498">
        <ele>44.1</ele>
        <time>2020-06-18T18:27:48Z</time>
      </trkpt>
      <trkpt lat="50.41546" lon="1.66491">
        <ele>44</ele>
        <time>2020-06-18T18:27:49Z</time>
      </trkpt>
      <trkpt lat="50.4155" lon="1.66485">
        <ele>44</ele>
        <time>2020-06-18T18:27:50Z</time>
      </trkpt>
      <trkpt lat="50.41552" lon="1.66479">
        <ele>44</ele>
        <time>2020-06-18T18:27:51Z</time>
      </trkpt>
      <trkpt lat="50.41555" lon="1.66473">
        <ele>44</ele>
        <time>2020-06-18T18:27:52Z</time>
      </trkpt>
      <trkpt lat="50.41558" lon="1.66466">
        <ele>43.9</ele>
        <time>2020-06-18T18:27:53Z</time>
      </trkpt>
      <trkpt lat="50.41561" lon="1.6646">
        <ele>43.9</ele>
        <time>2020-06-18T18:27:54Z</time>
      </trkpt>
      <trkpt lat="50.41565" lon="1.66453">
        <ele>43.9</ele>
        <time>2020-06-18T18:27:55Z</time>
      </trkpt>
      <trkpt lat="50.41569" lon="1.66445">
        <ele>43.8</ele>
        <time>2020-06-18T18:27:56Z</time>
      </trkpt>
      <trkpt lat="50.41573" lon="1.66438">
        <ele>43.8</ele>
        <time>2020-06-18T18:27:57Z</time>
      </trkpt>
      <trkpt lat="50.41576" lon="1.66432">
        <ele>43.8</ele>
        <time>2020-06-18T18:27:58Z</time>
      </trkpt>
      <trkpt lat="50.41581" lon="1.66426">
        <ele>43.8</ele>
        <time>2020-06-18T18:27:59Z</time>
      </trkpt>
      <trkpt lat="50.41584" lon="1.66419">
        <ele>43.7</ele>
        <time>2020-06-18T18:28:00Z</time>
      </trkpt>
      <trkpt lat="50.41589" lon="1.66414">
        <ele>43.7</ele>
        <time>2020-06-18T18:28:01Z</time>
      </trkpt>
      <trkpt lat="50.41593" lon="1.66408">
        <ele>43.5</ele>
        <time>2020-06-18T18:28:02Z</time>
      </trkpt>
      <trkpt lat="50.41597" lon="1.66402">
        <ele>43.4</ele>
        <time>2020-06-18T18:28:03Z</time>
      </trkpt>
      <trkpt lat="50.41601" lon="1.66394">
        <ele>43.3</ele>
        <time>2020-06-18T18:28:04Z</time>
      </trkpt>
      <trkpt lat="50.41605" lon="1.66387">
        <ele>43.2</ele>
        <time>2020-06-18T18:28:05Z</time>
      </trkpt>
      <trkpt lat="50.41609" lon="1.66379">
        <ele>43.1</ele>
        <time>2020-06-18T18:28:06Z</time>
      </trkpt>
      <trkpt lat="50.41613" lon="1.66371">
        <ele>43</ele>
        <time>2020-06-18T18:28:07Z</time>
      </trkpt>
      <trkpt lat="50.41618" lon="1.66364">
        <ele>43</ele>
        <time>2020-06-18T18:28:08Z</time>
      </trkpt>
      <trkpt lat="50.41621" lon="1.66357">
        <ele>42.9</ele>
        <time>2020-06-18T18:28:09Z</time>
      </trkpt>
      <trkpt lat="50.41625" lon="1.66349">
        <ele>42.9</ele>
        <time>2020-06-18T18:28:10Z</time>
      </trkpt>
      <trkpt lat="50.41629" lon="1.66341">
        <ele>42.8</ele>
        <time>2020-06-18T18:28:11Z</time>
      </trkpt>
      <trkpt lat="50.41634" lon="1.66333">
        <ele>42.8</ele>
        <time>2020-06-18T18:28:12Z</time>
      </trkpt>
      <trkpt lat="50.41638" lon="1.66326">
        <ele>42.7</ele>
        <time>2020-06-18T18:28:13Z</time>
      </trkpt>
      <trkpt lat="50.41642" lon="1.66318">
        <ele>42.7</ele>
        <time>2020-06-18T18:28:14Z</time>
      </trkpt>
      <trkpt lat="50.41646" lon="1.66311">
        <ele>42.6</ele>
        <time>2020-06-18T18:28:15Z</time>
      </trkpt>
      <trkpt lat="50.41651" lon="1.66303">
        <ele>42.5</ele>
        <time>2020-06-18T18:28:16Z</time>
      </trkpt>
      <trkpt lat="50.41654" lon="1.66295">
        <ele>42.4</ele>
        <time>2020-06-18T18:28:17Z</time>
      </trkpt>
      <trkpt lat="50.41656" lon="1.66286">
        <ele>42.3</ele>
        <time>2020-06-18T18:28:18Z</time>
      </trkpt>
      <trkpt lat="50.41658" lon="1.66278">
        <ele>42.2</ele>
        <time>2020-06-18T18:28:19Z</time>
      </trkpt>
      <trkpt lat="50.4166" lon="1.66269">
        <ele>42.1</ele>
        <time>2020-06-18T18:28:20Z</time>
      </trkpt>
      <trkpt lat="50.41663" lon="1.6626">
        <ele>42.1</ele>
        <time>2020-06-18T18:28:21Z</time>
      </trkpt>
      <trkpt lat="50.41665" lon="1.66252">
        <ele>42.2</ele>
        <time>2020-06-18T18:28:22Z</time>
      </trkpt>
      <trkpt lat="50.41667" lon="1.66244">
        <ele>42.2</ele>
        <time>2020-06-18T18:28:23Z</time>
      </trkpt>
      <trkpt lat="50.4167" lon="1.66236">
        <ele>42.8</ele>
        <time>2020-06-18T18:28:24Z</time>
      </trkpt>
      <trkpt lat="50.41672" lon="1.66228">
        <ele>43.4</ele>
        <time>2020-06-18T18:28:25Z</time>
      </trkpt>
      <trkpt lat="50.41674" lon="1.66221">
        <ele>42.5</ele>
        <time>2020-06-18T18:28:26Z</time>
      </trkpt>
      <trkpt lat="50.41676" lon="1.66214">
        <ele>42.1</ele>
        <time>2020-06-18T18:28:27Z</time>
      </trkpt>
      <trkpt lat="50.41679" lon="1.66206">
        <ele>41.5</ele>
        <time>2020-06-18T18:28:28Z</time>
      </trkpt>
      <trkpt lat="50.41683" lon="1.662">
        <ele>41</ele>
        <time>2020-06-18T18:28:29Z</time>
      </trkpt>
      <trkpt lat="50.41686" lon="1.66194">
        <ele>40.5</ele>
        <time>2020-06-18T18:28:30Z</time>
      </trkpt>
      <trkpt lat="50.4169" lon="1.66183">
        <ele>39.4</ele>
        <time>2020-06-18T18:28:31Z</time>
      </trkpt>
      <trkpt lat="50.41693" lon="1.66174">
        <ele>39.1</ele>
        <time>2020-06-18T18:28:32Z</time>
      </trkpt>
      <trkpt lat="50.41697" lon="1.66166">
        <ele>38.8</ele>
        <time>2020-06-18T18:28:33Z</time>
      </trkpt>
      <trkpt lat="50.41702" lon="1.66156">
        <ele>38.5</ele>
        <time>2020-06-18T18:28:34Z</time>
      </trkpt>
      <trkpt lat="50.41706" lon="1.66147">
        <ele>38.1</ele>
        <time>2020-06-18T18:28:35Z</time>
      </trkpt>
      <trkpt lat="50.4171" lon="1.66138">
        <ele>37.8</ele>
        <time>2020-06-18T18:28:36Z</time>
      </trkpt>
      <trkpt lat="50.41714" lon="1.66129">
        <ele>37.5</ele>
        <time>2020-06-18T18:28:37Z</time>
      </trkpt>
      <trkpt lat="50.41718" lon="1.66119">
        <ele>37.1</ele>
        <time>2020-06-18T18:28:38Z</time>
      </trkpt>
      <trkpt lat="50.41722" lon="1.6611">
        <ele>36.8</ele>
        <time>2020-06-18T18:28:39Z</time>
      </trkpt>
      <trkpt lat="50.41726" lon="1.66101">
        <ele>36.4</ele>
        <time>2020-06-18T18:28:40Z</time>
      </trkpt>
      <trkpt lat="50.4173" lon="1.66091">
        <ele>36</ele>
        <time>2020-06-18T18:28:41Z</time>
      </trkpt>
      <trkpt lat="50.41734" lon="1.66081">
        <ele>35.6</ele>
        <time>2020-06-18T18:28:42Z</time>
      </trkpt>
      <trkpt lat="50.41738" lon="1.66071">
        <ele>35.2</ele>
        <time>2020-06-18T18:28:43Z</time>
      </trkpt>
      <trkpt lat="50.41742" lon="1.66061">
        <ele>34.8</ele>
        <time>2020-06-18T18:28:44Z</time>
      </trkpt>
      <trkpt lat="50.41745" lon="1.6605">
        <ele>34.4</ele>
        <time>2020-06-18T18:28:45Z</time>
      </trkpt>
      <trkpt lat="50.41748" lon="1.66039">
        <ele>34</ele>
        <time>2020-06-18T18:28:46Z</time>
      </trkpt>
      <trkpt lat="50.41751" lon="1.66028">
        <ele>33.5</ele>
        <time>2020-06-18T18:28:47Z</time>
      </trkpt>
      <trkpt lat="50.41753" lon="1.66016">
        <ele>33.1</ele>
        <time>2020-06-18T18:28:48Z</time>
      </trkpt>
      <trkpt lat="50.41755" lon="1.66004">
        <ele>32.7</ele>
        <time>2020-06-18T18:28:49Z</time>
      </trkpt>
      <trkpt lat="50.41756" lon="1.65992">
        <ele>32.2</ele>
        <time>2020-06-18T18:28:50Z</time>
      </trkpt>
      <trkpt lat="50.41757" lon="1.65979">
        <ele>31.8</ele>
        <time>2020-06-18T18:28:51Z</time>
      </trkpt>
      <trkpt lat="50.41758" lon="1.65967">
        <ele>31.4</ele>
        <time>2020-06-18T18:28:52Z</time>
      </trkpt>
      <trkpt lat="50.41758" lon="1.65954">
        <ele>31</ele>
        <time>2020-06-18T18:28:53Z</time>
      </trkpt>
      <trkpt lat="50.41759" lon="1.65942">
        <ele>30.5</ele>
        <time>2020-06-18T18:28:54Z</time>
      </trkpt>
      <trkpt lat="50.41759" lon="1.65929">
        <ele>30.1</ele>
        <time>2020-06-18T18:28:55Z</time>
      </trkpt>
      <trkpt lat="50.4176" lon="1.65915">
        <ele>29.6</ele>
        <time>2020-06-18T18:28:56Z</time>
      </trkpt>
      <trkpt lat="50.4176" lon="1.65902">
        <ele>29.1</ele>
        <time>2020-06-18T18:28:57Z</time>
      </trkpt>
      <trkpt lat="50.41761" lon="1.65889">
        <ele>28.7</ele>
        <time>2020-06-18T18:28:58Z</time>
      </trkpt>
      <trkpt lat="50.41761" lon="1.65876">
        <ele>28.3</ele>
        <time>2020-06-18T18:28:59Z</time>
      </trkpt>
      <trkpt lat="50.41762" lon="1.65863">
        <ele>27.9</ele>
        <time>2020-06-18T18:29:00Z</time>
      </trkpt>
      <trkpt lat="50.41762" lon="1.65849">
        <ele>27.5</ele>
        <time>2020-06-18T18:29:01Z</time>
      </trkpt>
      <trkpt lat="50.41762" lon="1.65836">
        <ele>27.2</ele>
        <time>2020-06-18T18:29:02Z</time>
      </trkpt>
      <trkpt lat="50.41763" lon="1.65823">
        <ele>26.8</ele>
        <time>2020-06-18T18:29:03Z</time>
      </trkpt>
      <trkpt lat="50.41763" lon="1.65811">
        <ele>26.5</ele>
        <time>2020-06-18T18:29:04Z</time>
      </trkpt>
      <trkpt lat="50.41763" lon="1.65798">
        <ele>26.1</ele>
        <time>2020-06-18T18:29:05Z</time>
      </trkpt>
      <trkpt lat="50.41763" lon="1.65785">
        <ele>25.7</ele>
        <time>2020-06-18T18:29:06Z</time>
      </trkpt>
      <trkpt lat="50.41764" lon="1.65772">
        <ele>25.3</ele>
        <time>2020-06-18T18:29:07Z</time>
      </trkpt>
      <trkpt lat="50.41764" lon="1.6576">
        <ele>24.9</ele>
        <time>2020-06-18T18:29:08Z</time>
      </trkpt>
      <trkpt lat="50.41766" lon="1.65747">
        <ele>24.6</ele>
        <time>2020-06-18T18:29:09Z</time>
      </trkpt>
      <trkpt lat="50.41766" lon="1.65735">
        <ele>24.2</ele>
        <time>2020-06-18T18:29:10Z</time>
      </trkpt>
      <trkpt lat="50.41766" lon="1.65722">
        <ele>23.8</ele>
        <time>2020-06-18T18:29:11Z</time>
      </trkpt>
      <trkpt lat="50.41767" lon="1.6571">
        <ele>23.5</ele>
        <time>2020-06-18T18:29:12Z</time>
      </trkpt>
      <trkpt lat="50.41769" lon="1.65698">
        <ele>23.1</ele>
        <time>2020-06-18T18:29:13Z</time>
      </trkpt>
      <trkpt lat="50.41771" lon="1.65686">
        <ele>22.8</ele>
        <time>2020-06-18T18:29:14Z</time>
      </trkpt>
      <trkpt lat="50.41773" lon="1.65674">
        <ele>22.4</ele>
        <time>2020-06-18T18:29:15Z</time>
      </trkpt>
      <trkpt lat="50.41776" lon="1.65662">
        <ele>22.1</ele>
        <time>2020-06-18T18:29:16Z</time>
      </trkpt>
      <trkpt lat="50.41779" lon="1.6565">
        <ele>21.7</ele>
        <time>2020-06-18T18:29:17Z</time>
      </trkpt>
      <trkpt lat="50.41783" lon="1.65639">
        <ele>21.3</ele>
        <time>2020-06-18T18:29:18Z</time>
      </trkpt>
      <trkpt lat="50.41786" lon="1.65628">
        <ele>21</ele>
        <time>2020-06-18T18:29:19Z</time>
      </trkpt>
      <trkpt lat="50.4179" lon="1.65616">
        <ele>20.7</ele>
        <time>2020-06-18T18:29:20Z</time>
      </trkpt>
      <trkpt lat="50.41795" lon="1.65606">
        <ele>20.3</ele>
        <time>2020-06-18T18:29:21Z</time>
      </trkpt>
      <trkpt lat="50.418" lon="1.65596">
        <ele>20</ele>
        <time>2020-06-18T18:29:22Z</time>
      </trkpt>
      <trkpt lat="50.41805" lon="1.65585">
        <ele>19.7</ele>
        <time>2020-06-18T18:29:23Z</time>
      </trkpt>
      <trkpt lat="50.4181" lon="1.65576">
        <ele>19.3</ele>
        <time>2020-06-18T18:29:24Z</time>
      </trkpt>
      <trkpt lat="50.41817" lon="1.65567">
        <ele>19</ele>
        <time>2020-06-18T18:29:25Z</time>
      </trkpt>
      <trkpt lat="50.41823" lon="1.65558">
        <ele>18.7</ele>
        <time>2020-06-18T18:29:26Z</time>
      </trkpt>
      <trkpt lat="50.4183" lon="1.65551">
        <ele>18.5</ele>
        <time>2020-06-18T18:29:27Z</time>
      </trkpt>
      <trkpt lat="50.41838" lon="1.65544">
        <ele>18.3</ele>
        <time>2020-06-18T18:29:28Z</time>
      </trkpt>
      <trkpt lat="50.41845" lon="1.65538">
        <ele>18.2</ele>
        <time>2020-06-18T18:29:29Z</time>
      </trkpt>
      <trkpt lat="50.41853" lon="1.65535">
        <ele>18.1</ele>
        <time>2020-06-18T18:29:30Z</time>
      </trkpt>
      <trkpt lat="50.41861" lon="1.65534">
        <ele>18.4</ele>
        <time>2020-06-18T18:29:31Z</time>
      </trkpt>
      <trkpt lat="50.41869" lon="1.65535">
        <ele>18.3</ele>
        <time>2020-06-18T18:29:32Z</time>
      </trkpt>
      <trkpt lat="50.41877" lon="1.65535">
        <ele>18.2</ele>
        <time>2020-06-18T18:29:33Z</time>
      </trkpt>
      <trkpt lat="50.41885" lon="1.65533">
        <ele>18</ele>
        <time>2020-06-18T18:29:34Z</time>
      </trkpt>
      <trkpt lat="50.41892" lon="1.65528">
        <ele>18.6</ele>
        <time>2020-06-18T18:29:35Z</time>
      </trkpt>
      <trkpt lat="50.41897" lon="1.65519">
        <ele>18.2</ele>
        <time>2020-06-18T18:29:36Z</time>
      </trkpt>
      <trkpt lat="50.41901" lon="1.65508">
        <ele>17.8</ele>
        <time>2020-06-18T18:29:37Z</time>
      </trkpt>
      <trkpt lat="50.41902" lon="1.65497">
        <ele>17.3</ele>
        <time>2020-06-18T18:29:38Z</time>
      </trkpt>
      <trkpt lat="50.41903" lon="1.65486">
        <ele>17.7</ele>
        <time>2020-06-18T18:29:39Z</time>
      </trkpt>
      <trkpt lat="50.41904" lon="1.65476">
        <ele>17.6</ele>
        <time>2020-06-18T18:29:40Z</time>
      </trkpt>
      <trkpt lat="50.41907" lon="1.65465">
        <ele>17.5</ele>
        <time>2020-06-18T18:29:41Z</time>
      </trkpt>
      <trkpt lat="50.41911" lon="1.65456">
        <ele>17.4</ele>
        <time>2020-06-18T18:29:42Z</time>
      </trkpt>
      <trkpt lat="50.41916" lon="1.65449">
        <ele>17.3</ele>
        <time>2020-06-18T18:29:43Z</time>
      </trkpt>
      <trkpt lat="50.41921" lon="1.65441">
        <ele>17.1</ele>
        <time>2020-06-18T18:29:44Z</time>
      </trkpt>
      <trkpt lat="50.41926" lon="1.65434">
        <ele>17.1</ele>
        <time>2020-06-18T18:29:45Z</time>
      </trkpt>
      <trkpt lat="50.41931" lon="1.65425">
        <ele>17</ele>
        <time>2020-06-18T18:29:46Z</time>
      </trkpt>
      <trkpt lat="50.41937" lon="1.65419">
        <ele>17</ele>
        <time>2020-06-18T18:29:47Z</time>
      </trkpt>
      <trkpt lat="50.41943" lon="1.65413">
        <ele>17.1</ele>
        <time>2020-06-18T18:29:48Z</time>
      </trkpt>
      <trkpt lat="50.41949" lon="1.65409">
        <ele>17.2</ele>
        <time>2020-06-18T18:29:49Z</time>
      </trkpt>
      <trkpt lat="50.41955" lon="1.65404">
        <ele>17.3</ele>
        <time>2020-06-18T18:29:50Z</time>
      </trkpt>
      <trkpt lat="50.41962" lon="1.65399">
        <ele>17.4</ele>
        <time>2020-06-18T18:29:51Z</time>
      </trkpt>
      <trkpt lat="50.41968" lon="1.65395">
        <ele>17.6</ele>
        <time>2020-06-18T18:29:52Z</time>
      </trkpt>
      <trkpt lat="50.41974" lon="1.6539">
        <ele>17.8</ele>
        <time>2020-06-18T18:29:53Z</time>
      </trkpt>
      <trkpt lat="50.4198" lon="1.65386">
        <ele>17.9</ele>
        <time>2020-06-18T18:29:54Z</time>
      </trkpt>
      <trkpt lat="50.41986" lon="1.65381">
        <ele>18.1</ele>
        <time>2020-06-18T18:29:55Z</time>
      </trkpt>
      <trkpt lat="50.41992" lon="1.65377">
        <ele>18.3</ele>
        <time>2020-06-18T18:29:56Z</time>
      </trkpt>
      <trkpt lat="50.41998" lon="1.65373">
        <ele>18.4</ele>
        <time>2020-06-18T18:29:57Z</time>
      </trkpt>
      <trkpt lat="50.42004" lon="1.65368">
        <ele>18.6</ele>
        <time>2020-06-18T18:29:58Z</time>
      </trkpt>
      <trkpt lat="50.4201" lon="1.65364">
        <ele>18.7</ele>
        <time>2020-06-18T18:29:59Z</time>
      </trkpt>
      <trkpt lat="50.42016" lon="1.65359">
        <ele>18.9</ele>
        <time>2020-06-18T18:30:00Z</time>
      </trkpt>
      <trkpt lat="50.42021" lon="1.65355">
        <ele>19</ele>
        <time>2020-06-18T18:30:01Z</time>
      </trkpt>
      <trkpt lat="50.42027" lon="1.6535">
        <ele>19.2</ele>
        <time>2020-06-18T18:30:02Z</time>
      </trkpt>
      <trkpt lat="50.42033" lon="1.65346">
        <ele>19.3</ele>
        <time>2020-06-18T18:30:03Z</time>
      </trkpt>
      <trkpt lat="50.42038" lon="1.65343">
        <ele>19.4</ele>
        <time>2020-06-18T18:30:04Z</time>
      </trkpt>
      <trkpt lat="50.42044" lon="1.65338">
        <ele>19.5</ele>
        <time>2020-06-18T18:30:05Z</time>
      </trkpt>
      <trkpt lat="50.42049" lon="1.65335">
        <ele>19.6</ele>
        <time>2020-06-18T18:30:06Z</time>
      </trkpt>
      <trkpt lat="50.42054" lon="1.65332">
        <ele>19.6</ele>
        <time>2020-06-18T18:30:07Z</time>
      </trkpt>
      <trkpt lat="50.42059" lon="1.65329">
        <ele>19.7</ele>
        <time>2020-06-18T18:30:08Z</time>
      </trkpt>
      <trkpt lat="50.42064" lon="1.65325">
        <ele>19.7</ele>
        <time>2020-06-18T18:30:09Z</time>
      </trkpt>
      <trkpt lat="50.42069" lon="1.65321">
        <ele>19.7</ele>
        <time>2020-06-18T18:30:10Z</time>
      </trkpt>
      <trkpt lat="50.42074" lon="1.65316">
        <ele>19.7</ele>
        <time>2020-06-18T18:30:11Z</time>
      </trkpt>
      <trkpt lat="50.42079" lon="1.65313">
        <ele>19.7</ele>
        <time>2020-06-18T18:30:12Z</time>
      </trkpt>
      <trkpt lat="50.42084" lon="1.65309">
        <ele>19.6</ele>
        <time>2020-06-18T18:30:13Z</time>
      </trkpt>
      <trkpt lat="50.42088" lon="1.65304">
        <ele>19.6</ele>
        <time>2020-06-18T18:30:14Z</time>
      </trkpt>
      <trkpt lat="50.42092" lon="1.653">
        <ele>19.5</ele>
        <time>2020-06-18T18:30:15Z</time>
      </trkpt>
      <trkpt lat="50.42096" lon="1.65296">
        <ele>19.4</ele>
        <time>2020-06-18T18:30:16Z</time>
      </trkpt>
      <trkpt lat="50.42101" lon="1.65292">
        <ele>19.2</ele>
        <time>2020-06-18T18:30:17Z</time>
      </trkpt>
      <trkpt lat="50.42105" lon="1.65288">
        <ele>19.1</ele>
        <time>2020-06-18T18:30:18Z</time>
      </trkpt>
      <trkpt lat="50.4211" lon="1.65284">
        <ele>19</ele>
        <time>2020-06-18T18:30:19Z</time>
      </trkpt>
      <trkpt lat="50.42115" lon="1.6528">
        <ele>18.9</ele>
        <time>2020-06-18T18:30:20Z</time>
      </trkpt>
      <trkpt lat="50.42121" lon="1.65276">
        <ele>18.8</ele>
        <time>2020-06-18T18:30:21Z</time>
      </trkpt>
      <trkpt lat="50.42126" lon="1.65272">
        <ele>18.6</ele>
        <time>2020-06-18T18:30:22Z</time>
      </trkpt>
      <trkpt lat="50.42132" lon="1.65268">
        <ele>18.4</ele>
        <time>2020-06-18T18:30:23Z</time>
      </trkpt>
      <trkpt lat="50.42138" lon="1.65264">
        <ele>18.3</ele>
        <time>2020-06-18T18:30:24Z</time>
      </trkpt>
      <trkpt lat="50.42144" lon="1.65259">
        <ele>18.1</ele>
        <time>2020-06-18T18:30:25Z</time>
      </trkpt>
      <trkpt lat="50.42151" lon="1.65255">
        <ele>17.9</ele>
        <time>2020-06-18T18:30:26Z</time>
      </trkpt>
      <trkpt lat="50.42156" lon="1.65249">
        <ele>17.7</ele>
        <time>2020-06-18T18:30:27Z</time>
      </trkpt>
      <trkpt lat="50.42162" lon="1.65243">
        <ele>17.6</ele>
        <time>2020-06-18T18:30:28Z</time>
      </trkpt>
      <trkpt lat="50.42168" lon="1.65238">
        <ele>17.4</ele>
        <time>2020-06-18T18:30:29Z</time>
      </trkpt>
      <trkpt lat="50.42173" lon="1.65234">
        <ele>17.2</ele>
        <time>2020-06-18T18:30:30Z</time>
      </trkpt>
      <trkpt lat="50.42179" lon="1.6523">
        <ele>17</ele>
        <time>2020-06-18T18:30:31Z</time>
      </trkpt>
      <trkpt lat="50.42185" lon="1.65226">
        <ele>16.8</ele>
        <time>2020-06-18T18:30:32Z</time>
      </trkpt>
      <trkpt lat="50.42191" lon="1.65222">
        <ele>16.6</ele>
        <time>2020-06-18T18:30:33Z</time>
      </trkpt>
      <trkpt lat="50.42197" lon="1.65218">
        <ele>16.5</ele>
        <time>2020-06-18T18:30:34Z</time>
      </trkpt>
      <trkpt lat="50.42203" lon="1.65213">
        <ele>16.3</ele>
        <time>2020-06-18T18:30:35Z</time>
      </trkpt>
      <trkpt lat="50.42209" lon="1.65209">
        <ele>16.2</ele>
        <time>2020-06-18T18:30:36Z</time>
      </trkpt>
      <trkpt lat="50.42214" lon="1.65204">
        <ele>16</ele>
        <time>2020-06-18T18:30:37Z</time>
      </trkpt>
      <trkpt lat="50.4222" lon="1.652">
        <ele>15.9</ele>
        <time>2020-06-18T18:30:38Z</time>
      </trkpt>
      <trkpt lat="50.42226" lon="1.65196">
        <ele>15.7</ele>
        <time>2020-06-18T18:30:39Z</time>
      </trkpt>
      <trkpt lat="50.42232" lon="1.65192">
        <ele>15.6</ele>
        <time>2020-06-18T18:30:40Z</time>
      </trkpt>
      <trkpt lat="50.42238" lon="1.65188">
        <ele>15.4</ele>
        <time>2020-06-18T18:30:41Z</time>
      </trkpt>
      <trkpt lat="50.42244" lon="1.65184">
        <ele>15.2</ele>
        <time>2020-06-18T18:30:42Z</time>
      </trkpt>
      <trkpt lat="50.4225" lon="1.65181">
        <ele>15</ele>
        <time>2020-06-18T18:30:43Z</time>
      </trkpt>
      <trkpt lat="50.42256" lon="1.65177">
        <ele>14.8</ele>
        <time>2020-06-18T18:30:44Z</time>
      </trkpt>
      <trkpt lat="50.42262" lon="1.65172">
        <ele>14.7</ele>
        <time>2020-06-18T18:30:45Z</time>
      </trkpt>
      <trkpt lat="50.42268" lon="1.65167">
        <ele>14.6</ele>
        <time>2020-06-18T18:30:46Z</time>
      </trkpt>
      <trkpt lat="50.42273" lon="1.65163">
        <ele>14.5</ele>
        <time>2020-06-18T18:30:47Z</time>
      </trkpt>
      <trkpt lat="50.42279" lon="1.6516">
        <ele>14.4</ele>
        <time>2020-06-18T18:30:48Z</time>
      </trkpt>
      <trkpt lat="50.42285" lon="1.65157">
        <ele>14.3</ele>
        <time>2020-06-18T18:30:49Z</time>
      </trkpt>
      <trkpt lat="50.42291" lon="1.65155">
        <ele>14.2</ele>
        <time>2020-06-18T18:30:50Z</time>
      </trkpt>
      <trkpt lat="50.42297" lon="1.65152">
        <ele>14.1</ele>
        <time>2020-06-18T18:30:51Z</time>
      </trkpt>
      <trkpt lat="50.42303" lon="1.65149">
        <ele>14</ele>
        <time>2020-06-18T18:30:52Z</time>
      </trkpt>
      <trkpt lat="50.42309" lon="1.65146">
        <ele>13.9</ele>
        <time>2020-06-18T18:30:53Z</time>
      </trkpt>
      <trkpt lat="50.42314" lon="1.65143">
        <ele>13.9</ele>
        <time>2020-06-18T18:30:54Z</time>
      </trkpt>
      <trkpt lat="50.4232" lon="1.65139">
        <ele>13.8</ele>
        <time>2020-06-18T18:30:55Z</time>
      </trkpt>
      <trkpt lat="50.42325" lon="1.65136">
        <ele>13.7</ele>
        <time>2020-06-18T18:30:56Z</time>
      </trkpt>
      <trkpt lat="50.4233" lon="1.65133">
        <ele>13.7</ele>
        <time>2020-06-18T18:30:57Z</time>
      </trkpt>
      <trkpt lat="50.42336" lon="1.6513">
        <ele>13.6</ele>
        <time>2020-06-18T18:30:58Z</time>
      </trkpt>
      <trkpt lat="50.42341" lon="1.65127">
        <ele>13.5</ele>
        <time>2020-06-18T18:30:59Z</time>
      </trkpt>
      <trkpt lat="50.42348" lon="1.65126">
        <ele>13.4</ele>
        <time>2020-06-18T18:31:00Z</time>
      </trkpt>
      <trkpt lat="50.42354" lon="1.65124">
        <ele>13.3</ele>
        <time>2020-06-18T18:31:01Z</time>
      </trkpt>
      <trkpt lat="50.4236" lon="1.65122">
        <ele>13.3</ele>
        <time>2020-06-18T18:31:02Z</time>
      </trkpt>
      <trkpt lat="50.42367" lon="1.6512">
        <ele>13.2</ele>
        <time>2020-06-18T18:31:03Z</time>
      </trkpt>
      <trkpt lat="50.42373" lon="1.65117">
        <ele>13.1</ele>
        <time>2020-06-18T18:31:04Z</time>
      </trkpt>
      <trkpt lat="50.4238" lon="1.65114">
        <ele>13.1</ele>
        <time>2020-06-18T18:31:05Z</time>
      </trkpt>
      <trkpt lat="50.42386" lon="1.65111">
        <ele>13</ele>
        <time>2020-06-18T18:31:06Z</time>
      </trkpt>
      <trkpt lat="50.42393" lon="1.65109">
        <ele>12.9</ele>
        <time>2020-06-18T18:31:07Z</time>
      </trkpt>
      <trkpt lat="50.424" lon="1.65106">
        <ele>12.9</ele>
        <time>2020-06-18T18:31:08Z</time>
      </trkpt>
      <trkpt lat="50.42407" lon="1.65103">
        <ele>12.8</ele>
        <time>2020-06-18T18:31:09Z</time>
      </trkpt>
      <trkpt lat="50.42414" lon="1.65101">
        <ele>12.8</ele>
        <time>2020-06-18T18:31:10Z</time>
      </trkpt>
      <trkpt lat="50.42421" lon="1.65099">
        <ele>12.7</ele>
        <time>2020-06-18T18:31:11Z</time>
      </trkpt>
      <trkpt lat="50.42428" lon="1.65097">
        <ele>12.7</ele>
        <time>2020-06-18T18:31:12Z</time>
      </trkpt>
      <trkpt lat="50.42435" lon="1.65096">
        <ele>12.6</ele>
        <time>2020-06-18T18:31:13Z</time>
      </trkpt>
      <trkpt lat="50.42442" lon="1.65092">
        <ele>12.5</ele>
        <time>2020-06-18T18:31:14Z</time>
      </trkpt>
      <trkpt lat="50.42449" lon="1.6509">
        <ele>12.5</ele>
        <time>2020-06-18T18:31:15Z</time>
      </trkpt>
      <trkpt lat="50.42456" lon="1.65087">
        <ele>12.4</ele>
        <time>2020-06-18T18:31:16Z</time>
      </trkpt>
      <trkpt lat="50.42463" lon="1.65085">
        <ele>12.3</ele>
        <time>2020-06-18T18:31:17Z</time>
      </trkpt>
      <trkpt lat="50.4247" lon="1.65083">
        <ele>12.2</ele>
        <time>2020-06-18T18:31:18Z</time>
      </trkpt>
      <trkpt lat="50.42477" lon="1.65081">
        <ele>12.1</ele>
        <time>2020-06-18T18:31:19Z</time>
      </trkpt>
      <trkpt lat="50.42484" lon="1.65079">
        <ele>12</ele>
        <time>2020-06-18T18:31:20Z</time>
      </trkpt>
      <trkpt lat="50.42492" lon="1.65076">
        <ele>12</ele>
        <time>2020-06-18T18:31:21Z</time>
      </trkpt>
      <trkpt lat="50.42499" lon="1.65075">
        <ele>11.9</ele>
        <time>2020-06-18T18:31:22Z</time>
      </trkpt>
      <trkpt lat="50.42506" lon="1.65073">
        <ele>11.8</ele>
        <time>2020-06-18T18:31:23Z</time>
      </trkpt>
      <trkpt lat="50.42512" lon="1.6507">
        <ele>11.7</ele>
        <time>2020-06-18T18:31:24Z</time>
      </trkpt>
      <trkpt lat="50.42519" lon="1.65068">
        <ele>11.6</ele>
        <time>2020-06-18T18:31:25Z</time>
      </trkpt>
      <trkpt lat="50.42526" lon="1.65066">
        <ele>11.6</ele>
        <time>2020-06-18T18:31:26Z</time>
      </trkpt>
      <trkpt lat="50.42533" lon="1.65064">
        <ele>11.6</ele>
        <time>2020-06-18T18:31:27Z</time>
      </trkpt>
      <trkpt lat="50.4254" lon="1.65063">
        <ele>11.5</ele>
        <time>2020-06-18T18:31:28Z</time>
      </trkpt>
      <trkpt lat="50.42547" lon="1.65062">
        <ele>11.5</ele>
        <time>2020-06-18T18:31:29Z</time>
      </trkpt>
      <trkpt lat="50.42553" lon="1.6506">
        <ele>11.5</ele>
        <time>2020-06-18T18:31:30Z</time>
      </trkpt>
      <trkpt lat="50.4256" lon="1.65059">
        <ele>11.5</ele>
        <time>2020-06-18T18:31:31Z</time>
      </trkpt>
      <trkpt lat="50.42566" lon="1.65057">
        <ele>11.5</ele>
        <time>2020-06-18T18:31:32Z</time>
      </trkpt>
      <trkpt lat="50.42573" lon="1.65055">
        <ele>11.5</ele>
        <time>2020-06-18T18:31:33Z</time>
      </trkpt>
      <trkpt lat="50.42579" lon="1.65052">
        <ele>11.5</ele>
        <time>2020-06-18T18:31:34Z</time>
      </trkpt>
      <trkpt lat="50.42585" lon="1.6505">
        <ele>11.4</ele>
        <time>2020-06-18T18:31:35Z</time>
      </trkpt>
      <trkpt lat="50.42591" lon="1.65049">
        <ele>11.4</ele>
        <time>2020-06-18T18:31:36Z</time>
      </trkpt>
      <trkpt lat="50.42597" lon="1.65047">
        <ele>11.4</ele>
        <time>2020-06-18T18:31:37Z</time>
      </trkpt>
      <trkpt lat="50.42603" lon="1.65045">
        <ele>11.4</ele>
        <time>2020-06-18T18:31:38Z</time>
      </trkpt>
      <trkpt lat="50.42608" lon="1.65043">
        <ele>11.4</ele>
        <time>2020-06-18T18:31:39Z</time>
      </trkpt>
      <trkpt lat="50.42614" lon="1.65041">
        <ele>11.4</ele>
        <time>2020-06-18T18:31:40Z</time>
      </trkpt>
      <trkpt lat="50.42621" lon="1.6504">
        <ele>11.4</ele>
        <time>2020-06-18T18:31:41Z</time>
      </trkpt>
      <trkpt lat="50.42627" lon="1.6504">
        <ele>11.4</ele>
        <time>2020-06-18T18:31:42Z</time>
      </trkpt>
      <trkpt lat="50.42633" lon="1.65039">
        <ele>11.4</ele>
        <time>2020-06-18T18:31:43Z</time>
      </trkpt>
      <trkpt lat="50.42639" lon="1.65037">
        <ele>11.4</ele>
        <time>2020-06-18T18:31:44Z</time>
      </trkpt>
      <trkpt lat="50.42646" lon="1.65036">
        <ele>11.3</ele>
        <time>2020-06-18T18:31:45Z</time>
      </trkpt>
      <trkpt lat="50.42653" lon="1.65034">
        <ele>11.3</ele>
        <time>2020-06-18T18:31:46Z</time>
      </trkpt>
      <trkpt lat="50.4266" lon="1.65032">
        <ele>11.2</ele>
        <time>2020-06-18T18:31:47Z</time>
      </trkpt>
      <trkpt lat="50.42667" lon="1.65029">
        <ele>11.2</ele>
        <time>2020-06-18T18:31:48Z</time>
      </trkpt>
      <trkpt lat="50.42674" lon="1.65026">
        <ele>11.2</ele>
        <time>2020-06-18T18:31:49Z</time>
      </trkpt>
      <trkpt lat="50.42681" lon="1.65023">
        <ele>11.2</ele>
        <time>2020-06-18T18:31:50Z</time>
      </trkpt>
      <trkpt lat="50.42688" lon="1.65021">
        <ele>11.3</ele>
        <time>2020-06-18T18:31:51Z</time>
      </trkpt>
      <trkpt lat="50.42694" lon="1.65019">
        <ele>11.4</ele>
        <time>2020-06-18T18:31:52Z</time>
      </trkpt>
      <trkpt lat="50.42702" lon="1.65017">
        <ele>11.5</ele>
        <time>2020-06-18T18:31:53Z</time>
      </trkpt>
      <trkpt lat="50.42709" lon="1.65016">
        <ele>11.7</ele>
        <time>2020-06-18T18:31:54Z</time>
      </trkpt>
      <trkpt lat="50.42716" lon="1.65015">
        <ele>11.8</ele>
        <time>2020-06-18T18:31:55Z</time>
      </trkpt>
      <trkpt lat="50.42723" lon="1.65013">
        <ele>11.7</ele>
        <time>2020-06-18T18:31:56Z</time>
      </trkpt>
      <trkpt lat="50.4273" lon="1.65012">
        <ele>11.6</ele>
        <time>2020-06-18T18:31:57Z</time>
      </trkpt>
      <trkpt lat="50.42737" lon="1.6501">
        <ele>11.6</ele>
        <time>2020-06-18T18:31:58Z</time>
      </trkpt>
      <trkpt lat="50.42743" lon="1.65009">
        <ele>11.5</ele>
        <time>2020-06-18T18:31:59Z</time>
      </trkpt>
      <trkpt lat="50.4275" lon="1.65008">
        <ele>11.5</ele>
        <time>2020-06-18T18:32:00Z</time>
      </trkpt>
      <trkpt lat="50.42757" lon="1.65007">
        <ele>11.6</ele>
        <time>2020-06-18T18:32:01Z</time>
      </trkpt>
      <trkpt lat="50.42764" lon="1.65006">
        <ele>11.6</ele>
        <time>2020-06-18T18:32:02Z</time>
      </trkpt>
      <trkpt lat="50.42771" lon="1.65007">
        <ele>11.6</ele>
        <time>2020-06-18T18:32:03Z</time>
      </trkpt>
      <trkpt lat="50.42778" lon="1.65007">
        <ele>11.6</ele>
        <time>2020-06-18T18:32:04Z</time>
      </trkpt>
      <trkpt lat="50.42785" lon="1.65008">
        <ele>11.6</ele>
        <time>2020-06-18T18:32:05Z</time>
      </trkpt>
      <trkpt lat="50.42791" lon="1.65009">
        <ele>11.6</ele>
        <time>2020-06-18T18:32:06Z</time>
      </trkpt>
      <trkpt lat="50.42798" lon="1.65009">
        <ele>11.6</ele>
        <time>2020-06-18T18:32:07Z</time>
      </trkpt>
      <trkpt lat="50.42806" lon="1.65009">
        <ele>11.6</ele>
        <time>2020-06-18T18:32:08Z</time>
      </trkpt>
      <trkpt lat="50.42812" lon="1.6501">
        <ele>11.6</ele>
        <time>2020-06-18T18:32:09Z</time>
      </trkpt>
      <trkpt lat="50.42819" lon="1.65011">
        <ele>11.6</ele>
        <time>2020-06-18T18:32:10Z</time>
      </trkpt>
      <trkpt lat="50.42826" lon="1.65011">
        <ele>11.6</ele>
        <time>2020-06-18T18:32:11Z</time>
      </trkpt>
      <trkpt lat="50.42833" lon="1.65012">
        <ele>11.6</ele>
        <time>2020-06-18T18:32:12Z</time>
      </trkpt>
      <trkpt lat="50.4284" lon="1.65013">
        <ele>11.5</ele>
        <time>2020-06-18T18:32:13Z</time>
      </trkpt>
      <trkpt lat="50.42847" lon="1.65015">
        <ele>11.5</ele>
        <time>2020-06-18T18:32:14Z</time>
      </trkpt>
      <trkpt lat="50.42854" lon="1.65015">
        <ele>11.4</ele>
        <time>2020-06-18T18:32:15Z</time>
      </trkpt>
      <trkpt lat="50.42861" lon="1.65016">
        <ele>11.4</ele>
        <time>2020-06-18T18:32:16Z</time>
      </trkpt>
      <trkpt lat="50.42868" lon="1.65016">
        <ele>11.4</ele>
        <time>2020-06-18T18:32:17Z</time>
      </trkpt>
      <trkpt lat="50.42875" lon="1.65017">
        <ele>11.3</ele>
        <time>2020-06-18T18:32:18Z</time>
      </trkpt>
      <trkpt lat="50.42882" lon="1.65017">
        <ele>11.3</ele>
        <time>2020-06-18T18:32:19Z</time>
      </trkpt>
      <trkpt lat="50.42889" lon="1.65017">
        <ele>11.3</ele>
        <time>2020-06-18T18:32:20Z</time>
      </trkpt>
      <trkpt lat="50.42897" lon="1.65018">
        <ele>11.3</ele>
        <time>2020-06-18T18:32:21Z</time>
      </trkpt>
      <trkpt lat="50.42904" lon="1.65019">
        <ele>11.3</ele>
        <time>2020-06-18T18:32:22Z</time>
      </trkpt>
      <trkpt lat="50.42911" lon="1.65021">
        <ele>11.3</ele>
        <time>2020-06-18T18:32:23Z</time>
      </trkpt>
      <trkpt lat="50.42919" lon="1.65022">
        <ele>11.3</ele>
        <time>2020-06-18T18:32:24Z</time>
      </trkpt>
      <trkpt lat="50.42926" lon="1.65024">
        <ele>11.3</ele>
        <time>2020-06-18T18:32:25Z</time>
      </trkpt>
      <trkpt lat="50.42934" lon="1.65026">
        <ele>11.3</ele>
        <time>2020-06-18T18:32:26Z</time>
      </trkpt>
      <trkpt lat="50.42941" lon="1.65027">
        <ele>11.3</ele>
        <time>2020-06-18T18:32:27Z</time>
      </trkpt>
      <trkpt lat="50.42948" lon="1.65028">
        <ele>11.4</ele>
        <time>2020-06-18T18:32:28Z</time>
      </trkpt>
      <trkpt lat="50.42956" lon="1.65029">
        <ele>11.4</ele>
        <time>2020-06-18T18:32:29Z</time>
      </trkpt>
      <trkpt lat="50.42963" lon="1.6503">
        <ele>11.4</ele>
        <time>2020-06-18T18:32:30Z</time>
      </trkpt>
      <trkpt lat="50.4297" lon="1.65031">
        <ele>11.5</ele>
        <time>2020-06-18T18:32:31Z</time>
      </trkpt>
      <trkpt lat="50.42977" lon="1.65032">
        <ele>11.5</ele>
        <time>2020-06-18T18:32:32Z</time>
      </trkpt>
      <trkpt lat="50.42985" lon="1.65034">
        <ele>11.5</ele>
        <time>2020-06-18T18:32:33Z</time>
      </trkpt>
      <trkpt lat="50.42992" lon="1.65035">
        <ele>11.5</ele>
        <time>2020-06-18T18:32:34Z</time>
      </trkpt>
      <trkpt lat="50.42999" lon="1.65036">
        <ele>11.5</ele>
        <time>2020-06-18T18:32:35Z</time>
      </trkpt>
      <trkpt lat="50.43006" lon="1.65038">
        <ele>11.5</ele>
        <time>2020-06-18T18:32:36Z</time>
      </trkpt>
      <trkpt lat="50.43012" lon="1.65038">
        <ele>11.5</ele>
        <time>2020-06-18T18:32:37Z</time>
      </trkpt>
      <trkpt lat="50.43019" lon="1.6504">
        <ele>11.5</ele>
        <time>2020-06-18T18:32:38Z</time>
      </trkpt>
      <trkpt lat="50.43026" lon="1.65041">
        <ele>11.6</ele>
        <time>2020-06-18T18:32:39Z</time>
      </trkpt>
      <trkpt lat="50.43033" lon="1.65041">
        <ele>11.6</ele>
        <time>2020-06-18T18:32:40Z</time>
      </trkpt>
      <trkpt lat="50.4304" lon="1.65042">
        <ele>11.6</ele>
        <time>2020-06-18T18:32:41Z</time>
      </trkpt>
      <trkpt lat="50.43047" lon="1.65043">
        <ele>11.6</ele>
        <time>2020-06-18T18:32:42Z</time>
      </trkpt>
      <trkpt lat="50.43054" lon="1.65043">
        <ele>11.6</ele>
        <time>2020-06-18T18:32:43Z</time>
      </trkpt>
      <trkpt lat="50.43061" lon="1.65044">
        <ele>11.6</ele>
        <time>2020-06-18T18:32:44Z</time>
      </trkpt>
      <trkpt lat="50.43068" lon="1.65045">
        <ele>11.6</ele>
        <time>2020-06-18T18:32:45Z</time>
      </trkpt>
      <trkpt lat="50.43075" lon="1.65046">
        <ele>11.5</ele>
        <time>2020-06-18T18:32:46Z</time>
      </trkpt>
      <trkpt lat="50.43082" lon="1.65046">
        <ele>11.3</ele>
        <time>2020-06-18T18:32:47Z</time>
      </trkpt>
      <trkpt lat="50.43089" lon="1.65048">
        <ele>11.2</ele>
        <time>2020-06-18T18:32:48Z</time>
      </trkpt>
      <trkpt lat="50.43096" lon="1.65049">
        <ele>11.1</ele>
        <time>2020-06-18T18:32:49Z</time>
      </trkpt>
      <trkpt lat="50.43103" lon="1.65051">
        <ele>11</ele>
        <time>2020-06-18T18:32:50Z</time>
      </trkpt>
      <trkpt lat="50.43111" lon="1.65053">
        <ele>10.9</ele>
        <time>2020-06-18T18:32:51Z</time>
      </trkpt>
      <trkpt lat="50.43118" lon="1.65056">
        <ele>10.9</ele>
        <time>2020-06-18T18:32:52Z</time>
      </trkpt>
      <trkpt lat="50.43124" lon="1.65059">
        <ele>10.9</ele>
        <time>2020-06-18T18:32:53Z</time>
      </trkpt>
      <trkpt lat="50.43131" lon="1.65063">
        <ele>10.8</ele>
        <time>2020-06-18T18:32:54Z</time>
      </trkpt>
      <trkpt lat="50.43138" lon="1.65066">
        <ele>10.7</ele>
        <time>2020-06-18T18:32:55Z</time>
      </trkpt>
      <trkpt lat="50.43145" lon="1.6507">
        <ele>10.7</ele>
        <time>2020-06-18T18:32:56Z</time>
      </trkpt>
      <trkpt lat="50.43152" lon="1.65073">
        <ele>10.5</ele>
        <time>2020-06-18T18:32:57Z</time>
      </trkpt>
      <trkpt lat="50.43159" lon="1.65077">
        <ele>10.4</ele>
        <time>2020-06-18T18:32:58Z</time>
      </trkpt>
      <trkpt lat="50.43166" lon="1.65081">
        <ele>10.3</ele>
        <time>2020-06-18T18:32:59Z</time>
      </trkpt>
      <trkpt lat="50.43173" lon="1.65085">
        <ele>10.1</ele>
        <time>2020-06-18T18:33:00Z</time>
      </trkpt>
      <trkpt lat="50.4318" lon="1.65089">
        <ele>10</ele>
        <time>2020-06-18T18:33:01Z</time>
      </trkpt>
      <trkpt lat="50.43188" lon="1.65093">
        <ele>9.8</ele>
        <time>2020-06-18T18:33:02Z</time>
      </trkpt>
      <trkpt lat="50.43196" lon="1.65096">
        <ele>9.6</ele>
        <time>2020-06-18T18:33:03Z</time>
      </trkpt>
      <trkpt lat="50.43205" lon="1.651">
        <ele>9.5</ele>
        <time>2020-06-18T18:33:04Z</time>
      </trkpt>
      <trkpt lat="50.43213" lon="1.65103">
        <ele>9.4</ele>
        <time>2020-06-18T18:33:05Z</time>
      </trkpt>
      <trkpt lat="50.43222" lon="1.65106">
        <ele>9.4</ele>
        <time>2020-06-18T18:33:06Z</time>
      </trkpt>
      <trkpt lat="50.43231" lon="1.65109">
        <ele>9.1</ele>
        <time>2020-06-18T18:33:07Z</time>
      </trkpt>
      <trkpt lat="50.4324" lon="1.6511">
        <ele>8.8</ele>
        <time>2020-06-18T18:33:08Z</time>
      </trkpt>
      <trkpt lat="50.4325" lon="1.6511">
        <ele>8.4</ele>
        <time>2020-06-18T18:33:09Z</time>
      </trkpt>
      <trkpt lat="50.43259" lon="1.65111">
        <ele>8.1</ele>
        <time>2020-06-18T18:33:10Z</time>
      </trkpt>
      <trkpt lat="50.43269" lon="1.65111">
        <ele>7.7</ele>
        <time>2020-06-18T18:33:11Z</time>
      </trkpt>
      <trkpt lat="50.43279" lon="1.6511">
        <ele>7.3</ele>
        <time>2020-06-18T18:33:12Z</time>
      </trkpt>
      <trkpt lat="50.43289" lon="1.65108">
        <ele>7</ele>
        <time>2020-06-18T18:33:13Z</time>
      </trkpt>
      <trkpt lat="50.43299" lon="1.65108">
        <ele>6.7</ele>
        <time>2020-06-18T18:33:14Z</time>
      </trkpt>
      <trkpt lat="50.43309" lon="1.65108">
        <ele>6.6</ele>
        <time>2020-06-18T18:33:15Z</time>
      </trkpt>
      <trkpt lat="50.43319" lon="1.65109">
        <ele>6.4</ele>
        <time>2020-06-18T18:33:16Z</time>
      </trkpt>
      <trkpt lat="50.43329" lon="1.65108">
        <ele>6.3</ele>
        <time>2020-06-18T18:33:17Z</time>
      </trkpt>
      <trkpt lat="50.43339" lon="1.65107">
        <ele>6.2</ele>
        <time>2020-06-18T18:33:18Z</time>
      </trkpt>
      <trkpt lat="50.43349" lon="1.65107">
        <ele>6.1</ele>
        <time>2020-06-18T18:33:19Z</time>
      </trkpt>
      <trkpt lat="50.43358" lon="1.65107">
        <ele>6.1</ele>
        <time>2020-06-18T18:33:20Z</time>
      </trkpt>
      <trkpt lat="50.43368" lon="1.65108">
        <ele>6</ele>
        <time>2020-06-18T18:33:21Z</time>
      </trkpt>
      <trkpt lat="50.43378" lon="1.6511">
        <ele>6</ele>
        <time>2020-06-18T18:33:22Z</time>
      </trkpt>
      <trkpt lat="50.43387" lon="1.65112">
        <ele>5.9</ele>
        <time>2020-06-18T18:33:23Z</time>
      </trkpt>
      <trkpt lat="50.43396" lon="1.65117">
        <ele>5.8</ele>
        <time>2020-06-18T18:33:24Z</time>
      </trkpt>
      <trkpt lat="50.43405" lon="1.65119">
        <ele>5.8</ele>
        <time>2020-06-18T18:33:25Z</time>
      </trkpt>
      <trkpt lat="50.43415" lon="1.65121">
        <ele>5.8</ele>
        <time>2020-06-18T18:33:26Z</time>
      </trkpt>
      <trkpt lat="50.43425" lon="1.65124">
        <ele>5.8</ele>
        <time>2020-06-18T18:33:27Z</time>
      </trkpt>
      <trkpt lat="50.43434" lon="1.65127">
        <ele>5.8</ele>
        <time>2020-06-18T18:33:28Z</time>
      </trkpt>
      <trkpt lat="50.43444" lon="1.6513">
        <ele>5.7</ele>
        <time>2020-06-18T18:33:29Z</time>
      </trkpt>
      <trkpt lat="50.43453" lon="1.65133">
        <ele>5.6</ele>
        <time>2020-06-18T18:33:30Z</time>
      </trkpt>
      <trkpt lat="50.43462" lon="1.65137">
        <ele>5.4</ele>
        <time>2020-06-18T18:33:31Z</time>
      </trkpt>
      <trkpt lat="50.43471" lon="1.65142">
        <ele>5.2</ele>
        <time>2020-06-18T18:33:32Z</time>
      </trkpt>
      <trkpt lat="50.4348" lon="1.65147">
        <ele>5.1</ele>
        <time>2020-06-18T18:33:33Z</time>
      </trkpt>
      <trkpt lat="50.43489" lon="1.6515">
        <ele>5.1</ele>
        <time>2020-06-18T18:33:34Z</time>
      </trkpt>
      <trkpt lat="50.43498" lon="1.65153">
        <ele>5</ele>
        <time>2020-06-18T18:33:35Z</time>
      </trkpt>
      <trkpt lat="50.43507" lon="1.65156">
        <ele>5</ele>
        <time>2020-06-18T18:33:36Z</time>
      </trkpt>
      <trkpt lat="50.43516" lon="1.65159">
        <ele>5</ele>
        <time>2020-06-18T18:33:37Z</time>
      </trkpt>
      <trkpt lat="50.43525" lon="1.65162">
        <ele>5</ele>
        <time>2020-06-18T18:33:38Z</time>
      </trkpt>
      <trkpt lat="50.43533" lon="1.65166">
        <ele>5</ele>
        <time>2020-06-18T18:33:39Z</time>
      </trkpt>
      <trkpt lat="50.43541" lon="1.65169">
        <ele>5.1</ele>
        <time>2020-06-18T18:33:40Z</time>
      </trkpt>
      <trkpt lat="50.4355" lon="1.65173">
        <ele>5.2</ele>
        <time>2020-06-18T18:33:41Z</time>
      </trkpt>
      <trkpt lat="50.43559" lon="1.65175">
        <ele>5.4</ele>
        <time>2020-06-18T18:33:42Z</time>
      </trkpt>
      <trkpt lat="50.43567" lon="1.65177">
        <ele>5.5</ele>
        <time>2020-06-18T18:33:43Z</time>
      </trkpt>
      <trkpt lat="50.43575" lon="1.65179">
        <ele>5.7</ele>
        <time>2020-06-18T18:33:44Z</time>
      </trkpt>
      <trkpt lat="50.43582" lon="1.65181">
        <ele>5.8</ele>
        <time>2020-06-18T18:33:45Z</time>
      </trkpt>
      <trkpt lat="50.4359" lon="1.65183">
        <ele>6</ele>
        <time>2020-06-18T18:33:46Z</time>
      </trkpt>
      <trkpt lat="50.43598" lon="1.65185">
        <ele>6.4</ele>
        <time>2020-06-18T18:33:47Z</time>
      </trkpt>
      <trkpt lat="50.43606" lon="1.65183">
        <ele>6.8</ele>
        <time>2020-06-18T18:33:48Z</time>
      </trkpt>
      <trkpt lat="50.43613" lon="1.65182">
        <ele>7.1</ele>
        <time>2020-06-18T18:33:49Z</time>
      </trkpt>
      <trkpt lat="50.4362" lon="1.6518">
        <ele>7.5</ele>
        <time>2020-06-18T18:33:50Z</time>
      </trkpt>
      <trkpt lat="50.43626" lon="1.65178">
        <ele>8</ele>
        <time>2020-06-18T18:33:51Z</time>
      </trkpt>
      <trkpt lat="50.43632" lon="1.65175">
        <ele>8.4</ele>
        <time>2020-06-18T18:33:52Z</time>
      </trkpt>
      <trkpt lat="50.43638" lon="1.65173">
        <ele>8.8</ele>
        <time>2020-06-18T18:33:53Z</time>
      </trkpt>
      <trkpt lat="50.43643" lon="1.6517">
        <ele>9.2</ele>
        <time>2020-06-18T18:33:54Z</time>
      </trkpt>
      <trkpt lat="50.43648" lon="1.65167">
        <ele>9.6</ele>
        <time>2020-06-18T18:33:55Z</time>
      </trkpt>
      <trkpt lat="50.43653" lon="1.65165">
        <ele>10</ele>
        <time>2020-06-18T18:33:56Z</time>
      </trkpt>
      <trkpt lat="50.43657" lon="1.65163">
        <ele>10.4</ele>
        <time>2020-06-18T18:33:57Z</time>
      </trkpt>
      <trkpt lat="50.43662" lon="1.6516">
        <ele>10.7</ele>
        <time>2020-06-18T18:33:58Z</time>
      </trkpt>
      <trkpt lat="50.43666" lon="1.65157">
        <ele>11.1</ele>
        <time>2020-06-18T18:33:59Z</time>
      </trkpt>
      <trkpt lat="50.4367" lon="1.65152">
        <ele>11.4</ele>
        <time>2020-06-18T18:34:00Z</time>
      </trkpt>
      <trkpt lat="50.43674" lon="1.65149">
        <ele>11.7</ele>
        <time>2020-06-18T18:34:01Z</time>
      </trkpt>
      <trkpt lat="50.43678" lon="1.65146">
        <ele>12</ele>
        <time>2020-06-18T18:34:02Z</time>
      </trkpt>
      <trkpt lat="50.43683" lon="1.65144">
        <ele>12.3</ele>
        <time>2020-06-18T18:34:03Z</time>
      </trkpt>
      <trkpt lat="50.43687" lon="1.65142">
        <ele>12.6</ele>
        <time>2020-06-18T18:34:04Z</time>
      </trkpt>
      <trkpt lat="50.4369" lon="1.6514">
        <ele>12.8</ele>
        <time>2020-06-18T18:34:05Z</time>
      </trkpt>
      <trkpt lat="50.43694" lon="1.65138">
        <ele>13.1</ele>
        <time>2020-06-18T18:34:06Z</time>
      </trkpt>
      <trkpt lat="50.43698" lon="1.65135">
        <ele>13.3</ele>
        <time>2020-06-18T18:34:07Z</time>
      </trkpt>
      <trkpt lat="50.43702" lon="1.65134">
        <ele>13.6</ele>
        <time>2020-06-18T18:34:08Z</time>
      </trkpt>
      <trkpt lat="50.43705" lon="1.65133">
        <ele>13.8</ele>
        <time>2020-06-18T18:34:09Z</time>
      </trkpt>
      <trkpt lat="50.4371" lon="1.65131">
        <ele>14.2</ele>
        <time>2020-06-18T18:34:10Z</time>
      </trkpt>
      <trkpt lat="50.43715" lon="1.65129">
        <ele>14.4</ele>
        <time>2020-06-18T18:34:11Z</time>
      </trkpt>
      <trkpt lat="50.4372" lon="1.65128">
        <ele>14.6</ele>
        <time>2020-06-18T18:34:12Z</time>
      </trkpt>
      <trkpt lat="50.43725" lon="1.65128">
        <ele>14.8</ele>
        <time>2020-06-18T18:34:13Z</time>
      </trkpt>
      <trkpt lat="50.4373" lon="1.65127">
        <ele>15</ele>
        <time>2020-06-18T18:34:14Z</time>
      </trkpt>
      <trkpt lat="50.43735" lon="1.65126">
        <ele>15.2</ele>
        <time>2020-06-18T18:34:15Z</time>
      </trkpt>
      <trkpt lat="50.43741" lon="1.65124">
        <ele>15.3</ele>
        <time>2020-06-18T18:34:16Z</time>
      </trkpt>
      <trkpt lat="50.43746" lon="1.65122">
        <ele>15.5</ele>
        <time>2020-06-18T18:34:17Z</time>
      </trkpt>
      <trkpt lat="50.4375" lon="1.65122">
        <ele>15.6</ele>
        <time>2020-06-18T18:34:18Z</time>
      </trkpt>
      <trkpt lat="50.43755" lon="1.65122">
        <ele>15.7</ele>
        <time>2020-06-18T18:34:19Z</time>
      </trkpt>
      <trkpt lat="50.43759" lon="1.65121">
        <ele>15.8</ele>
        <time>2020-06-18T18:34:20Z</time>
      </trkpt>
      <trkpt lat="50.43764" lon="1.65121">
        <ele>15.9</ele>
        <time>2020-06-18T18:34:21Z</time>
      </trkpt>
      <trkpt lat="50.43768" lon="1.6512">
        <ele>16</ele>
        <time>2020-06-18T18:34:22Z</time>
      </trkpt>
      <trkpt lat="50.43773" lon="1.6512">
        <ele>16.2</ele>
        <time>2020-06-18T18:34:23Z</time>
      </trkpt>
      <trkpt lat="50.43777" lon="1.65119">
        <ele>16.4</ele>
        <time>2020-06-18T18:34:24Z</time>
      </trkpt>
      <trkpt lat="50.43782" lon="1.65119">
        <ele>16.6</ele>
        <time>2020-06-18T18:34:25Z</time>
      </trkpt>
      <trkpt lat="50.43787" lon="1.6512">
        <ele>17.3</ele>
        <time>2020-06-18T18:34:26Z</time>
      </trkpt>
      <trkpt lat="50.43791" lon="1.6512">
        <ele>17.5</ele>
        <time>2020-06-18T18:34:27Z</time>
      </trkpt>
      <trkpt lat="50.43796" lon="1.6512">
        <ele>17.8</ele>
        <time>2020-06-18T18:34:28Z</time>
      </trkpt>
      <trkpt lat="50.438" lon="1.6512">
        <ele>17.8</ele>
        <time>2020-06-18T18:34:29Z</time>
      </trkpt>
      <trkpt lat="50.43804" lon="1.6512">
        <ele>17.8</ele>
        <time>2020-06-18T18:34:30Z</time>
      </trkpt>
      <trkpt lat="50.43808" lon="1.65119">
        <ele>17.8</ele>
        <time>2020-06-18T18:34:31Z</time>
      </trkpt>
      <trkpt lat="50.43813" lon="1.65118">
        <ele>17.8</ele>
        <time>2020-06-18T18:34:32Z</time>
      </trkpt>
      <trkpt lat="50.43818" lon="1.65119">
        <ele>17.9</ele>
        <time>2020-06-18T18:34:33Z</time>
      </trkpt>
      <trkpt lat="50.43823" lon="1.65119">
        <ele>17.9</ele>
        <time>2020-06-18T18:34:34Z</time>
      </trkpt>
      <trkpt lat="50.43828" lon="1.65119">
        <ele>18</ele>
        <time>2020-06-18T18:34:35Z</time>
      </trkpt>
      <trkpt lat="50.43835" lon="1.65118">
        <ele>18.1</ele>
        <time>2020-06-18T18:34:36Z</time>
      </trkpt>
      <trkpt lat="50.43838" lon="1.65118">
        <ele>18.1</ele>
        <time>2020-06-18T18:34:37Z</time>
      </trkpt>
      <trkpt lat="50.43844" lon="1.65118">
        <ele>18.1</ele>
        <time>2020-06-18T18:34:38Z</time>
      </trkpt>
      <trkpt lat="50.43848" lon="1.65118">
        <ele>18.2</ele>
        <time>2020-06-18T18:34:39Z</time>
      </trkpt>
      <trkpt lat="50.43853" lon="1.65117">
        <ele>18.2</ele>
        <time>2020-06-18T18:34:40Z</time>
      </trkpt>
      <trkpt lat="50.43858" lon="1.65117">
        <ele>18.2</ele>
        <time>2020-06-18T18:34:41Z</time>
      </trkpt>
      <trkpt lat="50.43863" lon="1.65117">
        <ele>18.2</ele>
        <time>2020-06-18T18:34:42Z</time>
      </trkpt>
      <trkpt lat="50.43867" lon="1.65117">
        <ele>18.1</ele>
        <time>2020-06-18T18:34:43Z</time>
      </trkpt>
      <trkpt lat="50.43871" lon="1.65118">
        <ele>18.1</ele>
        <time>2020-06-18T18:34:44Z</time>
      </trkpt>
      <trkpt lat="50.43876" lon="1.65117">
        <ele>18</ele>
        <time>2020-06-18T18:34:45Z</time>
      </trkpt>
      <trkpt lat="50.43881" lon="1.65115">
        <ele>18</ele>
        <time>2020-06-18T18:34:46Z</time>
      </trkpt>
      <trkpt lat="50.43888" lon="1.65115">
        <ele>18</ele>
        <time>2020-06-18T18:34:47Z</time>
      </trkpt>
      <trkpt lat="50.43894" lon="1.65114">
        <ele>17.9</ele>
        <time>2020-06-18T18:34:48Z</time>
      </trkpt>
      <trkpt lat="50.43899" lon="1.65114">
        <ele>17.9</ele>
        <time>2020-06-18T18:34:49Z</time>
      </trkpt>
      <trkpt lat="50.43903" lon="1.65113">
        <ele>17.8</ele>
        <time>2020-06-18T18:34:50Z</time>
      </trkpt>
      <trkpt lat="50.43908" lon="1.65113">
        <ele>17.8</ele>
        <time>2020-06-18T18:34:51Z</time>
      </trkpt>
      <trkpt lat="50.43913" lon="1.65112">
        <ele>17.8</ele>
        <time>2020-06-18T18:34:52Z</time>
      </trkpt>
      <trkpt lat="50.4392" lon="1.65111">
        <ele>17.7</ele>
        <time>2020-06-18T18:34:53Z</time>
      </trkpt>
      <trkpt lat="50.43927" lon="1.6511">
        <ele>17.7</ele>
        <time>2020-06-18T18:34:54Z</time>
      </trkpt>
      <trkpt lat="50.43934" lon="1.65109">
        <ele>17.6</ele>
        <time>2020-06-18T18:34:55Z</time>
      </trkpt>
      <trkpt lat="50.43941" lon="1.65107">
        <ele>17.6</ele>
        <time>2020-06-18T18:34:56Z</time>
      </trkpt>
      <trkpt lat="50.43947" lon="1.65106">
        <ele>17.6</ele>
        <time>2020-06-18T18:34:57Z</time>
      </trkpt>
      <trkpt lat="50.43953" lon="1.65104">
        <ele>17.5</ele>
        <time>2020-06-18T18:34:58Z</time>
      </trkpt>
      <trkpt lat="50.4396" lon="1.65104">
        <ele>17.5</ele>
        <time>2020-06-18T18:34:59Z</time>
      </trkpt>
      <trkpt lat="50.43965" lon="1.65103">
        <ele>17.5</ele>
        <time>2020-06-18T18:35:00Z</time>
      </trkpt>
      <trkpt lat="50.43971" lon="1.65101">
        <ele>17.4</ele>
        <time>2020-06-18T18:35:01Z</time>
      </trkpt>
      <trkpt lat="50.43978" lon="1.651">
        <ele>17.3</ele>
        <time>2020-06-18T18:35:02Z</time>
      </trkpt>
      <trkpt lat="50.43984" lon="1.65098">
        <ele>17.2</ele>
        <time>2020-06-18T18:35:03Z</time>
      </trkpt>
      <trkpt lat="50.4399" lon="1.65098">
        <ele>17.2</ele>
        <time>2020-06-18T18:35:04Z</time>
      </trkpt>
      <trkpt lat="50.43997" lon="1.65096">
        <ele>17.1</ele>
        <time>2020-06-18T18:35:05Z</time>
      </trkpt>
      <trkpt lat="50.44004" lon="1.65095">
        <ele>17</ele>
        <time>2020-06-18T18:35:06Z</time>
      </trkpt>
      <trkpt lat="50.44011" lon="1.65094">
        <ele>16.9</ele>
        <time>2020-06-18T18:35:07Z</time>
      </trkpt>
      <trkpt lat="50.44017" lon="1.65092">
        <ele>16.8</ele>
        <time>2020-06-18T18:35:08Z</time>
      </trkpt>
      <trkpt lat="50.44023" lon="1.65091">
        <ele>16.7</ele>
        <time>2020-06-18T18:35:09Z</time>
      </trkpt>
      <trkpt lat="50.4403" lon="1.65089">
        <ele>16.6</ele>
        <time>2020-06-18T18:35:10Z</time>
      </trkpt>
      <trkpt lat="50.44037" lon="1.65088">
        <ele>16.5</ele>
        <time>2020-06-18T18:35:11Z</time>
      </trkpt>
      <trkpt lat="50.44044" lon="1.65087">
        <ele>16.4</ele>
        <time>2020-06-18T18:35:12Z</time>
      </trkpt>
      <trkpt lat="50.44052" lon="1.65087">
        <ele>16.3</ele>
        <time>2020-06-18T18:35:13Z</time>
      </trkpt>
      <trkpt lat="50.44059" lon="1.65087">
        <ele>16.1</ele>
        <time>2020-06-18T18:35:14Z</time>
      </trkpt>
      <trkpt lat="50.44065" lon="1.65086">
        <ele>16</ele>
        <time>2020-06-18T18:35:15Z</time>
      </trkpt>
      <trkpt lat="50.44072" lon="1.65085">
        <ele>15.9</ele>
        <time>2020-06-18T18:35:16Z</time>
      </trkpt>
      <trkpt lat="50.44079" lon="1.65085">
        <ele>15.8</ele>
        <time>2020-06-18T18:35:17Z</time>
      </trkpt>
      <trkpt lat="50.44085" lon="1.65084">
        <ele>15.7</ele>
        <time>2020-06-18T18:35:18Z</time>
      </trkpt>
      <trkpt lat="50.44092" lon="1.65083">
        <ele>15.6</ele>
        <time>2020-06-18T18:35:19Z</time>
      </trkpt>
      <trkpt lat="50.44099" lon="1.65082">
        <ele>15.6</ele>
        <time>2020-06-18T18:35:20Z</time>
      </trkpt>
      <trkpt lat="50.44105" lon="1.65081">
        <ele>15.5</ele>
        <time>2020-06-18T18:35:21Z</time>
      </trkpt>
      <trkpt lat="50.44112" lon="1.6508">
        <ele>15.5</ele>
        <time>2020-06-18T18:35:22Z</time>
      </trkpt>
      <trkpt lat="50.44118" lon="1.65079">
        <ele>15.5</ele>
        <time>2020-06-18T18:35:23Z</time>
      </trkpt>
      <trkpt lat="50.44125" lon="1.65077">
        <ele>15.5</ele>
        <time>2020-06-18T18:35:24Z</time>
      </trkpt>
      <trkpt lat="50.44131" lon="1.65076">
        <ele>15.3</ele>
        <time>2020-06-18T18:35:25Z</time>
      </trkpt>
      <trkpt lat="50.44138" lon="1.65075">
        <ele>15.1</ele>
        <time>2020-06-18T18:35:26Z</time>
      </trkpt>
      <trkpt lat="50.44145" lon="1.65074">
        <ele>14.9</ele>
        <time>2020-06-18T18:35:27Z</time>
      </trkpt>
      <trkpt lat="50.44152" lon="1.65073">
        <ele>14.8</ele>
        <time>2020-06-18T18:35:28Z</time>
      </trkpt>
      <trkpt lat="50.44159" lon="1.65071">
        <ele>14.6</ele>
        <time>2020-06-18T18:35:29Z</time>
      </trkpt>
      <trkpt lat="50.44166" lon="1.6507">
        <ele>14.5</ele>
        <time>2020-06-18T18:35:30Z</time>
      </trkpt>
      <trkpt lat="50.44173" lon="1.65068">
        <ele>14.5</ele>
        <time>2020-06-18T18:35:31Z</time>
      </trkpt>
      <trkpt lat="50.4418" lon="1.65066">
        <ele>14.4</ele>
        <time>2020-06-18T18:35:32Z</time>
      </trkpt>
      <trkpt lat="50.44186" lon="1.65064">
        <ele>14.3</ele>
        <time>2020-06-18T18:35:33Z</time>
      </trkpt>
      <trkpt lat="50.44193" lon="1.65062">
        <ele>14.2</ele>
        <time>2020-06-18T18:35:34Z</time>
      </trkpt>
      <trkpt lat="50.442" lon="1.6506">
        <ele>14</ele>
        <time>2020-06-18T18:35:35Z</time>
      </trkpt>
      <trkpt lat="50.44207" lon="1.65059">
        <ele>13.9</ele>
        <time>2020-06-18T18:35:36Z</time>
      </trkpt>
      <trkpt lat="50.44215" lon="1.65057">
        <ele>13.8</ele>
        <time>2020-06-18T18:35:37Z</time>
      </trkpt>
      <trkpt lat="50.44222" lon="1.65055">
        <ele>13.6</ele>
        <time>2020-06-18T18:35:38Z</time>
      </trkpt>
      <trkpt lat="50.44229" lon="1.65053">
        <ele>13.5</ele>
        <time>2020-06-18T18:35:39Z</time>
      </trkpt>
      <trkpt lat="50.44237" lon="1.65051">
        <ele>13.4</ele>
        <time>2020-06-18T18:35:40Z</time>
      </trkpt>
      <trkpt lat="50.44244" lon="1.65051">
        <ele>13.3</ele>
        <time>2020-06-18T18:35:41Z</time>
      </trkpt>
      <trkpt lat="50.44251" lon="1.6505">
        <ele>13.2</ele>
        <time>2020-06-18T18:35:42Z</time>
      </trkpt>
      <trkpt lat="50.44258" lon="1.65049">
        <ele>13</ele>
        <time>2020-06-18T18:35:43Z</time>
      </trkpt>
      <trkpt lat="50.44265" lon="1.65048">
        <ele>12.9</ele>
        <time>2020-06-18T18:35:44Z</time>
      </trkpt>
      <trkpt lat="50.44272" lon="1.65048">
        <ele>12.7</ele>
        <time>2020-06-18T18:35:45Z</time>
      </trkpt>
      <trkpt lat="50.4428" lon="1.65048">
        <ele>12.6</ele>
        <time>2020-06-18T18:35:46Z</time>
      </trkpt>
      <trkpt lat="50.44286" lon="1.65048">
        <ele>12.4</ele>
        <time>2020-06-18T18:35:47Z</time>
      </trkpt>
      <trkpt lat="50.44293" lon="1.65047">
        <ele>12.3</ele>
        <time>2020-06-18T18:35:48Z</time>
      </trkpt>
      <trkpt lat="50.44301" lon="1.65048">
        <ele>12.2</ele>
        <time>2020-06-18T18:35:49Z</time>
      </trkpt>
      <trkpt lat="50.44308" lon="1.65048">
        <ele>12.1</ele>
        <time>2020-06-18T18:35:50Z</time>
      </trkpt>
      <trkpt lat="50.44315" lon="1.65048">
        <ele>12</ele>
        <time>2020-06-18T18:35:51Z</time>
      </trkpt>
      <trkpt lat="50.44323" lon="1.65048">
        <ele>11.8</ele>
        <time>2020-06-18T18:35:52Z</time>
      </trkpt>
      <trkpt lat="50.4433" lon="1.65048">
        <ele>11.7</ele>
        <time>2020-06-18T18:35:53Z</time>
      </trkpt>
      <trkpt lat="50.44338" lon="1.65048">
        <ele>11.5</ele>
        <time>2020-06-18T18:35:54Z</time>
      </trkpt>
      <trkpt lat="50.44345" lon="1.65048">
        <ele>11.3</ele>
        <time>2020-06-18T18:35:55Z</time>
      </trkpt>
      <trkpt lat="50.44353" lon="1.65048">
        <ele>11.1</ele>
        <time>2020-06-18T18:35:56Z</time>
      </trkpt>
      <trkpt lat="50.4436" lon="1.65048">
        <ele>10.9</ele>
        <time>2020-06-18T18:35:57Z</time>
      </trkpt>
      <trkpt lat="50.44368" lon="1.65048">
        <ele>10.7</ele>
        <time>2020-06-18T18:35:58Z</time>
      </trkpt>
      <trkpt lat="50.44375" lon="1.65049">
        <ele>10.5</ele>
        <time>2020-06-18T18:35:59Z</time>
      </trkpt>
      <trkpt lat="50.44383" lon="1.65049">
        <ele>10.2</ele>
        <time>2020-06-18T18:36:00Z</time>
      </trkpt>
      <trkpt lat="50.44391" lon="1.6505">
        <ele>9.9</ele>
        <time>2020-06-18T18:36:01Z</time>
      </trkpt>
      <trkpt lat="50.44399" lon="1.6505">
        <ele>9.6</ele>
        <time>2020-06-18T18:36:02Z</time>
      </trkpt>
      <trkpt lat="50.44407" lon="1.65051">
        <ele>9.4</ele>
        <time>2020-06-18T18:36:03Z</time>
      </trkpt>
      <trkpt lat="50.44415" lon="1.65051">
        <ele>9.1</ele>
        <time>2020-06-18T18:36:04Z</time>
      </trkpt>
      <trkpt lat="50.44423" lon="1.65051">
        <ele>8.9</ele>
        <time>2020-06-18T18:36:05Z</time>
      </trkpt>
      <trkpt lat="50.44431" lon="1.65052">
        <ele>8.6</ele>
        <time>2020-06-18T18:36:06Z</time>
      </trkpt>
      <trkpt lat="50.4444" lon="1.65053">
        <ele>8.4</ele>
        <time>2020-06-18T18:36:07Z</time>
      </trkpt>
      <trkpt lat="50.44448" lon="1.65053">
        <ele>8.2</ele>
        <time>2020-06-18T18:36:08Z</time>
      </trkpt>
      <trkpt lat="50.44456" lon="1.65054">
        <ele>8</ele>
        <time>2020-06-18T18:36:09Z</time>
      </trkpt>
      <trkpt lat="50.44464" lon="1.65054">
        <ele>7.9</ele>
        <time>2020-06-18T18:36:10Z</time>
      </trkpt>
      <trkpt lat="50.44473" lon="1.65054">
        <ele>7.7</ele>
        <time>2020-06-18T18:36:11Z</time>
      </trkpt>
      <trkpt lat="50.44481" lon="1.65055">
        <ele>7.5</ele>
        <time>2020-06-18T18:36:12Z</time>
      </trkpt>
      <trkpt lat="50.44489" lon="1.65055">
        <ele>7.4</ele>
        <time>2020-06-18T18:36:13Z</time>
      </trkpt>
      <trkpt lat="50.44497" lon="1.65055">
        <ele>7.2</ele>
        <time>2020-06-18T18:36:14Z</time>
      </trkpt>
      <trkpt lat="50.44505" lon="1.65055">
        <ele>7.1</ele>
        <time>2020-06-18T18:36:15Z</time>
      </trkpt>
      <trkpt lat="50.44513" lon="1.65055">
        <ele>7</ele>
        <time>2020-06-18T18:36:16Z</time>
      </trkpt>
      <trkpt lat="50.44521" lon="1.65055">
        <ele>6.9</ele>
        <time>2020-06-18T18:36:17Z</time>
      </trkpt>
      <trkpt lat="50.44529" lon="1.65056">
        <ele>6.8</ele>
        <time>2020-06-18T18:36:18Z</time>
      </trkpt>
      <trkpt lat="50.44536" lon="1.65056">
        <ele>6.7</ele>
        <time>2020-06-18T18:36:19Z</time>
      </trkpt>
      <trkpt lat="50.44544" lon="1.65056">
        <ele>6.6</ele>
        <time>2020-06-18T18:36:20Z</time>
      </trkpt>
      <trkpt lat="50.44552" lon="1.65056">
        <ele>6.5</ele>
        <time>2020-06-18T18:36:21Z</time>
      </trkpt>
      <trkpt lat="50.4456" lon="1.65057">
        <ele>6.5</ele>
        <time>2020-06-18T18:36:22Z</time>
      </trkpt>
      <trkpt lat="50.44568" lon="1.65058">
        <ele>6.4</ele>
        <time>2020-06-18T18:36:23Z</time>
      </trkpt>
      <trkpt lat="50.44576" lon="1.65058">
        <ele>6.4</ele>
        <time>2020-06-18T18:36:24Z</time>
      </trkpt>
      <trkpt lat="50.44584" lon="1.65058">
        <ele>6.4</ele>
        <time>2020-06-18T18:36:25Z</time>
      </trkpt>
      <trkpt lat="50.44592" lon="1.65057">
        <ele>6.4</ele>
        <time>2020-06-18T18:36:26Z</time>
      </trkpt>
      <trkpt lat="50.446" lon="1.65057">
        <ele>6.5</ele>
        <time>2020-06-18T18:36:27Z</time>
      </trkpt>
      <trkpt lat="50.44608" lon="1.65056">
        <ele>6.5</ele>
        <time>2020-06-18T18:36:28Z</time>
      </trkpt>
      <trkpt lat="50.44616" lon="1.65056">
        <ele>6.6</ele>
        <time>2020-06-18T18:36:29Z</time>
      </trkpt>
      <trkpt lat="50.44624" lon="1.65056">
        <ele>6.6</ele>
        <time>2020-06-18T18:36:30Z</time>
      </trkpt>
      <trkpt lat="50.44631" lon="1.65056">
        <ele>6.7</ele>
        <time>2020-06-18T18:36:31Z</time>
      </trkpt>
      <trkpt lat="50.44639" lon="1.65057">
        <ele>6.7</ele>
        <time>2020-06-18T18:36:32Z</time>
      </trkpt>
      <trkpt lat="50.44647" lon="1.65057">
        <ele>6.7</ele>
        <time>2020-06-18T18:36:33Z</time>
      </trkpt>
      <trkpt lat="50.44654" lon="1.65056">
        <ele>6.7</ele>
        <time>2020-06-18T18:36:34Z</time>
      </trkpt>
      <trkpt lat="50.44662" lon="1.65057">
        <ele>6.8</ele>
        <time>2020-06-18T18:36:35Z</time>
      </trkpt>
      <trkpt lat="50.4467" lon="1.65057">
        <ele>6.8</ele>
        <time>2020-06-18T18:36:36Z</time>
      </trkpt>
      <trkpt lat="50.44677" lon="1.65058">
        <ele>6.8</ele>
        <time>2020-06-18T18:36:37Z</time>
      </trkpt>
      <trkpt lat="50.44685" lon="1.65058">
        <ele>6.9</ele>
        <time>2020-06-18T18:36:38Z</time>
      </trkpt>
      <trkpt lat="50.44693" lon="1.65058">
        <ele>6.9</ele>
        <time>2020-06-18T18:36:39Z</time>
      </trkpt>
      <trkpt lat="50.44701" lon="1.65058">
        <ele>6.9</ele>
        <time>2020-06-18T18:36:40Z</time>
      </trkpt>
      <trkpt lat="50.44708" lon="1.65059">
        <ele>7</ele>
        <time>2020-06-18T18:36:41Z</time>
      </trkpt>
      <trkpt lat="50.44716" lon="1.65059">
        <ele>7</ele>
        <time>2020-06-18T18:36:42Z</time>
      </trkpt>
      <trkpt lat="50.44723" lon="1.65059">
        <ele>7</ele>
        <time>2020-06-18T18:36:43Z</time>
      </trkpt>
      <trkpt lat="50.44731" lon="1.65059">
        <ele>7.1</ele>
        <time>2020-06-18T18:36:44Z</time>
      </trkpt>
      <trkpt lat="50.44739" lon="1.6506">
        <ele>7.1</ele>
        <time>2020-06-18T18:36:45Z</time>
      </trkpt>
      <trkpt lat="50.44746" lon="1.6506">
        <ele>7.1</ele>
        <time>2020-06-18T18:36:46Z</time>
      </trkpt>
      <trkpt lat="50.44753" lon="1.6506">
        <ele>7.1</ele>
        <time>2020-06-18T18:36:47Z</time>
      </trkpt>
      <trkpt lat="50.44761" lon="1.65059">
        <ele>7.2</ele>
        <time>2020-06-18T18:36:48Z</time>
      </trkpt>
      <trkpt lat="50.44768" lon="1.65059">
        <ele>7.2</ele>
        <time>2020-06-18T18:36:49Z</time>
      </trkpt>
      <trkpt lat="50.44776" lon="1.65059">
        <ele>7.3</ele>
        <time>2020-06-18T18:36:50Z</time>
      </trkpt>
      <trkpt lat="50.44783" lon="1.6506">
        <ele>7.3</ele>
        <time>2020-06-18T18:36:51Z</time>
      </trkpt>
      <trkpt lat="50.44791" lon="1.6506">
        <ele>7.3</ele>
        <time>2020-06-18T18:36:52Z</time>
      </trkpt>
      <trkpt lat="50.44799" lon="1.6506">
        <ele>7.3</ele>
        <time>2020-06-18T18:36:53Z</time>
      </trkpt>
      <trkpt lat="50.44806" lon="1.65059">
        <ele>7.3</ele>
        <time>2020-06-18T18:36:54Z</time>
      </trkpt>
      <trkpt lat="50.44814" lon="1.65059">
        <ele>7.2</ele>
        <time>2020-06-18T18:36:55Z</time>
      </trkpt>
      <trkpt lat="50.44822" lon="1.6506">
        <ele>7.2</ele>
        <time>2020-06-18T18:36:56Z</time>
      </trkpt>
      <trkpt lat="50.4483" lon="1.65061">
        <ele>7.2</ele>
        <time>2020-06-18T18:36:57Z</time>
      </trkpt>
      <trkpt lat="50.44838" lon="1.65062">
        <ele>7.2</ele>
        <time>2020-06-18T18:36:58Z</time>
      </trkpt>
      <trkpt lat="50.44845" lon="1.65062">
        <ele>7.2</ele>
        <time>2020-06-18T18:36:59Z</time>
      </trkpt>
      <trkpt lat="50.44853" lon="1.65062">
        <ele>7.2</ele>
        <time>2020-06-18T18:37:00Z</time>
      </trkpt>
      <trkpt lat="50.44861" lon="1.65064">
        <ele>7.2</ele>
        <time>2020-06-18T18:37:01Z</time>
      </trkpt>
      <trkpt lat="50.44869" lon="1.65064">
        <ele>7.3</ele>
        <time>2020-06-18T18:37:02Z</time>
      </trkpt>
      <trkpt lat="50.44876" lon="1.65064">
        <ele>7.3</ele>
        <time>2020-06-18T18:37:03Z</time>
      </trkpt>
      <trkpt lat="50.44884" lon="1.65065">
        <ele>7.3</ele>
        <time>2020-06-18T18:37:04Z</time>
      </trkpt>
      <trkpt lat="50.44891" lon="1.65064">
        <ele>7.2</ele>
        <time>2020-06-18T18:37:05Z</time>
      </trkpt>
      <trkpt lat="50.44899" lon="1.65064">
        <ele>7.2</ele>
        <time>2020-06-18T18:37:06Z</time>
      </trkpt>
      <trkpt lat="50.44907" lon="1.65064">
        <ele>7.2</ele>
        <time>2020-06-18T18:37:07Z</time>
      </trkpt>
      <trkpt lat="50.44915" lon="1.65064">
        <ele>7.1</ele>
        <time>2020-06-18T18:37:08Z</time>
      </trkpt>
      <trkpt lat="50.44922" lon="1.65065">
        <ele>7.1</ele>
        <time>2020-06-18T18:37:09Z</time>
      </trkpt>
      <trkpt lat="50.4493" lon="1.65065">
        <ele>7.1</ele>
        <time>2020-06-18T18:37:10Z</time>
      </trkpt>
      <trkpt lat="50.44938" lon="1.65066">
        <ele>7.1</ele>
        <time>2020-06-18T18:37:11Z</time>
      </trkpt>
      <trkpt lat="50.44946" lon="1.65065">
        <ele>7.1</ele>
        <time>2020-06-18T18:37:12Z</time>
      </trkpt>
      <trkpt lat="50.44954" lon="1.65066">
        <ele>7.3</ele>
        <time>2020-06-18T18:37:13Z</time>
      </trkpt>
      <trkpt lat="50.44962" lon="1.65067">
        <ele>7</ele>
        <time>2020-06-18T18:37:14Z</time>
      </trkpt>
      <trkpt lat="50.4497" lon="1.65066">
        <ele>6.8</ele>
        <time>2020-06-18T18:37:15Z</time>
      </trkpt>
      <trkpt lat="50.44978" lon="1.65067">
        <ele>6.7</ele>
        <time>2020-06-18T18:37:16Z</time>
      </trkpt>
      <trkpt lat="50.44986" lon="1.65068">
        <ele>6.6</ele>
        <time>2020-06-18T18:37:17Z</time>
      </trkpt>
      <trkpt lat="50.44994" lon="1.65067">
        <ele>6.6</ele>
        <time>2020-06-18T18:37:18Z</time>
      </trkpt>
      <trkpt lat="50.45002" lon="1.65067">
        <ele>6.5</ele>
        <time>2020-06-18T18:37:19Z</time>
      </trkpt>
      <trkpt lat="50.45011" lon="1.65067">
        <ele>6.5</ele>
        <time>2020-06-18T18:37:20Z</time>
      </trkpt>
      <trkpt lat="50.45019" lon="1.65066">
        <ele>6.5</ele>
        <time>2020-06-18T18:37:21Z</time>
      </trkpt>
      <trkpt lat="50.45027" lon="1.65066">
        <ele>6.5</ele>
        <time>2020-06-18T18:37:22Z</time>
      </trkpt>
      <trkpt lat="50.45036" lon="1.65066">
        <ele>6.5</ele>
        <time>2020-06-18T18:37:23Z</time>
      </trkpt>
      <trkpt lat="50.45044" lon="1.65066">
        <ele>6.5</ele>
        <time>2020-06-18T18:37:24Z</time>
      </trkpt>
      <trkpt lat="50.45052" lon="1.65068">
        <ele>6.5</ele>
        <time>2020-06-18T18:37:25Z</time>
      </trkpt>
      <trkpt lat="50.4506" lon="1.65067">
        <ele>6.5</ele>
        <time>2020-06-18T18:37:26Z</time>
      </trkpt>
      <trkpt lat="50.45068" lon="1.65066">
        <ele>6.5</ele>
        <time>2020-06-18T18:37:27Z</time>
      </trkpt>
      <trkpt lat="50.45076" lon="1.65067">
        <ele>6.5</ele>
        <time>2020-06-18T18:37:28Z</time>
      </trkpt>
      <trkpt lat="50.45085" lon="1.65066">
        <ele>6.5</ele>
        <time>2020-06-18T18:37:29Z</time>
      </trkpt>
      <trkpt lat="50.45093" lon="1.65065">
        <ele>6.6</ele>
        <time>2020-06-18T18:37:30Z</time>
      </trkpt>
      <trkpt lat="50.45101" lon="1.65064">
        <ele>6.5</ele>
        <time>2020-06-18T18:37:31Z</time>
      </trkpt>
      <trkpt lat="50.45109" lon="1.65064">
        <ele>6.5</ele>
        <time>2020-06-18T18:37:32Z</time>
      </trkpt>
      <trkpt lat="50.45116" lon="1.65064">
        <ele>6.5</ele>
        <time>2020-06-18T18:37:33Z</time>
      </trkpt>
      <trkpt lat="50.45124" lon="1.65063">
        <ele>6.5</ele>
        <time>2020-06-18T18:37:34Z</time>
      </trkpt>
      <trkpt lat="50.45131" lon="1.65061">
        <ele>6.5</ele>
        <time>2020-06-18T18:37:35Z</time>
      </trkpt>
      <trkpt lat="50.45139" lon="1.6506">
        <ele>6.5</ele>
        <time>2020-06-18T18:37:36Z</time>
      </trkpt>
      <trkpt lat="50.45147" lon="1.65059">
        <ele>6.5</ele>
        <time>2020-06-18T18:37:37Z</time>
      </trkpt>
      <trkpt lat="50.45155" lon="1.65057">
        <ele>6.5</ele>
        <time>2020-06-18T18:37:38Z</time>
      </trkpt>
      <trkpt lat="50.45163" lon="1.65056">
        <ele>6.5</ele>
        <time>2020-06-18T18:37:39Z</time>
      </trkpt>
      <trkpt lat="50.45171" lon="1.65054">
        <ele>6.5</ele>
        <time>2020-06-18T18:37:40Z</time>
      </trkpt>
      <trkpt lat="50.45178" lon="1.65052">
        <ele>6.5</ele>
        <time>2020-06-18T18:37:41Z</time>
      </trkpt>
      <trkpt lat="50.45186" lon="1.65052">
        <ele>6.6</ele>
        <time>2020-06-18T18:37:42Z</time>
      </trkpt>
      <trkpt lat="50.45194" lon="1.65051">
        <ele>6.6</ele>
        <time>2020-06-18T18:37:43Z</time>
      </trkpt>
      <trkpt lat="50.45202" lon="1.65049">
        <ele>6.6</ele>
        <time>2020-06-18T18:37:44Z</time>
      </trkpt>
      <trkpt lat="50.4521" lon="1.65047">
        <ele>6.6</ele>
        <time>2020-06-18T18:37:45Z</time>
      </trkpt>
      <trkpt lat="50.45217" lon="1.65045">
        <ele>6.6</ele>
        <time>2020-06-18T18:37:46Z</time>
      </trkpt>
      <trkpt lat="50.45225" lon="1.65043">
        <ele>6.6</ele>
        <time>2020-06-18T18:37:47Z</time>
      </trkpt>
      <trkpt lat="50.45233" lon="1.65042">
        <ele>6.6</ele>
        <time>2020-06-18T18:37:48Z</time>
      </trkpt>
      <trkpt lat="50.4524" lon="1.65041">
        <ele>6.5</ele>
        <time>2020-06-18T18:37:49Z</time>
      </trkpt>
      <trkpt lat="50.45248" lon="1.65039">
        <ele>6.5</ele>
        <time>2020-06-18T18:37:50Z</time>
      </trkpt>
      <trkpt lat="50.45256" lon="1.65037">
        <ele>6.5</ele>
        <time>2020-06-18T18:37:51Z</time>
      </trkpt>
      <trkpt lat="50.45264" lon="1.65036">
        <ele>6.5</ele>
        <time>2020-06-18T18:37:52Z</time>
      </trkpt>
      <trkpt lat="50.45272" lon="1.65036">
        <ele>6.5</ele>
        <time>2020-06-18T18:37:53Z</time>
      </trkpt>
      <trkpt lat="50.4528" lon="1.65036">
        <ele>6.6</ele>
        <time>2020-06-18T18:37:54Z</time>
      </trkpt>
      <trkpt lat="50.45287" lon="1.65034">
        <ele>6.6</ele>
        <time>2020-06-18T18:37:55Z</time>
      </trkpt>
      <trkpt lat="50.45295" lon="1.65031">
        <ele>6.6</ele>
        <time>2020-06-18T18:37:56Z</time>
      </trkpt>
      <trkpt lat="50.45303" lon="1.65029">
        <ele>6.7</ele>
        <time>2020-06-18T18:37:57Z</time>
      </trkpt>
      <trkpt lat="50.45311" lon="1.65027">
        <ele>6.7</ele>
        <time>2020-06-18T18:37:58Z</time>
      </trkpt>
      <trkpt lat="50.45318" lon="1.65025">
        <ele>6.7</ele>
        <time>2020-06-18T18:37:59Z</time>
      </trkpt>
      <trkpt lat="50.45326" lon="1.65023">
        <ele>6.7</ele>
        <time>2020-06-18T18:38:00Z</time>
      </trkpt>
      <trkpt lat="50.45334" lon="1.65021">
        <ele>6.8</ele>
        <time>2020-06-18T18:38:01Z</time>
      </trkpt>
      <trkpt lat="50.45341" lon="1.6502">
        <ele>6.8</ele>
        <time>2020-06-18T18:38:02Z</time>
      </trkpt>
      <trkpt lat="50.45349" lon="1.65019">
        <ele>6.8</ele>
        <time>2020-06-18T18:38:03Z</time>
      </trkpt>
      <trkpt lat="50.45357" lon="1.65018">
        <ele>6.8</ele>
        <time>2020-06-18T18:38:04Z</time>
      </trkpt>
      <trkpt lat="50.45365" lon="1.65018">
        <ele>6.8</ele>
        <time>2020-06-18T18:38:05Z</time>
      </trkpt>
      <trkpt lat="50.45372" lon="1.65017">
        <ele>6.9</ele>
        <time>2020-06-18T18:38:06Z</time>
      </trkpt>
      <trkpt lat="50.4538" lon="1.65015">
        <ele>6.9</ele>
        <time>2020-06-18T18:38:07Z</time>
      </trkpt>
      <trkpt lat="50.45388" lon="1.65014">
        <ele>6.9</ele>
        <time>2020-06-18T18:38:08Z</time>
      </trkpt>
      <trkpt lat="50.45395" lon="1.65014">
        <ele>7</ele>
        <time>2020-06-18T18:38:09Z</time>
      </trkpt>
      <trkpt lat="50.45403" lon="1.65013">
        <ele>7</ele>
        <time>2020-06-18T18:38:10Z</time>
      </trkpt>
      <trkpt lat="50.4541" lon="1.65012">
        <ele>7</ele>
        <time>2020-06-18T18:38:11Z</time>
      </trkpt>
      <trkpt lat="50.45418" lon="1.6501">
        <ele>7</ele>
        <time>2020-06-18T18:38:12Z</time>
      </trkpt>
      <trkpt lat="50.45426" lon="1.65009">
        <ele>7</ele>
        <time>2020-06-18T18:38:13Z</time>
      </trkpt>
      <trkpt lat="50.45433" lon="1.65009">
        <ele>7</ele>
        <time>2020-06-18T18:38:14Z</time>
      </trkpt>
      <trkpt lat="50.45441" lon="1.65009">
        <ele>7</ele>
        <time>2020-06-18T18:38:15Z</time>
      </trkpt>
      <trkpt lat="50.45449" lon="1.6501">
        <ele>7</ele>
        <time>2020-06-18T18:38:16Z</time>
      </trkpt>
      <trkpt lat="50.45457" lon="1.65011">
        <ele>7</ele>
        <time>2020-06-18T18:38:17Z</time>
      </trkpt>
      <trkpt lat="50.45465" lon="1.65012">
        <ele>7</ele>
        <time>2020-06-18T18:38:18Z</time>
      </trkpt>
      <trkpt lat="50.45473" lon="1.65013">
        <ele>7</ele>
        <time>2020-06-18T18:38:19Z</time>
      </trkpt>
      <trkpt lat="50.45481" lon="1.65013">
        <ele>7</ele>
        <time>2020-06-18T18:38:20Z</time>
      </trkpt>
      <trkpt lat="50.45489" lon="1.65013">
        <ele>6.9</ele>
        <time>2020-06-18T18:38:21Z</time>
      </trkpt>
      <trkpt lat="50.45497" lon="1.65014">
        <ele>6.9</ele>
        <time>2020-06-18T18:38:22Z</time>
      </trkpt>
      <trkpt lat="50.45506" lon="1.65016">
        <ele>6.9</ele>
        <time>2020-06-18T18:38:23Z</time>
      </trkpt>
      <trkpt lat="50.45514" lon="1.65017">
        <ele>6.9</ele>
        <time>2020-06-18T18:38:24Z</time>
      </trkpt>
      <trkpt lat="50.45522" lon="1.65019">
        <ele>6.9</ele>
        <time>2020-06-18T18:38:25Z</time>
      </trkpt>
      <trkpt lat="50.4553" lon="1.65021">
        <ele>6.9</ele>
        <time>2020-06-18T18:38:26Z</time>
      </trkpt>
      <trkpt lat="50.45537" lon="1.65023">
        <ele>6.9</ele>
        <time>2020-06-18T18:38:27Z</time>
      </trkpt>
      <trkpt lat="50.45545" lon="1.65026">
        <ele>7</ele>
        <time>2020-06-18T18:38:28Z</time>
      </trkpt>
      <trkpt lat="50.45552" lon="1.65029">
        <ele>7</ele>
        <time>2020-06-18T18:38:29Z</time>
      </trkpt>
      <trkpt lat="50.4556" lon="1.65031">
        <ele>7.1</ele>
        <time>2020-06-18T18:38:30Z</time>
      </trkpt>
      <trkpt lat="50.45568" lon="1.65032">
        <ele>7.2</ele>
        <time>2020-06-18T18:38:31Z</time>
      </trkpt>
      <trkpt lat="50.45575" lon="1.65034">
        <ele>7.2</ele>
        <time>2020-06-18T18:38:32Z</time>
      </trkpt>
      <trkpt lat="50.45582" lon="1.65035">
        <ele>7.3</ele>
        <time>2020-06-18T18:38:33Z</time>
      </trkpt>
      <trkpt lat="50.45589" lon="1.65037">
        <ele>7.3</ele>
        <time>2020-06-18T18:38:34Z</time>
      </trkpt>
      <trkpt lat="50.45597" lon="1.65039">
        <ele>7.4</ele>
        <time>2020-06-18T18:38:35Z</time>
      </trkpt>
      <trkpt lat="50.45604" lon="1.6504">
        <ele>7.4</ele>
        <time>2020-06-18T18:38:36Z</time>
      </trkpt>
      <trkpt lat="50.45611" lon="1.65043">
        <ele>7.4</ele>
        <time>2020-06-18T18:38:37Z</time>
      </trkpt>
      <trkpt lat="50.45619" lon="1.65045">
        <ele>7.5</ele>
        <time>2020-06-18T18:38:38Z</time>
      </trkpt>
      <trkpt lat="50.45626" lon="1.65047">
        <ele>7.5</ele>
        <time>2020-06-18T18:38:39Z</time>
      </trkpt>
      <trkpt lat="50.45633" lon="1.65049">
        <ele>7.5</ele>
        <time>2020-06-18T18:38:40Z</time>
      </trkpt>
      <trkpt lat="50.4564" lon="1.65051">
        <ele>7.6</ele>
        <time>2020-06-18T18:38:41Z</time>
      </trkpt>
      <trkpt lat="50.45648" lon="1.65053">
        <ele>7.6</ele>
        <time>2020-06-18T18:38:42Z</time>
      </trkpt>
      <trkpt lat="50.45655" lon="1.65054">
        <ele>7.6</ele>
        <time>2020-06-18T18:38:43Z</time>
      </trkpt>
      <trkpt lat="50.45662" lon="1.65056">
        <ele>7.7</ele>
        <time>2020-06-18T18:38:44Z</time>
      </trkpt>
      <trkpt lat="50.45669" lon="1.65058">
        <ele>7.7</ele>
        <time>2020-06-18T18:38:45Z</time>
      </trkpt>
      <trkpt lat="50.45676" lon="1.6506">
        <ele>7.8</ele>
        <time>2020-06-18T18:38:46Z</time>
      </trkpt>
      <trkpt lat="50.45683" lon="1.65061">
        <ele>7.8</ele>
        <time>2020-06-18T18:38:47Z</time>
      </trkpt>
      <trkpt lat="50.4569" lon="1.65062">
        <ele>7.8</ele>
        <time>2020-06-18T18:38:48Z</time>
      </trkpt>
      <trkpt lat="50.45697" lon="1.65064">
        <ele>7.8</ele>
        <time>2020-06-18T18:38:49Z</time>
      </trkpt>
      <trkpt lat="50.45704" lon="1.65066">
        <ele>7.8</ele>
        <time>2020-06-18T18:38:50Z</time>
      </trkpt>
      <trkpt lat="50.45712" lon="1.65068">
        <ele>7.8</ele>
        <time>2020-06-18T18:38:51Z</time>
      </trkpt>
      <trkpt lat="50.45719" lon="1.6507">
        <ele>7.8</ele>
        <time>2020-06-18T18:38:52Z</time>
      </trkpt>
      <trkpt lat="50.45726" lon="1.6507">
        <ele>7.9</ele>
        <time>2020-06-18T18:38:53Z</time>
      </trkpt>
      <trkpt lat="50.45734" lon="1.65071">
        <ele>7.9</ele>
        <time>2020-06-18T18:38:54Z</time>
      </trkpt>
      <trkpt lat="50.45741" lon="1.65072">
        <ele>8</ele>
        <time>2020-06-18T18:38:55Z</time>
      </trkpt>
      <trkpt lat="50.45748" lon="1.65075">
        <ele>8</ele>
        <time>2020-06-18T18:38:56Z</time>
      </trkpt>
      <trkpt lat="50.45755" lon="1.65076">
        <ele>8</ele>
        <time>2020-06-18T18:38:57Z</time>
      </trkpt>
      <trkpt lat="50.45763" lon="1.65076">
        <ele>8</ele>
        <time>2020-06-18T18:38:58Z</time>
      </trkpt>
      <trkpt lat="50.4577" lon="1.65078">
        <ele>8</ele>
        <time>2020-06-18T18:38:59Z</time>
      </trkpt>
      <trkpt lat="50.45777" lon="1.65079">
        <ele>8</ele>
        <time>2020-06-18T18:39:00Z</time>
      </trkpt>
      <trkpt lat="50.45785" lon="1.65081">
        <ele>8.1</ele>
        <time>2020-06-18T18:39:01Z</time>
      </trkpt>
      <trkpt lat="50.45792" lon="1.65083">
        <ele>8.1</ele>
        <time>2020-06-18T18:39:02Z</time>
      </trkpt>
      <trkpt lat="50.45799" lon="1.65084">
        <ele>8.3</ele>
        <time>2020-06-18T18:39:03Z</time>
      </trkpt>
      <trkpt lat="50.45807" lon="1.65084">
        <ele>8.4</ele>
        <time>2020-06-18T18:39:04Z</time>
      </trkpt>
      <trkpt lat="50.45815" lon="1.65084">
        <ele>8.4</ele>
        <time>2020-06-18T18:39:05Z</time>
      </trkpt>
      <trkpt lat="50.45821" lon="1.65082">
        <ele>8.4</ele>
        <time>2020-06-18T18:39:06Z</time>
      </trkpt>
      <trkpt lat="50.45829" lon="1.65081">
        <ele>8.3</ele>
        <time>2020-06-18T18:39:07Z</time>
      </trkpt>
      <trkpt lat="50.45836" lon="1.65079">
        <ele>8.3</ele>
        <time>2020-06-18T18:39:08Z</time>
      </trkpt>
      <trkpt lat="50.45844" lon="1.65078">
        <ele>8.2</ele>
        <time>2020-06-18T18:39:09Z</time>
      </trkpt>
      <trkpt lat="50.45851" lon="1.65076">
        <ele>8.2</ele>
        <time>2020-06-18T18:39:10Z</time>
      </trkpt>
      <trkpt lat="50.45859" lon="1.65073">
        <ele>8.1</ele>
        <time>2020-06-18T18:39:11Z</time>
      </trkpt>
      <trkpt lat="50.45865" lon="1.6507">
        <ele>8.1</ele>
        <time>2020-06-18T18:39:12Z</time>
      </trkpt>
      <trkpt lat="50.45873" lon="1.65067">
        <ele>8</ele>
        <time>2020-06-18T18:39:13Z</time>
      </trkpt>
      <trkpt lat="50.4588" lon="1.65064">
        <ele>8</ele>
        <time>2020-06-18T18:39:14Z</time>
      </trkpt>
      <trkpt lat="50.45887" lon="1.65061">
        <ele>8</ele>
        <time>2020-06-18T18:39:15Z</time>
      </trkpt>
      <trkpt lat="50.45894" lon="1.65057">
        <ele>8</ele>
        <time>2020-06-18T18:39:16Z</time>
      </trkpt>
      <trkpt lat="50.45902" lon="1.65054">
        <ele>8</ele>
        <time>2020-06-18T18:39:17Z</time>
      </trkpt>
      <trkpt lat="50.45909" lon="1.65051">
        <ele>8</ele>
        <time>2020-06-18T18:39:18Z</time>
      </trkpt>
      <trkpt lat="50.45917" lon="1.65048">
        <ele>8</ele>
        <time>2020-06-18T18:39:19Z</time>
      </trkpt>
      <trkpt lat="50.45924" lon="1.65044">
        <ele>8</ele>
        <time>2020-06-18T18:39:20Z</time>
      </trkpt>
      <trkpt lat="50.45932" lon="1.65043">
        <ele>7.9</ele>
        <time>2020-06-18T18:39:21Z</time>
      </trkpt>
      <trkpt lat="50.4594" lon="1.6504">
        <ele>7.9</ele>
        <time>2020-06-18T18:39:22Z</time>
      </trkpt>
      <trkpt lat="50.45947" lon="1.65038">
        <ele>7.9</ele>
        <time>2020-06-18T18:39:23Z</time>
      </trkpt>
      <trkpt lat="50.45955" lon="1.65036">
        <ele>7.8</ele>
        <time>2020-06-18T18:39:24Z</time>
      </trkpt>
      <trkpt lat="50.45963" lon="1.65035">
        <ele>7.8</ele>
        <time>2020-06-18T18:39:25Z</time>
      </trkpt>
      <trkpt lat="50.4597" lon="1.65034">
        <ele>7.7</ele>
        <time>2020-06-18T18:39:26Z</time>
      </trkpt>
      <trkpt lat="50.45978" lon="1.65033">
        <ele>7.7</ele>
        <time>2020-06-18T18:39:27Z</time>
      </trkpt>
      <trkpt lat="50.45986" lon="1.65032">
        <ele>7.6</ele>
        <time>2020-06-18T18:39:28Z</time>
      </trkpt>
      <trkpt lat="50.45994" lon="1.65032">
        <ele>7.6</ele>
        <time>2020-06-18T18:39:29Z</time>
      </trkpt>
      <trkpt lat="50.46001" lon="1.65031">
        <ele>7.5</ele>
        <time>2020-06-18T18:39:30Z</time>
      </trkpt>
      <trkpt lat="50.46009" lon="1.65029">
        <ele>7.5</ele>
        <time>2020-06-18T18:39:31Z</time>
      </trkpt>
      <trkpt lat="50.46016" lon="1.65027">
        <ele>7.4</ele>
        <time>2020-06-18T18:39:32Z</time>
      </trkpt>
      <trkpt lat="50.46024" lon="1.65026">
        <ele>7.3</ele>
        <time>2020-06-18T18:39:33Z</time>
      </trkpt>
      <trkpt lat="50.46032" lon="1.65025">
        <ele>7.3</ele>
        <time>2020-06-18T18:39:34Z</time>
      </trkpt>
      <trkpt lat="50.4604" lon="1.65024">
        <ele>7.3</ele>
        <time>2020-06-18T18:39:35Z</time>
      </trkpt>
      <trkpt lat="50.46047" lon="1.65023">
        <ele>7.3</ele>
        <time>2020-06-18T18:39:36Z</time>
      </trkpt>
      <trkpt lat="50.46055" lon="1.65022">
        <ele>7.2</ele>
        <time>2020-06-18T18:39:37Z</time>
      </trkpt>
      <trkpt lat="50.46062" lon="1.65021">
        <ele>7.2</ele>
        <time>2020-06-18T18:39:38Z</time>
      </trkpt>
      <trkpt lat="50.4607" lon="1.6502">
        <ele>7.2</ele>
        <time>2020-06-18T18:39:39Z</time>
      </trkpt>
      <trkpt lat="50.46077" lon="1.65018">
        <ele>7.2</ele>
        <time>2020-06-18T18:39:40Z</time>
      </trkpt>
      <trkpt lat="50.46084" lon="1.65017">
        <ele>7.2</ele>
        <time>2020-06-18T18:39:41Z</time>
      </trkpt>
      <trkpt lat="50.46091" lon="1.65016">
        <ele>7.2</ele>
        <time>2020-06-18T18:39:42Z</time>
      </trkpt>
      <trkpt lat="50.46098" lon="1.65013">
        <ele>7.1</ele>
        <time>2020-06-18T18:39:43Z</time>
      </trkpt>
      <trkpt lat="50.46105" lon="1.65011">
        <ele>7.2</ele>
        <time>2020-06-18T18:39:44Z</time>
      </trkpt>
      <trkpt lat="50.46111" lon="1.65009">
        <ele>7.2</ele>
        <time>2020-06-18T18:39:45Z</time>
      </trkpt>
      <trkpt lat="50.46118" lon="1.65006">
        <ele>7.3</ele>
        <time>2020-06-18T18:39:46Z</time>
      </trkpt>
      <trkpt lat="50.46124" lon="1.65002">
        <ele>7.3</ele>
        <time>2020-06-18T18:39:47Z</time>
      </trkpt>
      <trkpt lat="50.4613" lon="1.64998">
        <ele>7.4</ele>
        <time>2020-06-18T18:39:48Z</time>
      </trkpt>
      <trkpt lat="50.46135" lon="1.64995">
        <ele>7.4</ele>
        <time>2020-06-18T18:39:49Z</time>
      </trkpt>
      <trkpt lat="50.46141" lon="1.64992">
        <ele>7.4</ele>
        <time>2020-06-18T18:39:50Z</time>
      </trkpt>
      <trkpt lat="50.46146" lon="1.64989">
        <ele>7.5</ele>
        <time>2020-06-18T18:39:51Z</time>
      </trkpt>
      <trkpt lat="50.46152" lon="1.64986">
        <ele>7.5</ele>
        <time>2020-06-18T18:39:52Z</time>
      </trkpt>
      <trkpt lat="50.46157" lon="1.64983">
        <ele>7.5</ele>
        <time>2020-06-18T18:39:53Z</time>
      </trkpt>
      <trkpt lat="50.46162" lon="1.64979">
        <ele>7.5</ele>
        <time>2020-06-18T18:39:54Z</time>
      </trkpt>
      <trkpt lat="50.46168" lon="1.64977">
        <ele>7.6</ele>
        <time>2020-06-18T18:39:55Z</time>
      </trkpt>
      <trkpt lat="50.46172" lon="1.64974">
        <ele>7.6</ele>
        <time>2020-06-18T18:39:56Z</time>
      </trkpt>
      <trkpt lat="50.46177" lon="1.64972">
        <ele>7.6</ele>
        <time>2020-06-18T18:39:57Z</time>
      </trkpt>
      <trkpt lat="50.46181" lon="1.64971">
        <ele>7.6</ele>
        <time>2020-06-18T18:39:58Z</time>
      </trkpt>
      <trkpt lat="50.46185" lon="1.6497">
        <ele>7.6</ele>
        <time>2020-06-18T18:39:59Z</time>
      </trkpt>
      <trkpt lat="50.46186" lon="1.64968">
        <ele>7.6</ele>
        <time>2020-06-18T18:40:00Z</time>
      </trkpt>
      <trkpt lat="50.46188" lon="1.64967">
        <ele>7.6</ele>
        <time>2020-06-18T18:40:01Z</time>
      </trkpt>
      <trkpt lat="50.46188" lon="1.64968">
        <ele>7.6</ele>
        <time>2020-06-18T18:40:02Z</time>
      </trkpt>
      <trkpt lat="50.46188" lon="1.64968">
        <ele>7.6</ele>
        <time>2020-06-18T18:40:03Z</time>
      </trkpt>
      <trkpt lat="50.46187" lon="1.64968">
        <ele>7.6</ele>
        <time>2020-06-18T18:40:04Z</time>
      </trkpt>
      <trkpt lat="50.46188" lon="1.64968">
        <ele>7.6</ele>
        <time>2020-06-18T18:40:05Z</time>
      </trkpt>
      <trkpt lat="50.46188" lon="1.64968">
        <ele>7.6</ele>
        <time>2020-06-18T18:40:06Z</time>
      </trkpt>
      <trkpt lat="50.46188" lon="1.64969">
        <ele>7.6</ele>
        <time>2020-06-18T18:40:07Z</time>
      </trkpt>
      <trkpt lat="50.46188" lon="1.64968">
        <ele>7.6</ele>
        <time>2020-06-18T18:40:08Z</time>
      </trkpt>
      <trkpt lat="50.46188" lon="1.64968">
        <ele>7.6</ele>
        <time>2020-06-18T18:40:09Z</time>
      </trkpt>
      <trkpt lat="50.46188" lon="1.64967">
        <ele>7.6</ele>
        <time>2020-06-18T18:40:10Z</time>
      </trkpt>
      <trkpt lat="50.46188" lon="1.64967">
        <ele>7.6</ele>
        <time>2020-06-18T18:40:11Z</time>
      </trkpt>
      <trkpt lat="50.46188" lon="1.64969">
        <ele>7.6</ele>
        <time>2020-06-18T18:40:12Z</time>
      </trkpt>
      <trkpt lat="50.4619" lon="1.6496">
        <ele>7.7</ele>
        <time>2020-06-18T18:43:38Z</time>
      </trkpt>
      <trkpt lat="50.46191" lon="1.64958">
        <ele>7.7</ele>
        <time>2020-06-18T18:43:39Z</time>
      </trkpt>
      <trkpt lat="50.46194" lon="1.64956">
        <ele>7.7</ele>
        <time>2020-06-18T18:43:40Z</time>
      </trkpt>
      <trkpt lat="50.46196" lon="1.64956">
        <ele>7.7</ele>
        <time>2020-06-18T18:43:41Z</time>
      </trkpt>
      <trkpt lat="50.46199" lon="1.64955">
        <ele>7.7</ele>
        <time>2020-06-18T18:43:42Z</time>
      </trkpt>
      <trkpt lat="50.46202" lon="1.64954">
        <ele>7.7</ele>
        <time>2020-06-18T18:43:43Z</time>
      </trkpt>
      <trkpt lat="50.46206" lon="1.64953">
        <ele>7.7</ele>
        <time>2020-06-18T18:43:44Z</time>
      </trkpt>
      <trkpt lat="50.4621" lon="1.6495">
        <ele>7.8</ele>
        <time>2020-06-18T18:43:45Z</time>
      </trkpt>
      <trkpt lat="50.46214" lon="1.64946">
        <ele>7.8</ele>
        <time>2020-06-18T18:43:46Z</time>
      </trkpt>
      <trkpt lat="50.46218" lon="1.64943">
        <ele>7.8</ele>
        <time>2020-06-18T18:43:47Z</time>
      </trkpt>
      <trkpt lat="50.46223" lon="1.6494">
        <ele>7.9</ele>
        <time>2020-06-18T18:43:48Z</time>
      </trkpt>
      <trkpt lat="50.46228" lon="1.64938">
        <ele>7.9</ele>
        <time>2020-06-18T18:43:49Z</time>
      </trkpt>
      <trkpt lat="50.46233" lon="1.64935">
        <ele>8</ele>
        <time>2020-06-18T18:43:50Z</time>
      </trkpt>
      <trkpt lat="50.46239" lon="1.64932">
        <ele>8.1</ele>
        <time>2020-06-18T18:43:51Z</time>
      </trkpt>
      <trkpt lat="50.46244" lon="1.64929">
        <ele>8.1</ele>
        <time>2020-06-18T18:43:52Z</time>
      </trkpt>
      <trkpt lat="50.4625" lon="1.64925">
        <ele>8.2</ele>
        <time>2020-06-18T18:43:53Z</time>
      </trkpt>
      <trkpt lat="50.46256" lon="1.6492">
        <ele>8.2</ele>
        <time>2020-06-18T18:43:54Z</time>
      </trkpt>
      <trkpt lat="50.46263" lon="1.64916">
        <ele>8.2</ele>
        <time>2020-06-18T18:43:55Z</time>
      </trkpt>
      <trkpt lat="50.46269" lon="1.64913">
        <ele>8.2</ele>
        <time>2020-06-18T18:43:56Z</time>
      </trkpt>
      <trkpt lat="50.46275" lon="1.64912">
        <ele>8.2</ele>
        <time>2020-06-18T18:43:57Z</time>
      </trkpt>
      <trkpt lat="50.46282" lon="1.6491">
        <ele>8.2</ele>
        <time>2020-06-18T18:43:58Z</time>
      </trkpt>
      <trkpt lat="50.46288" lon="1.64908">
        <ele>8.2</ele>
        <time>2020-06-18T18:43:59Z</time>
      </trkpt>
      <trkpt lat="50.46294" lon="1.64905">
        <ele>8.3</ele>
        <time>2020-06-18T18:44:00Z</time>
      </trkpt>
      <trkpt lat="50.46301" lon="1.64904">
        <ele>8.3</ele>
        <time>2020-06-18T18:44:01Z</time>
      </trkpt>
      <trkpt lat="50.46307" lon="1.64903">
        <ele>8.4</ele>
        <time>2020-06-18T18:44:02Z</time>
      </trkpt>
      <trkpt lat="50.46313" lon="1.64905">
        <ele>8.4</ele>
        <time>2020-06-18T18:44:03Z</time>
      </trkpt>
      <trkpt lat="50.4632" lon="1.64909">
        <ele>8.4</ele>
        <time>2020-06-18T18:44:04Z</time>
      </trkpt>
      <trkpt lat="50.46326" lon="1.64912">
        <ele>8.7</ele>
        <time>2020-06-18T18:44:05Z</time>
      </trkpt>
      <trkpt lat="50.46332" lon="1.64915">
        <ele>8.8</ele>
        <time>2020-06-18T18:44:06Z</time>
      </trkpt>
      <trkpt lat="50.46337" lon="1.64918">
        <ele>8.9</ele>
        <time>2020-06-18T18:44:07Z</time>
      </trkpt>
      <trkpt lat="50.46343" lon="1.64918">
        <ele>9</ele>
        <time>2020-06-18T18:44:08Z</time>
      </trkpt>
      <trkpt lat="50.46348" lon="1.64914">
        <ele>9.3</ele>
        <time>2020-06-18T18:44:09Z</time>
      </trkpt>
      <trkpt lat="50.46354" lon="1.64909">
        <ele>9.5</ele>
        <time>2020-06-18T18:44:10Z</time>
      </trkpt>
      <trkpt lat="50.46359" lon="1.64902">
        <ele>9.6</ele>
        <time>2020-06-18T18:44:11Z</time>
      </trkpt>
      <trkpt lat="50.46363" lon="1.64893">
        <ele>9.7</ele>
        <time>2020-06-18T18:44:12Z</time>
      </trkpt>
      <trkpt lat="50.46367" lon="1.64885">
        <ele>9.7</ele>
        <time>2020-06-18T18:44:13Z</time>
      </trkpt>
      <trkpt lat="50.46371" lon="1.64877">
        <ele>9.4</ele>
        <time>2020-06-18T18:44:14Z</time>
      </trkpt>
      <trkpt lat="50.46376" lon="1.64871">
        <ele>9.1</ele>
        <time>2020-06-18T18:44:15Z</time>
      </trkpt>
      <trkpt lat="50.46383" lon="1.64866">
        <ele>8.6</ele>
        <time>2020-06-18T18:44:16Z</time>
      </trkpt>
      <trkpt lat="50.46389" lon="1.64862">
        <ele>8.6</ele>
        <time>2020-06-18T18:44:17Z</time>
      </trkpt>
      <trkpt lat="50.46396" lon="1.64855">
        <ele>9.2</ele>
        <time>2020-06-18T18:44:18Z</time>
      </trkpt>
      <trkpt lat="50.46402" lon="1.6485">
        <ele>9.2</ele>
        <time>2020-06-18T18:44:19Z</time>
      </trkpt>
      <trkpt lat="50.46408" lon="1.64843">
        <ele>9.2</ele>
        <time>2020-06-18T18:44:20Z</time>
      </trkpt>
      <trkpt lat="50.46415" lon="1.64836">
        <ele>9.2</ele>
        <time>2020-06-18T18:44:21Z</time>
      </trkpt>
      <trkpt lat="50.46421" lon="1.6483">
        <ele>9.3</ele>
        <time>2020-06-18T18:44:22Z</time>
      </trkpt>
      <trkpt lat="50.46428" lon="1.64824">
        <ele>9.3</ele>
        <time>2020-06-18T18:44:23Z</time>
      </trkpt>
      <trkpt lat="50.46435" lon="1.64818">
        <ele>9.3</ele>
        <time>2020-06-18T18:44:24Z</time>
      </trkpt>
      <trkpt lat="50.46442" lon="1.64813">
        <ele>9.2</ele>
        <time>2020-06-18T18:44:25Z</time>
      </trkpt>
      <trkpt lat="50.46448" lon="1.6481">
        <ele>9.1</ele>
        <time>2020-06-18T18:44:26Z</time>
      </trkpt>
      <trkpt lat="50.46455" lon="1.64806">
        <ele>9.2</ele>
        <time>2020-06-18T18:44:27Z</time>
      </trkpt>
      <trkpt lat="50.46462" lon="1.64802">
        <ele>9.2</ele>
        <time>2020-06-18T18:44:28Z</time>
      </trkpt>
      <trkpt lat="50.46469" lon="1.64798">
        <ele>9.2</ele>
        <time>2020-06-18T18:44:29Z</time>
      </trkpt>
      <trkpt lat="50.46476" lon="1.64797">
        <ele>9.3</ele>
        <time>2020-06-18T18:44:30Z</time>
      </trkpt>
      <trkpt lat="50.46483" lon="1.64795">
        <ele>9.3</ele>
        <time>2020-06-18T18:44:31Z</time>
      </trkpt>
      <trkpt lat="50.46491" lon="1.64795">
        <ele>9.4</ele>
        <time>2020-06-18T18:44:32Z</time>
      </trkpt>
      <trkpt lat="50.46499" lon="1.64794">
        <ele>9.5</ele>
        <time>2020-06-18T18:44:33Z</time>
      </trkpt>
      <trkpt lat="50.46507" lon="1.64794">
        <ele>9.5</ele>
        <time>2020-06-18T18:44:34Z</time>
      </trkpt>
      <trkpt lat="50.46514" lon="1.64792">
        <ele>9.6</ele>
        <time>2020-06-18T18:44:35Z</time>
      </trkpt>
      <trkpt lat="50.46522" lon="1.64791">
        <ele>9.7</ele>
        <time>2020-06-18T18:44:36Z</time>
      </trkpt>
      <trkpt lat="50.46529" lon="1.64789">
        <ele>9.7</ele>
        <time>2020-06-18T18:44:37Z</time>
      </trkpt>
      <trkpt lat="50.46537" lon="1.64788">
        <ele>9.8</ele>
        <time>2020-06-18T18:44:38Z</time>
      </trkpt>
      <trkpt lat="50.46545" lon="1.64786">
        <ele>9.8</ele>
        <time>2020-06-18T18:44:39Z</time>
      </trkpt>
      <trkpt lat="50.46553" lon="1.64784">
        <ele>9.9</ele>
        <time>2020-06-18T18:44:40Z</time>
      </trkpt>
      <trkpt lat="50.4656" lon="1.64784">
        <ele>9.9</ele>
        <time>2020-06-18T18:44:41Z</time>
      </trkpt>
      <trkpt lat="50.46567" lon="1.64783">
        <ele>10</ele>
        <time>2020-06-18T18:44:42Z</time>
      </trkpt>
      <trkpt lat="50.46575" lon="1.64782">
        <ele>10</ele>
        <time>2020-06-18T18:44:43Z</time>
      </trkpt>
      <trkpt lat="50.46582" lon="1.64781">
        <ele>10.1</ele>
        <time>2020-06-18T18:44:44Z</time>
      </trkpt>
      <trkpt lat="50.4659" lon="1.6478">
        <ele>10.1</ele>
        <time>2020-06-18T18:44:45Z</time>
      </trkpt>
      <trkpt lat="50.46598" lon="1.6478">
        <ele>10.1</ele>
        <time>2020-06-18T18:44:46Z</time>
      </trkpt>
      <trkpt lat="50.46606" lon="1.64778">
        <ele>10.1</ele>
        <time>2020-06-18T18:44:47Z</time>
      </trkpt>
      <trkpt lat="50.46614" lon="1.64776">
        <ele>10.1</ele>
        <time>2020-06-18T18:44:48Z</time>
      </trkpt>
      <trkpt lat="50.46621" lon="1.64774">
        <ele>10.1</ele>
        <time>2020-06-18T18:44:49Z</time>
      </trkpt>
      <trkpt lat="50.46628" lon="1.64772">
        <ele>10.1</ele>
        <time>2020-06-18T18:44:50Z</time>
      </trkpt>
      <trkpt lat="50.46634" lon="1.64771">
        <ele>10.1</ele>
        <time>2020-06-18T18:44:51Z</time>
      </trkpt>
      <trkpt lat="50.46642" lon="1.64769">
        <ele>10</ele>
        <time>2020-06-18T18:44:52Z</time>
      </trkpt>
      <trkpt lat="50.4665" lon="1.64768">
        <ele>10</ele>
        <time>2020-06-18T18:44:53Z</time>
      </trkpt>
      <trkpt lat="50.46659" lon="1.64766">
        <ele>10</ele>
        <time>2020-06-18T18:44:54Z</time>
      </trkpt>
      <trkpt lat="50.46667" lon="1.64765">
        <ele>10</ele>
        <time>2020-06-18T18:44:55Z</time>
      </trkpt>
      <trkpt lat="50.46675" lon="1.64764">
        <ele>10</ele>
        <time>2020-06-18T18:44:56Z</time>
      </trkpt>
      <trkpt lat="50.46684" lon="1.64763">
        <ele>10</ele>
        <time>2020-06-18T18:44:57Z</time>
      </trkpt>
      <trkpt lat="50.46692" lon="1.64762">
        <ele>10</ele>
        <time>2020-06-18T18:44:58Z</time>
      </trkpt>
      <trkpt lat="50.46699" lon="1.64761">
        <ele>10</ele>
        <time>2020-06-18T18:44:59Z</time>
      </trkpt>
      <trkpt lat="50.46708" lon="1.64759">
        <ele>9.9</ele>
        <time>2020-06-18T18:45:00Z</time>
      </trkpt>
      <trkpt lat="50.46716" lon="1.64756">
        <ele>9.9</ele>
        <time>2020-06-18T18:45:01Z</time>
      </trkpt>
      <trkpt lat="50.46724" lon="1.64755">
        <ele>9.9</ele>
        <time>2020-06-18T18:45:02Z</time>
      </trkpt>
      <trkpt lat="50.46732" lon="1.64752">
        <ele>9.9</ele>
        <time>2020-06-18T18:45:03Z</time>
      </trkpt>
      <trkpt lat="50.46739" lon="1.6475">
        <ele>10</ele>
        <time>2020-06-18T18:45:04Z</time>
      </trkpt>
      <trkpt lat="50.46747" lon="1.64749">
        <ele>10.1</ele>
        <time>2020-06-18T18:45:05Z</time>
      </trkpt>
      <trkpt lat="50.46755" lon="1.64747">
        <ele>10</ele>
        <time>2020-06-18T18:45:06Z</time>
      </trkpt>
      <trkpt lat="50.46763" lon="1.64746">
        <ele>9.9</ele>
        <time>2020-06-18T18:45:07Z</time>
      </trkpt>
      <trkpt lat="50.46772" lon="1.64745">
        <ele>9.8</ele>
        <time>2020-06-18T18:45:08Z</time>
      </trkpt>
      <trkpt lat="50.46781" lon="1.64744">
        <ele>9.8</ele>
        <time>2020-06-18T18:45:09Z</time>
      </trkpt>
      <trkpt lat="50.46789" lon="1.64743">
        <ele>9.7</ele>
        <time>2020-06-18T18:45:10Z</time>
      </trkpt>
      <trkpt lat="50.46797" lon="1.64741">
        <ele>9.7</ele>
        <time>2020-06-18T18:45:11Z</time>
      </trkpt>
      <trkpt lat="50.46806" lon="1.6474">
        <ele>9.6</ele>
        <time>2020-06-18T18:45:12Z</time>
      </trkpt>
      <trkpt lat="50.46814" lon="1.64737">
        <ele>9.6</ele>
        <time>2020-06-18T18:45:13Z</time>
      </trkpt>
      <trkpt lat="50.46822" lon="1.64736">
        <ele>9.5</ele>
        <time>2020-06-18T18:45:14Z</time>
      </trkpt>
      <trkpt lat="50.46831" lon="1.64734">
        <ele>9.5</ele>
        <time>2020-06-18T18:45:15Z</time>
      </trkpt>
      <trkpt lat="50.4684" lon="1.64733">
        <ele>9.4</ele>
        <time>2020-06-18T18:45:16Z</time>
      </trkpt>
      <trkpt lat="50.46848" lon="1.64732">
        <ele>9.3</ele>
        <time>2020-06-18T18:45:17Z</time>
      </trkpt>
      <trkpt lat="50.46856" lon="1.6473">
        <ele>9.2</ele>
        <time>2020-06-18T18:45:18Z</time>
      </trkpt>
      <trkpt lat="50.46865" lon="1.64729">
        <ele>9.1</ele>
        <time>2020-06-18T18:45:19Z</time>
      </trkpt>
      <trkpt lat="50.46873" lon="1.64728">
        <ele>9</ele>
        <time>2020-06-18T18:45:20Z</time>
      </trkpt>
      <trkpt lat="50.46882" lon="1.64727">
        <ele>8.9</ele>
        <time>2020-06-18T18:45:21Z</time>
      </trkpt>
      <trkpt lat="50.4689" lon="1.64725">
        <ele>8.9</ele>
        <time>2020-06-18T18:45:22Z</time>
      </trkpt>
      <trkpt lat="50.46899" lon="1.64723">
        <ele>8.8</ele>
        <time>2020-06-18T18:45:23Z</time>
      </trkpt>
      <trkpt lat="50.46907" lon="1.64721">
        <ele>8.8</ele>
        <time>2020-06-18T18:45:24Z</time>
      </trkpt>
      <trkpt lat="50.46915" lon="1.64719">
        <ele>8.8</ele>
        <time>2020-06-18T18:45:25Z</time>
      </trkpt>
      <trkpt lat="50.46923" lon="1.64716">
        <ele>8.8</ele>
        <time>2020-06-18T18:45:26Z</time>
      </trkpt>
      <trkpt lat="50.46932" lon="1.64715">
        <ele>9</ele>
        <time>2020-06-18T18:45:27Z</time>
      </trkpt>
      <trkpt lat="50.4694" lon="1.64714">
        <ele>8.9</ele>
        <time>2020-06-18T18:45:28Z</time>
      </trkpt>
      <trkpt lat="50.46948" lon="1.64712">
        <ele>8.8</ele>
        <time>2020-06-18T18:45:29Z</time>
      </trkpt>
      <trkpt lat="50.46956" lon="1.6471">
        <ele>8.7</ele>
        <time>2020-06-18T18:45:30Z</time>
      </trkpt>
      <trkpt lat="50.46965" lon="1.6471">
        <ele>8.6</ele>
        <time>2020-06-18T18:45:31Z</time>
      </trkpt>
      <trkpt lat="50.46973" lon="1.64708">
        <ele>8.5</ele>
        <time>2020-06-18T18:45:32Z</time>
      </trkpt>
      <trkpt lat="50.46982" lon="1.64708">
        <ele>8.5</ele>
        <time>2020-06-18T18:45:33Z</time>
      </trkpt>
      <trkpt lat="50.4699" lon="1.64707">
        <ele>8.5</ele>
        <time>2020-06-18T18:45:34Z</time>
      </trkpt>
      <trkpt lat="50.46998" lon="1.64705">
        <ele>8.5</ele>
        <time>2020-06-18T18:45:35Z</time>
      </trkpt>
      <trkpt lat="50.47007" lon="1.64703">
        <ele>8.4</ele>
        <time>2020-06-18T18:45:36Z</time>
      </trkpt>
      <trkpt lat="50.47015" lon="1.64701">
        <ele>8.3</ele>
        <time>2020-06-18T18:45:37Z</time>
      </trkpt>
      <trkpt lat="50.47023" lon="1.647">
        <ele>8.3</ele>
        <time>2020-06-18T18:45:38Z</time>
      </trkpt>
      <trkpt lat="50.47031" lon="1.64699">
        <ele>8.2</ele>
        <time>2020-06-18T18:45:39Z</time>
      </trkpt>
      <trkpt lat="50.47039" lon="1.64697">
        <ele>8.2</ele>
        <time>2020-06-18T18:45:40Z</time>
      </trkpt>
      <trkpt lat="50.47048" lon="1.64697">
        <ele>8.1</ele>
        <time>2020-06-18T18:45:41Z</time>
      </trkpt>
      <trkpt lat="50.47056" lon="1.64695">
        <ele>8.1</ele>
        <time>2020-06-18T18:45:42Z</time>
      </trkpt>
      <trkpt lat="50.47064" lon="1.64694">
        <ele>8.1</ele>
        <time>2020-06-18T18:45:43Z</time>
      </trkpt>
      <trkpt lat="50.47073" lon="1.64693">
        <ele>8</ele>
        <time>2020-06-18T18:45:44Z</time>
      </trkpt>
      <trkpt lat="50.4708" lon="1.64691">
        <ele>7.9</ele>
        <time>2020-06-18T18:45:45Z</time>
      </trkpt>
      <trkpt lat="50.47089" lon="1.64689">
        <ele>7.8</ele>
        <time>2020-06-18T18:45:46Z</time>
      </trkpt>
      <trkpt lat="50.47098" lon="1.64687">
        <ele>7.8</ele>
        <time>2020-06-18T18:45:47Z</time>
      </trkpt>
      <trkpt lat="50.47107" lon="1.64685">
        <ele>7.8</ele>
        <time>2020-06-18T18:45:48Z</time>
      </trkpt>
      <trkpt lat="50.47115" lon="1.64684">
        <ele>7.7</ele>
        <time>2020-06-18T18:45:49Z</time>
      </trkpt>
      <trkpt lat="50.47123" lon="1.64682">
        <ele>7.7</ele>
        <time>2020-06-18T18:45:50Z</time>
      </trkpt>
      <trkpt lat="50.47131" lon="1.64681">
        <ele>7.7</ele>
        <time>2020-06-18T18:45:51Z</time>
      </trkpt>
      <trkpt lat="50.47138" lon="1.64679">
        <ele>7.6</ele>
        <time>2020-06-18T18:45:52Z</time>
      </trkpt>
      <trkpt lat="50.47146" lon="1.64679">
        <ele>7.6</ele>
        <time>2020-06-18T18:45:53Z</time>
      </trkpt>
      <trkpt lat="50.47152" lon="1.64676">
        <ele>7.6</ele>
        <time>2020-06-18T18:45:54Z</time>
      </trkpt>
      <trkpt lat="50.47159" lon="1.64675">
        <ele>7.5</ele>
        <time>2020-06-18T18:45:55Z</time>
      </trkpt>
      <trkpt lat="50.47166" lon="1.64674">
        <ele>7.5</ele>
        <time>2020-06-18T18:45:56Z</time>
      </trkpt>
      <trkpt lat="50.47173" lon="1.64673">
        <ele>7.5</ele>
        <time>2020-06-18T18:45:57Z</time>
      </trkpt>
      <trkpt lat="50.4718" lon="1.64672">
        <ele>7.5</ele>
        <time>2020-06-18T18:45:58Z</time>
      </trkpt>
      <trkpt lat="50.47187" lon="1.6467">
        <ele>7.5</ele>
        <time>2020-06-18T18:45:59Z</time>
      </trkpt>
      <trkpt lat="50.47194" lon="1.64668">
        <ele>7.5</ele>
        <time>2020-06-18T18:46:00Z</time>
      </trkpt>
      <trkpt lat="50.47201" lon="1.64668">
        <ele>7.4</ele>
        <time>2020-06-18T18:46:01Z</time>
      </trkpt>
      <trkpt lat="50.47208" lon="1.64667">
        <ele>7.4</ele>
        <time>2020-06-18T18:46:02Z</time>
      </trkpt>
      <trkpt lat="50.47215" lon="1.64665">
        <ele>7.4</ele>
        <time>2020-06-18T18:46:03Z</time>
      </trkpt>
      <trkpt lat="50.47222" lon="1.64664">
        <ele>7.3</ele>
        <time>2020-06-18T18:46:04Z</time>
      </trkpt>
      <trkpt lat="50.47229" lon="1.64662">
        <ele>7.3</ele>
        <time>2020-06-18T18:46:05Z</time>
      </trkpt>
      <trkpt lat="50.47236" lon="1.64661">
        <ele>7.3</ele>
        <time>2020-06-18T18:46:06Z</time>
      </trkpt>
      <trkpt lat="50.47243" lon="1.6466">
        <ele>7.3</ele>
        <time>2020-06-18T18:46:07Z</time>
      </trkpt>
      <trkpt lat="50.4725" lon="1.64659">
        <ele>7.3</ele>
        <time>2020-06-18T18:46:08Z</time>
      </trkpt>
      <trkpt lat="50.47257" lon="1.64658">
        <ele>7.3</ele>
        <time>2020-06-18T18:46:09Z</time>
      </trkpt>
      <trkpt lat="50.47264" lon="1.64657">
        <ele>7.3</ele>
        <time>2020-06-18T18:46:10Z</time>
      </trkpt>
      <trkpt lat="50.47271" lon="1.64655">
        <ele>7.4</ele>
        <time>2020-06-18T18:46:11Z</time>
      </trkpt>
      <trkpt lat="50.47278" lon="1.64653">
        <ele>7.4</ele>
        <time>2020-06-18T18:46:12Z</time>
      </trkpt>
      <trkpt lat="50.47285" lon="1.64651">
        <ele>7.4</ele>
        <time>2020-06-18T18:46:13Z</time>
      </trkpt>
      <trkpt lat="50.47292" lon="1.6465">
        <ele>7.5</ele>
        <time>2020-06-18T18:46:14Z</time>
      </trkpt>
      <trkpt lat="50.47299" lon="1.64649">
        <ele>7.5</ele>
        <time>2020-06-18T18:46:15Z</time>
      </trkpt>
      <trkpt lat="50.47306" lon="1.64648">
        <ele>7.5</ele>
        <time>2020-06-18T18:46:16Z</time>
      </trkpt>
      <trkpt lat="50.47313" lon="1.64647">
        <ele>7.6</ele>
        <time>2020-06-18T18:46:17Z</time>
      </trkpt>
      <trkpt lat="50.4732" lon="1.64645">
        <ele>7.6</ele>
        <time>2020-06-18T18:46:18Z</time>
      </trkpt>
      <trkpt lat="50.47328" lon="1.64644">
        <ele>7.6</ele>
        <time>2020-06-18T18:46:19Z</time>
      </trkpt>
      <trkpt lat="50.47335" lon="1.64644">
        <ele>7.7</ele>
        <time>2020-06-18T18:46:20Z</time>
      </trkpt>
      <trkpt lat="50.47342" lon="1.64644">
        <ele>7.7</ele>
        <time>2020-06-18T18:46:21Z</time>
      </trkpt>
      <trkpt lat="50.4735" lon="1.64644">
        <ele>7.8</ele>
        <time>2020-06-18T18:46:22Z</time>
      </trkpt>
      <trkpt lat="50.47357" lon="1.64644">
        <ele>7.8</ele>
        <time>2020-06-18T18:46:23Z</time>
      </trkpt>
      <trkpt lat="50.47365" lon="1.64645">
        <ele>7.9</ele>
        <time>2020-06-18T18:46:24Z</time>
      </trkpt>
      <trkpt lat="50.47372" lon="1.64647">
        <ele>7.9</ele>
        <time>2020-06-18T18:46:25Z</time>
      </trkpt>
      <trkpt lat="50.47379" lon="1.6465">
        <ele>7.9</ele>
        <time>2020-06-18T18:46:26Z</time>
      </trkpt>
      <trkpt lat="50.47386" lon="1.64654">
        <ele>7.9</ele>
        <time>2020-06-18T18:46:27Z</time>
      </trkpt>
      <trkpt lat="50.47393" lon="1.64657">
        <ele>7.9</ele>
        <time>2020-06-18T18:46:28Z</time>
      </trkpt>
      <trkpt lat="50.47401" lon="1.6466">
        <ele>8</ele>
        <time>2020-06-18T18:46:29Z</time>
      </trkpt>
      <trkpt lat="50.47408" lon="1.64664">
        <ele>7.9</ele>
        <time>2020-06-18T18:46:30Z</time>
      </trkpt>
      <trkpt lat="50.47415" lon="1.64668">
        <ele>7.9</ele>
        <time>2020-06-18T18:46:31Z</time>
      </trkpt>
      <trkpt lat="50.47423" lon="1.64672">
        <ele>7.8</ele>
        <time>2020-06-18T18:46:32Z</time>
      </trkpt>
      <trkpt lat="50.4743" lon="1.64676">
        <ele>7.8</ele>
        <time>2020-06-18T18:46:33Z</time>
      </trkpt>
      <trkpt lat="50.47438" lon="1.6468">
        <ele>7.9</ele>
        <time>2020-06-18T18:46:34Z</time>
      </trkpt>
      <trkpt lat="50.47445" lon="1.64684">
        <ele>7.9</ele>
        <time>2020-06-18T18:46:35Z</time>
      </trkpt>
      <trkpt lat="50.47452" lon="1.64688">
        <ele>7.9</ele>
        <time>2020-06-18T18:46:36Z</time>
      </trkpt>
      <trkpt lat="50.47459" lon="1.64693">
        <ele>7.8</ele>
        <time>2020-06-18T18:46:37Z</time>
      </trkpt>
      <trkpt lat="50.47467" lon="1.64697">
        <ele>7.8</ele>
        <time>2020-06-18T18:46:38Z</time>
      </trkpt>
      <trkpt lat="50.47474" lon="1.64701">
        <ele>7.8</ele>
        <time>2020-06-18T18:46:39Z</time>
      </trkpt>
      <trkpt lat="50.47481" lon="1.64704">
        <ele>7.8</ele>
        <time>2020-06-18T18:46:40Z</time>
      </trkpt>
      <trkpt lat="50.47489" lon="1.64707">
        <ele>7.8</ele>
        <time>2020-06-18T18:46:41Z</time>
      </trkpt>
      <trkpt lat="50.47497" lon="1.64709">
        <ele>7.8</ele>
        <time>2020-06-18T18:46:42Z</time>
      </trkpt>
      <trkpt lat="50.47504" lon="1.64711">
        <ele>7.8</ele>
        <time>2020-06-18T18:46:43Z</time>
      </trkpt>
      <trkpt lat="50.47512" lon="1.64714">
        <ele>7.7</ele>
        <time>2020-06-18T18:46:44Z</time>
      </trkpt>
      <trkpt lat="50.4752" lon="1.64716">
        <ele>7.7</ele>
        <time>2020-06-18T18:46:45Z</time>
      </trkpt>
      <trkpt lat="50.47527" lon="1.64718">
        <ele>7.7</ele>
        <time>2020-06-18T18:46:46Z</time>
      </trkpt>
      <trkpt lat="50.47535" lon="1.6472">
        <ele>7.7</ele>
        <time>2020-06-18T18:46:47Z</time>
      </trkpt>
      <trkpt lat="50.47543" lon="1.64723">
        <ele>7.7</ele>
        <time>2020-06-18T18:46:48Z</time>
      </trkpt>
      <trkpt lat="50.47551" lon="1.64724">
        <ele>7.7</ele>
        <time>2020-06-18T18:46:49Z</time>
      </trkpt>
      <trkpt lat="50.47559" lon="1.64726">
        <ele>7.8</ele>
        <time>2020-06-18T18:46:50Z</time>
      </trkpt>
      <trkpt lat="50.47567" lon="1.64728">
        <ele>7.8</ele>
        <time>2020-06-18T18:46:51Z</time>
      </trkpt>
      <trkpt lat="50.47575" lon="1.64728">
        <ele>7.8</ele>
        <time>2020-06-18T18:46:52Z</time>
      </trkpt>
      <trkpt lat="50.47582" lon="1.64731">
        <ele>7.9</ele>
        <time>2020-06-18T18:46:53Z</time>
      </trkpt>
      <trkpt lat="50.4759" lon="1.64734">
        <ele>7.9</ele>
        <time>2020-06-18T18:46:54Z</time>
      </trkpt>
      <trkpt lat="50.47598" lon="1.64738">
        <ele>7.9</ele>
        <time>2020-06-18T18:46:55Z</time>
      </trkpt>
      <trkpt lat="50.47605" lon="1.64742">
        <ele>7.9</ele>
        <time>2020-06-18T18:46:56Z</time>
      </trkpt>
      <trkpt lat="50.47612" lon="1.64746">
        <ele>7.9</ele>
        <time>2020-06-18T18:46:57Z</time>
      </trkpt>
      <trkpt lat="50.47619" lon="1.64751">
        <ele>7.9</ele>
        <time>2020-06-18T18:46:58Z</time>
      </trkpt>
      <trkpt lat="50.47625" lon="1.64756">
        <ele>7.9</ele>
        <time>2020-06-18T18:46:59Z</time>
      </trkpt>
      <trkpt lat="50.47632" lon="1.64762">
        <ele>8</ele>
        <time>2020-06-18T18:47:00Z</time>
      </trkpt>
      <trkpt lat="50.47638" lon="1.64767">
        <ele>8</ele>
        <time>2020-06-18T18:47:01Z</time>
      </trkpt>
      <trkpt lat="50.47645" lon="1.64772">
        <ele>8</ele>
        <time>2020-06-18T18:47:02Z</time>
      </trkpt>
      <trkpt lat="50.47652" lon="1.64778">
        <ele>8.1</ele>
        <time>2020-06-18T18:47:03Z</time>
      </trkpt>
      <trkpt lat="50.47658" lon="1.64783">
        <ele>8.1</ele>
        <time>2020-06-18T18:47:04Z</time>
      </trkpt>
      <trkpt lat="50.47664" lon="1.64789">
        <ele>8.1</ele>
        <time>2020-06-18T18:47:05Z</time>
      </trkpt>
      <trkpt lat="50.47671" lon="1.64795">
        <ele>8.2</ele>
        <time>2020-06-18T18:47:06Z</time>
      </trkpt>
      <trkpt lat="50.47677" lon="1.648">
        <ele>8.3</ele>
        <time>2020-06-18T18:47:07Z</time>
      </trkpt>
      <trkpt lat="50.47684" lon="1.64805">
        <ele>8.3</ele>
        <time>2020-06-18T18:47:08Z</time>
      </trkpt>
      <trkpt lat="50.47691" lon="1.64811">
        <ele>8.3</ele>
        <time>2020-06-18T18:47:09Z</time>
      </trkpt>
      <trkpt lat="50.47697" lon="1.64816">
        <ele>8.4</ele>
        <time>2020-06-18T18:47:10Z</time>
      </trkpt>
      <trkpt lat="50.47704" lon="1.64822">
        <ele>8.4</ele>
        <time>2020-06-18T18:47:11Z</time>
      </trkpt>
      <trkpt lat="50.4771" lon="1.64827">
        <ele>8.4</ele>
        <time>2020-06-18T18:47:12Z</time>
      </trkpt>
      <trkpt lat="50.47717" lon="1.64832">
        <ele>8.5</ele>
        <time>2020-06-18T18:47:13Z</time>
      </trkpt>
      <trkpt lat="50.47723" lon="1.64839">
        <ele>8.5</ele>
        <time>2020-06-18T18:47:14Z</time>
      </trkpt>
      <trkpt lat="50.47729" lon="1.64845">
        <ele>8.5</ele>
        <time>2020-06-18T18:47:15Z</time>
      </trkpt>
      <trkpt lat="50.47736" lon="1.6485">
        <ele>8.5</ele>
        <time>2020-06-18T18:47:16Z</time>
      </trkpt>
      <trkpt lat="50.47742" lon="1.64856">
        <ele>8.6</ele>
        <time>2020-06-18T18:47:17Z</time>
      </trkpt>
      <trkpt lat="50.47748" lon="1.6486">
        <ele>8.6</ele>
        <time>2020-06-18T18:47:18Z</time>
      </trkpt>
      <trkpt lat="50.47755" lon="1.64866">
        <ele>8.6</ele>
        <time>2020-06-18T18:47:19Z</time>
      </trkpt>
      <trkpt lat="50.47761" lon="1.64872">
        <ele>8.6</ele>
        <time>2020-06-18T18:47:20Z</time>
      </trkpt>
      <trkpt lat="50.47768" lon="1.64877">
        <ele>8.7</ele>
        <time>2020-06-18T18:47:21Z</time>
      </trkpt>
      <trkpt lat="50.47774" lon="1.64882">
        <ele>8.7</ele>
        <time>2020-06-18T18:47:22Z</time>
      </trkpt>
      <trkpt lat="50.47781" lon="1.64886">
        <ele>8.7</ele>
        <time>2020-06-18T18:47:23Z</time>
      </trkpt>
      <trkpt lat="50.47788" lon="1.64891">
        <ele>8.7</ele>
        <time>2020-06-18T18:47:24Z</time>
      </trkpt>
      <trkpt lat="50.47794" lon="1.64896">
        <ele>8.6</ele>
        <time>2020-06-18T18:47:25Z</time>
      </trkpt>
      <trkpt lat="50.47802" lon="1.649">
        <ele>8.5</ele>
        <time>2020-06-18T18:47:26Z</time>
      </trkpt>
      <trkpt lat="50.47809" lon="1.64905">
        <ele>8.5</ele>
        <time>2020-06-18T18:47:27Z</time>
      </trkpt>
      <trkpt lat="50.47816" lon="1.64909">
        <ele>8.4</ele>
        <time>2020-06-18T18:47:28Z</time>
      </trkpt>
      <trkpt lat="50.47823" lon="1.64913">
        <ele>8.3</ele>
        <time>2020-06-18T18:47:29Z</time>
      </trkpt>
      <trkpt lat="50.47831" lon="1.64916">
        <ele>8.2</ele>
        <time>2020-06-18T18:47:30Z</time>
      </trkpt>
      <trkpt lat="50.47838" lon="1.64919">
        <ele>8.1</ele>
        <time>2020-06-18T18:47:31Z</time>
      </trkpt>
      <trkpt lat="50.47846" lon="1.64921">
        <ele>8.1</ele>
        <time>2020-06-18T18:47:32Z</time>
      </trkpt>
      <trkpt lat="50.47854" lon="1.64923">
        <ele>8</ele>
        <time>2020-06-18T18:47:33Z</time>
      </trkpt>
      <trkpt lat="50.47862" lon="1.64925">
        <ele>7.9</ele>
        <time>2020-06-18T18:47:34Z</time>
      </trkpt>
      <trkpt lat="50.4787" lon="1.64928">
        <ele>7.8</ele>
        <time>2020-06-18T18:47:35Z</time>
      </trkpt>
      <trkpt lat="50.47879" lon="1.6493">
        <ele>7.7</ele>
        <time>2020-06-18T18:47:36Z</time>
      </trkpt>
      <trkpt lat="50.47887" lon="1.64931">
        <ele>7.6</ele>
        <time>2020-06-18T18:47:37Z</time>
      </trkpt>
      <trkpt lat="50.47895" lon="1.64933">
        <ele>7.6</ele>
        <time>2020-06-18T18:47:38Z</time>
      </trkpt>
      <trkpt lat="50.47903" lon="1.64936">
        <ele>7.5</ele>
        <time>2020-06-18T18:47:39Z</time>
      </trkpt>
      <trkpt lat="50.47912" lon="1.64936">
        <ele>7.5</ele>
        <time>2020-06-18T18:47:40Z</time>
      </trkpt>
      <trkpt lat="50.4792" lon="1.64937">
        <ele>7.5</ele>
        <time>2020-06-18T18:47:41Z</time>
      </trkpt>
      <trkpt lat="50.47929" lon="1.64938">
        <ele>7.5</ele>
        <time>2020-06-18T18:47:42Z</time>
      </trkpt>
      <trkpt lat="50.47937" lon="1.64938">
        <ele>7.5</ele>
        <time>2020-06-18T18:47:43Z</time>
      </trkpt>
      <trkpt lat="50.47945" lon="1.64937">
        <ele>7.5</ele>
        <time>2020-06-18T18:47:44Z</time>
      </trkpt>
      <trkpt lat="50.47953" lon="1.64938">
        <ele>7.5</ele>
        <time>2020-06-18T18:47:45Z</time>
      </trkpt>
      <trkpt lat="50.47962" lon="1.64937">
        <ele>7.5</ele>
        <time>2020-06-18T18:47:46Z</time>
      </trkpt>
      <trkpt lat="50.4797" lon="1.64936">
        <ele>7.5</ele>
        <time>2020-06-18T18:47:47Z</time>
      </trkpt>
      <trkpt lat="50.47978" lon="1.64935">
        <ele>7.6</ele>
        <time>2020-06-18T18:47:48Z</time>
      </trkpt>
      <trkpt lat="50.47986" lon="1.64935">
        <ele>7.8</ele>
        <time>2020-06-18T18:47:49Z</time>
      </trkpt>
      <trkpt lat="50.47995" lon="1.64934">
        <ele>8</ele>
        <time>2020-06-18T18:47:50Z</time>
      </trkpt>
      <trkpt lat="50.48003" lon="1.64934">
        <ele>7.8</ele>
        <time>2020-06-18T18:47:51Z</time>
      </trkpt>
      <trkpt lat="50.48011" lon="1.6493">
        <ele>7.7</ele>
        <time>2020-06-18T18:47:52Z</time>
      </trkpt>
      <trkpt lat="50.4802" lon="1.64928">
        <ele>7.7</ele>
        <time>2020-06-18T18:47:53Z</time>
      </trkpt>
      <trkpt lat="50.48028" lon="1.64925">
        <ele>7.6</ele>
        <time>2020-06-18T18:47:54Z</time>
      </trkpt>
      <trkpt lat="50.48036" lon="1.6492">
        <ele>7.5</ele>
        <time>2020-06-18T18:47:55Z</time>
      </trkpt>
      <trkpt lat="50.48045" lon="1.64915">
        <ele>7.5</ele>
        <time>2020-06-18T18:47:56Z</time>
      </trkpt>
      <trkpt lat="50.48053" lon="1.6491">
        <ele>7.4</ele>
        <time>2020-06-18T18:47:57Z</time>
      </trkpt>
      <trkpt lat="50.48062" lon="1.64906">
        <ele>7.3</ele>
        <time>2020-06-18T18:47:58Z</time>
      </trkpt>
      <trkpt lat="50.4807" lon="1.64901">
        <ele>7.3</ele>
        <time>2020-06-18T18:47:59Z</time>
      </trkpt>
      <trkpt lat="50.48079" lon="1.64898">
        <ele>7.2</ele>
        <time>2020-06-18T18:48:00Z</time>
      </trkpt>
      <trkpt lat="50.48087" lon="1.64895">
        <ele>7.2</ele>
        <time>2020-06-18T18:48:01Z</time>
      </trkpt>
      <trkpt lat="50.48096" lon="1.64893">
        <ele>7.2</ele>
        <time>2020-06-18T18:48:02Z</time>
      </trkpt>
      <trkpt lat="50.48105" lon="1.64891">
        <ele>7.2</ele>
        <time>2020-06-18T18:48:03Z</time>
      </trkpt>
      <trkpt lat="50.48114" lon="1.6489">
        <ele>7.2</ele>
        <time>2020-06-18T18:48:04Z</time>
      </trkpt>
      <trkpt lat="50.48123" lon="1.64889">
        <ele>7.1</ele>
        <time>2020-06-18T18:48:05Z</time>
      </trkpt>
      <trkpt lat="50.48132" lon="1.64889">
        <ele>7.1</ele>
        <time>2020-06-18T18:48:06Z</time>
      </trkpt>
      <trkpt lat="50.48141" lon="1.64888">
        <ele>7.1</ele>
        <time>2020-06-18T18:48:07Z</time>
      </trkpt>
      <trkpt lat="50.48151" lon="1.64888">
        <ele>7.1</ele>
        <time>2020-06-18T18:48:08Z</time>
      </trkpt>
      <trkpt lat="50.4816" lon="1.64887">
        <ele>7</ele>
        <time>2020-06-18T18:48:09Z</time>
      </trkpt>
      <trkpt lat="50.48169" lon="1.64888">
        <ele>7</ele>
        <time>2020-06-18T18:48:10Z</time>
      </trkpt>
      <trkpt lat="50.48179" lon="1.64888">
        <ele>6.9</ele>
        <time>2020-06-18T18:48:11Z</time>
      </trkpt>
      <trkpt lat="50.48188" lon="1.64887">
        <ele>6.9</ele>
        <time>2020-06-18T18:48:12Z</time>
      </trkpt>
      <trkpt lat="50.48197" lon="1.64887">
        <ele>6.9</ele>
        <time>2020-06-18T18:48:13Z</time>
      </trkpt>
      <trkpt lat="50.48207" lon="1.64886">
        <ele>6.9</ele>
        <time>2020-06-18T18:48:14Z</time>
      </trkpt>
      <trkpt lat="50.48216" lon="1.64885">
        <ele>6.9</ele>
        <time>2020-06-18T18:48:15Z</time>
      </trkpt>
      <trkpt lat="50.48225" lon="1.64883">
        <ele>7</ele>
        <time>2020-06-18T18:48:16Z</time>
      </trkpt>
      <trkpt lat="50.48235" lon="1.6488">
        <ele>7</ele>
        <time>2020-06-18T18:48:17Z</time>
      </trkpt>
      <trkpt lat="50.48244" lon="1.64875">
        <ele>7</ele>
        <time>2020-06-18T18:48:18Z</time>
      </trkpt>
      <trkpt lat="50.48253" lon="1.64871">
        <ele>7</ele>
        <time>2020-06-18T18:48:19Z</time>
      </trkpt>
      <trkpt lat="50.48263" lon="1.6487">
        <ele>7</ele>
        <time>2020-06-18T18:48:20Z</time>
      </trkpt>
      <trkpt lat="50.48272" lon="1.64866">
        <ele>7</ele>
        <time>2020-06-18T18:48:21Z</time>
      </trkpt>
      <trkpt lat="50.48282" lon="1.64862">
        <ele>6.9</ele>
        <time>2020-06-18T18:48:22Z</time>
      </trkpt>
      <trkpt lat="50.48291" lon="1.64857">
        <ele>6.9</ele>
        <time>2020-06-18T18:48:23Z</time>
      </trkpt>
      <trkpt lat="50.483" lon="1.64854">
        <ele>6.8</ele>
        <time>2020-06-18T18:48:24Z</time>
      </trkpt>
      <trkpt lat="50.4831" lon="1.64849">
        <ele>6.8</ele>
        <time>2020-06-18T18:48:25Z</time>
      </trkpt>
      <trkpt lat="50.48319" lon="1.64846">
        <ele>6.9</ele>
        <time>2020-06-18T18:48:26Z</time>
      </trkpt>
      <trkpt lat="50.48329" lon="1.64842">
        <ele>6.9</ele>
        <time>2020-06-18T18:48:27Z</time>
      </trkpt>
      <trkpt lat="50.48338" lon="1.64837">
        <ele>6.9</ele>
        <time>2020-06-18T18:48:28Z</time>
      </trkpt>
      <trkpt lat="50.48347" lon="1.64831">
        <ele>6.9</ele>
        <time>2020-06-18T18:48:29Z</time>
      </trkpt>
      <trkpt lat="50.48355" lon="1.64826">
        <ele>7</ele>
        <time>2020-06-18T18:48:30Z</time>
      </trkpt>
      <trkpt lat="50.48364" lon="1.64822">
        <ele>7.1</ele>
        <time>2020-06-18T18:48:31Z</time>
      </trkpt>
      <trkpt lat="50.48372" lon="1.64817">
        <ele>7.3</ele>
        <time>2020-06-18T18:48:32Z</time>
      </trkpt>
      <trkpt lat="50.4838" lon="1.64812">
        <ele>7.5</ele>
        <time>2020-06-18T18:48:33Z</time>
      </trkpt>
      <trkpt lat="50.48387" lon="1.64807">
        <ele>7.5</ele>
        <time>2020-06-18T18:48:34Z</time>
      </trkpt>
      <trkpt lat="50.48395" lon="1.64802">
        <ele>7.4</ele>
        <time>2020-06-18T18:48:35Z</time>
      </trkpt>
      <trkpt lat="50.48402" lon="1.64797">
        <ele>7.4</ele>
        <time>2020-06-18T18:48:36Z</time>
      </trkpt>
      <trkpt lat="50.48409" lon="1.64792">
        <ele>7.3</ele>
        <time>2020-06-18T18:48:37Z</time>
      </trkpt>
      <trkpt lat="50.48416" lon="1.64788">
        <ele>7.3</ele>
        <time>2020-06-18T18:48:38Z</time>
      </trkpt>
      <trkpt lat="50.48422" lon="1.64783">
        <ele>7.2</ele>
        <time>2020-06-18T18:48:39Z</time>
      </trkpt>
      <trkpt lat="50.48429" lon="1.64778">
        <ele>7.2</ele>
        <time>2020-06-18T18:48:40Z</time>
      </trkpt>
      <trkpt lat="50.48435" lon="1.64775">
        <ele>7.2</ele>
        <time>2020-06-18T18:48:41Z</time>
      </trkpt>
      <trkpt lat="50.48441" lon="1.6477">
        <ele>7.1</ele>
        <time>2020-06-18T18:48:42Z</time>
      </trkpt>
      <trkpt lat="50.48447" lon="1.64765">
        <ele>7.1</ele>
        <time>2020-06-18T18:48:43Z</time>
      </trkpt>
      <trkpt lat="50.48453" lon="1.64761">
        <ele>7.1</ele>
        <time>2020-06-18T18:48:44Z</time>
      </trkpt>
      <trkpt lat="50.48458" lon="1.64756">
        <ele>7.1</ele>
        <time>2020-06-18T18:48:45Z</time>
      </trkpt>
      <trkpt lat="50.48463" lon="1.64751">
        <ele>7.1</ele>
        <time>2020-06-18T18:48:46Z</time>
      </trkpt>
      <trkpt lat="50.48468" lon="1.64744">
        <ele>7.1</ele>
        <time>2020-06-18T18:48:47Z</time>
      </trkpt>
      <trkpt lat="50.48472" lon="1.64737">
        <ele>7</ele>
        <time>2020-06-18T18:48:48Z</time>
      </trkpt>
      <trkpt lat="50.48474" lon="1.64729">
        <ele>6.9</ele>
        <time>2020-06-18T18:48:49Z</time>
      </trkpt>
      <trkpt lat="50.48476" lon="1.64719">
        <ele>6.8</ele>
        <time>2020-06-18T18:48:50Z</time>
      </trkpt>
      <trkpt lat="50.48476" lon="1.6471">
        <ele>6.7</ele>
        <time>2020-06-18T18:48:51Z</time>
      </trkpt>
      <trkpt lat="50.48477" lon="1.64701">
        <ele>6.5</ele>
        <time>2020-06-18T18:48:52Z</time>
      </trkpt>
      <trkpt lat="50.48478" lon="1.64691">
        <ele>6.4</ele>
        <time>2020-06-18T18:48:53Z</time>
      </trkpt>
      <trkpt lat="50.4848" lon="1.64681">
        <ele>6.3</ele>
        <time>2020-06-18T18:48:54Z</time>
      </trkpt>
      <trkpt lat="50.48481" lon="1.64671">
        <ele>6.2</ele>
        <time>2020-06-18T18:48:55Z</time>
      </trkpt>
      <trkpt lat="50.48482" lon="1.64661">
        <ele>6.1</ele>
        <time>2020-06-18T18:48:56Z</time>
      </trkpt>
      <trkpt lat="50.48484" lon="1.6465">
        <ele>6</ele>
        <time>2020-06-18T18:48:57Z</time>
      </trkpt>
      <trkpt lat="50.48486" lon="1.6464">
        <ele>5.8</ele>
        <time>2020-06-18T18:48:58Z</time>
      </trkpt>
      <trkpt lat="50.48487" lon="1.6463">
        <ele>5.8</ele>
        <time>2020-06-18T18:48:59Z</time>
      </trkpt>
      <trkpt lat="50.48488" lon="1.6462">
        <ele>5.7</ele>
        <time>2020-06-18T18:49:00Z</time>
      </trkpt>
      <trkpt lat="50.48488" lon="1.64609">
        <ele>5.7</ele>
        <time>2020-06-18T18:49:01Z</time>
      </trkpt>
      <trkpt lat="50.48487" lon="1.64599">
        <ele>5.6</ele>
        <time>2020-06-18T18:49:02Z</time>
      </trkpt>
      <trkpt lat="50.48486" lon="1.64589">
        <ele>5.6</ele>
        <time>2020-06-18T18:49:03Z</time>
      </trkpt>
      <trkpt lat="50.48485" lon="1.64579">
        <ele>5.7</ele>
        <time>2020-06-18T18:49:04Z</time>
      </trkpt>
      <trkpt lat="50.48483" lon="1.64569">
        <ele>5.7</ele>
        <time>2020-06-18T18:49:05Z</time>
      </trkpt>
      <trkpt lat="50.4848" lon="1.6456">
        <ele>5.8</ele>
        <time>2020-06-18T18:49:06Z</time>
      </trkpt>
      <trkpt lat="50.48478" lon="1.6455">
        <ele>5.9</ele>
        <time>2020-06-18T18:49:07Z</time>
      </trkpt>
      <trkpt lat="50.48477" lon="1.6454">
        <ele>6</ele>
        <time>2020-06-18T18:49:08Z</time>
      </trkpt>
      <trkpt lat="50.48478" lon="1.64529">
        <ele>6.2</ele>
        <time>2020-06-18T18:49:09Z</time>
      </trkpt>
      <trkpt lat="50.4848" lon="1.64519">
        <ele>6.2</ele>
        <time>2020-06-18T18:49:10Z</time>
      </trkpt>
      <trkpt lat="50.48482" lon="1.64508">
        <ele>5.9</ele>
        <time>2020-06-18T18:49:11Z</time>
      </trkpt>
      <trkpt lat="50.48485" lon="1.64498">
        <ele>5.8</ele>
        <time>2020-06-18T18:49:12Z</time>
      </trkpt>
      <trkpt lat="50.48488" lon="1.64488">
        <ele>5.6</ele>
        <time>2020-06-18T18:49:13Z</time>
      </trkpt>
      <trkpt lat="50.48491" lon="1.64477">
        <ele>5.4</ele>
        <time>2020-06-18T18:49:14Z</time>
      </trkpt>
      <trkpt lat="50.48494" lon="1.64467">
        <ele>5.3</ele>
        <time>2020-06-18T18:49:15Z</time>
      </trkpt>
      <trkpt lat="50.48498" lon="1.64456">
        <ele>5.2</ele>
        <time>2020-06-18T18:49:16Z</time>
      </trkpt>
      <trkpt lat="50.485" lon="1.64445">
        <ele>5.1</ele>
        <time>2020-06-18T18:49:17Z</time>
      </trkpt>
      <trkpt lat="50.48503" lon="1.64434">
        <ele>5</ele>
        <time>2020-06-18T18:49:18Z</time>
      </trkpt>
      <trkpt lat="50.48505" lon="1.64423">
        <ele>4.8</ele>
        <time>2020-06-18T18:49:19Z</time>
      </trkpt>
      <trkpt lat="50.48508" lon="1.64411">
        <ele>4.7</ele>
        <time>2020-06-18T18:49:20Z</time>
      </trkpt>
      <trkpt lat="50.48511" lon="1.644">
        <ele>4.7</ele>
        <time>2020-06-18T18:49:21Z</time>
      </trkpt>
      <trkpt lat="50.48513" lon="1.64389">
        <ele>4.6</ele>
        <time>2020-06-18T18:49:22Z</time>
      </trkpt>
      <trkpt lat="50.48516" lon="1.64378">
        <ele>4.6</ele>
        <time>2020-06-18T18:49:23Z</time>
      </trkpt>
      <trkpt lat="50.48518" lon="1.64367">
        <ele>4.5</ele>
        <time>2020-06-18T18:49:24Z</time>
      </trkpt>
      <trkpt lat="50.48521" lon="1.64357">
        <ele>4.5</ele>
        <time>2020-06-18T18:49:25Z</time>
      </trkpt>
      <trkpt lat="50.48525" lon="1.64347">
        <ele>4.5</ele>
        <time>2020-06-18T18:49:26Z</time>
      </trkpt>
      <trkpt lat="50.48528" lon="1.64337">
        <ele>4.5</ele>
        <time>2020-06-18T18:49:27Z</time>
      </trkpt>
      <trkpt lat="50.48531" lon="1.64326">
        <ele>4.6</ele>
        <time>2020-06-18T18:49:28Z</time>
      </trkpt>
      <trkpt lat="50.48534" lon="1.64315">
        <ele>4.6</ele>
        <time>2020-06-18T18:49:29Z</time>
      </trkpt>
      <trkpt lat="50.48537" lon="1.64306">
        <ele>4.6</ele>
        <time>2020-06-18T18:49:30Z</time>
      </trkpt>
      <trkpt lat="50.48542" lon="1.64297">
        <ele>4.6</ele>
        <time>2020-06-18T18:49:31Z</time>
      </trkpt>
      <trkpt lat="50.48547" lon="1.64288">
        <ele>4.6</ele>
        <time>2020-06-18T18:49:32Z</time>
      </trkpt>
      <trkpt lat="50.48552" lon="1.6428">
        <ele>4.6</ele>
        <time>2020-06-18T18:49:33Z</time>
      </trkpt>
      <trkpt lat="50.48558" lon="1.64273">
        <ele>4.6</ele>
        <time>2020-06-18T18:49:34Z</time>
      </trkpt>
      <trkpt lat="50.48562" lon="1.64264">
        <ele>4.6</ele>
        <time>2020-06-18T18:49:35Z</time>
      </trkpt>
      <trkpt lat="50.48566" lon="1.64255">
        <ele>4.6</ele>
        <time>2020-06-18T18:49:36Z</time>
      </trkpt>
      <trkpt lat="50.4857" lon="1.64245">
        <ele>4.6</ele>
        <time>2020-06-18T18:49:37Z</time>
      </trkpt>
      <trkpt lat="50.48573" lon="1.64235">
        <ele>4.6</ele>
        <time>2020-06-18T18:49:38Z</time>
      </trkpt>
      <trkpt lat="50.48577" lon="1.64224">
        <ele>4.6</ele>
        <time>2020-06-18T18:49:39Z</time>
      </trkpt>
      <trkpt lat="50.4858" lon="1.64213">
        <ele>4.6</ele>
        <time>2020-06-18T18:49:40Z</time>
      </trkpt>
      <trkpt lat="50.48582" lon="1.64203">
        <ele>4.6</ele>
        <time>2020-06-18T18:49:41Z</time>
      </trkpt>
      <trkpt lat="50.48586" lon="1.64192">
        <ele>4.6</ele>
        <time>2020-06-18T18:49:42Z</time>
      </trkpt>
      <trkpt lat="50.48589" lon="1.64182">
        <ele>4.7</ele>
        <time>2020-06-18T18:49:43Z</time>
      </trkpt>
      <trkpt lat="50.48592" lon="1.64171">
        <ele>4.7</ele>
        <time>2020-06-18T18:49:44Z</time>
      </trkpt>
      <trkpt lat="50.48595" lon="1.6416">
        <ele>5</ele>
        <time>2020-06-18T18:49:45Z</time>
      </trkpt>
      <trkpt lat="50.48597" lon="1.64149">
        <ele>5.1</ele>
        <time>2020-06-18T18:49:46Z</time>
      </trkpt>
      <trkpt lat="50.48599" lon="1.64138">
        <ele>5.2</ele>
        <time>2020-06-18T18:49:47Z</time>
      </trkpt>
      <trkpt lat="50.48601" lon="1.64126">
        <ele>5.3</ele>
        <time>2020-06-18T18:49:48Z</time>
      </trkpt>
      <trkpt lat="50.48602" lon="1.64115">
        <ele>5.3</ele>
        <time>2020-06-18T18:49:49Z</time>
      </trkpt>
      <trkpt lat="50.48605" lon="1.64104">
        <ele>5.2</ele>
        <time>2020-06-18T18:49:50Z</time>
      </trkpt>
      <trkpt lat="50.48606" lon="1.64093">
        <ele>5.2</ele>
        <time>2020-06-18T18:49:51Z</time>
      </trkpt>
      <trkpt lat="50.48608" lon="1.64082">
        <ele>5.1</ele>
        <time>2020-06-18T18:49:52Z</time>
      </trkpt>
      <trkpt lat="50.4861" lon="1.64069">
        <ele>5.1</ele>
        <time>2020-06-18T18:49:53Z</time>
      </trkpt>
      <trkpt lat="50.48611" lon="1.64057">
        <ele>5</ele>
        <time>2020-06-18T18:49:54Z</time>
      </trkpt>
      <trkpt lat="50.48612" lon="1.64045">
        <ele>5</ele>
        <time>2020-06-18T18:49:55Z</time>
      </trkpt>
      <trkpt lat="50.48612" lon="1.64034">
        <ele>5</ele>
        <time>2020-06-18T18:49:56Z</time>
      </trkpt>
      <trkpt lat="50.48613" lon="1.64024">
        <ele>5</ele>
        <time>2020-06-18T18:49:57Z</time>
      </trkpt>
      <trkpt lat="50.48615" lon="1.64012">
        <ele>5</ele>
        <time>2020-06-18T18:49:58Z</time>
      </trkpt>
      <trkpt lat="50.48616" lon="1.64">
        <ele>5</ele>
        <time>2020-06-18T18:49:59Z</time>
      </trkpt>
      <trkpt lat="50.48618" lon="1.6399">
        <ele>5</ele>
        <time>2020-06-18T18:50:00Z</time>
      </trkpt>
      <trkpt lat="50.4862" lon="1.63977">
        <ele>5</ele>
        <time>2020-06-18T18:50:01Z</time>
      </trkpt>
      <trkpt lat="50.48621" lon="1.63965">
        <ele>5</ele>
        <time>2020-06-18T18:50:02Z</time>
      </trkpt>
      <trkpt lat="50.48622" lon="1.63953">
        <ele>5.1</ele>
        <time>2020-06-18T18:50:03Z</time>
      </trkpt>
      <trkpt lat="50.48623" lon="1.63942">
        <ele>5</ele>
        <time>2020-06-18T18:50:04Z</time>
      </trkpt>
      <trkpt lat="50.48624" lon="1.6393">
        <ele>5</ele>
        <time>2020-06-18T18:50:05Z</time>
      </trkpt>
      <trkpt lat="50.48626" lon="1.63919">
        <ele>4.9</ele>
        <time>2020-06-18T18:50:06Z</time>
      </trkpt>
      <trkpt lat="50.48628" lon="1.63909">
        <ele>4.8</ele>
        <time>2020-06-18T18:50:07Z</time>
      </trkpt>
      <trkpt lat="50.4863" lon="1.63898">
        <ele>4.8</ele>
        <time>2020-06-18T18:50:08Z</time>
      </trkpt>
      <trkpt lat="50.48632" lon="1.63886">
        <ele>4.8</ele>
        <time>2020-06-18T18:50:09Z</time>
      </trkpt>
      <trkpt lat="50.48635" lon="1.63876">
        <ele>4.8</ele>
        <time>2020-06-18T18:50:10Z</time>
      </trkpt>
      <trkpt lat="50.48637" lon="1.63864">
        <ele>4.8</ele>
        <time>2020-06-18T18:50:11Z</time>
      </trkpt>
      <trkpt lat="50.48638" lon="1.63853">
        <ele>4.8</ele>
        <time>2020-06-18T18:50:12Z</time>
      </trkpt>
      <trkpt lat="50.48639" lon="1.63841">
        <ele>4.8</ele>
        <time>2020-06-18T18:50:13Z</time>
      </trkpt>
      <trkpt lat="50.4864" lon="1.63829">
        <ele>4.9</ele>
        <time>2020-06-18T18:50:14Z</time>
      </trkpt>
      <trkpt lat="50.48642" lon="1.63817">
        <ele>4.9</ele>
        <time>2020-06-18T18:50:15Z</time>
      </trkpt>
      <trkpt lat="50.48643" lon="1.63806">
        <ele>4.9</ele>
        <time>2020-06-18T18:50:16Z</time>
      </trkpt>
      <trkpt lat="50.48644" lon="1.63795">
        <ele>4.9</ele>
        <time>2020-06-18T18:50:17Z</time>
      </trkpt>
      <trkpt lat="50.48644" lon="1.63784">
        <ele>4.9</ele>
        <time>2020-06-18T18:50:18Z</time>
      </trkpt>
      <trkpt lat="50.48645" lon="1.63773">
        <ele>4.9</ele>
        <time>2020-06-18T18:50:19Z</time>
      </trkpt>
      <trkpt lat="50.48644" lon="1.63764">
        <ele>4.9</ele>
        <time>2020-06-18T18:50:20Z</time>
      </trkpt>
      <trkpt lat="50.48643" lon="1.63753">
        <ele>4.8</ele>
        <time>2020-06-18T18:50:21Z</time>
      </trkpt>
      <trkpt lat="50.48642" lon="1.63742">
        <ele>4.8</ele>
        <time>2020-06-18T18:50:22Z</time>
      </trkpt>
      <trkpt lat="50.4864" lon="1.6373">
        <ele>4.8</ele>
        <time>2020-06-18T18:50:23Z</time>
      </trkpt>
      <trkpt lat="50.48638" lon="1.63719">
        <ele>4.8</ele>
        <time>2020-06-18T18:50:24Z</time>
      </trkpt>
      <trkpt lat="50.48636" lon="1.63708">
        <ele>4.8</ele>
        <time>2020-06-18T18:50:25Z</time>
      </trkpt>
      <trkpt lat="50.48633" lon="1.63696">
        <ele>4.8</ele>
        <time>2020-06-18T18:50:26Z</time>
      </trkpt>
      <trkpt lat="50.48632" lon="1.63684">
        <ele>4.8</ele>
        <time>2020-06-18T18:50:27Z</time>
      </trkpt>
      <trkpt lat="50.4863" lon="1.63672">
        <ele>4.9</ele>
        <time>2020-06-18T18:50:28Z</time>
      </trkpt>
      <trkpt lat="50.48628" lon="1.63662">
        <ele>4.9</ele>
        <time>2020-06-18T18:50:29Z</time>
      </trkpt>
      <trkpt lat="50.48626" lon="1.63651">
        <ele>4.9</ele>
        <time>2020-06-18T18:50:30Z</time>
      </trkpt>
      <trkpt lat="50.48625" lon="1.63641">
        <ele>5</ele>
        <time>2020-06-18T18:50:31Z</time>
      </trkpt>
      <trkpt lat="50.48622" lon="1.63629">
        <ele>5</ele>
        <time>2020-06-18T18:50:32Z</time>
      </trkpt>
      <trkpt lat="50.4862" lon="1.63618">
        <ele>5</ele>
        <time>2020-06-18T18:50:33Z</time>
      </trkpt>
      <trkpt lat="50.48618" lon="1.63607">
        <ele>5.1</ele>
        <time>2020-06-18T18:50:34Z</time>
      </trkpt>
      <trkpt lat="50.48616" lon="1.63596">
        <ele>5.1</ele>
        <time>2020-06-18T18:50:35Z</time>
      </trkpt>
      <trkpt lat="50.48614" lon="1.63584">
        <ele>5.1</ele>
        <time>2020-06-18T18:50:36Z</time>
      </trkpt>
      <trkpt lat="50.48613" lon="1.63574">
        <ele>5.2</ele>
        <time>2020-06-18T18:50:37Z</time>
      </trkpt>
      <trkpt lat="50.48611" lon="1.63564">
        <ele>5.2</ele>
        <time>2020-06-18T18:50:38Z</time>
      </trkpt>
      <trkpt lat="50.48609" lon="1.63554">
        <ele>5.3</ele>
        <time>2020-06-18T18:50:39Z</time>
      </trkpt>
      <trkpt lat="50.48607" lon="1.63541">
        <ele>5.4</ele>
        <time>2020-06-18T18:50:40Z</time>
      </trkpt>
      <trkpt lat="50.48606" lon="1.63528">
        <ele>5.4</ele>
        <time>2020-06-18T18:50:41Z</time>
      </trkpt>
      <trkpt lat="50.48604" lon="1.63517">
        <ele>5.4</ele>
        <time>2020-06-18T18:50:42Z</time>
      </trkpt>
      <trkpt lat="50.48602" lon="1.63506">
        <ele>5.4</ele>
        <time>2020-06-18T18:50:43Z</time>
      </trkpt>
      <trkpt lat="50.48601" lon="1.63496">
        <ele>5.3</ele>
        <time>2020-06-18T18:50:44Z</time>
      </trkpt>
      <trkpt lat="50.48599" lon="1.63485">
        <ele>5.4</ele>
        <time>2020-06-18T18:50:45Z</time>
      </trkpt>
      <trkpt lat="50.48597" lon="1.63474">
        <ele>5.3</ele>
        <time>2020-06-18T18:50:46Z</time>
      </trkpt>
      <trkpt lat="50.48595" lon="1.63462">
        <ele>5.3</ele>
        <time>2020-06-18T18:50:47Z</time>
      </trkpt>
      <trkpt lat="50.48594" lon="1.6345">
        <ele>5.3</ele>
        <time>2020-06-18T18:50:48Z</time>
      </trkpt>
      <trkpt lat="50.48591" lon="1.63438">
        <ele>5.3</ele>
        <time>2020-06-18T18:50:49Z</time>
      </trkpt>
      <trkpt lat="50.4859" lon="1.63427">
        <ele>5.3</ele>
        <time>2020-06-18T18:50:50Z</time>
      </trkpt>
      <trkpt lat="50.48587" lon="1.63415">
        <ele>5.3</ele>
        <time>2020-06-18T18:50:51Z</time>
      </trkpt>
      <trkpt lat="50.48586" lon="1.63403">
        <ele>5.3</ele>
        <time>2020-06-18T18:50:52Z</time>
      </trkpt>
      <trkpt lat="50.48584" lon="1.6339">
        <ele>5.3</ele>
        <time>2020-06-18T18:50:53Z</time>
      </trkpt>
      <trkpt lat="50.48583" lon="1.63378">
        <ele>5.2</ele>
        <time>2020-06-18T18:50:54Z</time>
      </trkpt>
      <trkpt lat="50.48581" lon="1.63366">
        <ele>5</ele>
        <time>2020-06-18T18:50:55Z</time>
      </trkpt>
      <trkpt lat="50.48579" lon="1.63355">
        <ele>5</ele>
        <time>2020-06-18T18:50:56Z</time>
      </trkpt>
      <trkpt lat="50.48577" lon="1.63343">
        <ele>5</ele>
        <time>2020-06-18T18:50:57Z</time>
      </trkpt>
      <trkpt lat="50.48575" lon="1.63332">
        <ele>5</ele>
        <time>2020-06-18T18:50:58Z</time>
      </trkpt>
      <trkpt lat="50.48573" lon="1.6332">
        <ele>5</ele>
        <time>2020-06-18T18:50:59Z</time>
      </trkpt>
      <trkpt lat="50.4857" lon="1.63309">
        <ele>5</ele>
        <time>2020-06-18T18:51:00Z</time>
      </trkpt>
      <trkpt lat="50.48568" lon="1.63297">
        <ele>5</ele>
        <time>2020-06-18T18:51:01Z</time>
      </trkpt>
      <trkpt lat="50.48565" lon="1.63286">
        <ele>5</ele>
        <time>2020-06-18T18:51:02Z</time>
      </trkpt>
      <trkpt lat="50.48563" lon="1.63274">
        <ele>5.1</ele>
        <time>2020-06-18T18:51:03Z</time>
      </trkpt>
      <trkpt lat="50.48561" lon="1.63262">
        <ele>5.1</ele>
        <time>2020-06-18T18:51:04Z</time>
      </trkpt>
      <trkpt lat="50.48559" lon="1.6325">
        <ele>5.1</ele>
        <time>2020-06-18T18:51:05Z</time>
      </trkpt>
      <trkpt lat="50.48556" lon="1.6324">
        <ele>5.1</ele>
        <time>2020-06-18T18:51:06Z</time>
      </trkpt>
      <trkpt lat="50.48553" lon="1.63229">
        <ele>5.2</ele>
        <time>2020-06-18T18:51:07Z</time>
      </trkpt>
      <trkpt lat="50.48551" lon="1.63216">
        <ele>5.3</ele>
        <time>2020-06-18T18:51:08Z</time>
      </trkpt>
      <trkpt lat="50.48549" lon="1.63206">
        <ele>5.3</ele>
        <time>2020-06-18T18:51:09Z</time>
      </trkpt>
      <trkpt lat="50.48547" lon="1.63196">
        <ele>5.3</ele>
        <time>2020-06-18T18:51:10Z</time>
      </trkpt>
      <trkpt lat="50.48545" lon="1.63185">
        <ele>5.4</ele>
        <time>2020-06-18T18:51:11Z</time>
      </trkpt>
      <trkpt lat="50.48543" lon="1.63175">
        <ele>5.4</ele>
        <time>2020-06-18T18:51:12Z</time>
      </trkpt>
      <trkpt lat="50.48541" lon="1.63165">
        <ele>5.4</ele>
        <time>2020-06-18T18:51:13Z</time>
      </trkpt>
      <trkpt lat="50.48539" lon="1.63155">
        <ele>5.4</ele>
        <time>2020-06-18T18:51:14Z</time>
      </trkpt>
      <trkpt lat="50.48537" lon="1.63145">
        <ele>5.5</ele>
        <time>2020-06-18T18:51:15Z</time>
      </trkpt>
      <trkpt lat="50.48534" lon="1.63135">
        <ele>5.5</ele>
        <time>2020-06-18T18:51:16Z</time>
      </trkpt>
      <trkpt lat="50.48532" lon="1.63124">
        <ele>5.6</ele>
        <time>2020-06-18T18:51:17Z</time>
      </trkpt>
      <trkpt lat="50.4853" lon="1.63114">
        <ele>5.6</ele>
        <time>2020-06-18T18:51:18Z</time>
      </trkpt>
      <trkpt lat="50.48528" lon="1.63104">
        <ele>5.6</ele>
        <time>2020-06-18T18:51:19Z</time>
      </trkpt>
      <trkpt lat="50.48526" lon="1.63093">
        <ele>5.5</ele>
        <time>2020-06-18T18:51:20Z</time>
      </trkpt>
      <trkpt lat="50.48524" lon="1.63083">
        <ele>5.4</ele>
        <time>2020-06-18T18:51:21Z</time>
      </trkpt>
      <trkpt lat="50.48522" lon="1.63072">
        <ele>5.4</ele>
        <time>2020-06-18T18:51:22Z</time>
      </trkpt>
      <trkpt lat="50.48519" lon="1.63061">
        <ele>5.3</ele>
        <time>2020-06-18T18:51:23Z</time>
      </trkpt>
      <trkpt lat="50.48517" lon="1.6305">
        <ele>5.3</ele>
        <time>2020-06-18T18:51:24Z</time>
      </trkpt>
      <trkpt lat="50.48515" lon="1.6304">
        <ele>5.3</ele>
        <time>2020-06-18T18:51:25Z</time>
      </trkpt>
      <trkpt lat="50.48513" lon="1.63028">
        <ele>5.3</ele>
        <time>2020-06-18T18:51:26Z</time>
      </trkpt>
      <trkpt lat="50.4851" lon="1.63017">
        <ele>5.3</ele>
        <time>2020-06-18T18:51:27Z</time>
      </trkpt>
      <trkpt lat="50.48508" lon="1.63006">
        <ele>5.3</ele>
        <time>2020-06-18T18:51:28Z</time>
      </trkpt>
      <trkpt lat="50.48505" lon="1.62996">
        <ele>5.3</ele>
        <time>2020-06-18T18:51:29Z</time>
      </trkpt>
      <trkpt lat="50.48503" lon="1.62984">
        <ele>5.4</ele>
        <time>2020-06-18T18:51:30Z</time>
      </trkpt>
      <trkpt lat="50.485" lon="1.62972">
        <ele>5.5</ele>
        <time>2020-06-18T18:51:31Z</time>
      </trkpt>
      <trkpt lat="50.48498" lon="1.62962">
        <ele>5.5</ele>
        <time>2020-06-18T18:51:32Z</time>
      </trkpt>
      <trkpt lat="50.48495" lon="1.62951">
        <ele>5.5</ele>
        <time>2020-06-18T18:51:33Z</time>
      </trkpt>
      <trkpt lat="50.48492" lon="1.6294">
        <ele>5.5</ele>
        <time>2020-06-18T18:51:34Z</time>
      </trkpt>
      <trkpt lat="50.4849" lon="1.62929">
        <ele>5.5</ele>
        <time>2020-06-18T18:51:35Z</time>
      </trkpt>
      <trkpt lat="50.48487" lon="1.62917">
        <ele>5.6</ele>
        <time>2020-06-18T18:51:36Z</time>
      </trkpt>
      <trkpt lat="50.48485" lon="1.62906">
        <ele>5.6</ele>
        <time>2020-06-18T18:51:37Z</time>
      </trkpt>
      <trkpt lat="50.48482" lon="1.62895">
        <ele>5.7</ele>
        <time>2020-06-18T18:51:38Z</time>
      </trkpt>
      <trkpt lat="50.48479" lon="1.62884">
        <ele>5.6</ele>
        <time>2020-06-18T18:51:39Z</time>
      </trkpt>
      <trkpt lat="50.48477" lon="1.62872">
        <ele>5.6</ele>
        <time>2020-06-18T18:51:40Z</time>
      </trkpt>
      <trkpt lat="50.48474" lon="1.62861">
        <ele>5.5</ele>
        <time>2020-06-18T18:51:41Z</time>
      </trkpt>
      <trkpt lat="50.48471" lon="1.6285">
        <ele>5.6</ele>
        <time>2020-06-18T18:51:42Z</time>
      </trkpt>
      <trkpt lat="50.48469" lon="1.62838">
        <ele>5.6</ele>
        <time>2020-06-18T18:51:43Z</time>
      </trkpt>
      <trkpt lat="50.48466" lon="1.62828">
        <ele>5.6</ele>
        <time>2020-06-18T18:51:44Z</time>
      </trkpt>
      <trkpt lat="50.48463" lon="1.62817">
        <ele>5.7</ele>
        <time>2020-06-18T18:51:45Z</time>
      </trkpt>
      <trkpt lat="50.4846" lon="1.62807">
        <ele>5.7</ele>
        <time>2020-06-18T18:51:46Z</time>
      </trkpt>
      <trkpt lat="50.48457" lon="1.62796">
        <ele>5.8</ele>
        <time>2020-06-18T18:51:47Z</time>
      </trkpt>
      <trkpt lat="50.48455" lon="1.62788">
        <ele>5.8</ele>
        <time>2020-06-18T18:51:48Z</time>
      </trkpt>
      <trkpt lat="50.48452" lon="1.62777">
        <ele>5.8</ele>
        <time>2020-06-18T18:51:49Z</time>
      </trkpt>
      <trkpt lat="50.48449" lon="1.62766">
        <ele>5.8</ele>
        <time>2020-06-18T18:51:50Z</time>
      </trkpt>
      <trkpt lat="50.48447" lon="1.62756">
        <ele>5.8</ele>
        <time>2020-06-18T18:51:51Z</time>
      </trkpt>
      <trkpt lat="50.48443" lon="1.62745">
        <ele>5.8</ele>
        <time>2020-06-18T18:51:52Z</time>
      </trkpt>
      <trkpt lat="50.48439" lon="1.62734">
        <ele>5.8</ele>
        <time>2020-06-18T18:51:53Z</time>
      </trkpt>
      <trkpt lat="50.48436" lon="1.62724">
        <ele>5.8</ele>
        <time>2020-06-18T18:51:54Z</time>
      </trkpt>
      <trkpt lat="50.48433" lon="1.62713">
        <ele>5.8</ele>
        <time>2020-06-18T18:51:55Z</time>
      </trkpt>
      <trkpt lat="50.48429" lon="1.62703">
        <ele>5.8</ele>
        <time>2020-06-18T18:51:56Z</time>
      </trkpt>
      <trkpt lat="50.48426" lon="1.62691">
        <ele>5.7</ele>
        <time>2020-06-18T18:51:57Z</time>
      </trkpt>
      <trkpt lat="50.48422" lon="1.6268">
        <ele>5.6</ele>
        <time>2020-06-18T18:51:58Z</time>
      </trkpt>
      <trkpt lat="50.48419" lon="1.6267">
        <ele>5.6</ele>
        <time>2020-06-18T18:51:59Z</time>
      </trkpt>
      <trkpt lat="50.48416" lon="1.62659">
        <ele>5.5</ele>
        <time>2020-06-18T18:52:00Z</time>
      </trkpt>
      <trkpt lat="50.48412" lon="1.62649">
        <ele>5.5</ele>
        <time>2020-06-18T18:52:01Z</time>
      </trkpt>
      <trkpt lat="50.48409" lon="1.62638">
        <ele>5.5</ele>
        <time>2020-06-18T18:52:02Z</time>
      </trkpt>
      <trkpt lat="50.48406" lon="1.62629">
        <ele>5.6</ele>
        <time>2020-06-18T18:52:03Z</time>
      </trkpt>
      <trkpt lat="50.48402" lon="1.62619">
        <ele>5.6</ele>
        <time>2020-06-18T18:52:04Z</time>
      </trkpt>
      <trkpt lat="50.48398" lon="1.62608">
        <ele>5.6</ele>
        <time>2020-06-18T18:52:05Z</time>
      </trkpt>
      <trkpt lat="50.48395" lon="1.62598">
        <ele>5.7</ele>
        <time>2020-06-18T18:52:06Z</time>
      </trkpt>
      <trkpt lat="50.48392" lon="1.62587">
        <ele>5.7</ele>
        <time>2020-06-18T18:52:07Z</time>
      </trkpt>
      <trkpt lat="50.48389" lon="1.62577">
        <ele>5.7</ele>
        <time>2020-06-18T18:52:08Z</time>
      </trkpt>
      <trkpt lat="50.48386" lon="1.62567">
        <ele>5.8</ele>
        <time>2020-06-18T18:52:09Z</time>
      </trkpt>
      <trkpt lat="50.48382" lon="1.62558">
        <ele>5.8</ele>
        <time>2020-06-18T18:52:10Z</time>
      </trkpt>
      <trkpt lat="50.48379" lon="1.62549">
        <ele>5.8</ele>
        <time>2020-06-18T18:52:11Z</time>
      </trkpt>
      <trkpt lat="50.48375" lon="1.62539">
        <ele>5.9</ele>
        <time>2020-06-18T18:52:12Z</time>
      </trkpt>
      <trkpt lat="50.48372" lon="1.62528">
        <ele>6</ele>
        <time>2020-06-18T18:52:13Z</time>
      </trkpt>
      <trkpt lat="50.48369" lon="1.62518">
        <ele>6.1</ele>
        <time>2020-06-18T18:52:14Z</time>
      </trkpt>
      <trkpt lat="50.48366" lon="1.62508">
        <ele>6</ele>
        <time>2020-06-18T18:52:15Z</time>
      </trkpt>
      <trkpt lat="50.48364" lon="1.62498">
        <ele>6</ele>
        <time>2020-06-18T18:52:16Z</time>
      </trkpt>
      <trkpt lat="50.48361" lon="1.62489">
        <ele>6</ele>
        <time>2020-06-18T18:52:17Z</time>
      </trkpt>
      <trkpt lat="50.48359" lon="1.62483">
        <ele>6</ele>
        <time>2020-06-18T18:52:18Z</time>
      </trkpt>
      <trkpt lat="50.48357" lon="1.62476">
        <ele>6</ele>
        <time>2020-06-18T18:52:19Z</time>
      </trkpt>
      <trkpt lat="50.48354" lon="1.62468">
        <ele>6.1</ele>
        <time>2020-06-18T18:52:20Z</time>
      </trkpt>
      <trkpt lat="50.48352" lon="1.62459">
        <ele>6.1</ele>
        <time>2020-06-18T18:52:21Z</time>
      </trkpt>
      <trkpt lat="50.48349" lon="1.62452">
        <ele>6.1</ele>
        <time>2020-06-18T18:52:22Z</time>
      </trkpt>
      <trkpt lat="50.48347" lon="1.62445">
        <ele>6.1</ele>
        <time>2020-06-18T18:52:23Z</time>
      </trkpt>
      <trkpt lat="50.48345" lon="1.62438">
        <ele>6.1</ele>
        <time>2020-06-18T18:52:24Z</time>
      </trkpt>
      <trkpt lat="50.48344" lon="1.62429">
        <ele>6.1</ele>
        <time>2020-06-18T18:52:25Z</time>
      </trkpt>
      <trkpt lat="50.48344" lon="1.62422">
        <ele>6.1</ele>
        <time>2020-06-18T18:52:26Z</time>
      </trkpt>
      <trkpt lat="50.48347" lon="1.62416">
        <ele>6.1</ele>
        <time>2020-06-18T18:52:27Z</time>
      </trkpt>
      <trkpt lat="50.48351" lon="1.62409">
        <ele>6.1</ele>
        <time>2020-06-18T18:52:28Z</time>
      </trkpt>
      <trkpt lat="50.48355" lon="1.62405">
        <ele>6</ele>
        <time>2020-06-18T18:52:29Z</time>
      </trkpt>
      <trkpt lat="50.48359" lon="1.62402">
        <ele>5.9</ele>
        <time>2020-06-18T18:52:30Z</time>
      </trkpt>
      <trkpt lat="50.48364" lon="1.62403">
        <ele>5.9</ele>
        <time>2020-06-18T18:52:31Z</time>
      </trkpt>
      <trkpt lat="50.48369" lon="1.62404">
        <ele>5.8</ele>
        <time>2020-06-18T18:52:32Z</time>
      </trkpt>
      <trkpt lat="50.48375" lon="1.62405">
        <ele>5.8</ele>
        <time>2020-06-18T18:52:33Z</time>
      </trkpt>
      <trkpt lat="50.48381" lon="1.62408">
        <ele>5.7</ele>
        <time>2020-06-18T18:52:34Z</time>
      </trkpt>
      <trkpt lat="50.48387" lon="1.62407">
        <ele>5.6</ele>
        <time>2020-06-18T18:52:35Z</time>
      </trkpt>
      <trkpt lat="50.48393" lon="1.62409">
        <ele>5.6</ele>
        <time>2020-06-18T18:52:36Z</time>
      </trkpt>
      <trkpt lat="50.48399" lon="1.6241">
        <ele>5.6</ele>
        <time>2020-06-18T18:52:37Z</time>
      </trkpt>
      <trkpt lat="50.48406" lon="1.6241">
        <ele>5.5</ele>
        <time>2020-06-18T18:52:38Z</time>
      </trkpt>
      <trkpt lat="50.48413" lon="1.62412">
        <ele>5.5</ele>
        <time>2020-06-18T18:52:39Z</time>
      </trkpt>
      <trkpt lat="50.4842" lon="1.62415">
        <ele>5.4</ele>
        <time>2020-06-18T18:52:40Z</time>
      </trkpt>
      <trkpt lat="50.48428" lon="1.62417">
        <ele>5.4</ele>
        <time>2020-06-18T18:52:41Z</time>
      </trkpt>
      <trkpt lat="50.48435" lon="1.62419">
        <ele>5.4</ele>
        <time>2020-06-18T18:52:42Z</time>
      </trkpt>
      <trkpt lat="50.48441" lon="1.6242">
        <ele>5.3</ele>
        <time>2020-06-18T18:52:43Z</time>
      </trkpt>
      <trkpt lat="50.4845" lon="1.62422">
        <ele>5.3</ele>
        <time>2020-06-18T18:52:44Z</time>
      </trkpt>
      <trkpt lat="50.48457" lon="1.62421">
        <ele>5.3</ele>
        <time>2020-06-18T18:52:45Z</time>
      </trkpt>
      <trkpt lat="50.48464" lon="1.62419">
        <ele>5.3</ele>
        <time>2020-06-18T18:52:46Z</time>
      </trkpt>
      <trkpt lat="50.48471" lon="1.62417">
        <ele>5.4</ele>
        <time>2020-06-18T18:52:47Z</time>
      </trkpt>
      <trkpt lat="50.48477" lon="1.62415">
        <ele>5.4</ele>
        <time>2020-06-18T18:52:48Z</time>
      </trkpt>
      <trkpt lat="50.48484" lon="1.62412">
        <ele>5.4</ele>
        <time>2020-06-18T18:52:49Z</time>
      </trkpt>
      <trkpt lat="50.4849" lon="1.62409">
        <ele>5.4</ele>
        <time>2020-06-18T18:52:50Z</time>
      </trkpt>
      <trkpt lat="50.48497" lon="1.62406">
        <ele>5.4</ele>
        <time>2020-06-18T18:52:51Z</time>
      </trkpt>
      <trkpt lat="50.48504" lon="1.62403">
        <ele>5.4</ele>
        <time>2020-06-18T18:52:52Z</time>
      </trkpt>
      <trkpt lat="50.4851" lon="1.624">
        <ele>5.4</ele>
        <time>2020-06-18T18:52:53Z</time>
      </trkpt>
      <trkpt lat="50.48516" lon="1.62397">
        <ele>5.3</ele>
        <time>2020-06-18T18:52:54Z</time>
      </trkpt>
      <trkpt lat="50.48521" lon="1.62394">
        <ele>5.3</ele>
        <time>2020-06-18T18:52:55Z</time>
      </trkpt>
      <trkpt lat="50.48527" lon="1.62391">
        <ele>5.3</ele>
        <time>2020-06-18T18:52:56Z</time>
      </trkpt>
      <trkpt lat="50.48533" lon="1.62388">
        <ele>5.3</ele>
        <time>2020-06-18T18:52:57Z</time>
      </trkpt>
      <trkpt lat="50.48539" lon="1.62385">
        <ele>5.3</ele>
        <time>2020-06-18T18:52:58Z</time>
      </trkpt>
      <trkpt lat="50.48545" lon="1.62381">
        <ele>5.3</ele>
        <time>2020-06-18T18:52:59Z</time>
      </trkpt>
      <trkpt lat="50.48551" lon="1.62378">
        <ele>5.3</ele>
        <time>2020-06-18T18:53:00Z</time>
      </trkpt>
      <trkpt lat="50.48557" lon="1.62374">
        <ele>5.3</ele>
        <time>2020-06-18T18:53:01Z</time>
      </trkpt>
      <trkpt lat="50.48563" lon="1.62371">
        <ele>5.3</ele>
        <time>2020-06-18T18:53:02Z</time>
      </trkpt>
      <trkpt lat="50.48569" lon="1.62368">
        <ele>5.3</ele>
        <time>2020-06-18T18:53:03Z</time>
      </trkpt>
      <trkpt lat="50.48575" lon="1.62365">
        <ele>5.4</ele>
        <time>2020-06-18T18:53:04Z</time>
      </trkpt>
      <trkpt lat="50.48582" lon="1.62362">
        <ele>5.4</ele>
        <time>2020-06-18T18:53:05Z</time>
      </trkpt>
      <trkpt lat="50.48588" lon="1.62358">
        <ele>5.4</ele>
        <time>2020-06-18T18:53:06Z</time>
      </trkpt>
      <trkpt lat="50.48594" lon="1.62353">
        <ele>5.4</ele>
        <time>2020-06-18T18:53:07Z</time>
      </trkpt>
      <trkpt lat="50.48601" lon="1.6235">
        <ele>5.4</ele>
        <time>2020-06-18T18:53:08Z</time>
      </trkpt>
      <trkpt lat="50.48608" lon="1.62348">
        <ele>5.4</ele>
        <time>2020-06-18T18:53:09Z</time>
      </trkpt>
      <trkpt lat="50.48615" lon="1.62345">
        <ele>5.4</ele>
        <time>2020-06-18T18:53:10Z</time>
      </trkpt>
      <trkpt lat="50.48621" lon="1.62341">
        <ele>5.5</ele>
        <time>2020-06-18T18:53:11Z</time>
      </trkpt>
      <trkpt lat="50.48629" lon="1.62337">
        <ele>5.5</ele>
        <time>2020-06-18T18:53:12Z</time>
      </trkpt>
      <trkpt lat="50.48636" lon="1.62333">
        <ele>5.6</ele>
        <time>2020-06-18T18:53:13Z</time>
      </trkpt>
      <trkpt lat="50.48644" lon="1.62329">
        <ele>5.5</ele>
        <time>2020-06-18T18:53:14Z</time>
      </trkpt>
      <trkpt lat="50.48651" lon="1.62325">
        <ele>5.5</ele>
        <time>2020-06-18T18:53:15Z</time>
      </trkpt>
      <trkpt lat="50.48658" lon="1.62322">
        <ele>5.5</ele>
        <time>2020-06-18T18:53:16Z</time>
      </trkpt>
      <trkpt lat="50.48665" lon="1.62317">
        <ele>5.6</ele>
        <time>2020-06-18T18:53:17Z</time>
      </trkpt>
      <trkpt lat="50.48672" lon="1.62314">
        <ele>5.6</ele>
        <time>2020-06-18T18:53:18Z</time>
      </trkpt>
      <trkpt lat="50.48678" lon="1.62311">
        <ele>5.6</ele>
        <time>2020-06-18T18:53:19Z</time>
      </trkpt>
      <trkpt lat="50.48684" lon="1.62308">
        <ele>5.5</ele>
        <time>2020-06-18T18:53:20Z</time>
      </trkpt>
      <trkpt lat="50.4869" lon="1.62306">
        <ele>5.5</ele>
        <time>2020-06-18T18:53:21Z</time>
      </trkpt>
      <trkpt lat="50.48696" lon="1.62304">
        <ele>5.5</ele>
        <time>2020-06-18T18:53:22Z</time>
      </trkpt>
      <trkpt lat="50.48702" lon="1.62302">
        <ele>5.5</ele>
        <time>2020-06-18T18:53:23Z</time>
      </trkpt>
      <trkpt lat="50.48707" lon="1.623">
        <ele>5.5</ele>
        <time>2020-06-18T18:53:24Z</time>
      </trkpt>
      <trkpt lat="50.48711" lon="1.623">
        <ele>5.5</ele>
        <time>2020-06-18T18:53:25Z</time>
      </trkpt>
      <trkpt lat="50.48715" lon="1.62302">
        <ele>6.3</ele>
        <time>2020-06-18T18:53:26Z</time>
      </trkpt>
      <trkpt lat="50.4872" lon="1.62305">
        <ele>6.2</ele>
        <time>2020-06-18T18:53:27Z</time>
      </trkpt>
      <trkpt lat="50.48724" lon="1.62308">
        <ele>6.1</ele>
        <time>2020-06-18T18:53:28Z</time>
      </trkpt>
      <trkpt lat="50.48729" lon="1.62305">
        <ele>6</ele>
        <time>2020-06-18T18:53:29Z</time>
      </trkpt>
      <trkpt lat="50.48733" lon="1.62299">
        <ele>5.9</ele>
        <time>2020-06-18T18:53:30Z</time>
      </trkpt>
      <trkpt lat="50.48736" lon="1.62291">
        <ele>5.9</ele>
        <time>2020-06-18T18:53:31Z</time>
      </trkpt>
      <trkpt lat="50.48737" lon="1.62284">
        <ele>5.8</ele>
        <time>2020-06-18T18:53:32Z</time>
      </trkpt>
      <trkpt lat="50.48735" lon="1.62275">
        <ele>5.8</ele>
        <time>2020-06-18T18:53:33Z</time>
      </trkpt>
      <trkpt lat="50.48733" lon="1.62264">
        <ele>6</ele>
        <time>2020-06-18T18:53:34Z</time>
      </trkpt>
      <trkpt lat="50.4873" lon="1.62255">
        <ele>5.9</ele>
        <time>2020-06-18T18:53:35Z</time>
      </trkpt>
      <trkpt lat="50.48728" lon="1.62246">
        <ele>5.8</ele>
        <time>2020-06-18T18:53:36Z</time>
      </trkpt>
      <trkpt lat="50.48726" lon="1.62236">
        <ele>5.7</ele>
        <time>2020-06-18T18:53:37Z</time>
      </trkpt>
      <trkpt lat="50.48725" lon="1.62226">
        <ele>5.6</ele>
        <time>2020-06-18T18:53:38Z</time>
      </trkpt>
      <trkpt lat="50.48723" lon="1.62216">
        <ele>5.6</ele>
        <time>2020-06-18T18:53:39Z</time>
      </trkpt>
      <trkpt lat="50.48721" lon="1.62204">
        <ele>5.5</ele>
        <time>2020-06-18T18:53:40Z</time>
      </trkpt>
      <trkpt lat="50.48719" lon="1.62192">
        <ele>5.4</ele>
        <time>2020-06-18T18:53:41Z</time>
      </trkpt>
      <trkpt lat="50.48716" lon="1.6218">
        <ele>5.4</ele>
        <time>2020-06-18T18:53:42Z</time>
      </trkpt>
      <trkpt lat="50.48714" lon="1.62169">
        <ele>5.3</ele>
        <time>2020-06-18T18:53:43Z</time>
      </trkpt>
      <trkpt lat="50.48711" lon="1.62157">
        <ele>5.4</ele>
        <time>2020-06-18T18:53:44Z</time>
      </trkpt>
      <trkpt lat="50.48709" lon="1.62145">
        <ele>5.4</ele>
        <time>2020-06-18T18:53:45Z</time>
      </trkpt>
      <trkpt lat="50.48706" lon="1.62132">
        <ele>5.4</ele>
        <time>2020-06-18T18:53:46Z</time>
      </trkpt>
      <trkpt lat="50.48703" lon="1.62119">
        <ele>5.3</ele>
        <time>2020-06-18T18:53:47Z</time>
      </trkpt>
      <trkpt lat="50.487" lon="1.62106">
        <ele>5.3</ele>
        <time>2020-06-18T18:53:48Z</time>
      </trkpt>
      <trkpt lat="50.48697" lon="1.62094">
        <ele>5.3</ele>
        <time>2020-06-18T18:53:49Z</time>
      </trkpt>
      <trkpt lat="50.48695" lon="1.62082">
        <ele>5.4</ele>
        <time>2020-06-18T18:53:50Z</time>
      </trkpt>
      <trkpt lat="50.48692" lon="1.62069">
        <ele>5.5</ele>
        <time>2020-06-18T18:53:51Z</time>
      </trkpt>
      <trkpt lat="50.48689" lon="1.62057">
        <ele>5.6</ele>
        <time>2020-06-18T18:53:52Z</time>
      </trkpt>
      <trkpt lat="50.48686" lon="1.62044">
        <ele>5.5</ele>
        <time>2020-06-18T18:53:53Z</time>
      </trkpt>
      <trkpt lat="50.48684" lon="1.62032">
        <ele>5.5</ele>
        <time>2020-06-18T18:53:54Z</time>
      </trkpt>
      <trkpt lat="50.48681" lon="1.6202">
        <ele>5.4</ele>
        <time>2020-06-18T18:53:55Z</time>
      </trkpt>
      <trkpt lat="50.48679" lon="1.62007">
        <ele>5.4</ele>
        <time>2020-06-18T18:53:56Z</time>
      </trkpt>
      <trkpt lat="50.48677" lon="1.61994">
        <ele>5.4</ele>
        <time>2020-06-18T18:53:57Z</time>
      </trkpt>
      <trkpt lat="50.48675" lon="1.61982">
        <ele>5.4</ele>
        <time>2020-06-18T18:53:58Z</time>
      </trkpt>
      <trkpt lat="50.48672" lon="1.6197">
        <ele>5.4</ele>
        <time>2020-06-18T18:53:59Z</time>
      </trkpt>
      <trkpt lat="50.48669" lon="1.61959">
        <ele>5.4</ele>
        <time>2020-06-18T18:54:00Z</time>
      </trkpt>
      <trkpt lat="50.48667" lon="1.61946">
        <ele>5.4</ele>
        <time>2020-06-18T18:54:01Z</time>
      </trkpt>
      <trkpt lat="50.48664" lon="1.61934">
        <ele>5.4</ele>
        <time>2020-06-18T18:54:02Z</time>
      </trkpt>
      <trkpt lat="50.48661" lon="1.61921">
        <ele>5.4</ele>
        <time>2020-06-18T18:54:03Z</time>
      </trkpt>
      <trkpt lat="50.48658" lon="1.61911">
        <ele>5.4</ele>
        <time>2020-06-18T18:54:04Z</time>
      </trkpt>
      <trkpt lat="50.48655" lon="1.61899">
        <ele>5.5</ele>
        <time>2020-06-18T18:54:05Z</time>
      </trkpt>
      <trkpt lat="50.48652" lon="1.61888">
        <ele>5.5</ele>
        <time>2020-06-18T18:54:06Z</time>
      </trkpt>
      <trkpt lat="50.4865" lon="1.61876">
        <ele>5.5</ele>
        <time>2020-06-18T18:54:07Z</time>
      </trkpt>
      <trkpt lat="50.48647" lon="1.61864">
        <ele>5.6</ele>
        <time>2020-06-18T18:54:08Z</time>
      </trkpt>
      <trkpt lat="50.48645" lon="1.61852">
        <ele>5.7</ele>
        <time>2020-06-18T18:54:09Z</time>
      </trkpt>
      <trkpt lat="50.48643" lon="1.61839">
        <ele>5.8</ele>
        <time>2020-06-18T18:54:10Z</time>
      </trkpt>
      <trkpt lat="50.4864" lon="1.61828">
        <ele>5.9</ele>
        <time>2020-06-18T18:54:11Z</time>
      </trkpt>
      <trkpt lat="50.48637" lon="1.61816">
        <ele>6</ele>
        <time>2020-06-18T18:54:12Z</time>
      </trkpt>
      <trkpt lat="50.48634" lon="1.61805">
        <ele>6</ele>
        <time>2020-06-18T18:54:13Z</time>
      </trkpt>
      <trkpt lat="50.48631" lon="1.61793">
        <ele>6.1</ele>
        <time>2020-06-18T18:54:14Z</time>
      </trkpt>
      <trkpt lat="50.48628" lon="1.6178">
        <ele>6.1</ele>
        <time>2020-06-18T18:54:15Z</time>
      </trkpt>
      <trkpt lat="50.48626" lon="1.61769">
        <ele>6.1</ele>
        <time>2020-06-18T18:54:16Z</time>
      </trkpt>
      <trkpt lat="50.48623" lon="1.61757">
        <ele>6.1</ele>
        <time>2020-06-18T18:54:17Z</time>
      </trkpt>
      <trkpt lat="50.48621" lon="1.61747">
        <ele>6.1</ele>
        <time>2020-06-18T18:54:18Z</time>
      </trkpt>
      <trkpt lat="50.48618" lon="1.61736">
        <ele>6.1</ele>
        <time>2020-06-18T18:54:19Z</time>
      </trkpt>
      <trkpt lat="50.48616" lon="1.61725">
        <ele>6.1</ele>
        <time>2020-06-18T18:54:20Z</time>
      </trkpt>
      <trkpt lat="50.48614" lon="1.61713">
        <ele>6.1</ele>
        <time>2020-06-18T18:54:21Z</time>
      </trkpt>
      <trkpt lat="50.48612" lon="1.61701">
        <ele>6.1</ele>
        <time>2020-06-18T18:54:22Z</time>
      </trkpt>
      <trkpt lat="50.48609" lon="1.6169">
        <ele>6</ele>
        <time>2020-06-18T18:54:23Z</time>
      </trkpt>
      <trkpt lat="50.48607" lon="1.61678">
        <ele>6</ele>
        <time>2020-06-18T18:54:24Z</time>
      </trkpt>
      <trkpt lat="50.48604" lon="1.61667">
        <ele>6</ele>
        <time>2020-06-18T18:54:25Z</time>
      </trkpt>
      <trkpt lat="50.48602" lon="1.61655">
        <ele>6</ele>
        <time>2020-06-18T18:54:26Z</time>
      </trkpt>
      <trkpt lat="50.48599" lon="1.61644">
        <ele>6</ele>
        <time>2020-06-18T18:54:27Z</time>
      </trkpt>
      <trkpt lat="50.48597" lon="1.61634">
        <ele>6</ele>
        <time>2020-06-18T18:54:28Z</time>
      </trkpt>
      <trkpt lat="50.48595" lon="1.61622">
        <ele>6.1</ele>
        <time>2020-06-18T18:54:29Z</time>
      </trkpt>
      <trkpt lat="50.48593" lon="1.61611">
        <ele>6.1</ele>
        <time>2020-06-18T18:54:30Z</time>
      </trkpt>
      <trkpt lat="50.4859" lon="1.616">
        <ele>6.1</ele>
        <time>2020-06-18T18:54:31Z</time>
      </trkpt>
      <trkpt lat="50.48588" lon="1.61588">
        <ele>6.1</ele>
        <time>2020-06-18T18:54:32Z</time>
      </trkpt>
      <trkpt lat="50.48586" lon="1.61576">
        <ele>6.1</ele>
        <time>2020-06-18T18:54:33Z</time>
      </trkpt>
      <trkpt lat="50.48584" lon="1.61564">
        <ele>6.1</ele>
        <time>2020-06-18T18:54:34Z</time>
      </trkpt>
      <trkpt lat="50.48583" lon="1.61553">
        <ele>6.1</ele>
        <time>2020-06-18T18:54:35Z</time>
      </trkpt>
      <trkpt lat="50.4858" lon="1.61544">
        <ele>6.1</ele>
        <time>2020-06-18T18:54:36Z</time>
      </trkpt>
      <trkpt lat="50.48577" lon="1.61534">
        <ele>6.1</ele>
        <time>2020-06-18T18:54:37Z</time>
      </trkpt>
      <trkpt lat="50.48575" lon="1.61523">
        <ele>6.1</ele>
        <time>2020-06-18T18:54:38Z</time>
      </trkpt>
      <trkpt lat="50.48573" lon="1.61512">
        <ele>6.1</ele>
        <time>2020-06-18T18:54:39Z</time>
      </trkpt>
      <trkpt lat="50.48571" lon="1.61501">
        <ele>6.1</ele>
        <time>2020-06-18T18:54:40Z</time>
      </trkpt>
      <trkpt lat="50.48568" lon="1.61489">
        <ele>6.2</ele>
        <time>2020-06-18T18:54:41Z</time>
      </trkpt>
      <trkpt lat="50.48566" lon="1.61478">
        <ele>6.2</ele>
        <time>2020-06-18T18:54:42Z</time>
      </trkpt>
      <trkpt lat="50.48564" lon="1.61467">
        <ele>6.2</ele>
        <time>2020-06-18T18:54:43Z</time>
      </trkpt>
      <trkpt lat="50.48562" lon="1.61455">
        <ele>6.3</ele>
        <time>2020-06-18T18:54:44Z</time>
      </trkpt>
      <trkpt lat="50.48561" lon="1.61443">
        <ele>6.3</ele>
        <time>2020-06-18T18:54:45Z</time>
      </trkpt>
      <trkpt lat="50.4856" lon="1.61431">
        <ele>6.4</ele>
        <time>2020-06-18T18:54:46Z</time>
      </trkpt>
      <trkpt lat="50.48559" lon="1.61419">
        <ele>6.4</ele>
        <time>2020-06-18T18:54:47Z</time>
      </trkpt>
      <trkpt lat="50.48559" lon="1.61409">
        <ele>6.4</ele>
        <time>2020-06-18T18:54:48Z</time>
      </trkpt>
      <trkpt lat="50.4856" lon="1.61398">
        <ele>6.4</ele>
        <time>2020-06-18T18:54:49Z</time>
      </trkpt>
      <trkpt lat="50.48561" lon="1.61386">
        <ele>6.4</ele>
        <time>2020-06-18T18:54:50Z</time>
      </trkpt>
      <trkpt lat="50.48561" lon="1.61374">
        <ele>6.5</ele>
        <time>2020-06-18T18:54:51Z</time>
      </trkpt>
      <trkpt lat="50.48562" lon="1.61362">
        <ele>6.5</ele>
        <time>2020-06-18T18:54:52Z</time>
      </trkpt>
      <trkpt lat="50.48562" lon="1.61351">
        <ele>6.5</ele>
        <time>2020-06-18T18:54:53Z</time>
      </trkpt>
      <trkpt lat="50.48564" lon="1.6134">
        <ele>6.6</ele>
        <time>2020-06-18T18:54:54Z</time>
      </trkpt>
      <trkpt lat="50.48565" lon="1.61328">
        <ele>6.7</ele>
        <time>2020-06-18T18:54:55Z</time>
      </trkpt>
      <trkpt lat="50.48566" lon="1.61315">
        <ele>6.7</ele>
        <time>2020-06-18T18:54:56Z</time>
      </trkpt>
      <trkpt lat="50.48567" lon="1.61303">
        <ele>6.8</ele>
        <time>2020-06-18T18:54:57Z</time>
      </trkpt>
      <trkpt lat="50.48567" lon="1.6129">
        <ele>6.8</ele>
        <time>2020-06-18T18:54:58Z</time>
      </trkpt>
      <trkpt lat="50.48568" lon="1.61278">
        <ele>6.8</ele>
        <time>2020-06-18T18:54:59Z</time>
      </trkpt>
      <trkpt lat="50.48568" lon="1.61265">
        <ele>6.8</ele>
        <time>2020-06-18T18:55:00Z</time>
      </trkpt>
      <trkpt lat="50.48569" lon="1.61253">
        <ele>6.9</ele>
        <time>2020-06-18T18:55:01Z</time>
      </trkpt>
      <trkpt lat="50.4857" lon="1.61241">
        <ele>6.9</ele>
        <time>2020-06-18T18:55:02Z</time>
      </trkpt>
      <trkpt lat="50.48571" lon="1.6123">
        <ele>7</ele>
        <time>2020-06-18T18:55:03Z</time>
      </trkpt>
      <trkpt lat="50.48572" lon="1.61219">
        <ele>7</ele>
        <time>2020-06-18T18:55:04Z</time>
      </trkpt>
      <trkpt lat="50.48573" lon="1.61208">
        <ele>7</ele>
        <time>2020-06-18T18:55:05Z</time>
      </trkpt>
      <trkpt lat="50.48573" lon="1.61197">
        <ele>7.2</ele>
        <time>2020-06-18T18:55:06Z</time>
      </trkpt>
      <trkpt lat="50.48573" lon="1.61186">
        <ele>7.1</ele>
        <time>2020-06-18T18:55:07Z</time>
      </trkpt>
      <trkpt lat="50.48574" lon="1.61174">
        <ele>7.1</ele>
        <time>2020-06-18T18:55:08Z</time>
      </trkpt>
      <trkpt lat="50.48574" lon="1.61162">
        <ele>7.1</ele>
        <time>2020-06-18T18:55:09Z</time>
      </trkpt>
      <trkpt lat="50.48575" lon="1.61151">
        <ele>7.1</ele>
        <time>2020-06-18T18:55:10Z</time>
      </trkpt>
      <trkpt lat="50.48576" lon="1.61138">
        <ele>7.1</ele>
        <time>2020-06-18T18:55:11Z</time>
      </trkpt>
      <trkpt lat="50.48576" lon="1.61127">
        <ele>7.2</ele>
        <time>2020-06-18T18:55:12Z</time>
      </trkpt>
      <trkpt lat="50.48577" lon="1.61115">
        <ele>7.3</ele>
        <time>2020-06-18T18:55:13Z</time>
      </trkpt>
      <trkpt lat="50.48577" lon="1.61103">
        <ele>7.3</ele>
        <time>2020-06-18T18:55:14Z</time>
      </trkpt>
      <trkpt lat="50.48577" lon="1.61092">
        <ele>7.3</ele>
        <time>2020-06-18T18:55:15Z</time>
      </trkpt>
      <trkpt lat="50.48578" lon="1.61081">
        <ele>7.4</ele>
        <time>2020-06-18T18:55:16Z</time>
      </trkpt>
      <trkpt lat="50.48578" lon="1.61069">
        <ele>7.4</ele>
        <time>2020-06-18T18:55:17Z</time>
      </trkpt>
      <trkpt lat="50.4858" lon="1.61057">
        <ele>7.5</ele>
        <time>2020-06-18T18:55:18Z</time>
      </trkpt>
      <trkpt lat="50.48581" lon="1.61046">
        <ele>7.5</ele>
        <time>2020-06-18T18:55:19Z</time>
      </trkpt>
      <trkpt lat="50.48582" lon="1.61033">
        <ele>7.6</ele>
        <time>2020-06-18T18:55:20Z</time>
      </trkpt>
      <trkpt lat="50.48583" lon="1.61021">
        <ele>7.7</ele>
        <time>2020-06-18T18:55:21Z</time>
      </trkpt>
      <trkpt lat="50.48583" lon="1.61008">
        <ele>7.8</ele>
        <time>2020-06-18T18:55:22Z</time>
      </trkpt>
      <trkpt lat="50.48584" lon="1.60996">
        <ele>7.9</ele>
        <time>2020-06-18T18:55:23Z</time>
      </trkpt>
      <trkpt lat="50.48584" lon="1.60986">
        <ele>8</ele>
        <time>2020-06-18T18:55:24Z</time>
      </trkpt>
      <trkpt lat="50.48586" lon="1.60975">
        <ele>8.1</ele>
        <time>2020-06-18T18:55:25Z</time>
      </trkpt>
      <trkpt lat="50.48588" lon="1.60963">
        <ele>8.2</ele>
        <time>2020-06-18T18:55:26Z</time>
      </trkpt>
      <trkpt lat="50.48592" lon="1.60954">
        <ele>8.3</ele>
        <time>2020-06-18T18:55:27Z</time>
      </trkpt>
      <trkpt lat="50.48598" lon="1.60946">
        <ele>8.5</ele>
        <time>2020-06-18T18:55:28Z</time>
      </trkpt>
      <trkpt lat="50.48603" lon="1.60939">
        <ele>8.6</ele>
        <time>2020-06-18T18:55:29Z</time>
      </trkpt>
      <trkpt lat="50.48608" lon="1.60932">
        <ele>9</ele>
        <time>2020-06-18T18:55:30Z</time>
      </trkpt>
      <trkpt lat="50.48614" lon="1.60925">
        <ele>9.1</ele>
        <time>2020-06-18T18:55:31Z</time>
      </trkpt>
      <trkpt lat="50.48619" lon="1.6092">
        <ele>9.2</ele>
        <time>2020-06-18T18:55:32Z</time>
      </trkpt>
      <trkpt lat="50.48624" lon="1.60914">
        <ele>9.3</ele>
        <time>2020-06-18T18:55:33Z</time>
      </trkpt>
      <trkpt lat="50.48629" lon="1.60907">
        <ele>9.3</ele>
        <time>2020-06-18T18:55:34Z</time>
      </trkpt>
      <trkpt lat="50.48634" lon="1.609">
        <ele>9.4</ele>
        <time>2020-06-18T18:55:35Z</time>
      </trkpt>
      <trkpt lat="50.4864" lon="1.60894">
        <ele>9.4</ele>
        <time>2020-06-18T18:55:36Z</time>
      </trkpt>
      <trkpt lat="50.48645" lon="1.60888">
        <ele>9.5</ele>
        <time>2020-06-18T18:55:37Z</time>
      </trkpt>
      <trkpt lat="50.4865" lon="1.6088">
        <ele>9.6</ele>
        <time>2020-06-18T18:55:38Z</time>
      </trkpt>
      <trkpt lat="50.48656" lon="1.60874">
        <ele>9.7</ele>
        <time>2020-06-18T18:55:39Z</time>
      </trkpt>
      <trkpt lat="50.48662" lon="1.60867">
        <ele>9.8</ele>
        <time>2020-06-18T18:55:40Z</time>
      </trkpt>
      <trkpt lat="50.48666" lon="1.6086">
        <ele>9.9</ele>
        <time>2020-06-18T18:55:41Z</time>
      </trkpt>
      <trkpt lat="50.48671" lon="1.60853">
        <ele>10</ele>
        <time>2020-06-18T18:55:42Z</time>
      </trkpt>
      <trkpt lat="50.48677" lon="1.60846">
        <ele>10.1</ele>
        <time>2020-06-18T18:55:43Z</time>
      </trkpt>
      <trkpt lat="50.48681" lon="1.6084">
        <ele>10.2</ele>
        <time>2020-06-18T18:55:44Z</time>
      </trkpt>
      <trkpt lat="50.48686" lon="1.60832">
        <ele>10.3</ele>
        <time>2020-06-18T18:55:45Z</time>
      </trkpt>
      <trkpt lat="50.48691" lon="1.60826">
        <ele>10.4</ele>
        <time>2020-06-18T18:55:46Z</time>
      </trkpt>
      <trkpt lat="50.48695" lon="1.6082">
        <ele>10.5</ele>
        <time>2020-06-18T18:55:47Z</time>
      </trkpt>
      <trkpt lat="50.487" lon="1.60813">
        <ele>10.7</ele>
        <time>2020-06-18T18:55:48Z</time>
      </trkpt>
      <trkpt lat="50.48704" lon="1.60807">
        <ele>10.8</ele>
        <time>2020-06-18T18:55:49Z</time>
      </trkpt>
      <trkpt lat="50.48708" lon="1.60801">
        <ele>11</ele>
        <time>2020-06-18T18:55:50Z</time>
      </trkpt>
      <trkpt lat="50.48713" lon="1.60794">
        <ele>11.1</ele>
        <time>2020-06-18T18:55:51Z</time>
      </trkpt>
      <trkpt lat="50.48717" lon="1.60788">
        <ele>11.2</ele>
        <time>2020-06-18T18:55:52Z</time>
      </trkpt>
      <trkpt lat="50.48722" lon="1.60783">
        <ele>11.3</ele>
        <time>2020-06-18T18:55:53Z</time>
      </trkpt>
      <trkpt lat="50.48727" lon="1.60781">
        <ele>11.4</ele>
        <time>2020-06-18T18:55:54Z</time>
      </trkpt>
      <trkpt lat="50.48731" lon="1.60778">
        <ele>11.5</ele>
        <time>2020-06-18T18:55:55Z</time>
      </trkpt>
      <trkpt lat="50.48735" lon="1.60776">
        <ele>11.6</ele>
        <time>2020-06-18T18:55:56Z</time>
      </trkpt>
      <trkpt lat="50.48742" lon="1.60776">
        <ele>11.7</ele>
        <time>2020-06-18T18:55:57Z</time>
      </trkpt>
      <trkpt lat="50.48747" lon="1.60774">
        <ele>11.7</ele>
        <time>2020-06-18T18:55:58Z</time>
      </trkpt>
      <trkpt lat="50.48752" lon="1.60773">
        <ele>11.8</ele>
        <time>2020-06-18T18:55:59Z</time>
      </trkpt>
      <trkpt lat="50.48757" lon="1.60773">
        <ele>11.9</ele>
        <time>2020-06-18T18:56:00Z</time>
      </trkpt>
      <trkpt lat="50.48763" lon="1.60775">
        <ele>12</ele>
        <time>2020-06-18T18:56:01Z</time>
      </trkpt>
      <trkpt lat="50.48769" lon="1.60776">
        <ele>12.1</ele>
        <time>2020-06-18T18:56:02Z</time>
      </trkpt>
      <trkpt lat="50.48776" lon="1.60778">
        <ele>12.2</ele>
        <time>2020-06-18T18:56:03Z</time>
      </trkpt>
      <trkpt lat="50.48782" lon="1.60779">
        <ele>12.3</ele>
        <time>2020-06-18T18:56:04Z</time>
      </trkpt>
      <trkpt lat="50.48788" lon="1.6078">
        <ele>12.4</ele>
        <time>2020-06-18T18:56:05Z</time>
      </trkpt>
      <trkpt lat="50.48794" lon="1.60781">
        <ele>12.5</ele>
        <time>2020-06-18T18:56:06Z</time>
      </trkpt>
      <trkpt lat="50.48801" lon="1.60782">
        <ele>12.7</ele>
        <time>2020-06-18T18:56:07Z</time>
      </trkpt>
      <trkpt lat="50.48807" lon="1.60784">
        <ele>12.8</ele>
        <time>2020-06-18T18:56:08Z</time>
      </trkpt>
      <trkpt lat="50.48813" lon="1.60786">
        <ele>13</ele>
        <time>2020-06-18T18:56:09Z</time>
      </trkpt>
      <trkpt lat="50.4882" lon="1.60787">
        <ele>13.1</ele>
        <time>2020-06-18T18:56:10Z</time>
      </trkpt>
      <trkpt lat="50.48825" lon="1.60789">
        <ele>13.1</ele>
        <time>2020-06-18T18:56:11Z</time>
      </trkpt>
      <trkpt lat="50.4883" lon="1.60791">
        <ele>13.2</ele>
        <time>2020-06-18T18:56:12Z</time>
      </trkpt>
      <trkpt lat="50.48836" lon="1.60792">
        <ele>13.2</ele>
        <time>2020-06-18T18:56:13Z</time>
      </trkpt>
      <trkpt lat="50.48842" lon="1.60791">
        <ele>13.3</ele>
        <time>2020-06-18T18:56:14Z</time>
      </trkpt>
      <trkpt lat="50.48848" lon="1.6079">
        <ele>13.4</ele>
        <time>2020-06-18T18:56:15Z</time>
      </trkpt>
      <trkpt lat="50.48854" lon="1.60787">
        <ele>13.4</ele>
        <time>2020-06-18T18:56:16Z</time>
      </trkpt>
      <trkpt lat="50.4886" lon="1.60784">
        <ele>13.5</ele>
        <time>2020-06-18T18:56:17Z</time>
      </trkpt>
      <trkpt lat="50.48868" lon="1.6078">
        <ele>13.7</ele>
        <time>2020-06-18T18:56:18Z</time>
      </trkpt>
      <trkpt lat="50.48875" lon="1.60776">
        <ele>13.8</ele>
        <time>2020-06-18T18:56:19Z</time>
      </trkpt>
      <trkpt lat="50.48882" lon="1.60771">
        <ele>13.9</ele>
        <time>2020-06-18T18:56:20Z</time>
      </trkpt>
      <trkpt lat="50.48888" lon="1.60767">
        <ele>14</ele>
        <time>2020-06-18T18:56:21Z</time>
      </trkpt>
      <trkpt lat="50.48894" lon="1.60761">
        <ele>14.1</ele>
        <time>2020-06-18T18:56:22Z</time>
      </trkpt>
      <trkpt lat="50.48899" lon="1.60755">
        <ele>14.3</ele>
        <time>2020-06-18T18:56:23Z</time>
      </trkpt>
      <trkpt lat="50.48904" lon="1.60747">
        <ele>14.4</ele>
        <time>2020-06-18T18:56:24Z</time>
      </trkpt>
      <trkpt lat="50.48908" lon="1.6074">
        <ele>14.6</ele>
        <time>2020-06-18T18:56:25Z</time>
      </trkpt>
      <trkpt lat="50.48912" lon="1.60733">
        <ele>14.8</ele>
        <time>2020-06-18T18:56:26Z</time>
      </trkpt>
      <trkpt lat="50.48916" lon="1.60726">
        <ele>15</ele>
        <time>2020-06-18T18:56:27Z</time>
      </trkpt>
      <trkpt lat="50.4892" lon="1.60719">
        <ele>15.2</ele>
        <time>2020-06-18T18:56:28Z</time>
      </trkpt>
      <trkpt lat="50.48924" lon="1.60714">
        <ele>15.3</ele>
        <time>2020-06-18T18:56:29Z</time>
      </trkpt>
      <trkpt lat="50.48928" lon="1.60708">
        <ele>15.5</ele>
        <time>2020-06-18T18:56:30Z</time>
      </trkpt>
      <trkpt lat="50.48932" lon="1.60702">
        <ele>15.6</ele>
        <time>2020-06-18T18:56:31Z</time>
      </trkpt>
      <trkpt lat="50.48936" lon="1.60696">
        <ele>15.7</ele>
        <time>2020-06-18T18:56:32Z</time>
      </trkpt>
      <trkpt lat="50.48939" lon="1.6069">
        <ele>15.8</ele>
        <time>2020-06-18T18:56:33Z</time>
      </trkpt>
      <trkpt lat="50.48943" lon="1.60683">
        <ele>16</ele>
        <time>2020-06-18T18:56:34Z</time>
      </trkpt>
      <trkpt lat="50.48948" lon="1.60675">
        <ele>16.1</ele>
        <time>2020-06-18T18:56:35Z</time>
      </trkpt>
      <trkpt lat="50.48952" lon="1.60667">
        <ele>16.3</ele>
        <time>2020-06-18T18:56:36Z</time>
      </trkpt>
      <trkpt lat="50.48957" lon="1.60659">
        <ele>16.2</ele>
        <time>2020-06-18T18:56:37Z</time>
      </trkpt>
      <trkpt lat="50.48961" lon="1.60652">
        <ele>16.1</ele>
        <time>2020-06-18T18:56:38Z</time>
      </trkpt>
      <trkpt lat="50.48966" lon="1.60645">
        <ele>15.9</ele>
        <time>2020-06-18T18:56:39Z</time>
      </trkpt>
      <trkpt lat="50.48971" lon="1.60637">
        <ele>15.8</ele>
        <time>2020-06-18T18:56:40Z</time>
      </trkpt>
      <trkpt lat="50.48975" lon="1.60629">
        <ele>15.7</ele>
        <time>2020-06-18T18:56:41Z</time>
      </trkpt>
      <trkpt lat="50.4898" lon="1.60621">
        <ele>15.6</ele>
        <time>2020-06-18T18:56:42Z</time>
      </trkpt>
      <trkpt lat="50.48984" lon="1.60614">
        <ele>15.5</ele>
        <time>2020-06-18T18:56:43Z</time>
      </trkpt>
      <trkpt lat="50.48989" lon="1.60605">
        <ele>15.3</ele>
        <time>2020-06-18T18:56:44Z</time>
      </trkpt>
      <trkpt lat="50.48993" lon="1.60596">
        <ele>15.2</ele>
        <time>2020-06-18T18:56:45Z</time>
      </trkpt>
      <trkpt lat="50.48998" lon="1.60587">
        <ele>14.9</ele>
        <time>2020-06-18T18:56:46Z</time>
      </trkpt>
      <trkpt lat="50.49003" lon="1.60579">
        <ele>14.9</ele>
        <time>2020-06-18T18:56:47Z</time>
      </trkpt>
      <trkpt lat="50.49008" lon="1.6057">
        <ele>14.7</ele>
        <time>2020-06-18T18:56:48Z</time>
      </trkpt>
      <trkpt lat="50.49013" lon="1.60561">
        <ele>14.5</ele>
        <time>2020-06-18T18:56:49Z</time>
      </trkpt>
      <trkpt lat="50.49018" lon="1.60551">
        <ele>14.3</ele>
        <time>2020-06-18T18:56:50Z</time>
      </trkpt>
      <trkpt lat="50.49023" lon="1.60541">
        <ele>14</ele>
        <time>2020-06-18T18:56:51Z</time>
      </trkpt>
      <trkpt lat="50.49028" lon="1.60531">
        <ele>13.8</ele>
        <time>2020-06-18T18:56:52Z</time>
      </trkpt>
      <trkpt lat="50.49033" lon="1.60521">
        <ele>13.6</ele>
        <time>2020-06-18T18:56:53Z</time>
      </trkpt>
      <trkpt lat="50.49038" lon="1.60509">
        <ele>13.4</ele>
        <time>2020-06-18T18:56:54Z</time>
      </trkpt>
      <trkpt lat="50.49043" lon="1.60497">
        <ele>13.1</ele>
        <time>2020-06-18T18:56:55Z</time>
      </trkpt>
      <trkpt lat="50.49049" lon="1.60486">
        <ele>12.9</ele>
        <time>2020-06-18T18:56:56Z</time>
      </trkpt>
      <trkpt lat="50.49053" lon="1.60474">
        <ele>12.8</ele>
        <time>2020-06-18T18:56:57Z</time>
      </trkpt>
      <trkpt lat="50.49059" lon="1.60463">
        <ele>12.6</ele>
        <time>2020-06-18T18:56:58Z</time>
      </trkpt>
      <trkpt lat="50.49064" lon="1.60451">
        <ele>12.5</ele>
        <time>2020-06-18T18:56:59Z</time>
      </trkpt>
      <trkpt lat="50.4907" lon="1.60439">
        <ele>12.4</ele>
        <time>2020-06-18T18:57:00Z</time>
      </trkpt>
      <trkpt lat="50.49075" lon="1.60428">
        <ele>12.4</ele>
        <time>2020-06-18T18:57:01Z</time>
      </trkpt>
      <trkpt lat="50.4908" lon="1.60416">
        <ele>12.4</ele>
        <time>2020-06-18T18:57:02Z</time>
      </trkpt>
      <trkpt lat="50.49085" lon="1.60404">
        <ele>12.4</ele>
        <time>2020-06-18T18:57:03Z</time>
      </trkpt>
      <trkpt lat="50.4909" lon="1.60393">
        <ele>12.4</ele>
        <time>2020-06-18T18:57:04Z</time>
      </trkpt>
      <trkpt lat="50.49094" lon="1.6038">
        <ele>12.3</ele>
        <time>2020-06-18T18:57:05Z</time>
      </trkpt>
      <trkpt lat="50.49099" lon="1.60367">
        <ele>12.3</ele>
        <time>2020-06-18T18:57:06Z</time>
      </trkpt>
      <trkpt lat="50.49105" lon="1.60356">
        <ele>12.3</ele>
        <time>2020-06-18T18:57:07Z</time>
      </trkpt>
      <trkpt lat="50.49109" lon="1.60345">
        <ele>12.3</ele>
        <time>2020-06-18T18:57:08Z</time>
      </trkpt>
      <trkpt lat="50.49115" lon="1.60335">
        <ele>12.3</ele>
        <time>2020-06-18T18:57:09Z</time>
      </trkpt>
      <trkpt lat="50.4912" lon="1.60324">
        <ele>12.3</ele>
        <time>2020-06-18T18:57:10Z</time>
      </trkpt>
      <trkpt lat="50.49125" lon="1.60314">
        <ele>12.3</ele>
        <time>2020-06-18T18:57:11Z</time>
      </trkpt>
      <trkpt lat="50.4913" lon="1.60304">
        <ele>12.3</ele>
        <time>2020-06-18T18:57:12Z</time>
      </trkpt>
      <trkpt lat="50.49135" lon="1.60294">
        <ele>12.3</ele>
        <time>2020-06-18T18:57:13Z</time>
      </trkpt>
      <trkpt lat="50.49139" lon="1.60283">
        <ele>12.4</ele>
        <time>2020-06-18T18:57:14Z</time>
      </trkpt>
      <trkpt lat="50.49143" lon="1.60272">
        <ele>12.4</ele>
        <time>2020-06-18T18:57:15Z</time>
      </trkpt>
      <trkpt lat="50.49147" lon="1.60262">
        <ele>12.4</ele>
        <time>2020-06-18T18:57:16Z</time>
      </trkpt>
      <trkpt lat="50.49152" lon="1.60251">
        <ele>12.4</ele>
        <time>2020-06-18T18:57:17Z</time>
      </trkpt>
      <trkpt lat="50.49156" lon="1.60241">
        <ele>12.5</ele>
        <time>2020-06-18T18:57:18Z</time>
      </trkpt>
      <trkpt lat="50.49161" lon="1.6023">
        <ele>12.5</ele>
        <time>2020-06-18T18:57:19Z</time>
      </trkpt>
      <trkpt lat="50.49165" lon="1.6022">
        <ele>12.5</ele>
        <time>2020-06-18T18:57:20Z</time>
      </trkpt>
      <trkpt lat="50.49171" lon="1.6021">
        <ele>12.5</ele>
        <time>2020-06-18T18:57:21Z</time>
      </trkpt>
      <trkpt lat="50.49176" lon="1.60201">
        <ele>12.5</ele>
        <time>2020-06-18T18:57:22Z</time>
      </trkpt>
      <trkpt lat="50.49181" lon="1.60191">
        <ele>12.5</ele>
        <time>2020-06-18T18:57:23Z</time>
      </trkpt>
      <trkpt lat="50.49185" lon="1.60181">
        <ele>12.5</ele>
        <time>2020-06-18T18:57:24Z</time>
      </trkpt>
      <trkpt lat="50.4919" lon="1.60171">
        <ele>12.5</ele>
        <time>2020-06-18T18:57:25Z</time>
      </trkpt>
      <trkpt lat="50.49194" lon="1.60161">
        <ele>12.5</ele>
        <time>2020-06-18T18:57:26Z</time>
      </trkpt>
      <trkpt lat="50.49198" lon="1.60152">
        <ele>12.5</ele>
        <time>2020-06-18T18:57:27Z</time>
      </trkpt>
      <trkpt lat="50.49203" lon="1.60143">
        <ele>12.5</ele>
        <time>2020-06-18T18:57:28Z</time>
      </trkpt>
      <trkpt lat="50.49207" lon="1.60133">
        <ele>12.5</ele>
        <time>2020-06-18T18:57:29Z</time>
      </trkpt>
      <trkpt lat="50.49212" lon="1.60123">
        <ele>12.4</ele>
        <time>2020-06-18T18:57:30Z</time>
      </trkpt>
      <trkpt lat="50.49216" lon="1.60113">
        <ele>12.4</ele>
        <time>2020-06-18T18:57:31Z</time>
      </trkpt>
      <trkpt lat="50.49221" lon="1.60103">
        <ele>12.4</ele>
        <time>2020-06-18T18:57:32Z</time>
      </trkpt>
      <trkpt lat="50.49226" lon="1.60093">
        <ele>12.4</ele>
        <time>2020-06-18T18:57:33Z</time>
      </trkpt>
      <trkpt lat="50.49231" lon="1.60085">
        <ele>12.4</ele>
        <time>2020-06-18T18:57:34Z</time>
      </trkpt>
      <trkpt lat="50.49235" lon="1.60075">
        <ele>12.5</ele>
        <time>2020-06-18T18:57:35Z</time>
      </trkpt>
      <trkpt lat="50.49239" lon="1.60064">
        <ele>12.5</ele>
        <time>2020-06-18T18:57:36Z</time>
      </trkpt>
      <trkpt lat="50.49244" lon="1.60054">
        <ele>12.6</ele>
        <time>2020-06-18T18:57:37Z</time>
      </trkpt>
      <trkpt lat="50.49248" lon="1.60044">
        <ele>12.6</ele>
        <time>2020-06-18T18:57:38Z</time>
      </trkpt>
      <trkpt lat="50.49252" lon="1.60035">
        <ele>12.6</ele>
        <time>2020-06-18T18:57:39Z</time>
      </trkpt>
      <trkpt lat="50.49257" lon="1.60025">
        <ele>12.6</ele>
        <time>2020-06-18T18:57:40Z</time>
      </trkpt>
      <trkpt lat="50.49261" lon="1.60016">
        <ele>12.6</ele>
        <time>2020-06-18T18:57:41Z</time>
      </trkpt>
      <trkpt lat="50.49266" lon="1.60006">
        <ele>12.7</ele>
        <time>2020-06-18T18:57:42Z</time>
      </trkpt>
      <trkpt lat="50.4927" lon="1.59996">
        <ele>12.7</ele>
        <time>2020-06-18T18:57:43Z</time>
      </trkpt>
      <trkpt lat="50.49275" lon="1.59986">
        <ele>12.7</ele>
        <time>2020-06-18T18:57:44Z</time>
      </trkpt>
      <trkpt lat="50.49279" lon="1.59977">
        <ele>12.7</ele>
        <time>2020-06-18T18:57:45Z</time>
      </trkpt>
      <trkpt lat="50.49283" lon="1.59967">
        <ele>12.7</ele>
        <time>2020-06-18T18:57:46Z</time>
      </trkpt>
      <trkpt lat="50.49288" lon="1.59957">
        <ele>12.7</ele>
        <time>2020-06-18T18:57:47Z</time>
      </trkpt>
      <trkpt lat="50.49293" lon="1.59948">
        <ele>12.7</ele>
        <time>2020-06-18T18:57:48Z</time>
      </trkpt>
      <trkpt lat="50.49297" lon="1.59939">
        <ele>12.7</ele>
        <time>2020-06-18T18:57:49Z</time>
      </trkpt>
      <trkpt lat="50.49302" lon="1.59929">
        <ele>12.8</ele>
        <time>2020-06-18T18:57:50Z</time>
      </trkpt>
      <trkpt lat="50.49306" lon="1.59919">
        <ele>12.8</ele>
        <time>2020-06-18T18:57:51Z</time>
      </trkpt>
      <trkpt lat="50.4931" lon="1.59909">
        <ele>12.8</ele>
        <time>2020-06-18T18:57:52Z</time>
      </trkpt>
      <trkpt lat="50.49314" lon="1.59899">
        <ele>12.8</ele>
        <time>2020-06-18T18:57:53Z</time>
      </trkpt>
      <trkpt lat="50.49319" lon="1.5989">
        <ele>12.8</ele>
        <time>2020-06-18T18:57:54Z</time>
      </trkpt>
      <trkpt lat="50.49323" lon="1.59881">
        <ele>12.8</ele>
        <time>2020-06-18T18:57:55Z</time>
      </trkpt>
      <trkpt lat="50.49327" lon="1.59871">
        <ele>12.9</ele>
        <time>2020-06-18T18:57:56Z</time>
      </trkpt>
      <trkpt lat="50.49331" lon="1.59862">
        <ele>12.9</ele>
        <time>2020-06-18T18:57:57Z</time>
      </trkpt>
      <trkpt lat="50.49336" lon="1.59854">
        <ele>12.9</ele>
        <time>2020-06-18T18:57:58Z</time>
      </trkpt>
      <trkpt lat="50.49341" lon="1.59845">
        <ele>13</ele>
        <time>2020-06-18T18:57:59Z</time>
      </trkpt>
      <trkpt lat="50.49345" lon="1.59836">
        <ele>13</ele>
        <time>2020-06-18T18:58:00Z</time>
      </trkpt>
      <trkpt lat="50.4935" lon="1.59827">
        <ele>13</ele>
        <time>2020-06-18T18:58:01Z</time>
      </trkpt>
      <trkpt lat="50.49355" lon="1.59817">
        <ele>12.9</ele>
        <time>2020-06-18T18:58:02Z</time>
      </trkpt>
      <trkpt lat="50.4936" lon="1.59808">
        <ele>12.9</ele>
        <time>2020-06-18T18:58:03Z</time>
      </trkpt>
      <trkpt lat="50.49365" lon="1.59799">
        <ele>12.9</ele>
        <time>2020-06-18T18:58:04Z</time>
      </trkpt>
      <trkpt lat="50.49369" lon="1.5979">
        <ele>12.9</ele>
        <time>2020-06-18T18:58:05Z</time>
      </trkpt>
      <trkpt lat="50.49373" lon="1.5978">
        <ele>12.9</ele>
        <time>2020-06-18T18:58:06Z</time>
      </trkpt>
      <trkpt lat="50.49378" lon="1.59771">
        <ele>12.9</ele>
        <time>2020-06-18T18:58:07Z</time>
      </trkpt>
      <trkpt lat="50.49382" lon="1.59762">
        <ele>12.9</ele>
        <time>2020-06-18T18:58:08Z</time>
      </trkpt>
      <trkpt lat="50.49387" lon="1.59752">
        <ele>12.9</ele>
        <time>2020-06-18T18:58:09Z</time>
      </trkpt>
      <trkpt lat="50.49391" lon="1.59743">
        <ele>12.9</ele>
        <time>2020-06-18T18:58:10Z</time>
      </trkpt>
      <trkpt lat="50.49396" lon="1.59734">
        <ele>13</ele>
        <time>2020-06-18T18:58:11Z</time>
      </trkpt>
      <trkpt lat="50.49401" lon="1.59726">
        <ele>13</ele>
        <time>2020-06-18T18:58:12Z</time>
      </trkpt>
      <trkpt lat="50.49405" lon="1.59716">
        <ele>13</ele>
        <time>2020-06-18T18:58:13Z</time>
      </trkpt>
      <trkpt lat="50.4941" lon="1.59706">
        <ele>13</ele>
        <time>2020-06-18T18:58:14Z</time>
      </trkpt>
      <trkpt lat="50.49414" lon="1.59697">
        <ele>13.1</ele>
        <time>2020-06-18T18:58:15Z</time>
      </trkpt>
      <trkpt lat="50.49419" lon="1.59687">
        <ele>13.1</ele>
        <time>2020-06-18T18:58:16Z</time>
      </trkpt>
      <trkpt lat="50.49422" lon="1.59677">
        <ele>13.1</ele>
        <time>2020-06-18T18:58:17Z</time>
      </trkpt>
      <trkpt lat="50.49426" lon="1.59667">
        <ele>13.1</ele>
        <time>2020-06-18T18:58:18Z</time>
      </trkpt>
      <trkpt lat="50.4943" lon="1.59658">
        <ele>13.1</ele>
        <time>2020-06-18T18:58:19Z</time>
      </trkpt>
      <trkpt lat="50.49434" lon="1.59649">
        <ele>13.1</ele>
        <time>2020-06-18T18:58:20Z</time>
      </trkpt>
      <trkpt lat="50.49438" lon="1.5964">
        <ele>13.1</ele>
        <time>2020-06-18T18:58:21Z</time>
      </trkpt>
      <trkpt lat="50.49443" lon="1.59631">
        <ele>13.1</ele>
        <time>2020-06-18T18:58:22Z</time>
      </trkpt>
      <trkpt lat="50.49447" lon="1.59621">
        <ele>13.1</ele>
        <time>2020-06-18T18:58:23Z</time>
      </trkpt>
      <trkpt lat="50.4945" lon="1.5961">
        <ele>13.1</ele>
        <time>2020-06-18T18:58:24Z</time>
      </trkpt>
      <trkpt lat="50.49453" lon="1.59599">
        <ele>13.1</ele>
        <time>2020-06-18T18:58:25Z</time>
      </trkpt>
      <trkpt lat="50.49457" lon="1.59588">
        <ele>13.2</ele>
        <time>2020-06-18T18:58:26Z</time>
      </trkpt>
      <trkpt lat="50.49461" lon="1.59577">
        <ele>13.2</ele>
        <time>2020-06-18T18:58:27Z</time>
      </trkpt>
      <trkpt lat="50.49465" lon="1.59567">
        <ele>13.2</ele>
        <time>2020-06-18T18:58:28Z</time>
      </trkpt>
      <trkpt lat="50.49468" lon="1.59555">
        <ele>13.2</ele>
        <time>2020-06-18T18:58:29Z</time>
      </trkpt>
      <trkpt lat="50.49473" lon="1.59544">
        <ele>13.3</ele>
        <time>2020-06-18T18:58:30Z</time>
      </trkpt>
      <trkpt lat="50.49477" lon="1.59534">
        <ele>13.4</ele>
        <time>2020-06-18T18:58:31Z</time>
      </trkpt>
      <trkpt lat="50.49481" lon="1.59523">
        <ele>13.4</ele>
        <time>2020-06-18T18:58:32Z</time>
      </trkpt>
      <trkpt lat="50.49485" lon="1.59512">
        <ele>13.5</ele>
        <time>2020-06-18T18:58:33Z</time>
      </trkpt>
      <trkpt lat="50.49489" lon="1.59501">
        <ele>13.6</ele>
        <time>2020-06-18T18:58:34Z</time>
      </trkpt>
      <trkpt lat="50.49493" lon="1.5949">
        <ele>13.6</ele>
        <time>2020-06-18T18:58:35Z</time>
      </trkpt>
      <trkpt lat="50.49497" lon="1.59479">
        <ele>13.7</ele>
        <time>2020-06-18T18:58:36Z</time>
      </trkpt>
      <trkpt lat="50.49501" lon="1.59469">
        <ele>13.7</ele>
        <time>2020-06-18T18:58:37Z</time>
      </trkpt>
      <trkpt lat="50.49504" lon="1.59458">
        <ele>13.7</ele>
        <time>2020-06-18T18:58:38Z</time>
      </trkpt>
      <trkpt lat="50.49509" lon="1.59448">
        <ele>13.8</ele>
        <time>2020-06-18T18:58:39Z</time>
      </trkpt>
      <trkpt lat="50.49512" lon="1.59438">
        <ele>13.8</ele>
        <time>2020-06-18T18:58:40Z</time>
      </trkpt>
      <trkpt lat="50.49515" lon="1.59427">
        <ele>13.8</ele>
        <time>2020-06-18T18:58:41Z</time>
      </trkpt>
      <trkpt lat="50.49519" lon="1.59417">
        <ele>13.8</ele>
        <time>2020-06-18T18:58:42Z</time>
      </trkpt>
      <trkpt lat="50.49522" lon="1.59407">
        <ele>13.9</ele>
        <time>2020-06-18T18:58:43Z</time>
      </trkpt>
      <trkpt lat="50.49525" lon="1.59396">
        <ele>13.9</ele>
        <time>2020-06-18T18:58:44Z</time>
      </trkpt>
      <trkpt lat="50.49528" lon="1.59386">
        <ele>13.9</ele>
        <time>2020-06-18T18:58:45Z</time>
      </trkpt>
      <trkpt lat="50.49531" lon="1.59375">
        <ele>13.9</ele>
        <time>2020-06-18T18:58:46Z</time>
      </trkpt>
      <trkpt lat="50.49535" lon="1.59364">
        <ele>14</ele>
        <time>2020-06-18T18:58:47Z</time>
      </trkpt>
      <trkpt lat="50.49539" lon="1.59354">
        <ele>14</ele>
        <time>2020-06-18T18:58:48Z</time>
      </trkpt>
      <trkpt lat="50.49543" lon="1.59344">
        <ele>14</ele>
        <time>2020-06-18T18:58:49Z</time>
      </trkpt>
      <trkpt lat="50.49547" lon="1.59335">
        <ele>14</ele>
        <time>2020-06-18T18:58:50Z</time>
      </trkpt>
      <trkpt lat="50.49553" lon="1.59325">
        <ele>14</ele>
        <time>2020-06-18T18:58:51Z</time>
      </trkpt>
      <trkpt lat="50.49557" lon="1.59315">
        <ele>14</ele>
        <time>2020-06-18T18:58:52Z</time>
      </trkpt>
      <trkpt lat="50.49562" lon="1.59306">
        <ele>14</ele>
        <time>2020-06-18T18:58:53Z</time>
      </trkpt>
      <trkpt lat="50.49566" lon="1.59296">
        <ele>14.1</ele>
        <time>2020-06-18T18:58:54Z</time>
      </trkpt>
      <trkpt lat="50.49571" lon="1.59287">
        <ele>14.1</ele>
        <time>2020-06-18T18:58:55Z</time>
      </trkpt>
      <trkpt lat="50.49576" lon="1.59278">
        <ele>14.1</ele>
        <time>2020-06-18T18:58:56Z</time>
      </trkpt>
      <trkpt lat="50.4958" lon="1.59269">
        <ele>14.2</ele>
        <time>2020-06-18T18:58:57Z</time>
      </trkpt>
      <trkpt lat="50.49585" lon="1.59261">
        <ele>14.2</ele>
        <time>2020-06-18T18:58:58Z</time>
      </trkpt>
      <trkpt lat="50.4959" lon="1.59252">
        <ele>14.3</ele>
        <time>2020-06-18T18:58:59Z</time>
      </trkpt>
      <trkpt lat="50.49595" lon="1.59244">
        <ele>14.3</ele>
        <time>2020-06-18T18:59:00Z</time>
      </trkpt>
      <trkpt lat="50.496" lon="1.59236">
        <ele>14.4</ele>
        <time>2020-06-18T18:59:01Z</time>
      </trkpt>
      <trkpt lat="50.49605" lon="1.59228">
        <ele>14.4</ele>
        <time>2020-06-18T18:59:02Z</time>
      </trkpt>
      <trkpt lat="50.4961" lon="1.59221">
        <ele>14.4</ele>
        <time>2020-06-18T18:59:03Z</time>
      </trkpt>
      <trkpt lat="50.49616" lon="1.59212">
        <ele>14.5</ele>
        <time>2020-06-18T18:59:04Z</time>
      </trkpt>
      <trkpt lat="50.49622" lon="1.59204">
        <ele>14.5</ele>
        <time>2020-06-18T18:59:05Z</time>
      </trkpt>
      <trkpt lat="50.49629" lon="1.59198">
        <ele>14.5</ele>
        <time>2020-06-18T18:59:06Z</time>
      </trkpt>
      <trkpt lat="50.49635" lon="1.59192">
        <ele>14.4</ele>
        <time>2020-06-18T18:59:07Z</time>
      </trkpt>
      <trkpt lat="50.49642" lon="1.59188">
        <ele>14.4</ele>
        <time>2020-06-18T18:59:08Z</time>
      </trkpt>
      <trkpt lat="50.49649" lon="1.59183">
        <ele>14.3</ele>
        <time>2020-06-18T18:59:09Z</time>
      </trkpt>
      <trkpt lat="50.49657" lon="1.59179">
        <ele>14.3</ele>
        <time>2020-06-18T18:59:10Z</time>
      </trkpt>
      <trkpt lat="50.49664" lon="1.59173">
        <ele>14.2</ele>
        <time>2020-06-18T18:59:11Z</time>
      </trkpt>
      <trkpt lat="50.49671" lon="1.59169">
        <ele>14.2</ele>
        <time>2020-06-18T18:59:12Z</time>
      </trkpt>
      <trkpt lat="50.49678" lon="1.59166">
        <ele>14.1</ele>
        <time>2020-06-18T18:59:13Z</time>
      </trkpt>
      <trkpt lat="50.49686" lon="1.59163">
        <ele>14.1</ele>
        <time>2020-06-18T18:59:14Z</time>
      </trkpt>
      <trkpt lat="50.49693" lon="1.5916">
        <ele>14.1</ele>
        <time>2020-06-18T18:59:15Z</time>
      </trkpt>
      <trkpt lat="50.497" lon="1.59158">
        <ele>14.1</ele>
        <time>2020-06-18T18:59:16Z</time>
      </trkpt>
      <trkpt lat="50.49707" lon="1.59155">
        <ele>14.2</ele>
        <time>2020-06-18T18:59:17Z</time>
      </trkpt>
      <trkpt lat="50.49715" lon="1.59151">
        <ele>14.2</ele>
        <time>2020-06-18T18:59:18Z</time>
      </trkpt>
      <trkpt lat="50.49722" lon="1.59148">
        <ele>14.3</ele>
        <time>2020-06-18T18:59:19Z</time>
      </trkpt>
      <trkpt lat="50.4973" lon="1.59147">
        <ele>14.5</ele>
        <time>2020-06-18T18:59:20Z</time>
      </trkpt>
      <trkpt lat="50.49737" lon="1.59145">
        <ele>14.6</ele>
        <time>2020-06-18T18:59:21Z</time>
      </trkpt>
      <trkpt lat="50.49744" lon="1.59143">
        <ele>14.6</ele>
        <time>2020-06-18T18:59:22Z</time>
      </trkpt>
      <trkpt lat="50.49751" lon="1.59141">
        <ele>14.7</ele>
        <time>2020-06-18T18:59:23Z</time>
      </trkpt>
      <trkpt lat="50.49758" lon="1.59139">
        <ele>14.8</ele>
        <time>2020-06-18T18:59:24Z</time>
      </trkpt>
      <trkpt lat="50.49765" lon="1.59138">
        <ele>14.8</ele>
        <time>2020-06-18T18:59:25Z</time>
      </trkpt>
      <trkpt lat="50.49772" lon="1.59135">
        <ele>14.8</ele>
        <time>2020-06-18T18:59:26Z</time>
      </trkpt>
      <trkpt lat="50.4978" lon="1.59135">
        <ele>14.8</ele>
        <time>2020-06-18T18:59:27Z</time>
      </trkpt>
      <trkpt lat="50.49788" lon="1.59133">
        <ele>14.8</ele>
        <time>2020-06-18T18:59:28Z</time>
      </trkpt>
      <trkpt lat="50.49796" lon="1.59131">
        <ele>14.8</ele>
        <time>2020-06-18T18:59:29Z</time>
      </trkpt>
      <trkpt lat="50.49803" lon="1.5913">
        <ele>14.7</ele>
        <time>2020-06-18T18:59:30Z</time>
      </trkpt>
      <trkpt lat="50.49811" lon="1.59129">
        <ele>14.6</ele>
        <time>2020-06-18T18:59:31Z</time>
      </trkpt>
      <trkpt lat="50.49819" lon="1.59128">
        <ele>14.5</ele>
        <time>2020-06-18T18:59:32Z</time>
      </trkpt>
      <trkpt lat="50.49827" lon="1.59127">
        <ele>14.3</ele>
        <time>2020-06-18T18:59:33Z</time>
      </trkpt>
      <trkpt lat="50.49835" lon="1.59126">
        <ele>14.2</ele>
        <time>2020-06-18T18:59:34Z</time>
      </trkpt>
      <trkpt lat="50.49843" lon="1.59125">
        <ele>14</ele>
        <time>2020-06-18T18:59:35Z</time>
      </trkpt>
      <trkpt lat="50.49851" lon="1.59124">
        <ele>13.9</ele>
        <time>2020-06-18T18:59:36Z</time>
      </trkpt>
      <trkpt lat="50.49858" lon="1.59124">
        <ele>13.7</ele>
        <time>2020-06-18T18:59:37Z</time>
      </trkpt>
      <trkpt lat="50.49866" lon="1.59125">
        <ele>13.6</ele>
        <time>2020-06-18T18:59:38Z</time>
      </trkpt>
      <trkpt lat="50.49874" lon="1.59126">
        <ele>13.4</ele>
        <time>2020-06-18T18:59:39Z</time>
      </trkpt>
      <trkpt lat="50.49882" lon="1.59127">
        <ele>13.3</ele>
        <time>2020-06-18T18:59:40Z</time>
      </trkpt>
      <trkpt lat="50.4989" lon="1.59127">
        <ele>13.2</ele>
        <time>2020-06-18T18:59:41Z</time>
      </trkpt>
      <trkpt lat="50.49898" lon="1.59129">
        <ele>13.2</ele>
        <time>2020-06-18T18:59:42Z</time>
      </trkpt>
      <trkpt lat="50.49906" lon="1.59131">
        <ele>13.1</ele>
        <time>2020-06-18T18:59:43Z</time>
      </trkpt>
      <trkpt lat="50.49914" lon="1.59135">
        <ele>13.1</ele>
        <time>2020-06-18T18:59:44Z</time>
      </trkpt>
      <trkpt lat="50.49921" lon="1.59139">
        <ele>13.1</ele>
        <time>2020-06-18T18:59:45Z</time>
      </trkpt>
      <trkpt lat="50.49928" lon="1.59144">
        <ele>13.1</ele>
        <time>2020-06-18T18:59:46Z</time>
      </trkpt>
      <trkpt lat="50.49935" lon="1.59149">
        <ele>13.1</ele>
        <time>2020-06-18T18:59:47Z</time>
      </trkpt>
      <trkpt lat="50.49941" lon="1.59154">
        <ele>13.1</ele>
        <time>2020-06-18T18:59:48Z</time>
      </trkpt>
      <trkpt lat="50.49947" lon="1.59159">
        <ele>13.1</ele>
        <time>2020-06-18T18:59:49Z</time>
      </trkpt>
      <trkpt lat="50.49953" lon="1.59165">
        <ele>13.1</ele>
        <time>2020-06-18T18:59:50Z</time>
      </trkpt>
      <trkpt lat="50.49959" lon="1.59171">
        <ele>13</ele>
        <time>2020-06-18T18:59:51Z</time>
      </trkpt>
      <trkpt lat="50.49966" lon="1.59178">
        <ele>13</ele>
        <time>2020-06-18T18:59:52Z</time>
      </trkpt>
      <trkpt lat="50.49973" lon="1.59184">
        <ele>12.9</ele>
        <time>2020-06-18T18:59:53Z</time>
      </trkpt>
      <trkpt lat="50.49979" lon="1.59191">
        <ele>12.9</ele>
        <time>2020-06-18T18:59:54Z</time>
      </trkpt>
      <trkpt lat="50.49985" lon="1.59199">
        <ele>12.8</ele>
        <time>2020-06-18T18:59:55Z</time>
      </trkpt>
      <trkpt lat="50.49991" lon="1.59207">
        <ele>12.8</ele>
        <time>2020-06-18T18:59:56Z</time>
      </trkpt>
      <trkpt lat="50.49997" lon="1.59214">
        <ele>12.8</ele>
        <time>2020-06-18T18:59:57Z</time>
      </trkpt>
      <trkpt lat="50.50003" lon="1.59223">
        <ele>12.8</ele>
        <time>2020-06-18T18:59:58Z</time>
      </trkpt>
      <trkpt lat="50.5001" lon="1.5923">
        <ele>12.8</ele>
        <time>2020-06-18T18:59:59Z</time>
      </trkpt>
      <trkpt lat="50.50016" lon="1.59237">
        <ele>12.8</ele>
        <time>2020-06-18T19:00:00Z</time>
      </trkpt>
      <trkpt lat="50.50023" lon="1.59244">
        <ele>12.8</ele>
        <time>2020-06-18T19:00:01Z</time>
      </trkpt>
      <trkpt lat="50.50029" lon="1.59253">
        <ele>12.9</ele>
        <time>2020-06-18T19:00:02Z</time>
      </trkpt>
      <trkpt lat="50.50036" lon="1.5926">
        <ele>12.9</ele>
        <time>2020-06-18T19:00:03Z</time>
      </trkpt>
      <trkpt lat="50.50042" lon="1.59269">
        <ele>12.9</ele>
        <time>2020-06-18T19:00:04Z</time>
      </trkpt>
      <trkpt lat="50.50049" lon="1.59276">
        <ele>12.9</ele>
        <time>2020-06-18T19:00:05Z</time>
      </trkpt>
      <trkpt lat="50.50054" lon="1.59287">
        <ele>13</ele>
        <time>2020-06-18T19:00:06Z</time>
      </trkpt>
      <trkpt lat="50.50059" lon="1.59297">
        <ele>13</ele>
        <time>2020-06-18T19:00:07Z</time>
      </trkpt>
      <trkpt lat="50.50064" lon="1.59306">
        <ele>13.1</ele>
        <time>2020-06-18T19:00:08Z</time>
      </trkpt>
      <trkpt lat="50.50069" lon="1.59314">
        <ele>13.1</ele>
        <time>2020-06-18T19:00:09Z</time>
      </trkpt>
      <trkpt lat="50.50074" lon="1.59322">
        <ele>13.2</ele>
        <time>2020-06-18T19:00:10Z</time>
      </trkpt>
      <trkpt lat="50.50079" lon="1.59331">
        <ele>13.2</ele>
        <time>2020-06-18T19:00:11Z</time>
      </trkpt>
      <trkpt lat="50.50083" lon="1.59339">
        <ele>13.4</ele>
        <time>2020-06-18T19:00:12Z</time>
      </trkpt>
      <trkpt lat="50.50089" lon="1.59339">
        <ele>13.4</ele>
        <time>2020-06-18T19:00:13Z</time>
      </trkpt>
      <trkpt lat="50.50095" lon="1.59339">
        <ele>13.7</ele>
        <time>2020-06-18T19:00:14Z</time>
      </trkpt>
      <trkpt lat="50.501" lon="1.59332">
        <ele>13.7</ele>
        <time>2020-06-18T19:00:15Z</time>
      </trkpt>
      <trkpt lat="50.50106" lon="1.59328">
        <ele>13.7</ele>
        <time>2020-06-18T19:00:16Z</time>
      </trkpt>
      <trkpt lat="50.50112" lon="1.59323">
        <ele>13.7</ele>
        <time>2020-06-18T19:00:17Z</time>
      </trkpt>
      <trkpt lat="50.50117" lon="1.59318">
        <ele>13.5</ele>
        <time>2020-06-18T19:00:18Z</time>
      </trkpt>
      <trkpt lat="50.50124" lon="1.59313">
        <ele>13.3</ele>
        <time>2020-06-18T19:00:19Z</time>
      </trkpt>
      <trkpt lat="50.50131" lon="1.59309">
        <ele>13.2</ele>
        <time>2020-06-18T19:00:20Z</time>
      </trkpt>
      <trkpt lat="50.50138" lon="1.59308">
        <ele>13.1</ele>
        <time>2020-06-18T19:00:21Z</time>
      </trkpt>
      <trkpt lat="50.50145" lon="1.59305">
        <ele>13.1</ele>
        <time>2020-06-18T19:00:22Z</time>
      </trkpt>
      <trkpt lat="50.50152" lon="1.59304">
        <ele>13</ele>
        <time>2020-06-18T19:00:23Z</time>
      </trkpt>
      <trkpt lat="50.50159" lon="1.59302">
        <ele>12.9</ele>
        <time>2020-06-18T19:00:24Z</time>
      </trkpt>
      <trkpt lat="50.50166" lon="1.59301">
        <ele>12.9</ele>
        <time>2020-06-18T19:00:25Z</time>
      </trkpt>
      <trkpt lat="50.50173" lon="1.593">
        <ele>12.9</ele>
        <time>2020-06-18T19:00:26Z</time>
      </trkpt>
      <trkpt lat="50.5018" lon="1.59298">
        <ele>12.8</ele>
        <time>2020-06-18T19:00:27Z</time>
      </trkpt>
      <trkpt lat="50.50188" lon="1.59296">
        <ele>12.8</ele>
        <time>2020-06-18T19:00:28Z</time>
      </trkpt>
      <trkpt lat="50.50195" lon="1.59294">
        <ele>12.7</ele>
        <time>2020-06-18T19:00:29Z</time>
      </trkpt>
      <trkpt lat="50.50202" lon="1.59291">
        <ele>12.7</ele>
        <time>2020-06-18T19:00:30Z</time>
      </trkpt>
      <trkpt lat="50.50209" lon="1.59289">
        <ele>12.7</ele>
        <time>2020-06-18T19:00:31Z</time>
      </trkpt>
      <trkpt lat="50.50216" lon="1.59286">
        <ele>12.7</ele>
        <time>2020-06-18T19:00:32Z</time>
      </trkpt>
      <trkpt lat="50.50223" lon="1.59284">
        <ele>12.7</ele>
        <time>2020-06-18T19:00:33Z</time>
      </trkpt>
      <trkpt lat="50.5023" lon="1.59282">
        <ele>12.8</ele>
        <time>2020-06-18T19:00:34Z</time>
      </trkpt>
      <trkpt lat="50.50238" lon="1.5928">
        <ele>12.8</ele>
        <time>2020-06-18T19:00:35Z</time>
      </trkpt>
      <trkpt lat="50.50246" lon="1.59278">
        <ele>12.7</ele>
        <time>2020-06-18T19:00:36Z</time>
      </trkpt>
      <trkpt lat="50.50253" lon="1.59276">
        <ele>12.7</ele>
        <time>2020-06-18T19:00:37Z</time>
      </trkpt>
      <trkpt lat="50.50261" lon="1.59274">
        <ele>12.7</ele>
        <time>2020-06-18T19:00:38Z</time>
      </trkpt>
      <trkpt lat="50.50268" lon="1.59272">
        <ele>12.7</ele>
        <time>2020-06-18T19:00:39Z</time>
      </trkpt>
      <trkpt lat="50.50275" lon="1.5927">
        <ele>12.8</ele>
        <time>2020-06-18T19:00:40Z</time>
      </trkpt>
      <trkpt lat="50.50283" lon="1.59268">
        <ele>12.8</ele>
        <time>2020-06-18T19:00:41Z</time>
      </trkpt>
      <trkpt lat="50.50291" lon="1.59266">
        <ele>12.8</ele>
        <time>2020-06-18T19:00:42Z</time>
      </trkpt>
      <trkpt lat="50.50299" lon="1.59266">
        <ele>12.9</ele>
        <time>2020-06-18T19:00:43Z</time>
      </trkpt>
      <trkpt lat="50.50307" lon="1.59266">
        <ele>12.9</ele>
        <time>2020-06-18T19:00:44Z</time>
      </trkpt>
      <trkpt lat="50.50316" lon="1.59265">
        <ele>12.9</ele>
        <time>2020-06-18T19:00:45Z</time>
      </trkpt>
      <trkpt lat="50.50324" lon="1.59263">
        <ele>12.8</ele>
        <time>2020-06-18T19:00:46Z</time>
      </trkpt>
      <trkpt lat="50.50332" lon="1.59262">
        <ele>12.8</ele>
        <time>2020-06-18T19:00:47Z</time>
      </trkpt>
      <trkpt lat="50.5034" lon="1.59262">
        <ele>12.8</ele>
        <time>2020-06-18T19:00:48Z</time>
      </trkpt>
      <trkpt lat="50.50348" lon="1.59261">
        <ele>12.8</ele>
        <time>2020-06-18T19:00:49Z</time>
      </trkpt>
      <trkpt lat="50.50356" lon="1.5926">
        <ele>12.8</ele>
        <time>2020-06-18T19:00:50Z</time>
      </trkpt>
      <trkpt lat="50.50364" lon="1.59259">
        <ele>12.7</ele>
        <time>2020-06-18T19:00:51Z</time>
      </trkpt>
      <trkpt lat="50.50372" lon="1.59257">
        <ele>12.7</ele>
        <time>2020-06-18T19:00:52Z</time>
      </trkpt>
      <trkpt lat="50.50381" lon="1.59254">
        <ele>12.6</ele>
        <time>2020-06-18T19:00:53Z</time>
      </trkpt>
      <trkpt lat="50.50389" lon="1.59253">
        <ele>12.5</ele>
        <time>2020-06-18T19:00:54Z</time>
      </trkpt>
      <trkpt lat="50.50398" lon="1.59251">
        <ele>12.5</ele>
        <time>2020-06-18T19:00:55Z</time>
      </trkpt>
      <trkpt lat="50.50406" lon="1.5925">
        <ele>12.4</ele>
        <time>2020-06-18T19:00:56Z</time>
      </trkpt>
      <trkpt lat="50.50414" lon="1.59248">
        <ele>12.4</ele>
        <time>2020-06-18T19:00:57Z</time>
      </trkpt>
      <trkpt lat="50.50422" lon="1.59246">
        <ele>12.4</ele>
        <time>2020-06-18T19:00:58Z</time>
      </trkpt>
      <trkpt lat="50.5043" lon="1.59245">
        <ele>12.4</ele>
        <time>2020-06-18T19:00:59Z</time>
      </trkpt>
      <trkpt lat="50.50438" lon="1.59244">
        <ele>12.4</ele>
        <time>2020-06-18T19:01:00Z</time>
      </trkpt>
      <trkpt lat="50.50446" lon="1.59242">
        <ele>12.4</ele>
        <time>2020-06-18T19:01:01Z</time>
      </trkpt>
      <trkpt lat="50.50454" lon="1.59241">
        <ele>12.4</ele>
        <time>2020-06-18T19:01:02Z</time>
      </trkpt>
      <trkpt lat="50.50461" lon="1.59241">
        <ele>12.4</ele>
        <time>2020-06-18T19:01:03Z</time>
      </trkpt>
      <trkpt lat="50.50469" lon="1.5924">
        <ele>12.3</ele>
        <time>2020-06-18T19:01:04Z</time>
      </trkpt>
      <trkpt lat="50.50478" lon="1.59238">
        <ele>12.3</ele>
        <time>2020-06-18T19:01:05Z</time>
      </trkpt>
      <trkpt lat="50.50486" lon="1.59236">
        <ele>12.2</ele>
        <time>2020-06-18T19:01:06Z</time>
      </trkpt>
      <trkpt lat="50.50494" lon="1.59236">
        <ele>12.3</ele>
        <time>2020-06-18T19:01:07Z</time>
      </trkpt>
      <trkpt lat="50.50502" lon="1.59235">
        <ele>12.3</ele>
        <time>2020-06-18T19:01:08Z</time>
      </trkpt>
      <trkpt lat="50.5051" lon="1.59233">
        <ele>12.3</ele>
        <time>2020-06-18T19:01:09Z</time>
      </trkpt>
      <trkpt lat="50.50518" lon="1.59233">
        <ele>12.3</ele>
        <time>2020-06-18T19:01:10Z</time>
      </trkpt>
      <trkpt lat="50.50526" lon="1.59232">
        <ele>12.3</ele>
        <time>2020-06-18T19:01:11Z</time>
      </trkpt>
      <trkpt lat="50.50534" lon="1.59231">
        <ele>12.4</ele>
        <time>2020-06-18T19:01:12Z</time>
      </trkpt>
      <trkpt lat="50.50542" lon="1.59229">
        <ele>12.4</ele>
        <time>2020-06-18T19:01:13Z</time>
      </trkpt>
      <trkpt lat="50.5055" lon="1.59228">
        <ele>12.4</ele>
        <time>2020-06-18T19:01:14Z</time>
      </trkpt>
      <trkpt lat="50.50558" lon="1.59227">
        <ele>12.4</ele>
        <time>2020-06-18T19:01:15Z</time>
      </trkpt>
      <trkpt lat="50.50566" lon="1.59227">
        <ele>12.4</ele>
        <time>2020-06-18T19:01:16Z</time>
      </trkpt>
      <trkpt lat="50.50574" lon="1.59226">
        <ele>12.4</ele>
        <time>2020-06-18T19:01:17Z</time>
      </trkpt>
      <trkpt lat="50.50581" lon="1.59224">
        <ele>12.5</ele>
        <time>2020-06-18T19:01:18Z</time>
      </trkpt>
      <trkpt lat="50.50589" lon="1.59223">
        <ele>12.5</ele>
        <time>2020-06-18T19:01:19Z</time>
      </trkpt>
      <trkpt lat="50.50597" lon="1.59222">
        <ele>12.4</ele>
        <time>2020-06-18T19:01:20Z</time>
      </trkpt>
      <trkpt lat="50.50606" lon="1.59218">
        <ele>12.4</ele>
        <time>2020-06-18T19:01:21Z</time>
      </trkpt>
      <trkpt lat="50.50614" lon="1.59217">
        <ele>12.3</ele>
        <time>2020-06-18T19:01:22Z</time>
      </trkpt>
      <trkpt lat="50.50622" lon="1.59216">
        <ele>12.3</ele>
        <time>2020-06-18T19:01:23Z</time>
      </trkpt>
      <trkpt lat="50.5063" lon="1.59215">
        <ele>12.3</ele>
        <time>2020-06-18T19:01:24Z</time>
      </trkpt>
      <trkpt lat="50.50639" lon="1.59214">
        <ele>12.2</ele>
        <time>2020-06-18T19:01:25Z</time>
      </trkpt>
      <trkpt lat="50.50647" lon="1.59214">
        <ele>12.2</ele>
        <time>2020-06-18T19:01:26Z</time>
      </trkpt>
      <trkpt lat="50.50654" lon="1.59213">
        <ele>12.2</ele>
        <time>2020-06-18T19:01:27Z</time>
      </trkpt>
      <trkpt lat="50.50662" lon="1.59214">
        <ele>12.2</ele>
        <time>2020-06-18T19:01:28Z</time>
      </trkpt>
      <trkpt lat="50.5067" lon="1.59213">
        <ele>12.2</ele>
        <time>2020-06-18T19:01:29Z</time>
      </trkpt>
      <trkpt lat="50.50679" lon="1.59212">
        <ele>12.1</ele>
        <time>2020-06-18T19:01:30Z</time>
      </trkpt>
      <trkpt lat="50.50687" lon="1.59212">
        <ele>12.1</ele>
        <time>2020-06-18T19:01:31Z</time>
      </trkpt>
      <trkpt lat="50.50694" lon="1.59211">
        <ele>12.2</ele>
        <time>2020-06-18T19:01:32Z</time>
      </trkpt>
      <trkpt lat="50.50702" lon="1.59209">
        <ele>12.2</ele>
        <time>2020-06-18T19:01:33Z</time>
      </trkpt>
      <trkpt lat="50.5071" lon="1.59207">
        <ele>12.2</ele>
        <time>2020-06-18T19:01:34Z</time>
      </trkpt>
      <trkpt lat="50.50717" lon="1.59202">
        <ele>12.2</ele>
        <time>2020-06-18T19:01:35Z</time>
      </trkpt>
      <trkpt lat="50.50724" lon="1.592">
        <ele>12.1</ele>
        <time>2020-06-18T19:01:36Z</time>
      </trkpt>
      <trkpt lat="50.50732" lon="1.59198">
        <ele>12.1</ele>
        <time>2020-06-18T19:01:37Z</time>
      </trkpt>
      <trkpt lat="50.50739" lon="1.59195">
        <ele>12.1</ele>
        <time>2020-06-18T19:01:38Z</time>
      </trkpt>
      <trkpt lat="50.50746" lon="1.59192">
        <ele>12</ele>
        <time>2020-06-18T19:01:39Z</time>
      </trkpt>
      <trkpt lat="50.50752" lon="1.59187">
        <ele>12</ele>
        <time>2020-06-18T19:01:40Z</time>
      </trkpt>
      <trkpt lat="50.50759" lon="1.59182">
        <ele>12</ele>
        <time>2020-06-18T19:01:41Z</time>
      </trkpt>
      <trkpt lat="50.50767" lon="1.59177">
        <ele>11.9</ele>
        <time>2020-06-18T19:01:42Z</time>
      </trkpt>
      <trkpt lat="50.50773" lon="1.59172">
        <ele>11.9</ele>
        <time>2020-06-18T19:01:43Z</time>
      </trkpt>
      <trkpt lat="50.50781" lon="1.59167">
        <ele>11.8</ele>
        <time>2020-06-18T19:01:44Z</time>
      </trkpt>
      <trkpt lat="50.50788" lon="1.59161">
        <ele>11.7</ele>
        <time>2020-06-18T19:01:45Z</time>
      </trkpt>
      <trkpt lat="50.50794" lon="1.59155">
        <ele>11.6</ele>
        <time>2020-06-18T19:01:46Z</time>
      </trkpt>
      <trkpt lat="50.508" lon="1.59148">
        <ele>11.5</ele>
        <time>2020-06-18T19:01:47Z</time>
      </trkpt>
      <trkpt lat="50.50807" lon="1.5914">
        <ele>11.5</ele>
        <time>2020-06-18T19:01:48Z</time>
      </trkpt>
      <trkpt lat="50.50813" lon="1.59131">
        <ele>11.4</ele>
        <time>2020-06-18T19:01:49Z</time>
      </trkpt>
      <trkpt lat="50.5082" lon="1.59124">
        <ele>11.4</ele>
        <time>2020-06-18T19:01:50Z</time>
      </trkpt>
      <trkpt lat="50.50826" lon="1.59116">
        <ele>11.3</ele>
        <time>2020-06-18T19:01:51Z</time>
      </trkpt>
      <trkpt lat="50.50833" lon="1.59109">
        <ele>11.2</ele>
        <time>2020-06-18T19:01:52Z</time>
      </trkpt>
      <trkpt lat="50.5084" lon="1.59101">
        <ele>11.2</ele>
        <time>2020-06-18T19:01:53Z</time>
      </trkpt>
      <trkpt lat="50.50847" lon="1.59094">
        <ele>11.1</ele>
        <time>2020-06-18T19:01:54Z</time>
      </trkpt>
      <trkpt lat="50.50854" lon="1.59087">
        <ele>11.1</ele>
        <time>2020-06-18T19:01:55Z</time>
      </trkpt>
      <trkpt lat="50.50861" lon="1.5908">
        <ele>11</ele>
        <time>2020-06-18T19:01:56Z</time>
      </trkpt>
      <trkpt lat="50.50868" lon="1.59074">
        <ele>11</ele>
        <time>2020-06-18T19:01:57Z</time>
      </trkpt>
      <trkpt lat="50.50877" lon="1.59068">
        <ele>10.9</ele>
        <time>2020-06-18T19:01:58Z</time>
      </trkpt>
      <trkpt lat="50.50885" lon="1.59062">
        <ele>10.9</ele>
        <time>2020-06-18T19:01:59Z</time>
      </trkpt>
      <trkpt lat="50.50893" lon="1.59056">
        <ele>10.9</ele>
        <time>2020-06-18T19:02:00Z</time>
      </trkpt>
      <trkpt lat="50.50898" lon="1.59048">
        <ele>10.9</ele>
        <time>2020-06-18T19:02:01Z</time>
      </trkpt>
      <trkpt lat="50.50906" lon="1.59041">
        <ele>11</ele>
        <time>2020-06-18T19:02:02Z</time>
      </trkpt>
      <trkpt lat="50.50912" lon="1.59035">
        <ele>11</ele>
        <time>2020-06-18T19:02:03Z</time>
      </trkpt>
      <trkpt lat="50.50919" lon="1.59027">
        <ele>11</ele>
        <time>2020-06-18T19:02:04Z</time>
      </trkpt>
      <trkpt lat="50.50926" lon="1.59019">
        <ele>11</ele>
        <time>2020-06-18T19:02:05Z</time>
      </trkpt>
      <trkpt lat="50.50933" lon="1.59012">
        <ele>11</ele>
        <time>2020-06-18T19:02:06Z</time>
      </trkpt>
      <trkpt lat="50.50939" lon="1.59005">
        <ele>11</ele>
        <time>2020-06-18T19:02:07Z</time>
      </trkpt>
      <trkpt lat="50.50946" lon="1.58997">
        <ele>11</ele>
        <time>2020-06-18T19:02:08Z</time>
      </trkpt>
      <trkpt lat="50.50952" lon="1.5899">
        <ele>11</ele>
        <time>2020-06-18T19:02:09Z</time>
      </trkpt>
      <trkpt lat="50.50959" lon="1.58983">
        <ele>10.9</ele>
        <time>2020-06-18T19:02:10Z</time>
      </trkpt>
      <trkpt lat="50.50966" lon="1.58978">
        <ele>10.9</ele>
        <time>2020-06-18T19:02:11Z</time>
      </trkpt>
      <trkpt lat="50.50972" lon="1.58971">
        <ele>10.9</ele>
        <time>2020-06-18T19:02:12Z</time>
      </trkpt>
      <trkpt lat="50.50978" lon="1.58964">
        <ele>10.8</ele>
        <time>2020-06-18T19:02:13Z</time>
      </trkpt>
      <trkpt lat="50.50985" lon="1.58957">
        <ele>10.7</ele>
        <time>2020-06-18T19:02:14Z</time>
      </trkpt>
      <trkpt lat="50.50992" lon="1.5895">
        <ele>10.7</ele>
        <time>2020-06-18T19:02:15Z</time>
      </trkpt>
      <trkpt lat="50.50999" lon="1.58944">
        <ele>10.6</ele>
        <time>2020-06-18T19:02:16Z</time>
      </trkpt>
      <trkpt lat="50.51005" lon="1.58938">
        <ele>10.5</ele>
        <time>2020-06-18T19:02:17Z</time>
      </trkpt>
      <trkpt lat="50.51012" lon="1.58931">
        <ele>10.4</ele>
        <time>2020-06-18T19:02:18Z</time>
      </trkpt>
      <trkpt lat="50.51019" lon="1.58925">
        <ele>10.3</ele>
        <time>2020-06-18T19:02:19Z</time>
      </trkpt>
      <trkpt lat="50.51026" lon="1.58918">
        <ele>10.3</ele>
        <time>2020-06-18T19:02:20Z</time>
      </trkpt>
      <trkpt lat="50.51032" lon="1.58912">
        <ele>10.3</ele>
        <time>2020-06-18T19:02:21Z</time>
      </trkpt>
      <trkpt lat="50.51039" lon="1.58906">
        <ele>10.2</ele>
        <time>2020-06-18T19:02:22Z</time>
      </trkpt>
      <trkpt lat="50.51046" lon="1.589">
        <ele>10.2</ele>
        <time>2020-06-18T19:02:23Z</time>
      </trkpt>
      <trkpt lat="50.51053" lon="1.58893">
        <ele>10.1</ele>
        <time>2020-06-18T19:02:24Z</time>
      </trkpt>
      <trkpt lat="50.51059" lon="1.58886">
        <ele>10.1</ele>
        <time>2020-06-18T19:02:25Z</time>
      </trkpt>
      <trkpt lat="50.51066" lon="1.58878">
        <ele>10.1</ele>
        <time>2020-06-18T19:02:26Z</time>
      </trkpt>
      <trkpt lat="50.51072" lon="1.58872">
        <ele>10.2</ele>
        <time>2020-06-18T19:02:27Z</time>
      </trkpt>
      <trkpt lat="50.51078" lon="1.58866">
        <ele>10.2</ele>
        <time>2020-06-18T19:02:28Z</time>
      </trkpt>
      <trkpt lat="50.51084" lon="1.5886">
        <ele>10.3</ele>
        <time>2020-06-18T19:02:29Z</time>
      </trkpt>
      <trkpt lat="50.51091" lon="1.58858">
        <ele>10.3</ele>
        <time>2020-06-18T19:02:30Z</time>
      </trkpt>
      <trkpt lat="50.51097" lon="1.58855">
        <ele>10.3</ele>
        <time>2020-06-18T19:02:31Z</time>
      </trkpt>
      <trkpt lat="50.51101" lon="1.58848">
        <ele>10.3</ele>
        <time>2020-06-18T19:02:32Z</time>
      </trkpt>
      <trkpt lat="50.51105" lon="1.5884">
        <ele>10.4</ele>
        <time>2020-06-18T19:02:33Z</time>
      </trkpt>
      <trkpt lat="50.5111" lon="1.58835">
        <ele>10.5</ele>
        <time>2020-06-18T19:02:34Z</time>
      </trkpt>
      <trkpt lat="50.51115" lon="1.58829">
        <ele>10.5</ele>
        <time>2020-06-18T19:02:35Z</time>
      </trkpt>
      <trkpt lat="50.5112" lon="1.58823">
        <ele>10.6</ele>
        <time>2020-06-18T19:02:36Z</time>
      </trkpt>
      <trkpt lat="50.51125" lon="1.58817">
        <ele>10.6</ele>
        <time>2020-06-18T19:02:37Z</time>
      </trkpt>
      <trkpt lat="50.51131" lon="1.58811">
        <ele>10.7</ele>
        <time>2020-06-18T19:02:38Z</time>
      </trkpt>
      <trkpt lat="50.51136" lon="1.58805">
        <ele>10.8</ele>
        <time>2020-06-18T19:02:39Z</time>
      </trkpt>
      <trkpt lat="50.51142" lon="1.588">
        <ele>10.9</ele>
        <time>2020-06-18T19:02:40Z</time>
      </trkpt>
      <trkpt lat="50.51148" lon="1.58794">
        <ele>11</ele>
        <time>2020-06-18T19:02:41Z</time>
      </trkpt>
      <trkpt lat="50.51155" lon="1.58788">
        <ele>11.2</ele>
        <time>2020-06-18T19:02:42Z</time>
      </trkpt>
      <trkpt lat="50.51161" lon="1.58782">
        <ele>11.3</ele>
        <time>2020-06-18T19:02:43Z</time>
      </trkpt>
      <trkpt lat="50.51166" lon="1.58775">
        <ele>11.5</ele>
        <time>2020-06-18T19:02:44Z</time>
      </trkpt>
      <trkpt lat="50.51173" lon="1.58771">
        <ele>11.6</ele>
        <time>2020-06-18T19:02:45Z</time>
      </trkpt>
      <trkpt lat="50.51179" lon="1.58765">
        <ele>11.8</ele>
        <time>2020-06-18T19:02:46Z</time>
      </trkpt>
      <trkpt lat="50.51185" lon="1.58759">
        <ele>11.9</ele>
        <time>2020-06-18T19:02:47Z</time>
      </trkpt>
      <trkpt lat="50.51192" lon="1.58754">
        <ele>12.1</ele>
        <time>2020-06-18T19:02:48Z</time>
      </trkpt>
      <trkpt lat="50.51198" lon="1.58749">
        <ele>12.3</ele>
        <time>2020-06-18T19:02:49Z</time>
      </trkpt>
      <trkpt lat="50.51205" lon="1.58745">
        <ele>12.4</ele>
        <time>2020-06-18T19:02:50Z</time>
      </trkpt>
      <trkpt lat="50.51211" lon="1.5874">
        <ele>12.5</ele>
        <time>2020-06-18T19:02:51Z</time>
      </trkpt>
      <trkpt lat="50.51216" lon="1.58734">
        <ele>12.6</ele>
        <time>2020-06-18T19:02:52Z</time>
      </trkpt>
      <trkpt lat="50.51223" lon="1.5873">
        <ele>12.7</ele>
        <time>2020-06-18T19:02:53Z</time>
      </trkpt>
      <trkpt lat="50.51229" lon="1.58727">
        <ele>12.8</ele>
        <time>2020-06-18T19:02:54Z</time>
      </trkpt>
      <trkpt lat="50.51236" lon="1.58725">
        <ele>13</ele>
        <time>2020-06-18T19:02:55Z</time>
      </trkpt>
      <trkpt lat="50.51243" lon="1.58722">
        <ele>13</ele>
        <time>2020-06-18T19:02:56Z</time>
      </trkpt>
      <trkpt lat="50.5125" lon="1.58718">
        <ele>13</ele>
        <time>2020-06-18T19:02:57Z</time>
      </trkpt>
      <trkpt lat="50.51257" lon="1.58717">
        <ele>13.1</ele>
        <time>2020-06-18T19:02:58Z</time>
      </trkpt>
      <trkpt lat="50.51264" lon="1.58714">
        <ele>13.1</ele>
        <time>2020-06-18T19:02:59Z</time>
      </trkpt>
      <trkpt lat="50.5127" lon="1.58713">
        <ele>13.1</ele>
        <time>2020-06-18T19:03:00Z</time>
      </trkpt>
      <trkpt lat="50.51278" lon="1.58713">
        <ele>13.1</ele>
        <time>2020-06-18T19:03:01Z</time>
      </trkpt>
      <trkpt lat="50.51285" lon="1.58713">
        <ele>13.2</ele>
        <time>2020-06-18T19:03:02Z</time>
      </trkpt>
      <trkpt lat="50.51292" lon="1.58713">
        <ele>13.2</ele>
        <time>2020-06-18T19:03:03Z</time>
      </trkpt>
      <trkpt lat="50.51298" lon="1.58712">
        <ele>13.2</ele>
        <time>2020-06-18T19:03:04Z</time>
      </trkpt>
      <trkpt lat="50.51306" lon="1.58712">
        <ele>13.3</ele>
        <time>2020-06-18T19:03:05Z</time>
      </trkpt>
      <trkpt lat="50.51313" lon="1.5871">
        <ele>13.3</ele>
        <time>2020-06-18T19:03:06Z</time>
      </trkpt>
      <trkpt lat="50.5132" lon="1.58708">
        <ele>13.3</ele>
        <time>2020-06-18T19:03:07Z</time>
      </trkpt>
      <trkpt lat="50.51327" lon="1.58706">
        <ele>13.2</ele>
        <time>2020-06-18T19:03:08Z</time>
      </trkpt>
      <trkpt lat="50.51335" lon="1.58704">
        <ele>13.1</ele>
        <time>2020-06-18T19:03:09Z</time>
      </trkpt>
      <trkpt lat="50.51342" lon="1.58702">
        <ele>13.1</ele>
        <time>2020-06-18T19:03:10Z</time>
      </trkpt>
      <trkpt lat="50.51349" lon="1.58698">
        <ele>13.2</ele>
        <time>2020-06-18T19:03:11Z</time>
      </trkpt>
      <trkpt lat="50.51357" lon="1.58697">
        <ele>13.3</ele>
        <time>2020-06-18T19:03:12Z</time>
      </trkpt>
      <trkpt lat="50.51365" lon="1.58696">
        <ele>13.3</ele>
        <time>2020-06-18T19:03:13Z</time>
      </trkpt>
      <trkpt lat="50.51372" lon="1.58694">
        <ele>13.2</ele>
        <time>2020-06-18T19:03:14Z</time>
      </trkpt>
      <trkpt lat="50.5138" lon="1.58692">
        <ele>13.1</ele>
        <time>2020-06-18T19:03:15Z</time>
      </trkpt>
      <trkpt lat="50.51388" lon="1.5869">
        <ele>13</ele>
        <time>2020-06-18T19:03:16Z</time>
      </trkpt>
      <trkpt lat="50.51397" lon="1.58689">
        <ele>12.9</ele>
        <time>2020-06-18T19:03:17Z</time>
      </trkpt>
      <trkpt lat="50.51406" lon="1.58688">
        <ele>12.8</ele>
        <time>2020-06-18T19:03:18Z</time>
      </trkpt>
      <trkpt lat="50.51415" lon="1.58687">
        <ele>12.7</ele>
        <time>2020-06-18T19:03:19Z</time>
      </trkpt>
      <trkpt lat="50.51423" lon="1.58684">
        <ele>12.6</ele>
        <time>2020-06-18T19:03:20Z</time>
      </trkpt>
      <trkpt lat="50.51431" lon="1.58682">
        <ele>12.6</ele>
        <time>2020-06-18T19:03:21Z</time>
      </trkpt>
      <trkpt lat="50.5144" lon="1.58679">
        <ele>12.5</ele>
        <time>2020-06-18T19:03:22Z</time>
      </trkpt>
      <trkpt lat="50.51448" lon="1.58677">
        <ele>12.4</ele>
        <time>2020-06-18T19:03:23Z</time>
      </trkpt>
      <trkpt lat="50.51457" lon="1.58676">
        <ele>12.3</ele>
        <time>2020-06-18T19:03:24Z</time>
      </trkpt>
      <trkpt lat="50.51465" lon="1.58674">
        <ele>12.2</ele>
        <time>2020-06-18T19:03:25Z</time>
      </trkpt>
      <trkpt lat="50.51473" lon="1.58672">
        <ele>12.2</ele>
        <time>2020-06-18T19:03:26Z</time>
      </trkpt>
      <trkpt lat="50.51481" lon="1.58671">
        <ele>12.1</ele>
        <time>2020-06-18T19:03:27Z</time>
      </trkpt>
      <trkpt lat="50.51489" lon="1.5867">
        <ele>12</ele>
        <time>2020-06-18T19:03:28Z</time>
      </trkpt>
      <trkpt lat="50.51497" lon="1.58666">
        <ele>12</ele>
        <time>2020-06-18T19:03:29Z</time>
      </trkpt>
      <trkpt lat="50.51505" lon="1.58662">
        <ele>11.9</ele>
        <time>2020-06-18T19:03:30Z</time>
      </trkpt>
      <trkpt lat="50.51514" lon="1.58657">
        <ele>11.8</ele>
        <time>2020-06-18T19:03:31Z</time>
      </trkpt>
      <trkpt lat="50.51521" lon="1.58652">
        <ele>11.7</ele>
        <time>2020-06-18T19:03:32Z</time>
      </trkpt>
      <trkpt lat="50.51529" lon="1.58648">
        <ele>11.6</ele>
        <time>2020-06-18T19:03:33Z</time>
      </trkpt>
      <trkpt lat="50.51538" lon="1.58644">
        <ele>11.6</ele>
        <time>2020-06-18T19:03:34Z</time>
      </trkpt>
      <trkpt lat="50.51546" lon="1.58638">
        <ele>11.5</ele>
        <time>2020-06-18T19:03:35Z</time>
      </trkpt>
      <trkpt lat="50.51553" lon="1.58632">
        <ele>11.5</ele>
        <time>2020-06-18T19:03:36Z</time>
      </trkpt>
      <trkpt lat="50.51561" lon="1.58625">
        <ele>11.5</ele>
        <time>2020-06-18T19:03:37Z</time>
      </trkpt>
      <trkpt lat="50.51569" lon="1.58619">
        <ele>11.5</ele>
        <time>2020-06-18T19:03:38Z</time>
      </trkpt>
      <trkpt lat="50.51576" lon="1.58613">
        <ele>11.5</ele>
        <time>2020-06-18T19:03:39Z</time>
      </trkpt>
      <trkpt lat="50.51584" lon="1.58607">
        <ele>11.5</ele>
        <time>2020-06-18T19:03:40Z</time>
      </trkpt>
      <trkpt lat="50.51591" lon="1.586">
        <ele>11.6</ele>
        <time>2020-06-18T19:03:41Z</time>
      </trkpt>
      <trkpt lat="50.51598" lon="1.58594">
        <ele>11.6</ele>
        <time>2020-06-18T19:03:42Z</time>
      </trkpt>
      <trkpt lat="50.51605" lon="1.58589">
        <ele>11.6</ele>
        <time>2020-06-18T19:03:43Z</time>
      </trkpt>
      <trkpt lat="50.51612" lon="1.58582">
        <ele>11.7</ele>
        <time>2020-06-18T19:03:44Z</time>
      </trkpt>
      <trkpt lat="50.51619" lon="1.58576">
        <ele>11.7</ele>
        <time>2020-06-18T19:03:45Z</time>
      </trkpt>
      <trkpt lat="50.51624" lon="1.58569">
        <ele>11.8</ele>
        <time>2020-06-18T19:03:46Z</time>
      </trkpt>
      <trkpt lat="50.5163" lon="1.58563">
        <ele>11.9</ele>
        <time>2020-06-18T19:03:47Z</time>
      </trkpt>
      <trkpt lat="50.51636" lon="1.58558">
        <ele>12</ele>
        <time>2020-06-18T19:03:48Z</time>
      </trkpt>
      <trkpt lat="50.51641" lon="1.58555">
        <ele>12.1</ele>
        <time>2020-06-18T19:03:49Z</time>
      </trkpt>
      <trkpt lat="50.51647" lon="1.58555">
        <ele>12.2</ele>
        <time>2020-06-18T19:03:50Z</time>
      </trkpt>
      <trkpt lat="50.51653" lon="1.58558">
        <ele>12.1</ele>
        <time>2020-06-18T19:03:51Z</time>
      </trkpt>
      <trkpt lat="50.5166" lon="1.58559">
        <ele>11.9</ele>
        <time>2020-06-18T19:03:52Z</time>
      </trkpt>
      <trkpt lat="50.51666" lon="1.58557">
        <ele>11.8</ele>
        <time>2020-06-18T19:03:53Z</time>
      </trkpt>
      <trkpt lat="50.5167" lon="1.5855">
        <ele>11.7</ele>
        <time>2020-06-18T19:03:54Z</time>
      </trkpt>
      <trkpt lat="50.51672" lon="1.58541">
        <ele>11.7</ele>
        <time>2020-06-18T19:03:55Z</time>
      </trkpt>
      <trkpt lat="50.51673" lon="1.58533">
        <ele>11.8</ele>
        <time>2020-06-18T19:03:56Z</time>
      </trkpt>
      <trkpt lat="50.51671" lon="1.58525">
        <ele>11.8</ele>
        <time>2020-06-18T19:03:57Z</time>
      </trkpt>
      <trkpt lat="50.51669" lon="1.58518">
        <ele>11.9</ele>
        <time>2020-06-18T19:03:58Z</time>
      </trkpt>
      <trkpt lat="50.51666" lon="1.5851">
        <ele>11.9</ele>
        <time>2020-06-18T19:03:59Z</time>
      </trkpt>
      <trkpt lat="50.51665" lon="1.58502">
        <ele>12</ele>
        <time>2020-06-18T19:04:00Z</time>
      </trkpt>
      <trkpt lat="50.51664" lon="1.58494">
        <ele>12</ele>
        <time>2020-06-18T19:04:01Z</time>
      </trkpt>
      <trkpt lat="50.51664" lon="1.58485">
        <ele>12</ele>
        <time>2020-06-18T19:04:02Z</time>
      </trkpt>
      <trkpt lat="50.51664" lon="1.58477">
        <ele>12</ele>
        <time>2020-06-18T19:04:03Z</time>
      </trkpt>
      <trkpt lat="50.51664" lon="1.5847">
        <ele>12</ele>
        <time>2020-06-18T19:04:04Z</time>
      </trkpt>
      <trkpt lat="50.51664" lon="1.58463">
        <ele>12.1</ele>
        <time>2020-06-18T19:04:05Z</time>
      </trkpt>
      <trkpt lat="50.51664" lon="1.58456">
        <ele>12.1</ele>
        <time>2020-06-18T19:04:06Z</time>
      </trkpt>
      <trkpt lat="50.51664" lon="1.58449">
        <ele>12.1</ele>
        <time>2020-06-18T19:04:07Z</time>
      </trkpt>
      <trkpt lat="50.51666" lon="1.58444">
        <ele>12.1</ele>
        <time>2020-06-18T19:04:08Z</time>
      </trkpt>
      <trkpt lat="50.51668" lon="1.58441">
        <ele>12.2</ele>
        <time>2020-06-18T19:04:09Z</time>
      </trkpt>
      <trkpt lat="50.51669" lon="1.5844">
        <ele>12.2</ele>
        <time>2020-06-18T19:04:10Z</time>
      </trkpt>
      <trkpt lat="50.51671" lon="1.58439">
        <ele>12.2</ele>
        <time>2020-06-18T19:04:11Z</time>
      </trkpt>
      <trkpt lat="50.51672" lon="1.5844">
        <ele>12.2</ele>
        <time>2020-06-18T19:04:12Z</time>
      </trkpt>
      <trkpt lat="50.51674" lon="1.58441">
        <ele>12.2</ele>
        <time>2020-06-18T19:04:13Z</time>
      </trkpt>
      <trkpt lat="50.51674" lon="1.58442">
        <ele>12.2</ele>
        <time>2020-06-18T19:04:14Z</time>
      </trkpt>
      <trkpt lat="50.51675" lon="1.58443">
        <ele>12.2</ele>
        <time>2020-06-18T19:04:15Z</time>
      </trkpt>
      <trkpt lat="50.51676" lon="1.58443">
        <ele>12.3</ele>
        <time>2020-06-18T19:04:16Z</time>
      </trkpt>
      <trkpt lat="50.51677" lon="1.58442">
        <ele>12.3</ele>
        <time>2020-06-18T19:04:17Z</time>
      </trkpt>
      <trkpt lat="50.51677" lon="1.58443">
        <ele>12.3</ele>
        <time>2020-06-18T19:04:18Z</time>
      </trkpt>
      <trkpt lat="50.51677" lon="1.58443">
        <ele>12.3</ele>
        <time>2020-06-18T19:04:19Z</time>
      </trkpt>
      <trkpt lat="50.51677" lon="1.58443">
        <ele>12.3</ele>
        <time>2020-06-18T19:04:20Z</time>
      </trkpt>
      <trkpt lat="50.51677" lon="1.58443">
        <ele>12.3</ele>
        <time>2020-06-18T19:04:21Z</time>
      </trkpt>
      <trkpt lat="50.51677" lon="1.58443">
        <ele>12.3</ele>
        <time>2020-06-18T19:04:22Z</time>
      </trkpt>
      <trkpt lat="50.51677" lon="1.58442">
        <ele>12.3</ele>
        <time>2020-06-18T19:04:23Z</time>
      </trkpt>
      <trkpt lat="50.51677" lon="1.58442">
        <ele>12.3</ele>
        <time>2020-06-18T19:04:24Z</time>
      </trkpt>
      <trkpt lat="50.51677" lon="1.58442">
        <ele>12.3</ele>
        <time>2020-06-18T19:04:25Z</time>
      </trkpt>
      <trkpt lat="50.51677" lon="1.58442">
        <ele>12.3</ele>
        <time>2020-06-18T19:04:26Z</time>
      </trkpt>
      <trkpt lat="50.51678" lon="1.58443">
        <ele>12.3</ele>
        <time>2020-06-18T19:04:27Z</time>
      </trkpt>
    </trkseg>
  </trk>
</gpx>